﻿<?xml version="1.0" encoding="UTF-8"?>
<gpx version="v1.1.5" creator="iTravel Tech Inc. - http://www.itravel-tech.com" xmlns:xsi="http://www.w3.org/2001/XMLSchema-instance" xmlns="http://www.topografix.com/GPX/1/1" xsi:schemaLocation="http://www.topografix.com/GPX/1/1 http://www.topografix.com/GPX/1/1/gpx.xsd http://www.topografix.com/GPX/gpx_overlay/0/3 http://www.topografix.com/GPX/gpx_overlay/0/3/gpx_overlay.xsd http://www.topografix.com/GPX/gpx_modified/0/1 http://www.topografix.com/GPX/gpx_modified/0/1/gpx_modified.xsd">
<trk>
<name>Holux2010/08/29_10:33</name>
<trkseg>
<trkpt lat="55.900188" lon="26.528690">
<ele>105.700256</ele>
<time>2010-08-29T07:33:29Z</time>
<desc>lat.=55.900188, lon.=26.528690, Alt.=105.700256m. Speed=0.324000m/h.</desc>
<speed>0.090000</speed>
</trkpt>
<trkpt lat="55.900200" lon="26.528753">
<ele>108.501038</ele>
<time>2010-08-29T07:33:30Z</time>
<desc>lat.=55.900200, lon.=26.528753, Alt.=108.501038m. Speed=0.000000m/h.</desc>
<speed>0.000000</speed>
</trkpt>
<trkpt lat="55.900276" lon="26.528820">
<ele>101.399475</ele>
<time>2010-08-29T07:33:31Z</time>
<desc>lat.=55.900276, lon.=26.528820, Alt.=101.399475m. Speed=0.432000m/h.</desc>
<speed>0.120000</speed>
</trkpt>
<trkpt lat="55.900299" lon="26.528915">
<ele>109.073303</ele>
<time>2010-08-29T07:33:32Z</time>
<desc>lat.=55.900299, lon.=26.528915, Alt.=109.073303m. Speed=0.144000m/h.</desc>
<speed>0.040000</speed>
</trkpt>
<trkpt lat="55.900314" lon="26.528963">
<ele>112.237366</ele>
<time>2010-08-29T07:33:33Z</time>
<desc>lat.=55.900314, lon.=26.528963, Alt.=112.237366m. Speed=0.468000m/h.</desc>
<speed>0.130000</speed>
</trkpt>
<trkpt lat="55.900276" lon="26.528940">
<ele>116.317444</ele>
<time>2010-08-29T07:33:34Z</time>
<desc>lat.=55.900276, lon.=26.528940, Alt.=116.317444m. Speed=0.288000m/h.</desc>
<speed>0.080000</speed>
</trkpt>
<trkpt lat="55.900284" lon="26.528963">
<ele>117.756897</ele>
<time>2010-08-29T07:33:35Z</time>
<desc>lat.=55.900284, lon.=26.528963, Alt.=117.756897m. Speed=0.648000m/h.</desc>
<speed>0.180000</speed>
</trkpt>
<trkpt lat="55.900288" lon="26.528978">
<ele>118.274475</ele>
<time>2010-08-29T07:33:36Z</time>
<desc>lat.=55.900288, lon.=26.528978, Alt.=118.274475m. Speed=0.684000m/h.</desc>
<speed>0.190000</speed>
</trkpt>
<trkpt lat="55.900291" lon="26.528992">
<ele>118.651428</ele>
<time>2010-08-29T07:33:37Z</time>
<desc>lat.=55.900291, lon.=26.528992, Alt.=118.651428m. Speed=0.576000m/h.</desc>
<speed>0.160000</speed>
</trkpt>
<trkpt lat="55.900295" lon="26.529003">
<ele>119.102600</ele>
<time>2010-08-29T07:33:38Z</time>
<desc>lat.=55.900295, lon.=26.529003, Alt.=119.102600m. Speed=0.612000m/h.</desc>
<speed>0.170000</speed>
</trkpt>
<trkpt lat="55.900295" lon="26.529005">
<ele>119.405334</ele>
<time>2010-08-29T07:33:39Z</time>
<desc>lat.=55.900295, lon.=26.529005, Alt.=119.405334m. Speed=0.468000m/h.</desc>
<speed>0.130000</speed>
</trkpt>
<trkpt lat="55.900288" lon="26.529001">
<ele>119.631897</ele>
<time>2010-08-29T07:33:40Z</time>
<desc>lat.=55.900288, lon.=26.529001, Alt.=119.631897m. Speed=0.108000m/h.</desc>
<speed>0.030000</speed>
</trkpt>
<trkpt lat="55.900284" lon="26.528997">
<ele>119.797913</ele>
<time>2010-08-29T07:33:41Z</time>
<desc>lat.=55.900284, lon.=26.528997, Alt.=119.797913m. Speed=0.072000m/h.</desc>
<speed>0.020000</speed>
</trkpt>
<trkpt lat="55.900291" lon="26.529005">
<ele>119.450256</ele>
<time>2010-08-29T07:33:42Z</time>
<desc>lat.=55.900291, lon.=26.529005, Alt.=119.450256m. Speed=0.792000m/h.</desc>
<speed>0.220000</speed>
</trkpt>
<trkpt lat="55.900284" lon="26.529007">
<ele>119.674866</ele>
<time>2010-08-29T07:33:43Z</time>
<desc>lat.=55.900284, lon.=26.529007, Alt.=119.674866m. Speed=0.864000m/h.</desc>
<speed>0.240000</speed>
</trkpt>
<trkpt lat="55.900276" lon="26.528996">
<ele>119.477600</ele>
<time>2010-08-29T07:33:44Z</time>
<desc>lat.=55.900276, lon.=26.528996, Alt.=119.477600m. Speed=0.036000m/h.</desc>
<speed>0.010000</speed>
</trkpt>
<trkpt lat="55.900265" lon="26.528988">
<ele>119.774475</ele>
<time>2010-08-29T07:33:45Z</time>
<desc>lat.=55.900265, lon.=26.528988, Alt.=119.774475m. Speed=0.324000m/h.</desc>
<speed>0.090000</speed>
</trkpt>
<trkpt lat="55.900238" lon="26.528965">
<ele>119.766663</ele>
<time>2010-08-29T07:33:46Z</time>
<desc>lat.=55.900238, lon.=26.528965, Alt.=119.766663m. Speed=0.648000m/h.</desc>
<speed>0.180000</speed>
</trkpt>
<trkpt lat="55.900234" lon="26.528957">
<ele>119.317444</ele>
<time>2010-08-29T07:33:47Z</time>
<desc>lat.=55.900234, lon.=26.528957, Alt.=119.317444m. Speed=0.360000m/h.</desc>
<speed>0.100000</speed>
</trkpt>
<trkpt lat="55.900215" lon="26.528936">
<ele>118.919006</ele>
<time>2010-08-29T07:33:48Z</time>
<desc>lat.=55.900215, lon.=26.528936, Alt.=118.919006m. Speed=0.288000m/h.</desc>
<speed>0.080000</speed>
</trkpt>
<trkpt lat="55.900208" lon="26.528929">
<ele>118.958069</ele>
<time>2010-08-29T07:33:49Z</time>
<desc>lat.=55.900208, lon.=26.528929, Alt.=118.958069m. Speed=0.036000m/h.</desc>
<speed>0.010000</speed>
</trkpt>
<trkpt lat="55.900204" lon="26.528921">
<ele>118.831116</ele>
<time>2010-08-29T07:33:50Z</time>
<desc>lat.=55.900204, lon.=26.528921, Alt.=118.831116m. Speed=0.288000m/h.</desc>
<speed>0.080000</speed>
</trkpt>
<trkpt lat="55.900196" lon="26.528913">
<ele>118.680725</ele>
<time>2010-08-29T07:33:51Z</time>
<desc>lat.=55.900196, lon.=26.528913, Alt.=118.680725m. Speed=0.288000m/h.</desc>
<speed>0.080000</speed>
</trkpt>
<trkpt lat="55.900192" lon="26.528910">
<ele>118.639709</ele>
<time>2010-08-29T07:33:52Z</time>
<desc>lat.=55.900192, lon.=26.528910, Alt.=118.639709m. Speed=0.252000m/h.</desc>
<speed>0.070000</speed>
</trkpt>
<trkpt lat="55.900185" lon="26.528902">
<ele>118.448303</ele>
<time>2010-08-29T07:33:53Z</time>
<desc>lat.=55.900185, lon.=26.528902, Alt.=118.448303m. Speed=0.252000m/h.</desc>
<speed>0.070000</speed>
</trkpt>
<trkpt lat="55.900177" lon="26.528891">
<ele>118.200256</ele>
<time>2010-08-29T07:33:54Z</time>
<desc>lat.=55.900177, lon.=26.528891, Alt.=118.200256m. Speed=0.252000m/h.</desc>
<speed>0.070000</speed>
</trkpt>
<trkpt lat="55.900169" lon="26.528879">
<ele>117.971741</ele>
<time>2010-08-29T07:33:55Z</time>
<desc>lat.=55.900169, lon.=26.528879, Alt.=117.971741m. Speed=0.216000m/h.</desc>
<speed>0.060000</speed>
</trkpt>
<trkpt lat="55.900162" lon="26.528872">
<ele>117.811584</ele>
<time>2010-08-29T07:33:56Z</time>
<desc>lat.=55.900162, lon.=26.528872, Alt.=117.811584m. Speed=0.252000m/h.</desc>
<speed>0.070000</speed>
</trkpt>
<trkpt lat="55.900154" lon="26.528862">
<ele>117.672913</ele>
<time>2010-08-29T07:33:57Z</time>
<desc>lat.=55.900154, lon.=26.528862, Alt.=117.672913m. Speed=0.216000m/h.</desc>
<speed>0.060000</speed>
</trkpt>
<trkpt lat="55.900112" lon="26.528770">
<ele>113.971741</ele>
<time>2010-08-29T07:33:58Z</time>
<desc>lat.=55.900112, lon.=26.528770, Alt.=113.971741m. Speed=0.468000m/h.</desc>
<speed>0.130000</speed>
</trkpt>
<trkpt lat="55.900105" lon="26.528757">
<ele>113.325256</ele>
<time>2010-08-29T07:33:59Z</time>
<desc>lat.=55.900105, lon.=26.528757, Alt.=113.325256m. Speed=0.072000m/h.</desc>
<speed>0.020000</speed>
</trkpt>
<trkpt lat="55.900101" lon="26.528746">
<ele>112.844788</ele>
<time>2010-08-29T07:34:00Z</time>
<desc>lat.=55.900101, lon.=26.528746, Alt.=112.844788m. Speed=0.180000m/h.</desc>
<speed>0.050000</speed>
</trkpt>
<trkpt lat="55.900093" lon="26.528723">
<ele>112.260803</ele>
<time>2010-08-29T07:34:01Z</time>
<desc>lat.=55.900093, lon.=26.528723, Alt.=112.260803m. Speed=0.000000m/h.</desc>
<speed>0.000000</speed>
</trkpt>
<trkpt lat="55.900085" lon="26.528708">
<ele>111.547913</ele>
<time>2010-08-29T07:34:02Z</time>
<desc>lat.=55.900085, lon.=26.528708, Alt.=111.547913m. Speed=0.072000m/h.</desc>
<speed>0.020000</speed>
</trkpt>
<trkpt lat="55.900085" lon="26.528708">
<ele>111.540100</ele>
<time>2010-08-29T07:34:03Z</time>
<desc>lat.=55.900085, lon.=26.528708, Alt.=111.540100m. Speed=0.072000m/h.</desc>
<speed>0.020000</speed>
</trkpt>
<trkpt lat="55.900085" lon="26.528708">
<ele>111.534241</ele>
<time>2010-08-29T07:34:04Z</time>
<desc>lat.=55.900085, lon.=26.528708, Alt.=111.534241m. Speed=0.000000m/h.</desc>
<speed>0.000000</speed>
</trkpt>
<trkpt lat="55.900085" lon="26.528708">
<ele>111.536194</ele>
<time>2010-08-29T07:34:05Z</time>
<desc>lat.=55.900085, lon.=26.528708, Alt.=111.536194m. Speed=0.036000m/h.</desc>
<speed>0.010000</speed>
</trkpt>
<trkpt lat="55.900085" lon="26.528708">
<ele>111.538147</ele>
<time>2010-08-29T07:34:06Z</time>
<desc>lat.=55.900085, lon.=26.528708, Alt.=111.538147m. Speed=0.036000m/h.</desc>
<speed>0.010000</speed>
</trkpt>
<trkpt lat="55.900085" lon="26.528708">
<ele>111.540100</ele>
<time>2010-08-29T07:34:07Z</time>
<desc>lat.=55.900085, lon.=26.528708, Alt.=111.540100m. Speed=0.144000m/h.</desc>
<speed>0.040000</speed>
</trkpt>
<trkpt lat="55.900085" lon="26.528708">
<ele>111.561584</ele>
<time>2010-08-29T07:34:08Z</time>
<desc>lat.=55.900085, lon.=26.528708, Alt.=111.561584m. Speed=0.216000m/h.</desc>
<speed>0.060000</speed>
</trkpt>
<trkpt lat="55.900085" lon="26.528708">
<ele>111.569397</ele>
<time>2010-08-29T07:34:09Z</time>
<desc>lat.=55.900085, lon.=26.528708, Alt.=111.569397m. Speed=0.072000m/h.</desc>
<speed>0.020000</speed>
</trkpt>
<trkpt lat="55.900085" lon="26.528708">
<ele>111.575256</ele>
<time>2010-08-29T07:34:10Z</time>
<desc>lat.=55.900085, lon.=26.528708, Alt.=111.575256m. Speed=0.180000m/h.</desc>
<speed>0.050000</speed>
</trkpt>
<trkpt lat="55.900085" lon="26.528708">
<ele>111.569397</ele>
<time>2010-08-29T07:34:11Z</time>
<desc>lat.=55.900085, lon.=26.528708, Alt.=111.569397m. Speed=0.288000m/h.</desc>
<speed>0.080000</speed>
</trkpt>
<trkpt lat="55.900085" lon="26.528706">
<ele>111.571350</ele>
<time>2010-08-29T07:34:12Z</time>
<desc>lat.=55.900085, lon.=26.528706, Alt.=111.571350m. Speed=0.000000m/h.</desc>
<speed>0.000000</speed>
</trkpt>
<trkpt lat="55.900085" lon="26.528706">
<ele>111.571350</ele>
<time>2010-08-29T07:34:13Z</time>
<desc>lat.=55.900085, lon.=26.528706, Alt.=111.571350m. Speed=0.072000m/h.</desc>
<speed>0.020000</speed>
</trkpt>
<trkpt lat="55.900085" lon="26.528706">
<ele>111.579163</ele>
<time>2010-08-29T07:34:14Z</time>
<desc>lat.=55.900085, lon.=26.528706, Alt.=111.579163m. Speed=0.288000m/h.</desc>
<speed>0.080000</speed>
</trkpt>
<trkpt lat="55.900085" lon="26.528706">
<ele>111.581116</ele>
<time>2010-08-29T07:34:15Z</time>
<desc>lat.=55.900085, lon.=26.528706, Alt.=111.581116m. Speed=0.108000m/h.</desc>
<speed>0.030000</speed>
</trkpt>
<trkpt lat="55.900085" lon="26.528706">
<ele>111.577209</ele>
<time>2010-08-29T07:34:16Z</time>
<desc>lat.=55.900085, lon.=26.528706, Alt.=111.577209m. Speed=0.000000m/h.</desc>
<speed>0.000000</speed>
</trkpt>
<trkpt lat="55.900085" lon="26.528706">
<ele>111.588928</ele>
<time>2010-08-29T07:34:17Z</time>
<desc>lat.=55.900085, lon.=26.528706, Alt.=111.588928m. Speed=0.180000m/h.</desc>
<speed>0.050000</speed>
</trkpt>
<trkpt lat="55.900085" lon="26.528706">
<ele>111.596741</ele>
<time>2010-08-29T07:34:18Z</time>
<desc>lat.=55.900085, lon.=26.528706, Alt.=111.596741m. Speed=0.252000m/h.</desc>
<speed>0.070000</speed>
</trkpt>
<trkpt lat="55.900082" lon="26.528704">
<ele>111.606506</ele>
<time>2010-08-29T07:34:19Z</time>
<desc>lat.=55.900082, lon.=26.528704, Alt.=111.606506m. Speed=0.360000m/h.</desc>
<speed>0.100000</speed>
</trkpt>
<trkpt lat="55.900082" lon="26.528704">
<ele>111.610413</ele>
<time>2010-08-29T07:34:20Z</time>
<desc>lat.=55.900082, lon.=26.528704, Alt.=111.610413m. Speed=0.036000m/h.</desc>
<speed>0.010000</speed>
</trkpt>
<trkpt lat="55.900082" lon="26.528704">
<ele>111.612366</ele>
<time>2010-08-29T07:34:21Z</time>
<desc>lat.=55.900082, lon.=26.528704, Alt.=111.612366m. Speed=0.000000m/h.</desc>
<speed>0.000000</speed>
</trkpt>
<trkpt lat="55.900082" lon="26.528704">
<ele>111.610413</ele>
<time>2010-08-29T07:34:22Z</time>
<desc>lat.=55.900082, lon.=26.528704, Alt.=111.610413m. Speed=0.000000m/h.</desc>
<speed>0.000000</speed>
</trkpt>
<trkpt lat="55.900082" lon="26.528704">
<ele>111.606506</ele>
<time>2010-08-29T07:34:23Z</time>
<desc>lat.=55.900082, lon.=26.528704, Alt.=111.606506m. Speed=0.108000m/h.</desc>
<speed>0.030000</speed>
</trkpt>
<trkpt lat="55.900082" lon="26.528704">
<ele>111.608459</ele>
<time>2010-08-29T07:34:24Z</time>
<desc>lat.=55.900082, lon.=26.528704, Alt.=111.608459m. Speed=0.000000m/h.</desc>
<speed>0.000000</speed>
</trkpt>
<trkpt lat="55.900082" lon="26.528704">
<ele>111.622131</ele>
<time>2010-08-29T07:34:25Z</time>
<desc>lat.=55.900082, lon.=26.528704, Alt.=111.622131m. Speed=0.252000m/h.</desc>
<speed>0.070000</speed>
</trkpt>
<trkpt lat="55.900082" lon="26.528702">
<ele>111.626038</ele>
<time>2010-08-29T07:34:26Z</time>
<desc>lat.=55.900082, lon.=26.528702, Alt.=111.626038m. Speed=0.000000m/h.</desc>
<speed>0.000000</speed>
</trkpt>
<trkpt lat="55.900082" lon="26.528702">
<ele>111.616272</ele>
<time>2010-08-29T07:34:27Z</time>
<desc>lat.=55.900082, lon.=26.528702, Alt.=111.616272m. Speed=0.360000m/h.</desc>
<speed>0.100000</speed>
</trkpt>
<trkpt lat="55.900082" lon="26.528702">
<ele>111.612366</ele>
<time>2010-08-29T07:34:28Z</time>
<desc>lat.=55.900082, lon.=26.528702, Alt.=111.612366m. Speed=0.000000m/h.</desc>
<speed>0.000000</speed>
</trkpt>
<trkpt lat="55.900082" lon="26.528702">
<ele>111.608459</ele>
<time>2010-08-29T07:34:29Z</time>
<desc>lat.=55.900082, lon.=26.528702, Alt.=111.608459m. Speed=0.072000m/h.</desc>
<speed>0.020000</speed>
</trkpt>
<trkpt lat="55.900082" lon="26.528702">
<ele>111.612366</ele>
<time>2010-08-29T07:34:30Z</time>
<desc>lat.=55.900082, lon.=26.528702, Alt.=111.612366m. Speed=0.252000m/h.</desc>
<speed>0.070000</speed>
</trkpt>
<trkpt lat="55.900082" lon="26.528700">
<ele>111.608459</ele>
<time>2010-08-29T07:34:31Z</time>
<desc>lat.=55.900082, lon.=26.528700, Alt.=111.608459m. Speed=0.000000m/h.</desc>
<speed>0.000000</speed>
</trkpt>
<trkpt lat="55.900082" lon="26.528700">
<ele>111.602600</ele>
<time>2010-08-29T07:34:32Z</time>
<desc>lat.=55.900082, lon.=26.528700, Alt.=111.602600m. Speed=0.000000m/h.</desc>
<speed>0.000000</speed>
</trkpt>
<trkpt lat="55.900082" lon="26.528700">
<ele>111.594788</ele>
<time>2010-08-29T07:34:33Z</time>
<desc>lat.=55.900082, lon.=26.528700, Alt.=111.594788m. Speed=0.180000m/h.</desc>
<speed>0.050000</speed>
</trkpt>
<trkpt lat="55.900082" lon="26.528700">
<ele>111.592834</ele>
<time>2010-08-29T07:34:34Z</time>
<desc>lat.=55.900082, lon.=26.528700, Alt.=111.592834m. Speed=0.000000m/h.</desc>
<speed>0.000000</speed>
</trkpt>
<trkpt lat="55.900082" lon="26.528700">
<ele>111.586975</ele>
<time>2010-08-29T07:34:35Z</time>
<desc>lat.=55.900082, lon.=26.528700, Alt.=111.586975m. Speed=0.144000m/h.</desc>
<speed>0.040000</speed>
</trkpt>
<trkpt lat="55.900078" lon="26.528700">
<ele>111.586975</ele>
<time>2010-08-29T07:34:36Z</time>
<desc>lat.=55.900078, lon.=26.528700, Alt.=111.586975m. Speed=0.036000m/h.</desc>
<speed>0.010000</speed>
</trkpt>
<trkpt lat="55.900078" lon="26.528700">
<ele>111.575256</ele>
<time>2010-08-29T07:34:37Z</time>
<desc>lat.=55.900078, lon.=26.528700, Alt.=111.575256m. Speed=0.216000m/h.</desc>
<speed>0.060000</speed>
</trkpt>
<trkpt lat="55.900078" lon="26.528700">
<ele>111.567444</ele>
<time>2010-08-29T07:34:38Z</time>
<desc>lat.=55.900078, lon.=26.528700, Alt.=111.567444m. Speed=0.252000m/h.</desc>
<speed>0.070000</speed>
</trkpt>
<trkpt lat="55.900078" lon="26.528698">
<ele>111.557678</ele>
<time>2010-08-29T07:34:39Z</time>
<desc>lat.=55.900078, lon.=26.528698, Alt.=111.557678m. Speed=0.000000m/h.</desc>
<speed>0.000000</speed>
</trkpt>
<trkpt lat="55.900078" lon="26.528698">
<ele>111.553772</ele>
<time>2010-08-29T07:34:40Z</time>
<desc>lat.=55.900078, lon.=26.528698, Alt.=111.553772m. Speed=0.000000m/h.</desc>
<speed>0.000000</speed>
</trkpt>
<trkpt lat="55.900078" lon="26.528698">
<ele>111.549866</ele>
<time>2010-08-29T07:34:41Z</time>
<desc>lat.=55.900078, lon.=26.528698, Alt.=111.549866m. Speed=0.216000m/h.</desc>
<speed>0.060000</speed>
</trkpt>
<trkpt lat="55.900078" lon="26.528698">
<ele>111.544006</ele>
<time>2010-08-29T07:34:42Z</time>
<desc>lat.=55.900078, lon.=26.528698, Alt.=111.544006m. Speed=0.036000m/h.</desc>
<speed>0.010000</speed>
</trkpt>
<trkpt lat="55.900078" lon="26.528698">
<ele>111.542053</ele>
<time>2010-08-29T07:34:43Z</time>
<desc>lat.=55.900078, lon.=26.528698, Alt.=111.542053m. Speed=0.000000m/h.</desc>
<speed>0.000000</speed>
</trkpt>
<trkpt lat="55.900078" lon="26.528698">
<ele>111.524475</ele>
<time>2010-08-29T07:34:44Z</time>
<desc>lat.=55.900078, lon.=26.528698, Alt.=111.524475m. Speed=0.000000m/h.</desc>
<speed>0.000000</speed>
</trkpt>
<trkpt lat="55.900078" lon="26.528698">
<ele>111.518616</ele>
<time>2010-08-29T07:34:45Z</time>
<desc>lat.=55.900078, lon.=26.528698, Alt.=111.518616m. Speed=0.108000m/h.</desc>
<speed>0.030000</speed>
</trkpt>
<trkpt lat="55.900078" lon="26.528698">
<ele>111.510803</ele>
<time>2010-08-29T07:34:46Z</time>
<desc>lat.=55.900078, lon.=26.528698, Alt.=111.510803m. Speed=0.036000m/h.</desc>
<speed>0.010000</speed>
</trkpt>
<trkpt lat="55.900078" lon="26.528698">
<ele>111.510803</ele>
<time>2010-08-29T07:34:47Z</time>
<desc>lat.=55.900078, lon.=26.528698, Alt.=111.510803m. Speed=0.504000m/h.</desc>
<speed>0.140000</speed>
</trkpt>
<trkpt lat="55.900078" lon="26.528696">
<ele>111.508850</ele>
<time>2010-08-29T07:34:48Z</time>
<desc>lat.=55.900078, lon.=26.528696, Alt.=111.508850m. Speed=0.180000m/h.</desc>
<speed>0.050000</speed>
</trkpt>
<trkpt lat="55.900074" lon="26.528696">
<ele>111.510803</ele>
<time>2010-08-29T07:34:49Z</time>
<desc>lat.=55.900074, lon.=26.528696, Alt.=111.510803m. Speed=0.036000m/h.</desc>
<speed>0.010000</speed>
</trkpt>
<trkpt lat="55.900074" lon="26.528696">
<ele>111.510803</ele>
<time>2010-08-29T07:34:50Z</time>
<desc>lat.=55.900074, lon.=26.528696, Alt.=111.510803m. Speed=0.072000m/h.</desc>
<speed>0.020000</speed>
</trkpt>
<trkpt lat="55.900074" lon="26.528696">
<ele>111.518616</ele>
<time>2010-08-29T07:34:51Z</time>
<desc>lat.=55.900074, lon.=26.528696, Alt.=111.518616m. Speed=0.036000m/h.</desc>
<speed>0.010000</speed>
</trkpt>
<trkpt lat="55.900074" lon="26.528696">
<ele>111.504944</ele>
<time>2010-08-29T07:34:52Z</time>
<desc>lat.=55.900074, lon.=26.528696, Alt.=111.504944m. Speed=0.072000m/h.</desc>
<speed>0.020000</speed>
</trkpt>
<trkpt lat="55.900074" lon="26.528694">
<ele>111.501038</ele>
<time>2010-08-29T07:34:53Z</time>
<desc>lat.=55.900074, lon.=26.528694, Alt.=111.501038m. Speed=0.360000m/h.</desc>
<speed>0.100000</speed>
</trkpt>
<trkpt lat="55.900074" lon="26.528694">
<ele>111.518616</ele>
<time>2010-08-29T07:34:54Z</time>
<desc>lat.=55.900074, lon.=26.528694, Alt.=111.518616m. Speed=0.648000m/h.</desc>
<speed>0.180000</speed>
</trkpt>
<trkpt lat="55.900078" lon="26.528692">
<ele>111.458069</ele>
<time>2010-08-29T07:34:55Z</time>
<desc>lat.=55.900078, lon.=26.528692, Alt.=111.458069m. Speed=0.252000m/h.</desc>
<speed>0.070000</speed>
</trkpt>
<trkpt lat="55.900078" lon="26.528692">
<ele>111.471741</ele>
<time>2010-08-29T07:34:56Z</time>
<desc>lat.=55.900078, lon.=26.528692, Alt.=111.471741m. Speed=0.216000m/h.</desc>
<speed>0.060000</speed>
</trkpt>
<trkpt lat="55.900078" lon="26.528692">
<ele>111.450256</ele>
<time>2010-08-29T07:34:57Z</time>
<desc>lat.=55.900078, lon.=26.528692, Alt.=111.450256m. Speed=0.252000m/h.</desc>
<speed>0.070000</speed>
</trkpt>
<trkpt lat="55.900078" lon="26.528694">
<ele>111.409241</ele>
<time>2010-08-29T07:34:58Z</time>
<desc>lat.=55.900078, lon.=26.528694, Alt.=111.409241m. Speed=0.000000m/h.</desc>
<speed>0.000000</speed>
</trkpt>
<trkpt lat="55.900078" lon="26.528694">
<ele>111.372131</ele>
<time>2010-08-29T07:34:59Z</time>
<desc>lat.=55.900078, lon.=26.528694, Alt.=111.372131m. Speed=0.036000m/h.</desc>
<speed>0.010000</speed>
</trkpt>
<trkpt lat="55.900078" lon="26.528696">
<ele>111.335022</ele>
<time>2010-08-29T07:35:00Z</time>
<desc>lat.=55.900078, lon.=26.528696, Alt.=111.335022m. Speed=0.000000m/h.</desc>
<speed>0.000000</speed>
</trkpt>
<trkpt lat="55.900078" lon="26.528696">
<ele>111.303772</ele>
<time>2010-08-29T07:35:01Z</time>
<desc>lat.=55.900078, lon.=26.528696, Alt.=111.303772m. Speed=0.576000m/h.</desc>
<speed>0.160000</speed>
</trkpt>
<trkpt lat="55.900078" lon="26.528694">
<ele>111.311584</ele>
<time>2010-08-29T07:35:02Z</time>
<desc>lat.=55.900078, lon.=26.528694, Alt.=111.311584m. Speed=0.504000m/h.</desc>
<speed>0.140000</speed>
</trkpt>
<trkpt lat="55.900078" lon="26.528694">
<ele>111.303772</ele>
<time>2010-08-29T07:35:03Z</time>
<desc>lat.=55.900078, lon.=26.528694, Alt.=111.303772m. Speed=0.612000m/h.</desc>
<speed>0.170000</speed>
</trkpt>
<trkpt lat="55.900078" lon="26.528694">
<ele>111.301819</ele>
<time>2010-08-29T07:35:04Z</time>
<desc>lat.=55.900078, lon.=26.528694, Alt.=111.301819m. Speed=0.576000m/h.</desc>
<speed>0.160000</speed>
</trkpt>
<trkpt lat="55.900078" lon="26.528694">
<ele>111.299866</ele>
<time>2010-08-29T07:35:05Z</time>
<desc>lat.=55.900078, lon.=26.528694, Alt.=111.299866m. Speed=1.116000m/h.</desc>
<speed>0.310000</speed>
</trkpt>
<trkpt lat="55.900074" lon="26.528690">
<ele>111.309631</ele>
<time>2010-08-29T07:35:06Z</time>
<desc>lat.=55.900074, lon.=26.528690, Alt.=111.309631m. Speed=0.576000m/h.</desc>
<speed>0.160000</speed>
</trkpt>
<trkpt lat="55.900089" lon="26.528683">
<ele>111.383850</ele>
<time>2010-08-29T07:35:07Z</time>
<desc>lat.=55.900089, lon.=26.528683, Alt.=111.383850m. Speed=0.468000m/h.</desc>
<speed>0.130000</speed>
</trkpt>
<trkpt lat="55.900101" lon="26.528683">
<ele>111.608459</ele>
<time>2010-08-29T07:35:08Z</time>
<desc>lat.=55.900101, lon.=26.528683, Alt.=111.608459m. Speed=0.720000m/h.</desc>
<speed>0.200000</speed>
</trkpt>
<trkpt lat="55.900108" lon="26.528704">
<ele>112.182678</ele>
<time>2010-08-29T07:35:09Z</time>
<desc>lat.=55.900108, lon.=26.528704, Alt.=112.182678m. Speed=0.756000m/h.</desc>
<speed>0.210000</speed>
</trkpt>
<trkpt lat="55.900108" lon="26.528700">
<ele>112.176819</ele>
<time>2010-08-29T07:35:10Z</time>
<desc>lat.=55.900108, lon.=26.528700, Alt.=112.176819m. Speed=1.260000m/h.</desc>
<speed>0.350000</speed>
</trkpt>
<trkpt lat="55.900120" lon="26.528702">
<ele>112.100647</ele>
<time>2010-08-29T07:35:11Z</time>
<desc>lat.=55.900120, lon.=26.528702, Alt.=112.100647m. Speed=1.368000m/h.</desc>
<speed>0.380000</speed>
</trkpt>
<trkpt lat="55.900127" lon="26.528702">
<ele>112.016663</ele>
<time>2010-08-29T07:35:12Z</time>
<desc>lat.=55.900127, lon.=26.528702, Alt.=112.016663m. Speed=1.692000m/h.</desc>
<speed>0.470000</speed>
</trkpt>
<trkpt lat="55.900124" lon="26.528698">
<ele>112.022522</ele>
<time>2010-08-29T07:35:13Z</time>
<desc>lat.=55.900124, lon.=26.528698, Alt.=112.022522m. Speed=2.016000m/h.</desc>
<speed>0.560000</speed>
</trkpt>
<trkpt lat="55.900124" lon="26.528690">
<ele>112.198303</ele>
<time>2010-08-29T07:35:14Z</time>
<desc>lat.=55.900124, lon.=26.528690, Alt.=112.198303m. Speed=1.584000m/h.</desc>
<speed>0.440000</speed>
</trkpt>
<trkpt lat="55.900127" lon="26.528688">
<ele>112.428772</ele>
<time>2010-08-29T07:35:15Z</time>
<desc>lat.=55.900127, lon.=26.528688, Alt.=112.428772m. Speed=1.512000m/h.</desc>
<speed>0.420000</speed>
</trkpt>
<trkpt lat="55.900127" lon="26.528685">
<ele>112.495178</ele>
<time>2010-08-29T07:35:16Z</time>
<desc>lat.=55.900127, lon.=26.528685, Alt.=112.495178m. Speed=1.728000m/h.</desc>
<speed>0.480000</speed>
</trkpt>
<trkpt lat="55.900120" lon="26.528667">
<ele>112.245178</ele>
<time>2010-08-29T07:35:17Z</time>
<desc>lat.=55.900120, lon.=26.528667, Alt.=112.245178m. Speed=1.836000m/h.</desc>
<speed>0.510000</speed>
</trkpt>
<trkpt lat="55.900116" lon="26.528664">
<ele>112.110413</ele>
<time>2010-08-29T07:35:18Z</time>
<desc>lat.=55.900116, lon.=26.528664, Alt.=112.110413m. Speed=1.764000m/h.</desc>
<speed>0.490000</speed>
</trkpt>
<trkpt lat="55.900112" lon="26.528662">
<ele>112.085022</ele>
<time>2010-08-29T07:35:19Z</time>
<desc>lat.=55.900112, lon.=26.528662, Alt.=112.085022m. Speed=1.584000m/h.</desc>
<speed>0.440000</speed>
</trkpt>
<trkpt lat="55.900112" lon="26.528662">
<ele>111.866272</ele>
<time>2010-08-29T07:35:20Z</time>
<desc>lat.=55.900112, lon.=26.528662, Alt.=111.866272m. Speed=1.728000m/h.</desc>
<speed>0.480000</speed>
</trkpt>
<trkpt lat="55.900108" lon="26.528658">
<ele>111.794006</ele>
<time>2010-08-29T07:35:21Z</time>
<desc>lat.=55.900108, lon.=26.528658, Alt.=111.794006m. Speed=1.728000m/h.</desc>
<speed>0.480000</speed>
</trkpt>
<trkpt lat="55.900112" lon="26.528658">
<ele>111.751038</ele>
<time>2010-08-29T07:35:22Z</time>
<desc>lat.=55.900112, lon.=26.528658, Alt.=111.751038m. Speed=1.476000m/h.</desc>
<speed>0.410000</speed>
</trkpt>
<trkpt lat="55.900105" lon="26.528654">
<ele>111.653381</ele>
<time>2010-08-29T07:35:23Z</time>
<desc>lat.=55.900105, lon.=26.528654, Alt.=111.653381m. Speed=1.656000m/h.</desc>
<speed>0.460000</speed>
</trkpt>
<trkpt lat="55.900108" lon="26.528656">
<ele>111.323303</ele>
<time>2010-08-29T07:35:24Z</time>
<desc>lat.=55.900108, lon.=26.528656, Alt.=111.323303m. Speed=1.548000m/h.</desc>
<speed>0.430000</speed>
</trkpt>
<trkpt lat="55.900112" lon="26.528664">
<ele>111.040100</ele>
<time>2010-08-29T07:35:25Z</time>
<desc>lat.=55.900112, lon.=26.528664, Alt.=111.040100m. Speed=1.728000m/h.</desc>
<speed>0.480000</speed>
</trkpt>
<trkpt lat="55.900116" lon="26.528671">
<ele>110.792053</ele>
<time>2010-08-29T07:35:26Z</time>
<desc>lat.=55.900116, lon.=26.528671, Alt.=110.792053m. Speed=1.764000m/h.</desc>
<speed>0.490000</speed>
</trkpt>
<trkpt lat="55.900112" lon="26.528675">
<ele>110.799866</ele>
<time>2010-08-29T07:35:27Z</time>
<desc>lat.=55.900112, lon.=26.528675, Alt.=110.799866m. Speed=1.836000m/h.</desc>
<speed>0.510000</speed>
</trkpt>
<trkpt lat="55.900108" lon="26.528673">
<ele>110.819397</ele>
<time>2010-08-29T07:35:28Z</time>
<desc>lat.=55.900108, lon.=26.528673, Alt.=110.819397m. Speed=1.980000m/h.</desc>
<speed>0.550000</speed>
</trkpt>
<trkpt lat="55.900105" lon="26.528669">
<ele>110.842834</ele>
<time>2010-08-29T07:35:29Z</time>
<desc>lat.=55.900105, lon.=26.528669, Alt.=110.842834m. Speed=2.088000m/h.</desc>
<speed>0.580000</speed>
</trkpt>
<trkpt lat="55.900097" lon="26.528667">
<ele>110.895569</ele>
<time>2010-08-29T07:35:30Z</time>
<desc>lat.=55.900097, lon.=26.528667, Alt.=110.895569m. Speed=2.412000m/h.</desc>
<speed>0.670000</speed>
</trkpt>
<trkpt lat="55.900089" lon="26.528666">
<ele>111.077209</ele>
<time>2010-08-29T07:35:31Z</time>
<desc>lat.=55.900089, lon.=26.528666, Alt.=111.077209m. Speed=2.736000m/h.</desc>
<speed>0.760000</speed>
</trkpt>
<trkpt lat="55.900078" lon="26.528664">
<ele>111.331116</ele>
<time>2010-08-29T07:35:32Z</time>
<desc>lat.=55.900078, lon.=26.528664, Alt.=111.331116m. Speed=2.592000m/h.</desc>
<speed>0.720000</speed>
</trkpt>
<trkpt lat="55.900066" lon="26.528662">
<ele>111.883850</ele>
<time>2010-08-29T07:35:33Z</time>
<desc>lat.=55.900066, lon.=26.528662, Alt.=111.883850m. Speed=2.628000m/h.</desc>
<speed>0.730000</speed>
</trkpt>
<trkpt lat="55.900059" lon="26.528658">
<ele>112.200256</ele>
<time>2010-08-29T07:35:34Z</time>
<desc>lat.=55.900059, lon.=26.528658, Alt.=112.200256m. Speed=2.592000m/h.</desc>
<speed>0.720000</speed>
</trkpt>
<trkpt lat="55.900051" lon="26.528654">
<ele>112.600647</ele>
<time>2010-08-29T07:35:35Z</time>
<desc>lat.=55.900051, lon.=26.528654, Alt.=112.600647m. Speed=2.664000m/h.</desc>
<speed>0.740000</speed>
</trkpt>
<trkpt lat="55.900043" lon="26.528654">
<ele>113.122131</ele>
<time>2010-08-29T07:35:36Z</time>
<desc>lat.=55.900043, lon.=26.528654, Alt.=113.122131m. Speed=2.520000m/h.</desc>
<speed>0.700000</speed>
</trkpt>
<trkpt lat="55.900032" lon="26.528656">
<ele>113.661194</ele>
<time>2010-08-29T07:35:37Z</time>
<desc>lat.=55.900032, lon.=26.528656, Alt.=113.661194m. Speed=2.520000m/h.</desc>
<speed>0.700000</speed>
</trkpt>
<trkpt lat="55.900024" lon="26.528652">
<ele>113.735413</ele>
<time>2010-08-29T07:35:38Z</time>
<desc>lat.=55.900024, lon.=26.528652, Alt.=113.735413m. Speed=2.664000m/h.</desc>
<speed>0.740000</speed>
</trkpt>
<trkpt lat="55.900021" lon="26.528652">
<ele>114.151428</ele>
<time>2010-08-29T07:35:39Z</time>
<desc>lat.=55.900021, lon.=26.528652, Alt.=114.151428m. Speed=2.844000m/h.</desc>
<speed>0.790000</speed>
</trkpt>
<trkpt lat="55.900024" lon="26.528664">
<ele>114.579163</ele>
<time>2010-08-29T07:35:40Z</time>
<desc>lat.=55.900024, lon.=26.528664, Alt.=114.579163m. Speed=2.664000m/h.</desc>
<speed>0.740000</speed>
</trkpt>
<trkpt lat="55.900028" lon="26.528671">
<ele>114.819397</ele>
<time>2010-08-29T07:35:41Z</time>
<desc>lat.=55.900028, lon.=26.528671, Alt.=114.819397m. Speed=2.412000m/h.</desc>
<speed>0.670000</speed>
</trkpt>
<trkpt lat="55.900028" lon="26.528681">
<ele>115.102600</ele>
<time>2010-08-29T07:35:42Z</time>
<desc>lat.=55.900028, lon.=26.528681, Alt.=115.102600m. Speed=2.160000m/h.</desc>
<speed>0.600000</speed>
</trkpt>
<trkpt lat="55.900024" lon="26.528679">
<ele>115.202209</ele>
<time>2010-08-29T07:35:43Z</time>
<desc>lat.=55.900024, lon.=26.528679, Alt.=115.202209m. Speed=2.124000m/h.</desc>
<speed>0.590000</speed>
</trkpt>
<trkpt lat="55.900032" lon="26.528687">
<ele>115.473694</ele>
<time>2010-08-29T07:35:44Z</time>
<desc>lat.=55.900032, lon.=26.528687, Alt.=115.473694m. Speed=2.124000m/h.</desc>
<speed>0.590000</speed>
</trkpt>
<trkpt lat="55.900059" lon="26.528717">
<ele>115.782288</ele>
<time>2010-08-29T07:35:45Z</time>
<desc>lat.=55.900059, lon.=26.528717, Alt.=115.782288m. Speed=1.404000m/h.</desc>
<speed>0.390000</speed>
</trkpt>
<trkpt lat="55.900108" lon="26.528759">
<ele>115.565491</ele>
<time>2010-08-29T07:35:46Z</time>
<desc>lat.=55.900108, lon.=26.528759, Alt.=115.565491m. Speed=1.260000m/h.</desc>
<speed>0.350000</speed>
</trkpt>
<trkpt lat="55.900108" lon="26.528749">
<ele>114.602600</ele>
<time>2010-08-29T07:35:47Z</time>
<desc>lat.=55.900108, lon.=26.528749, Alt.=114.602600m. Speed=0.144000m/h.</desc>
<speed>0.040000</speed>
</trkpt>
<trkpt lat="55.900116" lon="26.528749">
<ele>114.014709</ele>
<time>2010-08-29T07:35:48Z</time>
<desc>lat.=55.900116, lon.=26.528749, Alt.=114.014709m. Speed=0.288000m/h.</desc>
<speed>0.080000</speed>
</trkpt>
<trkpt lat="55.900112" lon="26.528740">
<ele>113.401428</ele>
<time>2010-08-29T07:35:49Z</time>
<desc>lat.=55.900112, lon.=26.528740, Alt.=113.401428m. Speed=0.144000m/h.</desc>
<speed>0.040000</speed>
</trkpt>
<trkpt lat="55.900108" lon="26.528734">
<ele>113.217834</ele>
<time>2010-08-29T07:35:50Z</time>
<desc>lat.=55.900108, lon.=26.528734, Alt.=113.217834m. Speed=0.360000m/h.</desc>
<speed>0.100000</speed>
</trkpt>
<trkpt lat="55.900105" lon="26.528734">
<ele>113.227600</ele>
<time>2010-08-29T07:35:51Z</time>
<desc>lat.=55.900105, lon.=26.528734, Alt.=113.227600m. Speed=0.036000m/h.</desc>
<speed>0.010000</speed>
</trkpt>
<trkpt lat="55.900105" lon="26.528734">
<ele>113.233459</ele>
<time>2010-08-29T07:35:52Z</time>
<desc>lat.=55.900105, lon.=26.528734, Alt.=113.233459m. Speed=0.144000m/h.</desc>
<speed>0.040000</speed>
</trkpt>
<trkpt lat="55.900105" lon="26.528734">
<ele>113.239319</ele>
<time>2010-08-29T07:35:53Z</time>
<desc>lat.=55.900105, lon.=26.528734, Alt.=113.239319m. Speed=0.216000m/h.</desc>
<speed>0.060000</speed>
</trkpt>
<trkpt lat="55.900108" lon="26.528734">
<ele>113.237366</ele>
<time>2010-08-29T07:35:54Z</time>
<desc>lat.=55.900108, lon.=26.528734, Alt.=113.237366m. Speed=0.324000m/h.</desc>
<speed>0.090000</speed>
</trkpt>
<trkpt lat="55.900105" lon="26.528734">
<ele>113.235413</ele>
<time>2010-08-29T07:35:55Z</time>
<desc>lat.=55.900105, lon.=26.528734, Alt.=113.235413m. Speed=0.324000m/h.</desc>
<speed>0.090000</speed>
</trkpt>
<trkpt lat="55.900105" lon="26.528734">
<ele>113.239319</ele>
<time>2010-08-29T07:35:56Z</time>
<desc>lat.=55.900105, lon.=26.528734, Alt.=113.239319m. Speed=0.324000m/h.</desc>
<speed>0.090000</speed>
</trkpt>
<trkpt lat="55.900105" lon="26.528734">
<ele>113.252991</ele>
<time>2010-08-29T07:35:57Z</time>
<desc>lat.=55.900105, lon.=26.528734, Alt.=113.252991m. Speed=0.360000m/h.</desc>
<speed>0.100000</speed>
</trkpt>
<trkpt lat="55.900105" lon="26.528734">
<ele>113.274475</ele>
<time>2010-08-29T07:35:58Z</time>
<desc>lat.=55.900105, lon.=26.528734, Alt.=113.274475m. Speed=0.144000m/h.</desc>
<speed>0.040000</speed>
</trkpt>
<trkpt lat="55.900105" lon="26.528734">
<ele>113.303772</ele>
<time>2010-08-29T07:35:59Z</time>
<desc>lat.=55.900105, lon.=26.528734, Alt.=113.303772m. Speed=0.216000m/h.</desc>
<speed>0.060000</speed>
</trkpt>
<trkpt lat="55.900105" lon="26.528736">
<ele>113.329163</ele>
<time>2010-08-29T07:36:00Z</time>
<desc>lat.=55.900105, lon.=26.528736, Alt.=113.329163m. Speed=0.648000m/h.</desc>
<speed>0.180000</speed>
</trkpt>
<trkpt lat="55.900101" lon="26.528738">
<ele>113.354553</ele>
<time>2010-08-29T07:36:01Z</time>
<desc>lat.=55.900101, lon.=26.528738, Alt.=113.354553m. Speed=0.216000m/h.</desc>
<speed>0.060000</speed>
</trkpt>
<trkpt lat="55.900101" lon="26.528736">
<ele>113.377991</ele>
<time>2010-08-29T07:36:02Z</time>
<desc>lat.=55.900101, lon.=26.528736, Alt.=113.377991m. Speed=0.468000m/h.</desc>
<speed>0.130000</speed>
</trkpt>
<trkpt lat="55.900101" lon="26.528734">
<ele>113.391663</ele>
<time>2010-08-29T07:36:03Z</time>
<desc>lat.=55.900101, lon.=26.528734, Alt.=113.391663m. Speed=0.396000m/h.</desc>
<speed>0.110000</speed>
</trkpt>
<trkpt lat="55.900101" lon="26.528734">
<ele>113.395569</ele>
<time>2010-08-29T07:36:04Z</time>
<desc>lat.=55.900101, lon.=26.528734, Alt.=113.395569m. Speed=0.432000m/h.</desc>
<speed>0.120000</speed>
</trkpt>
<trkpt lat="55.900101" lon="26.528732">
<ele>113.395569</ele>
<time>2010-08-29T07:36:05Z</time>
<desc>lat.=55.900101, lon.=26.528732, Alt.=113.395569m. Speed=0.072000m/h.</desc>
<speed>0.020000</speed>
</trkpt>
<trkpt lat="55.900101" lon="26.528732">
<ele>113.403381</ele>
<time>2010-08-29T07:36:06Z</time>
<desc>lat.=55.900101, lon.=26.528732, Alt.=113.403381m. Speed=0.360000m/h.</desc>
<speed>0.100000</speed>
</trkpt>
<trkpt lat="55.900101" lon="26.528732">
<ele>113.389709</ele>
<time>2010-08-29T07:36:07Z</time>
<desc>lat.=55.900101, lon.=26.528732, Alt.=113.389709m. Speed=0.252000m/h.</desc>
<speed>0.070000</speed>
</trkpt>
<trkpt lat="55.900101" lon="26.528730">
<ele>113.374084</ele>
<time>2010-08-29T07:36:08Z</time>
<desc>lat.=55.900101, lon.=26.528730, Alt.=113.374084m. Speed=0.324000m/h.</desc>
<speed>0.090000</speed>
</trkpt>
<trkpt lat="55.900101" lon="26.528730">
<ele>113.368225</ele>
<time>2010-08-29T07:36:09Z</time>
<desc>lat.=55.900101, lon.=26.528730, Alt.=113.368225m. Speed=0.036000m/h.</desc>
<speed>0.010000</speed>
</trkpt>
<trkpt lat="55.900097" lon="26.528730">
<ele>113.379944</ele>
<time>2010-08-29T07:36:10Z</time>
<desc>lat.=55.900097, lon.=26.528730, Alt.=113.379944m. Speed=0.108000m/h.</desc>
<speed>0.030000</speed>
</trkpt>
<trkpt lat="55.900097" lon="26.528730">
<ele>113.387756</ele>
<time>2010-08-29T07:36:11Z</time>
<desc>lat.=55.900097, lon.=26.528730, Alt.=113.387756m. Speed=0.396000m/h.</desc>
<speed>0.110000</speed>
</trkpt>
<trkpt lat="55.900089" lon="26.528719">
<ele>113.360413</ele>
<time>2010-08-29T07:36:12Z</time>
<desc>lat.=55.900089, lon.=26.528719, Alt.=113.360413m. Speed=0.180000m/h.</desc>
<speed>0.050000</speed>
</trkpt>
<trkpt lat="55.900089" lon="26.528717">
<ele>113.377991</ele>
<time>2010-08-29T07:36:13Z</time>
<desc>lat.=55.900089, lon.=26.528717, Alt.=113.377991m. Speed=0.252000m/h.</desc>
<speed>0.070000</speed>
</trkpt>
<trkpt lat="55.900089" lon="26.528717">
<ele>113.391663</ele>
<time>2010-08-29T07:36:14Z</time>
<desc>lat.=55.900089, lon.=26.528717, Alt.=113.391663m. Speed=0.432000m/h.</desc>
<speed>0.120000</speed>
</trkpt>
<trkpt lat="55.900089" lon="26.528715">
<ele>113.405334</ele>
<time>2010-08-29T07:36:15Z</time>
<desc>lat.=55.900089, lon.=26.528715, Alt.=113.405334m. Speed=0.396000m/h.</desc>
<speed>0.110000</speed>
</trkpt>
<trkpt lat="55.900085" lon="26.528713">
<ele>113.432678</ele>
<time>2010-08-29T07:36:16Z</time>
<desc>lat.=55.900085, lon.=26.528713, Alt.=113.432678m. Speed=0.288000m/h.</desc>
<speed>0.080000</speed>
</trkpt>
<trkpt lat="55.900085" lon="26.528713">
<ele>113.446350</ele>
<time>2010-08-29T07:36:17Z</time>
<desc>lat.=55.900085, lon.=26.528713, Alt.=113.446350m. Speed=0.288000m/h.</desc>
<speed>0.080000</speed>
</trkpt>
<trkpt lat="55.900085" lon="26.528711">
<ele>113.471741</ele>
<time>2010-08-29T07:36:18Z</time>
<desc>lat.=55.900085, lon.=26.528711, Alt.=113.471741m. Speed=0.612000m/h.</desc>
<speed>0.170000</speed>
</trkpt>
<trkpt lat="55.900082" lon="26.528709">
<ele>113.497131</ele>
<time>2010-08-29T07:36:19Z</time>
<desc>lat.=55.900082, lon.=26.528709, Alt.=113.497131m. Speed=0.612000m/h.</desc>
<speed>0.170000</speed>
</trkpt>
<trkpt lat="55.900082" lon="26.528709">
<ele>113.526428</ele>
<time>2010-08-29T07:36:20Z</time>
<desc>lat.=55.900082, lon.=26.528709, Alt.=113.526428m. Speed=0.864000m/h.</desc>
<speed>0.240000</speed>
</trkpt>
<trkpt lat="55.900082" lon="26.528706">
<ele>113.553772</ele>
<time>2010-08-29T07:36:21Z</time>
<desc>lat.=55.900082, lon.=26.528706, Alt.=113.553772m. Speed=0.936000m/h.</desc>
<speed>0.260000</speed>
</trkpt>
<trkpt lat="55.900078" lon="26.528704">
<ele>113.579163</ele>
<time>2010-08-29T07:36:22Z</time>
<desc>lat.=55.900078, lon.=26.528704, Alt.=113.579163m. Speed=0.648000m/h.</desc>
<speed>0.180000</speed>
</trkpt>
<trkpt lat="55.900078" lon="26.528702">
<ele>113.598694</ele>
<time>2010-08-29T07:36:23Z</time>
<desc>lat.=55.900078, lon.=26.528702, Alt.=113.598694m. Speed=0.756000m/h.</desc>
<speed>0.210000</speed>
</trkpt>
<trkpt lat="55.900074" lon="26.528700">
<ele>113.608459</ele>
<time>2010-08-29T07:36:24Z</time>
<desc>lat.=55.900074, lon.=26.528700, Alt.=113.608459m. Speed=0.288000m/h.</desc>
<speed>0.080000</speed>
</trkpt>
<trkpt lat="55.900074" lon="26.528698">
<ele>113.626038</ele>
<time>2010-08-29T07:36:25Z</time>
<desc>lat.=55.900074, lon.=26.528698, Alt.=113.626038m. Speed=0.288000m/h.</desc>
<speed>0.080000</speed>
</trkpt>
<trkpt lat="55.900074" lon="26.528698">
<ele>113.651428</ele>
<time>2010-08-29T07:36:26Z</time>
<desc>lat.=55.900074, lon.=26.528698, Alt.=113.651428m. Speed=0.576000m/h.</desc>
<speed>0.160000</speed>
</trkpt>
<trkpt lat="55.900070" lon="26.528696">
<ele>113.676819</ele>
<time>2010-08-29T07:36:27Z</time>
<desc>lat.=55.900070, lon.=26.528696, Alt.=113.676819m. Speed=0.648000m/h.</desc>
<speed>0.180000</speed>
</trkpt>
<trkpt lat="55.900070" lon="26.528694">
<ele>113.715881</ele>
<time>2010-08-29T07:36:28Z</time>
<desc>lat.=55.900070, lon.=26.528694, Alt.=113.715881m. Speed=0.468000m/h.</desc>
<speed>0.130000</speed>
</trkpt>
<trkpt lat="55.900070" lon="26.528692">
<ele>113.749084</ele>
<time>2010-08-29T07:36:29Z</time>
<desc>lat.=55.900070, lon.=26.528692, Alt.=113.749084m. Speed=0.360000m/h.</desc>
<speed>0.100000</speed>
</trkpt>
<trkpt lat="55.900066" lon="26.528692">
<ele>113.786194</ele>
<time>2010-08-29T07:36:30Z</time>
<desc>lat.=55.900066, lon.=26.528692, Alt.=113.786194m. Speed=0.684000m/h.</desc>
<speed>0.190000</speed>
</trkpt>
<trkpt lat="55.900066" lon="26.528690">
<ele>113.809631</ele>
<time>2010-08-29T07:36:31Z</time>
<desc>lat.=55.900066, lon.=26.528690, Alt.=113.809631m. Speed=0.432000m/h.</desc>
<speed>0.120000</speed>
</trkpt>
<trkpt lat="55.900066" lon="26.528688">
<ele>113.836975</ele>
<time>2010-08-29T07:36:32Z</time>
<desc>lat.=55.900066, lon.=26.528688, Alt.=113.836975m. Speed=0.540000m/h.</desc>
<speed>0.150000</speed>
</trkpt>
<trkpt lat="55.900063" lon="26.528687">
<ele>113.881897</ele>
<time>2010-08-29T07:36:33Z</time>
<desc>lat.=55.900063, lon.=26.528687, Alt.=113.881897m. Speed=0.540000m/h.</desc>
<speed>0.150000</speed>
</trkpt>
<trkpt lat="55.900063" lon="26.528687">
<ele>113.911194</ele>
<time>2010-08-29T07:36:34Z</time>
<desc>lat.=55.900063, lon.=26.528687, Alt.=113.911194m. Speed=0.468000m/h.</desc>
<speed>0.130000</speed>
</trkpt>
<trkpt lat="55.900063" lon="26.528685">
<ele>113.924866</ele>
<time>2010-08-29T07:36:35Z</time>
<desc>lat.=55.900063, lon.=26.528685, Alt.=113.924866m. Speed=0.252000m/h.</desc>
<speed>0.070000</speed>
</trkpt>
<trkpt lat="55.900059" lon="26.528685">
<ele>113.950256</ele>
<time>2010-08-29T07:36:36Z</time>
<desc>lat.=55.900059, lon.=26.528685, Alt.=113.950256m. Speed=0.468000m/h.</desc>
<speed>0.130000</speed>
</trkpt>
<trkpt lat="55.900059" lon="26.528683">
<ele>113.977600</ele>
<time>2010-08-29T07:36:37Z</time>
<desc>lat.=55.900059, lon.=26.528683, Alt.=113.977600m. Speed=0.360000m/h.</desc>
<speed>0.100000</speed>
</trkpt>
<trkpt lat="55.900059" lon="26.528683">
<ele>113.995178</ele>
<time>2010-08-29T07:36:38Z</time>
<desc>lat.=55.900059, lon.=26.528683, Alt.=113.995178m. Speed=0.324000m/h.</desc>
<speed>0.090000</speed>
</trkpt>
<trkpt lat="55.900059" lon="26.528681">
<ele>114.012756</ele>
<time>2010-08-29T07:36:39Z</time>
<desc>lat.=55.900059, lon.=26.528681, Alt.=114.012756m. Speed=0.324000m/h.</desc>
<speed>0.090000</speed>
</trkpt>
<trkpt lat="55.900059" lon="26.528681">
<ele>114.044006</ele>
<time>2010-08-29T07:36:40Z</time>
<desc>lat.=55.900059, lon.=26.528681, Alt.=114.044006m. Speed=0.036000m/h.</desc>
<speed>0.010000</speed>
</trkpt>
<trkpt lat="55.900055" lon="26.528681">
<ele>114.059631</ele>
<time>2010-08-29T07:36:41Z</time>
<desc>lat.=55.900055, lon.=26.528681, Alt.=114.059631m. Speed=0.468000m/h.</desc>
<speed>0.130000</speed>
</trkpt>
<trkpt lat="55.900055" lon="26.528679">
<ele>114.069397</ele>
<time>2010-08-29T07:36:42Z</time>
<desc>lat.=55.900055, lon.=26.528679, Alt.=114.069397m. Speed=0.072000m/h.</desc>
<speed>0.020000</speed>
</trkpt>
<trkpt lat="55.900055" lon="26.528679">
<ele>114.085022</ele>
<time>2010-08-29T07:36:43Z</time>
<desc>lat.=55.900055, lon.=26.528679, Alt.=114.085022m. Speed=0.108000m/h.</desc>
<speed>0.030000</speed>
</trkpt>
<trkpt lat="55.900055" lon="26.528679">
<ele>114.106506</ele>
<time>2010-08-29T07:36:44Z</time>
<desc>lat.=55.900055, lon.=26.528679, Alt.=114.106506m. Speed=0.252000m/h.</desc>
<speed>0.070000</speed>
</trkpt>
<trkpt lat="55.900055" lon="26.528679">
<ele>114.106506</ele>
<time>2010-08-29T07:36:45Z</time>
<desc>lat.=55.900055, lon.=26.528679, Alt.=114.106506m. Speed=0.288000m/h.</desc>
<speed>0.080000</speed>
</trkpt>
<trkpt lat="55.900055" lon="26.528677">
<ele>114.116272</ele>
<time>2010-08-29T07:36:46Z</time>
<desc>lat.=55.900055, lon.=26.528677, Alt.=114.116272m. Speed=0.216000m/h.</desc>
<speed>0.060000</speed>
</trkpt>
<trkpt lat="55.900055" lon="26.528677">
<ele>114.133850</ele>
<time>2010-08-29T07:36:47Z</time>
<desc>lat.=55.900055, lon.=26.528677, Alt.=114.133850m. Speed=0.288000m/h.</desc>
<speed>0.080000</speed>
</trkpt>
<trkpt lat="55.900051" lon="26.528677">
<ele>114.155334</ele>
<time>2010-08-29T07:36:48Z</time>
<desc>lat.=55.900051, lon.=26.528677, Alt.=114.155334m. Speed=0.396000m/h.</desc>
<speed>0.110000</speed>
</trkpt>
<trkpt lat="55.900051" lon="26.528675">
<ele>114.165100</ele>
<time>2010-08-29T07:36:49Z</time>
<desc>lat.=55.900051, lon.=26.528675, Alt.=114.165100m. Speed=0.360000m/h.</desc>
<speed>0.100000</speed>
</trkpt>
<trkpt lat="55.900051" lon="26.528675">
<ele>114.178772</ele>
<time>2010-08-29T07:36:50Z</time>
<desc>lat.=55.900051, lon.=26.528675, Alt.=114.178772m. Speed=0.684000m/h.</desc>
<speed>0.190000</speed>
</trkpt>
<trkpt lat="55.900055" lon="26.528681">
<ele>113.801819</ele>
<time>2010-08-29T07:36:51Z</time>
<desc>lat.=55.900055, lon.=26.528681, Alt.=113.801819m. Speed=1.224000m/h.</desc>
<speed>0.340000</speed>
</trkpt>
<trkpt lat="55.900055" lon="26.528677">
<ele>113.741272</ele>
<time>2010-08-29T07:36:52Z</time>
<desc>lat.=55.900055, lon.=26.528677, Alt.=113.741272m. Speed=1.656000m/h.</desc>
<speed>0.460000</speed>
</trkpt>
<trkpt lat="55.900055" lon="26.528671">
<ele>113.784241</ele>
<time>2010-08-29T07:36:53Z</time>
<desc>lat.=55.900055, lon.=26.528671, Alt.=113.784241m. Speed=1.836000m/h.</desc>
<speed>0.510000</speed>
</trkpt>
<trkpt lat="55.900063" lon="26.528677">
<ele>113.678772</ele>
<time>2010-08-29T07:36:54Z</time>
<desc>lat.=55.900063, lon.=26.528677, Alt.=113.678772m. Speed=1.404000m/h.</desc>
<speed>0.390000</speed>
</trkpt>
<trkpt lat="55.900059" lon="26.528666">
<ele>113.770569</ele>
<time>2010-08-29T07:36:55Z</time>
<desc>lat.=55.900059, lon.=26.528666, Alt.=113.770569m. Speed=1.188000m/h.</desc>
<speed>0.330000</speed>
</trkpt>
<trkpt lat="55.900055" lon="26.528656">
<ele>113.813538</ele>
<time>2010-08-29T07:36:56Z</time>
<desc>lat.=55.900055, lon.=26.528656, Alt.=113.813538m. Speed=1.080000m/h.</desc>
<speed>0.300000</speed>
</trkpt>
<trkpt lat="55.900059" lon="26.528662">
<ele>113.801819</ele>
<time>2010-08-29T07:36:57Z</time>
<desc>lat.=55.900059, lon.=26.528662, Alt.=113.801819m. Speed=0.144000m/h.</desc>
<speed>0.040000</speed>
</trkpt>
<trkpt lat="55.900055" lon="26.528652">
<ele>113.860413</ele>
<time>2010-08-29T07:36:58Z</time>
<desc>lat.=55.900055, lon.=26.528652, Alt.=113.860413m. Speed=0.144000m/h.</desc>
<speed>0.040000</speed>
</trkpt>
<trkpt lat="55.900051" lon="26.528648">
<ele>113.905334</ele>
<time>2010-08-29T07:36:59Z</time>
<desc>lat.=55.900051, lon.=26.528648, Alt.=113.905334m. Speed=0.108000m/h.</desc>
<speed>0.030000</speed>
</trkpt>
<trkpt lat="55.900051" lon="26.528645">
<ele>113.922913</ele>
<time>2010-08-29T07:37:00Z</time>
<desc>lat.=55.900051, lon.=26.528645, Alt.=113.922913m. Speed=0.684000m/h.</desc>
<speed>0.190000</speed>
</trkpt>
<trkpt lat="55.900047" lon="26.528641">
<ele>113.926819</ele>
<time>2010-08-29T07:37:01Z</time>
<desc>lat.=55.900047, lon.=26.528641, Alt.=113.926819m. Speed=0.864000m/h.</desc>
<speed>0.240000</speed>
</trkpt>
<trkpt lat="55.900047" lon="26.528637">
<ele>113.924866</ele>
<time>2010-08-29T07:37:02Z</time>
<desc>lat.=55.900047, lon.=26.528637, Alt.=113.924866m. Speed=2.700000m/h.</desc>
<speed>0.750000</speed>
</trkpt>
<trkpt lat="55.900047" lon="26.528612">
<ele>113.794006</ele>
<time>2010-08-29T07:37:03Z</time>
<desc>lat.=55.900047, lon.=26.528612, Alt.=113.794006m. Speed=3.492000m/h.</desc>
<speed>0.970000</speed>
</trkpt>
<trkpt lat="55.900047" lon="26.528591">
<ele>113.659241</ele>
<time>2010-08-29T07:37:04Z</time>
<desc>lat.=55.900047, lon.=26.528591, Alt.=113.659241m. Speed=3.204000m/h.</desc>
<speed>0.890000</speed>
</trkpt>
<trkpt lat="55.900047" lon="26.528574">
<ele>113.514709</ele>
<time>2010-08-29T07:37:05Z</time>
<desc>lat.=55.900047, lon.=26.528574, Alt.=113.514709m. Speed=3.384000m/h.</desc>
<speed>0.940000</speed>
</trkpt>
<trkpt lat="55.900043" lon="26.528545">
<ele>113.307678</ele>
<time>2010-08-29T07:37:06Z</time>
<desc>lat.=55.900043, lon.=26.528545, Alt.=113.307678m. Speed=4.320000m/h.</desc>
<speed>1.200000</speed>
</trkpt>
<trkpt lat="55.900047" lon="26.528524">
<ele>113.297913</ele>
<time>2010-08-29T07:37:07Z</time>
<desc>lat.=55.900047, lon.=26.528524, Alt.=113.297913m. Speed=5.220000m/h.</desc>
<speed>1.450000</speed>
</trkpt>
<trkpt lat="55.900051" lon="26.528496">
<ele>113.141663</ele>
<time>2010-08-29T07:37:08Z</time>
<desc>lat.=55.900051, lon.=26.528496, Alt.=113.141663m. Speed=5.652000m/h.</desc>
<speed>1.570000</speed>
</trkpt>
<trkpt lat="55.900055" lon="26.528463">
<ele>113.081116</ele>
<time>2010-08-29T07:37:09Z</time>
<desc>lat.=55.900055, lon.=26.528463, Alt.=113.081116m. Speed=6.192000m/h.</desc>
<speed>1.720000</speed>
</trkpt>
<trkpt lat="55.900070" lon="26.528446">
<ele>113.180725</ele>
<time>2010-08-29T07:37:10Z</time>
<desc>lat.=55.900070, lon.=26.528446, Alt.=113.180725m. Speed=7.020000m/h.</desc>
<speed>1.950000</speed>
</trkpt>
<trkpt lat="55.900082" lon="26.528423">
<ele>113.088928</ele>
<time>2010-08-29T07:37:11Z</time>
<desc>lat.=55.900082, lon.=26.528423, Alt.=113.088928m. Speed=9.036000m/h.</desc>
<speed>2.510000</speed>
</trkpt>
<trkpt lat="55.900097" lon="26.528391">
<ele>113.172913</ele>
<time>2010-08-29T07:37:12Z</time>
<desc>lat.=55.900097, lon.=26.528391, Alt.=113.172913m. Speed=9.900000m/h.</desc>
<speed>2.750000</speed>
</trkpt>
<trkpt lat="55.900108" lon="26.528341">
<ele>113.090881</ele>
<time>2010-08-29T07:37:13Z</time>
<desc>lat.=55.900108, lon.=26.528341, Alt.=113.090881m. Speed=11.736000m/h.</desc>
<speed>3.260000</speed>
</trkpt>
<trkpt lat="55.900116" lon="26.528292">
<ele>112.997131</ele>
<time>2010-08-29T07:37:14Z</time>
<desc>lat.=55.900116, lon.=26.528292, Alt.=112.997131m. Speed=11.808000m/h.</desc>
<speed>3.280000</speed>
</trkpt>
<trkpt lat="55.900131" lon="26.528250">
<ele>112.934631</ele>
<time>2010-08-29T07:37:15Z</time>
<desc>lat.=55.900131, lon.=26.528250, Alt.=112.934631m. Speed=10.980000m/h.</desc>
<speed>3.050000</speed>
</trkpt>
<trkpt lat="55.900154" lon="26.528215">
<ele>113.124084</ele>
<time>2010-08-29T07:37:16Z</time>
<desc>lat.=55.900154, lon.=26.528215, Alt.=113.124084m. Speed=10.836000m/h.</desc>
<speed>3.010000</speed>
</trkpt>
<trkpt lat="55.900166" lon="26.528175">
<ele>113.167053</ele>
<time>2010-08-29T07:37:17Z</time>
<desc>lat.=55.900166, lon.=26.528175, Alt.=113.167053m. Speed=10.512000m/h.</desc>
<speed>2.920000</speed>
</trkpt>
<trkpt lat="55.900177" lon="26.528130">
<ele>112.807678</ele>
<time>2010-08-29T07:37:18Z</time>
<desc>lat.=55.900177, lon.=26.528130, Alt.=112.807678m. Speed=10.296000m/h.</desc>
<speed>2.860000</speed>
</trkpt>
<trkpt lat="55.900188" lon="26.528088">
<ele>112.475647</ele>
<time>2010-08-29T07:37:19Z</time>
<desc>lat.=55.900188, lon.=26.528088, Alt.=112.475647m. Speed=10.152000m/h.</desc>
<speed>2.820000</speed>
</trkpt>
<trkpt lat="55.900158" lon="26.528002">
<ele>113.045959</ele>
<time>2010-08-29T07:37:20Z</time>
<desc>lat.=55.900158, lon.=26.528002, Alt.=113.045959m. Speed=10.296000m/h.</desc>
<speed>2.860000</speed>
</trkpt>
<trkpt lat="55.900204" lon="26.528000">
<ele>111.950256</ele>
<time>2010-08-29T07:37:21Z</time>
<desc>lat.=55.900204, lon.=26.528000, Alt.=111.950256m. Speed=9.756000m/h.</desc>
<speed>2.710000</speed>
</trkpt>
<trkpt lat="55.900227" lon="26.527987">
<ele>110.774475</ele>
<time>2010-08-29T07:37:22Z</time>
<desc>lat.=55.900227, lon.=26.527987, Alt.=110.774475m. Speed=8.136000m/h.</desc>
<speed>2.260000</speed>
</trkpt>
<trkpt lat="55.900249" lon="26.528011">
<ele>110.446350</ele>
<time>2010-08-29T07:37:23Z</time>
<desc>lat.=55.900249, lon.=26.528011, Alt.=110.446350m. Speed=10.584000m/h.</desc>
<speed>2.940000</speed>
</trkpt>
<trkpt lat="55.900272" lon="26.528046">
<ele>110.186584</ele>
<time>2010-08-29T07:37:24Z</time>
<desc>lat.=55.900272, lon.=26.528046, Alt.=110.186584m. Speed=9.252000m/h.</desc>
<speed>2.570000</speed>
</trkpt>
<trkpt lat="55.900299" lon="26.528080">
<ele>109.889709</ele>
<time>2010-08-29T07:37:25Z</time>
<desc>lat.=55.900299, lon.=26.528080, Alt.=109.889709m. Speed=8.748000m/h.</desc>
<speed>2.430000</speed>
</trkpt>
<trkpt lat="55.900322" lon="26.528105">
<ele>109.848694</ele>
<time>2010-08-29T07:37:26Z</time>
<desc>lat.=55.900322, lon.=26.528105, Alt.=109.848694m. Speed=9.216000m/h.</desc>
<speed>2.560000</speed>
</trkpt>
<trkpt lat="55.900349" lon="26.528139">
<ele>109.741272</ele>
<time>2010-08-29T07:37:27Z</time>
<desc>lat.=55.900349, lon.=26.528139, Alt.=109.741272m. Speed=8.784000m/h.</desc>
<speed>2.440000</speed>
</trkpt>
<trkpt lat="55.900368" lon="26.528168">
<ele>109.727600</ele>
<time>2010-08-29T07:37:28Z</time>
<desc>lat.=55.900368, lon.=26.528168, Alt.=109.727600m. Speed=8.892000m/h.</desc>
<speed>2.470000</speed>
</trkpt>
<trkpt lat="55.900383" lon="26.528196">
<ele>109.336975</ele>
<time>2010-08-29T07:37:29Z</time>
<desc>lat.=55.900383, lon.=26.528196, Alt.=109.336975m. Speed=8.388000m/h.</desc>
<speed>2.330000</speed>
</trkpt>
<trkpt lat="55.900402" lon="26.528227">
<ele>109.282288</ele>
<time>2010-08-29T07:37:30Z</time>
<desc>lat.=55.900402, lon.=26.528227, Alt.=109.282288m. Speed=9.648000m/h.</desc>
<speed>2.680000</speed>
</trkpt>
<trkpt lat="55.900467" lon="26.528297">
<ele>108.825256</ele>
<time>2010-08-29T07:37:31Z</time>
<desc>lat.=55.900467, lon.=26.528297, Alt.=108.825256m. Speed=6.372000m/h.</desc>
<speed>1.770000</speed>
</trkpt>
<trkpt lat="55.900482" lon="26.528316">
<ele>108.645569</ele>
<time>2010-08-29T07:37:32Z</time>
<desc>lat.=55.900482, lon.=26.528316, Alt.=108.645569m. Speed=2.160000m/h.</desc>
<speed>0.600000</speed>
</trkpt>
<trkpt lat="55.900494" lon="26.528322">
<ele>108.528381</ele>
<time>2010-08-29T07:37:33Z</time>
<desc>lat.=55.900494, lon.=26.528322, Alt.=108.528381m. Speed=2.520000m/h.</desc>
<speed>0.700000</speed>
</trkpt>
<trkpt lat="55.900497" lon="26.528307">
<ele>108.471741</ele>
<time>2010-08-29T07:37:34Z</time>
<desc>lat.=55.900497, lon.=26.528307, Alt.=108.471741m. Speed=4.968000m/h.</desc>
<speed>1.380000</speed>
</trkpt>
<trkpt lat="55.900513" lon="26.528278">
<ele>108.698303</ele>
<time>2010-08-29T07:37:35Z</time>
<desc>lat.=55.900513, lon.=26.528278, Alt.=108.698303m. Speed=7.524000m/h.</desc>
<speed>2.090000</speed>
</trkpt>
<trkpt lat="55.900524" lon="26.528248">
<ele>108.483459</ele>
<time>2010-08-29T07:37:36Z</time>
<desc>lat.=55.900524, lon.=26.528248, Alt.=108.483459m. Speed=7.416000m/h.</desc>
<speed>2.060000</speed>
</trkpt>
<trkpt lat="55.900566" lon="26.528225">
<ele>107.836975</ele>
<time>2010-08-29T07:37:37Z</time>
<desc>lat.=55.900566, lon.=26.528225, Alt.=107.836975m. Speed=7.344000m/h.</desc>
<speed>2.040000</speed>
</trkpt>
<trkpt lat="55.900574" lon="26.528206">
<ele>107.669006</ele>
<time>2010-08-29T07:37:38Z</time>
<desc>lat.=55.900574, lon.=26.528206, Alt.=107.669006m. Speed=4.680000m/h.</desc>
<speed>1.300000</speed>
</trkpt>
<trkpt lat="55.900593" lon="26.528194">
<ele>107.444397</ele>
<time>2010-08-29T07:37:39Z</time>
<desc>lat.=55.900593, lon.=26.528194, Alt.=107.444397m. Speed=5.940000m/h.</desc>
<speed>1.650000</speed>
</trkpt>
<trkpt lat="55.900616" lon="26.528194">
<ele>107.327209</ele>
<time>2010-08-29T07:37:40Z</time>
<desc>lat.=55.900616, lon.=26.528194, Alt.=107.327209m. Speed=8.856000m/h.</desc>
<speed>2.460000</speed>
</trkpt>
<trkpt lat="55.900646" lon="26.528208">
<ele>107.321350</ele>
<time>2010-08-29T07:37:41Z</time>
<desc>lat.=55.900646, lon.=26.528208, Alt.=107.321350m. Speed=10.044000m/h.</desc>
<speed>2.790000</speed>
</trkpt>
<trkpt lat="55.900669" lon="26.528223">
<ele>107.182678</ele>
<time>2010-08-29T07:37:42Z</time>
<desc>lat.=55.900669, lon.=26.528223, Alt.=107.182678m. Speed=7.920000m/h.</desc>
<speed>2.200000</speed>
</trkpt>
<trkpt lat="55.900726" lon="26.528233">
<ele>107.458069</ele>
<time>2010-08-29T07:37:43Z</time>
<desc>lat.=55.900726, lon.=26.528233, Alt.=107.458069m. Speed=15.912000m/h.</desc>
<speed>4.420000</speed>
</trkpt>
<trkpt lat="55.900761" lon="26.528244">
<ele>107.377991</ele>
<time>2010-08-29T07:37:44Z</time>
<desc>lat.=55.900761, lon.=26.528244, Alt.=107.377991m. Speed=9.792000m/h.</desc>
<speed>2.720000</speed>
</trkpt>
<trkpt lat="55.900803" lon="26.528259">
<ele>107.499084</ele>
<time>2010-08-29T07:37:45Z</time>
<desc>lat.=55.900803, lon.=26.528259, Alt.=107.499084m. Speed=10.044000m/h.</desc>
<speed>2.790000</speed>
</trkpt>
<trkpt lat="55.900826" lon="26.528280">
<ele>107.379944</ele>
<time>2010-08-29T07:37:46Z</time>
<desc>lat.=55.900826, lon.=26.528280, Alt.=107.379944m. Speed=7.812000m/h.</desc>
<speed>2.170000</speed>
</trkpt>
<trkpt lat="55.900837" lon="26.528265">
<ele>107.047913</ele>
<time>2010-08-29T07:37:47Z</time>
<desc>lat.=55.900837, lon.=26.528265, Alt.=107.047913m. Speed=4.140000m/h.</desc>
<speed>1.150000</speed>
</trkpt>
<trkpt lat="55.900856" lon="26.528332">
<ele>107.049866</ele>
<time>2010-08-29T07:37:48Z</time>
<desc>lat.=55.900856, lon.=26.528332, Alt.=107.049866m. Speed=6.156000m/h.</desc>
<speed>1.710000</speed>
</trkpt>
<trkpt lat="55.900875" lon="26.528406">
<ele>108.159241</ele>
<time>2010-08-29T07:37:49Z</time>
<desc>lat.=55.900875, lon.=26.528406, Alt.=108.159241m. Speed=7.668000m/h.</desc>
<speed>2.130000</speed>
</trkpt>
<trkpt lat="55.900902" lon="26.528440">
<ele>108.553772</ele>
<time>2010-08-29T07:37:50Z</time>
<desc>lat.=55.900902, lon.=26.528440, Alt.=108.553772m. Speed=9.108000m/h.</desc>
<speed>2.530000</speed>
</trkpt>
<trkpt lat="55.900902" lon="26.528475">
<ele>108.547913</ele>
<time>2010-08-29T07:37:51Z</time>
<desc>lat.=55.900902, lon.=26.528475, Alt.=108.547913m. Speed=7.560000m/h.</desc>
<speed>2.100000</speed>
</trkpt>
<trkpt lat="55.900921" lon="26.528502">
<ele>108.624084</ele>
<time>2010-08-29T07:37:52Z</time>
<desc>lat.=55.900921, lon.=26.528502, Alt.=108.624084m. Speed=8.712000m/h.</desc>
<speed>2.420000</speed>
</trkpt>
<trkpt lat="55.900936" lon="26.528517">
<ele>108.444397</ele>
<time>2010-08-29T07:37:53Z</time>
<desc>lat.=55.900936, lon.=26.528517, Alt.=108.444397m. Speed=4.896000m/h.</desc>
<speed>1.360000</speed>
</trkpt>
<trkpt lat="55.900951" lon="26.528536">
<ele>108.669006</ele>
<time>2010-08-29T07:37:54Z</time>
<desc>lat.=55.900951, lon.=26.528536, Alt.=108.669006m. Speed=2.484000m/h.</desc>
<speed>0.690000</speed>
</trkpt>
<trkpt lat="55.900967" lon="26.528555">
<ele>108.614319</ele>
<time>2010-08-29T07:37:55Z</time>
<desc>lat.=55.900967, lon.=26.528555, Alt.=108.614319m. Speed=2.628000m/h.</desc>
<speed>0.730000</speed>
</trkpt>
<trkpt lat="55.900974" lon="26.528568">
<ele>108.674866</ele>
<time>2010-08-29T07:37:56Z</time>
<desc>lat.=55.900974, lon.=26.528568, Alt.=108.674866m. Speed=2.628000m/h.</desc>
<speed>0.730000</speed>
</trkpt>
<trkpt lat="55.900997" lon="26.528572">
<ele>108.979553</ele>
<time>2010-08-29T07:37:57Z</time>
<desc>lat.=55.900997, lon.=26.528572, Alt.=108.979553m. Speed=2.844000m/h.</desc>
<speed>0.790000</speed>
</trkpt>
<trkpt lat="55.901012" lon="26.528585">
<ele>109.057678</ele>
<time>2010-08-29T07:37:58Z</time>
<desc>lat.=55.901012, lon.=26.528585, Alt.=109.057678m. Speed=3.636000m/h.</desc>
<speed>1.010000</speed>
</trkpt>
<trkpt lat="55.901031" lon="26.528601">
<ele>109.176819</ele>
<time>2010-08-29T07:37:59Z</time>
<desc>lat.=55.901031, lon.=26.528601, Alt.=109.176819m. Speed=4.248000m/h.</desc>
<speed>1.180000</speed>
</trkpt>
<trkpt lat="55.901054" lon="26.528620">
<ele>109.294006</ele>
<time>2010-08-29T07:38:00Z</time>
<desc>lat.=55.901054, lon.=26.528620, Alt.=109.294006m. Speed=5.868000m/h.</desc>
<speed>1.630000</speed>
</trkpt>
<trkpt lat="55.901077" lon="26.528641">
<ele>109.379944</ele>
<time>2010-08-29T07:38:01Z</time>
<desc>lat.=55.901077, lon.=26.528641, Alt.=109.379944m. Speed=8.280000m/h.</desc>
<speed>2.300000</speed>
</trkpt>
<trkpt lat="55.901100" lon="26.528662">
<ele>109.520569</ele>
<time>2010-08-29T07:38:02Z</time>
<desc>lat.=55.901100, lon.=26.528662, Alt.=109.520569m. Speed=8.280000m/h.</desc>
<speed>2.300000</speed>
</trkpt>
<trkpt lat="55.901142" lon="26.528681">
<ele>109.827209</ele>
<time>2010-08-29T07:38:03Z</time>
<desc>lat.=55.901142, lon.=26.528681, Alt.=109.827209m. Speed=14.148000m/h.</desc>
<speed>3.930000</speed>
</trkpt>
<trkpt lat="55.901176" lon="26.528708">
<ele>110.059631</ele>
<time>2010-08-29T07:38:04Z</time>
<desc>lat.=55.901176, lon.=26.528708, Alt.=110.059631m. Speed=12.852000m/h.</desc>
<speed>3.570000</speed>
</trkpt>
<trkpt lat="55.901203" lon="26.528738">
<ele>110.368225</ele>
<time>2010-08-29T07:38:05Z</time>
<desc>lat.=55.901203, lon.=26.528738, Alt.=110.368225m. Speed=9.504000m/h.</desc>
<speed>2.640000</speed>
</trkpt>
<trkpt lat="55.901226" lon="26.528765">
<ele>110.665100</ele>
<time>2010-08-29T07:38:06Z</time>
<desc>lat.=55.901226, lon.=26.528765, Alt.=110.665100m. Speed=10.476000m/h.</desc>
<speed>2.910000</speed>
</trkpt>
<trkpt lat="55.901249" lon="26.528791">
<ele>110.938538</ele>
<time>2010-08-29T07:38:07Z</time>
<desc>lat.=55.901249, lon.=26.528791, Alt.=110.938538m. Speed=10.188000m/h.</desc>
<speed>2.830000</speed>
</trkpt>
<trkpt lat="55.901272" lon="26.528814">
<ele>111.149475</ele>
<time>2010-08-29T07:38:08Z</time>
<desc>lat.=55.901272, lon.=26.528814, Alt.=111.149475m. Speed=9.252000m/h.</desc>
<speed>2.570000</speed>
</trkpt>
<trkpt lat="55.901287" lon="26.528837">
<ele>111.407288</ele>
<time>2010-08-29T07:38:09Z</time>
<desc>lat.=55.901287, lon.=26.528837, Alt.=111.407288m. Speed=7.812000m/h.</desc>
<speed>2.170000</speed>
</trkpt>
<trkpt lat="55.901314" lon="26.528858">
<ele>111.866272</ele>
<time>2010-08-29T07:38:10Z</time>
<desc>lat.=55.901314, lon.=26.528858, Alt.=111.866272m. Speed=9.468000m/h.</desc>
<speed>2.630000</speed>
</trkpt>
<trkpt lat="55.901382" lon="26.528927">
<ele>111.715881</ele>
<time>2010-08-29T07:38:11Z</time>
<desc>lat.=55.901382, lon.=26.528927, Alt.=111.715881m. Speed=9.684000m/h.</desc>
<speed>2.690000</speed>
</trkpt>
<trkpt lat="55.901402" lon="26.528948">
<ele>112.188538</ele>
<time>2010-08-29T07:38:12Z</time>
<desc>lat.=55.901402, lon.=26.528948, Alt.=112.188538m. Speed=7.920000m/h.</desc>
<speed>2.200000</speed>
</trkpt>
<trkpt lat="55.901421" lon="26.528963">
<ele>112.604553</ele>
<time>2010-08-29T07:38:13Z</time>
<desc>lat.=55.901421, lon.=26.528963, Alt.=112.604553m. Speed=12.636000m/h.</desc>
<speed>3.510000</speed>
</trkpt>
<trkpt lat="55.901443" lon="26.529001">
<ele>112.987366</ele>
<time>2010-08-29T07:38:14Z</time>
<desc>lat.=55.901443, lon.=26.529001, Alt.=112.987366m. Speed=14.076000m/h.</desc>
<speed>3.910000</speed>
</trkpt>
<trkpt lat="55.901466" lon="26.529068">
<ele>113.555725</ele>
<time>2010-08-29T07:38:15Z</time>
<desc>lat.=55.901466, lon.=26.529068, Alt.=113.555725m. Speed=14.508000m/h.</desc>
<speed>4.030000</speed>
</trkpt>
<trkpt lat="55.901497" lon="26.529118">
<ele>113.877991</ele>
<time>2010-08-29T07:38:16Z</time>
<desc>lat.=55.901497, lon.=26.529118, Alt.=113.877991m. Speed=15.948000m/h.</desc>
<speed>4.430000</speed>
</trkpt>
<trkpt lat="55.901527" lon="26.529175">
<ele>114.465881</ele>
<time>2010-08-29T07:38:17Z</time>
<desc>lat.=55.901527, lon.=26.529175, Alt.=114.465881m. Speed=16.164000m/h.</desc>
<speed>4.490000</speed>
</trkpt>
<trkpt lat="55.901558" lon="26.529230">
<ele>115.112366</ele>
<time>2010-08-29T07:38:18Z</time>
<desc>lat.=55.901558, lon.=26.529230, Alt.=115.112366m. Speed=15.012000m/h.</desc>
<speed>4.170000</speed>
</trkpt>
<trkpt lat="55.901585" lon="26.529285">
<ele>115.840881</ele>
<time>2010-08-29T07:38:19Z</time>
<desc>lat.=55.901585, lon.=26.529285, Alt.=115.840881m. Speed=13.428000m/h.</desc>
<speed>3.730000</speed>
</trkpt>
<trkpt lat="55.901604" lon="26.529333">
<ele>116.377991</ele>
<time>2010-08-29T07:38:20Z</time>
<desc>lat.=55.901604, lon.=26.529333, Alt.=116.377991m. Speed=13.104000m/h.</desc>
<speed>3.640000</speed>
</trkpt>
<trkpt lat="55.901627" lon="26.529375">
<ele>116.942444</ele>
<time>2010-08-29T07:38:21Z</time>
<desc>lat.=55.901627, lon.=26.529375, Alt.=116.942444m. Speed=13.932000m/h.</desc>
<speed>3.870000</speed>
</trkpt>
<trkpt lat="55.901684" lon="26.529419">
<ele>117.397522</ele>
<time>2010-08-29T07:38:22Z</time>
<desc>lat.=55.901684, lon.=26.529419, Alt.=117.397522m. Speed=14.580000m/h.</desc>
<speed>4.050000</speed>
</trkpt>
<trkpt lat="55.901737" lon="26.529469">
<ele>117.727600</ele>
<time>2010-08-29T07:38:23Z</time>
<desc>lat.=55.901737, lon.=26.529469, Alt.=117.727600m. Speed=15.048000m/h.</desc>
<speed>4.180000</speed>
</trkpt>
<trkpt lat="55.901768" lon="26.529507">
<ele>118.200256</ele>
<time>2010-08-29T07:38:24Z</time>
<desc>lat.=55.901768, lon.=26.529507, Alt.=118.200256m. Speed=14.940000m/h.</desc>
<speed>4.150000</speed>
</trkpt>
<trkpt lat="55.901814" lon="26.529568">
<ele>118.061584</ele>
<time>2010-08-29T07:38:25Z</time>
<desc>lat.=55.901814, lon.=26.529568, Alt.=118.061584m. Speed=15.120000m/h.</desc>
<speed>4.200000</speed>
</trkpt>
<trkpt lat="55.901848" lon="26.529615">
<ele>118.249084</ele>
<time>2010-08-29T07:38:26Z</time>
<desc>lat.=55.901848, lon.=26.529615, Alt.=118.249084m. Speed=13.860000m/h.</desc>
<speed>3.850000</speed>
</trkpt>
<trkpt lat="55.901882" lon="26.529663">
<ele>118.399475</ele>
<time>2010-08-29T07:38:27Z</time>
<desc>lat.=55.901882, lon.=26.529663, Alt.=118.399475m. Speed=13.464000m/h.</desc>
<speed>3.740000</speed>
</trkpt>
<trkpt lat="55.901917" lon="26.529705">
<ele>118.377991</ele>
<time>2010-08-29T07:38:28Z</time>
<desc>lat.=55.901917, lon.=26.529705, Alt.=118.377991m. Speed=13.500000m/h.</desc>
<speed>3.750000</speed>
</trkpt>
<trkpt lat="55.901951" lon="26.529747">
<ele>118.106506</ele>
<time>2010-08-29T07:38:29Z</time>
<desc>lat.=55.901951, lon.=26.529747, Alt.=118.106506m. Speed=13.356000m/h.</desc>
<speed>3.710000</speed>
</trkpt>
<trkpt lat="55.901985" lon="26.529779">
<ele>118.329163</ele>
<time>2010-08-29T07:38:30Z</time>
<desc>lat.=55.901985, lon.=26.529779, Alt.=118.329163m. Speed=13.968000m/h.</desc>
<speed>3.880000</speed>
</trkpt>
<trkpt lat="55.902016" lon="26.529814">
<ele>118.667053</ele>
<time>2010-08-29T07:38:31Z</time>
<desc>lat.=55.902016, lon.=26.529814, Alt.=118.667053m. Speed=14.256000m/h.</desc>
<speed>3.960000</speed>
</trkpt>
<trkpt lat="55.902054" lon="26.529848">
<ele>119.188538</ele>
<time>2010-08-29T07:38:32Z</time>
<desc>lat.=55.902054, lon.=26.529848, Alt.=119.188538m. Speed=15.840000m/h.</desc>
<speed>4.400000</speed>
</trkpt>
<trkpt lat="55.902096" lon="26.529907">
<ele>120.198303</ele>
<time>2010-08-29T07:38:33Z</time>
<desc>lat.=55.902096, lon.=26.529907, Alt.=120.198303m. Speed=17.316000m/h.</desc>
<speed>4.810000</speed>
</trkpt>
<trkpt lat="55.902138" lon="26.529947">
<ele>120.624084</ele>
<time>2010-08-29T07:38:34Z</time>
<desc>lat.=55.902138, lon.=26.529947, Alt.=120.624084m. Speed=17.532000m/h.</desc>
<speed>4.870000</speed>
</trkpt>
<trkpt lat="55.902176" lon="26.529995">
<ele>120.891663</ele>
<time>2010-08-29T07:38:35Z</time>
<desc>lat.=55.902176, lon.=26.529995, Alt.=120.891663m. Speed=19.007999m/h.</desc>
<speed>5.280000</speed>
</trkpt>
<trkpt lat="55.902218" lon="26.530046">
<ele>120.749084</ele>
<time>2010-08-29T07:38:36Z</time>
<desc>lat.=55.902218, lon.=26.530046, Alt.=120.749084m. Speed=22.752001m/h.</desc>
<speed>6.320000</speed>
</trkpt>
<trkpt lat="55.902256" lon="26.530094">
<ele>120.848694</ele>
<time>2010-08-29T07:38:37Z</time>
<desc>lat.=55.902256, lon.=26.530094, Alt.=120.848694m. Speed=23.327999m/h.</desc>
<speed>6.480000</speed>
</trkpt>
<trkpt lat="55.902313" lon="26.530134">
<ele>122.126038</ele>
<time>2010-08-29T07:38:38Z</time>
<desc>lat.=55.902313, lon.=26.530134, Alt.=122.126038m. Speed=15.228000m/h.</desc>
<speed>4.230000</speed>
</trkpt>
<trkpt lat="55.902340" lon="26.530180">
<ele>122.590881</ele>
<time>2010-08-29T07:38:39Z</time>
<desc>lat.=55.902340, lon.=26.530180, Alt.=122.590881m. Speed=16.200001m/h.</desc>
<speed>4.500000</speed>
</trkpt>
<trkpt lat="55.902374" lon="26.530231">
<ele>123.030334</ele>
<time>2010-08-29T07:38:40Z</time>
<desc>lat.=55.902374, lon.=26.530231, Alt.=123.030334m. Speed=18.827999m/h.</desc>
<speed>5.230000</speed>
</trkpt>
<trkpt lat="55.902412" lon="26.530285">
<ele>123.202209</ele>
<time>2010-08-29T07:38:41Z</time>
<desc>lat.=55.902412, lon.=26.530285, Alt.=123.202209m. Speed=18.972000m/h.</desc>
<speed>5.270000</speed>
</trkpt>
<trkpt lat="55.902454" lon="26.530336">
<ele>123.241272</ele>
<time>2010-08-29T07:38:42Z</time>
<desc>lat.=55.902454, lon.=26.530336, Alt.=123.241272m. Speed=19.980000m/h.</desc>
<speed>5.550000</speed>
</trkpt>
<trkpt lat="55.902496" lon="26.530388">
<ele>123.645569</ele>
<time>2010-08-29T07:38:43Z</time>
<desc>lat.=55.902496, lon.=26.530388, Alt.=123.645569m. Speed=19.511999m/h.</desc>
<speed>5.420000</speed>
</trkpt>
<trkpt lat="55.902546" lon="26.530445">
<ele>123.924866</ele>
<time>2010-08-29T07:38:44Z</time>
<desc>lat.=55.902546, lon.=26.530445, Alt.=123.924866m. Speed=22.931999m/h.</desc>
<speed>6.370000</speed>
</trkpt>
<trkpt lat="55.902596" lon="26.530500">
<ele>124.143616</ele>
<time>2010-08-29T07:38:45Z</time>
<desc>lat.=55.902596, lon.=26.530500, Alt.=124.143616m. Speed=22.356001m/h.</desc>
<speed>6.210000</speed>
</trkpt>
<trkpt lat="55.902622" lon="26.530550">
<ele>123.856506</ele>
<time>2010-08-29T07:38:46Z</time>
<desc>lat.=55.902622, lon.=26.530550, Alt.=123.856506m. Speed=12.132000m/h.</desc>
<speed>3.370000</speed>
</trkpt>
<trkpt lat="55.902626" lon="26.530582">
<ele>123.379944</ele>
<time>2010-08-29T07:38:47Z</time>
<desc>lat.=55.902626, lon.=26.530582, Alt.=123.379944m. Speed=6.516000m/h.</desc>
<speed>1.810000</speed>
</trkpt>
<trkpt lat="55.902615" lon="26.530609">
<ele>122.674866</ele>
<time>2010-08-29T07:38:48Z</time>
<desc>lat.=55.902615, lon.=26.530609, Alt.=122.674866m. Speed=6.516000m/h.</desc>
<speed>1.810000</speed>
</trkpt>
<trkpt lat="55.902641" lon="26.530640">
<ele>123.358459</ele>
<time>2010-08-29T07:38:49Z</time>
<desc>lat.=55.902641, lon.=26.530640, Alt.=123.358459m. Speed=8.712000m/h.</desc>
<speed>2.420000</speed>
</trkpt>
<trkpt lat="55.902672" lon="26.530699">
<ele>122.219788</ele>
<time>2010-08-29T07:38:50Z</time>
<desc>lat.=55.902672, lon.=26.530699, Alt.=122.219788m. Speed=17.712000m/h.</desc>
<speed>4.920000</speed>
</trkpt>
<trkpt lat="55.902714" lon="26.530739">
<ele>122.432678</ele>
<time>2010-08-29T07:38:51Z</time>
<desc>lat.=55.902714, lon.=26.530739, Alt.=122.432678m. Speed=17.568001m/h.</desc>
<speed>4.880000</speed>
</trkpt>
<trkpt lat="55.902760" lon="26.530766">
<ele>122.536194</ele>
<time>2010-08-29T07:38:52Z</time>
<desc>lat.=55.902760, lon.=26.530766, Alt.=122.536194m. Speed=20.771999m/h.</desc>
<speed>5.770000</speed>
</trkpt>
<trkpt lat="55.902809" lon="26.530783">
<ele>122.602600</ele>
<time>2010-08-29T07:38:53Z</time>
<desc>lat.=55.902809, lon.=26.530783, Alt.=122.602600m. Speed=20.736000m/h.</desc>
<speed>5.760000</speed>
</trkpt>
<trkpt lat="55.902851" lon="26.530787">
<ele>122.241272</ele>
<time>2010-08-29T07:38:54Z</time>
<desc>lat.=55.902851, lon.=26.530787, Alt.=122.241272m. Speed=21.240000m/h.</desc>
<speed>5.900000</speed>
</trkpt>
<trkpt lat="55.902878" lon="26.530777">
<ele>121.258850</ele>
<time>2010-08-29T07:38:55Z</time>
<desc>lat.=55.902878, lon.=26.530777, Alt.=121.258850m. Speed=19.260000m/h.</desc>
<speed>5.350000</speed>
</trkpt>
<trkpt lat="55.902905" lon="26.530762">
<ele>120.124084</ele>
<time>2010-08-29T07:38:56Z</time>
<desc>lat.=55.902905, lon.=26.530762, Alt.=120.124084m. Speed=19.440001m/h.</desc>
<speed>5.400000</speed>
</trkpt>
<trkpt lat="55.902946" lon="26.530764">
<ele>119.706116</ele>
<time>2010-08-29T07:38:57Z</time>
<desc>lat.=55.902946, lon.=26.530764, Alt.=119.706116m. Speed=21.924000m/h.</desc>
<speed>6.090000</speed>
</trkpt>
<trkpt lat="55.903000" lon="26.530764">
<ele>119.547913</ele>
<time>2010-08-29T07:38:58Z</time>
<desc>lat.=55.903000, lon.=26.530764, Alt.=119.547913m. Speed=24.587999m/h.</desc>
<speed>6.830000</speed>
</trkpt>
<trkpt lat="55.903053" lon="26.530748">
<ele>119.280334</ele>
<time>2010-08-29T07:38:59Z</time>
<desc>lat.=55.903053, lon.=26.530748, Alt.=119.280334m. Speed=20.520000m/h.</desc>
<speed>5.700000</speed>
</trkpt>
<trkpt lat="55.903099" lon="26.530729">
<ele>119.102600</ele>
<time>2010-08-29T07:39:00Z</time>
<desc>lat.=55.903099, lon.=26.530729, Alt.=119.102600m. Speed=17.172001m/h.</desc>
<speed>4.770000</speed>
</trkpt>
<trkpt lat="55.903137" lon="26.530712">
<ele>118.858459</ele>
<time>2010-08-29T07:39:01Z</time>
<desc>lat.=55.903137, lon.=26.530712, Alt.=118.858459m. Speed=16.452000m/h.</desc>
<speed>4.570000</speed>
</trkpt>
<trkpt lat="55.903145" lon="26.530682">
<ele>118.165100</ele>
<time>2010-08-29T07:39:02Z</time>
<desc>lat.=55.903145, lon.=26.530682, Alt.=118.165100m. Speed=9.000000m/h.</desc>
<speed>2.500000</speed>
</trkpt>
<trkpt lat="55.903172" lon="26.530642">
<ele>117.854553</ele>
<time>2010-08-29T07:39:03Z</time>
<desc>lat.=55.903172, lon.=26.530642, Alt.=117.854553m. Speed=14.796000m/h.</desc>
<speed>4.110000</speed>
</trkpt>
<trkpt lat="55.903194" lon="26.530588">
<ele>117.360413</ele>
<time>2010-08-29T07:39:04Z</time>
<desc>lat.=55.903194, lon.=26.530588, Alt.=117.360413m. Speed=16.848000m/h.</desc>
<speed>4.680000</speed>
</trkpt>
<trkpt lat="55.903217" lon="26.530527">
<ele>117.170959</ele>
<time>2010-08-29T07:39:05Z</time>
<desc>lat.=55.903217, lon.=26.530527, Alt.=117.170959m. Speed=16.704000m/h.</desc>
<speed>4.640000</speed>
</trkpt>
<trkpt lat="55.903255" lon="26.530481">
<ele>116.647522</ele>
<time>2010-08-29T07:39:06Z</time>
<desc>lat.=55.903255, lon.=26.530481, Alt.=116.647522m. Speed=14.148000m/h.</desc>
<speed>3.930000</speed>
</trkpt>
<trkpt lat="55.903282" lon="26.530443">
<ele>116.321350</ele>
<time>2010-08-29T07:39:07Z</time>
<desc>lat.=55.903282, lon.=26.530443, Alt.=116.321350m. Speed=12.348000m/h.</desc>
<speed>3.430000</speed>
</trkpt>
<trkpt lat="55.903309" lon="26.530418">
<ele>115.952209</ele>
<time>2010-08-29T07:39:08Z</time>
<desc>lat.=55.903309, lon.=26.530418, Alt.=115.952209m. Speed=12.492000m/h.</desc>
<speed>3.470000</speed>
</trkpt>
<trkpt lat="55.903351" lon="26.530439">
<ele>115.741272</ele>
<time>2010-08-29T07:39:09Z</time>
<desc>lat.=55.903351, lon.=26.530439, Alt.=115.741272m. Speed=14.904000m/h.</desc>
<speed>4.140000</speed>
</trkpt>
<trkpt lat="55.903381" lon="26.530483">
<ele>116.067444</ele>
<time>2010-08-29T07:39:10Z</time>
<desc>lat.=55.903381, lon.=26.530483, Alt.=116.067444m. Speed=15.192000m/h.</desc>
<speed>4.220000</speed>
</trkpt>
<trkpt lat="55.903419" lon="26.530525">
<ele>116.622131</ele>
<time>2010-08-29T07:39:11Z</time>
<desc>lat.=55.903419, lon.=26.530525, Alt.=116.622131m. Speed=14.472000m/h.</desc>
<speed>4.020000</speed>
</trkpt>
<trkpt lat="55.903446" lon="26.530567">
<ele>116.542053</ele>
<time>2010-08-29T07:39:12Z</time>
<desc>lat.=55.903446, lon.=26.530567, Alt.=116.542053m. Speed=13.428000m/h.</desc>
<speed>3.730000</speed>
</trkpt>
<trkpt lat="55.903477" lon="26.530611">
<ele>116.792053</ele>
<time>2010-08-29T07:39:13Z</time>
<desc>lat.=55.903477, lon.=26.530611, Alt.=116.792053m. Speed=13.500000m/h.</desc>
<speed>3.750000</speed>
</trkpt>
<trkpt lat="55.903519" lon="26.530655">
<ele>117.286194</ele>
<time>2010-08-29T07:39:14Z</time>
<desc>lat.=55.903519, lon.=26.530655, Alt.=117.286194m. Speed=15.120000m/h.</desc>
<speed>4.200000</speed>
</trkpt>
<trkpt lat="55.903557" lon="26.530701">
<ele>117.739319</ele>
<time>2010-08-29T07:39:15Z</time>
<desc>lat.=55.903557, lon.=26.530701, Alt.=117.739319m. Speed=15.732000m/h.</desc>
<speed>4.370000</speed>
</trkpt>
<trkpt lat="55.903591" lon="26.530750">
<ele>118.137756</ele>
<time>2010-08-29T07:39:16Z</time>
<desc>lat.=55.903591, lon.=26.530750, Alt.=118.137756m. Speed=16.308001m/h.</desc>
<speed>4.530000</speed>
</trkpt>
<trkpt lat="55.903629" lon="26.530798">
<ele>118.583069</ele>
<time>2010-08-29T07:39:17Z</time>
<desc>lat.=55.903629, lon.=26.530798, Alt.=118.583069m. Speed=16.740000m/h.</desc>
<speed>4.650000</speed>
</trkpt>
<trkpt lat="55.903732" lon="26.530893">
<ele>116.831116</ele>
<time>2010-08-29T07:39:18Z</time>
<desc>lat.=55.903732, lon.=26.530893, Alt.=116.831116m. Speed=17.063999m/h.</desc>
<speed>4.740000</speed>
</trkpt>
<trkpt lat="55.903790" lon="26.530962">
<ele>117.065491</ele>
<time>2010-08-29T07:39:19Z</time>
<desc>lat.=55.903790, lon.=26.530962, Alt.=117.065491m. Speed=17.784000m/h.</desc>
<speed>4.940000</speed>
</trkpt>
<trkpt lat="55.903843" lon="26.531021">
<ele>116.776428</ele>
<time>2010-08-29T07:39:20Z</time>
<desc>lat.=55.903843, lon.=26.531021, Alt.=116.776428m. Speed=17.532000m/h.</desc>
<speed>4.870000</speed>
</trkpt>
<trkpt lat="55.903893" lon="26.531076">
<ele>116.561584</ele>
<time>2010-08-29T07:39:21Z</time>
<desc>lat.=55.903893, lon.=26.531076, Alt.=116.561584m. Speed=17.892000m/h.</desc>
<speed>4.970000</speed>
</trkpt>
<trkpt lat="55.903938" lon="26.531126">
<ele>116.585022</ele>
<time>2010-08-29T07:39:22Z</time>
<desc>lat.=55.903938, lon.=26.531126, Alt.=116.585022m. Speed=18.000000m/h.</desc>
<speed>5.000000</speed>
</trkpt>
<trkpt lat="55.903980" lon="26.531178">
<ele>116.502991</ele>
<time>2010-08-29T07:39:23Z</time>
<desc>lat.=55.903980, lon.=26.531178, Alt.=116.502991m. Speed=18.035999m/h.</desc>
<speed>5.010000</speed>
</trkpt>
<trkpt lat="55.904022" lon="26.531219">
<ele>116.303772</ele>
<time>2010-08-29T07:39:24Z</time>
<desc>lat.=55.904022, lon.=26.531219, Alt.=116.303772m. Speed=18.323999m/h.</desc>
<speed>5.090000</speed>
</trkpt>
<trkpt lat="55.904079" lon="26.531252">
<ele>117.249084</ele>
<time>2010-08-29T07:39:25Z</time>
<desc>lat.=55.904079, lon.=26.531252, Alt.=117.249084m. Speed=20.052000m/h.</desc>
<speed>5.570000</speed>
</trkpt>
<trkpt lat="55.904129" lon="26.531284">
<ele>117.805725</ele>
<time>2010-08-29T07:39:26Z</time>
<desc>lat.=55.904129, lon.=26.531284, Alt.=117.805725m. Speed=20.232000m/h.</desc>
<speed>5.620000</speed>
</trkpt>
<trkpt lat="55.904179" lon="26.531324">
<ele>118.008850</ele>
<time>2010-08-29T07:39:27Z</time>
<desc>lat.=55.904179, lon.=26.531324, Alt.=118.008850m. Speed=19.511999m/h.</desc>
<speed>5.420000</speed>
</trkpt>
<trkpt lat="55.904221" lon="26.531368">
<ele>118.534241</ele>
<time>2010-08-29T07:39:28Z</time>
<desc>lat.=55.904221, lon.=26.531368, Alt.=118.534241m. Speed=19.944000m/h.</desc>
<speed>5.540000</speed>
</trkpt>
<trkpt lat="55.904266" lon="26.531420">
<ele>119.116272</ele>
<time>2010-08-29T07:39:29Z</time>
<desc>lat.=55.904266, lon.=26.531420, Alt.=119.116272m. Speed=20.087999m/h.</desc>
<speed>5.580000</speed>
</trkpt>
<trkpt lat="55.904316" lon="26.531467">
<ele>119.653381</ele>
<time>2010-08-29T07:39:30Z</time>
<desc>lat.=55.904316, lon.=26.531467, Alt.=119.653381m. Speed=20.304001m/h.</desc>
<speed>5.640000</speed>
</trkpt>
<trkpt lat="55.904366" lon="26.531515">
<ele>120.399475</ele>
<time>2010-08-29T07:39:31Z</time>
<desc>lat.=55.904366, lon.=26.531515, Alt.=120.399475m. Speed=21.492001m/h.</desc>
<speed>5.970000</speed>
</trkpt>
<trkpt lat="55.904415" lon="26.531559">
<ele>120.754944</ele>
<time>2010-08-29T07:39:32Z</time>
<desc>lat.=55.904415, lon.=26.531559, Alt.=120.754944m. Speed=21.708000m/h.</desc>
<speed>6.030000</speed>
</trkpt>
<trkpt lat="55.904438" lon="26.531616">
<ele>118.598694</ele>
<time>2010-08-29T07:39:33Z</time>
<desc>lat.=55.904438, lon.=26.531616, Alt.=118.598694m. Speed=19.728001m/h.</desc>
<speed>5.480000</speed>
</trkpt>
<trkpt lat="55.904480" lon="26.531658">
<ele>118.649475</ele>
<time>2010-08-29T07:39:34Z</time>
<desc>lat.=55.904480, lon.=26.531658, Alt.=118.649475m. Speed=18.756001m/h.</desc>
<speed>5.210000</speed>
</trkpt>
<trkpt lat="55.904518" lon="26.531702">
<ele>118.596741</ele>
<time>2010-08-29T07:39:35Z</time>
<desc>lat.=55.904518, lon.=26.531702, Alt.=118.596741m. Speed=18.108000m/h.</desc>
<speed>5.030000</speed>
</trkpt>
<trkpt lat="55.904549" lon="26.531748">
<ele>118.174866</ele>
<time>2010-08-29T07:39:36Z</time>
<desc>lat.=55.904549, lon.=26.531748, Alt.=118.174866m. Speed=18.252001m/h.</desc>
<speed>5.070000</speed>
</trkpt>
<trkpt lat="55.904579" lon="26.531801">
<ele>117.706116</ele>
<time>2010-08-29T07:39:37Z</time>
<desc>lat.=55.904579, lon.=26.531801, Alt.=117.706116m. Speed=17.459999m/h.</desc>
<speed>4.850000</speed>
</trkpt>
<trkpt lat="55.904617" lon="26.531860">
<ele>118.264709</ele>
<time>2010-08-29T07:39:38Z</time>
<desc>lat.=55.904617, lon.=26.531860, Alt.=118.264709m. Speed=17.532000m/h.</desc>
<speed>4.870000</speed>
</trkpt>
<trkpt lat="55.904636" lon="26.531925">
<ele>118.331116</ele>
<time>2010-08-29T07:39:39Z</time>
<desc>lat.=55.904636, lon.=26.531925, Alt.=118.331116m. Speed=18.719999m/h.</desc>
<speed>5.200000</speed>
</trkpt>
<trkpt lat="55.904667" lon="26.531990">
<ele>118.471741</ele>
<time>2010-08-29T07:39:40Z</time>
<desc>lat.=55.904667, lon.=26.531990, Alt.=118.471741m. Speed=19.403999m/h.</desc>
<speed>5.390000</speed>
</trkpt>
<trkpt lat="55.904701" lon="26.532045">
<ele>118.286194</ele>
<time>2010-08-29T07:39:41Z</time>
<desc>lat.=55.904701, lon.=26.532045, Alt.=118.286194m. Speed=20.016001m/h.</desc>
<speed>5.560000</speed>
</trkpt>
<trkpt lat="55.904739" lon="26.532097">
<ele>118.192444</ele>
<time>2010-08-29T07:39:42Z</time>
<desc>lat.=55.904739, lon.=26.532097, Alt.=118.192444m. Speed=18.288000m/h.</desc>
<speed>5.080000</speed>
</trkpt>
<trkpt lat="55.904781" lon="26.532141">
<ele>118.452209</ele>
<time>2010-08-29T07:39:43Z</time>
<desc>lat.=55.904781, lon.=26.532141, Alt.=118.452209m. Speed=19.728001m/h.</desc>
<speed>5.480000</speed>
</trkpt>
<trkpt lat="55.904827" lon="26.532187">
<ele>118.727600</ele>
<time>2010-08-29T07:39:44Z</time>
<desc>lat.=55.904827, lon.=26.532187, Alt.=118.727600m. Speed=20.916000m/h.</desc>
<speed>5.810000</speed>
</trkpt>
<trkpt lat="55.904861" lon="26.532236">
<ele>117.790100</ele>
<time>2010-08-29T07:39:45Z</time>
<desc>lat.=55.904861, lon.=26.532236, Alt.=117.790100m. Speed=21.888000m/h.</desc>
<speed>6.080000</speed>
</trkpt>
<trkpt lat="55.904907" lon="26.532280">
<ele>117.586975</ele>
<time>2010-08-29T07:39:46Z</time>
<desc>lat.=55.904907, lon.=26.532280, Alt.=117.586975m. Speed=19.872000m/h.</desc>
<speed>5.520000</speed>
</trkpt>
<trkpt lat="55.904961" lon="26.532326">
<ele>117.883850</ele>
<time>2010-08-29T07:39:47Z</time>
<desc>lat.=55.904961, lon.=26.532326, Alt.=117.883850m. Speed=19.836000m/h.</desc>
<speed>5.510000</speed>
</trkpt>
<trkpt lat="55.905010" lon="26.532366">
<ele>118.239319</ele>
<time>2010-08-29T07:39:48Z</time>
<desc>lat.=55.905010, lon.=26.532366, Alt.=118.239319m. Speed=19.656000m/h.</desc>
<speed>5.460000</speed>
</trkpt>
<trkpt lat="55.905052" lon="26.532406">
<ele>118.233459</ele>
<time>2010-08-29T07:39:49Z</time>
<desc>lat.=55.905052, lon.=26.532406, Alt.=118.233459m. Speed=20.160000m/h.</desc>
<speed>5.600000</speed>
</trkpt>
<trkpt lat="55.905098" lon="26.532459">
<ele>118.069397</ele>
<time>2010-08-29T07:39:50Z</time>
<desc>lat.=55.905098, lon.=26.532459, Alt.=118.069397m. Speed=22.716000m/h.</desc>
<speed>6.310000</speed>
</trkpt>
<trkpt lat="55.905140" lon="26.532505">
<ele>117.641663</ele>
<time>2010-08-29T07:39:51Z</time>
<desc>lat.=55.905140, lon.=26.532505, Alt.=117.641663m. Speed=20.628000m/h.</desc>
<speed>5.730000</speed>
</trkpt>
<trkpt lat="55.905182" lon="26.532553">
<ele>117.340881</ele>
<time>2010-08-29T07:39:52Z</time>
<desc>lat.=55.905182, lon.=26.532553, Alt.=117.340881m. Speed=20.736000m/h.</desc>
<speed>5.760000</speed>
</trkpt>
<trkpt lat="55.905224" lon="26.532606">
<ele>117.247131</ele>
<time>2010-08-29T07:39:53Z</time>
<desc>lat.=55.905224, lon.=26.532606, Alt.=117.247131m. Speed=19.980000m/h.</desc>
<speed>5.550000</speed>
</trkpt>
<trkpt lat="55.905266" lon="26.532660">
<ele>116.930725</ele>
<time>2010-08-29T07:39:54Z</time>
<desc>lat.=55.905266, lon.=26.532660, Alt.=116.930725m. Speed=20.808001m/h.</desc>
<speed>5.780000</speed>
</trkpt>
<trkpt lat="55.905308" lon="26.532711">
<ele>116.737366</ele>
<time>2010-08-29T07:39:55Z</time>
<desc>lat.=55.905308, lon.=26.532711, Alt.=116.737366m. Speed=20.844000m/h.</desc>
<speed>5.790000</speed>
</trkpt>
<trkpt lat="55.905354" lon="26.532768">
<ele>116.641663</ele>
<time>2010-08-29T07:39:56Z</time>
<desc>lat.=55.905354, lon.=26.532768, Alt.=116.641663m. Speed=21.743999m/h.</desc>
<speed>6.040000</speed>
</trkpt>
<trkpt lat="55.905392" lon="26.532829">
<ele>116.450256</ele>
<time>2010-08-29T07:39:57Z</time>
<desc>lat.=55.905392, lon.=26.532829, Alt.=116.450256m. Speed=22.139999m/h.</desc>
<speed>6.150000</speed>
</trkpt>
<trkpt lat="55.905384" lon="26.532907">
<ele>114.030334</ele>
<time>2010-08-29T07:39:58Z</time>
<desc>lat.=55.905384, lon.=26.532907, Alt.=114.030334m. Speed=20.844000m/h.</desc>
<speed>5.790000</speed>
</trkpt>
<trkpt lat="55.905396" lon="26.532972">
<ele>112.579163</ele>
<time>2010-08-29T07:39:59Z</time>
<desc>lat.=55.905396, lon.=26.532972, Alt.=112.579163m. Speed=20.448000m/h.</desc>
<speed>5.680000</speed>
</trkpt>
<trkpt lat="55.905434" lon="26.533030">
<ele>112.153381</ele>
<time>2010-08-29T07:40:00Z</time>
<desc>lat.=55.905434, lon.=26.533030, Alt.=112.153381m. Speed=20.232000m/h.</desc>
<speed>5.620000</speed>
</trkpt>
<trkpt lat="55.905468" lon="26.533085">
<ele>112.186584</ele>
<time>2010-08-29T07:40:01Z</time>
<desc>lat.=55.905468, lon.=26.533085, Alt.=112.186584m. Speed=18.252001m/h.</desc>
<speed>5.070000</speed>
</trkpt>
<trkpt lat="55.905499" lon="26.533138">
<ele>112.172913</ele>
<time>2010-08-29T07:40:02Z</time>
<desc>lat.=55.905499, lon.=26.533138, Alt.=112.172913m. Speed=16.488001m/h.</desc>
<speed>4.580000</speed>
</trkpt>
<trkpt lat="55.905525" lon="26.533178">
<ele>112.124084</ele>
<time>2010-08-29T07:40:03Z</time>
<desc>lat.=55.905525, lon.=26.533178, Alt.=112.124084m. Speed=14.040000m/h.</desc>
<speed>3.900000</speed>
</trkpt>
<trkpt lat="55.905537" lon="26.533205">
<ele>112.088928</ele>
<time>2010-08-29T07:40:04Z</time>
<desc>lat.=55.905537, lon.=26.533205, Alt.=112.088928m. Speed=6.228000m/h.</desc>
<speed>1.730000</speed>
</trkpt>
<trkpt lat="55.905544" lon="26.533218">
<ele>112.254944</ele>
<time>2010-08-29T07:40:05Z</time>
<desc>lat.=55.905544, lon.=26.533218, Alt.=112.254944m. Speed=4.716000m/h.</desc>
<speed>1.310000</speed>
</trkpt>
<trkpt lat="55.905560" lon="26.533222">
<ele>112.532288</ele>
<time>2010-08-29T07:40:06Z</time>
<desc>lat.=55.905560, lon.=26.533222, Alt.=112.532288m. Speed=6.336000m/h.</desc>
<speed>1.760000</speed>
</trkpt>
<trkpt lat="55.905575" lon="26.533224">
<ele>112.452209</ele>
<time>2010-08-29T07:40:07Z</time>
<desc>lat.=55.905575, lon.=26.533224, Alt.=112.452209m. Speed=4.968000m/h.</desc>
<speed>1.380000</speed>
</trkpt>
<trkpt lat="55.905586" lon="26.533222">
<ele>112.795959</ele>
<time>2010-08-29T07:40:08Z</time>
<desc>lat.=55.905586, lon.=26.533222, Alt.=112.795959m. Speed=5.580000m/h.</desc>
<speed>1.550000</speed>
</trkpt>
<trkpt lat="55.905602" lon="26.533215">
<ele>112.377991</ele>
<time>2010-08-29T07:40:09Z</time>
<desc>lat.=55.905602, lon.=26.533215, Alt.=112.377991m. Speed=5.832000m/h.</desc>
<speed>1.620000</speed>
</trkpt>
<trkpt lat="55.905617" lon="26.533205">
<ele>112.415100</ele>
<time>2010-08-29T07:40:10Z</time>
<desc>lat.=55.905617, lon.=26.533205, Alt.=112.415100m. Speed=3.852000m/h.</desc>
<speed>1.070000</speed>
</trkpt>
<trkpt lat="55.905628" lon="26.533203">
<ele>112.544006</ele>
<time>2010-08-29T07:40:11Z</time>
<desc>lat.=55.905628, lon.=26.533203, Alt.=112.544006m. Speed=3.924000m/h.</desc>
<speed>1.090000</speed>
</trkpt>
<trkpt lat="55.905632" lon="26.533209">
<ele>112.383850</ele>
<time>2010-08-29T07:40:12Z</time>
<desc>lat.=55.905632, lon.=26.533209, Alt.=112.383850m. Speed=6.120000m/h.</desc>
<speed>1.700000</speed>
</trkpt>
<trkpt lat="55.905624" lon="26.533234">
<ele>112.172913</ele>
<time>2010-08-29T07:40:13Z</time>
<desc>lat.=55.905624, lon.=26.533234, Alt.=112.172913m. Speed=6.624000m/h.</desc>
<speed>1.840000</speed>
</trkpt>
<trkpt lat="55.905613" lon="26.533266">
<ele>112.176819</ele>
<time>2010-08-29T07:40:14Z</time>
<desc>lat.=55.905613, lon.=26.533266, Alt.=112.176819m. Speed=9.504000m/h.</desc>
<speed>2.640000</speed>
</trkpt>
<trkpt lat="55.905598" lon="26.533310">
<ele>112.174866</ele>
<time>2010-08-29T07:40:15Z</time>
<desc>lat.=55.905598, lon.=26.533310, Alt.=112.174866m. Speed=11.376000m/h.</desc>
<speed>3.160000</speed>
</trkpt>
<trkpt lat="55.905586" lon="26.533360">
<ele>112.213928</ele>
<time>2010-08-29T07:40:16Z</time>
<desc>lat.=55.905586, lon.=26.533360, Alt.=112.213928m. Speed=12.888000m/h.</desc>
<speed>3.580000</speed>
</trkpt>
<trkpt lat="55.905575" lon="26.533415">
<ele>112.340881</ele>
<time>2010-08-29T07:40:17Z</time>
<desc>lat.=55.905575, lon.=26.533415, Alt.=112.340881m. Speed=13.428000m/h.</desc>
<speed>3.730000</speed>
</trkpt>
<trkpt lat="55.905567" lon="26.533472">
<ele>112.460022</ele>
<time>2010-08-29T07:40:18Z</time>
<desc>lat.=55.905567, lon.=26.533472, Alt.=112.460022m. Speed=13.932000m/h.</desc>
<speed>3.870000</speed>
</trkpt>
<trkpt lat="55.905563" lon="26.533533">
<ele>112.532288</ele>
<time>2010-08-29T07:40:19Z</time>
<desc>lat.=55.905563, lon.=26.533533, Alt.=112.532288m. Speed=15.336000m/h.</desc>
<speed>4.260000</speed>
</trkpt>
<trkpt lat="55.905552" lon="26.533604">
<ele>112.686584</ele>
<time>2010-08-29T07:40:20Z</time>
<desc>lat.=55.905552, lon.=26.533604, Alt.=112.686584m. Speed=16.128000m/h.</desc>
<speed>4.480000</speed>
</trkpt>
<trkpt lat="55.905537" lon="26.533672">
<ele>112.879944</ele>
<time>2010-08-29T07:40:21Z</time>
<desc>lat.=55.905537, lon.=26.533672, Alt.=112.879944m. Speed=16.667999m/h.</desc>
<speed>4.630000</speed>
</trkpt>
<trkpt lat="55.905525" lon="26.533745">
<ele>113.133850</ele>
<time>2010-08-29T07:40:22Z</time>
<desc>lat.=55.905525, lon.=26.533745, Alt.=113.133850m. Speed=17.028000m/h.</desc>
<speed>4.730000</speed>
</trkpt>
<trkpt lat="55.905514" lon="26.533821">
<ele>113.340881</ele>
<time>2010-08-29T07:40:23Z</time>
<desc>lat.=55.905514, lon.=26.533821, Alt.=113.340881m. Speed=18.143999m/h.</desc>
<speed>5.040000</speed>
</trkpt>
<trkpt lat="55.905506" lon="26.533901">
<ele>113.598694</ele>
<time>2010-08-29T07:40:24Z</time>
<desc>lat.=55.905506, lon.=26.533901, Alt.=113.598694m. Speed=18.900000m/h.</desc>
<speed>5.250000</speed>
</trkpt>
<trkpt lat="55.905499" lon="26.533985">
<ele>113.827209</ele>
<time>2010-08-29T07:40:25Z</time>
<desc>lat.=55.905499, lon.=26.533985, Alt.=113.827209m. Speed=18.792000m/h.</desc>
<speed>5.220000</speed>
</trkpt>
<trkpt lat="55.905495" lon="26.534075">
<ele>114.024475</ele>
<time>2010-08-29T07:40:26Z</time>
<desc>lat.=55.905495, lon.=26.534075, Alt.=114.024475m. Speed=19.332001m/h.</desc>
<speed>5.370000</speed>
</trkpt>
<trkpt lat="55.905487" lon="26.534166">
<ele>114.297913</ele>
<time>2010-08-29T07:40:27Z</time>
<desc>lat.=55.905487, lon.=26.534166, Alt.=114.297913m. Speed=20.052000m/h.</desc>
<speed>5.570000</speed>
</trkpt>
<trkpt lat="55.905472" lon="26.534252">
<ele>114.813538</ele>
<time>2010-08-29T07:40:28Z</time>
<desc>lat.=55.905472, lon.=26.534252, Alt.=114.813538m. Speed=20.952000m/h.</desc>
<speed>5.820000</speed>
</trkpt>
<trkpt lat="55.905460" lon="26.534344">
<ele>115.178772</ele>
<time>2010-08-29T07:40:29Z</time>
<desc>lat.=55.905460, lon.=26.534344, Alt.=115.178772m. Speed=21.600000m/h.</desc>
<speed>6.000000</speed>
</trkpt>
<trkpt lat="55.905445" lon="26.534431">
<ele>115.434631</ele>
<time>2010-08-29T07:40:30Z</time>
<desc>lat.=55.905445, lon.=26.534431, Alt.=115.434631m. Speed=21.420000m/h.</desc>
<speed>5.950000</speed>
</trkpt>
<trkpt lat="55.905426" lon="26.534529">
<ele>115.575256</ele>
<time>2010-08-29T07:40:31Z</time>
<desc>lat.=55.905426, lon.=26.534529, Alt.=115.575256m. Speed=22.212000m/h.</desc>
<speed>6.170000</speed>
</trkpt>
<trkpt lat="55.905415" lon="26.534622">
<ele>115.731506</ele>
<time>2010-08-29T07:40:32Z</time>
<desc>lat.=55.905415, lon.=26.534622, Alt.=115.731506m. Speed=22.716000m/h.</desc>
<speed>6.310000</speed>
</trkpt>
<trkpt lat="55.905407" lon="26.534716">
<ele>116.118225</ele>
<time>2010-08-29T07:40:33Z</time>
<desc>lat.=55.905407, lon.=26.534716, Alt.=116.118225m. Speed=22.320000m/h.</desc>
<speed>6.200000</speed>
</trkpt>
<trkpt lat="55.905399" lon="26.534813">
<ele>116.362366</ele>
<time>2010-08-29T07:40:34Z</time>
<desc>lat.=55.905399, lon.=26.534813, Alt.=116.362366m. Speed=21.420000m/h.</desc>
<speed>5.950000</speed>
</trkpt>
<trkpt lat="55.905376" lon="26.534904">
<ele>116.754944</ele>
<time>2010-08-29T07:40:35Z</time>
<desc>lat.=55.905376, lon.=26.534904, Alt.=116.754944m. Speed=20.988001m/h.</desc>
<speed>5.830000</speed>
</trkpt>
<trkpt lat="55.905365" lon="26.534994">
<ele>116.991272</ele>
<time>2010-08-29T07:40:36Z</time>
<desc>lat.=55.905365, lon.=26.534994, Alt.=116.991272m. Speed=20.700001m/h.</desc>
<speed>5.750000</speed>
</trkpt>
<trkpt lat="55.905354" lon="26.535084">
<ele>117.430725</ele>
<time>2010-08-29T07:40:37Z</time>
<desc>lat.=55.905354, lon.=26.535084, Alt.=117.430725m. Speed=20.124001m/h.</desc>
<speed>5.590000</speed>
</trkpt>
<trkpt lat="55.905342" lon="26.535170">
<ele>117.747131</ele>
<time>2010-08-29T07:40:38Z</time>
<desc>lat.=55.905342, lon.=26.535170, Alt.=117.747131m. Speed=19.656000m/h.</desc>
<speed>5.460000</speed>
</trkpt>
<trkpt lat="55.905334" lon="26.535259">
<ele>117.971741</ele>
<time>2010-08-29T07:40:39Z</time>
<desc>lat.=55.905334, lon.=26.535259, Alt.=117.971741m. Speed=19.511999m/h.</desc>
<speed>5.420000</speed>
</trkpt>
<trkpt lat="55.905327" lon="26.535339">
<ele>118.243225</ele>
<time>2010-08-29T07:40:40Z</time>
<desc>lat.=55.905327, lon.=26.535339, Alt.=118.243225m. Speed=18.072001m/h.</desc>
<speed>5.020000</speed>
</trkpt>
<trkpt lat="55.905315" lon="26.535418">
<ele>118.577209</ele>
<time>2010-08-29T07:40:41Z</time>
<desc>lat.=55.905315, lon.=26.535418, Alt.=118.577209m. Speed=18.576000m/h.</desc>
<speed>5.160000</speed>
</trkpt>
<trkpt lat="55.905304" lon="26.535494">
<ele>118.877991</ele>
<time>2010-08-29T07:40:42Z</time>
<desc>lat.=55.905304, lon.=26.535494, Alt.=118.877991m. Speed=19.224001m/h.</desc>
<speed>5.340000</speed>
</trkpt>
<trkpt lat="55.905293" lon="26.535574">
<ele>119.227600</ele>
<time>2010-08-29T07:40:43Z</time>
<desc>lat.=55.905293, lon.=26.535574, Alt.=119.227600m. Speed=19.007999m/h.</desc>
<speed>5.280000</speed>
</trkpt>
<trkpt lat="55.905281" lon="26.535652">
<ele>119.764709</ele>
<time>2010-08-29T07:40:44Z</time>
<desc>lat.=55.905281, lon.=26.535652, Alt.=119.764709m. Speed=18.719999m/h.</desc>
<speed>5.200000</speed>
</trkpt>
<trkpt lat="55.905277" lon="26.535730">
<ele>120.096741</ele>
<time>2010-08-29T07:40:45Z</time>
<desc>lat.=55.905277, lon.=26.535730, Alt.=120.096741m. Speed=17.964001m/h.</desc>
<speed>4.990000</speed>
</trkpt>
<trkpt lat="55.905266" lon="26.535797">
<ele>120.030334</ele>
<time>2010-08-29T07:40:46Z</time>
<desc>lat.=55.905266, lon.=26.535797, Alt.=120.030334m. Speed=18.288000m/h.</desc>
<speed>5.080000</speed>
</trkpt>
<trkpt lat="55.905243" lon="26.535868">
<ele>120.530334</ele>
<time>2010-08-29T07:40:47Z</time>
<desc>lat.=55.905243, lon.=26.535868, Alt.=120.530334m. Speed=17.532000m/h.</desc>
<speed>4.870000</speed>
</trkpt>
<trkpt lat="55.905231" lon="26.535934">
<ele>121.149475</ele>
<time>2010-08-29T07:40:48Z</time>
<desc>lat.=55.905231, lon.=26.535934, Alt.=121.149475m. Speed=16.056000m/h.</desc>
<speed>4.460000</speed>
</trkpt>
<trkpt lat="55.905220" lon="26.536001">
<ele>121.723694</ele>
<time>2010-08-29T07:40:49Z</time>
<desc>lat.=55.905220, lon.=26.536001, Alt.=121.723694m. Speed=15.732000m/h.</desc>
<speed>4.370000</speed>
</trkpt>
<trkpt lat="55.905212" lon="26.536070">
<ele>121.985413</ele>
<time>2010-08-29T07:40:50Z</time>
<desc>lat.=55.905212, lon.=26.536070, Alt.=121.985413m. Speed=15.120000m/h.</desc>
<speed>4.200000</speed>
</trkpt>
<trkpt lat="55.905205" lon="26.536133">
<ele>122.036194</ele>
<time>2010-08-29T07:40:51Z</time>
<desc>lat.=55.905205, lon.=26.536133, Alt.=122.036194m. Speed=14.400000m/h.</desc>
<speed>4.000000</speed>
</trkpt>
<trkpt lat="55.905228" lon="26.536180">
<ele>120.823303</ele>
<time>2010-08-29T07:40:52Z</time>
<desc>lat.=55.905228, lon.=26.536180, Alt.=120.823303m. Speed=14.400000m/h.</desc>
<speed>4.000000</speed>
</trkpt>
<trkpt lat="55.905266" lon="26.536240">
<ele>119.235413</ele>
<time>2010-08-29T07:40:53Z</time>
<desc>lat.=55.905266, lon.=26.536240, Alt.=119.235413m. Speed=13.284000m/h.</desc>
<speed>3.690000</speed>
</trkpt>
<trkpt lat="55.905273" lon="26.536299">
<ele>118.627991</ele>
<time>2010-08-29T07:40:54Z</time>
<desc>lat.=55.905273, lon.=26.536299, Alt.=118.627991m. Speed=12.276000m/h.</desc>
<speed>3.410000</speed>
</trkpt>
<trkpt lat="55.905273" lon="26.536350">
<ele>118.397522</ele>
<time>2010-08-29T07:40:55Z</time>
<desc>lat.=55.905273, lon.=26.536350, Alt.=118.397522m. Speed=11.844000m/h.</desc>
<speed>3.290000</speed>
</trkpt>
<trkpt lat="55.905277" lon="26.536398">
<ele>118.155334</ele>
<time>2010-08-29T07:40:56Z</time>
<desc>lat.=55.905277, lon.=26.536398, Alt.=118.155334m. Speed=11.196000m/h.</desc>
<speed>3.110000</speed>
</trkpt>
<trkpt lat="55.905277" lon="26.536442">
<ele>118.170959</ele>
<time>2010-08-29T07:40:57Z</time>
<desc>lat.=55.905277, lon.=26.536442, Alt.=118.170959m. Speed=10.908000m/h.</desc>
<speed>3.030000</speed>
</trkpt>
<trkpt lat="55.905289" lon="26.536489">
<ele>118.079163</ele>
<time>2010-08-29T07:40:58Z</time>
<desc>lat.=55.905289, lon.=26.536489, Alt.=118.079163m. Speed=10.440000m/h.</desc>
<speed>2.900000</speed>
</trkpt>
<trkpt lat="55.905296" lon="26.536530">
<ele>117.895569</ele>
<time>2010-08-29T07:40:59Z</time>
<desc>lat.=55.905296, lon.=26.536530, Alt.=117.895569m. Speed=10.080000m/h.</desc>
<speed>2.800000</speed>
</trkpt>
<trkpt lat="55.905319" lon="26.536549">
<ele>117.794006</ele>
<time>2010-08-29T07:41:00Z</time>
<desc>lat.=55.905319, lon.=26.536549, Alt.=117.794006m. Speed=9.648000m/h.</desc>
<speed>2.680000</speed>
</trkpt>
<trkpt lat="55.905327" lon="26.536556">
<ele>117.102600</ele>
<time>2010-08-29T07:41:01Z</time>
<desc>lat.=55.905327, lon.=26.536556, Alt.=117.102600m. Speed=9.108000m/h.</desc>
<speed>2.530000</speed>
</trkpt>
<trkpt lat="55.905342" lon="26.536552">
<ele>116.542053</ele>
<time>2010-08-29T07:41:02Z</time>
<desc>lat.=55.905342, lon.=26.536552, Alt.=116.542053m. Speed=4.968000m/h.</desc>
<speed>1.380000</speed>
</trkpt>
<trkpt lat="55.905346" lon="26.536545">
<ele>116.325256</ele>
<time>2010-08-29T07:41:03Z</time>
<desc>lat.=55.905346, lon.=26.536545, Alt.=116.325256m. Speed=2.052000m/h.</desc>
<speed>0.570000</speed>
</trkpt>
<trkpt lat="55.905338" lon="26.536547">
<ele>116.198303</ele>
<time>2010-08-29T07:41:04Z</time>
<desc>lat.=55.905338, lon.=26.536547, Alt.=116.198303m. Speed=1.224000m/h.</desc>
<speed>0.340000</speed>
</trkpt>
<trkpt lat="55.905334" lon="26.536551">
<ele>116.040100</ele>
<time>2010-08-29T07:41:05Z</time>
<desc>lat.=55.905334, lon.=26.536551, Alt.=116.040100m. Speed=0.576000m/h.</desc>
<speed>0.160000</speed>
</trkpt>
<trkpt lat="55.905331" lon="26.536551">
<ele>115.547913</ele>
<time>2010-08-29T07:41:06Z</time>
<desc>lat.=55.905331, lon.=26.536551, Alt.=115.547913m. Speed=0.648000m/h.</desc>
<speed>0.180000</speed>
</trkpt>
<trkpt lat="55.905327" lon="26.536552">
<ele>115.641663</ele>
<time>2010-08-29T07:41:07Z</time>
<desc>lat.=55.905327, lon.=26.536552, Alt.=115.641663m. Speed=0.216000m/h.</desc>
<speed>0.060000</speed>
</trkpt>
<trkpt lat="55.905327" lon="26.536552">
<ele>115.721741</ele>
<time>2010-08-29T07:41:08Z</time>
<desc>lat.=55.905327, lon.=26.536552, Alt.=115.721741m. Speed=0.216000m/h.</desc>
<speed>0.060000</speed>
</trkpt>
<trkpt lat="55.905327" lon="26.536552">
<ele>115.729553</ele>
<time>2010-08-29T07:41:09Z</time>
<desc>lat.=55.905327, lon.=26.536552, Alt.=115.729553m. Speed=0.432000m/h.</desc>
<speed>0.120000</speed>
</trkpt>
<trkpt lat="55.905327" lon="26.536551">
<ele>115.756897</ele>
<time>2010-08-29T07:41:10Z</time>
<desc>lat.=55.905327, lon.=26.536551, Alt.=115.756897m. Speed=0.108000m/h.</desc>
<speed>0.030000</speed>
</trkpt>
<trkpt lat="55.905327" lon="26.536551">
<ele>115.774475</ele>
<time>2010-08-29T07:41:11Z</time>
<desc>lat.=55.905327, lon.=26.536551, Alt.=115.774475m. Speed=0.036000m/h.</desc>
<speed>0.010000</speed>
</trkpt>
<trkpt lat="55.905327" lon="26.536551">
<ele>115.784241</ele>
<time>2010-08-29T07:41:12Z</time>
<desc>lat.=55.905327, lon.=26.536551, Alt.=115.784241m. Speed=0.036000m/h.</desc>
<speed>0.010000</speed>
</trkpt>
<trkpt lat="55.905327" lon="26.536549">
<ele>115.780334</ele>
<time>2010-08-29T07:41:13Z</time>
<desc>lat.=55.905327, lon.=26.536549, Alt.=115.780334m. Speed=0.180000m/h.</desc>
<speed>0.050000</speed>
</trkpt>
<trkpt lat="55.905327" lon="26.536549">
<ele>115.784241</ele>
<time>2010-08-29T07:41:14Z</time>
<desc>lat.=55.905327, lon.=26.536549, Alt.=115.784241m. Speed=0.252000m/h.</desc>
<speed>0.070000</speed>
</trkpt>
<trkpt lat="55.905327" lon="26.536549">
<ele>115.778381</ele>
<time>2010-08-29T07:41:15Z</time>
<desc>lat.=55.905327, lon.=26.536549, Alt.=115.778381m. Speed=0.144000m/h.</desc>
<speed>0.040000</speed>
</trkpt>
<trkpt lat="55.905327" lon="26.536549">
<ele>115.766663</ele>
<time>2010-08-29T07:41:16Z</time>
<desc>lat.=55.905327, lon.=26.536549, Alt.=115.766663m. Speed=0.036000m/h.</desc>
<speed>0.010000</speed>
</trkpt>
<trkpt lat="55.905327" lon="26.536549">
<ele>115.741272</ele>
<time>2010-08-29T07:41:17Z</time>
<desc>lat.=55.905327, lon.=26.536549, Alt.=115.741272m. Speed=0.144000m/h.</desc>
<speed>0.040000</speed>
</trkpt>
<trkpt lat="55.905331" lon="26.536549">
<ele>115.729553</ele>
<time>2010-08-29T07:41:18Z</time>
<desc>lat.=55.905331, lon.=26.536549, Alt.=115.729553m. Speed=0.576000m/h.</desc>
<speed>0.160000</speed>
</trkpt>
<trkpt lat="55.905331" lon="26.536551">
<ele>115.713928</ele>
<time>2010-08-29T07:41:19Z</time>
<desc>lat.=55.905331, lon.=26.536551, Alt.=115.713928m. Speed=0.504000m/h.</desc>
<speed>0.140000</speed>
</trkpt>
<trkpt lat="55.905331" lon="26.536549">
<ele>115.684631</ele>
<time>2010-08-29T07:41:20Z</time>
<desc>lat.=55.905331, lon.=26.536549, Alt.=115.684631m. Speed=0.000000m/h.</desc>
<speed>0.000000</speed>
</trkpt>
<trkpt lat="55.905331" lon="26.536549">
<ele>115.680725</ele>
<time>2010-08-29T07:41:21Z</time>
<desc>lat.=55.905331, lon.=26.536549, Alt.=115.680725m. Speed=0.072000m/h.</desc>
<speed>0.020000</speed>
</trkpt>
<trkpt lat="55.905331" lon="26.536549">
<ele>115.684631</ele>
<time>2010-08-29T07:41:22Z</time>
<desc>lat.=55.905331, lon.=26.536549, Alt.=115.684631m. Speed=0.252000m/h.</desc>
<speed>0.070000</speed>
</trkpt>
<trkpt lat="55.905331" lon="26.536551">
<ele>115.696350</ele>
<time>2010-08-29T07:41:23Z</time>
<desc>lat.=55.905331, lon.=26.536551, Alt.=115.696350m. Speed=0.216000m/h.</desc>
<speed>0.060000</speed>
</trkpt>
<trkpt lat="55.905331" lon="26.536549">
<ele>115.665100</ele>
<time>2010-08-29T07:41:24Z</time>
<desc>lat.=55.905331, lon.=26.536549, Alt.=115.665100m. Speed=0.108000m/h.</desc>
<speed>0.030000</speed>
</trkpt>
<trkpt lat="55.905331" lon="26.536549">
<ele>115.657288</ele>
<time>2010-08-29T07:41:25Z</time>
<desc>lat.=55.905331, lon.=26.536549, Alt.=115.657288m. Speed=0.108000m/h.</desc>
<speed>0.030000</speed>
</trkpt>
<trkpt lat="55.905331" lon="26.536551">
<ele>115.653381</ele>
<time>2010-08-29T07:41:26Z</time>
<desc>lat.=55.905331, lon.=26.536551, Alt.=115.653381m. Speed=0.000000m/h.</desc>
<speed>0.000000</speed>
</trkpt>
<trkpt lat="55.905327" lon="26.536551">
<ele>115.645569</ele>
<time>2010-08-29T07:41:27Z</time>
<desc>lat.=55.905327, lon.=26.536551, Alt.=115.645569m. Speed=0.036000m/h.</desc>
<speed>0.010000</speed>
</trkpt>
<trkpt lat="55.905331" lon="26.536551">
<ele>115.647522</ele>
<time>2010-08-29T07:41:28Z</time>
<desc>lat.=55.905331, lon.=26.536551, Alt.=115.647522m. Speed=0.504000m/h.</desc>
<speed>0.140000</speed>
</trkpt>
<trkpt lat="55.905331" lon="26.536552">
<ele>115.598694</ele>
<time>2010-08-29T07:41:29Z</time>
<desc>lat.=55.905331, lon.=26.536552, Alt.=115.598694m. Speed=0.468000m/h.</desc>
<speed>0.130000</speed>
</trkpt>
<trkpt lat="55.905331" lon="26.536552">
<ele>115.606506</ele>
<time>2010-08-29T07:41:30Z</time>
<desc>lat.=55.905331, lon.=26.536552, Alt.=115.606506m. Speed=0.540000m/h.</desc>
<speed>0.150000</speed>
</trkpt>
<trkpt lat="55.905331" lon="26.536551">
<ele>115.629944</ele>
<time>2010-08-29T07:41:31Z</time>
<desc>lat.=55.905331, lon.=26.536551, Alt.=115.629944m. Speed=1.296000m/h.</desc>
<speed>0.360000</speed>
</trkpt>
<trkpt lat="55.905334" lon="26.536554">
<ele>115.596741</ele>
<time>2010-08-29T07:41:32Z</time>
<desc>lat.=55.905334, lon.=26.536554, Alt.=115.596741m. Speed=1.512000m/h.</desc>
<speed>0.420000</speed>
</trkpt>
<trkpt lat="55.905338" lon="26.536554">
<ele>115.604553</ele>
<time>2010-08-29T07:41:33Z</time>
<desc>lat.=55.905338, lon.=26.536554, Alt.=115.604553m. Speed=0.396000m/h.</desc>
<speed>0.110000</speed>
</trkpt>
<trkpt lat="55.905338" lon="26.536554">
<ele>115.581116</ele>
<time>2010-08-29T07:41:34Z</time>
<desc>lat.=55.905338, lon.=26.536554, Alt.=115.581116m. Speed=0.468000m/h.</desc>
<speed>0.130000</speed>
</trkpt>
<trkpt lat="55.905338" lon="26.536556">
<ele>115.569397</ele>
<time>2010-08-29T07:41:35Z</time>
<desc>lat.=55.905338, lon.=26.536556, Alt.=115.569397m. Speed=0.792000m/h.</desc>
<speed>0.220000</speed>
</trkpt>
<trkpt lat="55.905338" lon="26.536552">
<ele>115.583069</ele>
<time>2010-08-29T07:41:36Z</time>
<desc>lat.=55.905338, lon.=26.536552, Alt.=115.583069m. Speed=0.540000m/h.</desc>
<speed>0.150000</speed>
</trkpt>
<trkpt lat="55.905338" lon="26.536554">
<ele>115.563538</ele>
<time>2010-08-29T07:41:37Z</time>
<desc>lat.=55.905338, lon.=26.536554, Alt.=115.563538m. Speed=0.756000m/h.</desc>
<speed>0.210000</speed>
</trkpt>
<trkpt lat="55.905338" lon="26.536558">
<ele>115.528381</ele>
<time>2010-08-29T07:41:38Z</time>
<desc>lat.=55.905338, lon.=26.536558, Alt.=115.528381m. Speed=0.288000m/h.</desc>
<speed>0.080000</speed>
</trkpt>
<trkpt lat="55.905338" lon="26.536556">
<ele>115.510803</ele>
<time>2010-08-29T07:41:39Z</time>
<desc>lat.=55.905338, lon.=26.536556, Alt.=115.510803m. Speed=1.656000m/h.</desc>
<speed>0.460000</speed>
</trkpt>
<trkpt lat="55.905342" lon="26.536556">
<ele>115.504944</ele>
<time>2010-08-29T07:41:40Z</time>
<desc>lat.=55.905342, lon.=26.536556, Alt.=115.504944m. Speed=5.760000m/h.</desc>
<speed>1.600000</speed>
</trkpt>
<trkpt lat="55.905361" lon="26.536564">
<ele>115.145569</ele>
<time>2010-08-29T07:41:41Z</time>
<desc>lat.=55.905361, lon.=26.536564, Alt.=115.145569m. Speed=5.112000m/h.</desc>
<speed>1.420000</speed>
</trkpt>
<trkpt lat="55.905373" lon="26.536572">
<ele>114.936584</ele>
<time>2010-08-29T07:41:42Z</time>
<desc>lat.=55.905373, lon.=26.536572, Alt.=114.936584m. Speed=4.428000m/h.</desc>
<speed>1.230000</speed>
</trkpt>
<trkpt lat="55.905380" lon="26.536575">
<ele>114.864319</ele>
<time>2010-08-29T07:41:43Z</time>
<desc>lat.=55.905380, lon.=26.536575, Alt.=114.864319m. Speed=2.556000m/h.</desc>
<speed>0.710000</speed>
</trkpt>
<trkpt lat="55.905388" lon="26.536573">
<ele>115.243225</ele>
<time>2010-08-29T07:41:44Z</time>
<desc>lat.=55.905388, lon.=26.536573, Alt.=115.243225m. Speed=0.684000m/h.</desc>
<speed>0.190000</speed>
</trkpt>
<trkpt lat="55.905392" lon="26.536570">
<ele>115.264709</ele>
<time>2010-08-29T07:41:45Z</time>
<desc>lat.=55.905392, lon.=26.536570, Alt.=115.264709m. Speed=0.504000m/h.</desc>
<speed>0.140000</speed>
</trkpt>
<trkpt lat="55.905388" lon="26.536564">
<ele>115.553772</ele>
<time>2010-08-29T07:41:46Z</time>
<desc>lat.=55.905388, lon.=26.536564, Alt.=115.553772m. Speed=0.216000m/h.</desc>
<speed>0.060000</speed>
</trkpt>
<trkpt lat="55.905388" lon="26.536560">
<ele>115.364319</ele>
<time>2010-08-29T07:41:47Z</time>
<desc>lat.=55.905388, lon.=26.536560, Alt.=115.364319m. Speed=0.036000m/h.</desc>
<speed>0.010000</speed>
</trkpt>
<trkpt lat="55.905388" lon="26.536560">
<ele>115.440491</ele>
<time>2010-08-29T07:41:48Z</time>
<desc>lat.=55.905388, lon.=26.536560, Alt.=115.440491m. Speed=0.108000m/h.</desc>
<speed>0.030000</speed>
</trkpt>
<trkpt lat="55.905388" lon="26.536560">
<ele>115.481506</ele>
<time>2010-08-29T07:41:49Z</time>
<desc>lat.=55.905388, lon.=26.536560, Alt.=115.481506m. Speed=0.036000m/h.</desc>
<speed>0.010000</speed>
</trkpt>
<trkpt lat="55.905388" lon="26.536560">
<ele>115.508850</ele>
<time>2010-08-29T07:41:50Z</time>
<desc>lat.=55.905388, lon.=26.536560, Alt.=115.508850m. Speed=0.036000m/h.</desc>
<speed>0.010000</speed>
</trkpt>
<trkpt lat="55.905388" lon="26.536560">
<ele>115.528381</ele>
<time>2010-08-29T07:41:51Z</time>
<desc>lat.=55.905388, lon.=26.536560, Alt.=115.528381m. Speed=0.000000m/h.</desc>
<speed>0.000000</speed>
</trkpt>
<trkpt lat="55.905388" lon="26.536560">
<ele>115.542053</ele>
<time>2010-08-29T07:41:52Z</time>
<desc>lat.=55.905388, lon.=26.536560, Alt.=115.542053m. Speed=0.036000m/h.</desc>
<speed>0.010000</speed>
</trkpt>
<trkpt lat="55.905388" lon="26.536560">
<ele>115.545959</ele>
<time>2010-08-29T07:41:53Z</time>
<desc>lat.=55.905388, lon.=26.536560, Alt.=115.545959m. Speed=0.000000m/h.</desc>
<speed>0.000000</speed>
</trkpt>
<trkpt lat="55.905388" lon="26.536560">
<ele>115.551819</ele>
<time>2010-08-29T07:41:54Z</time>
<desc>lat.=55.905388, lon.=26.536560, Alt.=115.551819m. Speed=0.036000m/h.</desc>
<speed>0.010000</speed>
</trkpt>
<trkpt lat="55.905384" lon="26.536560">
<ele>115.561584</ele>
<time>2010-08-29T07:41:55Z</time>
<desc>lat.=55.905384, lon.=26.536560, Alt.=115.561584m. Speed=0.036000m/h.</desc>
<speed>0.010000</speed>
</trkpt>
<trkpt lat="55.905384" lon="26.536560">
<ele>115.559631</ele>
<time>2010-08-29T07:41:56Z</time>
<desc>lat.=55.905384, lon.=26.536560, Alt.=115.559631m. Speed=0.000000m/h.</desc>
<speed>0.000000</speed>
</trkpt>
<trkpt lat="55.905384" lon="26.536560">
<ele>115.561584</ele>
<time>2010-08-29T07:41:57Z</time>
<desc>lat.=55.905384, lon.=26.536560, Alt.=115.561584m. Speed=0.036000m/h.</desc>
<speed>0.010000</speed>
</trkpt>
<trkpt lat="55.905384" lon="26.536560">
<ele>115.561584</ele>
<time>2010-08-29T07:41:58Z</time>
<desc>lat.=55.905384, lon.=26.536560, Alt.=115.561584m. Speed=0.036000m/h.</desc>
<speed>0.010000</speed>
</trkpt>
<trkpt lat="55.905384" lon="26.536560">
<ele>115.555725</ele>
<time>2010-08-29T07:41:59Z</time>
<desc>lat.=55.905384, lon.=26.536560, Alt.=115.555725m. Speed=0.000000m/h.</desc>
<speed>0.000000</speed>
</trkpt>
<trkpt lat="55.905388" lon="26.536560">
<ele>115.551819</ele>
<time>2010-08-29T07:42:00Z</time>
<desc>lat.=55.905388, lon.=26.536560, Alt.=115.551819m. Speed=0.000000m/h.</desc>
<speed>0.000000</speed>
</trkpt>
<trkpt lat="55.905384" lon="26.536562">
<ele>115.547913</ele>
<time>2010-08-29T07:42:01Z</time>
<desc>lat.=55.905384, lon.=26.536562, Alt.=115.547913m. Speed=0.000000m/h.</desc>
<speed>0.000000</speed>
</trkpt>
<trkpt lat="55.905384" lon="26.536562">
<ele>115.544006</ele>
<time>2010-08-29T07:42:02Z</time>
<desc>lat.=55.905384, lon.=26.536562, Alt.=115.544006m. Speed=0.036000m/h.</desc>
<speed>0.010000</speed>
</trkpt>
<trkpt lat="55.905384" lon="26.536562">
<ele>115.536194</ele>
<time>2010-08-29T07:42:03Z</time>
<desc>lat.=55.905384, lon.=26.536562, Alt.=115.536194m. Speed=0.000000m/h.</desc>
<speed>0.000000</speed>
</trkpt>
<trkpt lat="55.905384" lon="26.536562">
<ele>115.530334</ele>
<time>2010-08-29T07:42:04Z</time>
<desc>lat.=55.905384, lon.=26.536562, Alt.=115.530334m. Speed=0.000000m/h.</desc>
<speed>0.000000</speed>
</trkpt>
<trkpt lat="55.905384" lon="26.536562">
<ele>115.524475</ele>
<time>2010-08-29T07:42:05Z</time>
<desc>lat.=55.905384, lon.=26.536562, Alt.=115.524475m. Speed=0.000000m/h.</desc>
<speed>0.000000</speed>
</trkpt>
<trkpt lat="55.905384" lon="26.536562">
<ele>115.520569</ele>
<time>2010-08-29T07:42:06Z</time>
<desc>lat.=55.905384, lon.=26.536562, Alt.=115.520569m. Speed=0.000000m/h.</desc>
<speed>0.000000</speed>
</trkpt>
<trkpt lat="55.905384" lon="26.536562">
<ele>115.514709</ele>
<time>2010-08-29T07:42:07Z</time>
<desc>lat.=55.905384, lon.=26.536562, Alt.=115.514709m. Speed=0.036000m/h.</desc>
<speed>0.010000</speed>
</trkpt>
<trkpt lat="55.905384" lon="26.536562">
<ele>115.504944</ele>
<time>2010-08-29T07:42:08Z</time>
<desc>lat.=55.905384, lon.=26.536562, Alt.=115.504944m. Speed=0.000000m/h.</desc>
<speed>0.000000</speed>
</trkpt>
<trkpt lat="55.905384" lon="26.536562">
<ele>115.497131</ele>
<time>2010-08-29T07:42:09Z</time>
<desc>lat.=55.905384, lon.=26.536562, Alt.=115.497131m. Speed=0.000000m/h.</desc>
<speed>0.000000</speed>
</trkpt>
<trkpt lat="55.905384" lon="26.536562">
<ele>115.491272</ele>
<time>2010-08-29T07:42:10Z</time>
<desc>lat.=55.905384, lon.=26.536562, Alt.=115.491272m. Speed=0.000000m/h.</desc>
<speed>0.000000</speed>
</trkpt>
<trkpt lat="55.905384" lon="26.536562">
<ele>115.483459</ele>
<time>2010-08-29T07:42:11Z</time>
<desc>lat.=55.905384, lon.=26.536562, Alt.=115.483459m. Speed=0.000000m/h.</desc>
<speed>0.000000</speed>
</trkpt>
<trkpt lat="55.905384" lon="26.536562">
<ele>115.475647</ele>
<time>2010-08-29T07:42:12Z</time>
<desc>lat.=55.905384, lon.=26.536562, Alt.=115.475647m. Speed=0.036000m/h.</desc>
<speed>0.010000</speed>
</trkpt>
<trkpt lat="55.905384" lon="26.536562">
<ele>115.467834</ele>
<time>2010-08-29T07:42:13Z</time>
<desc>lat.=55.905384, lon.=26.536562, Alt.=115.467834m. Speed=0.000000m/h.</desc>
<speed>0.000000</speed>
</trkpt>
<trkpt lat="55.905384" lon="26.536562">
<ele>115.460022</ele>
<time>2010-08-29T07:42:14Z</time>
<desc>lat.=55.905384, lon.=26.536562, Alt.=115.460022m. Speed=0.036000m/h.</desc>
<speed>0.010000</speed>
</trkpt>
<trkpt lat="55.905384" lon="26.536562">
<ele>115.450256</ele>
<time>2010-08-29T07:42:15Z</time>
<desc>lat.=55.905384, lon.=26.536562, Alt.=115.450256m. Speed=0.000000m/h.</desc>
<speed>0.000000</speed>
</trkpt>
<trkpt lat="55.905384" lon="26.536562">
<ele>115.444397</ele>
<time>2010-08-29T07:42:16Z</time>
<desc>lat.=55.905384, lon.=26.536562, Alt.=115.444397m. Speed=0.000000m/h.</desc>
<speed>0.000000</speed>
</trkpt>
<trkpt lat="55.905384" lon="26.536562">
<ele>115.436584</ele>
<time>2010-08-29T07:42:17Z</time>
<desc>lat.=55.905384, lon.=26.536562, Alt.=115.436584m. Speed=0.000000m/h.</desc>
<speed>0.000000</speed>
</trkpt>
<trkpt lat="55.905384" lon="26.536562">
<ele>115.428772</ele>
<time>2010-08-29T07:42:18Z</time>
<desc>lat.=55.905384, lon.=26.536562, Alt.=115.428772m. Speed=0.000000m/h.</desc>
<speed>0.000000</speed>
</trkpt>
<trkpt lat="55.905384" lon="26.536562">
<ele>115.419006</ele>
<time>2010-08-29T07:42:19Z</time>
<desc>lat.=55.905384, lon.=26.536562, Alt.=115.419006m. Speed=0.000000m/h.</desc>
<speed>0.000000</speed>
</trkpt>
<trkpt lat="55.905384" lon="26.536562">
<ele>115.411194</ele>
<time>2010-08-29T07:42:20Z</time>
<desc>lat.=55.905384, lon.=26.536562, Alt.=115.411194m. Speed=0.000000m/h.</desc>
<speed>0.000000</speed>
</trkpt>
<trkpt lat="55.905384" lon="26.536562">
<ele>115.407288</ele>
<time>2010-08-29T07:42:21Z</time>
<desc>lat.=55.905384, lon.=26.536562, Alt.=115.407288m. Speed=0.000000m/h.</desc>
<speed>0.000000</speed>
</trkpt>
<trkpt lat="55.905384" lon="26.536562">
<ele>115.399475</ele>
<time>2010-08-29T07:42:22Z</time>
<desc>lat.=55.905384, lon.=26.536562, Alt.=115.399475m. Speed=0.000000m/h.</desc>
<speed>0.000000</speed>
</trkpt>
<trkpt lat="55.905384" lon="26.536562">
<ele>115.391663</ele>
<time>2010-08-29T07:42:23Z</time>
<desc>lat.=55.905384, lon.=26.536562, Alt.=115.391663m. Speed=0.000000m/h.</desc>
<speed>0.000000</speed>
</trkpt>
<trkpt lat="55.905384" lon="26.536562">
<ele>115.383850</ele>
<time>2010-08-29T07:42:24Z</time>
<desc>lat.=55.905384, lon.=26.536562, Alt.=115.383850m. Speed=0.072000m/h.</desc>
<speed>0.020000</speed>
</trkpt>
<trkpt lat="55.905384" lon="26.536562">
<ele>115.376038</ele>
<time>2010-08-29T07:42:25Z</time>
<desc>lat.=55.905384, lon.=26.536562, Alt.=115.376038m. Speed=0.000000m/h.</desc>
<speed>0.000000</speed>
</trkpt>
<trkpt lat="55.905384" lon="26.536562">
<ele>115.368225</ele>
<time>2010-08-29T07:42:26Z</time>
<desc>lat.=55.905384, lon.=26.536562, Alt.=115.368225m. Speed=0.000000m/h.</desc>
<speed>0.000000</speed>
</trkpt>
<trkpt lat="55.905384" lon="26.536562">
<ele>115.360413</ele>
<time>2010-08-29T07:42:27Z</time>
<desc>lat.=55.905384, lon.=26.536562, Alt.=115.360413m. Speed=0.072000m/h.</desc>
<speed>0.020000</speed>
</trkpt>
<trkpt lat="55.905384" lon="26.536562">
<ele>115.354553</ele>
<time>2010-08-29T07:42:28Z</time>
<desc>lat.=55.905384, lon.=26.536562, Alt.=115.354553m. Speed=0.000000m/h.</desc>
<speed>0.000000</speed>
</trkpt>
<trkpt lat="55.905384" lon="26.536562">
<ele>115.346741</ele>
<time>2010-08-29T07:42:29Z</time>
<desc>lat.=55.905384, lon.=26.536562, Alt.=115.346741m. Speed=0.036000m/h.</desc>
<speed>0.010000</speed>
</trkpt>
<trkpt lat="55.905384" lon="26.536562">
<ele>115.340881</ele>
<time>2010-08-29T07:42:30Z</time>
<desc>lat.=55.905384, lon.=26.536562, Alt.=115.340881m. Speed=0.000000m/h.</desc>
<speed>0.000000</speed>
</trkpt>
<trkpt lat="55.905384" lon="26.536562">
<ele>115.335022</ele>
<time>2010-08-29T07:42:31Z</time>
<desc>lat.=55.905384, lon.=26.536562, Alt.=115.335022m. Speed=0.000000m/h.</desc>
<speed>0.000000</speed>
</trkpt>
<trkpt lat="55.905384" lon="26.536562">
<ele>115.327209</ele>
<time>2010-08-29T07:42:32Z</time>
<desc>lat.=55.905384, lon.=26.536562, Alt.=115.327209m. Speed=0.000000m/h.</desc>
<speed>0.000000</speed>
</trkpt>
<trkpt lat="55.905384" lon="26.536562">
<ele>115.317444</ele>
<time>2010-08-29T07:42:33Z</time>
<desc>lat.=55.905384, lon.=26.536562, Alt.=115.317444m. Speed=0.000000m/h.</desc>
<speed>0.000000</speed>
</trkpt>
<trkpt lat="55.905384" lon="26.536562">
<ele>115.309631</ele>
<time>2010-08-29T07:42:34Z</time>
<desc>lat.=55.905384, lon.=26.536562, Alt.=115.309631m. Speed=0.072000m/h.</desc>
<speed>0.020000</speed>
</trkpt>
<trkpt lat="55.905384" lon="26.536562">
<ele>115.301819</ele>
<time>2010-08-29T07:42:35Z</time>
<desc>lat.=55.905384, lon.=26.536562, Alt.=115.301819m. Speed=0.000000m/h.</desc>
<speed>0.000000</speed>
</trkpt>
<trkpt lat="55.905384" lon="26.536562">
<ele>115.292053</ele>
<time>2010-08-29T07:42:36Z</time>
<desc>lat.=55.905384, lon.=26.536562, Alt.=115.292053m. Speed=0.000000m/h.</desc>
<speed>0.000000</speed>
</trkpt>
<trkpt lat="55.905384" lon="26.536562">
<ele>115.284241</ele>
<time>2010-08-29T07:42:37Z</time>
<desc>lat.=55.905384, lon.=26.536562, Alt.=115.284241m. Speed=0.000000m/h.</desc>
<speed>0.000000</speed>
</trkpt>
<trkpt lat="55.905384" lon="26.536562">
<ele>115.276428</ele>
<time>2010-08-29T07:42:38Z</time>
<desc>lat.=55.905384, lon.=26.536562, Alt.=115.276428m. Speed=0.036000m/h.</desc>
<speed>0.010000</speed>
</trkpt>
<trkpt lat="55.905384" lon="26.536562">
<ele>115.266663</ele>
<time>2010-08-29T07:42:39Z</time>
<desc>lat.=55.905384, lon.=26.536562, Alt.=115.266663m. Speed=0.000000m/h.</desc>
<speed>0.000000</speed>
</trkpt>
<trkpt lat="55.905384" lon="26.536562">
<ele>115.258850</ele>
<time>2010-08-29T07:42:40Z</time>
<desc>lat.=55.905384, lon.=26.536562, Alt.=115.258850m. Speed=0.000000m/h.</desc>
<speed>0.000000</speed>
</trkpt>
<trkpt lat="55.905384" lon="26.536562">
<ele>115.249084</ele>
<time>2010-08-29T07:42:41Z</time>
<desc>lat.=55.905384, lon.=26.536562, Alt.=115.249084m. Speed=0.000000m/h.</desc>
<speed>0.000000</speed>
</trkpt>
<trkpt lat="55.905384" lon="26.536562">
<ele>115.241272</ele>
<time>2010-08-29T07:42:42Z</time>
<desc>lat.=55.905384, lon.=26.536562, Alt.=115.241272m. Speed=0.072000m/h.</desc>
<speed>0.020000</speed>
</trkpt>
<trkpt lat="55.905384" lon="26.536562">
<ele>115.237366</ele>
<time>2010-08-29T07:42:43Z</time>
<desc>lat.=55.905384, lon.=26.536562, Alt.=115.237366m. Speed=0.036000m/h.</desc>
<speed>0.010000</speed>
</trkpt>
<trkpt lat="55.905384" lon="26.536562">
<ele>115.231506</ele>
<time>2010-08-29T07:42:44Z</time>
<desc>lat.=55.905384, lon.=26.536562, Alt.=115.231506m. Speed=0.000000m/h.</desc>
<speed>0.000000</speed>
</trkpt>
<trkpt lat="55.905384" lon="26.536562">
<ele>115.225647</ele>
<time>2010-08-29T07:42:45Z</time>
<desc>lat.=55.905384, lon.=26.536562, Alt.=115.225647m. Speed=0.036000m/h.</desc>
<speed>0.010000</speed>
</trkpt>
<trkpt lat="55.905384" lon="26.536562">
<ele>115.221741</ele>
<time>2010-08-29T07:42:46Z</time>
<desc>lat.=55.905384, lon.=26.536562, Alt.=115.221741m. Speed=0.108000m/h.</desc>
<speed>0.030000</speed>
</trkpt>
<trkpt lat="55.905384" lon="26.536562">
<ele>115.217834</ele>
<time>2010-08-29T07:42:47Z</time>
<desc>lat.=55.905384, lon.=26.536562, Alt.=115.217834m. Speed=0.216000m/h.</desc>
<speed>0.060000</speed>
</trkpt>
<trkpt lat="55.905384" lon="26.536564">
<ele>115.213928</ele>
<time>2010-08-29T07:42:48Z</time>
<desc>lat.=55.905384, lon.=26.536564, Alt.=115.213928m. Speed=0.144000m/h.</desc>
<speed>0.040000</speed>
</trkpt>
<trkpt lat="55.905384" lon="26.536564">
<ele>115.217834</ele>
<time>2010-08-29T07:42:49Z</time>
<desc>lat.=55.905384, lon.=26.536564, Alt.=115.217834m. Speed=0.252000m/h.</desc>
<speed>0.070000</speed>
</trkpt>
<trkpt lat="55.905384" lon="26.536562">
<ele>115.217834</ele>
<time>2010-08-29T07:42:50Z</time>
<desc>lat.=55.905384, lon.=26.536562, Alt.=115.217834m. Speed=0.504000m/h.</desc>
<speed>0.140000</speed>
</trkpt>
<trkpt lat="55.905384" lon="26.536562">
<ele>115.217834</ele>
<time>2010-08-29T07:42:51Z</time>
<desc>lat.=55.905384, lon.=26.536562, Alt.=115.217834m. Speed=3.060000m/h.</desc>
<speed>0.850000</speed>
</trkpt>
<trkpt lat="55.905388" lon="26.536554">
<ele>114.920959</ele>
<time>2010-08-29T07:42:52Z</time>
<desc>lat.=55.905388, lon.=26.536554, Alt.=114.920959m. Speed=2.520000m/h.</desc>
<speed>0.700000</speed>
</trkpt>
<trkpt lat="55.905396" lon="26.536551">
<ele>114.614319</ele>
<time>2010-08-29T07:42:53Z</time>
<desc>lat.=55.905396, lon.=26.536551, Alt.=114.614319m. Speed=0.468000m/h.</desc>
<speed>0.130000</speed>
</trkpt>
<trkpt lat="55.905396" lon="26.536554">
<ele>114.377991</ele>
<time>2010-08-29T07:42:54Z</time>
<desc>lat.=55.905396, lon.=26.536554, Alt.=114.377991m. Speed=0.216000m/h.</desc>
<speed>0.060000</speed>
</trkpt>
<trkpt lat="55.905396" lon="26.536556">
<ele>114.278381</ele>
<time>2010-08-29T07:42:55Z</time>
<desc>lat.=55.905396, lon.=26.536556, Alt.=114.278381m. Speed=0.684000m/h.</desc>
<speed>0.190000</speed>
</trkpt>
<trkpt lat="55.905396" lon="26.536556">
<ele>114.196350</ele>
<time>2010-08-29T07:42:56Z</time>
<desc>lat.=55.905396, lon.=26.536556, Alt.=114.196350m. Speed=0.360000m/h.</desc>
<speed>0.100000</speed>
</trkpt>
<trkpt lat="55.905396" lon="26.536556">
<ele>114.188538</ele>
<time>2010-08-29T07:42:57Z</time>
<desc>lat.=55.905396, lon.=26.536556, Alt.=114.188538m. Speed=0.108000m/h.</desc>
<speed>0.030000</speed>
</trkpt>
<trkpt lat="55.905396" lon="26.536558">
<ele>114.161194</ele>
<time>2010-08-29T07:42:58Z</time>
<desc>lat.=55.905396, lon.=26.536558, Alt.=114.161194m. Speed=0.252000m/h.</desc>
<speed>0.070000</speed>
</trkpt>
<trkpt lat="55.905396" lon="26.536556">
<ele>114.178772</ele>
<time>2010-08-29T07:42:59Z</time>
<desc>lat.=55.905396, lon.=26.536556, Alt.=114.178772m. Speed=0.144000m/h.</desc>
<speed>0.040000</speed>
</trkpt>
<trkpt lat="55.905396" lon="26.536556">
<ele>114.163147</ele>
<time>2010-08-29T07:43:00Z</time>
<desc>lat.=55.905396, lon.=26.536556, Alt.=114.163147m. Speed=0.144000m/h.</desc>
<speed>0.040000</speed>
</trkpt>
<trkpt lat="55.905396" lon="26.536556">
<ele>114.163147</ele>
<time>2010-08-29T07:43:01Z</time>
<desc>lat.=55.905396, lon.=26.536556, Alt.=114.163147m. Speed=0.036000m/h.</desc>
<speed>0.010000</speed>
</trkpt>
<trkpt lat="55.905396" lon="26.536556">
<ele>114.163147</ele>
<time>2010-08-29T07:43:02Z</time>
<desc>lat.=55.905396, lon.=26.536556, Alt.=114.163147m. Speed=0.072000m/h.</desc>
<speed>0.020000</speed>
</trkpt>
<trkpt lat="55.905396" lon="26.536556">
<ele>114.161194</ele>
<time>2010-08-29T07:43:03Z</time>
<desc>lat.=55.905396, lon.=26.536556, Alt.=114.161194m. Speed=0.108000m/h.</desc>
<speed>0.030000</speed>
</trkpt>
<trkpt lat="55.905396" lon="26.536556">
<ele>114.153381</ele>
<time>2010-08-29T07:43:04Z</time>
<desc>lat.=55.905396, lon.=26.536556, Alt.=114.153381m. Speed=0.072000m/h.</desc>
<speed>0.020000</speed>
</trkpt>
<trkpt lat="55.905396" lon="26.536556">
<ele>114.167053</ele>
<time>2010-08-29T07:43:05Z</time>
<desc>lat.=55.905396, lon.=26.536556, Alt.=114.167053m. Speed=0.072000m/h.</desc>
<speed>0.020000</speed>
</trkpt>
<trkpt lat="55.905396" lon="26.536556">
<ele>114.182678</ele>
<time>2010-08-29T07:43:06Z</time>
<desc>lat.=55.905396, lon.=26.536556, Alt.=114.182678m. Speed=0.000000m/h.</desc>
<speed>0.000000</speed>
</trkpt>
<trkpt lat="55.905396" lon="26.536556">
<ele>114.170959</ele>
<time>2010-08-29T07:43:07Z</time>
<desc>lat.=55.905396, lon.=26.536556, Alt.=114.170959m. Speed=0.108000m/h.</desc>
<speed>0.030000</speed>
</trkpt>
<trkpt lat="55.905396" lon="26.536556">
<ele>114.167053</ele>
<time>2010-08-29T07:43:08Z</time>
<desc>lat.=55.905396, lon.=26.536556, Alt.=114.167053m. Speed=0.000000m/h.</desc>
<speed>0.000000</speed>
</trkpt>
<trkpt lat="55.905396" lon="26.536556">
<ele>114.163147</ele>
<time>2010-08-29T07:43:09Z</time>
<desc>lat.=55.905396, lon.=26.536556, Alt.=114.163147m. Speed=0.036000m/h.</desc>
<speed>0.010000</speed>
</trkpt>
<trkpt lat="55.905396" lon="26.536556">
<ele>114.161194</ele>
<time>2010-08-29T07:43:10Z</time>
<desc>lat.=55.905396, lon.=26.536556, Alt.=114.161194m. Speed=0.072000m/h.</desc>
<speed>0.020000</speed>
</trkpt>
<trkpt lat="55.905396" lon="26.536556">
<ele>114.159241</ele>
<time>2010-08-29T07:43:11Z</time>
<desc>lat.=55.905396, lon.=26.536556, Alt.=114.159241m. Speed=0.036000m/h.</desc>
<speed>0.010000</speed>
</trkpt>
<trkpt lat="55.905396" lon="26.536556">
<ele>114.159241</ele>
<time>2010-08-29T07:43:12Z</time>
<desc>lat.=55.905396, lon.=26.536556, Alt.=114.159241m. Speed=0.036000m/h.</desc>
<speed>0.010000</speed>
</trkpt>
<trkpt lat="55.905396" lon="26.536556">
<ele>114.161194</ele>
<time>2010-08-29T07:43:13Z</time>
<desc>lat.=55.905396, lon.=26.536556, Alt.=114.161194m. Speed=0.000000m/h.</desc>
<speed>0.000000</speed>
</trkpt>
<trkpt lat="55.905396" lon="26.536556">
<ele>114.163147</ele>
<time>2010-08-29T07:43:14Z</time>
<desc>lat.=55.905396, lon.=26.536556, Alt.=114.163147m. Speed=0.036000m/h.</desc>
<speed>0.010000</speed>
</trkpt>
<trkpt lat="55.905396" lon="26.536556">
<ele>114.163147</ele>
<time>2010-08-29T07:43:15Z</time>
<desc>lat.=55.905396, lon.=26.536556, Alt.=114.163147m. Speed=0.036000m/h.</desc>
<speed>0.010000</speed>
</trkpt>
<trkpt lat="55.905396" lon="26.536556">
<ele>114.163147</ele>
<time>2010-08-29T07:43:16Z</time>
<desc>lat.=55.905396, lon.=26.536556, Alt.=114.163147m. Speed=0.000000m/h.</desc>
<speed>0.000000</speed>
</trkpt>
<trkpt lat="55.905396" lon="26.536558">
<ele>114.163147</ele>
<time>2010-08-29T07:43:17Z</time>
<desc>lat.=55.905396, lon.=26.536558, Alt.=114.163147m. Speed=0.000000m/h.</desc>
<speed>0.000000</speed>
</trkpt>
<trkpt lat="55.905396" lon="26.536558">
<ele>114.163147</ele>
<time>2010-08-29T07:43:18Z</time>
<desc>lat.=55.905396, lon.=26.536558, Alt.=114.163147m. Speed=0.000000m/h.</desc>
<speed>0.000000</speed>
</trkpt>
<trkpt lat="55.905396" lon="26.536558">
<ele>114.163147</ele>
<time>2010-08-29T07:43:19Z</time>
<desc>lat.=55.905396, lon.=26.536558, Alt.=114.163147m. Speed=0.036000m/h.</desc>
<speed>0.010000</speed>
</trkpt>
<trkpt lat="55.905396" lon="26.536558">
<ele>114.163147</ele>
<time>2010-08-29T07:43:20Z</time>
<desc>lat.=55.905396, lon.=26.536558, Alt.=114.163147m. Speed=0.036000m/h.</desc>
<speed>0.010000</speed>
</trkpt>
<trkpt lat="55.905396" lon="26.536558">
<ele>114.163147</ele>
<time>2010-08-29T07:43:21Z</time>
<desc>lat.=55.905396, lon.=26.536558, Alt.=114.163147m. Speed=0.000000m/h.</desc>
<speed>0.000000</speed>
</trkpt>
<trkpt lat="55.905396" lon="26.536558">
<ele>114.161194</ele>
<time>2010-08-29T07:43:22Z</time>
<desc>lat.=55.905396, lon.=26.536558, Alt.=114.161194m. Speed=0.036000m/h.</desc>
<speed>0.010000</speed>
</trkpt>
<trkpt lat="55.905396" lon="26.536558">
<ele>114.161194</ele>
<time>2010-08-29T07:43:23Z</time>
<desc>lat.=55.905396, lon.=26.536558, Alt.=114.161194m. Speed=0.000000m/h.</desc>
<speed>0.000000</speed>
</trkpt>
<trkpt lat="55.905396" lon="26.536558">
<ele>114.161194</ele>
<time>2010-08-29T07:43:24Z</time>
<desc>lat.=55.905396, lon.=26.536558, Alt.=114.161194m. Speed=0.000000m/h.</desc>
<speed>0.000000</speed>
</trkpt>
<trkpt lat="55.905396" lon="26.536558">
<ele>114.161194</ele>
<time>2010-08-29T07:43:25Z</time>
<desc>lat.=55.905396, lon.=26.536558, Alt.=114.161194m. Speed=0.000000m/h.</desc>
<speed>0.000000</speed>
</trkpt>
<trkpt lat="55.905396" lon="26.536558">
<ele>114.161194</ele>
<time>2010-08-29T07:43:26Z</time>
<desc>lat.=55.905396, lon.=26.536558, Alt.=114.161194m. Speed=0.000000m/h.</desc>
<speed>0.000000</speed>
</trkpt>
<trkpt lat="55.905396" lon="26.536558">
<ele>114.161194</ele>
<time>2010-08-29T07:43:27Z</time>
<desc>lat.=55.905396, lon.=26.536558, Alt.=114.161194m. Speed=0.000000m/h.</desc>
<speed>0.000000</speed>
</trkpt>
<trkpt lat="55.905396" lon="26.536558">
<ele>114.159241</ele>
<time>2010-08-29T07:43:28Z</time>
<desc>lat.=55.905396, lon.=26.536558, Alt.=114.159241m. Speed=0.000000m/h.</desc>
<speed>0.000000</speed>
</trkpt>
<trkpt lat="55.905396" lon="26.536558">
<ele>114.161194</ele>
<time>2010-08-29T07:43:29Z</time>
<desc>lat.=55.905396, lon.=26.536558, Alt.=114.161194m. Speed=0.108000m/h.</desc>
<speed>0.030000</speed>
</trkpt>
<trkpt lat="55.905396" lon="26.536558">
<ele>114.159241</ele>
<time>2010-08-29T07:43:30Z</time>
<desc>lat.=55.905396, lon.=26.536558, Alt.=114.159241m. Speed=0.072000m/h.</desc>
<speed>0.020000</speed>
</trkpt>
<trkpt lat="55.905396" lon="26.536558">
<ele>114.157288</ele>
<time>2010-08-29T07:43:31Z</time>
<desc>lat.=55.905396, lon.=26.536558, Alt.=114.157288m. Speed=0.000000m/h.</desc>
<speed>0.000000</speed>
</trkpt>
<trkpt lat="55.905396" lon="26.536558">
<ele>114.157288</ele>
<time>2010-08-29T07:43:32Z</time>
<desc>lat.=55.905396, lon.=26.536558, Alt.=114.157288m. Speed=0.036000m/h.</desc>
<speed>0.010000</speed>
</trkpt>
<trkpt lat="55.905396" lon="26.536558">
<ele>114.155334</ele>
<time>2010-08-29T07:43:33Z</time>
<desc>lat.=55.905396, lon.=26.536558, Alt.=114.155334m. Speed=0.000000m/h.</desc>
<speed>0.000000</speed>
</trkpt>
<trkpt lat="55.905396" lon="26.536558">
<ele>114.153381</ele>
<time>2010-08-29T07:43:34Z</time>
<desc>lat.=55.905396, lon.=26.536558, Alt.=114.153381m. Speed=0.000000m/h.</desc>
<speed>0.000000</speed>
</trkpt>
<trkpt lat="55.905396" lon="26.536558">
<ele>114.151428</ele>
<time>2010-08-29T07:43:35Z</time>
<desc>lat.=55.905396, lon.=26.536558, Alt.=114.151428m. Speed=0.000000m/h.</desc>
<speed>0.000000</speed>
</trkpt>
<trkpt lat="55.905396" lon="26.536558">
<ele>114.149475</ele>
<time>2010-08-29T07:43:36Z</time>
<desc>lat.=55.905396, lon.=26.536558, Alt.=114.149475m. Speed=0.000000m/h.</desc>
<speed>0.000000</speed>
</trkpt>
<trkpt lat="55.905396" lon="26.536558">
<ele>114.147522</ele>
<time>2010-08-29T07:43:37Z</time>
<desc>lat.=55.905396, lon.=26.536558, Alt.=114.147522m. Speed=0.000000m/h.</desc>
<speed>0.000000</speed>
</trkpt>
<trkpt lat="55.905396" lon="26.536558">
<ele>114.149475</ele>
<time>2010-08-29T07:43:38Z</time>
<desc>lat.=55.905396, lon.=26.536558, Alt.=114.149475m. Speed=0.000000m/h.</desc>
<speed>0.000000</speed>
</trkpt>
<trkpt lat="55.905396" lon="26.536558">
<ele>114.149475</ele>
<time>2010-08-29T07:43:39Z</time>
<desc>lat.=55.905396, lon.=26.536558, Alt.=114.149475m. Speed=0.000000m/h.</desc>
<speed>0.000000</speed>
</trkpt>
<trkpt lat="55.905396" lon="26.536558">
<ele>114.149475</ele>
<time>2010-08-29T07:43:40Z</time>
<desc>lat.=55.905396, lon.=26.536558, Alt.=114.149475m. Speed=0.072000m/h.</desc>
<speed>0.020000</speed>
</trkpt>
<trkpt lat="55.905396" lon="26.536558">
<ele>114.151428</ele>
<time>2010-08-29T07:43:41Z</time>
<desc>lat.=55.905396, lon.=26.536558, Alt.=114.151428m. Speed=0.036000m/h.</desc>
<speed>0.010000</speed>
</trkpt>
<trkpt lat="55.905396" lon="26.536558">
<ele>114.151428</ele>
<time>2010-08-29T07:43:42Z</time>
<desc>lat.=55.905396, lon.=26.536558, Alt.=114.151428m. Speed=0.036000m/h.</desc>
<speed>0.010000</speed>
</trkpt>
<trkpt lat="55.905396" lon="26.536558">
<ele>114.151428</ele>
<time>2010-08-29T07:43:43Z</time>
<desc>lat.=55.905396, lon.=26.536558, Alt.=114.151428m. Speed=0.000000m/h.</desc>
<speed>0.000000</speed>
</trkpt>
<trkpt lat="55.905396" lon="26.536558">
<ele>114.151428</ele>
<time>2010-08-29T07:43:44Z</time>
<desc>lat.=55.905396, lon.=26.536558, Alt.=114.151428m. Speed=0.000000m/h.</desc>
<speed>0.000000</speed>
</trkpt>
<trkpt lat="55.905392" lon="26.536558">
<ele>114.153381</ele>
<time>2010-08-29T07:43:45Z</time>
<desc>lat.=55.905392, lon.=26.536558, Alt.=114.153381m. Speed=0.000000m/h.</desc>
<speed>0.000000</speed>
</trkpt>
<trkpt lat="55.905392" lon="26.536558">
<ele>114.151428</ele>
<time>2010-08-29T07:43:46Z</time>
<desc>lat.=55.905392, lon.=26.536558, Alt.=114.151428m. Speed=0.000000m/h.</desc>
<speed>0.000000</speed>
</trkpt>
<trkpt lat="55.905392" lon="26.536558">
<ele>114.149475</ele>
<time>2010-08-29T07:43:47Z</time>
<desc>lat.=55.905392, lon.=26.536558, Alt.=114.149475m. Speed=0.000000m/h.</desc>
<speed>0.000000</speed>
</trkpt>
<trkpt lat="55.905392" lon="26.536558">
<ele>114.149475</ele>
<time>2010-08-29T07:43:48Z</time>
<desc>lat.=55.905392, lon.=26.536558, Alt.=114.149475m. Speed=0.000000m/h.</desc>
<speed>0.000000</speed>
</trkpt>
<trkpt lat="55.905392" lon="26.536558">
<ele>114.149475</ele>
<time>2010-08-29T07:43:49Z</time>
<desc>lat.=55.905392, lon.=26.536558, Alt.=114.149475m. Speed=0.036000m/h.</desc>
<speed>0.010000</speed>
</trkpt>
<trkpt lat="55.905392" lon="26.536558">
<ele>114.147522</ele>
<time>2010-08-29T07:43:50Z</time>
<desc>lat.=55.905392, lon.=26.536558, Alt.=114.147522m. Speed=0.036000m/h.</desc>
<speed>0.010000</speed>
</trkpt>
<trkpt lat="55.905392" lon="26.536558">
<ele>114.143616</ele>
<time>2010-08-29T07:43:51Z</time>
<desc>lat.=55.905392, lon.=26.536558, Alt.=114.143616m. Speed=0.000000m/h.</desc>
<speed>0.000000</speed>
</trkpt>
<trkpt lat="55.905392" lon="26.536558">
<ele>114.139709</ele>
<time>2010-08-29T07:43:52Z</time>
<desc>lat.=55.905392, lon.=26.536558, Alt.=114.139709m. Speed=0.000000m/h.</desc>
<speed>0.000000</speed>
</trkpt>
<trkpt lat="55.905392" lon="26.536558">
<ele>114.135803</ele>
<time>2010-08-29T07:43:53Z</time>
<desc>lat.=55.905392, lon.=26.536558, Alt.=114.135803m. Speed=0.000000m/h.</desc>
<speed>0.000000</speed>
</trkpt>
<trkpt lat="55.905392" lon="26.536558">
<ele>114.131897</ele>
<time>2010-08-29T07:43:54Z</time>
<desc>lat.=55.905392, lon.=26.536558, Alt.=114.131897m. Speed=0.000000m/h.</desc>
<speed>0.000000</speed>
</trkpt>
<trkpt lat="55.905392" lon="26.536558">
<ele>114.129944</ele>
<time>2010-08-29T07:43:55Z</time>
<desc>lat.=55.905392, lon.=26.536558, Alt.=114.129944m. Speed=0.000000m/h.</desc>
<speed>0.000000</speed>
</trkpt>
<trkpt lat="55.905392" lon="26.536558">
<ele>114.131897</ele>
<time>2010-08-29T07:43:56Z</time>
<desc>lat.=55.905392, lon.=26.536558, Alt.=114.131897m. Speed=0.072000m/h.</desc>
<speed>0.020000</speed>
</trkpt>
<trkpt lat="55.905392" lon="26.536558">
<ele>114.131897</ele>
<time>2010-08-29T07:43:57Z</time>
<desc>lat.=55.905392, lon.=26.536558, Alt.=114.131897m. Speed=0.036000m/h.</desc>
<speed>0.010000</speed>
</trkpt>
<trkpt lat="55.905392" lon="26.536558">
<ele>114.129944</ele>
<time>2010-08-29T07:43:58Z</time>
<desc>lat.=55.905392, lon.=26.536558, Alt.=114.129944m. Speed=0.036000m/h.</desc>
<speed>0.010000</speed>
</trkpt>
<trkpt lat="55.905392" lon="26.536558">
<ele>114.131897</ele>
<time>2010-08-29T07:43:59Z</time>
<desc>lat.=55.905392, lon.=26.536558, Alt.=114.131897m. Speed=0.000000m/h.</desc>
<speed>0.000000</speed>
</trkpt>
<trkpt lat="55.905392" lon="26.536558">
<ele>114.131897</ele>
<time>2010-08-29T07:44:00Z</time>
<desc>lat.=55.905392, lon.=26.536558, Alt.=114.131897m. Speed=0.000000m/h.</desc>
<speed>0.000000</speed>
</trkpt>
<trkpt lat="55.905392" lon="26.536558">
<ele>114.129944</ele>
<time>2010-08-29T07:44:01Z</time>
<desc>lat.=55.905392, lon.=26.536558, Alt.=114.129944m. Speed=0.000000m/h.</desc>
<speed>0.000000</speed>
</trkpt>
<trkpt lat="55.905392" lon="26.536558">
<ele>114.127991</ele>
<time>2010-08-29T07:44:02Z</time>
<desc>lat.=55.905392, lon.=26.536558, Alt.=114.127991m. Speed=0.000000m/h.</desc>
<speed>0.000000</speed>
</trkpt>
<trkpt lat="55.905392" lon="26.536558">
<ele>114.126038</ele>
<time>2010-08-29T07:44:03Z</time>
<desc>lat.=55.905392, lon.=26.536558, Alt.=114.126038m. Speed=0.000000m/h.</desc>
<speed>0.000000</speed>
</trkpt>
<trkpt lat="55.905392" lon="26.536558">
<ele>114.124084</ele>
<time>2010-08-29T07:44:04Z</time>
<desc>lat.=55.905392, lon.=26.536558, Alt.=114.124084m. Speed=0.000000m/h.</desc>
<speed>0.000000</speed>
</trkpt>
<trkpt lat="55.905392" lon="26.536558">
<ele>114.120178</ele>
<time>2010-08-29T07:44:05Z</time>
<desc>lat.=55.905392, lon.=26.536558, Alt.=114.120178m. Speed=0.036000m/h.</desc>
<speed>0.010000</speed>
</trkpt>
<trkpt lat="55.905392" lon="26.536558">
<ele>114.116272</ele>
<time>2010-08-29T07:44:06Z</time>
<desc>lat.=55.905392, lon.=26.536558, Alt.=114.116272m. Speed=0.000000m/h.</desc>
<speed>0.000000</speed>
</trkpt>
<trkpt lat="55.905392" lon="26.536558">
<ele>114.116272</ele>
<time>2010-08-29T07:44:07Z</time>
<desc>lat.=55.905392, lon.=26.536558, Alt.=114.116272m. Speed=0.000000m/h.</desc>
<speed>0.000000</speed>
</trkpt>
<trkpt lat="55.905392" lon="26.536558">
<ele>114.114319</ele>
<time>2010-08-29T07:44:08Z</time>
<desc>lat.=55.905392, lon.=26.536558, Alt.=114.114319m. Speed=0.000000m/h.</desc>
<speed>0.000000</speed>
</trkpt>
<trkpt lat="55.905392" lon="26.536558">
<ele>114.116272</ele>
<time>2010-08-29T07:44:09Z</time>
<desc>lat.=55.905392, lon.=26.536558, Alt.=114.116272m. Speed=0.000000m/h.</desc>
<speed>0.000000</speed>
</trkpt>
<trkpt lat="55.905392" lon="26.536558">
<ele>114.114319</ele>
<time>2010-08-29T07:44:10Z</time>
<desc>lat.=55.905392, lon.=26.536558, Alt.=114.114319m. Speed=0.000000m/h.</desc>
<speed>0.000000</speed>
</trkpt>
<trkpt lat="55.905392" lon="26.536558">
<ele>114.112366</ele>
<time>2010-08-29T07:44:11Z</time>
<desc>lat.=55.905392, lon.=26.536558, Alt.=114.112366m. Speed=0.000000m/h.</desc>
<speed>0.000000</speed>
</trkpt>
<trkpt lat="55.905392" lon="26.536558">
<ele>114.112366</ele>
<time>2010-08-29T07:44:12Z</time>
<desc>lat.=55.905392, lon.=26.536558, Alt.=114.112366m. Speed=0.000000m/h.</desc>
<speed>0.000000</speed>
</trkpt>
<trkpt lat="55.905392" lon="26.536558">
<ele>114.112366</ele>
<time>2010-08-29T07:44:13Z</time>
<desc>lat.=55.905392, lon.=26.536558, Alt.=114.112366m. Speed=0.000000m/h.</desc>
<speed>0.000000</speed>
</trkpt>
<trkpt lat="55.905392" lon="26.536558">
<ele>114.110413</ele>
<time>2010-08-29T07:44:14Z</time>
<desc>lat.=55.905392, lon.=26.536558, Alt.=114.110413m. Speed=0.000000m/h.</desc>
<speed>0.000000</speed>
</trkpt>
<trkpt lat="55.905392" lon="26.536558">
<ele>114.108459</ele>
<time>2010-08-29T07:44:15Z</time>
<desc>lat.=55.905392, lon.=26.536558, Alt.=114.108459m. Speed=0.000000m/h.</desc>
<speed>0.000000</speed>
</trkpt>
<trkpt lat="55.905392" lon="26.536558">
<ele>114.110413</ele>
<time>2010-08-29T07:44:16Z</time>
<desc>lat.=55.905392, lon.=26.536558, Alt.=114.110413m. Speed=0.000000m/h.</desc>
<speed>0.000000</speed>
</trkpt>
<trkpt lat="55.905392" lon="26.536558">
<ele>114.110413</ele>
<time>2010-08-29T07:44:17Z</time>
<desc>lat.=55.905392, lon.=26.536558, Alt.=114.110413m. Speed=0.000000m/h.</desc>
<speed>0.000000</speed>
</trkpt>
<trkpt lat="55.905392" lon="26.536558">
<ele>114.112366</ele>
<time>2010-08-29T07:44:18Z</time>
<desc>lat.=55.905392, lon.=26.536558, Alt.=114.112366m. Speed=0.000000m/h.</desc>
<speed>0.000000</speed>
</trkpt>
<trkpt lat="55.905392" lon="26.536558">
<ele>114.112366</ele>
<time>2010-08-29T07:44:19Z</time>
<desc>lat.=55.905392, lon.=26.536558, Alt.=114.112366m. Speed=0.000000m/h.</desc>
<speed>0.000000</speed>
</trkpt>
<trkpt lat="55.905392" lon="26.536558">
<ele>114.112366</ele>
<time>2010-08-29T07:44:20Z</time>
<desc>lat.=55.905392, lon.=26.536558, Alt.=114.112366m. Speed=0.000000m/h.</desc>
<speed>0.000000</speed>
</trkpt>
<trkpt lat="55.905392" lon="26.536560">
<ele>114.110413</ele>
<time>2010-08-29T07:44:21Z</time>
<desc>lat.=55.905392, lon.=26.536560, Alt.=114.110413m. Speed=0.036000m/h.</desc>
<speed>0.010000</speed>
</trkpt>
<trkpt lat="55.905392" lon="26.536560">
<ele>114.110413</ele>
<time>2010-08-29T07:44:22Z</time>
<desc>lat.=55.905392, lon.=26.536560, Alt.=114.110413m. Speed=0.000000m/h.</desc>
<speed>0.000000</speed>
</trkpt>
<trkpt lat="55.905392" lon="26.536560">
<ele>114.108459</ele>
<time>2010-08-29T07:44:23Z</time>
<desc>lat.=55.905392, lon.=26.536560, Alt.=114.108459m. Speed=0.000000m/h.</desc>
<speed>0.000000</speed>
</trkpt>
<trkpt lat="55.905392" lon="26.536560">
<ele>114.108459</ele>
<time>2010-08-29T07:44:24Z</time>
<desc>lat.=55.905392, lon.=26.536560, Alt.=114.108459m. Speed=0.036000m/h.</desc>
<speed>0.010000</speed>
</trkpt>
<trkpt lat="55.905392" lon="26.536560">
<ele>114.110413</ele>
<time>2010-08-29T07:44:25Z</time>
<desc>lat.=55.905392, lon.=26.536560, Alt.=114.110413m. Speed=0.000000m/h.</desc>
<speed>0.000000</speed>
</trkpt>
<trkpt lat="55.905392" lon="26.536560">
<ele>114.110413</ele>
<time>2010-08-29T07:44:26Z</time>
<desc>lat.=55.905392, lon.=26.536560, Alt.=114.110413m. Speed=0.000000m/h.</desc>
<speed>0.000000</speed>
</trkpt>
<trkpt lat="55.905392" lon="26.536560">
<ele>114.110413</ele>
<time>2010-08-29T07:44:27Z</time>
<desc>lat.=55.905392, lon.=26.536560, Alt.=114.110413m. Speed=0.000000m/h.</desc>
<speed>0.000000</speed>
</trkpt>
<trkpt lat="55.905392" lon="26.536560">
<ele>114.110413</ele>
<time>2010-08-29T07:44:28Z</time>
<desc>lat.=55.905392, lon.=26.536560, Alt.=114.110413m. Speed=0.036000m/h.</desc>
<speed>0.010000</speed>
</trkpt>
<trkpt lat="55.905392" lon="26.536560">
<ele>114.110413</ele>
<time>2010-08-29T07:44:29Z</time>
<desc>lat.=55.905392, lon.=26.536560, Alt.=114.110413m. Speed=0.000000m/h.</desc>
<speed>0.000000</speed>
</trkpt>
<trkpt lat="55.905392" lon="26.536560">
<ele>114.110413</ele>
<time>2010-08-29T07:44:30Z</time>
<desc>lat.=55.905392, lon.=26.536560, Alt.=114.110413m. Speed=0.000000m/h.</desc>
<speed>0.000000</speed>
</trkpt>
<trkpt lat="55.905392" lon="26.536560">
<ele>114.110413</ele>
<time>2010-08-29T07:44:31Z</time>
<desc>lat.=55.905392, lon.=26.536560, Alt.=114.110413m. Speed=0.000000m/h.</desc>
<speed>0.000000</speed>
</trkpt>
<trkpt lat="55.905392" lon="26.536560">
<ele>114.108459</ele>
<time>2010-08-29T07:44:32Z</time>
<desc>lat.=55.905392, lon.=26.536560, Alt.=114.108459m. Speed=0.036000m/h.</desc>
<speed>0.010000</speed>
</trkpt>
<trkpt lat="55.905392" lon="26.536560">
<ele>114.108459</ele>
<time>2010-08-29T07:44:33Z</time>
<desc>lat.=55.905392, lon.=26.536560, Alt.=114.108459m. Speed=0.000000m/h.</desc>
<speed>0.000000</speed>
</trkpt>
<trkpt lat="55.905392" lon="26.536560">
<ele>114.106506</ele>
<time>2010-08-29T07:44:34Z</time>
<desc>lat.=55.905392, lon.=26.536560, Alt.=114.106506m. Speed=0.000000m/h.</desc>
<speed>0.000000</speed>
</trkpt>
<trkpt lat="55.905392" lon="26.536560">
<ele>114.102600</ele>
<time>2010-08-29T07:44:35Z</time>
<desc>lat.=55.905392, lon.=26.536560, Alt.=114.102600m. Speed=0.000000m/h.</desc>
<speed>0.000000</speed>
</trkpt>
<trkpt lat="55.905392" lon="26.536560">
<ele>114.102600</ele>
<time>2010-08-29T07:44:36Z</time>
<desc>lat.=55.905392, lon.=26.536560, Alt.=114.102600m. Speed=0.000000m/h.</desc>
<speed>0.000000</speed>
</trkpt>
<trkpt lat="55.905392" lon="26.536560">
<ele>114.098694</ele>
<time>2010-08-29T07:44:37Z</time>
<desc>lat.=55.905392, lon.=26.536560, Alt.=114.098694m. Speed=0.000000m/h.</desc>
<speed>0.000000</speed>
</trkpt>
<trkpt lat="55.905392" lon="26.536560">
<ele>114.096741</ele>
<time>2010-08-29T07:44:38Z</time>
<desc>lat.=55.905392, lon.=26.536560, Alt.=114.096741m. Speed=0.000000m/h.</desc>
<speed>0.000000</speed>
</trkpt>
<trkpt lat="55.905392" lon="26.536560">
<ele>114.094788</ele>
<time>2010-08-29T07:44:39Z</time>
<desc>lat.=55.905392, lon.=26.536560, Alt.=114.094788m. Speed=0.000000m/h.</desc>
<speed>0.000000</speed>
</trkpt>
<trkpt lat="55.905392" lon="26.536560">
<ele>114.092834</ele>
<time>2010-08-29T07:44:40Z</time>
<desc>lat.=55.905392, lon.=26.536560, Alt.=114.092834m. Speed=0.000000m/h.</desc>
<speed>0.000000</speed>
</trkpt>
<trkpt lat="55.905392" lon="26.536560">
<ele>114.090881</ele>
<time>2010-08-29T07:44:41Z</time>
<desc>lat.=55.905392, lon.=26.536560, Alt.=114.090881m. Speed=0.000000m/h.</desc>
<speed>0.000000</speed>
</trkpt>
<trkpt lat="55.905392" lon="26.536560">
<ele>114.086975</ele>
<time>2010-08-29T07:44:42Z</time>
<desc>lat.=55.905392, lon.=26.536560, Alt.=114.086975m. Speed=0.000000m/h.</desc>
<speed>0.000000</speed>
</trkpt>
<trkpt lat="55.905392" lon="26.536560">
<ele>114.085022</ele>
<time>2010-08-29T07:44:43Z</time>
<desc>lat.=55.905392, lon.=26.536560, Alt.=114.085022m. Speed=0.036000m/h.</desc>
<speed>0.010000</speed>
</trkpt>
<trkpt lat="55.905392" lon="26.536560">
<ele>114.085022</ele>
<time>2010-08-29T07:44:44Z</time>
<desc>lat.=55.905392, lon.=26.536560, Alt.=114.085022m. Speed=0.000000m/h.</desc>
<speed>0.000000</speed>
</trkpt>
<trkpt lat="55.905392" lon="26.536560">
<ele>114.085022</ele>
<time>2010-08-29T07:44:45Z</time>
<desc>lat.=55.905392, lon.=26.536560, Alt.=114.085022m. Speed=0.000000m/h.</desc>
<speed>0.000000</speed>
</trkpt>
<trkpt lat="55.905392" lon="26.536560">
<ele>114.083069</ele>
<time>2010-08-29T07:44:46Z</time>
<desc>lat.=55.905392, lon.=26.536560, Alt.=114.083069m. Speed=0.000000m/h.</desc>
<speed>0.000000</speed>
</trkpt>
<trkpt lat="55.905392" lon="26.536558">
<ele>114.083069</ele>
<time>2010-08-29T07:44:47Z</time>
<desc>lat.=55.905392, lon.=26.536558, Alt.=114.083069m. Speed=0.036000m/h.</desc>
<speed>0.010000</speed>
</trkpt>
<trkpt lat="55.905392" lon="26.536560">
<ele>114.079163</ele>
<time>2010-08-29T07:44:48Z</time>
<desc>lat.=55.905392, lon.=26.536560, Alt.=114.079163m. Speed=0.000000m/h.</desc>
<speed>0.000000</speed>
</trkpt>
<trkpt lat="55.905392" lon="26.536560">
<ele>114.075256</ele>
<time>2010-08-29T07:44:49Z</time>
<desc>lat.=55.905392, lon.=26.536560, Alt.=114.075256m. Speed=0.000000m/h.</desc>
<speed>0.000000</speed>
</trkpt>
<trkpt lat="55.905392" lon="26.536560">
<ele>114.073303</ele>
<time>2010-08-29T07:44:50Z</time>
<desc>lat.=55.905392, lon.=26.536560, Alt.=114.073303m. Speed=0.000000m/h.</desc>
<speed>0.000000</speed>
</trkpt>
<trkpt lat="55.905392" lon="26.536560">
<ele>114.071350</ele>
<time>2010-08-29T07:44:51Z</time>
<desc>lat.=55.905392, lon.=26.536560, Alt.=114.071350m. Speed=0.000000m/h.</desc>
<speed>0.000000</speed>
</trkpt>
<trkpt lat="55.905392" lon="26.536558">
<ele>114.071350</ele>
<time>2010-08-29T07:44:52Z</time>
<desc>lat.=55.905392, lon.=26.536558, Alt.=114.071350m. Speed=0.000000m/h.</desc>
<speed>0.000000</speed>
</trkpt>
<trkpt lat="55.905392" lon="26.536558">
<ele>114.069397</ele>
<time>2010-08-29T07:44:53Z</time>
<desc>lat.=55.905392, lon.=26.536558, Alt.=114.069397m. Speed=0.000000m/h.</desc>
<speed>0.000000</speed>
</trkpt>
<trkpt lat="55.905392" lon="26.536558">
<ele>114.069397</ele>
<time>2010-08-29T07:44:54Z</time>
<desc>lat.=55.905392, lon.=26.536558, Alt.=114.069397m. Speed=0.000000m/h.</desc>
<speed>0.000000</speed>
</trkpt>
<trkpt lat="55.905392" lon="26.536558">
<ele>114.069397</ele>
<time>2010-08-29T07:44:55Z</time>
<desc>lat.=55.905392, lon.=26.536558, Alt.=114.069397m. Speed=0.000000m/h.</desc>
<speed>0.000000</speed>
</trkpt>
<trkpt lat="55.905392" lon="26.536558">
<ele>114.069397</ele>
<time>2010-08-29T07:44:56Z</time>
<desc>lat.=55.905392, lon.=26.536558, Alt.=114.069397m. Speed=0.036000m/h.</desc>
<speed>0.010000</speed>
</trkpt>
<trkpt lat="55.905392" lon="26.536558">
<ele>114.067444</ele>
<time>2010-08-29T07:44:57Z</time>
<desc>lat.=55.905392, lon.=26.536558, Alt.=114.067444m. Speed=0.000000m/h.</desc>
<speed>0.000000</speed>
</trkpt>
<trkpt lat="55.905392" lon="26.536558">
<ele>114.067444</ele>
<time>2010-08-29T07:44:58Z</time>
<desc>lat.=55.905392, lon.=26.536558, Alt.=114.067444m. Speed=0.000000m/h.</desc>
<speed>0.000000</speed>
</trkpt>
<trkpt lat="55.905392" lon="26.536558">
<ele>114.063538</ele>
<time>2010-08-29T07:44:59Z</time>
<desc>lat.=55.905392, lon.=26.536558, Alt.=114.063538m. Speed=0.000000m/h.</desc>
<speed>0.000000</speed>
</trkpt>
<trkpt lat="55.905392" lon="26.536558">
<ele>114.063538</ele>
<time>2010-08-29T07:45:00Z</time>
<desc>lat.=55.905392, lon.=26.536558, Alt.=114.063538m. Speed=0.036000m/h.</desc>
<speed>0.010000</speed>
</trkpt>
<trkpt lat="55.905392" lon="26.536558">
<ele>114.063538</ele>
<time>2010-08-29T07:45:01Z</time>
<desc>lat.=55.905392, lon.=26.536558, Alt.=114.063538m. Speed=0.000000m/h.</desc>
<speed>0.000000</speed>
</trkpt>
<trkpt lat="55.905392" lon="26.536558">
<ele>114.061584</ele>
<time>2010-08-29T07:45:02Z</time>
<desc>lat.=55.905392, lon.=26.536558, Alt.=114.061584m. Speed=0.000000m/h.</desc>
<speed>0.000000</speed>
</trkpt>
<trkpt lat="55.905392" lon="26.536558">
<ele>114.057678</ele>
<time>2010-08-29T07:45:03Z</time>
<desc>lat.=55.905392, lon.=26.536558, Alt.=114.057678m. Speed=0.000000m/h.</desc>
<speed>0.000000</speed>
</trkpt>
<trkpt lat="55.905392" lon="26.536558">
<ele>114.057678</ele>
<time>2010-08-29T07:45:04Z</time>
<desc>lat.=55.905392, lon.=26.536558, Alt.=114.057678m. Speed=0.072000m/h.</desc>
<speed>0.020000</speed>
</trkpt>
<trkpt lat="55.905392" lon="26.536558">
<ele>114.055725</ele>
<time>2010-08-29T07:45:05Z</time>
<desc>lat.=55.905392, lon.=26.536558, Alt.=114.055725m. Speed=0.000000m/h.</desc>
<speed>0.000000</speed>
</trkpt>
<trkpt lat="55.905392" lon="26.536558">
<ele>114.055725</ele>
<time>2010-08-29T07:45:06Z</time>
<desc>lat.=55.905392, lon.=26.536558, Alt.=114.055725m. Speed=0.000000m/h.</desc>
<speed>0.000000</speed>
</trkpt>
<trkpt lat="55.905392" lon="26.536558">
<ele>114.053772</ele>
<time>2010-08-29T07:45:07Z</time>
<desc>lat.=55.905392, lon.=26.536558, Alt.=114.053772m. Speed=0.036000m/h.</desc>
<speed>0.010000</speed>
</trkpt>
<trkpt lat="55.905392" lon="26.536558">
<ele>114.055725</ele>
<time>2010-08-29T07:45:08Z</time>
<desc>lat.=55.905392, lon.=26.536558, Alt.=114.055725m. Speed=0.108000m/h.</desc>
<speed>0.030000</speed>
</trkpt>
<trkpt lat="55.905392" lon="26.536558">
<ele>114.053772</ele>
<time>2010-08-29T07:45:09Z</time>
<desc>lat.=55.905392, lon.=26.536558, Alt.=114.053772m. Speed=0.000000m/h.</desc>
<speed>0.000000</speed>
</trkpt>
<trkpt lat="55.905392" lon="26.536558">
<ele>114.051819</ele>
<time>2010-08-29T07:45:10Z</time>
<desc>lat.=55.905392, lon.=26.536558, Alt.=114.051819m. Speed=0.216000m/h.</desc>
<speed>0.060000</speed>
</trkpt>
<trkpt lat="55.905392" lon="26.536558">
<ele>114.051819</ele>
<time>2010-08-29T07:45:11Z</time>
<desc>lat.=55.905392, lon.=26.536558, Alt.=114.051819m. Speed=0.000000m/h.</desc>
<speed>0.000000</speed>
</trkpt>
<trkpt lat="55.905392" lon="26.536558">
<ele>114.051819</ele>
<time>2010-08-29T07:45:12Z</time>
<desc>lat.=55.905392, lon.=26.536558, Alt.=114.051819m. Speed=0.036000m/h.</desc>
<speed>0.010000</speed>
</trkpt>
<trkpt lat="55.905392" lon="26.536558">
<ele>114.051819</ele>
<time>2010-08-29T07:45:13Z</time>
<desc>lat.=55.905392, lon.=26.536558, Alt.=114.051819m. Speed=0.036000m/h.</desc>
<speed>0.010000</speed>
</trkpt>
<trkpt lat="55.905392" lon="26.536558">
<ele>114.051819</ele>
<time>2010-08-29T07:45:14Z</time>
<desc>lat.=55.905392, lon.=26.536558, Alt.=114.051819m. Speed=0.036000m/h.</desc>
<speed>0.010000</speed>
</trkpt>
<trkpt lat="55.905392" lon="26.536558">
<ele>114.049866</ele>
<time>2010-08-29T07:45:15Z</time>
<desc>lat.=55.905392, lon.=26.536558, Alt.=114.049866m. Speed=0.072000m/h.</desc>
<speed>0.020000</speed>
</trkpt>
<trkpt lat="55.905392" lon="26.536558">
<ele>114.047913</ele>
<time>2010-08-29T07:45:16Z</time>
<desc>lat.=55.905392, lon.=26.536558, Alt.=114.047913m. Speed=0.072000m/h.</desc>
<speed>0.020000</speed>
</trkpt>
<trkpt lat="55.905392" lon="26.536558">
<ele>114.044006</ele>
<time>2010-08-29T07:45:17Z</time>
<desc>lat.=55.905392, lon.=26.536558, Alt.=114.044006m. Speed=0.072000m/h.</desc>
<speed>0.020000</speed>
</trkpt>
<trkpt lat="55.905392" lon="26.536558">
<ele>114.044006</ele>
<time>2010-08-29T07:45:18Z</time>
<desc>lat.=55.905392, lon.=26.536558, Alt.=114.044006m. Speed=0.072000m/h.</desc>
<speed>0.020000</speed>
</trkpt>
<trkpt lat="55.905392" lon="26.536558">
<ele>114.042053</ele>
<time>2010-08-29T07:45:19Z</time>
<desc>lat.=55.905392, lon.=26.536558, Alt.=114.042053m. Speed=0.108000m/h.</desc>
<speed>0.030000</speed>
</trkpt>
<trkpt lat="55.905392" lon="26.536558">
<ele>114.040100</ele>
<time>2010-08-29T07:45:20Z</time>
<desc>lat.=55.905392, lon.=26.536558, Alt.=114.040100m. Speed=0.072000m/h.</desc>
<speed>0.020000</speed>
</trkpt>
<trkpt lat="55.905392" lon="26.536558">
<ele>114.040100</ele>
<time>2010-08-29T07:45:21Z</time>
<desc>lat.=55.905392, lon.=26.536558, Alt.=114.040100m. Speed=0.036000m/h.</desc>
<speed>0.010000</speed>
</trkpt>
<trkpt lat="55.905392" lon="26.536558">
<ele>114.042053</ele>
<time>2010-08-29T07:45:22Z</time>
<desc>lat.=55.905392, lon.=26.536558, Alt.=114.042053m. Speed=0.072000m/h.</desc>
<speed>0.020000</speed>
</trkpt>
<trkpt lat="55.905392" lon="26.536558">
<ele>114.042053</ele>
<time>2010-08-29T07:45:23Z</time>
<desc>lat.=55.905392, lon.=26.536558, Alt.=114.042053m. Speed=0.000000m/h.</desc>
<speed>0.000000</speed>
</trkpt>
<trkpt lat="55.905392" lon="26.536558">
<ele>114.042053</ele>
<time>2010-08-29T07:45:24Z</time>
<desc>lat.=55.905392, lon.=26.536558, Alt.=114.042053m. Speed=0.072000m/h.</desc>
<speed>0.020000</speed>
</trkpt>
<trkpt lat="55.905392" lon="26.536558">
<ele>114.042053</ele>
<time>2010-08-29T07:45:25Z</time>
<desc>lat.=55.905392, lon.=26.536558, Alt.=114.042053m. Speed=0.036000m/h.</desc>
<speed>0.010000</speed>
</trkpt>
<trkpt lat="55.905392" lon="26.536558">
<ele>114.042053</ele>
<time>2010-08-29T07:45:26Z</time>
<desc>lat.=55.905392, lon.=26.536558, Alt.=114.042053m. Speed=0.072000m/h.</desc>
<speed>0.020000</speed>
</trkpt>
<trkpt lat="55.905392" lon="26.536558">
<ele>114.042053</ele>
<time>2010-08-29T07:45:27Z</time>
<desc>lat.=55.905392, lon.=26.536558, Alt.=114.042053m. Speed=0.108000m/h.</desc>
<speed>0.030000</speed>
</trkpt>
<trkpt lat="55.905392" lon="26.536558">
<ele>114.042053</ele>
<time>2010-08-29T07:45:28Z</time>
<desc>lat.=55.905392, lon.=26.536558, Alt.=114.042053m. Speed=0.036000m/h.</desc>
<speed>0.010000</speed>
</trkpt>
<trkpt lat="55.905392" lon="26.536558">
<ele>114.040100</ele>
<time>2010-08-29T07:45:29Z</time>
<desc>lat.=55.905392, lon.=26.536558, Alt.=114.040100m. Speed=0.108000m/h.</desc>
<speed>0.030000</speed>
</trkpt>
<trkpt lat="55.905392" lon="26.536558">
<ele>114.040100</ele>
<time>2010-08-29T07:45:30Z</time>
<desc>lat.=55.905392, lon.=26.536558, Alt.=114.040100m. Speed=0.072000m/h.</desc>
<speed>0.020000</speed>
</trkpt>
<trkpt lat="55.905392" lon="26.536558">
<ele>114.040100</ele>
<time>2010-08-29T07:45:31Z</time>
<desc>lat.=55.905392, lon.=26.536558, Alt.=114.040100m. Speed=0.108000m/h.</desc>
<speed>0.030000</speed>
</trkpt>
<trkpt lat="55.905392" lon="26.536558">
<ele>114.038147</ele>
<time>2010-08-29T07:45:32Z</time>
<desc>lat.=55.905392, lon.=26.536558, Alt.=114.038147m. Speed=0.036000m/h.</desc>
<speed>0.010000</speed>
</trkpt>
<trkpt lat="55.905392" lon="26.536558">
<ele>114.038147</ele>
<time>2010-08-29T07:45:33Z</time>
<desc>lat.=55.905392, lon.=26.536558, Alt.=114.038147m. Speed=0.000000m/h.</desc>
<speed>0.000000</speed>
</trkpt>
<trkpt lat="55.905392" lon="26.536558">
<ele>114.038147</ele>
<time>2010-08-29T07:45:34Z</time>
<desc>lat.=55.905392, lon.=26.536558, Alt.=114.038147m. Speed=0.072000m/h.</desc>
<speed>0.020000</speed>
</trkpt>
<trkpt lat="55.905392" lon="26.536558">
<ele>114.038147</ele>
<time>2010-08-29T07:45:35Z</time>
<desc>lat.=55.905392, lon.=26.536558, Alt.=114.038147m. Speed=0.036000m/h.</desc>
<speed>0.010000</speed>
</trkpt>
<trkpt lat="55.905392" lon="26.536558">
<ele>114.036194</ele>
<time>2010-08-29T07:45:36Z</time>
<desc>lat.=55.905392, lon.=26.536558, Alt.=114.036194m. Speed=0.072000m/h.</desc>
<speed>0.020000</speed>
</trkpt>
<trkpt lat="55.905392" lon="26.536558">
<ele>114.034241</ele>
<time>2010-08-29T07:45:37Z</time>
<desc>lat.=55.905392, lon.=26.536558, Alt.=114.034241m. Speed=0.612000m/h.</desc>
<speed>0.170000</speed>
</trkpt>
<trkpt lat="55.905392" lon="26.536558">
<ele>114.032288</ele>
<time>2010-08-29T07:45:38Z</time>
<desc>lat.=55.905392, lon.=26.536558, Alt.=114.032288m. Speed=0.288000m/h.</desc>
<speed>0.080000</speed>
</trkpt>
<trkpt lat="55.905392" lon="26.536556">
<ele>114.047913</ele>
<time>2010-08-29T07:45:39Z</time>
<desc>lat.=55.905392, lon.=26.536556, Alt.=114.047913m. Speed=1.548000m/h.</desc>
<speed>0.430000</speed>
</trkpt>
<trkpt lat="55.905396" lon="26.536558">
<ele>113.901428</ele>
<time>2010-08-29T07:45:40Z</time>
<desc>lat.=55.905396, lon.=26.536558, Alt.=113.901428m. Speed=0.504000m/h.</desc>
<speed>0.140000</speed>
</trkpt>
<trkpt lat="55.905396" lon="26.536558">
<ele>113.815491</ele>
<time>2010-08-29T07:45:41Z</time>
<desc>lat.=55.905396, lon.=26.536558, Alt.=113.815491m. Speed=0.324000m/h.</desc>
<speed>0.090000</speed>
</trkpt>
<trkpt lat="55.905396" lon="26.536556">
<ele>113.766663</ele>
<time>2010-08-29T07:45:42Z</time>
<desc>lat.=55.905396, lon.=26.536556, Alt.=113.766663m. Speed=0.540000m/h.</desc>
<speed>0.150000</speed>
</trkpt>
<trkpt lat="55.905396" lon="26.536554">
<ele>113.756897</ele>
<time>2010-08-29T07:45:43Z</time>
<desc>lat.=55.905396, lon.=26.536554, Alt.=113.756897m. Speed=0.324000m/h.</desc>
<speed>0.090000</speed>
</trkpt>
<trkpt lat="55.905396" lon="26.536554">
<ele>113.752991</ele>
<time>2010-08-29T07:45:44Z</time>
<desc>lat.=55.905396, lon.=26.536554, Alt.=113.752991m. Speed=0.144000m/h.</desc>
<speed>0.040000</speed>
</trkpt>
<trkpt lat="55.905396" lon="26.536554">
<ele>113.751038</ele>
<time>2010-08-29T07:45:45Z</time>
<desc>lat.=55.905396, lon.=26.536554, Alt.=113.751038m. Speed=0.108000m/h.</desc>
<speed>0.030000</speed>
</trkpt>
<trkpt lat="55.905396" lon="26.536554">
<ele>113.751038</ele>
<time>2010-08-29T07:45:46Z</time>
<desc>lat.=55.905396, lon.=26.536554, Alt.=113.751038m. Speed=0.144000m/h.</desc>
<speed>0.040000</speed>
</trkpt>
<trkpt lat="55.905396" lon="26.536554">
<ele>113.752991</ele>
<time>2010-08-29T07:45:47Z</time>
<desc>lat.=55.905396, lon.=26.536554, Alt.=113.752991m. Speed=0.036000m/h.</desc>
<speed>0.010000</speed>
</trkpt>
<trkpt lat="55.905396" lon="26.536554">
<ele>113.752991</ele>
<time>2010-08-29T07:45:48Z</time>
<desc>lat.=55.905396, lon.=26.536554, Alt.=113.752991m. Speed=0.072000m/h.</desc>
<speed>0.020000</speed>
</trkpt>
<trkpt lat="55.905396" lon="26.536554">
<ele>113.751038</ele>
<time>2010-08-29T07:45:49Z</time>
<desc>lat.=55.905396, lon.=26.536554, Alt.=113.751038m. Speed=0.036000m/h.</desc>
<speed>0.010000</speed>
</trkpt>
<trkpt lat="55.905396" lon="26.536554">
<ele>113.751038</ele>
<time>2010-08-29T07:45:50Z</time>
<desc>lat.=55.905396, lon.=26.536554, Alt.=113.751038m. Speed=0.108000m/h.</desc>
<speed>0.030000</speed>
</trkpt>
<trkpt lat="55.905396" lon="26.536554">
<ele>113.751038</ele>
<time>2010-08-29T07:45:51Z</time>
<desc>lat.=55.905396, lon.=26.536554, Alt.=113.751038m. Speed=0.180000m/h.</desc>
<speed>0.050000</speed>
</trkpt>
<trkpt lat="55.905396" lon="26.536554">
<ele>113.752991</ele>
<time>2010-08-29T07:45:52Z</time>
<desc>lat.=55.905396, lon.=26.536554, Alt.=113.752991m. Speed=0.144000m/h.</desc>
<speed>0.040000</speed>
</trkpt>
<trkpt lat="55.905396" lon="26.536554">
<ele>113.756897</ele>
<time>2010-08-29T07:45:53Z</time>
<desc>lat.=55.905396, lon.=26.536554, Alt.=113.756897m. Speed=0.180000m/h.</desc>
<speed>0.050000</speed>
</trkpt>
<trkpt lat="55.905396" lon="26.536554">
<ele>113.758850</ele>
<time>2010-08-29T07:45:54Z</time>
<desc>lat.=55.905396, lon.=26.536554, Alt.=113.758850m. Speed=0.036000m/h.</desc>
<speed>0.010000</speed>
</trkpt>
<trkpt lat="55.905396" lon="26.536554">
<ele>113.758850</ele>
<time>2010-08-29T07:45:55Z</time>
<desc>lat.=55.905396, lon.=26.536554, Alt.=113.758850m. Speed=0.072000m/h.</desc>
<speed>0.020000</speed>
</trkpt>
<trkpt lat="55.905396" lon="26.536554">
<ele>113.758850</ele>
<time>2010-08-29T07:45:56Z</time>
<desc>lat.=55.905396, lon.=26.536554, Alt.=113.758850m. Speed=0.000000m/h.</desc>
<speed>0.000000</speed>
</trkpt>
<trkpt lat="55.905396" lon="26.536554">
<ele>113.756897</ele>
<time>2010-08-29T07:45:57Z</time>
<desc>lat.=55.905396, lon.=26.536554, Alt.=113.756897m. Speed=0.000000m/h.</desc>
<speed>0.000000</speed>
</trkpt>
<trkpt lat="55.905396" lon="26.536554">
<ele>113.754944</ele>
<time>2010-08-29T07:45:58Z</time>
<desc>lat.=55.905396, lon.=26.536554, Alt.=113.754944m. Speed=0.036000m/h.</desc>
<speed>0.010000</speed>
</trkpt>
<trkpt lat="55.905396" lon="26.536554">
<ele>113.751038</ele>
<time>2010-08-29T07:45:59Z</time>
<desc>lat.=55.905396, lon.=26.536554, Alt.=113.751038m. Speed=0.144000m/h.</desc>
<speed>0.040000</speed>
</trkpt>
<trkpt lat="55.905396" lon="26.536554">
<ele>113.747131</ele>
<time>2010-08-29T07:46:00Z</time>
<desc>lat.=55.905396, lon.=26.536554, Alt.=113.747131m. Speed=0.180000m/h.</desc>
<speed>0.050000</speed>
</trkpt>
<trkpt lat="55.905396" lon="26.536554">
<ele>113.747131</ele>
<time>2010-08-29T07:46:01Z</time>
<desc>lat.=55.905396, lon.=26.536554, Alt.=113.747131m. Speed=0.072000m/h.</desc>
<speed>0.020000</speed>
</trkpt>
<trkpt lat="55.905396" lon="26.536554">
<ele>113.745178</ele>
<time>2010-08-29T07:46:02Z</time>
<desc>lat.=55.905396, lon.=26.536554, Alt.=113.745178m. Speed=0.036000m/h.</desc>
<speed>0.010000</speed>
</trkpt>
<trkpt lat="55.905396" lon="26.536554">
<ele>113.745178</ele>
<time>2010-08-29T07:46:03Z</time>
<desc>lat.=55.905396, lon.=26.536554, Alt.=113.745178m. Speed=0.036000m/h.</desc>
<speed>0.010000</speed>
</trkpt>
<trkpt lat="55.905396" lon="26.536554">
<ele>113.743225</ele>
<time>2010-08-29T07:46:04Z</time>
<desc>lat.=55.905396, lon.=26.536554, Alt.=113.743225m. Speed=0.000000m/h.</desc>
<speed>0.000000</speed>
</trkpt>
<trkpt lat="55.905396" lon="26.536554">
<ele>113.745178</ele>
<time>2010-08-29T07:46:05Z</time>
<desc>lat.=55.905396, lon.=26.536554, Alt.=113.745178m. Speed=0.648000m/h.</desc>
<speed>0.180000</speed>
</trkpt>
<trkpt lat="55.905396" lon="26.536554">
<ele>113.745178</ele>
<time>2010-08-29T07:46:06Z</time>
<desc>lat.=55.905396, lon.=26.536554, Alt.=113.745178m. Speed=0.756000m/h.</desc>
<speed>0.210000</speed>
</trkpt>
<trkpt lat="55.905399" lon="26.536554">
<ele>113.735413</ele>
<time>2010-08-29T07:46:07Z</time>
<desc>lat.=55.905399, lon.=26.536554, Alt.=113.735413m. Speed=0.360000m/h.</desc>
<speed>0.100000</speed>
</trkpt>
<trkpt lat="55.905399" lon="26.536554">
<ele>113.735413</ele>
<time>2010-08-29T07:46:08Z</time>
<desc>lat.=55.905399, lon.=26.536554, Alt.=113.735413m. Speed=0.108000m/h.</desc>
<speed>0.030000</speed>
</trkpt>
<trkpt lat="55.905399" lon="26.536554">
<ele>113.735413</ele>
<time>2010-08-29T07:46:09Z</time>
<desc>lat.=55.905399, lon.=26.536554, Alt.=113.735413m. Speed=0.144000m/h.</desc>
<speed>0.040000</speed>
</trkpt>
<trkpt lat="55.905399" lon="26.536554">
<ele>113.737366</ele>
<time>2010-08-29T07:46:10Z</time>
<desc>lat.=55.905399, lon.=26.536554, Alt.=113.737366m. Speed=0.144000m/h.</desc>
<speed>0.040000</speed>
</trkpt>
<trkpt lat="55.905399" lon="26.536554">
<ele>113.737366</ele>
<time>2010-08-29T07:46:11Z</time>
<desc>lat.=55.905399, lon.=26.536554, Alt.=113.737366m. Speed=0.036000m/h.</desc>
<speed>0.010000</speed>
</trkpt>
<trkpt lat="55.905399" lon="26.536554">
<ele>113.737366</ele>
<time>2010-08-29T07:46:12Z</time>
<desc>lat.=55.905399, lon.=26.536554, Alt.=113.737366m. Speed=0.108000m/h.</desc>
<speed>0.030000</speed>
</trkpt>
<trkpt lat="55.905399" lon="26.536554">
<ele>113.739319</ele>
<time>2010-08-29T07:46:13Z</time>
<desc>lat.=55.905399, lon.=26.536554, Alt.=113.739319m. Speed=0.108000m/h.</desc>
<speed>0.030000</speed>
</trkpt>
<trkpt lat="55.905399" lon="26.536554">
<ele>113.739319</ele>
<time>2010-08-29T07:46:14Z</time>
<desc>lat.=55.905399, lon.=26.536554, Alt.=113.739319m. Speed=0.072000m/h.</desc>
<speed>0.020000</speed>
</trkpt>
<trkpt lat="55.905399" lon="26.536554">
<ele>113.743225</ele>
<time>2010-08-29T07:46:15Z</time>
<desc>lat.=55.905399, lon.=26.536554, Alt.=113.743225m. Speed=0.036000m/h.</desc>
<speed>0.010000</speed>
</trkpt>
<trkpt lat="55.905399" lon="26.536554">
<ele>113.743225</ele>
<time>2010-08-29T07:46:16Z</time>
<desc>lat.=55.905399, lon.=26.536554, Alt.=113.743225m. Speed=0.000000m/h.</desc>
<speed>0.000000</speed>
</trkpt>
<trkpt lat="55.905399" lon="26.536554">
<ele>113.743225</ele>
<time>2010-08-29T07:46:17Z</time>
<desc>lat.=55.905399, lon.=26.536554, Alt.=113.743225m. Speed=0.180000m/h.</desc>
<speed>0.050000</speed>
</trkpt>
<trkpt lat="55.905399" lon="26.536554">
<ele>113.743225</ele>
<time>2010-08-29T07:46:18Z</time>
<desc>lat.=55.905399, lon.=26.536554, Alt.=113.743225m. Speed=0.000000m/h.</desc>
<speed>0.000000</speed>
</trkpt>
<trkpt lat="55.905399" lon="26.536554">
<ele>113.743225</ele>
<time>2010-08-29T07:46:19Z</time>
<desc>lat.=55.905399, lon.=26.536554, Alt.=113.743225m. Speed=0.036000m/h.</desc>
<speed>0.010000</speed>
</trkpt>
<trkpt lat="55.905399" lon="26.536554">
<ele>113.743225</ele>
<time>2010-08-29T07:46:20Z</time>
<desc>lat.=55.905399, lon.=26.536554, Alt.=113.743225m. Speed=0.072000m/h.</desc>
<speed>0.020000</speed>
</trkpt>
<trkpt lat="55.905399" lon="26.536554">
<ele>113.741272</ele>
<time>2010-08-29T07:46:21Z</time>
<desc>lat.=55.905399, lon.=26.536554, Alt.=113.741272m. Speed=0.108000m/h.</desc>
<speed>0.030000</speed>
</trkpt>
<trkpt lat="55.905399" lon="26.536554">
<ele>113.741272</ele>
<time>2010-08-29T07:46:22Z</time>
<desc>lat.=55.905399, lon.=26.536554, Alt.=113.741272m. Speed=0.108000m/h.</desc>
<speed>0.030000</speed>
</trkpt>
<trkpt lat="55.905399" lon="26.536554">
<ele>113.741272</ele>
<time>2010-08-29T07:46:23Z</time>
<desc>lat.=55.905399, lon.=26.536554, Alt.=113.741272m. Speed=0.108000m/h.</desc>
<speed>0.030000</speed>
</trkpt>
<trkpt lat="55.905399" lon="26.536554">
<ele>113.743225</ele>
<time>2010-08-29T07:46:24Z</time>
<desc>lat.=55.905399, lon.=26.536554, Alt.=113.743225m. Speed=0.000000m/h.</desc>
<speed>0.000000</speed>
</trkpt>
<trkpt lat="55.905399" lon="26.536554">
<ele>113.741272</ele>
<time>2010-08-29T07:46:25Z</time>
<desc>lat.=55.905399, lon.=26.536554, Alt.=113.741272m. Speed=0.036000m/h.</desc>
<speed>0.010000</speed>
</trkpt>
<trkpt lat="55.905399" lon="26.536554">
<ele>113.733459</ele>
<time>2010-08-29T07:46:26Z</time>
<desc>lat.=55.905399, lon.=26.536554, Alt.=113.733459m. Speed=0.108000m/h.</desc>
<speed>0.030000</speed>
</trkpt>
<trkpt lat="55.905399" lon="26.536554">
<ele>113.729553</ele>
<time>2010-08-29T07:46:27Z</time>
<desc>lat.=55.905399, lon.=26.536554, Alt.=113.729553m. Speed=0.036000m/h.</desc>
<speed>0.010000</speed>
</trkpt>
<trkpt lat="55.905399" lon="26.536554">
<ele>113.727600</ele>
<time>2010-08-29T07:46:28Z</time>
<desc>lat.=55.905399, lon.=26.536554, Alt.=113.727600m. Speed=0.072000m/h.</desc>
<speed>0.020000</speed>
</trkpt>
<trkpt lat="55.905399" lon="26.536554">
<ele>113.731506</ele>
<time>2010-08-29T07:46:29Z</time>
<desc>lat.=55.905399, lon.=26.536554, Alt.=113.731506m. Speed=0.036000m/h.</desc>
<speed>0.010000</speed>
</trkpt>
<trkpt lat="55.905399" lon="26.536554">
<ele>113.723694</ele>
<time>2010-08-29T07:46:30Z</time>
<desc>lat.=55.905399, lon.=26.536554, Alt.=113.723694m. Speed=0.036000m/h.</desc>
<speed>0.010000</speed>
</trkpt>
<trkpt lat="55.905399" lon="26.536554">
<ele>113.719788</ele>
<time>2010-08-29T07:46:31Z</time>
<desc>lat.=55.905399, lon.=26.536554, Alt.=113.719788m. Speed=0.036000m/h.</desc>
<speed>0.010000</speed>
</trkpt>
<trkpt lat="55.905399" lon="26.536554">
<ele>113.713928</ele>
<time>2010-08-29T07:46:32Z</time>
<desc>lat.=55.905399, lon.=26.536554, Alt.=113.713928m. Speed=0.036000m/h.</desc>
<speed>0.010000</speed>
</trkpt>
<trkpt lat="55.905396" lon="26.536554">
<ele>113.713928</ele>
<time>2010-08-29T07:46:33Z</time>
<desc>lat.=55.905396, lon.=26.536554, Alt.=113.713928m. Speed=0.000000m/h.</desc>
<speed>0.000000</speed>
</trkpt>
<trkpt lat="55.905396" lon="26.536554">
<ele>113.710022</ele>
<time>2010-08-29T07:46:34Z</time>
<desc>lat.=55.905396, lon.=26.536554, Alt.=113.710022m. Speed=0.072000m/h.</desc>
<speed>0.020000</speed>
</trkpt>
<trkpt lat="55.905396" lon="26.536554">
<ele>113.706116</ele>
<time>2010-08-29T07:46:35Z</time>
<desc>lat.=55.905396, lon.=26.536554, Alt.=113.706116m. Speed=0.036000m/h.</desc>
<speed>0.010000</speed>
</trkpt>
<trkpt lat="55.905396" lon="26.536554">
<ele>113.702209</ele>
<time>2010-08-29T07:46:36Z</time>
<desc>lat.=55.905396, lon.=26.536554, Alt.=113.702209m. Speed=0.252000m/h.</desc>
<speed>0.070000</speed>
</trkpt>
<trkpt lat="55.905399" lon="26.536554">
<ele>113.700256</ele>
<time>2010-08-29T07:46:37Z</time>
<desc>lat.=55.905399, lon.=26.536554, Alt.=113.700256m. Speed=0.036000m/h.</desc>
<speed>0.010000</speed>
</trkpt>
<trkpt lat="55.905399" lon="26.536554">
<ele>113.698303</ele>
<time>2010-08-29T07:46:38Z</time>
<desc>lat.=55.905399, lon.=26.536554, Alt.=113.698303m. Speed=0.468000m/h.</desc>
<speed>0.130000</speed>
</trkpt>
<trkpt lat="55.905399" lon="26.536552">
<ele>113.696350</ele>
<time>2010-08-29T07:46:39Z</time>
<desc>lat.=55.905399, lon.=26.536552, Alt.=113.696350m. Speed=0.684000m/h.</desc>
<speed>0.190000</speed>
</trkpt>
<trkpt lat="55.905396" lon="26.536551">
<ele>113.702209</ele>
<time>2010-08-29T07:46:40Z</time>
<desc>lat.=55.905396, lon.=26.536551, Alt.=113.702209m. Speed=0.720000m/h.</desc>
<speed>0.200000</speed>
</trkpt>
<trkpt lat="55.905396" lon="26.536549">
<ele>113.715881</ele>
<time>2010-08-29T07:46:41Z</time>
<desc>lat.=55.905396, lon.=26.536549, Alt.=113.715881m. Speed=0.180000m/h.</desc>
<speed>0.050000</speed>
</trkpt>
<trkpt lat="55.905396" lon="26.536549">
<ele>113.710022</ele>
<time>2010-08-29T07:46:42Z</time>
<desc>lat.=55.905396, lon.=26.536549, Alt.=113.710022m. Speed=0.108000m/h.</desc>
<speed>0.030000</speed>
</trkpt>
<trkpt lat="55.905396" lon="26.536549">
<ele>113.708069</ele>
<time>2010-08-29T07:46:43Z</time>
<desc>lat.=55.905396, lon.=26.536549, Alt.=113.708069m. Speed=0.036000m/h.</desc>
<speed>0.010000</speed>
</trkpt>
<trkpt lat="55.905396" lon="26.536549">
<ele>113.706116</ele>
<time>2010-08-29T07:46:44Z</time>
<desc>lat.=55.905396, lon.=26.536549, Alt.=113.706116m. Speed=0.036000m/h.</desc>
<speed>0.010000</speed>
</trkpt>
<trkpt lat="55.905396" lon="26.536547">
<ele>113.704163</ele>
<time>2010-08-29T07:46:45Z</time>
<desc>lat.=55.905396, lon.=26.536547, Alt.=113.704163m. Speed=0.072000m/h.</desc>
<speed>0.020000</speed>
</trkpt>
<trkpt lat="55.905396" lon="26.536547">
<ele>113.702209</ele>
<time>2010-08-29T07:46:46Z</time>
<desc>lat.=55.905396, lon.=26.536547, Alt.=113.702209m. Speed=0.072000m/h.</desc>
<speed>0.020000</speed>
</trkpt>
<trkpt lat="55.905396" lon="26.536547">
<ele>113.698303</ele>
<time>2010-08-29T07:46:47Z</time>
<desc>lat.=55.905396, lon.=26.536547, Alt.=113.698303m. Speed=0.036000m/h.</desc>
<speed>0.010000</speed>
</trkpt>
<trkpt lat="55.905396" lon="26.536547">
<ele>113.690491</ele>
<time>2010-08-29T07:46:48Z</time>
<desc>lat.=55.905396, lon.=26.536547, Alt.=113.690491m. Speed=0.036000m/h.</desc>
<speed>0.010000</speed>
</trkpt>
<trkpt lat="55.905396" lon="26.536547">
<ele>113.686584</ele>
<time>2010-08-29T07:46:49Z</time>
<desc>lat.=55.905396, lon.=26.536547, Alt.=113.686584m. Speed=0.000000m/h.</desc>
<speed>0.000000</speed>
</trkpt>
<trkpt lat="55.905396" lon="26.536547">
<ele>113.684631</ele>
<time>2010-08-29T07:46:50Z</time>
<desc>lat.=55.905396, lon.=26.536547, Alt.=113.684631m. Speed=0.252000m/h.</desc>
<speed>0.070000</speed>
</trkpt>
<trkpt lat="55.905396" lon="26.536547">
<ele>113.680725</ele>
<time>2010-08-29T07:46:51Z</time>
<desc>lat.=55.905396, lon.=26.536547, Alt.=113.680725m. Speed=0.252000m/h.</desc>
<speed>0.070000</speed>
</trkpt>
<trkpt lat="55.905396" lon="26.536547">
<ele>113.680725</ele>
<time>2010-08-29T07:46:52Z</time>
<desc>lat.=55.905396, lon.=26.536547, Alt.=113.680725m. Speed=0.684000m/h.</desc>
<speed>0.190000</speed>
</trkpt>
<trkpt lat="55.905396" lon="26.536547">
<ele>113.674866</ele>
<time>2010-08-29T07:46:53Z</time>
<desc>lat.=55.905396, lon.=26.536547, Alt.=113.674866m. Speed=2.484000m/h.</desc>
<speed>0.690000</speed>
</trkpt>
<trkpt lat="55.905396" lon="26.536558">
<ele>113.211975</ele>
<time>2010-08-29T07:46:54Z</time>
<desc>lat.=55.905396, lon.=26.536558, Alt.=113.211975m. Speed=0.792000m/h.</desc>
<speed>0.220000</speed>
</trkpt>
<trkpt lat="55.905399" lon="26.536554">
<ele>113.295959</ele>
<time>2010-08-29T07:46:55Z</time>
<desc>lat.=55.905399, lon.=26.536554, Alt.=113.295959m. Speed=1.296000m/h.</desc>
<speed>0.360000</speed>
</trkpt>
<trkpt lat="55.905399" lon="26.536552">
<ele>113.356506</ele>
<time>2010-08-29T07:46:56Z</time>
<desc>lat.=55.905399, lon.=26.536552, Alt.=113.356506m. Speed=0.360000m/h.</desc>
<speed>0.100000</speed>
</trkpt>
<trkpt lat="55.905403" lon="26.536552">
<ele>113.399475</ele>
<time>2010-08-29T07:46:57Z</time>
<desc>lat.=55.905403, lon.=26.536552, Alt.=113.399475m. Speed=0.540000m/h.</desc>
<speed>0.150000</speed>
</trkpt>
<trkpt lat="55.905407" lon="26.536556">
<ele>113.575256</ele>
<time>2010-08-29T07:46:58Z</time>
<desc>lat.=55.905407, lon.=26.536556, Alt.=113.575256m. Speed=0.972000m/h.</desc>
<speed>0.270000</speed>
</trkpt>
<trkpt lat="55.905415" lon="26.536562">
<ele>113.614319</ele>
<time>2010-08-29T07:46:59Z</time>
<desc>lat.=55.905415, lon.=26.536562, Alt.=113.614319m. Speed=2.124000m/h.</desc>
<speed>0.590000</speed>
</trkpt>
<trkpt lat="55.905422" lon="26.536587">
<ele>113.342834</ele>
<time>2010-08-29T07:47:00Z</time>
<desc>lat.=55.905422, lon.=26.536587, Alt.=113.342834m. Speed=4.968000m/h.</desc>
<speed>1.380000</speed>
</trkpt>
<trkpt lat="55.905430" lon="26.536602">
<ele>113.387756</ele>
<time>2010-08-29T07:47:01Z</time>
<desc>lat.=55.905430, lon.=26.536602, Alt.=113.387756m. Speed=5.868000m/h.</desc>
<speed>1.630000</speed>
</trkpt>
<trkpt lat="55.905441" lon="26.536625">
<ele>113.325256</ele>
<time>2010-08-29T07:47:02Z</time>
<desc>lat.=55.905441, lon.=26.536625, Alt.=113.325256m. Speed=8.748000m/h.</desc>
<speed>2.430000</speed>
</trkpt>
<trkpt lat="55.905457" lon="26.536652">
<ele>113.395569</ele>
<time>2010-08-29T07:47:03Z</time>
<desc>lat.=55.905457, lon.=26.536652, Alt.=113.395569m. Speed=9.504000m/h.</desc>
<speed>2.640000</speed>
</trkpt>
<trkpt lat="55.905472" lon="26.536676">
<ele>113.561584</ele>
<time>2010-08-29T07:47:04Z</time>
<desc>lat.=55.905472, lon.=26.536676, Alt.=113.561584m. Speed=9.504000m/h.</desc>
<speed>2.640000</speed>
</trkpt>
<trkpt lat="55.905495" lon="26.536701">
<ele>113.624084</ele>
<time>2010-08-29T07:47:05Z</time>
<desc>lat.=55.905495, lon.=26.536701, Alt.=113.624084m. Speed=10.044000m/h.</desc>
<speed>2.790000</speed>
</trkpt>
<trkpt lat="55.905518" lon="26.536720">
<ele>113.805725</ele>
<time>2010-08-29T07:47:06Z</time>
<desc>lat.=55.905518, lon.=26.536720, Alt.=113.805725m. Speed=9.144000m/h.</desc>
<speed>2.540000</speed>
</trkpt>
<trkpt lat="55.905544" lon="26.536736">
<ele>113.594788</ele>
<time>2010-08-29T07:47:07Z</time>
<desc>lat.=55.905544, lon.=26.536736, Alt.=113.594788m. Speed=9.072000m/h.</desc>
<speed>2.520000</speed>
</trkpt>
<trkpt lat="55.905567" lon="26.536751">
<ele>112.239319</ele>
<time>2010-08-29T07:47:08Z</time>
<desc>lat.=55.905567, lon.=26.536751, Alt.=112.239319m. Speed=9.612000m/h.</desc>
<speed>2.670000</speed>
</trkpt>
<trkpt lat="55.905582" lon="26.536774">
<ele>111.981506</ele>
<time>2010-08-29T07:47:09Z</time>
<desc>lat.=55.905582, lon.=26.536774, Alt.=111.981506m. Speed=8.892000m/h.</desc>
<speed>2.470000</speed>
</trkpt>
<trkpt lat="55.905594" lon="26.536802">
<ele>111.733459</ele>
<time>2010-08-29T07:47:10Z</time>
<desc>lat.=55.905594, lon.=26.536802, Alt.=111.733459m. Speed=8.028000m/h.</desc>
<speed>2.230000</speed>
</trkpt>
<trkpt lat="55.905613" lon="26.536825">
<ele>111.393616</ele>
<time>2010-08-29T07:47:11Z</time>
<desc>lat.=55.905613, lon.=26.536825, Alt.=111.393616m. Speed=9.972000m/h.</desc>
<speed>2.770000</speed>
</trkpt>
<trkpt lat="55.905640" lon="26.536848">
<ele>111.051819</ele>
<time>2010-08-29T07:47:12Z</time>
<desc>lat.=55.905640, lon.=26.536848, Alt.=111.051819m. Speed=11.412000m/h.</desc>
<speed>3.170000</speed>
</trkpt>
<trkpt lat="55.905670" lon="26.536882">
<ele>111.358459</ele>
<time>2010-08-29T07:47:13Z</time>
<desc>lat.=55.905670, lon.=26.536882, Alt.=111.358459m. Speed=13.356000m/h.</desc>
<speed>3.710000</speed>
</trkpt>
<trkpt lat="55.905708" lon="26.536915">
<ele>111.153381</ele>
<time>2010-08-29T07:47:14Z</time>
<desc>lat.=55.905708, lon.=26.536915, Alt.=111.153381m. Speed=14.148000m/h.</desc>
<speed>3.930000</speed>
</trkpt>
<trkpt lat="55.905739" lon="26.536947">
<ele>110.954163</ele>
<time>2010-08-29T07:47:15Z</time>
<desc>lat.=55.905739, lon.=26.536947, Alt.=110.954163m. Speed=13.968000m/h.</desc>
<speed>3.880000</speed>
</trkpt>
<trkpt lat="55.905769" lon="26.536974">
<ele>110.967834</ele>
<time>2010-08-29T07:47:16Z</time>
<desc>lat.=55.905769, lon.=26.536974, Alt.=110.967834m. Speed=13.824000m/h.</desc>
<speed>3.840000</speed>
</trkpt>
<trkpt lat="55.905800" lon="26.536989">
<ele>110.729553</ele>
<time>2010-08-29T07:47:17Z</time>
<desc>lat.=55.905800, lon.=26.536989, Alt.=110.729553m. Speed=12.528000m/h.</desc>
<speed>3.480000</speed>
</trkpt>
<trkpt lat="55.905830" lon="26.537014">
<ele>111.217834</ele>
<time>2010-08-29T07:47:18Z</time>
<desc>lat.=55.905830, lon.=26.537014, Alt.=111.217834m. Speed=13.464000m/h.</desc>
<speed>3.740000</speed>
</trkpt>
<trkpt lat="55.905869" lon="26.537041">
<ele>111.415100</ele>
<time>2010-08-29T07:47:19Z</time>
<desc>lat.=55.905869, lon.=26.537041, Alt.=111.415100m. Speed=14.976000m/h.</desc>
<speed>4.160000</speed>
</trkpt>
<trkpt lat="55.905903" lon="26.537069">
<ele>110.147522</ele>
<time>2010-08-29T07:47:20Z</time>
<desc>lat.=55.905903, lon.=26.537069, Alt.=110.147522m. Speed=15.660000m/h.</desc>
<speed>4.350000</speed>
</trkpt>
<trkpt lat="55.905941" lon="26.537094">
<ele>110.331116</ele>
<time>2010-08-29T07:47:21Z</time>
<desc>lat.=55.905941, lon.=26.537094, Alt.=110.331116m. Speed=14.868000m/h.</desc>
<speed>4.130000</speed>
</trkpt>
<trkpt lat="55.905975" lon="26.537117">
<ele>110.405334</ele>
<time>2010-08-29T07:47:22Z</time>
<desc>lat.=55.905975, lon.=26.537117, Alt.=110.405334m. Speed=14.724000m/h.</desc>
<speed>4.090000</speed>
</trkpt>
<trkpt lat="55.906006" lon="26.537140">
<ele>110.417053</ele>
<time>2010-08-29T07:47:23Z</time>
<desc>lat.=55.906006, lon.=26.537140, Alt.=110.417053m. Speed=13.284000m/h.</desc>
<speed>3.690000</speed>
</trkpt>
<trkpt lat="55.906048" lon="26.537163">
<ele>111.001038</ele>
<time>2010-08-29T07:47:24Z</time>
<desc>lat.=55.906048, lon.=26.537163, Alt.=111.001038m. Speed=14.940000m/h.</desc>
<speed>4.150000</speed>
</trkpt>
<trkpt lat="55.906082" lon="26.537186">
<ele>111.233459</ele>
<time>2010-08-29T07:47:25Z</time>
<desc>lat.=55.906082, lon.=26.537186, Alt.=111.233459m. Speed=14.940000m/h.</desc>
<speed>4.150000</speed>
</trkpt>
<trkpt lat="55.906116" lon="26.537205">
<ele>111.782288</ele>
<time>2010-08-29T07:47:26Z</time>
<desc>lat.=55.906116, lon.=26.537205, Alt.=111.782288m. Speed=12.924000m/h.</desc>
<speed>3.590000</speed>
</trkpt>
<trkpt lat="55.906151" lon="26.537231">
<ele>111.971741</ele>
<time>2010-08-29T07:47:27Z</time>
<desc>lat.=55.906151, lon.=26.537231, Alt.=111.971741m. Speed=13.824000m/h.</desc>
<speed>3.840000</speed>
</trkpt>
<trkpt lat="55.906193" lon="26.537258">
<ele>110.801819</ele>
<time>2010-08-29T07:47:28Z</time>
<desc>lat.=55.906193, lon.=26.537258, Alt.=110.801819m. Speed=18.504000m/h.</desc>
<speed>5.140000</speed>
</trkpt>
<trkpt lat="55.906242" lon="26.537281">
<ele>111.192444</ele>
<time>2010-08-29T07:47:29Z</time>
<desc>lat.=55.906242, lon.=26.537281, Alt.=111.192444m. Speed=14.436000m/h.</desc>
<speed>4.010000</speed>
</trkpt>
<trkpt lat="55.906292" lon="26.537306">
<ele>112.850647</ele>
<time>2010-08-29T07:47:30Z</time>
<desc>lat.=55.906292, lon.=26.537306, Alt.=112.850647m. Speed=15.516000m/h.</desc>
<speed>4.310000</speed>
</trkpt>
<trkpt lat="55.906330" lon="26.537334">
<ele>113.377991</ele>
<time>2010-08-29T07:47:31Z</time>
<desc>lat.=55.906330, lon.=26.537334, Alt.=113.377991m. Speed=16.667999m/h.</desc>
<speed>4.630000</speed>
</trkpt>
<trkpt lat="55.906376" lon="26.537371">
<ele>114.229553</ele>
<time>2010-08-29T07:47:32Z</time>
<desc>lat.=55.906376, lon.=26.537371, Alt.=114.229553m. Speed=15.552000m/h.</desc>
<speed>4.320000</speed>
</trkpt>
<trkpt lat="55.906410" lon="26.537392">
<ele>115.815491</ele>
<time>2010-08-29T07:47:33Z</time>
<desc>lat.=55.906410, lon.=26.537392, Alt.=115.815491m. Speed=15.012000m/h.</desc>
<speed>4.170000</speed>
</trkpt>
<trkpt lat="55.906445" lon="26.537428">
<ele>116.440491</ele>
<time>2010-08-29T07:47:34Z</time>
<desc>lat.=55.906445, lon.=26.537428, Alt.=116.440491m. Speed=15.552000m/h.</desc>
<speed>4.320000</speed>
</trkpt>
<trkpt lat="55.906483" lon="26.537453">
<ele>116.995178</ele>
<time>2010-08-29T07:47:35Z</time>
<desc>lat.=55.906483, lon.=26.537453, Alt.=116.995178m. Speed=15.804000m/h.</desc>
<speed>4.390000</speed>
</trkpt>
<trkpt lat="55.906525" lon="26.537477">
<ele>117.846741</ele>
<time>2010-08-29T07:47:36Z</time>
<desc>lat.=55.906525, lon.=26.537477, Alt.=117.846741m. Speed=16.091999m/h.</desc>
<speed>4.470000</speed>
</trkpt>
<trkpt lat="55.906567" lon="26.537498">
<ele>118.182678</ele>
<time>2010-08-29T07:47:37Z</time>
<desc>lat.=55.906567, lon.=26.537498, Alt.=118.182678m. Speed=15.696000m/h.</desc>
<speed>4.360000</speed>
</trkpt>
<trkpt lat="55.906609" lon="26.537529">
<ele>118.559631</ele>
<time>2010-08-29T07:47:38Z</time>
<desc>lat.=55.906609, lon.=26.537529, Alt.=118.559631m. Speed=16.128000m/h.</desc>
<speed>4.480000</speed>
</trkpt>
<trkpt lat="55.906647" lon="26.537567">
<ele>117.774475</ele>
<time>2010-08-29T07:47:39Z</time>
<desc>lat.=55.906647, lon.=26.537567, Alt.=117.774475m. Speed=16.200001m/h.</desc>
<speed>4.500000</speed>
</trkpt>
<trkpt lat="55.906681" lon="26.537594">
<ele>118.588928</ele>
<time>2010-08-29T07:47:40Z</time>
<desc>lat.=55.906681, lon.=26.537594, Alt.=118.588928m. Speed=15.696000m/h.</desc>
<speed>4.360000</speed>
</trkpt>
<trkpt lat="55.906715" lon="26.537621">
<ele>119.309631</ele>
<time>2010-08-29T07:47:41Z</time>
<desc>lat.=55.906715, lon.=26.537621, Alt.=119.309631m. Speed=16.452000m/h.</desc>
<speed>4.570000</speed>
</trkpt>
<trkpt lat="55.906754" lon="26.537651">
<ele>119.883850</ele>
<time>2010-08-29T07:47:42Z</time>
<desc>lat.=55.906754, lon.=26.537651, Alt.=119.883850m. Speed=16.271999m/h.</desc>
<speed>4.520000</speed>
</trkpt>
<trkpt lat="55.906792" lon="26.537678">
<ele>120.350647</ele>
<time>2010-08-29T07:47:43Z</time>
<desc>lat.=55.906792, lon.=26.537678, Alt.=120.350647m. Speed=15.588000m/h.</desc>
<speed>4.330000</speed>
</trkpt>
<trkpt lat="55.906826" lon="26.537699">
<ele>121.221741</ele>
<time>2010-08-29T07:47:44Z</time>
<desc>lat.=55.906826, lon.=26.537699, Alt.=121.221741m. Speed=15.480000m/h.</desc>
<speed>4.300000</speed>
</trkpt>
<trkpt lat="55.906860" lon="26.537716">
<ele>121.643616</ele>
<time>2010-08-29T07:47:45Z</time>
<desc>lat.=55.906860, lon.=26.537716, Alt.=121.643616m. Speed=13.248000m/h.</desc>
<speed>3.680000</speed>
</trkpt>
<trkpt lat="55.906902" lon="26.537745">
<ele>122.088928</ele>
<time>2010-08-29T07:47:46Z</time>
<desc>lat.=55.906902, lon.=26.537745, Alt.=122.088928m. Speed=15.624000m/h.</desc>
<speed>4.340000</speed>
</trkpt>
<trkpt lat="55.906940" lon="26.537771">
<ele>122.917053</ele>
<time>2010-08-29T07:47:47Z</time>
<desc>lat.=55.906940, lon.=26.537771, Alt.=122.917053m. Speed=13.464000m/h.</desc>
<speed>3.740000</speed>
</trkpt>
<trkpt lat="55.906971" lon="26.537790">
<ele>123.196350</ele>
<time>2010-08-29T07:47:48Z</time>
<desc>lat.=55.906971, lon.=26.537790, Alt.=123.196350m. Speed=11.592000m/h.</desc>
<speed>3.220000</speed>
</trkpt>
<trkpt lat="55.907021" lon="26.537817">
<ele>125.145569</ele>
<time>2010-08-29T07:47:49Z</time>
<desc>lat.=55.907021, lon.=26.537817, Alt.=125.145569m. Speed=15.156000m/h.</desc>
<speed>4.210000</speed>
</trkpt>
<trkpt lat="55.907059" lon="26.537842">
<ele>126.301819</ele>
<time>2010-08-29T07:47:50Z</time>
<desc>lat.=55.907059, lon.=26.537842, Alt.=126.301819m. Speed=13.392000m/h.</desc>
<speed>3.720000</speed>
</trkpt>
<trkpt lat="55.907093" lon="26.537863">
<ele>127.079163</ele>
<time>2010-08-29T07:47:51Z</time>
<desc>lat.=55.907093, lon.=26.537863, Alt.=127.079163m. Speed=13.716000m/h.</desc>
<speed>3.810000</speed>
</trkpt>
<trkpt lat="55.907124" lon="26.537882">
<ele>128.091919</ele>
<time>2010-08-29T07:47:52Z</time>
<desc>lat.=55.907124, lon.=26.537882, Alt.=128.091919m. Speed=12.420000m/h.</desc>
<speed>3.450000</speed>
</trkpt>
<trkpt lat="55.907158" lon="26.537895">
<ele>129.045044</ele>
<time>2010-08-29T07:47:53Z</time>
<desc>lat.=55.907158, lon.=26.537895, Alt.=129.045044m. Speed=12.384000m/h.</desc>
<speed>3.440000</speed>
</trkpt>
<trkpt lat="55.907200" lon="26.537907">
<ele>128.603638</ele>
<time>2010-08-29T07:47:54Z</time>
<desc>lat.=55.907200, lon.=26.537907, Alt.=128.603638m. Speed=15.192000m/h.</desc>
<speed>4.220000</speed>
</trkpt>
<trkpt lat="55.907261" lon="26.537920">
<ele>127.747131</ele>
<time>2010-08-29T07:47:55Z</time>
<desc>lat.=55.907261, lon.=26.537920, Alt.=127.747131m. Speed=18.108000m/h.</desc>
<speed>5.030000</speed>
</trkpt>
<trkpt lat="55.907314" lon="26.537941">
<ele>127.483459</ele>
<time>2010-08-29T07:47:56Z</time>
<desc>lat.=55.907314, lon.=26.537941, Alt.=127.483459m. Speed=17.856001m/h.</desc>
<speed>4.960000</speed>
</trkpt>
<trkpt lat="55.907356" lon="26.537968">
<ele>127.004944</ele>
<time>2010-08-29T07:47:57Z</time>
<desc>lat.=55.907356, lon.=26.537968, Alt.=127.004944m. Speed=17.028000m/h.</desc>
<speed>4.730000</speed>
</trkpt>
<trkpt lat="55.907402" lon="26.537989">
<ele>126.315491</ele>
<time>2010-08-29T07:47:58Z</time>
<desc>lat.=55.907402, lon.=26.537989, Alt.=126.315491m. Speed=16.559999m/h.</desc>
<speed>4.600000</speed>
</trkpt>
<trkpt lat="55.907444" lon="26.538006">
<ele>126.860413</ele>
<time>2010-08-29T07:47:59Z</time>
<desc>lat.=55.907444, lon.=26.538006, Alt.=126.860413m. Speed=15.876000m/h.</desc>
<speed>4.410000</speed>
</trkpt>
<trkpt lat="55.907482" lon="26.538025">
<ele>126.465881</ele>
<time>2010-08-29T07:48:00Z</time>
<desc>lat.=55.907482, lon.=26.538025, Alt.=126.465881m. Speed=15.840000m/h.</desc>
<speed>4.400000</speed>
</trkpt>
<trkpt lat="55.907524" lon="26.538042">
<ele>126.124084</ele>
<time>2010-08-29T07:48:01Z</time>
<desc>lat.=55.907524, lon.=26.538042, Alt.=126.124084m. Speed=15.840000m/h.</desc>
<speed>4.400000</speed>
</trkpt>
<trkpt lat="55.907570" lon="26.538055">
<ele>126.409241</ele>
<time>2010-08-29T07:48:02Z</time>
<desc>lat.=55.907570, lon.=26.538055, Alt.=126.409241m. Speed=14.724000m/h.</desc>
<speed>4.090000</speed>
</trkpt>
<trkpt lat="55.907600" lon="26.538076">
<ele>125.600647</ele>
<time>2010-08-29T07:48:03Z</time>
<desc>lat.=55.907600, lon.=26.538076, Alt.=125.600647m. Speed=14.436000m/h.</desc>
<speed>4.010000</speed>
</trkpt>
<trkpt lat="55.907639" lon="26.538099">
<ele>125.807678</ele>
<time>2010-08-29T07:48:04Z</time>
<desc>lat.=55.907639, lon.=26.538099, Alt.=125.807678m. Speed=14.436000m/h.</desc>
<speed>4.010000</speed>
</trkpt>
<trkpt lat="55.907677" lon="26.538122">
<ele>126.104553</ele>
<time>2010-08-29T07:48:05Z</time>
<desc>lat.=55.907677, lon.=26.538122, Alt.=126.104553m. Speed=15.516000m/h.</desc>
<speed>4.310000</speed>
</trkpt>
<trkpt lat="55.907711" lon="26.538143">
<ele>126.315491</ele>
<time>2010-08-29T07:48:06Z</time>
<desc>lat.=55.907711, lon.=26.538143, Alt.=126.315491m. Speed=15.516000m/h.</desc>
<speed>4.310000</speed>
</trkpt>
<trkpt lat="55.907745" lon="26.538153">
<ele>126.713928</ele>
<time>2010-08-29T07:48:07Z</time>
<desc>lat.=55.907745, lon.=26.538153, Alt.=126.713928m. Speed=13.788000m/h.</desc>
<speed>3.830000</speed>
</trkpt>
<trkpt lat="55.907776" lon="26.538168">
<ele>127.249084</ele>
<time>2010-08-29T07:48:08Z</time>
<desc>lat.=55.907776, lon.=26.538168, Alt.=127.249084m. Speed=9.288000m/h.</desc>
<speed>2.580000</speed>
</trkpt>
<trkpt lat="55.907795" lon="26.538185">
<ele>127.526428</ele>
<time>2010-08-29T07:48:09Z</time>
<desc>lat.=55.907795, lon.=26.538185, Alt.=127.526428m. Speed=9.396000m/h.</desc>
<speed>2.610000</speed>
</trkpt>
<trkpt lat="55.907818" lon="26.538210">
<ele>127.561584</ele>
<time>2010-08-29T07:48:10Z</time>
<desc>lat.=55.907818, lon.=26.538210, Alt.=127.561584m. Speed=9.180000m/h.</desc>
<speed>2.550000</speed>
</trkpt>
<trkpt lat="55.907856" lon="26.538235">
<ele>127.182678</ele>
<time>2010-08-29T07:48:11Z</time>
<desc>lat.=55.907856, lon.=26.538235, Alt.=127.182678m. Speed=18.000000m/h.</desc>
<speed>5.000000</speed>
</trkpt>
<trkpt lat="55.907890" lon="26.538260">
<ele>127.401428</ele>
<time>2010-08-29T07:48:12Z</time>
<desc>lat.=55.907890, lon.=26.538260, Alt.=127.401428m. Speed=13.428000m/h.</desc>
<speed>3.730000</speed>
</trkpt>
<trkpt lat="55.907921" lon="26.538282">
<ele>127.372131</ele>
<time>2010-08-29T07:48:13Z</time>
<desc>lat.=55.907921, lon.=26.538282, Alt.=127.372131m. Speed=13.320000m/h.</desc>
<speed>3.700000</speed>
</trkpt>
<trkpt lat="55.907959" lon="26.538305">
<ele>127.372131</ele>
<time>2010-08-29T07:48:14Z</time>
<desc>lat.=55.907959, lon.=26.538305, Alt.=127.372131m. Speed=16.308001m/h.</desc>
<speed>4.530000</speed>
</trkpt>
<trkpt lat="55.907993" lon="26.538330">
<ele>127.581116</ele>
<time>2010-08-29T07:48:15Z</time>
<desc>lat.=55.907993, lon.=26.538330, Alt.=127.581116m. Speed=13.428000m/h.</desc>
<speed>3.730000</speed>
</trkpt>
<trkpt lat="55.908028" lon="26.538361">
<ele>127.631897</ele>
<time>2010-08-29T07:48:16Z</time>
<desc>lat.=55.908028, lon.=26.538361, Alt.=127.631897m. Speed=13.176000m/h.</desc>
<speed>3.660000</speed>
</trkpt>
<trkpt lat="55.908054" lon="26.538395">
<ele>127.915100</ele>
<time>2010-08-29T07:48:17Z</time>
<desc>lat.=55.908054, lon.=26.538395, Alt.=127.915100m. Speed=13.536000m/h.</desc>
<speed>3.760000</speed>
</trkpt>
<trkpt lat="55.908085" lon="26.538431">
<ele>128.209106</ele>
<time>2010-08-29T07:48:18Z</time>
<desc>lat.=55.908085, lon.=26.538431, Alt.=128.209106m. Speed=13.140000m/h.</desc>
<speed>3.650000</speed>
</trkpt>
<trkpt lat="55.908108" lon="26.538469">
<ele>128.509888</ele>
<time>2010-08-29T07:48:19Z</time>
<desc>lat.=55.908108, lon.=26.538469, Alt.=128.509888m. Speed=13.248000m/h.</desc>
<speed>3.680000</speed>
</trkpt>
<trkpt lat="55.908134" lon="26.538504">
<ele>128.966919</ele>
<time>2010-08-29T07:48:20Z</time>
<desc>lat.=55.908134, lon.=26.538504, Alt.=128.966919m. Speed=12.420000m/h.</desc>
<speed>3.450000</speed>
</trkpt>
<trkpt lat="55.908165" lon="26.538536">
<ele>129.099731</ele>
<time>2010-08-29T07:48:21Z</time>
<desc>lat.=55.908165, lon.=26.538536, Alt.=129.099731m. Speed=13.644000m/h.</desc>
<speed>3.790000</speed>
</trkpt>
<trkpt lat="55.908188" lon="26.538572">
<ele>129.232544</ele>
<time>2010-08-29T07:48:22Z</time>
<desc>lat.=55.908188, lon.=26.538572, Alt.=129.232544m. Speed=12.384000m/h.</desc>
<speed>3.440000</speed>
</trkpt>
<trkpt lat="55.908211" lon="26.538603">
<ele>129.732544</ele>
<time>2010-08-29T07:48:23Z</time>
<desc>lat.=55.908211, lon.=26.538603, Alt.=129.732544m. Speed=12.348000m/h.</desc>
<speed>3.430000</speed>
</trkpt>
<trkpt lat="55.908226" lon="26.538639">
<ele>130.162231</ele>
<time>2010-08-29T07:48:24Z</time>
<desc>lat.=55.908226, lon.=26.538639, Alt.=130.162231m. Speed=13.428000m/h.</desc>
<speed>3.730000</speed>
</trkpt>
<trkpt lat="55.908257" lon="26.538666">
<ele>130.627075</ele>
<time>2010-08-29T07:48:25Z</time>
<desc>lat.=55.908257, lon.=26.538666, Alt.=130.627075m. Speed=11.016000m/h.</desc>
<speed>3.060000</speed>
</trkpt>
<trkpt lat="55.908279" lon="26.538689">
<ele>131.201294</ele>
<time>2010-08-29T07:48:26Z</time>
<desc>lat.=55.908279, lon.=26.538689, Alt.=131.201294m. Speed=8.964000m/h.</desc>
<speed>2.490000</speed>
</trkpt>
<trkpt lat="55.908298" lon="26.538710">
<ele>131.916138</ele>
<time>2010-08-29T07:48:27Z</time>
<desc>lat.=55.908298, lon.=26.538710, Alt.=131.916138m. Speed=8.928000m/h.</desc>
<speed>2.480000</speed>
</trkpt>
<trkpt lat="55.908318" lon="26.538733">
<ele>132.427856</ele>
<time>2010-08-29T07:48:28Z</time>
<desc>lat.=55.908318, lon.=26.538733, Alt.=132.427856m. Speed=9.252000m/h.</desc>
<speed>2.570000</speed>
</trkpt>
<trkpt lat="55.908337" lon="26.538757">
<ele>132.912231</ele>
<time>2010-08-29T07:48:29Z</time>
<desc>lat.=55.908337, lon.=26.538757, Alt.=132.912231m. Speed=8.820000m/h.</desc>
<speed>2.450000</speed>
</trkpt>
<trkpt lat="55.908356" lon="26.538780">
<ele>133.423950</ele>
<time>2010-08-29T07:48:30Z</time>
<desc>lat.=55.908356, lon.=26.538780, Alt.=133.423950m. Speed=8.676000m/h.</desc>
<speed>2.410000</speed>
</trkpt>
<trkpt lat="55.908375" lon="26.538813">
<ele>133.494263</ele>
<time>2010-08-29T07:48:31Z</time>
<desc>lat.=55.908375, lon.=26.538813, Alt.=133.494263m. Speed=10.296000m/h.</desc>
<speed>2.860000</speed>
</trkpt>
<trkpt lat="55.908401" lon="26.538832">
<ele>133.994263</ele>
<time>2010-08-29T07:48:32Z</time>
<desc>lat.=55.908401, lon.=26.538832, Alt.=133.994263m. Speed=9.396000m/h.</desc>
<speed>2.610000</speed>
</trkpt>
<trkpt lat="55.908432" lon="26.538857">
<ele>134.279419</ele>
<time>2010-08-29T07:48:33Z</time>
<desc>lat.=55.908432, lon.=26.538857, Alt.=134.279419m. Speed=11.808000m/h.</desc>
<speed>3.280000</speed>
</trkpt>
<trkpt lat="55.908455" lon="26.538876">
<ele>134.892700</ele>
<time>2010-08-29T07:48:34Z</time>
<desc>lat.=55.908455, lon.=26.538876, Alt.=134.892700m. Speed=8.604000m/h.</desc>
<speed>2.390000</speed>
</trkpt>
<trkpt lat="55.908478" lon="26.538889">
<ele>135.252075</ele>
<time>2010-08-29T07:48:35Z</time>
<desc>lat.=55.908478, lon.=26.538889, Alt.=135.252075m. Speed=6.840000m/h.</desc>
<speed>1.900000</speed>
</trkpt>
<trkpt lat="55.908493" lon="26.538902">
<ele>135.861450</ele>
<time>2010-08-29T07:48:36Z</time>
<desc>lat.=55.908493, lon.=26.538902, Alt.=135.861450m. Speed=7.524000m/h.</desc>
<speed>2.090000</speed>
</trkpt>
<trkpt lat="55.908527" lon="26.538927">
<ele>136.541138</ele>
<time>2010-08-29T07:48:37Z</time>
<desc>lat.=55.908527, lon.=26.538927, Alt.=136.541138m. Speed=7.452000m/h.</desc>
<speed>2.070000</speed>
</trkpt>
<trkpt lat="55.908546" lon="26.538944">
<ele>137.017700</ele>
<time>2010-08-29T07:48:38Z</time>
<desc>lat.=55.908546, lon.=26.538944, Alt.=137.017700m. Speed=7.020000m/h.</desc>
<speed>1.950000</speed>
</trkpt>
<trkpt lat="55.908562" lon="26.538975">
<ele>137.154419</ele>
<time>2010-08-29T07:48:39Z</time>
<desc>lat.=55.908562, lon.=26.538975, Alt.=137.154419m. Speed=9.468000m/h.</desc>
<speed>2.630000</speed>
</trkpt>
<trkpt lat="55.908581" lon="26.539000">
<ele>137.400513</ele>
<time>2010-08-29T07:48:40Z</time>
<desc>lat.=55.908581, lon.=26.539000, Alt.=137.400513m. Speed=10.332000m/h.</desc>
<speed>2.870000</speed>
</trkpt>
<trkpt lat="55.908607" lon="26.539024">
<ele>137.916138</ele>
<time>2010-08-29T07:48:41Z</time>
<desc>lat.=55.908607, lon.=26.539024, Alt.=137.916138m. Speed=9.792000m/h.</desc>
<speed>2.720000</speed>
</trkpt>
<trkpt lat="55.908649" lon="26.539043">
<ele>136.275513</ele>
<time>2010-08-29T07:48:42Z</time>
<desc>lat.=55.908649, lon.=26.539043, Alt.=136.275513m. Speed=12.348000m/h.</desc>
<speed>3.430000</speed>
</trkpt>
<trkpt lat="55.908695" lon="26.539061">
<ele>134.170044</ele>
<time>2010-08-29T07:48:43Z</time>
<desc>lat.=55.908695, lon.=26.539061, Alt.=134.170044m. Speed=11.664000m/h.</desc>
<speed>3.240000</speed>
</trkpt>
<trkpt lat="55.908718" lon="26.539083">
<ele>132.845825</ele>
<time>2010-08-29T07:48:44Z</time>
<desc>lat.=55.908718, lon.=26.539083, Alt.=132.845825m. Speed=7.848000m/h.</desc>
<speed>2.180000</speed>
</trkpt>
<trkpt lat="55.908737" lon="26.539103">
<ele>132.291138</ele>
<time>2010-08-29T07:48:45Z</time>
<desc>lat.=55.908737, lon.=26.539103, Alt.=132.291138m. Speed=9.396000m/h.</desc>
<speed>2.610000</speed>
</trkpt>
<trkpt lat="55.908768" lon="26.539127">
<ele>131.060669</ele>
<time>2010-08-29T07:48:46Z</time>
<desc>lat.=55.908768, lon.=26.539127, Alt.=131.060669m. Speed=9.144000m/h.</desc>
<speed>2.540000</speed>
</trkpt>
<trkpt lat="55.908791" lon="26.539148">
<ele>130.088013</ele>
<time>2010-08-29T07:48:47Z</time>
<desc>lat.=55.908791, lon.=26.539148, Alt.=130.088013m. Speed=8.640000m/h.</desc>
<speed>2.400000</speed>
</trkpt>
<trkpt lat="55.908821" lon="26.539177">
<ele>129.713013</ele>
<time>2010-08-29T07:48:48Z</time>
<desc>lat.=55.908821, lon.=26.539177, Alt.=129.713013m. Speed=8.352000m/h.</desc>
<speed>2.320000</speed>
</trkpt>
<trkpt lat="55.908844" lon="26.539198">
<ele>128.853638</ele>
<time>2010-08-29T07:48:49Z</time>
<desc>lat.=55.908844, lon.=26.539198, Alt.=128.853638m. Speed=9.036000m/h.</desc>
<speed>2.510000</speed>
</trkpt>
<trkpt lat="55.908859" lon="26.539223">
<ele>128.634888</ele>
<time>2010-08-29T07:48:50Z</time>
<desc>lat.=55.908859, lon.=26.539223, Alt.=128.634888m. Speed=8.712000m/h.</desc>
<speed>2.420000</speed>
</trkpt>
<trkpt lat="55.908878" lon="26.539246">
<ele>127.616272</ele>
<time>2010-08-29T07:48:51Z</time>
<desc>lat.=55.908878, lon.=26.539246, Alt.=127.616272m. Speed=9.648000m/h.</desc>
<speed>2.680000</speed>
</trkpt>
<trkpt lat="55.908901" lon="26.539259">
<ele>127.065491</ele>
<time>2010-08-29T07:48:52Z</time>
<desc>lat.=55.908901, lon.=26.539259, Alt.=127.065491m. Speed=9.612000m/h.</desc>
<speed>2.670000</speed>
</trkpt>
<trkpt lat="55.908924" lon="26.539280">
<ele>126.196350</ele>
<time>2010-08-29T07:48:53Z</time>
<desc>lat.=55.908924, lon.=26.539280, Alt.=126.196350m. Speed=9.756000m/h.</desc>
<speed>2.710000</speed>
</trkpt>
<trkpt lat="55.908947" lon="26.539303">
<ele>125.376038</ele>
<time>2010-08-29T07:48:54Z</time>
<desc>lat.=55.908947, lon.=26.539303, Alt.=125.376038m. Speed=8.496000m/h.</desc>
<speed>2.360000</speed>
</trkpt>
<trkpt lat="55.908970" lon="26.539324">
<ele>124.747131</ele>
<time>2010-08-29T07:48:55Z</time>
<desc>lat.=55.908970, lon.=26.539324, Alt.=124.747131m. Speed=7.920000m/h.</desc>
<speed>2.200000</speed>
</trkpt>
<trkpt lat="55.908989" lon="26.539335">
<ele>124.252991</ele>
<time>2010-08-29T07:48:56Z</time>
<desc>lat.=55.908989, lon.=26.539335, Alt.=124.252991m. Speed=6.192000m/h.</desc>
<speed>1.720000</speed>
</trkpt>
<trkpt lat="55.909004" lon="26.539349">
<ele>123.567444</ele>
<time>2010-08-29T07:48:57Z</time>
<desc>lat.=55.909004, lon.=26.539349, Alt.=123.567444m. Speed=4.392000m/h.</desc>
<speed>1.220000</speed>
</trkpt>
<trkpt lat="55.909016" lon="26.539364">
<ele>122.915100</ele>
<time>2010-08-29T07:48:58Z</time>
<desc>lat.=55.909016, lon.=26.539364, Alt.=122.915100m. Speed=5.040000m/h.</desc>
<speed>1.400000</speed>
</trkpt>
<trkpt lat="55.909031" lon="26.539383">
<ele>122.073303</ele>
<time>2010-08-29T07:48:59Z</time>
<desc>lat.=55.909031, lon.=26.539383, Alt.=122.073303m. Speed=5.508000m/h.</desc>
<speed>1.530000</speed>
</trkpt>
<trkpt lat="55.909050" lon="26.539404">
<ele>122.141663</ele>
<time>2010-08-29T07:49:00Z</time>
<desc>lat.=55.909050, lon.=26.539404, Alt.=122.141663m. Speed=6.552000m/h.</desc>
<speed>1.820000</speed>
</trkpt>
<trkpt lat="55.909069" lon="26.539419">
<ele>121.932678</ele>
<time>2010-08-29T07:49:01Z</time>
<desc>lat.=55.909069, lon.=26.539419, Alt.=121.932678m. Speed=8.604000m/h.</desc>
<speed>2.390000</speed>
</trkpt>
<trkpt lat="55.909088" lon="26.539440">
<ele>122.047913</ele>
<time>2010-08-29T07:49:02Z</time>
<desc>lat.=55.909088, lon.=26.539440, Alt.=122.047913m. Speed=8.028000m/h.</desc>
<speed>2.230000</speed>
</trkpt>
<trkpt lat="55.909103" lon="26.539463">
<ele>122.024475</ele>
<time>2010-08-29T07:49:03Z</time>
<desc>lat.=55.909103, lon.=26.539463, Alt.=122.024475m. Speed=9.036000m/h.</desc>
<speed>2.510000</speed>
</trkpt>
<trkpt lat="55.909126" lon="26.539488">
<ele>122.004944</ele>
<time>2010-08-29T07:49:04Z</time>
<desc>lat.=55.909126, lon.=26.539488, Alt.=122.004944m. Speed=9.396000m/h.</desc>
<speed>2.610000</speed>
</trkpt>
<trkpt lat="55.909149" lon="26.539513">
<ele>122.229553</ele>
<time>2010-08-29T07:49:05Z</time>
<desc>lat.=55.909149, lon.=26.539513, Alt.=122.229553m. Speed=8.532000m/h.</desc>
<speed>2.370000</speed>
</trkpt>
<trkpt lat="55.909164" lon="26.539539">
<ele>122.249084</ele>
<time>2010-08-29T07:49:06Z</time>
<desc>lat.=55.909164, lon.=26.539539, Alt.=122.249084m. Speed=8.856000m/h.</desc>
<speed>2.460000</speed>
</trkpt>
<trkpt lat="55.909184" lon="26.539562">
<ele>122.309631</ele>
<time>2010-08-29T07:49:07Z</time>
<desc>lat.=55.909184, lon.=26.539562, Alt.=122.309631m. Speed=9.036000m/h.</desc>
<speed>2.510000</speed>
</trkpt>
<trkpt lat="55.909203" lon="26.539583">
<ele>122.356506</ele>
<time>2010-08-29T07:49:08Z</time>
<desc>lat.=55.909203, lon.=26.539583, Alt.=122.356506m. Speed=8.748000m/h.</desc>
<speed>2.430000</speed>
</trkpt>
<trkpt lat="55.909218" lon="26.539604">
<ele>122.549866</ele>
<time>2010-08-29T07:49:09Z</time>
<desc>lat.=55.909218, lon.=26.539604, Alt.=122.549866m. Speed=7.812000m/h.</desc>
<speed>2.170000</speed>
</trkpt>
<trkpt lat="55.909233" lon="26.539623">
<ele>122.708069</ele>
<time>2010-08-29T07:49:10Z</time>
<desc>lat.=55.909233, lon.=26.539623, Alt.=122.708069m. Speed=8.388000m/h.</desc>
<speed>2.330000</speed>
</trkpt>
<trkpt lat="55.909256" lon="26.539648">
<ele>122.579163</ele>
<time>2010-08-29T07:49:11Z</time>
<desc>lat.=55.909256, lon.=26.539648, Alt.=122.579163m. Speed=9.684000m/h.</desc>
<speed>2.690000</speed>
</trkpt>
<trkpt lat="55.909275" lon="26.539669">
<ele>122.758850</ele>
<time>2010-08-29T07:49:12Z</time>
<desc>lat.=55.909275, lon.=26.539669, Alt.=122.758850m. Speed=8.820000m/h.</desc>
<speed>2.450000</speed>
</trkpt>
<trkpt lat="55.909298" lon="26.539686">
<ele>123.053772</ele>
<time>2010-08-29T07:49:13Z</time>
<desc>lat.=55.909298, lon.=26.539686, Alt.=123.053772m. Speed=9.900000m/h.</desc>
<speed>2.750000</speed>
</trkpt>
<trkpt lat="55.909325" lon="26.539703">
<ele>123.424866</ele>
<time>2010-08-29T07:49:14Z</time>
<desc>lat.=55.909325, lon.=26.539703, Alt.=123.424866m. Speed=10.980000m/h.</desc>
<speed>3.050000</speed>
</trkpt>
<trkpt lat="55.909359" lon="26.539726">
<ele>123.528381</ele>
<time>2010-08-29T07:49:15Z</time>
<desc>lat.=55.909359, lon.=26.539726, Alt.=123.528381m. Speed=12.528000m/h.</desc>
<speed>3.480000</speed>
</trkpt>
<trkpt lat="55.909397" lon="26.539753">
<ele>123.821350</ele>
<time>2010-08-29T07:49:16Z</time>
<desc>lat.=55.909397, lon.=26.539753, Alt.=123.821350m. Speed=13.176000m/h.</desc>
<speed>3.660000</speed>
</trkpt>
<trkpt lat="55.909443" lon="26.539783">
<ele>124.112366</ele>
<time>2010-08-29T07:49:17Z</time>
<desc>lat.=55.909443, lon.=26.539783, Alt.=124.112366m. Speed=16.344000m/h.</desc>
<speed>4.540000</speed>
</trkpt>
<trkpt lat="55.909489" lon="26.539820">
<ele>124.260803</ele>
<time>2010-08-29T07:49:18Z</time>
<desc>lat.=55.909489, lon.=26.539820, Alt.=124.260803m. Speed=16.812000m/h.</desc>
<speed>4.670000</speed>
</trkpt>
<trkpt lat="55.909534" lon="26.539856">
<ele>123.977600</ele>
<time>2010-08-29T07:49:19Z</time>
<desc>lat.=55.909534, lon.=26.539856, Alt.=123.977600m. Speed=17.388000m/h.</desc>
<speed>4.830000</speed>
</trkpt>
<trkpt lat="55.909576" lon="26.539902">
<ele>124.174866</ele>
<time>2010-08-29T07:49:20Z</time>
<desc>lat.=55.909576, lon.=26.539902, Alt.=124.174866m. Speed=18.360001m/h.</desc>
<speed>5.100000</speed>
</trkpt>
<trkpt lat="55.909611" lon="26.539955">
<ele>124.239319</ele>
<time>2010-08-29T07:49:21Z</time>
<desc>lat.=55.909611, lon.=26.539955, Alt.=124.239319m. Speed=17.676001m/h.</desc>
<speed>4.910000</speed>
</trkpt>
<trkpt lat="55.909637" lon="26.540016">
<ele>123.278381</ele>
<time>2010-08-29T07:49:22Z</time>
<desc>lat.=55.909637, lon.=26.540016, Alt.=123.278381m. Speed=19.007999m/h.</desc>
<speed>5.280000</speed>
</trkpt>
<trkpt lat="55.909672" lon="26.540071">
<ele>123.919006</ele>
<time>2010-08-29T07:49:23Z</time>
<desc>lat.=55.909672, lon.=26.540071, Alt.=123.919006m. Speed=18.540001m/h.</desc>
<speed>5.150000</speed>
</trkpt>
<trkpt lat="55.909702" lon="26.540125">
<ele>123.733459</ele>
<time>2010-08-29T07:49:24Z</time>
<desc>lat.=55.909702, lon.=26.540125, Alt.=123.733459m. Speed=17.820000m/h.</desc>
<speed>4.950000</speed>
</trkpt>
<trkpt lat="55.909729" lon="26.540173">
<ele>123.723694</ele>
<time>2010-08-29T07:49:25Z</time>
<desc>lat.=55.909729, lon.=26.540173, Alt.=123.723694m. Speed=15.660000m/h.</desc>
<speed>4.350000</speed>
</trkpt>
<trkpt lat="55.909740" lon="26.540216">
<ele>123.018616</ele>
<time>2010-08-29T07:49:26Z</time>
<desc>lat.=55.909740, lon.=26.540216, Alt.=123.018616m. Speed=15.624000m/h.</desc>
<speed>4.340000</speed>
</trkpt>
<trkpt lat="55.909763" lon="26.540247">
<ele>122.422913</ele>
<time>2010-08-29T07:49:27Z</time>
<desc>lat.=55.909763, lon.=26.540247, Alt.=122.422913m. Speed=17.280001m/h.</desc>
<speed>4.800000</speed>
</trkpt>
<trkpt lat="55.909798" lon="26.540277">
<ele>122.727600</ele>
<time>2010-08-29T07:49:28Z</time>
<desc>lat.=55.909798, lon.=26.540277, Alt.=122.727600m. Speed=16.379999m/h.</desc>
<speed>4.550000</speed>
</trkpt>
<trkpt lat="55.909828" lon="26.540310">
<ele>121.219788</ele>
<time>2010-08-29T07:49:29Z</time>
<desc>lat.=55.909828, lon.=26.540310, Alt.=121.219788m. Speed=16.379999m/h.</desc>
<speed>4.550000</speed>
</trkpt>
<trkpt lat="55.909866" lon="26.540337">
<ele>122.045959</ele>
<time>2010-08-29T07:49:30Z</time>
<desc>lat.=55.909866, lon.=26.540337, Alt.=122.045959m. Speed=16.559999m/h.</desc>
<speed>4.600000</speed>
</trkpt>
<trkpt lat="55.909904" lon="26.540361">
<ele>121.794006</ele>
<time>2010-08-29T07:49:31Z</time>
<desc>lat.=55.909904, lon.=26.540361, Alt.=121.794006m. Speed=16.704000m/h.</desc>
<speed>4.640000</speed>
</trkpt>
<trkpt lat="55.909939" lon="26.540388">
<ele>121.805725</ele>
<time>2010-08-29T07:49:32Z</time>
<desc>lat.=55.909939, lon.=26.540388, Alt.=121.805725m. Speed=17.028000m/h.</desc>
<speed>4.730000</speed>
</trkpt>
<trkpt lat="55.909981" lon="26.540411">
<ele>121.821350</ele>
<time>2010-08-29T07:49:33Z</time>
<desc>lat.=55.909981, lon.=26.540411, Alt.=121.821350m. Speed=15.984000m/h.</desc>
<speed>4.440000</speed>
</trkpt>
<trkpt lat="55.910019" lon="26.540426">
<ele>121.670959</ele>
<time>2010-08-29T07:49:34Z</time>
<desc>lat.=55.910019, lon.=26.540426, Alt.=121.670959m. Speed=15.192000m/h.</desc>
<speed>4.220000</speed>
</trkpt>
<trkpt lat="55.910053" lon="26.540445">
<ele>121.479553</ele>
<time>2010-08-29T07:49:35Z</time>
<desc>lat.=55.910053, lon.=26.540445, Alt.=121.479553m. Speed=14.256000m/h.</desc>
<speed>3.960000</speed>
</trkpt>
<trkpt lat="55.910088" lon="26.540462">
<ele>121.571350</ele>
<time>2010-08-29T07:49:36Z</time>
<desc>lat.=55.910088, lon.=26.540462, Alt.=121.571350m. Speed=13.608000m/h.</desc>
<speed>3.780000</speed>
</trkpt>
<trkpt lat="55.910118" lon="26.540474">
<ele>121.499084</ele>
<time>2010-08-29T07:49:37Z</time>
<desc>lat.=55.910118, lon.=26.540474, Alt.=121.499084m. Speed=12.600000m/h.</desc>
<speed>3.500000</speed>
</trkpt>
<trkpt lat="55.910149" lon="26.540483">
<ele>121.463928</ele>
<time>2010-08-29T07:49:38Z</time>
<desc>lat.=55.910149, lon.=26.540483, Alt.=121.463928m. Speed=11.952000m/h.</desc>
<speed>3.320000</speed>
</trkpt>
<trkpt lat="55.910175" lon="26.540489">
<ele>121.309631</ele>
<time>2010-08-29T07:49:39Z</time>
<desc>lat.=55.910175, lon.=26.540489, Alt.=121.309631m. Speed=10.872000m/h.</desc>
<speed>3.020000</speed>
</trkpt>
<trkpt lat="55.910198" lon="26.540495">
<ele>121.131897</ele>
<time>2010-08-29T07:49:40Z</time>
<desc>lat.=55.910198, lon.=26.540495, Alt.=121.131897m. Speed=10.080000m/h.</desc>
<speed>2.800000</speed>
</trkpt>
<trkpt lat="55.910221" lon="26.540499">
<ele>121.100647</ele>
<time>2010-08-29T07:49:41Z</time>
<desc>lat.=55.910221, lon.=26.540499, Alt.=121.100647m. Speed=9.072000m/h.</desc>
<speed>2.520000</speed>
</trkpt>
<trkpt lat="55.910240" lon="26.540504">
<ele>120.983459</ele>
<time>2010-08-29T07:49:42Z</time>
<desc>lat.=55.910240, lon.=26.540504, Alt.=120.983459m. Speed=9.216000m/h.</desc>
<speed>2.560000</speed>
</trkpt>
<trkpt lat="55.910259" lon="26.540514">
<ele>120.891663</ele>
<time>2010-08-29T07:49:43Z</time>
<desc>lat.=55.910259, lon.=26.540514, Alt.=120.891663m. Speed=9.828000m/h.</desc>
<speed>2.730000</speed>
</trkpt>
<trkpt lat="55.910286" lon="26.540525">
<ele>121.034241</ele>
<time>2010-08-29T07:49:44Z</time>
<desc>lat.=55.910286, lon.=26.540525, Alt.=121.034241m. Speed=10.548000m/h.</desc>
<speed>2.930000</speed>
</trkpt>
<trkpt lat="55.910305" lon="26.540533">
<ele>121.077209</ele>
<time>2010-08-29T07:49:45Z</time>
<desc>lat.=55.910305, lon.=26.540533, Alt.=121.077209m. Speed=10.584000m/h.</desc>
<speed>2.940000</speed>
</trkpt>
<trkpt lat="55.910332" lon="26.540548">
<ele>121.239319</ele>
<time>2010-08-29T07:49:46Z</time>
<desc>lat.=55.910332, lon.=26.540548, Alt.=121.239319m. Speed=11.592000m/h.</desc>
<speed>3.220000</speed>
</trkpt>
<trkpt lat="55.910362" lon="26.540556">
<ele>121.499084</ele>
<time>2010-08-29T07:49:47Z</time>
<desc>lat.=55.910362, lon.=26.540556, Alt.=121.499084m. Speed=12.168000m/h.</desc>
<speed>3.380000</speed>
</trkpt>
<trkpt lat="55.910393" lon="26.540564">
<ele>121.266663</ele>
<time>2010-08-29T07:49:48Z</time>
<desc>lat.=55.910393, lon.=26.540564, Alt.=121.266663m. Speed=12.492000m/h.</desc>
<speed>3.470000</speed>
</trkpt>
<trkpt lat="55.910423" lon="26.540575">
<ele>121.592834</ele>
<time>2010-08-29T07:49:49Z</time>
<desc>lat.=55.910423, lon.=26.540575, Alt.=121.592834m. Speed=13.104000m/h.</desc>
<speed>3.640000</speed>
</trkpt>
<trkpt lat="55.910454" lon="26.540585">
<ele>121.526428</ele>
<time>2010-08-29T07:49:50Z</time>
<desc>lat.=55.910454, lon.=26.540585, Alt.=121.526428m. Speed=13.752000m/h.</desc>
<speed>3.820000</speed>
</trkpt>
<trkpt lat="55.910488" lon="26.540602">
<ele>121.965881</ele>
<time>2010-08-29T07:49:51Z</time>
<desc>lat.=55.910488, lon.=26.540602, Alt.=121.965881m. Speed=14.508000m/h.</desc>
<speed>4.030000</speed>
</trkpt>
<trkpt lat="55.910522" lon="26.540625">
<ele>122.233459</ele>
<time>2010-08-29T07:49:52Z</time>
<desc>lat.=55.910522, lon.=26.540625, Alt.=122.233459m. Speed=14.652000m/h.</desc>
<speed>4.070000</speed>
</trkpt>
<trkpt lat="55.910553" lon="26.540651">
<ele>122.286194</ele>
<time>2010-08-29T07:49:53Z</time>
<desc>lat.=55.910553, lon.=26.540651, Alt.=122.286194m. Speed=14.436000m/h.</desc>
<speed>4.010000</speed>
</trkpt>
<trkpt lat="55.910591" lon="26.540678">
<ele>122.335022</ele>
<time>2010-08-29T07:49:54Z</time>
<desc>lat.=55.910591, lon.=26.540678, Alt.=122.335022m. Speed=14.508000m/h.</desc>
<speed>4.030000</speed>
</trkpt>
<trkpt lat="55.910622" lon="26.540699">
<ele>122.157288</ele>
<time>2010-08-29T07:49:55Z</time>
<desc>lat.=55.910622, lon.=26.540699, Alt.=122.157288m. Speed=13.248000m/h.</desc>
<speed>3.680000</speed>
</trkpt>
<trkpt lat="55.910652" lon="26.540720">
<ele>121.907288</ele>
<time>2010-08-29T07:49:56Z</time>
<desc>lat.=55.910652, lon.=26.540720, Alt.=121.907288m. Speed=13.824000m/h.</desc>
<speed>3.840000</speed>
</trkpt>
<trkpt lat="55.910686" lon="26.540743">
<ele>121.563538</ele>
<time>2010-08-29T07:49:57Z</time>
<desc>lat.=55.910686, lon.=26.540743, Alt.=121.563538m. Speed=11.772000m/h.</desc>
<speed>3.270000</speed>
</trkpt>
<trkpt lat="55.910717" lon="26.540764">
<ele>120.690491</ele>
<time>2010-08-29T07:49:58Z</time>
<desc>lat.=55.910717, lon.=26.540764, Alt.=120.690491m. Speed=13.896000m/h.</desc>
<speed>3.860000</speed>
</trkpt>
<trkpt lat="55.910751" lon="26.540796">
<ele>120.389709</ele>
<time>2010-08-29T07:49:59Z</time>
<desc>lat.=55.910751, lon.=26.540796, Alt.=120.389709m. Speed=14.940000m/h.</desc>
<speed>4.150000</speed>
</trkpt>
<trkpt lat="55.910789" lon="26.540833">
<ele>120.061584</ele>
<time>2010-08-29T07:50:00Z</time>
<desc>lat.=55.910789, lon.=26.540833, Alt.=120.061584m. Speed=16.955999m/h.</desc>
<speed>4.710000</speed>
</trkpt>
<trkpt lat="55.910831" lon="26.540869">
<ele>119.827209</ele>
<time>2010-08-29T07:50:01Z</time>
<desc>lat.=55.910831, lon.=26.540869, Alt.=119.827209m. Speed=17.280001m/h.</desc>
<speed>4.800000</speed>
</trkpt>
<trkpt lat="55.910870" lon="26.540895">
<ele>119.659241</ele>
<time>2010-08-29T07:50:02Z</time>
<desc>lat.=55.910870, lon.=26.540895, Alt.=119.659241m. Speed=14.148000m/h.</desc>
<speed>3.930000</speed>
</trkpt>
<trkpt lat="55.910908" lon="26.540915">
<ele>119.547913</ele>
<time>2010-08-29T07:50:03Z</time>
<desc>lat.=55.910908, lon.=26.540915, Alt.=119.547913m. Speed=14.508000m/h.</desc>
<speed>4.030000</speed>
</trkpt>
<trkpt lat="55.910950" lon="26.540936">
<ele>119.151428</ele>
<time>2010-08-29T07:50:04Z</time>
<desc>lat.=55.910950, lon.=26.540936, Alt.=119.151428m. Speed=17.424000m/h.</desc>
<speed>4.840000</speed>
</trkpt>
<trkpt lat="55.910995" lon="26.540962">
<ele>118.965881</ele>
<time>2010-08-29T07:50:05Z</time>
<desc>lat.=55.910995, lon.=26.540962, Alt.=118.965881m. Speed=17.676001m/h.</desc>
<speed>4.910000</speed>
</trkpt>
<trkpt lat="55.911037" lon="26.540981">
<ele>118.680725</ele>
<time>2010-08-29T07:50:06Z</time>
<desc>lat.=55.911037, lon.=26.540981, Alt.=118.680725m. Speed=16.271999m/h.</desc>
<speed>4.520000</speed>
</trkpt>
<trkpt lat="55.911076" lon="26.540991">
<ele>118.276428</ele>
<time>2010-08-29T07:50:07Z</time>
<desc>lat.=55.911076, lon.=26.540991, Alt.=118.276428m. Speed=16.632000m/h.</desc>
<speed>4.620000</speed>
</trkpt>
<trkpt lat="55.911114" lon="26.541006">
<ele>118.065491</ele>
<time>2010-08-29T07:50:08Z</time>
<desc>lat.=55.911114, lon.=26.541006, Alt.=118.065491m. Speed=13.068000m/h.</desc>
<speed>3.630000</speed>
</trkpt>
<trkpt lat="55.911156" lon="26.541016">
<ele>118.129944</ele>
<time>2010-08-29T07:50:09Z</time>
<desc>lat.=55.911156, lon.=26.541016, Alt.=118.129944m. Speed=11.880000m/h.</desc>
<speed>3.300000</speed>
</trkpt>
<trkpt lat="55.911190" lon="26.541031">
<ele>118.147522</ele>
<time>2010-08-29T07:50:10Z</time>
<desc>lat.=55.911190, lon.=26.541031, Alt.=118.147522m. Speed=12.996000m/h.</desc>
<speed>3.610000</speed>
</trkpt>
<trkpt lat="55.911221" lon="26.541040">
<ele>118.106506</ele>
<time>2010-08-29T07:50:11Z</time>
<desc>lat.=55.911221, lon.=26.541040, Alt.=118.106506m. Speed=10.800000m/h.</desc>
<speed>3.000000</speed>
</trkpt>
<trkpt lat="55.911243" lon="26.541050">
<ele>117.934631</ele>
<time>2010-08-29T07:50:12Z</time>
<desc>lat.=55.911243, lon.=26.541050, Alt.=117.934631m. Speed=11.628000m/h.</desc>
<speed>3.230000</speed>
</trkpt>
<trkpt lat="55.911278" lon="26.541065">
<ele>118.399475</ele>
<time>2010-08-29T07:50:13Z</time>
<desc>lat.=55.911278, lon.=26.541065, Alt.=118.399475m. Speed=13.716000m/h.</desc>
<speed>3.810000</speed>
</trkpt>
<trkpt lat="55.911320" lon="26.541077">
<ele>119.245178</ele>
<time>2010-08-29T07:50:14Z</time>
<desc>lat.=55.911320, lon.=26.541077, Alt.=119.245178m. Speed=14.400000m/h.</desc>
<speed>4.000000</speed>
</trkpt>
<trkpt lat="55.911366" lon="26.541092">
<ele>119.569397</ele>
<time>2010-08-29T07:50:15Z</time>
<desc>lat.=55.911366, lon.=26.541092, Alt.=119.569397m. Speed=15.876000m/h.</desc>
<speed>4.410000</speed>
</trkpt>
<trkpt lat="55.911411" lon="26.541107">
<ele>120.192444</ele>
<time>2010-08-29T07:50:16Z</time>
<desc>lat.=55.911411, lon.=26.541107, Alt.=120.192444m. Speed=16.056000m/h.</desc>
<speed>4.460000</speed>
</trkpt>
<trkpt lat="55.911453" lon="26.541119">
<ele>120.049866</ele>
<time>2010-08-29T07:50:17Z</time>
<desc>lat.=55.911453, lon.=26.541119, Alt.=120.049866m. Speed=15.516000m/h.</desc>
<speed>4.310000</speed>
</trkpt>
<trkpt lat="55.911495" lon="26.541122">
<ele>120.213928</ele>
<time>2010-08-29T07:50:18Z</time>
<desc>lat.=55.911495, lon.=26.541122, Alt.=120.213928m. Speed=15.876000m/h.</desc>
<speed>4.410000</speed>
</trkpt>
<trkpt lat="55.911533" lon="26.541128">
<ele>120.344788</ele>
<time>2010-08-29T07:50:19Z</time>
<desc>lat.=55.911533, lon.=26.541128, Alt.=120.344788m. Speed=14.040000m/h.</desc>
<speed>3.900000</speed>
</trkpt>
<trkpt lat="55.911572" lon="26.541130">
<ele>121.086975</ele>
<time>2010-08-29T07:50:20Z</time>
<desc>lat.=55.911572, lon.=26.541130, Alt.=121.086975m. Speed=12.780000m/h.</desc>
<speed>3.550000</speed>
</trkpt>
<trkpt lat="55.911606" lon="26.541138">
<ele>121.813538</ele>
<time>2010-08-29T07:50:21Z</time>
<desc>lat.=55.911606, lon.=26.541138, Alt.=121.813538m. Speed=13.284000m/h.</desc>
<speed>3.690000</speed>
</trkpt>
<trkpt lat="55.911644" lon="26.541145">
<ele>122.786194</ele>
<time>2010-08-29T07:50:22Z</time>
<desc>lat.=55.911644, lon.=26.541145, Alt.=122.786194m. Speed=14.976000m/h.</desc>
<speed>4.160000</speed>
</trkpt>
<trkpt lat="55.911678" lon="26.541153">
<ele>123.229553</ele>
<time>2010-08-29T07:50:23Z</time>
<desc>lat.=55.911678, lon.=26.541153, Alt.=123.229553m. Speed=11.988000m/h.</desc>
<speed>3.330000</speed>
</trkpt>
<trkpt lat="55.911705" lon="26.541162">
<ele>123.661194</ele>
<time>2010-08-29T07:50:24Z</time>
<desc>lat.=55.911705, lon.=26.541162, Alt.=123.661194m. Speed=11.304000m/h.</desc>
<speed>3.140000</speed>
</trkpt>
<trkpt lat="55.911728" lon="26.541168">
<ele>124.495178</ele>
<time>2010-08-29T07:50:25Z</time>
<desc>lat.=55.911728, lon.=26.541168, Alt.=124.495178m. Speed=10.188000m/h.</desc>
<speed>2.830000</speed>
</trkpt>
<trkpt lat="55.911758" lon="26.541174">
<ele>125.139709</ele>
<time>2010-08-29T07:50:26Z</time>
<desc>lat.=55.911758, lon.=26.541174, Alt.=125.139709m. Speed=11.412000m/h.</desc>
<speed>3.170000</speed>
</trkpt>
<trkpt lat="55.911800" lon="26.541195">
<ele>126.239319</ele>
<time>2010-08-29T07:50:27Z</time>
<desc>lat.=55.911800, lon.=26.541195, Alt.=126.239319m. Speed=13.248000m/h.</desc>
<speed>3.680000</speed>
</trkpt>
<trkpt lat="55.911835" lon="26.541208">
<ele>127.012756</ele>
<time>2010-08-29T07:50:28Z</time>
<desc>lat.=55.911835, lon.=26.541208, Alt.=127.012756m. Speed=12.888000m/h.</desc>
<speed>3.580000</speed>
</trkpt>
<trkpt lat="55.911880" lon="26.541220">
<ele>128.584106</ele>
<time>2010-08-29T07:50:29Z</time>
<desc>lat.=55.911880, lon.=26.541220, Alt.=128.584106m. Speed=14.796000m/h.</desc>
<speed>4.110000</speed>
</trkpt>
<trkpt lat="55.911919" lon="26.541231">
<ele>128.576294</ele>
<time>2010-08-29T07:50:30Z</time>
<desc>lat.=55.911919, lon.=26.541231, Alt.=128.576294m. Speed=12.996000m/h.</desc>
<speed>3.610000</speed>
</trkpt>
<trkpt lat="55.911957" lon="26.541243">
<ele>128.912231</ele>
<time>2010-08-29T07:50:31Z</time>
<desc>lat.=55.911957, lon.=26.541243, Alt.=128.912231m. Speed=10.872000m/h.</desc>
<speed>3.020000</speed>
</trkpt>
<trkpt lat="55.911980" lon="26.541250">
<ele>129.240356</ele>
<time>2010-08-29T07:50:32Z</time>
<desc>lat.=55.911980, lon.=26.541250, Alt.=129.240356m. Speed=10.944000m/h.</desc>
<speed>3.040000</speed>
</trkpt>
<trkpt lat="55.912014" lon="26.541262">
<ele>130.638794</ele>
<time>2010-08-29T07:50:33Z</time>
<desc>lat.=55.912014, lon.=26.541262, Alt.=130.638794m. Speed=9.252000m/h.</desc>
<speed>2.570000</speed>
</trkpt>
<trkpt lat="55.912041" lon="26.541269">
<ele>131.130981</ele>
<time>2010-08-29T07:50:34Z</time>
<desc>lat.=55.912041, lon.=26.541269, Alt.=131.130981m. Speed=9.900000m/h.</desc>
<speed>2.750000</speed>
</trkpt>
<trkpt lat="55.912071" lon="26.541273">
<ele>131.334106</ele>
<time>2010-08-29T07:50:35Z</time>
<desc>lat.=55.912071, lon.=26.541273, Alt.=131.334106m. Speed=10.296000m/h.</desc>
<speed>2.860000</speed>
</trkpt>
<trkpt lat="55.912109" lon="26.541277">
<ele>132.802856</ele>
<time>2010-08-29T07:50:36Z</time>
<desc>lat.=55.912109, lon.=26.541277, Alt.=132.802856m. Speed=10.224000m/h.</desc>
<speed>2.840000</speed>
</trkpt>
<trkpt lat="55.912136" lon="26.541283">
<ele>132.970825</ele>
<time>2010-08-29T07:50:37Z</time>
<desc>lat.=55.912136, lon.=26.541283, Alt.=132.970825m. Speed=9.828000m/h.</desc>
<speed>2.730000</speed>
</trkpt>
<trkpt lat="55.912174" lon="26.541273">
<ele>131.630981</ele>
<time>2010-08-29T07:50:38Z</time>
<desc>lat.=55.912174, lon.=26.541273, Alt.=131.630981m. Speed=10.116000m/h.</desc>
<speed>2.810000</speed>
</trkpt>
<trkpt lat="55.912201" lon="26.541271">
<ele>132.091919</ele>
<time>2010-08-29T07:50:39Z</time>
<desc>lat.=55.912201, lon.=26.541271, Alt.=132.091919m. Speed=9.000000m/h.</desc>
<speed>2.500000</speed>
</trkpt>
<trkpt lat="55.912228" lon="26.541267">
<ele>132.396606</ele>
<time>2010-08-29T07:50:40Z</time>
<desc>lat.=55.912228, lon.=26.541267, Alt.=132.396606m. Speed=8.856000m/h.</desc>
<speed>2.460000</speed>
</trkpt>
<trkpt lat="55.912266" lon="26.541260">
<ele>131.744263</ele>
<time>2010-08-29T07:50:41Z</time>
<desc>lat.=55.912266, lon.=26.541260, Alt.=131.744263m. Speed=9.756000m/h.</desc>
<speed>2.710000</speed>
</trkpt>
<trkpt lat="55.912292" lon="26.541262">
<ele>131.802856</ele>
<time>2010-08-29T07:50:42Z</time>
<desc>lat.=55.912292, lon.=26.541262, Alt.=131.802856m. Speed=8.028000m/h.</desc>
<speed>2.230000</speed>
</trkpt>
<trkpt lat="55.912315" lon="26.541264">
<ele>131.591919</ele>
<time>2010-08-29T07:50:43Z</time>
<desc>lat.=55.912315, lon.=26.541264, Alt.=131.591919m. Speed=10.116000m/h.</desc>
<speed>2.810000</speed>
</trkpt>
<trkpt lat="55.912342" lon="26.541264">
<ele>131.689575</ele>
<time>2010-08-29T07:50:44Z</time>
<desc>lat.=55.912342, lon.=26.541264, Alt.=131.689575m. Speed=8.460000m/h.</desc>
<speed>2.350000</speed>
</trkpt>
<trkpt lat="55.912369" lon="26.541260">
<ele>131.361450</ele>
<time>2010-08-29T07:50:45Z</time>
<desc>lat.=55.912369, lon.=26.541260, Alt.=131.361450m. Speed=8.640000m/h.</desc>
<speed>2.400000</speed>
</trkpt>
<trkpt lat="55.912388" lon="26.541260">
<ele>130.822388</ele>
<time>2010-08-29T07:50:46Z</time>
<desc>lat.=55.912388, lon.=26.541260, Alt.=130.822388m. Speed=7.956000m/h.</desc>
<speed>2.210000</speed>
</trkpt>
<trkpt lat="55.912411" lon="26.541260">
<ele>130.220825</ele>
<time>2010-08-29T07:50:47Z</time>
<desc>lat.=55.912411, lon.=26.541260, Alt.=130.220825m. Speed=7.956000m/h.</desc>
<speed>2.210000</speed>
</trkpt>
<trkpt lat="55.912434" lon="26.541256">
<ele>130.420044</ele>
<time>2010-08-29T07:50:48Z</time>
<desc>lat.=55.912434, lon.=26.541256, Alt.=130.420044m. Speed=8.820000m/h.</desc>
<speed>2.450000</speed>
</trkpt>
<trkpt lat="55.912460" lon="26.541256">
<ele>130.552856</ele>
<time>2010-08-29T07:50:49Z</time>
<desc>lat.=55.912460, lon.=26.541256, Alt.=130.552856m. Speed=9.288000m/h.</desc>
<speed>2.580000</speed>
</trkpt>
<trkpt lat="55.912491" lon="26.541252">
<ele>130.834106</ele>
<time>2010-08-29T07:50:50Z</time>
<desc>lat.=55.912491, lon.=26.541252, Alt.=130.834106m. Speed=8.928000m/h.</desc>
<speed>2.480000</speed>
</trkpt>
<trkpt lat="55.912518" lon="26.541248">
<ele>130.189575</ele>
<time>2010-08-29T07:50:51Z</time>
<desc>lat.=55.912518, lon.=26.541248, Alt.=130.189575m. Speed=9.000000m/h.</desc>
<speed>2.500000</speed>
</trkpt>
<trkpt lat="55.912552" lon="26.541239">
<ele>127.883850</ele>
<time>2010-08-29T07:50:52Z</time>
<desc>lat.=55.912552, lon.=26.541239, Alt.=127.883850m. Speed=11.628000m/h.</desc>
<speed>3.230000</speed>
</trkpt>
<trkpt lat="55.912590" lon="26.541235">
<ele>126.518616</ele>
<time>2010-08-29T07:50:53Z</time>
<desc>lat.=55.912590, lon.=26.541235, Alt.=126.518616m. Speed=11.772000m/h.</desc>
<speed>3.270000</speed>
</trkpt>
<trkpt lat="55.912621" lon="26.541229">
<ele>126.288147</ele>
<time>2010-08-29T07:50:54Z</time>
<desc>lat.=55.912621, lon.=26.541229, Alt.=126.288147m. Speed=10.836000m/h.</desc>
<speed>3.010000</speed>
</trkpt>
<trkpt lat="55.912651" lon="26.541225">
<ele>125.473694</ele>
<time>2010-08-29T07:50:55Z</time>
<desc>lat.=55.912651, lon.=26.541225, Alt.=125.473694m. Speed=10.764000m/h.</desc>
<speed>2.990000</speed>
</trkpt>
<trkpt lat="55.912685" lon="26.541222">
<ele>125.831116</ele>
<time>2010-08-29T07:50:56Z</time>
<desc>lat.=55.912685, lon.=26.541222, Alt.=125.831116m. Speed=11.376000m/h.</desc>
<speed>3.160000</speed>
</trkpt>
<trkpt lat="55.912716" lon="26.541216">
<ele>125.241272</ele>
<time>2010-08-29T07:50:57Z</time>
<desc>lat.=55.912716, lon.=26.541216, Alt.=125.241272m. Speed=11.664000m/h.</desc>
<speed>3.240000</speed>
</trkpt>
<trkpt lat="55.912746" lon="26.541216">
<ele>125.520569</ele>
<time>2010-08-29T07:50:58Z</time>
<desc>lat.=55.912746, lon.=26.541216, Alt.=125.520569m. Speed=11.304000m/h.</desc>
<speed>3.140000</speed>
</trkpt>
<trkpt lat="55.912773" lon="26.541208">
<ele>125.905334</ele>
<time>2010-08-29T07:50:59Z</time>
<desc>lat.=55.912773, lon.=26.541208, Alt.=125.905334m. Speed=10.332000m/h.</desc>
<speed>2.870000</speed>
</trkpt>
<trkpt lat="55.912800" lon="26.541201">
<ele>125.360413</ele>
<time>2010-08-29T07:51:00Z</time>
<desc>lat.=55.912800, lon.=26.541201, Alt.=125.360413m. Speed=9.468000m/h.</desc>
<speed>2.630000</speed>
</trkpt>
<trkpt lat="55.912823" lon="26.541195">
<ele>125.157288</ele>
<time>2010-08-29T07:51:01Z</time>
<desc>lat.=55.912823, lon.=26.541195, Alt.=125.157288m. Speed=8.640000m/h.</desc>
<speed>2.400000</speed>
</trkpt>
<trkpt lat="55.912842" lon="26.541195">
<ele>124.872131</ele>
<time>2010-08-29T07:51:02Z</time>
<desc>lat.=55.912842, lon.=26.541195, Alt.=124.872131m. Speed=7.560000m/h.</desc>
<speed>2.100000</speed>
</trkpt>
<trkpt lat="55.912865" lon="26.541195">
<ele>124.776428</ele>
<time>2010-08-29T07:51:03Z</time>
<desc>lat.=55.912865, lon.=26.541195, Alt.=124.776428m. Speed=8.460000m/h.</desc>
<speed>2.350000</speed>
</trkpt>
<trkpt lat="55.912888" lon="26.541195">
<ele>124.870178</ele>
<time>2010-08-29T07:51:04Z</time>
<desc>lat.=55.912888, lon.=26.541195, Alt.=124.870178m. Speed=9.288000m/h.</desc>
<speed>2.580000</speed>
</trkpt>
<trkpt lat="55.912914" lon="26.541189">
<ele>124.971741</ele>
<time>2010-08-29T07:51:05Z</time>
<desc>lat.=55.912914, lon.=26.541189, Alt.=124.971741m. Speed=10.692000m/h.</desc>
<speed>2.970000</speed>
</trkpt>
<trkpt lat="55.912941" lon="26.541183">
<ele>124.805725</ele>
<time>2010-08-29T07:51:06Z</time>
<desc>lat.=55.912941, lon.=26.541183, Alt.=124.805725m. Speed=11.340000m/h.</desc>
<speed>3.150000</speed>
</trkpt>
<trkpt lat="55.912971" lon="26.541180">
<ele>124.899475</ele>
<time>2010-08-29T07:51:07Z</time>
<desc>lat.=55.912971, lon.=26.541180, Alt.=124.899475m. Speed=11.952000m/h.</desc>
<speed>3.320000</speed>
</trkpt>
<trkpt lat="55.913002" lon="26.541180">
<ele>124.698303</ele>
<time>2010-08-29T07:51:08Z</time>
<desc>lat.=55.913002, lon.=26.541180, Alt.=124.698303m. Speed=12.456000m/h.</desc>
<speed>3.460000</speed>
</trkpt>
<trkpt lat="55.913036" lon="26.541176">
<ele>124.743225</ele>
<time>2010-08-29T07:51:09Z</time>
<desc>lat.=55.913036, lon.=26.541176, Alt.=124.743225m. Speed=12.672000m/h.</desc>
<speed>3.520000</speed>
</trkpt>
<trkpt lat="55.913067" lon="26.541168">
<ele>124.844788</ele>
<time>2010-08-29T07:51:10Z</time>
<desc>lat.=55.913067, lon.=26.541168, Alt.=124.844788m. Speed=12.852000m/h.</desc>
<speed>3.570000</speed>
</trkpt>
<trkpt lat="55.913101" lon="26.541164">
<ele>124.532288</ele>
<time>2010-08-29T07:51:11Z</time>
<desc>lat.=55.913101, lon.=26.541164, Alt.=124.532288m. Speed=12.456000m/h.</desc>
<speed>3.460000</speed>
</trkpt>
<trkpt lat="55.913136" lon="26.541161">
<ele>124.532288</ele>
<time>2010-08-29T07:51:12Z</time>
<desc>lat.=55.913136, lon.=26.541161, Alt.=124.532288m. Speed=12.852000m/h.</desc>
<speed>3.570000</speed>
</trkpt>
<trkpt lat="55.913166" lon="26.541157">
<ele>124.508850</ele>
<time>2010-08-29T07:51:13Z</time>
<desc>lat.=55.913166, lon.=26.541157, Alt.=124.508850m. Speed=12.852000m/h.</desc>
<speed>3.570000</speed>
</trkpt>
<trkpt lat="55.913200" lon="26.541153">
<ele>124.501038</ele>
<time>2010-08-29T07:51:14Z</time>
<desc>lat.=55.913200, lon.=26.541153, Alt.=124.501038m. Speed=12.996000m/h.</desc>
<speed>3.610000</speed>
</trkpt>
<trkpt lat="55.913239" lon="26.541147">
<ele>124.163147</ele>
<time>2010-08-29T07:51:15Z</time>
<desc>lat.=55.913239, lon.=26.541147, Alt.=124.163147m. Speed=13.248000m/h.</desc>
<speed>3.680000</speed>
</trkpt>
<trkpt lat="55.913273" lon="26.541143">
<ele>123.881897</ele>
<time>2010-08-29T07:51:16Z</time>
<desc>lat.=55.913273, lon.=26.541143, Alt.=123.881897m. Speed=13.248000m/h.</desc>
<speed>3.680000</speed>
</trkpt>
<trkpt lat="55.913307" lon="26.541140">
<ele>123.735413</ele>
<time>2010-08-29T07:51:17Z</time>
<desc>lat.=55.913307, lon.=26.541140, Alt.=123.735413m. Speed=13.320000m/h.</desc>
<speed>3.700000</speed>
</trkpt>
<trkpt lat="55.913342" lon="26.541130">
<ele>123.639709</ele>
<time>2010-08-29T07:51:18Z</time>
<desc>lat.=55.913342, lon.=26.541130, Alt.=123.639709m. Speed=13.788000m/h.</desc>
<speed>3.830000</speed>
</trkpt>
<trkpt lat="55.913380" lon="26.541124">
<ele>123.735413</ele>
<time>2010-08-29T07:51:19Z</time>
<desc>lat.=55.913380, lon.=26.541124, Alt.=123.735413m. Speed=13.680000m/h.</desc>
<speed>3.800000</speed>
</trkpt>
<trkpt lat="55.913410" lon="26.541122">
<ele>123.516663</ele>
<time>2010-08-29T07:51:20Z</time>
<desc>lat.=55.913410, lon.=26.541122, Alt.=123.516663m. Speed=13.608000m/h.</desc>
<speed>3.780000</speed>
</trkpt>
<trkpt lat="55.913448" lon="26.541121">
<ele>123.659241</ele>
<time>2010-08-29T07:51:21Z</time>
<desc>lat.=55.913448, lon.=26.541121, Alt.=123.659241m. Speed=13.356000m/h.</desc>
<speed>3.710000</speed>
</trkpt>
<trkpt lat="55.913486" lon="26.541126">
<ele>123.926819</ele>
<time>2010-08-29T07:51:22Z</time>
<desc>lat.=55.913486, lon.=26.541126, Alt.=123.926819m. Speed=12.708000m/h.</desc>
<speed>3.530000</speed>
</trkpt>
<trkpt lat="55.913517" lon="26.541128">
<ele>123.801819</ele>
<time>2010-08-29T07:51:23Z</time>
<desc>lat.=55.913517, lon.=26.541128, Alt.=123.801819m. Speed=11.556000m/h.</desc>
<speed>3.210000</speed>
</trkpt>
<trkpt lat="55.913548" lon="26.541124">
<ele>123.682678</ele>
<time>2010-08-29T07:51:24Z</time>
<desc>lat.=55.913548, lon.=26.541124, Alt.=123.682678m. Speed=12.672000m/h.</desc>
<speed>3.520000</speed>
</trkpt>
<trkpt lat="55.913582" lon="26.541122">
<ele>123.374084</ele>
<time>2010-08-29T07:51:25Z</time>
<desc>lat.=55.913582, lon.=26.541122, Alt.=123.374084m. Speed=13.176000m/h.</desc>
<speed>3.660000</speed>
</trkpt>
<trkpt lat="55.913616" lon="26.541119">
<ele>123.051819</ele>
<time>2010-08-29T07:51:26Z</time>
<desc>lat.=55.913616, lon.=26.541119, Alt.=123.051819m. Speed=12.708000m/h.</desc>
<speed>3.530000</speed>
</trkpt>
<trkpt lat="55.913651" lon="26.541119">
<ele>123.243225</ele>
<time>2010-08-29T07:51:27Z</time>
<desc>lat.=55.913651, lon.=26.541119, Alt.=123.243225m. Speed=12.636000m/h.</desc>
<speed>3.510000</speed>
</trkpt>
<trkpt lat="55.913681" lon="26.541119">
<ele>123.044006</ele>
<time>2010-08-29T07:51:28Z</time>
<desc>lat.=55.913681, lon.=26.541119, Alt.=123.044006m. Speed=12.276000m/h.</desc>
<speed>3.410000</speed>
</trkpt>
<trkpt lat="55.913715" lon="26.541113">
<ele>123.051819</ele>
<time>2010-08-29T07:51:29Z</time>
<desc>lat.=55.913715, lon.=26.541113, Alt.=123.051819m. Speed=13.140000m/h.</desc>
<speed>3.650000</speed>
</trkpt>
<trkpt lat="55.913750" lon="26.541111">
<ele>122.960022</ele>
<time>2010-08-29T07:51:30Z</time>
<desc>lat.=55.913750, lon.=26.541111, Alt.=122.960022m. Speed=13.716000m/h.</desc>
<speed>3.810000</speed>
</trkpt>
<trkpt lat="55.913784" lon="26.541107">
<ele>122.930725</ele>
<time>2010-08-29T07:51:31Z</time>
<desc>lat.=55.913784, lon.=26.541107, Alt.=122.930725m. Speed=14.256000m/h.</desc>
<speed>3.960000</speed>
</trkpt>
<trkpt lat="55.913822" lon="26.541100">
<ele>122.895569</ele>
<time>2010-08-29T07:51:32Z</time>
<desc>lat.=55.913822, lon.=26.541100, Alt.=122.895569m. Speed=15.084000m/h.</desc>
<speed>4.190000</speed>
</trkpt>
<trkpt lat="55.913860" lon="26.541094">
<ele>122.909241</ele>
<time>2010-08-29T07:51:33Z</time>
<desc>lat.=55.913860, lon.=26.541094, Alt.=122.909241m. Speed=15.732000m/h.</desc>
<speed>4.370000</speed>
</trkpt>
<trkpt lat="55.913898" lon="26.541090">
<ele>123.006897</ele>
<time>2010-08-29T07:51:34Z</time>
<desc>lat.=55.913898, lon.=26.541090, Alt.=123.006897m. Speed=15.912000m/h.</desc>
<speed>4.420000</speed>
</trkpt>
<trkpt lat="55.913937" lon="26.541084">
<ele>123.118225</ele>
<time>2010-08-29T07:51:35Z</time>
<desc>lat.=55.913937, lon.=26.541084, Alt.=123.118225m. Speed=14.940000m/h.</desc>
<speed>4.150000</speed>
</trkpt>
<trkpt lat="55.913971" lon="26.541086">
<ele>122.581116</ele>
<time>2010-08-29T07:51:36Z</time>
<desc>lat.=55.913971, lon.=26.541086, Alt.=122.581116m. Speed=15.876000m/h.</desc>
<speed>4.410000</speed>
</trkpt>
<trkpt lat="55.914013" lon="26.541082">
<ele>122.571350</ele>
<time>2010-08-29T07:51:37Z</time>
<desc>lat.=55.914013, lon.=26.541082, Alt.=122.571350m. Speed=13.824000m/h.</desc>
<speed>3.840000</speed>
</trkpt>
<trkpt lat="55.914043" lon="26.541080">
<ele>122.495178</ele>
<time>2010-08-29T07:51:38Z</time>
<desc>lat.=55.914043, lon.=26.541080, Alt.=122.495178m. Speed=11.628000m/h.</desc>
<speed>3.230000</speed>
</trkpt>
<trkpt lat="55.914074" lon="26.541082">
<ele>122.276428</ele>
<time>2010-08-29T07:51:39Z</time>
<desc>lat.=55.914074, lon.=26.541082, Alt.=122.276428m. Speed=11.412000m/h.</desc>
<speed>3.170000</speed>
</trkpt>
<trkpt lat="55.914104" lon="26.541090">
<ele>122.096741</ele>
<time>2010-08-29T07:51:40Z</time>
<desc>lat.=55.914104, lon.=26.541090, Alt.=122.096741m. Speed=11.160000m/h.</desc>
<speed>3.100000</speed>
</trkpt>
<trkpt lat="55.914131" lon="26.541090">
<ele>121.881897</ele>
<time>2010-08-29T07:51:41Z</time>
<desc>lat.=55.914131, lon.=26.541090, Alt.=121.881897m. Speed=9.000000m/h.</desc>
<speed>2.500000</speed>
</trkpt>
<trkpt lat="55.914146" lon="26.541096">
<ele>121.895569</ele>
<time>2010-08-29T07:51:42Z</time>
<desc>lat.=55.914146, lon.=26.541096, Alt.=121.895569m. Speed=5.616000m/h.</desc>
<speed>1.560000</speed>
</trkpt>
<trkpt lat="55.914158" lon="26.541109">
<ele>122.256897</ele>
<time>2010-08-29T07:51:43Z</time>
<desc>lat.=55.914158, lon.=26.541109, Alt.=122.256897m. Speed=0.396000m/h.</desc>
<speed>0.110000</speed>
</trkpt>
<trkpt lat="55.914162" lon="26.541117">
<ele>121.930725</ele>
<time>2010-08-29T07:51:44Z</time>
<desc>lat.=55.914162, lon.=26.541117, Alt.=121.930725m. Speed=0.360000m/h.</desc>
<speed>0.100000</speed>
</trkpt>
<trkpt lat="55.914162" lon="26.541122">
<ele>121.786194</ele>
<time>2010-08-29T07:51:45Z</time>
<desc>lat.=55.914162, lon.=26.541122, Alt.=121.786194m. Speed=0.072000m/h.</desc>
<speed>0.020000</speed>
</trkpt>
<trkpt lat="55.914162" lon="26.541124">
<ele>121.655334</ele>
<time>2010-08-29T07:51:46Z</time>
<desc>lat.=55.914162, lon.=26.541124, Alt.=121.655334m. Speed=0.000000m/h.</desc>
<speed>0.000000</speed>
</trkpt>
<trkpt lat="55.914162" lon="26.541124">
<ele>121.669006</ele>
<time>2010-08-29T07:51:47Z</time>
<desc>lat.=55.914162, lon.=26.541124, Alt.=121.669006m. Speed=0.072000m/h.</desc>
<speed>0.020000</speed>
</trkpt>
<trkpt lat="55.914162" lon="26.541124">
<ele>121.670959</ele>
<time>2010-08-29T07:51:48Z</time>
<desc>lat.=55.914162, lon.=26.541124, Alt.=121.670959m. Speed=0.000000m/h.</desc>
<speed>0.000000</speed>
</trkpt>
<trkpt lat="55.914162" lon="26.541124">
<ele>121.663147</ele>
<time>2010-08-29T07:51:49Z</time>
<desc>lat.=55.914162, lon.=26.541124, Alt.=121.663147m. Speed=0.072000m/h.</desc>
<speed>0.020000</speed>
</trkpt>
<trkpt lat="55.914162" lon="26.541124">
<ele>121.641663</ele>
<time>2010-08-29T07:51:50Z</time>
<desc>lat.=55.914162, lon.=26.541124, Alt.=121.641663m. Speed=0.792000m/h.</desc>
<speed>0.220000</speed>
</trkpt>
<trkpt lat="55.914165" lon="26.541128">
<ele>121.434631</ele>
<time>2010-08-29T07:51:51Z</time>
<desc>lat.=55.914165, lon.=26.541128, Alt.=121.434631m. Speed=5.184000m/h.</desc>
<speed>1.440000</speed>
</trkpt>
<trkpt lat="55.914177" lon="26.541134">
<ele>121.272522</ele>
<time>2010-08-29T07:51:52Z</time>
<desc>lat.=55.914177, lon.=26.541134, Alt.=121.272522m. Speed=6.444000m/h.</desc>
<speed>1.790000</speed>
</trkpt>
<trkpt lat="55.914196" lon="26.541140">
<ele>121.143616</ele>
<time>2010-08-29T07:51:53Z</time>
<desc>lat.=55.914196, lon.=26.541140, Alt.=121.143616m. Speed=6.156000m/h.</desc>
<speed>1.710000</speed>
</trkpt>
<trkpt lat="55.914211" lon="26.541145">
<ele>121.067444</ele>
<time>2010-08-29T07:51:54Z</time>
<desc>lat.=55.914211, lon.=26.541145, Alt.=121.067444m. Speed=5.580000m/h.</desc>
<speed>1.550000</speed>
</trkpt>
<trkpt lat="55.914227" lon="26.541151">
<ele>120.907288</ele>
<time>2010-08-29T07:51:55Z</time>
<desc>lat.=55.914227, lon.=26.541151, Alt.=120.907288m. Speed=4.824000m/h.</desc>
<speed>1.340000</speed>
</trkpt>
<trkpt lat="55.914246" lon="26.541155">
<ele>121.297913</ele>
<time>2010-08-29T07:51:56Z</time>
<desc>lat.=55.914246, lon.=26.541155, Alt.=121.297913m. Speed=8.496000m/h.</desc>
<speed>2.360000</speed>
</trkpt>
<trkpt lat="55.914265" lon="26.541168">
<ele>121.682678</ele>
<time>2010-08-29T07:51:57Z</time>
<desc>lat.=55.914265, lon.=26.541168, Alt.=121.682678m. Speed=6.696000m/h.</desc>
<speed>1.860000</speed>
</trkpt>
<trkpt lat="55.914284" lon="26.541182">
<ele>122.044006</ele>
<time>2010-08-29T07:51:58Z</time>
<desc>lat.=55.914284, lon.=26.541182, Alt.=122.044006m. Speed=6.264000m/h.</desc>
<speed>1.740000</speed>
</trkpt>
<trkpt lat="55.914299" lon="26.541191">
<ele>122.374084</ele>
<time>2010-08-29T07:51:59Z</time>
<desc>lat.=55.914299, lon.=26.541191, Alt.=122.374084m. Speed=6.732000m/h.</desc>
<speed>1.870000</speed>
</trkpt>
<trkpt lat="55.914310" lon="26.541214">
<ele>121.975647</ele>
<time>2010-08-29T07:52:00Z</time>
<desc>lat.=55.914310, lon.=26.541214, Alt.=121.975647m. Speed=7.308000m/h.</desc>
<speed>2.030000</speed>
</trkpt>
<trkpt lat="55.914326" lon="26.541235">
<ele>121.899475</ele>
<time>2010-08-29T07:52:01Z</time>
<desc>lat.=55.914326, lon.=26.541235, Alt.=121.899475m. Speed=7.848000m/h.</desc>
<speed>2.180000</speed>
</trkpt>
<trkpt lat="55.914345" lon="26.541252">
<ele>121.913147</ele>
<time>2010-08-29T07:52:02Z</time>
<desc>lat.=55.914345, lon.=26.541252, Alt.=121.913147m. Speed=8.640000m/h.</desc>
<speed>2.400000</speed>
</trkpt>
<trkpt lat="55.914368" lon="26.541267">
<ele>121.999084</ele>
<time>2010-08-29T07:52:03Z</time>
<desc>lat.=55.914368, lon.=26.541267, Alt.=121.999084m. Speed=9.432000m/h.</desc>
<speed>2.620000</speed>
</trkpt>
<trkpt lat="55.914387" lon="26.541290">
<ele>122.086975</ele>
<time>2010-08-29T07:52:04Z</time>
<desc>lat.=55.914387, lon.=26.541290, Alt.=122.086975m. Speed=8.064000m/h.</desc>
<speed>2.240000</speed>
</trkpt>
<trkpt lat="55.914406" lon="26.541313">
<ele>122.143616</ele>
<time>2010-08-29T07:52:05Z</time>
<desc>lat.=55.914406, lon.=26.541313, Alt.=122.143616m. Speed=10.260000m/h.</desc>
<speed>2.850000</speed>
</trkpt>
<trkpt lat="55.914421" lon="26.541336">
<ele>121.694397</ele>
<time>2010-08-29T07:52:06Z</time>
<desc>lat.=55.914421, lon.=26.541336, Alt.=121.694397m. Speed=8.820000m/h.</desc>
<speed>2.450000</speed>
</trkpt>
<trkpt lat="55.914444" lon="26.541359">
<ele>121.647522</ele>
<time>2010-08-29T07:52:07Z</time>
<desc>lat.=55.914444, lon.=26.541359, Alt.=121.647522m. Speed=9.864000m/h.</desc>
<speed>2.740000</speed>
</trkpt>
<trkpt lat="55.914459" lon="26.541378">
<ele>121.540100</ele>
<time>2010-08-29T07:52:08Z</time>
<desc>lat.=55.914459, lon.=26.541378, Alt.=121.540100m. Speed=5.328000m/h.</desc>
<speed>1.480000</speed>
</trkpt>
<trkpt lat="55.914463" lon="26.541388">
<ele>121.405334</ele>
<time>2010-08-29T07:52:09Z</time>
<desc>lat.=55.914463, lon.=26.541388, Alt.=121.405334m. Speed=1.260000m/h.</desc>
<speed>0.350000</speed>
</trkpt>
<trkpt lat="55.914463" lon="26.541388">
<ele>121.419006</ele>
<time>2010-08-29T07:52:10Z</time>
<desc>lat.=55.914463, lon.=26.541388, Alt.=121.419006m. Speed=0.252000m/h.</desc>
<speed>0.070000</speed>
</trkpt>
<trkpt lat="55.914459" lon="26.541382">
<ele>121.313538</ele>
<time>2010-08-29T07:52:11Z</time>
<desc>lat.=55.914459, lon.=26.541382, Alt.=121.313538m. Speed=0.468000m/h.</desc>
<speed>0.130000</speed>
</trkpt>
<trkpt lat="55.914459" lon="26.541380">
<ele>121.252991</ele>
<time>2010-08-29T07:52:12Z</time>
<desc>lat.=55.914459, lon.=26.541380, Alt.=121.252991m. Speed=0.252000m/h.</desc>
<speed>0.070000</speed>
</trkpt>
<trkpt lat="55.914459" lon="26.541378">
<ele>121.321350</ele>
<time>2010-08-29T07:52:13Z</time>
<desc>lat.=55.914459, lon.=26.541378, Alt.=121.321350m. Speed=0.036000m/h.</desc>
<speed>0.010000</speed>
</trkpt>
<trkpt lat="55.914459" lon="26.541378">
<ele>121.311584</ele>
<time>2010-08-29T07:52:14Z</time>
<desc>lat.=55.914459, lon.=26.541378, Alt.=121.311584m. Speed=0.144000m/h.</desc>
<speed>0.040000</speed>
</trkpt>
<trkpt lat="55.914459" lon="26.541378">
<ele>121.321350</ele>
<time>2010-08-29T07:52:15Z</time>
<desc>lat.=55.914459, lon.=26.541378, Alt.=121.321350m. Speed=0.144000m/h.</desc>
<speed>0.040000</speed>
</trkpt>
<trkpt lat="55.914459" lon="26.541378">
<ele>121.331116</ele>
<time>2010-08-29T07:52:16Z</time>
<desc>lat.=55.914459, lon.=26.541378, Alt.=121.331116m. Speed=0.072000m/h.</desc>
<speed>0.020000</speed>
</trkpt>
<trkpt lat="55.914459" lon="26.541378">
<ele>121.338928</ele>
<time>2010-08-29T07:52:17Z</time>
<desc>lat.=55.914459, lon.=26.541378, Alt.=121.338928m. Speed=0.324000m/h.</desc>
<speed>0.090000</speed>
</trkpt>
<trkpt lat="55.914459" lon="26.541380">
<ele>121.346741</ele>
<time>2010-08-29T07:52:18Z</time>
<desc>lat.=55.914459, lon.=26.541380, Alt.=121.346741m. Speed=0.252000m/h.</desc>
<speed>0.070000</speed>
</trkpt>
<trkpt lat="55.914459" lon="26.541380">
<ele>121.366272</ele>
<time>2010-08-29T07:52:19Z</time>
<desc>lat.=55.914459, lon.=26.541380, Alt.=121.366272m. Speed=0.252000m/h.</desc>
<speed>0.070000</speed>
</trkpt>
<trkpt lat="55.914459" lon="26.541380">
<ele>121.366272</ele>
<time>2010-08-29T07:52:20Z</time>
<desc>lat.=55.914459, lon.=26.541380, Alt.=121.366272m. Speed=0.288000m/h.</desc>
<speed>0.080000</speed>
</trkpt>
<trkpt lat="55.914459" lon="26.541380">
<ele>121.376038</ele>
<time>2010-08-29T07:52:21Z</time>
<desc>lat.=55.914459, lon.=26.541380, Alt.=121.376038m. Speed=0.000000m/h.</desc>
<speed>0.000000</speed>
</trkpt>
<trkpt lat="55.914459" lon="26.541380">
<ele>121.379944</ele>
<time>2010-08-29T07:52:22Z</time>
<desc>lat.=55.914459, lon.=26.541380, Alt.=121.379944m. Speed=0.144000m/h.</desc>
<speed>0.040000</speed>
</trkpt>
<trkpt lat="55.914459" lon="26.541378">
<ele>121.385803</ele>
<time>2010-08-29T07:52:23Z</time>
<desc>lat.=55.914459, lon.=26.541378, Alt.=121.385803m. Speed=0.216000m/h.</desc>
<speed>0.060000</speed>
</trkpt>
<trkpt lat="55.914463" lon="26.541378">
<ele>121.401428</ele>
<time>2010-08-29T07:52:24Z</time>
<desc>lat.=55.914463, lon.=26.541378, Alt.=121.401428m. Speed=0.288000m/h.</desc>
<speed>0.080000</speed>
</trkpt>
<trkpt lat="55.914463" lon="26.541378">
<ele>121.417053</ele>
<time>2010-08-29T07:52:25Z</time>
<desc>lat.=55.914463, lon.=26.541378, Alt.=121.417053m. Speed=0.252000m/h.</desc>
<speed>0.070000</speed>
</trkpt>
<trkpt lat="55.914463" lon="26.541378">
<ele>121.440491</ele>
<time>2010-08-29T07:52:26Z</time>
<desc>lat.=55.914463, lon.=26.541378, Alt.=121.440491m. Speed=0.324000m/h.</desc>
<speed>0.090000</speed>
</trkpt>
<trkpt lat="55.914463" lon="26.541378">
<ele>121.460022</ele>
<time>2010-08-29T07:52:27Z</time>
<desc>lat.=55.914463, lon.=26.541378, Alt.=121.460022m. Speed=0.720000m/h.</desc>
<speed>0.200000</speed>
</trkpt>
<trkpt lat="55.914467" lon="26.541378">
<ele>121.475647</ele>
<time>2010-08-29T07:52:28Z</time>
<desc>lat.=55.914467, lon.=26.541378, Alt.=121.475647m. Speed=0.900000m/h.</desc>
<speed>0.250000</speed>
</trkpt>
<trkpt lat="55.914467" lon="26.541378">
<ele>121.518616</ele>
<time>2010-08-29T07:52:29Z</time>
<desc>lat.=55.914467, lon.=26.541378, Alt.=121.518616m. Speed=0.792000m/h.</desc>
<speed>0.220000</speed>
</trkpt>
<trkpt lat="55.914471" lon="26.541376">
<ele>121.590881</ele>
<time>2010-08-29T07:52:30Z</time>
<desc>lat.=55.914471, lon.=26.541376, Alt.=121.590881m. Speed=0.864000m/h.</desc>
<speed>0.240000</speed>
</trkpt>
<trkpt lat="55.914471" lon="26.541374">
<ele>121.674866</ele>
<time>2010-08-29T07:52:31Z</time>
<desc>lat.=55.914471, lon.=26.541374, Alt.=121.674866m. Speed=1.008000m/h.</desc>
<speed>0.280000</speed>
</trkpt>
<trkpt lat="55.914474" lon="26.541374">
<ele>121.751038</ele>
<time>2010-08-29T07:52:32Z</time>
<desc>lat.=55.914474, lon.=26.541374, Alt.=121.751038m. Speed=1.152000m/h.</desc>
<speed>0.320000</speed>
</trkpt>
<trkpt lat="55.914486" lon="26.541359">
<ele>122.391663</ele>
<time>2010-08-29T07:52:33Z</time>
<desc>lat.=55.914486, lon.=26.541359, Alt.=122.391663m. Speed=1.080000m/h.</desc>
<speed>0.300000</speed>
</trkpt>
<trkpt lat="55.914494" lon="26.541344">
<ele>123.085022</ele>
<time>2010-08-29T07:52:34Z</time>
<desc>lat.=55.914494, lon.=26.541344, Alt.=123.085022m. Speed=1.116000m/h.</desc>
<speed>0.310000</speed>
</trkpt>
<trkpt lat="55.914494" lon="26.541330">
<ele>123.657288</ele>
<time>2010-08-29T07:52:35Z</time>
<desc>lat.=55.914494, lon.=26.541330, Alt.=123.657288m. Speed=1.152000m/h.</desc>
<speed>0.320000</speed>
</trkpt>
<trkpt lat="55.914497" lon="26.541323">
<ele>123.899475</ele>
<time>2010-08-29T07:52:36Z</time>
<desc>lat.=55.914497, lon.=26.541323, Alt.=123.899475m. Speed=0.936000m/h.</desc>
<speed>0.260000</speed>
</trkpt>
<trkpt lat="55.914494" lon="26.541315">
<ele>124.137756</ele>
<time>2010-08-29T07:52:37Z</time>
<desc>lat.=55.914494, lon.=26.541315, Alt.=124.137756m. Speed=0.936000m/h.</desc>
<speed>0.260000</speed>
</trkpt>
<trkpt lat="55.914494" lon="26.541309">
<ele>124.303772</ele>
<time>2010-08-29T07:52:38Z</time>
<desc>lat.=55.914494, lon.=26.541309, Alt.=124.303772m. Speed=0.828000m/h.</desc>
<speed>0.230000</speed>
</trkpt>
<trkpt lat="55.914486" lon="26.541300">
<ele>124.499084</ele>
<time>2010-08-29T07:52:39Z</time>
<desc>lat.=55.914486, lon.=26.541300, Alt.=124.499084m. Speed=0.720000m/h.</desc>
<speed>0.200000</speed>
</trkpt>
<trkpt lat="55.914490" lon="26.541298">
<ele>124.592834</ele>
<time>2010-08-29T07:52:40Z</time>
<desc>lat.=55.914490, lon.=26.541298, Alt.=124.592834m. Speed=0.612000m/h.</desc>
<speed>0.170000</speed>
</trkpt>
<trkpt lat="55.914490" lon="26.541296">
<ele>124.672913</ele>
<time>2010-08-29T07:52:41Z</time>
<desc>lat.=55.914490, lon.=26.541296, Alt.=124.672913m. Speed=0.612000m/h.</desc>
<speed>0.170000</speed>
</trkpt>
<trkpt lat="55.914490" lon="26.541294">
<ele>124.772522</ele>
<time>2010-08-29T07:52:42Z</time>
<desc>lat.=55.914490, lon.=26.541294, Alt.=124.772522m. Speed=0.720000m/h.</desc>
<speed>0.200000</speed>
</trkpt>
<trkpt lat="55.914494" lon="26.541292">
<ele>124.854553</ele>
<time>2010-08-29T07:52:43Z</time>
<desc>lat.=55.914494, lon.=26.541292, Alt.=124.854553m. Speed=0.324000m/h.</desc>
<speed>0.090000</speed>
</trkpt>
<trkpt lat="55.914494" lon="26.541290">
<ele>124.924866</ele>
<time>2010-08-29T07:52:44Z</time>
<desc>lat.=55.914494, lon.=26.541290, Alt.=124.924866m. Speed=0.324000m/h.</desc>
<speed>0.090000</speed>
</trkpt>
<trkpt lat="55.914494" lon="26.541290">
<ele>124.985413</ele>
<time>2010-08-29T07:52:45Z</time>
<desc>lat.=55.914494, lon.=26.541290, Alt.=124.985413m. Speed=0.972000m/h.</desc>
<speed>0.270000</speed>
</trkpt>
<trkpt lat="55.914494" lon="26.541294">
<ele>124.987366</ele>
<time>2010-08-29T07:52:46Z</time>
<desc>lat.=55.914494, lon.=26.541294, Alt.=124.987366m. Speed=1.800000m/h.</desc>
<speed>0.500000</speed>
</trkpt>
<trkpt lat="55.914494" lon="26.541313">
<ele>125.012756</ele>
<time>2010-08-29T07:52:47Z</time>
<desc>lat.=55.914494, lon.=26.541313, Alt.=125.012756m. Speed=2.196000m/h.</desc>
<speed>0.610000</speed>
</trkpt>
<trkpt lat="55.914501" lon="26.541325">
<ele>125.227600</ele>
<time>2010-08-29T07:52:48Z</time>
<desc>lat.=55.914501, lon.=26.541325, Alt.=125.227600m. Speed=4.824000m/h.</desc>
<speed>1.340000</speed>
</trkpt>
<trkpt lat="55.914520" lon="26.541344">
<ele>125.102600</ele>
<time>2010-08-29T07:52:49Z</time>
<desc>lat.=55.914520, lon.=26.541344, Alt.=125.102600m. Speed=7.884000m/h.</desc>
<speed>2.190000</speed>
</trkpt>
<trkpt lat="55.914536" lon="26.541357">
<ele>125.102600</ele>
<time>2010-08-29T07:52:50Z</time>
<desc>lat.=55.914536, lon.=26.541357, Alt.=125.102600m. Speed=8.748000m/h.</desc>
<speed>2.430000</speed>
</trkpt>
<trkpt lat="55.914547" lon="26.541376">
<ele>124.553772</ele>
<time>2010-08-29T07:52:51Z</time>
<desc>lat.=55.914547, lon.=26.541376, Alt.=124.553772m. Speed=7.452000m/h.</desc>
<speed>2.070000</speed>
</trkpt>
<trkpt lat="55.914558" lon="26.541391">
<ele>124.604553</ele>
<time>2010-08-29T07:52:52Z</time>
<desc>lat.=55.914558, lon.=26.541391, Alt.=124.604553m. Speed=7.848000m/h.</desc>
<speed>2.180000</speed>
</trkpt>
<trkpt lat="55.914577" lon="26.541418">
<ele>124.647522</ele>
<time>2010-08-29T07:52:53Z</time>
<desc>lat.=55.914577, lon.=26.541418, Alt.=124.647522m. Speed=8.964000m/h.</desc>
<speed>2.490000</speed>
</trkpt>
<trkpt lat="55.914585" lon="26.541447">
<ele>124.323303</ele>
<time>2010-08-29T07:52:54Z</time>
<desc>lat.=55.914585, lon.=26.541447, Alt.=124.323303m. Speed=8.604000m/h.</desc>
<speed>2.390000</speed>
</trkpt>
<trkpt lat="55.914593" lon="26.541468">
<ele>124.145569</ele>
<time>2010-08-29T07:52:55Z</time>
<desc>lat.=55.914593, lon.=26.541468, Alt.=124.145569m. Speed=7.488000m/h.</desc>
<speed>2.080000</speed>
</trkpt>
<trkpt lat="55.914604" lon="26.541483">
<ele>124.407288</ele>
<time>2010-08-29T07:52:56Z</time>
<desc>lat.=55.914604, lon.=26.541483, Alt.=124.407288m. Speed=7.704000m/h.</desc>
<speed>2.140000</speed>
</trkpt>
<trkpt lat="55.914619" lon="26.541502">
<ele>124.727600</ele>
<time>2010-08-29T07:52:57Z</time>
<desc>lat.=55.914619, lon.=26.541502, Alt.=124.727600m. Speed=7.740000m/h.</desc>
<speed>2.150000</speed>
</trkpt>
<trkpt lat="55.914631" lon="26.541527">
<ele>124.346741</ele>
<time>2010-08-29T07:52:58Z</time>
<desc>lat.=55.914631, lon.=26.541527, Alt.=124.346741m. Speed=8.280000m/h.</desc>
<speed>2.300000</speed>
</trkpt>
<trkpt lat="55.914646" lon="26.541546">
<ele>124.225647</ele>
<time>2010-08-29T07:52:59Z</time>
<desc>lat.=55.914646, lon.=26.541546, Alt.=124.225647m. Speed=7.200000m/h.</desc>
<speed>2.000000</speed>
</trkpt>
<trkpt lat="55.914661" lon="26.541563">
<ele>123.895569</ele>
<time>2010-08-29T07:53:00Z</time>
<desc>lat.=55.914661, lon.=26.541563, Alt.=123.895569m. Speed=7.200000m/h.</desc>
<speed>2.000000</speed>
</trkpt>
<trkpt lat="55.914677" lon="26.541576">
<ele>123.729553</ele>
<time>2010-08-29T07:53:01Z</time>
<desc>lat.=55.914677, lon.=26.541576, Alt.=123.729553m. Speed=5.220000m/h.</desc>
<speed>1.450000</speed>
</trkpt>
<trkpt lat="55.914688" lon="26.541595">
<ele>123.354553</ele>
<time>2010-08-29T07:53:02Z</time>
<desc>lat.=55.914688, lon.=26.541595, Alt.=123.354553m. Speed=7.056000m/h.</desc>
<speed>1.960000</speed>
</trkpt>
<trkpt lat="55.914700" lon="26.541613">
<ele>122.704163</ele>
<time>2010-08-29T07:53:03Z</time>
<desc>lat.=55.914700, lon.=26.541613, Alt.=122.704163m. Speed=6.948000m/h.</desc>
<speed>1.930000</speed>
</trkpt>
<trkpt lat="55.914715" lon="26.541628">
<ele>122.417053</ele>
<time>2010-08-29T07:53:04Z</time>
<desc>lat.=55.914715, lon.=26.541628, Alt.=122.417053m. Speed=6.588000m/h.</desc>
<speed>1.830000</speed>
</trkpt>
<trkpt lat="55.914730" lon="26.541643">
<ele>121.967834</ele>
<time>2010-08-29T07:53:05Z</time>
<desc>lat.=55.914730, lon.=26.541643, Alt.=121.967834m. Speed=5.940000m/h.</desc>
<speed>1.650000</speed>
</trkpt>
<trkpt lat="55.914745" lon="26.541662">
<ele>121.913147</ele>
<time>2010-08-29T07:53:06Z</time>
<desc>lat.=55.914745, lon.=26.541662, Alt.=121.913147m. Speed=6.156000m/h.</desc>
<speed>1.710000</speed>
</trkpt>
<trkpt lat="55.914761" lon="26.541693">
<ele>122.032288</ele>
<time>2010-08-29T07:53:07Z</time>
<desc>lat.=55.914761, lon.=26.541693, Alt.=122.032288m. Speed=7.452000m/h.</desc>
<speed>2.070000</speed>
</trkpt>
<trkpt lat="55.914776" lon="26.541714">
<ele>121.794006</ele>
<time>2010-08-29T07:53:08Z</time>
<desc>lat.=55.914776, lon.=26.541714, Alt.=121.794006m. Speed=7.848000m/h.</desc>
<speed>2.180000</speed>
</trkpt>
<trkpt lat="55.914803" lon="26.541727">
<ele>121.764709</ele>
<time>2010-08-29T07:53:09Z</time>
<desc>lat.=55.914803, lon.=26.541727, Alt.=121.764709m. Speed=9.612000m/h.</desc>
<speed>2.670000</speed>
</trkpt>
<trkpt lat="55.914822" lon="26.541742">
<ele>121.864319</ele>
<time>2010-08-29T07:53:10Z</time>
<desc>lat.=55.914822, lon.=26.541742, Alt.=121.864319m. Speed=8.028000m/h.</desc>
<speed>2.230000</speed>
</trkpt>
<trkpt lat="55.914837" lon="26.541759">
<ele>122.553772</ele>
<time>2010-08-29T07:53:11Z</time>
<desc>lat.=55.914837, lon.=26.541759, Alt.=122.553772m. Speed=7.956000m/h.</desc>
<speed>2.210000</speed>
</trkpt>
<trkpt lat="55.914856" lon="26.541777">
<ele>122.694397</ele>
<time>2010-08-29T07:53:12Z</time>
<desc>lat.=55.914856, lon.=26.541777, Alt.=122.694397m. Speed=8.388000m/h.</desc>
<speed>2.330000</speed>
</trkpt>
<trkpt lat="55.914875" lon="26.541796">
<ele>123.377991</ele>
<time>2010-08-29T07:53:13Z</time>
<desc>lat.=55.914875, lon.=26.541796, Alt.=123.377991m. Speed=8.496000m/h.</desc>
<speed>2.360000</speed>
</trkpt>
<trkpt lat="55.914898" lon="26.541817">
<ele>123.643616</ele>
<time>2010-08-29T07:53:14Z</time>
<desc>lat.=55.914898, lon.=26.541817, Alt.=123.643616m. Speed=9.288000m/h.</desc>
<speed>2.580000</speed>
</trkpt>
<trkpt lat="55.914913" lon="26.541838">
<ele>123.776428</ele>
<time>2010-08-29T07:53:15Z</time>
<desc>lat.=55.914913, lon.=26.541838, Alt.=123.776428m. Speed=9.684000m/h.</desc>
<speed>2.690000</speed>
</trkpt>
<trkpt lat="55.914932" lon="26.541857">
<ele>124.911194</ele>
<time>2010-08-29T07:53:16Z</time>
<desc>lat.=55.914932, lon.=26.541857, Alt.=124.911194m. Speed=9.504000m/h.</desc>
<speed>2.640000</speed>
</trkpt>
<trkpt lat="55.914955" lon="26.541878">
<ele>124.819397</ele>
<time>2010-08-29T07:53:17Z</time>
<desc>lat.=55.914955, lon.=26.541878, Alt.=124.819397m. Speed=9.900000m/h.</desc>
<speed>2.750000</speed>
</trkpt>
<trkpt lat="55.914963" lon="26.541904">
<ele>124.102600</ele>
<time>2010-08-29T07:53:18Z</time>
<desc>lat.=55.914963, lon.=26.541904, Alt.=124.102600m. Speed=8.208000m/h.</desc>
<speed>2.280000</speed>
</trkpt>
<trkpt lat="55.914982" lon="26.541925">
<ele>124.297913</ele>
<time>2010-08-29T07:53:19Z</time>
<desc>lat.=55.914982, lon.=26.541925, Alt.=124.297913m. Speed=9.000000m/h.</desc>
<speed>2.500000</speed>
</trkpt>
<trkpt lat="55.915001" lon="26.541945">
<ele>124.297913</ele>
<time>2010-08-29T07:53:20Z</time>
<desc>lat.=55.915001, lon.=26.541945, Alt.=124.297913m. Speed=9.288000m/h.</desc>
<speed>2.580000</speed>
</trkpt>
<trkpt lat="55.915020" lon="26.541965">
<ele>124.372131</ele>
<time>2010-08-29T07:53:21Z</time>
<desc>lat.=55.915020, lon.=26.541965, Alt.=124.372131m. Speed=8.784000m/h.</desc>
<speed>2.440000</speed>
</trkpt>
<trkpt lat="55.915043" lon="26.541988">
<ele>123.938538</ele>
<time>2010-08-29T07:53:22Z</time>
<desc>lat.=55.915043, lon.=26.541988, Alt.=123.938538m. Speed=10.440000m/h.</desc>
<speed>2.900000</speed>
</trkpt>
<trkpt lat="55.915062" lon="26.542011">
<ele>124.284241</ele>
<time>2010-08-29T07:53:23Z</time>
<desc>lat.=55.915062, lon.=26.542011, Alt.=124.284241m. Speed=8.928000m/h.</desc>
<speed>2.480000</speed>
</trkpt>
<trkpt lat="55.915081" lon="26.542032">
<ele>124.487366</ele>
<time>2010-08-29T07:53:24Z</time>
<desc>lat.=55.915081, lon.=26.542032, Alt.=124.487366m. Speed=7.920000m/h.</desc>
<speed>2.200000</speed>
</trkpt>
<trkpt lat="55.915100" lon="26.542048">
<ele>124.430725</ele>
<time>2010-08-29T07:53:25Z</time>
<desc>lat.=55.915100, lon.=26.542048, Alt.=124.430725m. Speed=7.020000m/h.</desc>
<speed>1.950000</speed>
</trkpt>
<trkpt lat="55.915115" lon="26.542055">
<ele>124.143616</ele>
<time>2010-08-29T07:53:26Z</time>
<desc>lat.=55.915115, lon.=26.542055, Alt.=124.143616m. Speed=7.020000m/h.</desc>
<speed>1.950000</speed>
</trkpt>
<trkpt lat="55.915150" lon="26.542070">
<ele>123.751038</ele>
<time>2010-08-29T07:53:27Z</time>
<desc>lat.=55.915150, lon.=26.542070, Alt.=123.751038m. Speed=10.116000m/h.</desc>
<speed>2.810000</speed>
</trkpt>
<trkpt lat="55.915176" lon="26.542107">
<ele>124.227600</ele>
<time>2010-08-29T07:53:28Z</time>
<desc>lat.=55.915176, lon.=26.542107, Alt.=124.227600m. Speed=9.036000m/h.</desc>
<speed>2.510000</speed>
</trkpt>
<trkpt lat="55.915199" lon="26.542128">
<ele>124.460022</ele>
<time>2010-08-29T07:53:29Z</time>
<desc>lat.=55.915199, lon.=26.542128, Alt.=124.460022m. Speed=9.828000m/h.</desc>
<speed>2.730000</speed>
</trkpt>
<trkpt lat="55.915218" lon="26.542149">
<ele>124.827209</ele>
<time>2010-08-29T07:53:30Z</time>
<desc>lat.=55.915218, lon.=26.542149, Alt.=124.827209m. Speed=8.748000m/h.</desc>
<speed>2.430000</speed>
</trkpt>
<trkpt lat="55.915260" lon="26.542171">
<ele>125.840881</ele>
<time>2010-08-29T07:53:31Z</time>
<desc>lat.=55.915260, lon.=26.542171, Alt.=125.840881m. Speed=11.088000m/h.</desc>
<speed>3.080000</speed>
</trkpt>
<trkpt lat="55.915295" lon="26.542200">
<ele>125.559631</ele>
<time>2010-08-29T07:53:32Z</time>
<desc>lat.=55.915295, lon.=26.542200, Alt.=125.559631m. Speed=13.068000m/h.</desc>
<speed>3.630000</speed>
</trkpt>
<trkpt lat="55.915325" lon="26.542227">
<ele>125.170959</ele>
<time>2010-08-29T07:53:33Z</time>
<desc>lat.=55.915325, lon.=26.542227, Alt.=125.170959m. Speed=12.132000m/h.</desc>
<speed>3.370000</speed>
</trkpt>
<trkpt lat="55.915356" lon="26.542252">
<ele>125.208069</ele>
<time>2010-08-29T07:53:34Z</time>
<desc>lat.=55.915356, lon.=26.542252, Alt.=125.208069m. Speed=12.132000m/h.</desc>
<speed>3.370000</speed>
</trkpt>
<trkpt lat="55.915382" lon="26.542280">
<ele>125.321350</ele>
<time>2010-08-29T07:53:35Z</time>
<desc>lat.=55.915382, lon.=26.542280, Alt.=125.321350m. Speed=11.700000m/h.</desc>
<speed>3.250000</speed>
</trkpt>
<trkpt lat="55.915417" lon="26.542309">
<ele>124.989319</ele>
<time>2010-08-29T07:53:36Z</time>
<desc>lat.=55.915417, lon.=26.542309, Alt.=124.989319m. Speed=11.880000m/h.</desc>
<speed>3.300000</speed>
</trkpt>
<trkpt lat="55.915455" lon="26.542341">
<ele>124.967834</ele>
<time>2010-08-29T07:53:37Z</time>
<desc>lat.=55.915455, lon.=26.542341, Alt.=124.967834m. Speed=12.672000m/h.</desc>
<speed>3.520000</speed>
</trkpt>
<trkpt lat="55.915482" lon="26.542368">
<ele>125.342834</ele>
<time>2010-08-29T07:53:38Z</time>
<desc>lat.=55.915482, lon.=26.542368, Alt.=125.342834m. Speed=11.268000m/h.</desc>
<speed>3.130000</speed>
</trkpt>
<trkpt lat="55.915508" lon="26.542397">
<ele>125.690491</ele>
<time>2010-08-29T07:53:39Z</time>
<desc>lat.=55.915508, lon.=26.542397, Alt.=125.690491m. Speed=12.528000m/h.</desc>
<speed>3.480000</speed>
</trkpt>
<trkpt lat="55.915539" lon="26.542425">
<ele>125.967834</ele>
<time>2010-08-29T07:53:40Z</time>
<desc>lat.=55.915539, lon.=26.542425, Alt.=125.967834m. Speed=13.212000m/h.</desc>
<speed>3.670000</speed>
</trkpt>
<trkpt lat="55.915577" lon="26.542448">
<ele>125.788147</ele>
<time>2010-08-29T07:53:41Z</time>
<desc>lat.=55.915577, lon.=26.542448, Alt.=125.788147m. Speed=12.744000m/h.</desc>
<speed>3.540000</speed>
</trkpt>
<trkpt lat="55.915607" lon="26.542475">
<ele>125.952209</ele>
<time>2010-08-29T07:53:42Z</time>
<desc>lat.=55.915607, lon.=26.542475, Alt.=125.952209m. Speed=13.140000m/h.</desc>
<speed>3.650000</speed>
</trkpt>
<trkpt lat="55.915642" lon="26.542503">
<ele>126.508850</ele>
<time>2010-08-29T07:53:43Z</time>
<desc>lat.=55.915642, lon.=26.542503, Alt.=126.508850m. Speed=13.500000m/h.</desc>
<speed>3.750000</speed>
</trkpt>
<trkpt lat="55.915676" lon="26.542540">
<ele>127.288147</ele>
<time>2010-08-29T07:53:44Z</time>
<desc>lat.=55.915676, lon.=26.542540, Alt.=127.288147m. Speed=13.824000m/h.</desc>
<speed>3.840000</speed>
</trkpt>
<trkpt lat="55.915707" lon="26.542576">
<ele>127.413147</ele>
<time>2010-08-29T07:53:45Z</time>
<desc>lat.=55.915707, lon.=26.542576, Alt.=127.413147m. Speed=14.940000m/h.</desc>
<speed>4.150000</speed>
</trkpt>
<trkpt lat="55.915745" lon="26.542604">
<ele>127.471741</ele>
<time>2010-08-29T07:53:46Z</time>
<desc>lat.=55.915745, lon.=26.542604, Alt.=127.471741m. Speed=15.624000m/h.</desc>
<speed>4.340000</speed>
</trkpt>
<trkpt lat="55.915783" lon="26.542629">
<ele>129.185669</ele>
<time>2010-08-29T07:53:47Z</time>
<desc>lat.=55.915783, lon.=26.542629, Alt.=129.185669m. Speed=12.384000m/h.</desc>
<speed>3.440000</speed>
</trkpt>
<trkpt lat="55.915813" lon="26.542658">
<ele>130.123169</ele>
<time>2010-08-29T07:53:48Z</time>
<desc>lat.=55.915813, lon.=26.542658, Alt.=130.123169m. Speed=12.636000m/h.</desc>
<speed>3.510000</speed>
</trkpt>
<trkpt lat="55.915840" lon="26.542686">
<ele>130.728638</ele>
<time>2010-08-29T07:53:49Z</time>
<desc>lat.=55.915840, lon.=26.542686, Alt.=130.728638m. Speed=11.988000m/h.</desc>
<speed>3.330000</speed>
</trkpt>
<trkpt lat="55.915871" lon="26.542719">
<ele>131.033325</ele>
<time>2010-08-29T07:53:50Z</time>
<desc>lat.=55.915871, lon.=26.542719, Alt.=131.033325m. Speed=15.336000m/h.</desc>
<speed>4.260000</speed>
</trkpt>
<trkpt lat="55.915890" lon="26.542755">
<ele>130.228638</ele>
<time>2010-08-29T07:53:51Z</time>
<desc>lat.=55.915890, lon.=26.542755, Alt.=130.228638m. Speed=14.220000m/h.</desc>
<speed>3.950000</speed>
</trkpt>
<trkpt lat="55.915916" lon="26.542786">
<ele>130.427856</ele>
<time>2010-08-29T07:53:52Z</time>
<desc>lat.=55.915916, lon.=26.542786, Alt.=130.427856m. Speed=12.600000m/h.</desc>
<speed>3.500000</speed>
</trkpt>
<trkpt lat="55.915943" lon="26.542816">
<ele>130.869263</ele>
<time>2010-08-29T07:53:53Z</time>
<desc>lat.=55.915943, lon.=26.542816, Alt.=130.869263m. Speed=12.420000m/h.</desc>
<speed>3.450000</speed>
</trkpt>
<trkpt lat="55.915966" lon="26.542843">
<ele>131.037231</ele>
<time>2010-08-29T07:53:54Z</time>
<desc>lat.=55.915966, lon.=26.542843, Alt.=131.037231m. Speed=11.448000m/h.</desc>
<speed>3.180000</speed>
</trkpt>
<trkpt lat="55.915974" lon="26.542875">
<ele>130.267700</ele>
<time>2010-08-29T07:53:55Z</time>
<desc>lat.=55.915974, lon.=26.542875, Alt.=130.267700m. Speed=8.316000m/h.</desc>
<speed>2.310000</speed>
</trkpt>
<trkpt lat="55.915989" lon="26.542906">
<ele>130.146606</ele>
<time>2010-08-29T07:53:56Z</time>
<desc>lat.=55.915989, lon.=26.542906, Alt.=130.146606m. Speed=10.116000m/h.</desc>
<speed>2.810000</speed>
</trkpt>
<trkpt lat="55.916004" lon="26.542936">
<ele>130.232544</ele>
<time>2010-08-29T07:53:57Z</time>
<desc>lat.=55.916004, lon.=26.542936, Alt.=130.232544m. Speed=11.016000m/h.</desc>
<speed>3.060000</speed>
</trkpt>
<trkpt lat="55.916023" lon="26.542973">
<ele>130.607544</ele>
<time>2010-08-29T07:53:58Z</time>
<desc>lat.=55.916023, lon.=26.542973, Alt.=130.607544m. Speed=10.188000m/h.</desc>
<speed>2.830000</speed>
</trkpt>
<trkpt lat="55.916046" lon="26.542995">
<ele>131.064575</ele>
<time>2010-08-29T07:53:59Z</time>
<desc>lat.=55.916046, lon.=26.542995, Alt.=131.064575m. Speed=9.288000m/h.</desc>
<speed>2.580000</speed>
</trkpt>
<trkpt lat="55.916061" lon="26.543024">
<ele>131.255981</ele>
<time>2010-08-29T07:54:00Z</time>
<desc>lat.=55.916061, lon.=26.543024, Alt.=131.255981m. Speed=9.288000m/h.</desc>
<speed>2.580000</speed>
</trkpt>
<trkpt lat="55.916080" lon="26.543045">
<ele>131.795044</ele>
<time>2010-08-29T07:54:01Z</time>
<desc>lat.=55.916080, lon.=26.543045, Alt.=131.795044m. Speed=7.524000m/h.</desc>
<speed>2.090000</speed>
</trkpt>
<trkpt lat="55.916111" lon="26.543068">
<ele>131.232544</ele>
<time>2010-08-29T07:54:02Z</time>
<desc>lat.=55.916111, lon.=26.543068, Alt.=131.232544m. Speed=8.748000m/h.</desc>
<speed>2.430000</speed>
</trkpt>
<trkpt lat="55.916126" lon="26.543085">
<ele>131.548950</ele>
<time>2010-08-29T07:54:03Z</time>
<desc>lat.=55.916126, lon.=26.543085, Alt.=131.548950m. Speed=6.552000m/h.</desc>
<speed>1.820000</speed>
</trkpt>
<trkpt lat="55.916145" lon="26.543110">
<ele>131.998169</ele>
<time>2010-08-29T07:54:04Z</time>
<desc>lat.=55.916145, lon.=26.543110, Alt.=131.998169m. Speed=7.416000m/h.</desc>
<speed>2.060000</speed>
</trkpt>
<trkpt lat="55.916168" lon="26.543140">
<ele>131.607544</ele>
<time>2010-08-29T07:54:05Z</time>
<desc>lat.=55.916168, lon.=26.543140, Alt.=131.607544m. Speed=7.956000m/h.</desc>
<speed>2.210000</speed>
</trkpt>
<trkpt lat="55.916187" lon="26.543161">
<ele>132.275513</ele>
<time>2010-08-29T07:54:06Z</time>
<desc>lat.=55.916187, lon.=26.543161, Alt.=132.275513m. Speed=9.072000m/h.</desc>
<speed>2.520000</speed>
</trkpt>
<trkpt lat="55.916206" lon="26.543190">
<ele>133.060669</ele>
<time>2010-08-29T07:54:07Z</time>
<desc>lat.=55.916206, lon.=26.543190, Alt.=133.060669m. Speed=7.920000m/h.</desc>
<speed>2.200000</speed>
</trkpt>
<trkpt lat="55.916229" lon="26.543217">
<ele>133.341919</ele>
<time>2010-08-29T07:54:08Z</time>
<desc>lat.=55.916229, lon.=26.543217, Alt.=133.341919m. Speed=8.064000m/h.</desc>
<speed>2.240000</speed>
</trkpt>
<trkpt lat="55.916248" lon="26.543236">
<ele>133.470825</ele>
<time>2010-08-29T07:54:09Z</time>
<desc>lat.=55.916248, lon.=26.543236, Alt.=133.470825m. Speed=8.964000m/h.</desc>
<speed>2.490000</speed>
</trkpt>
<trkpt lat="55.916275" lon="26.543255">
<ele>134.056763</ele>
<time>2010-08-29T07:54:10Z</time>
<desc>lat.=55.916275, lon.=26.543255, Alt.=134.056763m. Speed=9.216000m/h.</desc>
<speed>2.560000</speed>
</trkpt>
<trkpt lat="55.916298" lon="26.543282">
<ele>134.490356</ele>
<time>2010-08-29T07:54:11Z</time>
<desc>lat.=55.916298, lon.=26.543282, Alt.=134.490356m. Speed=8.856000m/h.</desc>
<speed>2.460000</speed>
</trkpt>
<trkpt lat="55.916332" lon="26.543308">
<ele>133.724731</ele>
<time>2010-08-29T07:54:12Z</time>
<desc>lat.=55.916332, lon.=26.543308, Alt.=133.724731m. Speed=11.448000m/h.</desc>
<speed>3.180000</speed>
</trkpt>
<trkpt lat="55.916359" lon="26.543331">
<ele>134.029419</ele>
<time>2010-08-29T07:54:13Z</time>
<desc>lat.=55.916359, lon.=26.543331, Alt.=134.029419m. Speed=10.512000m/h.</desc>
<speed>2.920000</speed>
</trkpt>
<trkpt lat="55.916382" lon="26.543360">
<ele>134.420044</ele>
<time>2010-08-29T07:54:14Z</time>
<desc>lat.=55.916382, lon.=26.543360, Alt.=134.420044m. Speed=10.836000m/h.</desc>
<speed>3.010000</speed>
</trkpt>
<trkpt lat="55.916409" lon="26.543381">
<ele>134.650513</ele>
<time>2010-08-29T07:54:15Z</time>
<desc>lat.=55.916409, lon.=26.543381, Alt.=134.650513m. Speed=11.628000m/h.</desc>
<speed>3.230000</speed>
</trkpt>
<trkpt lat="55.916447" lon="26.543409">
<ele>134.603638</ele>
<time>2010-08-29T07:54:16Z</time>
<desc>lat.=55.916447, lon.=26.543409, Alt.=134.603638m. Speed=12.636000m/h.</desc>
<speed>3.510000</speed>
</trkpt>
<trkpt lat="55.916470" lon="26.543434">
<ele>134.974731</ele>
<time>2010-08-29T07:54:17Z</time>
<desc>lat.=55.916470, lon.=26.543434, Alt.=134.974731m. Speed=9.972000m/h.</desc>
<speed>2.770000</speed>
</trkpt>
<trkpt lat="55.916489" lon="26.543457">
<ele>135.291138</ele>
<time>2010-08-29T07:54:18Z</time>
<desc>lat.=55.916489, lon.=26.543457, Alt.=135.291138m. Speed=9.576000m/h.</desc>
<speed>2.660000</speed>
</trkpt>
<trkpt lat="55.916496" lon="26.543482">
<ele>135.353638</ele>
<time>2010-08-29T07:54:19Z</time>
<desc>lat.=55.916496, lon.=26.543482, Alt.=135.353638m. Speed=6.840000m/h.</desc>
<speed>1.900000</speed>
</trkpt>
<trkpt lat="55.916515" lon="26.543497">
<ele>135.771606</ele>
<time>2010-08-29T07:54:20Z</time>
<desc>lat.=55.916515, lon.=26.543497, Alt.=135.771606m. Speed=8.352000m/h.</desc>
<speed>2.320000</speed>
</trkpt>
<trkpt lat="55.916534" lon="26.543501">
<ele>135.845825</ele>
<time>2010-08-29T07:54:21Z</time>
<desc>lat.=55.916534, lon.=26.543501, Alt.=135.845825m. Speed=8.352000m/h.</desc>
<speed>2.320000</speed>
</trkpt>
<trkpt lat="55.916550" lon="26.543514">
<ele>136.338013</ele>
<time>2010-08-29T07:54:22Z</time>
<desc>lat.=55.916550, lon.=26.543514, Alt.=136.338013m. Speed=7.272000m/h.</desc>
<speed>2.020000</speed>
</trkpt>
<trkpt lat="55.916565" lon="26.543528">
<ele>136.841919</ele>
<time>2010-08-29T07:54:23Z</time>
<desc>lat.=55.916565, lon.=26.543528, Alt.=136.841919m. Speed=6.732000m/h.</desc>
<speed>1.870000</speed>
</trkpt>
<trkpt lat="55.916595" lon="26.543539">
<ele>136.459106</ele>
<time>2010-08-29T07:54:24Z</time>
<desc>lat.=55.916595, lon.=26.543539, Alt.=136.459106m. Speed=7.488000m/h.</desc>
<speed>2.080000</speed>
</trkpt>
<trkpt lat="55.916618" lon="26.543554">
<ele>137.244263</ele>
<time>2010-08-29T07:54:25Z</time>
<desc>lat.=55.916618, lon.=26.543554, Alt.=137.244263m. Speed=9.900000m/h.</desc>
<speed>2.750000</speed>
</trkpt>
<trkpt lat="55.916634" lon="26.543568">
<ele>137.478638</ele>
<time>2010-08-29T07:54:26Z</time>
<desc>lat.=55.916634, lon.=26.543568, Alt.=137.478638m. Speed=8.136000m/h.</desc>
<speed>2.260000</speed>
</trkpt>
<trkpt lat="55.916653" lon="26.543573">
<ele>137.787231</ele>
<time>2010-08-29T07:54:27Z</time>
<desc>lat.=55.916653, lon.=26.543573, Alt.=137.787231m. Speed=6.552000m/h.</desc>
<speed>1.820000</speed>
</trkpt>
<trkpt lat="55.916664" lon="26.543585">
<ele>138.130981</ele>
<time>2010-08-29T07:54:28Z</time>
<desc>lat.=55.916664, lon.=26.543585, Alt.=138.130981m. Speed=6.012000m/h.</desc>
<speed>1.670000</speed>
</trkpt>
<trkpt lat="55.916698" lon="26.543629">
<ele>139.298950</ele>
<time>2010-08-29T07:54:29Z</time>
<desc>lat.=55.916698, lon.=26.543629, Alt.=139.298950m. Speed=9.504000m/h.</desc>
<speed>2.640000</speed>
</trkpt>
<trkpt lat="55.916714" lon="26.543659">
<ele>137.502075</ele>
<time>2010-08-29T07:54:30Z</time>
<desc>lat.=55.916714, lon.=26.543659, Alt.=137.502075m. Speed=9.468000m/h.</desc>
<speed>2.630000</speed>
</trkpt>
<trkpt lat="55.916740" lon="26.543671">
<ele>137.396606</ele>
<time>2010-08-29T07:54:31Z</time>
<desc>lat.=55.916740, lon.=26.543671, Alt.=137.396606m. Speed=9.648000m/h.</desc>
<speed>2.680000</speed>
</trkpt>
<trkpt lat="55.916771" lon="26.543682">
<ele>137.298950</ele>
<time>2010-08-29T07:54:32Z</time>
<desc>lat.=55.916771, lon.=26.543682, Alt.=137.298950m. Speed=11.376000m/h.</desc>
<speed>3.160000</speed>
</trkpt>
<trkpt lat="55.916798" lon="26.543703">
<ele>137.552856</ele>
<time>2010-08-29T07:54:33Z</time>
<desc>lat.=55.916798, lon.=26.543703, Alt.=137.552856m. Speed=10.764000m/h.</desc>
<speed>2.990000</speed>
</trkpt>
<trkpt lat="55.916821" lon="26.543730">
<ele>137.646606</ele>
<time>2010-08-29T07:54:34Z</time>
<desc>lat.=55.916821, lon.=26.543730, Alt.=137.646606m. Speed=10.404000m/h.</desc>
<speed>2.890000</speed>
</trkpt>
<trkpt lat="55.916859" lon="26.543760">
<ele>137.494263</ele>
<time>2010-08-29T07:54:35Z</time>
<desc>lat.=55.916859, lon.=26.543760, Alt.=137.494263m. Speed=10.836000m/h.</desc>
<speed>3.010000</speed>
</trkpt>
<trkpt lat="55.916885" lon="26.543785">
<ele>138.232544</ele>
<time>2010-08-29T07:54:36Z</time>
<desc>lat.=55.916885, lon.=26.543785, Alt.=138.232544m. Speed=10.296000m/h.</desc>
<speed>2.860000</speed>
</trkpt>
<trkpt lat="55.916924" lon="26.543823">
<ele>139.767700</ele>
<time>2010-08-29T07:54:37Z</time>
<desc>lat.=55.916924, lon.=26.543823, Alt.=139.767700m. Speed=9.612000m/h.</desc>
<speed>2.670000</speed>
</trkpt>
<trkpt lat="55.916946" lon="26.543854">
<ele>140.841919</ele>
<time>2010-08-29T07:54:38Z</time>
<desc>lat.=55.916946, lon.=26.543854, Alt.=140.841919m. Speed=8.928000m/h.</desc>
<speed>2.480000</speed>
</trkpt>
<trkpt lat="55.916969" lon="26.543882">
<ele>141.904419</ele>
<time>2010-08-29T07:54:39Z</time>
<desc>lat.=55.916969, lon.=26.543882, Alt.=141.904419m. Speed=9.144000m/h.</desc>
<speed>2.540000</speed>
</trkpt>
<trkpt lat="55.917011" lon="26.543932">
<ele>143.595825</ele>
<time>2010-08-29T07:54:40Z</time>
<desc>lat.=55.917011, lon.=26.543932, Alt.=143.595825m. Speed=8.388000m/h.</desc>
<speed>2.330000</speed>
</trkpt>
<trkpt lat="55.917034" lon="26.543961">
<ele>144.119263</ele>
<time>2010-08-29T07:54:41Z</time>
<desc>lat.=55.917034, lon.=26.543961, Alt.=144.119263m. Speed=8.280000m/h.</desc>
<speed>2.300000</speed>
</trkpt>
<trkpt lat="55.917057" lon="26.543982">
<ele>143.931763</ele>
<time>2010-08-29T07:54:42Z</time>
<desc>lat.=55.917057, lon.=26.543982, Alt.=143.931763m. Speed=8.856000m/h.</desc>
<speed>2.460000</speed>
</trkpt>
<trkpt lat="55.917099" lon="26.544010">
<ele>142.892700</ele>
<time>2010-08-29T07:54:43Z</time>
<desc>lat.=55.917099, lon.=26.544010, Alt.=142.892700m. Speed=10.476000m/h.</desc>
<speed>2.910000</speed>
</trkpt>
<trkpt lat="55.917114" lon="26.544043">
<ele>142.697388</ele>
<time>2010-08-29T07:54:44Z</time>
<desc>lat.=55.917114, lon.=26.544043, Alt.=142.697388m. Speed=8.712000m/h.</desc>
<speed>2.420000</speed>
</trkpt>
<trkpt lat="55.917145" lon="26.544067">
<ele>141.755981</ele>
<time>2010-08-29T07:54:45Z</time>
<desc>lat.=55.917145, lon.=26.544067, Alt.=141.755981m. Speed=11.736000m/h.</desc>
<speed>3.260000</speed>
</trkpt>
<trkpt lat="55.917171" lon="26.544088">
<ele>141.427856</ele>
<time>2010-08-29T07:54:46Z</time>
<desc>lat.=55.917171, lon.=26.544088, Alt.=141.427856m. Speed=11.952000m/h.</desc>
<speed>3.320000</speed>
</trkpt>
<trkpt lat="55.917202" lon="26.544117">
<ele>141.380981</ele>
<time>2010-08-29T07:54:47Z</time>
<desc>lat.=55.917202, lon.=26.544117, Alt.=141.380981m. Speed=9.432000m/h.</desc>
<speed>2.620000</speed>
</trkpt>
<trkpt lat="55.917244" lon="26.544159">
<ele>140.603638</ele>
<time>2010-08-29T07:54:48Z</time>
<desc>lat.=55.917244, lon.=26.544159, Alt.=140.603638m. Speed=8.460000m/h.</desc>
<speed>2.350000</speed>
</trkpt>
<trkpt lat="55.917263" lon="26.544193">
<ele>139.599731</ele>
<time>2010-08-29T07:54:49Z</time>
<desc>lat.=55.917263, lon.=26.544193, Alt.=139.599731m. Speed=6.408000m/h.</desc>
<speed>1.780000</speed>
</trkpt>
<trkpt lat="55.917278" lon="26.544216">
<ele>139.955200</ele>
<time>2010-08-29T07:54:50Z</time>
<desc>lat.=55.917278, lon.=26.544216, Alt.=139.955200m. Speed=7.704000m/h.</desc>
<speed>2.140000</speed>
</trkpt>
<trkpt lat="55.917309" lon="26.544241">
<ele>139.966919</ele>
<time>2010-08-29T07:54:51Z</time>
<desc>lat.=55.917309, lon.=26.544241, Alt.=139.966919m. Speed=10.116000m/h.</desc>
<speed>2.810000</speed>
</trkpt>
<trkpt lat="55.917343" lon="26.544266">
<ele>139.912231</ele>
<time>2010-08-29T07:54:52Z</time>
<desc>lat.=55.917343, lon.=26.544266, Alt.=139.912231m. Speed=12.744000m/h.</desc>
<speed>3.540000</speed>
</trkpt>
<trkpt lat="55.917377" lon="26.544294">
<ele>139.548950</ele>
<time>2010-08-29T07:54:53Z</time>
<desc>lat.=55.917377, lon.=26.544294, Alt.=139.548950m. Speed=12.348000m/h.</desc>
<speed>3.430000</speed>
</trkpt>
<trkpt lat="55.917412" lon="26.544319">
<ele>138.974731</ele>
<time>2010-08-29T07:54:54Z</time>
<desc>lat.=55.917412, lon.=26.544319, Alt.=138.974731m. Speed=12.636000m/h.</desc>
<speed>3.510000</speed>
</trkpt>
<trkpt lat="55.917442" lon="26.544348">
<ele>139.400513</ele>
<time>2010-08-29T07:54:55Z</time>
<desc>lat.=55.917442, lon.=26.544348, Alt.=139.400513m. Speed=13.068000m/h.</desc>
<speed>3.630000</speed>
</trkpt>
<trkpt lat="55.917477" lon="26.544376">
<ele>139.494263</ele>
<time>2010-08-29T07:54:56Z</time>
<desc>lat.=55.917477, lon.=26.544376, Alt.=139.494263m. Speed=13.140000m/h.</desc>
<speed>3.650000</speed>
</trkpt>
<trkpt lat="55.917496" lon="26.544409">
<ele>138.166138</ele>
<time>2010-08-29T07:54:57Z</time>
<desc>lat.=55.917496, lon.=26.544409, Alt.=138.166138m. Speed=13.716000m/h.</desc>
<speed>3.810000</speed>
</trkpt>
<trkpt lat="55.917530" lon="26.544439">
<ele>138.486450</ele>
<time>2010-08-29T07:54:58Z</time>
<desc>lat.=55.917530, lon.=26.544439, Alt.=138.486450m. Speed=13.068000m/h.</desc>
<speed>3.630000</speed>
</trkpt>
<trkpt lat="55.917561" lon="26.544464">
<ele>138.955200</ele>
<time>2010-08-29T07:54:59Z</time>
<desc>lat.=55.917561, lon.=26.544464, Alt.=138.955200m. Speed=12.816000m/h.</desc>
<speed>3.560000</speed>
</trkpt>
<trkpt lat="55.917591" lon="26.544483">
<ele>139.216919</ele>
<time>2010-08-29T07:55:00Z</time>
<desc>lat.=55.917591, lon.=26.544483, Alt.=139.216919m. Speed=11.664000m/h.</desc>
<speed>3.240000</speed>
</trkpt>
<trkpt lat="55.917622" lon="26.544495">
<ele>138.767700</ele>
<time>2010-08-29T07:55:01Z</time>
<desc>lat.=55.917622, lon.=26.544495, Alt.=138.767700m. Speed=11.412000m/h.</desc>
<speed>3.170000</speed>
</trkpt>
<trkpt lat="55.917652" lon="26.544518">
<ele>138.912231</ele>
<time>2010-08-29T07:55:02Z</time>
<desc>lat.=55.917652, lon.=26.544518, Alt.=138.912231m. Speed=10.332000m/h.</desc>
<speed>2.870000</speed>
</trkpt>
<trkpt lat="55.917679" lon="26.544542">
<ele>139.029419</ele>
<time>2010-08-29T07:55:03Z</time>
<desc>lat.=55.917679, lon.=26.544542, Alt.=139.029419m. Speed=10.512000m/h.</desc>
<speed>2.920000</speed>
</trkpt>
<trkpt lat="55.917709" lon="26.544577">
<ele>139.865356</ele>
<time>2010-08-29T07:55:04Z</time>
<desc>lat.=55.917709, lon.=26.544577, Alt.=139.865356m. Speed=9.792000m/h.</desc>
<speed>2.720000</speed>
</trkpt>
<trkpt lat="55.917732" lon="26.544601">
<ele>140.236450</ele>
<time>2010-08-29T07:55:05Z</time>
<desc>lat.=55.917732, lon.=26.544601, Alt.=140.236450m. Speed=10.116000m/h.</desc>
<speed>2.810000</speed>
</trkpt>
<trkpt lat="55.917763" lon="26.544621">
<ele>140.767700</ele>
<time>2010-08-29T07:55:06Z</time>
<desc>lat.=55.917763, lon.=26.544621, Alt.=140.767700m. Speed=12.096000m/h.</desc>
<speed>3.360000</speed>
</trkpt>
<trkpt lat="55.917789" lon="26.544638">
<ele>141.443481</ele>
<time>2010-08-29T07:55:07Z</time>
<desc>lat.=55.917789, lon.=26.544638, Alt.=141.443481m. Speed=11.124000m/h.</desc>
<speed>3.090000</speed>
</trkpt>
<trkpt lat="55.917812" lon="26.544659">
<ele>140.849731</ele>
<time>2010-08-29T07:55:08Z</time>
<desc>lat.=55.917812, lon.=26.544659, Alt.=140.849731m. Speed=11.448000m/h.</desc>
<speed>3.180000</speed>
</trkpt>
<trkpt lat="55.917835" lon="26.544682">
<ele>139.783325</ele>
<time>2010-08-29T07:55:09Z</time>
<desc>lat.=55.917835, lon.=26.544682, Alt.=139.783325m. Speed=11.448000m/h.</desc>
<speed>3.180000</speed>
</trkpt>
<trkpt lat="55.917850" lon="26.544706">
<ele>138.998169</ele>
<time>2010-08-29T07:55:10Z</time>
<desc>lat.=55.917850, lon.=26.544706, Alt.=138.998169m. Speed=11.484000m/h.</desc>
<speed>3.190000</speed>
</trkpt>
<trkpt lat="55.917873" lon="26.544739">
<ele>137.486450</ele>
<time>2010-08-29T07:55:11Z</time>
<desc>lat.=55.917873, lon.=26.544739, Alt.=137.486450m. Speed=13.428000m/h.</desc>
<speed>3.730000</speed>
</trkpt>
<trkpt lat="55.917900" lon="26.544765">
<ele>135.986450</ele>
<time>2010-08-29T07:55:12Z</time>
<desc>lat.=55.917900, lon.=26.544765, Alt.=135.986450m. Speed=12.240000m/h.</desc>
<speed>3.400000</speed>
</trkpt>
<trkpt lat="55.917927" lon="26.544792">
<ele>134.787231</ele>
<time>2010-08-29T07:55:13Z</time>
<desc>lat.=55.917927, lon.=26.544792, Alt.=134.787231m. Speed=13.680000m/h.</desc>
<speed>3.800000</speed>
</trkpt>
<trkpt lat="55.917953" lon="26.544821">
<ele>134.095825</ele>
<time>2010-08-29T07:55:14Z</time>
<desc>lat.=55.917953, lon.=26.544821, Alt.=134.095825m. Speed=13.140000m/h.</desc>
<speed>3.650000</speed>
</trkpt>
<trkpt lat="55.917984" lon="26.544847">
<ele>133.857544</ele>
<time>2010-08-29T07:55:15Z</time>
<desc>lat.=55.917984, lon.=26.544847, Alt.=133.857544m. Speed=14.868000m/h.</desc>
<speed>4.130000</speed>
</trkpt>
<trkpt lat="55.918018" lon="26.544872">
<ele>133.103638</ele>
<time>2010-08-29T07:55:16Z</time>
<desc>lat.=55.918018, lon.=26.544872, Alt.=133.103638m. Speed=14.004000m/h.</desc>
<speed>3.890000</speed>
</trkpt>
<trkpt lat="55.918049" lon="26.544903">
<ele>132.115356</ele>
<time>2010-08-29T07:55:17Z</time>
<desc>lat.=55.918049, lon.=26.544903, Alt.=132.115356m. Speed=13.428000m/h.</desc>
<speed>3.730000</speed>
</trkpt>
<trkpt lat="55.918083" lon="26.544933">
<ele>130.908325</ele>
<time>2010-08-29T07:55:18Z</time>
<desc>lat.=55.918083, lon.=26.544933, Alt.=130.908325m. Speed=13.248000m/h.</desc>
<speed>3.680000</speed>
</trkpt>
<trkpt lat="55.918114" lon="26.544960">
<ele>130.681763</ele>
<time>2010-08-29T07:55:19Z</time>
<desc>lat.=55.918114, lon.=26.544960, Alt.=130.681763m. Speed=13.176000m/h.</desc>
<speed>3.660000</speed>
</trkpt>
<trkpt lat="55.918148" lon="26.544989">
<ele>130.291138</ele>
<time>2010-08-29T07:55:20Z</time>
<desc>lat.=55.918148, lon.=26.544989, Alt.=130.291138m. Speed=13.104000m/h.</desc>
<speed>3.640000</speed>
</trkpt>
<trkpt lat="55.918179" lon="26.545019">
<ele>130.021606</ele>
<time>2010-08-29T07:55:21Z</time>
<desc>lat.=55.918179, lon.=26.545019, Alt.=130.021606m. Speed=13.140000m/h.</desc>
<speed>3.650000</speed>
</trkpt>
<trkpt lat="55.918209" lon="26.545046">
<ele>129.673950</ele>
<time>2010-08-29T07:55:22Z</time>
<desc>lat.=55.918209, lon.=26.545046, Alt.=129.673950m. Speed=13.824000m/h.</desc>
<speed>3.840000</speed>
</trkpt>
<trkpt lat="55.918247" lon="26.545071">
<ele>129.826294</ele>
<time>2010-08-29T07:55:23Z</time>
<desc>lat.=55.918247, lon.=26.545071, Alt.=129.826294m. Speed=14.724000m/h.</desc>
<speed>4.090000</speed>
</trkpt>
<trkpt lat="55.918285" lon="26.545101">
<ele>129.412231</ele>
<time>2010-08-29T07:55:24Z</time>
<desc>lat.=55.918285, lon.=26.545101, Alt.=129.412231m. Speed=18.143999m/h.</desc>
<speed>5.040000</speed>
</trkpt>
<trkpt lat="55.918327" lon="26.545141">
<ele>128.767700</ele>
<time>2010-08-29T07:55:25Z</time>
<desc>lat.=55.918327, lon.=26.545141, Alt.=128.767700m. Speed=18.972000m/h.</desc>
<speed>5.270000</speed>
</trkpt>
<trkpt lat="55.918369" lon="26.545177">
<ele>128.111450</ele>
<time>2010-08-29T07:55:26Z</time>
<desc>lat.=55.918369, lon.=26.545177, Alt.=128.111450m. Speed=18.972000m/h.</desc>
<speed>5.270000</speed>
</trkpt>
<trkpt lat="55.918411" lon="26.545216">
<ele>127.702209</ele>
<time>2010-08-29T07:55:27Z</time>
<desc>lat.=55.918411, lon.=26.545216, Alt.=127.702209m. Speed=19.260000m/h.</desc>
<speed>5.350000</speed>
</trkpt>
<trkpt lat="55.918457" lon="26.545252">
<ele>127.405334</ele>
<time>2010-08-29T07:55:28Z</time>
<desc>lat.=55.918457, lon.=26.545252, Alt.=127.405334m. Speed=20.268000m/h.</desc>
<speed>5.630000</speed>
</trkpt>
<trkpt lat="55.918503" lon="26.545292">
<ele>127.188538</ele>
<time>2010-08-29T07:55:29Z</time>
<desc>lat.=55.918503, lon.=26.545292, Alt.=127.188538m. Speed=20.016001m/h.</desc>
<speed>5.560000</speed>
</trkpt>
<trkpt lat="55.918549" lon="26.545332">
<ele>127.010803</ele>
<time>2010-08-29T07:55:30Z</time>
<desc>lat.=55.918549, lon.=26.545332, Alt.=127.010803m. Speed=20.808001m/h.</desc>
<speed>5.780000</speed>
</trkpt>
<trkpt lat="55.918594" lon="26.545372">
<ele>126.885803</ele>
<time>2010-08-29T07:55:31Z</time>
<desc>lat.=55.918594, lon.=26.545372, Alt.=126.885803m. Speed=18.684000m/h.</desc>
<speed>5.190000</speed>
</trkpt>
<trkpt lat="55.918640" lon="26.545410">
<ele>126.629944</ele>
<time>2010-08-29T07:55:32Z</time>
<desc>lat.=55.918640, lon.=26.545410, Alt.=126.629944m. Speed=20.087999m/h.</desc>
<speed>5.580000</speed>
</trkpt>
<trkpt lat="55.918686" lon="26.545448">
<ele>126.774475</ele>
<time>2010-08-29T07:55:33Z</time>
<desc>lat.=55.918686, lon.=26.545448, Alt.=126.774475m. Speed=19.007999m/h.</desc>
<speed>5.280000</speed>
</trkpt>
<trkpt lat="55.918728" lon="26.545492">
<ele>126.817444</ele>
<time>2010-08-29T07:55:34Z</time>
<desc>lat.=55.918728, lon.=26.545492, Alt.=126.817444m. Speed=19.691999m/h.</desc>
<speed>5.470000</speed>
</trkpt>
<trkpt lat="55.918770" lon="26.545542">
<ele>126.891663</ele>
<time>2010-08-29T07:55:35Z</time>
<desc>lat.=55.918770, lon.=26.545542, Alt.=126.891663m. Speed=20.700001m/h.</desc>
<speed>5.750000</speed>
</trkpt>
<trkpt lat="55.918816" lon="26.545589">
<ele>126.766663</ele>
<time>2010-08-29T07:55:36Z</time>
<desc>lat.=55.918816, lon.=26.545589, Alt.=126.766663m. Speed=21.167999m/h.</desc>
<speed>5.880000</speed>
</trkpt>
<trkpt lat="55.918865" lon="26.545637">
<ele>126.544006</ele>
<time>2010-08-29T07:55:37Z</time>
<desc>lat.=55.918865, lon.=26.545637, Alt.=126.544006m. Speed=23.327999m/h.</desc>
<speed>6.480000</speed>
</trkpt>
<trkpt lat="55.918915" lon="26.545691">
<ele>126.596741</ele>
<time>2010-08-29T07:55:38Z</time>
<desc>lat.=55.918915, lon.=26.545691, Alt.=126.596741m. Speed=23.615999m/h.</desc>
<speed>6.560000</speed>
</trkpt>
<trkpt lat="55.918968" lon="26.545744">
<ele>126.495178</ele>
<time>2010-08-29T07:55:39Z</time>
<desc>lat.=55.918968, lon.=26.545744, Alt.=126.495178m. Speed=24.552000m/h.</desc>
<speed>6.820000</speed>
</trkpt>
<trkpt lat="55.919025" lon="26.545799">
<ele>126.419006</ele>
<time>2010-08-29T07:55:40Z</time>
<desc>lat.=55.919025, lon.=26.545799, Alt.=126.419006m. Speed=26.388000m/h.</desc>
<speed>7.330000</speed>
</trkpt>
<trkpt lat="55.919079" lon="26.545856">
<ele>126.315491</ele>
<time>2010-08-29T07:55:41Z</time>
<desc>lat.=55.919079, lon.=26.545856, Alt.=126.315491m. Speed=25.200001m/h.</desc>
<speed>7.000000</speed>
</trkpt>
<trkpt lat="55.919117" lon="26.545916">
<ele>125.786194</ele>
<time>2010-08-29T07:55:42Z</time>
<desc>lat.=55.919117, lon.=26.545916, Alt.=125.786194m. Speed=24.372000m/h.</desc>
<speed>6.770000</speed>
</trkpt>
<trkpt lat="55.919170" lon="26.545967">
<ele>125.801819</ele>
<time>2010-08-29T07:55:43Z</time>
<desc>lat.=55.919170, lon.=26.545967, Alt.=125.801819m. Speed=24.408001m/h.</desc>
<speed>6.780000</speed>
</trkpt>
<trkpt lat="55.919216" lon="26.546019">
<ele>125.899475</ele>
<time>2010-08-29T07:55:44Z</time>
<desc>lat.=55.919216, lon.=26.546019, Alt.=125.899475m. Speed=20.664000m/h.</desc>
<speed>5.740000</speed>
</trkpt>
<trkpt lat="55.919243" lon="26.546078">
<ele>125.614319</ele>
<time>2010-08-29T07:55:45Z</time>
<desc>lat.=55.919243, lon.=26.546078, Alt.=125.614319m. Speed=21.275999m/h.</desc>
<speed>5.910000</speed>
</trkpt>
<trkpt lat="55.919289" lon="26.546125">
<ele>125.827209</ele>
<time>2010-08-29T07:55:46Z</time>
<desc>lat.=55.919289, lon.=26.546125, Alt.=125.827209m. Speed=19.980000m/h.</desc>
<speed>5.550000</speed>
</trkpt>
<trkpt lat="55.919331" lon="26.546169">
<ele>125.852600</ele>
<time>2010-08-29T07:55:47Z</time>
<desc>lat.=55.919331, lon.=26.546169, Alt.=125.852600m. Speed=20.016001m/h.</desc>
<speed>5.560000</speed>
</trkpt>
<trkpt lat="55.919373" lon="26.546209">
<ele>125.942444</ele>
<time>2010-08-29T07:55:48Z</time>
<desc>lat.=55.919373, lon.=26.546209, Alt.=125.942444m. Speed=16.416000m/h.</desc>
<speed>4.560000</speed>
</trkpt>
<trkpt lat="55.919399" lon="26.546244">
<ele>126.118225</ele>
<time>2010-08-29T07:55:49Z</time>
<desc>lat.=55.919399, lon.=26.546244, Alt.=126.118225m. Speed=12.888000m/h.</desc>
<speed>3.580000</speed>
</trkpt>
<trkpt lat="55.919426" lon="26.546259">
<ele>126.231506</ele>
<time>2010-08-29T07:55:50Z</time>
<desc>lat.=55.919426, lon.=26.546259, Alt.=126.231506m. Speed=8.424000m/h.</desc>
<speed>2.340000</speed>
</trkpt>
<trkpt lat="55.919449" lon="26.546270">
<ele>126.202209</ele>
<time>2010-08-29T07:55:51Z</time>
<desc>lat.=55.919449, lon.=26.546270, Alt.=126.202209m. Speed=7.524000m/h.</desc>
<speed>2.090000</speed>
</trkpt>
<trkpt lat="55.919464" lon="26.546282">
<ele>126.251038</ele>
<time>2010-08-29T07:55:52Z</time>
<desc>lat.=55.919464, lon.=26.546282, Alt.=126.251038m. Speed=5.688000m/h.</desc>
<speed>1.580000</speed>
</trkpt>
<trkpt lat="55.919476" lon="26.546286">
<ele>126.436584</ele>
<time>2010-08-29T07:55:53Z</time>
<desc>lat.=55.919476, lon.=26.546286, Alt.=126.436584m. Speed=5.004000m/h.</desc>
<speed>1.390000</speed>
</trkpt>
<trkpt lat="55.919491" lon="26.546297">
<ele>125.782288</ele>
<time>2010-08-29T07:55:54Z</time>
<desc>lat.=55.919491, lon.=26.546297, Alt.=125.782288m. Speed=4.932000m/h.</desc>
<speed>1.370000</speed>
</trkpt>
<trkpt lat="55.919506" lon="26.546307">
<ele>125.829163</ele>
<time>2010-08-29T07:55:55Z</time>
<desc>lat.=55.919506, lon.=26.546307, Alt.=125.829163m. Speed=5.256000m/h.</desc>
<speed>1.460000</speed>
</trkpt>
<trkpt lat="55.919506" lon="26.546320">
<ele>125.485413</ele>
<time>2010-08-29T07:55:56Z</time>
<desc>lat.=55.919506, lon.=26.546320, Alt.=125.485413m. Speed=4.896000m/h.</desc>
<speed>1.360000</speed>
</trkpt>
<trkpt lat="55.919518" lon="26.546329">
<ele>125.157288</ele>
<time>2010-08-29T07:55:57Z</time>
<desc>lat.=55.919518, lon.=26.546329, Alt.=125.157288m. Speed=3.744000m/h.</desc>
<speed>1.040000</speed>
</trkpt>
<trkpt lat="55.919525" lon="26.546337">
<ele>124.807678</ele>
<time>2010-08-29T07:55:58Z</time>
<desc>lat.=55.919525, lon.=26.546337, Alt.=124.807678m. Speed=2.088000m/h.</desc>
<speed>0.580000</speed>
</trkpt>
<trkpt lat="55.919529" lon="26.546333">
<ele>124.647522</ele>
<time>2010-08-29T07:55:59Z</time>
<desc>lat.=55.919529, lon.=26.546333, Alt.=124.647522m. Speed=2.448000m/h.</desc>
<speed>0.680000</speed>
</trkpt>
<trkpt lat="55.919537" lon="26.546318">
<ele>123.899475</ele>
<time>2010-08-29T07:56:00Z</time>
<desc>lat.=55.919537, lon.=26.546318, Alt.=123.899475m. Speed=2.880000m/h.</desc>
<speed>0.800000</speed>
</trkpt>
<trkpt lat="55.919548" lon="26.546301">
<ele>123.372131</ele>
<time>2010-08-29T07:56:01Z</time>
<desc>lat.=55.919548, lon.=26.546301, Alt.=123.372131m. Speed=3.528000m/h.</desc>
<speed>0.980000</speed>
</trkpt>
<trkpt lat="55.919552" lon="26.546289">
<ele>123.346741</ele>
<time>2010-08-29T07:56:02Z</time>
<desc>lat.=55.919552, lon.=26.546289, Alt.=123.346741m. Speed=4.140000m/h.</desc>
<speed>1.150000</speed>
</trkpt>
<trkpt lat="55.919548" lon="26.546253">
<ele>122.856506</ele>
<time>2010-08-29T07:56:03Z</time>
<desc>lat.=55.919548, lon.=26.546253, Alt.=122.856506m. Speed=5.688000m/h.</desc>
<speed>1.580000</speed>
</trkpt>
<trkpt lat="55.919567" lon="26.546232">
<ele>123.331116</ele>
<time>2010-08-29T07:56:04Z</time>
<desc>lat.=55.919567, lon.=26.546232, Alt.=123.331116m. Speed=7.848000m/h.</desc>
<speed>2.180000</speed>
</trkpt>
<trkpt lat="55.919586" lon="26.546219">
<ele>123.377991</ele>
<time>2010-08-29T07:56:05Z</time>
<desc>lat.=55.919586, lon.=26.546219, Alt.=123.377991m. Speed=7.308000m/h.</desc>
<speed>2.030000</speed>
</trkpt>
<trkpt lat="55.919601" lon="26.546211">
<ele>123.456116</ele>
<time>2010-08-29T07:56:06Z</time>
<desc>lat.=55.919601, lon.=26.546211, Alt.=123.456116m. Speed=7.020000m/h.</desc>
<speed>1.950000</speed>
</trkpt>
<trkpt lat="55.919632" lon="26.546207">
<ele>124.034241</ele>
<time>2010-08-29T07:56:07Z</time>
<desc>lat.=55.919632, lon.=26.546207, Alt.=124.034241m. Speed=9.288000m/h.</desc>
<speed>2.580000</speed>
</trkpt>
<trkpt lat="55.919651" lon="26.546206">
<ele>124.401428</ele>
<time>2010-08-29T07:56:08Z</time>
<desc>lat.=55.919651, lon.=26.546206, Alt.=124.401428m. Speed=7.092000m/h.</desc>
<speed>1.970000</speed>
</trkpt>
<trkpt lat="55.919689" lon="26.546211">
<ele>126.221741</ele>
<time>2010-08-29T07:56:09Z</time>
<desc>lat.=55.919689, lon.=26.546211, Alt.=126.221741m. Speed=5.580000m/h.</desc>
<speed>1.550000</speed>
</trkpt>
<trkpt lat="55.919708" lon="26.546223">
<ele>126.973694</ele>
<time>2010-08-29T07:56:10Z</time>
<desc>lat.=55.919708, lon.=26.546223, Alt.=126.973694m. Speed=10.980000m/h.</desc>
<speed>3.050000</speed>
</trkpt>
<trkpt lat="55.919743" lon="26.546244">
<ele>127.403381</ele>
<time>2010-08-29T07:56:11Z</time>
<desc>lat.=55.919743, lon.=26.546244, Alt.=127.403381m. Speed=12.708000m/h.</desc>
<speed>3.530000</speed>
</trkpt>
<trkpt lat="55.919773" lon="26.546259">
<ele>128.056763</ele>
<time>2010-08-29T07:56:12Z</time>
<desc>lat.=55.919773, lon.=26.546259, Alt.=128.056763m. Speed=14.652000m/h.</desc>
<speed>4.070000</speed>
</trkpt>
<trkpt lat="55.919811" lon="26.546280">
<ele>128.466919</ele>
<time>2010-08-29T07:56:13Z</time>
<desc>lat.=55.919811, lon.=26.546280, Alt.=128.466919m. Speed=15.084000m/h.</desc>
<speed>4.190000</speed>
</trkpt>
<trkpt lat="55.919846" lon="26.546303">
<ele>129.154419</ele>
<time>2010-08-29T07:56:14Z</time>
<desc>lat.=55.919846, lon.=26.546303, Alt.=129.154419m. Speed=14.652000m/h.</desc>
<speed>4.070000</speed>
</trkpt>
<trkpt lat="55.919880" lon="26.546331">
<ele>130.060669</ele>
<time>2010-08-29T07:56:15Z</time>
<desc>lat.=55.919880, lon.=26.546331, Alt.=130.060669m. Speed=13.320000m/h.</desc>
<speed>3.700000</speed>
</trkpt>
<trkpt lat="55.919910" lon="26.546356">
<ele>131.213013</ele>
<time>2010-08-29T07:56:16Z</time>
<desc>lat.=55.919910, lon.=26.546356, Alt.=131.213013m. Speed=15.084000m/h.</desc>
<speed>4.190000</speed>
</trkpt>
<trkpt lat="55.919941" lon="26.546383">
<ele>132.189575</ele>
<time>2010-08-29T07:56:17Z</time>
<desc>lat.=55.919941, lon.=26.546383, Alt.=132.189575m. Speed=14.760000m/h.</desc>
<speed>4.100000</speed>
</trkpt>
<trkpt lat="55.919979" lon="26.546412">
<ele>133.216919</ele>
<time>2010-08-29T07:56:18Z</time>
<desc>lat.=55.919979, lon.=26.546412, Alt.=133.216919m. Speed=13.536000m/h.</desc>
<speed>3.760000</speed>
</trkpt>
<trkpt lat="55.920013" lon="26.546448">
<ele>134.103638</ele>
<time>2010-08-29T07:56:19Z</time>
<desc>lat.=55.920013, lon.=26.546448, Alt.=134.103638m. Speed=14.220000m/h.</desc>
<speed>3.950000</speed>
</trkpt>
<trkpt lat="55.920036" lon="26.546486">
<ele>134.720825</ele>
<time>2010-08-29T07:56:20Z</time>
<desc>lat.=55.920036, lon.=26.546486, Alt.=134.720825m. Speed=13.860000m/h.</desc>
<speed>3.850000</speed>
</trkpt>
<trkpt lat="55.920067" lon="26.546530">
<ele>135.623169</ele>
<time>2010-08-29T07:56:21Z</time>
<desc>lat.=55.920067, lon.=26.546530, Alt.=135.623169m. Speed=13.860000m/h.</desc>
<speed>3.850000</speed>
</trkpt>
<trkpt lat="55.920097" lon="26.546562">
<ele>136.310669</ele>
<time>2010-08-29T07:56:22Z</time>
<desc>lat.=55.920097, lon.=26.546562, Alt.=136.310669m. Speed=14.652000m/h.</desc>
<speed>4.070000</speed>
</trkpt>
<trkpt lat="55.920132" lon="26.546608">
<ele>137.470825</ele>
<time>2010-08-29T07:56:23Z</time>
<desc>lat.=55.920132, lon.=26.546608, Alt.=137.470825m. Speed=15.048000m/h.</desc>
<speed>4.180000</speed>
</trkpt>
<trkpt lat="55.920181" lon="26.546658">
<ele>137.064575</ele>
<time>2010-08-29T07:56:24Z</time>
<desc>lat.=55.920181, lon.=26.546658, Alt.=137.064575m. Speed=16.488001m/h.</desc>
<speed>4.580000</speed>
</trkpt>
<trkpt lat="55.920227" lon="26.546688">
<ele>138.045044</ele>
<time>2010-08-29T07:56:25Z</time>
<desc>lat.=55.920227, lon.=26.546688, Alt.=138.045044m. Speed=18.000000m/h.</desc>
<speed>5.000000</speed>
</trkpt>
<trkpt lat="55.920269" lon="26.546730">
<ele>139.595825</ele>
<time>2010-08-29T07:56:26Z</time>
<desc>lat.=55.920269, lon.=26.546730, Alt.=139.595825m. Speed=15.228000m/h.</desc>
<speed>4.230000</speed>
</trkpt>
<trkpt lat="55.920311" lon="26.546770">
<ele>139.826294</ele>
<time>2010-08-29T07:56:27Z</time>
<desc>lat.=55.920311, lon.=26.546770, Alt.=139.826294m. Speed=15.768000m/h.</desc>
<speed>4.380000</speed>
</trkpt>
<trkpt lat="55.920345" lon="26.546814">
<ele>138.463013</ele>
<time>2010-08-29T07:56:28Z</time>
<desc>lat.=55.920345, lon.=26.546814, Alt.=138.463013m. Speed=13.320000m/h.</desc>
<speed>3.700000</speed>
</trkpt>
<trkpt lat="55.920391" lon="26.546848">
<ele>137.931763</ele>
<time>2010-08-29T07:56:29Z</time>
<desc>lat.=55.920391, lon.=26.546848, Alt.=137.931763m. Speed=16.704000m/h.</desc>
<speed>4.640000</speed>
</trkpt>
<trkpt lat="55.920437" lon="26.546864">
<ele>138.021606</ele>
<time>2010-08-29T07:56:30Z</time>
<desc>lat.=55.920437, lon.=26.546864, Alt.=138.021606m. Speed=15.516000m/h.</desc>
<speed>4.310000</speed>
</trkpt>
<trkpt lat="55.920483" lon="26.546881">
<ele>138.213013</ele>
<time>2010-08-29T07:56:31Z</time>
<desc>lat.=55.920483, lon.=26.546881, Alt.=138.213013m. Speed=15.372000m/h.</desc>
<speed>4.270000</speed>
</trkpt>
<trkpt lat="55.920517" lon="26.546890">
<ele>139.099731</ele>
<time>2010-08-29T07:56:32Z</time>
<desc>lat.=55.920517, lon.=26.546890, Alt.=139.099731m. Speed=13.356000m/h.</desc>
<speed>3.710000</speed>
</trkpt>
<trkpt lat="55.920567" lon="26.546900">
<ele>138.404419</ele>
<time>2010-08-29T07:56:33Z</time>
<desc>lat.=55.920567, lon.=26.546900, Alt.=138.404419m. Speed=14.904000m/h.</desc>
<speed>4.140000</speed>
</trkpt>
<trkpt lat="55.920624" lon="26.546917">
<ele>137.728638</ele>
<time>2010-08-29T07:56:34Z</time>
<desc>lat.=55.920624, lon.=26.546917, Alt.=137.728638m. Speed=17.388000m/h.</desc>
<speed>4.830000</speed>
</trkpt>
<trkpt lat="55.920692" lon="26.546936">
<ele>136.744263</ele>
<time>2010-08-29T07:56:35Z</time>
<desc>lat.=55.920692, lon.=26.546936, Alt.=136.744263m. Speed=22.139999m/h.</desc>
<speed>6.150000</speed>
</trkpt>
<trkpt lat="55.920746" lon="26.546944">
<ele>137.162231</ele>
<time>2010-08-29T07:56:36Z</time>
<desc>lat.=55.920746, lon.=26.546944, Alt.=137.162231m. Speed=19.980000m/h.</desc>
<speed>5.550000</speed>
</trkpt>
<trkpt lat="55.920811" lon="26.546955">
<ele>135.779419</ele>
<time>2010-08-29T07:56:37Z</time>
<desc>lat.=55.920811, lon.=26.546955, Alt.=135.779419m. Speed=21.672001m/h.</desc>
<speed>6.020000</speed>
</trkpt>
<trkpt lat="55.920891" lon="26.546974">
<ele>133.591919</ele>
<time>2010-08-29T07:56:38Z</time>
<desc>lat.=55.920891, lon.=26.546974, Alt.=133.591919m. Speed=23.868000m/h.</desc>
<speed>6.630000</speed>
</trkpt>
<trkpt lat="55.920959" lon="26.546974">
<ele>133.416138</ele>
<time>2010-08-29T07:56:39Z</time>
<desc>lat.=55.920959, lon.=26.546974, Alt.=133.416138m. Speed=20.808001m/h.</desc>
<speed>5.780000</speed>
</trkpt>
<trkpt lat="55.921032" lon="26.546986">
<ele>132.369263</ele>
<time>2010-08-29T07:56:40Z</time>
<desc>lat.=55.921032, lon.=26.546986, Alt.=132.369263m. Speed=26.028000m/h.</desc>
<speed>7.230000</speed>
</trkpt>
<trkpt lat="55.921101" lon="26.547016">
<ele>132.185669</ele>
<time>2010-08-29T07:56:41Z</time>
<desc>lat.=55.921101, lon.=26.547016, Alt.=132.185669m. Speed=22.931999m/h.</desc>
<speed>6.370000</speed>
</trkpt>
<trkpt lat="55.921162" lon="26.547039">
<ele>131.564575</ele>
<time>2010-08-29T07:56:42Z</time>
<desc>lat.=55.921162, lon.=26.547039, Alt.=131.564575m. Speed=23.652000m/h.</desc>
<speed>6.570000</speed>
</trkpt>
<trkpt lat="55.921230" lon="26.547047">
<ele>131.064575</ele>
<time>2010-08-29T07:56:43Z</time>
<desc>lat.=55.921230, lon.=26.547047, Alt.=131.064575m. Speed=24.156000m/h.</desc>
<speed>6.710000</speed>
</trkpt>
<trkpt lat="55.921291" lon="26.547054">
<ele>131.474731</ele>
<time>2010-08-29T07:56:44Z</time>
<desc>lat.=55.921291, lon.=26.547054, Alt.=131.474731m. Speed=22.500000m/h.</desc>
<speed>6.250000</speed>
</trkpt>
<trkpt lat="55.921356" lon="26.547045">
<ele>132.029419</ele>
<time>2010-08-29T07:56:45Z</time>
<desc>lat.=55.921356, lon.=26.547045, Alt.=132.029419m. Speed=20.124001m/h.</desc>
<speed>5.590000</speed>
</trkpt>
<trkpt lat="55.921421" lon="26.547035">
<ele>132.509888</ele>
<time>2010-08-29T07:56:46Z</time>
<desc>lat.=55.921421, lon.=26.547035, Alt.=132.509888m. Speed=22.500000m/h.</desc>
<speed>6.250000</speed>
</trkpt>
<trkpt lat="55.921532" lon="26.547052">
<ele>134.572388</ele>
<time>2010-08-29T07:56:47Z</time>
<desc>lat.=55.921532, lon.=26.547052, Alt.=134.572388m. Speed=25.056000m/h.</desc>
<speed>6.960000</speed>
</trkpt>
<trkpt lat="55.921616" lon="26.547056">
<ele>135.279419</ele>
<time>2010-08-29T07:56:48Z</time>
<desc>lat.=55.921616, lon.=26.547056, Alt.=135.279419m. Speed=26.496000m/h.</desc>
<speed>7.360000</speed>
</trkpt>
<trkpt lat="55.921692" lon="26.547043">
<ele>135.248169</ele>
<time>2010-08-29T07:56:49Z</time>
<desc>lat.=55.921692, lon.=26.547043, Alt.=135.248169m. Speed=26.063999m/h.</desc>
<speed>7.240000</speed>
</trkpt>
<trkpt lat="55.921772" lon="26.547012">
<ele>134.607544</ele>
<time>2010-08-29T07:56:50Z</time>
<desc>lat.=55.921772, lon.=26.547012, Alt.=134.607544m. Speed=27.288000m/h.</desc>
<speed>7.580000</speed>
</trkpt>
<trkpt lat="55.921856" lon="26.546968">
<ele>134.306763</ele>
<time>2010-08-29T07:56:51Z</time>
<desc>lat.=55.921856, lon.=26.546968, Alt.=134.306763m. Speed=25.632000m/h.</desc>
<speed>7.120000</speed>
</trkpt>
<trkpt lat="55.921921" lon="26.546923">
<ele>132.466919</ele>
<time>2010-08-29T07:56:52Z</time>
<desc>lat.=55.921921, lon.=26.546923, Alt.=132.466919m. Speed=21.204000m/h.</desc>
<speed>5.890000</speed>
</trkpt>
<trkpt lat="55.921959" lon="26.546873">
<ele>130.052856</ele>
<time>2010-08-29T07:56:53Z</time>
<desc>lat.=55.921959, lon.=26.546873, Alt.=130.052856m. Speed=16.200001m/h.</desc>
<speed>4.500000</speed>
</trkpt>
<trkpt lat="55.921993" lon="26.546846">
<ele>130.228638</ele>
<time>2010-08-29T07:56:54Z</time>
<desc>lat.=55.921993, lon.=26.546846, Alt.=130.228638m. Speed=12.060000m/h.</desc>
<speed>3.350000</speed>
</trkpt>
<trkpt lat="55.922043" lon="26.546806">
<ele>130.377075</ele>
<time>2010-08-29T07:56:55Z</time>
<desc>lat.=55.922043, lon.=26.546806, Alt.=130.377075m. Speed=17.532000m/h.</desc>
<speed>4.870000</speed>
</trkpt>
<trkpt lat="55.922104" lon="26.546762">
<ele>130.959106</ele>
<time>2010-08-29T07:56:56Z</time>
<desc>lat.=55.922104, lon.=26.546762, Alt.=130.959106m. Speed=15.912000m/h.</desc>
<speed>4.420000</speed>
</trkpt>
<trkpt lat="55.922146" lon="26.546747">
<ele>132.478638</ele>
<time>2010-08-29T07:56:57Z</time>
<desc>lat.=55.922146, lon.=26.546747, Alt.=132.478638m. Speed=12.204000m/h.</desc>
<speed>3.390000</speed>
</trkpt>
<trkpt lat="55.922165" lon="26.546715">
<ele>132.888794</ele>
<time>2010-08-29T07:56:58Z</time>
<desc>lat.=55.922165, lon.=26.546715, Alt.=132.888794m. Speed=8.280000m/h.</desc>
<speed>2.300000</speed>
</trkpt>
<trkpt lat="55.922192" lon="26.546688">
<ele>132.693481</ele>
<time>2010-08-29T07:56:59Z</time>
<desc>lat.=55.922192, lon.=26.546688, Alt.=132.693481m. Speed=8.460000m/h.</desc>
<speed>2.350000</speed>
</trkpt>
<trkpt lat="55.922222" lon="26.546650">
<ele>131.412231</ele>
<time>2010-08-29T07:57:00Z</time>
<desc>lat.=55.922222, lon.=26.546650, Alt.=131.412231m. Speed=12.168000m/h.</desc>
<speed>3.380000</speed>
</trkpt>
<trkpt lat="55.922256" lon="26.546619">
<ele>131.255981</ele>
<time>2010-08-29T07:57:01Z</time>
<desc>lat.=55.922256, lon.=26.546619, Alt.=131.255981m. Speed=8.388000m/h.</desc>
<speed>2.330000</speed>
</trkpt>
<trkpt lat="55.922295" lon="26.546591">
<ele>130.486450</ele>
<time>2010-08-29T07:57:02Z</time>
<desc>lat.=55.922295, lon.=26.546591, Alt.=130.486450m. Speed=8.388000m/h.</desc>
<speed>2.330000</speed>
</trkpt>
<trkpt lat="55.922329" lon="26.546570">
<ele>130.791138</ele>
<time>2010-08-29T07:57:03Z</time>
<desc>lat.=55.922329, lon.=26.546570, Alt.=130.791138m. Speed=9.180000m/h.</desc>
<speed>2.550000</speed>
</trkpt>
<trkpt lat="55.922367" lon="26.546558">
<ele>130.408325</ele>
<time>2010-08-29T07:57:04Z</time>
<desc>lat.=55.922367, lon.=26.546558, Alt.=130.408325m. Speed=11.052000m/h.</desc>
<speed>3.070000</speed>
</trkpt>
<trkpt lat="55.922405" lon="26.546543">
<ele>129.509888</ele>
<time>2010-08-29T07:57:05Z</time>
<desc>lat.=55.922405, lon.=26.546543, Alt.=129.509888m. Speed=10.260000m/h.</desc>
<speed>2.850000</speed>
</trkpt>
<trkpt lat="55.922443" lon="26.546526">
<ele>129.826294</ele>
<time>2010-08-29T07:57:06Z</time>
<desc>lat.=55.922443, lon.=26.546526, Alt.=129.826294m. Speed=10.872000m/h.</desc>
<speed>3.020000</speed>
</trkpt>
<trkpt lat="55.922482" lon="26.546509">
<ele>129.236450</ele>
<time>2010-08-29T07:57:07Z</time>
<desc>lat.=55.922482, lon.=26.546509, Alt.=129.236450m. Speed=10.836000m/h.</desc>
<speed>3.010000</speed>
</trkpt>
<trkpt lat="55.922504" lon="26.546490">
<ele>127.741272</ele>
<time>2010-08-29T07:57:08Z</time>
<desc>lat.=55.922504, lon.=26.546490, Alt.=127.741272m. Speed=11.556000m/h.</desc>
<speed>3.210000</speed>
</trkpt>
<trkpt lat="55.922531" lon="26.546473">
<ele>127.239319</ele>
<time>2010-08-29T07:57:09Z</time>
<desc>lat.=55.922531, lon.=26.546473, Alt.=127.239319m. Speed=11.448000m/h.</desc>
<speed>3.180000</speed>
</trkpt>
<trkpt lat="55.922565" lon="26.546461">
<ele>127.092834</ele>
<time>2010-08-29T07:57:10Z</time>
<desc>lat.=55.922565, lon.=26.546461, Alt.=127.092834m. Speed=10.692000m/h.</desc>
<speed>2.970000</speed>
</trkpt>
<trkpt lat="55.922600" lon="26.546446">
<ele>127.190491</ele>
<time>2010-08-29T07:57:11Z</time>
<desc>lat.=55.922600, lon.=26.546446, Alt.=127.190491m. Speed=12.276000m/h.</desc>
<speed>3.410000</speed>
</trkpt>
<trkpt lat="55.922649" lon="26.546425">
<ele>127.501038</ele>
<time>2010-08-29T07:57:12Z</time>
<desc>lat.=55.922649, lon.=26.546425, Alt.=127.501038m. Speed=13.464000m/h.</desc>
<speed>3.740000</speed>
</trkpt>
<trkpt lat="55.922688" lon="26.546404">
<ele>127.122131</ele>
<time>2010-08-29T07:57:13Z</time>
<desc>lat.=55.922688, lon.=26.546404, Alt.=127.122131m. Speed=12.024000m/h.</desc>
<speed>3.340000</speed>
</trkpt>
<trkpt lat="55.922714" lon="26.546377">
<ele>127.276428</ele>
<time>2010-08-29T07:57:14Z</time>
<desc>lat.=55.922714, lon.=26.546377, Alt.=127.276428m. Speed=9.504000m/h.</desc>
<speed>2.640000</speed>
</trkpt>
<trkpt lat="55.922737" lon="26.546350">
<ele>127.618225</ele>
<time>2010-08-29T07:57:15Z</time>
<desc>lat.=55.922737, lon.=26.546350, Alt.=127.618225m. Speed=9.108000m/h.</desc>
<speed>2.530000</speed>
</trkpt>
<trkpt lat="55.922756" lon="26.546316">
<ele>127.565491</ele>
<time>2010-08-29T07:57:16Z</time>
<desc>lat.=55.922756, lon.=26.546316, Alt.=127.565491m. Speed=9.612000m/h.</desc>
<speed>2.670000</speed>
</trkpt>
<trkpt lat="55.922787" lon="26.546270">
<ele>126.887756</ele>
<time>2010-08-29T07:57:17Z</time>
<desc>lat.=55.922787, lon.=26.546270, Alt.=126.887756m. Speed=10.872000m/h.</desc>
<speed>3.020000</speed>
</trkpt>
<trkpt lat="55.922798" lon="26.546227">
<ele>126.624084</ele>
<time>2010-08-29T07:57:18Z</time>
<desc>lat.=55.922798, lon.=26.546227, Alt.=126.624084m. Speed=10.620000m/h.</desc>
<speed>2.950000</speed>
</trkpt>
<trkpt lat="55.922829" lon="26.546190">
<ele>126.764709</ele>
<time>2010-08-29T07:57:19Z</time>
<desc>lat.=55.922829, lon.=26.546190, Alt.=126.764709m. Speed=10.908000m/h.</desc>
<speed>3.030000</speed>
</trkpt>
<trkpt lat="55.922863" lon="26.546154">
<ele>126.870178</ele>
<time>2010-08-29T07:57:20Z</time>
<desc>lat.=55.922863, lon.=26.546154, Alt.=126.870178m. Speed=10.764000m/h.</desc>
<speed>2.990000</speed>
</trkpt>
<trkpt lat="55.922882" lon="26.546120">
<ele>126.756897</ele>
<time>2010-08-29T07:57:21Z</time>
<desc>lat.=55.922882, lon.=26.546120, Alt.=126.756897m. Speed=8.100000m/h.</desc>
<speed>2.250000</speed>
</trkpt>
<trkpt lat="55.922939" lon="26.546106">
<ele>126.047913</ele>
<time>2010-08-29T07:57:22Z</time>
<desc>lat.=55.922939, lon.=26.546106, Alt.=126.047913m. Speed=10.728000m/h.</desc>
<speed>2.980000</speed>
</trkpt>
<trkpt lat="55.922966" lon="26.546101">
<ele>125.792053</ele>
<time>2010-08-29T07:57:23Z</time>
<desc>lat.=55.922966, lon.=26.546101, Alt.=125.792053m. Speed=15.444000m/h.</desc>
<speed>4.290000</speed>
</trkpt>
<trkpt lat="55.923004" lon="26.546095">
<ele>125.442444</ele>
<time>2010-08-29T07:57:24Z</time>
<desc>lat.=55.923004, lon.=26.546095, Alt.=125.442444m. Speed=11.952000m/h.</desc>
<speed>3.320000</speed>
</trkpt>
<trkpt lat="55.923038" lon="26.546091">
<ele>125.372131</ele>
<time>2010-08-29T07:57:25Z</time>
<desc>lat.=55.923038, lon.=26.546091, Alt.=125.372131m. Speed=9.468000m/h.</desc>
<speed>2.630000</speed>
</trkpt>
<trkpt lat="55.923077" lon="26.546076">
<ele>125.108459</ele>
<time>2010-08-29T07:57:26Z</time>
<desc>lat.=55.923077, lon.=26.546076, Alt.=125.108459m. Speed=10.188000m/h.</desc>
<speed>2.830000</speed>
</trkpt>
<trkpt lat="55.923107" lon="26.546057">
<ele>125.344788</ele>
<time>2010-08-29T07:57:27Z</time>
<desc>lat.=55.923107, lon.=26.546057, Alt.=125.344788m. Speed=8.676000m/h.</desc>
<speed>2.410000</speed>
</trkpt>
<trkpt lat="55.923145" lon="26.546040">
<ele>124.784241</ele>
<time>2010-08-29T07:57:28Z</time>
<desc>lat.=55.923145, lon.=26.546040, Alt.=124.784241m. Speed=9.612000m/h.</desc>
<speed>2.670000</speed>
</trkpt>
<trkpt lat="55.923168" lon="26.546007">
<ele>124.221741</ele>
<time>2010-08-29T07:57:29Z</time>
<desc>lat.=55.923168, lon.=26.546007, Alt.=124.221741m. Speed=11.016000m/h.</desc>
<speed>3.060000</speed>
</trkpt>
<trkpt lat="55.923191" lon="26.545975">
<ele>123.596741</ele>
<time>2010-08-29T07:57:30Z</time>
<desc>lat.=55.923191, lon.=26.545975, Alt.=123.596741m. Speed=10.836000m/h.</desc>
<speed>3.010000</speed>
</trkpt>
<trkpt lat="55.923218" lon="26.545956">
<ele>123.463928</ele>
<time>2010-08-29T07:57:31Z</time>
<desc>lat.=55.923218, lon.=26.545956, Alt.=123.463928m. Speed=7.704000m/h.</desc>
<speed>2.140000</speed>
</trkpt>
<trkpt lat="55.923241" lon="26.545938">
<ele>123.338928</ele>
<time>2010-08-29T07:57:32Z</time>
<desc>lat.=55.923241, lon.=26.545938, Alt.=123.338928m. Speed=8.136000m/h.</desc>
<speed>2.260000</speed>
</trkpt>
<trkpt lat="55.923275" lon="26.545904">
<ele>123.528381</ele>
<time>2010-08-29T07:57:33Z</time>
<desc>lat.=55.923275, lon.=26.545904, Alt.=123.528381m. Speed=13.680000m/h.</desc>
<speed>3.800000</speed>
</trkpt>
<trkpt lat="55.923302" lon="26.545870">
<ele>123.075256</ele>
<time>2010-08-29T07:57:34Z</time>
<desc>lat.=55.923302, lon.=26.545870, Alt.=123.075256m. Speed=14.580000m/h.</desc>
<speed>4.050000</speed>
</trkpt>
<trkpt lat="55.923340" lon="26.545832">
<ele>123.016663</ele>
<time>2010-08-29T07:57:35Z</time>
<desc>lat.=55.923340, lon.=26.545832, Alt.=123.016663m. Speed=16.271999m/h.</desc>
<speed>4.520000</speed>
</trkpt>
<trkpt lat="55.923378" lon="26.545797">
<ele>122.887756</ele>
<time>2010-08-29T07:57:36Z</time>
<desc>lat.=55.923378, lon.=26.545797, Alt.=122.887756m. Speed=13.572000m/h.</desc>
<speed>3.770000</speed>
</trkpt>
<trkpt lat="55.923409" lon="26.545752">
<ele>122.866272</ele>
<time>2010-08-29T07:57:37Z</time>
<desc>lat.=55.923409, lon.=26.545752, Alt.=122.866272m. Speed=13.104000m/h.</desc>
<speed>3.640000</speed>
</trkpt>
<trkpt lat="55.923454" lon="26.545710">
<ele>122.657288</ele>
<time>2010-08-29T07:57:38Z</time>
<desc>lat.=55.923454, lon.=26.545710, Alt.=122.657288m. Speed=13.428000m/h.</desc>
<speed>3.730000</speed>
</trkpt>
<trkpt lat="55.923481" lon="26.545675">
<ele>122.473694</ele>
<time>2010-08-29T07:57:39Z</time>
<desc>lat.=55.923481, lon.=26.545675, Alt.=122.473694m. Speed=14.004000m/h.</desc>
<speed>3.890000</speed>
</trkpt>
<trkpt lat="55.923538" lon="26.545656">
<ele>122.239319</ele>
<time>2010-08-29T07:57:40Z</time>
<desc>lat.=55.923538, lon.=26.545656, Alt.=122.239319m. Speed=14.292000m/h.</desc>
<speed>3.970000</speed>
</trkpt>
<trkpt lat="55.923607" lon="26.545639">
<ele>121.294006</ele>
<time>2010-08-29T07:57:41Z</time>
<desc>lat.=55.923607, lon.=26.545639, Alt.=121.294006m. Speed=17.676001m/h.</desc>
<speed>4.910000</speed>
</trkpt>
<trkpt lat="55.923649" lon="26.545624">
<ele>121.114319</ele>
<time>2010-08-29T07:57:42Z</time>
<desc>lat.=55.923649, lon.=26.545624, Alt.=121.114319m. Speed=13.212000m/h.</desc>
<speed>3.670000</speed>
</trkpt>
<trkpt lat="55.923714" lon="26.545618">
<ele>121.403381</ele>
<time>2010-08-29T07:57:43Z</time>
<desc>lat.=55.923714, lon.=26.545618, Alt.=121.403381m. Speed=15.912000m/h.</desc>
<speed>4.420000</speed>
</trkpt>
<trkpt lat="55.923779" lon="26.545607">
<ele>121.627991</ele>
<time>2010-08-29T07:57:44Z</time>
<desc>lat.=55.923779, lon.=26.545607, Alt.=121.627991m. Speed=16.704000m/h.</desc>
<speed>4.640000</speed>
</trkpt>
<trkpt lat="55.923828" lon="26.545588">
<ele>120.815491</ele>
<time>2010-08-29T07:57:45Z</time>
<desc>lat.=55.923828, lon.=26.545588, Alt.=120.815491m. Speed=13.824000m/h.</desc>
<speed>3.840000</speed>
</trkpt>
<trkpt lat="55.923866" lon="26.545574">
<ele>120.573303</ele>
<time>2010-08-29T07:57:46Z</time>
<desc>lat.=55.923866, lon.=26.545574, Alt.=120.573303m. Speed=13.932000m/h.</desc>
<speed>3.870000</speed>
</trkpt>
<trkpt lat="55.923904" lon="26.545557">
<ele>120.432678</ele>
<time>2010-08-29T07:57:47Z</time>
<desc>lat.=55.923904, lon.=26.545557, Alt.=120.432678m. Speed=14.364000m/h.</desc>
<speed>3.990000</speed>
</trkpt>
<trkpt lat="55.923939" lon="26.545534">
<ele>120.018616</ele>
<time>2010-08-29T07:57:48Z</time>
<desc>lat.=55.923939, lon.=26.545534, Alt.=120.018616m. Speed=15.084000m/h.</desc>
<speed>4.190000</speed>
</trkpt>
<trkpt lat="55.923992" lon="26.545502">
<ele>119.510803</ele>
<time>2010-08-29T07:57:49Z</time>
<desc>lat.=55.923992, lon.=26.545502, Alt.=119.510803m. Speed=14.544000m/h.</desc>
<speed>4.040000</speed>
</trkpt>
<trkpt lat="55.924046" lon="26.545473">
<ele>119.639709</ele>
<time>2010-08-29T07:57:50Z</time>
<desc>lat.=55.924046, lon.=26.545473, Alt.=119.639709m. Speed=15.552000m/h.</desc>
<speed>4.320000</speed>
</trkpt>
<trkpt lat="55.924103" lon="26.545441">
<ele>120.034241</ele>
<time>2010-08-29T07:57:51Z</time>
<desc>lat.=55.924103, lon.=26.545441, Alt.=120.034241m. Speed=16.056000m/h.</desc>
<speed>4.460000</speed>
</trkpt>
<trkpt lat="55.924156" lon="26.545418">
<ele>119.938538</ele>
<time>2010-08-29T07:57:52Z</time>
<desc>lat.=55.924156, lon.=26.545418, Alt.=119.938538m. Speed=16.200001m/h.</desc>
<speed>4.500000</speed>
</trkpt>
<trkpt lat="55.924198" lon="26.545395">
<ele>120.176819</ele>
<time>2010-08-29T07:57:53Z</time>
<desc>lat.=55.924198, lon.=26.545395, Alt.=120.176819m. Speed=12.708000m/h.</desc>
<speed>3.530000</speed>
</trkpt>
<trkpt lat="55.924236" lon="26.545376">
<ele>120.393616</ele>
<time>2010-08-29T07:57:54Z</time>
<desc>lat.=55.924236, lon.=26.545376, Alt.=120.393616m. Speed=12.132000m/h.</desc>
<speed>3.370000</speed>
</trkpt>
<trkpt lat="55.924286" lon="26.545353">
<ele>120.348694</ele>
<time>2010-08-29T07:57:55Z</time>
<desc>lat.=55.924286, lon.=26.545353, Alt.=120.348694m. Speed=15.408000m/h.</desc>
<speed>4.280000</speed>
</trkpt>
<trkpt lat="55.924347" lon="26.545326">
<ele>119.676819</ele>
<time>2010-08-29T07:57:56Z</time>
<desc>lat.=55.924347, lon.=26.545326, Alt.=119.676819m. Speed=16.236000m/h.</desc>
<speed>4.510000</speed>
</trkpt>
<trkpt lat="55.924404" lon="26.545307">
<ele>119.241272</ele>
<time>2010-08-29T07:57:57Z</time>
<desc>lat.=55.924404, lon.=26.545307, Alt.=119.241272m. Speed=15.588000m/h.</desc>
<speed>4.330000</speed>
</trkpt>
<trkpt lat="55.924461" lon="26.545290">
<ele>119.010803</ele>
<time>2010-08-29T07:57:58Z</time>
<desc>lat.=55.924461, lon.=26.545290, Alt.=119.010803m. Speed=15.156000m/h.</desc>
<speed>4.210000</speed>
</trkpt>
<trkpt lat="55.924519" lon="26.545279">
<ele>119.057678</ele>
<time>2010-08-29T07:57:59Z</time>
<desc>lat.=55.924519, lon.=26.545279, Alt.=119.057678m. Speed=14.832000m/h.</desc>
<speed>4.120000</speed>
</trkpt>
<trkpt lat="55.924572" lon="26.545265">
<ele>119.690491</ele>
<time>2010-08-29T07:58:00Z</time>
<desc>lat.=55.924572, lon.=26.545265, Alt.=119.690491m. Speed=15.696000m/h.</desc>
<speed>4.360000</speed>
</trkpt>
<trkpt lat="55.924625" lon="26.545238">
<ele>119.735413</ele>
<time>2010-08-29T07:58:01Z</time>
<desc>lat.=55.924625, lon.=26.545238, Alt.=119.735413m. Speed=14.436000m/h.</desc>
<speed>4.010000</speed>
</trkpt>
<trkpt lat="55.924675" lon="26.545223">
<ele>118.366272</ele>
<time>2010-08-29T07:58:02Z</time>
<desc>lat.=55.924675, lon.=26.545223, Alt.=118.366272m. Speed=16.056000m/h.</desc>
<speed>4.460000</speed>
</trkpt>
<trkpt lat="55.924713" lon="26.545200">
<ele>117.899475</ele>
<time>2010-08-29T07:58:03Z</time>
<desc>lat.=55.924713, lon.=26.545200, Alt.=117.899475m. Speed=12.024000m/h.</desc>
<speed>3.340000</speed>
</trkpt>
<trkpt lat="55.924747" lon="26.545183">
<ele>118.170959</ele>
<time>2010-08-29T07:58:04Z</time>
<desc>lat.=55.924747, lon.=26.545183, Alt.=118.170959m. Speed=12.960000m/h.</desc>
<speed>3.600000</speed>
</trkpt>
<trkpt lat="55.924778" lon="26.545164">
<ele>118.292053</ele>
<time>2010-08-29T07:58:05Z</time>
<desc>lat.=55.924778, lon.=26.545164, Alt.=118.292053m. Speed=8.676000m/h.</desc>
<speed>2.410000</speed>
</trkpt>
<trkpt lat="55.924805" lon="26.545149">
<ele>117.614319</ele>
<time>2010-08-29T07:58:06Z</time>
<desc>lat.=55.924805, lon.=26.545149, Alt.=117.614319m. Speed=11.520000m/h.</desc>
<speed>3.200000</speed>
</trkpt>
<trkpt lat="55.924843" lon="26.545134">
<ele>117.512756</ele>
<time>2010-08-29T07:58:07Z</time>
<desc>lat.=55.924843, lon.=26.545134, Alt.=117.512756m. Speed=10.404000m/h.</desc>
<speed>2.890000</speed>
</trkpt>
<trkpt lat="55.924877" lon="26.545113">
<ele>117.446350</ele>
<time>2010-08-29T07:58:08Z</time>
<desc>lat.=55.924877, lon.=26.545113, Alt.=117.446350m. Speed=12.708000m/h.</desc>
<speed>3.530000</speed>
</trkpt>
<trkpt lat="55.924934" lon="26.545084">
<ele>117.891663</ele>
<time>2010-08-29T07:58:09Z</time>
<desc>lat.=55.924934, lon.=26.545084, Alt.=117.891663m. Speed=14.004000m/h.</desc>
<speed>3.890000</speed>
</trkpt>
<trkpt lat="55.924988" lon="26.545059">
<ele>117.620178</ele>
<time>2010-08-29T07:58:10Z</time>
<desc>lat.=55.924988, lon.=26.545059, Alt.=117.620178m. Speed=14.112000m/h.</desc>
<speed>3.920000</speed>
</trkpt>
<trkpt lat="55.925034" lon="26.545038">
<ele>117.596741</ele>
<time>2010-08-29T07:58:11Z</time>
<desc>lat.=55.925034, lon.=26.545038, Alt.=117.596741m. Speed=16.091999m/h.</desc>
<speed>4.470000</speed>
</trkpt>
<trkpt lat="55.925079" lon="26.545027">
<ele>117.768616</ele>
<time>2010-08-29T07:58:12Z</time>
<desc>lat.=55.925079, lon.=26.545027, Alt.=117.768616m. Speed=15.084000m/h.</desc>
<speed>4.190000</speed>
</trkpt>
<trkpt lat="55.925133" lon="26.545010">
<ele>117.883850</ele>
<time>2010-08-29T07:58:13Z</time>
<desc>lat.=55.925133, lon.=26.545010, Alt.=117.883850m. Speed=15.840000m/h.</desc>
<speed>4.400000</speed>
</trkpt>
<trkpt lat="55.925182" lon="26.544979">
<ele>118.051819</ele>
<time>2010-08-29T07:58:14Z</time>
<desc>lat.=55.925182, lon.=26.544979, Alt.=118.051819m. Speed=16.596001m/h.</desc>
<speed>4.610000</speed>
</trkpt>
<trkpt lat="55.925224" lon="26.544956">
<ele>117.626038</ele>
<time>2010-08-29T07:58:15Z</time>
<desc>lat.=55.925224, lon.=26.544956, Alt.=117.626038m. Speed=16.632000m/h.</desc>
<speed>4.620000</speed>
</trkpt>
<trkpt lat="55.925282" lon="26.544924">
<ele>117.577209</ele>
<time>2010-08-29T07:58:16Z</time>
<desc>lat.=55.925282, lon.=26.544924, Alt.=117.577209m. Speed=17.964001m/h.</desc>
<speed>4.990000</speed>
</trkpt>
<trkpt lat="55.925312" lon="26.544876">
<ele>117.336975</ele>
<time>2010-08-29T07:58:17Z</time>
<desc>lat.=55.925312, lon.=26.544876, Alt.=117.336975m. Speed=14.688000m/h.</desc>
<speed>4.080000</speed>
</trkpt>
<trkpt lat="55.925358" lon="26.544825">
<ele>116.633850</ele>
<time>2010-08-29T07:58:18Z</time>
<desc>lat.=55.925358, lon.=26.544825, Alt.=116.633850m. Speed=17.568001m/h.</desc>
<speed>4.880000</speed>
</trkpt>
<trkpt lat="55.925400" lon="26.544792">
<ele>115.797913</ele>
<time>2010-08-29T07:58:19Z</time>
<desc>lat.=55.925400, lon.=26.544792, Alt.=115.797913m. Speed=16.955999m/h.</desc>
<speed>4.710000</speed>
</trkpt>
<trkpt lat="55.925438" lon="26.544767">
<ele>115.127991</ele>
<time>2010-08-29T07:58:20Z</time>
<desc>lat.=55.925438, lon.=26.544767, Alt.=115.127991m. Speed=14.364000m/h.</desc>
<speed>3.990000</speed>
</trkpt>
<trkpt lat="55.925480" lon="26.544769">
<ele>114.872131</ele>
<time>2010-08-29T07:58:21Z</time>
<desc>lat.=55.925480, lon.=26.544769, Alt.=114.872131m. Speed=12.636000m/h.</desc>
<speed>3.510000</speed>
</trkpt>
<trkpt lat="55.925518" lon="26.544760">
<ele>115.274475</ele>
<time>2010-08-29T07:58:22Z</time>
<desc>lat.=55.925518, lon.=26.544760, Alt.=115.274475m. Speed=11.412000m/h.</desc>
<speed>3.170000</speed>
</trkpt>
<trkpt lat="55.925571" lon="26.544750">
<ele>114.612366</ele>
<time>2010-08-29T07:58:23Z</time>
<desc>lat.=55.925571, lon.=26.544750, Alt.=114.612366m. Speed=13.284000m/h.</desc>
<speed>3.690000</speed>
</trkpt>
<trkpt lat="55.925621" lon="26.544765">
<ele>116.028381</ele>
<time>2010-08-29T07:58:24Z</time>
<desc>lat.=55.925621, lon.=26.544765, Alt.=116.028381m. Speed=14.580000m/h.</desc>
<speed>4.050000</speed>
</trkpt>
<trkpt lat="55.925659" lon="26.544779">
<ele>116.635803</ele>
<time>2010-08-29T07:58:25Z</time>
<desc>lat.=55.925659, lon.=26.544779, Alt.=116.635803m. Speed=11.124000m/h.</desc>
<speed>3.090000</speed>
</trkpt>
<trkpt lat="55.925682" lon="26.544781">
<ele>116.204163</ele>
<time>2010-08-29T07:58:26Z</time>
<desc>lat.=55.925682, lon.=26.544781, Alt.=116.204163m. Speed=11.484000m/h.</desc>
<speed>3.190000</speed>
</trkpt>
<trkpt lat="55.925713" lon="26.544785">
<ele>117.274475</ele>
<time>2010-08-29T07:58:27Z</time>
<desc>lat.=55.925713, lon.=26.544785, Alt.=117.274475m. Speed=11.016000m/h.</desc>
<speed>3.060000</speed>
</trkpt>
<trkpt lat="55.925751" lon="26.544792">
<ele>118.754944</ele>
<time>2010-08-29T07:58:28Z</time>
<desc>lat.=55.925751, lon.=26.544792, Alt.=118.754944m. Speed=7.488000m/h.</desc>
<speed>2.080000</speed>
</trkpt>
<trkpt lat="55.925789" lon="26.544798">
<ele>120.083069</ele>
<time>2010-08-29T07:58:29Z</time>
<desc>lat.=55.925789, lon.=26.544798, Alt.=120.083069m. Speed=11.556000m/h.</desc>
<speed>3.210000</speed>
</trkpt>
<trkpt lat="55.925823" lon="26.544802">
<ele>120.602600</ele>
<time>2010-08-29T07:58:30Z</time>
<desc>lat.=55.925823, lon.=26.544802, Alt.=120.602600m. Speed=10.512000m/h.</desc>
<speed>2.920000</speed>
</trkpt>
<trkpt lat="55.925850" lon="26.544819">
<ele>120.217834</ele>
<time>2010-08-29T07:58:31Z</time>
<desc>lat.=55.925850, lon.=26.544819, Alt.=120.217834m. Speed=8.784000m/h.</desc>
<speed>2.440000</speed>
</trkpt>
<trkpt lat="55.925888" lon="26.544828">
<ele>121.282288</ele>
<time>2010-08-29T07:58:32Z</time>
<desc>lat.=55.925888, lon.=26.544828, Alt.=121.282288m. Speed=10.548000m/h.</desc>
<speed>2.930000</speed>
</trkpt>
<trkpt lat="55.925915" lon="26.544828">
<ele>121.710022</ele>
<time>2010-08-29T07:58:33Z</time>
<desc>lat.=55.925915, lon.=26.544828, Alt.=121.710022m. Speed=7.740000m/h.</desc>
<speed>2.150000</speed>
</trkpt>
<trkpt lat="55.925938" lon="26.544830">
<ele>122.295959</ele>
<time>2010-08-29T07:58:34Z</time>
<desc>lat.=55.925938, lon.=26.544830, Alt.=122.295959m. Speed=6.444000m/h.</desc>
<speed>1.790000</speed>
</trkpt>
<trkpt lat="55.925957" lon="26.544827">
<ele>122.854553</ele>
<time>2010-08-29T07:58:35Z</time>
<desc>lat.=55.925957, lon.=26.544827, Alt.=122.854553m. Speed=8.028000m/h.</desc>
<speed>2.230000</speed>
</trkpt>
<trkpt lat="55.925980" lon="26.544823">
<ele>123.586975</ele>
<time>2010-08-29T07:58:36Z</time>
<desc>lat.=55.925980, lon.=26.544823, Alt.=123.586975m. Speed=7.488000m/h.</desc>
<speed>2.080000</speed>
</trkpt>
<trkpt lat="55.926014" lon="26.544813">
<ele>125.626038</ele>
<time>2010-08-29T07:58:37Z</time>
<desc>lat.=55.926014, lon.=26.544813, Alt.=125.626038m. Speed=9.612000m/h.</desc>
<speed>2.670000</speed>
</trkpt>
<trkpt lat="55.926056" lon="26.544827">
<ele>126.588928</ele>
<time>2010-08-29T07:58:38Z</time>
<desc>lat.=55.926056, lon.=26.544827, Alt.=126.588928m. Speed=9.864000m/h.</desc>
<speed>2.740000</speed>
</trkpt>
<trkpt lat="55.926090" lon="26.544828">
<ele>126.711975</ele>
<time>2010-08-29T07:58:39Z</time>
<desc>lat.=55.926090, lon.=26.544828, Alt.=126.711975m. Speed=9.756000m/h.</desc>
<speed>2.710000</speed>
</trkpt>
<trkpt lat="55.926117" lon="26.544832">
<ele>127.145569</ele>
<time>2010-08-29T07:58:40Z</time>
<desc>lat.=55.926117, lon.=26.544832, Alt.=127.145569m. Speed=6.552000m/h.</desc>
<speed>1.820000</speed>
</trkpt>
<trkpt lat="55.926132" lon="26.544825">
<ele>127.424866</ele>
<time>2010-08-29T07:58:41Z</time>
<desc>lat.=55.926132, lon.=26.544825, Alt.=127.424866m. Speed=7.596000m/h.</desc>
<speed>2.110000</speed>
</trkpt>
<trkpt lat="55.926159" lon="26.544819">
<ele>126.825256</ele>
<time>2010-08-29T07:58:42Z</time>
<desc>lat.=55.926159, lon.=26.544819, Alt.=126.825256m. Speed=5.796000m/h.</desc>
<speed>1.610000</speed>
</trkpt>
<trkpt lat="55.926178" lon="26.544807">
<ele>127.217834</ele>
<time>2010-08-29T07:58:43Z</time>
<desc>lat.=55.926178, lon.=26.544807, Alt.=127.217834m. Speed=7.920000m/h.</desc>
<speed>2.200000</speed>
</trkpt>
<trkpt lat="55.926212" lon="26.544802">
<ele>125.999084</ele>
<time>2010-08-29T07:58:44Z</time>
<desc>lat.=55.926212, lon.=26.544802, Alt.=125.999084m. Speed=9.720000m/h.</desc>
<speed>2.700000</speed>
</trkpt>
<trkpt lat="55.926254" lon="26.544796">
<ele>126.450256</ele>
<time>2010-08-29T07:58:45Z</time>
<desc>lat.=55.926254, lon.=26.544796, Alt.=126.450256m. Speed=10.404000m/h.</desc>
<speed>2.890000</speed>
</trkpt>
<trkpt lat="55.926277" lon="26.544792">
<ele>125.170959</ele>
<time>2010-08-29T07:58:46Z</time>
<desc>lat.=55.926277, lon.=26.544792, Alt.=125.170959m. Speed=10.368000m/h.</desc>
<speed>2.880000</speed>
</trkpt>
<trkpt lat="55.926304" lon="26.544786">
<ele>124.577209</ele>
<time>2010-08-29T07:58:47Z</time>
<desc>lat.=55.926304, lon.=26.544786, Alt.=124.577209m. Speed=9.288000m/h.</desc>
<speed>2.580000</speed>
</trkpt>
<trkpt lat="55.926338" lon="26.544786">
<ele>124.182678</ele>
<time>2010-08-29T07:58:48Z</time>
<desc>lat.=55.926338, lon.=26.544786, Alt.=124.182678m. Speed=10.512000m/h.</desc>
<speed>2.920000</speed>
</trkpt>
<trkpt lat="55.926369" lon="26.544788">
<ele>124.352600</ele>
<time>2010-08-29T07:58:49Z</time>
<desc>lat.=55.926369, lon.=26.544788, Alt.=124.352600m. Speed=9.900000m/h.</desc>
<speed>2.750000</speed>
</trkpt>
<trkpt lat="55.926403" lon="26.544792">
<ele>124.672913</ele>
<time>2010-08-29T07:58:50Z</time>
<desc>lat.=55.926403, lon.=26.544792, Alt.=124.672913m. Speed=8.820000m/h.</desc>
<speed>2.450000</speed>
</trkpt>
<trkpt lat="55.926434" lon="26.544790">
<ele>124.774475</ele>
<time>2010-08-29T07:58:51Z</time>
<desc>lat.=55.926434, lon.=26.544790, Alt.=124.774475m. Speed=12.420000m/h.</desc>
<speed>3.450000</speed>
</trkpt>
<trkpt lat="55.926464" lon="26.544792">
<ele>125.495178</ele>
<time>2010-08-29T07:58:52Z</time>
<desc>lat.=55.926464, lon.=26.544792, Alt.=125.495178m. Speed=7.524000m/h.</desc>
<speed>2.090000</speed>
</trkpt>
<trkpt lat="55.926491" lon="26.544794">
<ele>125.903381</ele>
<time>2010-08-29T07:58:53Z</time>
<desc>lat.=55.926491, lon.=26.544794, Alt.=125.903381m. Speed=11.880000m/h.</desc>
<speed>3.300000</speed>
</trkpt>
<trkpt lat="55.926517" lon="26.544792">
<ele>126.090881</ele>
<time>2010-08-29T07:58:54Z</time>
<desc>lat.=55.926517, lon.=26.544792, Alt.=126.090881m. Speed=9.396000m/h.</desc>
<speed>2.610000</speed>
</trkpt>
<trkpt lat="55.926548" lon="26.544788">
<ele>126.626038</ele>
<time>2010-08-29T07:58:55Z</time>
<desc>lat.=55.926548, lon.=26.544788, Alt.=126.626038m. Speed=9.936000m/h.</desc>
<speed>2.760000</speed>
</trkpt>
<trkpt lat="55.926579" lon="26.544786">
<ele>127.409241</ele>
<time>2010-08-29T07:58:56Z</time>
<desc>lat.=55.926579, lon.=26.544786, Alt.=127.409241m. Speed=10.980000m/h.</desc>
<speed>3.050000</speed>
</trkpt>
<trkpt lat="55.926609" lon="26.544786">
<ele>129.025513</ele>
<time>2010-08-29T07:58:57Z</time>
<desc>lat.=55.926609, lon.=26.544786, Alt.=129.025513m. Speed=9.936000m/h.</desc>
<speed>2.760000</speed>
</trkpt>
<trkpt lat="55.926643" lon="26.544788">
<ele>130.365356</ele>
<time>2010-08-29T07:58:58Z</time>
<desc>lat.=55.926643, lon.=26.544788, Alt.=130.365356m. Speed=10.404000m/h.</desc>
<speed>2.890000</speed>
</trkpt>
<trkpt lat="55.926689" lon="26.544792">
<ele>131.185669</ele>
<time>2010-08-29T07:58:59Z</time>
<desc>lat.=55.926689, lon.=26.544792, Alt.=131.185669m. Speed=12.780000m/h.</desc>
<speed>3.550000</speed>
</trkpt>
<trkpt lat="55.926720" lon="26.544783">
<ele>133.150513</ele>
<time>2010-08-29T07:59:00Z</time>
<desc>lat.=55.926720, lon.=26.544783, Alt.=133.150513m. Speed=8.856000m/h.</desc>
<speed>2.460000</speed>
</trkpt>
<trkpt lat="55.926743" lon="26.544779">
<ele>134.029419</ele>
<time>2010-08-29T07:59:01Z</time>
<desc>lat.=55.926743, lon.=26.544779, Alt.=134.029419m. Speed=7.632000m/h.</desc>
<speed>2.120000</speed>
</trkpt>
<trkpt lat="55.926769" lon="26.544775">
<ele>134.951294</ele>
<time>2010-08-29T07:59:02Z</time>
<desc>lat.=55.926769, lon.=26.544775, Alt.=134.951294m. Speed=7.560000m/h.</desc>
<speed>2.100000</speed>
</trkpt>
<trkpt lat="55.926800" lon="26.544779">
<ele>136.759888</ele>
<time>2010-08-29T07:59:03Z</time>
<desc>lat.=55.926800, lon.=26.544779, Alt.=136.759888m. Speed=9.216000m/h.</desc>
<speed>2.560000</speed>
</trkpt>
<trkpt lat="55.926861" lon="26.544771">
<ele>136.377075</ele>
<time>2010-08-29T07:59:04Z</time>
<desc>lat.=55.926861, lon.=26.544771, Alt.=136.377075m. Speed=15.732000m/h.</desc>
<speed>4.370000</speed>
</trkpt>
<trkpt lat="55.926907" lon="26.544764">
<ele>136.748169</ele>
<time>2010-08-29T07:59:05Z</time>
<desc>lat.=55.926907, lon.=26.544764, Alt.=136.748169m. Speed=12.816000m/h.</desc>
<speed>3.560000</speed>
</trkpt>
<trkpt lat="55.926949" lon="26.544760">
<ele>137.197388</ele>
<time>2010-08-29T07:59:06Z</time>
<desc>lat.=55.926949, lon.=26.544760, Alt.=137.197388m. Speed=12.636000m/h.</desc>
<speed>3.510000</speed>
</trkpt>
<trkpt lat="55.926987" lon="26.544762">
<ele>137.267700</ele>
<time>2010-08-29T07:59:07Z</time>
<desc>lat.=55.926987, lon.=26.544762, Alt.=137.267700m. Speed=12.636000m/h.</desc>
<speed>3.510000</speed>
</trkpt>
<trkpt lat="55.927025" lon="26.544762">
<ele>137.494263</ele>
<time>2010-08-29T07:59:08Z</time>
<desc>lat.=55.927025, lon.=26.544762, Alt.=137.494263m. Speed=14.256000m/h.</desc>
<speed>3.960000</speed>
</trkpt>
<trkpt lat="55.927067" lon="26.544764">
<ele>137.525513</ele>
<time>2010-08-29T07:59:09Z</time>
<desc>lat.=55.927067, lon.=26.544764, Alt.=137.525513m. Speed=12.816000m/h.</desc>
<speed>3.560000</speed>
</trkpt>
<trkpt lat="55.927116" lon="26.544765">
<ele>139.892700</ele>
<time>2010-08-29T07:59:10Z</time>
<desc>lat.=55.927116, lon.=26.544765, Alt.=139.892700m. Speed=12.996000m/h.</desc>
<speed>3.610000</speed>
</trkpt>
<trkpt lat="55.927158" lon="26.544767">
<ele>140.619263</ele>
<time>2010-08-29T07:59:11Z</time>
<desc>lat.=55.927158, lon.=26.544767, Alt.=140.619263m. Speed=11.808000m/h.</desc>
<speed>3.280000</speed>
</trkpt>
<trkpt lat="55.927193" lon="26.544771">
<ele>142.322388</ele>
<time>2010-08-29T07:59:12Z</time>
<desc>lat.=55.927193, lon.=26.544771, Alt.=142.322388m. Speed=11.556000m/h.</desc>
<speed>3.210000</speed>
</trkpt>
<trkpt lat="55.927223" lon="26.544773">
<ele>142.470825</ele>
<time>2010-08-29T07:59:13Z</time>
<desc>lat.=55.927223, lon.=26.544773, Alt.=142.470825m. Speed=11.232000m/h.</desc>
<speed>3.120000</speed>
</trkpt>
<trkpt lat="55.927254" lon="26.544771">
<ele>141.482544</ele>
<time>2010-08-29T07:59:14Z</time>
<desc>lat.=55.927254, lon.=26.544771, Alt.=141.482544m. Speed=11.448000m/h.</desc>
<speed>3.180000</speed>
</trkpt>
<trkpt lat="55.927273" lon="26.544760">
<ele>140.783325</ele>
<time>2010-08-29T07:59:15Z</time>
<desc>lat.=55.927273, lon.=26.544760, Alt.=140.783325m. Speed=11.124000m/h.</desc>
<speed>3.090000</speed>
</trkpt>
<trkpt lat="55.927303" lon="26.544773">
<ele>141.138794</ele>
<time>2010-08-29T07:59:16Z</time>
<desc>lat.=55.927303, lon.=26.544773, Alt.=141.138794m. Speed=9.900000m/h.</desc>
<speed>2.750000</speed>
</trkpt>
<trkpt lat="55.927326" lon="26.544783">
<ele>141.377075</ele>
<time>2010-08-29T07:59:17Z</time>
<desc>lat.=55.927326, lon.=26.544783, Alt.=141.377075m. Speed=8.964000m/h.</desc>
<speed>2.490000</speed>
</trkpt>
<trkpt lat="55.927345" lon="26.544790">
<ele>141.658325</ele>
<time>2010-08-29T07:59:18Z</time>
<desc>lat.=55.927345, lon.=26.544790, Alt.=141.658325m. Speed=7.992000m/h.</desc>
<speed>2.220000</speed>
</trkpt>
<trkpt lat="55.927380" lon="26.544817">
<ele>143.658325</ele>
<time>2010-08-29T07:59:19Z</time>
<desc>lat.=55.927380, lon.=26.544817, Alt.=143.658325m. Speed=9.936000m/h.</desc>
<speed>2.760000</speed>
</trkpt>
<trkpt lat="55.927410" lon="26.544817">
<ele>144.130981</ele>
<time>2010-08-29T07:59:20Z</time>
<desc>lat.=55.927410, lon.=26.544817, Alt.=144.130981m. Speed=8.316000m/h.</desc>
<speed>2.310000</speed>
</trkpt>
<trkpt lat="55.927429" lon="26.544802">
<ele>143.654419</ele>
<time>2010-08-29T07:59:21Z</time>
<desc>lat.=55.927429, lon.=26.544802, Alt.=143.654419m. Speed=7.884000m/h.</desc>
<speed>2.190000</speed>
</trkpt>
<trkpt lat="55.927456" lon="26.544796">
<ele>143.396606</ele>
<time>2010-08-29T07:59:22Z</time>
<desc>lat.=55.927456, lon.=26.544796, Alt.=143.396606m. Speed=8.424000m/h.</desc>
<speed>2.340000</speed>
</trkpt>
<trkpt lat="55.927498" lon="26.544806">
<ele>145.505981</ele>
<time>2010-08-29T07:59:23Z</time>
<desc>lat.=55.927498, lon.=26.544806, Alt.=145.505981m. Speed=9.900000m/h.</desc>
<speed>2.750000</speed>
</trkpt>
<trkpt lat="55.927532" lon="26.544800">
<ele>145.896606</ele>
<time>2010-08-29T07:59:24Z</time>
<desc>lat.=55.927532, lon.=26.544800, Alt.=145.896606m. Speed=9.108000m/h.</desc>
<speed>2.530000</speed>
</trkpt>
<trkpt lat="55.927540" lon="26.544809">
<ele>145.298950</ele>
<time>2010-08-29T07:59:25Z</time>
<desc>lat.=55.927540, lon.=26.544809, Alt.=145.298950m. Speed=7.740000m/h.</desc>
<speed>2.150000</speed>
</trkpt>
<trkpt lat="55.927559" lon="26.544815">
<ele>145.646606</ele>
<time>2010-08-29T07:59:26Z</time>
<desc>lat.=55.927559, lon.=26.544815, Alt.=145.646606m. Speed=7.272000m/h.</desc>
<speed>2.020000</speed>
</trkpt>
<trkpt lat="55.927586" lon="26.544827">
<ele>144.763794</ele>
<time>2010-08-29T07:59:27Z</time>
<desc>lat.=55.927586, lon.=26.544827, Alt.=144.763794m. Speed=6.444000m/h.</desc>
<speed>1.790000</speed>
</trkpt>
<trkpt lat="55.927624" lon="26.544811">
<ele>144.552856</ele>
<time>2010-08-29T07:59:28Z</time>
<desc>lat.=55.927624, lon.=26.544811, Alt.=144.552856m. Speed=8.064000m/h.</desc>
<speed>2.240000</speed>
</trkpt>
<trkpt lat="55.927658" lon="26.544809">
<ele>143.716919</ele>
<time>2010-08-29T07:59:29Z</time>
<desc>lat.=55.927658, lon.=26.544809, Alt.=143.716919m. Speed=10.296000m/h.</desc>
<speed>2.860000</speed>
</trkpt>
<trkpt lat="55.927685" lon="26.544804">
<ele>144.002075</ele>
<time>2010-08-29T07:59:30Z</time>
<desc>lat.=55.927685, lon.=26.544804, Alt.=144.002075m. Speed=7.632000m/h.</desc>
<speed>2.120000</speed>
</trkpt>
<trkpt lat="55.927708" lon="26.544806">
<ele>144.330200</ele>
<time>2010-08-29T07:59:31Z</time>
<desc>lat.=55.927708, lon.=26.544806, Alt.=144.330200m. Speed=9.000000m/h.</desc>
<speed>2.500000</speed>
</trkpt>
<trkpt lat="55.927731" lon="26.544804">
<ele>144.205200</ele>
<time>2010-08-29T07:59:32Z</time>
<desc>lat.=55.927731, lon.=26.544804, Alt.=144.205200m. Speed=8.532000m/h.</desc>
<speed>2.370000</speed>
</trkpt>
<trkpt lat="55.927761" lon="26.544798">
<ele>143.662231</ele>
<time>2010-08-29T07:59:33Z</time>
<desc>lat.=55.927761, lon.=26.544798, Alt.=143.662231m. Speed=6.408000m/h.</desc>
<speed>1.780000</speed>
</trkpt>
<trkpt lat="55.927799" lon="26.544798">
<ele>142.130981</ele>
<time>2010-08-29T07:59:34Z</time>
<desc>lat.=55.927799, lon.=26.544798, Alt.=142.130981m. Speed=10.584000m/h.</desc>
<speed>2.940000</speed>
</trkpt>
<trkpt lat="55.927830" lon="26.544800">
<ele>142.209106</ele>
<time>2010-08-29T07:59:35Z</time>
<desc>lat.=55.927830, lon.=26.544800, Alt.=142.209106m. Speed=10.188000m/h.</desc>
<speed>2.830000</speed>
</trkpt>
<trkpt lat="55.927849" lon="26.544794">
<ele>142.111450</ele>
<time>2010-08-29T07:59:36Z</time>
<desc>lat.=55.927849, lon.=26.544794, Alt.=142.111450m. Speed=8.568000m/h.</desc>
<speed>2.380000</speed>
</trkpt>
<trkpt lat="55.927879" lon="26.544796">
<ele>143.310669</ele>
<time>2010-08-29T07:59:37Z</time>
<desc>lat.=55.927879, lon.=26.544796, Alt.=143.310669m. Speed=8.928000m/h.</desc>
<speed>2.480000</speed>
</trkpt>
<trkpt lat="55.927910" lon="26.544804">
<ele>143.877075</ele>
<time>2010-08-29T07:59:38Z</time>
<desc>lat.=55.927910, lon.=26.544804, Alt.=143.877075m. Speed=7.668000m/h.</desc>
<speed>2.130000</speed>
</trkpt>
<trkpt lat="55.927929" lon="26.544811">
<ele>142.572388</ele>
<time>2010-08-29T07:59:39Z</time>
<desc>lat.=55.927929, lon.=26.544811, Alt.=142.572388m. Speed=10.512000m/h.</desc>
<speed>2.920000</speed>
</trkpt>
<trkpt lat="55.927975" lon="26.544817">
<ele>140.646606</ele>
<time>2010-08-29T07:59:40Z</time>
<desc>lat.=55.927975, lon.=26.544817, Alt.=140.646606m. Speed=11.304000m/h.</desc>
<speed>3.140000</speed>
</trkpt>
<trkpt lat="55.928017" lon="26.544821">
<ele>140.642700</ele>
<time>2010-08-29T07:59:41Z</time>
<desc>lat.=55.928017, lon.=26.544821, Alt.=140.642700m. Speed=11.196000m/h.</desc>
<speed>3.110000</speed>
</trkpt>
<trkpt lat="55.928055" lon="26.544811">
<ele>139.423950</ele>
<time>2010-08-29T07:59:42Z</time>
<desc>lat.=55.928055, lon.=26.544811, Alt.=139.423950m. Speed=12.276000m/h.</desc>
<speed>3.410000</speed>
</trkpt>
<trkpt lat="55.928097" lon="26.544809">
<ele>139.263794</ele>
<time>2010-08-29T07:59:43Z</time>
<desc>lat.=55.928097, lon.=26.544809, Alt.=139.263794m. Speed=12.024000m/h.</desc>
<speed>3.340000</speed>
</trkpt>
<trkpt lat="55.928127" lon="26.544800">
<ele>139.658325</ele>
<time>2010-08-29T07:59:44Z</time>
<desc>lat.=55.928127, lon.=26.544800, Alt.=139.658325m. Speed=11.124000m/h.</desc>
<speed>3.090000</speed>
</trkpt>
<trkpt lat="55.928177" lon="26.544802">
<ele>137.771606</ele>
<time>2010-08-29T07:59:45Z</time>
<desc>lat.=55.928177, lon.=26.544802, Alt.=137.771606m. Speed=14.148000m/h.</desc>
<speed>3.930000</speed>
</trkpt>
<trkpt lat="55.928215" lon="26.544796">
<ele>137.541138</ele>
<time>2010-08-29T07:59:46Z</time>
<desc>lat.=55.928215, lon.=26.544796, Alt.=137.541138m. Speed=16.271999m/h.</desc>
<speed>4.520000</speed>
</trkpt>
<trkpt lat="55.928257" lon="26.544800">
<ele>137.732544</ele>
<time>2010-08-29T07:59:47Z</time>
<desc>lat.=55.928257, lon.=26.544800, Alt.=137.732544m. Speed=14.616000m/h.</desc>
<speed>4.060000</speed>
</trkpt>
<trkpt lat="55.928288" lon="26.544807">
<ele>137.834106</ele>
<time>2010-08-29T07:59:48Z</time>
<desc>lat.=55.928288, lon.=26.544807, Alt.=137.834106m. Speed=9.288000m/h.</desc>
<speed>2.580000</speed>
</trkpt>
<trkpt lat="55.928314" lon="26.544806">
<ele>137.923950</ele>
<time>2010-08-29T07:59:49Z</time>
<desc>lat.=55.928314, lon.=26.544806, Alt.=137.923950m. Speed=11.232000m/h.</desc>
<speed>3.120000</speed>
</trkpt>
<trkpt lat="55.928349" lon="26.544811">
<ele>136.716919</ele>
<time>2010-08-29T07:59:50Z</time>
<desc>lat.=55.928349, lon.=26.544811, Alt.=136.716919m. Speed=13.320000m/h.</desc>
<speed>3.700000</speed>
</trkpt>
<trkpt lat="55.928383" lon="26.544819">
<ele>136.537231</ele>
<time>2010-08-29T07:59:51Z</time>
<desc>lat.=55.928383, lon.=26.544819, Alt.=136.537231m. Speed=12.060000m/h.</desc>
<speed>3.350000</speed>
</trkpt>
<trkpt lat="55.928429" lon="26.544828">
<ele>136.013794</ele>
<time>2010-08-29T07:59:52Z</time>
<desc>lat.=55.928429, lon.=26.544828, Alt.=136.013794m. Speed=13.572000m/h.</desc>
<speed>3.770000</speed>
</trkpt>
<trkpt lat="55.928463" lon="26.544834">
<ele>135.611450</ele>
<time>2010-08-29T07:59:53Z</time>
<desc>lat.=55.928463, lon.=26.544834, Alt.=135.611450m. Speed=13.212000m/h.</desc>
<speed>3.670000</speed>
</trkpt>
<trkpt lat="55.928501" lon="26.544840">
<ele>135.068481</ele>
<time>2010-08-29T07:59:54Z</time>
<desc>lat.=55.928501, lon.=26.544840, Alt.=135.068481m. Speed=13.176000m/h.</desc>
<speed>3.660000</speed>
</trkpt>
<trkpt lat="55.928539" lon="26.544840">
<ele>134.380981</ele>
<time>2010-08-29T07:59:55Z</time>
<desc>lat.=55.928539, lon.=26.544840, Alt.=134.380981m. Speed=10.188000m/h.</desc>
<speed>2.830000</speed>
</trkpt>
<trkpt lat="55.928577" lon="26.544844">
<ele>134.564575</ele>
<time>2010-08-29T07:59:56Z</time>
<desc>lat.=55.928577, lon.=26.544844, Alt.=134.564575m. Speed=11.628000m/h.</desc>
<speed>3.230000</speed>
</trkpt>
<trkpt lat="55.928612" lon="26.544847">
<ele>134.584106</ele>
<time>2010-08-29T07:59:57Z</time>
<desc>lat.=55.928612, lon.=26.544847, Alt.=134.584106m. Speed=12.708000m/h.</desc>
<speed>3.530000</speed>
</trkpt>
<trkpt lat="55.928646" lon="26.544847">
<ele>135.091919</ele>
<time>2010-08-29T07:59:58Z</time>
<desc>lat.=55.928646, lon.=26.544847, Alt.=135.091919m. Speed=11.520000m/h.</desc>
<speed>3.200000</speed>
</trkpt>
<trkpt lat="55.928688" lon="26.544857">
<ele>135.537231</ele>
<time>2010-08-29T07:59:59Z</time>
<desc>lat.=55.928688, lon.=26.544857, Alt.=135.537231m. Speed=11.808000m/h.</desc>
<speed>3.280000</speed>
</trkpt>
<trkpt lat="55.928726" lon="26.544867">
<ele>135.302856</ele>
<time>2010-08-29T08:00:00Z</time>
<desc>lat.=55.928726, lon.=26.544867, Alt.=135.302856m. Speed=15.012000m/h.</desc>
<speed>4.170000</speed>
</trkpt>
<trkpt lat="55.928764" lon="26.544865">
<ele>134.318481</ele>
<time>2010-08-29T08:00:01Z</time>
<desc>lat.=55.928764, lon.=26.544865, Alt.=134.318481m. Speed=14.040000m/h.</desc>
<speed>3.900000</speed>
</trkpt>
<trkpt lat="55.928810" lon="26.544870">
<ele>133.310669</ele>
<time>2010-08-29T08:00:02Z</time>
<desc>lat.=55.928810, lon.=26.544870, Alt.=133.310669m. Speed=11.340000m/h.</desc>
<speed>3.150000</speed>
</trkpt>
<trkpt lat="55.928841" lon="26.544874">
<ele>133.814575</ele>
<time>2010-08-29T08:00:03Z</time>
<desc>lat.=55.928841, lon.=26.544874, Alt.=133.814575m. Speed=9.252000m/h.</desc>
<speed>2.570000</speed>
</trkpt>
<trkpt lat="55.928867" lon="26.544872">
<ele>133.638794</ele>
<time>2010-08-29T08:00:04Z</time>
<desc>lat.=55.928867, lon.=26.544872, Alt.=133.638794m. Speed=11.268000m/h.</desc>
<speed>3.130000</speed>
</trkpt>
<trkpt lat="55.928905" lon="26.544870">
<ele>134.197388</ele>
<time>2010-08-29T08:00:05Z</time>
<desc>lat.=55.928905, lon.=26.544870, Alt.=134.197388m. Speed=12.456000m/h.</desc>
<speed>3.460000</speed>
</trkpt>
<trkpt lat="55.928936" lon="26.544868">
<ele>134.021606</ele>
<time>2010-08-29T08:00:06Z</time>
<desc>lat.=55.928936, lon.=26.544868, Alt.=134.021606m. Speed=9.324000m/h.</desc>
<speed>2.590000</speed>
</trkpt>
<trkpt lat="55.928955" lon="26.544872">
<ele>134.255981</ele>
<time>2010-08-29T08:00:07Z</time>
<desc>lat.=55.928955, lon.=26.544872, Alt.=134.255981m. Speed=6.444000m/h.</desc>
<speed>1.790000</speed>
</trkpt>
<trkpt lat="55.928986" lon="26.544876">
<ele>134.232544</ele>
<time>2010-08-29T08:00:08Z</time>
<desc>lat.=55.928986, lon.=26.544876, Alt.=134.232544m. Speed=7.416000m/h.</desc>
<speed>2.060000</speed>
</trkpt>
<trkpt lat="55.929016" lon="26.544878">
<ele>135.162231</ele>
<time>2010-08-29T08:00:09Z</time>
<desc>lat.=55.929016, lon.=26.544878, Alt.=135.162231m. Speed=5.940000m/h.</desc>
<speed>1.650000</speed>
</trkpt>
<trkpt lat="55.929031" lon="26.544878">
<ele>135.810669</ele>
<time>2010-08-29T08:00:10Z</time>
<desc>lat.=55.929031, lon.=26.544878, Alt.=135.810669m. Speed=3.420000m/h.</desc>
<speed>0.950000</speed>
</trkpt>
<trkpt lat="55.929035" lon="26.544870">
<ele>136.084106</ele>
<time>2010-08-29T08:00:11Z</time>
<desc>lat.=55.929035, lon.=26.544870, Alt.=136.084106m. Speed=0.468000m/h.</desc>
<speed>0.130000</speed>
</trkpt>
<trkpt lat="55.929035" lon="26.544865">
<ele>135.900513</ele>
<time>2010-08-29T08:00:12Z</time>
<desc>lat.=55.929035, lon.=26.544865, Alt.=135.900513m. Speed=0.432000m/h.</desc>
<speed>0.120000</speed>
</trkpt>
<trkpt lat="55.929035" lon="26.544867">
<ele>134.630981</ele>
<time>2010-08-29T08:00:13Z</time>
<desc>lat.=55.929035, lon.=26.544867, Alt.=134.630981m. Speed=0.324000m/h.</desc>
<speed>0.090000</speed>
</trkpt>
<trkpt lat="55.929035" lon="26.544865">
<ele>134.615356</ele>
<time>2010-08-29T08:00:14Z</time>
<desc>lat.=55.929035, lon.=26.544865, Alt.=134.615356m. Speed=0.576000m/h.</desc>
<speed>0.160000</speed>
</trkpt>
<trkpt lat="55.929035" lon="26.544863">
<ele>134.615356</ele>
<time>2010-08-29T08:00:15Z</time>
<desc>lat.=55.929035, lon.=26.544863, Alt.=134.615356m. Speed=0.612000m/h.</desc>
<speed>0.170000</speed>
</trkpt>
<trkpt lat="55.929031" lon="26.544861">
<ele>134.630981</ele>
<time>2010-08-29T08:00:16Z</time>
<desc>lat.=55.929031, lon.=26.544861, Alt.=134.630981m. Speed=0.252000m/h.</desc>
<speed>0.070000</speed>
</trkpt>
<trkpt lat="55.929031" lon="26.544859">
<ele>134.658325</ele>
<time>2010-08-29T08:00:17Z</time>
<desc>lat.=55.929031, lon.=26.544859, Alt.=134.658325m. Speed=0.360000m/h.</desc>
<speed>0.100000</speed>
</trkpt>
<trkpt lat="55.929031" lon="26.544857">
<ele>134.681763</ele>
<time>2010-08-29T08:00:18Z</time>
<desc>lat.=55.929031, lon.=26.544857, Alt.=134.681763m. Speed=0.432000m/h.</desc>
<speed>0.120000</speed>
</trkpt>
<trkpt lat="55.929031" lon="26.544857">
<ele>134.716919</ele>
<time>2010-08-29T08:00:19Z</time>
<desc>lat.=55.929031, lon.=26.544857, Alt.=134.716919m. Speed=0.252000m/h.</desc>
<speed>0.070000</speed>
</trkpt>
<trkpt lat="55.929031" lon="26.544855">
<ele>134.759888</ele>
<time>2010-08-29T08:00:20Z</time>
<desc>lat.=55.929031, lon.=26.544855, Alt.=134.759888m. Speed=0.180000m/h.</desc>
<speed>0.050000</speed>
</trkpt>
<trkpt lat="55.929031" lon="26.544853">
<ele>134.787231</ele>
<time>2010-08-29T08:00:21Z</time>
<desc>lat.=55.929031, lon.=26.544853, Alt.=134.787231m. Speed=0.252000m/h.</desc>
<speed>0.070000</speed>
</trkpt>
<trkpt lat="55.929031" lon="26.544853">
<ele>134.826294</ele>
<time>2010-08-29T08:00:22Z</time>
<desc>lat.=55.929031, lon.=26.544853, Alt.=134.826294m. Speed=0.612000m/h.</desc>
<speed>0.170000</speed>
</trkpt>
<trkpt lat="55.929028" lon="26.544851">
<ele>134.869263</ele>
<time>2010-08-29T08:00:23Z</time>
<desc>lat.=55.929028, lon.=26.544851, Alt.=134.869263m. Speed=0.720000m/h.</desc>
<speed>0.200000</speed>
</trkpt>
<trkpt lat="55.929028" lon="26.544847">
<ele>134.912231</ele>
<time>2010-08-29T08:00:24Z</time>
<desc>lat.=55.929028, lon.=26.544847, Alt.=134.912231m. Speed=0.468000m/h.</desc>
<speed>0.130000</speed>
</trkpt>
<trkpt lat="55.929028" lon="26.544846">
<ele>134.951294</ele>
<time>2010-08-29T08:00:25Z</time>
<desc>lat.=55.929028, lon.=26.544846, Alt.=134.951294m. Speed=0.216000m/h.</desc>
<speed>0.060000</speed>
</trkpt>
<trkpt lat="55.929028" lon="26.544846">
<ele>135.009888</ele>
<time>2010-08-29T08:00:26Z</time>
<desc>lat.=55.929028, lon.=26.544846, Alt.=135.009888m. Speed=0.144000m/h.</desc>
<speed>0.040000</speed>
</trkpt>
<trkpt lat="55.929028" lon="26.544844">
<ele>135.045044</ele>
<time>2010-08-29T08:00:27Z</time>
<desc>lat.=55.929028, lon.=26.544844, Alt.=135.045044m. Speed=0.504000m/h.</desc>
<speed>0.140000</speed>
</trkpt>
<trkpt lat="55.929028" lon="26.544842">
<ele>135.107544</ele>
<time>2010-08-29T08:00:28Z</time>
<desc>lat.=55.929028, lon.=26.544842, Alt.=135.107544m. Speed=0.396000m/h.</desc>
<speed>0.110000</speed>
</trkpt>
<trkpt lat="55.929028" lon="26.544840">
<ele>135.173950</ele>
<time>2010-08-29T08:00:29Z</time>
<desc>lat.=55.929028, lon.=26.544840, Alt.=135.173950m. Speed=0.576000m/h.</desc>
<speed>0.160000</speed>
</trkpt>
<trkpt lat="55.929028" lon="26.544838">
<ele>135.248169</ele>
<time>2010-08-29T08:00:30Z</time>
<desc>lat.=55.929028, lon.=26.544838, Alt.=135.248169m. Speed=0.468000m/h.</desc>
<speed>0.130000</speed>
</trkpt>
<trkpt lat="55.929028" lon="26.544838">
<ele>135.295044</ele>
<time>2010-08-29T08:00:31Z</time>
<desc>lat.=55.929028, lon.=26.544838, Alt.=135.295044m. Speed=0.792000m/h.</desc>
<speed>0.220000</speed>
</trkpt>
<trkpt lat="55.929031" lon="26.544838">
<ele>135.338013</ele>
<time>2010-08-29T08:00:32Z</time>
<desc>lat.=55.929031, lon.=26.544838, Alt.=135.338013m. Speed=1.188000m/h.</desc>
<speed>0.330000</speed>
</trkpt>
<trkpt lat="55.929031" lon="26.544840">
<ele>135.369263</ele>
<time>2010-08-29T08:00:33Z</time>
<desc>lat.=55.929031, lon.=26.544840, Alt.=135.369263m. Speed=2.916000m/h.</desc>
<speed>0.810000</speed>
</trkpt>
<trkpt lat="55.929039" lon="26.544836">
<ele>135.400513</ele>
<time>2010-08-29T08:00:34Z</time>
<desc>lat.=55.929039, lon.=26.544836, Alt.=135.400513m. Speed=5.040000m/h.</desc>
<speed>1.400000</speed>
</trkpt>
<trkpt lat="55.929070" lon="26.544836">
<ele>135.427856</ele>
<time>2010-08-29T08:00:35Z</time>
<desc>lat.=55.929070, lon.=26.544836, Alt.=135.427856m. Speed=6.948000m/h.</desc>
<speed>1.930000</speed>
</trkpt>
<trkpt lat="55.929096" lon="26.544828">
<ele>135.076294</ele>
<time>2010-08-29T08:00:36Z</time>
<desc>lat.=55.929096, lon.=26.544828, Alt.=135.076294m. Speed=6.624000m/h.</desc>
<speed>1.840000</speed>
</trkpt>
<trkpt lat="55.929146" lon="26.544859">
<ele>135.939575</ele>
<time>2010-08-29T08:00:37Z</time>
<desc>lat.=55.929146, lon.=26.544859, Alt.=135.939575m. Speed=6.408000m/h.</desc>
<speed>1.780000</speed>
</trkpt>
<trkpt lat="55.929180" lon="26.544865">
<ele>135.884888</ele>
<time>2010-08-29T08:00:38Z</time>
<desc>lat.=55.929180, lon.=26.544865, Alt.=135.884888m. Speed=8.460000m/h.</desc>
<speed>2.350000</speed>
</trkpt>
<trkpt lat="55.929203" lon="26.544859">
<ele>136.416138</ele>
<time>2010-08-29T08:00:39Z</time>
<desc>lat.=55.929203, lon.=26.544859, Alt.=136.416138m. Speed=7.092000m/h.</desc>
<speed>1.970000</speed>
</trkpt>
<trkpt lat="55.929237" lon="26.544868">
<ele>137.154419</ele>
<time>2010-08-29T08:00:40Z</time>
<desc>lat.=55.929237, lon.=26.544868, Alt.=137.154419m. Speed=10.296000m/h.</desc>
<speed>2.860000</speed>
</trkpt>
<trkpt lat="55.929283" lon="26.544888">
<ele>138.127075</ele>
<time>2010-08-29T08:00:41Z</time>
<desc>lat.=55.929283, lon.=26.544888, Alt.=138.127075m. Speed=10.080000m/h.</desc>
<speed>2.800000</speed>
</trkpt>
<trkpt lat="55.929310" lon="26.544893">
<ele>137.787231</ele>
<time>2010-08-29T08:00:42Z</time>
<desc>lat.=55.929310, lon.=26.544893, Alt.=137.787231m. Speed=9.144000m/h.</desc>
<speed>2.540000</speed>
</trkpt>
<trkpt lat="55.929337" lon="26.544895">
<ele>137.349731</ele>
<time>2010-08-29T08:00:43Z</time>
<desc>lat.=55.929337, lon.=26.544895, Alt.=137.349731m. Speed=8.892000m/h.</desc>
<speed>2.470000</speed>
</trkpt>
<trkpt lat="55.929356" lon="26.544899">
<ele>136.697388</ele>
<time>2010-08-29T08:00:44Z</time>
<desc>lat.=55.929356, lon.=26.544899, Alt.=136.697388m. Speed=7.488000m/h.</desc>
<speed>2.080000</speed>
</trkpt>
<trkpt lat="55.929386" lon="26.544905">
<ele>136.388794</ele>
<time>2010-08-29T08:00:45Z</time>
<desc>lat.=55.929386, lon.=26.544905, Alt.=136.388794m. Speed=11.124000m/h.</desc>
<speed>3.090000</speed>
</trkpt>
<trkpt lat="55.929424" lon="26.544905">
<ele>135.724731</ele>
<time>2010-08-29T08:00:46Z</time>
<desc>lat.=55.929424, lon.=26.544905, Alt.=135.724731m. Speed=12.492000m/h.</desc>
<speed>3.470000</speed>
</trkpt>
<trkpt lat="55.929459" lon="26.544909">
<ele>135.427856</ele>
<time>2010-08-29T08:00:47Z</time>
<desc>lat.=55.929459, lon.=26.544909, Alt.=135.427856m. Speed=12.528000m/h.</desc>
<speed>3.480000</speed>
</trkpt>
<trkpt lat="55.929489" lon="26.544916">
<ele>135.142700</ele>
<time>2010-08-29T08:00:48Z</time>
<desc>lat.=55.929489, lon.=26.544916, Alt.=135.142700m. Speed=12.456000m/h.</desc>
<speed>3.460000</speed>
</trkpt>
<trkpt lat="55.929523" lon="26.544924">
<ele>134.584106</ele>
<time>2010-08-29T08:00:49Z</time>
<desc>lat.=55.929523, lon.=26.544924, Alt.=134.584106m. Speed=11.808000m/h.</desc>
<speed>3.280000</speed>
</trkpt>
<trkpt lat="55.929558" lon="26.544922">
<ele>134.595825</ele>
<time>2010-08-29T08:00:50Z</time>
<desc>lat.=55.929558, lon.=26.544922, Alt.=134.595825m. Speed=14.040000m/h.</desc>
<speed>3.900000</speed>
</trkpt>
<trkpt lat="55.929596" lon="26.544926">
<ele>135.029419</ele>
<time>2010-08-29T08:00:51Z</time>
<desc>lat.=55.929596, lon.=26.544926, Alt.=135.029419m. Speed=12.312000m/h.</desc>
<speed>3.420000</speed>
</trkpt>
<trkpt lat="55.929626" lon="26.544933">
<ele>133.990356</ele>
<time>2010-08-29T08:00:52Z</time>
<desc>lat.=55.929626, lon.=26.544933, Alt.=133.990356m. Speed=14.760000m/h.</desc>
<speed>4.100000</speed>
</trkpt>
<trkpt lat="55.929657" lon="26.544945">
<ele>134.283325</ele>
<time>2010-08-29T08:00:53Z</time>
<desc>lat.=55.929657, lon.=26.544945, Alt.=134.283325m. Speed=12.744000m/h.</desc>
<speed>3.540000</speed>
</trkpt>
<trkpt lat="55.929680" lon="26.544947">
<ele>134.463013</ele>
<time>2010-08-29T08:00:54Z</time>
<desc>lat.=55.929680, lon.=26.544947, Alt.=134.463013m. Speed=11.556000m/h.</desc>
<speed>3.210000</speed>
</trkpt>
<trkpt lat="55.929699" lon="26.544952">
<ele>134.209106</ele>
<time>2010-08-29T08:00:55Z</time>
<desc>lat.=55.929699, lon.=26.544952, Alt.=134.209106m. Speed=8.460000m/h.</desc>
<speed>2.350000</speed>
</trkpt>
<trkpt lat="55.929722" lon="26.544950">
<ele>134.818481</ele>
<time>2010-08-29T08:00:56Z</time>
<desc>lat.=55.929722, lon.=26.544950, Alt.=134.818481m. Speed=7.380000m/h.</desc>
<speed>2.050000</speed>
</trkpt>
<trkpt lat="55.929745" lon="26.544949">
<ele>134.545044</ele>
<time>2010-08-29T08:00:57Z</time>
<desc>lat.=55.929745, lon.=26.544949, Alt.=134.545044m. Speed=9.000000m/h.</desc>
<speed>2.500000</speed>
</trkpt>
<trkpt lat="55.929768" lon="26.544941">
<ele>134.783325</ele>
<time>2010-08-29T08:00:58Z</time>
<desc>lat.=55.929768, lon.=26.544941, Alt.=134.783325m. Speed=7.524000m/h.</desc>
<speed>2.090000</speed>
</trkpt>
<trkpt lat="55.929787" lon="26.544939">
<ele>134.502075</ele>
<time>2010-08-29T08:00:59Z</time>
<desc>lat.=55.929787, lon.=26.544939, Alt.=134.502075m. Speed=4.860000m/h.</desc>
<speed>1.350000</speed>
</trkpt>
<trkpt lat="55.929802" lon="26.544930">
<ele>134.755981</ele>
<time>2010-08-29T08:01:00Z</time>
<desc>lat.=55.929802, lon.=26.544930, Alt.=134.755981m. Speed=6.480000m/h.</desc>
<speed>1.800000</speed>
</trkpt>
<trkpt lat="55.929825" lon="26.544933">
<ele>134.041138</ele>
<time>2010-08-29T08:01:01Z</time>
<desc>lat.=55.929825, lon.=26.544933, Alt.=134.041138m. Speed=7.668000m/h.</desc>
<speed>2.130000</speed>
</trkpt>
<trkpt lat="55.929848" lon="26.544935">
<ele>134.076294</ele>
<time>2010-08-29T08:01:02Z</time>
<desc>lat.=55.929848, lon.=26.544935, Alt.=134.076294m. Speed=9.036000m/h.</desc>
<speed>2.510000</speed>
</trkpt>
<trkpt lat="55.929871" lon="26.544937">
<ele>133.966919</ele>
<time>2010-08-29T08:01:03Z</time>
<desc>lat.=55.929871, lon.=26.544937, Alt.=133.966919m. Speed=8.532000m/h.</desc>
<speed>2.370000</speed>
</trkpt>
<trkpt lat="55.929901" lon="26.544943">
<ele>133.283325</ele>
<time>2010-08-29T08:01:04Z</time>
<desc>lat.=55.929901, lon.=26.544943, Alt.=133.283325m. Speed=12.240000m/h.</desc>
<speed>3.400000</speed>
</trkpt>
<trkpt lat="55.929932" lon="26.544941">
<ele>133.369263</ele>
<time>2010-08-29T08:01:05Z</time>
<desc>lat.=55.929932, lon.=26.544941, Alt.=133.369263m. Speed=11.124000m/h.</desc>
<speed>3.090000</speed>
</trkpt>
<trkpt lat="55.929970" lon="26.544943">
<ele>133.041138</ele>
<time>2010-08-29T08:01:06Z</time>
<desc>lat.=55.929970, lon.=26.544943, Alt.=133.041138m. Speed=12.060000m/h.</desc>
<speed>3.350000</speed>
</trkpt>
<trkpt lat="55.930012" lon="26.544941">
<ele>133.134888</ele>
<time>2010-08-29T08:01:07Z</time>
<desc>lat.=55.930012, lon.=26.544941, Alt.=133.134888m. Speed=12.672000m/h.</desc>
<speed>3.520000</speed>
</trkpt>
<trkpt lat="55.930042" lon="26.544941">
<ele>132.638794</ele>
<time>2010-08-29T08:01:08Z</time>
<desc>lat.=55.930042, lon.=26.544941, Alt.=132.638794m. Speed=12.456000m/h.</desc>
<speed>3.460000</speed>
</trkpt>
<trkpt lat="55.930077" lon="26.544945">
<ele>133.111450</ele>
<time>2010-08-29T08:01:09Z</time>
<desc>lat.=55.930077, lon.=26.544945, Alt.=133.111450m. Speed=12.960000m/h.</desc>
<speed>3.600000</speed>
</trkpt>
<trkpt lat="55.930115" lon="26.544950">
<ele>134.068481</ele>
<time>2010-08-29T08:01:10Z</time>
<desc>lat.=55.930115, lon.=26.544950, Alt.=134.068481m. Speed=13.320000m/h.</desc>
<speed>3.700000</speed>
</trkpt>
<trkpt lat="55.930157" lon="26.544949">
<ele>133.779419</ele>
<time>2010-08-29T08:01:11Z</time>
<desc>lat.=55.930157, lon.=26.544949, Alt.=133.779419m. Speed=13.068000m/h.</desc>
<speed>3.630000</speed>
</trkpt>
<trkpt lat="55.930195" lon="26.544947">
<ele>133.318481</ele>
<time>2010-08-29T08:01:12Z</time>
<desc>lat.=55.930195, lon.=26.544947, Alt.=133.318481m. Speed=14.220000m/h.</desc>
<speed>3.950000</speed>
</trkpt>
<trkpt lat="55.930233" lon="26.544949">
<ele>131.162231</ele>
<time>2010-08-29T08:01:13Z</time>
<desc>lat.=55.930233, lon.=26.544949, Alt.=131.162231m. Speed=16.056000m/h.</desc>
<speed>4.460000</speed>
</trkpt>
<trkpt lat="55.930271" lon="26.544954">
<ele>130.713013</ele>
<time>2010-08-29T08:01:14Z</time>
<desc>lat.=55.930271, lon.=26.544954, Alt.=130.713013m. Speed=15.948000m/h.</desc>
<speed>4.430000</speed>
</trkpt>
<trkpt lat="55.930309" lon="26.544960">
<ele>128.498169</ele>
<time>2010-08-29T08:01:15Z</time>
<desc>lat.=55.930309, lon.=26.544960, Alt.=128.498169m. Speed=17.100000m/h.</desc>
<speed>4.750000</speed>
</trkpt>
<trkpt lat="55.930355" lon="26.544964">
<ele>127.381897</ele>
<time>2010-08-29T08:01:16Z</time>
<desc>lat.=55.930355, lon.=26.544964, Alt.=127.381897m. Speed=17.028000m/h.</desc>
<speed>4.730000</speed>
</trkpt>
<trkpt lat="55.930397" lon="26.544970">
<ele>126.667053</ele>
<time>2010-08-29T08:01:17Z</time>
<desc>lat.=55.930397, lon.=26.544970, Alt.=126.667053m. Speed=13.320000m/h.</desc>
<speed>3.700000</speed>
</trkpt>
<trkpt lat="55.930458" lon="26.544970">
<ele>128.537231</ele>
<time>2010-08-29T08:01:18Z</time>
<desc>lat.=55.930458, lon.=26.544970, Alt.=128.537231m. Speed=17.100000m/h.</desc>
<speed>4.750000</speed>
</trkpt>
<trkpt lat="55.930500" lon="26.544971">
<ele>128.283325</ele>
<time>2010-08-29T08:01:19Z</time>
<desc>lat.=55.930500, lon.=26.544971, Alt.=128.283325m. Speed=14.904000m/h.</desc>
<speed>4.140000</speed>
</trkpt>
<trkpt lat="55.930534" lon="26.544977">
<ele>127.879944</ele>
<time>2010-08-29T08:01:20Z</time>
<desc>lat.=55.930534, lon.=26.544977, Alt.=127.879944m. Speed=14.112000m/h.</desc>
<speed>3.920000</speed>
</trkpt>
<trkpt lat="55.930576" lon="26.544987">
<ele>127.569397</ele>
<time>2010-08-29T08:01:21Z</time>
<desc>lat.=55.930576, lon.=26.544987, Alt.=127.569397m. Speed=16.920000m/h.</desc>
<speed>4.700000</speed>
</trkpt>
<trkpt lat="55.930614" lon="26.544992">
<ele>127.229553</ele>
<time>2010-08-29T08:01:22Z</time>
<desc>lat.=55.930614, lon.=26.544992, Alt.=127.229553m. Speed=15.516000m/h.</desc>
<speed>4.310000</speed>
</trkpt>
<trkpt lat="55.930660" lon="26.544992">
<ele>127.963928</ele>
<time>2010-08-29T08:01:23Z</time>
<desc>lat.=55.930660, lon.=26.544992, Alt.=127.963928m. Speed=15.804000m/h.</desc>
<speed>4.390000</speed>
</trkpt>
<trkpt lat="55.930695" lon="26.544992">
<ele>127.506897</ele>
<time>2010-08-29T08:01:24Z</time>
<desc>lat.=55.930695, lon.=26.544992, Alt.=127.506897m. Speed=14.760000m/h.</desc>
<speed>4.100000</speed>
</trkpt>
<trkpt lat="55.930740" lon="26.545006">
<ele>128.619263</ele>
<time>2010-08-29T08:01:25Z</time>
<desc>lat.=55.930740, lon.=26.545006, Alt.=128.619263m. Speed=12.132000m/h.</desc>
<speed>3.370000</speed>
</trkpt>
<trkpt lat="55.930771" lon="26.545010">
<ele>127.077209</ele>
<time>2010-08-29T08:01:26Z</time>
<desc>lat.=55.930771, lon.=26.545010, Alt.=127.077209m. Speed=13.212000m/h.</desc>
<speed>3.670000</speed>
</trkpt>
<trkpt lat="55.930798" lon="26.545012">
<ele>126.663147</ele>
<time>2010-08-29T08:01:27Z</time>
<desc>lat.=55.930798, lon.=26.545012, Alt.=126.663147m. Speed=11.484000m/h.</desc>
<speed>3.190000</speed>
</trkpt>
<trkpt lat="55.930832" lon="26.545008">
<ele>125.881897</ele>
<time>2010-08-29T08:01:28Z</time>
<desc>lat.=55.930832, lon.=26.545008, Alt.=125.881897m. Speed=13.320000m/h.</desc>
<speed>3.700000</speed>
</trkpt>
<trkpt lat="55.930866" lon="26.545013">
<ele>126.319397</ele>
<time>2010-08-29T08:01:29Z</time>
<desc>lat.=55.930866, lon.=26.545013, Alt.=126.319397m. Speed=12.960000m/h.</desc>
<speed>3.600000</speed>
</trkpt>
<trkpt lat="55.930904" lon="26.545021">
<ele>126.458069</ele>
<time>2010-08-29T08:01:30Z</time>
<desc>lat.=55.930904, lon.=26.545021, Alt.=126.458069m. Speed=14.184000m/h.</desc>
<speed>3.940000</speed>
</trkpt>
<trkpt lat="55.930946" lon="26.545027">
<ele>126.928772</ele>
<time>2010-08-29T08:01:31Z</time>
<desc>lat.=55.930946, lon.=26.545027, Alt.=126.928772m. Speed=14.760000m/h.</desc>
<speed>4.100000</speed>
</trkpt>
<trkpt lat="55.930984" lon="26.545031">
<ele>127.608459</ele>
<time>2010-08-29T08:01:32Z</time>
<desc>lat.=55.930984, lon.=26.545031, Alt.=127.608459m. Speed=14.184000m/h.</desc>
<speed>3.940000</speed>
</trkpt>
<trkpt lat="55.931023" lon="26.545034">
<ele>127.696350</ele>
<time>2010-08-29T08:01:33Z</time>
<desc>lat.=55.931023, lon.=26.545034, Alt.=127.696350m. Speed=10.476000m/h.</desc>
<speed>2.910000</speed>
</trkpt>
<trkpt lat="55.931068" lon="26.545027">
<ele>127.879944</ele>
<time>2010-08-29T08:01:34Z</time>
<desc>lat.=55.931068, lon.=26.545027, Alt.=127.879944m. Speed=13.932000m/h.</desc>
<speed>3.870000</speed>
</trkpt>
<trkpt lat="55.931114" lon="26.545021">
<ele>128.041138</ele>
<time>2010-08-29T08:01:35Z</time>
<desc>lat.=55.931114, lon.=26.545021, Alt.=128.041138m. Speed=14.112000m/h.</desc>
<speed>3.920000</speed>
</trkpt>
<trkpt lat="55.931152" lon="26.545021">
<ele>128.806763</ele>
<time>2010-08-29T08:01:36Z</time>
<desc>lat.=55.931152, lon.=26.545021, Alt.=128.806763m. Speed=13.248000m/h.</desc>
<speed>3.680000</speed>
</trkpt>
<trkpt lat="55.931202" lon="26.545031">
<ele>130.037231</ele>
<time>2010-08-29T08:01:37Z</time>
<desc>lat.=55.931202, lon.=26.545031, Alt.=130.037231m. Speed=12.744000m/h.</desc>
<speed>3.540000</speed>
</trkpt>
<trkpt lat="55.931248" lon="26.545036">
<ele>129.599731</ele>
<time>2010-08-29T08:01:38Z</time>
<desc>lat.=55.931248, lon.=26.545036, Alt.=129.599731m. Speed=14.940000m/h.</desc>
<speed>4.150000</speed>
</trkpt>
<trkpt lat="55.931290" lon="26.545033">
<ele>130.154419</ele>
<time>2010-08-29T08:01:39Z</time>
<desc>lat.=55.931290, lon.=26.545033, Alt.=130.154419m. Speed=13.068000m/h.</desc>
<speed>3.630000</speed>
</trkpt>
<trkpt lat="55.931332" lon="26.545027">
<ele>130.306763</ele>
<time>2010-08-29T08:01:40Z</time>
<desc>lat.=55.931332, lon.=26.545027, Alt.=130.306763m. Speed=12.456000m/h.</desc>
<speed>3.460000</speed>
</trkpt>
<trkpt lat="55.931374" lon="26.545025">
<ele>130.916138</ele>
<time>2010-08-29T08:01:41Z</time>
<desc>lat.=55.931374, lon.=26.545025, Alt.=130.916138m. Speed=13.284000m/h.</desc>
<speed>3.690000</speed>
</trkpt>
<trkpt lat="55.931404" lon="26.545013">
<ele>130.939575</ele>
<time>2010-08-29T08:01:42Z</time>
<desc>lat.=55.931404, lon.=26.545013, Alt.=130.939575m. Speed=11.808000m/h.</desc>
<speed>3.280000</speed>
</trkpt>
<trkpt lat="55.931431" lon="26.545004">
<ele>128.716919</ele>
<time>2010-08-29T08:01:43Z</time>
<desc>lat.=55.931431, lon.=26.545004, Alt.=128.716919m. Speed=10.188000m/h.</desc>
<speed>2.830000</speed>
</trkpt>
<trkpt lat="55.931454" lon="26.545010">
<ele>127.674866</ele>
<time>2010-08-29T08:01:44Z</time>
<desc>lat.=55.931454, lon.=26.545010, Alt.=127.674866m. Speed=9.108000m/h.</desc>
<speed>2.530000</speed>
</trkpt>
<trkpt lat="55.931480" lon="26.545025">
<ele>127.467834</ele>
<time>2010-08-29T08:01:45Z</time>
<desc>lat.=55.931480, lon.=26.545025, Alt.=127.467834m. Speed=12.096000m/h.</desc>
<speed>3.360000</speed>
</trkpt>
<trkpt lat="55.931515" lon="26.545034">
<ele>127.223694</ele>
<time>2010-08-29T08:01:46Z</time>
<desc>lat.=55.931515, lon.=26.545034, Alt.=127.223694m. Speed=10.944000m/h.</desc>
<speed>3.040000</speed>
</trkpt>
<trkpt lat="55.931557" lon="26.545046">
<ele>126.899475</ele>
<time>2010-08-29T08:01:47Z</time>
<desc>lat.=55.931557, lon.=26.545046, Alt.=126.899475m. Speed=12.528000m/h.</desc>
<speed>3.480000</speed>
</trkpt>
<trkpt lat="55.931587" lon="26.545057">
<ele>126.342834</ele>
<time>2010-08-29T08:01:48Z</time>
<desc>lat.=55.931587, lon.=26.545057, Alt.=126.342834m. Speed=12.420000m/h.</desc>
<speed>3.450000</speed>
</trkpt>
<trkpt lat="55.931622" lon="26.545065">
<ele>125.649475</ele>
<time>2010-08-29T08:01:49Z</time>
<desc>lat.=55.931622, lon.=26.545065, Alt.=125.649475m. Speed=11.520000m/h.</desc>
<speed>3.200000</speed>
</trkpt>
<trkpt lat="55.931660" lon="26.545067">
<ele>125.442444</ele>
<time>2010-08-29T08:01:50Z</time>
<desc>lat.=55.931660, lon.=26.545067, Alt.=125.442444m. Speed=12.888000m/h.</desc>
<speed>3.580000</speed>
</trkpt>
<trkpt lat="55.931694" lon="26.545082">
<ele>123.508850</ele>
<time>2010-08-29T08:01:51Z</time>
<desc>lat.=55.931694, lon.=26.545082, Alt.=123.508850m. Speed=14.436000m/h.</desc>
<speed>4.010000</speed>
</trkpt>
<trkpt lat="55.931732" lon="26.545103">
<ele>124.272522</ele>
<time>2010-08-29T08:01:52Z</time>
<desc>lat.=55.931732, lon.=26.545103, Alt.=124.272522m. Speed=8.496000m/h.</desc>
<speed>2.360000</speed>
</trkpt>
<trkpt lat="55.931763" lon="26.545115">
<ele>125.799866</ele>
<time>2010-08-29T08:01:53Z</time>
<desc>lat.=55.931763, lon.=26.545115, Alt.=125.799866m. Speed=4.572000m/h.</desc>
<speed>1.270000</speed>
</trkpt>
<trkpt lat="55.931782" lon="26.545120">
<ele>126.665100</ele>
<time>2010-08-29T08:01:54Z</time>
<desc>lat.=55.931782, lon.=26.545120, Alt.=126.665100m. Speed=1.800000m/h.</desc>
<speed>0.500000</speed>
</trkpt>
<trkpt lat="55.931782" lon="26.545099">
<ele>126.801819</ele>
<time>2010-08-29T08:01:55Z</time>
<desc>lat.=55.931782, lon.=26.545099, Alt.=126.801819m. Speed=0.504000m/h.</desc>
<speed>0.140000</speed>
</trkpt>
<trkpt lat="55.931778" lon="26.545090">
<ele>127.008850</ele>
<time>2010-08-29T08:01:56Z</time>
<desc>lat.=55.931778, lon.=26.545090, Alt.=127.008850m. Speed=0.360000m/h.</desc>
<speed>0.100000</speed>
</trkpt>
<trkpt lat="55.931786" lon="26.545092">
<ele>127.368225</ele>
<time>2010-08-29T08:01:57Z</time>
<desc>lat.=55.931786, lon.=26.545092, Alt.=127.368225m. Speed=0.360000m/h.</desc>
<speed>0.100000</speed>
</trkpt>
<trkpt lat="55.931786" lon="26.545092">
<ele>127.344788</ele>
<time>2010-08-29T08:01:58Z</time>
<desc>lat.=55.931786, lon.=26.545092, Alt.=127.344788m. Speed=0.072000m/h.</desc>
<speed>0.020000</speed>
</trkpt>
<trkpt lat="55.931786" lon="26.545092">
<ele>127.368225</ele>
<time>2010-08-29T08:01:59Z</time>
<desc>lat.=55.931786, lon.=26.545092, Alt.=127.368225m. Speed=0.108000m/h.</desc>
<speed>0.030000</speed>
</trkpt>
<trkpt lat="55.931786" lon="26.545092">
<ele>127.387756</ele>
<time>2010-08-29T08:02:00Z</time>
<desc>lat.=55.931786, lon.=26.545092, Alt.=127.387756m. Speed=0.072000m/h.</desc>
<speed>0.020000</speed>
</trkpt>
<trkpt lat="55.931786" lon="26.545092">
<ele>127.407288</ele>
<time>2010-08-29T08:02:01Z</time>
<desc>lat.=55.931786, lon.=26.545092, Alt.=127.407288m. Speed=0.072000m/h.</desc>
<speed>0.020000</speed>
</trkpt>
<trkpt lat="55.931786" lon="26.545092">
<ele>127.397522</ele>
<time>2010-08-29T08:02:02Z</time>
<desc>lat.=55.931786, lon.=26.545092, Alt.=127.397522m. Speed=0.072000m/h.</desc>
<speed>0.020000</speed>
</trkpt>
<trkpt lat="55.931786" lon="26.545092">
<ele>127.362366</ele>
<time>2010-08-29T08:02:03Z</time>
<desc>lat.=55.931786, lon.=26.545092, Alt.=127.362366m. Speed=0.144000m/h.</desc>
<speed>0.040000</speed>
</trkpt>
<trkpt lat="55.931786" lon="26.545092">
<ele>127.319397</ele>
<time>2010-08-29T08:02:04Z</time>
<desc>lat.=55.931786, lon.=26.545092, Alt.=127.319397m. Speed=0.252000m/h.</desc>
<speed>0.070000</speed>
</trkpt>
<trkpt lat="55.931786" lon="26.545094">
<ele>127.282288</ele>
<time>2010-08-29T08:02:05Z</time>
<desc>lat.=55.931786, lon.=26.545094, Alt.=127.282288m. Speed=0.036000m/h.</desc>
<speed>0.010000</speed>
</trkpt>
<trkpt lat="55.931786" lon="26.545094">
<ele>127.247131</ele>
<time>2010-08-29T08:02:06Z</time>
<desc>lat.=55.931786, lon.=26.545094, Alt.=127.247131m. Speed=0.072000m/h.</desc>
<speed>0.020000</speed>
</trkpt>
<trkpt lat="55.931786" lon="26.545094">
<ele>127.215881</ele>
<time>2010-08-29T08:02:07Z</time>
<desc>lat.=55.931786, lon.=26.545094, Alt.=127.215881m. Speed=0.288000m/h.</desc>
<speed>0.080000</speed>
</trkpt>
<trkpt lat="55.931786" lon="26.545094">
<ele>127.161194</ele>
<time>2010-08-29T08:02:08Z</time>
<desc>lat.=55.931786, lon.=26.545094, Alt.=127.161194m. Speed=2.520000m/h.</desc>
<speed>0.700000</speed>
</trkpt>
<trkpt lat="55.931793" lon="26.545090">
<ele>127.122131</ele>
<time>2010-08-29T08:02:09Z</time>
<desc>lat.=55.931793, lon.=26.545090, Alt.=127.122131m. Speed=4.176000m/h.</desc>
<speed>1.160000</speed>
</trkpt>
<trkpt lat="55.931805" lon="26.545097">
<ele>127.001038</ele>
<time>2010-08-29T08:02:10Z</time>
<desc>lat.=55.931805, lon.=26.545097, Alt.=127.001038m. Speed=3.564000m/h.</desc>
<speed>0.990000</speed>
</trkpt>
<trkpt lat="55.931828" lon="26.545097">
<ele>128.048950</ele>
<time>2010-08-29T08:02:11Z</time>
<desc>lat.=55.931828, lon.=26.545097, Alt.=128.048950m. Speed=5.544000m/h.</desc>
<speed>1.540000</speed>
</trkpt>
<trkpt lat="55.931854" lon="26.545115">
<ele>129.693481</ele>
<time>2010-08-29T08:02:12Z</time>
<desc>lat.=55.931854, lon.=26.545115, Alt.=129.693481m. Speed=6.480000m/h.</desc>
<speed>1.800000</speed>
</trkpt>
<trkpt lat="55.931881" lon="26.545126">
<ele>130.810669</ele>
<time>2010-08-29T08:02:13Z</time>
<desc>lat.=55.931881, lon.=26.545126, Alt.=130.810669m. Speed=7.236000m/h.</desc>
<speed>2.010000</speed>
</trkpt>
<trkpt lat="55.931911" lon="26.545134">
<ele>131.478638</ele>
<time>2010-08-29T08:02:14Z</time>
<desc>lat.=55.931911, lon.=26.545134, Alt.=131.478638m. Speed=8.460000m/h.</desc>
<speed>2.350000</speed>
</trkpt>
<trkpt lat="55.931938" lon="26.545135">
<ele>131.884888</ele>
<time>2010-08-29T08:02:15Z</time>
<desc>lat.=55.931938, lon.=26.545135, Alt.=131.884888m. Speed=9.252000m/h.</desc>
<speed>2.570000</speed>
</trkpt>
<trkpt lat="55.931965" lon="26.545137">
<ele>131.568481</ele>
<time>2010-08-29T08:02:16Z</time>
<desc>lat.=55.931965, lon.=26.545137, Alt.=131.568481m. Speed=10.548000m/h.</desc>
<speed>2.930000</speed>
</trkpt>
<trkpt lat="55.931995" lon="26.545137">
<ele>131.619263</ele>
<time>2010-08-29T08:02:17Z</time>
<desc>lat.=55.931995, lon.=26.545137, Alt.=131.619263m. Speed=10.692000m/h.</desc>
<speed>2.970000</speed>
</trkpt>
<trkpt lat="55.932026" lon="26.545132">
<ele>132.365356</ele>
<time>2010-08-29T08:02:18Z</time>
<desc>lat.=55.932026, lon.=26.545132, Alt.=132.365356m. Speed=9.936000m/h.</desc>
<speed>2.760000</speed>
</trkpt>
<trkpt lat="55.932060" lon="26.545141">
<ele>133.709106</ele>
<time>2010-08-29T08:02:19Z</time>
<desc>lat.=55.932060, lon.=26.545141, Alt.=133.709106m. Speed=11.448000m/h.</desc>
<speed>3.180000</speed>
</trkpt>
<trkpt lat="55.932079" lon="26.545155">
<ele>132.588013</ele>
<time>2010-08-29T08:02:20Z</time>
<desc>lat.=55.932079, lon.=26.545155, Alt.=132.588013m. Speed=12.852000m/h.</desc>
<speed>3.570000</speed>
</trkpt>
<trkpt lat="55.932106" lon="26.545153">
<ele>132.763794</ele>
<time>2010-08-29T08:02:21Z</time>
<desc>lat.=55.932106, lon.=26.545153, Alt.=132.763794m. Speed=11.448000m/h.</desc>
<speed>3.180000</speed>
</trkpt>
<trkpt lat="55.932140" lon="26.545155">
<ele>133.068481</ele>
<time>2010-08-29T08:02:22Z</time>
<desc>lat.=55.932140, lon.=26.545155, Alt.=133.068481m. Speed=12.744000m/h.</desc>
<speed>3.540000</speed>
</trkpt>
<trkpt lat="55.932163" lon="26.545156">
<ele>132.377075</ele>
<time>2010-08-29T08:02:23Z</time>
<desc>lat.=55.932163, lon.=26.545156, Alt.=132.377075m. Speed=11.772000m/h.</desc>
<speed>3.270000</speed>
</trkpt>
<trkpt lat="55.932194" lon="26.545153">
<ele>132.263794</ele>
<time>2010-08-29T08:02:24Z</time>
<desc>lat.=55.932194, lon.=26.545153, Alt.=132.263794m. Speed=11.520000m/h.</desc>
<speed>3.200000</speed>
</trkpt>
<trkpt lat="55.932224" lon="26.545153">
<ele>131.767700</ele>
<time>2010-08-29T08:02:25Z</time>
<desc>lat.=55.932224, lon.=26.545153, Alt.=131.767700m. Speed=11.700000m/h.</desc>
<speed>3.250000</speed>
</trkpt>
<trkpt lat="55.932251" lon="26.545155">
<ele>131.857544</ele>
<time>2010-08-29T08:02:26Z</time>
<desc>lat.=55.932251, lon.=26.545155, Alt.=131.857544m. Speed=11.628000m/h.</desc>
<speed>3.230000</speed>
</trkpt>
<trkpt lat="55.932281" lon="26.545156">
<ele>132.025513</ele>
<time>2010-08-29T08:02:27Z</time>
<desc>lat.=55.932281, lon.=26.545156, Alt.=132.025513m. Speed=12.708000m/h.</desc>
<speed>3.530000</speed>
</trkpt>
<trkpt lat="55.932320" lon="26.545164">
<ele>132.252075</ele>
<time>2010-08-29T08:02:28Z</time>
<desc>lat.=55.932320, lon.=26.545164, Alt.=132.252075m. Speed=13.824000m/h.</desc>
<speed>3.840000</speed>
</trkpt>
<trkpt lat="55.932350" lon="26.545162">
<ele>132.341919</ele>
<time>2010-08-29T08:02:29Z</time>
<desc>lat.=55.932350, lon.=26.545162, Alt.=132.341919m. Speed=12.024000m/h.</desc>
<speed>3.340000</speed>
</trkpt>
<trkpt lat="55.932384" lon="26.545160">
<ele>132.291138</ele>
<time>2010-08-29T08:02:30Z</time>
<desc>lat.=55.932384, lon.=26.545160, Alt.=132.291138m. Speed=11.376000m/h.</desc>
<speed>3.160000</speed>
</trkpt>
<trkpt lat="55.932415" lon="26.545153">
<ele>132.326294</ele>
<time>2010-08-29T08:02:31Z</time>
<desc>lat.=55.932415, lon.=26.545153, Alt.=132.326294m. Speed=11.592000m/h.</desc>
<speed>3.220000</speed>
</trkpt>
<trkpt lat="55.932446" lon="26.545151">
<ele>131.896606</ele>
<time>2010-08-29T08:02:32Z</time>
<desc>lat.=55.932446, lon.=26.545151, Alt.=131.896606m. Speed=12.096000m/h.</desc>
<speed>3.360000</speed>
</trkpt>
<trkpt lat="55.932476" lon="26.545151">
<ele>131.986450</ele>
<time>2010-08-29T08:02:33Z</time>
<desc>lat.=55.932476, lon.=26.545151, Alt.=131.986450m. Speed=13.032000m/h.</desc>
<speed>3.620000</speed>
</trkpt>
<trkpt lat="55.932510" lon="26.545153">
<ele>132.064575</ele>
<time>2010-08-29T08:02:34Z</time>
<desc>lat.=55.932510, lon.=26.545153, Alt.=132.064575m. Speed=11.880000m/h.</desc>
<speed>3.300000</speed>
</trkpt>
<trkpt lat="55.932537" lon="26.545156">
<ele>131.927856</ele>
<time>2010-08-29T08:02:35Z</time>
<desc>lat.=55.932537, lon.=26.545156, Alt.=131.927856m. Speed=10.620000m/h.</desc>
<speed>2.950000</speed>
</trkpt>
<trkpt lat="55.932571" lon="26.545162">
<ele>132.111450</ele>
<time>2010-08-29T08:02:36Z</time>
<desc>lat.=55.932571, lon.=26.545162, Alt.=132.111450m. Speed=11.520000m/h.</desc>
<speed>3.200000</speed>
</trkpt>
<trkpt lat="55.932598" lon="26.545164">
<ele>131.955200</ele>
<time>2010-08-29T08:02:37Z</time>
<desc>lat.=55.932598, lon.=26.545164, Alt.=131.955200m. Speed=10.836000m/h.</desc>
<speed>3.010000</speed>
</trkpt>
<trkpt lat="55.932629" lon="26.545166">
<ele>132.127075</ele>
<time>2010-08-29T08:02:38Z</time>
<desc>lat.=55.932629, lon.=26.545166, Alt.=132.127075m. Speed=11.340000m/h.</desc>
<speed>3.150000</speed>
</trkpt>
<trkpt lat="55.932659" lon="26.545172">
<ele>131.783325</ele>
<time>2010-08-29T08:02:39Z</time>
<desc>lat.=55.932659, lon.=26.545172, Alt.=131.783325m. Speed=11.520000m/h.</desc>
<speed>3.200000</speed>
</trkpt>
<trkpt lat="55.932690" lon="26.545170">
<ele>131.767700</ele>
<time>2010-08-29T08:02:40Z</time>
<desc>lat.=55.932690, lon.=26.545170, Alt.=131.767700m. Speed=11.880000m/h.</desc>
<speed>3.300000</speed>
</trkpt>
<trkpt lat="55.932720" lon="26.545168">
<ele>132.091919</ele>
<time>2010-08-29T08:02:41Z</time>
<desc>lat.=55.932720, lon.=26.545168, Alt.=132.091919m. Speed=12.168000m/h.</desc>
<speed>3.380000</speed>
</trkpt>
<trkpt lat="55.932747" lon="26.545164">
<ele>131.947388</ele>
<time>2010-08-29T08:02:42Z</time>
<desc>lat.=55.932747, lon.=26.545164, Alt.=131.947388m. Speed=12.168000m/h.</desc>
<speed>3.380000</speed>
</trkpt>
<trkpt lat="55.932781" lon="26.545166">
<ele>131.771606</ele>
<time>2010-08-29T08:02:43Z</time>
<desc>lat.=55.932781, lon.=26.545166, Alt.=131.771606m. Speed=12.168000m/h.</desc>
<speed>3.380000</speed>
</trkpt>
<trkpt lat="55.932812" lon="26.545166">
<ele>131.693481</ele>
<time>2010-08-29T08:02:44Z</time>
<desc>lat.=55.932812, lon.=26.545166, Alt.=131.693481m. Speed=12.132000m/h.</desc>
<speed>3.370000</speed>
</trkpt>
<trkpt lat="55.932842" lon="26.545168">
<ele>131.826294</ele>
<time>2010-08-29T08:02:45Z</time>
<desc>lat.=55.932842, lon.=26.545168, Alt.=131.826294m. Speed=12.024000m/h.</desc>
<speed>3.340000</speed>
</trkpt>
<trkpt lat="55.932873" lon="26.545179">
<ele>131.705200</ele>
<time>2010-08-29T08:02:46Z</time>
<desc>lat.=55.932873, lon.=26.545179, Alt.=131.705200m. Speed=11.952000m/h.</desc>
<speed>3.320000</speed>
</trkpt>
<trkpt lat="55.932907" lon="26.545183">
<ele>131.818481</ele>
<time>2010-08-29T08:02:47Z</time>
<desc>lat.=55.932907, lon.=26.545183, Alt.=131.818481m. Speed=12.060000m/h.</desc>
<speed>3.350000</speed>
</trkpt>
<trkpt lat="55.932938" lon="26.545193">
<ele>131.923950</ele>
<time>2010-08-29T08:02:48Z</time>
<desc>lat.=55.932938, lon.=26.545193, Alt.=131.923950m. Speed=11.916000m/h.</desc>
<speed>3.310000</speed>
</trkpt>
<trkpt lat="55.932968" lon="26.545174">
<ele>133.677856</ele>
<time>2010-08-29T08:02:49Z</time>
<desc>lat.=55.932968, lon.=26.545174, Alt.=133.677856m. Speed=7.344000m/h.</desc>
<speed>2.040000</speed>
</trkpt>
<trkpt lat="55.932987" lon="26.545168">
<ele>133.701294</ele>
<time>2010-08-29T08:02:50Z</time>
<desc>lat.=55.932987, lon.=26.545168, Alt.=133.701294m. Speed=10.620000m/h.</desc>
<speed>2.950000</speed>
</trkpt>
<trkpt lat="55.933018" lon="26.545172">
<ele>133.795044</ele>
<time>2010-08-29T08:02:51Z</time>
<desc>lat.=55.933018, lon.=26.545172, Alt.=133.795044m. Speed=12.528000m/h.</desc>
<speed>3.480000</speed>
</trkpt>
<trkpt lat="55.933052" lon="26.545177">
<ele>133.982544</ele>
<time>2010-08-29T08:02:52Z</time>
<desc>lat.=55.933052, lon.=26.545177, Alt.=133.982544m. Speed=11.700000m/h.</desc>
<speed>3.250000</speed>
</trkpt>
<trkpt lat="55.933079" lon="26.545179">
<ele>134.177856</ele>
<time>2010-08-29T08:02:53Z</time>
<desc>lat.=55.933079, lon.=26.545179, Alt.=134.177856m. Speed=11.088000m/h.</desc>
<speed>3.080000</speed>
</trkpt>
<trkpt lat="55.933109" lon="26.545185">
<ele>134.373169</ele>
<time>2010-08-29T08:02:54Z</time>
<desc>lat.=55.933109, lon.=26.545185, Alt.=134.373169m. Speed=10.692000m/h.</desc>
<speed>2.970000</speed>
</trkpt>
<trkpt lat="55.933136" lon="26.545191">
<ele>134.541138</ele>
<time>2010-08-29T08:02:55Z</time>
<desc>lat.=55.933136, lon.=26.545191, Alt.=134.541138m. Speed=11.088000m/h.</desc>
<speed>3.080000</speed>
</trkpt>
<trkpt lat="55.933167" lon="26.545197">
<ele>134.494263</ele>
<time>2010-08-29T08:02:56Z</time>
<desc>lat.=55.933167, lon.=26.545197, Alt.=134.494263m. Speed=11.304000m/h.</desc>
<speed>3.140000</speed>
</trkpt>
<trkpt lat="55.933193" lon="26.545200">
<ele>134.576294</ele>
<time>2010-08-29T08:02:57Z</time>
<desc>lat.=55.933193, lon.=26.545200, Alt.=134.576294m. Speed=12.600000m/h.</desc>
<speed>3.500000</speed>
</trkpt>
<trkpt lat="55.933220" lon="26.545218">
<ele>133.213013</ele>
<time>2010-08-29T08:02:58Z</time>
<desc>lat.=55.933220, lon.=26.545218, Alt.=133.213013m. Speed=14.328000m/h.</desc>
<speed>3.980000</speed>
</trkpt>
<trkpt lat="55.933258" lon="26.545227">
<ele>132.877075</ele>
<time>2010-08-29T08:02:59Z</time>
<desc>lat.=55.933258, lon.=26.545227, Alt.=132.877075m. Speed=16.704000m/h.</desc>
<speed>4.640000</speed>
</trkpt>
<trkpt lat="55.933304" lon="26.545237">
<ele>132.525513</ele>
<time>2010-08-29T08:03:00Z</time>
<desc>lat.=55.933304, lon.=26.545237, Alt.=132.525513m. Speed=18.468000m/h.</desc>
<speed>5.130000</speed>
</trkpt>
<trkpt lat="55.933350" lon="26.545250">
<ele>131.334106</ele>
<time>2010-08-29T08:03:01Z</time>
<desc>lat.=55.933350, lon.=26.545250, Alt.=131.334106m. Speed=22.320000m/h.</desc>
<speed>6.200000</speed>
</trkpt>
<trkpt lat="55.933403" lon="26.545258">
<ele>130.873169</ele>
<time>2010-08-29T08:03:02Z</time>
<desc>lat.=55.933403, lon.=26.545258, Alt.=130.873169m. Speed=22.139999m/h.</desc>
<speed>6.150000</speed>
</trkpt>
<trkpt lat="55.933460" lon="26.545261">
<ele>130.349731</ele>
<time>2010-08-29T08:03:03Z</time>
<desc>lat.=55.933460, lon.=26.545261, Alt.=130.349731m. Speed=23.940001m/h.</desc>
<speed>6.650000</speed>
</trkpt>
<trkpt lat="55.933525" lon="26.545265">
<ele>130.904419</ele>
<time>2010-08-29T08:03:04Z</time>
<desc>lat.=55.933525, lon.=26.545265, Alt.=130.904419m. Speed=23.903999m/h.</desc>
<speed>6.640000</speed>
</trkpt>
<trkpt lat="55.933582" lon="26.545271">
<ele>130.693481</ele>
<time>2010-08-29T08:03:05Z</time>
<desc>lat.=55.933582, lon.=26.545271, Alt.=130.693481m. Speed=23.940001m/h.</desc>
<speed>6.650000</speed>
</trkpt>
<trkpt lat="55.933647" lon="26.545284">
<ele>131.318481</ele>
<time>2010-08-29T08:03:06Z</time>
<desc>lat.=55.933647, lon.=26.545284, Alt.=131.318481m. Speed=24.191999m/h.</desc>
<speed>6.720000</speed>
</trkpt>
<trkpt lat="55.933712" lon="26.545292">
<ele>131.220825</ele>
<time>2010-08-29T08:03:07Z</time>
<desc>lat.=55.933712, lon.=26.545292, Alt.=131.220825m. Speed=25.379999m/h.</desc>
<speed>7.050000</speed>
</trkpt>
<trkpt lat="55.933773" lon="26.545298">
<ele>131.080200</ele>
<time>2010-08-29T08:03:08Z</time>
<desc>lat.=55.933773, lon.=26.545298, Alt.=131.080200m. Speed=24.695999m/h.</desc>
<speed>6.860000</speed>
</trkpt>
<trkpt lat="55.933834" lon="26.545303">
<ele>130.716919</ele>
<time>2010-08-29T08:03:09Z</time>
<desc>lat.=55.933834, lon.=26.545303, Alt.=130.716919m. Speed=24.228001m/h.</desc>
<speed>6.730000</speed>
</trkpt>
<trkpt lat="55.933887" lon="26.545311">
<ele>129.119263</ele>
<time>2010-08-29T08:03:10Z</time>
<desc>lat.=55.933887, lon.=26.545311, Alt.=129.119263m. Speed=24.048000m/h.</desc>
<speed>6.680000</speed>
</trkpt>
<trkpt lat="55.933949" lon="26.545324">
<ele>129.662231</ele>
<time>2010-08-29T08:03:11Z</time>
<desc>lat.=55.933949, lon.=26.545324, Alt.=129.662231m. Speed=23.615999m/h.</desc>
<speed>6.560000</speed>
</trkpt>
<trkpt lat="55.934006" lon="26.545328">
<ele>129.630981</ele>
<time>2010-08-29T08:03:12Z</time>
<desc>lat.=55.934006, lon.=26.545328, Alt.=129.630981m. Speed=22.247999m/h.</desc>
<speed>6.180000</speed>
</trkpt>
<trkpt lat="55.934063" lon="26.545332">
<ele>129.490356</ele>
<time>2010-08-29T08:03:13Z</time>
<desc>lat.=55.934063, lon.=26.545332, Alt.=129.490356m. Speed=20.556000m/h.</desc>
<speed>5.710000</speed>
</trkpt>
<trkpt lat="55.934120" lon="26.545334">
<ele>130.513794</ele>
<time>2010-08-29T08:03:14Z</time>
<desc>lat.=55.934120, lon.=26.545334, Alt.=130.513794m. Speed=19.476000m/h.</desc>
<speed>5.410000</speed>
</trkpt>
<trkpt lat="55.934166" lon="26.545336">
<ele>130.588013</ele>
<time>2010-08-29T08:03:15Z</time>
<desc>lat.=55.934166, lon.=26.545336, Alt.=130.588013m. Speed=18.936001m/h.</desc>
<speed>5.260000</speed>
</trkpt>
<trkpt lat="55.934208" lon="26.545340">
<ele>129.744263</ele>
<time>2010-08-29T08:03:16Z</time>
<desc>lat.=55.934208, lon.=26.545340, Alt.=129.744263m. Speed=18.288000m/h.</desc>
<speed>5.080000</speed>
</trkpt>
<trkpt lat="55.934254" lon="26.545341">
<ele>129.259888</ele>
<time>2010-08-29T08:03:17Z</time>
<desc>lat.=55.934254, lon.=26.545341, Alt.=129.259888m. Speed=18.035999m/h.</desc>
<speed>5.010000</speed>
</trkpt>
<trkpt lat="55.934296" lon="26.545347">
<ele>129.642700</ele>
<time>2010-08-29T08:03:18Z</time>
<desc>lat.=55.934296, lon.=26.545347, Alt.=129.642700m. Speed=16.056000m/h.</desc>
<speed>4.460000</speed>
</trkpt>
<trkpt lat="55.934338" lon="26.545347">
<ele>129.834106</ele>
<time>2010-08-29T08:03:19Z</time>
<desc>lat.=55.934338, lon.=26.545347, Alt.=129.834106m. Speed=15.084000m/h.</desc>
<speed>4.190000</speed>
</trkpt>
<trkpt lat="55.934376" lon="26.545347">
<ele>129.955200</ele>
<time>2010-08-29T08:03:20Z</time>
<desc>lat.=55.934376, lon.=26.545347, Alt.=129.955200m. Speed=14.796000m/h.</desc>
<speed>4.110000</speed>
</trkpt>
<trkpt lat="55.934414" lon="26.545349">
<ele>130.142700</ele>
<time>2010-08-29T08:03:21Z</time>
<desc>lat.=55.934414, lon.=26.545349, Alt.=130.142700m. Speed=14.652000m/h.</desc>
<speed>4.070000</speed>
</trkpt>
<trkpt lat="55.934452" lon="26.545351">
<ele>130.560669</ele>
<time>2010-08-29T08:03:22Z</time>
<desc>lat.=55.934452, lon.=26.545351, Alt.=130.560669m. Speed=14.724000m/h.</desc>
<speed>4.090000</speed>
</trkpt>
<trkpt lat="55.934486" lon="26.545355">
<ele>130.689575</ele>
<time>2010-08-29T08:03:23Z</time>
<desc>lat.=55.934486, lon.=26.545355, Alt.=130.689575m. Speed=14.040000m/h.</desc>
<speed>3.900000</speed>
</trkpt>
<trkpt lat="55.934525" lon="26.545366">
<ele>131.080200</ele>
<time>2010-08-29T08:03:24Z</time>
<desc>lat.=55.934525, lon.=26.545366, Alt.=131.080200m. Speed=13.644000m/h.</desc>
<speed>3.790000</speed>
</trkpt>
<trkpt lat="55.934559" lon="26.545366">
<ele>131.521606</ele>
<time>2010-08-29T08:03:25Z</time>
<desc>lat.=55.934559, lon.=26.545366, Alt.=131.521606m. Speed=14.076000m/h.</desc>
<speed>3.910000</speed>
</trkpt>
<trkpt lat="55.934593" lon="26.545372">
<ele>131.814575</ele>
<time>2010-08-29T08:03:26Z</time>
<desc>lat.=55.934593, lon.=26.545372, Alt.=131.814575m. Speed=14.256000m/h.</desc>
<speed>3.960000</speed>
</trkpt>
<trkpt lat="55.934631" lon="26.545378">
<ele>132.537231</ele>
<time>2010-08-29T08:03:27Z</time>
<desc>lat.=55.934631, lon.=26.545378, Alt.=132.537231m. Speed=14.292000m/h.</desc>
<speed>3.970000</speed>
</trkpt>
<trkpt lat="55.934666" lon="26.545378">
<ele>132.642700</ele>
<time>2010-08-29T08:03:28Z</time>
<desc>lat.=55.934666, lon.=26.545378, Alt.=132.642700m. Speed=14.184000m/h.</desc>
<speed>3.940000</speed>
</trkpt>
<trkpt lat="55.934700" lon="26.545383">
<ele>132.689575</ele>
<time>2010-08-29T08:03:29Z</time>
<desc>lat.=55.934700, lon.=26.545383, Alt.=132.689575m. Speed=13.932000m/h.</desc>
<speed>3.870000</speed>
</trkpt>
<trkpt lat="55.934738" lon="26.545372">
<ele>134.111450</ele>
<time>2010-08-29T08:03:30Z</time>
<desc>lat.=55.934738, lon.=26.545372, Alt.=134.111450m. Speed=14.112000m/h.</desc>
<speed>3.920000</speed>
</trkpt>
<trkpt lat="55.934765" lon="26.545389">
<ele>132.400513</ele>
<time>2010-08-29T08:03:31Z</time>
<desc>lat.=55.934765, lon.=26.545389, Alt.=132.400513m. Speed=15.408000m/h.</desc>
<speed>4.280000</speed>
</trkpt>
<trkpt lat="55.934799" lon="26.545389">
<ele>131.834106</ele>
<time>2010-08-29T08:03:32Z</time>
<desc>lat.=55.934799, lon.=26.545389, Alt.=131.834106m. Speed=14.904000m/h.</desc>
<speed>4.140000</speed>
</trkpt>
<trkpt lat="55.934837" lon="26.545395">
<ele>131.685669</ele>
<time>2010-08-29T08:03:33Z</time>
<desc>lat.=55.934837, lon.=26.545395, Alt.=131.685669m. Speed=15.264000m/h.</desc>
<speed>4.240000</speed>
</trkpt>
<trkpt lat="55.934872" lon="26.545399">
<ele>131.259888</ele>
<time>2010-08-29T08:03:34Z</time>
<desc>lat.=55.934872, lon.=26.545399, Alt.=131.259888m. Speed=14.904000m/h.</desc>
<speed>4.140000</speed>
</trkpt>
<trkpt lat="55.934910" lon="26.545391">
<ele>131.220825</ele>
<time>2010-08-29T08:03:35Z</time>
<desc>lat.=55.934910, lon.=26.545391, Alt.=131.220825m. Speed=15.624000m/h.</desc>
<speed>4.340000</speed>
</trkpt>
<trkpt lat="55.934944" lon="26.545397">
<ele>130.142700</ele>
<time>2010-08-29T08:03:36Z</time>
<desc>lat.=55.934944, lon.=26.545397, Alt.=130.142700m. Speed=16.632000m/h.</desc>
<speed>4.620000</speed>
</trkpt>
<trkpt lat="55.934986" lon="26.545399">
<ele>129.545044</ele>
<time>2010-08-29T08:03:37Z</time>
<desc>lat.=55.934986, lon.=26.545399, Alt.=129.545044m. Speed=16.559999m/h.</desc>
<speed>4.600000</speed>
</trkpt>
<trkpt lat="55.935024" lon="26.545401">
<ele>129.263794</ele>
<time>2010-08-29T08:03:38Z</time>
<desc>lat.=55.935024, lon.=26.545401, Alt.=129.263794m. Speed=16.379999m/h.</desc>
<speed>4.550000</speed>
</trkpt>
<trkpt lat="55.935066" lon="26.545399">
<ele>129.361450</ele>
<time>2010-08-29T08:03:39Z</time>
<desc>lat.=55.935066, lon.=26.545399, Alt.=129.361450m. Speed=15.192000m/h.</desc>
<speed>4.220000</speed>
</trkpt>
<trkpt lat="55.935101" lon="26.545397">
<ele>129.197388</ele>
<time>2010-08-29T08:03:40Z</time>
<desc>lat.=55.935101, lon.=26.545397, Alt.=129.197388m. Speed=14.508000m/h.</desc>
<speed>4.030000</speed>
</trkpt>
<trkpt lat="55.935139" lon="26.545397">
<ele>129.416138</ele>
<time>2010-08-29T08:03:41Z</time>
<desc>lat.=55.935139, lon.=26.545397, Alt.=129.416138m. Speed=13.608000m/h.</desc>
<speed>3.780000</speed>
</trkpt>
<trkpt lat="55.935169" lon="26.545391">
<ele>129.177856</ele>
<time>2010-08-29T08:03:42Z</time>
<desc>lat.=55.935169, lon.=26.545391, Alt.=129.177856m. Speed=12.312000m/h.</desc>
<speed>3.420000</speed>
</trkpt>
<trkpt lat="55.935200" lon="26.545389">
<ele>129.306763</ele>
<time>2010-08-29T08:03:43Z</time>
<desc>lat.=55.935200, lon.=26.545389, Alt.=129.306763m. Speed=11.628000m/h.</desc>
<speed>3.230000</speed>
</trkpt>
<trkpt lat="55.935223" lon="26.545393">
<ele>128.525513</ele>
<time>2010-08-29T08:03:44Z</time>
<desc>lat.=55.935223, lon.=26.545393, Alt.=128.525513m. Speed=12.384000m/h.</desc>
<speed>3.440000</speed>
</trkpt>
<trkpt lat="55.935253" lon="26.545397">
<ele>128.513794</ele>
<time>2010-08-29T08:03:45Z</time>
<desc>lat.=55.935253, lon.=26.545397, Alt.=128.513794m. Speed=13.032000m/h.</desc>
<speed>3.620000</speed>
</trkpt>
<trkpt lat="55.935287" lon="26.545401">
<ele>128.384888</ele>
<time>2010-08-29T08:03:46Z</time>
<desc>lat.=55.935287, lon.=26.545401, Alt.=128.384888m. Speed=13.284000m/h.</desc>
<speed>3.690000</speed>
</trkpt>
<trkpt lat="55.935310" lon="26.545404">
<ele>127.362366</ele>
<time>2010-08-29T08:03:47Z</time>
<desc>lat.=55.935310, lon.=26.545404, Alt.=127.362366m. Speed=14.040000m/h.</desc>
<speed>3.900000</speed>
</trkpt>
<trkpt lat="55.935349" lon="26.545408">
<ele>127.389709</ele>
<time>2010-08-29T08:03:48Z</time>
<desc>lat.=55.935349, lon.=26.545408, Alt.=127.389709m. Speed=14.832000m/h.</desc>
<speed>4.120000</speed>
</trkpt>
<trkpt lat="55.935379" lon="26.545412">
<ele>125.723694</ele>
<time>2010-08-29T08:03:49Z</time>
<desc>lat.=55.935379, lon.=26.545412, Alt.=125.723694m. Speed=14.364000m/h.</desc>
<speed>3.990000</speed>
</trkpt>
<trkpt lat="55.935417" lon="26.545412">
<ele>126.081116</ele>
<time>2010-08-29T08:03:50Z</time>
<desc>lat.=55.935417, lon.=26.545412, Alt.=126.081116m. Speed=15.444000m/h.</desc>
<speed>4.290000</speed>
</trkpt>
<trkpt lat="55.935452" lon="26.545416">
<ele>125.760803</ele>
<time>2010-08-29T08:03:51Z</time>
<desc>lat.=55.935452, lon.=26.545416, Alt.=125.760803m. Speed=15.588000m/h.</desc>
<speed>4.330000</speed>
</trkpt>
<trkpt lat="55.935493" lon="26.545418">
<ele>125.838928</ele>
<time>2010-08-29T08:03:52Z</time>
<desc>lat.=55.935493, lon.=26.545418, Alt.=125.838928m. Speed=16.955999m/h.</desc>
<speed>4.710000</speed>
</trkpt>
<trkpt lat="55.935539" lon="26.545416">
<ele>125.491272</ele>
<time>2010-08-29T08:03:53Z</time>
<desc>lat.=55.935539, lon.=26.545416, Alt.=125.491272m. Speed=17.243999m/h.</desc>
<speed>4.790000</speed>
</trkpt>
<trkpt lat="55.935577" lon="26.545416">
<ele>125.338928</ele>
<time>2010-08-29T08:03:54Z</time>
<desc>lat.=55.935577, lon.=26.545416, Alt.=125.338928m. Speed=17.496000m/h.</desc>
<speed>4.860000</speed>
</trkpt>
<trkpt lat="55.935619" lon="26.545420">
<ele>125.286194</ele>
<time>2010-08-29T08:03:55Z</time>
<desc>lat.=55.935619, lon.=26.545420, Alt.=125.286194m. Speed=17.604000m/h.</desc>
<speed>4.890000</speed>
</trkpt>
<trkpt lat="55.935665" lon="26.545425">
<ele>125.335022</ele>
<time>2010-08-29T08:03:56Z</time>
<desc>lat.=55.935665, lon.=26.545425, Alt.=125.335022m. Speed=18.035999m/h.</desc>
<speed>5.010000</speed>
</trkpt>
<trkpt lat="55.935707" lon="26.545433">
<ele>125.147522</ele>
<time>2010-08-29T08:03:57Z</time>
<desc>lat.=55.935707, lon.=26.545433, Alt.=125.147522m. Speed=17.639999m/h.</desc>
<speed>4.900000</speed>
</trkpt>
<trkpt lat="55.935753" lon="26.545437">
<ele>124.915100</ele>
<time>2010-08-29T08:03:58Z</time>
<desc>lat.=55.935753, lon.=26.545437, Alt.=124.915100m. Speed=18.143999m/h.</desc>
<speed>5.040000</speed>
</trkpt>
<trkpt lat="55.935799" lon="26.545443">
<ele>124.667053</ele>
<time>2010-08-29T08:03:59Z</time>
<desc>lat.=55.935799, lon.=26.545443, Alt.=124.667053m. Speed=18.288000m/h.</desc>
<speed>5.080000</speed>
</trkpt>
<trkpt lat="55.935844" lon="26.545444">
<ele>124.571350</ele>
<time>2010-08-29T08:04:00Z</time>
<desc>lat.=55.935844, lon.=26.545444, Alt.=124.571350m. Speed=18.396000m/h.</desc>
<speed>5.110000</speed>
</trkpt>
<trkpt lat="55.935894" lon="26.545444">
<ele>124.643616</ele>
<time>2010-08-29T08:04:01Z</time>
<desc>lat.=55.935894, lon.=26.545444, Alt.=124.643616m. Speed=18.396000m/h.</desc>
<speed>5.110000</speed>
</trkpt>
<trkpt lat="55.935940" lon="26.545443">
<ele>124.590881</ele>
<time>2010-08-29T08:04:02Z</time>
<desc>lat.=55.935940, lon.=26.545443, Alt.=124.590881m. Speed=18.396000m/h.</desc>
<speed>5.110000</speed>
</trkpt>
<trkpt lat="55.935986" lon="26.545448">
<ele>124.282288</ele>
<time>2010-08-29T08:04:03Z</time>
<desc>lat.=55.935986, lon.=26.545448, Alt.=124.282288m. Speed=18.504000m/h.</desc>
<speed>5.140000</speed>
</trkpt>
<trkpt lat="55.936031" lon="26.545450">
<ele>124.215881</ele>
<time>2010-08-29T08:04:04Z</time>
<desc>lat.=55.936031, lon.=26.545450, Alt.=124.215881m. Speed=18.504000m/h.</desc>
<speed>5.140000</speed>
</trkpt>
<trkpt lat="55.936077" lon="26.545450">
<ele>124.094788</ele>
<time>2010-08-29T08:04:05Z</time>
<desc>lat.=55.936077, lon.=26.545450, Alt.=124.094788m. Speed=18.288000m/h.</desc>
<speed>5.080000</speed>
</trkpt>
<trkpt lat="55.936123" lon="26.545454">
<ele>124.200256</ele>
<time>2010-08-29T08:04:06Z</time>
<desc>lat.=55.936123, lon.=26.545454, Alt.=124.200256m. Speed=17.964001m/h.</desc>
<speed>4.990000</speed>
</trkpt>
<trkpt lat="55.936169" lon="26.545456">
<ele>124.174866</ele>
<time>2010-08-29T08:04:07Z</time>
<desc>lat.=55.936169, lon.=26.545456, Alt.=124.174866m. Speed=17.459999m/h.</desc>
<speed>4.850000</speed>
</trkpt>
<trkpt lat="55.936211" lon="26.545458">
<ele>124.143616</ele>
<time>2010-08-29T08:04:08Z</time>
<desc>lat.=55.936211, lon.=26.545458, Alt.=124.143616m. Speed=17.856001m/h.</desc>
<speed>4.960000</speed>
</trkpt>
<trkpt lat="55.936256" lon="26.545465">
<ele>124.028381</ele>
<time>2010-08-29T08:04:09Z</time>
<desc>lat.=55.936256, lon.=26.545465, Alt.=124.028381m. Speed=18.504000m/h.</desc>
<speed>5.140000</speed>
</trkpt>
<trkpt lat="55.936302" lon="26.545467">
<ele>123.799866</ele>
<time>2010-08-29T08:04:10Z</time>
<desc>lat.=55.936302, lon.=26.545467, Alt.=123.799866m. Speed=18.612000m/h.</desc>
<speed>5.170000</speed>
</trkpt>
<trkpt lat="55.936348" lon="26.545469">
<ele>123.856506</ele>
<time>2010-08-29T08:04:11Z</time>
<desc>lat.=55.936348, lon.=26.545469, Alt.=123.856506m. Speed=18.900000m/h.</desc>
<speed>5.250000</speed>
</trkpt>
<trkpt lat="55.936394" lon="26.545477">
<ele>123.846741</ele>
<time>2010-08-29T08:04:12Z</time>
<desc>lat.=55.936394, lon.=26.545477, Alt.=123.846741m. Speed=18.972000m/h.</desc>
<speed>5.270000</speed>
</trkpt>
<trkpt lat="55.936440" lon="26.545479">
<ele>123.641663</ele>
<time>2010-08-29T08:04:13Z</time>
<desc>lat.=55.936440, lon.=26.545479, Alt.=123.641663m. Speed=18.684000m/h.</desc>
<speed>5.190000</speed>
</trkpt>
<trkpt lat="55.936485" lon="26.545483">
<ele>123.692444</ele>
<time>2010-08-29T08:04:14Z</time>
<desc>lat.=55.936485, lon.=26.545483, Alt.=123.692444m. Speed=18.323999m/h.</desc>
<speed>5.090000</speed>
</trkpt>
<trkpt lat="55.936535" lon="26.545485">
<ele>123.930725</ele>
<time>2010-08-29T08:04:15Z</time>
<desc>lat.=55.936535, lon.=26.545485, Alt.=123.930725m. Speed=18.288000m/h.</desc>
<speed>5.080000</speed>
</trkpt>
<trkpt lat="55.936577" lon="26.545477">
<ele>124.114319</ele>
<time>2010-08-29T08:04:16Z</time>
<desc>lat.=55.936577, lon.=26.545477, Alt.=124.114319m. Speed=16.955999m/h.</desc>
<speed>4.710000</speed>
</trkpt>
<trkpt lat="55.936615" lon="26.545465">
<ele>124.139709</ele>
<time>2010-08-29T08:04:17Z</time>
<desc>lat.=55.936615, lon.=26.545465, Alt.=124.139709m. Speed=13.428000m/h.</desc>
<speed>3.730000</speed>
</trkpt>
<trkpt lat="55.936642" lon="26.545444">
<ele>124.407288</ele>
<time>2010-08-29T08:04:18Z</time>
<desc>lat.=55.936642, lon.=26.545444, Alt.=124.407288m. Speed=11.232000m/h.</desc>
<speed>3.120000</speed>
</trkpt>
<trkpt lat="55.936665" lon="26.545420">
<ele>124.545959</ele>
<time>2010-08-29T08:04:19Z</time>
<desc>lat.=55.936665, lon.=26.545420, Alt.=124.545959m. Speed=8.640000m/h.</desc>
<speed>2.400000</speed>
</trkpt>
<trkpt lat="55.936680" lon="26.545395">
<ele>124.809631</ele>
<time>2010-08-29T08:04:20Z</time>
<desc>lat.=55.936680, lon.=26.545395, Alt.=124.809631m. Speed=5.832000m/h.</desc>
<speed>1.620000</speed>
</trkpt>
<trkpt lat="55.936687" lon="26.545387">
<ele>124.866272</ele>
<time>2010-08-29T08:04:21Z</time>
<desc>lat.=55.936687, lon.=26.545387, Alt.=124.866272m. Speed=2.088000m/h.</desc>
<speed>0.580000</speed>
</trkpt>
<trkpt lat="55.936691" lon="26.545383">
<ele>124.842834</ele>
<time>2010-08-29T08:04:22Z</time>
<desc>lat.=55.936691, lon.=26.545383, Alt.=124.842834m. Speed=2.268000m/h.</desc>
<speed>0.630000</speed>
</trkpt>
<trkpt lat="55.936691" lon="26.545385">
<ele>124.854553</ele>
<time>2010-08-29T08:04:23Z</time>
<desc>lat.=55.936691, lon.=26.545385, Alt.=124.854553m. Speed=0.576000m/h.</desc>
<speed>0.160000</speed>
</trkpt>
<trkpt lat="55.936691" lon="26.545391">
<ele>124.797913</ele>
<time>2010-08-29T08:04:24Z</time>
<desc>lat.=55.936691, lon.=26.545391, Alt.=124.797913m. Speed=1.440000m/h.</desc>
<speed>0.400000</speed>
</trkpt>
<trkpt lat="55.936691" lon="26.545397">
<ele>124.881897</ele>
<time>2010-08-29T08:04:25Z</time>
<desc>lat.=55.936691, lon.=26.545397, Alt.=124.881897m. Speed=0.504000m/h.</desc>
<speed>0.140000</speed>
</trkpt>
<trkpt lat="55.936691" lon="26.545399">
<ele>124.948303</ele>
<time>2010-08-29T08:04:26Z</time>
<desc>lat.=55.936691, lon.=26.545399, Alt.=124.948303m. Speed=1.188000m/h.</desc>
<speed>0.330000</speed>
</trkpt>
<trkpt lat="55.936687" lon="26.545401">
<ele>124.965881</ele>
<time>2010-08-29T08:04:27Z</time>
<desc>lat.=55.936687, lon.=26.545401, Alt.=124.965881m. Speed=1.008000m/h.</desc>
<speed>0.280000</speed>
</trkpt>
<trkpt lat="55.936684" lon="26.545404">
<ele>124.981506</ele>
<time>2010-08-29T08:04:28Z</time>
<desc>lat.=55.936684, lon.=26.545404, Alt.=124.981506m. Speed=1.872000m/h.</desc>
<speed>0.520000</speed>
</trkpt>
<trkpt lat="55.936684" lon="26.545410">
<ele>125.008850</ele>
<time>2010-08-29T08:04:29Z</time>
<desc>lat.=55.936684, lon.=26.545410, Alt.=125.008850m. Speed=1.548000m/h.</desc>
<speed>0.430000</speed>
</trkpt>
<trkpt lat="55.936680" lon="26.545416">
<ele>125.040100</ele>
<time>2010-08-29T08:04:30Z</time>
<desc>lat.=55.936680, lon.=26.545416, Alt.=125.040100m. Speed=2.052000m/h.</desc>
<speed>0.570000</speed>
</trkpt>
<trkpt lat="55.936680" lon="26.545425">
<ele>125.071350</ele>
<time>2010-08-29T08:04:31Z</time>
<desc>lat.=55.936680, lon.=26.545425, Alt.=125.071350m. Speed=2.340000m/h.</desc>
<speed>0.650000</speed>
</trkpt>
<trkpt lat="55.936684" lon="26.545429">
<ele>125.098694</ele>
<time>2010-08-29T08:04:32Z</time>
<desc>lat.=55.936684, lon.=26.545429, Alt.=125.098694m. Speed=2.304000m/h.</desc>
<speed>0.640000</speed>
</trkpt>
<trkpt lat="55.936691" lon="26.545429">
<ele>125.143616</ele>
<time>2010-08-29T08:04:33Z</time>
<desc>lat.=55.936691, lon.=26.545429, Alt.=125.143616m. Speed=2.556000m/h.</desc>
<speed>0.710000</speed>
</trkpt>
<trkpt lat="55.936695" lon="26.545435">
<ele>125.206116</ele>
<time>2010-08-29T08:04:34Z</time>
<desc>lat.=55.936695, lon.=26.545435, Alt.=125.206116m. Speed=2.376000m/h.</desc>
<speed>0.660000</speed>
</trkpt>
<trkpt lat="55.936699" lon="26.545444">
<ele>125.262756</ele>
<time>2010-08-29T08:04:35Z</time>
<desc>lat.=55.936699, lon.=26.545444, Alt.=125.262756m. Speed=1.944000m/h.</desc>
<speed>0.540000</speed>
</trkpt>
<trkpt lat="55.936703" lon="26.545450">
<ele>125.319397</ele>
<time>2010-08-29T08:04:36Z</time>
<desc>lat.=55.936703, lon.=26.545450, Alt.=125.319397m. Speed=0.144000m/h.</desc>
<speed>0.040000</speed>
</trkpt>
<trkpt lat="55.936703" lon="26.545450">
<ele>125.360413</ele>
<time>2010-08-29T08:04:37Z</time>
<desc>lat.=55.936703, lon.=26.545450, Alt.=125.360413m. Speed=0.144000m/h.</desc>
<speed>0.040000</speed>
</trkpt>
<trkpt lat="55.936699" lon="26.545450">
<ele>125.395569</ele>
<time>2010-08-29T08:04:38Z</time>
<desc>lat.=55.936699, lon.=26.545450, Alt.=125.395569m. Speed=0.288000m/h.</desc>
<speed>0.080000</speed>
</trkpt>
<trkpt lat="55.936703" lon="26.545450">
<ele>125.428772</ele>
<time>2010-08-29T08:04:39Z</time>
<desc>lat.=55.936703, lon.=26.545450, Alt.=125.428772m. Speed=0.072000m/h.</desc>
<speed>0.020000</speed>
</trkpt>
<trkpt lat="55.936703" lon="26.545450">
<ele>125.442444</ele>
<time>2010-08-29T08:04:40Z</time>
<desc>lat.=55.936703, lon.=26.545450, Alt.=125.442444m. Speed=0.432000m/h.</desc>
<speed>0.120000</speed>
</trkpt>
<trkpt lat="55.936703" lon="26.545450">
<ele>125.460022</ele>
<time>2010-08-29T08:04:41Z</time>
<desc>lat.=55.936703, lon.=26.545450, Alt.=125.460022m. Speed=0.324000m/h.</desc>
<speed>0.090000</speed>
</trkpt>
<trkpt lat="55.936703" lon="26.545452">
<ele>125.479553</ele>
<time>2010-08-29T08:04:42Z</time>
<desc>lat.=55.936703, lon.=26.545452, Alt.=125.479553m. Speed=0.360000m/h.</desc>
<speed>0.100000</speed>
</trkpt>
<trkpt lat="55.936703" lon="26.545454">
<ele>125.493225</ele>
<time>2010-08-29T08:04:43Z</time>
<desc>lat.=55.936703, lon.=26.545454, Alt.=125.493225m. Speed=0.936000m/h.</desc>
<speed>0.260000</speed>
</trkpt>
<trkpt lat="55.936703" lon="26.545450">
<ele>125.508850</ele>
<time>2010-08-29T08:04:44Z</time>
<desc>lat.=55.936703, lon.=26.545450, Alt.=125.508850m. Speed=1.080000m/h.</desc>
<speed>0.300000</speed>
</trkpt>
<trkpt lat="55.936699" lon="26.545444">
<ele>125.518616</ele>
<time>2010-08-29T08:04:45Z</time>
<desc>lat.=55.936699, lon.=26.545444, Alt.=125.518616m. Speed=1.440000m/h.</desc>
<speed>0.400000</speed>
</trkpt>
<trkpt lat="55.936699" lon="26.545439">
<ele>125.530334</ele>
<time>2010-08-29T08:04:46Z</time>
<desc>lat.=55.936699, lon.=26.545439, Alt.=125.530334m. Speed=2.880000m/h.</desc>
<speed>0.800000</speed>
</trkpt>
<trkpt lat="55.936703" lon="26.545425">
<ele>125.547913</ele>
<time>2010-08-29T08:04:47Z</time>
<desc>lat.=55.936703, lon.=26.545425, Alt.=125.547913m. Speed=3.456000m/h.</desc>
<speed>0.960000</speed>
</trkpt>
<trkpt lat="55.936707" lon="26.545412">
<ele>125.561584</ele>
<time>2010-08-29T08:04:48Z</time>
<desc>lat.=55.936707, lon.=26.545412, Alt.=125.561584m. Speed=4.752000m/h.</desc>
<speed>1.320000</speed>
</trkpt>
<trkpt lat="55.936718" lon="26.545389">
<ele>125.465881</ele>
<time>2010-08-29T08:04:49Z</time>
<desc>lat.=55.936718, lon.=26.545389, Alt.=125.465881m. Speed=6.336000m/h.</desc>
<speed>1.760000</speed>
</trkpt>
<trkpt lat="55.936718" lon="26.545361">
<ele>125.407288</ele>
<time>2010-08-29T08:04:50Z</time>
<desc>lat.=55.936718, lon.=26.545361, Alt.=125.407288m. Speed=7.164000m/h.</desc>
<speed>1.990000</speed>
</trkpt>
<trkpt lat="55.936714" lon="26.545326">
<ele>125.606506</ele>
<time>2010-08-29T08:04:51Z</time>
<desc>lat.=55.936714, lon.=26.545326, Alt.=125.606506m. Speed=8.208000m/h.</desc>
<speed>2.280000</speed>
</trkpt>
<trkpt lat="55.936714" lon="26.545288">
<ele>125.731506</ele>
<time>2010-08-29T08:04:52Z</time>
<desc>lat.=55.936714, lon.=26.545288, Alt.=125.731506m. Speed=8.136000m/h.</desc>
<speed>2.260000</speed>
</trkpt>
<trkpt lat="55.936714" lon="26.545258">
<ele>125.739319</ele>
<time>2010-08-29T08:04:53Z</time>
<desc>lat.=55.936714, lon.=26.545258, Alt.=125.739319m. Speed=8.280000m/h.</desc>
<speed>2.300000</speed>
</trkpt>
<trkpt lat="55.936710" lon="26.545219">
<ele>125.842834</ele>
<time>2010-08-29T08:04:54Z</time>
<desc>lat.=55.936710, lon.=26.545219, Alt.=125.842834m. Speed=6.408000m/h.</desc>
<speed>1.780000</speed>
</trkpt>
<trkpt lat="55.936714" lon="26.545206">
<ele>125.881897</ele>
<time>2010-08-29T08:04:55Z</time>
<desc>lat.=55.936714, lon.=26.545206, Alt.=125.881897m. Speed=5.256000m/h.</desc>
<speed>1.460000</speed>
</trkpt>
<trkpt lat="55.936710" lon="26.545179">
<ele>125.909241</ele>
<time>2010-08-29T08:04:56Z</time>
<desc>lat.=55.936710, lon.=26.545179, Alt.=125.909241m. Speed=3.780000m/h.</desc>
<speed>1.050000</speed>
</trkpt>
<trkpt lat="55.936699" lon="26.545164">
<ele>125.876038</ele>
<time>2010-08-29T08:04:57Z</time>
<desc>lat.=55.936699, lon.=26.545164, Alt.=125.876038m. Speed=4.752000m/h.</desc>
<speed>1.320000</speed>
</trkpt>
<trkpt lat="55.936695" lon="26.545143">
<ele>126.042053</ele>
<time>2010-08-29T08:04:58Z</time>
<desc>lat.=55.936695, lon.=26.545143, Alt.=126.042053m. Speed=5.184000m/h.</desc>
<speed>1.440000</speed>
</trkpt>
<trkpt lat="55.936687" lon="26.545115">
<ele>125.938538</ele>
<time>2010-08-29T08:04:59Z</time>
<desc>lat.=55.936687, lon.=26.545115, Alt.=125.938538m. Speed=5.292000m/h.</desc>
<speed>1.470000</speed>
</trkpt>
<trkpt lat="55.936680" lon="26.545090">
<ele>125.801819</ele>
<time>2010-08-29T08:05:00Z</time>
<desc>lat.=55.936680, lon.=26.545090, Alt.=125.801819m. Speed=4.896000m/h.</desc>
<speed>1.360000</speed>
</trkpt>
<trkpt lat="55.936676" lon="26.545065">
<ele>125.926819</ele>
<time>2010-08-29T08:05:01Z</time>
<desc>lat.=55.936676, lon.=26.545065, Alt.=125.926819m. Speed=5.544000m/h.</desc>
<speed>1.540000</speed>
</trkpt>
<trkpt lat="55.936668" lon="26.545036">
<ele>125.958069</ele>
<time>2010-08-29T08:05:02Z</time>
<desc>lat.=55.936668, lon.=26.545036, Alt.=125.958069m. Speed=7.092000m/h.</desc>
<speed>1.970000</speed>
</trkpt>
<trkpt lat="55.936668" lon="26.545004">
<ele>126.090881</ele>
<time>2010-08-29T08:05:03Z</time>
<desc>lat.=55.936668, lon.=26.545004, Alt.=126.090881m. Speed=5.688000m/h.</desc>
<speed>1.580000</speed>
</trkpt>
<trkpt lat="55.936668" lon="26.544977">
<ele>126.270569</ele>
<time>2010-08-29T08:05:04Z</time>
<desc>lat.=55.936668, lon.=26.544977, Alt.=126.270569m. Speed=5.688000m/h.</desc>
<speed>1.580000</speed>
</trkpt>
<trkpt lat="55.936668" lon="26.544941">
<ele>126.485413</ele>
<time>2010-08-29T08:05:05Z</time>
<desc>lat.=55.936668, lon.=26.544941, Alt.=126.485413m. Speed=7.524000m/h.</desc>
<speed>2.090000</speed>
</trkpt>
<trkpt lat="55.936684" lon="26.544905">
<ele>126.499084</ele>
<time>2010-08-29T08:05:06Z</time>
<desc>lat.=55.936684, lon.=26.544905, Alt.=126.499084m. Speed=8.100000m/h.</desc>
<speed>2.250000</speed>
</trkpt>
<trkpt lat="55.936695" lon="26.544867">
<ele>126.559631</ele>
<time>2010-08-29T08:05:07Z</time>
<desc>lat.=55.936695, lon.=26.544867, Alt.=126.559631m. Speed=7.776000m/h.</desc>
<speed>2.160000</speed>
</trkpt>
<trkpt lat="55.936699" lon="26.544832">
<ele>126.756897</ele>
<time>2010-08-29T08:05:08Z</time>
<desc>lat.=55.936699, lon.=26.544832, Alt.=126.756897m. Speed=7.524000m/h.</desc>
<speed>2.090000</speed>
</trkpt>
<trkpt lat="55.936699" lon="26.544796">
<ele>127.038147</ele>
<time>2010-08-29T08:05:09Z</time>
<desc>lat.=55.936699, lon.=26.544796, Alt.=127.038147m. Speed=7.704000m/h.</desc>
<speed>2.140000</speed>
</trkpt>
<trkpt lat="55.936699" lon="26.544754">
<ele>127.172913</ele>
<time>2010-08-29T08:05:10Z</time>
<desc>lat.=55.936699, lon.=26.544754, Alt.=127.172913m. Speed=9.108000m/h.</desc>
<speed>2.530000</speed>
</trkpt>
<trkpt lat="55.936695" lon="26.544722">
<ele>127.620178</ele>
<time>2010-08-29T08:05:11Z</time>
<desc>lat.=55.936695, lon.=26.544722, Alt.=127.620178m. Speed=9.180000m/h.</desc>
<speed>2.550000</speed>
</trkpt>
<trkpt lat="55.936695" lon="26.544676">
<ele>127.848694</ele>
<time>2010-08-29T08:05:12Z</time>
<desc>lat.=55.936695, lon.=26.544676, Alt.=127.848694m. Speed=9.612000m/h.</desc>
<speed>2.670000</speed>
</trkpt>
<trkpt lat="55.936699" lon="26.544628">
<ele>128.349731</ele>
<time>2010-08-29T08:05:13Z</time>
<desc>lat.=55.936699, lon.=26.544628, Alt.=128.349731m. Speed=10.836000m/h.</desc>
<speed>3.010000</speed>
</trkpt>
<trkpt lat="55.936699" lon="26.544579">
<ele>128.068481</ele>
<time>2010-08-29T08:05:14Z</time>
<desc>lat.=55.936699, lon.=26.544579, Alt.=128.068481m. Speed=8.604000m/h.</desc>
<speed>2.390000</speed>
</trkpt>
<trkpt lat="55.936707" lon="26.544542">
<ele>128.630981</ele>
<time>2010-08-29T08:05:15Z</time>
<desc>lat.=55.936707, lon.=26.544542, Alt.=128.630981m. Speed=8.064000m/h.</desc>
<speed>2.240000</speed>
</trkpt>
<trkpt lat="55.936707" lon="26.544498">
<ele>128.623169</ele>
<time>2010-08-29T08:05:16Z</time>
<desc>lat.=55.936707, lon.=26.544498, Alt.=128.623169m. Speed=10.512000m/h.</desc>
<speed>2.920000</speed>
</trkpt>
<trkpt lat="55.936707" lon="26.544449">
<ele>128.439575</ele>
<time>2010-08-29T08:05:17Z</time>
<desc>lat.=55.936707, lon.=26.544449, Alt.=128.439575m. Speed=10.656000m/h.</desc>
<speed>2.960000</speed>
</trkpt>
<trkpt lat="55.936707" lon="26.544399">
<ele>128.521606</ele>
<time>2010-08-29T08:05:18Z</time>
<desc>lat.=55.936707, lon.=26.544399, Alt.=128.521606m. Speed=10.512000m/h.</desc>
<speed>2.920000</speed>
</trkpt>
<trkpt lat="55.936710" lon="26.544348">
<ele>128.232544</ele>
<time>2010-08-29T08:05:19Z</time>
<desc>lat.=55.936710, lon.=26.544348, Alt.=128.232544m. Speed=9.612000m/h.</desc>
<speed>2.670000</speed>
</trkpt>
<trkpt lat="55.936714" lon="26.544304">
<ele>128.482544</ele>
<time>2010-08-29T08:05:20Z</time>
<desc>lat.=55.936714, lon.=26.544304, Alt.=128.482544m. Speed=9.612000m/h.</desc>
<speed>2.670000</speed>
</trkpt>
<trkpt lat="55.936718" lon="26.544264">
<ele>129.752075</ele>
<time>2010-08-29T08:05:21Z</time>
<desc>lat.=55.936718, lon.=26.544264, Alt.=129.752075m. Speed=9.144000m/h.</desc>
<speed>2.540000</speed>
</trkpt>
<trkpt lat="55.936722" lon="26.544220">
<ele>129.295044</ele>
<time>2010-08-29T08:05:22Z</time>
<desc>lat.=55.936722, lon.=26.544220, Alt.=129.295044m. Speed=9.144000m/h.</desc>
<speed>2.540000</speed>
</trkpt>
<trkpt lat="55.936718" lon="26.544182">
<ele>128.982544</ele>
<time>2010-08-29T08:05:23Z</time>
<desc>lat.=55.936718, lon.=26.544182, Alt.=128.982544m. Speed=9.000000m/h.</desc>
<speed>2.500000</speed>
</trkpt>
<trkpt lat="55.936714" lon="26.544142">
<ele>129.396606</ele>
<time>2010-08-29T08:05:24Z</time>
<desc>lat.=55.936714, lon.=26.544142, Alt.=129.396606m. Speed=8.748000m/h.</desc>
<speed>2.430000</speed>
</trkpt>
<trkpt lat="55.936710" lon="26.544098">
<ele>129.427856</ele>
<time>2010-08-29T08:05:25Z</time>
<desc>lat.=55.936710, lon.=26.544098, Alt.=129.427856m. Speed=9.792000m/h.</desc>
<speed>2.720000</speed>
</trkpt>
<trkpt lat="55.936714" lon="26.544050">
<ele>129.548950</ele>
<time>2010-08-29T08:05:26Z</time>
<desc>lat.=55.936714, lon.=26.544050, Alt.=129.548950m. Speed=11.196000m/h.</desc>
<speed>3.110000</speed>
</trkpt>
<trkpt lat="55.936710" lon="26.543999">
<ele>129.580200</ele>
<time>2010-08-29T08:05:27Z</time>
<desc>lat.=55.936710, lon.=26.543999, Alt.=129.580200m. Speed=11.448000m/h.</desc>
<speed>3.180000</speed>
</trkpt>
<trkpt lat="55.936710" lon="26.543947">
<ele>129.451294</ele>
<time>2010-08-29T08:05:28Z</time>
<desc>lat.=55.936710, lon.=26.543947, Alt.=129.451294m. Speed=10.800000m/h.</desc>
<speed>3.000000</speed>
</trkpt>
<trkpt lat="55.936710" lon="26.543894">
<ele>129.490356</ele>
<time>2010-08-29T08:05:29Z</time>
<desc>lat.=55.936710, lon.=26.543894, Alt.=129.490356m. Speed=11.520000m/h.</desc>
<speed>3.200000</speed>
</trkpt>
<trkpt lat="55.936710" lon="26.543844">
<ele>129.455200</ele>
<time>2010-08-29T08:05:30Z</time>
<desc>lat.=55.936710, lon.=26.543844, Alt.=129.455200m. Speed=10.908000m/h.</desc>
<speed>3.030000</speed>
</trkpt>
<trkpt lat="55.936710" lon="26.543793">
<ele>129.111450</ele>
<time>2010-08-29T08:05:31Z</time>
<desc>lat.=55.936710, lon.=26.543793, Alt.=129.111450m. Speed=10.440000m/h.</desc>
<speed>2.900000</speed>
</trkpt>
<trkpt lat="55.936710" lon="26.543747">
<ele>129.099731</ele>
<time>2010-08-29T08:05:32Z</time>
<desc>lat.=55.936710, lon.=26.543747, Alt.=129.099731m. Speed=10.836000m/h.</desc>
<speed>3.010000</speed>
</trkpt>
<trkpt lat="55.936710" lon="26.543697">
<ele>128.806763</ele>
<time>2010-08-29T08:05:33Z</time>
<desc>lat.=55.936710, lon.=26.543697, Alt.=128.806763m. Speed=10.800000m/h.</desc>
<speed>3.000000</speed>
</trkpt>
<trkpt lat="55.936710" lon="26.543642">
<ele>128.341919</ele>
<time>2010-08-29T08:05:34Z</time>
<desc>lat.=55.936710, lon.=26.543642, Alt.=128.341919m. Speed=11.304000m/h.</desc>
<speed>3.140000</speed>
</trkpt>
<trkpt lat="55.936707" lon="26.543592">
<ele>127.727600</ele>
<time>2010-08-29T08:05:35Z</time>
<desc>lat.=55.936707, lon.=26.543592, Alt.=127.727600m. Speed=10.908000m/h.</desc>
<speed>3.030000</speed>
</trkpt>
<trkpt lat="55.936707" lon="26.543539">
<ele>127.389709</ele>
<time>2010-08-29T08:05:36Z</time>
<desc>lat.=55.936707, lon.=26.543539, Alt.=127.389709m. Speed=11.088000m/h.</desc>
<speed>3.080000</speed>
</trkpt>
<trkpt lat="55.936703" lon="26.543491">
<ele>126.471741</ele>
<time>2010-08-29T08:05:37Z</time>
<desc>lat.=55.936703, lon.=26.543491, Alt.=126.471741m. Speed=10.404000m/h.</desc>
<speed>2.890000</speed>
</trkpt>
<trkpt lat="55.936703" lon="26.543447">
<ele>126.264709</ele>
<time>2010-08-29T08:05:38Z</time>
<desc>lat.=55.936703, lon.=26.543447, Alt.=126.264709m. Speed=10.152000m/h.</desc>
<speed>2.820000</speed>
</trkpt>
<trkpt lat="55.936707" lon="26.543402">
<ele>125.977600</ele>
<time>2010-08-29T08:05:39Z</time>
<desc>lat.=55.936707, lon.=26.543402, Alt.=125.977600m. Speed=9.324000m/h.</desc>
<speed>2.590000</speed>
</trkpt>
<trkpt lat="55.936707" lon="26.543360">
<ele>125.729553</ele>
<time>2010-08-29T08:05:40Z</time>
<desc>lat.=55.936707, lon.=26.543360, Alt.=125.729553m. Speed=8.928000m/h.</desc>
<speed>2.480000</speed>
</trkpt>
<trkpt lat="55.936703" lon="26.543316">
<ele>125.672913</ele>
<time>2010-08-29T08:05:41Z</time>
<desc>lat.=55.936703, lon.=26.543316, Alt.=125.672913m. Speed=9.324000m/h.</desc>
<speed>2.590000</speed>
</trkpt>
<trkpt lat="55.936703" lon="26.543270">
<ele>125.553772</ele>
<time>2010-08-29T08:05:42Z</time>
<desc>lat.=55.936703, lon.=26.543270, Alt.=125.553772m. Speed=10.908000m/h.</desc>
<speed>3.030000</speed>
</trkpt>
<trkpt lat="55.936707" lon="26.543219">
<ele>125.518616</ele>
<time>2010-08-29T08:05:43Z</time>
<desc>lat.=55.936707, lon.=26.543219, Alt.=125.518616m. Speed=11.772000m/h.</desc>
<speed>3.270000</speed>
</trkpt>
<trkpt lat="55.936707" lon="26.543165">
<ele>125.217834</ele>
<time>2010-08-29T08:05:44Z</time>
<desc>lat.=55.936707, lon.=26.543165, Alt.=125.217834m. Speed=11.448000m/h.</desc>
<speed>3.180000</speed>
</trkpt>
<trkpt lat="55.936703" lon="26.543118">
<ele>125.420959</ele>
<time>2010-08-29T08:05:45Z</time>
<desc>lat.=55.936703, lon.=26.543118, Alt.=125.420959m. Speed=10.944000m/h.</desc>
<speed>3.040000</speed>
</trkpt>
<trkpt lat="55.936703" lon="26.543070">
<ele>125.450256</ele>
<time>2010-08-29T08:05:46Z</time>
<desc>lat.=55.936703, lon.=26.543070, Alt.=125.450256m. Speed=10.728000m/h.</desc>
<speed>2.980000</speed>
</trkpt>
<trkpt lat="55.936703" lon="26.543024">
<ele>125.524475</ele>
<time>2010-08-29T08:05:47Z</time>
<desc>lat.=55.936703, lon.=26.543024, Alt.=125.524475m. Speed=10.332000m/h.</desc>
<speed>2.870000</speed>
</trkpt>
<trkpt lat="55.936707" lon="26.542971">
<ele>125.270569</ele>
<time>2010-08-29T08:05:48Z</time>
<desc>lat.=55.936707, lon.=26.542971, Alt.=125.270569m. Speed=10.872000m/h.</desc>
<speed>3.020000</speed>
</trkpt>
<trkpt lat="55.936707" lon="26.542925">
<ele>125.114319</ele>
<time>2010-08-29T08:05:49Z</time>
<desc>lat.=55.936707, lon.=26.542925, Alt.=125.114319m. Speed=10.620000m/h.</desc>
<speed>2.950000</speed>
</trkpt>
<trkpt lat="55.936707" lon="26.542877">
<ele>125.266663</ele>
<time>2010-08-29T08:05:50Z</time>
<desc>lat.=55.936707, lon.=26.542877, Alt.=125.266663m. Speed=11.016000m/h.</desc>
<speed>3.060000</speed>
</trkpt>
<trkpt lat="55.936703" lon="26.542826">
<ele>124.801819</ele>
<time>2010-08-29T08:05:51Z</time>
<desc>lat.=55.936703, lon.=26.542826, Alt.=124.801819m. Speed=11.196000m/h.</desc>
<speed>3.110000</speed>
</trkpt>
<trkpt lat="55.936703" lon="26.542776">
<ele>124.534241</ele>
<time>2010-08-29T08:05:52Z</time>
<desc>lat.=55.936703, lon.=26.542776, Alt.=124.534241m. Speed=12.024000m/h.</desc>
<speed>3.340000</speed>
</trkpt>
<trkpt lat="55.936710" lon="26.542723">
<ele>124.872131</ele>
<time>2010-08-29T08:05:53Z</time>
<desc>lat.=55.936710, lon.=26.542723, Alt.=124.872131m. Speed=12.672000m/h.</desc>
<speed>3.520000</speed>
</trkpt>
<trkpt lat="55.936710" lon="26.542665">
<ele>124.711975</ele>
<time>2010-08-29T08:05:54Z</time>
<desc>lat.=55.936710, lon.=26.542665, Alt.=124.711975m. Speed=12.960000m/h.</desc>
<speed>3.600000</speed>
</trkpt>
<trkpt lat="55.936714" lon="26.542608">
<ele>124.913147</ele>
<time>2010-08-29T08:05:55Z</time>
<desc>lat.=55.936714, lon.=26.542608, Alt.=124.913147m. Speed=13.752000m/h.</desc>
<speed>3.820000</speed>
</trkpt>
<trkpt lat="55.936714" lon="26.542547">
<ele>124.827209</ele>
<time>2010-08-29T08:05:56Z</time>
<desc>lat.=55.936714, lon.=26.542547, Alt.=124.827209m. Speed=14.148000m/h.</desc>
<speed>3.930000</speed>
</trkpt>
<trkpt lat="55.936710" lon="26.542482">
<ele>124.321350</ele>
<time>2010-08-29T08:05:57Z</time>
<desc>lat.=55.936710, lon.=26.542482, Alt.=124.321350m. Speed=14.436000m/h.</desc>
<speed>4.010000</speed>
</trkpt>
<trkpt lat="55.936710" lon="26.542419">
<ele>124.167053</ele>
<time>2010-08-29T08:05:58Z</time>
<desc>lat.=55.936710, lon.=26.542419, Alt.=124.167053m. Speed=13.464000m/h.</desc>
<speed>3.740000</speed>
</trkpt>
<trkpt lat="55.936710" lon="26.542358">
<ele>124.122131</ele>
<time>2010-08-29T08:05:59Z</time>
<desc>lat.=55.936710, lon.=26.542358, Alt.=124.122131m. Speed=12.816000m/h.</desc>
<speed>3.560000</speed>
</trkpt>
<trkpt lat="55.936714" lon="26.542301">
<ele>123.879944</ele>
<time>2010-08-29T08:06:00Z</time>
<desc>lat.=55.936714, lon.=26.542301, Alt.=123.879944m. Speed=12.492000m/h.</desc>
<speed>3.470000</speed>
</trkpt>
<trkpt lat="55.936714" lon="26.542248">
<ele>123.430725</ele>
<time>2010-08-29T08:06:01Z</time>
<desc>lat.=55.936714, lon.=26.542248, Alt.=123.430725m. Speed=12.240000m/h.</desc>
<speed>3.400000</speed>
</trkpt>
<trkpt lat="55.936714" lon="26.542192">
<ele>122.733459</ele>
<time>2010-08-29T08:06:02Z</time>
<desc>lat.=55.936714, lon.=26.542192, Alt.=122.733459m. Speed=12.168000m/h.</desc>
<speed>3.380000</speed>
</trkpt>
<trkpt lat="55.936714" lon="26.542137">
<ele>122.653381</ele>
<time>2010-08-29T08:06:03Z</time>
<desc>lat.=55.936714, lon.=26.542137, Alt.=122.653381m. Speed=11.808000m/h.</desc>
<speed>3.280000</speed>
</trkpt>
<trkpt lat="55.936714" lon="26.542086">
<ele>122.417053</ele>
<time>2010-08-29T08:06:04Z</time>
<desc>lat.=55.936714, lon.=26.542086, Alt.=122.417053m. Speed=11.628000m/h.</desc>
<speed>3.230000</speed>
</trkpt>
<trkpt lat="55.936714" lon="26.542030">
<ele>122.440491</ele>
<time>2010-08-29T08:06:05Z</time>
<desc>lat.=55.936714, lon.=26.542030, Alt.=122.440491m. Speed=11.700000m/h.</desc>
<speed>3.250000</speed>
</trkpt>
<trkpt lat="55.936710" lon="26.541975">
<ele>122.211975</ele>
<time>2010-08-29T08:06:06Z</time>
<desc>lat.=55.936710, lon.=26.541975, Alt.=122.211975m. Speed=11.268000m/h.</desc>
<speed>3.130000</speed>
</trkpt>
<trkpt lat="55.936710" lon="26.541924">
<ele>121.985413</ele>
<time>2010-08-29T08:06:07Z</time>
<desc>lat.=55.936710, lon.=26.541924, Alt.=121.985413m. Speed=10.872000m/h.</desc>
<speed>3.020000</speed>
</trkpt>
<trkpt lat="55.936710" lon="26.541876">
<ele>122.169006</ele>
<time>2010-08-29T08:06:08Z</time>
<desc>lat.=55.936710, lon.=26.541876, Alt.=122.169006m. Speed=10.332000m/h.</desc>
<speed>2.870000</speed>
</trkpt>
<trkpt lat="55.936714" lon="26.541834">
<ele>122.274475</ele>
<time>2010-08-29T08:06:09Z</time>
<desc>lat.=55.936714, lon.=26.541834, Alt.=122.274475m. Speed=8.712000m/h.</desc>
<speed>2.420000</speed>
</trkpt>
<trkpt lat="55.936729" lon="26.541794">
<ele>122.536194</ele>
<time>2010-08-29T08:06:10Z</time>
<desc>lat.=55.936729, lon.=26.541794, Alt.=122.536194m. Speed=8.856000m/h.</desc>
<speed>2.460000</speed>
</trkpt>
<trkpt lat="55.936741" lon="26.541754">
<ele>123.014709</ele>
<time>2010-08-29T08:06:11Z</time>
<desc>lat.=55.936741, lon.=26.541754, Alt.=123.014709m. Speed=11.520000m/h.</desc>
<speed>3.200000</speed>
</trkpt>
<trkpt lat="55.936745" lon="26.541697">
<ele>122.963928</ele>
<time>2010-08-29T08:06:12Z</time>
<desc>lat.=55.936745, lon.=26.541697, Alt.=122.963928m. Speed=11.772000m/h.</desc>
<speed>3.270000</speed>
</trkpt>
<trkpt lat="55.936752" lon="26.541643">
<ele>123.682678</ele>
<time>2010-08-29T08:06:13Z</time>
<desc>lat.=55.936752, lon.=26.541643, Alt.=123.682678m. Speed=12.024000m/h.</desc>
<speed>3.340000</speed>
</trkpt>
<trkpt lat="55.936749" lon="26.541578">
<ele>123.307678</ele>
<time>2010-08-29T08:06:14Z</time>
<desc>lat.=55.936749, lon.=26.541578, Alt.=123.307678m. Speed=13.176000m/h.</desc>
<speed>3.660000</speed>
</trkpt>
<trkpt lat="55.936749" lon="26.541521">
<ele>123.251038</ele>
<time>2010-08-29T08:06:15Z</time>
<desc>lat.=55.936749, lon.=26.541521, Alt.=123.251038m. Speed=12.492000m/h.</desc>
<speed>3.470000</speed>
</trkpt>
<trkpt lat="55.936749" lon="26.541464">
<ele>123.309631</ele>
<time>2010-08-29T08:06:16Z</time>
<desc>lat.=55.936749, lon.=26.541464, Alt.=123.309631m. Speed=12.528000m/h.</desc>
<speed>3.480000</speed>
</trkpt>
<trkpt lat="55.936745" lon="26.541407">
<ele>123.338928</ele>
<time>2010-08-29T08:06:17Z</time>
<desc>lat.=55.936745, lon.=26.541407, Alt.=123.338928m. Speed=13.500000m/h.</desc>
<speed>3.750000</speed>
</trkpt>
<trkpt lat="55.936745" lon="26.541346">
<ele>123.512756</ele>
<time>2010-08-29T08:06:18Z</time>
<desc>lat.=55.936745, lon.=26.541346, Alt.=123.512756m. Speed=13.860000m/h.</desc>
<speed>3.850000</speed>
</trkpt>
<trkpt lat="55.936745" lon="26.541281">
<ele>123.690491</ele>
<time>2010-08-29T08:06:19Z</time>
<desc>lat.=55.936745, lon.=26.541281, Alt.=123.690491m. Speed=14.544000m/h.</desc>
<speed>4.040000</speed>
</trkpt>
<trkpt lat="55.936741" lon="26.541216">
<ele>123.667053</ele>
<time>2010-08-29T08:06:20Z</time>
<desc>lat.=55.936741, lon.=26.541216, Alt.=123.667053m. Speed=14.004000m/h.</desc>
<speed>3.890000</speed>
</trkpt>
<trkpt lat="55.936741" lon="26.541153">
<ele>123.706116</ele>
<time>2010-08-29T08:06:21Z</time>
<desc>lat.=55.936741, lon.=26.541153, Alt.=123.706116m. Speed=14.364000m/h.</desc>
<speed>3.990000</speed>
</trkpt>
<trkpt lat="55.936745" lon="26.541088">
<ele>123.752991</ele>
<time>2010-08-29T08:06:22Z</time>
<desc>lat.=55.936745, lon.=26.541088, Alt.=123.752991m. Speed=14.688000m/h.</desc>
<speed>4.080000</speed>
</trkpt>
<trkpt lat="55.936745" lon="26.541027">
<ele>123.883850</ele>
<time>2010-08-29T08:06:23Z</time>
<desc>lat.=55.936745, lon.=26.541027, Alt.=123.883850m. Speed=13.896000m/h.</desc>
<speed>3.860000</speed>
</trkpt>
<trkpt lat="55.936745" lon="26.540964">
<ele>124.034241</ele>
<time>2010-08-29T08:06:24Z</time>
<desc>lat.=55.936745, lon.=26.540964, Alt.=124.034241m. Speed=13.536000m/h.</desc>
<speed>3.760000</speed>
</trkpt>
<trkpt lat="55.936749" lon="26.540911">
<ele>124.143616</ele>
<time>2010-08-29T08:06:25Z</time>
<desc>lat.=55.936749, lon.=26.540911, Alt.=124.143616m. Speed=12.852000m/h.</desc>
<speed>3.570000</speed>
</trkpt>
<trkpt lat="55.936752" lon="26.540859">
<ele>124.430725</ele>
<time>2010-08-29T08:06:26Z</time>
<desc>lat.=55.936752, lon.=26.540859, Alt.=124.430725m. Speed=12.528000m/h.</desc>
<speed>3.480000</speed>
</trkpt>
<trkpt lat="55.936756" lon="26.540804">
<ele>124.549866</ele>
<time>2010-08-29T08:06:27Z</time>
<desc>lat.=55.936756, lon.=26.540804, Alt.=124.549866m. Speed=10.692000m/h.</desc>
<speed>2.970000</speed>
</trkpt>
<trkpt lat="55.936764" lon="26.540766">
<ele>125.231506</ele>
<time>2010-08-29T08:06:28Z</time>
<desc>lat.=55.936764, lon.=26.540766, Alt.=125.231506m. Speed=8.856000m/h.</desc>
<speed>2.460000</speed>
</trkpt>
<trkpt lat="55.936760" lon="26.540710">
<ele>125.467834</ele>
<time>2010-08-29T08:06:29Z</time>
<desc>lat.=55.936760, lon.=26.540710, Alt.=125.467834m. Speed=8.928000m/h.</desc>
<speed>2.480000</speed>
</trkpt>
<trkpt lat="55.936760" lon="26.540672">
<ele>125.840881</ele>
<time>2010-08-29T08:06:30Z</time>
<desc>lat.=55.936760, lon.=26.540672, Alt.=125.840881m. Speed=8.784000m/h.</desc>
<speed>2.440000</speed>
</trkpt>
<trkpt lat="55.936768" lon="26.540634">
<ele>126.377991</ele>
<time>2010-08-29T08:06:31Z</time>
<desc>lat.=55.936768, lon.=26.540634, Alt.=126.377991m. Speed=9.144000m/h.</desc>
<speed>2.540000</speed>
</trkpt>
<trkpt lat="55.936775" lon="26.540590">
<ele>127.016663</ele>
<time>2010-08-29T08:06:32Z</time>
<desc>lat.=55.936775, lon.=26.540590, Alt.=127.016663m. Speed=8.676000m/h.</desc>
<speed>2.410000</speed>
</trkpt>
<trkpt lat="55.936771" lon="26.540541">
<ele>127.477600</ele>
<time>2010-08-29T08:06:33Z</time>
<desc>lat.=55.936771, lon.=26.540541, Alt.=127.477600m. Speed=7.560000m/h.</desc>
<speed>2.100000</speed>
</trkpt>
<trkpt lat="55.936775" lon="26.540504">
<ele>127.950256</ele>
<time>2010-08-29T08:06:34Z</time>
<desc>lat.=55.936775, lon.=26.540504, Alt.=127.950256m. Speed=5.832000m/h.</desc>
<speed>1.620000</speed>
</trkpt>
<trkpt lat="55.936775" lon="26.540472">
<ele>128.275513</ele>
<time>2010-08-29T08:06:35Z</time>
<desc>lat.=55.936775, lon.=26.540472, Alt.=128.275513m. Speed=6.372000m/h.</desc>
<speed>1.770000</speed>
</trkpt>
<trkpt lat="55.936775" lon="26.540440">
<ele>128.486450</ele>
<time>2010-08-29T08:06:36Z</time>
<desc>lat.=55.936775, lon.=26.540440, Alt.=128.486450m. Speed=5.904000m/h.</desc>
<speed>1.640000</speed>
</trkpt>
<trkpt lat="55.936775" lon="26.540415">
<ele>128.650513</ele>
<time>2010-08-29T08:06:37Z</time>
<desc>lat.=55.936775, lon.=26.540415, Alt.=128.650513m. Speed=5.148000m/h.</desc>
<speed>1.430000</speed>
</trkpt>
<trkpt lat="55.936779" lon="26.540386">
<ele>129.166138</ele>
<time>2010-08-29T08:06:38Z</time>
<desc>lat.=55.936779, lon.=26.540386, Alt.=129.166138m. Speed=7.740000m/h.</desc>
<speed>2.150000</speed>
</trkpt>
<trkpt lat="55.936787" lon="26.540358">
<ele>129.595825</ele>
<time>2010-08-29T08:06:39Z</time>
<desc>lat.=55.936787, lon.=26.540358, Alt.=129.595825m. Speed=6.948000m/h.</desc>
<speed>1.930000</speed>
</trkpt>
<trkpt lat="55.936790" lon="26.540325">
<ele>130.005981</ele>
<time>2010-08-29T08:06:40Z</time>
<desc>lat.=55.936790, lon.=26.540325, Alt.=130.005981m. Speed=7.848000m/h.</desc>
<speed>2.180000</speed>
</trkpt>
<trkpt lat="55.936794" lon="26.540289">
<ele>130.271606</ele>
<time>2010-08-29T08:06:41Z</time>
<desc>lat.=55.936794, lon.=26.540289, Alt.=130.271606m. Speed=7.020000m/h.</desc>
<speed>1.950000</speed>
</trkpt>
<trkpt lat="55.936790" lon="26.540255">
<ele>130.627075</ele>
<time>2010-08-29T08:06:42Z</time>
<desc>lat.=55.936790, lon.=26.540255, Alt.=130.627075m. Speed=7.524000m/h.</desc>
<speed>2.090000</speed>
</trkpt>
<trkpt lat="55.936794" lon="26.540224">
<ele>130.966919</ele>
<time>2010-08-29T08:06:43Z</time>
<desc>lat.=55.936794, lon.=26.540224, Alt.=130.966919m. Speed=7.380000m/h.</desc>
<speed>2.050000</speed>
</trkpt>
<trkpt lat="55.936794" lon="26.540194">
<ele>131.275513</ele>
<time>2010-08-29T08:06:44Z</time>
<desc>lat.=55.936794, lon.=26.540194, Alt.=131.275513m. Speed=7.524000m/h.</desc>
<speed>2.090000</speed>
</trkpt>
<trkpt lat="55.936798" lon="26.540161">
<ele>131.494263</ele>
<time>2010-08-29T08:06:45Z</time>
<desc>lat.=55.936798, lon.=26.540161, Alt.=131.494263m. Speed=8.496000m/h.</desc>
<speed>2.360000</speed>
</trkpt>
<trkpt lat="55.936806" lon="26.540125">
<ele>131.838013</ele>
<time>2010-08-29T08:06:46Z</time>
<desc>lat.=55.936806, lon.=26.540125, Alt.=131.838013m. Speed=8.496000m/h.</desc>
<speed>2.360000</speed>
</trkpt>
<trkpt lat="55.936802" lon="26.540070">
<ele>130.474731</ele>
<time>2010-08-29T08:06:47Z</time>
<desc>lat.=55.936802, lon.=26.540070, Alt.=130.474731m. Speed=9.324000m/h.</desc>
<speed>2.590000</speed>
</trkpt>
<trkpt lat="55.936798" lon="26.540024">
<ele>130.173950</ele>
<time>2010-08-29T08:06:48Z</time>
<desc>lat.=55.936798, lon.=26.540024, Alt.=130.173950m. Speed=8.460000m/h.</desc>
<speed>2.350000</speed>
</trkpt>
<trkpt lat="55.936794" lon="26.539982">
<ele>129.752075</ele>
<time>2010-08-29T08:06:49Z</time>
<desc>lat.=55.936794, lon.=26.539982, Alt.=129.752075m. Speed=8.568000m/h.</desc>
<speed>2.380000</speed>
</trkpt>
<trkpt lat="55.936794" lon="26.539934">
<ele>129.779419</ele>
<time>2010-08-29T08:06:50Z</time>
<desc>lat.=55.936794, lon.=26.539934, Alt.=129.779419m. Speed=8.496000m/h.</desc>
<speed>2.360000</speed>
</trkpt>
<trkpt lat="55.936794" lon="26.539892">
<ele>129.705200</ele>
<time>2010-08-29T08:06:51Z</time>
<desc>lat.=55.936794, lon.=26.539892, Alt.=129.705200m. Speed=8.064000m/h.</desc>
<speed>2.240000</speed>
</trkpt>
<trkpt lat="55.936794" lon="26.539848">
<ele>129.662231</ele>
<time>2010-08-29T08:06:52Z</time>
<desc>lat.=55.936794, lon.=26.539848, Alt.=129.662231m. Speed=8.748000m/h.</desc>
<speed>2.430000</speed>
</trkpt>
<trkpt lat="55.936794" lon="26.539795">
<ele>129.822388</ele>
<time>2010-08-29T08:06:53Z</time>
<desc>lat.=55.936794, lon.=26.539795, Alt.=129.822388m. Speed=8.748000m/h.</desc>
<speed>2.430000</speed>
</trkpt>
<trkpt lat="55.936790" lon="26.539742">
<ele>129.943481</ele>
<time>2010-08-29T08:06:54Z</time>
<desc>lat.=55.936790, lon.=26.539742, Alt.=129.943481m. Speed=9.360000m/h.</desc>
<speed>2.600000</speed>
</trkpt>
<trkpt lat="55.936810" lon="26.539692">
<ele>130.795044</ele>
<time>2010-08-29T08:06:55Z</time>
<desc>lat.=55.936810, lon.=26.539692, Alt.=130.795044m. Speed=9.000000m/h.</desc>
<speed>2.500000</speed>
</trkpt>
<trkpt lat="55.936817" lon="26.539654">
<ele>131.119263</ele>
<time>2010-08-29T08:06:56Z</time>
<desc>lat.=55.936817, lon.=26.539654, Alt.=131.119263m. Speed=8.316000m/h.</desc>
<speed>2.310000</speed>
</trkpt>
<trkpt lat="55.936817" lon="26.539614">
<ele>131.588013</ele>
<time>2010-08-29T08:06:57Z</time>
<desc>lat.=55.936817, lon.=26.539614, Alt.=131.588013m. Speed=8.388000m/h.</desc>
<speed>2.330000</speed>
</trkpt>
<trkpt lat="55.936825" lon="26.539574">
<ele>132.193481</ele>
<time>2010-08-29T08:06:58Z</time>
<desc>lat.=55.936825, lon.=26.539574, Alt.=132.193481m. Speed=8.748000m/h.</desc>
<speed>2.430000</speed>
</trkpt>
<trkpt lat="55.936829" lon="26.539528">
<ele>132.002075</ele>
<time>2010-08-29T08:06:59Z</time>
<desc>lat.=55.936829, lon.=26.539528, Alt.=132.002075m. Speed=9.324000m/h.</desc>
<speed>2.590000</speed>
</trkpt>
<trkpt lat="55.936829" lon="26.539471">
<ele>132.451294</ele>
<time>2010-08-29T08:07:00Z</time>
<desc>lat.=55.936829, lon.=26.539471, Alt.=132.451294m. Speed=7.632000m/h.</desc>
<speed>2.120000</speed>
</trkpt>
<trkpt lat="55.936829" lon="26.539427">
<ele>132.752075</ele>
<time>2010-08-29T08:07:01Z</time>
<desc>lat.=55.936829, lon.=26.539427, Alt.=132.752075m. Speed=7.776000m/h.</desc>
<speed>2.160000</speed>
</trkpt>
<trkpt lat="55.936825" lon="26.539385">
<ele>133.173950</ele>
<time>2010-08-29T08:07:02Z</time>
<desc>lat.=55.936825, lon.=26.539385, Alt.=133.173950m. Speed=7.884000m/h.</desc>
<speed>2.190000</speed>
</trkpt>
<trkpt lat="55.936821" lon="26.539326">
<ele>133.263794</ele>
<time>2010-08-29T08:07:03Z</time>
<desc>lat.=55.936821, lon.=26.539326, Alt.=133.263794m. Speed=9.072000m/h.</desc>
<speed>2.520000</speed>
</trkpt>
<trkpt lat="55.936821" lon="26.539274">
<ele>133.291138</ele>
<time>2010-08-29T08:07:04Z</time>
<desc>lat.=55.936821, lon.=26.539274, Alt.=133.291138m. Speed=7.884000m/h.</desc>
<speed>2.190000</speed>
</trkpt>
<trkpt lat="55.936825" lon="26.539225">
<ele>133.513794</ele>
<time>2010-08-29T08:07:05Z</time>
<desc>lat.=55.936825, lon.=26.539225, Alt.=133.513794m. Speed=8.784000m/h.</desc>
<speed>2.440000</speed>
</trkpt>
<trkpt lat="55.936821" lon="26.539181">
<ele>134.037231</ele>
<time>2010-08-29T08:07:06Z</time>
<desc>lat.=55.936821, lon.=26.539181, Alt.=134.037231m. Speed=8.460000m/h.</desc>
<speed>2.350000</speed>
</trkpt>
<trkpt lat="55.936821" lon="26.539139">
<ele>134.404419</ele>
<time>2010-08-29T08:07:07Z</time>
<desc>lat.=55.936821, lon.=26.539139, Alt.=134.404419m. Speed=7.812000m/h.</desc>
<speed>2.170000</speed>
</trkpt>
<trkpt lat="55.936821" lon="26.539093">
<ele>134.556763</ele>
<time>2010-08-29T08:07:08Z</time>
<desc>lat.=55.936821, lon.=26.539093, Alt.=134.556763m. Speed=8.064000m/h.</desc>
<speed>2.240000</speed>
</trkpt>
<trkpt lat="55.936817" lon="26.539049">
<ele>135.048950</ele>
<time>2010-08-29T08:07:09Z</time>
<desc>lat.=55.936817, lon.=26.539049, Alt.=135.048950m. Speed=8.208000m/h.</desc>
<speed>2.280000</speed>
</trkpt>
<trkpt lat="55.936817" lon="26.539007">
<ele>135.298950</ele>
<time>2010-08-29T08:07:10Z</time>
<desc>lat.=55.936817, lon.=26.539007, Alt.=135.298950m. Speed=8.388000m/h.</desc>
<speed>2.330000</speed>
</trkpt>
<trkpt lat="55.936817" lon="26.538946">
<ele>134.357544</ele>
<time>2010-08-29T08:07:11Z</time>
<desc>lat.=55.936817, lon.=26.538946, Alt.=134.357544m. Speed=9.864000m/h.</desc>
<speed>2.740000</speed>
</trkpt>
<trkpt lat="55.936825" lon="26.538893">
<ele>134.599731</ele>
<time>2010-08-29T08:07:12Z</time>
<desc>lat.=55.936825, lon.=26.538893, Alt.=134.599731m. Speed=11.484000m/h.</desc>
<speed>3.190000</speed>
</trkpt>
<trkpt lat="55.936817" lon="26.538782">
<ele>131.666138</ele>
<time>2010-08-29T08:07:13Z</time>
<desc>lat.=55.936817, lon.=26.538782, Alt.=131.666138m. Speed=17.424000m/h.</desc>
<speed>4.840000</speed>
</trkpt>
<trkpt lat="55.936821" lon="26.538698">
<ele>130.623169</ele>
<time>2010-08-29T08:07:14Z</time>
<desc>lat.=55.936821, lon.=26.538698, Alt.=130.623169m. Speed=18.323999m/h.</desc>
<speed>5.090000</speed>
</trkpt>
<trkpt lat="55.936821" lon="26.538609">
<ele>129.509888</ele>
<time>2010-08-29T08:07:15Z</time>
<desc>lat.=55.936821, lon.=26.538609, Alt.=129.509888m. Speed=20.952000m/h.</desc>
<speed>5.820000</speed>
</trkpt>
<trkpt lat="55.936817" lon="26.538502">
<ele>128.142700</ele>
<time>2010-08-29T08:07:16Z</time>
<desc>lat.=55.936817, lon.=26.538502, Alt.=128.142700m. Speed=22.752001m/h.</desc>
<speed>6.320000</speed>
</trkpt>
<trkpt lat="55.936817" lon="26.538399">
<ele>127.170959</ele>
<time>2010-08-29T08:07:17Z</time>
<desc>lat.=55.936817, lon.=26.538399, Alt.=127.170959m. Speed=23.832001m/h.</desc>
<speed>6.620000</speed>
</trkpt>
<trkpt lat="55.936817" lon="26.538296">
<ele>126.319397</ele>
<time>2010-08-29T08:07:18Z</time>
<desc>lat.=55.936817, lon.=26.538296, Alt.=126.319397m. Speed=23.832001m/h.</desc>
<speed>6.620000</speed>
</trkpt>
<trkpt lat="55.936817" lon="26.538202">
<ele>125.729553</ele>
<time>2010-08-29T08:07:19Z</time>
<desc>lat.=55.936817, lon.=26.538202, Alt.=125.729553m. Speed=21.888000m/h.</desc>
<speed>6.080000</speed>
</trkpt>
<trkpt lat="55.936813" lon="26.538105">
<ele>125.299866</ele>
<time>2010-08-29T08:07:20Z</time>
<desc>lat.=55.936813, lon.=26.538105, Alt.=125.299866m. Speed=21.240000m/h.</desc>
<speed>5.900000</speed>
</trkpt>
<trkpt lat="55.936810" lon="26.538006">
<ele>125.301819</ele>
<time>2010-08-29T08:07:21Z</time>
<desc>lat.=55.936810, lon.=26.538006, Alt.=125.301819m. Speed=22.608000m/h.</desc>
<speed>6.280000</speed>
</trkpt>
<trkpt lat="55.936810" lon="26.537914">
<ele>124.983459</ele>
<time>2010-08-29T08:07:22Z</time>
<desc>lat.=55.936810, lon.=26.537914, Alt.=124.983459m. Speed=21.780001m/h.</desc>
<speed>6.050000</speed>
</trkpt>
<trkpt lat="55.936813" lon="26.537813">
<ele>124.549866</ele>
<time>2010-08-29T08:07:23Z</time>
<desc>lat.=55.936813, lon.=26.537813, Alt.=124.549866m. Speed=19.908001m/h.</desc>
<speed>5.530000</speed>
</trkpt>
<trkpt lat="55.936829" lon="26.537733">
<ele>124.551819</ele>
<time>2010-08-29T08:07:24Z</time>
<desc>lat.=55.936829, lon.=26.537733, Alt.=124.551819m. Speed=15.228000m/h.</desc>
<speed>4.230000</speed>
</trkpt>
<trkpt lat="55.936832" lon="26.537676">
<ele>124.301819</ele>
<time>2010-08-29T08:07:25Z</time>
<desc>lat.=55.936832, lon.=26.537676, Alt.=124.301819m. Speed=10.260000m/h.</desc>
<speed>2.850000</speed>
</trkpt>
<trkpt lat="55.936836" lon="26.537624">
<ele>124.335022</ele>
<time>2010-08-29T08:07:26Z</time>
<desc>lat.=55.936836, lon.=26.537624, Alt.=124.335022m. Speed=8.856000m/h.</desc>
<speed>2.460000</speed>
</trkpt>
<trkpt lat="55.936832" lon="26.537561">
<ele>124.831116</ele>
<time>2010-08-29T08:07:27Z</time>
<desc>lat.=55.936832, lon.=26.537561, Alt.=124.831116m. Speed=6.732000m/h.</desc>
<speed>1.870000</speed>
</trkpt>
<trkpt lat="55.936852" lon="26.537523">
<ele>125.129944</ele>
<time>2010-08-29T08:07:28Z</time>
<desc>lat.=55.936852, lon.=26.537523, Alt.=125.129944m. Speed=5.544000m/h.</desc>
<speed>1.540000</speed>
</trkpt>
<trkpt lat="55.936836" lon="26.537458">
<ele>125.842834</ele>
<time>2010-08-29T08:07:29Z</time>
<desc>lat.=55.936836, lon.=26.537458, Alt.=125.842834m. Speed=3.564000m/h.</desc>
<speed>0.990000</speed>
</trkpt>
<trkpt lat="55.936836" lon="26.537420">
<ele>126.270569</ele>
<time>2010-08-29T08:07:30Z</time>
<desc>lat.=55.936836, lon.=26.537420, Alt.=126.270569m. Speed=6.264000m/h.</desc>
<speed>1.740000</speed>
</trkpt>
<trkpt lat="55.936821" lon="26.537359">
<ele>126.954163</ele>
<time>2010-08-29T08:07:31Z</time>
<desc>lat.=55.936821, lon.=26.537359, Alt.=126.954163m. Speed=3.528000m/h.</desc>
<speed>0.980000</speed>
</trkpt>
<trkpt lat="55.936825" lon="26.537325">
<ele>127.540100</ele>
<time>2010-08-29T08:07:32Z</time>
<desc>lat.=55.936825, lon.=26.537325, Alt.=127.540100m. Speed=4.140000m/h.</desc>
<speed>1.150000</speed>
</trkpt>
<trkpt lat="55.936817" lon="26.537249">
<ele>128.548950</ele>
<time>2010-08-29T08:07:33Z</time>
<desc>lat.=55.936817, lon.=26.537249, Alt.=128.548950m. Speed=6.840000m/h.</desc>
<speed>1.900000</speed>
</trkpt>
<trkpt lat="55.936821" lon="26.537210">
<ele>129.115356</ele>
<time>2010-08-29T08:07:34Z</time>
<desc>lat.=55.936821, lon.=26.537210, Alt.=129.115356m. Speed=5.904000m/h.</desc>
<speed>1.640000</speed>
</trkpt>
<trkpt lat="55.936825" lon="26.537163">
<ele>130.287231</ele>
<time>2010-08-29T08:07:35Z</time>
<desc>lat.=55.936825, lon.=26.537163, Alt.=130.287231m. Speed=7.344000m/h.</desc>
<speed>2.040000</speed>
</trkpt>
<trkpt lat="55.936825" lon="26.537121">
<ele>130.927856</ele>
<time>2010-08-29T08:07:36Z</time>
<desc>lat.=55.936825, lon.=26.537121, Alt.=130.927856m. Speed=6.948000m/h.</desc>
<speed>1.930000</speed>
</trkpt>
<trkpt lat="55.936821" lon="26.537083">
<ele>131.482544</ele>
<time>2010-08-29T08:07:37Z</time>
<desc>lat.=55.936821, lon.=26.537083, Alt.=131.482544m. Speed=6.444000m/h.</desc>
<speed>1.790000</speed>
</trkpt>
<trkpt lat="55.936825" lon="26.537045">
<ele>131.904419</ele>
<time>2010-08-29T08:07:38Z</time>
<desc>lat.=55.936825, lon.=26.537045, Alt.=131.904419m. Speed=5.868000m/h.</desc>
<speed>1.630000</speed>
</trkpt>
<trkpt lat="55.936825" lon="26.537010">
<ele>131.736450</ele>
<time>2010-08-29T08:07:39Z</time>
<desc>lat.=55.936825, lon.=26.537010, Alt.=131.736450m. Speed=5.760000m/h.</desc>
<speed>1.600000</speed>
</trkpt>
<trkpt lat="55.936832" lon="26.536983">
<ele>131.908325</ele>
<time>2010-08-29T08:07:40Z</time>
<desc>lat.=55.936832, lon.=26.536983, Alt.=131.908325m. Speed=4.752000m/h.</desc>
<speed>1.320000</speed>
</trkpt>
<trkpt lat="55.936836" lon="26.536940">
<ele>131.748169</ele>
<time>2010-08-29T08:07:41Z</time>
<desc>lat.=55.936836, lon.=26.536940, Alt.=131.748169m. Speed=6.084000m/h.</desc>
<speed>1.690000</speed>
</trkpt>
<trkpt lat="55.936844" lon="26.536901">
<ele>131.818481</ele>
<time>2010-08-29T08:07:42Z</time>
<desc>lat.=55.936844, lon.=26.536901, Alt.=131.818481m. Speed=6.804000m/h.</desc>
<speed>1.890000</speed>
</trkpt>
<trkpt lat="55.936852" lon="26.536823">
<ele>132.240356</ele>
<time>2010-08-29T08:07:43Z</time>
<desc>lat.=55.936852, lon.=26.536823, Alt.=132.240356m. Speed=7.524000m/h.</desc>
<speed>2.090000</speed>
</trkpt>
<trkpt lat="55.936844" lon="26.536777">
<ele>133.361450</ele>
<time>2010-08-29T08:07:44Z</time>
<desc>lat.=55.936844, lon.=26.536777, Alt.=133.361450m. Speed=6.192000m/h.</desc>
<speed>1.720000</speed>
</trkpt>
<trkpt lat="55.936844" lon="26.536732">
<ele>133.435669</ele>
<time>2010-08-29T08:07:45Z</time>
<desc>lat.=55.936844, lon.=26.536732, Alt.=133.435669m. Speed=6.912000m/h.</desc>
<speed>1.920000</speed>
</trkpt>
<trkpt lat="55.936844" lon="26.536694">
<ele>133.951294</ele>
<time>2010-08-29T08:07:46Z</time>
<desc>lat.=55.936844, lon.=26.536694, Alt.=133.951294m. Speed=6.516000m/h.</desc>
<speed>1.810000</speed>
</trkpt>
<trkpt lat="55.936852" lon="26.536648">
<ele>134.240356</ele>
<time>2010-08-29T08:07:47Z</time>
<desc>lat.=55.936852, lon.=26.536648, Alt.=134.240356m. Speed=9.864000m/h.</desc>
<speed>2.740000</speed>
</trkpt>
<trkpt lat="55.936859" lon="26.536591">
<ele>134.396606</ele>
<time>2010-08-29T08:07:48Z</time>
<desc>lat.=55.936859, lon.=26.536591, Alt.=134.396606m. Speed=10.044000m/h.</desc>
<speed>2.790000</speed>
</trkpt>
<trkpt lat="55.936871" lon="26.536539">
<ele>134.986450</ele>
<time>2010-08-29T08:07:49Z</time>
<desc>lat.=55.936871, lon.=26.536539, Alt.=134.986450m. Speed=10.512000m/h.</desc>
<speed>2.920000</speed>
</trkpt>
<trkpt lat="55.936878" lon="26.536495">
<ele>134.982544</ele>
<time>2010-08-29T08:07:50Z</time>
<desc>lat.=55.936878, lon.=26.536495, Alt.=134.982544m. Speed=9.144000m/h.</desc>
<speed>2.540000</speed>
</trkpt>
<trkpt lat="55.936871" lon="26.536438">
<ele>133.009888</ele>
<time>2010-08-29T08:07:51Z</time>
<desc>lat.=55.936871, lon.=26.536438, Alt.=133.009888m. Speed=8.964000m/h.</desc>
<speed>2.490000</speed>
</trkpt>
<trkpt lat="55.936867" lon="26.536392">
<ele>132.943481</ele>
<time>2010-08-29T08:07:52Z</time>
<desc>lat.=55.936867, lon.=26.536392, Alt.=132.943481m. Speed=8.244000m/h.</desc>
<speed>2.290000</speed>
</trkpt>
<trkpt lat="55.936863" lon="26.536356">
<ele>132.959106</ele>
<time>2010-08-29T08:07:53Z</time>
<desc>lat.=55.936863, lon.=26.536356, Alt.=132.959106m. Speed=6.984000m/h.</desc>
<speed>1.940000</speed>
</trkpt>
<trkpt lat="55.936859" lon="26.536322">
<ele>133.146606</ele>
<time>2010-08-29T08:07:54Z</time>
<desc>lat.=55.936859, lon.=26.536322, Alt.=133.146606m. Speed=5.184000m/h.</desc>
<speed>1.440000</speed>
</trkpt>
<trkpt lat="55.936852" lon="26.536291">
<ele>133.248169</ele>
<time>2010-08-29T08:07:55Z</time>
<desc>lat.=55.936852, lon.=26.536291, Alt.=133.248169m. Speed=5.796000m/h.</desc>
<speed>1.610000</speed>
</trkpt>
<trkpt lat="55.936852" lon="26.536251">
<ele>132.724731</ele>
<time>2010-08-29T08:07:56Z</time>
<desc>lat.=55.936852, lon.=26.536251, Alt.=132.724731m. Speed=7.740000m/h.</desc>
<speed>2.150000</speed>
</trkpt>
<trkpt lat="55.936844" lon="26.536205">
<ele>132.947388</ele>
<time>2010-08-29T08:07:57Z</time>
<desc>lat.=55.936844, lon.=26.536205, Alt.=132.947388m. Speed=8.568000m/h.</desc>
<speed>2.380000</speed>
</trkpt>
<trkpt lat="55.936848" lon="26.536148">
<ele>132.818481</ele>
<time>2010-08-29T08:07:58Z</time>
<desc>lat.=55.936848, lon.=26.536148, Alt.=132.818481m. Speed=10.152000m/h.</desc>
<speed>2.820000</speed>
</trkpt>
<trkpt lat="55.936848" lon="26.536097">
<ele>132.896606</ele>
<time>2010-08-29T08:07:59Z</time>
<desc>lat.=55.936848, lon.=26.536097, Alt.=132.896606m. Speed=10.836000m/h.</desc>
<speed>3.010000</speed>
</trkpt>
<trkpt lat="55.936867" lon="26.536045">
<ele>132.806763</ele>
<time>2010-08-29T08:08:00Z</time>
<desc>lat.=55.936867, lon.=26.536045, Alt.=132.806763m. Speed=9.972000m/h.</desc>
<speed>2.770000</speed>
</trkpt>
<trkpt lat="55.936886" lon="26.535995">
<ele>132.744263</ele>
<time>2010-08-29T08:08:01Z</time>
<desc>lat.=55.936886, lon.=26.535995, Alt.=132.744263m. Speed=11.340000m/h.</desc>
<speed>3.150000</speed>
</trkpt>
<trkpt lat="55.936901" lon="26.535936">
<ele>132.986450</ele>
<time>2010-08-29T08:08:02Z</time>
<desc>lat.=55.936901, lon.=26.535936, Alt.=132.986450m. Speed=14.724000m/h.</desc>
<speed>4.090000</speed>
</trkpt>
<trkpt lat="55.936909" lon="26.535858">
<ele>133.845825</ele>
<time>2010-08-29T08:08:03Z</time>
<desc>lat.=55.936909, lon.=26.535858, Alt.=133.845825m. Speed=11.376000m/h.</desc>
<speed>3.160000</speed>
</trkpt>
<trkpt lat="55.936909" lon="26.535803">
<ele>134.513794</ele>
<time>2010-08-29T08:08:04Z</time>
<desc>lat.=55.936909, lon.=26.535803, Alt.=134.513794m. Speed=10.656000m/h.</desc>
<speed>2.960000</speed>
</trkpt>
<trkpt lat="55.936913" lon="26.535746">
<ele>135.341919</ele>
<time>2010-08-29T08:08:05Z</time>
<desc>lat.=55.936913, lon.=26.535746, Alt.=135.341919m. Speed=10.044000m/h.</desc>
<speed>2.790000</speed>
</trkpt>
<trkpt lat="55.936916" lon="26.535681">
<ele>135.111450</ele>
<time>2010-08-29T08:08:06Z</time>
<desc>lat.=55.936916, lon.=26.535681, Alt.=135.111450m. Speed=11.124000m/h.</desc>
<speed>3.090000</speed>
</trkpt>
<trkpt lat="55.936920" lon="26.535604">
<ele>135.642700</ele>
<time>2010-08-29T08:08:07Z</time>
<desc>lat.=55.936920, lon.=26.535604, Alt.=135.642700m. Speed=12.852000m/h.</desc>
<speed>3.570000</speed>
</trkpt>
<trkpt lat="55.936924" lon="26.535538">
<ele>135.138794</ele>
<time>2010-08-29T08:08:08Z</time>
<desc>lat.=55.936924, lon.=26.535538, Alt.=135.138794m. Speed=11.592000m/h.</desc>
<speed>3.220000</speed>
</trkpt>
<trkpt lat="55.936928" lon="26.535486">
<ele>135.334106</ele>
<time>2010-08-29T08:08:09Z</time>
<desc>lat.=55.936928, lon.=26.535486, Alt.=135.334106m. Speed=10.080000m/h.</desc>
<speed>2.800000</speed>
</trkpt>
<trkpt lat="55.936928" lon="26.535440">
<ele>135.595825</ele>
<time>2010-08-29T08:08:10Z</time>
<desc>lat.=55.936928, lon.=26.535440, Alt.=135.595825m. Speed=10.584000m/h.</desc>
<speed>2.940000</speed>
</trkpt>
<trkpt lat="55.936928" lon="26.535387">
<ele>135.955200</ele>
<time>2010-08-29T08:08:11Z</time>
<desc>lat.=55.936928, lon.=26.535387, Alt.=135.955200m. Speed=11.124000m/h.</desc>
<speed>3.090000</speed>
</trkpt>
<trkpt lat="55.936932" lon="26.535318">
<ele>135.025513</ele>
<time>2010-08-29T08:08:12Z</time>
<desc>lat.=55.936932, lon.=26.535318, Alt.=135.025513m. Speed=12.816000m/h.</desc>
<speed>3.560000</speed>
</trkpt>
<trkpt lat="55.936928" lon="26.535244">
<ele>133.345825</ele>
<time>2010-08-29T08:08:13Z</time>
<desc>lat.=55.936928, lon.=26.535244, Alt.=133.345825m. Speed=11.556000m/h.</desc>
<speed>3.210000</speed>
</trkpt>
<trkpt lat="55.936924" lon="26.535183">
<ele>133.466919</ele>
<time>2010-08-29T08:08:14Z</time>
<desc>lat.=55.936924, lon.=26.535183, Alt.=133.466919m. Speed=10.980000m/h.</desc>
<speed>3.050000</speed>
</trkpt>
<trkpt lat="55.936932" lon="26.535126">
<ele>134.705200</ele>
<time>2010-08-29T08:08:15Z</time>
<desc>lat.=55.936932, lon.=26.535126, Alt.=134.705200m. Speed=11.808000m/h.</desc>
<speed>3.280000</speed>
</trkpt>
<trkpt lat="55.936935" lon="26.535025">
<ele>136.459106</ele>
<time>2010-08-29T08:08:16Z</time>
<desc>lat.=55.936935, lon.=26.535025, Alt.=136.459106m. Speed=14.328000m/h.</desc>
<speed>3.980000</speed>
</trkpt>
<trkpt lat="55.936943" lon="26.534952">
<ele>137.150513</ele>
<time>2010-08-29T08:08:17Z</time>
<desc>lat.=55.936943, lon.=26.534952, Alt.=137.150513m. Speed=15.012000m/h.</desc>
<speed>4.170000</speed>
</trkpt>
<trkpt lat="55.936947" lon="26.534876">
<ele>136.298950</ele>
<time>2010-08-29T08:08:18Z</time>
<desc>lat.=55.936947, lon.=26.534876, Alt.=136.298950m. Speed=15.084000m/h.</desc>
<speed>4.190000</speed>
</trkpt>
<trkpt lat="55.936954" lon="26.534801">
<ele>136.119263</ele>
<time>2010-08-29T08:08:19Z</time>
<desc>lat.=55.936954, lon.=26.534801, Alt.=136.119263m. Speed=13.968000m/h.</desc>
<speed>3.880000</speed>
</trkpt>
<trkpt lat="55.936951" lon="26.534737">
<ele>136.201294</ele>
<time>2010-08-29T08:08:20Z</time>
<desc>lat.=55.936951, lon.=26.534737, Alt.=136.201294m. Speed=12.420000m/h.</desc>
<speed>3.450000</speed>
</trkpt>
<trkpt lat="55.936951" lon="26.534664">
<ele>137.095825</ele>
<time>2010-08-29T08:08:21Z</time>
<desc>lat.=55.936951, lon.=26.534664, Alt.=137.095825m. Speed=11.664000m/h.</desc>
<speed>3.240000</speed>
</trkpt>
<trkpt lat="55.936954" lon="26.534607">
<ele>139.095825</ele>
<time>2010-08-29T08:08:22Z</time>
<desc>lat.=55.936954, lon.=26.534607, Alt.=139.095825m. Speed=10.584000m/h.</desc>
<speed>2.940000</speed>
</trkpt>
<trkpt lat="55.936966" lon="26.534554">
<ele>140.564575</ele>
<time>2010-08-29T08:08:23Z</time>
<desc>lat.=55.936966, lon.=26.534554, Alt.=140.564575m. Speed=10.008000m/h.</desc>
<speed>2.780000</speed>
</trkpt>
<trkpt lat="55.936981" lon="26.534500">
<ele>142.088013</ele>
<time>2010-08-29T08:08:24Z</time>
<desc>lat.=55.936981, lon.=26.534500, Alt.=142.088013m. Speed=9.648000m/h.</desc>
<speed>2.680000</speed>
</trkpt>
<trkpt lat="55.937016" lon="26.534445">
<ele>143.779419</ele>
<time>2010-08-29T08:08:25Z</time>
<desc>lat.=55.937016, lon.=26.534445, Alt.=143.779419m. Speed=10.656000m/h.</desc>
<speed>2.960000</speed>
</trkpt>
<trkpt lat="55.937012" lon="26.534386">
<ele>143.755981</ele>
<time>2010-08-29T08:08:26Z</time>
<desc>lat.=55.937012, lon.=26.534386, Alt.=143.755981m. Speed=8.856000m/h.</desc>
<speed>2.460000</speed>
</trkpt>
<trkpt lat="55.936993" lon="26.534311">
<ele>141.361450</ele>
<time>2010-08-29T08:08:27Z</time>
<desc>lat.=55.936993, lon.=26.534311, Alt.=141.361450m. Speed=11.268000m/h.</desc>
<speed>3.130000</speed>
</trkpt>
<trkpt lat="55.936977" lon="26.534233">
<ele>140.021606</ele>
<time>2010-08-29T08:08:28Z</time>
<desc>lat.=55.936977, lon.=26.534233, Alt.=140.021606m. Speed=12.024000m/h.</desc>
<speed>3.340000</speed>
</trkpt>
<trkpt lat="55.936974" lon="26.534155">
<ele>138.775513</ele>
<time>2010-08-29T08:08:29Z</time>
<desc>lat.=55.936974, lon.=26.534155, Alt.=138.775513m. Speed=11.952000m/h.</desc>
<speed>3.320000</speed>
</trkpt>
<trkpt lat="55.936966" lon="26.534081">
<ele>138.529419</ele>
<time>2010-08-29T08:08:30Z</time>
<desc>lat.=55.936966, lon.=26.534081, Alt.=138.529419m. Speed=12.672000m/h.</desc>
<speed>3.520000</speed>
</trkpt>
<trkpt lat="55.936966" lon="26.534010">
<ele>140.005981</ele>
<time>2010-08-29T08:08:31Z</time>
<desc>lat.=55.936966, lon.=26.534010, Alt.=140.005981m. Speed=11.844000m/h.</desc>
<speed>3.290000</speed>
</trkpt>
<trkpt lat="55.936970" lon="26.533947">
<ele>139.939575</ele>
<time>2010-08-29T08:08:32Z</time>
<desc>lat.=55.936970, lon.=26.533947, Alt.=139.939575m. Speed=12.888000m/h.</desc>
<speed>3.580000</speed>
</trkpt>
<trkpt lat="55.936981" lon="26.533894">
<ele>140.689575</ele>
<time>2010-08-29T08:08:33Z</time>
<desc>lat.=55.936981, lon.=26.533894, Alt.=140.689575m. Speed=11.808000m/h.</desc>
<speed>3.280000</speed>
</trkpt>
<trkpt lat="55.936993" lon="26.533834">
<ele>141.642700</ele>
<time>2010-08-29T08:08:34Z</time>
<desc>lat.=55.936993, lon.=26.533834, Alt.=141.642700m. Speed=12.096000m/h.</desc>
<speed>3.360000</speed>
</trkpt>
<trkpt lat="55.937004" lon="26.533752">
<ele>141.068481</ele>
<time>2010-08-29T08:08:35Z</time>
<desc>lat.=55.937004, lon.=26.533752, Alt.=141.068481m. Speed=13.032000m/h.</desc>
<speed>3.620000</speed>
</trkpt>
<trkpt lat="55.937008" lon="26.533686">
<ele>141.213013</ele>
<time>2010-08-29T08:08:36Z</time>
<desc>lat.=55.937008, lon.=26.533686, Alt.=141.213013m. Speed=12.168000m/h.</desc>
<speed>3.380000</speed>
</trkpt>
<trkpt lat="55.937004" lon="26.533592">
<ele>140.388794</ele>
<time>2010-08-29T08:08:37Z</time>
<desc>lat.=55.937004, lon.=26.533592, Alt.=140.388794m. Speed=12.600000m/h.</desc>
<speed>3.500000</speed>
</trkpt>
<trkpt lat="55.936996" lon="26.533508">
<ele>139.701294</ele>
<time>2010-08-29T08:08:38Z</time>
<desc>lat.=55.936996, lon.=26.533508, Alt.=139.701294m. Speed=11.412000m/h.</desc>
<speed>3.170000</speed>
</trkpt>
<trkpt lat="55.936993" lon="26.533428">
<ele>138.806763</ele>
<time>2010-08-29T08:08:39Z</time>
<desc>lat.=55.936993, lon.=26.533428, Alt.=138.806763m. Speed=11.772000m/h.</desc>
<speed>3.270000</speed>
</trkpt>
<trkpt lat="55.936993" lon="26.533354">
<ele>138.400513</ele>
<time>2010-08-29T08:08:40Z</time>
<desc>lat.=55.936993, lon.=26.533354, Alt.=138.400513m. Speed=11.916000m/h.</desc>
<speed>3.310000</speed>
</trkpt>
<trkpt lat="55.936993" lon="26.533251">
<ele>138.560669</ele>
<time>2010-08-29T08:08:41Z</time>
<desc>lat.=55.936993, lon.=26.533251, Alt.=138.560669m. Speed=12.204000m/h.</desc>
<speed>3.390000</speed>
</trkpt>
<trkpt lat="55.936989" lon="26.533176">
<ele>138.322388</ele>
<time>2010-08-29T08:08:42Z</time>
<desc>lat.=55.936989, lon.=26.533176, Alt.=138.322388m. Speed=12.276000m/h.</desc>
<speed>3.410000</speed>
</trkpt>
<trkpt lat="55.936996" lon="26.533115">
<ele>138.935669</ele>
<time>2010-08-29T08:08:43Z</time>
<desc>lat.=55.936996, lon.=26.533115, Alt.=138.935669m. Speed=12.672000m/h.</desc>
<speed>3.520000</speed>
</trkpt>
<trkpt lat="55.937004" lon="26.533022">
<ele>140.798950</ele>
<time>2010-08-29T08:08:44Z</time>
<desc>lat.=55.937004, lon.=26.533022, Alt.=140.798950m. Speed=14.724000m/h.</desc>
<speed>4.090000</speed>
</trkpt>
<trkpt lat="55.937023" lon="26.532942">
<ele>143.228638</ele>
<time>2010-08-29T08:08:45Z</time>
<desc>lat.=55.937023, lon.=26.532942, Alt.=143.228638m. Speed=13.896000m/h.</desc>
<speed>3.860000</speed>
</trkpt>
<trkpt lat="55.937038" lon="26.532883">
<ele>144.291138</ele>
<time>2010-08-29T08:08:46Z</time>
<desc>lat.=55.937038, lon.=26.532883, Alt.=144.291138m. Speed=13.428000m/h.</desc>
<speed>3.730000</speed>
</trkpt>
<trkpt lat="55.937054" lon="26.532827">
<ele>146.963013</ele>
<time>2010-08-29T08:08:47Z</time>
<desc>lat.=55.937054, lon.=26.532827, Alt.=146.963013m. Speed=12.564000m/h.</desc>
<speed>3.490000</speed>
</trkpt>
<trkpt lat="55.937054" lon="26.532768">
<ele>148.986450</ele>
<time>2010-08-29T08:08:48Z</time>
<desc>lat.=55.937054, lon.=26.532768, Alt.=148.986450m. Speed=11.196000m/h.</desc>
<speed>3.110000</speed>
</trkpt>
<trkpt lat="55.937046" lon="26.532711">
<ele>150.689575</ele>
<time>2010-08-29T08:08:49Z</time>
<desc>lat.=55.937046, lon.=26.532711, Alt.=150.689575m. Speed=11.088000m/h.</desc>
<speed>3.080000</speed>
</trkpt>
<trkpt lat="55.937046" lon="26.532654">
<ele>152.201294</ele>
<time>2010-08-29T08:08:50Z</time>
<desc>lat.=55.937046, lon.=26.532654, Alt.=152.201294m. Speed=10.800000m/h.</desc>
<speed>3.000000</speed>
</trkpt>
<trkpt lat="55.937050" lon="26.532602">
<ele>154.130981</ele>
<time>2010-08-29T08:08:51Z</time>
<desc>lat.=55.937050, lon.=26.532602, Alt.=154.130981m. Speed=9.612000m/h.</desc>
<speed>2.670000</speed>
</trkpt>
<trkpt lat="55.937050" lon="26.532526">
<ele>152.361450</ele>
<time>2010-08-29T08:08:52Z</time>
<desc>lat.=55.937050, lon.=26.532526, Alt.=152.361450m. Speed=11.520000m/h.</desc>
<speed>3.200000</speed>
</trkpt>
<trkpt lat="55.937057" lon="26.532465">
<ele>153.463013</ele>
<time>2010-08-29T08:08:53Z</time>
<desc>lat.=55.937057, lon.=26.532465, Alt.=153.463013m. Speed=11.304000m/h.</desc>
<speed>3.140000</speed>
</trkpt>
<trkpt lat="55.937065" lon="26.532417">
<ele>154.845825</ele>
<time>2010-08-29T08:08:54Z</time>
<desc>lat.=55.937065, lon.=26.532417, Alt.=154.845825m. Speed=12.168000m/h.</desc>
<speed>3.380000</speed>
</trkpt>
<trkpt lat="55.937065" lon="26.532351">
<ele>154.084106</ele>
<time>2010-08-29T08:08:55Z</time>
<desc>lat.=55.937065, lon.=26.532351, Alt.=154.084106m. Speed=10.008000m/h.</desc>
<speed>2.780000</speed>
</trkpt>
<trkpt lat="55.937057" lon="26.532290">
<ele>153.404419</ele>
<time>2010-08-29T08:08:56Z</time>
<desc>lat.=55.937057, lon.=26.532290, Alt.=153.404419m. Speed=9.684000m/h.</desc>
<speed>2.690000</speed>
</trkpt>
<trkpt lat="55.937057" lon="26.532238">
<ele>153.154419</ele>
<time>2010-08-29T08:08:57Z</time>
<desc>lat.=55.937057, lon.=26.532238, Alt.=153.154419m. Speed=8.208000m/h.</desc>
<speed>2.280000</speed>
</trkpt>
<trkpt lat="55.937057" lon="26.532204">
<ele>153.709106</ele>
<time>2010-08-29T08:08:58Z</time>
<desc>lat.=55.937057, lon.=26.532204, Alt.=153.709106m. Speed=4.500000m/h.</desc>
<speed>1.250000</speed>
</trkpt>
<trkpt lat="55.937054" lon="26.532173">
<ele>154.314575</ele>
<time>2010-08-29T08:08:59Z</time>
<desc>lat.=55.937054, lon.=26.532173, Alt.=154.314575m. Speed=3.384000m/h.</desc>
<speed>0.940000</speed>
</trkpt>
<trkpt lat="55.937050" lon="26.532139">
<ele>154.513794</ele>
<time>2010-08-29T08:09:00Z</time>
<desc>lat.=55.937050, lon.=26.532139, Alt.=154.513794m. Speed=3.528000m/h.</desc>
<speed>0.980000</speed>
</trkpt>
<trkpt lat="55.937042" lon="26.532114">
<ele>154.818481</ele>
<time>2010-08-29T08:09:01Z</time>
<desc>lat.=55.937042, lon.=26.532114, Alt.=154.818481m. Speed=2.700000m/h.</desc>
<speed>0.750000</speed>
</trkpt>
<trkpt lat="55.937035" lon="26.532093">
<ele>155.205200</ele>
<time>2010-08-29T08:09:02Z</time>
<desc>lat.=55.937035, lon.=26.532093, Alt.=155.205200m. Speed=4.860000m/h.</desc>
<speed>1.350000</speed>
</trkpt>
<trkpt lat="55.937004" lon="26.532063">
<ele>155.033325</ele>
<time>2010-08-29T08:09:03Z</time>
<desc>lat.=55.937004, lon.=26.532063, Alt.=155.033325m. Speed=8.028000m/h.</desc>
<speed>2.230000</speed>
</trkpt>
<trkpt lat="55.936989" lon="26.532061">
<ele>154.798950</ele>
<time>2010-08-29T08:09:04Z</time>
<desc>lat.=55.936989, lon.=26.532061, Alt.=154.798950m. Speed=3.564000m/h.</desc>
<speed>0.990000</speed>
</trkpt>
<trkpt lat="55.936981" lon="26.532055">
<ele>154.959106</ele>
<time>2010-08-29T08:09:05Z</time>
<desc>lat.=55.936981, lon.=26.532055, Alt.=154.959106m. Speed=5.868000m/h.</desc>
<speed>1.630000</speed>
</trkpt>
<trkpt lat="55.936966" lon="26.532066">
<ele>156.056763</ele>
<time>2010-08-29T08:09:06Z</time>
<desc>lat.=55.936966, lon.=26.532066, Alt.=156.056763m. Speed=5.724000m/h.</desc>
<speed>1.590000</speed>
</trkpt>
<trkpt lat="55.936954" lon="26.532085">
<ele>157.505981</ele>
<time>2010-08-29T08:09:07Z</time>
<desc>lat.=55.936954, lon.=26.532085, Alt.=157.505981m. Speed=6.228000m/h.</desc>
<speed>1.730000</speed>
</trkpt>
<trkpt lat="55.936932" lon="26.532097">
<ele>158.845825</ele>
<time>2010-08-29T08:09:08Z</time>
<desc>lat.=55.936932, lon.=26.532097, Alt.=158.845825m. Speed=4.896000m/h.</desc>
<speed>1.360000</speed>
</trkpt>
<trkpt lat="55.936878" lon="26.532066">
<ele>155.892700</ele>
<time>2010-08-29T08:09:09Z</time>
<desc>lat.=55.936878, lon.=26.532066, Alt.=155.892700m. Speed=6.732000m/h.</desc>
<speed>1.870000</speed>
</trkpt>
<trkpt lat="55.936848" lon="26.532045">
<ele>154.228638</ele>
<time>2010-08-29T08:09:10Z</time>
<desc>lat.=55.936848, lon.=26.532045, Alt.=154.228638m. Speed=8.460000m/h.</desc>
<speed>2.350000</speed>
</trkpt>
<trkpt lat="55.936825" lon="26.532036">
<ele>154.584106</ele>
<time>2010-08-29T08:09:11Z</time>
<desc>lat.=55.936825, lon.=26.532036, Alt.=154.584106m. Speed=7.632000m/h.</desc>
<speed>2.120000</speed>
</trkpt>
<trkpt lat="55.936783" lon="26.532015">
<ele>152.220825</ele>
<time>2010-08-29T08:09:12Z</time>
<desc>lat.=55.936783, lon.=26.532015, Alt.=152.220825m. Speed=9.108000m/h.</desc>
<speed>2.530000</speed>
</trkpt>
<trkpt lat="55.936733" lon="26.531998">
<ele>149.920044</ele>
<time>2010-08-29T08:09:13Z</time>
<desc>lat.=55.936733, lon.=26.531998, Alt.=149.920044m. Speed=10.116000m/h.</desc>
<speed>2.810000</speed>
</trkpt>
<trkpt lat="55.936687" lon="26.531990">
<ele>147.248169</ele>
<time>2010-08-29T08:09:14Z</time>
<desc>lat.=55.936687, lon.=26.531990, Alt.=147.248169m. Speed=14.292000m/h.</desc>
<speed>3.970000</speed>
</trkpt>
<trkpt lat="55.936653" lon="26.531986">
<ele>146.392700</ele>
<time>2010-08-29T08:09:15Z</time>
<desc>lat.=55.936653, lon.=26.531986, Alt.=146.392700m. Speed=15.192000m/h.</desc>
<speed>4.220000</speed>
</trkpt>
<trkpt lat="55.936615" lon="26.531971">
<ele>146.095825</ele>
<time>2010-08-29T08:09:16Z</time>
<desc>lat.=55.936615, lon.=26.531971, Alt.=146.095825m. Speed=14.508000m/h.</desc>
<speed>4.030000</speed>
</trkpt>
<trkpt lat="55.936577" lon="26.531963">
<ele>145.029419</ele>
<time>2010-08-29T08:09:17Z</time>
<desc>lat.=55.936577, lon.=26.531963, Alt.=145.029419m. Speed=12.780000m/h.</desc>
<speed>3.550000</speed>
</trkpt>
<trkpt lat="55.936546" lon="26.531946">
<ele>145.017700</ele>
<time>2010-08-29T08:09:18Z</time>
<desc>lat.=55.936546, lon.=26.531946, Alt.=145.017700m. Speed=14.832000m/h.</desc>
<speed>4.120000</speed>
</trkpt>
<trkpt lat="55.936497" lon="26.531921">
<ele>143.420044</ele>
<time>2010-08-29T08:09:19Z</time>
<desc>lat.=55.936497, lon.=26.531921, Alt.=143.420044m. Speed=17.532000m/h.</desc>
<speed>4.870000</speed>
</trkpt>
<trkpt lat="55.936455" lon="26.531904">
<ele>143.490356</ele>
<time>2010-08-29T08:09:20Z</time>
<desc>lat.=55.936455, lon.=26.531904, Alt.=143.490356m. Speed=16.955999m/h.</desc>
<speed>4.710000</speed>
</trkpt>
<trkpt lat="55.936413" lon="26.531881">
<ele>142.791138</ele>
<time>2010-08-29T08:09:21Z</time>
<desc>lat.=55.936413, lon.=26.531881, Alt.=142.791138m. Speed=15.732000m/h.</desc>
<speed>4.370000</speed>
</trkpt>
<trkpt lat="55.936371" lon="26.531847">
<ele>142.744263</ele>
<time>2010-08-29T08:09:22Z</time>
<desc>lat.=55.936371, lon.=26.531847, Alt.=142.744263m. Speed=16.884001m/h.</desc>
<speed>4.690000</speed>
</trkpt>
<trkpt lat="55.936337" lon="26.531834">
<ele>141.865356</ele>
<time>2010-08-29T08:09:23Z</time>
<desc>lat.=55.936337, lon.=26.531834, Alt.=141.865356m. Speed=10.728000m/h.</desc>
<speed>2.980000</speed>
</trkpt>
<trkpt lat="55.936295" lon="26.531813">
<ele>142.052856</ele>
<time>2010-08-29T08:09:24Z</time>
<desc>lat.=55.936295, lon.=26.531813, Alt.=142.052856m. Speed=16.056000m/h.</desc>
<speed>4.460000</speed>
</trkpt>
<trkpt lat="55.936253" lon="26.531788">
<ele>141.404419</ele>
<time>2010-08-29T08:09:25Z</time>
<desc>lat.=55.936253, lon.=26.531788, Alt.=141.404419m. Speed=14.328000m/h.</desc>
<speed>3.980000</speed>
</trkpt>
<trkpt lat="55.936214" lon="26.531757">
<ele>140.896606</ele>
<time>2010-08-29T08:09:26Z</time>
<desc>lat.=55.936214, lon.=26.531757, Alt.=140.896606m. Speed=15.768000m/h.</desc>
<speed>4.380000</speed>
</trkpt>
<trkpt lat="55.936169" lon="26.531725">
<ele>140.595825</ele>
<time>2010-08-29T08:09:27Z</time>
<desc>lat.=55.936169, lon.=26.531725, Alt.=140.595825m. Speed=14.688000m/h.</desc>
<speed>4.080000</speed>
</trkpt>
<trkpt lat="55.936127" lon="26.531696">
<ele>140.384888</ele>
<time>2010-08-29T08:09:28Z</time>
<desc>lat.=55.936127, lon.=26.531696, Alt.=140.384888m. Speed=16.632000m/h.</desc>
<speed>4.620000</speed>
</trkpt>
<trkpt lat="55.936077" lon="26.531664">
<ele>141.267700</ele>
<time>2010-08-29T08:09:29Z</time>
<desc>lat.=55.936077, lon.=26.531664, Alt.=141.267700m. Speed=15.624000m/h.</desc>
<speed>4.340000</speed>
</trkpt>
<trkpt lat="55.936024" lon="26.531624">
<ele>140.677856</ele>
<time>2010-08-29T08:09:30Z</time>
<desc>lat.=55.936024, lon.=26.531624, Alt.=140.677856m. Speed=20.664000m/h.</desc>
<speed>5.740000</speed>
</trkpt>
<trkpt lat="55.935963" lon="26.531591">
<ele>139.943481</ele>
<time>2010-08-29T08:09:31Z</time>
<desc>lat.=55.935963, lon.=26.531591, Alt.=139.943481m. Speed=20.952000m/h.</desc>
<speed>5.820000</speed>
</trkpt>
<trkpt lat="55.935905" lon="26.531561">
<ele>139.630981</ele>
<time>2010-08-29T08:09:32Z</time>
<desc>lat.=55.935905, lon.=26.531561, Alt.=139.630981m. Speed=20.520000m/h.</desc>
<speed>5.700000</speed>
</trkpt>
<trkpt lat="55.935848" lon="26.531532">
<ele>139.029419</ele>
<time>2010-08-29T08:09:33Z</time>
<desc>lat.=55.935848, lon.=26.531532, Alt.=139.029419m. Speed=21.132000m/h.</desc>
<speed>5.870000</speed>
</trkpt>
<trkpt lat="55.935795" lon="26.531507">
<ele>138.709106</ele>
<time>2010-08-29T08:09:34Z</time>
<desc>lat.=55.935795, lon.=26.531507, Alt.=138.709106m. Speed=19.224001m/h.</desc>
<speed>5.340000</speed>
</trkpt>
<trkpt lat="55.935734" lon="26.531473">
<ele>138.345825</ele>
<time>2010-08-29T08:09:35Z</time>
<desc>lat.=55.935734, lon.=26.531473, Alt.=138.345825m. Speed=20.016001m/h.</desc>
<speed>5.560000</speed>
</trkpt>
<trkpt lat="55.935680" lon="26.531429">
<ele>138.607544</ele>
<time>2010-08-29T08:09:36Z</time>
<desc>lat.=55.935680, lon.=26.531429, Alt.=138.607544m. Speed=19.691999m/h.</desc>
<speed>5.470000</speed>
</trkpt>
<trkpt lat="55.935627" lon="26.531385">
<ele>138.306763</ele>
<time>2010-08-29T08:09:37Z</time>
<desc>lat.=55.935627, lon.=26.531385, Alt.=138.306763m. Speed=19.944000m/h.</desc>
<speed>5.540000</speed>
</trkpt>
<trkpt lat="55.935577" lon="26.531340">
<ele>137.927856</ele>
<time>2010-08-29T08:09:38Z</time>
<desc>lat.=55.935577, lon.=26.531340, Alt.=137.927856m. Speed=18.936001m/h.</desc>
<speed>5.260000</speed>
</trkpt>
<trkpt lat="55.935524" lon="26.531294">
<ele>136.173950</ele>
<time>2010-08-29T08:09:39Z</time>
<desc>lat.=55.935524, lon.=26.531294, Alt.=136.173950m. Speed=16.596001m/h.</desc>
<speed>4.610000</speed>
</trkpt>
<trkpt lat="55.935490" lon="26.531271">
<ele>136.123169</ele>
<time>2010-08-29T08:09:40Z</time>
<desc>lat.=55.935490, lon.=26.531271, Alt.=136.123169m. Speed=8.496000m/h.</desc>
<speed>2.360000</speed>
</trkpt>
<trkpt lat="55.935467" lon="26.531260">
<ele>134.482544</ele>
<time>2010-08-29T08:09:41Z</time>
<desc>lat.=55.935467, lon.=26.531260, Alt.=134.482544m. Speed=5.112000m/h.</desc>
<speed>1.420000</speed>
</trkpt>
<trkpt lat="55.935452" lon="26.531260">
<ele>133.783325</ele>
<time>2010-08-29T08:09:42Z</time>
<desc>lat.=55.935452, lon.=26.531260, Alt.=133.783325m. Speed=4.752000m/h.</desc>
<speed>1.320000</speed>
</trkpt>
<trkpt lat="55.935425" lon="26.531237">
<ele>130.568481</ele>
<time>2010-08-29T08:09:43Z</time>
<desc>lat.=55.935425, lon.=26.531237, Alt.=130.568481m. Speed=2.484000m/h.</desc>
<speed>0.690000</speed>
</trkpt>
<trkpt lat="55.935417" lon="26.531218">
<ele>129.103638</ele>
<time>2010-08-29T08:09:44Z</time>
<desc>lat.=55.935417, lon.=26.531218, Alt.=129.103638m. Speed=0.936000m/h.</desc>
<speed>0.260000</speed>
</trkpt>
<trkpt lat="55.935410" lon="26.531214">
<ele>128.177856</ele>
<time>2010-08-29T08:09:45Z</time>
<desc>lat.=55.935410, lon.=26.531214, Alt.=128.177856m. Speed=0.540000m/h.</desc>
<speed>0.150000</speed>
</trkpt>
<trkpt lat="55.935410" lon="26.531223">
<ele>129.189575</ele>
<time>2010-08-29T08:09:46Z</time>
<desc>lat.=55.935410, lon.=26.531223, Alt.=129.189575m. Speed=0.540000m/h.</desc>
<speed>0.150000</speed>
</trkpt>
<trkpt lat="55.935406" lon="26.531223">
<ele>129.052856</ele>
<time>2010-08-29T08:09:47Z</time>
<desc>lat.=55.935406, lon.=26.531223, Alt.=129.052856m. Speed=0.144000m/h.</desc>
<speed>0.040000</speed>
</trkpt>
<trkpt lat="55.935406" lon="26.531221">
<ele>129.045044</ele>
<time>2010-08-29T08:09:48Z</time>
<desc>lat.=55.935406, lon.=26.531221, Alt.=129.045044m. Speed=0.144000m/h.</desc>
<speed>0.040000</speed>
</trkpt>
<trkpt lat="55.935406" lon="26.531221">
<ele>129.037231</ele>
<time>2010-08-29T08:09:49Z</time>
<desc>lat.=55.935406, lon.=26.531221, Alt.=129.037231m. Speed=0.036000m/h.</desc>
<speed>0.010000</speed>
</trkpt>
<trkpt lat="55.935406" lon="26.531221">
<ele>129.048950</ele>
<time>2010-08-29T08:09:50Z</time>
<desc>lat.=55.935406, lon.=26.531221, Alt.=129.048950m. Speed=0.000000m/h.</desc>
<speed>0.000000</speed>
</trkpt>
<trkpt lat="55.935406" lon="26.531223">
<ele>129.064575</ele>
<time>2010-08-29T08:09:51Z</time>
<desc>lat.=55.935406, lon.=26.531223, Alt.=129.064575m. Speed=0.000000m/h.</desc>
<speed>0.000000</speed>
</trkpt>
<trkpt lat="55.935406" lon="26.531223">
<ele>129.068481</ele>
<time>2010-08-29T08:09:52Z</time>
<desc>lat.=55.935406, lon.=26.531223, Alt.=129.068481m. Speed=0.108000m/h.</desc>
<speed>0.030000</speed>
</trkpt>
<trkpt lat="55.935410" lon="26.531221">
<ele>129.056763</ele>
<time>2010-08-29T08:09:53Z</time>
<desc>lat.=55.935410, lon.=26.531221, Alt.=129.056763m. Speed=0.036000m/h.</desc>
<speed>0.010000</speed>
</trkpt>
<trkpt lat="55.935406" lon="26.531223">
<ele>129.048950</ele>
<time>2010-08-29T08:09:54Z</time>
<desc>lat.=55.935406, lon.=26.531223, Alt.=129.048950m. Speed=0.000000m/h.</desc>
<speed>0.000000</speed>
</trkpt>
<trkpt lat="55.935406" lon="26.531221">
<ele>129.052856</ele>
<time>2010-08-29T08:09:55Z</time>
<desc>lat.=55.935406, lon.=26.531221, Alt.=129.052856m. Speed=0.000000m/h.</desc>
<speed>0.000000</speed>
</trkpt>
<trkpt lat="55.935406" lon="26.531223">
<ele>129.060669</ele>
<time>2010-08-29T08:09:56Z</time>
<desc>lat.=55.935406, lon.=26.531223, Alt.=129.060669m. Speed=0.072000m/h.</desc>
<speed>0.020000</speed>
</trkpt>
<trkpt lat="55.935406" lon="26.531221">
<ele>129.052856</ele>
<time>2010-08-29T08:09:57Z</time>
<desc>lat.=55.935406, lon.=26.531221, Alt.=129.052856m. Speed=0.036000m/h.</desc>
<speed>0.010000</speed>
</trkpt>
<trkpt lat="55.935406" lon="26.531221">
<ele>129.056763</ele>
<time>2010-08-29T08:09:58Z</time>
<desc>lat.=55.935406, lon.=26.531221, Alt.=129.056763m. Speed=0.072000m/h.</desc>
<speed>0.020000</speed>
</trkpt>
<trkpt lat="55.935406" lon="26.531221">
<ele>129.064575</ele>
<time>2010-08-29T08:09:59Z</time>
<desc>lat.=55.935406, lon.=26.531221, Alt.=129.064575m. Speed=0.072000m/h.</desc>
<speed>0.020000</speed>
</trkpt>
<trkpt lat="55.935406" lon="26.531221">
<ele>129.072388</ele>
<time>2010-08-29T08:10:00Z</time>
<desc>lat.=55.935406, lon.=26.531221, Alt.=129.072388m. Speed=0.072000m/h.</desc>
<speed>0.020000</speed>
</trkpt>
<trkpt lat="55.935406" lon="26.531221">
<ele>129.045044</ele>
<time>2010-08-29T08:10:01Z</time>
<desc>lat.=55.935406, lon.=26.531221, Alt.=129.045044m. Speed=0.036000m/h.</desc>
<speed>0.010000</speed>
</trkpt>
<trkpt lat="55.935406" lon="26.531221">
<ele>129.056763</ele>
<time>2010-08-29T08:10:02Z</time>
<desc>lat.=55.935406, lon.=26.531221, Alt.=129.056763m. Speed=0.180000m/h.</desc>
<speed>0.050000</speed>
</trkpt>
<trkpt lat="55.935406" lon="26.531221">
<ele>129.068481</ele>
<time>2010-08-29T08:10:03Z</time>
<desc>lat.=55.935406, lon.=26.531221, Alt.=129.068481m. Speed=0.252000m/h.</desc>
<speed>0.070000</speed>
</trkpt>
<trkpt lat="55.935406" lon="26.531221">
<ele>129.080200</ele>
<time>2010-08-29T08:10:04Z</time>
<desc>lat.=55.935406, lon.=26.531221, Alt.=129.080200m. Speed=0.108000m/h.</desc>
<speed>0.030000</speed>
</trkpt>
<trkpt lat="55.935406" lon="26.531219">
<ele>129.088013</ele>
<time>2010-08-29T08:10:05Z</time>
<desc>lat.=55.935406, lon.=26.531219, Alt.=129.088013m. Speed=0.180000m/h.</desc>
<speed>0.050000</speed>
</trkpt>
<trkpt lat="55.935406" lon="26.531219">
<ele>129.099731</ele>
<time>2010-08-29T08:10:06Z</time>
<desc>lat.=55.935406, lon.=26.531219, Alt.=129.099731m. Speed=0.360000m/h.</desc>
<speed>0.100000</speed>
</trkpt>
<trkpt lat="55.935406" lon="26.531219">
<ele>129.103638</ele>
<time>2010-08-29T08:10:07Z</time>
<desc>lat.=55.935406, lon.=26.531219, Alt.=129.103638m. Speed=1.080000m/h.</desc>
<speed>0.300000</speed>
</trkpt>
<trkpt lat="55.935402" lon="26.531223">
<ele>129.111450</ele>
<time>2010-08-29T08:10:08Z</time>
<desc>lat.=55.935402, lon.=26.531223, Alt.=129.111450m. Speed=1.368000m/h.</desc>
<speed>0.380000</speed>
</trkpt>
<trkpt lat="55.935398" lon="26.531225">
<ele>129.127075</ele>
<time>2010-08-29T08:10:09Z</time>
<desc>lat.=55.935398, lon.=26.531225, Alt.=129.127075m. Speed=2.232000m/h.</desc>
<speed>0.620000</speed>
</trkpt>
<trkpt lat="55.935394" lon="26.531221">
<ele>129.158325</ele>
<time>2010-08-29T08:10:10Z</time>
<desc>lat.=55.935394, lon.=26.531221, Alt.=129.158325m. Speed=4.500000m/h.</desc>
<speed>1.250000</speed>
</trkpt>
<trkpt lat="55.935368" lon="26.531189">
<ele>129.705200</ele>
<time>2010-08-29T08:10:11Z</time>
<desc>lat.=55.935368, lon.=26.531189, Alt.=129.705200m. Speed=9.720000m/h.</desc>
<speed>2.700000</speed>
</trkpt>
<trkpt lat="55.935337" lon="26.531178">
<ele>130.021606</ele>
<time>2010-08-29T08:10:12Z</time>
<desc>lat.=55.935337, lon.=26.531178, Alt.=130.021606m. Speed=10.908000m/h.</desc>
<speed>3.030000</speed>
</trkpt>
<trkpt lat="55.935291" lon="26.531149">
<ele>130.232544</ele>
<time>2010-08-29T08:10:13Z</time>
<desc>lat.=55.935291, lon.=26.531149, Alt.=130.232544m. Speed=14.472000m/h.</desc>
<speed>4.020000</speed>
</trkpt>
<trkpt lat="55.935249" lon="26.531118">
<ele>130.724731</ele>
<time>2010-08-29T08:10:14Z</time>
<desc>lat.=55.935249, lon.=26.531118, Alt.=130.724731m. Speed=15.732000m/h.</desc>
<speed>4.370000</speed>
</trkpt>
<trkpt lat="55.935207" lon="26.531101">
<ele>130.900513</ele>
<time>2010-08-29T08:10:15Z</time>
<desc>lat.=55.935207, lon.=26.531101, Alt.=130.900513m. Speed=15.948000m/h.</desc>
<speed>4.430000</speed>
</trkpt>
<trkpt lat="55.935169" lon="26.531084">
<ele>131.060669</ele>
<time>2010-08-29T08:10:16Z</time>
<desc>lat.=55.935169, lon.=26.531084, Alt.=131.060669m. Speed=15.264000m/h.</desc>
<speed>4.240000</speed>
</trkpt>
<trkpt lat="55.935127" lon="26.531067">
<ele>131.295044</ele>
<time>2010-08-29T08:10:17Z</time>
<desc>lat.=55.935127, lon.=26.531067, Alt.=131.295044m. Speed=16.740000m/h.</desc>
<speed>4.650000</speed>
</trkpt>
<trkpt lat="55.935081" lon="26.531042">
<ele>131.384888</ele>
<time>2010-08-29T08:10:18Z</time>
<desc>lat.=55.935081, lon.=26.531042, Alt.=131.384888m. Speed=18.323999m/h.</desc>
<speed>5.090000</speed>
</trkpt>
<trkpt lat="55.935043" lon="26.531017">
<ele>131.591919</ele>
<time>2010-08-29T08:10:19Z</time>
<desc>lat.=55.935043, lon.=26.531017, Alt.=131.591919m. Speed=15.912000m/h.</desc>
<speed>4.420000</speed>
</trkpt>
<trkpt lat="55.935005" lon="26.530998">
<ele>131.834106</ele>
<time>2010-08-29T08:10:20Z</time>
<desc>lat.=55.935005, lon.=26.530998, Alt.=131.834106m. Speed=14.472000m/h.</desc>
<speed>4.020000</speed>
</trkpt>
<trkpt lat="55.934967" lon="26.530966">
<ele>132.162231</ele>
<time>2010-08-29T08:10:21Z</time>
<desc>lat.=55.934967, lon.=26.530966, Alt.=132.162231m. Speed=17.532000m/h.</desc>
<speed>4.870000</speed>
</trkpt>
<trkpt lat="55.934929" lon="26.530933">
<ele>132.404419</ele>
<time>2010-08-29T08:10:22Z</time>
<desc>lat.=55.934929, lon.=26.530933, Alt.=132.404419m. Speed=15.804000m/h.</desc>
<speed>4.390000</speed>
</trkpt>
<trkpt lat="55.934891" lon="26.530909">
<ele>132.670044</ele>
<time>2010-08-29T08:10:23Z</time>
<desc>lat.=55.934891, lon.=26.530909, Alt.=132.670044m. Speed=17.028000m/h.</desc>
<speed>4.730000</speed>
</trkpt>
<trkpt lat="55.934845" lon="26.530890">
<ele>133.259888</ele>
<time>2010-08-29T08:10:24Z</time>
<desc>lat.=55.934845, lon.=26.530890, Alt.=133.259888m. Speed=15.804000m/h.</desc>
<speed>4.390000</speed>
</trkpt>
<trkpt lat="55.934795" lon="26.530851">
<ele>133.041138</ele>
<time>2010-08-29T08:10:25Z</time>
<desc>lat.=55.934795, lon.=26.530851, Alt.=133.041138m. Speed=17.424000m/h.</desc>
<speed>4.840000</speed>
</trkpt>
<trkpt lat="55.934761" lon="26.530813">
<ele>132.552856</ele>
<time>2010-08-29T08:10:26Z</time>
<desc>lat.=55.934761, lon.=26.530813, Alt.=132.552856m. Speed=16.020000m/h.</desc>
<speed>4.450000</speed>
</trkpt>
<trkpt lat="55.934734" lon="26.530787">
<ele>131.974731</ele>
<time>2010-08-29T08:10:27Z</time>
<desc>lat.=55.934734, lon.=26.530787, Alt.=131.974731m. Speed=12.456000m/h.</desc>
<speed>3.460000</speed>
</trkpt>
<trkpt lat="55.934711" lon="26.530769">
<ele>131.713013</ele>
<time>2010-08-29T08:10:28Z</time>
<desc>lat.=55.934711, lon.=26.530769, Alt.=131.713013m. Speed=10.440000m/h.</desc>
<speed>2.900000</speed>
</trkpt>
<trkpt lat="55.934689" lon="26.530754">
<ele>131.345825</ele>
<time>2010-08-29T08:10:29Z</time>
<desc>lat.=55.934689, lon.=26.530754, Alt.=131.345825m. Speed=9.540000m/h.</desc>
<speed>2.650000</speed>
</trkpt>
<trkpt lat="55.934662" lon="26.530746">
<ele>131.146606</ele>
<time>2010-08-29T08:10:30Z</time>
<desc>lat.=55.934662, lon.=26.530746, Alt.=131.146606m. Speed=9.792000m/h.</desc>
<speed>2.720000</speed>
</trkpt>
<trkpt lat="55.934631" lon="26.530737">
<ele>131.045044</ele>
<time>2010-08-29T08:10:31Z</time>
<desc>lat.=55.934631, lon.=26.530737, Alt.=131.045044m. Speed=12.276000m/h.</desc>
<speed>3.410000</speed>
</trkpt>
<trkpt lat="55.934601" lon="26.530729">
<ele>130.970825</ele>
<time>2010-08-29T08:10:32Z</time>
<desc>lat.=55.934601, lon.=26.530729, Alt.=130.970825m. Speed=13.284000m/h.</desc>
<speed>3.690000</speed>
</trkpt>
<trkpt lat="55.934570" lon="26.530708">
<ele>130.216919</ele>
<time>2010-08-29T08:10:33Z</time>
<desc>lat.=55.934570, lon.=26.530708, Alt.=130.216919m. Speed=12.708000m/h.</desc>
<speed>3.530000</speed>
</trkpt>
<trkpt lat="55.934536" lon="26.530684">
<ele>129.482544</ele>
<time>2010-08-29T08:10:34Z</time>
<desc>lat.=55.934536, lon.=26.530684, Alt.=129.482544m. Speed=13.500000m/h.</desc>
<speed>3.750000</speed>
</trkpt>
<trkpt lat="55.934509" lon="26.530666">
<ele>129.146606</ele>
<time>2010-08-29T08:10:35Z</time>
<desc>lat.=55.934509, lon.=26.530666, Alt.=129.146606m. Speed=12.240000m/h.</desc>
<speed>3.400000</speed>
</trkpt>
<trkpt lat="55.934479" lon="26.530647">
<ele>129.220825</ele>
<time>2010-08-29T08:10:36Z</time>
<desc>lat.=55.934479, lon.=26.530647, Alt.=129.220825m. Speed=13.968000m/h.</desc>
<speed>3.880000</speed>
</trkpt>
<trkpt lat="55.934441" lon="26.530626">
<ele>129.193481</ele>
<time>2010-08-29T08:10:37Z</time>
<desc>lat.=55.934441, lon.=26.530626, Alt.=129.193481m. Speed=14.364000m/h.</desc>
<speed>3.990000</speed>
</trkpt>
<trkpt lat="55.934391" lon="26.530592">
<ele>127.471741</ele>
<time>2010-08-29T08:10:38Z</time>
<desc>lat.=55.934391, lon.=26.530592, Alt.=127.471741m. Speed=17.243999m/h.</desc>
<speed>4.790000</speed>
</trkpt>
<trkpt lat="55.934353" lon="26.530579">
<ele>126.676819</ele>
<time>2010-08-29T08:10:39Z</time>
<desc>lat.=55.934353, lon.=26.530579, Alt.=126.676819m. Speed=16.271999m/h.</desc>
<speed>4.520000</speed>
</trkpt>
<trkpt lat="55.934315" lon="26.530560">
<ele>125.956116</ele>
<time>2010-08-29T08:10:40Z</time>
<desc>lat.=55.934315, lon.=26.530560, Alt.=125.956116m. Speed=16.559999m/h.</desc>
<speed>4.600000</speed>
</trkpt>
<trkpt lat="55.934273" lon="26.530540">
<ele>125.243225</ele>
<time>2010-08-29T08:10:41Z</time>
<desc>lat.=55.934273, lon.=26.530540, Alt.=125.243225m. Speed=17.063999m/h.</desc>
<speed>4.740000</speed>
</trkpt>
<trkpt lat="55.934227" lon="26.530518">
<ele>124.700256</ele>
<time>2010-08-29T08:10:42Z</time>
<desc>lat.=55.934227, lon.=26.530518, Alt.=124.700256m. Speed=17.568001m/h.</desc>
<speed>4.880000</speed>
</trkpt>
<trkpt lat="55.934181" lon="26.530500">
<ele>124.499084</ele>
<time>2010-08-29T08:10:43Z</time>
<desc>lat.=55.934181, lon.=26.530500, Alt.=124.499084m. Speed=17.639999m/h.</desc>
<speed>4.900000</speed>
</trkpt>
<trkpt lat="55.934139" lon="26.530483">
<ele>124.379944</ele>
<time>2010-08-29T08:10:44Z</time>
<desc>lat.=55.934139, lon.=26.530483, Alt.=124.379944m. Speed=17.747999m/h.</desc>
<speed>4.930000</speed>
</trkpt>
<trkpt lat="55.934097" lon="26.530462">
<ele>124.335022</ele>
<time>2010-08-29T08:10:45Z</time>
<desc>lat.=55.934097, lon.=26.530462, Alt.=124.335022m. Speed=17.820000m/h.</desc>
<speed>4.950000</speed>
</trkpt>
<trkpt lat="55.934052" lon="26.530439">
<ele>123.897522</ele>
<time>2010-08-29T08:10:46Z</time>
<desc>lat.=55.934052, lon.=26.530439, Alt.=123.897522m. Speed=18.000000m/h.</desc>
<speed>5.000000</speed>
</trkpt>
<trkpt lat="55.934002" lon="26.530424">
<ele>123.772522</ele>
<time>2010-08-29T08:10:47Z</time>
<desc>lat.=55.934002, lon.=26.530424, Alt.=123.772522m. Speed=18.431999m/h.</desc>
<speed>5.120000</speed>
</trkpt>
<trkpt lat="55.933956" lon="26.530405">
<ele>123.483459</ele>
<time>2010-08-29T08:10:48Z</time>
<desc>lat.=55.933956, lon.=26.530405, Alt.=123.483459m. Speed=18.972000m/h.</desc>
<speed>5.270000</speed>
</trkpt>
<trkpt lat="55.933907" lon="26.530384">
<ele>123.295959</ele>
<time>2010-08-29T08:10:49Z</time>
<desc>lat.=55.933907, lon.=26.530384, Alt.=123.295959m. Speed=18.684000m/h.</desc>
<speed>5.190000</speed>
</trkpt>
<trkpt lat="55.933865" lon="26.530373">
<ele>123.153381</ele>
<time>2010-08-29T08:10:50Z</time>
<desc>lat.=55.933865, lon.=26.530373, Alt.=123.153381m. Speed=17.568001m/h.</desc>
<speed>4.880000</speed>
</trkpt>
<trkpt lat="55.933823" lon="26.530365">
<ele>122.573303</ele>
<time>2010-08-29T08:10:51Z</time>
<desc>lat.=55.933823, lon.=26.530365, Alt.=122.573303m. Speed=15.984000m/h.</desc>
<speed>4.440000</speed>
</trkpt>
<trkpt lat="55.933784" lon="26.530355">
<ele>122.182678</ele>
<time>2010-08-29T08:10:52Z</time>
<desc>lat.=55.933784, lon.=26.530355, Alt.=122.182678m. Speed=15.048000m/h.</desc>
<speed>4.180000</speed>
</trkpt>
<trkpt lat="55.933750" lon="26.530350">
<ele>121.428772</ele>
<time>2010-08-29T08:10:53Z</time>
<desc>lat.=55.933750, lon.=26.530350, Alt.=121.428772m. Speed=14.796000m/h.</desc>
<speed>4.110000</speed>
</trkpt>
<trkpt lat="55.933712" lon="26.530355">
<ele>121.165100</ele>
<time>2010-08-29T08:10:54Z</time>
<desc>lat.=55.933712, lon.=26.530355, Alt.=121.165100m. Speed=14.760000m/h.</desc>
<speed>4.100000</speed>
</trkpt>
<trkpt lat="55.933678" lon="26.530365">
<ele>121.194397</ele>
<time>2010-08-29T08:10:55Z</time>
<desc>lat.=55.933678, lon.=26.530365, Alt.=121.194397m. Speed=13.896000m/h.</desc>
<speed>3.860000</speed>
</trkpt>
<trkpt lat="55.933647" lon="26.530373">
<ele>121.135803</ele>
<time>2010-08-29T08:10:56Z</time>
<desc>lat.=55.933647, lon.=26.530373, Alt.=121.135803m. Speed=12.024000m/h.</desc>
<speed>3.340000</speed>
</trkpt>
<trkpt lat="55.933620" lon="26.530390">
<ele>121.286194</ele>
<time>2010-08-29T08:10:57Z</time>
<desc>lat.=55.933620, lon.=26.530390, Alt.=121.286194m. Speed=11.124000m/h.</desc>
<speed>3.090000</speed>
</trkpt>
<trkpt lat="55.933594" lon="26.530407">
<ele>121.354553</ele>
<time>2010-08-29T08:10:58Z</time>
<desc>lat.=55.933594, lon.=26.530407, Alt.=121.354553m. Speed=11.052000m/h.</desc>
<speed>3.070000</speed>
</trkpt>
<trkpt lat="55.933567" lon="26.530424">
<ele>121.385803</ele>
<time>2010-08-29T08:10:59Z</time>
<desc>lat.=55.933567, lon.=26.530424, Alt.=121.385803m. Speed=11.088000m/h.</desc>
<speed>3.080000</speed>
</trkpt>
<trkpt lat="55.933540" lon="26.530436">
<ele>121.618225</ele>
<time>2010-08-29T08:11:00Z</time>
<desc>lat.=55.933540, lon.=26.530436, Alt.=121.618225m. Speed=11.088000m/h.</desc>
<speed>3.080000</speed>
</trkpt>
<trkpt lat="55.933514" lon="26.530451">
<ele>121.778381</ele>
<time>2010-08-29T08:11:01Z</time>
<desc>lat.=55.933514, lon.=26.530451, Alt.=121.778381m. Speed=10.800000m/h.</desc>
<speed>3.000000</speed>
</trkpt>
<trkpt lat="55.933491" lon="26.530468">
<ele>121.866272</ele>
<time>2010-08-29T08:11:02Z</time>
<desc>lat.=55.933491, lon.=26.530468, Alt.=121.866272m. Speed=10.512000m/h.</desc>
<speed>2.920000</speed>
</trkpt>
<trkpt lat="55.933464" lon="26.530483">
<ele>121.735413</ele>
<time>2010-08-29T08:11:03Z</time>
<desc>lat.=55.933464, lon.=26.530483, Alt.=121.735413m. Speed=10.224000m/h.</desc>
<speed>2.840000</speed>
</trkpt>
<trkpt lat="55.933441" lon="26.530500">
<ele>122.329163</ele>
<time>2010-08-29T08:11:04Z</time>
<desc>lat.=55.933441, lon.=26.530500, Alt.=122.329163m. Speed=10.404000m/h.</desc>
<speed>2.890000</speed>
</trkpt>
<trkpt lat="55.933418" lon="26.530516">
<ele>122.616272</ele>
<time>2010-08-29T08:11:05Z</time>
<desc>lat.=55.933418, lon.=26.530516, Alt.=122.616272m. Speed=9.972000m/h.</desc>
<speed>2.770000</speed>
</trkpt>
<trkpt lat="55.933395" lon="26.530531">
<ele>122.727600</ele>
<time>2010-08-29T08:11:06Z</time>
<desc>lat.=55.933395, lon.=26.530531, Alt.=122.727600m. Speed=9.324000m/h.</desc>
<speed>2.590000</speed>
</trkpt>
<trkpt lat="55.933376" lon="26.530542">
<ele>122.565491</ele>
<time>2010-08-29T08:11:07Z</time>
<desc>lat.=55.933376, lon.=26.530542, Alt.=122.565491m. Speed=8.172000m/h.</desc>
<speed>2.270000</speed>
</trkpt>
<trkpt lat="55.933357" lon="26.530560">
<ele>122.534241</ele>
<time>2010-08-29T08:11:08Z</time>
<desc>lat.=55.933357, lon.=26.530560, Alt.=122.534241m. Speed=7.272000m/h.</desc>
<speed>2.020000</speed>
</trkpt>
<trkpt lat="55.933342" lon="26.530573">
<ele>122.647522</ele>
<time>2010-08-29T08:11:09Z</time>
<desc>lat.=55.933342, lon.=26.530573, Alt.=122.647522m. Speed=6.840000m/h.</desc>
<speed>1.900000</speed>
</trkpt>
<trkpt lat="55.933323" lon="26.530586">
<ele>122.364319</ele>
<time>2010-08-29T08:11:10Z</time>
<desc>lat.=55.933323, lon.=26.530586, Alt.=122.364319m. Speed=8.568000m/h.</desc>
<speed>2.380000</speed>
</trkpt>
<trkpt lat="55.933308" lon="26.530603">
<ele>122.372131</ele>
<time>2010-08-29T08:11:11Z</time>
<desc>lat.=55.933308, lon.=26.530603, Alt.=122.372131m. Speed=8.424000m/h.</desc>
<speed>2.340000</speed>
</trkpt>
<trkpt lat="55.933289" lon="26.530617">
<ele>122.592834</ele>
<time>2010-08-29T08:11:12Z</time>
<desc>lat.=55.933289, lon.=26.530617, Alt.=122.592834m. Speed=8.388000m/h.</desc>
<speed>2.330000</speed>
</trkpt>
<trkpt lat="55.933277" lon="26.530632">
<ele>122.436584</ele>
<time>2010-08-29T08:11:13Z</time>
<desc>lat.=55.933277, lon.=26.530632, Alt.=122.436584m. Speed=7.920000m/h.</desc>
<speed>2.200000</speed>
</trkpt>
<trkpt lat="55.933258" lon="26.530647">
<ele>122.495178</ele>
<time>2010-08-29T08:11:14Z</time>
<desc>lat.=55.933258, lon.=26.530647, Alt.=122.495178m. Speed=7.704000m/h.</desc>
<speed>2.140000</speed>
</trkpt>
<trkpt lat="55.933243" lon="26.530657">
<ele>122.501038</ele>
<time>2010-08-29T08:11:15Z</time>
<desc>lat.=55.933243, lon.=26.530657, Alt.=122.501038m. Speed=8.208000m/h.</desc>
<speed>2.280000</speed>
</trkpt>
<trkpt lat="55.933224" lon="26.530674">
<ele>122.551819</ele>
<time>2010-08-29T08:11:16Z</time>
<desc>lat.=55.933224, lon.=26.530674, Alt.=122.551819m. Speed=8.064000m/h.</desc>
<speed>2.240000</speed>
</trkpt>
<trkpt lat="55.933205" lon="26.530689">
<ele>122.885803</ele>
<time>2010-08-29T08:11:17Z</time>
<desc>lat.=55.933205, lon.=26.530689, Alt.=122.885803m. Speed=8.820000m/h.</desc>
<speed>2.450000</speed>
</trkpt>
<trkpt lat="55.933186" lon="26.530710">
<ele>122.780334</ele>
<time>2010-08-29T08:11:18Z</time>
<desc>lat.=55.933186, lon.=26.530710, Alt.=122.780334m. Speed=8.532000m/h.</desc>
<speed>2.370000</speed>
</trkpt>
<trkpt lat="55.933170" lon="26.530729">
<ele>122.852600</ele>
<time>2010-08-29T08:11:19Z</time>
<desc>lat.=55.933170, lon.=26.530729, Alt.=122.852600m. Speed=8.676000m/h.</desc>
<speed>2.410000</speed>
</trkpt>
<trkpt lat="55.933155" lon="26.530745">
<ele>122.551819</ele>
<time>2010-08-29T08:11:20Z</time>
<desc>lat.=55.933155, lon.=26.530745, Alt.=122.551819m. Speed=8.316000m/h.</desc>
<speed>2.310000</speed>
</trkpt>
<trkpt lat="55.933140" lon="26.530764">
<ele>122.575256</ele>
<time>2010-08-29T08:11:21Z</time>
<desc>lat.=55.933140, lon.=26.530764, Alt.=122.575256m. Speed=7.740000m/h.</desc>
<speed>2.150000</speed>
</trkpt>
<trkpt lat="55.933125" lon="26.530783">
<ele>122.483459</ele>
<time>2010-08-29T08:11:22Z</time>
<desc>lat.=55.933125, lon.=26.530783, Alt.=122.483459m. Speed=7.416000m/h.</desc>
<speed>2.060000</speed>
</trkpt>
<trkpt lat="55.933109" lon="26.530802">
<ele>122.475647</ele>
<time>2010-08-29T08:11:23Z</time>
<desc>lat.=55.933109, lon.=26.530802, Alt.=122.475647m. Speed=7.632000m/h.</desc>
<speed>2.120000</speed>
</trkpt>
<trkpt lat="55.933094" lon="26.530825">
<ele>122.698303</ele>
<time>2010-08-29T08:11:24Z</time>
<desc>lat.=55.933094, lon.=26.530825, Alt.=122.698303m. Speed=8.172000m/h.</desc>
<speed>2.270000</speed>
</trkpt>
<trkpt lat="55.933079" lon="26.530848">
<ele>122.764709</ele>
<time>2010-08-29T08:11:25Z</time>
<desc>lat.=55.933079, lon.=26.530848, Alt.=122.764709m. Speed=8.136000m/h.</desc>
<speed>2.260000</speed>
</trkpt>
<trkpt lat="55.933060" lon="26.530870">
<ele>122.920959</ele>
<time>2010-08-29T08:11:26Z</time>
<desc>lat.=55.933060, lon.=26.530870, Alt.=122.920959m. Speed=8.820000m/h.</desc>
<speed>2.450000</speed>
</trkpt>
<trkpt lat="55.933041" lon="26.530893">
<ele>122.975647</ele>
<time>2010-08-29T08:11:27Z</time>
<desc>lat.=55.933041, lon.=26.530893, Alt.=122.975647m. Speed=8.784000m/h.</desc>
<speed>2.440000</speed>
</trkpt>
<trkpt lat="55.933025" lon="26.530916">
<ele>123.065491</ele>
<time>2010-08-29T08:11:28Z</time>
<desc>lat.=55.933025, lon.=26.530916, Alt.=123.065491m. Speed=8.712000m/h.</desc>
<speed>2.420000</speed>
</trkpt>
<trkpt lat="55.933006" lon="26.530937">
<ele>123.069397</ele>
<time>2010-08-29T08:11:29Z</time>
<desc>lat.=55.933006, lon.=26.530937, Alt.=123.069397m. Speed=9.792000m/h.</desc>
<speed>2.720000</speed>
</trkpt>
<trkpt lat="55.932991" lon="26.530958">
<ele>122.520569</ele>
<time>2010-08-29T08:11:30Z</time>
<desc>lat.=55.932991, lon.=26.530958, Alt.=122.520569m. Speed=9.396000m/h.</desc>
<speed>2.610000</speed>
</trkpt>
<trkpt lat="55.932972" lon="26.530991">
<ele>122.864319</ele>
<time>2010-08-29T08:11:31Z</time>
<desc>lat.=55.932972, lon.=26.530991, Alt.=122.864319m. Speed=9.720000m/h.</desc>
<speed>2.700000</speed>
</trkpt>
<trkpt lat="55.932953" lon="26.531021">
<ele>123.024475</ele>
<time>2010-08-29T08:11:32Z</time>
<desc>lat.=55.932953, lon.=26.531021, Alt.=123.024475m. Speed=9.900000m/h.</desc>
<speed>2.750000</speed>
</trkpt>
<trkpt lat="55.932934" lon="26.531050">
<ele>123.092834</ele>
<time>2010-08-29T08:11:33Z</time>
<desc>lat.=55.932934, lon.=26.531050, Alt.=123.092834m. Speed=10.044000m/h.</desc>
<speed>2.790000</speed>
</trkpt>
<trkpt lat="55.932915" lon="26.531082">
<ele>123.090881</ele>
<time>2010-08-29T08:11:34Z</time>
<desc>lat.=55.932915, lon.=26.531082, Alt.=123.090881m. Speed=10.368000m/h.</desc>
<speed>2.880000</speed>
</trkpt>
<trkpt lat="55.932899" lon="26.531113">
<ele>123.120178</ele>
<time>2010-08-29T08:11:35Z</time>
<desc>lat.=55.932899, lon.=26.531113, Alt.=123.120178m. Speed=9.180000m/h.</desc>
<speed>2.550000</speed>
</trkpt>
<trkpt lat="55.932884" lon="26.531141">
<ele>123.268616</ele>
<time>2010-08-29T08:11:36Z</time>
<desc>lat.=55.932884, lon.=26.531141, Alt.=123.268616m. Speed=7.344000m/h.</desc>
<speed>2.040000</speed>
</trkpt>
<trkpt lat="55.932869" lon="26.531164">
<ele>123.331116</ele>
<time>2010-08-29T08:11:37Z</time>
<desc>lat.=55.932869, lon.=26.531164, Alt.=123.331116m. Speed=7.740000m/h.</desc>
<speed>2.150000</speed>
</trkpt>
<trkpt lat="55.932858" lon="26.531185">
<ele>123.350647</ele>
<time>2010-08-29T08:11:38Z</time>
<desc>lat.=55.932858, lon.=26.531185, Alt.=123.350647m. Speed=7.992000m/h.</desc>
<speed>2.220000</speed>
</trkpt>
<trkpt lat="55.932842" lon="26.531204">
<ele>123.036194</ele>
<time>2010-08-29T08:11:39Z</time>
<desc>lat.=55.932842, lon.=26.531204, Alt.=123.036194m. Speed=8.748000m/h.</desc>
<speed>2.430000</speed>
</trkpt>
<trkpt lat="55.932827" lon="26.531225">
<ele>122.954163</ele>
<time>2010-08-29T08:11:40Z</time>
<desc>lat.=55.932827, lon.=26.531225, Alt.=122.954163m. Speed=8.136000m/h.</desc>
<speed>2.260000</speed>
</trkpt>
<trkpt lat="55.932816" lon="26.531252">
<ele>123.016663</ele>
<time>2010-08-29T08:11:41Z</time>
<desc>lat.=55.932816, lon.=26.531252, Alt.=123.016663m. Speed=9.072000m/h.</desc>
<speed>2.520000</speed>
</trkpt>
<trkpt lat="55.932800" lon="26.531279">
<ele>122.948303</ele>
<time>2010-08-29T08:11:42Z</time>
<desc>lat.=55.932800, lon.=26.531279, Alt.=122.948303m. Speed=9.000000m/h.</desc>
<speed>2.500000</speed>
</trkpt>
<trkpt lat="55.932781" lon="26.531309">
<ele>123.174866</ele>
<time>2010-08-29T08:11:43Z</time>
<desc>lat.=55.932781, lon.=26.531309, Alt.=123.174866m. Speed=8.784000m/h.</desc>
<speed>2.440000</speed>
</trkpt>
<trkpt lat="55.932766" lon="26.531334">
<ele>122.823303</ele>
<time>2010-08-29T08:11:44Z</time>
<desc>lat.=55.932766, lon.=26.531334, Alt.=122.823303m. Speed=8.280000m/h.</desc>
<speed>2.300000</speed>
</trkpt>
<trkpt lat="55.932755" lon="26.531361">
<ele>122.813538</ele>
<time>2010-08-29T08:11:45Z</time>
<desc>lat.=55.932755, lon.=26.531361, Alt.=122.813538m. Speed=8.352000m/h.</desc>
<speed>2.320000</speed>
</trkpt>
<trkpt lat="55.932743" lon="26.531387">
<ele>122.700256</ele>
<time>2010-08-29T08:11:46Z</time>
<desc>lat.=55.932743, lon.=26.531387, Alt.=122.700256m. Speed=8.244000m/h.</desc>
<speed>2.290000</speed>
</trkpt>
<trkpt lat="55.932732" lon="26.531414">
<ele>122.684631</ele>
<time>2010-08-29T08:11:47Z</time>
<desc>lat.=55.932732, lon.=26.531414, Alt.=122.684631m. Speed=8.064000m/h.</desc>
<speed>2.240000</speed>
</trkpt>
<trkpt lat="55.932720" lon="26.531443">
<ele>122.139709</ele>
<time>2010-08-29T08:11:48Z</time>
<desc>lat.=55.932720, lon.=26.531443, Alt.=122.139709m. Speed=8.064000m/h.</desc>
<speed>2.240000</speed>
</trkpt>
<trkpt lat="55.932713" lon="26.531462">
<ele>121.461975</ele>
<time>2010-08-29T08:11:49Z</time>
<desc>lat.=55.932713, lon.=26.531462, Alt.=121.461975m. Speed=7.632000m/h.</desc>
<speed>2.120000</speed>
</trkpt>
<trkpt lat="55.932701" lon="26.531488">
<ele>121.450256</ele>
<time>2010-08-29T08:11:50Z</time>
<desc>lat.=55.932701, lon.=26.531488, Alt.=121.450256m. Speed=7.560000m/h.</desc>
<speed>2.100000</speed>
</trkpt>
<trkpt lat="55.932690" lon="26.531513">
<ele>121.854553</ele>
<time>2010-08-29T08:11:51Z</time>
<desc>lat.=55.932690, lon.=26.531513, Alt.=121.854553m. Speed=7.884000m/h.</desc>
<speed>2.190000</speed>
</trkpt>
<trkpt lat="55.932674" lon="26.531536">
<ele>122.106506</ele>
<time>2010-08-29T08:11:52Z</time>
<desc>lat.=55.932674, lon.=26.531536, Alt.=122.106506m. Speed=7.848000m/h.</desc>
<speed>2.180000</speed>
</trkpt>
<trkpt lat="55.932663" lon="26.531553">
<ele>122.094788</ele>
<time>2010-08-29T08:11:53Z</time>
<desc>lat.=55.932663, lon.=26.531553, Alt.=122.094788m. Speed=6.444000m/h.</desc>
<speed>1.790000</speed>
</trkpt>
<trkpt lat="55.932652" lon="26.531567">
<ele>122.045959</ele>
<time>2010-08-29T08:11:54Z</time>
<desc>lat.=55.932652, lon.=26.531567, Alt.=122.045959m. Speed=5.256000m/h.</desc>
<speed>1.460000</speed>
</trkpt>
<trkpt lat="55.932640" lon="26.531580">
<ele>121.903381</ele>
<time>2010-08-29T08:11:55Z</time>
<desc>lat.=55.932640, lon.=26.531580, Alt.=121.903381m. Speed=4.608000m/h.</desc>
<speed>1.280000</speed>
</trkpt>
<trkpt lat="55.932632" lon="26.531591">
<ele>121.919006</ele>
<time>2010-08-29T08:11:56Z</time>
<desc>lat.=55.932632, lon.=26.531591, Alt.=121.919006m. Speed=3.600000m/h.</desc>
<speed>1.000000</speed>
</trkpt>
<trkpt lat="55.932629" lon="26.531599">
<ele>122.088928</ele>
<time>2010-08-29T08:11:57Z</time>
<desc>lat.=55.932629, lon.=26.531599, Alt.=122.088928m. Speed=0.900000m/h.</desc>
<speed>0.250000</speed>
</trkpt>
<trkpt lat="55.932629" lon="26.531601">
<ele>122.198303</ele>
<time>2010-08-29T08:11:58Z</time>
<desc>lat.=55.932629, lon.=26.531601, Alt.=122.198303m. Speed=0.144000m/h.</desc>
<speed>0.040000</speed>
</trkpt>
<trkpt lat="55.932629" lon="26.531601">
<ele>122.288147</ele>
<time>2010-08-29T08:11:59Z</time>
<desc>lat.=55.932629, lon.=26.531601, Alt.=122.288147m. Speed=0.612000m/h.</desc>
<speed>0.170000</speed>
</trkpt>
<trkpt lat="55.932629" lon="26.531601">
<ele>122.127991</ele>
<time>2010-08-29T08:12:00Z</time>
<desc>lat.=55.932629, lon.=26.531601, Alt.=122.127991m. Speed=0.180000m/h.</desc>
<speed>0.050000</speed>
</trkpt>
<trkpt lat="55.932632" lon="26.531603">
<ele>122.127991</ele>
<time>2010-08-29T08:12:01Z</time>
<desc>lat.=55.932632, lon.=26.531603, Alt.=122.127991m. Speed=0.612000m/h.</desc>
<speed>0.170000</speed>
</trkpt>
<trkpt lat="55.932632" lon="26.531605">
<ele>122.143616</ele>
<time>2010-08-29T08:12:02Z</time>
<desc>lat.=55.932632, lon.=26.531605, Alt.=122.143616m. Speed=0.756000m/h.</desc>
<speed>0.210000</speed>
</trkpt>
<trkpt lat="55.932632" lon="26.531609">
<ele>122.149475</ele>
<time>2010-08-29T08:12:03Z</time>
<desc>lat.=55.932632, lon.=26.531609, Alt.=122.149475m. Speed=0.720000m/h.</desc>
<speed>0.200000</speed>
</trkpt>
<trkpt lat="55.932632" lon="26.531610">
<ele>122.155334</ele>
<time>2010-08-29T08:12:04Z</time>
<desc>lat.=55.932632, lon.=26.531610, Alt.=122.155334m. Speed=0.324000m/h.</desc>
<speed>0.090000</speed>
</trkpt>
<trkpt lat="55.932632" lon="26.531612">
<ele>122.161194</ele>
<time>2010-08-29T08:12:05Z</time>
<desc>lat.=55.932632, lon.=26.531612, Alt.=122.161194m. Speed=0.324000m/h.</desc>
<speed>0.090000</speed>
</trkpt>
<trkpt lat="55.932632" lon="26.531614">
<ele>122.167053</ele>
<time>2010-08-29T08:12:06Z</time>
<desc>lat.=55.932632, lon.=26.531614, Alt.=122.167053m. Speed=0.180000m/h.</desc>
<speed>0.050000</speed>
</trkpt>
<trkpt lat="55.932632" lon="26.531614">
<ele>122.170959</ele>
<time>2010-08-29T08:12:07Z</time>
<desc>lat.=55.932632, lon.=26.531614, Alt.=122.170959m. Speed=0.036000m/h.</desc>
<speed>0.010000</speed>
</trkpt>
<trkpt lat="55.932632" lon="26.531614">
<ele>122.174866</ele>
<time>2010-08-29T08:12:08Z</time>
<desc>lat.=55.932632, lon.=26.531614, Alt.=122.174866m. Speed=0.432000m/h.</desc>
<speed>0.120000</speed>
</trkpt>
<trkpt lat="55.932632" lon="26.531616">
<ele>122.178772</ele>
<time>2010-08-29T08:12:09Z</time>
<desc>lat.=55.932632, lon.=26.531616, Alt.=122.178772m. Speed=0.396000m/h.</desc>
<speed>0.110000</speed>
</trkpt>
<trkpt lat="55.932632" lon="26.531618">
<ele>122.184631</ele>
<time>2010-08-29T08:12:10Z</time>
<desc>lat.=55.932632, lon.=26.531618, Alt.=122.184631m. Speed=0.720000m/h.</desc>
<speed>0.200000</speed>
</trkpt>
<trkpt lat="55.932632" lon="26.531620">
<ele>122.186584</ele>
<time>2010-08-29T08:12:11Z</time>
<desc>lat.=55.932632, lon.=26.531620, Alt.=122.186584m. Speed=0.288000m/h.</desc>
<speed>0.080000</speed>
</trkpt>
<trkpt lat="55.932632" lon="26.531622">
<ele>122.190491</ele>
<time>2010-08-29T08:12:12Z</time>
<desc>lat.=55.932632, lon.=26.531622, Alt.=122.190491m. Speed=0.216000m/h.</desc>
<speed>0.060000</speed>
</trkpt>
<trkpt lat="55.932636" lon="26.531622">
<ele>122.194397</ele>
<time>2010-08-29T08:12:13Z</time>
<desc>lat.=55.932636, lon.=26.531622, Alt.=122.194397m. Speed=0.216000m/h.</desc>
<speed>0.060000</speed>
</trkpt>
<trkpt lat="55.932636" lon="26.531624">
<ele>122.198303</ele>
<time>2010-08-29T08:12:14Z</time>
<desc>lat.=55.932636, lon.=26.531624, Alt.=122.198303m. Speed=0.036000m/h.</desc>
<speed>0.010000</speed>
</trkpt>
<trkpt lat="55.932636" lon="26.531624">
<ele>122.202209</ele>
<time>2010-08-29T08:12:15Z</time>
<desc>lat.=55.932636, lon.=26.531624, Alt.=122.202209m. Speed=0.180000m/h.</desc>
<speed>0.050000</speed>
</trkpt>
<trkpt lat="55.932632" lon="26.531624">
<ele>122.208069</ele>
<time>2010-08-29T08:12:16Z</time>
<desc>lat.=55.932632, lon.=26.531624, Alt.=122.208069m. Speed=0.072000m/h.</desc>
<speed>0.020000</speed>
</trkpt>
<trkpt lat="55.932632" lon="26.531624">
<ele>122.213928</ele>
<time>2010-08-29T08:12:17Z</time>
<desc>lat.=55.932632, lon.=26.531624, Alt.=122.213928m. Speed=0.144000m/h.</desc>
<speed>0.040000</speed>
</trkpt>
<trkpt lat="55.932632" lon="26.531624">
<ele>122.217834</ele>
<time>2010-08-29T08:12:18Z</time>
<desc>lat.=55.932632, lon.=26.531624, Alt.=122.217834m. Speed=0.036000m/h.</desc>
<speed>0.010000</speed>
</trkpt>
<trkpt lat="55.932632" lon="26.531624">
<ele>122.221741</ele>
<time>2010-08-29T08:12:19Z</time>
<desc>lat.=55.932632, lon.=26.531624, Alt.=122.221741m. Speed=0.108000m/h.</desc>
<speed>0.030000</speed>
</trkpt>
<trkpt lat="55.932632" lon="26.531624">
<ele>122.219788</ele>
<time>2010-08-29T08:12:20Z</time>
<desc>lat.=55.932632, lon.=26.531624, Alt.=122.219788m. Speed=0.432000m/h.</desc>
<speed>0.120000</speed>
</trkpt>
<trkpt lat="55.932636" lon="26.531626">
<ele>122.215881</ele>
<time>2010-08-29T08:12:21Z</time>
<desc>lat.=55.932636, lon.=26.531626, Alt.=122.215881m. Speed=0.432000m/h.</desc>
<speed>0.120000</speed>
</trkpt>
<trkpt lat="55.932636" lon="26.531628">
<ele>122.217834</ele>
<time>2010-08-29T08:12:22Z</time>
<desc>lat.=55.932636, lon.=26.531628, Alt.=122.217834m. Speed=0.108000m/h.</desc>
<speed>0.030000</speed>
</trkpt>
<trkpt lat="55.932636" lon="26.531626">
<ele>122.235413</ele>
<time>2010-08-29T08:12:23Z</time>
<desc>lat.=55.932636, lon.=26.531626, Alt.=122.235413m. Speed=0.036000m/h.</desc>
<speed>0.010000</speed>
</trkpt>
<trkpt lat="55.932636" lon="26.531626">
<ele>122.252991</ele>
<time>2010-08-29T08:12:24Z</time>
<desc>lat.=55.932636, lon.=26.531626, Alt.=122.252991m. Speed=0.000000m/h.</desc>
<speed>0.000000</speed>
</trkpt>
<trkpt lat="55.932636" lon="26.531626">
<ele>122.272522</ele>
<time>2010-08-29T08:12:25Z</time>
<desc>lat.=55.932636, lon.=26.531626, Alt.=122.272522m. Speed=0.108000m/h.</desc>
<speed>0.030000</speed>
</trkpt>
<trkpt lat="55.932636" lon="26.531628">
<ele>122.288147</ele>
<time>2010-08-29T08:12:26Z</time>
<desc>lat.=55.932636, lon.=26.531628, Alt.=122.288147m. Speed=0.108000m/h.</desc>
<speed>0.030000</speed>
</trkpt>
<trkpt lat="55.932636" lon="26.531628">
<ele>122.292053</ele>
<time>2010-08-29T08:12:27Z</time>
<desc>lat.=55.932636, lon.=26.531628, Alt.=122.292053m. Speed=0.036000m/h.</desc>
<speed>0.010000</speed>
</trkpt>
<trkpt lat="55.932636" lon="26.531628">
<ele>122.301819</ele>
<time>2010-08-29T08:12:28Z</time>
<desc>lat.=55.932636, lon.=26.531628, Alt.=122.301819m. Speed=0.108000m/h.</desc>
<speed>0.030000</speed>
</trkpt>
<trkpt lat="55.932636" lon="26.531628">
<ele>122.307678</ele>
<time>2010-08-29T08:12:29Z</time>
<desc>lat.=55.932636, lon.=26.531628, Alt.=122.307678m. Speed=0.000000m/h.</desc>
<speed>0.000000</speed>
</trkpt>
<trkpt lat="55.932636" lon="26.531628">
<ele>122.313538</ele>
<time>2010-08-29T08:12:30Z</time>
<desc>lat.=55.932636, lon.=26.531628, Alt.=122.313538m. Speed=0.180000m/h.</desc>
<speed>0.050000</speed>
</trkpt>
<trkpt lat="55.932636" lon="26.531630">
<ele>122.319397</ele>
<time>2010-08-29T08:12:31Z</time>
<desc>lat.=55.932636, lon.=26.531630, Alt.=122.319397m. Speed=0.072000m/h.</desc>
<speed>0.020000</speed>
</trkpt>
<trkpt lat="55.932636" lon="26.531630">
<ele>122.333069</ele>
<time>2010-08-29T08:12:32Z</time>
<desc>lat.=55.932636, lon.=26.531630, Alt.=122.333069m. Speed=0.072000m/h.</desc>
<speed>0.020000</speed>
</trkpt>
<trkpt lat="55.932636" lon="26.531628">
<ele>122.331116</ele>
<time>2010-08-29T08:12:33Z</time>
<desc>lat.=55.932636, lon.=26.531628, Alt.=122.331116m. Speed=0.108000m/h.</desc>
<speed>0.030000</speed>
</trkpt>
<trkpt lat="55.932636" lon="26.531628">
<ele>122.321350</ele>
<time>2010-08-29T08:12:34Z</time>
<desc>lat.=55.932636, lon.=26.531628, Alt.=122.321350m. Speed=0.108000m/h.</desc>
<speed>0.030000</speed>
</trkpt>
<trkpt lat="55.932636" lon="26.531628">
<ele>122.303772</ele>
<time>2010-08-29T08:12:35Z</time>
<desc>lat.=55.932636, lon.=26.531628, Alt.=122.303772m. Speed=0.144000m/h.</desc>
<speed>0.040000</speed>
</trkpt>
<trkpt lat="55.932636" lon="26.531628">
<ele>122.290100</ele>
<time>2010-08-29T08:12:36Z</time>
<desc>lat.=55.932636, lon.=26.531628, Alt.=122.290100m. Speed=0.000000m/h.</desc>
<speed>0.000000</speed>
</trkpt>
<trkpt lat="55.932636" lon="26.531628">
<ele>122.280334</ele>
<time>2010-08-29T08:12:37Z</time>
<desc>lat.=55.932636, lon.=26.531628, Alt.=122.280334m. Speed=0.072000m/h.</desc>
<speed>0.020000</speed>
</trkpt>
<trkpt lat="55.932636" lon="26.531628">
<ele>122.274475</ele>
<time>2010-08-29T08:12:38Z</time>
<desc>lat.=55.932636, lon.=26.531628, Alt.=122.274475m. Speed=0.072000m/h.</desc>
<speed>0.020000</speed>
</trkpt>
<trkpt lat="55.932636" lon="26.531630">
<ele>122.266663</ele>
<time>2010-08-29T08:12:39Z</time>
<desc>lat.=55.932636, lon.=26.531630, Alt.=122.266663m. Speed=0.108000m/h.</desc>
<speed>0.030000</speed>
</trkpt>
<trkpt lat="55.932636" lon="26.531630">
<ele>122.262756</ele>
<time>2010-08-29T08:12:40Z</time>
<desc>lat.=55.932636, lon.=26.531630, Alt.=122.262756m. Speed=0.072000m/h.</desc>
<speed>0.020000</speed>
</trkpt>
<trkpt lat="55.932636" lon="26.531630">
<ele>122.252991</ele>
<time>2010-08-29T08:12:41Z</time>
<desc>lat.=55.932636, lon.=26.531630, Alt.=122.252991m. Speed=0.072000m/h.</desc>
<speed>0.020000</speed>
</trkpt>
<trkpt lat="55.932636" lon="26.531630">
<ele>122.243225</ele>
<time>2010-08-29T08:12:42Z</time>
<desc>lat.=55.932636, lon.=26.531630, Alt.=122.243225m. Speed=0.000000m/h.</desc>
<speed>0.000000</speed>
</trkpt>
<trkpt lat="55.932636" lon="26.531630">
<ele>122.243225</ele>
<time>2010-08-29T08:12:43Z</time>
<desc>lat.=55.932636, lon.=26.531630, Alt.=122.243225m. Speed=0.108000m/h.</desc>
<speed>0.030000</speed>
</trkpt>
<trkpt lat="55.932636" lon="26.531630">
<ele>122.245178</ele>
<time>2010-08-29T08:12:44Z</time>
<desc>lat.=55.932636, lon.=26.531630, Alt.=122.245178m. Speed=0.216000m/h.</desc>
<speed>0.060000</speed>
</trkpt>
<trkpt lat="55.932636" lon="26.531631">
<ele>122.251038</ele>
<time>2010-08-29T08:12:45Z</time>
<desc>lat.=55.932636, lon.=26.531631, Alt.=122.251038m. Speed=0.180000m/h.</desc>
<speed>0.050000</speed>
</trkpt>
<trkpt lat="55.932636" lon="26.531631">
<ele>122.264709</ele>
<time>2010-08-29T08:12:46Z</time>
<desc>lat.=55.932636, lon.=26.531631, Alt.=122.264709m. Speed=0.000000m/h.</desc>
<speed>0.000000</speed>
</trkpt>
<trkpt lat="55.932636" lon="26.531631">
<ele>122.292053</ele>
<time>2010-08-29T08:12:47Z</time>
<desc>lat.=55.932636, lon.=26.531631, Alt.=122.292053m. Speed=0.036000m/h.</desc>
<speed>0.010000</speed>
</trkpt>
<trkpt lat="55.932636" lon="26.531631">
<ele>122.294006</ele>
<time>2010-08-29T08:12:48Z</time>
<desc>lat.=55.932636, lon.=26.531631, Alt.=122.294006m. Speed=0.036000m/h.</desc>
<speed>0.010000</speed>
</trkpt>
<trkpt lat="55.932636" lon="26.531631">
<ele>122.282288</ele>
<time>2010-08-29T08:12:49Z</time>
<desc>lat.=55.932636, lon.=26.531631, Alt.=122.282288m. Speed=0.144000m/h.</desc>
<speed>0.040000</speed>
</trkpt>
<trkpt lat="55.932636" lon="26.531631">
<ele>122.264709</ele>
<time>2010-08-29T08:12:50Z</time>
<desc>lat.=55.932636, lon.=26.531631, Alt.=122.264709m. Speed=0.036000m/h.</desc>
<speed>0.010000</speed>
</trkpt>
<trkpt lat="55.932636" lon="26.531631">
<ele>122.247131</ele>
<time>2010-08-29T08:12:51Z</time>
<desc>lat.=55.932636, lon.=26.531631, Alt.=122.247131m. Speed=0.036000m/h.</desc>
<speed>0.010000</speed>
</trkpt>
<trkpt lat="55.932636" lon="26.531631">
<ele>122.233459</ele>
<time>2010-08-29T08:12:52Z</time>
<desc>lat.=55.932636, lon.=26.531631, Alt.=122.233459m. Speed=0.036000m/h.</desc>
<speed>0.010000</speed>
</trkpt>
<trkpt lat="55.932636" lon="26.531631">
<ele>122.223694</ele>
<time>2010-08-29T08:12:53Z</time>
<desc>lat.=55.932636, lon.=26.531631, Alt.=122.223694m. Speed=0.000000m/h.</desc>
<speed>0.000000</speed>
</trkpt>
<trkpt lat="55.932636" lon="26.531631">
<ele>122.223694</ele>
<time>2010-08-29T08:12:54Z</time>
<desc>lat.=55.932636, lon.=26.531631, Alt.=122.223694m. Speed=0.036000m/h.</desc>
<speed>0.010000</speed>
</trkpt>
<trkpt lat="55.932636" lon="26.531631">
<ele>122.215881</ele>
<time>2010-08-29T08:12:55Z</time>
<desc>lat.=55.932636, lon.=26.531631, Alt.=122.215881m. Speed=0.036000m/h.</desc>
<speed>0.010000</speed>
</trkpt>
<trkpt lat="55.932636" lon="26.531631">
<ele>122.233459</ele>
<time>2010-08-29T08:12:56Z</time>
<desc>lat.=55.932636, lon.=26.531631, Alt.=122.233459m. Speed=0.000000m/h.</desc>
<speed>0.000000</speed>
</trkpt>
<trkpt lat="55.932636" lon="26.531631">
<ele>122.245178</ele>
<time>2010-08-29T08:12:57Z</time>
<desc>lat.=55.932636, lon.=26.531631, Alt.=122.245178m. Speed=0.036000m/h.</desc>
<speed>0.010000</speed>
</trkpt>
<trkpt lat="55.932636" lon="26.531633">
<ele>122.260803</ele>
<time>2010-08-29T08:12:58Z</time>
<desc>lat.=55.932636, lon.=26.531633, Alt.=122.260803m. Speed=0.288000m/h.</desc>
<speed>0.080000</speed>
</trkpt>
<trkpt lat="55.932636" lon="26.531633">
<ele>122.278381</ele>
<time>2010-08-29T08:12:59Z</time>
<desc>lat.=55.932636, lon.=26.531633, Alt.=122.278381m. Speed=0.144000m/h.</desc>
<speed>0.040000</speed>
</trkpt>
<trkpt lat="55.932636" lon="26.531635">
<ele>122.292053</ele>
<time>2010-08-29T08:13:00Z</time>
<desc>lat.=55.932636, lon.=26.531635, Alt.=122.292053m. Speed=0.144000m/h.</desc>
<speed>0.040000</speed>
</trkpt>
<trkpt lat="55.932636" lon="26.531635">
<ele>122.301819</ele>
<time>2010-08-29T08:13:01Z</time>
<desc>lat.=55.932636, lon.=26.531635, Alt.=122.301819m. Speed=0.036000m/h.</desc>
<speed>0.010000</speed>
</trkpt>
<trkpt lat="55.932636" lon="26.531635">
<ele>122.309631</ele>
<time>2010-08-29T08:13:02Z</time>
<desc>lat.=55.932636, lon.=26.531635, Alt.=122.309631m. Speed=0.036000m/h.</desc>
<speed>0.010000</speed>
</trkpt>
<trkpt lat="55.932636" lon="26.531635">
<ele>122.313538</ele>
<time>2010-08-29T08:13:03Z</time>
<desc>lat.=55.932636, lon.=26.531635, Alt.=122.313538m. Speed=0.144000m/h.</desc>
<speed>0.040000</speed>
</trkpt>
<trkpt lat="55.932636" lon="26.531637">
<ele>122.319397</ele>
<time>2010-08-29T08:13:04Z</time>
<desc>lat.=55.932636, lon.=26.531637, Alt.=122.319397m. Speed=0.180000m/h.</desc>
<speed>0.050000</speed>
</trkpt>
<trkpt lat="55.932636" lon="26.531635">
<ele>122.323303</ele>
<time>2010-08-29T08:13:05Z</time>
<desc>lat.=55.932636, lon.=26.531635, Alt.=122.323303m. Speed=0.036000m/h.</desc>
<speed>0.010000</speed>
</trkpt>
<trkpt lat="55.932636" lon="26.531635">
<ele>122.327209</ele>
<time>2010-08-29T08:13:06Z</time>
<desc>lat.=55.932636, lon.=26.531635, Alt.=122.327209m. Speed=0.072000m/h.</desc>
<speed>0.020000</speed>
</trkpt>
<trkpt lat="55.932636" lon="26.531637">
<ele>122.333069</ele>
<time>2010-08-29T08:13:07Z</time>
<desc>lat.=55.932636, lon.=26.531637, Alt.=122.333069m. Speed=0.108000m/h.</desc>
<speed>0.030000</speed>
</trkpt>
<trkpt lat="55.932636" lon="26.531635">
<ele>122.336975</ele>
<time>2010-08-29T08:13:08Z</time>
<desc>lat.=55.932636, lon.=26.531635, Alt.=122.336975m. Speed=0.180000m/h.</desc>
<speed>0.050000</speed>
</trkpt>
<trkpt lat="55.932636" lon="26.531635">
<ele>122.338928</ele>
<time>2010-08-29T08:13:09Z</time>
<desc>lat.=55.932636, lon.=26.531635, Alt.=122.338928m. Speed=0.252000m/h.</desc>
<speed>0.070000</speed>
</trkpt>
<trkpt lat="55.932636" lon="26.531633">
<ele>122.338928</ele>
<time>2010-08-29T08:13:10Z</time>
<desc>lat.=55.932636, lon.=26.531633, Alt.=122.338928m. Speed=0.252000m/h.</desc>
<speed>0.070000</speed>
</trkpt>
<trkpt lat="55.932636" lon="26.531633">
<ele>122.331116</ele>
<time>2010-08-29T08:13:11Z</time>
<desc>lat.=55.932636, lon.=26.531633, Alt.=122.331116m. Speed=0.108000m/h.</desc>
<speed>0.030000</speed>
</trkpt>
<trkpt lat="55.932636" lon="26.531633">
<ele>122.317444</ele>
<time>2010-08-29T08:13:12Z</time>
<desc>lat.=55.932636, lon.=26.531633, Alt.=122.317444m. Speed=0.036000m/h.</desc>
<speed>0.010000</speed>
</trkpt>
<trkpt lat="55.932636" lon="26.531633">
<ele>122.323303</ele>
<time>2010-08-29T08:13:13Z</time>
<desc>lat.=55.932636, lon.=26.531633, Alt.=122.323303m. Speed=0.144000m/h.</desc>
<speed>0.040000</speed>
</trkpt>
<trkpt lat="55.932636" lon="26.531633">
<ele>122.305725</ele>
<time>2010-08-29T08:13:14Z</time>
<desc>lat.=55.932636, lon.=26.531633, Alt.=122.305725m. Speed=0.108000m/h.</desc>
<speed>0.030000</speed>
</trkpt>
<trkpt lat="55.932636" lon="26.531633">
<ele>122.295959</ele>
<time>2010-08-29T08:13:15Z</time>
<desc>lat.=55.932636, lon.=26.531633, Alt.=122.295959m. Speed=0.180000m/h.</desc>
<speed>0.050000</speed>
</trkpt>
<trkpt lat="55.932636" lon="26.531633">
<ele>122.256897</ele>
<time>2010-08-29T08:13:16Z</time>
<desc>lat.=55.932636, lon.=26.531633, Alt.=122.256897m. Speed=0.252000m/h.</desc>
<speed>0.070000</speed>
</trkpt>
<trkpt lat="55.932636" lon="26.531631">
<ele>122.210022</ele>
<time>2010-08-29T08:13:17Z</time>
<desc>lat.=55.932636, lon.=26.531631, Alt.=122.210022m. Speed=0.072000m/h.</desc>
<speed>0.020000</speed>
</trkpt>
<trkpt lat="55.932636" lon="26.531631">
<ele>122.196350</ele>
<time>2010-08-29T08:13:18Z</time>
<desc>lat.=55.932636, lon.=26.531631, Alt.=122.196350m. Speed=0.180000m/h.</desc>
<speed>0.050000</speed>
</trkpt>
<trkpt lat="55.932636" lon="26.531631">
<ele>122.180725</ele>
<time>2010-08-29T08:13:19Z</time>
<desc>lat.=55.932636, lon.=26.531631, Alt.=122.180725m. Speed=0.216000m/h.</desc>
<speed>0.060000</speed>
</trkpt>
<trkpt lat="55.932636" lon="26.531630">
<ele>122.137756</ele>
<time>2010-08-29T08:13:20Z</time>
<desc>lat.=55.932636, lon.=26.531630, Alt.=122.137756m. Speed=0.252000m/h.</desc>
<speed>0.070000</speed>
</trkpt>
<trkpt lat="55.932636" lon="26.531630">
<ele>122.092834</ele>
<time>2010-08-29T08:13:21Z</time>
<desc>lat.=55.932636, lon.=26.531630, Alt.=122.092834m. Speed=0.216000m/h.</desc>
<speed>0.060000</speed>
</trkpt>
<trkpt lat="55.932636" lon="26.531628">
<ele>122.036194</ele>
<time>2010-08-29T08:13:22Z</time>
<desc>lat.=55.932636, lon.=26.531628, Alt.=122.036194m. Speed=0.180000m/h.</desc>
<speed>0.050000</speed>
</trkpt>
<trkpt lat="55.932636" lon="26.531628">
<ele>122.006897</ele>
<time>2010-08-29T08:13:23Z</time>
<desc>lat.=55.932636, lon.=26.531628, Alt.=122.006897m. Speed=0.108000m/h.</desc>
<speed>0.030000</speed>
</trkpt>
<trkpt lat="55.932636" lon="26.531628">
<ele>121.999084</ele>
<time>2010-08-29T08:13:24Z</time>
<desc>lat.=55.932636, lon.=26.531628, Alt.=121.999084m. Speed=0.252000m/h.</desc>
<speed>0.070000</speed>
</trkpt>
<trkpt lat="55.932636" lon="26.531628">
<ele>121.993225</ele>
<time>2010-08-29T08:13:25Z</time>
<desc>lat.=55.932636, lon.=26.531628, Alt.=121.993225m. Speed=0.144000m/h.</desc>
<speed>0.040000</speed>
</trkpt>
<trkpt lat="55.932636" lon="26.531626">
<ele>121.991272</ele>
<time>2010-08-29T08:13:26Z</time>
<desc>lat.=55.932636, lon.=26.531626, Alt.=121.991272m. Speed=0.036000m/h.</desc>
<speed>0.010000</speed>
</trkpt>
<trkpt lat="55.932636" lon="26.531626">
<ele>121.991272</ele>
<time>2010-08-29T08:13:27Z</time>
<desc>lat.=55.932636, lon.=26.531626, Alt.=121.991272m. Speed=0.036000m/h.</desc>
<speed>0.010000</speed>
</trkpt>
<trkpt lat="55.932636" lon="26.531626">
<ele>121.987366</ele>
<time>2010-08-29T08:13:28Z</time>
<desc>lat.=55.932636, lon.=26.531626, Alt.=121.987366m. Speed=0.036000m/h.</desc>
<speed>0.010000</speed>
</trkpt>
<trkpt lat="55.932636" lon="26.531626">
<ele>121.985413</ele>
<time>2010-08-29T08:13:29Z</time>
<desc>lat.=55.932636, lon.=26.531626, Alt.=121.985413m. Speed=0.036000m/h.</desc>
<speed>0.010000</speed>
</trkpt>
<trkpt lat="55.932636" lon="26.531626">
<ele>121.983459</ele>
<time>2010-08-29T08:13:30Z</time>
<desc>lat.=55.932636, lon.=26.531626, Alt.=121.983459m. Speed=0.000000m/h.</desc>
<speed>0.000000</speed>
</trkpt>
<trkpt lat="55.932636" lon="26.531626">
<ele>121.985413</ele>
<time>2010-08-29T08:13:31Z</time>
<desc>lat.=55.932636, lon.=26.531626, Alt.=121.985413m. Speed=0.036000m/h.</desc>
<speed>0.010000</speed>
</trkpt>
<trkpt lat="55.932636" lon="26.531626">
<ele>121.981506</ele>
<time>2010-08-29T08:13:32Z</time>
<desc>lat.=55.932636, lon.=26.531626, Alt.=121.981506m. Speed=0.000000m/h.</desc>
<speed>0.000000</speed>
</trkpt>
<trkpt lat="55.932636" lon="26.531626">
<ele>121.977600</ele>
<time>2010-08-29T08:13:33Z</time>
<desc>lat.=55.932636, lon.=26.531626, Alt.=121.977600m. Speed=0.036000m/h.</desc>
<speed>0.010000</speed>
</trkpt>
<trkpt lat="55.932636" lon="26.531626">
<ele>121.979553</ele>
<time>2010-08-29T08:13:34Z</time>
<desc>lat.=55.932636, lon.=26.531626, Alt.=121.979553m. Speed=0.036000m/h.</desc>
<speed>0.010000</speed>
</trkpt>
<trkpt lat="55.932636" lon="26.531626">
<ele>121.983459</ele>
<time>2010-08-29T08:13:35Z</time>
<desc>lat.=55.932636, lon.=26.531626, Alt.=121.983459m. Speed=0.036000m/h.</desc>
<speed>0.010000</speed>
</trkpt>
<trkpt lat="55.932636" lon="26.531626">
<ele>121.993225</ele>
<time>2010-08-29T08:13:36Z</time>
<desc>lat.=55.932636, lon.=26.531626, Alt.=121.993225m. Speed=0.072000m/h.</desc>
<speed>0.020000</speed>
</trkpt>
<trkpt lat="55.932636" lon="26.531628">
<ele>122.006897</ele>
<time>2010-08-29T08:13:37Z</time>
<desc>lat.=55.932636, lon.=26.531628, Alt.=122.006897m. Speed=0.072000m/h.</desc>
<speed>0.020000</speed>
</trkpt>
<trkpt lat="55.932636" lon="26.531628">
<ele>122.020569</ele>
<time>2010-08-29T08:13:38Z</time>
<desc>lat.=55.932636, lon.=26.531628, Alt.=122.020569m. Speed=0.180000m/h.</desc>
<speed>0.050000</speed>
</trkpt>
<trkpt lat="55.932636" lon="26.531628">
<ele>122.032288</ele>
<time>2010-08-29T08:13:39Z</time>
<desc>lat.=55.932636, lon.=26.531628, Alt.=122.032288m. Speed=0.072000m/h.</desc>
<speed>0.020000</speed>
</trkpt>
<trkpt lat="55.932636" lon="26.531628">
<ele>122.040100</ele>
<time>2010-08-29T08:13:40Z</time>
<desc>lat.=55.932636, lon.=26.531628, Alt.=122.040100m. Speed=0.000000m/h.</desc>
<speed>0.000000</speed>
</trkpt>
<trkpt lat="55.932636" lon="26.531628">
<ele>122.045959</ele>
<time>2010-08-29T08:13:41Z</time>
<desc>lat.=55.932636, lon.=26.531628, Alt.=122.045959m. Speed=0.000000m/h.</desc>
<speed>0.000000</speed>
</trkpt>
<trkpt lat="55.932636" lon="26.531628">
<ele>122.047913</ele>
<time>2010-08-29T08:13:42Z</time>
<desc>lat.=55.932636, lon.=26.531628, Alt.=122.047913m. Speed=0.036000m/h.</desc>
<speed>0.010000</speed>
</trkpt>
<trkpt lat="55.932636" lon="26.531628">
<ele>122.047913</ele>
<time>2010-08-29T08:13:43Z</time>
<desc>lat.=55.932636, lon.=26.531628, Alt.=122.047913m. Speed=0.036000m/h.</desc>
<speed>0.010000</speed>
</trkpt>
<trkpt lat="55.932636" lon="26.531628">
<ele>122.045959</ele>
<time>2010-08-29T08:13:44Z</time>
<desc>lat.=55.932636, lon.=26.531628, Alt.=122.045959m. Speed=0.036000m/h.</desc>
<speed>0.010000</speed>
</trkpt>
<trkpt lat="55.932636" lon="26.531628">
<ele>122.040100</ele>
<time>2010-08-29T08:13:45Z</time>
<desc>lat.=55.932636, lon.=26.531628, Alt.=122.040100m. Speed=0.036000m/h.</desc>
<speed>0.010000</speed>
</trkpt>
<trkpt lat="55.932636" lon="26.531628">
<ele>122.032288</ele>
<time>2010-08-29T08:13:46Z</time>
<desc>lat.=55.932636, lon.=26.531628, Alt.=122.032288m. Speed=0.072000m/h.</desc>
<speed>0.020000</speed>
</trkpt>
<trkpt lat="55.932636" lon="26.531628">
<ele>122.018616</ele>
<time>2010-08-29T08:13:47Z</time>
<desc>lat.=55.932636, lon.=26.531628, Alt.=122.018616m. Speed=0.036000m/h.</desc>
<speed>0.010000</speed>
</trkpt>
<trkpt lat="55.932636" lon="26.531626">
<ele>121.999084</ele>
<time>2010-08-29T08:13:48Z</time>
<desc>lat.=55.932636, lon.=26.531626, Alt.=121.999084m. Speed=0.072000m/h.</desc>
<speed>0.020000</speed>
</trkpt>
<trkpt lat="55.932636" lon="26.531626">
<ele>121.983459</ele>
<time>2010-08-29T08:13:49Z</time>
<desc>lat.=55.932636, lon.=26.531626, Alt.=121.983459m. Speed=0.144000m/h.</desc>
<speed>0.040000</speed>
</trkpt>
<trkpt lat="55.932636" lon="26.531626">
<ele>121.979553</ele>
<time>2010-08-29T08:13:50Z</time>
<desc>lat.=55.932636, lon.=26.531626, Alt.=121.979553m. Speed=0.108000m/h.</desc>
<speed>0.030000</speed>
</trkpt>
<trkpt lat="55.932636" lon="26.531626">
<ele>121.981506</ele>
<time>2010-08-29T08:13:51Z</time>
<desc>lat.=55.932636, lon.=26.531626, Alt.=121.981506m. Speed=0.036000m/h.</desc>
<speed>0.010000</speed>
</trkpt>
<trkpt lat="55.932636" lon="26.531626">
<ele>121.975647</ele>
<time>2010-08-29T08:13:52Z</time>
<desc>lat.=55.932636, lon.=26.531626, Alt.=121.975647m. Speed=0.036000m/h.</desc>
<speed>0.010000</speed>
</trkpt>
<trkpt lat="55.932636" lon="26.531626">
<ele>121.975647</ele>
<time>2010-08-29T08:13:53Z</time>
<desc>lat.=55.932636, lon.=26.531626, Alt.=121.975647m. Speed=0.000000m/h.</desc>
<speed>0.000000</speed>
</trkpt>
<trkpt lat="55.932636" lon="26.531626">
<ele>121.975647</ele>
<time>2010-08-29T08:13:54Z</time>
<desc>lat.=55.932636, lon.=26.531626, Alt.=121.975647m. Speed=0.000000m/h.</desc>
<speed>0.000000</speed>
</trkpt>
<trkpt lat="55.932636" lon="26.531626">
<ele>121.971741</ele>
<time>2010-08-29T08:13:55Z</time>
<desc>lat.=55.932636, lon.=26.531626, Alt.=121.971741m. Speed=0.036000m/h.</desc>
<speed>0.010000</speed>
</trkpt>
<trkpt lat="55.932636" lon="26.531626">
<ele>121.963928</ele>
<time>2010-08-29T08:13:56Z</time>
<desc>lat.=55.932636, lon.=26.531626, Alt.=121.963928m. Speed=0.072000m/h.</desc>
<speed>0.020000</speed>
</trkpt>
<trkpt lat="55.932636" lon="26.531624">
<ele>121.954163</ele>
<time>2010-08-29T08:13:57Z</time>
<desc>lat.=55.932636, lon.=26.531624, Alt.=121.954163m. Speed=0.072000m/h.</desc>
<speed>0.020000</speed>
</trkpt>
<trkpt lat="55.932636" lon="26.531624">
<ele>121.948303</ele>
<time>2010-08-29T08:13:58Z</time>
<desc>lat.=55.932636, lon.=26.531624, Alt.=121.948303m. Speed=0.072000m/h.</desc>
<speed>0.020000</speed>
</trkpt>
<trkpt lat="55.932636" lon="26.531624">
<ele>121.946350</ele>
<time>2010-08-29T08:13:59Z</time>
<desc>lat.=55.932636, lon.=26.531624, Alt.=121.946350m. Speed=0.072000m/h.</desc>
<speed>0.020000</speed>
</trkpt>
<trkpt lat="55.932636" lon="26.531624">
<ele>121.944397</ele>
<time>2010-08-29T08:14:00Z</time>
<desc>lat.=55.932636, lon.=26.531624, Alt.=121.944397m. Speed=0.036000m/h.</desc>
<speed>0.010000</speed>
</trkpt>
<trkpt lat="55.932636" lon="26.531624">
<ele>121.942444</ele>
<time>2010-08-29T08:14:01Z</time>
<desc>lat.=55.932636, lon.=26.531624, Alt.=121.942444m. Speed=0.144000m/h.</desc>
<speed>0.040000</speed>
</trkpt>
<trkpt lat="55.932636" lon="26.531624">
<ele>121.938538</ele>
<time>2010-08-29T08:14:02Z</time>
<desc>lat.=55.932636, lon.=26.531624, Alt.=121.938538m. Speed=0.072000m/h.</desc>
<speed>0.020000</speed>
</trkpt>
<trkpt lat="55.932636" lon="26.531624">
<ele>121.932678</ele>
<time>2010-08-29T08:14:03Z</time>
<desc>lat.=55.932636, lon.=26.531624, Alt.=121.932678m. Speed=0.000000m/h.</desc>
<speed>0.000000</speed>
</trkpt>
<trkpt lat="55.932636" lon="26.531624">
<ele>121.930725</ele>
<time>2010-08-29T08:14:04Z</time>
<desc>lat.=55.932636, lon.=26.531624, Alt.=121.930725m. Speed=0.000000m/h.</desc>
<speed>0.000000</speed>
</trkpt>
<trkpt lat="55.932636" lon="26.531624">
<ele>121.920959</ele>
<time>2010-08-29T08:14:05Z</time>
<desc>lat.=55.932636, lon.=26.531624, Alt.=121.920959m. Speed=0.036000m/h.</desc>
<speed>0.010000</speed>
</trkpt>
<trkpt lat="55.932636" lon="26.531624">
<ele>121.915100</ele>
<time>2010-08-29T08:14:06Z</time>
<desc>lat.=55.932636, lon.=26.531624, Alt.=121.915100m. Speed=0.036000m/h.</desc>
<speed>0.010000</speed>
</trkpt>
<trkpt lat="55.932636" lon="26.531624">
<ele>121.917053</ele>
<time>2010-08-29T08:14:07Z</time>
<desc>lat.=55.932636, lon.=26.531624, Alt.=121.917053m. Speed=0.000000m/h.</desc>
<speed>0.000000</speed>
</trkpt>
<trkpt lat="55.932636" lon="26.531624">
<ele>121.911194</ele>
<time>2010-08-29T08:14:08Z</time>
<desc>lat.=55.932636, lon.=26.531624, Alt.=121.911194m. Speed=0.000000m/h.</desc>
<speed>0.000000</speed>
</trkpt>
<trkpt lat="55.932636" lon="26.531624">
<ele>121.903381</ele>
<time>2010-08-29T08:14:09Z</time>
<desc>lat.=55.932636, lon.=26.531624, Alt.=121.903381m. Speed=0.000000m/h.</desc>
<speed>0.000000</speed>
</trkpt>
<trkpt lat="55.932636" lon="26.531624">
<ele>121.893616</ele>
<time>2010-08-29T08:14:10Z</time>
<desc>lat.=55.932636, lon.=26.531624, Alt.=121.893616m. Speed=0.036000m/h.</desc>
<speed>0.010000</speed>
</trkpt>
<trkpt lat="55.932636" lon="26.531624">
<ele>121.879944</ele>
<time>2010-08-29T08:14:11Z</time>
<desc>lat.=55.932636, lon.=26.531624, Alt.=121.879944m. Speed=0.000000m/h.</desc>
<speed>0.000000</speed>
</trkpt>
<trkpt lat="55.932636" lon="26.531624">
<ele>121.864319</ele>
<time>2010-08-29T08:14:12Z</time>
<desc>lat.=55.932636, lon.=26.531624, Alt.=121.864319m. Speed=0.036000m/h.</desc>
<speed>0.010000</speed>
</trkpt>
<trkpt lat="55.932636" lon="26.531624">
<ele>121.846741</ele>
<time>2010-08-29T08:14:13Z</time>
<desc>lat.=55.932636, lon.=26.531624, Alt.=121.846741m. Speed=0.036000m/h.</desc>
<speed>0.010000</speed>
</trkpt>
<trkpt lat="55.932636" lon="26.531624">
<ele>121.829163</ele>
<time>2010-08-29T08:14:14Z</time>
<desc>lat.=55.932636, lon.=26.531624, Alt.=121.829163m. Speed=0.000000m/h.</desc>
<speed>0.000000</speed>
</trkpt>
<trkpt lat="55.932636" lon="26.531622">
<ele>121.809631</ele>
<time>2010-08-29T08:14:15Z</time>
<desc>lat.=55.932636, lon.=26.531622, Alt.=121.809631m. Speed=0.108000m/h.</desc>
<speed>0.030000</speed>
</trkpt>
<trkpt lat="55.932636" lon="26.531622">
<ele>121.790100</ele>
<time>2010-08-29T08:14:16Z</time>
<desc>lat.=55.932636, lon.=26.531622, Alt.=121.790100m. Speed=0.000000m/h.</desc>
<speed>0.000000</speed>
</trkpt>
<trkpt lat="55.932636" lon="26.531622">
<ele>121.768616</ele>
<time>2010-08-29T08:14:17Z</time>
<desc>lat.=55.932636, lon.=26.531622, Alt.=121.768616m. Speed=0.000000m/h.</desc>
<speed>0.000000</speed>
</trkpt>
<trkpt lat="55.932636" lon="26.531622">
<ele>121.751038</ele>
<time>2010-08-29T08:14:18Z</time>
<desc>lat.=55.932636, lon.=26.531622, Alt.=121.751038m. Speed=0.000000m/h.</desc>
<speed>0.000000</speed>
</trkpt>
<trkpt lat="55.932636" lon="26.531622">
<ele>121.735413</ele>
<time>2010-08-29T08:14:19Z</time>
<desc>lat.=55.932636, lon.=26.531622, Alt.=121.735413m. Speed=0.072000m/h.</desc>
<speed>0.020000</speed>
</trkpt>
<trkpt lat="55.932636" lon="26.531622">
<ele>121.711975</ele>
<time>2010-08-29T08:14:20Z</time>
<desc>lat.=55.932636, lon.=26.531622, Alt.=121.711975m. Speed=0.108000m/h.</desc>
<speed>0.030000</speed>
</trkpt>
<trkpt lat="55.932636" lon="26.531622">
<ele>121.698303</ele>
<time>2010-08-29T08:14:21Z</time>
<desc>lat.=55.932636, lon.=26.531622, Alt.=121.698303m. Speed=0.468000m/h.</desc>
<speed>0.130000</speed>
</trkpt>
<trkpt lat="55.932636" lon="26.531624">
<ele>121.684631</ele>
<time>2010-08-29T08:14:22Z</time>
<desc>lat.=55.932636, lon.=26.531624, Alt.=121.684631m. Speed=0.972000m/h.</desc>
<speed>0.270000</speed>
</trkpt>
<trkpt lat="55.932632" lon="26.531630">
<ele>121.674866</ele>
<time>2010-08-29T08:14:23Z</time>
<desc>lat.=55.932632, lon.=26.531630, Alt.=121.674866m. Speed=1.368000m/h.</desc>
<speed>0.380000</speed>
</trkpt>
<trkpt lat="55.932629" lon="26.531631">
<ele>121.661194</ele>
<time>2010-08-29T08:14:24Z</time>
<desc>lat.=55.932629, lon.=26.531631, Alt.=121.661194m. Speed=3.132000m/h.</desc>
<speed>0.870000</speed>
</trkpt>
<trkpt lat="55.932625" lon="26.531641">
<ele>121.639709</ele>
<time>2010-08-29T08:14:25Z</time>
<desc>lat.=55.932625, lon.=26.531641, Alt.=121.639709m. Speed=5.328000m/h.</desc>
<speed>1.480000</speed>
</trkpt>
<trkpt lat="55.932613" lon="26.531654">
<ele>121.592834</ele>
<time>2010-08-29T08:14:26Z</time>
<desc>lat.=55.932613, lon.=26.531654, Alt.=121.592834m. Speed=5.328000m/h.</desc>
<speed>1.480000</speed>
</trkpt>
<trkpt lat="55.932602" lon="26.531675">
<ele>121.622131</ele>
<time>2010-08-29T08:14:27Z</time>
<desc>lat.=55.932602, lon.=26.531675, Alt.=121.622131m. Speed=6.336000m/h.</desc>
<speed>1.760000</speed>
</trkpt>
<trkpt lat="55.932590" lon="26.531693">
<ele>121.544006</ele>
<time>2010-08-29T08:14:28Z</time>
<desc>lat.=55.932590, lon.=26.531693, Alt.=121.544006m. Speed=5.724000m/h.</desc>
<speed>1.590000</speed>
</trkpt>
<trkpt lat="55.932575" lon="26.531702">
<ele>120.938538</ele>
<time>2010-08-29T08:14:29Z</time>
<desc>lat.=55.932575, lon.=26.531702, Alt.=120.938538m. Speed=4.752000m/h.</desc>
<speed>1.320000</speed>
</trkpt>
<trkpt lat="55.932568" lon="26.531717">
<ele>120.797913</ele>
<time>2010-08-29T08:14:30Z</time>
<desc>lat.=55.932568, lon.=26.531717, Alt.=120.797913m. Speed=4.896000m/h.</desc>
<speed>1.360000</speed>
</trkpt>
<trkpt lat="55.932560" lon="26.531736">
<ele>120.692444</ele>
<time>2010-08-29T08:14:31Z</time>
<desc>lat.=55.932560, lon.=26.531736, Alt.=120.692444m. Speed=3.384000m/h.</desc>
<speed>0.940000</speed>
</trkpt>
<trkpt lat="55.932556" lon="26.531754">
<ele>120.401428</ele>
<time>2010-08-29T08:14:32Z</time>
<desc>lat.=55.932556, lon.=26.531754, Alt.=120.401428m. Speed=3.744000m/h.</desc>
<speed>1.040000</speed>
</trkpt>
<trkpt lat="55.932549" lon="26.531763">
<ele>120.249084</ele>
<time>2010-08-29T08:14:33Z</time>
<desc>lat.=55.932549, lon.=26.531763, Alt.=120.249084m. Speed=4.428000m/h.</desc>
<speed>1.230000</speed>
</trkpt>
<trkpt lat="55.932533" lon="26.531775">
<ele>120.245178</ele>
<time>2010-08-29T08:14:34Z</time>
<desc>lat.=55.932533, lon.=26.531775, Alt.=120.245178m. Speed=5.076000m/h.</desc>
<speed>1.410000</speed>
</trkpt>
<trkpt lat="55.932518" lon="26.531788">
<ele>120.020569</ele>
<time>2010-08-29T08:14:35Z</time>
<desc>lat.=55.932518, lon.=26.531788, Alt.=120.020569m. Speed=5.328000m/h.</desc>
<speed>1.480000</speed>
</trkpt>
<trkpt lat="55.932507" lon="26.531801">
<ele>119.956116</ele>
<time>2010-08-29T08:14:36Z</time>
<desc>lat.=55.932507, lon.=26.531801, Alt.=119.956116m. Speed=5.292000m/h.</desc>
<speed>1.470000</speed>
</trkpt>
<trkpt lat="55.932495" lon="26.531820">
<ele>119.838928</ele>
<time>2010-08-29T08:14:37Z</time>
<desc>lat.=55.932495, lon.=26.531820, Alt.=119.838928m. Speed=5.796000m/h.</desc>
<speed>1.610000</speed>
</trkpt>
<trkpt lat="55.932480" lon="26.531843">
<ele>119.764709</ele>
<time>2010-08-29T08:14:38Z</time>
<desc>lat.=55.932480, lon.=26.531843, Alt.=119.764709m. Speed=6.696000m/h.</desc>
<speed>1.860000</speed>
</trkpt>
<trkpt lat="55.932465" lon="26.531872">
<ele>119.678772</ele>
<time>2010-08-29T08:14:39Z</time>
<desc>lat.=55.932465, lon.=26.531872, Alt.=119.678772m. Speed=7.884000m/h.</desc>
<speed>2.190000</speed>
</trkpt>
<trkpt lat="55.932449" lon="26.531889">
<ele>119.440491</ele>
<time>2010-08-29T08:14:40Z</time>
<desc>lat.=55.932449, lon.=26.531889, Alt.=119.440491m. Speed=7.956000m/h.</desc>
<speed>2.210000</speed>
</trkpt>
<trkpt lat="55.932430" lon="26.531914">
<ele>119.198303</ele>
<time>2010-08-29T08:14:41Z</time>
<desc>lat.=55.932430, lon.=26.531914, Alt.=119.198303m. Speed=7.704000m/h.</desc>
<speed>2.140000</speed>
</trkpt>
<trkpt lat="55.932415" lon="26.531944">
<ele>119.014709</ele>
<time>2010-08-29T08:14:42Z</time>
<desc>lat.=55.932415, lon.=26.531944, Alt.=119.014709m. Speed=8.784000m/h.</desc>
<speed>2.440000</speed>
</trkpt>
<trkpt lat="55.932388" lon="26.531967">
<ele>118.698303</ele>
<time>2010-08-29T08:14:43Z</time>
<desc>lat.=55.932388, lon.=26.531967, Alt.=118.698303m. Speed=9.648000m/h.</desc>
<speed>2.680000</speed>
</trkpt>
<trkpt lat="55.932365" lon="26.531994">
<ele>118.602600</ele>
<time>2010-08-29T08:14:44Z</time>
<desc>lat.=55.932365, lon.=26.531994, Alt.=118.602600m. Speed=10.116000m/h.</desc>
<speed>2.810000</speed>
</trkpt>
<trkpt lat="55.932350" lon="26.532021">
<ele>118.526428</ele>
<time>2010-08-29T08:14:45Z</time>
<desc>lat.=55.932350, lon.=26.532021, Alt.=118.526428m. Speed=8.532000m/h.</desc>
<speed>2.370000</speed>
</trkpt>
<trkpt lat="55.932339" lon="26.532042">
<ele>118.377991</ele>
<time>2010-08-29T08:14:46Z</time>
<desc>lat.=55.932339, lon.=26.532042, Alt.=118.377991m. Speed=8.100000m/h.</desc>
<speed>2.250000</speed>
</trkpt>
<trkpt lat="55.932320" lon="26.532064">
<ele>118.370178</ele>
<time>2010-08-29T08:14:47Z</time>
<desc>lat.=55.932320, lon.=26.532064, Alt.=118.370178m. Speed=8.352000m/h.</desc>
<speed>2.320000</speed>
</trkpt>
<trkpt lat="55.932304" lon="26.532087">
<ele>118.104553</ele>
<time>2010-08-29T08:14:48Z</time>
<desc>lat.=55.932304, lon.=26.532087, Alt.=118.104553m. Speed=8.100000m/h.</desc>
<speed>2.250000</speed>
</trkpt>
<trkpt lat="55.932289" lon="26.532108">
<ele>117.389709</ele>
<time>2010-08-29T08:14:49Z</time>
<desc>lat.=55.932289, lon.=26.532108, Alt.=117.389709m. Speed=8.280000m/h.</desc>
<speed>2.300000</speed>
</trkpt>
<trkpt lat="55.932274" lon="26.532137">
<ele>117.083069</ele>
<time>2010-08-29T08:14:50Z</time>
<desc>lat.=55.932274, lon.=26.532137, Alt.=117.083069m. Speed=8.136000m/h.</desc>
<speed>2.260000</speed>
</trkpt>
<trkpt lat="55.932259" lon="26.532152">
<ele>116.538147</ele>
<time>2010-08-29T08:14:51Z</time>
<desc>lat.=55.932259, lon.=26.532152, Alt.=116.538147m. Speed=6.660000m/h.</desc>
<speed>1.850000</speed>
</trkpt>
<trkpt lat="55.932243" lon="26.532167">
<ele>115.618225</ele>
<time>2010-08-29T08:14:52Z</time>
<desc>lat.=55.932243, lon.=26.532167, Alt.=115.618225m. Speed=6.120000m/h.</desc>
<speed>1.700000</speed>
</trkpt>
<trkpt lat="55.932236" lon="26.532187">
<ele>116.167053</ele>
<time>2010-08-29T08:14:53Z</time>
<desc>lat.=55.932236, lon.=26.532187, Alt.=116.167053m. Speed=5.076000m/h.</desc>
<speed>1.410000</speed>
</trkpt>
<trkpt lat="55.932220" lon="26.532200">
<ele>115.749084</ele>
<time>2010-08-29T08:14:54Z</time>
<desc>lat.=55.932220, lon.=26.532200, Alt.=115.749084m. Speed=4.572000m/h.</desc>
<speed>1.270000</speed>
</trkpt>
<trkpt lat="55.932213" lon="26.532215">
<ele>115.192444</ele>
<time>2010-08-29T08:14:55Z</time>
<desc>lat.=55.932213, lon.=26.532215, Alt.=115.192444m. Speed=4.032000m/h.</desc>
<speed>1.120000</speed>
</trkpt>
<trkpt lat="55.932205" lon="26.532228">
<ele>114.790100</ele>
<time>2010-08-29T08:14:56Z</time>
<desc>lat.=55.932205, lon.=26.532228, Alt.=114.790100m. Speed=3.492000m/h.</desc>
<speed>0.970000</speed>
</trkpt>
<trkpt lat="55.932198" lon="26.532242">
<ele>114.360413</ele>
<time>2010-08-29T08:14:57Z</time>
<desc>lat.=55.932198, lon.=26.532242, Alt.=114.360413m. Speed=3.852000m/h.</desc>
<speed>1.070000</speed>
</trkpt>
<trkpt lat="55.932201" lon="26.532257">
<ele>114.518616</ele>
<time>2010-08-29T08:14:58Z</time>
<desc>lat.=55.932201, lon.=26.532257, Alt.=114.518616m. Speed=3.312000m/h.</desc>
<speed>0.920000</speed>
</trkpt>
<trkpt lat="55.932205" lon="26.532272">
<ele>114.647522</ele>
<time>2010-08-29T08:14:59Z</time>
<desc>lat.=55.932205, lon.=26.532272, Alt.=114.647522m. Speed=3.384000m/h.</desc>
<speed>0.940000</speed>
</trkpt>
<trkpt lat="55.932205" lon="26.532282">
<ele>114.456116</ele>
<time>2010-08-29T08:15:00Z</time>
<desc>lat.=55.932205, lon.=26.532282, Alt.=114.456116m. Speed=3.528000m/h.</desc>
<speed>0.980000</speed>
</trkpt>
<trkpt lat="55.932201" lon="26.532301">
<ele>114.508850</ele>
<time>2010-08-29T08:15:01Z</time>
<desc>lat.=55.932201, lon.=26.532301, Alt.=114.508850m. Speed=4.104000m/h.</desc>
<speed>1.140000</speed>
</trkpt>
<trkpt lat="55.932190" lon="26.532314">
<ele>113.649475</ele>
<time>2010-08-29T08:15:02Z</time>
<desc>lat.=55.932190, lon.=26.532314, Alt.=113.649475m. Speed=4.644000m/h.</desc>
<speed>1.290000</speed>
</trkpt>
<trkpt lat="55.932178" lon="26.532316">
<ele>113.704163</ele>
<time>2010-08-29T08:15:03Z</time>
<desc>lat.=55.932178, lon.=26.532316, Alt.=113.704163m. Speed=3.384000m/h.</desc>
<speed>0.940000</speed>
</trkpt>
<trkpt lat="55.932175" lon="26.532318">
<ele>113.018616</ele>
<time>2010-08-29T08:15:04Z</time>
<desc>lat.=55.932175, lon.=26.532318, Alt.=113.018616m. Speed=3.744000m/h.</desc>
<speed>1.040000</speed>
</trkpt>
<trkpt lat="55.932178" lon="26.532301">
<ele>112.676819</ele>
<time>2010-08-29T08:15:05Z</time>
<desc>lat.=55.932178, lon.=26.532301, Alt.=112.676819m. Speed=4.752000m/h.</desc>
<speed>1.320000</speed>
</trkpt>
<trkpt lat="55.932186" lon="26.532290">
<ele>112.377991</ele>
<time>2010-08-29T08:15:06Z</time>
<desc>lat.=55.932186, lon.=26.532290, Alt.=112.377991m. Speed=3.924000m/h.</desc>
<speed>1.090000</speed>
</trkpt>
<trkpt lat="55.932201" lon="26.532295">
<ele>112.045959</ele>
<time>2010-08-29T08:15:07Z</time>
<desc>lat.=55.932201, lon.=26.532295, Alt.=112.045959m. Speed=2.628000m/h.</desc>
<speed>0.730000</speed>
</trkpt>
<trkpt lat="55.932209" lon="26.532297">
<ele>112.104553</ele>
<time>2010-08-29T08:15:08Z</time>
<desc>lat.=55.932209, lon.=26.532297, Alt.=112.104553m. Speed=1.908000m/h.</desc>
<speed>0.530000</speed>
</trkpt>
<trkpt lat="55.932217" lon="26.532303">
<ele>113.598694</ele>
<time>2010-08-29T08:15:09Z</time>
<desc>lat.=55.932217, lon.=26.532303, Alt.=113.598694m. Speed=0.972000m/h.</desc>
<speed>0.270000</speed>
</trkpt>
<trkpt lat="55.932224" lon="26.532307">
<ele>114.481506</ele>
<time>2010-08-29T08:15:10Z</time>
<desc>lat.=55.932224, lon.=26.532307, Alt.=114.481506m. Speed=0.468000m/h.</desc>
<speed>0.130000</speed>
</trkpt>
<trkpt lat="55.932224" lon="26.532310">
<ele>115.047913</ele>
<time>2010-08-29T08:15:11Z</time>
<desc>lat.=55.932224, lon.=26.532310, Alt.=115.047913m. Speed=0.324000m/h.</desc>
<speed>0.090000</speed>
</trkpt>
<trkpt lat="55.932228" lon="26.532312">
<ele>115.094788</ele>
<time>2010-08-29T08:15:12Z</time>
<desc>lat.=55.932228, lon.=26.532312, Alt.=115.094788m. Speed=1.080000m/h.</desc>
<speed>0.300000</speed>
</trkpt>
<trkpt lat="55.932228" lon="26.532322">
<ele>114.786194</ele>
<time>2010-08-29T08:15:13Z</time>
<desc>lat.=55.932228, lon.=26.532322, Alt.=114.786194m. Speed=1.548000m/h.</desc>
<speed>0.430000</speed>
</trkpt>
<trkpt lat="55.932224" lon="26.532335">
<ele>114.702209</ele>
<time>2010-08-29T08:15:14Z</time>
<desc>lat.=55.932224, lon.=26.532335, Alt.=114.702209m. Speed=2.556000m/h.</desc>
<speed>0.710000</speed>
</trkpt>
<trkpt lat="55.932220" lon="26.532352">
<ele>114.911194</ele>
<time>2010-08-29T08:15:15Z</time>
<desc>lat.=55.932220, lon.=26.532352, Alt.=114.911194m. Speed=4.248000m/h.</desc>
<speed>1.180000</speed>
</trkpt>
<trkpt lat="55.932205" lon="26.532381">
<ele>114.924866</ele>
<time>2010-08-29T08:15:16Z</time>
<desc>lat.=55.932205, lon.=26.532381, Alt.=114.924866m. Speed=8.352000m/h.</desc>
<speed>2.320000</speed>
</trkpt>
<trkpt lat="55.932194" lon="26.532406">
<ele>115.110413</ele>
<time>2010-08-29T08:15:17Z</time>
<desc>lat.=55.932194, lon.=26.532406, Alt.=115.110413m. Speed=8.136000m/h.</desc>
<speed>2.260000</speed>
</trkpt>
<trkpt lat="55.932178" lon="26.532433">
<ele>114.667053</ele>
<time>2010-08-29T08:15:18Z</time>
<desc>lat.=55.932178, lon.=26.532433, Alt.=114.667053m. Speed=9.072000m/h.</desc>
<speed>2.520000</speed>
</trkpt>
<trkpt lat="55.932152" lon="26.532457">
<ele>114.344788</ele>
<time>2010-08-29T08:15:19Z</time>
<desc>lat.=55.932152, lon.=26.532457, Alt.=114.344788m. Speed=9.504000m/h.</desc>
<speed>2.640000</speed>
</trkpt>
<trkpt lat="55.932140" lon="26.532488">
<ele>114.635803</ele>
<time>2010-08-29T08:15:20Z</time>
<desc>lat.=55.932140, lon.=26.532488, Alt.=114.635803m. Speed=9.756000m/h.</desc>
<speed>2.710000</speed>
</trkpt>
<trkpt lat="55.932125" lon="26.532522">
<ele>114.639709</ele>
<time>2010-08-29T08:15:21Z</time>
<desc>lat.=55.932125, lon.=26.532522, Alt.=114.639709m. Speed=10.188000m/h.</desc>
<speed>2.830000</speed>
</trkpt>
<trkpt lat="55.932110" lon="26.532558">
<ele>115.096741</ele>
<time>2010-08-29T08:15:22Z</time>
<desc>lat.=55.932110, lon.=26.532558, Alt.=115.096741m. Speed=9.288000m/h.</desc>
<speed>2.580000</speed>
</trkpt>
<trkpt lat="55.932087" lon="26.532593">
<ele>115.588928</ele>
<time>2010-08-29T08:15:23Z</time>
<desc>lat.=55.932087, lon.=26.532593, Alt.=115.588928m. Speed=9.432000m/h.</desc>
<speed>2.620000</speed>
</trkpt>
<trkpt lat="55.932083" lon="26.532637">
<ele>116.559631</ele>
<time>2010-08-29T08:15:24Z</time>
<desc>lat.=55.932083, lon.=26.532637, Alt.=116.559631m. Speed=7.812000m/h.</desc>
<speed>2.170000</speed>
</trkpt>
<trkpt lat="55.932079" lon="26.532663">
<ele>116.508850</ele>
<time>2010-08-29T08:15:25Z</time>
<desc>lat.=55.932079, lon.=26.532663, Alt.=116.508850m. Speed=4.500000m/h.</desc>
<speed>1.250000</speed>
</trkpt>
<trkpt lat="55.932083" lon="26.532688">
<ele>116.094788</ele>
<time>2010-08-29T08:15:26Z</time>
<desc>lat.=55.932083, lon.=26.532688, Alt.=116.094788m. Speed=1.044000m/h.</desc>
<speed>0.290000</speed>
</trkpt>
<trkpt lat="55.932079" lon="26.532692">
<ele>116.344788</ele>
<time>2010-08-29T08:15:27Z</time>
<desc>lat.=55.932079, lon.=26.532692, Alt.=116.344788m. Speed=0.684000m/h.</desc>
<speed>0.190000</speed>
</trkpt>
<trkpt lat="55.932076" lon="26.532682">
<ele>115.278381</ele>
<time>2010-08-29T08:15:28Z</time>
<desc>lat.=55.932076, lon.=26.532682, Alt.=115.278381m. Speed=0.000000m/h.</desc>
<speed>0.000000</speed>
</trkpt>
<trkpt lat="55.932076" lon="26.532679">
<ele>114.333069</ele>
<time>2010-08-29T08:15:29Z</time>
<desc>lat.=55.932076, lon.=26.532679, Alt.=114.333069m. Speed=0.072000m/h.</desc>
<speed>0.020000</speed>
</trkpt>
<trkpt lat="55.932072" lon="26.532679">
<ele>114.325256</ele>
<time>2010-08-29T08:15:30Z</time>
<desc>lat.=55.932072, lon.=26.532679, Alt.=114.325256m. Speed=0.108000m/h.</desc>
<speed>0.030000</speed>
</trkpt>
<trkpt lat="55.932072" lon="26.532679">
<ele>114.315491</ele>
<time>2010-08-29T08:15:31Z</time>
<desc>lat.=55.932072, lon.=26.532679, Alt.=114.315491m. Speed=0.108000m/h.</desc>
<speed>0.030000</speed>
</trkpt>
<trkpt lat="55.932072" lon="26.532679">
<ele>114.299866</ele>
<time>2010-08-29T08:15:32Z</time>
<desc>lat.=55.932072, lon.=26.532679, Alt.=114.299866m. Speed=0.000000m/h.</desc>
<speed>0.000000</speed>
</trkpt>
<trkpt lat="55.932072" lon="26.532679">
<ele>114.301819</ele>
<time>2010-08-29T08:15:33Z</time>
<desc>lat.=55.932072, lon.=26.532679, Alt.=114.301819m. Speed=0.072000m/h.</desc>
<speed>0.020000</speed>
</trkpt>
<trkpt lat="55.932072" lon="26.532679">
<ele>114.305725</ele>
<time>2010-08-29T08:15:34Z</time>
<desc>lat.=55.932072, lon.=26.532679, Alt.=114.305725m. Speed=0.036000m/h.</desc>
<speed>0.010000</speed>
</trkpt>
<trkpt lat="55.932072" lon="26.532679">
<ele>114.286194</ele>
<time>2010-08-29T08:15:35Z</time>
<desc>lat.=55.932072, lon.=26.532679, Alt.=114.286194m. Speed=0.036000m/h.</desc>
<speed>0.010000</speed>
</trkpt>
<trkpt lat="55.932072" lon="26.532679">
<ele>114.264709</ele>
<time>2010-08-29T08:15:36Z</time>
<desc>lat.=55.932072, lon.=26.532679, Alt.=114.264709m. Speed=0.000000m/h.</desc>
<speed>0.000000</speed>
</trkpt>
<trkpt lat="55.932072" lon="26.532679">
<ele>114.288147</ele>
<time>2010-08-29T08:15:37Z</time>
<desc>lat.=55.932072, lon.=26.532679, Alt.=114.288147m. Speed=0.000000m/h.</desc>
<speed>0.000000</speed>
</trkpt>
<trkpt lat="55.932072" lon="26.532679">
<ele>114.294006</ele>
<time>2010-08-29T08:15:38Z</time>
<desc>lat.=55.932072, lon.=26.532679, Alt.=114.294006m. Speed=0.036000m/h.</desc>
<speed>0.010000</speed>
</trkpt>
<trkpt lat="55.932072" lon="26.532679">
<ele>114.288147</ele>
<time>2010-08-29T08:15:39Z</time>
<desc>lat.=55.932072, lon.=26.532679, Alt.=114.288147m. Speed=0.036000m/h.</desc>
<speed>0.010000</speed>
</trkpt>
<trkpt lat="55.932072" lon="26.532679">
<ele>114.288147</ele>
<time>2010-08-29T08:15:40Z</time>
<desc>lat.=55.932072, lon.=26.532679, Alt.=114.288147m. Speed=0.000000m/h.</desc>
<speed>0.000000</speed>
</trkpt>
<trkpt lat="55.932072" lon="26.532679">
<ele>114.286194</ele>
<time>2010-08-29T08:15:41Z</time>
<desc>lat.=55.932072, lon.=26.532679, Alt.=114.286194m. Speed=0.000000m/h.</desc>
<speed>0.000000</speed>
</trkpt>
<trkpt lat="55.932072" lon="26.532679">
<ele>114.284241</ele>
<time>2010-08-29T08:15:42Z</time>
<desc>lat.=55.932072, lon.=26.532679, Alt.=114.284241m. Speed=0.000000m/h.</desc>
<speed>0.000000</speed>
</trkpt>
<trkpt lat="55.932072" lon="26.532679">
<ele>114.280334</ele>
<time>2010-08-29T08:15:43Z</time>
<desc>lat.=55.932072, lon.=26.532679, Alt.=114.280334m. Speed=0.000000m/h.</desc>
<speed>0.000000</speed>
</trkpt>
<trkpt lat="55.932072" lon="26.532679">
<ele>114.280334</ele>
<time>2010-08-29T08:15:44Z</time>
<desc>lat.=55.932072, lon.=26.532679, Alt.=114.280334m. Speed=0.036000m/h.</desc>
<speed>0.010000</speed>
</trkpt>
<trkpt lat="55.932072" lon="26.532679">
<ele>114.282288</ele>
<time>2010-08-29T08:15:45Z</time>
<desc>lat.=55.932072, lon.=26.532679, Alt.=114.282288m. Speed=0.000000m/h.</desc>
<speed>0.000000</speed>
</trkpt>
<trkpt lat="55.932072" lon="26.532679">
<ele>114.280334</ele>
<time>2010-08-29T08:15:46Z</time>
<desc>lat.=55.932072, lon.=26.532679, Alt.=114.280334m. Speed=0.000000m/h.</desc>
<speed>0.000000</speed>
</trkpt>
<trkpt lat="55.932072" lon="26.532679">
<ele>114.278381</ele>
<time>2010-08-29T08:15:47Z</time>
<desc>lat.=55.932072, lon.=26.532679, Alt.=114.278381m. Speed=0.036000m/h.</desc>
<speed>0.010000</speed>
</trkpt>
<trkpt lat="55.932072" lon="26.532679">
<ele>114.278381</ele>
<time>2010-08-29T08:15:48Z</time>
<desc>lat.=55.932072, lon.=26.532679, Alt.=114.278381m. Speed=0.000000m/h.</desc>
<speed>0.000000</speed>
</trkpt>
<trkpt lat="55.932072" lon="26.532679">
<ele>114.278381</ele>
<time>2010-08-29T08:15:49Z</time>
<desc>lat.=55.932072, lon.=26.532679, Alt.=114.278381m. Speed=0.000000m/h.</desc>
<speed>0.000000</speed>
</trkpt>
<trkpt lat="55.932072" lon="26.532679">
<ele>114.280334</ele>
<time>2010-08-29T08:15:50Z</time>
<desc>lat.=55.932072, lon.=26.532679, Alt.=114.280334m. Speed=0.000000m/h.</desc>
<speed>0.000000</speed>
</trkpt>
<trkpt lat="55.932072" lon="26.532679">
<ele>114.280334</ele>
<time>2010-08-29T08:15:51Z</time>
<desc>lat.=55.932072, lon.=26.532679, Alt.=114.280334m. Speed=0.036000m/h.</desc>
<speed>0.010000</speed>
</trkpt>
<trkpt lat="55.932072" lon="26.532679">
<ele>114.282288</ele>
<time>2010-08-29T08:15:52Z</time>
<desc>lat.=55.932072, lon.=26.532679, Alt.=114.282288m. Speed=0.000000m/h.</desc>
<speed>0.000000</speed>
</trkpt>
<trkpt lat="55.932072" lon="26.532679">
<ele>114.284241</ele>
<time>2010-08-29T08:15:53Z</time>
<desc>lat.=55.932072, lon.=26.532679, Alt.=114.284241m. Speed=0.036000m/h.</desc>
<speed>0.010000</speed>
</trkpt>
<trkpt lat="55.932072" lon="26.532679">
<ele>114.284241</ele>
<time>2010-08-29T08:15:54Z</time>
<desc>lat.=55.932072, lon.=26.532679, Alt.=114.284241m. Speed=0.000000m/h.</desc>
<speed>0.000000</speed>
</trkpt>
<trkpt lat="55.932072" lon="26.532679">
<ele>114.292053</ele>
<time>2010-08-29T08:15:55Z</time>
<desc>lat.=55.932072, lon.=26.532679, Alt.=114.292053m. Speed=0.036000m/h.</desc>
<speed>0.010000</speed>
</trkpt>
<trkpt lat="55.932072" lon="26.532679">
<ele>114.297913</ele>
<time>2010-08-29T08:15:56Z</time>
<desc>lat.=55.932072, lon.=26.532679, Alt.=114.297913m. Speed=0.108000m/h.</desc>
<speed>0.030000</speed>
</trkpt>
<trkpt lat="55.932072" lon="26.532679">
<ele>114.297913</ele>
<time>2010-08-29T08:15:57Z</time>
<desc>lat.=55.932072, lon.=26.532679, Alt.=114.297913m. Speed=0.036000m/h.</desc>
<speed>0.010000</speed>
</trkpt>
<trkpt lat="55.932072" lon="26.532681">
<ele>114.299866</ele>
<time>2010-08-29T08:15:58Z</time>
<desc>lat.=55.932072, lon.=26.532681, Alt.=114.299866m. Speed=0.000000m/h.</desc>
<speed>0.000000</speed>
</trkpt>
<trkpt lat="55.932072" lon="26.532681">
<ele>114.301819</ele>
<time>2010-08-29T08:15:59Z</time>
<desc>lat.=55.932072, lon.=26.532681, Alt.=114.301819m. Speed=0.000000m/h.</desc>
<speed>0.000000</speed>
</trkpt>
<trkpt lat="55.932072" lon="26.532681">
<ele>114.303772</ele>
<time>2010-08-29T08:16:00Z</time>
<desc>lat.=55.932072, lon.=26.532681, Alt.=114.303772m. Speed=0.000000m/h.</desc>
<speed>0.000000</speed>
</trkpt>
<trkpt lat="55.932072" lon="26.532681">
<ele>114.303772</ele>
<time>2010-08-29T08:16:01Z</time>
<desc>lat.=55.932072, lon.=26.532681, Alt.=114.303772m. Speed=0.000000m/h.</desc>
<speed>0.000000</speed>
</trkpt>
<trkpt lat="55.932072" lon="26.532681">
<ele>114.305725</ele>
<time>2010-08-29T08:16:02Z</time>
<desc>lat.=55.932072, lon.=26.532681, Alt.=114.305725m. Speed=0.000000m/h.</desc>
<speed>0.000000</speed>
</trkpt>
<trkpt lat="55.932072" lon="26.532681">
<ele>114.307678</ele>
<time>2010-08-29T08:16:03Z</time>
<desc>lat.=55.932072, lon.=26.532681, Alt.=114.307678m. Speed=0.000000m/h.</desc>
<speed>0.000000</speed>
</trkpt>
<trkpt lat="55.932072" lon="26.532681">
<ele>114.309631</ele>
<time>2010-08-29T08:16:04Z</time>
<desc>lat.=55.932072, lon.=26.532681, Alt.=114.309631m. Speed=0.000000m/h.</desc>
<speed>0.000000</speed>
</trkpt>
<trkpt lat="55.932072" lon="26.532681">
<ele>114.313538</ele>
<time>2010-08-29T08:16:05Z</time>
<desc>lat.=55.932072, lon.=26.532681, Alt.=114.313538m. Speed=0.000000m/h.</desc>
<speed>0.000000</speed>
</trkpt>
<trkpt lat="55.932072" lon="26.532681">
<ele>114.311584</ele>
<time>2010-08-29T08:16:06Z</time>
<desc>lat.=55.932072, lon.=26.532681, Alt.=114.311584m. Speed=0.000000m/h.</desc>
<speed>0.000000</speed>
</trkpt>
<trkpt lat="55.932072" lon="26.532681">
<ele>114.313538</ele>
<time>2010-08-29T08:16:07Z</time>
<desc>lat.=55.932072, lon.=26.532681, Alt.=114.313538m. Speed=0.000000m/h.</desc>
<speed>0.000000</speed>
</trkpt>
<trkpt lat="55.932072" lon="26.532681">
<ele>114.307678</ele>
<time>2010-08-29T08:16:08Z</time>
<desc>lat.=55.932072, lon.=26.532681, Alt.=114.307678m. Speed=0.000000m/h.</desc>
<speed>0.000000</speed>
</trkpt>
<trkpt lat="55.932072" lon="26.532681">
<ele>114.307678</ele>
<time>2010-08-29T08:16:09Z</time>
<desc>lat.=55.932072, lon.=26.532681, Alt.=114.307678m. Speed=0.000000m/h.</desc>
<speed>0.000000</speed>
</trkpt>
<trkpt lat="55.932072" lon="26.532681">
<ele>114.309631</ele>
<time>2010-08-29T08:16:10Z</time>
<desc>lat.=55.932072, lon.=26.532681, Alt.=114.309631m. Speed=0.000000m/h.</desc>
<speed>0.000000</speed>
</trkpt>
<trkpt lat="55.932072" lon="26.532681">
<ele>114.311584</ele>
<time>2010-08-29T08:16:11Z</time>
<desc>lat.=55.932072, lon.=26.532681, Alt.=114.311584m. Speed=0.000000m/h.</desc>
<speed>0.000000</speed>
</trkpt>
<trkpt lat="55.932072" lon="26.532681">
<ele>114.311584</ele>
<time>2010-08-29T08:16:12Z</time>
<desc>lat.=55.932072, lon.=26.532681, Alt.=114.311584m. Speed=0.000000m/h.</desc>
<speed>0.000000</speed>
</trkpt>
<trkpt lat="55.932072" lon="26.532681">
<ele>114.313538</ele>
<time>2010-08-29T08:16:13Z</time>
<desc>lat.=55.932072, lon.=26.532681, Alt.=114.313538m. Speed=0.000000m/h.</desc>
<speed>0.000000</speed>
</trkpt>
<trkpt lat="55.932072" lon="26.532681">
<ele>114.315491</ele>
<time>2010-08-29T08:16:14Z</time>
<desc>lat.=55.932072, lon.=26.532681, Alt.=114.315491m. Speed=0.000000m/h.</desc>
<speed>0.000000</speed>
</trkpt>
<trkpt lat="55.932072" lon="26.532681">
<ele>114.315491</ele>
<time>2010-08-29T08:16:15Z</time>
<desc>lat.=55.932072, lon.=26.532681, Alt.=114.315491m. Speed=0.000000m/h.</desc>
<speed>0.000000</speed>
</trkpt>
<trkpt lat="55.932072" lon="26.532681">
<ele>114.315491</ele>
<time>2010-08-29T08:16:16Z</time>
<desc>lat.=55.932072, lon.=26.532681, Alt.=114.315491m. Speed=0.000000m/h.</desc>
<speed>0.000000</speed>
</trkpt>
<trkpt lat="55.932072" lon="26.532681">
<ele>114.317444</ele>
<time>2010-08-29T08:16:17Z</time>
<desc>lat.=55.932072, lon.=26.532681, Alt.=114.317444m. Speed=0.000000m/h.</desc>
<speed>0.000000</speed>
</trkpt>
<trkpt lat="55.932072" lon="26.532681">
<ele>114.321350</ele>
<time>2010-08-29T08:16:18Z</time>
<desc>lat.=55.932072, lon.=26.532681, Alt.=114.321350m. Speed=0.000000m/h.</desc>
<speed>0.000000</speed>
</trkpt>
<trkpt lat="55.932072" lon="26.532681">
<ele>114.327209</ele>
<time>2010-08-29T08:16:19Z</time>
<desc>lat.=55.932072, lon.=26.532681, Alt.=114.327209m. Speed=0.000000m/h.</desc>
<speed>0.000000</speed>
</trkpt>
<trkpt lat="55.932072" lon="26.532681">
<ele>114.331116</ele>
<time>2010-08-29T08:16:20Z</time>
<desc>lat.=55.932072, lon.=26.532681, Alt.=114.331116m. Speed=0.000000m/h.</desc>
<speed>0.000000</speed>
</trkpt>
<trkpt lat="55.932072" lon="26.532681">
<ele>114.333069</ele>
<time>2010-08-29T08:16:21Z</time>
<desc>lat.=55.932072, lon.=26.532681, Alt.=114.333069m. Speed=0.000000m/h.</desc>
<speed>0.000000</speed>
</trkpt>
<trkpt lat="55.932072" lon="26.532681">
<ele>114.333069</ele>
<time>2010-08-29T08:16:22Z</time>
<desc>lat.=55.932072, lon.=26.532681, Alt.=114.333069m. Speed=0.072000m/h.</desc>
<speed>0.020000</speed>
</trkpt>
<trkpt lat="55.932072" lon="26.532681">
<ele>114.344788</ele>
<time>2010-08-29T08:16:23Z</time>
<desc>lat.=55.932072, lon.=26.532681, Alt.=114.344788m. Speed=0.144000m/h.</desc>
<speed>0.040000</speed>
</trkpt>
<trkpt lat="55.932072" lon="26.532681">
<ele>114.338928</ele>
<time>2010-08-29T08:16:24Z</time>
<desc>lat.=55.932072, lon.=26.532681, Alt.=114.338928m. Speed=0.180000m/h.</desc>
<speed>0.050000</speed>
</trkpt>
<trkpt lat="55.932072" lon="26.532681">
<ele>114.348694</ele>
<time>2010-08-29T08:16:25Z</time>
<desc>lat.=55.932072, lon.=26.532681, Alt.=114.348694m. Speed=0.144000m/h.</desc>
<speed>0.040000</speed>
</trkpt>
<trkpt lat="55.932072" lon="26.532681">
<ele>114.348694</ele>
<time>2010-08-29T08:16:26Z</time>
<desc>lat.=55.932072, lon.=26.532681, Alt.=114.348694m. Speed=0.108000m/h.</desc>
<speed>0.030000</speed>
</trkpt>
<trkpt lat="55.932072" lon="26.532681">
<ele>114.346741</ele>
<time>2010-08-29T08:16:27Z</time>
<desc>lat.=55.932072, lon.=26.532681, Alt.=114.346741m. Speed=0.108000m/h.</desc>
<speed>0.030000</speed>
</trkpt>
<trkpt lat="55.932072" lon="26.532681">
<ele>114.348694</ele>
<time>2010-08-29T08:16:28Z</time>
<desc>lat.=55.932072, lon.=26.532681, Alt.=114.348694m. Speed=0.072000m/h.</desc>
<speed>0.020000</speed>
</trkpt>
<trkpt lat="55.932072" lon="26.532681">
<ele>114.350647</ele>
<time>2010-08-29T08:16:29Z</time>
<desc>lat.=55.932072, lon.=26.532681, Alt.=114.350647m. Speed=0.072000m/h.</desc>
<speed>0.020000</speed>
</trkpt>
<trkpt lat="55.932072" lon="26.532681">
<ele>114.350647</ele>
<time>2010-08-29T08:16:30Z</time>
<desc>lat.=55.932072, lon.=26.532681, Alt.=114.350647m. Speed=0.000000m/h.</desc>
<speed>0.000000</speed>
</trkpt>
<trkpt lat="55.932072" lon="26.532681">
<ele>114.352600</ele>
<time>2010-08-29T08:16:31Z</time>
<desc>lat.=55.932072, lon.=26.532681, Alt.=114.352600m. Speed=0.000000m/h.</desc>
<speed>0.000000</speed>
</trkpt>
<trkpt lat="55.932072" lon="26.532681">
<ele>114.352600</ele>
<time>2010-08-29T08:16:32Z</time>
<desc>lat.=55.932072, lon.=26.532681, Alt.=114.352600m. Speed=0.000000m/h.</desc>
<speed>0.000000</speed>
</trkpt>
<trkpt lat="55.932072" lon="26.532681">
<ele>114.354553</ele>
<time>2010-08-29T08:16:33Z</time>
<desc>lat.=55.932072, lon.=26.532681, Alt.=114.354553m. Speed=0.000000m/h.</desc>
<speed>0.000000</speed>
</trkpt>
<trkpt lat="55.932072" lon="26.532681">
<ele>114.356506</ele>
<time>2010-08-29T08:16:34Z</time>
<desc>lat.=55.932072, lon.=26.532681, Alt.=114.356506m. Speed=0.036000m/h.</desc>
<speed>0.010000</speed>
</trkpt>
<trkpt lat="55.932072" lon="26.532681">
<ele>114.358459</ele>
<time>2010-08-29T08:16:35Z</time>
<desc>lat.=55.932072, lon.=26.532681, Alt.=114.358459m. Speed=0.000000m/h.</desc>
<speed>0.000000</speed>
</trkpt>
<trkpt lat="55.932072" lon="26.532681">
<ele>114.360413</ele>
<time>2010-08-29T08:16:36Z</time>
<desc>lat.=55.932072, lon.=26.532681, Alt.=114.360413m. Speed=0.036000m/h.</desc>
<speed>0.010000</speed>
</trkpt>
<trkpt lat="55.932072" lon="26.532681">
<ele>114.362366</ele>
<time>2010-08-29T08:16:37Z</time>
<desc>lat.=55.932072, lon.=26.532681, Alt.=114.362366m. Speed=0.000000m/h.</desc>
<speed>0.000000</speed>
</trkpt>
<trkpt lat="55.932072" lon="26.532681">
<ele>114.364319</ele>
<time>2010-08-29T08:16:38Z</time>
<desc>lat.=55.932072, lon.=26.532681, Alt.=114.364319m. Speed=0.000000m/h.</desc>
<speed>0.000000</speed>
</trkpt>
<trkpt lat="55.932072" lon="26.532681">
<ele>114.368225</ele>
<time>2010-08-29T08:16:39Z</time>
<desc>lat.=55.932072, lon.=26.532681, Alt.=114.368225m. Speed=0.000000m/h.</desc>
<speed>0.000000</speed>
</trkpt>
<trkpt lat="55.932072" lon="26.532682">
<ele>114.372131</ele>
<time>2010-08-29T08:16:40Z</time>
<desc>lat.=55.932072, lon.=26.532682, Alt.=114.372131m. Speed=0.036000m/h.</desc>
<speed>0.010000</speed>
</trkpt>
<trkpt lat="55.932072" lon="26.532682">
<ele>114.376038</ele>
<time>2010-08-29T08:16:41Z</time>
<desc>lat.=55.932072, lon.=26.532682, Alt.=114.376038m. Speed=0.036000m/h.</desc>
<speed>0.010000</speed>
</trkpt>
<trkpt lat="55.932072" lon="26.532682">
<ele>114.377991</ele>
<time>2010-08-29T08:16:42Z</time>
<desc>lat.=55.932072, lon.=26.532682, Alt.=114.377991m. Speed=0.000000m/h.</desc>
<speed>0.000000</speed>
</trkpt>
<trkpt lat="55.932072" lon="26.532682">
<ele>114.379944</ele>
<time>2010-08-29T08:16:43Z</time>
<desc>lat.=55.932072, lon.=26.532682, Alt.=114.379944m. Speed=0.072000m/h.</desc>
<speed>0.020000</speed>
</trkpt>
<trkpt lat="55.932072" lon="26.532682">
<ele>114.379944</ele>
<time>2010-08-29T08:16:44Z</time>
<desc>lat.=55.932072, lon.=26.532682, Alt.=114.379944m. Speed=0.072000m/h.</desc>
<speed>0.020000</speed>
</trkpt>
<trkpt lat="55.932072" lon="26.532682">
<ele>114.383850</ele>
<time>2010-08-29T08:16:45Z</time>
<desc>lat.=55.932072, lon.=26.532682, Alt.=114.383850m. Speed=0.000000m/h.</desc>
<speed>0.000000</speed>
</trkpt>
<trkpt lat="55.932072" lon="26.532682">
<ele>114.383850</ele>
<time>2010-08-29T08:16:46Z</time>
<desc>lat.=55.932072, lon.=26.532682, Alt.=114.383850m. Speed=0.000000m/h.</desc>
<speed>0.000000</speed>
</trkpt>
<trkpt lat="55.932072" lon="26.532682">
<ele>114.385803</ele>
<time>2010-08-29T08:16:47Z</time>
<desc>lat.=55.932072, lon.=26.532682, Alt.=114.385803m. Speed=0.000000m/h.</desc>
<speed>0.000000</speed>
</trkpt>
<trkpt lat="55.932072" lon="26.532682">
<ele>114.383850</ele>
<time>2010-08-29T08:16:48Z</time>
<desc>lat.=55.932072, lon.=26.532682, Alt.=114.383850m. Speed=0.036000m/h.</desc>
<speed>0.010000</speed>
</trkpt>
<trkpt lat="55.932072" lon="26.532682">
<ele>114.377991</ele>
<time>2010-08-29T08:16:49Z</time>
<desc>lat.=55.932072, lon.=26.532682, Alt.=114.377991m. Speed=0.036000m/h.</desc>
<speed>0.010000</speed>
</trkpt>
<trkpt lat="55.932072" lon="26.532682">
<ele>114.376038</ele>
<time>2010-08-29T08:16:50Z</time>
<desc>lat.=55.932072, lon.=26.532682, Alt.=114.376038m. Speed=0.000000m/h.</desc>
<speed>0.000000</speed>
</trkpt>
<trkpt lat="55.932072" lon="26.532682">
<ele>114.366272</ele>
<time>2010-08-29T08:16:51Z</time>
<desc>lat.=55.932072, lon.=26.532682, Alt.=114.366272m. Speed=0.000000m/h.</desc>
<speed>0.000000</speed>
</trkpt>
<trkpt lat="55.932072" lon="26.532682">
<ele>114.356506</ele>
<time>2010-08-29T08:16:52Z</time>
<desc>lat.=55.932072, lon.=26.532682, Alt.=114.356506m. Speed=0.000000m/h.</desc>
<speed>0.000000</speed>
</trkpt>
<trkpt lat="55.932072" lon="26.532682">
<ele>114.354553</ele>
<time>2010-08-29T08:16:53Z</time>
<desc>lat.=55.932072, lon.=26.532682, Alt.=114.354553m. Speed=0.000000m/h.</desc>
<speed>0.000000</speed>
</trkpt>
<trkpt lat="55.932072" lon="26.532682">
<ele>114.352600</ele>
<time>2010-08-29T08:16:54Z</time>
<desc>lat.=55.932072, lon.=26.532682, Alt.=114.352600m. Speed=0.036000m/h.</desc>
<speed>0.010000</speed>
</trkpt>
<trkpt lat="55.932072" lon="26.532682">
<ele>114.350647</ele>
<time>2010-08-29T08:16:55Z</time>
<desc>lat.=55.932072, lon.=26.532682, Alt.=114.350647m. Speed=0.000000m/h.</desc>
<speed>0.000000</speed>
</trkpt>
<trkpt lat="55.932072" lon="26.532682">
<ele>114.352600</ele>
<time>2010-08-29T08:16:56Z</time>
<desc>lat.=55.932072, lon.=26.532682, Alt.=114.352600m. Speed=0.036000m/h.</desc>
<speed>0.010000</speed>
</trkpt>
<trkpt lat="55.932072" lon="26.532682">
<ele>114.354553</ele>
<time>2010-08-29T08:16:57Z</time>
<desc>lat.=55.932072, lon.=26.532682, Alt.=114.354553m. Speed=0.108000m/h.</desc>
<speed>0.030000</speed>
</trkpt>
<trkpt lat="55.932072" lon="26.532682">
<ele>114.358459</ele>
<time>2010-08-29T08:16:58Z</time>
<desc>lat.=55.932072, lon.=26.532682, Alt.=114.358459m. Speed=0.144000m/h.</desc>
<speed>0.040000</speed>
</trkpt>
<trkpt lat="55.932072" lon="26.532682">
<ele>114.360413</ele>
<time>2010-08-29T08:16:59Z</time>
<desc>lat.=55.932072, lon.=26.532682, Alt.=114.360413m. Speed=0.000000m/h.</desc>
<speed>0.000000</speed>
</trkpt>
<trkpt lat="55.932072" lon="26.532682">
<ele>114.360413</ele>
<time>2010-08-29T08:17:00Z</time>
<desc>lat.=55.932072, lon.=26.532682, Alt.=114.360413m. Speed=0.000000m/h.</desc>
<speed>0.000000</speed>
</trkpt>
<trkpt lat="55.932072" lon="26.532682">
<ele>114.360413</ele>
<time>2010-08-29T08:17:01Z</time>
<desc>lat.=55.932072, lon.=26.532682, Alt.=114.360413m. Speed=0.000000m/h.</desc>
<speed>0.000000</speed>
</trkpt>
<trkpt lat="55.932072" lon="26.532682">
<ele>114.360413</ele>
<time>2010-08-29T08:17:02Z</time>
<desc>lat.=55.932072, lon.=26.532682, Alt.=114.360413m. Speed=0.000000m/h.</desc>
<speed>0.000000</speed>
</trkpt>
<trkpt lat="55.932072" lon="26.532682">
<ele>114.362366</ele>
<time>2010-08-29T08:17:03Z</time>
<desc>lat.=55.932072, lon.=26.532682, Alt.=114.362366m. Speed=0.000000m/h.</desc>
<speed>0.000000</speed>
</trkpt>
<trkpt lat="55.932072" lon="26.532682">
<ele>114.362366</ele>
<time>2010-08-29T08:17:04Z</time>
<desc>lat.=55.932072, lon.=26.532682, Alt.=114.362366m. Speed=0.000000m/h.</desc>
<speed>0.000000</speed>
</trkpt>
<trkpt lat="55.932072" lon="26.532682">
<ele>114.362366</ele>
<time>2010-08-29T08:17:05Z</time>
<desc>lat.=55.932072, lon.=26.532682, Alt.=114.362366m. Speed=0.000000m/h.</desc>
<speed>0.000000</speed>
</trkpt>
<trkpt lat="55.932072" lon="26.532682">
<ele>114.360413</ele>
<time>2010-08-29T08:17:06Z</time>
<desc>lat.=55.932072, lon.=26.532682, Alt.=114.360413m. Speed=0.000000m/h.</desc>
<speed>0.000000</speed>
</trkpt>
<trkpt lat="55.932072" lon="26.532682">
<ele>114.360413</ele>
<time>2010-08-29T08:17:07Z</time>
<desc>lat.=55.932072, lon.=26.532682, Alt.=114.360413m. Speed=0.036000m/h.</desc>
<speed>0.010000</speed>
</trkpt>
<trkpt lat="55.932072" lon="26.532682">
<ele>114.358459</ele>
<time>2010-08-29T08:17:08Z</time>
<desc>lat.=55.932072, lon.=26.532682, Alt.=114.358459m. Speed=0.000000m/h.</desc>
<speed>0.000000</speed>
</trkpt>
<trkpt lat="55.932072" lon="26.532682">
<ele>114.358459</ele>
<time>2010-08-29T08:17:09Z</time>
<desc>lat.=55.932072, lon.=26.532682, Alt.=114.358459m. Speed=0.036000m/h.</desc>
<speed>0.010000</speed>
</trkpt>
<trkpt lat="55.932076" lon="26.532682">
<ele>114.356506</ele>
<time>2010-08-29T08:17:10Z</time>
<desc>lat.=55.932076, lon.=26.532682, Alt.=114.356506m. Speed=0.072000m/h.</desc>
<speed>0.020000</speed>
</trkpt>
<trkpt lat="55.932076" lon="26.532682">
<ele>114.356506</ele>
<time>2010-08-29T08:17:11Z</time>
<desc>lat.=55.932076, lon.=26.532682, Alt.=114.356506m. Speed=0.144000m/h.</desc>
<speed>0.040000</speed>
</trkpt>
<trkpt lat="55.932076" lon="26.532681">
<ele>114.356506</ele>
<time>2010-08-29T08:17:12Z</time>
<desc>lat.=55.932076, lon.=26.532681, Alt.=114.356506m. Speed=0.108000m/h.</desc>
<speed>0.030000</speed>
</trkpt>
<trkpt lat="55.932076" lon="26.532681">
<ele>114.356506</ele>
<time>2010-08-29T08:17:13Z</time>
<desc>lat.=55.932076, lon.=26.532681, Alt.=114.356506m. Speed=0.108000m/h.</desc>
<speed>0.030000</speed>
</trkpt>
<trkpt lat="55.932076" lon="26.532681">
<ele>114.356506</ele>
<time>2010-08-29T08:17:14Z</time>
<desc>lat.=55.932076, lon.=26.532681, Alt.=114.356506m. Speed=0.072000m/h.</desc>
<speed>0.020000</speed>
</trkpt>
<trkpt lat="55.932076" lon="26.532681">
<ele>114.358459</ele>
<time>2010-08-29T08:17:15Z</time>
<desc>lat.=55.932076, lon.=26.532681, Alt.=114.358459m. Speed=0.108000m/h.</desc>
<speed>0.030000</speed>
</trkpt>
<trkpt lat="55.932076" lon="26.532681">
<ele>114.358459</ele>
<time>2010-08-29T08:17:16Z</time>
<desc>lat.=55.932076, lon.=26.532681, Alt.=114.358459m. Speed=0.072000m/h.</desc>
<speed>0.020000</speed>
</trkpt>
<trkpt lat="55.932076" lon="26.532681">
<ele>114.358459</ele>
<time>2010-08-29T08:17:17Z</time>
<desc>lat.=55.932076, lon.=26.532681, Alt.=114.358459m. Speed=0.072000m/h.</desc>
<speed>0.020000</speed>
</trkpt>
<trkpt lat="55.932076" lon="26.532681">
<ele>114.358459</ele>
<time>2010-08-29T08:17:18Z</time>
<desc>lat.=55.932076, lon.=26.532681, Alt.=114.358459m. Speed=0.072000m/h.</desc>
<speed>0.020000</speed>
</trkpt>
<trkpt lat="55.932076" lon="26.532681">
<ele>114.360413</ele>
<time>2010-08-29T08:17:19Z</time>
<desc>lat.=55.932076, lon.=26.532681, Alt.=114.360413m. Speed=0.036000m/h.</desc>
<speed>0.010000</speed>
</trkpt>
<trkpt lat="55.932076" lon="26.532681">
<ele>114.362366</ele>
<time>2010-08-29T08:17:20Z</time>
<desc>lat.=55.932076, lon.=26.532681, Alt.=114.362366m. Speed=0.000000m/h.</desc>
<speed>0.000000</speed>
</trkpt>
<trkpt lat="55.932076" lon="26.532681">
<ele>114.364319</ele>
<time>2010-08-29T08:17:21Z</time>
<desc>lat.=55.932076, lon.=26.532681, Alt.=114.364319m. Speed=0.216000m/h.</desc>
<speed>0.060000</speed>
</trkpt>
<trkpt lat="55.932076" lon="26.532679">
<ele>114.366272</ele>
<time>2010-08-29T08:17:22Z</time>
<desc>lat.=55.932076, lon.=26.532679, Alt.=114.366272m. Speed=0.432000m/h.</desc>
<speed>0.120000</speed>
</trkpt>
<trkpt lat="55.932076" lon="26.532679">
<ele>114.368225</ele>
<time>2010-08-29T08:17:23Z</time>
<desc>lat.=55.932076, lon.=26.532679, Alt.=114.368225m. Speed=0.720000m/h.</desc>
<speed>0.200000</speed>
</trkpt>
<trkpt lat="55.932079" lon="26.532675">
<ele>114.374084</ele>
<time>2010-08-29T08:17:24Z</time>
<desc>lat.=55.932079, lon.=26.532675, Alt.=114.374084m. Speed=2.880000m/h.</desc>
<speed>0.800000</speed>
</trkpt>
<trkpt lat="55.932087" lon="26.532650">
<ele>114.585022</ele>
<time>2010-08-29T08:17:25Z</time>
<desc>lat.=55.932087, lon.=26.532650, Alt.=114.585022m. Speed=5.544000m/h.</desc>
<speed>1.540000</speed>
</trkpt>
<trkpt lat="55.932095" lon="26.532627">
<ele>114.573303</ele>
<time>2010-08-29T08:17:26Z</time>
<desc>lat.=55.932095, lon.=26.532627, Alt.=114.573303m. Speed=6.048000m/h.</desc>
<speed>1.680000</speed>
</trkpt>
<trkpt lat="55.932106" lon="26.532598">
<ele>114.741272</ele>
<time>2010-08-29T08:17:27Z</time>
<desc>lat.=55.932106, lon.=26.532598, Alt.=114.741272m. Speed=6.876000m/h.</desc>
<speed>1.910000</speed>
</trkpt>
<trkpt lat="55.932117" lon="26.532572">
<ele>114.795959</ele>
<time>2010-08-29T08:17:28Z</time>
<desc>lat.=55.932117, lon.=26.532572, Alt.=114.795959m. Speed=7.308000m/h.</desc>
<speed>2.030000</speed>
</trkpt>
<trkpt lat="55.932125" lon="26.532541">
<ele>114.963928</ele>
<time>2010-08-29T08:17:29Z</time>
<desc>lat.=55.932125, lon.=26.532541, Alt.=114.963928m. Speed=7.092000m/h.</desc>
<speed>1.970000</speed>
</trkpt>
<trkpt lat="55.932137" lon="26.532520">
<ele>115.368225</ele>
<time>2010-08-29T08:17:30Z</time>
<desc>lat.=55.932137, lon.=26.532520, Alt.=115.368225m. Speed=6.480000m/h.</desc>
<speed>1.800000</speed>
</trkpt>
<trkpt lat="55.932148" lon="26.532499">
<ele>115.200256</ele>
<time>2010-08-29T08:17:31Z</time>
<desc>lat.=55.932148, lon.=26.532499, Alt.=115.200256m. Speed=5.976000m/h.</desc>
<speed>1.660000</speed>
</trkpt>
<trkpt lat="55.932156" lon="26.532480">
<ele>115.419006</ele>
<time>2010-08-29T08:17:32Z</time>
<desc>lat.=55.932156, lon.=26.532480, Alt.=115.419006m. Speed=6.732000m/h.</desc>
<speed>1.870000</speed>
</trkpt>
<trkpt lat="55.932167" lon="26.532448">
<ele>115.667053</ele>
<time>2010-08-29T08:17:33Z</time>
<desc>lat.=55.932167, lon.=26.532448, Alt.=115.667053m. Speed=7.812000m/h.</desc>
<speed>2.170000</speed>
</trkpt>
<trkpt lat="55.932182" lon="26.532419">
<ele>115.885803</ele>
<time>2010-08-29T08:17:34Z</time>
<desc>lat.=55.932182, lon.=26.532419, Alt.=115.885803m. Speed=8.064000m/h.</desc>
<speed>2.240000</speed>
</trkpt>
<trkpt lat="55.932198" lon="26.532389">
<ele>115.848694</ele>
<time>2010-08-29T08:17:35Z</time>
<desc>lat.=55.932198, lon.=26.532389, Alt.=115.848694m. Speed=8.280000m/h.</desc>
<speed>2.300000</speed>
</trkpt>
<trkpt lat="55.932209" lon="26.532360">
<ele>115.889709</ele>
<time>2010-08-29T08:17:36Z</time>
<desc>lat.=55.932209, lon.=26.532360, Alt.=115.889709m. Speed=7.776000m/h.</desc>
<speed>2.160000</speed>
</trkpt>
<trkpt lat="55.932224" lon="26.532331">
<ele>116.178772</ele>
<time>2010-08-29T08:17:37Z</time>
<desc>lat.=55.932224, lon.=26.532331, Alt.=116.178772m. Speed=8.856000m/h.</desc>
<speed>2.460000</speed>
</trkpt>
<trkpt lat="55.932240" lon="26.532301">
<ele>116.266663</ele>
<time>2010-08-29T08:17:38Z</time>
<desc>lat.=55.932240, lon.=26.532301, Alt.=116.266663m. Speed=9.288000m/h.</desc>
<speed>2.580000</speed>
</trkpt>
<trkpt lat="55.932259" lon="26.532267">
<ele>116.366272</ele>
<time>2010-08-29T08:17:39Z</time>
<desc>lat.=55.932259, lon.=26.532267, Alt.=116.366272m. Speed=9.576000m/h.</desc>
<speed>2.660000</speed>
</trkpt>
<trkpt lat="55.932278" lon="26.532234">
<ele>116.643616</ele>
<time>2010-08-29T08:17:40Z</time>
<desc>lat.=55.932278, lon.=26.532234, Alt.=116.643616m. Speed=10.656000m/h.</desc>
<speed>2.960000</speed>
</trkpt>
<trkpt lat="55.932297" lon="26.532198">
<ele>116.805725</ele>
<time>2010-08-29T08:17:41Z</time>
<desc>lat.=55.932297, lon.=26.532198, Alt.=116.805725m. Speed=11.304000m/h.</desc>
<speed>3.140000</speed>
</trkpt>
<trkpt lat="55.932320" lon="26.532160">
<ele>116.915100</ele>
<time>2010-08-29T08:17:42Z</time>
<desc>lat.=55.932320, lon.=26.532160, Alt.=116.915100m. Speed=11.412000m/h.</desc>
<speed>3.170000</speed>
</trkpt>
<trkpt lat="55.932339" lon="26.532118">
<ele>117.178772</ele>
<time>2010-08-29T08:17:43Z</time>
<desc>lat.=55.932339, lon.=26.532118, Alt.=117.178772m. Speed=11.232000m/h.</desc>
<speed>3.120000</speed>
</trkpt>
<trkpt lat="55.932358" lon="26.532078">
<ele>117.139709</ele>
<time>2010-08-29T08:17:44Z</time>
<desc>lat.=55.932358, lon.=26.532078, Alt.=117.139709m. Speed=11.592000m/h.</desc>
<speed>3.220000</speed>
</trkpt>
<trkpt lat="55.932377" lon="26.532040">
<ele>117.463928</ele>
<time>2010-08-29T08:17:45Z</time>
<desc>lat.=55.932377, lon.=26.532040, Alt.=117.463928m. Speed=11.268000m/h.</desc>
<speed>3.130000</speed>
</trkpt>
<trkpt lat="55.932396" lon="26.532001">
<ele>117.458069</ele>
<time>2010-08-29T08:17:46Z</time>
<desc>lat.=55.932396, lon.=26.532001, Alt.=117.458069m. Speed=11.484000m/h.</desc>
<speed>3.190000</speed>
</trkpt>
<trkpt lat="55.932411" lon="26.531967">
<ele>117.608459</ele>
<time>2010-08-29T08:17:47Z</time>
<desc>lat.=55.932411, lon.=26.531967, Alt.=117.608459m. Speed=11.340000m/h.</desc>
<speed>3.150000</speed>
</trkpt>
<trkpt lat="55.932430" lon="26.531929">
<ele>117.729553</ele>
<time>2010-08-29T08:17:48Z</time>
<desc>lat.=55.932430, lon.=26.531929, Alt.=117.729553m. Speed=11.052000m/h.</desc>
<speed>3.070000</speed>
</trkpt>
<trkpt lat="55.932449" lon="26.531898">
<ele>117.885803</ele>
<time>2010-08-29T08:17:49Z</time>
<desc>lat.=55.932449, lon.=26.531898, Alt.=117.885803m. Speed=11.016000m/h.</desc>
<speed>3.060000</speed>
</trkpt>
<trkpt lat="55.932468" lon="26.531862">
<ele>117.922913</ele>
<time>2010-08-29T08:17:50Z</time>
<desc>lat.=55.932468, lon.=26.531862, Alt.=117.922913m. Speed=11.304000m/h.</desc>
<speed>3.140000</speed>
</trkpt>
<trkpt lat="55.932491" lon="26.531824">
<ele>118.040100</ele>
<time>2010-08-29T08:17:51Z</time>
<desc>lat.=55.932491, lon.=26.531824, Alt.=118.040100m. Speed=11.952000m/h.</desc>
<speed>3.320000</speed>
</trkpt>
<trkpt lat="55.932510" lon="26.531786">
<ele>118.204163</ele>
<time>2010-08-29T08:17:52Z</time>
<desc>lat.=55.932510, lon.=26.531786, Alt.=118.204163m. Speed=11.340000m/h.</desc>
<speed>3.150000</speed>
</trkpt>
<trkpt lat="55.932529" lon="26.531748">
<ele>118.190491</ele>
<time>2010-08-29T08:17:53Z</time>
<desc>lat.=55.932529, lon.=26.531748, Alt.=118.190491m. Speed=11.088000m/h.</desc>
<speed>3.080000</speed>
</trkpt>
<trkpt lat="55.932552" lon="26.531719">
<ele>118.532288</ele>
<time>2010-08-29T08:17:54Z</time>
<desc>lat.=55.932552, lon.=26.531719, Alt.=118.532288m. Speed=11.628000m/h.</desc>
<speed>3.230000</speed>
</trkpt>
<trkpt lat="55.932579" lon="26.531693">
<ele>118.710022</ele>
<time>2010-08-29T08:17:55Z</time>
<desc>lat.=55.932579, lon.=26.531693, Alt.=118.710022m. Speed=11.988000m/h.</desc>
<speed>3.330000</speed>
</trkpt>
<trkpt lat="55.932602" lon="26.531658">
<ele>118.850647</ele>
<time>2010-08-29T08:17:56Z</time>
<desc>lat.=55.932602, lon.=26.531658, Alt.=118.850647m. Speed=12.060000m/h.</desc>
<speed>3.350000</speed>
</trkpt>
<trkpt lat="55.932621" lon="26.531626">
<ele>118.719788</ele>
<time>2010-08-29T08:17:57Z</time>
<desc>lat.=55.932621, lon.=26.531626, Alt.=118.719788m. Speed=11.160000m/h.</desc>
<speed>3.100000</speed>
</trkpt>
<trkpt lat="55.932644" lon="26.531595">
<ele>118.979553</ele>
<time>2010-08-29T08:17:58Z</time>
<desc>lat.=55.932644, lon.=26.531595, Alt.=118.979553m. Speed=11.448000m/h.</desc>
<speed>3.180000</speed>
</trkpt>
<trkpt lat="55.932663" lon="26.531555">
<ele>119.456116</ele>
<time>2010-08-29T08:17:59Z</time>
<desc>lat.=55.932663, lon.=26.531555, Alt.=119.456116m. Speed=11.592000m/h.</desc>
<speed>3.220000</speed>
</trkpt>
<trkpt lat="55.932678" lon="26.531517">
<ele>118.559631</ele>
<time>2010-08-29T08:18:00Z</time>
<desc>lat.=55.932678, lon.=26.531517, Alt.=118.559631m. Speed=11.088000m/h.</desc>
<speed>3.080000</speed>
</trkpt>
<trkpt lat="55.932697" lon="26.531483">
<ele>118.417053</ele>
<time>2010-08-29T08:18:01Z</time>
<desc>lat.=55.932697, lon.=26.531483, Alt.=118.417053m. Speed=10.872000m/h.</desc>
<speed>3.020000</speed>
</trkpt>
<trkpt lat="55.932716" lon="26.531452">
<ele>118.356506</ele>
<time>2010-08-29T08:18:02Z</time>
<desc>lat.=55.932716, lon.=26.531452, Alt.=118.356506m. Speed=10.116000m/h.</desc>
<speed>2.810000</speed>
</trkpt>
<trkpt lat="55.932732" lon="26.531422">
<ele>118.268616</ele>
<time>2010-08-29T08:18:03Z</time>
<desc>lat.=55.932732, lon.=26.531422, Alt.=118.268616m. Speed=10.260000m/h.</desc>
<speed>2.850000</speed>
</trkpt>
<trkpt lat="55.932751" lon="26.531385">
<ele>118.157288</ele>
<time>2010-08-29T08:18:04Z</time>
<desc>lat.=55.932751, lon.=26.531385, Alt.=118.157288m. Speed=11.268000m/h.</desc>
<speed>3.130000</speed>
</trkpt>
<trkpt lat="55.932774" lon="26.531353">
<ele>118.354553</ele>
<time>2010-08-29T08:18:05Z</time>
<desc>lat.=55.932774, lon.=26.531353, Alt.=118.354553m. Speed=12.060000m/h.</desc>
<speed>3.350000</speed>
</trkpt>
<trkpt lat="55.932796" lon="26.531317">
<ele>118.295959</ele>
<time>2010-08-29T08:18:06Z</time>
<desc>lat.=55.932796, lon.=26.531317, Alt.=118.295959m. Speed=11.592000m/h.</desc>
<speed>3.220000</speed>
</trkpt>
<trkpt lat="55.932816" lon="26.531284">
<ele>118.381897</ele>
<time>2010-08-29T08:18:07Z</time>
<desc>lat.=55.932816, lon.=26.531284, Alt.=118.381897m. Speed=11.628000m/h.</desc>
<speed>3.230000</speed>
</trkpt>
<trkpt lat="55.932838" lon="26.531248">
<ele>118.487366</ele>
<time>2010-08-29T08:18:08Z</time>
<desc>lat.=55.932838, lon.=26.531248, Alt.=118.487366m. Speed=10.944000m/h.</desc>
<speed>3.040000</speed>
</trkpt>
<trkpt lat="55.932858" lon="26.531214">
<ele>118.704163</ele>
<time>2010-08-29T08:18:09Z</time>
<desc>lat.=55.932858, lon.=26.531214, Alt.=118.704163m. Speed=10.548000m/h.</desc>
<speed>2.930000</speed>
</trkpt>
<trkpt lat="55.932873" lon="26.531181">
<ele>118.729553</ele>
<time>2010-08-29T08:18:10Z</time>
<desc>lat.=55.932873, lon.=26.531181, Alt.=118.729553m. Speed=11.340000m/h.</desc>
<speed>3.150000</speed>
</trkpt>
<trkpt lat="55.932896" lon="26.531141">
<ele>118.739319</ele>
<time>2010-08-29T08:18:11Z</time>
<desc>lat.=55.932896, lon.=26.531141, Alt.=118.739319m. Speed=11.520000m/h.</desc>
<speed>3.200000</speed>
</trkpt>
<trkpt lat="55.932915" lon="26.531109">
<ele>118.815491</ele>
<time>2010-08-29T08:18:12Z</time>
<desc>lat.=55.932915, lon.=26.531109, Alt.=118.815491m. Speed=11.556000m/h.</desc>
<speed>3.210000</speed>
</trkpt>
<trkpt lat="55.932941" lon="26.531069">
<ele>118.776428</ele>
<time>2010-08-29T08:18:13Z</time>
<desc>lat.=55.932941, lon.=26.531069, Alt.=118.776428m. Speed=11.700000m/h.</desc>
<speed>3.250000</speed>
</trkpt>
<trkpt lat="55.932961" lon="26.531033">
<ele>118.919006</ele>
<time>2010-08-29T08:18:14Z</time>
<desc>lat.=55.932961, lon.=26.531033, Alt.=118.919006m. Speed=11.844000m/h.</desc>
<speed>3.290000</speed>
</trkpt>
<trkpt lat="55.932980" lon="26.530998">
<ele>119.022522</ele>
<time>2010-08-29T08:18:15Z</time>
<desc>lat.=55.932980, lon.=26.530998, Alt.=119.022522m. Speed=12.096000m/h.</desc>
<speed>3.360000</speed>
</trkpt>
<trkpt lat="55.933002" lon="26.530964">
<ele>118.833069</ele>
<time>2010-08-29T08:18:16Z</time>
<desc>lat.=55.933002, lon.=26.530964, Alt.=118.833069m. Speed=11.988000m/h.</desc>
<speed>3.330000</speed>
</trkpt>
<trkpt lat="55.933025" lon="26.530930">
<ele>118.905334</ele>
<time>2010-08-29T08:18:17Z</time>
<desc>lat.=55.933025, lon.=26.530930, Alt.=118.905334m. Speed=12.600000m/h.</desc>
<speed>3.500000</speed>
</trkpt>
<trkpt lat="55.933052" lon="26.530893">
<ele>119.032288</ele>
<time>2010-08-29T08:18:18Z</time>
<desc>lat.=55.933052, lon.=26.530893, Alt.=119.032288m. Speed=12.204000m/h.</desc>
<speed>3.390000</speed>
</trkpt>
<trkpt lat="55.933075" lon="26.530855">
<ele>119.024475</ele>
<time>2010-08-29T08:18:19Z</time>
<desc>lat.=55.933075, lon.=26.530855, Alt.=119.024475m. Speed=12.060000m/h.</desc>
<speed>3.350000</speed>
</trkpt>
<trkpt lat="55.933102" lon="26.530819">
<ele>119.180725</ele>
<time>2010-08-29T08:18:20Z</time>
<desc>lat.=55.933102, lon.=26.530819, Alt.=119.180725m. Speed=12.168000m/h.</desc>
<speed>3.380000</speed>
</trkpt>
<trkpt lat="55.933125" lon="26.530787">
<ele>118.844788</ele>
<time>2010-08-29T08:18:21Z</time>
<desc>lat.=55.933125, lon.=26.530787, Alt.=118.844788m. Speed=11.988000m/h.</desc>
<speed>3.330000</speed>
</trkpt>
<trkpt lat="55.933155" lon="26.530760">
<ele>118.768616</ele>
<time>2010-08-29T08:18:22Z</time>
<desc>lat.=55.933155, lon.=26.530760, Alt.=118.768616m. Speed=11.916000m/h.</desc>
<speed>3.310000</speed>
</trkpt>
<trkpt lat="55.933182" lon="26.530729">
<ele>118.659241</ele>
<time>2010-08-29T08:18:23Z</time>
<desc>lat.=55.933182, lon.=26.530729, Alt.=118.659241m. Speed=12.312000m/h.</desc>
<speed>3.420000</speed>
</trkpt>
<trkpt lat="55.933205" lon="26.530703">
<ele>118.618225</ele>
<time>2010-08-29T08:18:24Z</time>
<desc>lat.=55.933205, lon.=26.530703, Alt.=118.618225m. Speed=12.132000m/h.</desc>
<speed>3.370000</speed>
</trkpt>
<trkpt lat="55.933231" lon="26.530672">
<ele>118.919006</ele>
<time>2010-08-29T08:18:25Z</time>
<desc>lat.=55.933231, lon.=26.530672, Alt.=118.919006m. Speed=10.908000m/h.</desc>
<speed>3.030000</speed>
</trkpt>
<trkpt lat="55.933254" lon="26.530649">
<ele>119.110413</ele>
<time>2010-08-29T08:18:26Z</time>
<desc>lat.=55.933254, lon.=26.530649, Alt.=119.110413m. Speed=9.972000m/h.</desc>
<speed>2.770000</speed>
</trkpt>
<trkpt lat="55.933281" lon="26.530632">
<ele>119.538147</ele>
<time>2010-08-29T08:18:27Z</time>
<desc>lat.=55.933281, lon.=26.530632, Alt.=119.538147m. Speed=9.288000m/h.</desc>
<speed>2.580000</speed>
</trkpt>
<trkpt lat="55.933304" lon="26.530615">
<ele>119.803772</ele>
<time>2010-08-29T08:18:28Z</time>
<desc>lat.=55.933304, lon.=26.530615, Alt.=119.803772m. Speed=8.496000m/h.</desc>
<speed>2.360000</speed>
</trkpt>
<trkpt lat="55.933323" lon="26.530602">
<ele>119.635803</ele>
<time>2010-08-29T08:18:29Z</time>
<desc>lat.=55.933323, lon.=26.530602, Alt.=119.635803m. Speed=7.884000m/h.</desc>
<speed>2.190000</speed>
</trkpt>
<trkpt lat="55.933346" lon="26.530592">
<ele>119.821350</ele>
<time>2010-08-29T08:18:30Z</time>
<desc>lat.=55.933346, lon.=26.530592, Alt.=119.821350m. Speed=8.928000m/h.</desc>
<speed>2.480000</speed>
</trkpt>
<trkpt lat="55.933365" lon="26.530575">
<ele>119.694397</ele>
<time>2010-08-29T08:18:31Z</time>
<desc>lat.=55.933365, lon.=26.530575, Alt.=119.694397m. Speed=9.540000m/h.</desc>
<speed>2.650000</speed>
</trkpt>
<trkpt lat="55.933388" lon="26.530561">
<ele>119.874084</ele>
<time>2010-08-29T08:18:32Z</time>
<desc>lat.=55.933388, lon.=26.530561, Alt.=119.874084m. Speed=10.080000m/h.</desc>
<speed>2.800000</speed>
</trkpt>
<trkpt lat="55.933411" lon="26.530542">
<ele>119.942444</ele>
<time>2010-08-29T08:18:33Z</time>
<desc>lat.=55.933411, lon.=26.530542, Alt.=119.942444m. Speed=10.080000m/h.</desc>
<speed>2.800000</speed>
</trkpt>
<trkpt lat="55.933434" lon="26.530523">
<ele>120.264709</ele>
<time>2010-08-29T08:18:34Z</time>
<desc>lat.=55.933434, lon.=26.530523, Alt.=120.264709m. Speed=10.476000m/h.</desc>
<speed>2.910000</speed>
</trkpt>
<trkpt lat="55.933460" lon="26.530508">
<ele>120.286194</ele>
<time>2010-08-29T08:18:35Z</time>
<desc>lat.=55.933460, lon.=26.530508, Alt.=120.286194m. Speed=9.828000m/h.</desc>
<speed>2.730000</speed>
</trkpt>
<trkpt lat="55.933483" lon="26.530487">
<ele>120.387756</ele>
<time>2010-08-29T08:18:36Z</time>
<desc>lat.=55.933483, lon.=26.530487, Alt.=120.387756m. Speed=10.872000m/h.</desc>
<speed>3.020000</speed>
</trkpt>
<trkpt lat="55.933510" lon="26.530474">
<ele>120.389709</ele>
<time>2010-08-29T08:18:37Z</time>
<desc>lat.=55.933510, lon.=26.530474, Alt.=120.389709m. Speed=11.016000m/h.</desc>
<speed>3.060000</speed>
</trkpt>
<trkpt lat="55.933537" lon="26.530453">
<ele>120.389709</ele>
<time>2010-08-29T08:18:38Z</time>
<desc>lat.=55.933537, lon.=26.530453, Alt.=120.389709m. Speed=10.872000m/h.</desc>
<speed>3.020000</speed>
</trkpt>
<trkpt lat="55.933559" lon="26.530426">
<ele>120.460022</ele>
<time>2010-08-29T08:18:39Z</time>
<desc>lat.=55.933559, lon.=26.530426, Alt.=120.460022m. Speed=10.512000m/h.</desc>
<speed>2.920000</speed>
</trkpt>
<trkpt lat="55.933582" lon="26.530409">
<ele>120.737366</ele>
<time>2010-08-29T08:18:40Z</time>
<desc>lat.=55.933582, lon.=26.530409, Alt.=120.737366m. Speed=10.548000m/h.</desc>
<speed>2.930000</speed>
</trkpt>
<trkpt lat="55.933605" lon="26.530394">
<ele>120.352600</ele>
<time>2010-08-29T08:18:41Z</time>
<desc>lat.=55.933605, lon.=26.530394, Alt.=120.352600m. Speed=10.224000m/h.</desc>
<speed>2.840000</speed>
</trkpt>
<trkpt lat="55.933632" lon="26.530378">
<ele>120.694397</ele>
<time>2010-08-29T08:18:42Z</time>
<desc>lat.=55.933632, lon.=26.530378, Alt.=120.694397m. Speed=10.296000m/h.</desc>
<speed>2.860000</speed>
</trkpt>
<trkpt lat="55.933655" lon="26.530369">
<ele>120.790100</ele>
<time>2010-08-29T08:18:43Z</time>
<desc>lat.=55.933655, lon.=26.530369, Alt.=120.790100m. Speed=10.116000m/h.</desc>
<speed>2.810000</speed>
</trkpt>
<trkpt lat="55.933678" lon="26.530361">
<ele>120.846741</ele>
<time>2010-08-29T08:18:44Z</time>
<desc>lat.=55.933678, lon.=26.530361, Alt.=120.846741m. Speed=9.180000m/h.</desc>
<speed>2.550000</speed>
</trkpt>
<trkpt lat="55.933704" lon="26.530359">
<ele>120.860413</ele>
<time>2010-08-29T08:18:45Z</time>
<desc>lat.=55.933704, lon.=26.530359, Alt.=120.860413m. Speed=10.692000m/h.</desc>
<speed>2.970000</speed>
</trkpt>
<trkpt lat="55.933727" lon="26.530354">
<ele>120.862366</ele>
<time>2010-08-29T08:18:46Z</time>
<desc>lat.=55.933727, lon.=26.530354, Alt.=120.862366m. Speed=9.972000m/h.</desc>
<speed>2.770000</speed>
</trkpt>
<trkpt lat="55.933754" lon="26.530346">
<ele>120.833069</ele>
<time>2010-08-29T08:18:47Z</time>
<desc>lat.=55.933754, lon.=26.530346, Alt.=120.833069m. Speed=9.108000m/h.</desc>
<speed>2.530000</speed>
</trkpt>
<trkpt lat="55.933781" lon="26.530350">
<ele>121.057678</ele>
<time>2010-08-29T08:18:48Z</time>
<desc>lat.=55.933781, lon.=26.530350, Alt.=121.057678m. Speed=10.116000m/h.</desc>
<speed>2.810000</speed>
</trkpt>
<trkpt lat="55.933804" lon="26.530352">
<ele>120.719788</ele>
<time>2010-08-29T08:18:49Z</time>
<desc>lat.=55.933804, lon.=26.530352, Alt.=120.719788m. Speed=9.612000m/h.</desc>
<speed>2.670000</speed>
</trkpt>
<trkpt lat="55.933830" lon="26.530361">
<ele>120.641663</ele>
<time>2010-08-29T08:18:50Z</time>
<desc>lat.=55.933830, lon.=26.530361, Alt.=120.641663m. Speed=9.540000m/h.</desc>
<speed>2.650000</speed>
</trkpt>
<trkpt lat="55.933853" lon="26.530367">
<ele>120.676819</ele>
<time>2010-08-29T08:18:51Z</time>
<desc>lat.=55.933853, lon.=26.530367, Alt.=120.676819m. Speed=9.648000m/h.</desc>
<speed>2.680000</speed>
</trkpt>
<trkpt lat="55.933880" lon="26.530376">
<ele>120.856506</ele>
<time>2010-08-29T08:18:52Z</time>
<desc>lat.=55.933880, lon.=26.530376, Alt.=120.856506m. Speed=9.936000m/h.</desc>
<speed>2.760000</speed>
</trkpt>
<trkpt lat="55.933907" lon="26.530382">
<ele>121.098694</ele>
<time>2010-08-29T08:18:53Z</time>
<desc>lat.=55.933907, lon.=26.530382, Alt.=121.098694m. Speed=10.080000m/h.</desc>
<speed>2.800000</speed>
</trkpt>
<trkpt lat="55.933933" lon="26.530397">
<ele>121.237366</ele>
<time>2010-08-29T08:18:54Z</time>
<desc>lat.=55.933933, lon.=26.530397, Alt.=121.237366m. Speed=9.828000m/h.</desc>
<speed>2.730000</speed>
</trkpt>
<trkpt lat="55.933956" lon="26.530409">
<ele>121.227600</ele>
<time>2010-08-29T08:18:55Z</time>
<desc>lat.=55.933956, lon.=26.530409, Alt.=121.227600m. Speed=9.504000m/h.</desc>
<speed>2.640000</speed>
</trkpt>
<trkpt lat="55.933979" lon="26.530424">
<ele>121.311584</ele>
<time>2010-08-29T08:18:56Z</time>
<desc>lat.=55.933979, lon.=26.530424, Alt.=121.311584m. Speed=9.900000m/h.</desc>
<speed>2.750000</speed>
</trkpt>
<trkpt lat="55.934006" lon="26.530437">
<ele>121.473694</ele>
<time>2010-08-29T08:18:57Z</time>
<desc>lat.=55.934006, lon.=26.530437, Alt.=121.473694m. Speed=11.268000m/h.</desc>
<speed>3.130000</speed>
</trkpt>
<trkpt lat="55.934040" lon="26.530453">
<ele>121.602600</ele>
<time>2010-08-29T08:18:58Z</time>
<desc>lat.=55.934040, lon.=26.530453, Alt.=121.602600m. Speed=10.224000m/h.</desc>
<speed>2.840000</speed>
</trkpt>
<trkpt lat="55.934067" lon="26.530462">
<ele>121.528381</ele>
<time>2010-08-29T08:18:59Z</time>
<desc>lat.=55.934067, lon.=26.530462, Alt.=121.528381m. Speed=10.512000m/h.</desc>
<speed>2.920000</speed>
</trkpt>
<trkpt lat="55.934093" lon="26.530478">
<ele>121.725647</ele>
<time>2010-08-29T08:19:00Z</time>
<desc>lat.=55.934093, lon.=26.530478, Alt.=121.725647m. Speed=10.224000m/h.</desc>
<speed>2.840000</speed>
</trkpt>
<trkpt lat="55.934124" lon="26.530493">
<ele>121.879944</ele>
<time>2010-08-29T08:19:01Z</time>
<desc>lat.=55.934124, lon.=26.530493, Alt.=121.879944m. Speed=10.440000m/h.</desc>
<speed>2.900000</speed>
</trkpt>
<trkpt lat="55.934151" lon="26.530502">
<ele>122.151428</ele>
<time>2010-08-29T08:19:02Z</time>
<desc>lat.=55.934151, lon.=26.530502, Alt.=122.151428m. Speed=10.332000m/h.</desc>
<speed>2.870000</speed>
</trkpt>
<trkpt lat="55.934177" lon="26.530512">
<ele>122.295959</ele>
<time>2010-08-29T08:19:03Z</time>
<desc>lat.=55.934177, lon.=26.530512, Alt.=122.295959m. Speed=11.160000m/h.</desc>
<speed>3.100000</speed>
</trkpt>
<trkpt lat="55.934204" lon="26.530527">
<ele>122.303772</ele>
<time>2010-08-29T08:19:04Z</time>
<desc>lat.=55.934204, lon.=26.530527, Alt.=122.303772m. Speed=10.368000m/h.</desc>
<speed>2.880000</speed>
</trkpt>
<trkpt lat="55.934231" lon="26.530542">
<ele>122.676819</ele>
<time>2010-08-29T08:19:05Z</time>
<desc>lat.=55.934231, lon.=26.530542, Alt.=122.676819m. Speed=10.584000m/h.</desc>
<speed>2.940000</speed>
</trkpt>
<trkpt lat="55.934261" lon="26.530556">
<ele>122.762756</ele>
<time>2010-08-29T08:19:06Z</time>
<desc>lat.=55.934261, lon.=26.530556, Alt.=122.762756m. Speed=11.664000m/h.</desc>
<speed>3.240000</speed>
</trkpt>
<trkpt lat="55.934288" lon="26.530571">
<ele>123.223694</ele>
<time>2010-08-29T08:19:07Z</time>
<desc>lat.=55.934288, lon.=26.530571, Alt.=123.223694m. Speed=10.620000m/h.</desc>
<speed>2.950000</speed>
</trkpt>
<trkpt lat="55.934315" lon="26.530582">
<ele>123.559631</ele>
<time>2010-08-29T08:19:08Z</time>
<desc>lat.=55.934315, lon.=26.530582, Alt.=123.559631m. Speed=10.044000m/h.</desc>
<speed>2.790000</speed>
</trkpt>
<trkpt lat="55.934341" lon="26.530598">
<ele>123.733459</ele>
<time>2010-08-29T08:19:09Z</time>
<desc>lat.=55.934341, lon.=26.530598, Alt.=123.733459m. Speed=10.872000m/h.</desc>
<speed>3.020000</speed>
</trkpt>
<trkpt lat="55.934368" lon="26.530615">
<ele>123.756897</ele>
<time>2010-08-29T08:19:10Z</time>
<desc>lat.=55.934368, lon.=26.530615, Alt.=123.756897m. Speed=10.440000m/h.</desc>
<speed>2.900000</speed>
</trkpt>
<trkpt lat="55.934387" lon="26.530634">
<ele>123.995178</ele>
<time>2010-08-29T08:19:11Z</time>
<desc>lat.=55.934387, lon.=26.530634, Alt.=123.995178m. Speed=8.892000m/h.</desc>
<speed>2.470000</speed>
</trkpt>
<trkpt lat="55.934410" lon="26.530645">
<ele>124.159241</ele>
<time>2010-08-29T08:19:12Z</time>
<desc>lat.=55.934410, lon.=26.530645, Alt.=124.159241m. Speed=7.380000m/h.</desc>
<speed>2.050000</speed>
</trkpt>
<trkpt lat="55.934425" lon="26.530655">
<ele>124.700256</ele>
<time>2010-08-29T08:19:13Z</time>
<desc>lat.=55.934425, lon.=26.530655, Alt.=124.700256m. Speed=6.696000m/h.</desc>
<speed>1.860000</speed>
</trkpt>
<trkpt lat="55.934444" lon="26.530672">
<ele>124.917053</ele>
<time>2010-08-29T08:19:14Z</time>
<desc>lat.=55.934444, lon.=26.530672, Alt.=124.917053m. Speed=7.272000m/h.</desc>
<speed>2.020000</speed>
</trkpt>
<trkpt lat="55.934460" lon="26.530691">
<ele>125.135803</ele>
<time>2010-08-29T08:19:15Z</time>
<desc>lat.=55.934460, lon.=26.530691, Alt.=125.135803m. Speed=8.892000m/h.</desc>
<speed>2.470000</speed>
</trkpt>
<trkpt lat="55.934479" lon="26.530703">
<ele>125.409241</ele>
<time>2010-08-29T08:19:16Z</time>
<desc>lat.=55.934479, lon.=26.530703, Alt.=125.409241m. Speed=7.992000m/h.</desc>
<speed>2.220000</speed>
</trkpt>
<trkpt lat="55.934498" lon="26.530718">
<ele>125.874084</ele>
<time>2010-08-29T08:19:17Z</time>
<desc>lat.=55.934498, lon.=26.530718, Alt.=125.874084m. Speed=8.640000m/h.</desc>
<speed>2.400000</speed>
</trkpt>
<trkpt lat="55.934525" lon="26.530725">
<ele>126.002991</ele>
<time>2010-08-29T08:19:18Z</time>
<desc>lat.=55.934525, lon.=26.530725, Alt.=126.002991m. Speed=9.936000m/h.</desc>
<speed>2.760000</speed>
</trkpt>
<trkpt lat="55.934547" lon="26.530733">
<ele>125.831116</ele>
<time>2010-08-29T08:19:19Z</time>
<desc>lat.=55.934547, lon.=26.530733, Alt.=125.831116m. Speed=10.116000m/h.</desc>
<speed>2.810000</speed>
</trkpt>
<trkpt lat="55.934570" lon="26.530750">
<ele>125.874084</ele>
<time>2010-08-29T08:19:20Z</time>
<desc>lat.=55.934570, lon.=26.530750, Alt.=125.874084m. Speed=9.252000m/h.</desc>
<speed>2.570000</speed>
</trkpt>
<trkpt lat="55.934589" lon="26.530766">
<ele>126.174866</ele>
<time>2010-08-29T08:19:21Z</time>
<desc>lat.=55.934589, lon.=26.530766, Alt.=126.174866m. Speed=9.288000m/h.</desc>
<speed>2.580000</speed>
</trkpt>
<trkpt lat="55.934616" lon="26.530775">
<ele>126.301819</ele>
<time>2010-08-29T08:19:22Z</time>
<desc>lat.=55.934616, lon.=26.530775, Alt.=126.301819m. Speed=10.044000m/h.</desc>
<speed>2.790000</speed>
</trkpt>
<trkpt lat="55.934643" lon="26.530785">
<ele>126.487366</ele>
<time>2010-08-29T08:19:23Z</time>
<desc>lat.=55.934643, lon.=26.530785, Alt.=126.487366m. Speed=11.196000m/h.</desc>
<speed>3.110000</speed>
</trkpt>
<trkpt lat="55.934666" lon="26.530796">
<ele>126.631897</ele>
<time>2010-08-29T08:19:24Z</time>
<desc>lat.=55.934666, lon.=26.530796, Alt.=126.631897m. Speed=9.504000m/h.</desc>
<speed>2.640000</speed>
</trkpt>
<trkpt lat="55.934685" lon="26.530807">
<ele>126.585022</ele>
<time>2010-08-29T08:19:25Z</time>
<desc>lat.=55.934685, lon.=26.530807, Alt.=126.585022m. Speed=8.424000m/h.</desc>
<speed>2.340000</speed>
</trkpt>
<trkpt lat="55.934711" lon="26.530817">
<ele>126.663147</ele>
<time>2010-08-29T08:19:26Z</time>
<desc>lat.=55.934711, lon.=26.530817, Alt.=126.663147m. Speed=7.992000m/h.</desc>
<speed>2.220000</speed>
</trkpt>
<trkpt lat="55.934727" lon="26.530815">
<ele>126.417053</ele>
<time>2010-08-29T08:19:27Z</time>
<desc>lat.=55.934727, lon.=26.530815, Alt.=126.417053m. Speed=6.084000m/h.</desc>
<speed>1.690000</speed>
</trkpt>
<trkpt lat="55.934738" lon="26.530821">
<ele>126.586975</ele>
<time>2010-08-29T08:19:28Z</time>
<desc>lat.=55.934738, lon.=26.530821, Alt.=126.586975m. Speed=5.256000m/h.</desc>
<speed>1.460000</speed>
</trkpt>
<trkpt lat="55.934742" lon="26.530832">
<ele>125.801819</ele>
<time>2010-08-29T08:19:29Z</time>
<desc>lat.=55.934742, lon.=26.530832, Alt.=125.801819m. Speed=4.392000m/h.</desc>
<speed>1.220000</speed>
</trkpt>
<trkpt lat="55.934746" lon="26.530842">
<ele>125.323303</ele>
<time>2010-08-29T08:19:30Z</time>
<desc>lat.=55.934746, lon.=26.530842, Alt.=125.323303m. Speed=4.392000m/h.</desc>
<speed>1.220000</speed>
</trkpt>
<trkpt lat="55.934757" lon="26.530857">
<ele>125.223694</ele>
<time>2010-08-29T08:19:31Z</time>
<desc>lat.=55.934757, lon.=26.530857, Alt.=125.223694m. Speed=4.248000m/h.</desc>
<speed>1.180000</speed>
</trkpt>
<trkpt lat="55.934765" lon="26.530863">
<ele>125.477600</ele>
<time>2010-08-29T08:19:32Z</time>
<desc>lat.=55.934765, lon.=26.530863, Alt.=125.477600m. Speed=3.312000m/h.</desc>
<speed>0.920000</speed>
</trkpt>
<trkpt lat="55.934776" lon="26.530874">
<ele>125.288147</ele>
<time>2010-08-29T08:19:33Z</time>
<desc>lat.=55.934776, lon.=26.530874, Alt.=125.288147m. Speed=4.248000m/h.</desc>
<speed>1.180000</speed>
</trkpt>
<trkpt lat="55.934792" lon="26.530891">
<ele>125.432678</ele>
<time>2010-08-29T08:19:34Z</time>
<desc>lat.=55.934792, lon.=26.530891, Alt.=125.432678m. Speed=5.112000m/h.</desc>
<speed>1.420000</speed>
</trkpt>
<trkpt lat="55.934807" lon="26.530895">
<ele>125.444397</ele>
<time>2010-08-29T08:19:35Z</time>
<desc>lat.=55.934807, lon.=26.530895, Alt.=125.444397m. Speed=6.192000m/h.</desc>
<speed>1.720000</speed>
</trkpt>
<trkpt lat="55.934834" lon="26.530895">
<ele>125.501038</ele>
<time>2010-08-29T08:19:36Z</time>
<desc>lat.=55.934834, lon.=26.530895, Alt.=125.501038m. Speed=6.372000m/h.</desc>
<speed>1.770000</speed>
</trkpt>
<trkpt lat="55.934856" lon="26.530899">
<ele>125.440491</ele>
<time>2010-08-29T08:19:37Z</time>
<desc>lat.=55.934856, lon.=26.530899, Alt.=125.440491m. Speed=8.604000m/h.</desc>
<speed>2.390000</speed>
</trkpt>
<trkpt lat="55.934879" lon="26.530914">
<ele>125.114319</ele>
<time>2010-08-29T08:19:38Z</time>
<desc>lat.=55.934879, lon.=26.530914, Alt.=125.114319m. Speed=8.928000m/h.</desc>
<speed>2.480000</speed>
</trkpt>
<trkpt lat="55.934902" lon="26.530933">
<ele>125.024475</ele>
<time>2010-08-29T08:19:39Z</time>
<desc>lat.=55.934902, lon.=26.530933, Alt.=125.024475m. Speed=10.800000m/h.</desc>
<speed>3.000000</speed>
</trkpt>
<trkpt lat="55.934925" lon="26.530954">
<ele>124.993225</ele>
<time>2010-08-29T08:19:40Z</time>
<desc>lat.=55.934925, lon.=26.530954, Alt.=124.993225m. Speed=8.604000m/h.</desc>
<speed>2.390000</speed>
</trkpt>
<trkpt lat="55.934940" lon="26.530968">
<ele>125.006897</ele>
<time>2010-08-29T08:19:41Z</time>
<desc>lat.=55.934940, lon.=26.530968, Alt.=125.006897m. Speed=6.084000m/h.</desc>
<speed>1.690000</speed>
</trkpt>
<trkpt lat="55.934956" lon="26.530981">
<ele>124.877991</ele>
<time>2010-08-29T08:19:42Z</time>
<desc>lat.=55.934956, lon.=26.530981, Alt.=124.877991m. Speed=6.012000m/h.</desc>
<speed>1.670000</speed>
</trkpt>
<trkpt lat="55.934971" lon="26.530994">
<ele>124.795959</ele>
<time>2010-08-29T08:19:43Z</time>
<desc>lat.=55.934971, lon.=26.530994, Alt.=124.795959m. Speed=6.840000m/h.</desc>
<speed>1.900000</speed>
</trkpt>
<trkpt lat="55.934994" lon="26.531013">
<ele>124.852600</ele>
<time>2010-08-29T08:19:44Z</time>
<desc>lat.=55.934994, lon.=26.531013, Alt.=124.852600m. Speed=8.748000m/h.</desc>
<speed>2.430000</speed>
</trkpt>
<trkpt lat="55.935024" lon="26.531029">
<ele>124.985413</ele>
<time>2010-08-29T08:19:45Z</time>
<desc>lat.=55.935024, lon.=26.531029, Alt.=124.985413m. Speed=10.548000m/h.</desc>
<speed>2.930000</speed>
</trkpt>
<trkpt lat="55.935047" lon="26.531042">
<ele>124.938538</ele>
<time>2010-08-29T08:19:46Z</time>
<desc>lat.=55.935047, lon.=26.531042, Alt.=124.938538m. Speed=9.684000m/h.</desc>
<speed>2.690000</speed>
</trkpt>
<trkpt lat="55.935070" lon="26.531055">
<ele>125.004944</ele>
<time>2010-08-29T08:19:47Z</time>
<desc>lat.=55.935070, lon.=26.531055, Alt.=125.004944m. Speed=8.316000m/h.</desc>
<speed>2.310000</speed>
</trkpt>
<trkpt lat="55.935093" lon="26.531069">
<ele>125.090881</ele>
<time>2010-08-29T08:19:48Z</time>
<desc>lat.=55.935093, lon.=26.531069, Alt.=125.090881m. Speed=8.316000m/h.</desc>
<speed>2.310000</speed>
</trkpt>
<trkpt lat="55.935112" lon="26.531090">
<ele>125.241272</ele>
<time>2010-08-29T08:19:49Z</time>
<desc>lat.=55.935112, lon.=26.531090, Alt.=125.241272m. Speed=8.712000m/h.</desc>
<speed>2.420000</speed>
</trkpt>
<trkpt lat="55.935135" lon="26.531107">
<ele>125.561584</ele>
<time>2010-08-29T08:19:50Z</time>
<desc>lat.=55.935135, lon.=26.531107, Alt.=125.561584m. Speed=9.108000m/h.</desc>
<speed>2.530000</speed>
</trkpt>
<trkpt lat="55.935162" lon="26.531128">
<ele>125.596741</ele>
<time>2010-08-29T08:19:51Z</time>
<desc>lat.=55.935162, lon.=26.531128, Alt.=125.596741m. Speed=9.432000m/h.</desc>
<speed>2.620000</speed>
</trkpt>
<trkpt lat="55.935188" lon="26.531137">
<ele>125.745178</ele>
<time>2010-08-29T08:19:52Z</time>
<desc>lat.=55.935188, lon.=26.531137, Alt.=125.745178m. Speed=8.388000m/h.</desc>
<speed>2.330000</speed>
</trkpt>
<trkpt lat="55.935219" lon="26.531141">
<ele>126.252991</ele>
<time>2010-08-29T08:19:53Z</time>
<desc>lat.=55.935219, lon.=26.531141, Alt.=126.252991m. Speed=10.908000m/h.</desc>
<speed>3.030000</speed>
</trkpt>
<trkpt lat="55.935249" lon="26.531147">
<ele>126.299866</ele>
<time>2010-08-29T08:19:54Z</time>
<desc>lat.=55.935249, lon.=26.531147, Alt.=126.299866m. Speed=10.440000m/h.</desc>
<speed>2.900000</speed>
</trkpt>
<trkpt lat="55.935268" lon="26.531155">
<ele>127.090881</ele>
<time>2010-08-29T08:19:55Z</time>
<desc>lat.=55.935268, lon.=26.531155, Alt.=127.090881m. Speed=7.704000m/h.</desc>
<speed>2.140000</speed>
</trkpt>
<trkpt lat="55.935291" lon="26.531160">
<ele>127.313538</ele>
<time>2010-08-29T08:19:56Z</time>
<desc>lat.=55.935291, lon.=26.531160, Alt.=127.313538m. Speed=7.344000m/h.</desc>
<speed>2.040000</speed>
</trkpt>
<trkpt lat="55.935318" lon="26.531166">
<ele>126.799866</ele>
<time>2010-08-29T08:19:57Z</time>
<desc>lat.=55.935318, lon.=26.531166, Alt.=126.799866m. Speed=8.532000m/h.</desc>
<speed>2.370000</speed>
</trkpt>
<trkpt lat="55.935341" lon="26.531172">
<ele>126.829163</ele>
<time>2010-08-29T08:19:58Z</time>
<desc>lat.=55.935341, lon.=26.531172, Alt.=126.829163m. Speed=9.504000m/h.</desc>
<speed>2.640000</speed>
</trkpt>
<trkpt lat="55.935360" lon="26.531178">
<ele>126.860413</ele>
<time>2010-08-29T08:19:59Z</time>
<desc>lat.=55.935360, lon.=26.531178, Alt.=126.860413m. Speed=6.588000m/h.</desc>
<speed>1.830000</speed>
</trkpt>
<trkpt lat="55.935390" lon="26.531202">
<ele>127.178772</ele>
<time>2010-08-29T08:20:00Z</time>
<desc>lat.=55.935390, lon.=26.531202, Alt.=127.178772m. Speed=10.116000m/h.</desc>
<speed>2.810000</speed>
</trkpt>
<trkpt lat="55.935421" lon="26.531212">
<ele>127.739319</ele>
<time>2010-08-29T08:20:01Z</time>
<desc>lat.=55.935421, lon.=26.531212, Alt.=127.739319m. Speed=9.360000m/h.</desc>
<speed>2.600000</speed>
</trkpt>
<trkpt lat="55.935440" lon="26.531221">
<ele>127.881897</ele>
<time>2010-08-29T08:20:02Z</time>
<desc>lat.=55.935440, lon.=26.531221, Alt.=127.881897m. Speed=9.180000m/h.</desc>
<speed>2.550000</speed>
</trkpt>
<trkpt lat="55.935467" lon="26.531225">
<ele>128.646606</ele>
<time>2010-08-29T08:20:03Z</time>
<desc>lat.=55.935467, lon.=26.531225, Alt.=128.646606m. Speed=7.452000m/h.</desc>
<speed>2.070000</speed>
</trkpt>
<trkpt lat="55.935486" lon="26.531235">
<ele>128.904419</ele>
<time>2010-08-29T08:20:04Z</time>
<desc>lat.=55.935486, lon.=26.531235, Alt.=128.904419m. Speed=5.940000m/h.</desc>
<speed>1.650000</speed>
</trkpt>
<trkpt lat="55.935497" lon="26.531260">
<ele>129.021606</ele>
<time>2010-08-29T08:20:05Z</time>
<desc>lat.=55.935497, lon.=26.531260, Alt.=129.021606m. Speed=6.336000m/h.</desc>
<speed>1.760000</speed>
</trkpt>
<trkpt lat="55.935509" lon="26.531275">
<ele>129.170044</ele>
<time>2010-08-29T08:20:06Z</time>
<desc>lat.=55.935509, lon.=26.531275, Alt.=129.170044m. Speed=6.480000m/h.</desc>
<speed>1.800000</speed>
</trkpt>
<trkpt lat="55.935555" lon="26.531315">
<ele>130.107544</ele>
<time>2010-08-29T08:20:07Z</time>
<desc>lat.=55.935555, lon.=26.531315, Alt.=130.107544m. Speed=9.756000m/h.</desc>
<speed>2.710000</speed>
</trkpt>
<trkpt lat="55.935581" lon="26.531324">
<ele>130.572388</ele>
<time>2010-08-29T08:20:08Z</time>
<desc>lat.=55.935581, lon.=26.531324, Alt.=130.572388m. Speed=9.144000m/h.</desc>
<speed>2.540000</speed>
</trkpt>
<trkpt lat="55.935596" lon="26.531338">
<ele>131.146606</ele>
<time>2010-08-29T08:20:09Z</time>
<desc>lat.=55.935596, lon.=26.531338, Alt.=131.146606m. Speed=9.180000m/h.</desc>
<speed>2.550000</speed>
</trkpt>
<trkpt lat="55.935616" lon="26.531351">
<ele>131.384888</ele>
<time>2010-08-29T08:20:10Z</time>
<desc>lat.=55.935616, lon.=26.531351, Alt.=131.384888m. Speed=7.776000m/h.</desc>
<speed>2.160000</speed>
</trkpt>
<trkpt lat="55.935642" lon="26.531368">
<ele>131.838013</ele>
<time>2010-08-29T08:20:11Z</time>
<desc>lat.=55.935642, lon.=26.531368, Alt.=131.838013m. Speed=10.260000m/h.</desc>
<speed>2.850000</speed>
</trkpt>
<trkpt lat="55.935665" lon="26.531382">
<ele>132.017700</ele>
<time>2010-08-29T08:20:12Z</time>
<desc>lat.=55.935665, lon.=26.531382, Alt.=132.017700m. Speed=10.152000m/h.</desc>
<speed>2.820000</speed>
</trkpt>
<trkpt lat="55.935692" lon="26.531401">
<ele>131.857544</ele>
<time>2010-08-29T08:20:13Z</time>
<desc>lat.=55.935692, lon.=26.531401, Alt.=131.857544m. Speed=11.664000m/h.</desc>
<speed>3.240000</speed>
</trkpt>
<trkpt lat="55.935715" lon="26.531382">
<ele>129.630981</ele>
<time>2010-08-29T08:20:14Z</time>
<desc>lat.=55.935715, lon.=26.531382, Alt.=129.630981m. Speed=12.384000m/h.</desc>
<speed>3.440000</speed>
</trkpt>
<trkpt lat="55.935719" lon="26.531376">
<ele>128.029419</ele>
<time>2010-08-29T08:20:15Z</time>
<desc>lat.=55.935719, lon.=26.531376, Alt.=128.029419m. Speed=5.976000m/h.</desc>
<speed>1.660000</speed>
</trkpt>
<trkpt lat="55.935734" lon="26.531374">
<ele>127.631897</ele>
<time>2010-08-29T08:20:16Z</time>
<desc>lat.=55.935734, lon.=26.531374, Alt.=127.631897m. Speed=7.056000m/h.</desc>
<speed>1.960000</speed>
</trkpt>
<trkpt lat="55.935753" lon="26.531380">
<ele>127.258850</ele>
<time>2010-08-29T08:20:17Z</time>
<desc>lat.=55.935753, lon.=26.531380, Alt.=127.258850m. Speed=7.128000m/h.</desc>
<speed>1.980000</speed>
</trkpt>
<trkpt lat="55.935764" lon="26.531385">
<ele>126.522522</ele>
<time>2010-08-29T08:20:18Z</time>
<desc>lat.=55.935764, lon.=26.531385, Alt.=126.522522m. Speed=5.940000m/h.</desc>
<speed>1.650000</speed>
</trkpt>
<trkpt lat="55.935787" lon="26.531406">
<ele>125.565491</ele>
<time>2010-08-29T08:20:19Z</time>
<desc>lat.=55.935787, lon.=26.531406, Alt.=125.565491m. Speed=9.288000m/h.</desc>
<speed>2.580000</speed>
</trkpt>
<trkpt lat="55.935810" lon="26.531427">
<ele>125.411194</ele>
<time>2010-08-29T08:20:20Z</time>
<desc>lat.=55.935810, lon.=26.531427, Alt.=125.411194m. Speed=8.496000m/h.</desc>
<speed>2.360000</speed>
</trkpt>
<trkpt lat="55.935837" lon="26.531445">
<ele>125.104553</ele>
<time>2010-08-29T08:20:21Z</time>
<desc>lat.=55.935837, lon.=26.531445, Alt.=125.104553m. Speed=8.712000m/h.</desc>
<speed>2.420000</speed>
</trkpt>
<trkpt lat="55.935905" lon="26.531483">
<ele>124.489319</ele>
<time>2010-08-29T08:20:22Z</time>
<desc>lat.=55.935905, lon.=26.531483, Alt.=124.489319m. Speed=10.584000m/h.</desc>
<speed>2.940000</speed>
</trkpt>
<trkpt lat="55.935951" lon="26.531525">
<ele>125.868225</ele>
<time>2010-08-29T08:20:23Z</time>
<desc>lat.=55.935951, lon.=26.531525, Alt.=125.868225m. Speed=11.340000m/h.</desc>
<speed>3.150000</speed>
</trkpt>
<trkpt lat="55.935974" lon="26.531544">
<ele>125.932678</ele>
<time>2010-08-29T08:20:24Z</time>
<desc>lat.=55.935974, lon.=26.531544, Alt.=125.932678m. Speed=9.396000m/h.</desc>
<speed>2.610000</speed>
</trkpt>
<trkpt lat="55.935997" lon="26.531559">
<ele>125.483459</ele>
<time>2010-08-29T08:20:25Z</time>
<desc>lat.=55.935997, lon.=26.531559, Alt.=125.483459m. Speed=9.360000m/h.</desc>
<speed>2.600000</speed>
</trkpt>
<trkpt lat="55.936035" lon="26.531569">
<ele>124.526428</ele>
<time>2010-08-29T08:20:26Z</time>
<desc>lat.=55.936035, lon.=26.531569, Alt.=124.526428m. Speed=11.844000m/h.</desc>
<speed>3.290000</speed>
</trkpt>
<trkpt lat="55.936066" lon="26.531580">
<ele>124.297913</ele>
<time>2010-08-29T08:20:27Z</time>
<desc>lat.=55.936066, lon.=26.531580, Alt.=124.297913m. Speed=13.968000m/h.</desc>
<speed>3.880000</speed>
</trkpt>
<trkpt lat="55.936108" lon="26.531601">
<ele>125.210022</ele>
<time>2010-08-29T08:20:28Z</time>
<desc>lat.=55.936108, lon.=26.531601, Alt.=125.210022m. Speed=12.780000m/h.</desc>
<speed>3.550000</speed>
</trkpt>
<trkpt lat="55.936146" lon="26.531624">
<ele>126.641663</ele>
<time>2010-08-29T08:20:29Z</time>
<desc>lat.=55.936146, lon.=26.531624, Alt.=126.641663m. Speed=15.768000m/h.</desc>
<speed>4.380000</speed>
</trkpt>
<trkpt lat="55.936188" lon="26.531643">
<ele>127.110413</ele>
<time>2010-08-29T08:20:30Z</time>
<desc>lat.=55.936188, lon.=26.531643, Alt.=127.110413m. Speed=15.120000m/h.</desc>
<speed>4.200000</speed>
</trkpt>
<trkpt lat="55.936230" lon="26.531662">
<ele>127.481506</ele>
<time>2010-08-29T08:20:31Z</time>
<desc>lat.=55.936230, lon.=26.531662, Alt.=127.481506m. Speed=12.528000m/h.</desc>
<speed>3.480000</speed>
</trkpt>
<trkpt lat="55.936272" lon="26.531698">
<ele>128.498169</ele>
<time>2010-08-29T08:20:32Z</time>
<desc>lat.=55.936272, lon.=26.531698, Alt.=128.498169m. Speed=12.744000m/h.</desc>
<speed>3.540000</speed>
</trkpt>
<trkpt lat="55.936310" lon="26.531723">
<ele>128.412231</ele>
<time>2010-08-29T08:20:33Z</time>
<desc>lat.=55.936310, lon.=26.531723, Alt.=128.412231m. Speed=13.932000m/h.</desc>
<speed>3.870000</speed>
</trkpt>
<trkpt lat="55.936356" lon="26.531750">
<ele>128.185669</ele>
<time>2010-08-29T08:20:34Z</time>
<desc>lat.=55.936356, lon.=26.531750, Alt.=128.185669m. Speed=13.752000m/h.</desc>
<speed>3.820000</speed>
</trkpt>
<trkpt lat="55.936398" lon="26.531792">
<ele>129.416138</ele>
<time>2010-08-29T08:20:35Z</time>
<desc>lat.=55.936398, lon.=26.531792, Alt.=129.416138m. Speed=13.608000m/h.</desc>
<speed>3.780000</speed>
</trkpt>
<trkpt lat="55.936451" lon="26.531834">
<ele>131.095825</ele>
<time>2010-08-29T08:20:36Z</time>
<desc>lat.=55.936451, lon.=26.531834, Alt.=131.095825m. Speed=13.500000m/h.</desc>
<speed>3.750000</speed>
</trkpt>
<trkpt lat="55.936493" lon="26.531855">
<ele>131.884888</ele>
<time>2010-08-29T08:20:37Z</time>
<desc>lat.=55.936493, lon.=26.531855, Alt.=131.884888m. Speed=13.752000m/h.</desc>
<speed>3.820000</speed>
</trkpt>
<trkpt lat="55.936523" lon="26.531870">
<ele>132.029419</ele>
<time>2010-08-29T08:20:38Z</time>
<desc>lat.=55.936523, lon.=26.531870, Alt.=132.029419m. Speed=9.576000m/h.</desc>
<speed>2.660000</speed>
</trkpt>
<trkpt lat="55.936546" lon="26.531891">
<ele>131.576294</ele>
<time>2010-08-29T08:20:39Z</time>
<desc>lat.=55.936546, lon.=26.531891, Alt.=131.576294m. Speed=8.964000m/h.</desc>
<speed>2.490000</speed>
</trkpt>
<trkpt lat="55.936569" lon="26.531908">
<ele>130.877075</ele>
<time>2010-08-29T08:20:40Z</time>
<desc>lat.=55.936569, lon.=26.531908, Alt.=130.877075m. Speed=9.900000m/h.</desc>
<speed>2.750000</speed>
</trkpt>
<trkpt lat="55.936588" lon="26.531918">
<ele>131.330200</ele>
<time>2010-08-29T08:20:41Z</time>
<desc>lat.=55.936588, lon.=26.531918, Alt.=131.330200m. Speed=8.496000m/h.</desc>
<speed>2.360000</speed>
</trkpt>
<trkpt lat="55.936615" lon="26.531921">
<ele>131.627075</ele>
<time>2010-08-29T08:20:42Z</time>
<desc>lat.=55.936615, lon.=26.531921, Alt.=131.627075m. Speed=10.692000m/h.</desc>
<speed>2.970000</speed>
</trkpt>
<trkpt lat="55.936649" lon="26.531940">
<ele>132.724731</ele>
<time>2010-08-29T08:20:43Z</time>
<desc>lat.=55.936649, lon.=26.531940, Alt.=132.724731m. Speed=13.248000m/h.</desc>
<speed>3.680000</speed>
</trkpt>
<trkpt lat="55.936687" lon="26.531942">
<ele>132.689575</ele>
<time>2010-08-29T08:20:44Z</time>
<desc>lat.=55.936687, lon.=26.531942, Alt.=132.689575m. Speed=11.340000m/h.</desc>
<speed>3.150000</speed>
</trkpt>
<trkpt lat="55.936718" lon="26.531923">
<ele>130.748169</ele>
<time>2010-08-29T08:20:45Z</time>
<desc>lat.=55.936718, lon.=26.531923, Alt.=130.748169m. Speed=11.268000m/h.</desc>
<speed>3.130000</speed>
</trkpt>
<trkpt lat="55.936745" lon="26.531906">
<ele>130.900513</ele>
<time>2010-08-29T08:20:46Z</time>
<desc>lat.=55.936745, lon.=26.531906, Alt.=130.900513m. Speed=11.232000m/h.</desc>
<speed>3.120000</speed>
</trkpt>
<trkpt lat="55.936768" lon="26.531878">
<ele>130.857544</ele>
<time>2010-08-29T08:20:47Z</time>
<desc>lat.=55.936768, lon.=26.531878, Alt.=130.857544m. Speed=13.068000m/h.</desc>
<speed>3.630000</speed>
</trkpt>
<trkpt lat="55.936798" lon="26.531845">
<ele>131.224731</ele>
<time>2010-08-29T08:20:48Z</time>
<desc>lat.=55.936798, lon.=26.531845, Alt.=131.224731m. Speed=14.112000m/h.</desc>
<speed>3.920000</speed>
</trkpt>
<trkpt lat="55.936829" lon="26.531813">
<ele>131.787231</ele>
<time>2010-08-29T08:20:49Z</time>
<desc>lat.=55.936829, lon.=26.531813, Alt.=131.787231m. Speed=12.960000m/h.</desc>
<speed>3.600000</speed>
</trkpt>
<trkpt lat="55.936852" lon="26.531767">
<ele>131.927856</ele>
<time>2010-08-29T08:20:50Z</time>
<desc>lat.=55.936852, lon.=26.531767, Alt.=131.927856m. Speed=14.724000m/h.</desc>
<speed>4.090000</speed>
</trkpt>
<trkpt lat="55.936871" lon="26.531713">
<ele>131.716919</ele>
<time>2010-08-29T08:20:51Z</time>
<desc>lat.=55.936871, lon.=26.531713, Alt.=131.716919m. Speed=14.724000m/h.</desc>
<speed>4.090000</speed>
</trkpt>
<trkpt lat="55.936886" lon="26.531664">
<ele>131.220825</ele>
<time>2010-08-29T08:20:52Z</time>
<desc>lat.=55.936886, lon.=26.531664, Alt.=131.220825m. Speed=14.868000m/h.</desc>
<speed>4.130000</speed>
</trkpt>
<trkpt lat="55.936897" lon="26.531609">
<ele>130.998169</ele>
<time>2010-08-29T08:20:53Z</time>
<desc>lat.=55.936897, lon.=26.531609, Alt.=130.998169m. Speed=13.788000m/h.</desc>
<speed>3.830000</speed>
</trkpt>
<trkpt lat="55.936893" lon="26.531555">
<ele>129.615356</ele>
<time>2010-08-29T08:20:54Z</time>
<desc>lat.=55.936893, lon.=26.531555, Alt.=129.615356m. Speed=14.040000m/h.</desc>
<speed>3.900000</speed>
</trkpt>
<trkpt lat="55.936897" lon="26.531500">
<ele>129.732544</ele>
<time>2010-08-29T08:20:55Z</time>
<desc>lat.=55.936897, lon.=26.531500, Alt.=129.732544m. Speed=11.052000m/h.</desc>
<speed>3.070000</speed>
</trkpt>
<trkpt lat="55.936893" lon="26.531443">
<ele>130.474731</ele>
<time>2010-08-29T08:20:56Z</time>
<desc>lat.=55.936893, lon.=26.531443, Alt.=130.474731m. Speed=11.628000m/h.</desc>
<speed>3.230000</speed>
</trkpt>
<trkpt lat="55.936901" lon="26.531387">
<ele>131.560669</ele>
<time>2010-08-29T08:20:57Z</time>
<desc>lat.=55.936901, lon.=26.531387, Alt.=131.560669m. Speed=11.736000m/h.</desc>
<speed>3.260000</speed>
</trkpt>
<trkpt lat="55.936905" lon="26.531338">
<ele>132.115356</ele>
<time>2010-08-29T08:20:58Z</time>
<desc>lat.=55.936905, lon.=26.531338, Alt.=132.115356m. Speed=11.340000m/h.</desc>
<speed>3.150000</speed>
</trkpt>
<trkpt lat="55.936909" lon="26.531288">
<ele>133.205200</ele>
<time>2010-08-29T08:20:59Z</time>
<desc>lat.=55.936909, lon.=26.531288, Alt.=133.205200m. Speed=10.548000m/h.</desc>
<speed>2.930000</speed>
</trkpt>
<trkpt lat="55.936909" lon="26.531237">
<ele>133.701294</ele>
<time>2010-08-29T08:21:00Z</time>
<desc>lat.=55.936909, lon.=26.531237, Alt.=133.701294m. Speed=13.500000m/h.</desc>
<speed>3.750000</speed>
</trkpt>
<trkpt lat="55.936905" lon="26.531168">
<ele>134.349731</ele>
<time>2010-08-29T08:21:01Z</time>
<desc>lat.=55.936905, lon.=26.531168, Alt.=134.349731m. Speed=15.840000m/h.</desc>
<speed>4.400000</speed>
</trkpt>
<trkpt lat="55.936905" lon="26.531103">
<ele>135.021606</ele>
<time>2010-08-29T08:21:02Z</time>
<desc>lat.=55.936905, lon.=26.531103, Alt.=135.021606m. Speed=12.672000m/h.</desc>
<speed>3.520000</speed>
</trkpt>
<trkpt lat="55.936909" lon="26.531048">
<ele>135.834106</ele>
<time>2010-08-29T08:21:03Z</time>
<desc>lat.=55.936909, lon.=26.531048, Alt.=135.834106m. Speed=12.708000m/h.</desc>
<speed>3.530000</speed>
</trkpt>
<trkpt lat="55.936909" lon="26.530993">
<ele>136.658325</ele>
<time>2010-08-29T08:21:04Z</time>
<desc>lat.=55.936909, lon.=26.530993, Alt.=136.658325m. Speed=12.852000m/h.</desc>
<speed>3.570000</speed>
</trkpt>
<trkpt lat="55.936913" lon="26.530939">
<ele>137.947388</ele>
<time>2010-08-29T08:21:05Z</time>
<desc>lat.=55.936913, lon.=26.530939, Alt.=137.947388m. Speed=11.556000m/h.</desc>
<speed>3.210000</speed>
</trkpt>
<trkpt lat="55.936913" lon="26.530886">
<ele>138.752075</ele>
<time>2010-08-29T08:21:06Z</time>
<desc>lat.=55.936913, lon.=26.530886, Alt.=138.752075m. Speed=12.168000m/h.</desc>
<speed>3.380000</speed>
</trkpt>
<trkpt lat="55.936920" lon="26.530842">
<ele>140.080200</ele>
<time>2010-08-29T08:21:07Z</time>
<desc>lat.=55.936920, lon.=26.530842, Alt.=140.080200m. Speed=8.856000m/h.</desc>
<speed>2.460000</speed>
</trkpt>
<trkpt lat="55.936924" lon="26.530802">
<ele>141.041138</ele>
<time>2010-08-29T08:21:08Z</time>
<desc>lat.=55.936924, lon.=26.530802, Alt.=141.041138m. Speed=8.352000m/h.</desc>
<speed>2.320000</speed>
</trkpt>
<trkpt lat="55.936924" lon="26.530752">
<ele>142.353638</ele>
<time>2010-08-29T08:21:09Z</time>
<desc>lat.=55.936924, lon.=26.530752, Alt.=142.353638m. Speed=9.612000m/h.</desc>
<speed>2.670000</speed>
</trkpt>
<trkpt lat="55.936924" lon="26.530685">
<ele>143.619263</ele>
<time>2010-08-29T08:21:10Z</time>
<desc>lat.=55.936924, lon.=26.530685, Alt.=143.619263m. Speed=12.852000m/h.</desc>
<speed>3.570000</speed>
</trkpt>
<trkpt lat="55.936932" lon="26.530628">
<ele>144.244263</ele>
<time>2010-08-29T08:21:11Z</time>
<desc>lat.=55.936932, lon.=26.530628, Alt.=144.244263m. Speed=12.564000m/h.</desc>
<speed>3.490000</speed>
</trkpt>
<trkpt lat="55.936935" lon="26.530561">
<ele>144.822388</ele>
<time>2010-08-29T08:21:12Z</time>
<desc>lat.=55.936935, lon.=26.530561, Alt.=144.822388m. Speed=12.384000m/h.</desc>
<speed>3.440000</speed>
</trkpt>
<trkpt lat="55.936939" lon="26.530499">
<ele>145.338013</ele>
<time>2010-08-29T08:21:13Z</time>
<desc>lat.=55.936939, lon.=26.530499, Alt.=145.338013m. Speed=13.284000m/h.</desc>
<speed>3.690000</speed>
</trkpt>
<trkpt lat="55.936951" lon="26.530437">
<ele>146.470825</ele>
<time>2010-08-29T08:21:14Z</time>
<desc>lat.=55.936951, lon.=26.530437, Alt.=146.470825m. Speed=12.384000m/h.</desc>
<speed>3.440000</speed>
</trkpt>
<trkpt lat="55.936954" lon="26.530371">
<ele>147.744263</ele>
<time>2010-08-29T08:21:15Z</time>
<desc>lat.=55.936954, lon.=26.530371, Alt.=147.744263m. Speed=13.248000m/h.</desc>
<speed>3.680000</speed>
</trkpt>
<trkpt lat="55.936958" lon="26.530308">
<ele>148.091919</ele>
<time>2010-08-29T08:21:16Z</time>
<desc>lat.=55.936958, lon.=26.530308, Alt.=148.091919m. Speed=10.080000m/h.</desc>
<speed>2.800000</speed>
</trkpt>
<trkpt lat="55.936954" lon="26.530256">
<ele>148.830200</ele>
<time>2010-08-29T08:21:17Z</time>
<desc>lat.=55.936954, lon.=26.530256, Alt.=148.830200m. Speed=11.340000m/h.</desc>
<speed>3.150000</speed>
</trkpt>
<trkpt lat="55.936954" lon="26.530199">
<ele>149.541138</ele>
<time>2010-08-29T08:21:18Z</time>
<desc>lat.=55.936954, lon.=26.530199, Alt.=149.541138m. Speed=12.312000m/h.</desc>
<speed>3.420000</speed>
</trkpt>
<trkpt lat="55.936954" lon="26.530136">
<ele>150.232544</ele>
<time>2010-08-29T08:21:19Z</time>
<desc>lat.=55.936954, lon.=26.530136, Alt.=150.232544m. Speed=12.096000m/h.</desc>
<speed>3.360000</speed>
</trkpt>
<trkpt lat="55.936954" lon="26.530071">
<ele>150.959106</ele>
<time>2010-08-29T08:21:20Z</time>
<desc>lat.=55.936954, lon.=26.530071, Alt.=150.959106m. Speed=11.736000m/h.</desc>
<speed>3.260000</speed>
</trkpt>
<trkpt lat="55.936962" lon="26.530018">
<ele>151.853638</ele>
<time>2010-08-29T08:21:21Z</time>
<desc>lat.=55.936962, lon.=26.530018, Alt.=151.853638m. Speed=10.944000m/h.</desc>
<speed>3.040000</speed>
</trkpt>
<trkpt lat="55.936962" lon="26.529915">
<ele>151.072388</ele>
<time>2010-08-29T08:21:22Z</time>
<desc>lat.=55.936962, lon.=26.529915, Alt.=151.072388m. Speed=12.636000m/h.</desc>
<speed>3.510000</speed>
</trkpt>
<trkpt lat="55.936981" lon="26.529854">
<ele>153.189575</ele>
<time>2010-08-29T08:21:23Z</time>
<desc>lat.=55.936981, lon.=26.529854, Alt.=153.189575m. Speed=13.356000m/h.</desc>
<speed>3.710000</speed>
</trkpt>
<trkpt lat="55.936981" lon="26.529789">
<ele>153.888794</ele>
<time>2010-08-29T08:21:24Z</time>
<desc>lat.=55.936981, lon.=26.529789, Alt.=153.888794m. Speed=11.952000m/h.</desc>
<speed>3.320000</speed>
</trkpt>
<trkpt lat="55.936985" lon="26.529734">
<ele>154.920044</ele>
<time>2010-08-29T08:21:25Z</time>
<desc>lat.=55.936985, lon.=26.529734, Alt.=154.920044m. Speed=11.412000m/h.</desc>
<speed>3.170000</speed>
</trkpt>
<trkpt lat="55.936989" lon="26.529680">
<ele>155.822388</ele>
<time>2010-08-29T08:21:26Z</time>
<desc>lat.=55.936989, lon.=26.529680, Alt.=155.822388m. Speed=11.196000m/h.</desc>
<speed>3.110000</speed>
</trkpt>
<trkpt lat="55.936996" lon="26.529627">
<ele>156.673950</ele>
<time>2010-08-29T08:21:27Z</time>
<desc>lat.=55.936996, lon.=26.529627, Alt.=156.673950m. Speed=11.016000m/h.</desc>
<speed>3.060000</speed>
</trkpt>
<trkpt lat="55.937008" lon="26.529566">
<ele>157.615356</ele>
<time>2010-08-29T08:21:28Z</time>
<desc>lat.=55.937008, lon.=26.529566, Alt.=157.615356m. Speed=10.512000m/h.</desc>
<speed>2.920000</speed>
</trkpt>
<trkpt lat="55.937004" lon="26.529505">
<ele>159.291138</ele>
<time>2010-08-29T08:21:29Z</time>
<desc>lat.=55.937004, lon.=26.529505, Alt.=159.291138m. Speed=10.836000m/h.</desc>
<speed>3.010000</speed>
</trkpt>
<trkpt lat="55.937016" lon="26.529436">
<ele>160.400513</ele>
<time>2010-08-29T08:21:30Z</time>
<desc>lat.=55.937016, lon.=26.529436, Alt.=160.400513m. Speed=11.916000m/h.</desc>
<speed>3.310000</speed>
</trkpt>
<trkpt lat="55.937023" lon="26.529375">
<ele>162.263794</ele>
<time>2010-08-29T08:21:31Z</time>
<desc>lat.=55.937023, lon.=26.529375, Alt.=162.263794m. Speed=10.908000m/h.</desc>
<speed>3.030000</speed>
</trkpt>
<trkpt lat="55.937027" lon="26.529316">
<ele>163.740356</ele>
<time>2010-08-29T08:21:32Z</time>
<desc>lat.=55.937027, lon.=26.529316, Alt.=163.740356m. Speed=12.420000m/h.</desc>
<speed>3.450000</speed>
</trkpt>
<trkpt lat="55.937031" lon="26.529259">
<ele>164.220825</ele>
<time>2010-08-29T08:21:33Z</time>
<desc>lat.=55.937031, lon.=26.529259, Alt.=164.220825m. Speed=13.212000m/h.</desc>
<speed>3.670000</speed>
</trkpt>
<trkpt lat="55.937031" lon="26.529188">
<ele>164.845825</ele>
<time>2010-08-29T08:21:34Z</time>
<desc>lat.=55.937031, lon.=26.529188, Alt.=164.845825m. Speed=13.392000m/h.</desc>
<speed>3.720000</speed>
</trkpt>
<trkpt lat="55.937042" lon="26.529127">
<ele>165.541138</ele>
<time>2010-08-29T08:21:35Z</time>
<desc>lat.=55.937042, lon.=26.529127, Alt.=165.541138m. Speed=13.428000m/h.</desc>
<speed>3.730000</speed>
</trkpt>
<trkpt lat="55.937050" lon="26.529062">
<ele>165.818481</ele>
<time>2010-08-29T08:21:36Z</time>
<desc>lat.=55.937050, lon.=26.529062, Alt.=165.818481m. Speed=14.004000m/h.</desc>
<speed>3.890000</speed>
</trkpt>
<trkpt lat="55.937065" lon="26.529011">
<ele>166.728638</ele>
<time>2010-08-29T08:21:37Z</time>
<desc>lat.=55.937065, lon.=26.529011, Alt.=166.728638m. Speed=11.592000m/h.</desc>
<speed>3.220000</speed>
</trkpt>
<trkpt lat="55.937073" lon="26.528955">
<ele>167.904419</ele>
<time>2010-08-29T08:21:38Z</time>
<desc>lat.=55.937073, lon.=26.528955, Alt.=167.904419m. Speed=12.312000m/h.</desc>
<speed>3.420000</speed>
</trkpt>
<trkpt lat="55.937077" lon="26.528904">
<ele>167.670044</ele>
<time>2010-08-29T08:21:39Z</time>
<desc>lat.=55.937077, lon.=26.528904, Alt.=167.670044m. Speed=9.756000m/h.</desc>
<speed>2.710000</speed>
</trkpt>
<trkpt lat="55.937084" lon="26.528854">
<ele>167.974731</ele>
<time>2010-08-29T08:21:40Z</time>
<desc>lat.=55.937084, lon.=26.528854, Alt.=167.974731m. Speed=11.376000m/h.</desc>
<speed>3.160000</speed>
</trkpt>
<trkpt lat="55.937088" lon="26.528799">
<ele>168.466919</ele>
<time>2010-08-29T08:21:41Z</time>
<desc>lat.=55.937088, lon.=26.528799, Alt.=168.466919m. Speed=11.952000m/h.</desc>
<speed>3.320000</speed>
</trkpt>
<trkpt lat="55.937088" lon="26.528732">
<ele>167.931763</ele>
<time>2010-08-29T08:21:42Z</time>
<desc>lat.=55.937088, lon.=26.528732, Alt.=167.931763m. Speed=13.860000m/h.</desc>
<speed>3.850000</speed>
</trkpt>
<trkpt lat="55.937092" lon="26.528660">
<ele>167.767700</ele>
<time>2010-08-29T08:21:43Z</time>
<desc>lat.=55.937092, lon.=26.528660, Alt.=167.767700m. Speed=13.320000m/h.</desc>
<speed>3.700000</speed>
</trkpt>
<trkpt lat="55.937099" lon="26.528591">
<ele>168.873169</ele>
<time>2010-08-29T08:21:44Z</time>
<desc>lat.=55.937099, lon.=26.528591, Alt.=168.873169m. Speed=15.120000m/h.</desc>
<speed>4.200000</speed>
</trkpt>
<trkpt lat="55.937111" lon="26.528502">
<ele>169.736450</ele>
<time>2010-08-29T08:21:45Z</time>
<desc>lat.=55.937111, lon.=26.528502, Alt.=169.736450m. Speed=15.696000m/h.</desc>
<speed>4.360000</speed>
</trkpt>
<trkpt lat="55.937115" lon="26.528425">
<ele>169.970825</ele>
<time>2010-08-29T08:21:46Z</time>
<desc>lat.=55.937115, lon.=26.528425, Alt.=169.970825m. Speed=14.760000m/h.</desc>
<speed>4.100000</speed>
</trkpt>
<trkpt lat="55.937115" lon="26.528353">
<ele>170.009888</ele>
<time>2010-08-29T08:21:47Z</time>
<desc>lat.=55.937115, lon.=26.528353, Alt.=170.009888m. Speed=14.436000m/h.</desc>
<speed>4.010000</speed>
</trkpt>
<trkpt lat="55.937111" lon="26.528273">
<ele>169.771606</ele>
<time>2010-08-29T08:21:48Z</time>
<desc>lat.=55.937111, lon.=26.528273, Alt.=169.771606m. Speed=16.091999m/h.</desc>
<speed>4.470000</speed>
</trkpt>
<trkpt lat="55.937115" lon="26.528196">
<ele>170.380981</ele>
<time>2010-08-29T08:21:49Z</time>
<desc>lat.=55.937115, lon.=26.528196, Alt.=170.380981m. Speed=15.804000m/h.</desc>
<speed>4.390000</speed>
</trkpt>
<trkpt lat="55.937107" lon="26.528103">
<ele>169.545044</ele>
<time>2010-08-29T08:21:50Z</time>
<desc>lat.=55.937107, lon.=26.528103, Alt.=169.545044m. Speed=17.496000m/h.</desc>
<speed>4.860000</speed>
</trkpt>
<trkpt lat="55.937111" lon="26.528021">
<ele>170.435669</ele>
<time>2010-08-29T08:21:51Z</time>
<desc>lat.=55.937111, lon.=26.528021, Alt.=170.435669m. Speed=16.164000m/h.</desc>
<speed>4.490000</speed>
</trkpt>
<trkpt lat="55.937096" lon="26.527935">
<ele>169.525513</ele>
<time>2010-08-29T08:21:52Z</time>
<desc>lat.=55.937096, lon.=26.527935, Alt.=169.525513m. Speed=14.652000m/h.</desc>
<speed>4.070000</speed>
</trkpt>
<trkpt lat="55.937077" lon="26.527851">
<ele>169.107544</ele>
<time>2010-08-29T08:21:53Z</time>
<desc>lat.=55.937077, lon.=26.527851, Alt.=169.107544m. Speed=14.544000m/h.</desc>
<speed>4.040000</speed>
</trkpt>
<trkpt lat="55.937077" lon="26.527750">
<ele>169.775513</ele>
<time>2010-08-29T08:21:54Z</time>
<desc>lat.=55.937077, lon.=26.527750, Alt.=169.775513m. Speed=17.784000m/h.</desc>
<speed>4.940000</speed>
</trkpt>
<trkpt lat="55.937065" lon="26.527662">
<ele>168.509888</ele>
<time>2010-08-29T08:21:55Z</time>
<desc>lat.=55.937065, lon.=26.527662, Alt.=168.509888m. Speed=16.056000m/h.</desc>
<speed>4.460000</speed>
</trkpt>
<trkpt lat="55.937057" lon="26.527580">
<ele>168.002075</ele>
<time>2010-08-29T08:21:56Z</time>
<desc>lat.=55.937057, lon.=26.527580, Alt.=168.002075m. Speed=15.876000m/h.</desc>
<speed>4.410000</speed>
</trkpt>
<trkpt lat="55.937046" lon="26.527498">
<ele>166.939575</ele>
<time>2010-08-29T08:21:57Z</time>
<desc>lat.=55.937046, lon.=26.527498, Alt.=166.939575m. Speed=15.768000m/h.</desc>
<speed>4.380000</speed>
</trkpt>
<trkpt lat="55.937054" lon="26.527407">
<ele>166.423950</ele>
<time>2010-08-29T08:21:58Z</time>
<desc>lat.=55.937054, lon.=26.527407, Alt.=166.423950m. Speed=17.063999m/h.</desc>
<speed>4.740000</speed>
</trkpt>
<trkpt lat="55.937054" lon="26.527315">
<ele>164.107544</ele>
<time>2010-08-29T08:21:59Z</time>
<desc>lat.=55.937054, lon.=26.527315, Alt.=164.107544m. Speed=14.796000m/h.</desc>
<speed>4.110000</speed>
</trkpt>
<trkpt lat="55.937057" lon="26.527227">
<ele>163.427856</ele>
<time>2010-08-29T08:22:00Z</time>
<desc>lat.=55.937057, lon.=26.527227, Alt.=163.427856m. Speed=15.444000m/h.</desc>
<speed>4.290000</speed>
</trkpt>
<trkpt lat="55.937073" lon="26.527130">
<ele>162.072388</ele>
<time>2010-08-29T08:22:01Z</time>
<desc>lat.=55.937073, lon.=26.527130, Alt.=162.072388m. Speed=15.552000m/h.</desc>
<speed>4.320000</speed>
</trkpt>
<trkpt lat="55.937080" lon="26.527046">
<ele>162.396606</ele>
<time>2010-08-29T08:22:02Z</time>
<desc>lat.=55.937080, lon.=26.527046, Alt.=162.396606m. Speed=15.696000m/h.</desc>
<speed>4.360000</speed>
</trkpt>
<trkpt lat="55.937077" lon="26.526943">
<ele>158.576294</ele>
<time>2010-08-29T08:22:03Z</time>
<desc>lat.=55.937077, lon.=26.526943, Alt.=158.576294m. Speed=15.804000m/h.</desc>
<speed>4.390000</speed>
</trkpt>
<trkpt lat="55.937096" lon="26.526867">
<ele>159.318481</ele>
<time>2010-08-29T08:22:04Z</time>
<desc>lat.=55.937096, lon.=26.526867, Alt.=159.318481m. Speed=15.588000m/h.</desc>
<speed>4.330000</speed>
</trkpt>
<trkpt lat="55.937099" lon="26.526794">
<ele>160.173950</ele>
<time>2010-08-29T08:22:05Z</time>
<desc>lat.=55.937099, lon.=26.526794, Alt.=160.173950m. Speed=14.796000m/h.</desc>
<speed>4.110000</speed>
</trkpt>
<trkpt lat="55.937107" lon="26.526718">
<ele>159.310669</ele>
<time>2010-08-29T08:22:06Z</time>
<desc>lat.=55.937107, lon.=26.526718, Alt.=159.310669m. Speed=14.256000m/h.</desc>
<speed>3.960000</speed>
</trkpt>
<trkpt lat="55.937103" lon="26.526634">
<ele>155.752075</ele>
<time>2010-08-29T08:22:07Z</time>
<desc>lat.=55.937103, lon.=26.526634, Alt.=155.752075m. Speed=14.148000m/h.</desc>
<speed>3.930000</speed>
</trkpt>
<trkpt lat="55.937111" lon="26.526569">
<ele>156.189575</ele>
<time>2010-08-29T08:22:08Z</time>
<desc>lat.=55.937111, lon.=26.526569, Alt.=156.189575m. Speed=13.896000m/h.</desc>
<speed>3.860000</speed>
</trkpt>
<trkpt lat="55.937107" lon="26.526463">
<ele>153.435669</ele>
<time>2010-08-29T08:22:09Z</time>
<desc>lat.=55.937107, lon.=26.526463, Alt.=153.435669m. Speed=16.236000m/h.</desc>
<speed>4.510000</speed>
</trkpt>
<trkpt lat="55.937111" lon="26.526384">
<ele>153.002075</ele>
<time>2010-08-29T08:22:10Z</time>
<desc>lat.=55.937111, lon.=26.526384, Alt.=153.002075m. Speed=16.667999m/h.</desc>
<speed>4.630000</speed>
</trkpt>
<trkpt lat="55.937111" lon="26.526285">
<ele>152.334106</ele>
<time>2010-08-29T08:22:11Z</time>
<desc>lat.=55.937111, lon.=26.526285, Alt.=152.334106m. Speed=17.712000m/h.</desc>
<speed>4.920000</speed>
</trkpt>
<trkpt lat="55.937111" lon="26.526182">
<ele>151.478638</ele>
<time>2010-08-29T08:22:12Z</time>
<desc>lat.=55.937111, lon.=26.526182, Alt.=151.478638m. Speed=17.424000m/h.</desc>
<speed>4.840000</speed>
</trkpt>
<trkpt lat="55.937111" lon="26.526087">
<ele>151.373169</ele>
<time>2010-08-29T08:22:13Z</time>
<desc>lat.=55.937111, lon.=26.526087, Alt.=151.373169m. Speed=19.080000m/h.</desc>
<speed>5.300000</speed>
</trkpt>
<trkpt lat="55.937107" lon="26.525990">
<ele>150.509888</ele>
<time>2010-08-29T08:22:14Z</time>
<desc>lat.=55.937107, lon.=26.525990, Alt.=150.509888m. Speed=18.180000m/h.</desc>
<speed>5.050000</speed>
</trkpt>
<trkpt lat="55.937111" lon="26.525885">
<ele>147.908325</ele>
<time>2010-08-29T08:22:15Z</time>
<desc>lat.=55.937111, lon.=26.525885, Alt.=147.908325m. Speed=18.972000m/h.</desc>
<speed>5.270000</speed>
</trkpt>
<trkpt lat="55.937115" lon="26.525787">
<ele>146.435669</ele>
<time>2010-08-29T08:22:16Z</time>
<desc>lat.=55.937115, lon.=26.525787, Alt.=146.435669m. Speed=19.296000m/h.</desc>
<speed>5.360000</speed>
</trkpt>
<trkpt lat="55.937115" lon="26.525679">
<ele>144.033325</ele>
<time>2010-08-29T08:22:17Z</time>
<desc>lat.=55.937115, lon.=26.525679, Alt.=144.033325m. Speed=19.115999m/h.</desc>
<speed>5.310000</speed>
</trkpt>
<trkpt lat="55.937111" lon="26.525576">
<ele>142.127075</ele>
<time>2010-08-29T08:22:18Z</time>
<desc>lat.=55.937111, lon.=26.525576, Alt.=142.127075m. Speed=20.700001m/h.</desc>
<speed>5.750000</speed>
</trkpt>
<trkpt lat="55.937119" lon="26.525469">
<ele>141.845825</ele>
<time>2010-08-29T08:22:19Z</time>
<desc>lat.=55.937119, lon.=26.525469, Alt.=141.845825m. Speed=22.176001m/h.</desc>
<speed>6.160000</speed>
</trkpt>
<trkpt lat="55.937096" lon="26.525311">
<ele>136.193481</ele>
<time>2010-08-29T08:22:20Z</time>
<desc>lat.=55.937096, lon.=26.525311, Alt.=136.193481m. Speed=25.596001m/h.</desc>
<speed>7.110000</speed>
</trkpt>
<trkpt lat="55.937096" lon="26.525183">
<ele>134.548950</ele>
<time>2010-08-29T08:22:21Z</time>
<desc>lat.=55.937096, lon.=26.525183, Alt.=134.548950m. Speed=25.596001m/h.</desc>
<speed>7.110000</speed>
</trkpt>
<trkpt lat="55.937092" lon="26.525064">
<ele>133.232544</ele>
<time>2010-08-29T08:22:22Z</time>
<desc>lat.=55.937092, lon.=26.525064, Alt.=133.232544m. Speed=26.351999m/h.</desc>
<speed>7.320000</speed>
</trkpt>
<trkpt lat="55.937084" lon="26.524939">
<ele>132.986450</ele>
<time>2010-08-29T08:22:23Z</time>
<desc>lat.=55.937084, lon.=26.524939, Alt.=132.986450m. Speed=28.548000m/h.</desc>
<speed>7.930000</speed>
</trkpt>
<trkpt lat="55.937077" lon="26.524822">
<ele>132.291138</ele>
<time>2010-08-29T08:22:24Z</time>
<desc>lat.=55.937077, lon.=26.524822, Alt.=132.291138m. Speed=27.108000m/h.</desc>
<speed>7.530000</speed>
</trkpt>
<trkpt lat="55.937080" lon="26.524704">
<ele>131.787231</ele>
<time>2010-08-29T08:22:25Z</time>
<desc>lat.=55.937080, lon.=26.524704, Alt.=131.787231m. Speed=26.028000m/h.</desc>
<speed>7.230000</speed>
</trkpt>
<trkpt lat="55.937088" lon="26.524576">
<ele>131.693481</ele>
<time>2010-08-29T08:22:26Z</time>
<desc>lat.=55.937088, lon.=26.524576, Alt.=131.693481m. Speed=26.243999m/h.</desc>
<speed>7.290000</speed>
</trkpt>
<trkpt lat="55.937088" lon="26.524445">
<ele>130.990356</ele>
<time>2010-08-29T08:22:27Z</time>
<desc>lat.=55.937088, lon.=26.524445, Alt.=130.990356m. Speed=27.252001m/h.</desc>
<speed>7.570000</speed>
</trkpt>
<trkpt lat="55.937084" lon="26.524313">
<ele>130.900513</ele>
<time>2010-08-29T08:22:28Z</time>
<desc>lat.=55.937084, lon.=26.524313, Alt.=130.900513m. Speed=27.431999m/h.</desc>
<speed>7.620000</speed>
</trkpt>
<trkpt lat="55.937069" lon="26.524172">
<ele>130.677856</ele>
<time>2010-08-29T08:22:29Z</time>
<desc>lat.=55.937069, lon.=26.524172, Alt.=130.677856m. Speed=26.639999m/h.</desc>
<speed>7.400000</speed>
</trkpt>
<trkpt lat="55.937065" lon="26.524046">
<ele>131.627075</ele>
<time>2010-08-29T08:22:30Z</time>
<desc>lat.=55.937065, lon.=26.524046, Alt.=131.627075m. Speed=25.379999m/h.</desc>
<speed>7.050000</speed>
</trkpt>
<trkpt lat="55.937069" lon="26.523916">
<ele>132.490356</ele>
<time>2010-08-29T08:22:31Z</time>
<desc>lat.=55.937069, lon.=26.523916, Alt.=132.490356m. Speed=23.615999m/h.</desc>
<speed>6.560000</speed>
</trkpt>
<trkpt lat="55.937069" lon="26.523811">
<ele>132.615356</ele>
<time>2010-08-29T08:22:32Z</time>
<desc>lat.=55.937069, lon.=26.523811, Alt.=132.615356m. Speed=23.327999m/h.</desc>
<speed>6.480000</speed>
</trkpt>
<trkpt lat="55.937069" lon="26.523699">
<ele>133.142700</ele>
<time>2010-08-29T08:22:33Z</time>
<desc>lat.=55.937069, lon.=26.523699, Alt.=133.142700m. Speed=21.924000m/h.</desc>
<speed>6.090000</speed>
</trkpt>
<trkpt lat="55.937077" lon="26.523594">
<ele>134.009888</ele>
<time>2010-08-29T08:22:34Z</time>
<desc>lat.=55.937077, lon.=26.523594, Alt.=134.009888m. Speed=22.247999m/h.</desc>
<speed>6.180000</speed>
</trkpt>
<trkpt lat="55.937088" lon="26.523497">
<ele>136.392700</ele>
<time>2010-08-29T08:22:35Z</time>
<desc>lat.=55.937088, lon.=26.523497, Alt.=136.392700m. Speed=21.996000m/h.</desc>
<speed>6.110000</speed>
</trkpt>
<trkpt lat="55.937115" lon="26.523409">
<ele>139.548950</ele>
<time>2010-08-29T08:22:36Z</time>
<desc>lat.=55.937115, lon.=26.523409, Alt.=139.548950m. Speed=20.664000m/h.</desc>
<speed>5.740000</speed>
</trkpt>
<trkpt lat="55.937111" lon="26.523300">
<ele>141.537231</ele>
<time>2010-08-29T08:22:37Z</time>
<desc>lat.=55.937111, lon.=26.523300, Alt.=141.537231m. Speed=22.716000m/h.</desc>
<speed>6.310000</speed>
</trkpt>
<trkpt lat="55.937122" lon="26.523191">
<ele>143.228638</ele>
<time>2010-08-29T08:22:38Z</time>
<desc>lat.=55.937122, lon.=26.523191, Alt.=143.228638m. Speed=22.788000m/h.</desc>
<speed>6.330000</speed>
</trkpt>
<trkpt lat="55.937141" lon="26.523083">
<ele>145.048950</ele>
<time>2010-08-29T08:22:39Z</time>
<desc>lat.=55.937141, lon.=26.523083, Alt.=145.048950m. Speed=23.580000m/h.</desc>
<speed>6.550000</speed>
</trkpt>
<trkpt lat="55.937141" lon="26.522968">
<ele>146.005981</ele>
<time>2010-08-29T08:22:40Z</time>
<desc>lat.=55.937141, lon.=26.522968, Alt.=146.005981m. Speed=23.940001m/h.</desc>
<speed>6.650000</speed>
</trkpt>
<trkpt lat="55.937141" lon="26.522839">
<ele>146.728638</ele>
<time>2010-08-29T08:22:41Z</time>
<desc>lat.=55.937141, lon.=26.522839, Alt.=146.728638m. Speed=23.976000m/h.</desc>
<speed>6.660000</speed>
</trkpt>
<trkpt lat="55.937134" lon="26.522707">
<ele>146.084106</ele>
<time>2010-08-29T08:22:42Z</time>
<desc>lat.=55.937134, lon.=26.522707, Alt.=146.084106m. Speed=24.120001m/h.</desc>
<speed>6.700000</speed>
</trkpt>
<trkpt lat="55.937126" lon="26.522566">
<ele>144.947388</ele>
<time>2010-08-29T08:22:43Z</time>
<desc>lat.=55.937126, lon.=26.522566, Alt.=144.947388m. Speed=22.535999m/h.</desc>
<speed>6.260000</speed>
</trkpt>
<trkpt lat="55.937126" lon="26.522449">
<ele>144.955200</ele>
<time>2010-08-29T08:22:44Z</time>
<desc>lat.=55.937126, lon.=26.522449, Alt.=144.955200m. Speed=23.652000m/h.</desc>
<speed>6.570000</speed>
</trkpt>
<trkpt lat="55.937134" lon="26.522337">
<ele>145.138794</ele>
<time>2010-08-29T08:22:45Z</time>
<desc>lat.=55.937134, lon.=26.522337, Alt.=145.138794m. Speed=22.931999m/h.</desc>
<speed>6.370000</speed>
</trkpt>
<trkpt lat="55.937141" lon="26.522224">
<ele>144.529419</ele>
<time>2010-08-29T08:22:46Z</time>
<desc>lat.=55.937141, lon.=26.522224, Alt.=144.529419m. Speed=23.327999m/h.</desc>
<speed>6.480000</speed>
</trkpt>
<trkpt lat="55.937160" lon="26.522127">
<ele>144.853638</ele>
<time>2010-08-29T08:22:47Z</time>
<desc>lat.=55.937160, lon.=26.522127, Alt.=144.853638m. Speed=21.348000m/h.</desc>
<speed>5.930000</speed>
</trkpt>
<trkpt lat="55.937168" lon="26.522024">
<ele>145.033325</ele>
<time>2010-08-29T08:22:48Z</time>
<desc>lat.=55.937168, lon.=26.522024, Alt.=145.033325m. Speed=20.736000m/h.</desc>
<speed>5.760000</speed>
</trkpt>
<trkpt lat="55.937183" lon="26.521931">
<ele>145.088013</ele>
<time>2010-08-29T08:22:49Z</time>
<desc>lat.=55.937183, lon.=26.521931, Alt.=145.088013m. Speed=20.087999m/h.</desc>
<speed>5.580000</speed>
</trkpt>
<trkpt lat="55.937222" lon="26.521862">
<ele>146.599731</ele>
<time>2010-08-29T08:22:50Z</time>
<desc>lat.=55.937222, lon.=26.521862, Alt.=146.599731m. Speed=19.944000m/h.</desc>
<speed>5.540000</speed>
</trkpt>
<trkpt lat="55.937248" lon="26.521795">
<ele>147.080200</ele>
<time>2010-08-29T08:22:51Z</time>
<desc>lat.=55.937248, lon.=26.521795, Alt.=147.080200m. Speed=17.280001m/h.</desc>
<speed>4.800000</speed>
</trkpt>
<trkpt lat="55.937279" lon="26.521727">
<ele>147.291138</ele>
<time>2010-08-29T08:22:52Z</time>
<desc>lat.=55.937279, lon.=26.521727, Alt.=147.291138m. Speed=20.124001m/h.</desc>
<speed>5.590000</speed>
</trkpt>
<trkpt lat="55.937305" lon="26.521667">
<ele>145.005981</ele>
<time>2010-08-29T08:22:53Z</time>
<desc>lat.=55.937305, lon.=26.521667, Alt.=145.005981m. Speed=17.568001m/h.</desc>
<speed>4.880000</speed>
</trkpt>
<trkpt lat="55.937321" lon="26.521608">
<ele>141.521606</ele>
<time>2010-08-29T08:22:54Z</time>
<desc>lat.=55.937321, lon.=26.521608, Alt.=141.521606m. Speed=16.740000m/h.</desc>
<speed>4.650000</speed>
</trkpt>
<trkpt lat="55.937351" lon="26.521574">
<ele>139.361450</ele>
<time>2010-08-29T08:22:55Z</time>
<desc>lat.=55.937351, lon.=26.521574, Alt.=139.361450m. Speed=17.568001m/h.</desc>
<speed>4.880000</speed>
</trkpt>
<trkpt lat="55.937393" lon="26.521559">
<ele>137.470825</ele>
<time>2010-08-29T08:22:56Z</time>
<desc>lat.=55.937393, lon.=26.521559, Alt.=137.470825m. Speed=16.524000m/h.</desc>
<speed>4.590000</speed>
</trkpt>
<trkpt lat="55.937428" lon="26.521547">
<ele>136.900513</ele>
<time>2010-08-29T08:22:57Z</time>
<desc>lat.=55.937428, lon.=26.521547, Alt.=136.900513m. Speed=14.940000m/h.</desc>
<speed>4.150000</speed>
</trkpt>
<trkpt lat="55.937469" lon="26.521536">
<ele>137.041138</ele>
<time>2010-08-29T08:22:58Z</time>
<desc>lat.=55.937469, lon.=26.521536, Alt.=137.041138m. Speed=15.156000m/h.</desc>
<speed>4.210000</speed>
</trkpt>
<trkpt lat="55.937511" lon="26.521532">
<ele>137.209106</ele>
<time>2010-08-29T08:22:59Z</time>
<desc>lat.=55.937511, lon.=26.521532, Alt.=137.209106m. Speed=17.496000m/h.</desc>
<speed>4.860000</speed>
</trkpt>
<trkpt lat="55.937561" lon="26.521534">
<ele>137.400513</ele>
<time>2010-08-29T08:23:00Z</time>
<desc>lat.=55.937561, lon.=26.521534, Alt.=137.400513m. Speed=18.180000m/h.</desc>
<speed>5.050000</speed>
</trkpt>
<trkpt lat="55.937611" lon="26.521542">
<ele>137.334106</ele>
<time>2010-08-29T08:23:01Z</time>
<desc>lat.=55.937611, lon.=26.521542, Alt.=137.334106m. Speed=16.091999m/h.</desc>
<speed>4.470000</speed>
</trkpt>
<trkpt lat="55.937656" lon="26.521551">
<ele>135.951294</ele>
<time>2010-08-29T08:23:02Z</time>
<desc>lat.=55.937656, lon.=26.521551, Alt.=135.951294m. Speed=18.180000m/h.</desc>
<speed>5.050000</speed>
</trkpt>
<trkpt lat="55.937710" lon="26.521544">
<ele>133.259888</ele>
<time>2010-08-29T08:23:03Z</time>
<desc>lat.=55.937710, lon.=26.521544, Alt.=133.259888m. Speed=20.916000m/h.</desc>
<speed>5.810000</speed>
</trkpt>
<trkpt lat="55.937767" lon="26.521545">
<ele>132.810669</ele>
<time>2010-08-29T08:23:04Z</time>
<desc>lat.=55.937767, lon.=26.521545, Alt.=132.810669m. Speed=18.252001m/h.</desc>
<speed>5.070000</speed>
</trkpt>
<trkpt lat="55.937813" lon="26.521549">
<ele>132.709106</ele>
<time>2010-08-29T08:23:05Z</time>
<desc>lat.=55.937813, lon.=26.521549, Alt.=132.709106m. Speed=18.684000m/h.</desc>
<speed>5.190000</speed>
</trkpt>
<trkpt lat="55.937866" lon="26.521564">
<ele>134.037231</ele>
<time>2010-08-29T08:23:06Z</time>
<desc>lat.=55.937866, lon.=26.521564, Alt.=134.037231m. Speed=18.900000m/h.</desc>
<speed>5.250000</speed>
</trkpt>
<trkpt lat="55.937923" lon="26.521568">
<ele>134.619263</ele>
<time>2010-08-29T08:23:07Z</time>
<desc>lat.=55.937923, lon.=26.521568, Alt.=134.619263m. Speed=18.827999m/h.</desc>
<speed>5.230000</speed>
</trkpt>
<trkpt lat="55.937977" lon="26.521545">
<ele>133.111450</ele>
<time>2010-08-29T08:23:08Z</time>
<desc>lat.=55.937977, lon.=26.521545, Alt.=133.111450m. Speed=19.836000m/h.</desc>
<speed>5.510000</speed>
</trkpt>
<trkpt lat="55.938038" lon="26.521526">
<ele>129.365356</ele>
<time>2010-08-29T08:23:09Z</time>
<desc>lat.=55.938038, lon.=26.521526, Alt.=129.365356m. Speed=18.792000m/h.</desc>
<speed>5.220000</speed>
</trkpt>
<trkpt lat="55.938080" lon="26.521507">
<ele>126.335022</ele>
<time>2010-08-29T08:23:10Z</time>
<desc>lat.=55.938080, lon.=26.521507, Alt.=126.335022m. Speed=19.007999m/h.</desc>
<speed>5.280000</speed>
</trkpt>
<trkpt lat="55.938129" lon="26.521496">
<ele>125.477600</ele>
<time>2010-08-29T08:23:11Z</time>
<desc>lat.=55.938129, lon.=26.521496, Alt.=125.477600m. Speed=17.243999m/h.</desc>
<speed>4.790000</speed>
</trkpt>
<trkpt lat="55.938179" lon="26.521496">
<ele>126.182678</ele>
<time>2010-08-29T08:23:12Z</time>
<desc>lat.=55.938179, lon.=26.521496, Alt.=126.182678m. Speed=16.812000m/h.</desc>
<speed>4.670000</speed>
</trkpt>
<trkpt lat="55.938244" lon="26.521507">
<ele>125.727600</ele>
<time>2010-08-29T08:23:13Z</time>
<desc>lat.=55.938244, lon.=26.521507, Alt.=125.727600m. Speed=16.992001m/h.</desc>
<speed>4.720000</speed>
</trkpt>
<trkpt lat="55.938301" lon="26.521513">
<ele>124.407288</ele>
<time>2010-08-29T08:23:14Z</time>
<desc>lat.=55.938301, lon.=26.521513, Alt.=124.407288m. Speed=20.232000m/h.</desc>
<speed>5.620000</speed>
</trkpt>
<trkpt lat="55.938351" lon="26.521524">
<ele>123.682678</ele>
<time>2010-08-29T08:23:15Z</time>
<desc>lat.=55.938351, lon.=26.521524, Alt.=123.682678m. Speed=19.080000m/h.</desc>
<speed>5.300000</speed>
</trkpt>
<trkpt lat="55.938400" lon="26.521532">
<ele>123.979553</ele>
<time>2010-08-29T08:23:16Z</time>
<desc>lat.=55.938400, lon.=26.521532, Alt.=123.979553m. Speed=18.900000m/h.</desc>
<speed>5.250000</speed>
</trkpt>
<trkpt lat="55.938438" lon="26.521542">
<ele>122.813538</ele>
<time>2010-08-29T08:23:17Z</time>
<desc>lat.=55.938438, lon.=26.521542, Alt.=122.813538m. Speed=20.483999m/h.</desc>
<speed>5.690000</speed>
</trkpt>
<trkpt lat="55.938496" lon="26.521549">
<ele>122.710022</ele>
<time>2010-08-29T08:23:18Z</time>
<desc>lat.=55.938496, lon.=26.521549, Alt.=122.710022m. Speed=20.483999m/h.</desc>
<speed>5.690000</speed>
</trkpt>
<trkpt lat="55.938557" lon="26.521559">
<ele>122.917053</ele>
<time>2010-08-29T08:23:19Z</time>
<desc>lat.=55.938557, lon.=26.521559, Alt.=122.917053m. Speed=21.492001m/h.</desc>
<speed>5.970000</speed>
</trkpt>
<trkpt lat="55.938610" lon="26.521555">
<ele>122.393616</ele>
<time>2010-08-29T08:23:20Z</time>
<desc>lat.=55.938610, lon.=26.521555, Alt.=122.393616m. Speed=19.944000m/h.</desc>
<speed>5.540000</speed>
</trkpt>
<trkpt lat="55.938667" lon="26.521555">
<ele>121.036194</ele>
<time>2010-08-29T08:23:21Z</time>
<desc>lat.=55.938667, lon.=26.521555, Alt.=121.036194m. Speed=20.483999m/h.</desc>
<speed>5.690000</speed>
</trkpt>
<trkpt lat="55.938717" lon="26.521551">
<ele>119.846741</ele>
<time>2010-08-29T08:23:22Z</time>
<desc>lat.=55.938717, lon.=26.521551, Alt.=119.846741m. Speed=19.548000m/h.</desc>
<speed>5.430000</speed>
</trkpt>
<trkpt lat="55.938763" lon="26.521557">
<ele>118.579163</ele>
<time>2010-08-29T08:23:23Z</time>
<desc>lat.=55.938763, lon.=26.521557, Alt.=118.579163m. Speed=20.052000m/h.</desc>
<speed>5.570000</speed>
</trkpt>
<trkpt lat="55.938824" lon="26.521547">
<ele>119.301819</ele>
<time>2010-08-29T08:23:24Z</time>
<desc>lat.=55.938824, lon.=26.521547, Alt.=119.301819m. Speed=19.691999m/h.</desc>
<speed>5.470000</speed>
</trkpt>
<trkpt lat="55.938873" lon="26.521549">
<ele>118.614319</ele>
<time>2010-08-29T08:23:25Z</time>
<desc>lat.=55.938873, lon.=26.521549, Alt.=118.614319m. Speed=19.799999m/h.</desc>
<speed>5.500000</speed>
</trkpt>
<trkpt lat="55.938919" lon="26.521551">
<ele>118.366272</ele>
<time>2010-08-29T08:23:26Z</time>
<desc>lat.=55.938919, lon.=26.521551, Alt.=118.366272m. Speed=18.216000m/h.</desc>
<speed>5.060000</speed>
</trkpt>
<trkpt lat="55.938961" lon="26.521553">
<ele>118.358459</ele>
<time>2010-08-29T08:23:27Z</time>
<desc>lat.=55.938961, lon.=26.521553, Alt.=118.358459m. Speed=17.532000m/h.</desc>
<speed>4.870000</speed>
</trkpt>
<trkpt lat="55.939011" lon="26.521559">
<ele>118.614319</ele>
<time>2010-08-29T08:23:28Z</time>
<desc>lat.=55.939011, lon.=26.521559, Alt.=118.614319m. Speed=18.035999m/h.</desc>
<speed>5.010000</speed>
</trkpt>
<trkpt lat="55.939053" lon="26.521564">
<ele>119.258850</ele>
<time>2010-08-29T08:23:29Z</time>
<desc>lat.=55.939053, lon.=26.521564, Alt.=119.258850m. Speed=15.372000m/h.</desc>
<speed>4.270000</speed>
</trkpt>
<trkpt lat="55.939095" lon="26.521572">
<ele>119.999084</ele>
<time>2010-08-29T08:23:30Z</time>
<desc>lat.=55.939095, lon.=26.521572, Alt.=119.999084m. Speed=14.580000m/h.</desc>
<speed>4.050000</speed>
</trkpt>
<trkpt lat="55.939129" lon="26.521580">
<ele>120.645569</ele>
<time>2010-08-29T08:23:31Z</time>
<desc>lat.=55.939129, lon.=26.521580, Alt.=120.645569m. Speed=12.600000m/h.</desc>
<speed>3.500000</speed>
</trkpt>
<trkpt lat="55.939163" lon="26.521580">
<ele>121.245178</ele>
<time>2010-08-29T08:23:32Z</time>
<desc>lat.=55.939163, lon.=26.521580, Alt.=121.245178m. Speed=13.356000m/h.</desc>
<speed>3.710000</speed>
</trkpt>
<trkpt lat="55.939198" lon="26.521587">
<ele>121.426819</ele>
<time>2010-08-29T08:23:33Z</time>
<desc>lat.=55.939198, lon.=26.521587, Alt.=121.426819m. Speed=14.148000m/h.</desc>
<speed>3.930000</speed>
</trkpt>
<trkpt lat="55.939232" lon="26.521591">
<ele>121.335022</ele>
<time>2010-08-29T08:23:34Z</time>
<desc>lat.=55.939232, lon.=26.521591, Alt.=121.335022m. Speed=13.572000m/h.</desc>
<speed>3.770000</speed>
</trkpt>
<trkpt lat="55.939259" lon="26.521605">
<ele>120.467834</ele>
<time>2010-08-29T08:23:35Z</time>
<desc>lat.=55.939259, lon.=26.521605, Alt.=120.467834m. Speed=12.636000m/h.</desc>
<speed>3.510000</speed>
</trkpt>
<trkpt lat="55.939293" lon="26.521601">
<ele>120.794006</ele>
<time>2010-08-29T08:23:36Z</time>
<desc>lat.=55.939293, lon.=26.521601, Alt.=120.794006m. Speed=11.412000m/h.</desc>
<speed>3.170000</speed>
</trkpt>
<trkpt lat="55.939320" lon="26.521599">
<ele>120.958069</ele>
<time>2010-08-29T08:23:37Z</time>
<desc>lat.=55.939320, lon.=26.521599, Alt.=120.958069m. Speed=11.016000m/h.</desc>
<speed>3.060000</speed>
</trkpt>
<trkpt lat="55.939358" lon="26.521595">
<ele>121.383850</ele>
<time>2010-08-29T08:23:38Z</time>
<desc>lat.=55.939358, lon.=26.521595, Alt.=121.383850m. Speed=14.544000m/h.</desc>
<speed>4.040000</speed>
</trkpt>
<trkpt lat="55.939396" lon="26.521597">
<ele>121.430725</ele>
<time>2010-08-29T08:23:39Z</time>
<desc>lat.=55.939396, lon.=26.521597, Alt.=121.430725m. Speed=14.256000m/h.</desc>
<speed>3.960000</speed>
</trkpt>
<trkpt lat="55.939430" lon="26.521595">
<ele>121.624084</ele>
<time>2010-08-29T08:23:40Z</time>
<desc>lat.=55.939430, lon.=26.521595, Alt.=121.624084m. Speed=13.716000m/h.</desc>
<speed>3.810000</speed>
</trkpt>
<trkpt lat="55.939449" lon="26.521566">
<ele>120.792053</ele>
<time>2010-08-29T08:23:41Z</time>
<desc>lat.=55.939449, lon.=26.521566, Alt.=120.792053m. Speed=11.628000m/h.</desc>
<speed>3.230000</speed>
</trkpt>
<trkpt lat="55.939468" lon="26.521547">
<ele>120.532288</ele>
<time>2010-08-29T08:23:42Z</time>
<desc>lat.=55.939468, lon.=26.521547, Alt.=120.532288m. Speed=10.188000m/h.</desc>
<speed>2.830000</speed>
</trkpt>
<trkpt lat="55.939495" lon="26.521530">
<ele>120.590881</ele>
<time>2010-08-29T08:23:43Z</time>
<desc>lat.=55.939495, lon.=26.521530, Alt.=120.590881m. Speed=11.484000m/h.</desc>
<speed>3.190000</speed>
</trkpt>
<trkpt lat="55.939522" lon="26.521521">
<ele>120.592834</ele>
<time>2010-08-29T08:23:44Z</time>
<desc>lat.=55.939522, lon.=26.521521, Alt.=120.592834m. Speed=10.476000m/h.</desc>
<speed>2.910000</speed>
</trkpt>
<trkpt lat="55.939545" lon="26.521513">
<ele>120.524475</ele>
<time>2010-08-29T08:23:45Z</time>
<desc>lat.=55.939545, lon.=26.521513, Alt.=120.524475m. Speed=10.728000m/h.</desc>
<speed>2.980000</speed>
</trkpt>
<trkpt lat="55.939571" lon="26.521507">
<ele>120.229553</ele>
<time>2010-08-29T08:23:46Z</time>
<desc>lat.=55.939571, lon.=26.521507, Alt.=120.229553m. Speed=9.468000m/h.</desc>
<speed>2.630000</speed>
</trkpt>
<trkpt lat="55.939598" lon="26.521498">
<ele>120.022522</ele>
<time>2010-08-29T08:23:47Z</time>
<desc>lat.=55.939598, lon.=26.521498, Alt.=120.022522m. Speed=9.324000m/h.</desc>
<speed>2.590000</speed>
</trkpt>
<trkpt lat="55.939621" lon="26.521496">
<ele>120.030334</ele>
<time>2010-08-29T08:23:48Z</time>
<desc>lat.=55.939621, lon.=26.521496, Alt.=120.030334m. Speed=9.072000m/h.</desc>
<speed>2.520000</speed>
</trkpt>
<trkpt lat="55.939644" lon="26.521486">
<ele>120.085022</ele>
<time>2010-08-29T08:23:49Z</time>
<desc>lat.=55.939644, lon.=26.521486, Alt.=120.085022m. Speed=10.584000m/h.</desc>
<speed>2.940000</speed>
</trkpt>
<trkpt lat="55.939671" lon="26.521477">
<ele>120.202209</ele>
<time>2010-08-29T08:23:50Z</time>
<desc>lat.=55.939671, lon.=26.521477, Alt.=120.202209m. Speed=9.360000m/h.</desc>
<speed>2.600000</speed>
</trkpt>
<trkpt lat="55.939705" lon="26.521465">
<ele>120.219788</ele>
<time>2010-08-29T08:23:51Z</time>
<desc>lat.=55.939705, lon.=26.521465, Alt.=120.219788m. Speed=11.556000m/h.</desc>
<speed>3.210000</speed>
</trkpt>
<trkpt lat="55.939739" lon="26.521467">
<ele>120.913147</ele>
<time>2010-08-29T08:23:52Z</time>
<desc>lat.=55.939739, lon.=26.521467, Alt.=120.913147m. Speed=14.076000m/h.</desc>
<speed>3.910000</speed>
</trkpt>
<trkpt lat="55.939781" lon="26.521454">
<ele>121.165100</ele>
<time>2010-08-29T08:23:53Z</time>
<desc>lat.=55.939781, lon.=26.521454, Alt.=121.165100m. Speed=13.140000m/h.</desc>
<speed>3.650000</speed>
</trkpt>
<trkpt lat="55.939819" lon="26.521439">
<ele>121.319397</ele>
<time>2010-08-29T08:23:54Z</time>
<desc>lat.=55.939819, lon.=26.521439, Alt.=121.319397m. Speed=14.112000m/h.</desc>
<speed>3.920000</speed>
</trkpt>
<trkpt lat="55.939857" lon="26.521429">
<ele>121.440491</ele>
<time>2010-08-29T08:23:55Z</time>
<desc>lat.=55.939857, lon.=26.521429, Alt.=121.440491m. Speed=13.572000m/h.</desc>
<speed>3.770000</speed>
</trkpt>
<trkpt lat="55.939899" lon="26.521414">
<ele>121.040100</ele>
<time>2010-08-29T08:23:56Z</time>
<desc>lat.=55.939899, lon.=26.521414, Alt.=121.040100m. Speed=15.696000m/h.</desc>
<speed>4.360000</speed>
</trkpt>
<trkpt lat="55.939941" lon="26.521397">
<ele>120.182678</ele>
<time>2010-08-29T08:23:57Z</time>
<desc>lat.=55.939941, lon.=26.521397, Alt.=120.182678m. Speed=16.056000m/h.</desc>
<speed>4.460000</speed>
</trkpt>
<trkpt lat="55.939983" lon="26.521393">
<ele>119.807678</ele>
<time>2010-08-29T08:23:58Z</time>
<desc>lat.=55.939983, lon.=26.521393, Alt.=119.807678m. Speed=17.316000m/h.</desc>
<speed>4.810000</speed>
</trkpt>
<trkpt lat="55.940029" lon="26.521393">
<ele>119.815491</ele>
<time>2010-08-29T08:23:59Z</time>
<desc>lat.=55.940029, lon.=26.521393, Alt.=119.815491m. Speed=18.719999m/h.</desc>
<speed>5.200000</speed>
</trkpt>
<trkpt lat="55.940079" lon="26.521397">
<ele>119.934631</ele>
<time>2010-08-29T08:24:00Z</time>
<desc>lat.=55.940079, lon.=26.521397, Alt.=119.934631m. Speed=16.596001m/h.</desc>
<speed>4.610000</speed>
</trkpt>
<trkpt lat="55.940136" lon="26.521406">
<ele>120.145569</ele>
<time>2010-08-29T08:24:01Z</time>
<desc>lat.=55.940136, lon.=26.521406, Alt.=120.145569m. Speed=18.504000m/h.</desc>
<speed>5.140000</speed>
</trkpt>
<trkpt lat="55.940197" lon="26.521431">
<ele>119.583069</ele>
<time>2010-08-29T08:24:02Z</time>
<desc>lat.=55.940197, lon.=26.521431, Alt.=119.583069m. Speed=18.000000m/h.</desc>
<speed>5.000000</speed>
</trkpt>
<trkpt lat="55.940243" lon="26.521439">
<ele>119.081116</ele>
<time>2010-08-29T08:24:03Z</time>
<desc>lat.=55.940243, lon.=26.521439, Alt.=119.081116m. Speed=16.379999m/h.</desc>
<speed>4.550000</speed>
</trkpt>
<trkpt lat="55.940289" lon="26.521437">
<ele>117.922913</ele>
<time>2010-08-29T08:24:04Z</time>
<desc>lat.=55.940289, lon.=26.521437, Alt.=117.922913m. Speed=18.431999m/h.</desc>
<speed>5.120000</speed>
</trkpt>
<trkpt lat="55.940342" lon="26.521446">
<ele>119.561584</ele>
<time>2010-08-29T08:24:05Z</time>
<desc>lat.=55.940342, lon.=26.521446, Alt.=119.561584m. Speed=14.220000m/h.</desc>
<speed>3.950000</speed>
</trkpt>
<trkpt lat="55.940384" lon="26.521456">
<ele>120.067444</ele>
<time>2010-08-29T08:24:06Z</time>
<desc>lat.=55.940384, lon.=26.521456, Alt.=120.067444m. Speed=12.600000m/h.</desc>
<speed>3.500000</speed>
</trkpt>
<trkpt lat="55.940434" lon="26.521463">
<ele>119.813538</ele>
<time>2010-08-29T08:24:07Z</time>
<desc>lat.=55.940434, lon.=26.521463, Alt.=119.813538m. Speed=14.004000m/h.</desc>
<speed>3.890000</speed>
</trkpt>
<trkpt lat="55.940472" lon="26.521461">
<ele>120.374084</ele>
<time>2010-08-29T08:24:08Z</time>
<desc>lat.=55.940472, lon.=26.521461, Alt.=120.374084m. Speed=14.328000m/h.</desc>
<speed>3.980000</speed>
</trkpt>
<trkpt lat="55.940510" lon="26.521467">
<ele>120.754944</ele>
<time>2010-08-29T08:24:09Z</time>
<desc>lat.=55.940510, lon.=26.521467, Alt.=120.754944m. Speed=14.472000m/h.</desc>
<speed>4.020000</speed>
</trkpt>
<trkpt lat="55.940563" lon="26.521486">
<ele>122.184631</ele>
<time>2010-08-29T08:24:10Z</time>
<desc>lat.=55.940563, lon.=26.521486, Alt.=122.184631m. Speed=14.868000m/h.</desc>
<speed>4.130000</speed>
</trkpt>
<trkpt lat="55.940598" lon="26.521490">
<ele>121.506897</ele>
<time>2010-08-29T08:24:11Z</time>
<desc>lat.=55.940598, lon.=26.521490, Alt.=121.506897m. Speed=11.844000m/h.</desc>
<speed>3.290000</speed>
</trkpt>
<trkpt lat="55.940636" lon="26.521492">
<ele>120.229553</ele>
<time>2010-08-29T08:24:12Z</time>
<desc>lat.=55.940636, lon.=26.521492, Alt.=120.229553m. Speed=12.888000m/h.</desc>
<speed>3.580000</speed>
</trkpt>
<trkpt lat="55.940681" lon="26.521492">
<ele>118.872131</ele>
<time>2010-08-29T08:24:13Z</time>
<desc>lat.=55.940681, lon.=26.521492, Alt.=118.872131m. Speed=16.775999m/h.</desc>
<speed>4.660000</speed>
</trkpt>
<trkpt lat="55.940720" lon="26.521488">
<ele>116.743225</ele>
<time>2010-08-29T08:24:14Z</time>
<desc>lat.=55.940720, lon.=26.521488, Alt.=116.743225m. Speed=15.048000m/h.</desc>
<speed>4.180000</speed>
</trkpt>
<trkpt lat="55.940769" lon="26.521498">
<ele>118.702209</ele>
<time>2010-08-29T08:24:15Z</time>
<desc>lat.=55.940769, lon.=26.521498, Alt.=118.702209m. Speed=13.896000m/h.</desc>
<speed>3.860000</speed>
</trkpt>
<trkpt lat="55.940811" lon="26.521505">
<ele>120.358459</ele>
<time>2010-08-29T08:24:16Z</time>
<desc>lat.=55.940811, lon.=26.521505, Alt.=120.358459m. Speed=11.772000m/h.</desc>
<speed>3.270000</speed>
</trkpt>
<trkpt lat="55.940838" lon="26.521498">
<ele>121.331116</ele>
<time>2010-08-29T08:24:17Z</time>
<desc>lat.=55.940838, lon.=26.521498, Alt.=121.331116m. Speed=10.548000m/h.</desc>
<speed>2.930000</speed>
</trkpt>
<trkpt lat="55.940880" lon="26.521502">
<ele>122.172913</ele>
<time>2010-08-29T08:24:18Z</time>
<desc>lat.=55.940880, lon.=26.521502, Alt.=122.172913m. Speed=11.268000m/h.</desc>
<speed>3.130000</speed>
</trkpt>
<trkpt lat="55.940914" lon="26.521490">
<ele>120.930725</ele>
<time>2010-08-29T08:24:19Z</time>
<desc>lat.=55.940914, lon.=26.521490, Alt.=120.930725m. Speed=11.808000m/h.</desc>
<speed>3.280000</speed>
</trkpt>
<trkpt lat="55.940945" lon="26.521481">
<ele>118.840881</ele>
<time>2010-08-29T08:24:20Z</time>
<desc>lat.=55.940945, lon.=26.521481, Alt.=118.840881m. Speed=13.104000m/h.</desc>
<speed>3.640000</speed>
</trkpt>
<trkpt lat="55.940983" lon="26.521477">
<ele>118.608459</ele>
<time>2010-08-29T08:24:21Z</time>
<desc>lat.=55.940983, lon.=26.521477, Alt.=118.608459m. Speed=14.292000m/h.</desc>
<speed>3.970000</speed>
</trkpt>
<trkpt lat="55.941021" lon="26.521475">
<ele>118.637756</ele>
<time>2010-08-29T08:24:22Z</time>
<desc>lat.=55.941021, lon.=26.521475, Alt.=118.637756m. Speed=11.340000m/h.</desc>
<speed>3.150000</speed>
</trkpt>
<trkpt lat="55.941063" lon="26.521482">
<ele>119.385803</ele>
<time>2010-08-29T08:24:23Z</time>
<desc>lat.=55.941063, lon.=26.521482, Alt.=119.385803m. Speed=10.548000m/h.</desc>
<speed>2.930000</speed>
</trkpt>
<trkpt lat="55.941109" lon="26.521492">
<ele>119.100647</ele>
<time>2010-08-29T08:24:24Z</time>
<desc>lat.=55.941109, lon.=26.521492, Alt.=119.100647m. Speed=10.800000m/h.</desc>
<speed>3.000000</speed>
</trkpt>
<trkpt lat="55.941147" lon="26.521498">
<ele>119.030334</ele>
<time>2010-08-29T08:24:25Z</time>
<desc>lat.=55.941147, lon.=26.521498, Alt.=119.030334m. Speed=10.728000m/h.</desc>
<speed>2.980000</speed>
</trkpt>
<trkpt lat="55.941185" lon="26.521500">
<ele>119.602600</ele>
<time>2010-08-29T08:24:26Z</time>
<desc>lat.=55.941185, lon.=26.521500, Alt.=119.602600m. Speed=10.260000m/h.</desc>
<speed>2.850000</speed>
</trkpt>
<trkpt lat="55.941227" lon="26.521507">
<ele>118.247131</ele>
<time>2010-08-29T08:24:27Z</time>
<desc>lat.=55.941227, lon.=26.521507, Alt.=118.247131m. Speed=11.772000m/h.</desc>
<speed>3.270000</speed>
</trkpt>
<trkpt lat="55.941269" lon="26.521519">
<ele>119.942444</ele>
<time>2010-08-29T08:24:28Z</time>
<desc>lat.=55.941269, lon.=26.521519, Alt.=119.942444m. Speed=11.520000m/h.</desc>
<speed>3.200000</speed>
</trkpt>
<trkpt lat="55.941311" lon="26.521530">
<ele>120.514709</ele>
<time>2010-08-29T08:24:29Z</time>
<desc>lat.=55.941311, lon.=26.521530, Alt.=120.514709m. Speed=11.700000m/h.</desc>
<speed>3.250000</speed>
</trkpt>
<trkpt lat="55.941349" lon="26.521540">
<ele>120.774475</ele>
<time>2010-08-29T08:24:30Z</time>
<desc>lat.=55.941349, lon.=26.521540, Alt.=120.774475m. Speed=10.260000m/h.</desc>
<speed>2.850000</speed>
</trkpt>
<trkpt lat="55.941383" lon="26.521544">
<ele>120.723694</ele>
<time>2010-08-29T08:24:31Z</time>
<desc>lat.=55.941383, lon.=26.521544, Alt.=120.723694m. Speed=10.404000m/h.</desc>
<speed>2.890000</speed>
</trkpt>
<trkpt lat="55.941422" lon="26.521544">
<ele>121.002991</ele>
<time>2010-08-29T08:24:32Z</time>
<desc>lat.=55.941422, lon.=26.521544, Alt.=121.002991m. Speed=10.836000m/h.</desc>
<speed>3.010000</speed>
</trkpt>
<trkpt lat="55.941452" lon="26.521538">
<ele>121.522522</ele>
<time>2010-08-29T08:24:33Z</time>
<desc>lat.=55.941452, lon.=26.521538, Alt.=121.522522m. Speed=10.908000m/h.</desc>
<speed>3.030000</speed>
</trkpt>
<trkpt lat="55.941490" lon="26.521542">
<ele>121.928772</ele>
<time>2010-08-29T08:24:34Z</time>
<desc>lat.=55.941490, lon.=26.521542, Alt.=121.928772m. Speed=11.376000m/h.</desc>
<speed>3.160000</speed>
</trkpt>
<trkpt lat="55.941532" lon="26.521553">
<ele>122.485413</ele>
<time>2010-08-29T08:24:35Z</time>
<desc>lat.=55.941532, lon.=26.521553, Alt.=122.485413m. Speed=13.500000m/h.</desc>
<speed>3.750000</speed>
</trkpt>
<trkpt lat="55.941578" lon="26.521551">
<ele>122.717834</ele>
<time>2010-08-29T08:24:36Z</time>
<desc>lat.=55.941578, lon.=26.521551, Alt.=122.717834m. Speed=14.760000m/h.</desc>
<speed>4.100000</speed>
</trkpt>
<trkpt lat="55.941620" lon="26.521555">
<ele>122.911194</ele>
<time>2010-08-29T08:24:37Z</time>
<desc>lat.=55.941620, lon.=26.521555, Alt.=122.911194m. Speed=16.740000m/h.</desc>
<speed>4.650000</speed>
</trkpt>
<trkpt lat="55.941662" lon="26.521549">
<ele>121.963928</ele>
<time>2010-08-29T08:24:38Z</time>
<desc>lat.=55.941662, lon.=26.521549, Alt.=121.963928m. Speed=17.676001m/h.</desc>
<speed>4.910000</speed>
</trkpt>
<trkpt lat="55.941708" lon="26.521553">
<ele>122.051819</ele>
<time>2010-08-29T08:24:39Z</time>
<desc>lat.=55.941708, lon.=26.521553, Alt.=122.051819m. Speed=17.208000m/h.</desc>
<speed>4.780000</speed>
</trkpt>
<trkpt lat="55.941753" lon="26.521534">
<ele>121.157288</ele>
<time>2010-08-29T08:24:40Z</time>
<desc>lat.=55.941753, lon.=26.521534, Alt.=121.157288m. Speed=15.948000m/h.</desc>
<speed>4.430000</speed>
</trkpt>
<trkpt lat="55.941799" lon="26.521523">
<ele>120.688538</ele>
<time>2010-08-29T08:24:41Z</time>
<desc>lat.=55.941799, lon.=26.521523, Alt.=120.688538m. Speed=16.056000m/h.</desc>
<speed>4.460000</speed>
</trkpt>
<trkpt lat="55.941833" lon="26.521500">
<ele>120.325256</ele>
<time>2010-08-29T08:24:42Z</time>
<desc>lat.=55.941833, lon.=26.521500, Alt.=120.325256m. Speed=15.804000m/h.</desc>
<speed>4.390000</speed>
</trkpt>
<trkpt lat="55.941864" lon="26.521465">
<ele>119.723694</ele>
<time>2010-08-29T08:24:43Z</time>
<desc>lat.=55.941864, lon.=26.521465, Alt.=119.723694m. Speed=14.472000m/h.</desc>
<speed>4.020000</speed>
</trkpt>
<trkpt lat="55.941898" lon="26.521444">
<ele>120.049866</ele>
<time>2010-08-29T08:24:44Z</time>
<desc>lat.=55.941898, lon.=26.521444, Alt.=120.049866m. Speed=12.600000m/h.</desc>
<speed>3.500000</speed>
</trkpt>
<trkpt lat="55.941929" lon="26.521393">
<ele>117.715881</ele>
<time>2010-08-29T08:24:45Z</time>
<desc>lat.=55.941929, lon.=26.521393, Alt.=117.715881m. Speed=13.608000m/h.</desc>
<speed>3.780000</speed>
</trkpt>
<trkpt lat="55.941956" lon="26.521353">
<ele>117.700256</ele>
<time>2010-08-29T08:24:46Z</time>
<desc>lat.=55.941956, lon.=26.521353, Alt.=117.700256m. Speed=11.484000m/h.</desc>
<speed>3.190000</speed>
</trkpt>
<trkpt lat="55.941975" lon="26.521318">
<ele>117.624084</ele>
<time>2010-08-29T08:24:47Z</time>
<desc>lat.=55.941975, lon.=26.521318, Alt.=117.624084m. Speed=11.628000m/h.</desc>
<speed>3.230000</speed>
</trkpt>
<trkpt lat="55.942001" lon="26.521294">
<ele>118.684631</ele>
<time>2010-08-29T08:24:48Z</time>
<desc>lat.=55.942001, lon.=26.521294, Alt.=118.684631m. Speed=11.232000m/h.</desc>
<speed>3.120000</speed>
</trkpt>
<trkpt lat="55.942028" lon="26.521244">
<ele>117.971741</ele>
<time>2010-08-29T08:24:49Z</time>
<desc>lat.=55.942028, lon.=26.521244, Alt.=117.971741m. Speed=10.332000m/h.</desc>
<speed>2.870000</speed>
</trkpt>
<trkpt lat="55.942051" lon="26.521196">
<ele>118.106506</ele>
<time>2010-08-29T08:24:50Z</time>
<desc>lat.=55.942051, lon.=26.521196, Alt.=118.106506m. Speed=12.132000m/h.</desc>
<speed>3.370000</speed>
</trkpt>
<trkpt lat="55.942085" lon="26.521164">
<ele>117.965881</ele>
<time>2010-08-29T08:24:51Z</time>
<desc>lat.=55.942085, lon.=26.521164, Alt.=117.965881m. Speed=12.276000m/h.</desc>
<speed>3.410000</speed>
</trkpt>
<trkpt lat="55.942139" lon="26.521130">
<ele>117.336975</ele>
<time>2010-08-29T08:24:52Z</time>
<desc>lat.=55.942139, lon.=26.521130, Alt.=117.336975m. Speed=11.664000m/h.</desc>
<speed>3.240000</speed>
</trkpt>
<trkpt lat="55.942165" lon="26.521099">
<ele>117.180725</ele>
<time>2010-08-29T08:24:53Z</time>
<desc>lat.=55.942165, lon.=26.521099, Alt.=117.180725m. Speed=11.988000m/h.</desc>
<speed>3.330000</speed>
</trkpt>
<trkpt lat="55.942188" lon="26.521065">
<ele>117.565491</ele>
<time>2010-08-29T08:24:54Z</time>
<desc>lat.=55.942188, lon.=26.521065, Alt.=117.565491m. Speed=11.484000m/h.</desc>
<speed>3.190000</speed>
</trkpt>
<trkpt lat="55.942219" lon="26.521038">
<ele>117.717834</ele>
<time>2010-08-29T08:24:55Z</time>
<desc>lat.=55.942219, lon.=26.521038, Alt.=117.717834m. Speed=11.844000m/h.</desc>
<speed>3.290000</speed>
</trkpt>
<trkpt lat="55.942249" lon="26.521013">
<ele>117.907288</ele>
<time>2010-08-29T08:24:56Z</time>
<desc>lat.=55.942249, lon.=26.521013, Alt.=117.907288m. Speed=11.016000m/h.</desc>
<speed>3.060000</speed>
</trkpt>
<trkpt lat="55.942276" lon="26.520998">
<ele>118.026428</ele>
<time>2010-08-29T08:24:57Z</time>
<desc>lat.=55.942276, lon.=26.520998, Alt.=118.026428m. Speed=10.440000m/h.</desc>
<speed>2.900000</speed>
</trkpt>
<trkpt lat="55.942318" lon="26.521000">
<ele>119.766663</ele>
<time>2010-08-29T08:24:58Z</time>
<desc>lat.=55.942318, lon.=26.521000, Alt.=119.766663m. Speed=11.412000m/h.</desc>
<speed>3.170000</speed>
</trkpt>
<trkpt lat="55.942352" lon="26.521002">
<ele>118.448303</ele>
<time>2010-08-29T08:24:59Z</time>
<desc>lat.=55.942352, lon.=26.521002, Alt.=118.448303m. Speed=12.312000m/h.</desc>
<speed>3.420000</speed>
</trkpt>
<trkpt lat="55.942394" lon="26.521006">
<ele>118.577209</ele>
<time>2010-08-29T08:25:00Z</time>
<desc>lat.=55.942394, lon.=26.521006, Alt.=118.577209m. Speed=12.240000m/h.</desc>
<speed>3.400000</speed>
</trkpt>
<trkpt lat="55.942425" lon="26.521009">
<ele>117.544006</ele>
<time>2010-08-29T08:25:01Z</time>
<desc>lat.=55.942425, lon.=26.521009, Alt.=117.544006m. Speed=10.584000m/h.</desc>
<speed>2.940000</speed>
</trkpt>
<trkpt lat="55.942471" lon="26.521029">
<ele>119.307678</ele>
<time>2010-08-29T08:25:02Z</time>
<desc>lat.=55.942471, lon.=26.521029, Alt.=119.307678m. Speed=9.828000m/h.</desc>
<speed>2.730000</speed>
</trkpt>
<trkpt lat="55.942497" lon="26.521042">
<ele>118.762756</ele>
<time>2010-08-29T08:25:03Z</time>
<desc>lat.=55.942497, lon.=26.521042, Alt.=118.762756m. Speed=8.100000m/h.</desc>
<speed>2.250000</speed>
</trkpt>
<trkpt lat="55.942516" lon="26.521049">
<ele>118.079163</ele>
<time>2010-08-29T08:25:04Z</time>
<desc>lat.=55.942516, lon.=26.521049, Alt.=118.079163m. Speed=7.092000m/h.</desc>
<speed>1.970000</speed>
</trkpt>
<trkpt lat="55.942535" lon="26.521053">
<ele>117.713928</ele>
<time>2010-08-29T08:25:05Z</time>
<desc>lat.=55.942535, lon.=26.521053, Alt.=117.713928m. Speed=6.192000m/h.</desc>
<speed>1.720000</speed>
</trkpt>
<trkpt lat="55.942551" lon="26.521065">
<ele>117.758850</ele>
<time>2010-08-29T08:25:06Z</time>
<desc>lat.=55.942551, lon.=26.521065, Alt.=117.758850m. Speed=5.400000m/h.</desc>
<speed>1.500000</speed>
</trkpt>
<trkpt lat="55.942562" lon="26.521082">
<ele>117.840881</ele>
<time>2010-08-29T08:25:07Z</time>
<desc>lat.=55.942562, lon.=26.521082, Alt.=117.840881m. Speed=5.616000m/h.</desc>
<speed>1.560000</speed>
</trkpt>
<trkpt lat="55.942585" lon="26.521095">
<ele>117.309631</ele>
<time>2010-08-29T08:25:08Z</time>
<desc>lat.=55.942585, lon.=26.521095, Alt.=117.309631m. Speed=8.172000m/h.</desc>
<speed>2.270000</speed>
</trkpt>
<trkpt lat="55.942604" lon="26.521116">
<ele>117.198303</ele>
<time>2010-08-29T08:25:09Z</time>
<desc>lat.=55.942604, lon.=26.521116, Alt.=117.198303m. Speed=7.380000m/h.</desc>
<speed>2.050000</speed>
</trkpt>
<trkpt lat="55.942623" lon="26.521141">
<ele>117.018616</ele>
<time>2010-08-29T08:25:10Z</time>
<desc>lat.=55.942623, lon.=26.521141, Alt.=117.018616m. Speed=8.784000m/h.</desc>
<speed>2.440000</speed>
</trkpt>
<trkpt lat="55.942642" lon="26.521166">
<ele>116.774475</ele>
<time>2010-08-29T08:25:11Z</time>
<desc>lat.=55.942642, lon.=26.521166, Alt.=116.774475m. Speed=8.424000m/h.</desc>
<speed>2.340000</speed>
</trkpt>
<trkpt lat="55.942657" lon="26.521185">
<ele>116.840881</ele>
<time>2010-08-29T08:25:12Z</time>
<desc>lat.=55.942657, lon.=26.521185, Alt.=116.840881m. Speed=7.812000m/h.</desc>
<speed>2.170000</speed>
</trkpt>
<trkpt lat="55.942673" lon="26.521202">
<ele>116.463928</ele>
<time>2010-08-29T08:25:13Z</time>
<desc>lat.=55.942673, lon.=26.521202, Alt.=116.463928m. Speed=7.164000m/h.</desc>
<speed>1.990000</speed>
</trkpt>
<trkpt lat="55.942692" lon="26.521221">
<ele>116.411194</ele>
<time>2010-08-29T08:25:14Z</time>
<desc>lat.=55.942692, lon.=26.521221, Alt.=116.411194m. Speed=8.064000m/h.</desc>
<speed>2.240000</speed>
</trkpt>
<trkpt lat="55.942707" lon="26.521244">
<ele>116.424866</ele>
<time>2010-08-29T08:25:15Z</time>
<desc>lat.=55.942707, lon.=26.521244, Alt.=116.424866m. Speed=8.748000m/h.</desc>
<speed>2.430000</speed>
</trkpt>
<trkpt lat="55.942730" lon="26.521271">
<ele>116.641663</ele>
<time>2010-08-29T08:25:16Z</time>
<desc>lat.=55.942730, lon.=26.521271, Alt.=116.641663m. Speed=9.576000m/h.</desc>
<speed>2.660000</speed>
</trkpt>
<trkpt lat="55.942760" lon="26.521309">
<ele>117.118225</ele>
<time>2010-08-29T08:25:17Z</time>
<desc>lat.=55.942760, lon.=26.521309, Alt.=117.118225m. Speed=9.828000m/h.</desc>
<speed>2.730000</speed>
</trkpt>
<trkpt lat="55.942799" lon="26.521336">
<ele>117.182678</ele>
<time>2010-08-29T08:25:18Z</time>
<desc>lat.=55.942799, lon.=26.521336, Alt.=117.182678m. Speed=9.864000m/h.</desc>
<speed>2.740000</speed>
</trkpt>
<trkpt lat="55.942822" lon="26.521366">
<ele>117.971741</ele>
<time>2010-08-29T08:25:19Z</time>
<desc>lat.=55.942822, lon.=26.521366, Alt.=117.971741m. Speed=9.828000m/h.</desc>
<speed>2.730000</speed>
</trkpt>
<trkpt lat="55.942852" lon="26.521395">
<ele>117.856506</ele>
<time>2010-08-29T08:25:20Z</time>
<desc>lat.=55.942852, lon.=26.521395, Alt.=117.856506m. Speed=10.044000m/h.</desc>
<speed>2.790000</speed>
</trkpt>
<trkpt lat="55.942875" lon="26.521420">
<ele>118.196350</ele>
<time>2010-08-29T08:25:21Z</time>
<desc>lat.=55.942875, lon.=26.521420, Alt.=118.196350m. Speed=10.476000m/h.</desc>
<speed>2.910000</speed>
</trkpt>
<trkpt lat="55.942898" lon="26.521454">
<ele>118.559631</ele>
<time>2010-08-29T08:25:22Z</time>
<desc>lat.=55.942898, lon.=26.521454, Alt.=118.559631m. Speed=8.388000m/h.</desc>
<speed>2.330000</speed>
</trkpt>
<trkpt lat="55.942924" lon="26.521490">
<ele>117.323303</ele>
<time>2010-08-29T08:25:23Z</time>
<desc>lat.=55.942924, lon.=26.521490, Alt.=117.323303m. Speed=9.396000m/h.</desc>
<speed>2.610000</speed>
</trkpt>
<trkpt lat="55.942944" lon="26.521503">
<ele>117.633850</ele>
<time>2010-08-29T08:25:24Z</time>
<desc>lat.=55.942944, lon.=26.521503, Alt.=117.633850m. Speed=7.920000m/h.</desc>
<speed>2.200000</speed>
</trkpt>
<trkpt lat="55.942974" lon="26.521526">
<ele>117.682678</ele>
<time>2010-08-29T08:25:25Z</time>
<desc>lat.=55.942974, lon.=26.521526, Alt.=117.682678m. Speed=9.648000m/h.</desc>
<speed>2.680000</speed>
</trkpt>
<trkpt lat="55.943005" lon="26.521542">
<ele>117.850647</ele>
<time>2010-08-29T08:25:26Z</time>
<desc>lat.=55.943005, lon.=26.521542, Alt.=117.850647m. Speed=9.648000m/h.</desc>
<speed>2.680000</speed>
</trkpt>
<trkpt lat="55.943035" lon="26.521564">
<ele>118.032288</ele>
<time>2010-08-29T08:25:27Z</time>
<desc>lat.=55.943035, lon.=26.521564, Alt.=118.032288m. Speed=9.756000m/h.</desc>
<speed>2.710000</speed>
</trkpt>
<trkpt lat="55.943054" lon="26.521584">
<ele>118.088928</ele>
<time>2010-08-29T08:25:28Z</time>
<desc>lat.=55.943054, lon.=26.521584, Alt.=118.088928m. Speed=9.396000m/h.</desc>
<speed>2.610000</speed>
</trkpt>
<trkpt lat="55.943073" lon="26.521606">
<ele>118.274475</ele>
<time>2010-08-29T08:25:29Z</time>
<desc>lat.=55.943073, lon.=26.521606, Alt.=118.274475m. Speed=8.748000m/h.</desc>
<speed>2.430000</speed>
</trkpt>
<trkpt lat="55.943096" lon="26.521635">
<ele>118.495178</ele>
<time>2010-08-29T08:25:30Z</time>
<desc>lat.=55.943096, lon.=26.521635, Alt.=118.495178m. Speed=9.504000m/h.</desc>
<speed>2.640000</speed>
</trkpt>
<trkpt lat="55.943130" lon="26.521673">
<ele>118.858459</ele>
<time>2010-08-29T08:25:31Z</time>
<desc>lat.=55.943130, lon.=26.521673, Alt.=118.858459m. Speed=10.080000m/h.</desc>
<speed>2.800000</speed>
</trkpt>
<trkpt lat="55.943157" lon="26.521738">
<ele>120.114319</ele>
<time>2010-08-29T08:25:32Z</time>
<desc>lat.=55.943157, lon.=26.521738, Alt.=120.114319m. Speed=8.964000m/h.</desc>
<speed>2.490000</speed>
</trkpt>
<trkpt lat="55.943180" lon="26.521772">
<ele>120.780334</ele>
<time>2010-08-29T08:25:33Z</time>
<desc>lat.=55.943180, lon.=26.521772, Alt.=120.780334m. Speed=9.504000m/h.</desc>
<speed>2.640000</speed>
</trkpt>
<trkpt lat="55.943195" lon="26.521797">
<ele>121.133850</ele>
<time>2010-08-29T08:25:34Z</time>
<desc>lat.=55.943195, lon.=26.521797, Alt.=121.133850m. Speed=8.388000m/h.</desc>
<speed>2.330000</speed>
</trkpt>
<trkpt lat="55.943218" lon="26.521822">
<ele>121.522522</ele>
<time>2010-08-29T08:25:35Z</time>
<desc>lat.=55.943218, lon.=26.521822, Alt.=121.522522m. Speed=7.596000m/h.</desc>
<speed>2.110000</speed>
</trkpt>
<trkpt lat="55.943253" lon="26.521879">
<ele>121.899475</ele>
<time>2010-08-29T08:25:36Z</time>
<desc>lat.=55.943253, lon.=26.521879, Alt.=121.899475m. Speed=8.676000m/h.</desc>
<speed>2.410000</speed>
</trkpt>
<trkpt lat="55.943272" lon="26.521902">
<ele>122.258850</ele>
<time>2010-08-29T08:25:37Z</time>
<desc>lat.=55.943272, lon.=26.521902, Alt.=122.258850m. Speed=6.948000m/h.</desc>
<speed>1.930000</speed>
</trkpt>
<trkpt lat="55.943291" lon="26.521931">
<ele>123.268616</ele>
<time>2010-08-29T08:25:38Z</time>
<desc>lat.=55.943291, lon.=26.521931, Alt.=123.268616m. Speed=6.084000m/h.</desc>
<speed>1.690000</speed>
</trkpt>
<trkpt lat="55.943306" lon="26.521948">
<ele>124.014709</ele>
<time>2010-08-29T08:25:39Z</time>
<desc>lat.=55.943306, lon.=26.521948, Alt.=124.014709m. Speed=5.760000m/h.</desc>
<speed>1.600000</speed>
</trkpt>
<trkpt lat="55.943329" lon="26.521967">
<ele>124.672913</ele>
<time>2010-08-29T08:25:40Z</time>
<desc>lat.=55.943329, lon.=26.521967, Alt.=124.672913m. Speed=7.596000m/h.</desc>
<speed>2.110000</speed>
</trkpt>
<trkpt lat="55.943348" lon="26.521996">
<ele>125.510803</ele>
<time>2010-08-29T08:25:41Z</time>
<desc>lat.=55.943348, lon.=26.521996, Alt.=125.510803m. Speed=8.928000m/h.</desc>
<speed>2.480000</speed>
</trkpt>
<trkpt lat="55.943363" lon="26.522020">
<ele>126.108459</ele>
<time>2010-08-29T08:25:42Z</time>
<desc>lat.=55.943363, lon.=26.522020, Alt.=126.108459m. Speed=8.064000m/h.</desc>
<speed>2.240000</speed>
</trkpt>
<trkpt lat="55.943382" lon="26.522051">
<ele>126.735413</ele>
<time>2010-08-29T08:25:43Z</time>
<desc>lat.=55.943382, lon.=26.522051, Alt.=126.735413m. Speed=10.908000m/h.</desc>
<speed>3.030000</speed>
</trkpt>
<trkpt lat="55.943413" lon="26.522097">
<ele>127.305725</ele>
<time>2010-08-29T08:25:44Z</time>
<desc>lat.=55.943413, lon.=26.522097, Alt.=127.305725m. Speed=13.176000m/h.</desc>
<speed>3.660000</speed>
</trkpt>
<trkpt lat="55.943443" lon="26.522137">
<ele>127.995178</ele>
<time>2010-08-29T08:25:45Z</time>
<desc>lat.=55.943443, lon.=26.522137, Alt.=127.995178m. Speed=14.364000m/h.</desc>
<speed>3.990000</speed>
</trkpt>
<trkpt lat="55.943474" lon="26.522186">
<ele>128.830200</ele>
<time>2010-08-29T08:25:46Z</time>
<desc>lat.=55.943474, lon.=26.522186, Alt.=128.830200m. Speed=15.372000m/h.</desc>
<speed>4.270000</speed>
</trkpt>
<trkpt lat="55.943512" lon="26.522240">
<ele>129.353638</ele>
<time>2010-08-29T08:25:47Z</time>
<desc>lat.=55.943512, lon.=26.522240, Alt.=129.353638m. Speed=17.028000m/h.</desc>
<speed>4.730000</speed>
</trkpt>
<trkpt lat="55.943546" lon="26.522295">
<ele>129.959106</ele>
<time>2010-08-29T08:25:48Z</time>
<desc>lat.=55.943546, lon.=26.522295, Alt.=129.959106m. Speed=15.768000m/h.</desc>
<speed>4.380000</speed>
</trkpt>
<trkpt lat="55.943581" lon="26.522343">
<ele>130.591919</ele>
<time>2010-08-29T08:25:49Z</time>
<desc>lat.=55.943581, lon.=26.522343, Alt.=130.591919m. Speed=14.940000m/h.</desc>
<speed>4.150000</speed>
</trkpt>
<trkpt lat="55.943619" lon="26.522388">
<ele>131.029419</ele>
<time>2010-08-29T08:25:50Z</time>
<desc>lat.=55.943619, lon.=26.522388, Alt.=131.029419m. Speed=15.696000m/h.</desc>
<speed>4.360000</speed>
</trkpt>
<trkpt lat="55.943645" lon="26.522434">
<ele>131.463013</ele>
<time>2010-08-29T08:25:51Z</time>
<desc>lat.=55.943645, lon.=26.522434, Alt.=131.463013m. Speed=13.536000m/h.</desc>
<speed>3.760000</speed>
</trkpt>
<trkpt lat="55.943672" lon="26.522491">
<ele>131.795044</ele>
<time>2010-08-29T08:25:52Z</time>
<desc>lat.=55.943672, lon.=26.522491, Alt.=131.795044m. Speed=13.356000m/h.</desc>
<speed>3.710000</speed>
</trkpt>
<trkpt lat="55.943691" lon="26.522551">
<ele>132.271606</ele>
<time>2010-08-29T08:25:53Z</time>
<desc>lat.=55.943691, lon.=26.522551, Alt.=132.271606m. Speed=10.296000m/h.</desc>
<speed>2.860000</speed>
</trkpt>
<trkpt lat="55.943718" lon="26.522629">
<ele>132.345825</ele>
<time>2010-08-29T08:25:54Z</time>
<desc>lat.=55.943718, lon.=26.522629, Alt.=132.345825m. Speed=15.372000m/h.</desc>
<speed>4.270000</speed>
</trkpt>
<trkpt lat="55.943756" lon="26.522697">
<ele>132.361450</ele>
<time>2010-08-29T08:25:55Z</time>
<desc>lat.=55.943756, lon.=26.522697, Alt.=132.361450m. Speed=13.896000m/h.</desc>
<speed>3.860000</speed>
</trkpt>
<trkpt lat="55.943790" lon="26.522757">
<ele>132.150513</ele>
<time>2010-08-29T08:25:56Z</time>
<desc>lat.=55.943790, lon.=26.522757, Alt.=132.150513m. Speed=15.876000m/h.</desc>
<speed>4.410000</speed>
</trkpt>
<trkpt lat="55.943821" lon="26.522818">
<ele>132.408325</ele>
<time>2010-08-29T08:25:57Z</time>
<desc>lat.=55.943821, lon.=26.522818, Alt.=132.408325m. Speed=17.568001m/h.</desc>
<speed>4.880000</speed>
</trkpt>
<trkpt lat="55.943855" lon="26.522903">
<ele>131.892700</ele>
<time>2010-08-29T08:25:58Z</time>
<desc>lat.=55.943855, lon.=26.522903, Alt.=131.892700m. Speed=19.403999m/h.</desc>
<speed>5.390000</speed>
</trkpt>
<trkpt lat="55.943890" lon="26.522964">
<ele>132.166138</ele>
<time>2010-08-29T08:25:59Z</time>
<desc>lat.=55.943890, lon.=26.522964, Alt.=132.166138m. Speed=19.007999m/h.</desc>
<speed>5.280000</speed>
</trkpt>
<trkpt lat="55.943924" lon="26.523029">
<ele>132.599731</ele>
<time>2010-08-29T08:26:00Z</time>
<desc>lat.=55.943924, lon.=26.523029, Alt.=132.599731m. Speed=20.340000m/h.</desc>
<speed>5.650000</speed>
</trkpt>
<trkpt lat="55.943962" lon="26.523096">
<ele>133.529419</ele>
<time>2010-08-29T08:26:01Z</time>
<desc>lat.=55.943962, lon.=26.523096, Alt.=133.529419m. Speed=15.768000m/h.</desc>
<speed>4.380000</speed>
</trkpt>
<trkpt lat="55.944008" lon="26.523170">
<ele>133.923950</ele>
<time>2010-08-29T08:26:02Z</time>
<desc>lat.=55.944008, lon.=26.523170, Alt.=133.923950m. Speed=15.660000m/h.</desc>
<speed>4.350000</speed>
</trkpt>
<trkpt lat="55.944038" lon="26.523249">
<ele>134.033325</ele>
<time>2010-08-29T08:26:03Z</time>
<desc>lat.=55.944038, lon.=26.523249, Alt.=134.033325m. Speed=17.424000m/h.</desc>
<speed>4.840000</speed>
</trkpt>
<trkpt lat="55.944073" lon="26.523323">
<ele>134.123169</ele>
<time>2010-08-29T08:26:04Z</time>
<desc>lat.=55.944073, lon.=26.523323, Alt.=134.123169m. Speed=15.732000m/h.</desc>
<speed>4.370000</speed>
</trkpt>
<trkpt lat="55.944099" lon="26.523378">
<ele>134.232544</ele>
<time>2010-08-29T08:26:05Z</time>
<desc>lat.=55.944099, lon.=26.523378, Alt.=134.232544m. Speed=15.768000m/h.</desc>
<speed>4.380000</speed>
</trkpt>
<trkpt lat="55.944130" lon="26.523438">
<ele>134.115356</ele>
<time>2010-08-29T08:26:06Z</time>
<desc>lat.=55.944130, lon.=26.523438, Alt.=134.115356m. Speed=15.372000m/h.</desc>
<speed>4.270000</speed>
</trkpt>
<trkpt lat="55.944160" lon="26.523481">
<ele>134.603638</ele>
<time>2010-08-29T08:26:07Z</time>
<desc>lat.=55.944160, lon.=26.523481, Alt.=134.603638m. Speed=12.564000m/h.</desc>
<speed>3.490000</speed>
</trkpt>
<trkpt lat="55.944191" lon="26.523527">
<ele>134.955200</ele>
<time>2010-08-29T08:26:08Z</time>
<desc>lat.=55.944191, lon.=26.523527, Alt.=134.955200m. Speed=14.292000m/h.</desc>
<speed>3.970000</speed>
</trkpt>
<trkpt lat="55.944218" lon="26.523573">
<ele>135.349731</ele>
<time>2010-08-29T08:26:09Z</time>
<desc>lat.=55.944218, lon.=26.523573, Alt.=135.349731m. Speed=13.536000m/h.</desc>
<speed>3.760000</speed>
</trkpt>
<trkpt lat="55.944244" lon="26.523638">
<ele>135.482544</ele>
<time>2010-08-29T08:26:10Z</time>
<desc>lat.=55.944244, lon.=26.523638, Alt.=135.482544m. Speed=9.396000m/h.</desc>
<speed>2.610000</speed>
</trkpt>
<trkpt lat="55.944267" lon="26.523668">
<ele>135.986450</ele>
<time>2010-08-29T08:26:11Z</time>
<desc>lat.=55.944267, lon.=26.523668, Alt.=135.986450m. Speed=11.988000m/h.</desc>
<speed>3.330000</speed>
</trkpt>
<trkpt lat="55.944298" lon="26.523710">
<ele>136.713013</ele>
<time>2010-08-29T08:26:12Z</time>
<desc>lat.=55.944298, lon.=26.523710, Alt.=136.713013m. Speed=13.248000m/h.</desc>
<speed>3.680000</speed>
</trkpt>
<trkpt lat="55.944332" lon="26.523752">
<ele>137.115356</ele>
<time>2010-08-29T08:26:13Z</time>
<desc>lat.=55.944332, lon.=26.523752, Alt.=137.115356m. Speed=13.896000m/h.</desc>
<speed>3.860000</speed>
</trkpt>
<trkpt lat="55.944363" lon="26.523792">
<ele>137.763794</ele>
<time>2010-08-29T08:26:14Z</time>
<desc>lat.=55.944363, lon.=26.523792, Alt.=137.763794m. Speed=13.320000m/h.</desc>
<speed>3.700000</speed>
</trkpt>
<trkpt lat="55.944397" lon="26.523846">
<ele>138.017700</ele>
<time>2010-08-29T08:26:15Z</time>
<desc>lat.=55.944397, lon.=26.523846, Alt.=138.017700m. Speed=15.228000m/h.</desc>
<speed>4.230000</speed>
</trkpt>
<trkpt lat="55.944431" lon="26.523914">
<ele>134.220825</ele>
<time>2010-08-29T08:26:16Z</time>
<desc>lat.=55.944431, lon.=26.523914, Alt.=134.220825m. Speed=16.559999m/h.</desc>
<speed>4.600000</speed>
</trkpt>
<trkpt lat="55.944469" lon="26.523993">
<ele>132.920044</ele>
<time>2010-08-29T08:26:17Z</time>
<desc>lat.=55.944469, lon.=26.523993, Alt.=132.920044m. Speed=15.696000m/h.</desc>
<speed>4.360000</speed>
</trkpt>
<trkpt lat="55.944500" lon="26.524042">
<ele>132.447388</ele>
<time>2010-08-29T08:26:18Z</time>
<desc>lat.=55.944500, lon.=26.524042, Alt.=132.447388m. Speed=15.372000m/h.</desc>
<speed>4.270000</speed>
</trkpt>
<trkpt lat="55.944538" lon="26.524092">
<ele>133.252075</ele>
<time>2010-08-29T08:26:19Z</time>
<desc>lat.=55.944538, lon.=26.524092, Alt.=133.252075m. Speed=14.040000m/h.</desc>
<speed>3.900000</speed>
</trkpt>
<trkpt lat="55.944572" lon="26.524132">
<ele>134.060669</ele>
<time>2010-08-29T08:26:20Z</time>
<desc>lat.=55.944572, lon.=26.524132, Alt.=134.060669m. Speed=14.184000m/h.</desc>
<speed>3.940000</speed>
</trkpt>
<trkpt lat="55.944603" lon="26.524168">
<ele>134.623169</ele>
<time>2010-08-29T08:26:21Z</time>
<desc>lat.=55.944603, lon.=26.524168, Alt.=134.623169m. Speed=13.176000m/h.</desc>
<speed>3.660000</speed>
</trkpt>
<trkpt lat="55.944630" lon="26.524210">
<ele>134.697388</ele>
<time>2010-08-29T08:26:22Z</time>
<desc>lat.=55.944630, lon.=26.524210, Alt.=134.697388m. Speed=12.312000m/h.</desc>
<speed>3.420000</speed>
</trkpt>
<trkpt lat="55.944656" lon="26.524240">
<ele>133.955200</ele>
<time>2010-08-29T08:26:23Z</time>
<desc>lat.=55.944656, lon.=26.524240, Alt.=133.955200m. Speed=14.868000m/h.</desc>
<speed>4.130000</speed>
</trkpt>
<trkpt lat="55.944687" lon="26.524275">
<ele>134.353638</ele>
<time>2010-08-29T08:26:24Z</time>
<desc>lat.=55.944687, lon.=26.524275, Alt.=134.353638m. Speed=12.816000m/h.</desc>
<speed>3.560000</speed>
</trkpt>
<trkpt lat="55.944721" lon="26.524321">
<ele>134.966919</ele>
<time>2010-08-29T08:26:25Z</time>
<desc>lat.=55.944721, lon.=26.524321, Alt.=134.966919m. Speed=13.680000m/h.</desc>
<speed>3.800000</speed>
</trkpt>
<trkpt lat="55.944744" lon="26.524345">
<ele>135.361450</ele>
<time>2010-08-29T08:26:26Z</time>
<desc>lat.=55.944744, lon.=26.524345, Alt.=135.361450m. Speed=11.376000m/h.</desc>
<speed>3.160000</speed>
</trkpt>
<trkpt lat="55.944771" lon="26.524376">
<ele>135.525513</ele>
<time>2010-08-29T08:26:27Z</time>
<desc>lat.=55.944771, lon.=26.524376, Alt.=135.525513m. Speed=11.412000m/h.</desc>
<speed>3.170000</speed>
</trkpt>
<trkpt lat="55.944798" lon="26.524406">
<ele>135.685669</ele>
<time>2010-08-29T08:26:28Z</time>
<desc>lat.=55.944798, lon.=26.524406, Alt.=135.685669m. Speed=14.760000m/h.</desc>
<speed>4.100000</speed>
</trkpt>
<trkpt lat="55.944836" lon="26.524437">
<ele>135.627075</ele>
<time>2010-08-29T08:26:29Z</time>
<desc>lat.=55.944836, lon.=26.524437, Alt.=135.627075m. Speed=14.472000m/h.</desc>
<speed>4.020000</speed>
</trkpt>
<trkpt lat="55.944870" lon="26.524475">
<ele>134.490356</ele>
<time>2010-08-29T08:26:30Z</time>
<desc>lat.=55.944870, lon.=26.524475, Alt.=134.490356m. Speed=14.076000m/h.</desc>
<speed>3.910000</speed>
</trkpt>
<trkpt lat="55.944901" lon="26.524509">
<ele>133.806763</ele>
<time>2010-08-29T08:26:31Z</time>
<desc>lat.=55.944901, lon.=26.524509, Alt.=133.806763m. Speed=12.960000m/h.</desc>
<speed>3.600000</speed>
</trkpt>
<trkpt lat="55.944942" lon="26.524559">
<ele>133.361450</ele>
<time>2010-08-29T08:26:32Z</time>
<desc>lat.=55.944942, lon.=26.524559, Alt.=133.361450m. Speed=14.040000m/h.</desc>
<speed>3.900000</speed>
</trkpt>
<trkpt lat="55.944988" lon="26.524605">
<ele>134.013794</ele>
<time>2010-08-29T08:26:33Z</time>
<desc>lat.=55.944988, lon.=26.524605, Alt.=134.013794m. Speed=15.408000m/h.</desc>
<speed>4.280000</speed>
</trkpt>
<trkpt lat="55.945030" lon="26.524660">
<ele>132.615356</ele>
<time>2010-08-29T08:26:34Z</time>
<desc>lat.=55.945030, lon.=26.524660, Alt.=132.615356m. Speed=13.248000m/h.</desc>
<speed>3.680000</speed>
</trkpt>
<trkpt lat="55.945061" lon="26.524704">
<ele>132.584106</ele>
<time>2010-08-29T08:26:35Z</time>
<desc>lat.=55.945061, lon.=26.524704, Alt.=132.584106m. Speed=13.968000m/h.</desc>
<speed>3.880000</speed>
</trkpt>
<trkpt lat="55.945099" lon="26.524752">
<ele>133.123169</ele>
<time>2010-08-29T08:26:36Z</time>
<desc>lat.=55.945099, lon.=26.524752, Alt.=133.123169m. Speed=14.256000m/h.</desc>
<speed>3.960000</speed>
</trkpt>
<trkpt lat="55.945129" lon="26.524801">
<ele>131.048950</ele>
<time>2010-08-29T08:26:37Z</time>
<desc>lat.=55.945129, lon.=26.524801, Alt.=131.048950m. Speed=14.400000m/h.</desc>
<speed>4.000000</speed>
</trkpt>
<trkpt lat="55.945168" lon="26.524866">
<ele>131.912231</ele>
<time>2010-08-29T08:26:38Z</time>
<desc>lat.=55.945168, lon.=26.524866, Alt.=131.912231m. Speed=15.228000m/h.</desc>
<speed>4.230000</speed>
</trkpt>
<trkpt lat="55.945206" lon="26.524921">
<ele>132.197388</ele>
<time>2010-08-29T08:26:39Z</time>
<desc>lat.=55.945206, lon.=26.524921, Alt.=132.197388m. Speed=15.408000m/h.</desc>
<speed>4.280000</speed>
</trkpt>
<trkpt lat="55.945248" lon="26.524977">
<ele>133.916138</ele>
<time>2010-08-29T08:26:40Z</time>
<desc>lat.=55.945248, lon.=26.524977, Alt.=133.916138m. Speed=13.140000m/h.</desc>
<speed>3.650000</speed>
</trkpt>
<trkpt lat="55.945282" lon="26.525009">
<ele>134.947388</ele>
<time>2010-08-29T08:26:41Z</time>
<desc>lat.=55.945282, lon.=26.525009, Alt.=134.947388m. Speed=12.492000m/h.</desc>
<speed>3.470000</speed>
</trkpt>
<trkpt lat="55.945316" lon="26.525049">
<ele>136.623169</ele>
<time>2010-08-29T08:26:42Z</time>
<desc>lat.=55.945316, lon.=26.525049, Alt.=136.623169m. Speed=14.580000m/h.</desc>
<speed>4.050000</speed>
</trkpt>
<trkpt lat="55.945343" lon="26.525099">
<ele>137.115356</ele>
<time>2010-08-29T08:26:43Z</time>
<desc>lat.=55.945343, lon.=26.525099, Alt.=137.115356m. Speed=12.888000m/h.</desc>
<speed>3.580000</speed>
</trkpt>
<trkpt lat="55.945374" lon="26.525129">
<ele>137.599731</ele>
<time>2010-08-29T08:26:44Z</time>
<desc>lat.=55.945374, lon.=26.525129, Alt.=137.599731m. Speed=12.420000m/h.</desc>
<speed>3.450000</speed>
</trkpt>
<trkpt lat="55.945400" lon="26.525169">
<ele>135.814575</ele>
<time>2010-08-29T08:26:45Z</time>
<desc>lat.=55.945400, lon.=26.525169, Alt.=135.814575m. Speed=15.876000m/h.</desc>
<speed>4.410000</speed>
</trkpt>
<trkpt lat="55.945450" lon="26.525217">
<ele>136.705200</ele>
<time>2010-08-29T08:26:46Z</time>
<desc>lat.=55.945450, lon.=26.525217, Alt.=136.705200m. Speed=16.164000m/h.</desc>
<speed>4.490000</speed>
</trkpt>
<trkpt lat="55.945484" lon="26.525251">
<ele>136.970825</ele>
<time>2010-08-29T08:26:47Z</time>
<desc>lat.=55.945484, lon.=26.525251, Alt.=136.970825m. Speed=12.708000m/h.</desc>
<speed>3.530000</speed>
</trkpt>
<trkpt lat="55.945515" lon="26.525284">
<ele>136.619263</ele>
<time>2010-08-29T08:26:48Z</time>
<desc>lat.=55.945515, lon.=26.525284, Alt.=136.619263m. Speed=14.508000m/h.</desc>
<speed>4.030000</speed>
</trkpt>
<trkpt lat="55.945549" lon="26.525314">
<ele>135.927856</ele>
<time>2010-08-29T08:26:49Z</time>
<desc>lat.=55.945549, lon.=26.525314, Alt.=135.927856m. Speed=14.076000m/h.</desc>
<speed>3.910000</speed>
</trkpt>
<trkpt lat="55.945602" lon="26.525356">
<ele>134.900513</ele>
<time>2010-08-29T08:26:50Z</time>
<desc>lat.=55.945602, lon.=26.525356, Alt.=134.900513m. Speed=17.351999m/h.</desc>
<speed>4.820000</speed>
</trkpt>
<trkpt lat="55.945656" lon="26.525425">
<ele>136.732544</ele>
<time>2010-08-29T08:26:51Z</time>
<desc>lat.=55.945656, lon.=26.525425, Alt.=136.732544m. Speed=17.820000m/h.</desc>
<speed>4.950000</speed>
</trkpt>
<trkpt lat="55.945690" lon="26.525467">
<ele>136.177856</ele>
<time>2010-08-29T08:26:52Z</time>
<desc>lat.=55.945690, lon.=26.525467, Alt.=136.177856m. Speed=15.588000m/h.</desc>
<speed>4.330000</speed>
</trkpt>
<trkpt lat="55.945713" lon="26.525501">
<ele>134.716919</ele>
<time>2010-08-29T08:26:53Z</time>
<desc>lat.=55.945713, lon.=26.525501, Alt.=134.716919m. Speed=12.456000m/h.</desc>
<speed>3.460000</speed>
</trkpt>
<trkpt lat="55.945717" lon="26.525534">
<ele>131.818481</ele>
<time>2010-08-29T08:26:54Z</time>
<desc>lat.=55.945717, lon.=26.525534, Alt.=131.818481m. Speed=11.592000m/h.</desc>
<speed>3.220000</speed>
</trkpt>
<trkpt lat="55.945732" lon="26.525570">
<ele>132.146606</ele>
<time>2010-08-29T08:26:55Z</time>
<desc>lat.=55.945732, lon.=26.525570, Alt.=132.146606m. Speed=11.700000m/h.</desc>
<speed>3.250000</speed>
</trkpt>
<trkpt lat="55.945770" lon="26.525602">
<ele>130.802856</ele>
<time>2010-08-29T08:26:56Z</time>
<desc>lat.=55.945770, lon.=26.525602, Alt.=130.802856m. Speed=11.412000m/h.</desc>
<speed>3.170000</speed>
</trkpt>
<trkpt lat="55.945805" lon="26.525635">
<ele>130.873169</ele>
<time>2010-08-29T08:26:57Z</time>
<desc>lat.=55.945805, lon.=26.525635, Alt.=130.873169m. Speed=12.924000m/h.</desc>
<speed>3.590000</speed>
</trkpt>
<trkpt lat="55.945839" lon="26.525665">
<ele>129.623169</ele>
<time>2010-08-29T08:26:58Z</time>
<desc>lat.=55.945839, lon.=26.525665, Alt.=129.623169m. Speed=12.816000m/h.</desc>
<speed>3.560000</speed>
</trkpt>
<trkpt lat="55.945869" lon="26.525686">
<ele>128.404419</ele>
<time>2010-08-29T08:26:59Z</time>
<desc>lat.=55.945869, lon.=26.525686, Alt.=128.404419m. Speed=11.592000m/h.</desc>
<speed>3.220000</speed>
</trkpt>
<trkpt lat="55.945892" lon="26.525702">
<ele>128.138794</ele>
<time>2010-08-29T08:27:00Z</time>
<desc>lat.=55.945892, lon.=26.525702, Alt.=128.138794m. Speed=9.684000m/h.</desc>
<speed>2.690000</speed>
</trkpt>
<trkpt lat="55.945927" lon="26.525724">
<ele>128.220825</ele>
<time>2010-08-29T08:27:01Z</time>
<desc>lat.=55.945927, lon.=26.525724, Alt.=128.220825m. Speed=12.456000m/h.</desc>
<speed>3.460000</speed>
</trkpt>
<trkpt lat="55.945961" lon="26.525747">
<ele>128.248169</ele>
<time>2010-08-29T08:27:02Z</time>
<desc>lat.=55.945961, lon.=26.525747, Alt.=128.248169m. Speed=12.744000m/h.</desc>
<speed>3.540000</speed>
</trkpt>
<trkpt lat="55.946011" lon="26.525789">
<ele>129.994263</ele>
<time>2010-08-29T08:27:03Z</time>
<desc>lat.=55.946011, lon.=26.525789, Alt.=129.994263m. Speed=14.256000m/h.</desc>
<speed>3.960000</speed>
</trkpt>
<trkpt lat="55.946053" lon="26.525835">
<ele>129.713013</ele>
<time>2010-08-29T08:27:04Z</time>
<desc>lat.=55.946053, lon.=26.525835, Alt.=129.713013m. Speed=15.156000m/h.</desc>
<speed>4.210000</speed>
</trkpt>
<trkpt lat="55.946087" lon="26.525866">
<ele>129.955200</ele>
<time>2010-08-29T08:27:05Z</time>
<desc>lat.=55.946087, lon.=26.525866, Alt.=129.955200m. Speed=13.248000m/h.</desc>
<speed>3.680000</speed>
</trkpt>
<trkpt lat="55.946117" lon="26.525896">
<ele>130.213013</ele>
<time>2010-08-29T08:27:06Z</time>
<desc>lat.=55.946117, lon.=26.525896, Alt.=130.213013m. Speed=13.320000m/h.</desc>
<speed>3.700000</speed>
</trkpt>
<trkpt lat="55.946144" lon="26.525930">
<ele>129.869263</ele>
<time>2010-08-29T08:27:07Z</time>
<desc>lat.=55.946144, lon.=26.525930, Alt.=129.869263m. Speed=12.672000m/h.</desc>
<speed>3.520000</speed>
</trkpt>
<trkpt lat="55.946167" lon="26.525963">
<ele>128.755981</ele>
<time>2010-08-29T08:27:08Z</time>
<desc>lat.=55.946167, lon.=26.525963, Alt.=128.755981m. Speed=15.192000m/h.</desc>
<speed>4.220000</speed>
</trkpt>
<trkpt lat="55.946198" lon="26.525997">
<ele>128.123169</ele>
<time>2010-08-29T08:27:09Z</time>
<desc>lat.=55.946198, lon.=26.525997, Alt.=128.123169m. Speed=14.040000m/h.</desc>
<speed>3.900000</speed>
</trkpt>
<trkpt lat="55.946239" lon="26.526037">
<ele>127.026428</ele>
<time>2010-08-29T08:27:10Z</time>
<desc>lat.=55.946239, lon.=26.526037, Alt.=127.026428m. Speed=16.452000m/h.</desc>
<speed>4.570000</speed>
</trkpt>
<trkpt lat="55.946285" lon="26.526085">
<ele>126.489319</ele>
<time>2010-08-29T08:27:11Z</time>
<desc>lat.=55.946285, lon.=26.526085, Alt.=126.489319m. Speed=15.660000m/h.</desc>
<speed>4.350000</speed>
</trkpt>
<trkpt lat="55.946327" lon="26.526121">
<ele>125.288147</ele>
<time>2010-08-29T08:27:12Z</time>
<desc>lat.=55.946327, lon.=26.526121, Alt.=125.288147m. Speed=15.048000m/h.</desc>
<speed>4.180000</speed>
</trkpt>
<trkpt lat="55.946365" lon="26.526171">
<ele>124.731506</ele>
<time>2010-08-29T08:27:13Z</time>
<desc>lat.=55.946365, lon.=26.526171, Alt.=124.731506m. Speed=16.667999m/h.</desc>
<speed>4.630000</speed>
</trkpt>
<trkpt lat="55.946404" lon="26.526217">
<ele>124.637756</ele>
<time>2010-08-29T08:27:14Z</time>
<desc>lat.=55.946404, lon.=26.526217, Alt.=124.637756m. Speed=17.208000m/h.</desc>
<speed>4.780000</speed>
</trkpt>
<trkpt lat="55.946449" lon="26.526264">
<ele>124.881897</ele>
<time>2010-08-29T08:27:15Z</time>
<desc>lat.=55.946449, lon.=26.526264, Alt.=124.881897m. Speed=17.280001m/h.</desc>
<speed>4.800000</speed>
</trkpt>
<trkpt lat="55.946491" lon="26.526318">
<ele>125.542053</ele>
<time>2010-08-29T08:27:16Z</time>
<desc>lat.=55.946491, lon.=26.526318, Alt.=125.542053m. Speed=18.431999m/h.</desc>
<speed>5.120000</speed>
</trkpt>
<trkpt lat="55.946541" lon="26.526371">
<ele>126.510803</ele>
<time>2010-08-29T08:27:17Z</time>
<desc>lat.=55.946541, lon.=26.526371, Alt.=126.510803m. Speed=19.440001m/h.</desc>
<speed>5.400000</speed>
</trkpt>
<trkpt lat="55.946583" lon="26.526421">
<ele>126.950256</ele>
<time>2010-08-29T08:27:18Z</time>
<desc>lat.=55.946583, lon.=26.526421, Alt.=126.950256m. Speed=18.900000m/h.</desc>
<speed>5.250000</speed>
</trkpt>
<trkpt lat="55.946629" lon="26.526470">
<ele>126.706116</ele>
<time>2010-08-29T08:27:19Z</time>
<desc>lat.=55.946629, lon.=26.526470, Alt.=126.706116m. Speed=18.540001m/h.</desc>
<speed>5.150000</speed>
</trkpt>
<trkpt lat="55.946667" lon="26.526522">
<ele>126.385803</ele>
<time>2010-08-29T08:27:20Z</time>
<desc>lat.=55.946667, lon.=26.526522, Alt.=126.385803m. Speed=18.035999m/h.</desc>
<speed>5.010000</speed>
</trkpt>
<trkpt lat="55.946705" lon="26.526567">
<ele>125.905334</ele>
<time>2010-08-29T08:27:21Z</time>
<desc>lat.=55.946705, lon.=26.526567, Alt.=125.905334m. Speed=17.784000m/h.</desc>
<speed>4.940000</speed>
</trkpt>
<trkpt lat="55.946743" lon="26.526611">
<ele>125.536194</ele>
<time>2010-08-29T08:27:22Z</time>
<desc>lat.=55.946743, lon.=26.526611, Alt.=125.536194m. Speed=17.856001m/h.</desc>
<speed>4.960000</speed>
</trkpt>
<trkpt lat="55.946785" lon="26.526661">
<ele>125.717834</ele>
<time>2010-08-29T08:27:23Z</time>
<desc>lat.=55.946785, lon.=26.526661, Alt.=125.717834m. Speed=16.775999m/h.</desc>
<speed>4.660000</speed>
</trkpt>
<trkpt lat="55.946823" lon="26.526711">
<ele>126.157288</ele>
<time>2010-08-29T08:27:24Z</time>
<desc>lat.=55.946823, lon.=26.526711, Alt.=126.157288m. Speed=15.912000m/h.</desc>
<speed>4.420000</speed>
</trkpt>
<trkpt lat="55.946861" lon="26.526762">
<ele>125.801819</ele>
<time>2010-08-29T08:27:25Z</time>
<desc>lat.=55.946861, lon.=26.526762, Alt.=125.801819m. Speed=17.424000m/h.</desc>
<speed>4.840000</speed>
</trkpt>
<trkpt lat="55.946899" lon="26.526804">
<ele>125.823303</ele>
<time>2010-08-29T08:27:26Z</time>
<desc>lat.=55.946899, lon.=26.526804, Alt.=125.823303m. Speed=17.856001m/h.</desc>
<speed>4.960000</speed>
</trkpt>
<trkpt lat="55.946934" lon="26.526848">
<ele>125.372131</ele>
<time>2010-08-29T08:27:27Z</time>
<desc>lat.=55.946934, lon.=26.526848, Alt.=125.372131m. Speed=15.336000m/h.</desc>
<speed>4.260000</speed>
</trkpt>
<trkpt lat="55.946964" lon="26.526897">
<ele>123.715881</ele>
<time>2010-08-29T08:27:28Z</time>
<desc>lat.=55.946964, lon.=26.526897, Alt.=123.715881m. Speed=14.688000m/h.</desc>
<speed>4.080000</speed>
</trkpt>
<trkpt lat="55.946999" lon="26.526947">
<ele>121.092834</ele>
<time>2010-08-29T08:27:29Z</time>
<desc>lat.=55.946999, lon.=26.526947, Alt.=121.092834m. Speed=15.696000m/h.</desc>
<speed>4.360000</speed>
</trkpt>
<trkpt lat="55.947025" lon="26.527000">
<ele>119.795959</ele>
<time>2010-08-29T08:27:30Z</time>
<desc>lat.=55.947025, lon.=26.527000, Alt.=119.795959m. Speed=14.292000m/h.</desc>
<speed>3.970000</speed>
</trkpt>
<trkpt lat="55.947056" lon="26.527040">
<ele>118.708069</ele>
<time>2010-08-29T08:27:31Z</time>
<desc>lat.=55.947056, lon.=26.527040, Alt.=118.708069m. Speed=13.284000m/h.</desc>
<speed>3.690000</speed>
</trkpt>
<trkpt lat="55.947083" lon="26.527086">
<ele>117.514709</ele>
<time>2010-08-29T08:27:32Z</time>
<desc>lat.=55.947083, lon.=26.527086, Alt.=117.514709m. Speed=13.464000m/h.</desc>
<speed>3.740000</speed>
</trkpt>
<trkpt lat="55.947113" lon="26.527124">
<ele>117.096741</ele>
<time>2010-08-29T08:27:33Z</time>
<desc>lat.=55.947113, lon.=26.527124, Alt.=117.096741m. Speed=12.384000m/h.</desc>
<speed>3.440000</speed>
</trkpt>
<trkpt lat="55.947147" lon="26.527159">
<ele>117.026428</ele>
<time>2010-08-29T08:27:34Z</time>
<desc>lat.=55.947147, lon.=26.527159, Alt.=117.026428m. Speed=12.492000m/h.</desc>
<speed>3.470000</speed>
</trkpt>
<trkpt lat="55.947186" lon="26.527206">
<ele>116.124084</ele>
<time>2010-08-29T08:27:35Z</time>
<desc>lat.=55.947186, lon.=26.527206, Alt.=116.124084m. Speed=15.624000m/h.</desc>
<speed>4.340000</speed>
</trkpt>
<trkpt lat="55.947224" lon="26.527252">
<ele>115.403381</ele>
<time>2010-08-29T08:27:36Z</time>
<desc>lat.=55.947224, lon.=26.527252, Alt.=115.403381m. Speed=15.156000m/h.</desc>
<speed>4.210000</speed>
</trkpt>
<trkpt lat="55.947262" lon="26.527288">
<ele>115.409241</ele>
<time>2010-08-29T08:27:37Z</time>
<desc>lat.=55.947262, lon.=26.527288, Alt.=115.409241m. Speed=11.880000m/h.</desc>
<speed>3.300000</speed>
</trkpt>
<trkpt lat="55.947308" lon="26.527323">
<ele>114.909241</ele>
<time>2010-08-29T08:27:38Z</time>
<desc>lat.=55.947308, lon.=26.527323, Alt.=114.909241m. Speed=15.156000m/h.</desc>
<speed>4.210000</speed>
</trkpt>
<trkpt lat="55.947353" lon="26.527384">
<ele>113.122131</ele>
<time>2010-08-29T08:27:39Z</time>
<desc>lat.=55.947353, lon.=26.527384, Alt.=113.122131m. Speed=19.764000m/h.</desc>
<speed>5.490000</speed>
</trkpt>
<trkpt lat="55.947411" lon="26.527430">
<ele>112.854553</ele>
<time>2010-08-29T08:27:40Z</time>
<desc>lat.=55.947411, lon.=26.527430, Alt.=112.854553m. Speed=20.124001m/h.</desc>
<speed>5.590000</speed>
</trkpt>
<trkpt lat="55.947464" lon="26.527470">
<ele>111.758850</ele>
<time>2010-08-29T08:27:41Z</time>
<desc>lat.=55.947464, lon.=26.527470, Alt.=111.758850m. Speed=18.864000m/h.</desc>
<speed>5.240000</speed>
</trkpt>
<trkpt lat="55.947510" lon="26.527506">
<ele>111.735413</ele>
<time>2010-08-29T08:27:42Z</time>
<desc>lat.=55.947510, lon.=26.527506, Alt.=111.735413m. Speed=17.532000m/h.</desc>
<speed>4.870000</speed>
</trkpt>
<trkpt lat="55.947563" lon="26.527544">
<ele>111.514709</ele>
<time>2010-08-29T08:27:43Z</time>
<desc>lat.=55.947563, lon.=26.527544, Alt.=111.514709m. Speed=18.072001m/h.</desc>
<speed>5.020000</speed>
</trkpt>
<trkpt lat="55.947617" lon="26.527592">
<ele>112.083069</ele>
<time>2010-08-29T08:27:44Z</time>
<desc>lat.=55.947617, lon.=26.527592, Alt.=112.083069m. Speed=18.288000m/h.</desc>
<speed>5.080000</speed>
</trkpt>
<trkpt lat="55.947666" lon="26.527634">
<ele>112.301819</ele>
<time>2010-08-29T08:27:45Z</time>
<desc>lat.=55.947666, lon.=26.527634, Alt.=112.301819m. Speed=15.912000m/h.</desc>
<speed>4.420000</speed>
</trkpt>
<trkpt lat="55.947720" lon="26.527681">
<ele>112.778381</ele>
<time>2010-08-29T08:27:46Z</time>
<desc>lat.=55.947720, lon.=26.527681, Alt.=112.778381m. Speed=20.268000m/h.</desc>
<speed>5.630000</speed>
</trkpt>
<trkpt lat="55.947762" lon="26.527727">
<ele>111.610413</ele>
<time>2010-08-29T08:27:47Z</time>
<desc>lat.=55.947762, lon.=26.527727, Alt.=111.610413m. Speed=17.568001m/h.</desc>
<speed>4.880000</speed>
</trkpt>
<trkpt lat="55.947807" lon="26.527769">
<ele>112.797913</ele>
<time>2010-08-29T08:27:48Z</time>
<desc>lat.=55.947807, lon.=26.527769, Alt.=112.797913m. Speed=16.740000m/h.</desc>
<speed>4.650000</speed>
</trkpt>
<trkpt lat="55.947853" lon="26.527813">
<ele>113.008850</ele>
<time>2010-08-29T08:27:49Z</time>
<desc>lat.=55.947853, lon.=26.527813, Alt.=113.008850m. Speed=17.676001m/h.</desc>
<speed>4.910000</speed>
</trkpt>
<trkpt lat="55.947891" lon="26.527857">
<ele>111.608459</ele>
<time>2010-08-29T08:27:50Z</time>
<desc>lat.=55.947891, lon.=26.527857, Alt.=111.608459m. Speed=12.564000m/h.</desc>
<speed>3.490000</speed>
</trkpt>
<trkpt lat="55.947914" lon="26.527893">
<ele>111.403381</ele>
<time>2010-08-29T08:27:51Z</time>
<desc>lat.=55.947914, lon.=26.527893, Alt.=111.403381m. Speed=15.840000m/h.</desc>
<speed>4.400000</speed>
</trkpt>
<trkpt lat="55.947960" lon="26.527925">
<ele>111.348694</ele>
<time>2010-08-29T08:27:52Z</time>
<desc>lat.=55.947960, lon.=26.527925, Alt.=111.348694m. Speed=18.756001m/h.</desc>
<speed>5.210000</speed>
</trkpt>
<trkpt lat="55.947994" lon="26.527964">
<ele>111.713928</ele>
<time>2010-08-29T08:27:53Z</time>
<desc>lat.=55.947994, lon.=26.527964, Alt.=111.713928m. Speed=14.220000m/h.</desc>
<speed>3.950000</speed>
</trkpt>
<trkpt lat="55.948025" lon="26.528004">
<ele>112.059631</ele>
<time>2010-08-29T08:27:54Z</time>
<desc>lat.=55.948025, lon.=26.528004, Alt.=112.059631m. Speed=13.392000m/h.</desc>
<speed>3.720000</speed>
</trkpt>
<trkpt lat="55.948074" lon="26.528053">
<ele>111.909241</ele>
<time>2010-08-29T08:27:55Z</time>
<desc>lat.=55.948074, lon.=26.528053, Alt.=111.909241m. Speed=20.483999m/h.</desc>
<speed>5.690000</speed>
</trkpt>
<trkpt lat="55.948112" lon="26.528101">
<ele>111.854553</ele>
<time>2010-08-29T08:27:56Z</time>
<desc>lat.=55.948112, lon.=26.528101, Alt.=111.854553m. Speed=17.028000m/h.</desc>
<speed>4.730000</speed>
</trkpt>
<trkpt lat="55.948151" lon="26.528149">
<ele>112.245178</ele>
<time>2010-08-29T08:27:57Z</time>
<desc>lat.=55.948151, lon.=26.528149, Alt.=112.245178m. Speed=15.336000m/h.</desc>
<speed>4.260000</speed>
</trkpt>
<trkpt lat="55.948204" lon="26.528214">
<ele>115.184631</ele>
<time>2010-08-29T08:27:58Z</time>
<desc>lat.=55.948204, lon.=26.528214, Alt.=115.184631m. Speed=16.812000m/h.</desc>
<speed>4.670000</speed>
</trkpt>
<trkpt lat="55.948254" lon="26.528252">
<ele>115.883850</ele>
<time>2010-08-29T08:27:59Z</time>
<desc>lat.=55.948254, lon.=26.528252, Alt.=115.883850m. Speed=15.012000m/h.</desc>
<speed>4.170000</speed>
</trkpt>
<trkpt lat="55.948288" lon="26.528282">
<ele>116.198303</ele>
<time>2010-08-29T08:28:00Z</time>
<desc>lat.=55.948288, lon.=26.528282, Alt.=116.198303m. Speed=12.852000m/h.</desc>
<speed>3.570000</speed>
</trkpt>
<trkpt lat="55.948330" lon="26.528315">
<ele>116.024475</ele>
<time>2010-08-29T08:28:01Z</time>
<desc>lat.=55.948330, lon.=26.528315, Alt.=116.024475m. Speed=12.168000m/h.</desc>
<speed>3.380000</speed>
</trkpt>
<trkpt lat="55.948364" lon="26.528349">
<ele>115.643616</ele>
<time>2010-08-29T08:28:02Z</time>
<desc>lat.=55.948364, lon.=26.528349, Alt.=115.643616m. Speed=12.276000m/h.</desc>
<speed>3.410000</speed>
</trkpt>
<trkpt lat="55.948399" lon="26.528395">
<ele>116.303772</ele>
<time>2010-08-29T08:28:03Z</time>
<desc>lat.=55.948399, lon.=26.528395, Alt.=116.303772m. Speed=15.660000m/h.</desc>
<speed>4.350000</speed>
</trkpt>
<trkpt lat="55.948441" lon="26.528444">
<ele>116.364319</ele>
<time>2010-08-29T08:28:04Z</time>
<desc>lat.=55.948441, lon.=26.528444, Alt.=116.364319m. Speed=17.063999m/h.</desc>
<speed>4.740000</speed>
</trkpt>
<trkpt lat="55.948483" lon="26.528494">
<ele>116.075256</ele>
<time>2010-08-29T08:28:05Z</time>
<desc>lat.=55.948483, lon.=26.528494, Alt.=116.075256m. Speed=17.136000m/h.</desc>
<speed>4.760000</speed>
</trkpt>
<trkpt lat="55.948532" lon="26.528584">
<ele>115.311584</ele>
<time>2010-08-29T08:28:06Z</time>
<desc>lat.=55.948532, lon.=26.528584, Alt.=115.311584m. Speed=17.892000m/h.</desc>
<speed>4.970000</speed>
</trkpt>
<trkpt lat="55.948578" lon="26.528646">
<ele>115.321350</ele>
<time>2010-08-29T08:28:07Z</time>
<desc>lat.=55.948578, lon.=26.528646, Alt.=115.321350m. Speed=20.952000m/h.</desc>
<speed>5.820000</speed>
</trkpt>
<trkpt lat="55.948624" lon="26.528715">
<ele>114.915100</ele>
<time>2010-08-29T08:28:08Z</time>
<desc>lat.=55.948624, lon.=26.528715, Alt.=114.915100m. Speed=20.736000m/h.</desc>
<speed>5.760000</speed>
</trkpt>
<trkpt lat="55.948662" lon="26.528786">
<ele>114.858459</ele>
<time>2010-08-29T08:28:09Z</time>
<desc>lat.=55.948662, lon.=26.528786, Alt.=114.858459m. Speed=19.944000m/h.</desc>
<speed>5.540000</speed>
</trkpt>
<trkpt lat="55.948700" lon="26.528849">
<ele>114.883850</ele>
<time>2010-08-29T08:28:10Z</time>
<desc>lat.=55.948700, lon.=26.528849, Alt.=114.883850m. Speed=20.016001m/h.</desc>
<speed>5.560000</speed>
</trkpt>
<trkpt lat="55.948738" lon="26.528917">
<ele>114.481506</ele>
<time>2010-08-29T08:28:11Z</time>
<desc>lat.=55.948738, lon.=26.528917, Alt.=114.481506m. Speed=19.620001m/h.</desc>
<speed>5.450000</speed>
</trkpt>
<trkpt lat="55.948784" lon="26.528992">
<ele>115.920959</ele>
<time>2010-08-29T08:28:12Z</time>
<desc>lat.=55.948784, lon.=26.528992, Alt.=115.920959m. Speed=19.440001m/h.</desc>
<speed>5.400000</speed>
</trkpt>
<trkpt lat="55.948814" lon="26.529062">
<ele>115.329163</ele>
<time>2010-08-29T08:28:13Z</time>
<desc>lat.=55.948814, lon.=26.529062, Alt.=115.329163m. Speed=20.052000m/h.</desc>
<speed>5.570000</speed>
</trkpt>
<trkpt lat="55.948845" lon="26.529135">
<ele>115.042053</ele>
<time>2010-08-29T08:28:14Z</time>
<desc>lat.=55.948845, lon.=26.529135, Alt.=115.042053m. Speed=19.044001m/h.</desc>
<speed>5.290000</speed>
</trkpt>
<trkpt lat="55.948875" lon="26.529203">
<ele>113.575256</ele>
<time>2010-08-29T08:28:15Z</time>
<desc>lat.=55.948875, lon.=26.529203, Alt.=113.575256m. Speed=18.576000m/h.</desc>
<speed>5.160000</speed>
</trkpt>
<trkpt lat="55.948898" lon="26.529272">
<ele>113.756897</ele>
<time>2010-08-29T08:28:16Z</time>
<desc>lat.=55.948898, lon.=26.529272, Alt.=113.756897m. Speed=17.639999m/h.</desc>
<speed>4.900000</speed>
</trkpt>
<trkpt lat="55.948910" lon="26.529345">
<ele>112.651428</ele>
<time>2010-08-29T08:28:17Z</time>
<desc>lat.=55.948910, lon.=26.529345, Alt.=112.651428m. Speed=17.388000m/h.</desc>
<speed>4.830000</speed>
</trkpt>
<trkpt lat="55.948971" lon="26.529490">
<ele>116.030334</ele>
<time>2010-08-29T08:28:18Z</time>
<desc>lat.=55.948971, lon.=26.529490, Alt.=116.030334m. Speed=16.884001m/h.</desc>
<speed>4.690000</speed>
</trkpt>
<trkpt lat="55.949009" lon="26.529585">
<ele>119.356506</ele>
<time>2010-08-29T08:28:19Z</time>
<desc>lat.=55.949009, lon.=26.529585, Alt.=119.356506m. Speed=17.208000m/h.</desc>
<speed>4.780000</speed>
</trkpt>
<trkpt lat="55.949047" lon="26.529667">
<ele>121.190491</ele>
<time>2010-08-29T08:28:20Z</time>
<desc>lat.=55.949047, lon.=26.529667, Alt.=121.190491m. Speed=17.063999m/h.</desc>
<speed>4.740000</speed>
</trkpt>
<trkpt lat="55.949070" lon="26.529749">
<ele>119.135803</ele>
<time>2010-08-29T08:28:21Z</time>
<desc>lat.=55.949070, lon.=26.529749, Alt.=119.135803m. Speed=16.955999m/h.</desc>
<speed>4.710000</speed>
</trkpt>
<trkpt lat="55.949097" lon="26.529819">
<ele>118.493225</ele>
<time>2010-08-29T08:28:22Z</time>
<desc>lat.=55.949097, lon.=26.529819, Alt.=118.493225m. Speed=16.667999m/h.</desc>
<speed>4.630000</speed>
</trkpt>
<trkpt lat="55.949120" lon="26.529898">
<ele>117.178772</ele>
<time>2010-08-29T08:28:23Z</time>
<desc>lat.=55.949120, lon.=26.529898, Alt.=117.178772m. Speed=16.559999m/h.</desc>
<speed>4.600000</speed>
</trkpt>
<trkpt lat="55.949146" lon="26.529972">
<ele>116.573303</ele>
<time>2010-08-29T08:28:24Z</time>
<desc>lat.=55.949146, lon.=26.529972, Alt.=116.573303m. Speed=16.236000m/h.</desc>
<speed>4.510000</speed>
</trkpt>
<trkpt lat="55.949173" lon="26.530054">
<ele>116.192444</ele>
<time>2010-08-29T08:28:25Z</time>
<desc>lat.=55.949173, lon.=26.530054, Alt.=116.192444m. Speed=17.172001m/h.</desc>
<speed>4.770000</speed>
</trkpt>
<trkpt lat="55.949196" lon="26.530119">
<ele>116.717834</ele>
<time>2010-08-29T08:28:26Z</time>
<desc>lat.=55.949196, lon.=26.530119, Alt.=116.717834m. Speed=15.444000m/h.</desc>
<speed>4.290000</speed>
</trkpt>
<trkpt lat="55.949219" lon="26.530176">
<ele>117.469788</ele>
<time>2010-08-29T08:28:27Z</time>
<desc>lat.=55.949219, lon.=26.530176, Alt.=117.469788m. Speed=14.760000m/h.</desc>
<speed>4.100000</speed>
</trkpt>
<trkpt lat="55.949242" lon="26.530247">
<ele>119.096741</ele>
<time>2010-08-29T08:28:28Z</time>
<desc>lat.=55.949242, lon.=26.530247, Alt.=119.096741m. Speed=16.200001m/h.</desc>
<speed>4.500000</speed>
</trkpt>
<trkpt lat="55.949272" lon="26.530323">
<ele>118.018616</ele>
<time>2010-08-29T08:28:29Z</time>
<desc>lat.=55.949272, lon.=26.530323, Alt.=118.018616m. Speed=16.955999m/h.</desc>
<speed>4.710000</speed>
</trkpt>
<trkpt lat="55.949295" lon="26.530390">
<ele>118.571350</ele>
<time>2010-08-29T08:28:30Z</time>
<desc>lat.=55.949295, lon.=26.530390, Alt.=118.571350m. Speed=17.604000m/h.</desc>
<speed>4.890000</speed>
</trkpt>
<trkpt lat="55.949326" lon="26.530460">
<ele>119.354553</ele>
<time>2010-08-29T08:28:31Z</time>
<desc>lat.=55.949326, lon.=26.530460, Alt.=119.354553m. Speed=18.648001m/h.</desc>
<speed>5.180000</speed>
</trkpt>
<trkpt lat="55.949348" lon="26.530527">
<ele>119.169006</ele>
<time>2010-08-29T08:28:32Z</time>
<desc>lat.=55.949348, lon.=26.530527, Alt.=119.169006m. Speed=17.243999m/h.</desc>
<speed>4.790000</speed>
</trkpt>
<trkpt lat="55.949364" lon="26.530600">
<ele>117.555725</ele>
<time>2010-08-29T08:28:33Z</time>
<desc>lat.=55.949364, lon.=26.530600, Alt.=117.555725m. Speed=18.323999m/h.</desc>
<speed>5.090000</speed>
</trkpt>
<trkpt lat="55.949390" lon="26.530668">
<ele>118.180725</ele>
<time>2010-08-29T08:28:34Z</time>
<desc>lat.=55.949390, lon.=26.530668, Alt.=118.180725m. Speed=19.080000m/h.</desc>
<speed>5.300000</speed>
</trkpt>
<trkpt lat="55.949417" lon="26.530737">
<ele>118.899475</ele>
<time>2010-08-29T08:28:35Z</time>
<desc>lat.=55.949417, lon.=26.530737, Alt.=118.899475m. Speed=19.368000m/h.</desc>
<speed>5.380000</speed>
</trkpt>
<trkpt lat="55.949448" lon="26.530800">
<ele>120.174866</ele>
<time>2010-08-29T08:28:36Z</time>
<desc>lat.=55.949448, lon.=26.530800, Alt.=120.174866m. Speed=17.747999m/h.</desc>
<speed>4.930000</speed>
</trkpt>
<trkpt lat="55.949478" lon="26.530853">
<ele>120.604553</ele>
<time>2010-08-29T08:28:37Z</time>
<desc>lat.=55.949478, lon.=26.530853, Alt.=120.604553m. Speed=16.920000m/h.</desc>
<speed>4.700000</speed>
</trkpt>
<trkpt lat="55.949505" lon="26.530903">
<ele>120.733459</ele>
<time>2010-08-29T08:28:38Z</time>
<desc>lat.=55.949505, lon.=26.530903, Alt.=120.733459m. Speed=14.724000m/h.</desc>
<speed>4.090000</speed>
</trkpt>
<trkpt lat="55.949524" lon="26.530951">
<ele>121.110413</ele>
<time>2010-08-29T08:28:39Z</time>
<desc>lat.=55.949524, lon.=26.530951, Alt.=121.110413m. Speed=13.320000m/h.</desc>
<speed>3.700000</speed>
</trkpt>
<trkpt lat="55.949535" lon="26.531000">
<ele>121.766663</ele>
<time>2010-08-29T08:28:40Z</time>
<desc>lat.=55.949535, lon.=26.531000, Alt.=121.766663m. Speed=11.736000m/h.</desc>
<speed>3.260000</speed>
</trkpt>
<trkpt lat="55.949532" lon="26.531061">
<ele>122.411194</ele>
<time>2010-08-29T08:28:41Z</time>
<desc>lat.=55.949532, lon.=26.531061, Alt.=122.411194m. Speed=13.572000m/h.</desc>
<speed>3.770000</speed>
</trkpt>
<trkpt lat="55.949516" lon="26.531116">
<ele>122.680725</ele>
<time>2010-08-29T08:28:42Z</time>
<desc>lat.=55.949516, lon.=26.531116, Alt.=122.680725m. Speed=12.888000m/h.</desc>
<speed>3.580000</speed>
</trkpt>
<trkpt lat="55.949509" lon="26.531197">
<ele>123.493225</ele>
<time>2010-08-29T08:28:43Z</time>
<desc>lat.=55.949509, lon.=26.531197, Alt.=123.493225m. Speed=13.752000m/h.</desc>
<speed>3.820000</speed>
</trkpt>
<trkpt lat="55.949486" lon="26.531277">
<ele>123.710022</ele>
<time>2010-08-29T08:28:44Z</time>
<desc>lat.=55.949486, lon.=26.531277, Alt.=123.710022m. Speed=12.132000m/h.</desc>
<speed>3.370000</speed>
</trkpt>
<trkpt lat="55.949455" lon="26.531342">
<ele>125.079163</ele>
<time>2010-08-29T08:28:45Z</time>
<desc>lat.=55.949455, lon.=26.531342, Alt.=125.079163m. Speed=12.924000m/h.</desc>
<speed>3.590000</speed>
</trkpt>
<trkpt lat="55.949429" lon="26.531397">
<ele>125.794006</ele>
<time>2010-08-29T08:28:46Z</time>
<desc>lat.=55.949429, lon.=26.531397, Alt.=125.794006m. Speed=11.736000m/h.</desc>
<speed>3.260000</speed>
</trkpt>
<trkpt lat="55.949409" lon="26.531456">
<ele>128.330200</ele>
<time>2010-08-29T08:28:47Z</time>
<desc>lat.=55.949409, lon.=26.531456, Alt.=128.330200m. Speed=9.072000m/h.</desc>
<speed>2.520000</speed>
</trkpt>
<trkpt lat="55.949390" lon="26.531498">
<ele>128.021606</ele>
<time>2010-08-29T08:28:48Z</time>
<desc>lat.=55.949390, lon.=26.531498, Alt.=128.021606m. Speed=8.208000m/h.</desc>
<speed>2.280000</speed>
</trkpt>
<trkpt lat="55.949368" lon="26.531553">
<ele>129.377075</ele>
<time>2010-08-29T08:28:49Z</time>
<desc>lat.=55.949368, lon.=26.531553, Alt.=129.377075m. Speed=10.764000m/h.</desc>
<speed>2.990000</speed>
</trkpt>
<trkpt lat="55.949356" lon="26.531624">
<ele>128.947388</ele>
<time>2010-08-29T08:28:50Z</time>
<desc>lat.=55.949356, lon.=26.531624, Alt.=128.947388m. Speed=10.584000m/h.</desc>
<speed>2.940000</speed>
</trkpt>
<trkpt lat="55.949333" lon="26.531675">
<ele>129.709106</ele>
<time>2010-08-29T08:28:51Z</time>
<desc>lat.=55.949333, lon.=26.531675, Alt.=129.709106m. Speed=10.008000m/h.</desc>
<speed>2.780000</speed>
</trkpt>
<trkpt lat="55.949322" lon="26.531715">
<ele>130.826294</ele>
<time>2010-08-29T08:28:52Z</time>
<desc>lat.=55.949322, lon.=26.531715, Alt.=130.826294m. Speed=8.784000m/h.</desc>
<speed>2.440000</speed>
</trkpt>
<trkpt lat="55.949306" lon="26.531759">
<ele>129.353638</ele>
<time>2010-08-29T08:28:53Z</time>
<desc>lat.=55.949306, lon.=26.531759, Alt.=129.353638m. Speed=6.984000m/h.</desc>
<speed>1.940000</speed>
</trkpt>
<trkpt lat="55.949299" lon="26.531797">
<ele>128.892700</ele>
<time>2010-08-29T08:28:54Z</time>
<desc>lat.=55.949299, lon.=26.531797, Alt.=128.892700m. Speed=6.228000m/h.</desc>
<speed>1.730000</speed>
</trkpt>
<trkpt lat="55.949276" lon="26.531839">
<ele>127.153381</ele>
<time>2010-08-29T08:28:55Z</time>
<desc>lat.=55.949276, lon.=26.531839, Alt.=127.153381m. Speed=8.748000m/h.</desc>
<speed>2.430000</speed>
</trkpt>
<trkpt lat="55.949257" lon="26.531870">
<ele>127.370178</ele>
<time>2010-08-29T08:28:56Z</time>
<desc>lat.=55.949257, lon.=26.531870, Alt.=127.370178m. Speed=9.144000m/h.</desc>
<speed>2.540000</speed>
</trkpt>
<trkpt lat="55.949238" lon="26.531895">
<ele>127.907288</ele>
<time>2010-08-29T08:28:57Z</time>
<desc>lat.=55.949238, lon.=26.531895, Alt.=127.907288m. Speed=5.904000m/h.</desc>
<speed>1.640000</speed>
</trkpt>
<trkpt lat="55.949230" lon="26.531923">
<ele>129.400513</ele>
<time>2010-08-29T08:28:58Z</time>
<desc>lat.=55.949230, lon.=26.531923, Alt.=129.400513m. Speed=6.012000m/h.</desc>
<speed>1.670000</speed>
</trkpt>
<trkpt lat="55.949215" lon="26.531963">
<ele>128.970825</ele>
<time>2010-08-29T08:28:59Z</time>
<desc>lat.=55.949215, lon.=26.531963, Alt.=128.970825m. Speed=8.424000m/h.</desc>
<speed>2.340000</speed>
</trkpt>
<trkpt lat="55.949200" lon="26.532003">
<ele>129.834106</ele>
<time>2010-08-29T08:29:00Z</time>
<desc>lat.=55.949200, lon.=26.532003, Alt.=129.834106m. Speed=9.072000m/h.</desc>
<speed>2.520000</speed>
</trkpt>
<trkpt lat="55.949181" lon="26.532030">
<ele>129.673950</ele>
<time>2010-08-29T08:29:01Z</time>
<desc>lat.=55.949181, lon.=26.532030, Alt.=129.673950m. Speed=6.696000m/h.</desc>
<speed>1.860000</speed>
</trkpt>
<trkpt lat="55.949165" lon="26.532055">
<ele>129.525513</ele>
<time>2010-08-29T08:29:02Z</time>
<desc>lat.=55.949165, lon.=26.532055, Alt.=129.525513m. Speed=5.652000m/h.</desc>
<speed>1.570000</speed>
</trkpt>
<trkpt lat="55.949154" lon="26.532089">
<ele>129.627075</ele>
<time>2010-08-29T08:29:03Z</time>
<desc>lat.=55.949154, lon.=26.532089, Alt.=129.627075m. Speed=7.092000m/h.</desc>
<speed>1.970000</speed>
</trkpt>
<trkpt lat="55.949154" lon="26.532150">
<ele>128.779419</ele>
<time>2010-08-29T08:29:04Z</time>
<desc>lat.=55.949154, lon.=26.532150, Alt.=128.779419m. Speed=6.912000m/h.</desc>
<speed>1.920000</speed>
</trkpt>
<trkpt lat="55.949127" lon="26.532223">
<ele>126.452209</ele>
<time>2010-08-29T08:29:05Z</time>
<desc>lat.=55.949127, lon.=26.532223, Alt.=126.452209m. Speed=8.460000m/h.</desc>
<speed>2.350000</speed>
</trkpt>
<trkpt lat="55.949104" lon="26.532276">
<ele>126.893616</ele>
<time>2010-08-29T08:29:06Z</time>
<desc>lat.=55.949104, lon.=26.532276, Alt.=126.893616m. Speed=8.100000m/h.</desc>
<speed>2.250000</speed>
</trkpt>
<trkpt lat="55.949093" lon="26.532301">
<ele>127.198303</ele>
<time>2010-08-29T08:29:07Z</time>
<desc>lat.=55.949093, lon.=26.532301, Alt.=127.198303m. Speed=3.132000m/h.</desc>
<speed>0.870000</speed>
</trkpt>
<trkpt lat="55.949081" lon="26.532324">
<ele>127.465881</ele>
<time>2010-08-29T08:29:08Z</time>
<desc>lat.=55.949081, lon.=26.532324, Alt.=127.465881m. Speed=6.120000m/h.</desc>
<speed>1.700000</speed>
</trkpt>
<trkpt lat="55.949059" lon="26.532360">
<ele>127.909241</ele>
<time>2010-08-29T08:29:09Z</time>
<desc>lat.=55.949059, lon.=26.532360, Alt.=127.909241m. Speed=5.076000m/h.</desc>
<speed>1.410000</speed>
</trkpt>
<trkpt lat="55.949047" lon="26.532394">
<ele>128.650513</ele>
<time>2010-08-29T08:29:10Z</time>
<desc>lat.=55.949047, lon.=26.532394, Alt.=128.650513m. Speed=5.724000m/h.</desc>
<speed>1.590000</speed>
</trkpt>
<trkpt lat="55.949032" lon="26.532425">
<ele>128.584106</ele>
<time>2010-08-29T08:29:11Z</time>
<desc>lat.=55.949032, lon.=26.532425, Alt.=128.584106m. Speed=5.940000m/h.</desc>
<speed>1.650000</speed>
</trkpt>
<trkpt lat="55.949024" lon="26.532442">
<ele>129.162231</ele>
<time>2010-08-29T08:29:12Z</time>
<desc>lat.=55.949024, lon.=26.532442, Alt.=129.162231m. Speed=1.620000m/h.</desc>
<speed>0.450000</speed>
</trkpt>
<trkpt lat="55.949020" lon="26.532446">
<ele>129.517700</ele>
<time>2010-08-29T08:29:13Z</time>
<desc>lat.=55.949020, lon.=26.532446, Alt.=129.517700m. Speed=0.972000m/h.</desc>
<speed>0.270000</speed>
</trkpt>
<trkpt lat="55.949013" lon="26.532450">
<ele>129.334106</ele>
<time>2010-08-29T08:29:14Z</time>
<desc>lat.=55.949013, lon.=26.532450, Alt.=129.334106m. Speed=0.684000m/h.</desc>
<speed>0.190000</speed>
</trkpt>
<trkpt lat="55.949005" lon="26.532461">
<ele>129.377075</ele>
<time>2010-08-29T08:29:15Z</time>
<desc>lat.=55.949005, lon.=26.532461, Alt.=129.377075m. Speed=1.800000m/h.</desc>
<speed>0.500000</speed>
</trkpt>
<trkpt lat="55.949001" lon="26.532465">
<ele>129.509888</ele>
<time>2010-08-29T08:29:16Z</time>
<desc>lat.=55.949001, lon.=26.532465, Alt.=129.509888m. Speed=2.520000m/h.</desc>
<speed>0.700000</speed>
</trkpt>
<trkpt lat="55.948994" lon="26.532473">
<ele>129.642700</ele>
<time>2010-08-29T08:29:17Z</time>
<desc>lat.=55.948994, lon.=26.532473, Alt.=129.642700m. Speed=3.312000m/h.</desc>
<speed>0.920000</speed>
</trkpt>
<trkpt lat="55.948990" lon="26.532484">
<ele>129.779419</ele>
<time>2010-08-29T08:29:18Z</time>
<desc>lat.=55.948990, lon.=26.532484, Alt.=129.779419m. Speed=4.140000m/h.</desc>
<speed>1.150000</speed>
</trkpt>
<trkpt lat="55.948971" lon="26.532513">
<ele>130.115356</ele>
<time>2010-08-29T08:29:19Z</time>
<desc>lat.=55.948971, lon.=26.532513, Alt.=130.115356m. Speed=4.752000m/h.</desc>
<speed>1.320000</speed>
</trkpt>
<trkpt lat="55.948952" lon="26.532539">
<ele>130.287231</ele>
<time>2010-08-29T08:29:20Z</time>
<desc>lat.=55.948952, lon.=26.532539, Alt.=130.287231m. Speed=5.112000m/h.</desc>
<speed>1.420000</speed>
</trkpt>
<trkpt lat="55.948940" lon="26.532566">
<ele>130.416138</ele>
<time>2010-08-29T08:29:21Z</time>
<desc>lat.=55.948940, lon.=26.532566, Alt.=130.416138m. Speed=5.076000m/h.</desc>
<speed>1.410000</speed>
</trkpt>
<trkpt lat="55.948933" lon="26.532591">
<ele>130.709106</ele>
<time>2010-08-29T08:29:22Z</time>
<desc>lat.=55.948933, lon.=26.532591, Alt.=130.709106m. Speed=4.644000m/h.</desc>
<speed>1.290000</speed>
</trkpt>
<trkpt lat="55.948921" lon="26.532618">
<ele>130.970825</ele>
<time>2010-08-29T08:29:23Z</time>
<desc>lat.=55.948921, lon.=26.532618, Alt.=130.970825m. Speed=4.536000m/h.</desc>
<speed>1.260000</speed>
</trkpt>
<trkpt lat="55.948910" lon="26.532658">
<ele>131.220825</ele>
<time>2010-08-29T08:29:24Z</time>
<desc>lat.=55.948910, lon.=26.532658, Alt.=131.220825m. Speed=5.004000m/h.</desc>
<speed>1.390000</speed>
</trkpt>
<trkpt lat="55.948883" lon="26.532690">
<ele>131.470825</ele>
<time>2010-08-29T08:29:25Z</time>
<desc>lat.=55.948883, lon.=26.532690, Alt.=131.470825m. Speed=5.544000m/h.</desc>
<speed>1.540000</speed>
</trkpt>
<trkpt lat="55.948868" lon="26.532726">
<ele>131.853638</ele>
<time>2010-08-29T08:29:26Z</time>
<desc>lat.=55.948868, lon.=26.532726, Alt.=131.853638m. Speed=4.248000m/h.</desc>
<speed>1.180000</speed>
</trkpt>
<trkpt lat="55.948853" lon="26.532743">
<ele>131.943481</ele>
<time>2010-08-29T08:29:27Z</time>
<desc>lat.=55.948853, lon.=26.532743, Alt.=131.943481m. Speed=2.484000m/h.</desc>
<speed>0.690000</speed>
</trkpt>
<trkpt lat="55.948837" lon="26.532766">
<ele>131.869263</ele>
<time>2010-08-29T08:29:28Z</time>
<desc>lat.=55.948837, lon.=26.532766, Alt.=131.869263m. Speed=3.168000m/h.</desc>
<speed>0.880000</speed>
</trkpt>
<trkpt lat="55.948826" lon="26.532789">
<ele>131.959106</ele>
<time>2010-08-29T08:29:29Z</time>
<desc>lat.=55.948826, lon.=26.532789, Alt.=131.959106m. Speed=3.384000m/h.</desc>
<speed>0.940000</speed>
</trkpt>
<trkpt lat="55.948818" lon="26.532806">
<ele>132.115356</ele>
<time>2010-08-29T08:29:30Z</time>
<desc>lat.=55.948818, lon.=26.532806, Alt.=132.115356m. Speed=2.772000m/h.</desc>
<speed>0.770000</speed>
</trkpt>
<trkpt lat="55.948811" lon="26.532839">
<ele>132.283325</ele>
<time>2010-08-29T08:29:31Z</time>
<desc>lat.=55.948811, lon.=26.532839, Alt.=132.283325m. Speed=5.184000m/h.</desc>
<speed>1.440000</speed>
</trkpt>
<trkpt lat="55.948803" lon="26.532873">
<ele>132.486450</ele>
<time>2010-08-29T08:29:32Z</time>
<desc>lat.=55.948803, lon.=26.532873, Alt.=132.486450m. Speed=5.868000m/h.</desc>
<speed>1.630000</speed>
</trkpt>
<trkpt lat="55.948795" lon="26.532911">
<ele>132.732544</ele>
<time>2010-08-29T08:29:33Z</time>
<desc>lat.=55.948795, lon.=26.532911, Alt.=132.732544m. Speed=5.760000m/h.</desc>
<speed>1.600000</speed>
</trkpt>
<trkpt lat="55.948780" lon="26.532946">
<ele>132.896606</ele>
<time>2010-08-29T08:29:34Z</time>
<desc>lat.=55.948780, lon.=26.532946, Alt.=132.896606m. Speed=4.860000m/h.</desc>
<speed>1.350000</speed>
</trkpt>
<trkpt lat="55.948769" lon="26.532969">
<ele>133.076294</ele>
<time>2010-08-29T08:29:35Z</time>
<desc>lat.=55.948769, lon.=26.532969, Alt.=133.076294m. Speed=2.772000m/h.</desc>
<speed>0.770000</speed>
</trkpt>
<trkpt lat="55.948738" lon="26.532986">
<ele>133.021606</ele>
<time>2010-08-29T08:29:36Z</time>
<desc>lat.=55.948738, lon.=26.532986, Alt.=133.021606m. Speed=3.132000m/h.</desc>
<speed>0.870000</speed>
</trkpt>
<trkpt lat="55.948727" lon="26.533009">
<ele>133.205200</ele>
<time>2010-08-29T08:29:37Z</time>
<desc>lat.=55.948727, lon.=26.533009, Alt.=133.205200m. Speed=3.456000m/h.</desc>
<speed>0.960000</speed>
</trkpt>
<trkpt lat="55.948711" lon="26.533035">
<ele>133.412231</ele>
<time>2010-08-29T08:29:38Z</time>
<desc>lat.=55.948711, lon.=26.533035, Alt.=133.412231m. Speed=4.212000m/h.</desc>
<speed>1.170000</speed>
</trkpt>
<trkpt lat="55.948704" lon="26.533060">
<ele>133.548950</ele>
<time>2010-08-29T08:29:39Z</time>
<desc>lat.=55.948704, lon.=26.533060, Alt.=133.548950m. Speed=3.888000m/h.</desc>
<speed>1.080000</speed>
</trkpt>
<trkpt lat="55.948689" lon="26.533091">
<ele>133.654419</ele>
<time>2010-08-29T08:29:40Z</time>
<desc>lat.=55.948689, lon.=26.533091, Alt.=133.654419m. Speed=3.996000m/h.</desc>
<speed>1.110000</speed>
</trkpt>
<trkpt lat="55.948677" lon="26.533123">
<ele>133.759888</ele>
<time>2010-08-29T08:29:41Z</time>
<desc>lat.=55.948677, lon.=26.533123, Alt.=133.759888m. Speed=5.292000m/h.</desc>
<speed>1.470000</speed>
</trkpt>
<trkpt lat="55.948673" lon="26.533154">
<ele>133.814575</ele>
<time>2010-08-29T08:29:42Z</time>
<desc>lat.=55.948673, lon.=26.533154, Alt.=133.814575m. Speed=3.204000m/h.</desc>
<speed>0.890000</speed>
</trkpt>
<trkpt lat="55.948658" lon="26.533182">
<ele>133.755981</ele>
<time>2010-08-29T08:29:43Z</time>
<desc>lat.=55.948658, lon.=26.533182, Alt.=133.755981m. Speed=3.168000m/h.</desc>
<speed>0.880000</speed>
</trkpt>
<trkpt lat="55.948650" lon="26.533195">
<ele>133.775513</ele>
<time>2010-08-29T08:29:44Z</time>
<desc>lat.=55.948650, lon.=26.533195, Alt.=133.775513m. Speed=2.412000m/h.</desc>
<speed>0.670000</speed>
</trkpt>
<trkpt lat="55.948635" lon="26.533215">
<ele>133.892700</ele>
<time>2010-08-29T08:29:45Z</time>
<desc>lat.=55.948635, lon.=26.533215, Alt.=133.892700m. Speed=2.304000m/h.</desc>
<speed>0.640000</speed>
</trkpt>
<trkpt lat="55.948620" lon="26.533260">
<ele>133.810669</ele>
<time>2010-08-29T08:29:46Z</time>
<desc>lat.=55.948620, lon.=26.533260, Alt.=133.810669m. Speed=5.400000m/h.</desc>
<speed>1.500000</speed>
</trkpt>
<trkpt lat="55.948601" lon="26.533289">
<ele>133.806763</ele>
<time>2010-08-29T08:29:47Z</time>
<desc>lat.=55.948601, lon.=26.533289, Alt.=133.806763m. Speed=4.644000m/h.</desc>
<speed>1.290000</speed>
</trkpt>
<trkpt lat="55.948578" lon="26.533314">
<ele>133.830200</ele>
<time>2010-08-29T08:29:48Z</time>
<desc>lat.=55.948578, lon.=26.533314, Alt.=133.830200m. Speed=4.284000m/h.</desc>
<speed>1.190000</speed>
</trkpt>
<trkpt lat="55.948566" lon="26.533342">
<ele>133.900513</ele>
<time>2010-08-29T08:29:49Z</time>
<desc>lat.=55.948566, lon.=26.533342, Alt.=133.900513m. Speed=5.040000m/h.</desc>
<speed>1.400000</speed>
</trkpt>
<trkpt lat="55.948547" lon="26.533371">
<ele>133.783325</ele>
<time>2010-08-29T08:29:50Z</time>
<desc>lat.=55.948547, lon.=26.533371, Alt.=133.783325m. Speed=5.148000m/h.</desc>
<speed>1.430000</speed>
</trkpt>
<trkpt lat="55.948544" lon="26.533400">
<ele>133.877075</ele>
<time>2010-08-29T08:29:51Z</time>
<desc>lat.=55.948544, lon.=26.533400, Alt.=133.877075m. Speed=4.140000m/h.</desc>
<speed>1.150000</speed>
</trkpt>
<trkpt lat="55.948536" lon="26.533438">
<ele>133.920044</ele>
<time>2010-08-29T08:29:52Z</time>
<desc>lat.=55.948536, lon.=26.533438, Alt.=133.920044m. Speed=4.284000m/h.</desc>
<speed>1.190000</speed>
</trkpt>
<trkpt lat="55.948536" lon="26.533472">
<ele>134.111450</ele>
<time>2010-08-29T08:29:53Z</time>
<desc>lat.=55.948536, lon.=26.533472, Alt.=134.111450m. Speed=3.456000m/h.</desc>
<speed>0.960000</speed>
</trkpt>
<trkpt lat="55.948532" lon="26.533506">
<ele>134.170044</ele>
<time>2010-08-29T08:29:54Z</time>
<desc>lat.=55.948532, lon.=26.533506, Alt.=134.170044m. Speed=5.508000m/h.</desc>
<speed>1.530000</speed>
</trkpt>
<trkpt lat="55.948532" lon="26.533541">
<ele>134.220825</ele>
<time>2010-08-29T08:29:55Z</time>
<desc>lat.=55.948532, lon.=26.533541, Alt.=134.220825m. Speed=4.968000m/h.</desc>
<speed>1.380000</speed>
</trkpt>
<trkpt lat="55.948532" lon="26.533579">
<ele>134.326294</ele>
<time>2010-08-29T08:29:56Z</time>
<desc>lat.=55.948532, lon.=26.533579, Alt.=134.326294m. Speed=4.680000m/h.</desc>
<speed>1.300000</speed>
</trkpt>
<trkpt lat="55.948528" lon="26.533609">
<ele>134.412231</ele>
<time>2010-08-29T08:29:57Z</time>
<desc>lat.=55.948528, lon.=26.533609, Alt.=134.412231m. Speed=5.616000m/h.</desc>
<speed>1.560000</speed>
</trkpt>
<trkpt lat="55.948521" lon="26.533640">
<ele>134.463013</ele>
<time>2010-08-29T08:29:58Z</time>
<desc>lat.=55.948521, lon.=26.533640, Alt.=134.463013m. Speed=5.076000m/h.</desc>
<speed>1.410000</speed>
</trkpt>
<trkpt lat="55.948521" lon="26.533672">
<ele>134.580200</ele>
<time>2010-08-29T08:29:59Z</time>
<desc>lat.=55.948521, lon.=26.533672, Alt.=134.580200m. Speed=4.392000m/h.</desc>
<speed>1.220000</speed>
</trkpt>
<trkpt lat="55.948513" lon="26.533720">
<ele>135.037231</ele>
<time>2010-08-29T08:30:00Z</time>
<desc>lat.=55.948513, lon.=26.533720, Alt.=135.037231m. Speed=6.588000m/h.</desc>
<speed>1.830000</speed>
</trkpt>
<trkpt lat="55.948494" lon="26.533760">
<ele>135.170044</ele>
<time>2010-08-29T08:30:01Z</time>
<desc>lat.=55.948494, lon.=26.533760, Alt.=135.170044m. Speed=5.256000m/h.</desc>
<speed>1.460000</speed>
</trkpt>
<trkpt lat="55.948486" lon="26.533796">
<ele>134.916138</ele>
<time>2010-08-29T08:30:02Z</time>
<desc>lat.=55.948486, lon.=26.533796, Alt.=134.916138m. Speed=5.364000m/h.</desc>
<speed>1.490000</speed>
</trkpt>
<trkpt lat="55.948483" lon="26.533827">
<ele>134.841919</ele>
<time>2010-08-29T08:30:03Z</time>
<desc>lat.=55.948483, lon.=26.533827, Alt.=134.841919m. Speed=5.544000m/h.</desc>
<speed>1.540000</speed>
</trkpt>
<trkpt lat="55.948479" lon="26.533867">
<ele>134.884888</ele>
<time>2010-08-29T08:30:04Z</time>
<desc>lat.=55.948479, lon.=26.533867, Alt.=134.884888m. Speed=6.552000m/h.</desc>
<speed>1.820000</speed>
</trkpt>
<trkpt lat="55.948475" lon="26.533913">
<ele>134.998169</ele>
<time>2010-08-29T08:30:05Z</time>
<desc>lat.=55.948475, lon.=26.533913, Alt.=134.998169m. Speed=7.020000m/h.</desc>
<speed>1.950000</speed>
</trkpt>
<trkpt lat="55.948471" lon="26.533970">
<ele>135.244263</ele>
<time>2010-08-29T08:30:06Z</time>
<desc>lat.=55.948471, lon.=26.533970, Alt.=135.244263m. Speed=8.352000m/h.</desc>
<speed>2.320000</speed>
</trkpt>
<trkpt lat="55.948471" lon="26.534027">
<ele>135.681763</ele>
<time>2010-08-29T08:30:07Z</time>
<desc>lat.=55.948471, lon.=26.534027, Alt.=135.681763m. Speed=7.308000m/h.</desc>
<speed>2.030000</speed>
</trkpt>
<trkpt lat="55.948475" lon="26.534075">
<ele>135.802856</ele>
<time>2010-08-29T08:30:08Z</time>
<desc>lat.=55.948475, lon.=26.534075, Alt.=135.802856m. Speed=7.668000m/h.</desc>
<speed>2.130000</speed>
</trkpt>
<trkpt lat="55.948486" lon="26.534121">
<ele>135.752075</ele>
<time>2010-08-29T08:30:09Z</time>
<desc>lat.=55.948486, lon.=26.534121, Alt.=135.752075m. Speed=7.488000m/h.</desc>
<speed>2.080000</speed>
</trkpt>
<trkpt lat="55.948498" lon="26.534180">
<ele>137.127075</ele>
<time>2010-08-29T08:30:10Z</time>
<desc>lat.=55.948498, lon.=26.534180, Alt.=137.127075m. Speed=6.984000m/h.</desc>
<speed>1.940000</speed>
</trkpt>
<trkpt lat="55.948502" lon="26.534216">
<ele>137.369263</ele>
<time>2010-08-29T08:30:11Z</time>
<desc>lat.=55.948502, lon.=26.534216, Alt.=137.369263m. Speed=5.940000m/h.</desc>
<speed>1.650000</speed>
</trkpt>
<trkpt lat="55.948502" lon="26.534245">
<ele>137.541138</ele>
<time>2010-08-29T08:30:12Z</time>
<desc>lat.=55.948502, lon.=26.534245, Alt.=137.541138m. Speed=4.572000m/h.</desc>
<speed>1.270000</speed>
</trkpt>
<trkpt lat="55.948505" lon="26.534277">
<ele>137.947388</ele>
<time>2010-08-29T08:30:13Z</time>
<desc>lat.=55.948505, lon.=26.534277, Alt.=137.947388m. Speed=3.492000m/h.</desc>
<speed>0.970000</speed>
</trkpt>
<trkpt lat="55.948513" lon="26.534302">
<ele>138.498169</ele>
<time>2010-08-29T08:30:14Z</time>
<desc>lat.=55.948513, lon.=26.534302, Alt.=138.498169m. Speed=2.376000m/h.</desc>
<speed>0.660000</speed>
</trkpt>
<trkpt lat="55.948513" lon="26.534325">
<ele>138.779419</ele>
<time>2010-08-29T08:30:15Z</time>
<desc>lat.=55.948513, lon.=26.534325, Alt.=138.779419m. Speed=2.196000m/h.</desc>
<speed>0.610000</speed>
</trkpt>
<trkpt lat="55.948521" lon="26.534374">
<ele>139.927856</ele>
<time>2010-08-29T08:30:16Z</time>
<desc>lat.=55.948521, lon.=26.534374, Alt.=139.927856m. Speed=3.744000m/h.</desc>
<speed>1.040000</speed>
</trkpt>
<trkpt lat="55.948524" lon="26.534424">
<ele>140.630981</ele>
<time>2010-08-29T08:30:17Z</time>
<desc>lat.=55.948524, lon.=26.534424, Alt.=140.630981m. Speed=4.716000m/h.</desc>
<speed>1.310000</speed>
</trkpt>
<trkpt lat="55.948524" lon="26.534449">
<ele>141.185669</ele>
<time>2010-08-29T08:30:18Z</time>
<desc>lat.=55.948524, lon.=26.534449, Alt.=141.185669m. Speed=4.500000m/h.</desc>
<speed>1.250000</speed>
</trkpt>
<trkpt lat="55.948528" lon="26.534470">
<ele>141.580200</ele>
<time>2010-08-29T08:30:19Z</time>
<desc>lat.=55.948528, lon.=26.534470, Alt.=141.580200m. Speed=3.672000m/h.</desc>
<speed>1.020000</speed>
</trkpt>
<trkpt lat="55.948528" lon="26.534483">
<ele>142.142700</ele>
<time>2010-08-29T08:30:20Z</time>
<desc>lat.=55.948528, lon.=26.534483, Alt.=142.142700m. Speed=2.376000m/h.</desc>
<speed>0.660000</speed>
</trkpt>
<trkpt lat="55.948524" lon="26.534529">
<ele>142.662231</ele>
<time>2010-08-29T08:30:21Z</time>
<desc>lat.=55.948524, lon.=26.534529, Alt.=142.662231m. Speed=2.052000m/h.</desc>
<speed>0.570000</speed>
</trkpt>
<trkpt lat="55.948528" lon="26.534597">
<ele>141.291138</ele>
<time>2010-08-29T08:30:22Z</time>
<desc>lat.=55.948528, lon.=26.534597, Alt.=141.291138m. Speed=1.764000m/h.</desc>
<speed>0.490000</speed>
</trkpt>
<trkpt lat="55.948536" lon="26.534622">
<ele>142.048950</ele>
<time>2010-08-29T08:30:23Z</time>
<desc>lat.=55.948536, lon.=26.534622, Alt.=142.048950m. Speed=2.088000m/h.</desc>
<speed>0.580000</speed>
</trkpt>
<trkpt lat="55.948540" lon="26.534637">
<ele>142.666138</ele>
<time>2010-08-29T08:30:24Z</time>
<desc>lat.=55.948540, lon.=26.534637, Alt.=142.666138m. Speed=1.908000m/h.</desc>
<speed>0.530000</speed>
</trkpt>
<trkpt lat="55.948544" lon="26.534643">
<ele>142.744263</ele>
<time>2010-08-29T08:30:25Z</time>
<desc>lat.=55.948544, lon.=26.534643, Alt.=142.744263m. Speed=1.692000m/h.</desc>
<speed>0.470000</speed>
</trkpt>
<trkpt lat="55.948544" lon="26.534651">
<ele>142.541138</ele>
<time>2010-08-29T08:30:26Z</time>
<desc>lat.=55.948544, lon.=26.534651, Alt.=142.541138m. Speed=1.440000m/h.</desc>
<speed>0.400000</speed>
</trkpt>
<trkpt lat="55.948544" lon="26.534647">
<ele>142.646606</ele>
<time>2010-08-29T08:30:27Z</time>
<desc>lat.=55.948544, lon.=26.534647, Alt.=142.646606m. Speed=1.260000m/h.</desc>
<speed>0.350000</speed>
</trkpt>
<trkpt lat="55.948528" lon="26.534641">
<ele>142.595825</ele>
<time>2010-08-29T08:30:28Z</time>
<desc>lat.=55.948528, lon.=26.534641, Alt.=142.595825m. Speed=0.144000m/h.</desc>
<speed>0.040000</speed>
</trkpt>
<trkpt lat="55.948521" lon="26.534639">
<ele>142.213013</ele>
<time>2010-08-29T08:30:29Z</time>
<desc>lat.=55.948521, lon.=26.534639, Alt.=142.213013m. Speed=0.144000m/h.</desc>
<speed>0.040000</speed>
</trkpt>
<trkpt lat="55.948517" lon="26.534632">
<ele>141.943481</ele>
<time>2010-08-29T08:30:30Z</time>
<desc>lat.=55.948517, lon.=26.534632, Alt.=141.943481m. Speed=0.540000m/h.</desc>
<speed>0.150000</speed>
</trkpt>
<trkpt lat="55.948505" lon="26.534636">
<ele>142.220825</ele>
<time>2010-08-29T08:30:31Z</time>
<desc>lat.=55.948505, lon.=26.534636, Alt.=142.220825m. Speed=0.828000m/h.</desc>
<speed>0.230000</speed>
</trkpt>
<trkpt lat="55.948505" lon="26.534634">
<ele>142.357544</ele>
<time>2010-08-29T08:30:32Z</time>
<desc>lat.=55.948505, lon.=26.534634, Alt.=142.357544m. Speed=1.080000m/h.</desc>
<speed>0.300000</speed>
</trkpt>
<trkpt lat="55.948502" lon="26.534636">
<ele>142.451294</ele>
<time>2010-08-29T08:30:33Z</time>
<desc>lat.=55.948502, lon.=26.534636, Alt.=142.451294m. Speed=0.936000m/h.</desc>
<speed>0.260000</speed>
</trkpt>
<trkpt lat="55.948509" lon="26.534637">
<ele>142.427856</ele>
<time>2010-08-29T08:30:34Z</time>
<desc>lat.=55.948509, lon.=26.534637, Alt.=142.427856m. Speed=0.468000m/h.</desc>
<speed>0.130000</speed>
</trkpt>
<trkpt lat="55.948505" lon="26.534636">
<ele>142.709106</ele>
<time>2010-08-29T08:30:35Z</time>
<desc>lat.=55.948505, lon.=26.534636, Alt.=142.709106m. Speed=0.468000m/h.</desc>
<speed>0.130000</speed>
</trkpt>
<trkpt lat="55.948494" lon="26.534628">
<ele>142.439575</ele>
<time>2010-08-29T08:30:36Z</time>
<desc>lat.=55.948494, lon.=26.534628, Alt.=142.439575m. Speed=1.044000m/h.</desc>
<speed>0.290000</speed>
</trkpt>
<trkpt lat="55.948490" lon="26.534628">
<ele>142.498169</ele>
<time>2010-08-29T08:30:37Z</time>
<desc>lat.=55.948490, lon.=26.534628, Alt.=142.498169m. Speed=1.260000m/h.</desc>
<speed>0.350000</speed>
</trkpt>
<trkpt lat="55.948494" lon="26.534618">
<ele>142.490356</ele>
<time>2010-08-29T08:30:38Z</time>
<desc>lat.=55.948494, lon.=26.534618, Alt.=142.490356m. Speed=1.044000m/h.</desc>
<speed>0.290000</speed>
</trkpt>
<trkpt lat="55.948490" lon="26.534613">
<ele>142.338013</ele>
<time>2010-08-29T08:30:39Z</time>
<desc>lat.=55.948490, lon.=26.534613, Alt.=142.338013m. Speed=1.080000m/h.</desc>
<speed>0.300000</speed>
</trkpt>
<trkpt lat="55.948486" lon="26.534599">
<ele>142.158325</ele>
<time>2010-08-29T08:30:40Z</time>
<desc>lat.=55.948486, lon.=26.534599, Alt.=142.158325m. Speed=1.476000m/h.</desc>
<speed>0.410000</speed>
</trkpt>
<trkpt lat="55.948479" lon="26.534597">
<ele>141.916138</ele>
<time>2010-08-29T08:30:41Z</time>
<desc>lat.=55.948479, lon.=26.534597, Alt.=141.916138m. Speed=1.440000m/h.</desc>
<speed>0.400000</speed>
</trkpt>
<trkpt lat="55.948479" lon="26.534599">
<ele>141.841919</ele>
<time>2010-08-29T08:30:42Z</time>
<desc>lat.=55.948479, lon.=26.534599, Alt.=141.841919m. Speed=0.900000m/h.</desc>
<speed>0.250000</speed>
</trkpt>
<trkpt lat="55.948475" lon="26.534601">
<ele>141.447388</ele>
<time>2010-08-29T08:30:43Z</time>
<desc>lat.=55.948475, lon.=26.534601, Alt.=141.447388m. Speed=0.432000m/h.</desc>
<speed>0.120000</speed>
</trkpt>
<trkpt lat="55.948475" lon="26.534603">
<ele>141.267700</ele>
<time>2010-08-29T08:30:44Z</time>
<desc>lat.=55.948475, lon.=26.534603, Alt.=141.267700m. Speed=0.360000m/h.</desc>
<speed>0.100000</speed>
</trkpt>
<trkpt lat="55.948479" lon="26.534607">
<ele>140.908325</ele>
<time>2010-08-29T08:30:45Z</time>
<desc>lat.=55.948479, lon.=26.534607, Alt.=140.908325m. Speed=0.360000m/h.</desc>
<speed>0.100000</speed>
</trkpt>
<trkpt lat="55.948479" lon="26.534609">
<ele>140.923950</ele>
<time>2010-08-29T08:30:46Z</time>
<desc>lat.=55.948479, lon.=26.534609, Alt.=140.923950m. Speed=0.972000m/h.</desc>
<speed>0.270000</speed>
</trkpt>
<trkpt lat="55.948483" lon="26.534611">
<ele>140.935669</ele>
<time>2010-08-29T08:30:47Z</time>
<desc>lat.=55.948483, lon.=26.534611, Alt.=140.935669m. Speed=0.504000m/h.</desc>
<speed>0.140000</speed>
</trkpt>
<trkpt lat="55.948483" lon="26.534613">
<ele>140.951294</ele>
<time>2010-08-29T08:30:48Z</time>
<desc>lat.=55.948483, lon.=26.534613, Alt.=140.951294m. Speed=0.540000m/h.</desc>
<speed>0.150000</speed>
</trkpt>
<trkpt lat="55.948483" lon="26.534613">
<ele>140.966919</ele>
<time>2010-08-29T08:30:49Z</time>
<desc>lat.=55.948483, lon.=26.534613, Alt.=140.966919m. Speed=0.288000m/h.</desc>
<speed>0.080000</speed>
</trkpt>
<trkpt lat="55.948486" lon="26.534615">
<ele>140.982544</ele>
<time>2010-08-29T08:30:50Z</time>
<desc>lat.=55.948486, lon.=26.534615, Alt.=140.982544m. Speed=0.360000m/h.</desc>
<speed>0.100000</speed>
</trkpt>
<trkpt lat="55.948486" lon="26.534616">
<ele>140.994263</ele>
<time>2010-08-29T08:30:51Z</time>
<desc>lat.=55.948486, lon.=26.534616, Alt.=140.994263m. Speed=0.288000m/h.</desc>
<speed>0.080000</speed>
</trkpt>
<trkpt lat="55.948486" lon="26.534616">
<ele>141.009888</ele>
<time>2010-08-29T08:30:52Z</time>
<desc>lat.=55.948486, lon.=26.534616, Alt.=141.009888m. Speed=0.216000m/h.</desc>
<speed>0.060000</speed>
</trkpt>
<trkpt lat="55.948486" lon="26.534618">
<ele>141.029419</ele>
<time>2010-08-29T08:30:53Z</time>
<desc>lat.=55.948486, lon.=26.534618, Alt.=141.029419m. Speed=0.360000m/h.</desc>
<speed>0.100000</speed>
</trkpt>
<trkpt lat="55.948486" lon="26.534620">
<ele>141.060669</ele>
<time>2010-08-29T08:30:54Z</time>
<desc>lat.=55.948486, lon.=26.534620, Alt.=141.060669m. Speed=0.180000m/h.</desc>
<speed>0.050000</speed>
</trkpt>
<trkpt lat="55.948483" lon="26.534620">
<ele>141.080200</ele>
<time>2010-08-29T08:30:55Z</time>
<desc>lat.=55.948483, lon.=26.534620, Alt.=141.080200m. Speed=0.828000m/h.</desc>
<speed>0.230000</speed>
</trkpt>
<trkpt lat="55.948483" lon="26.534618">
<ele>141.095825</ele>
<time>2010-08-29T08:30:56Z</time>
<desc>lat.=55.948483, lon.=26.534618, Alt.=141.095825m. Speed=0.864000m/h.</desc>
<speed>0.240000</speed>
</trkpt>
<trkpt lat="55.948483" lon="26.534615">
<ele>141.111450</ele>
<time>2010-08-29T08:30:57Z</time>
<desc>lat.=55.948483, lon.=26.534615, Alt.=141.111450m. Speed=0.648000m/h.</desc>
<speed>0.180000</speed>
</trkpt>
<trkpt lat="55.948479" lon="26.534615">
<ele>141.123169</ele>
<time>2010-08-29T08:30:58Z</time>
<desc>lat.=55.948479, lon.=26.534615, Alt.=141.123169m. Speed=0.684000m/h.</desc>
<speed>0.190000</speed>
</trkpt>
<trkpt lat="55.948479" lon="26.534615">
<ele>141.142700</ele>
<time>2010-08-29T08:30:59Z</time>
<desc>lat.=55.948479, lon.=26.534615, Alt.=141.142700m. Speed=0.648000m/h.</desc>
<speed>0.180000</speed>
</trkpt>
<trkpt lat="55.948475" lon="26.534615">
<ele>141.162231</ele>
<time>2010-08-29T08:31:00Z</time>
<desc>lat.=55.948475, lon.=26.534615, Alt.=141.162231m. Speed=0.396000m/h.</desc>
<speed>0.110000</speed>
</trkpt>
<trkpt lat="55.948475" lon="26.534615">
<ele>141.177856</ele>
<time>2010-08-29T08:31:01Z</time>
<desc>lat.=55.948475, lon.=26.534615, Alt.=141.177856m. Speed=0.540000m/h.</desc>
<speed>0.150000</speed>
</trkpt>
<trkpt lat="55.948475" lon="26.534618">
<ele>141.193481</ele>
<time>2010-08-29T08:31:02Z</time>
<desc>lat.=55.948475, lon.=26.534618, Alt.=141.193481m. Speed=0.504000m/h.</desc>
<speed>0.140000</speed>
</trkpt>
<trkpt lat="55.948475" lon="26.534620">
<ele>141.201294</ele>
<time>2010-08-29T08:31:03Z</time>
<desc>lat.=55.948475, lon.=26.534620, Alt.=141.201294m. Speed=0.576000m/h.</desc>
<speed>0.160000</speed>
</trkpt>
<trkpt lat="55.948475" lon="26.534622">
<ele>141.213013</ele>
<time>2010-08-29T08:31:04Z</time>
<desc>lat.=55.948475, lon.=26.534622, Alt.=141.213013m. Speed=0.828000m/h.</desc>
<speed>0.230000</speed>
</trkpt>
<trkpt lat="55.948471" lon="26.534624">
<ele>141.220825</ele>
<time>2010-08-29T08:31:05Z</time>
<desc>lat.=55.948471, lon.=26.534624, Alt.=141.220825m. Speed=0.936000m/h.</desc>
<speed>0.260000</speed>
</trkpt>
<trkpt lat="55.948471" lon="26.534628">
<ele>141.220825</ele>
<time>2010-08-29T08:31:06Z</time>
<desc>lat.=55.948471, lon.=26.534628, Alt.=141.220825m. Speed=0.828000m/h.</desc>
<speed>0.230000</speed>
</trkpt>
<trkpt lat="55.948471" lon="26.534632">
<ele>141.220825</ele>
<time>2010-08-29T08:31:07Z</time>
<desc>lat.=55.948471, lon.=26.534632, Alt.=141.220825m. Speed=0.180000m/h.</desc>
<speed>0.050000</speed>
</trkpt>
<trkpt lat="55.948471" lon="26.534632">
<ele>141.224731</ele>
<time>2010-08-29T08:31:08Z</time>
<desc>lat.=55.948471, lon.=26.534632, Alt.=141.224731m. Speed=0.504000m/h.</desc>
<speed>0.140000</speed>
</trkpt>
<trkpt lat="55.948471" lon="26.534630">
<ele>141.228638</ele>
<time>2010-08-29T08:31:09Z</time>
<desc>lat.=55.948471, lon.=26.534630, Alt.=141.228638m. Speed=0.252000m/h.</desc>
<speed>0.070000</speed>
</trkpt>
<trkpt lat="55.948471" lon="26.534632">
<ele>141.240356</ele>
<time>2010-08-29T08:31:10Z</time>
<desc>lat.=55.948471, lon.=26.534632, Alt.=141.240356m. Speed=0.612000m/h.</desc>
<speed>0.170000</speed>
</trkpt>
<trkpt lat="55.948467" lon="26.534634">
<ele>141.255981</ele>
<time>2010-08-29T08:31:11Z</time>
<desc>lat.=55.948467, lon.=26.534634, Alt.=141.255981m. Speed=0.864000m/h.</desc>
<speed>0.240000</speed>
</trkpt>
<trkpt lat="55.948467" lon="26.534637">
<ele>141.271606</ele>
<time>2010-08-29T08:31:12Z</time>
<desc>lat.=55.948467, lon.=26.534637, Alt.=141.271606m. Speed=1.152000m/h.</desc>
<speed>0.320000</speed>
</trkpt>
<trkpt lat="55.948467" lon="26.534649">
<ele>141.552856</ele>
<time>2010-08-29T08:31:13Z</time>
<desc>lat.=55.948467, lon.=26.534649, Alt.=141.552856m. Speed=0.792000m/h.</desc>
<speed>0.220000</speed>
</trkpt>
<trkpt lat="55.948479" lon="26.534662">
<ele>141.908325</ele>
<time>2010-08-29T08:31:14Z</time>
<desc>lat.=55.948479, lon.=26.534662, Alt.=141.908325m. Speed=0.720000m/h.</desc>
<speed>0.200000</speed>
</trkpt>
<trkpt lat="55.948479" lon="26.534678">
<ele>141.810669</ele>
<time>2010-08-29T08:31:15Z</time>
<desc>lat.=55.948479, lon.=26.534678, Alt.=141.810669m. Speed=1.080000m/h.</desc>
<speed>0.300000</speed>
</trkpt>
<trkpt lat="55.948479" lon="26.534683">
<ele>141.795044</ele>
<time>2010-08-29T08:31:16Z</time>
<desc>lat.=55.948479, lon.=26.534683, Alt.=141.795044m. Speed=1.008000m/h.</desc>
<speed>0.280000</speed>
</trkpt>
<trkpt lat="55.948467" lon="26.534698">
<ele>141.791138</ele>
<time>2010-08-29T08:31:17Z</time>
<desc>lat.=55.948467, lon.=26.534698, Alt.=141.791138m. Speed=1.368000m/h.</desc>
<speed>0.380000</speed>
</trkpt>
<trkpt lat="55.948463" lon="26.534708">
<ele>141.787231</ele>
<time>2010-08-29T08:31:18Z</time>
<desc>lat.=55.948463, lon.=26.534708, Alt.=141.787231m. Speed=1.152000m/h.</desc>
<speed>0.320000</speed>
</trkpt>
<trkpt lat="55.948463" lon="26.534710">
<ele>141.810669</ele>
<time>2010-08-29T08:31:19Z</time>
<desc>lat.=55.948463, lon.=26.534710, Alt.=141.810669m. Speed=0.756000m/h.</desc>
<speed>0.210000</speed>
</trkpt>
<trkpt lat="55.948471" lon="26.534719">
<ele>141.775513</ele>
<time>2010-08-29T08:31:20Z</time>
<desc>lat.=55.948471, lon.=26.534719, Alt.=141.775513m. Speed=0.972000m/h.</desc>
<speed>0.270000</speed>
</trkpt>
<trkpt lat="55.948475" lon="26.534744">
<ele>141.295044</ele>
<time>2010-08-29T08:31:21Z</time>
<desc>lat.=55.948475, lon.=26.534744, Alt.=141.295044m. Speed=2.412000m/h.</desc>
<speed>0.670000</speed>
</trkpt>
<trkpt lat="55.948471" lon="26.534756">
<ele>141.134888</ele>
<time>2010-08-29T08:31:22Z</time>
<desc>lat.=55.948471, lon.=26.534756, Alt.=141.134888m. Speed=1.980000m/h.</desc>
<speed>0.550000</speed>
</trkpt>
<trkpt lat="55.948475" lon="26.534767">
<ele>141.060669</ele>
<time>2010-08-29T08:31:23Z</time>
<desc>lat.=55.948475, lon.=26.534767, Alt.=141.060669m. Speed=2.088000m/h.</desc>
<speed>0.580000</speed>
</trkpt>
<trkpt lat="55.948483" lon="26.534786">
<ele>140.783325</ele>
<time>2010-08-29T08:31:24Z</time>
<desc>lat.=55.948483, lon.=26.534786, Alt.=140.783325m. Speed=2.016000m/h.</desc>
<speed>0.560000</speed>
</trkpt>
<trkpt lat="55.948486" lon="26.534796">
<ele>140.744263</ele>
<time>2010-08-29T08:31:25Z</time>
<desc>lat.=55.948486, lon.=26.534796, Alt.=140.744263m. Speed=1.944000m/h.</desc>
<speed>0.540000</speed>
</trkpt>
<trkpt lat="55.948490" lon="26.534811">
<ele>140.732544</ele>
<time>2010-08-29T08:31:26Z</time>
<desc>lat.=55.948490, lon.=26.534811, Alt.=140.732544m. Speed=2.484000m/h.</desc>
<speed>0.690000</speed>
</trkpt>
<trkpt lat="55.948513" lon="26.534832">
<ele>140.994263</ele>
<time>2010-08-29T08:31:27Z</time>
<desc>lat.=55.948513, lon.=26.534832, Alt.=140.994263m. Speed=2.628000m/h.</desc>
<speed>0.730000</speed>
</trkpt>
<trkpt lat="55.948513" lon="26.534843">
<ele>140.908325</ele>
<time>2010-08-29T08:31:28Z</time>
<desc>lat.=55.948513, lon.=26.534843, Alt.=140.908325m. Speed=2.736000m/h.</desc>
<speed>0.760000</speed>
</trkpt>
<trkpt lat="55.948521" lon="26.534853">
<ele>140.877075</ele>
<time>2010-08-29T08:31:29Z</time>
<desc>lat.=55.948521, lon.=26.534853, Alt.=140.877075m. Speed=2.268000m/h.</desc>
<speed>0.630000</speed>
</trkpt>
<trkpt lat="55.948521" lon="26.534866">
<ele>140.869263</ele>
<time>2010-08-29T08:31:30Z</time>
<desc>lat.=55.948521, lon.=26.534866, Alt.=140.869263m. Speed=2.448000m/h.</desc>
<speed>0.680000</speed>
</trkpt>
<trkpt lat="55.948521" lon="26.534874">
<ele>140.927856</ele>
<time>2010-08-29T08:31:31Z</time>
<desc>lat.=55.948521, lon.=26.534874, Alt.=140.927856m. Speed=1.872000m/h.</desc>
<speed>0.520000</speed>
</trkpt>
<trkpt lat="55.948524" lon="26.534889">
<ele>140.986450</ele>
<time>2010-08-29T08:31:32Z</time>
<desc>lat.=55.948524, lon.=26.534889, Alt.=140.986450m. Speed=1.980000m/h.</desc>
<speed>0.550000</speed>
</trkpt>
<trkpt lat="55.948528" lon="26.534906">
<ele>140.931763</ele>
<time>2010-08-29T08:31:33Z</time>
<desc>lat.=55.948528, lon.=26.534906, Alt.=140.931763m. Speed=2.196000m/h.</desc>
<speed>0.610000</speed>
</trkpt>
<trkpt lat="55.948528" lon="26.534920">
<ele>140.900513</ele>
<time>2010-08-29T08:31:34Z</time>
<desc>lat.=55.948528, lon.=26.534920, Alt.=140.900513m. Speed=2.160000m/h.</desc>
<speed>0.600000</speed>
</trkpt>
<trkpt lat="55.948528" lon="26.534939">
<ele>140.853638</ele>
<time>2010-08-29T08:31:35Z</time>
<desc>lat.=55.948528, lon.=26.534939, Alt.=140.853638m. Speed=2.412000m/h.</desc>
<speed>0.670000</speed>
</trkpt>
<trkpt lat="55.948536" lon="26.534954">
<ele>140.869263</ele>
<time>2010-08-29T08:31:36Z</time>
<desc>lat.=55.948536, lon.=26.534954, Alt.=140.869263m. Speed=2.124000m/h.</desc>
<speed>0.590000</speed>
</trkpt>
<trkpt lat="55.948536" lon="26.534956">
<ele>140.814575</ele>
<time>2010-08-29T08:31:37Z</time>
<desc>lat.=55.948536, lon.=26.534956, Alt.=140.814575m. Speed=1.008000m/h.</desc>
<speed>0.280000</speed>
</trkpt>
<trkpt lat="55.948544" lon="26.534971">
<ele>141.123169</ele>
<time>2010-08-29T08:31:38Z</time>
<desc>lat.=55.948544, lon.=26.534971, Alt.=141.123169m. Speed=1.152000m/h.</desc>
<speed>0.320000</speed>
</trkpt>
<trkpt lat="55.948563" lon="26.534992">
<ele>141.158325</ele>
<time>2010-08-29T08:31:39Z</time>
<desc>lat.=55.948563, lon.=26.534992, Alt.=141.158325m. Speed=1.620000m/h.</desc>
<speed>0.450000</speed>
</trkpt>
<trkpt lat="55.948570" lon="26.535021">
<ele>141.123169</ele>
<time>2010-08-29T08:31:40Z</time>
<desc>lat.=55.948570, lon.=26.535021, Alt.=141.123169m. Speed=2.520000m/h.</desc>
<speed>0.700000</speed>
</trkpt>
<trkpt lat="55.948566" lon="26.535046">
<ele>141.064575</ele>
<time>2010-08-29T08:31:41Z</time>
<desc>lat.=55.948566, lon.=26.535046, Alt.=141.064575m. Speed=2.772000m/h.</desc>
<speed>0.770000</speed>
</trkpt>
<trkpt lat="55.948574" lon="26.535076">
<ele>140.974731</ele>
<time>2010-08-29T08:31:42Z</time>
<desc>lat.=55.948574, lon.=26.535076, Alt.=140.974731m. Speed=3.276000m/h.</desc>
<speed>0.910000</speed>
</trkpt>
<trkpt lat="55.948582" lon="26.535126">
<ele>140.709106</ele>
<time>2010-08-29T08:31:43Z</time>
<desc>lat.=55.948582, lon.=26.535126, Alt.=140.709106m. Speed=4.140000m/h.</desc>
<speed>1.150000</speed>
</trkpt>
<trkpt lat="55.948589" lon="26.535152">
<ele>140.490356</ele>
<time>2010-08-29T08:31:44Z</time>
<desc>lat.=55.948589, lon.=26.535152, Alt.=140.490356m. Speed=4.212000m/h.</desc>
<speed>1.170000</speed>
</trkpt>
<trkpt lat="55.948597" lon="26.535183">
<ele>140.283325</ele>
<time>2010-08-29T08:31:45Z</time>
<desc>lat.=55.948597, lon.=26.535183, Alt.=140.283325m. Speed=4.644000m/h.</desc>
<speed>1.290000</speed>
</trkpt>
<trkpt lat="55.948612" lon="26.535231">
<ele>140.591919</ele>
<time>2010-08-29T08:31:46Z</time>
<desc>lat.=55.948612, lon.=26.535231, Alt.=140.591919m. Speed=4.680000m/h.</desc>
<speed>1.300000</speed>
</trkpt>
<trkpt lat="55.948608" lon="26.535263">
<ele>140.447388</ele>
<time>2010-08-29T08:31:47Z</time>
<desc>lat.=55.948608, lon.=26.535263, Alt.=140.447388m. Speed=4.608000m/h.</desc>
<speed>1.280000</speed>
</trkpt>
<trkpt lat="55.948608" lon="26.535292">
<ele>140.240356</ele>
<time>2010-08-29T08:31:48Z</time>
<desc>lat.=55.948608, lon.=26.535292, Alt.=140.240356m. Speed=4.644000m/h.</desc>
<speed>1.290000</speed>
</trkpt>
<trkpt lat="55.948612" lon="26.535320">
<ele>140.150513</ele>
<time>2010-08-29T08:31:49Z</time>
<desc>lat.=55.948612, lon.=26.535320, Alt.=140.150513m. Speed=4.068000m/h.</desc>
<speed>1.130000</speed>
</trkpt>
<trkpt lat="55.948601" lon="26.535332">
<ele>139.982544</ele>
<time>2010-08-29T08:31:50Z</time>
<desc>lat.=55.948601, lon.=26.535332, Alt.=139.982544m. Speed=3.024000m/h.</desc>
<speed>0.840000</speed>
</trkpt>
<trkpt lat="55.948593" lon="26.535351">
<ele>139.802856</ele>
<time>2010-08-29T08:31:51Z</time>
<desc>lat.=55.948593, lon.=26.535351, Alt.=139.802856m. Speed=2.844000m/h.</desc>
<speed>0.790000</speed>
</trkpt>
<trkpt lat="55.948589" lon="26.535383">
<ele>139.642700</ele>
<time>2010-08-29T08:31:52Z</time>
<desc>lat.=55.948589, lon.=26.535383, Alt.=139.642700m. Speed=3.672000m/h.</desc>
<speed>1.020000</speed>
</trkpt>
<trkpt lat="55.948586" lon="26.535416">
<ele>139.412231</ele>
<time>2010-08-29T08:31:53Z</time>
<desc>lat.=55.948586, lon.=26.535416, Alt.=139.412231m. Speed=4.140000m/h.</desc>
<speed>1.150000</speed>
</trkpt>
<trkpt lat="55.948586" lon="26.535448">
<ele>139.373169</ele>
<time>2010-08-29T08:31:54Z</time>
<desc>lat.=55.948586, lon.=26.535448, Alt.=139.373169m. Speed=4.356000m/h.</desc>
<speed>1.210000</speed>
</trkpt>
<trkpt lat="55.948574" lon="26.535490">
<ele>139.322388</ele>
<time>2010-08-29T08:31:55Z</time>
<desc>lat.=55.948574, lon.=26.535490, Alt.=139.322388m. Speed=5.220000m/h.</desc>
<speed>1.450000</speed>
</trkpt>
<trkpt lat="55.948582" lon="26.535532">
<ele>139.455200</ele>
<time>2010-08-29T08:31:56Z</time>
<desc>lat.=55.948582, lon.=26.535532, Alt.=139.455200m. Speed=5.040000m/h.</desc>
<speed>1.400000</speed>
</trkpt>
<trkpt lat="55.948578" lon="26.535561">
<ele>139.345825</ele>
<time>2010-08-29T08:31:57Z</time>
<desc>lat.=55.948578, lon.=26.535561, Alt.=139.345825m. Speed=4.644000m/h.</desc>
<speed>1.290000</speed>
</trkpt>
<trkpt lat="55.948582" lon="26.535591">
<ele>139.189575</ele>
<time>2010-08-29T08:31:58Z</time>
<desc>lat.=55.948582, lon.=26.535591, Alt.=139.189575m. Speed=3.888000m/h.</desc>
<speed>1.080000</speed>
</trkpt>
<trkpt lat="55.948593" lon="26.535646">
<ele>139.658325</ele>
<time>2010-08-29T08:31:59Z</time>
<desc>lat.=55.948593, lon.=26.535646, Alt.=139.658325m. Speed=4.068000m/h.</desc>
<speed>1.130000</speed>
</trkpt>
<trkpt lat="55.948589" lon="26.535675">
<ele>139.572388</ele>
<time>2010-08-29T08:32:00Z</time>
<desc>lat.=55.948589, lon.=26.535675, Alt.=139.572388m. Speed=4.356000m/h.</desc>
<speed>1.210000</speed>
</trkpt>
<trkpt lat="55.948586" lon="26.535707">
<ele>139.443481</ele>
<time>2010-08-29T08:32:01Z</time>
<desc>lat.=55.948586, lon.=26.535707, Alt.=139.443481m. Speed=4.356000m/h.</desc>
<speed>1.210000</speed>
</trkpt>
<trkpt lat="55.948582" lon="26.535738">
<ele>139.255981</ele>
<time>2010-08-29T08:32:02Z</time>
<desc>lat.=55.948582, lon.=26.535738, Alt.=139.255981m. Speed=4.284000m/h.</desc>
<speed>1.190000</speed>
</trkpt>
<trkpt lat="55.948578" lon="26.535767">
<ele>139.060669</ele>
<time>2010-08-29T08:32:03Z</time>
<desc>lat.=55.948578, lon.=26.535767, Alt.=139.060669m. Speed=4.212000m/h.</desc>
<speed>1.170000</speed>
</trkpt>
<trkpt lat="55.948574" lon="26.535799">
<ele>139.041138</ele>
<time>2010-08-29T08:32:04Z</time>
<desc>lat.=55.948574, lon.=26.535799, Alt.=139.041138m. Speed=3.960000m/h.</desc>
<speed>1.100000</speed>
</trkpt>
<trkpt lat="55.948578" lon="26.535830">
<ele>139.060669</ele>
<time>2010-08-29T08:32:05Z</time>
<desc>lat.=55.948578, lon.=26.535830, Alt.=139.060669m. Speed=3.924000m/h.</desc>
<speed>1.090000</speed>
</trkpt>
<trkpt lat="55.948570" lon="26.535843">
<ele>139.009888</ele>
<time>2010-08-29T08:32:06Z</time>
<desc>lat.=55.948570, lon.=26.535843, Alt.=139.009888m. Speed=2.880000m/h.</desc>
<speed>0.800000</speed>
</trkpt>
<trkpt lat="55.948574" lon="26.535887">
<ele>139.697388</ele>
<time>2010-08-29T08:32:07Z</time>
<desc>lat.=55.948574, lon.=26.535887, Alt.=139.697388m. Speed=1.548000m/h.</desc>
<speed>0.430000</speed>
</trkpt>
<trkpt lat="55.948574" lon="26.535908">
<ele>139.931763</ele>
<time>2010-08-29T08:32:08Z</time>
<desc>lat.=55.948574, lon.=26.535908, Alt.=139.931763m. Speed=0.504000m/h.</desc>
<speed>0.140000</speed>
</trkpt>
<trkpt lat="55.948566" lon="26.535917">
<ele>139.861450</ele>
<time>2010-08-29T08:32:09Z</time>
<desc>lat.=55.948566, lon.=26.535917, Alt.=139.861450m. Speed=0.468000m/h.</desc>
<speed>0.130000</speed>
</trkpt>
<trkpt lat="55.948559" lon="26.535931">
<ele>139.834106</ele>
<time>2010-08-29T08:32:10Z</time>
<desc>lat.=55.948559, lon.=26.535931, Alt.=139.834106m. Speed=0.648000m/h.</desc>
<speed>0.180000</speed>
</trkpt>
<trkpt lat="55.948544" lon="26.535936">
<ele>139.630981</ele>
<time>2010-08-29T08:32:11Z</time>
<desc>lat.=55.948544, lon.=26.535936, Alt.=139.630981m. Speed=0.720000m/h.</desc>
<speed>0.200000</speed>
</trkpt>
<trkpt lat="55.948544" lon="26.535938">
<ele>139.611450</ele>
<time>2010-08-29T08:32:12Z</time>
<desc>lat.=55.948544, lon.=26.535938, Alt.=139.611450m. Speed=0.432000m/h.</desc>
<speed>0.120000</speed>
</trkpt>
<trkpt lat="55.948544" lon="26.535938">
<ele>139.595825</ele>
<time>2010-08-29T08:32:13Z</time>
<desc>lat.=55.948544, lon.=26.535938, Alt.=139.595825m. Speed=0.108000m/h.</desc>
<speed>0.030000</speed>
</trkpt>
<trkpt lat="55.948544" lon="26.535938">
<ele>139.584106</ele>
<time>2010-08-29T08:32:14Z</time>
<desc>lat.=55.948544, lon.=26.535938, Alt.=139.584106m. Speed=0.720000m/h.</desc>
<speed>0.200000</speed>
</trkpt>
<trkpt lat="55.948544" lon="26.535942">
<ele>139.572388</ele>
<time>2010-08-29T08:32:15Z</time>
<desc>lat.=55.948544, lon.=26.535942, Alt.=139.572388m. Speed=0.648000m/h.</desc>
<speed>0.180000</speed>
</trkpt>
<trkpt lat="55.948540" lon="26.535946">
<ele>139.560669</ele>
<time>2010-08-29T08:32:16Z</time>
<desc>lat.=55.948540, lon.=26.535946, Alt.=139.560669m. Speed=0.612000m/h.</desc>
<speed>0.170000</speed>
</trkpt>
<trkpt lat="55.948540" lon="26.535948">
<ele>139.552856</ele>
<time>2010-08-29T08:32:17Z</time>
<desc>lat.=55.948540, lon.=26.535948, Alt.=139.552856m. Speed=0.432000m/h.</desc>
<speed>0.120000</speed>
</trkpt>
<trkpt lat="55.948540" lon="26.535950">
<ele>139.545044</ele>
<time>2010-08-29T08:32:18Z</time>
<desc>lat.=55.948540, lon.=26.535950, Alt.=139.545044m. Speed=1.152000m/h.</desc>
<speed>0.320000</speed>
</trkpt>
<trkpt lat="55.948532" lon="26.535963">
<ele>139.341919</ele>
<time>2010-08-29T08:32:19Z</time>
<desc>lat.=55.948532, lon.=26.535963, Alt.=139.341919m. Speed=0.900000m/h.</desc>
<speed>0.250000</speed>
</trkpt>
<trkpt lat="55.948524" lon="26.535976">
<ele>139.306763</ele>
<time>2010-08-29T08:32:20Z</time>
<desc>lat.=55.948524, lon.=26.535976, Alt.=139.306763m. Speed=0.756000m/h.</desc>
<speed>0.210000</speed>
</trkpt>
<trkpt lat="55.948521" lon="26.535994">
<ele>139.365356</ele>
<time>2010-08-29T08:32:21Z</time>
<desc>lat.=55.948521, lon.=26.535994, Alt.=139.365356m. Speed=0.828000m/h.</desc>
<speed>0.230000</speed>
</trkpt>
<trkpt lat="55.948517" lon="26.536011">
<ele>139.267700</ele>
<time>2010-08-29T08:32:22Z</time>
<desc>lat.=55.948517, lon.=26.536011, Alt.=139.267700m. Speed=1.116000m/h.</desc>
<speed>0.310000</speed>
</trkpt>
<trkpt lat="55.948517" lon="26.536026">
<ele>139.146606</ele>
<time>2010-08-29T08:32:23Z</time>
<desc>lat.=55.948517, lon.=26.536026, Alt.=139.146606m. Speed=0.792000m/h.</desc>
<speed>0.220000</speed>
</trkpt>
<trkpt lat="55.948521" lon="26.536037">
<ele>138.818481</ele>
<time>2010-08-29T08:32:24Z</time>
<desc>lat.=55.948521, lon.=26.536037, Alt.=138.818481m. Speed=0.792000m/h.</desc>
<speed>0.220000</speed>
</trkpt>
<trkpt lat="55.948528" lon="26.536045">
<ele>138.670044</ele>
<time>2010-08-29T08:32:25Z</time>
<desc>lat.=55.948528, lon.=26.536045, Alt.=138.670044m. Speed=0.936000m/h.</desc>
<speed>0.260000</speed>
</trkpt>
<trkpt lat="55.948524" lon="26.536047">
<ele>138.603638</ele>
<time>2010-08-29T08:32:26Z</time>
<desc>lat.=55.948524, lon.=26.536047, Alt.=138.603638m. Speed=0.216000m/h.</desc>
<speed>0.060000</speed>
</trkpt>
<trkpt lat="55.948528" lon="26.536047">
<ele>138.584106</ele>
<time>2010-08-29T08:32:27Z</time>
<desc>lat.=55.948528, lon.=26.536047, Alt.=138.584106m. Speed=0.612000m/h.</desc>
<speed>0.170000</speed>
</trkpt>
<trkpt lat="55.948528" lon="26.536047">
<ele>138.568481</ele>
<time>2010-08-29T08:32:28Z</time>
<desc>lat.=55.948528, lon.=26.536047, Alt.=138.568481m. Speed=0.576000m/h.</desc>
<speed>0.160000</speed>
</trkpt>
<trkpt lat="55.948528" lon="26.536045">
<ele>138.560669</ele>
<time>2010-08-29T08:32:29Z</time>
<desc>lat.=55.948528, lon.=26.536045, Alt.=138.560669m. Speed=1.296000m/h.</desc>
<speed>0.360000</speed>
</trkpt>
<trkpt lat="55.948528" lon="26.536041">
<ele>138.388794</ele>
<time>2010-08-29T08:32:30Z</time>
<desc>lat.=55.948528, lon.=26.536041, Alt.=138.388794m. Speed=1.296000m/h.</desc>
<speed>0.360000</speed>
</trkpt>
<trkpt lat="55.948524" lon="26.536036">
<ele>138.255981</ele>
<time>2010-08-29T08:32:31Z</time>
<desc>lat.=55.948524, lon.=26.536036, Alt.=138.255981m. Speed=1.080000m/h.</desc>
<speed>0.300000</speed>
</trkpt>
<trkpt lat="55.948524" lon="26.536032">
<ele>138.306763</ele>
<time>2010-08-29T08:32:32Z</time>
<desc>lat.=55.948524, lon.=26.536032, Alt.=138.306763m. Speed=0.540000m/h.</desc>
<speed>0.150000</speed>
</trkpt>
<trkpt lat="55.948528" lon="26.536034">
<ele>138.236450</ele>
<time>2010-08-29T08:32:33Z</time>
<desc>lat.=55.948528, lon.=26.536034, Alt.=138.236450m. Speed=0.468000m/h.</desc>
<speed>0.130000</speed>
</trkpt>
<trkpt lat="55.948524" lon="26.536024">
<ele>138.099731</ele>
<time>2010-08-29T08:32:34Z</time>
<desc>lat.=55.948524, lon.=26.536024, Alt.=138.099731m. Speed=1.008000m/h.</desc>
<speed>0.280000</speed>
</trkpt>
<trkpt lat="55.948536" lon="26.536016">
<ele>138.111450</ele>
<time>2010-08-29T08:32:35Z</time>
<desc>lat.=55.948536, lon.=26.536016, Alt.=138.111450m. Speed=1.656000m/h.</desc>
<speed>0.460000</speed>
</trkpt>
<trkpt lat="55.948532" lon="26.535995">
<ele>137.994263</ele>
<time>2010-08-29T08:32:36Z</time>
<desc>lat.=55.948532, lon.=26.535995, Alt.=137.994263m. Speed=2.664000m/h.</desc>
<speed>0.740000</speed>
</trkpt>
<trkpt lat="55.948540" lon="26.535969">
<ele>137.802856</ele>
<time>2010-08-29T08:32:37Z</time>
<desc>lat.=55.948540, lon.=26.535969, Alt.=137.802856m. Speed=3.888000m/h.</desc>
<speed>1.080000</speed>
</trkpt>
<trkpt lat="55.948547" lon="26.535952">
<ele>137.779419</ele>
<time>2010-08-29T08:32:38Z</time>
<desc>lat.=55.948547, lon.=26.535952, Alt.=137.779419m. Speed=3.780000m/h.</desc>
<speed>1.050000</speed>
</trkpt>
<trkpt lat="55.948551" lon="26.535923">
<ele>137.767700</ele>
<time>2010-08-29T08:32:39Z</time>
<desc>lat.=55.948551, lon.=26.535923, Alt.=137.767700m. Speed=4.608000m/h.</desc>
<speed>1.280000</speed>
</trkpt>
<trkpt lat="55.948563" lon="26.535896">
<ele>137.709106</ele>
<time>2010-08-29T08:32:40Z</time>
<desc>lat.=55.948563, lon.=26.535896, Alt.=137.709106m. Speed=5.508000m/h.</desc>
<speed>1.530000</speed>
</trkpt>
<trkpt lat="55.948566" lon="26.535870">
<ele>137.705200</ele>
<time>2010-08-29T08:32:41Z</time>
<desc>lat.=55.948566, lon.=26.535870, Alt.=137.705200m. Speed=5.544000m/h.</desc>
<speed>1.540000</speed>
</trkpt>
<trkpt lat="55.948570" lon="26.535847">
<ele>137.802856</ele>
<time>2010-08-29T08:32:42Z</time>
<desc>lat.=55.948570, lon.=26.535847, Alt.=137.802856m. Speed=5.292000m/h.</desc>
<speed>1.470000</speed>
</trkpt>
<trkpt lat="55.948570" lon="26.535818">
<ele>137.994263</ele>
<time>2010-08-29T08:32:43Z</time>
<desc>lat.=55.948570, lon.=26.535818, Alt.=137.994263m. Speed=4.320000m/h.</desc>
<speed>1.200000</speed>
</trkpt>
<trkpt lat="55.948574" lon="26.535797">
<ele>138.181763</ele>
<time>2010-08-29T08:32:44Z</time>
<desc>lat.=55.948574, lon.=26.535797, Alt.=138.181763m. Speed=2.592000m/h.</desc>
<speed>0.720000</speed>
</trkpt>
<trkpt lat="55.948578" lon="26.535772">
<ele>138.154419</ele>
<time>2010-08-29T08:32:45Z</time>
<desc>lat.=55.948578, lon.=26.535772, Alt.=138.154419m. Speed=3.744000m/h.</desc>
<speed>1.040000</speed>
</trkpt>
<trkpt lat="55.948578" lon="26.535732">
<ele>138.138794</ele>
<time>2010-08-29T08:32:46Z</time>
<desc>lat.=55.948578, lon.=26.535732, Alt.=138.138794m. Speed=4.320000m/h.</desc>
<speed>1.200000</speed>
</trkpt>
<trkpt lat="55.948578" lon="26.535690">
<ele>138.060669</ele>
<time>2010-08-29T08:32:47Z</time>
<desc>lat.=55.948578, lon.=26.535690, Alt.=138.060669m. Speed=5.112000m/h.</desc>
<speed>1.420000</speed>
</trkpt>
<trkpt lat="55.948570" lon="26.535658">
<ele>138.127075</ele>
<time>2010-08-29T08:32:48Z</time>
<desc>lat.=55.948570, lon.=26.535658, Alt.=138.127075m. Speed=5.328000m/h.</desc>
<speed>1.480000</speed>
</trkpt>
<trkpt lat="55.948555" lon="26.535614">
<ele>138.431763</ele>
<time>2010-08-29T08:32:49Z</time>
<desc>lat.=55.948555, lon.=26.535614, Alt.=138.431763m. Speed=6.804000m/h.</desc>
<speed>1.890000</speed>
</trkpt>
<trkpt lat="55.948544" lon="26.535578">
<ele>138.326294</ele>
<time>2010-08-29T08:32:50Z</time>
<desc>lat.=55.948544, lon.=26.535578, Alt.=138.326294m. Speed=6.984000m/h.</desc>
<speed>1.940000</speed>
</trkpt>
<trkpt lat="55.948540" lon="26.535540">
<ele>138.259888</ele>
<time>2010-08-29T08:32:51Z</time>
<desc>lat.=55.948540, lon.=26.535540, Alt.=138.259888m. Speed=5.040000m/h.</desc>
<speed>1.400000</speed>
</trkpt>
<trkpt lat="55.948521" lon="26.535484">
<ele>138.588013</ele>
<time>2010-08-29T08:32:52Z</time>
<desc>lat.=55.948521, lon.=26.535484, Alt.=138.588013m. Speed=6.588000m/h.</desc>
<speed>1.830000</speed>
</trkpt>
<trkpt lat="55.948517" lon="26.535440">
<ele>138.646606</ele>
<time>2010-08-29T08:32:53Z</time>
<desc>lat.=55.948517, lon.=26.535440, Alt.=138.646606m. Speed=6.516000m/h.</desc>
<speed>1.810000</speed>
</trkpt>
<trkpt lat="55.948509" lon="26.535400">
<ele>138.759888</ele>
<time>2010-08-29T08:32:54Z</time>
<desc>lat.=55.948509, lon.=26.535400, Alt.=138.759888m. Speed=6.444000m/h.</desc>
<speed>1.790000</speed>
</trkpt>
<trkpt lat="55.948502" lon="26.535368">
<ele>138.884888</ele>
<time>2010-08-29T08:32:55Z</time>
<desc>lat.=55.948502, lon.=26.535368, Alt.=138.884888m. Speed=5.508000m/h.</desc>
<speed>1.530000</speed>
</trkpt>
<trkpt lat="55.948486" lon="26.535326">
<ele>138.955200</ele>
<time>2010-08-29T08:32:56Z</time>
<desc>lat.=55.948486, lon.=26.535326, Alt.=138.955200m. Speed=6.444000m/h.</desc>
<speed>1.790000</speed>
</trkpt>
<trkpt lat="55.948479" lon="26.535286">
<ele>139.072388</ele>
<time>2010-08-29T08:32:57Z</time>
<desc>lat.=55.948479, lon.=26.535286, Alt.=139.072388m. Speed=8.532000m/h.</desc>
<speed>2.370000</speed>
</trkpt>
<trkpt lat="55.948483" lon="26.535255">
<ele>139.060669</ele>
<time>2010-08-29T08:32:58Z</time>
<desc>lat.=55.948483, lon.=26.535255, Alt.=139.060669m. Speed=7.272000m/h.</desc>
<speed>2.020000</speed>
</trkpt>
<trkpt lat="55.948479" lon="26.535215">
<ele>139.017700</ele>
<time>2010-08-29T08:32:59Z</time>
<desc>lat.=55.948479, lon.=26.535215, Alt.=139.017700m. Speed=7.308000m/h.</desc>
<speed>2.030000</speed>
</trkpt>
<trkpt lat="55.948471" lon="26.535170">
<ele>138.974731</ele>
<time>2010-08-29T08:33:00Z</time>
<desc>lat.=55.948471, lon.=26.535170, Alt.=138.974731m. Speed=7.884000m/h.</desc>
<speed>2.190000</speed>
</trkpt>
<trkpt lat="55.948467" lon="26.535141">
<ele>139.146606</ele>
<time>2010-08-29T08:33:01Z</time>
<desc>lat.=55.948467, lon.=26.535141, Alt.=139.146606m. Speed=5.328000m/h.</desc>
<speed>1.480000</speed>
</trkpt>
<trkpt lat="55.948463" lon="26.535116">
<ele>139.271606</ele>
<time>2010-08-29T08:33:02Z</time>
<desc>lat.=55.948463, lon.=26.535116, Alt.=139.271606m. Speed=4.680000m/h.</desc>
<speed>1.300000</speed>
</trkpt>
<trkpt lat="55.948456" lon="26.535089">
<ele>139.595825</ele>
<time>2010-08-29T08:33:03Z</time>
<desc>lat.=55.948456, lon.=26.535089, Alt.=139.595825m. Speed=5.904000m/h.</desc>
<speed>1.640000</speed>
</trkpt>
<trkpt lat="55.948448" lon="26.535059">
<ele>139.884888</ele>
<time>2010-08-29T08:33:04Z</time>
<desc>lat.=55.948448, lon.=26.535059, Alt.=139.884888m. Speed=5.148000m/h.</desc>
<speed>1.430000</speed>
</trkpt>
<trkpt lat="55.948437" lon="26.535025">
<ele>140.009888</ele>
<time>2010-08-29T08:33:05Z</time>
<desc>lat.=55.948437, lon.=26.535025, Alt.=140.009888m. Speed=4.932000m/h.</desc>
<speed>1.370000</speed>
</trkpt>
<trkpt lat="55.948418" lon="26.534981">
<ele>140.435669</ele>
<time>2010-08-29T08:33:06Z</time>
<desc>lat.=55.948418, lon.=26.534981, Alt.=140.435669m. Speed=4.680000m/h.</desc>
<speed>1.300000</speed>
</trkpt>
<trkpt lat="55.948414" lon="26.534948">
<ele>140.568481</ele>
<time>2010-08-29T08:33:07Z</time>
<desc>lat.=55.948414, lon.=26.534948, Alt.=140.568481m. Speed=6.372000m/h.</desc>
<speed>1.770000</speed>
</trkpt>
<trkpt lat="55.948410" lon="26.534912">
<ele>140.670044</ele>
<time>2010-08-29T08:33:08Z</time>
<desc>lat.=55.948410, lon.=26.534912, Alt.=140.670044m. Speed=6.156000m/h.</desc>
<speed>1.710000</speed>
</trkpt>
<trkpt lat="55.948414" lon="26.534887">
<ele>140.459106</ele>
<time>2010-08-29T08:33:09Z</time>
<desc>lat.=55.948414, lon.=26.534887, Alt.=140.459106m. Speed=3.636000m/h.</desc>
<speed>1.010000</speed>
</trkpt>
<trkpt lat="55.948425" lon="26.534868">
<ele>140.287231</ele>
<time>2010-08-29T08:33:10Z</time>
<desc>lat.=55.948425, lon.=26.534868, Alt.=140.287231m. Speed=4.500000m/h.</desc>
<speed>1.250000</speed>
</trkpt>
<trkpt lat="55.948441" lon="26.534851">
<ele>140.228638</ele>
<time>2010-08-29T08:33:11Z</time>
<desc>lat.=55.948441, lon.=26.534851, Alt.=140.228638m. Speed=6.660000m/h.</desc>
<speed>1.850000</speed>
</trkpt>
<trkpt lat="55.948456" lon="26.534832">
<ele>140.130981</ele>
<time>2010-08-29T08:33:12Z</time>
<desc>lat.=55.948456, lon.=26.534832, Alt.=140.130981m. Speed=6.588000m/h.</desc>
<speed>1.830000</speed>
</trkpt>
<trkpt lat="55.948471" lon="26.534807">
<ele>140.283325</ele>
<time>2010-08-29T08:33:13Z</time>
<desc>lat.=55.948471, lon.=26.534807, Alt.=140.283325m. Speed=5.472000m/h.</desc>
<speed>1.520000</speed>
</trkpt>
<trkpt lat="55.948505" lon="26.534773">
<ele>140.931763</ele>
<time>2010-08-29T08:33:14Z</time>
<desc>lat.=55.948505, lon.=26.534773, Alt.=140.931763m. Speed=7.848000m/h.</desc>
<speed>2.180000</speed>
</trkpt>
<trkpt lat="55.948517" lon="26.534723">
<ele>140.912231</ele>
<time>2010-08-29T08:33:15Z</time>
<desc>lat.=55.948517, lon.=26.534723, Alt.=140.912231m. Speed=7.236000m/h.</desc>
<speed>2.010000</speed>
</trkpt>
<trkpt lat="55.948524" lon="26.534693">
<ele>140.990356</ele>
<time>2010-08-29T08:33:16Z</time>
<desc>lat.=55.948524, lon.=26.534693, Alt.=140.990356m. Speed=4.860000m/h.</desc>
<speed>1.350000</speed>
</trkpt>
<trkpt lat="55.948528" lon="26.534664">
<ele>141.080200</ele>
<time>2010-08-29T08:33:17Z</time>
<desc>lat.=55.948528, lon.=26.534664, Alt.=141.080200m. Speed=6.156000m/h.</desc>
<speed>1.710000</speed>
</trkpt>
<trkpt lat="55.948536" lon="26.534634">
<ele>141.236450</ele>
<time>2010-08-29T08:33:18Z</time>
<desc>lat.=55.948536, lon.=26.534634, Alt.=141.236450m. Speed=7.092000m/h.</desc>
<speed>1.970000</speed>
</trkpt>
<trkpt lat="55.948547" lon="26.534603">
<ele>141.396606</ele>
<time>2010-08-29T08:33:19Z</time>
<desc>lat.=55.948547, lon.=26.534603, Alt.=141.396606m. Speed=6.192000m/h.</desc>
<speed>1.720000</speed>
</trkpt>
<trkpt lat="55.948555" lon="26.534571">
<ele>141.556763</ele>
<time>2010-08-29T08:33:20Z</time>
<desc>lat.=55.948555, lon.=26.534571, Alt.=141.556763m. Speed=5.760000m/h.</desc>
<speed>1.600000</speed>
</trkpt>
<trkpt lat="55.948563" lon="26.534533">
<ele>141.658325</ele>
<time>2010-08-29T08:33:21Z</time>
<desc>lat.=55.948563, lon.=26.534533, Alt.=141.658325m. Speed=6.372000m/h.</desc>
<speed>1.770000</speed>
</trkpt>
<trkpt lat="55.948570" lon="26.534489">
<ele>141.896606</ele>
<time>2010-08-29T08:33:22Z</time>
<desc>lat.=55.948570, lon.=26.534489, Alt.=141.896606m. Speed=6.120000m/h.</desc>
<speed>1.700000</speed>
</trkpt>
<trkpt lat="55.948578" lon="26.534441">
<ele>142.228638</ele>
<time>2010-08-29T08:33:23Z</time>
<desc>lat.=55.948578, lon.=26.534441, Alt.=142.228638m. Speed=5.868000m/h.</desc>
<speed>1.630000</speed>
</trkpt>
<trkpt lat="55.948582" lon="26.534401">
<ele>142.408325</ele>
<time>2010-08-29T08:33:24Z</time>
<desc>lat.=55.948582, lon.=26.534401, Alt.=142.408325m. Speed=5.364000m/h.</desc>
<speed>1.490000</speed>
</trkpt>
<trkpt lat="55.948578" lon="26.534361">
<ele>142.447388</ele>
<time>2010-08-29T08:33:25Z</time>
<desc>lat.=55.948578, lon.=26.534361, Alt.=142.447388m. Speed=5.004000m/h.</desc>
<speed>1.390000</speed>
</trkpt>
<trkpt lat="55.948582" lon="26.534327">
<ele>142.392700</ele>
<time>2010-08-29T08:33:26Z</time>
<desc>lat.=55.948582, lon.=26.534327, Alt.=142.392700m. Speed=4.356000m/h.</desc>
<speed>1.210000</speed>
</trkpt>
<trkpt lat="55.948586" lon="26.534283">
<ele>142.283325</ele>
<time>2010-08-29T08:33:27Z</time>
<desc>lat.=55.948586, lon.=26.534283, Alt.=142.283325m. Speed=5.616000m/h.</desc>
<speed>1.560000</speed>
</trkpt>
<trkpt lat="55.948586" lon="26.534241">
<ele>142.173950</ele>
<time>2010-08-29T08:33:28Z</time>
<desc>lat.=55.948586, lon.=26.534241, Alt.=142.173950m. Speed=5.040000m/h.</desc>
<speed>1.400000</speed>
</trkpt>
<trkpt lat="55.948586" lon="26.534195">
<ele>141.931763</ele>
<time>2010-08-29T08:33:29Z</time>
<desc>lat.=55.948586, lon.=26.534195, Alt.=141.931763m. Speed=5.220000m/h.</desc>
<speed>1.450000</speed>
</trkpt>
<trkpt lat="55.948597" lon="26.534163">
<ele>142.158325</ele>
<time>2010-08-29T08:33:30Z</time>
<desc>lat.=55.948597, lon.=26.534163, Alt.=142.158325m. Speed=4.248000m/h.</desc>
<speed>1.180000</speed>
</trkpt>
<trkpt lat="55.948597" lon="26.534119">
<ele>142.248169</ele>
<time>2010-08-29T08:33:31Z</time>
<desc>lat.=55.948597, lon.=26.534119, Alt.=142.248169m. Speed=5.364000m/h.</desc>
<speed>1.490000</speed>
</trkpt>
<trkpt lat="55.948601" lon="26.534077">
<ele>142.396606</ele>
<time>2010-08-29T08:33:32Z</time>
<desc>lat.=55.948601, lon.=26.534077, Alt.=142.396606m. Speed=6.048000m/h.</desc>
<speed>1.680000</speed>
</trkpt>
<trkpt lat="55.948601" lon="26.534035">
<ele>142.521606</ele>
<time>2010-08-29T08:33:33Z</time>
<desc>lat.=55.948601, lon.=26.534035, Alt.=142.521606m. Speed=5.364000m/h.</desc>
<speed>1.490000</speed>
</trkpt>
<trkpt lat="55.948601" lon="26.533979">
<ele>142.654419</ele>
<time>2010-08-29T08:33:34Z</time>
<desc>lat.=55.948601, lon.=26.533979, Alt.=142.654419m. Speed=6.840000m/h.</desc>
<speed>1.900000</speed>
</trkpt>
<trkpt lat="55.948605" lon="26.533907">
<ele>143.244263</ele>
<time>2010-08-29T08:33:35Z</time>
<desc>lat.=55.948605, lon.=26.533907, Alt.=143.244263m. Speed=7.992000m/h.</desc>
<speed>2.220000</speed>
</trkpt>
<trkpt lat="55.948612" lon="26.533855">
<ele>143.177856</ele>
<time>2010-08-29T08:33:36Z</time>
<desc>lat.=55.948612, lon.=26.533855, Alt.=143.177856m. Speed=9.180000m/h.</desc>
<speed>2.550000</speed>
</trkpt>
<trkpt lat="55.948635" lon="26.533815">
<ele>143.517700</ele>
<time>2010-08-29T08:33:37Z</time>
<desc>lat.=55.948635, lon.=26.533815, Alt.=143.517700m. Speed=7.416000m/h.</desc>
<speed>2.060000</speed>
</trkpt>
<trkpt lat="55.948647" lon="26.533773">
<ele>143.541138</ele>
<time>2010-08-29T08:33:38Z</time>
<desc>lat.=55.948647, lon.=26.533773, Alt.=143.541138m. Speed=7.596000m/h.</desc>
<speed>2.110000</speed>
</trkpt>
<trkpt lat="55.948650" lon="26.533724">
<ele>143.396606</ele>
<time>2010-08-29T08:33:39Z</time>
<desc>lat.=55.948650, lon.=26.533724, Alt.=143.396606m. Speed=6.372000m/h.</desc>
<speed>1.770000</speed>
</trkpt>
<trkpt lat="55.948658" lon="26.533676">
<ele>143.408325</ele>
<time>2010-08-29T08:33:40Z</time>
<desc>lat.=55.948658, lon.=26.533676, Alt.=143.408325m. Speed=5.508000m/h.</desc>
<speed>1.530000</speed>
</trkpt>
<trkpt lat="55.948669" lon="26.533613">
<ele>143.298950</ele>
<time>2010-08-29T08:33:41Z</time>
<desc>lat.=55.948669, lon.=26.533613, Alt.=143.298950m. Speed=7.740000m/h.</desc>
<speed>2.150000</speed>
</trkpt>
<trkpt lat="55.948673" lon="26.533566">
<ele>143.275513</ele>
<time>2010-08-29T08:33:42Z</time>
<desc>lat.=55.948673, lon.=26.533566, Alt.=143.275513m. Speed=6.768000m/h.</desc>
<speed>1.880000</speed>
</trkpt>
<trkpt lat="55.948685" lon="26.533520">
<ele>142.990356</ele>
<time>2010-08-29T08:33:43Z</time>
<desc>lat.=55.948685, lon.=26.533520, Alt.=142.990356m. Speed=7.992000m/h.</desc>
<speed>2.220000</speed>
</trkpt>
<trkpt lat="55.948704" lon="26.533463">
<ele>142.189575</ele>
<time>2010-08-29T08:33:44Z</time>
<desc>lat.=55.948704, lon.=26.533463, Alt.=142.189575m. Speed=10.044000m/h.</desc>
<speed>2.790000</speed>
</trkpt>
<trkpt lat="55.948727" lon="26.533417">
<ele>141.974731</ele>
<time>2010-08-29T08:33:45Z</time>
<desc>lat.=55.948727, lon.=26.533417, Alt.=141.974731m. Speed=9.720000m/h.</desc>
<speed>2.700000</speed>
</trkpt>
<trkpt lat="55.948738" lon="26.533365">
<ele>142.150513</ele>
<time>2010-08-29T08:33:46Z</time>
<desc>lat.=55.948738, lon.=26.533365, Alt.=142.150513m. Speed=9.144000m/h.</desc>
<speed>2.540000</speed>
</trkpt>
<trkpt lat="55.948746" lon="26.533319">
<ele>142.072388</ele>
<time>2010-08-29T08:33:47Z</time>
<desc>lat.=55.948746, lon.=26.533319, Alt.=142.072388m. Speed=8.208000m/h.</desc>
<speed>2.280000</speed>
</trkpt>
<trkpt lat="55.948761" lon="26.533260">
<ele>141.412231</ele>
<time>2010-08-29T08:33:48Z</time>
<desc>lat.=55.948761, lon.=26.533260, Alt.=141.412231m. Speed=8.820000m/h.</desc>
<speed>2.450000</speed>
</trkpt>
<trkpt lat="55.948769" lon="26.533205">
<ele>141.377075</ele>
<time>2010-08-29T08:33:49Z</time>
<desc>lat.=55.948769, lon.=26.533205, Alt.=141.377075m. Speed=7.128000m/h.</desc>
<speed>1.980000</speed>
</trkpt>
<trkpt lat="55.948776" lon="26.533155">
<ele>141.209106</ele>
<time>2010-08-29T08:33:50Z</time>
<desc>lat.=55.948776, lon.=26.533155, Alt.=141.209106m. Speed=7.272000m/h.</desc>
<speed>2.020000</speed>
</trkpt>
<trkpt lat="55.948792" lon="26.533115">
<ele>140.931763</ele>
<time>2010-08-29T08:33:51Z</time>
<desc>lat.=55.948792, lon.=26.533115, Alt.=140.931763m. Speed=8.316000m/h.</desc>
<speed>2.310000</speed>
</trkpt>
<trkpt lat="55.948807" lon="26.533079">
<ele>140.630981</ele>
<time>2010-08-29T08:33:52Z</time>
<desc>lat.=55.948807, lon.=26.533079, Alt.=140.630981m. Speed=8.604000m/h.</desc>
<speed>2.390000</speed>
</trkpt>
<trkpt lat="55.948822" lon="26.533039">
<ele>140.970825</ele>
<time>2010-08-29T08:33:53Z</time>
<desc>lat.=55.948822, lon.=26.533039, Alt.=140.970825m. Speed=6.984000m/h.</desc>
<speed>1.940000</speed>
</trkpt>
<trkpt lat="55.948845" lon="26.532993">
<ele>142.896606</ele>
<time>2010-08-29T08:33:54Z</time>
<desc>lat.=55.948845, lon.=26.532993, Alt.=142.896606m. Speed=8.460000m/h.</desc>
<speed>2.350000</speed>
</trkpt>
<trkpt lat="55.948860" lon="26.532951">
<ele>143.947388</ele>
<time>2010-08-29T08:33:55Z</time>
<desc>lat.=55.948860, lon.=26.532951, Alt.=143.947388m. Speed=6.588000m/h.</desc>
<speed>1.830000</speed>
</trkpt>
<trkpt lat="55.948887" lon="26.532902">
<ele>144.572388</ele>
<time>2010-08-29T08:33:56Z</time>
<desc>lat.=55.948887, lon.=26.532902, Alt.=144.572388m. Speed=9.396000m/h.</desc>
<speed>2.610000</speed>
</trkpt>
<trkpt lat="55.948902" lon="26.532869">
<ele>144.166138</ele>
<time>2010-08-29T08:33:57Z</time>
<desc>lat.=55.948902, lon.=26.532869, Alt.=144.166138m. Speed=7.740000m/h.</desc>
<speed>2.150000</speed>
</trkpt>
<trkpt lat="55.948929" lon="26.532841">
<ele>145.220825</ele>
<time>2010-08-29T08:33:58Z</time>
<desc>lat.=55.948929, lon.=26.532841, Alt.=145.220825m. Speed=10.332000m/h.</desc>
<speed>2.870000</speed>
</trkpt>
<trkpt lat="55.948956" lon="26.532776">
<ele>145.580200</ele>
<time>2010-08-29T08:33:59Z</time>
<desc>lat.=55.948956, lon.=26.532776, Alt.=145.580200m. Speed=13.320000m/h.</desc>
<speed>3.700000</speed>
</trkpt>
<trkpt lat="55.948982" lon="26.532719">
<ele>146.724731</ele>
<time>2010-08-29T08:34:00Z</time>
<desc>lat.=55.948982, lon.=26.532719, Alt.=146.724731m. Speed=11.412000m/h.</desc>
<speed>3.170000</speed>
</trkpt>
<trkpt lat="55.949013" lon="26.532671">
<ele>148.880981</ele>
<time>2010-08-29T08:34:01Z</time>
<desc>lat.=55.949013, lon.=26.532671, Alt.=148.880981m. Speed=12.492000m/h.</desc>
<speed>3.470000</speed>
</trkpt>
<trkpt lat="55.949039" lon="26.532614">
<ele>150.056763</ele>
<time>2010-08-29T08:34:02Z</time>
<desc>lat.=55.949039, lon.=26.532614, Alt.=150.056763m. Speed=14.976000m/h.</desc>
<speed>4.160000</speed>
</trkpt>
<trkpt lat="55.949070" lon="26.532562">
<ele>150.322388</ele>
<time>2010-08-29T08:34:03Z</time>
<desc>lat.=55.949070, lon.=26.532562, Alt.=150.322388m. Speed=12.420000m/h.</desc>
<speed>3.450000</speed>
</trkpt>
<trkpt lat="55.949097" lon="26.532513">
<ele>150.775513</ele>
<time>2010-08-29T08:34:04Z</time>
<desc>lat.=55.949097, lon.=26.532513, Alt.=150.775513m. Speed=10.692000m/h.</desc>
<speed>2.970000</speed>
</trkpt>
<trkpt lat="55.949123" lon="26.532427">
<ele>149.646606</ele>
<time>2010-08-29T08:34:05Z</time>
<desc>lat.=55.949123, lon.=26.532427, Alt.=149.646606m. Speed=10.188000m/h.</desc>
<speed>2.830000</speed>
</trkpt>
<trkpt lat="55.949146" lon="26.532352">
<ele>149.232544</ele>
<time>2010-08-29T08:34:06Z</time>
<desc>lat.=55.949146, lon.=26.532352, Alt.=149.232544m. Speed=11.592000m/h.</desc>
<speed>3.220000</speed>
</trkpt>
<trkpt lat="55.949169" lon="26.532295">
<ele>149.197388</ele>
<time>2010-08-29T08:34:07Z</time>
<desc>lat.=55.949169, lon.=26.532295, Alt.=149.197388m. Speed=11.448000m/h.</desc>
<speed>3.180000</speed>
</trkpt>
<trkpt lat="55.949207" lon="26.532240">
<ele>147.482544</ele>
<time>2010-08-29T08:34:08Z</time>
<desc>lat.=55.949207, lon.=26.532240, Alt.=147.482544m. Speed=12.420000m/h.</desc>
<speed>3.450000</speed>
</trkpt>
<trkpt lat="55.949234" lon="26.532206">
<ele>148.107544</ele>
<time>2010-08-29T08:34:09Z</time>
<desc>lat.=55.949234, lon.=26.532206, Alt.=148.107544m. Speed=11.196000m/h.</desc>
<speed>3.110000</speed>
</trkpt>
<trkpt lat="55.949257" lon="26.532158">
<ele>146.908325</ele>
<time>2010-08-29T08:34:10Z</time>
<desc>lat.=55.949257, lon.=26.532158, Alt.=146.908325m. Speed=11.232000m/h.</desc>
<speed>3.120000</speed>
</trkpt>
<trkpt lat="55.949287" lon="26.532110">
<ele>146.763794</ele>
<time>2010-08-29T08:34:11Z</time>
<desc>lat.=55.949287, lon.=26.532110, Alt.=146.763794m. Speed=10.008000m/h.</desc>
<speed>2.780000</speed>
</trkpt>
<trkpt lat="55.949303" lon="26.532047">
<ele>146.357544</ele>
<time>2010-08-29T08:34:12Z</time>
<desc>lat.=55.949303, lon.=26.532047, Alt.=146.357544m. Speed=9.684000m/h.</desc>
<speed>2.690000</speed>
</trkpt>
<trkpt lat="55.949329" lon="26.532000">
<ele>145.177856</ele>
<time>2010-08-29T08:34:13Z</time>
<desc>lat.=55.949329, lon.=26.532000, Alt.=145.177856m. Speed=10.296000m/h.</desc>
<speed>2.860000</speed>
</trkpt>
<trkpt lat="55.949356" lon="26.531958">
<ele>144.338013</ele>
<time>2010-08-29T08:34:14Z</time>
<desc>lat.=55.949356, lon.=26.531958, Alt.=144.338013m. Speed=11.016000m/h.</desc>
<speed>3.060000</speed>
</trkpt>
<trkpt lat="55.949379" lon="26.531906">
<ele>142.588013</ele>
<time>2010-08-29T08:34:15Z</time>
<desc>lat.=55.949379, lon.=26.531906, Alt.=142.588013m. Speed=8.892000m/h.</desc>
<speed>2.470000</speed>
</trkpt>
<trkpt lat="55.949402" lon="26.531864">
<ele>142.693481</ele>
<time>2010-08-29T08:34:16Z</time>
<desc>lat.=55.949402, lon.=26.531864, Alt.=142.693481m. Speed=7.272000m/h.</desc>
<speed>2.020000</speed>
</trkpt>
<trkpt lat="55.949455" lon="26.531811">
<ele>143.580200</ele>
<time>2010-08-29T08:34:17Z</time>
<desc>lat.=55.949455, lon.=26.531811, Alt.=143.580200m. Speed=8.820000m/h.</desc>
<speed>2.450000</speed>
</trkpt>
<trkpt lat="55.949467" lon="26.531740">
<ele>143.263794</ele>
<time>2010-08-29T08:34:18Z</time>
<desc>lat.=55.949467, lon.=26.531740, Alt.=143.263794m. Speed=8.064000m/h.</desc>
<speed>2.240000</speed>
</trkpt>
<trkpt lat="55.949471" lon="26.531677">
<ele>142.634888</ele>
<time>2010-08-29T08:34:19Z</time>
<desc>lat.=55.949471, lon.=26.531677, Alt.=142.634888m. Speed=8.424000m/h.</desc>
<speed>2.340000</speed>
</trkpt>
<trkpt lat="55.949490" lon="26.531624">
<ele>142.088013</ele>
<time>2010-08-29T08:34:20Z</time>
<desc>lat.=55.949490, lon.=26.531624, Alt.=142.088013m. Speed=9.864000m/h.</desc>
<speed>2.740000</speed>
</trkpt>
<trkpt lat="55.949516" lon="26.531590">
<ele>142.923950</ele>
<time>2010-08-29T08:34:21Z</time>
<desc>lat.=55.949516, lon.=26.531590, Alt.=142.923950m. Speed=6.840000m/h.</desc>
<speed>1.900000</speed>
</trkpt>
<trkpt lat="55.949528" lon="26.531525">
<ele>139.330200</ele>
<time>2010-08-29T08:34:22Z</time>
<desc>lat.=55.949528, lon.=26.531525, Alt.=139.330200m. Speed=5.760000m/h.</desc>
<speed>1.600000</speed>
</trkpt>
<trkpt lat="55.949520" lon="26.531466">
<ele>138.103638</ele>
<time>2010-08-29T08:34:23Z</time>
<desc>lat.=55.949520, lon.=26.531466, Alt.=138.103638m. Speed=6.624000m/h.</desc>
<speed>1.840000</speed>
</trkpt>
<trkpt lat="55.949524" lon="26.531427">
<ele>135.896606</ele>
<time>2010-08-29T08:34:24Z</time>
<desc>lat.=55.949524, lon.=26.531427, Alt.=135.896606m. Speed=3.132000m/h.</desc>
<speed>0.870000</speed>
</trkpt>
<trkpt lat="55.949535" lon="26.531418">
<ele>134.752075</ele>
<time>2010-08-29T08:34:25Z</time>
<desc>lat.=55.949535, lon.=26.531418, Alt.=134.752075m. Speed=4.248000m/h.</desc>
<speed>1.180000</speed>
</trkpt>
<trkpt lat="55.949547" lon="26.531397">
<ele>134.728638</ele>
<time>2010-08-29T08:34:26Z</time>
<desc>lat.=55.949547, lon.=26.531397, Alt.=134.728638m. Speed=2.880000m/h.</desc>
<speed>0.800000</speed>
</trkpt>
<trkpt lat="55.949551" lon="26.531393">
<ele>134.345825</ele>
<time>2010-08-29T08:34:27Z</time>
<desc>lat.=55.949551, lon.=26.531393, Alt.=134.345825m. Speed=3.204000m/h.</desc>
<speed>0.890000</speed>
</trkpt>
<trkpt lat="55.949558" lon="26.531395">
<ele>134.127075</ele>
<time>2010-08-29T08:34:28Z</time>
<desc>lat.=55.949558, lon.=26.531395, Alt.=134.127075m. Speed=3.708000m/h.</desc>
<speed>1.030000</speed>
</trkpt>
<trkpt lat="55.949570" lon="26.531393">
<ele>133.904419</ele>
<time>2010-08-29T08:34:29Z</time>
<desc>lat.=55.949570, lon.=26.531393, Alt.=133.904419m. Speed=6.516000m/h.</desc>
<speed>1.810000</speed>
</trkpt>
<trkpt lat="55.949589" lon="26.531404">
<ele>133.923950</ele>
<time>2010-08-29T08:34:30Z</time>
<desc>lat.=55.949589, lon.=26.531404, Alt.=133.923950m. Speed=8.100000m/h.</desc>
<speed>2.250000</speed>
</trkpt>
<trkpt lat="55.949608" lon="26.531420">
<ele>134.064575</ele>
<time>2010-08-29T08:34:31Z</time>
<desc>lat.=55.949608, lon.=26.531420, Alt.=134.064575m. Speed=8.640000m/h.</desc>
<speed>2.400000</speed>
</trkpt>
<trkpt lat="55.949627" lon="26.531443">
<ele>133.767700</ele>
<time>2010-08-29T08:34:32Z</time>
<desc>lat.=55.949627, lon.=26.531443, Alt.=133.767700m. Speed=8.928000m/h.</desc>
<speed>2.480000</speed>
</trkpt>
<trkpt lat="55.949657" lon="26.531456">
<ele>133.416138</ele>
<time>2010-08-29T08:34:33Z</time>
<desc>lat.=55.949657, lon.=26.531456, Alt.=133.416138m. Speed=9.360000m/h.</desc>
<speed>2.600000</speed>
</trkpt>
<trkpt lat="55.949711" lon="26.531466">
<ele>132.357544</ele>
<time>2010-08-29T08:34:34Z</time>
<desc>lat.=55.949711, lon.=26.531466, Alt.=132.357544m. Speed=11.592000m/h.</desc>
<speed>3.220000</speed>
</trkpt>
<trkpt lat="55.949741" lon="26.531481">
<ele>132.474731</ele>
<time>2010-08-29T08:34:35Z</time>
<desc>lat.=55.949741, lon.=26.531481, Alt.=132.474731m. Speed=10.260000m/h.</desc>
<speed>2.850000</speed>
</trkpt>
<trkpt lat="55.949776" lon="26.531492">
<ele>132.693481</ele>
<time>2010-08-29T08:34:36Z</time>
<desc>lat.=55.949776, lon.=26.531492, Alt.=132.693481m. Speed=11.700000m/h.</desc>
<speed>3.250000</speed>
</trkpt>
<trkpt lat="55.949814" lon="26.531490">
<ele>130.623169</ele>
<time>2010-08-29T08:34:37Z</time>
<desc>lat.=55.949814, lon.=26.531490, Alt.=130.623169m. Speed=12.780000m/h.</desc>
<speed>3.550000</speed>
</trkpt>
<trkpt lat="55.949844" lon="26.531492">
<ele>130.599731</ele>
<time>2010-08-29T08:34:38Z</time>
<desc>lat.=55.949844, lon.=26.531492, Alt.=130.599731m. Speed=8.640000m/h.</desc>
<speed>2.400000</speed>
</trkpt>
<trkpt lat="55.949871" lon="26.531481">
<ele>128.834106</ele>
<time>2010-08-29T08:34:39Z</time>
<desc>lat.=55.949871, lon.=26.531481, Alt.=128.834106m. Speed=6.948000m/h.</desc>
<speed>1.930000</speed>
</trkpt>
<trkpt lat="55.949890" lon="26.531475">
<ele>127.137756</ele>
<time>2010-08-29T08:34:40Z</time>
<desc>lat.=55.949890, lon.=26.531475, Alt.=127.137756m. Speed=5.652000m/h.</desc>
<speed>1.570000</speed>
</trkpt>
<trkpt lat="55.949913" lon="26.531485">
<ele>127.211975</ele>
<time>2010-08-29T08:34:41Z</time>
<desc>lat.=55.949913, lon.=26.531485, Alt.=127.211975m. Speed=6.336000m/h.</desc>
<speed>1.760000</speed>
</trkpt>
<trkpt lat="55.949936" lon="26.531490">
<ele>127.311584</ele>
<time>2010-08-29T08:34:42Z</time>
<desc>lat.=55.949936, lon.=26.531490, Alt.=127.311584m. Speed=7.416000m/h.</desc>
<speed>2.060000</speed>
</trkpt>
<trkpt lat="55.949955" lon="26.531492">
<ele>127.073303</ele>
<time>2010-08-29T08:34:43Z</time>
<desc>lat.=55.949955, lon.=26.531492, Alt.=127.073303m. Speed=12.240000m/h.</desc>
<speed>3.400000</speed>
</trkpt>
<trkpt lat="55.950005" lon="26.531509">
<ele>125.200256</ele>
<time>2010-08-29T08:34:44Z</time>
<desc>lat.=55.950005, lon.=26.531509, Alt.=125.200256m. Speed=11.520000m/h.</desc>
<speed>3.200000</speed>
</trkpt>
<trkpt lat="55.950047" lon="26.531525">
<ele>125.192444</ele>
<time>2010-08-29T08:34:45Z</time>
<desc>lat.=55.950047, lon.=26.531525, Alt.=125.192444m. Speed=10.836000m/h.</desc>
<speed>3.010000</speed>
</trkpt>
<trkpt lat="55.950085" lon="26.531534">
<ele>126.094788</ele>
<time>2010-08-29T08:34:46Z</time>
<desc>lat.=55.950085, lon.=26.531534, Alt.=126.094788m. Speed=10.944000m/h.</desc>
<speed>3.040000</speed>
</trkpt>
<trkpt lat="55.950115" lon="26.531542">
<ele>125.577209</ele>
<time>2010-08-29T08:34:47Z</time>
<desc>lat.=55.950115, lon.=26.531542, Alt.=125.577209m. Speed=9.576000m/h.</desc>
<speed>2.660000</speed>
</trkpt>
<trkpt lat="55.950138" lon="26.531549">
<ele>125.061584</ele>
<time>2010-08-29T08:34:48Z</time>
<desc>lat.=55.950138, lon.=26.531549, Alt.=125.061584m. Speed=8.208000m/h.</desc>
<speed>2.280000</speed>
</trkpt>
<trkpt lat="55.950172" lon="26.531544">
<ele>125.147522</ele>
<time>2010-08-29T08:34:49Z</time>
<desc>lat.=55.950172, lon.=26.531544, Alt.=125.147522m. Speed=7.236000m/h.</desc>
<speed>2.010000</speed>
</trkpt>
<trkpt lat="55.950211" lon="26.531561">
<ele>124.889709</ele>
<time>2010-08-29T08:34:50Z</time>
<desc>lat.=55.950211, lon.=26.531561, Alt.=124.889709m. Speed=13.032000m/h.</desc>
<speed>3.620000</speed>
</trkpt>
<trkpt lat="55.950264" lon="26.531599">
<ele>125.145569</ele>
<time>2010-08-29T08:34:51Z</time>
<desc>lat.=55.950264, lon.=26.531599, Alt.=125.145569m. Speed=14.436000m/h.</desc>
<speed>4.010000</speed>
</trkpt>
<trkpt lat="55.950306" lon="26.531618">
<ele>123.731506</ele>
<time>2010-08-29T08:34:52Z</time>
<desc>lat.=55.950306, lon.=26.531618, Alt.=123.731506m. Speed=16.128000m/h.</desc>
<speed>4.480000</speed>
</trkpt>
<trkpt lat="55.950348" lon="26.531624">
<ele>123.497131</ele>
<time>2010-08-29T08:34:53Z</time>
<desc>lat.=55.950348, lon.=26.531624, Alt.=123.497131m. Speed=16.812000m/h.</desc>
<speed>4.670000</speed>
</trkpt>
<trkpt lat="55.950405" lon="26.531656">
<ele>123.881897</ele>
<time>2010-08-29T08:34:54Z</time>
<desc>lat.=55.950405, lon.=26.531656, Alt.=123.881897m. Speed=16.848000m/h.</desc>
<speed>4.680000</speed>
</trkpt>
<trkpt lat="55.950459" lon="26.531675">
<ele>122.915100</ele>
<time>2010-08-29T08:34:55Z</time>
<desc>lat.=55.950459, lon.=26.531675, Alt.=122.915100m. Speed=16.920000m/h.</desc>
<speed>4.700000</speed>
</trkpt>
<trkpt lat="55.950504" lon="26.531685">
<ele>122.266663</ele>
<time>2010-08-29T08:34:56Z</time>
<desc>lat.=55.950504, lon.=26.531685, Alt.=122.266663m. Speed=14.760000m/h.</desc>
<speed>4.100000</speed>
</trkpt>
<trkpt lat="55.950542" lon="26.531708">
<ele>120.627991</ele>
<time>2010-08-29T08:34:57Z</time>
<desc>lat.=55.950542, lon.=26.531708, Alt.=120.627991m. Speed=15.192000m/h.</desc>
<speed>4.220000</speed>
</trkpt>
<trkpt lat="55.950584" lon="26.531721">
<ele>120.596741</ele>
<time>2010-08-29T08:34:58Z</time>
<desc>lat.=55.950584, lon.=26.531721, Alt.=120.596741m. Speed=10.800000m/h.</desc>
<speed>3.000000</speed>
</trkpt>
<trkpt lat="55.950634" lon="26.531719">
<ele>120.545959</ele>
<time>2010-08-29T08:34:59Z</time>
<desc>lat.=55.950634, lon.=26.531719, Alt.=120.545959m. Speed=12.924000m/h.</desc>
<speed>3.590000</speed>
</trkpt>
<trkpt lat="55.950680" lon="26.531740">
<ele>121.669006</ele>
<time>2010-08-29T08:35:00Z</time>
<desc>lat.=55.950680, lon.=26.531740, Alt.=121.669006m. Speed=11.268000m/h.</desc>
<speed>3.130000</speed>
</trkpt>
<trkpt lat="55.950729" lon="26.531773">
<ele>122.565491</ele>
<time>2010-08-29T08:35:01Z</time>
<desc>lat.=55.950729, lon.=26.531773, Alt.=122.565491m. Speed=12.132000m/h.</desc>
<speed>3.370000</speed>
</trkpt>
<trkpt lat="55.950771" lon="26.531788">
<ele>122.342834</ele>
<time>2010-08-29T08:35:02Z</time>
<desc>lat.=55.950771, lon.=26.531788, Alt.=122.342834m. Speed=13.500000m/h.</desc>
<speed>3.750000</speed>
</trkpt>
<trkpt lat="55.950809" lon="26.531803">
<ele>121.876038</ele>
<time>2010-08-29T08:35:03Z</time>
<desc>lat.=55.950809, lon.=26.531803, Alt.=121.876038m. Speed=12.600000m/h.</desc>
<speed>3.500000</speed>
</trkpt>
<trkpt lat="55.950855" lon="26.531818">
<ele>122.104553</ele>
<time>2010-08-29T08:35:04Z</time>
<desc>lat.=55.950855, lon.=26.531818, Alt.=122.104553m. Speed=12.276000m/h.</desc>
<speed>3.410000</speed>
</trkpt>
<trkpt lat="55.950897" lon="26.531828">
<ele>122.364319</ele>
<time>2010-08-29T08:35:05Z</time>
<desc>lat.=55.950897, lon.=26.531828, Alt.=122.364319m. Speed=12.456000m/h.</desc>
<speed>3.460000</speed>
</trkpt>
<trkpt lat="55.950951" lon="26.531841">
<ele>123.088928</ele>
<time>2010-08-29T08:35:06Z</time>
<desc>lat.=55.950951, lon.=26.531841, Alt.=123.088928m. Speed=13.680000m/h.</desc>
<speed>3.800000</speed>
</trkpt>
<trkpt lat="55.950993" lon="26.531862">
<ele>123.362366</ele>
<time>2010-08-29T08:35:07Z</time>
<desc>lat.=55.950993, lon.=26.531862, Alt.=123.362366m. Speed=14.400000m/h.</desc>
<speed>4.000000</speed>
</trkpt>
<trkpt lat="55.951031" lon="26.531876">
<ele>123.426819</ele>
<time>2010-08-29T08:35:08Z</time>
<desc>lat.=55.951031, lon.=26.531876, Alt.=123.426819m. Speed=10.692000m/h.</desc>
<speed>2.970000</speed>
</trkpt>
<trkpt lat="55.951069" lon="26.531887">
<ele>123.315491</ele>
<time>2010-08-29T08:35:09Z</time>
<desc>lat.=55.951069, lon.=26.531887, Alt.=123.315491m. Speed=10.764000m/h.</desc>
<speed>2.990000</speed>
</trkpt>
<trkpt lat="55.951103" lon="26.531889">
<ele>123.485413</ele>
<time>2010-08-29T08:35:10Z</time>
<desc>lat.=55.951103, lon.=26.531889, Alt.=123.485413m. Speed=9.108000m/h.</desc>
<speed>2.530000</speed>
</trkpt>
<trkpt lat="55.951134" lon="26.531897">
<ele>123.838928</ele>
<time>2010-08-29T08:35:11Z</time>
<desc>lat.=55.951134, lon.=26.531897, Alt.=123.838928m. Speed=8.856000m/h.</desc>
<speed>2.460000</speed>
</trkpt>
<trkpt lat="55.951164" lon="26.531912">
<ele>124.196350</ele>
<time>2010-08-29T08:35:12Z</time>
<desc>lat.=55.951164, lon.=26.531912, Alt.=124.196350m. Speed=8.964000m/h.</desc>
<speed>2.490000</speed>
</trkpt>
<trkpt lat="55.951214" lon="26.531956">
<ele>125.352600</ele>
<time>2010-08-29T08:35:13Z</time>
<desc>lat.=55.951214, lon.=26.531956, Alt.=125.352600m. Speed=12.744000m/h.</desc>
<speed>3.540000</speed>
</trkpt>
<trkpt lat="55.951248" lon="26.531986">
<ele>125.870178</ele>
<time>2010-08-29T08:35:14Z</time>
<desc>lat.=55.951248, lon.=26.531986, Alt.=125.870178m. Speed=11.736000m/h.</desc>
<speed>3.260000</speed>
</trkpt>
<trkpt lat="55.951283" lon="26.532019">
<ele>125.940491</ele>
<time>2010-08-29T08:35:15Z</time>
<desc>lat.=55.951283, lon.=26.532019, Alt.=125.940491m. Speed=10.440000m/h.</desc>
<speed>2.900000</speed>
</trkpt>
<trkpt lat="55.951313" lon="26.532043">
<ele>125.092834</ele>
<time>2010-08-29T08:35:16Z</time>
<desc>lat.=55.951313, lon.=26.532043, Alt.=125.092834m. Speed=8.136000m/h.</desc>
<speed>2.260000</speed>
</trkpt>
<trkpt lat="55.951344" lon="26.532064">
<ele>124.965881</ele>
<time>2010-08-29T08:35:17Z</time>
<desc>lat.=55.951344, lon.=26.532064, Alt.=124.965881m. Speed=8.748000m/h.</desc>
<speed>2.430000</speed>
</trkpt>
<trkpt lat="55.951378" lon="26.532089">
<ele>124.852600</ele>
<time>2010-08-29T08:35:18Z</time>
<desc>lat.=55.951378, lon.=26.532089, Alt.=124.852600m. Speed=10.188000m/h.</desc>
<speed>2.830000</speed>
</trkpt>
<trkpt lat="55.951416" lon="26.532125">
<ele>124.866272</ele>
<time>2010-08-29T08:35:19Z</time>
<desc>lat.=55.951416, lon.=26.532125, Alt.=124.866272m. Speed=13.248000m/h.</desc>
<speed>3.680000</speed>
</trkpt>
<trkpt lat="55.951447" lon="26.532160">
<ele>125.022522</ele>
<time>2010-08-29T08:35:20Z</time>
<desc>lat.=55.951447, lon.=26.532160, Alt.=125.022522m. Speed=11.196000m/h.</desc>
<speed>3.110000</speed>
</trkpt>
<trkpt lat="55.951469" lon="26.532194">
<ele>125.215881</ele>
<time>2010-08-29T08:35:21Z</time>
<desc>lat.=55.951469, lon.=26.532194, Alt.=125.215881m. Speed=8.280000m/h.</desc>
<speed>2.300000</speed>
</trkpt>
<trkpt lat="55.951500" lon="26.532232">
<ele>125.346741</ele>
<time>2010-08-29T08:35:22Z</time>
<desc>lat.=55.951500, lon.=26.532232, Alt.=125.346741m. Speed=9.036000m/h.</desc>
<speed>2.510000</speed>
</trkpt>
<trkpt lat="55.951534" lon="26.532257">
<ele>125.997131</ele>
<time>2010-08-29T08:35:23Z</time>
<desc>lat.=55.951534, lon.=26.532257, Alt.=125.997131m. Speed=12.132000m/h.</desc>
<speed>3.370000</speed>
</trkpt>
<trkpt lat="55.951572" lon="26.532305">
<ele>126.370178</ele>
<time>2010-08-29T08:35:24Z</time>
<desc>lat.=55.951572, lon.=26.532305, Alt.=126.370178m. Speed=12.636000m/h.</desc>
<speed>3.510000</speed>
</trkpt>
<trkpt lat="55.951607" lon="26.532335">
<ele>126.354553</ele>
<time>2010-08-29T08:35:25Z</time>
<desc>lat.=55.951607, lon.=26.532335, Alt.=126.354553m. Speed=8.532000m/h.</desc>
<speed>2.370000</speed>
</trkpt>
<trkpt lat="55.951637" lon="26.532366">
<ele>126.368225</ele>
<time>2010-08-29T08:35:26Z</time>
<desc>lat.=55.951637, lon.=26.532366, Alt.=126.368225m. Speed=10.224000m/h.</desc>
<speed>2.840000</speed>
</trkpt>
<trkpt lat="55.951672" lon="26.532413">
<ele>127.249084</ele>
<time>2010-08-29T08:35:27Z</time>
<desc>lat.=55.951672, lon.=26.532413, Alt.=127.249084m. Speed=13.608000m/h.</desc>
<speed>3.780000</speed>
</trkpt>
<trkpt lat="55.951710" lon="26.532471">
<ele>127.305725</ele>
<time>2010-08-29T08:35:28Z</time>
<desc>lat.=55.951710, lon.=26.532471, Alt.=127.305725m. Speed=16.200001m/h.</desc>
<speed>4.500000</speed>
</trkpt>
<trkpt lat="55.951767" lon="26.532543">
<ele>127.641663</ele>
<time>2010-08-29T08:35:29Z</time>
<desc>lat.=55.951767, lon.=26.532543, Alt.=127.641663m. Speed=18.108000m/h.</desc>
<speed>5.030000</speed>
</trkpt>
<trkpt lat="55.951820" lon="26.532608">
<ele>128.498169</ele>
<time>2010-08-29T08:35:30Z</time>
<desc>lat.=55.951820, lon.=26.532608, Alt.=128.498169m. Speed=18.612000m/h.</desc>
<speed>5.170000</speed>
</trkpt>
<trkpt lat="55.951866" lon="26.532681">
<ele>129.080200</ele>
<time>2010-08-29T08:35:31Z</time>
<desc>lat.=55.951866, lon.=26.532681, Alt.=129.080200m. Speed=19.944000m/h.</desc>
<speed>5.540000</speed>
</trkpt>
<trkpt lat="55.951912" lon="26.532766">
<ele>129.861450</ele>
<time>2010-08-29T08:35:32Z</time>
<desc>lat.=55.951912, lon.=26.532766, Alt.=129.861450m. Speed=19.836000m/h.</desc>
<speed>5.510000</speed>
</trkpt>
<trkpt lat="55.951992" lon="26.532864">
<ele>133.111450</ele>
<time>2010-08-29T08:35:33Z</time>
<desc>lat.=55.951992, lon.=26.532864, Alt.=133.111450m. Speed=19.728001m/h.</desc>
<speed>5.480000</speed>
</trkpt>
<trkpt lat="55.952042" lon="26.532936">
<ele>134.377075</ele>
<time>2010-08-29T08:35:34Z</time>
<desc>lat.=55.952042, lon.=26.532936, Alt.=134.377075m. Speed=15.876000m/h.</desc>
<speed>4.410000</speed>
</trkpt>
<trkpt lat="55.952080" lon="26.532991">
<ele>134.357544</ele>
<time>2010-08-29T08:35:35Z</time>
<desc>lat.=55.952080, lon.=26.532991, Alt.=134.357544m. Speed=16.955999m/h.</desc>
<speed>4.710000</speed>
</trkpt>
<trkpt lat="55.952110" lon="26.533051">
<ele>134.771606</ele>
<time>2010-08-29T08:35:36Z</time>
<desc>lat.=55.952110, lon.=26.533051, Alt.=134.771606m. Speed=14.400000m/h.</desc>
<speed>4.000000</speed>
</trkpt>
<trkpt lat="55.952141" lon="26.533125">
<ele>135.763794</ele>
<time>2010-08-29T08:35:37Z</time>
<desc>lat.=55.952141, lon.=26.533125, Alt.=135.763794m. Speed=16.128000m/h.</desc>
<speed>4.480000</speed>
</trkpt>
<trkpt lat="55.952168" lon="26.533169">
<ele>135.775513</ele>
<time>2010-08-29T08:35:38Z</time>
<desc>lat.=55.952168, lon.=26.533169, Alt.=135.775513m. Speed=14.076000m/h.</desc>
<speed>3.910000</speed>
</trkpt>
<trkpt lat="55.952194" lon="26.533226">
<ele>136.357544</ele>
<time>2010-08-29T08:35:39Z</time>
<desc>lat.=55.952194, lon.=26.533226, Alt.=136.357544m. Speed=15.372000m/h.</desc>
<speed>4.270000</speed>
</trkpt>
<trkpt lat="55.952240" lon="26.533297">
<ele>137.377075</ele>
<time>2010-08-29T08:35:40Z</time>
<desc>lat.=55.952240, lon.=26.533297, Alt.=137.377075m. Speed=16.488001m/h.</desc>
<speed>4.580000</speed>
</trkpt>
<trkpt lat="55.952290" lon="26.533375">
<ele>139.373169</ele>
<time>2010-08-29T08:35:41Z</time>
<desc>lat.=55.952290, lon.=26.533375, Alt.=139.373169m. Speed=16.884001m/h.</desc>
<speed>4.690000</speed>
</trkpt>
<trkpt lat="55.952343" lon="26.533455">
<ele>140.865356</ele>
<time>2010-08-29T08:35:42Z</time>
<desc>lat.=55.952343, lon.=26.533455, Alt.=140.865356m. Speed=17.820000m/h.</desc>
<speed>4.950000</speed>
</trkpt>
<trkpt lat="55.952389" lon="26.533525">
<ele>142.271606</ele>
<time>2010-08-29T08:35:43Z</time>
<desc>lat.=55.952389, lon.=26.533525, Alt.=142.271606m. Speed=18.216000m/h.</desc>
<speed>5.060000</speed>
</trkpt>
<trkpt lat="55.952423" lon="26.533600">
<ele>142.244263</ele>
<time>2010-08-29T08:35:44Z</time>
<desc>lat.=55.952423, lon.=26.533600, Alt.=142.244263m. Speed=17.856001m/h.</desc>
<speed>4.960000</speed>
</trkpt>
<trkpt lat="55.952454" lon="26.533686">
<ele>142.841919</ele>
<time>2010-08-29T08:35:45Z</time>
<desc>lat.=55.952454, lon.=26.533686, Alt.=142.841919m. Speed=17.856001m/h.</desc>
<speed>4.960000</speed>
</trkpt>
<trkpt lat="55.952503" lon="26.533762">
<ele>144.244263</ele>
<time>2010-08-29T08:35:46Z</time>
<desc>lat.=55.952503, lon.=26.533762, Alt.=144.244263m. Speed=18.648001m/h.</desc>
<speed>5.180000</speed>
</trkpt>
<trkpt lat="55.952549" lon="26.533836">
<ele>146.220825</ele>
<time>2010-08-29T08:35:47Z</time>
<desc>lat.=55.952549, lon.=26.533836, Alt.=146.220825m. Speed=18.288000m/h.</desc>
<speed>5.080000</speed>
</trkpt>
<trkpt lat="55.952599" lon="26.533924">
<ele>149.466919</ele>
<time>2010-08-29T08:35:48Z</time>
<desc>lat.=55.952599, lon.=26.533924, Alt.=149.466919m. Speed=17.532000m/h.</desc>
<speed>4.870000</speed>
</trkpt>
<trkpt lat="55.952637" lon="26.533998">
<ele>151.361450</ele>
<time>2010-08-29T08:35:49Z</time>
<desc>lat.=55.952637, lon.=26.533998, Alt.=151.361450m. Speed=17.351999m/h.</desc>
<speed>4.820000</speed>
</trkpt>
<trkpt lat="55.952671" lon="26.534056">
<ele>152.045044</ele>
<time>2010-08-29T08:35:50Z</time>
<desc>lat.=55.952671, lon.=26.534056, Alt.=152.045044m. Speed=16.848000m/h.</desc>
<speed>4.680000</speed>
</trkpt>
<trkpt lat="55.952705" lon="26.534113">
<ele>152.845825</ele>
<time>2010-08-29T08:35:51Z</time>
<desc>lat.=55.952705, lon.=26.534113, Alt.=152.845825m. Speed=17.136000m/h.</desc>
<speed>4.760000</speed>
</trkpt>
<trkpt lat="55.952736" lon="26.534184">
<ele>154.025513</ele>
<time>2010-08-29T08:35:52Z</time>
<desc>lat.=55.952736, lon.=26.534184, Alt.=154.025513m. Speed=16.452000m/h.</desc>
<speed>4.570000</speed>
</trkpt>
<trkpt lat="55.952766" lon="26.534245">
<ele>154.795044</ele>
<time>2010-08-29T08:35:53Z</time>
<desc>lat.=55.952766, lon.=26.534245, Alt.=154.795044m. Speed=17.927999m/h.</desc>
<speed>4.980000</speed>
</trkpt>
<trkpt lat="55.952797" lon="26.534307">
<ele>155.947388</ele>
<time>2010-08-29T08:35:54Z</time>
<desc>lat.=55.952797, lon.=26.534307, Alt.=155.947388m. Speed=18.540001m/h.</desc>
<speed>5.150000</speed>
</trkpt>
<trkpt lat="55.952831" lon="26.534378">
<ele>156.373169</ele>
<time>2010-08-29T08:35:55Z</time>
<desc>lat.=55.952831, lon.=26.534378, Alt.=156.373169m. Speed=18.719999m/h.</desc>
<speed>5.200000</speed>
</trkpt>
<trkpt lat="55.952877" lon="26.534456">
<ele>153.896606</ele>
<time>2010-08-29T08:35:56Z</time>
<desc>lat.=55.952877, lon.=26.534456, Alt.=153.896606m. Speed=19.007999m/h.</desc>
<speed>5.280000</speed>
</trkpt>
<trkpt lat="55.952908" lon="26.534519">
<ele>154.525513</ele>
<time>2010-08-29T08:35:57Z</time>
<desc>lat.=55.952908, lon.=26.534519, Alt.=154.525513m. Speed=19.224001m/h.</desc>
<speed>5.340000</speed>
</trkpt>
<trkpt lat="55.952938" lon="26.534584">
<ele>155.056763</ele>
<time>2010-08-29T08:35:58Z</time>
<desc>lat.=55.952938, lon.=26.534584, Alt.=155.056763m. Speed=20.628000m/h.</desc>
<speed>5.730000</speed>
</trkpt>
<trkpt lat="55.952972" lon="26.534653">
<ele>154.486450</ele>
<time>2010-08-29T08:35:59Z</time>
<desc>lat.=55.952972, lon.=26.534653, Alt.=154.486450m. Speed=20.879999m/h.</desc>
<speed>5.800000</speed>
</trkpt>
<trkpt lat="55.953022" lon="26.534750">
<ele>152.384888</ele>
<time>2010-08-29T08:36:00Z</time>
<desc>lat.=55.953022, lon.=26.534750, Alt.=152.384888m. Speed=20.808001m/h.</desc>
<speed>5.780000</speed>
</trkpt>
<trkpt lat="55.953060" lon="26.534838">
<ele>150.545044</ele>
<time>2010-08-29T08:36:01Z</time>
<desc>lat.=55.953060, lon.=26.534838, Alt.=150.545044m. Speed=20.591999m/h.</desc>
<speed>5.720000</speed>
</trkpt>
<trkpt lat="55.953087" lon="26.534922">
<ele>150.572388</ele>
<time>2010-08-29T08:36:02Z</time>
<desc>lat.=55.953087, lon.=26.534922, Alt.=150.572388m. Speed=20.268000m/h.</desc>
<speed>5.630000</speed>
</trkpt>
<trkpt lat="55.953114" lon="26.535004">
<ele>150.037231</ele>
<time>2010-08-29T08:36:03Z</time>
<desc>lat.=55.953114, lon.=26.535004, Alt.=150.037231m. Speed=20.232000m/h.</desc>
<speed>5.620000</speed>
</trkpt>
<trkpt lat="55.953144" lon="26.535086">
<ele>149.822388</ele>
<time>2010-08-29T08:36:04Z</time>
<desc>lat.=55.953144, lon.=26.535086, Alt.=149.822388m. Speed=20.052000m/h.</desc>
<speed>5.570000</speed>
</trkpt>
<trkpt lat="55.953182" lon="26.535173">
<ele>149.142700</ele>
<time>2010-08-29T08:36:05Z</time>
<desc>lat.=55.953182, lon.=26.535173, Alt.=149.142700m. Speed=20.160000m/h.</desc>
<speed>5.600000</speed>
</trkpt>
<trkpt lat="55.953213" lon="26.535259">
<ele>149.138794</ele>
<time>2010-08-29T08:36:06Z</time>
<desc>lat.=55.953213, lon.=26.535259, Alt.=149.138794m. Speed=19.296000m/h.</desc>
<speed>5.360000</speed>
</trkpt>
<trkpt lat="55.953239" lon="26.535347">
<ele>149.857544</ele>
<time>2010-08-29T08:36:07Z</time>
<desc>lat.=55.953239, lon.=26.535347, Alt.=149.857544m. Speed=18.431999m/h.</desc>
<speed>5.120000</speed>
</trkpt>
<trkpt lat="55.953266" lon="26.535435">
<ele>150.111450</ele>
<time>2010-08-29T08:36:08Z</time>
<desc>lat.=55.953266, lon.=26.535435, Alt.=150.111450m. Speed=19.115999m/h.</desc>
<speed>5.310000</speed>
</trkpt>
<trkpt lat="55.953297" lon="26.535519">
<ele>150.013794</ele>
<time>2010-08-29T08:36:09Z</time>
<desc>lat.=55.953297, lon.=26.535519, Alt.=150.013794m. Speed=19.296000m/h.</desc>
<speed>5.360000</speed>
</trkpt>
<trkpt lat="55.953320" lon="26.535597">
<ele>150.451294</ele>
<time>2010-08-29T08:36:10Z</time>
<desc>lat.=55.953320, lon.=26.535597, Alt.=150.451294m. Speed=17.496000m/h.</desc>
<speed>4.860000</speed>
</trkpt>
<trkpt lat="55.953335" lon="26.535667">
<ele>150.088013</ele>
<time>2010-08-29T08:36:11Z</time>
<desc>lat.=55.953335, lon.=26.535667, Alt.=150.088013m. Speed=16.091999m/h.</desc>
<speed>4.470000</speed>
</trkpt>
<trkpt lat="55.953350" lon="26.535736">
<ele>149.443481</ele>
<time>2010-08-29T08:36:12Z</time>
<desc>lat.=55.953350, lon.=26.535736, Alt.=149.443481m. Speed=16.128000m/h.</desc>
<speed>4.480000</speed>
</trkpt>
<trkpt lat="55.953377" lon="26.535793">
<ele>149.263794</ele>
<time>2010-08-29T08:36:13Z</time>
<desc>lat.=55.953377, lon.=26.535793, Alt.=149.263794m. Speed=16.271999m/h.</desc>
<speed>4.520000</speed>
</trkpt>
<trkpt lat="55.953396" lon="26.535858">
<ele>147.998169</ele>
<time>2010-08-29T08:36:14Z</time>
<desc>lat.=55.953396, lon.=26.535858, Alt.=147.998169m. Speed=15.624000m/h.</desc>
<speed>4.340000</speed>
</trkpt>
<trkpt lat="55.953415" lon="26.535925">
<ele>146.427856</ele>
<time>2010-08-29T08:36:15Z</time>
<desc>lat.=55.953415, lon.=26.535925, Alt.=146.427856m. Speed=13.068000m/h.</desc>
<speed>3.630000</speed>
</trkpt>
<trkpt lat="55.953434" lon="26.535988">
<ele>146.080200</ele>
<time>2010-08-29T08:36:16Z</time>
<desc>lat.=55.953434, lon.=26.535988, Alt.=146.080200m. Speed=14.904000m/h.</desc>
<speed>4.140000</speed>
</trkpt>
<trkpt lat="55.953449" lon="26.536051">
<ele>145.236450</ele>
<time>2010-08-29T08:36:17Z</time>
<desc>lat.=55.953449, lon.=26.536051, Alt.=145.236450m. Speed=14.436000m/h.</desc>
<speed>4.010000</speed>
</trkpt>
<trkpt lat="55.953468" lon="26.536095">
<ele>145.400513</ele>
<time>2010-08-29T08:36:18Z</time>
<desc>lat.=55.953468, lon.=26.536095, Alt.=145.400513m. Speed=12.528000m/h.</desc>
<speed>3.480000</speed>
</trkpt>
<trkpt lat="55.953491" lon="26.536139">
<ele>144.556763</ele>
<time>2010-08-29T08:36:19Z</time>
<desc>lat.=55.953491, lon.=26.536139, Alt.=144.556763m. Speed=14.220000m/h.</desc>
<speed>3.950000</speed>
</trkpt>
<trkpt lat="55.953518" lon="26.536196">
<ele>144.099731</ele>
<time>2010-08-29T08:36:20Z</time>
<desc>lat.=55.953518, lon.=26.536196, Alt.=144.099731m. Speed=14.148000m/h.</desc>
<speed>3.930000</speed>
</trkpt>
<trkpt lat="55.953545" lon="26.536259">
<ele>143.920044</ele>
<time>2010-08-29T08:36:21Z</time>
<desc>lat.=55.953545, lon.=26.536259, Alt.=143.920044m. Speed=15.012000m/h.</desc>
<speed>4.170000</speed>
</trkpt>
<trkpt lat="55.953560" lon="26.536325">
<ele>143.287231</ele>
<time>2010-08-29T08:36:22Z</time>
<desc>lat.=55.953560, lon.=26.536325, Alt.=143.287231m. Speed=14.616000m/h.</desc>
<speed>4.060000</speed>
</trkpt>
<trkpt lat="55.953575" lon="26.536386">
<ele>142.267700</ele>
<time>2010-08-29T08:36:23Z</time>
<desc>lat.=55.953575, lon.=26.536386, Alt.=142.267700m. Speed=14.868000m/h.</desc>
<speed>4.130000</speed>
</trkpt>
<trkpt lat="55.953587" lon="26.536448">
<ele>142.005981</ele>
<time>2010-08-29T08:36:24Z</time>
<desc>lat.=55.953587, lon.=26.536448, Alt.=142.005981m. Speed=13.284000m/h.</desc>
<speed>3.690000</speed>
</trkpt>
<trkpt lat="55.953602" lon="26.536499">
<ele>142.865356</ele>
<time>2010-08-29T08:36:25Z</time>
<desc>lat.=55.953602, lon.=26.536499, Alt.=142.865356m. Speed=12.060000m/h.</desc>
<speed>3.350000</speed>
</trkpt>
<trkpt lat="55.953625" lon="26.536539">
<ele>142.908325</ele>
<time>2010-08-29T08:36:26Z</time>
<desc>lat.=55.953625, lon.=26.536539, Alt.=142.908325m. Speed=12.852000m/h.</desc>
<speed>3.570000</speed>
</trkpt>
<trkpt lat="55.953648" lon="26.536581">
<ele>143.158325</ele>
<time>2010-08-29T08:36:27Z</time>
<desc>lat.=55.953648, lon.=26.536581, Alt.=143.158325m. Speed=12.780000m/h.</desc>
<speed>3.550000</speed>
</trkpt>
<trkpt lat="55.953667" lon="26.536621">
<ele>143.513794</ele>
<time>2010-08-29T08:36:28Z</time>
<desc>lat.=55.953667, lon.=26.536621, Alt.=143.513794m. Speed=11.556000m/h.</desc>
<speed>3.210000</speed>
</trkpt>
<trkpt lat="55.953678" lon="26.536661">
<ele>143.841919</ele>
<time>2010-08-29T08:36:29Z</time>
<desc>lat.=55.953678, lon.=26.536661, Alt.=143.841919m. Speed=10.260000m/h.</desc>
<speed>2.850000</speed>
</trkpt>
<trkpt lat="55.953693" lon="26.536701">
<ele>144.275513</ele>
<time>2010-08-29T08:36:30Z</time>
<desc>lat.=55.953693, lon.=26.536701, Alt.=144.275513m. Speed=11.592000m/h.</desc>
<speed>3.220000</speed>
</trkpt>
<trkpt lat="55.953712" lon="26.536747">
<ele>144.705200</ele>
<time>2010-08-29T08:36:31Z</time>
<desc>lat.=55.953712, lon.=26.536747, Alt.=144.705200m. Speed=11.772000m/h.</desc>
<speed>3.270000</speed>
</trkpt>
<trkpt lat="55.953720" lon="26.536787">
<ele>145.650513</ele>
<time>2010-08-29T08:36:32Z</time>
<desc>lat.=55.953720, lon.=26.536787, Alt.=145.650513m. Speed=9.252000m/h.</desc>
<speed>2.570000</speed>
</trkpt>
<trkpt lat="55.953732" lon="26.536814">
<ele>146.380981</ele>
<time>2010-08-29T08:36:33Z</time>
<desc>lat.=55.953732, lon.=26.536814, Alt.=146.380981m. Speed=6.048000m/h.</desc>
<speed>1.680000</speed>
</trkpt>
<trkpt lat="55.953732" lon="26.536833">
<ele>146.560669</ele>
<time>2010-08-29T08:36:34Z</time>
<desc>lat.=55.953732, lon.=26.536833, Alt.=146.560669m. Speed=5.148000m/h.</desc>
<speed>1.430000</speed>
</trkpt>
<trkpt lat="55.953735" lon="26.536840">
<ele>146.357544</ele>
<time>2010-08-29T08:36:35Z</time>
<desc>lat.=55.953735, lon.=26.536840, Alt.=146.357544m. Speed=3.708000m/h.</desc>
<speed>1.030000</speed>
</trkpt>
<trkpt lat="55.953739" lon="26.536854">
<ele>146.630981</ele>
<time>2010-08-29T08:36:36Z</time>
<desc>lat.=55.953739, lon.=26.536854, Alt.=146.630981m. Speed=3.960000m/h.</desc>
<speed>1.100000</speed>
</trkpt>
<trkpt lat="55.953743" lon="26.536875">
<ele>146.728638</ele>
<time>2010-08-29T08:36:37Z</time>
<desc>lat.=55.953743, lon.=26.536875, Alt.=146.728638m. Speed=5.616000m/h.</desc>
<speed>1.560000</speed>
</trkpt>
<trkpt lat="55.953751" lon="26.536894">
<ele>147.037231</ele>
<time>2010-08-29T08:36:38Z</time>
<desc>lat.=55.953751, lon.=26.536894, Alt.=147.037231m. Speed=5.328000m/h.</desc>
<speed>1.480000</speed>
</trkpt>
<trkpt lat="55.953766" lon="26.536915">
<ele>147.310669</ele>
<time>2010-08-29T08:36:39Z</time>
<desc>lat.=55.953766, lon.=26.536915, Alt.=147.310669m. Speed=7.272000m/h.</desc>
<speed>2.020000</speed>
</trkpt>
<trkpt lat="55.953777" lon="26.536961">
<ele>145.869263</ele>
<time>2010-08-29T08:36:40Z</time>
<desc>lat.=55.953777, lon.=26.536961, Alt.=145.869263m. Speed=6.984000m/h.</desc>
<speed>1.940000</speed>
</trkpt>
<trkpt lat="55.953796" lon="26.536995">
<ele>146.095825</ele>
<time>2010-08-29T08:36:41Z</time>
<desc>lat.=55.953796, lon.=26.536995, Alt.=146.095825m. Speed=8.136000m/h.</desc>
<speed>2.260000</speed>
</trkpt>
<trkpt lat="55.953804" lon="26.537029">
<ele>146.201294</ele>
<time>2010-08-29T08:36:42Z</time>
<desc>lat.=55.953804, lon.=26.537029, Alt.=146.201294m. Speed=7.344000m/h.</desc>
<speed>2.040000</speed>
</trkpt>
<trkpt lat="55.953819" lon="26.537041">
<ele>146.392700</ele>
<time>2010-08-29T08:36:43Z</time>
<desc>lat.=55.953819, lon.=26.537041, Alt.=146.392700m. Speed=7.056000m/h.</desc>
<speed>1.960000</speed>
</trkpt>
<trkpt lat="55.953846" lon="26.537066">
<ele>146.978638</ele>
<time>2010-08-29T08:36:44Z</time>
<desc>lat.=55.953846, lon.=26.537066, Alt.=146.978638m. Speed=9.144000m/h.</desc>
<speed>2.540000</speed>
</trkpt>
<trkpt lat="55.953861" lon="26.537081">
<ele>147.072388</ele>
<time>2010-08-29T08:36:45Z</time>
<desc>lat.=55.953861, lon.=26.537081, Alt.=147.072388m. Speed=8.928000m/h.</desc>
<speed>2.480000</speed>
</trkpt>
<trkpt lat="55.953880" lon="26.537106">
<ele>147.134888</ele>
<time>2010-08-29T08:36:46Z</time>
<desc>lat.=55.953880, lon.=26.537106, Alt.=147.134888m. Speed=9.648000m/h.</desc>
<speed>2.680000</speed>
</trkpt>
<trkpt lat="55.953896" lon="26.537134">
<ele>146.580200</ele>
<time>2010-08-29T08:36:47Z</time>
<desc>lat.=55.953896, lon.=26.537134, Alt.=146.580200m. Speed=9.468000m/h.</desc>
<speed>2.630000</speed>
</trkpt>
<trkpt lat="55.953911" lon="26.537161">
<ele>145.947388</ele>
<time>2010-08-29T08:36:48Z</time>
<desc>lat.=55.953911, lon.=26.537161, Alt.=145.947388m. Speed=8.244000m/h.</desc>
<speed>2.290000</speed>
</trkpt>
<trkpt lat="55.953922" lon="26.537186">
<ele>143.322388</ele>
<time>2010-08-29T08:36:49Z</time>
<desc>lat.=55.953922, lon.=26.537186, Alt.=143.322388m. Speed=7.956000m/h.</desc>
<speed>2.210000</speed>
</trkpt>
<trkpt lat="55.953941" lon="26.537203">
<ele>143.095825</ele>
<time>2010-08-29T08:36:50Z</time>
<desc>lat.=55.953941, lon.=26.537203, Alt.=143.095825m. Speed=7.308000m/h.</desc>
<speed>2.030000</speed>
</trkpt>
<trkpt lat="55.953960" lon="26.537224">
<ele>143.111450</ele>
<time>2010-08-29T08:36:51Z</time>
<desc>lat.=55.953960, lon.=26.537224, Alt.=143.111450m. Speed=6.372000m/h.</desc>
<speed>1.770000</speed>
</trkpt>
<trkpt lat="55.953979" lon="26.537247">
<ele>143.244263</ele>
<time>2010-08-29T08:36:52Z</time>
<desc>lat.=55.953979, lon.=26.537247, Alt.=143.244263m. Speed=7.344000m/h.</desc>
<speed>2.040000</speed>
</trkpt>
<trkpt lat="55.954002" lon="26.537279">
<ele>143.568481</ele>
<time>2010-08-29T08:36:53Z</time>
<desc>lat.=55.954002, lon.=26.537279, Alt.=143.568481m. Speed=8.712000m/h.</desc>
<speed>2.420000</speed>
</trkpt>
<trkpt lat="55.954037" lon="26.537321">
<ele>143.486450</ele>
<time>2010-08-29T08:36:54Z</time>
<desc>lat.=55.954037, lon.=26.537321, Alt.=143.486450m. Speed=12.240000m/h.</desc>
<speed>3.400000</speed>
</trkpt>
<trkpt lat="55.954082" lon="26.537365">
<ele>142.994263</ele>
<time>2010-08-29T08:36:55Z</time>
<desc>lat.=55.954082, lon.=26.537365, Alt.=142.994263m. Speed=10.764000m/h.</desc>
<speed>2.990000</speed>
</trkpt>
<trkpt lat="55.954121" lon="26.537401">
<ele>142.810669</ele>
<time>2010-08-29T08:36:56Z</time>
<desc>lat.=55.954121, lon.=26.537401, Alt.=142.810669m. Speed=10.908000m/h.</desc>
<speed>3.030000</speed>
</trkpt>
<trkpt lat="55.954155" lon="26.537430">
<ele>142.474731</ele>
<time>2010-08-29T08:36:57Z</time>
<desc>lat.=55.954155, lon.=26.537430, Alt.=142.474731m. Speed=7.056000m/h.</desc>
<speed>1.960000</speed>
</trkpt>
<trkpt lat="55.954185" lon="26.537460">
<ele>142.502075</ele>
<time>2010-08-29T08:36:58Z</time>
<desc>lat.=55.954185, lon.=26.537460, Alt.=142.502075m. Speed=9.792000m/h.</desc>
<speed>2.720000</speed>
</trkpt>
<trkpt lat="55.954212" lon="26.537491">
<ele>142.318481</ele>
<time>2010-08-29T08:36:59Z</time>
<desc>lat.=55.954212, lon.=26.537491, Alt.=142.318481m. Speed=8.100000m/h.</desc>
<speed>2.250000</speed>
</trkpt>
<trkpt lat="55.954247" lon="26.537518">
<ele>142.005981</ele>
<time>2010-08-29T08:37:00Z</time>
<desc>lat.=55.954247, lon.=26.537518, Alt.=142.005981m. Speed=9.576000m/h.</desc>
<speed>2.660000</speed>
</trkpt>
<trkpt lat="55.954273" lon="26.537554">
<ele>142.502075</ele>
<time>2010-08-29T08:37:01Z</time>
<desc>lat.=55.954273, lon.=26.537554, Alt.=142.502075m. Speed=9.936000m/h.</desc>
<speed>2.760000</speed>
</trkpt>
<trkpt lat="55.954300" lon="26.537594">
<ele>142.681763</ele>
<time>2010-08-29T08:37:02Z</time>
<desc>lat.=55.954300, lon.=26.537594, Alt.=142.681763m. Speed=10.692000m/h.</desc>
<speed>2.970000</speed>
</trkpt>
<trkpt lat="55.954334" lon="26.537636">
<ele>142.966919</ele>
<time>2010-08-29T08:37:03Z</time>
<desc>lat.=55.954334, lon.=26.537636, Alt.=142.966919m. Speed=11.052000m/h.</desc>
<speed>3.070000</speed>
</trkpt>
<trkpt lat="55.954369" lon="26.537674">
<ele>142.943481</ele>
<time>2010-08-29T08:37:04Z</time>
<desc>lat.=55.954369, lon.=26.537674, Alt.=142.943481m. Speed=10.728000m/h.</desc>
<speed>2.980000</speed>
</trkpt>
<trkpt lat="55.954391" lon="26.537704">
<ele>143.138794</ele>
<time>2010-08-29T08:37:05Z</time>
<desc>lat.=55.954391, lon.=26.537704, Alt.=143.138794m. Speed=14.508000m/h.</desc>
<speed>4.030000</speed>
</trkpt>
<trkpt lat="55.954430" lon="26.537750">
<ele>143.552856</ele>
<time>2010-08-29T08:37:06Z</time>
<desc>lat.=55.954430, lon.=26.537750, Alt.=143.552856m. Speed=14.256000m/h.</desc>
<speed>3.960000</speed>
</trkpt>
<trkpt lat="55.954468" lon="26.537790">
<ele>142.556763</ele>
<time>2010-08-29T08:37:07Z</time>
<desc>lat.=55.954468, lon.=26.537790, Alt.=142.556763m. Speed=13.320000m/h.</desc>
<speed>3.700000</speed>
</trkpt>
<trkpt lat="55.954502" lon="26.537836">
<ele>142.158325</ele>
<time>2010-08-29T08:37:08Z</time>
<desc>lat.=55.954502, lon.=26.537836, Alt.=142.158325m. Speed=11.160000m/h.</desc>
<speed>3.100000</speed>
</trkpt>
<trkpt lat="55.954544" lon="26.537889">
<ele>142.103638</ele>
<time>2010-08-29T08:37:09Z</time>
<desc>lat.=55.954544, lon.=26.537889, Alt.=142.103638m. Speed=10.980000m/h.</desc>
<speed>3.050000</speed>
</trkpt>
<trkpt lat="55.954571" lon="26.537922">
<ele>142.111450</ele>
<time>2010-08-29T08:37:10Z</time>
<desc>lat.=55.954571, lon.=26.537922, Alt.=142.111450m. Speed=11.196000m/h.</desc>
<speed>3.110000</speed>
</trkpt>
<trkpt lat="55.954659" lon="26.538054">
<ele>140.853638</ele>
<time>2010-08-29T08:37:11Z</time>
<desc>lat.=55.954659, lon.=26.538054, Alt.=140.853638m. Speed=8.388000m/h.</desc>
<speed>2.330000</speed>
</trkpt>
<trkpt lat="55.954712" lon="26.538107">
<ele>139.947388</ele>
<time>2010-08-29T08:37:12Z</time>
<desc>lat.=55.954712, lon.=26.538107, Alt.=139.947388m. Speed=8.676000m/h.</desc>
<speed>2.410000</speed>
</trkpt>
<trkpt lat="55.954746" lon="26.538115">
<ele>136.599731</ele>
<time>2010-08-29T08:37:13Z</time>
<desc>lat.=55.954746, lon.=26.538115, Alt.=136.599731m. Speed=5.436000m/h.</desc>
<speed>1.510000</speed>
</trkpt>
<trkpt lat="55.954781" lon="26.538136">
<ele>135.412231</ele>
<time>2010-08-29T08:37:14Z</time>
<desc>lat.=55.954781, lon.=26.538136, Alt.=135.412231m. Speed=6.480000m/h.</desc>
<speed>1.800000</speed>
</trkpt>
<trkpt lat="55.954788" lon="26.538160">
<ele>134.748169</ele>
<time>2010-08-29T08:37:15Z</time>
<desc>lat.=55.954788, lon.=26.538160, Alt.=134.748169m. Speed=4.932000m/h.</desc>
<speed>1.370000</speed>
</trkpt>
<trkpt lat="55.954788" lon="26.538189">
<ele>132.068481</ele>
<time>2010-08-29T08:37:16Z</time>
<desc>lat.=55.954788, lon.=26.538189, Alt.=132.068481m. Speed=9.468000m/h.</desc>
<speed>2.630000</speed>
</trkpt>
<trkpt lat="55.954800" lon="26.538221">
<ele>130.619263</ele>
<time>2010-08-29T08:37:17Z</time>
<desc>lat.=55.954800, lon.=26.538221, Alt.=130.619263m. Speed=8.604000m/h.</desc>
<speed>2.390000</speed>
</trkpt>
<trkpt lat="55.954800" lon="26.538260">
<ele>130.795044</ele>
<time>2010-08-29T08:37:18Z</time>
<desc>lat.=55.954800, lon.=26.538260, Alt.=130.795044m. Speed=8.208000m/h.</desc>
<speed>2.280000</speed>
</trkpt>
<trkpt lat="55.954792" lon="26.538313">
<ele>130.763794</ele>
<time>2010-08-29T08:37:19Z</time>
<desc>lat.=55.954792, lon.=26.538313, Alt.=130.763794m. Speed=11.268000m/h.</desc>
<speed>3.130000</speed>
</trkpt>
<trkpt lat="55.954800" lon="26.538385">
<ele>131.584106</ele>
<time>2010-08-29T08:37:20Z</time>
<desc>lat.=55.954800, lon.=26.538385, Alt.=131.584106m. Speed=12.168000m/h.</desc>
<speed>3.380000</speed>
</trkpt>
<trkpt lat="55.954811" lon="26.538454">
<ele>132.025513</ele>
<time>2010-08-29T08:37:21Z</time>
<desc>lat.=55.954811, lon.=26.538454, Alt.=132.025513m. Speed=12.888000m/h.</desc>
<speed>3.580000</speed>
</trkpt>
<trkpt lat="55.954819" lon="26.538521">
<ele>132.884888</ele>
<time>2010-08-29T08:37:22Z</time>
<desc>lat.=55.954819, lon.=26.538521, Alt.=132.884888m. Speed=12.456000m/h.</desc>
<speed>3.460000</speed>
</trkpt>
<trkpt lat="55.954823" lon="26.538582">
<ele>133.439575</ele>
<time>2010-08-29T08:37:23Z</time>
<desc>lat.=55.954823, lon.=26.538582, Alt.=133.439575m. Speed=13.608000m/h.</desc>
<speed>3.780000</speed>
</trkpt>
<trkpt lat="55.954823" lon="26.538649">
<ele>135.091919</ele>
<time>2010-08-29T08:37:24Z</time>
<desc>lat.=55.954823, lon.=26.538649, Alt.=135.091919m. Speed=15.408000m/h.</desc>
<speed>4.280000</speed>
</trkpt>
<trkpt lat="55.954830" lon="26.538723">
<ele>137.162231</ele>
<time>2010-08-29T08:37:25Z</time>
<desc>lat.=55.954830, lon.=26.538723, Alt.=137.162231m. Speed=14.760000m/h.</desc>
<speed>4.100000</speed>
</trkpt>
<trkpt lat="55.954834" lon="26.538786">
<ele>138.123169</ele>
<time>2010-08-29T08:37:26Z</time>
<desc>lat.=55.954834, lon.=26.538786, Alt.=138.123169m. Speed=15.588000m/h.</desc>
<speed>4.330000</speed>
</trkpt>
<trkpt lat="55.954830" lon="26.538853">
<ele>138.689575</ele>
<time>2010-08-29T08:37:27Z</time>
<desc>lat.=55.954830, lon.=26.538853, Alt.=138.689575m. Speed=14.364000m/h.</desc>
<speed>3.990000</speed>
</trkpt>
<trkpt lat="55.954838" lon="26.538916">
<ele>140.099731</ele>
<time>2010-08-29T08:37:28Z</time>
<desc>lat.=55.954838, lon.=26.538916, Alt.=140.099731m. Speed=13.608000m/h.</desc>
<speed>3.780000</speed>
</trkpt>
<trkpt lat="55.954845" lon="26.538977">
<ele>142.295044</ele>
<time>2010-08-29T08:37:29Z</time>
<desc>lat.=55.954845, lon.=26.538977, Alt.=142.295044m. Speed=12.204000m/h.</desc>
<speed>3.390000</speed>
</trkpt>
<trkpt lat="55.954849" lon="26.539030">
<ele>143.287231</ele>
<time>2010-08-29T08:37:30Z</time>
<desc>lat.=55.954849, lon.=26.539030, Alt.=143.287231m. Speed=10.296000m/h.</desc>
<speed>2.860000</speed>
</trkpt>
<trkpt lat="55.954853" lon="26.539093">
<ele>145.103638</ele>
<time>2010-08-29T08:37:31Z</time>
<desc>lat.=55.954853, lon.=26.539093, Alt.=145.103638m. Speed=13.608000m/h.</desc>
<speed>3.780000</speed>
</trkpt>
<trkpt lat="55.954857" lon="26.539167">
<ele>147.173950</ele>
<time>2010-08-29T08:37:32Z</time>
<desc>lat.=55.954857, lon.=26.539167, Alt.=147.173950m. Speed=13.680000m/h.</desc>
<speed>3.800000</speed>
</trkpt>
<trkpt lat="55.954861" lon="26.539240">
<ele>149.021606</ele>
<time>2010-08-29T08:37:33Z</time>
<desc>lat.=55.954861, lon.=26.539240, Alt.=149.021606m. Speed=13.788000m/h.</desc>
<speed>3.830000</speed>
</trkpt>
<trkpt lat="55.954865" lon="26.539309">
<ele>151.240356</ele>
<time>2010-08-29T08:37:34Z</time>
<desc>lat.=55.954865, lon.=26.539309, Alt.=151.240356m. Speed=12.924000m/h.</desc>
<speed>3.590000</speed>
</trkpt>
<trkpt lat="55.954865" lon="26.539370">
<ele>152.599731</ele>
<time>2010-08-29T08:37:35Z</time>
<desc>lat.=55.954865, lon.=26.539370, Alt.=152.599731m. Speed=12.492000m/h.</desc>
<speed>3.470000</speed>
</trkpt>
<trkpt lat="55.954865" lon="26.539431">
<ele>154.220825</ele>
<time>2010-08-29T08:37:36Z</time>
<desc>lat.=55.954865, lon.=26.539431, Alt.=154.220825m. Speed=12.096000m/h.</desc>
<speed>3.360000</speed>
</trkpt>
<trkpt lat="55.954865" lon="26.539484">
<ele>156.455200</ele>
<time>2010-08-29T08:37:37Z</time>
<desc>lat.=55.954865, lon.=26.539484, Alt.=156.455200m. Speed=11.592000m/h.</desc>
<speed>3.220000</speed>
</trkpt>
<trkpt lat="55.954865" lon="26.539541">
<ele>157.767700</ele>
<time>2010-08-29T08:37:38Z</time>
<desc>lat.=55.954865, lon.=26.539541, Alt.=157.767700m. Speed=11.808000m/h.</desc>
<speed>3.280000</speed>
</trkpt>
<trkpt lat="55.954861" lon="26.539591">
<ele>159.650513</ele>
<time>2010-08-29T08:37:39Z</time>
<desc>lat.=55.954861, lon.=26.539591, Alt.=159.650513m. Speed=11.736000m/h.</desc>
<speed>3.260000</speed>
</trkpt>
<trkpt lat="55.954865" lon="26.539642">
<ele>161.002075</ele>
<time>2010-08-29T08:37:40Z</time>
<desc>lat.=55.954865, lon.=26.539642, Alt.=161.002075m. Speed=12.924000m/h.</desc>
<speed>3.590000</speed>
</trkpt>
<trkpt lat="55.954868" lon="26.539705">
<ele>161.791138</ele>
<time>2010-08-29T08:37:41Z</time>
<desc>lat.=55.954868, lon.=26.539705, Alt.=161.791138m. Speed=11.808000m/h.</desc>
<speed>3.280000</speed>
</trkpt>
<trkpt lat="55.954872" lon="26.539774">
<ele>162.173950</ele>
<time>2010-08-29T08:37:42Z</time>
<desc>lat.=55.954872, lon.=26.539774, Alt.=162.173950m. Speed=12.924000m/h.</desc>
<speed>3.590000</speed>
</trkpt>
<trkpt lat="55.954876" lon="26.539841">
<ele>163.248169</ele>
<time>2010-08-29T08:37:43Z</time>
<desc>lat.=55.954876, lon.=26.539841, Alt.=163.248169m. Speed=13.356000m/h.</desc>
<speed>3.710000</speed>
</trkpt>
<trkpt lat="55.954872" lon="26.539915">
<ele>159.326294</ele>
<time>2010-08-29T08:37:44Z</time>
<desc>lat.=55.954872, lon.=26.539915, Alt.=159.326294m. Speed=12.888000m/h.</desc>
<speed>3.580000</speed>
</trkpt>
<trkpt lat="55.954868" lon="26.539982">
<ele>157.005981</ele>
<time>2010-08-29T08:37:45Z</time>
<desc>lat.=55.954868, lon.=26.539982, Alt.=157.005981m. Speed=12.384000m/h.</desc>
<speed>3.440000</speed>
</trkpt>
<trkpt lat="55.954880" lon="26.540054">
<ele>157.763794</ele>
<time>2010-08-29T08:37:46Z</time>
<desc>lat.=55.954880, lon.=26.540054, Alt.=157.763794m. Speed=15.768000m/h.</desc>
<speed>4.380000</speed>
</trkpt>
<trkpt lat="55.954891" lon="26.540129">
<ele>158.252075</ele>
<time>2010-08-29T08:37:47Z</time>
<desc>lat.=55.954891, lon.=26.540129, Alt.=158.252075m. Speed=15.912000m/h.</desc>
<speed>4.420000</speed>
</trkpt>
<trkpt lat="55.954903" lon="26.540201">
<ele>159.127075</ele>
<time>2010-08-29T08:37:48Z</time>
<desc>lat.=55.954903, lon.=26.540201, Alt.=159.127075m. Speed=16.056000m/h.</desc>
<speed>4.460000</speed>
</trkpt>
<trkpt lat="55.954895" lon="26.540291">
<ele>159.349731</ele>
<time>2010-08-29T08:37:49Z</time>
<desc>lat.=55.954895, lon.=26.540291, Alt.=159.349731m. Speed=18.216000m/h.</desc>
<speed>5.060000</speed>
</trkpt>
<trkpt lat="55.954880" lon="26.540359">
<ele>159.912231</ele>
<time>2010-08-29T08:37:50Z</time>
<desc>lat.=55.954880, lon.=26.540359, Alt.=159.912231m. Speed=14.292000m/h.</desc>
<speed>3.970000</speed>
</trkpt>
<trkpt lat="55.954880" lon="26.540434">
<ele>160.556763</ele>
<time>2010-08-29T08:37:51Z</time>
<desc>lat.=55.954880, lon.=26.540434, Alt.=160.556763m. Speed=15.588000m/h.</desc>
<speed>4.330000</speed>
</trkpt>
<trkpt lat="55.954884" lon="26.540512">
<ele>161.240356</ele>
<time>2010-08-29T08:37:52Z</time>
<desc>lat.=55.954884, lon.=26.540512, Alt.=161.240356m. Speed=14.688000m/h.</desc>
<speed>4.080000</speed>
</trkpt>
<trkpt lat="55.954887" lon="26.540592">
<ele>159.806763</ele>
<time>2010-08-29T08:37:53Z</time>
<desc>lat.=55.954887, lon.=26.540592, Alt.=159.806763m. Speed=15.552000m/h.</desc>
<speed>4.320000</speed>
</trkpt>
<trkpt lat="55.954895" lon="26.540674">
<ele>161.064575</ele>
<time>2010-08-29T08:37:54Z</time>
<desc>lat.=55.954895, lon.=26.540674, Alt.=161.064575m. Speed=15.732000m/h.</desc>
<speed>4.370000</speed>
</trkpt>
<trkpt lat="55.954876" lon="26.540760">
<ele>162.377075</ele>
<time>2010-08-29T08:37:55Z</time>
<desc>lat.=55.954876, lon.=26.540760, Alt.=162.377075m. Speed=15.192000m/h.</desc>
<speed>4.220000</speed>
</trkpt>
<trkpt lat="55.954880" lon="26.540846">
<ele>164.572388</ele>
<time>2010-08-29T08:37:56Z</time>
<desc>lat.=55.954880, lon.=26.540846, Alt.=164.572388m. Speed=15.372000m/h.</desc>
<speed>4.270000</speed>
</trkpt>
<trkpt lat="55.954884" lon="26.540928">
<ele>166.263794</ele>
<time>2010-08-29T08:37:57Z</time>
<desc>lat.=55.954884, lon.=26.540928, Alt.=166.263794m. Speed=15.048000m/h.</desc>
<speed>4.180000</speed>
</trkpt>
<trkpt lat="55.954887" lon="26.541004">
<ele>164.630981</ele>
<time>2010-08-29T08:37:58Z</time>
<desc>lat.=55.954887, lon.=26.541004, Alt.=164.630981m. Speed=13.860000m/h.</desc>
<speed>3.850000</speed>
</trkpt>
<trkpt lat="55.954899" lon="26.541082">
<ele>166.084106</ele>
<time>2010-08-29T08:37:59Z</time>
<desc>lat.=55.954899, lon.=26.541082, Alt.=166.084106m. Speed=14.580000m/h.</desc>
<speed>4.050000</speed>
</trkpt>
<trkpt lat="55.954906" lon="26.541155">
<ele>167.177856</ele>
<time>2010-08-29T08:38:00Z</time>
<desc>lat.=55.954906, lon.=26.541155, Alt.=167.177856m. Speed=13.644000m/h.</desc>
<speed>3.790000</speed>
</trkpt>
<trkpt lat="55.954903" lon="26.541235">
<ele>165.295044</ele>
<time>2010-08-29T08:38:01Z</time>
<desc>lat.=55.954903, lon.=26.541235, Alt.=165.295044m. Speed=16.164000m/h.</desc>
<speed>4.490000</speed>
</trkpt>
<trkpt lat="55.954899" lon="26.541311">
<ele>166.576294</ele>
<time>2010-08-29T08:38:02Z</time>
<desc>lat.=55.954899, lon.=26.541311, Alt.=166.576294m. Speed=15.012000m/h.</desc>
<speed>4.170000</speed>
</trkpt>
<trkpt lat="55.954899" lon="26.541388">
<ele>167.158325</ele>
<time>2010-08-29T08:38:03Z</time>
<desc>lat.=55.954899, lon.=26.541388, Alt.=167.158325m. Speed=14.220000m/h.</desc>
<speed>3.950000</speed>
</trkpt>
<trkpt lat="55.954903" lon="26.541464">
<ele>168.584106</ele>
<time>2010-08-29T08:38:04Z</time>
<desc>lat.=55.954903, lon.=26.541464, Alt.=168.584106m. Speed=12.564000m/h.</desc>
<speed>3.490000</speed>
</trkpt>
<trkpt lat="55.954906" lon="26.541538">
<ele>166.916138</ele>
<time>2010-08-29T08:38:05Z</time>
<desc>lat.=55.954906, lon.=26.541538, Alt.=166.916138m. Speed=13.248000m/h.</desc>
<speed>3.680000</speed>
</trkpt>
<trkpt lat="55.954910" lon="26.541594">
<ele>168.119263</ele>
<time>2010-08-29T08:38:06Z</time>
<desc>lat.=55.954910, lon.=26.541594, Alt.=168.119263m. Speed=11.016000m/h.</desc>
<speed>3.060000</speed>
</trkpt>
<trkpt lat="55.954910" lon="26.541662">
<ele>169.713013</ele>
<time>2010-08-29T08:38:07Z</time>
<desc>lat.=55.954910, lon.=26.541662, Alt.=169.713013m. Speed=13.104000m/h.</desc>
<speed>3.640000</speed>
</trkpt>
<trkpt lat="55.954906" lon="26.541742">
<ele>171.763794</ele>
<time>2010-08-29T08:38:08Z</time>
<desc>lat.=55.954906, lon.=26.541742, Alt.=171.763794m. Speed=13.068000m/h.</desc>
<speed>3.630000</speed>
</trkpt>
<trkpt lat="55.954910" lon="26.541838">
<ele>173.623169</ele>
<time>2010-08-29T08:38:09Z</time>
<desc>lat.=55.954910, lon.=26.541838, Alt.=173.623169m. Speed=14.976000m/h.</desc>
<speed>4.160000</speed>
</trkpt>
<trkpt lat="55.954914" lon="26.541933">
<ele>175.884888</ele>
<time>2010-08-29T08:38:10Z</time>
<desc>lat.=55.954914, lon.=26.541933, Alt.=175.884888m. Speed=14.652000m/h.</desc>
<speed>4.070000</speed>
</trkpt>
<trkpt lat="55.954918" lon="26.542011">
<ele>177.673950</ele>
<time>2010-08-29T08:38:11Z</time>
<desc>lat.=55.954918, lon.=26.542011, Alt.=177.673950m. Speed=14.472000m/h.</desc>
<speed>4.020000</speed>
</trkpt>
<trkpt lat="55.954926" lon="26.542086">
<ele>178.982544</ele>
<time>2010-08-29T08:38:12Z</time>
<desc>lat.=55.954926, lon.=26.542086, Alt.=178.982544m. Speed=14.724000m/h.</desc>
<speed>4.090000</speed>
</trkpt>
<trkpt lat="55.954929" lon="26.542149">
<ele>180.884888</ele>
<time>2010-08-29T08:38:13Z</time>
<desc>lat.=55.954929, lon.=26.542149, Alt.=180.884888m. Speed=14.148000m/h.</desc>
<speed>3.930000</speed>
</trkpt>
<trkpt lat="55.954937" lon="26.542217">
<ele>178.744263</ele>
<time>2010-08-29T08:38:14Z</time>
<desc>lat.=55.954937, lon.=26.542217, Alt.=178.744263m. Speed=14.868000m/h.</desc>
<speed>4.130000</speed>
</trkpt>
<trkpt lat="55.954948" lon="26.542274">
<ele>180.130981</ele>
<time>2010-08-29T08:38:15Z</time>
<desc>lat.=55.954948, lon.=26.542274, Alt.=180.130981m. Speed=13.176000m/h.</desc>
<speed>3.660000</speed>
</trkpt>
<trkpt lat="55.954964" lon="26.542328">
<ele>181.392700</ele>
<time>2010-08-29T08:38:16Z</time>
<desc>lat.=55.954964, lon.=26.542328, Alt.=181.392700m. Speed=12.816000m/h.</desc>
<speed>3.560000</speed>
</trkpt>
<trkpt lat="55.954975" lon="26.542387">
<ele>180.470825</ele>
<time>2010-08-29T08:38:17Z</time>
<desc>lat.=55.954975, lon.=26.542387, Alt.=180.470825m. Speed=13.860000m/h.</desc>
<speed>3.850000</speed>
</trkpt>
<trkpt lat="55.954975" lon="26.542456">
<ele>181.623169</ele>
<time>2010-08-29T08:38:18Z</time>
<desc>lat.=55.954975, lon.=26.542456, Alt.=181.623169m. Speed=15.012000m/h.</desc>
<speed>4.170000</speed>
</trkpt>
<trkpt lat="55.954971" lon="26.542543">
<ele>182.638794</ele>
<time>2010-08-29T08:38:19Z</time>
<desc>lat.=55.954971, lon.=26.542543, Alt.=182.638794m. Speed=16.596001m/h.</desc>
<speed>4.610000</speed>
</trkpt>
<trkpt lat="55.954960" lon="26.542627">
<ele>183.541138</ele>
<time>2010-08-29T08:38:20Z</time>
<desc>lat.=55.954960, lon.=26.542627, Alt.=183.541138m. Speed=15.048000m/h.</desc>
<speed>4.180000</speed>
</trkpt>
<trkpt lat="55.954952" lon="26.542709">
<ele>184.787231</ele>
<time>2010-08-29T08:38:21Z</time>
<desc>lat.=55.954952, lon.=26.542709, Alt.=184.787231m. Speed=14.976000m/h.</desc>
<speed>4.160000</speed>
</trkpt>
<trkpt lat="55.954941" lon="26.542788">
<ele>187.486450</ele>
<time>2010-08-29T08:38:22Z</time>
<desc>lat.=55.954941, lon.=26.542788, Alt.=187.486450m. Speed=15.264000m/h.</desc>
<speed>4.240000</speed>
</trkpt>
<trkpt lat="55.954914" lon="26.542856">
<ele>188.923950</ele>
<time>2010-08-29T08:38:23Z</time>
<desc>lat.=55.954914, lon.=26.542856, Alt.=188.923950m. Speed=15.588000m/h.</desc>
<speed>4.330000</speed>
</trkpt>
<trkpt lat="55.954891" lon="26.542925">
<ele>189.865356</ele>
<time>2010-08-29T08:38:24Z</time>
<desc>lat.=55.954891, lon.=26.542925, Alt.=189.865356m. Speed=13.788000m/h.</desc>
<speed>3.830000</speed>
</trkpt>
<trkpt lat="55.954891" lon="26.542986">
<ele>191.388794</ele>
<time>2010-08-29T08:38:25Z</time>
<desc>lat.=55.954891, lon.=26.542986, Alt.=191.388794m. Speed=11.340000m/h.</desc>
<speed>3.150000</speed>
</trkpt>
<trkpt lat="55.954861" lon="26.543064">
<ele>187.681763</ele>
<time>2010-08-29T08:38:26Z</time>
<desc>lat.=55.954861, lon.=26.543064, Alt.=187.681763m. Speed=14.508000m/h.</desc>
<speed>4.030000</speed>
</trkpt>
<trkpt lat="55.954861" lon="26.543142">
<ele>189.138794</ele>
<time>2010-08-29T08:38:27Z</time>
<desc>lat.=55.954861, lon.=26.543142, Alt.=189.138794m. Speed=13.824000m/h.</desc>
<speed>3.840000</speed>
</trkpt>
<trkpt lat="55.954861" lon="26.543221">
<ele>190.029419</ele>
<time>2010-08-29T08:38:28Z</time>
<desc>lat.=55.954861, lon.=26.543221, Alt.=190.029419m. Speed=14.400000m/h.</desc>
<speed>4.000000</speed>
</trkpt>
<trkpt lat="55.954861" lon="26.543287">
<ele>191.244263</ele>
<time>2010-08-29T08:38:29Z</time>
<desc>lat.=55.954861, lon.=26.543287, Alt.=191.244263m. Speed=12.312000m/h.</desc>
<speed>3.420000</speed>
</trkpt>
<trkpt lat="55.954861" lon="26.543339">
<ele>192.615356</ele>
<time>2010-08-29T08:38:30Z</time>
<desc>lat.=55.954861, lon.=26.543339, Alt.=192.615356m. Speed=10.296000m/h.</desc>
<speed>2.860000</speed>
</trkpt>
<trkpt lat="55.954868" lon="26.543402">
<ele>194.486450</ele>
<time>2010-08-29T08:38:31Z</time>
<desc>lat.=55.954868, lon.=26.543402, Alt.=194.486450m. Speed=12.528000m/h.</desc>
<speed>3.480000</speed>
</trkpt>
<trkpt lat="55.954861" lon="26.543449">
<ele>195.935669</ele>
<time>2010-08-29T08:38:32Z</time>
<desc>lat.=55.954861, lon.=26.543449, Alt.=195.935669m. Speed=10.620000m/h.</desc>
<speed>2.950000</speed>
</trkpt>
<trkpt lat="55.954861" lon="26.543512">
<ele>197.716919</ele>
<time>2010-08-29T08:38:33Z</time>
<desc>lat.=55.954861, lon.=26.543512, Alt.=197.716919m. Speed=10.872000m/h.</desc>
<speed>3.020000</speed>
</trkpt>
<trkpt lat="55.954865" lon="26.543579">
<ele>198.959106</ele>
<time>2010-08-29T08:38:34Z</time>
<desc>lat.=55.954865, lon.=26.543579, Alt.=198.959106m. Speed=11.412000m/h.</desc>
<speed>3.170000</speed>
</trkpt>
<trkpt lat="55.954861" lon="26.543640">
<ele>196.974731</ele>
<time>2010-08-29T08:38:35Z</time>
<desc>lat.=55.954861, lon.=26.543640, Alt.=196.974731m. Speed=10.368000m/h.</desc>
<speed>2.880000</speed>
</trkpt>
<trkpt lat="55.954861" lon="26.543699">
<ele>199.662231</ele>
<time>2010-08-29T08:38:36Z</time>
<desc>lat.=55.954861, lon.=26.543699, Alt.=199.662231m. Speed=11.232000m/h.</desc>
<speed>3.120000</speed>
</trkpt>
<trkpt lat="55.954857" lon="26.543770">
<ele>200.673950</ele>
<time>2010-08-29T08:38:37Z</time>
<desc>lat.=55.954857, lon.=26.543770, Alt.=200.673950m. Speed=10.116000m/h.</desc>
<speed>2.810000</speed>
</trkpt>
<trkpt lat="55.954845" lon="26.543833">
<ele>201.564575</ele>
<time>2010-08-29T08:38:38Z</time>
<desc>lat.=55.954845, lon.=26.543833, Alt.=201.564575m. Speed=11.736000m/h.</desc>
<speed>3.260000</speed>
</trkpt>
<trkpt lat="55.954853" lon="26.543900">
<ele>202.349731</ele>
<time>2010-08-29T08:38:39Z</time>
<desc>lat.=55.954853, lon.=26.543900, Alt.=202.349731m. Speed=12.096000m/h.</desc>
<speed>3.360000</speed>
</trkpt>
<trkpt lat="55.954845" lon="26.543955">
<ele>202.959106</ele>
<time>2010-08-29T08:38:40Z</time>
<desc>lat.=55.954845, lon.=26.543955, Alt.=202.959106m. Speed=10.620000m/h.</desc>
<speed>2.950000</speed>
</trkpt>
<trkpt lat="55.954838" lon="26.544010">
<ele>202.970825</ele>
<time>2010-08-29T08:38:41Z</time>
<desc>lat.=55.954838, lon.=26.544010, Alt.=202.970825m. Speed=11.232000m/h.</desc>
<speed>3.120000</speed>
</trkpt>
<trkpt lat="55.954838" lon="26.544075">
<ele>203.021606</ele>
<time>2010-08-29T08:38:42Z</time>
<desc>lat.=55.954838, lon.=26.544075, Alt.=203.021606m. Speed=9.360000m/h.</desc>
<speed>2.600000</speed>
</trkpt>
<trkpt lat="55.954830" lon="26.544132">
<ele>203.556763</ele>
<time>2010-08-29T08:38:43Z</time>
<desc>lat.=55.954830, lon.=26.544132, Alt.=203.556763m. Speed=9.180000m/h.</desc>
<speed>2.550000</speed>
</trkpt>
<trkpt lat="55.954830" lon="26.544180">
<ele>204.951294</ele>
<time>2010-08-29T08:38:44Z</time>
<desc>lat.=55.954830, lon.=26.544180, Alt.=204.951294m. Speed=9.432000m/h.</desc>
<speed>2.620000</speed>
</trkpt>
<trkpt lat="55.954823" lon="26.544231">
<ele>205.545044</ele>
<time>2010-08-29T08:38:45Z</time>
<desc>lat.=55.954823, lon.=26.544231, Alt.=205.545044m. Speed=9.036000m/h.</desc>
<speed>2.510000</speed>
</trkpt>
<trkpt lat="55.954823" lon="26.544277">
<ele>206.369263</ele>
<time>2010-08-29T08:38:46Z</time>
<desc>lat.=55.954823, lon.=26.544277, Alt.=206.369263m. Speed=8.676000m/h.</desc>
<speed>2.410000</speed>
</trkpt>
<trkpt lat="55.954823" lon="26.544321">
<ele>206.498169</ele>
<time>2010-08-29T08:38:47Z</time>
<desc>lat.=55.954823, lon.=26.544321, Alt.=206.498169m. Speed=7.776000m/h.</desc>
<speed>2.160000</speed>
</trkpt>
<trkpt lat="55.954819" lon="26.544369">
<ele>206.685669</ele>
<time>2010-08-29T08:38:48Z</time>
<desc>lat.=55.954819, lon.=26.544369, Alt.=206.685669m. Speed=8.028000m/h.</desc>
<speed>2.230000</speed>
</trkpt>
<trkpt lat="55.954819" lon="26.544415">
<ele>206.252075</ele>
<time>2010-08-29T08:38:49Z</time>
<desc>lat.=55.954819, lon.=26.544415, Alt.=206.252075m. Speed=7.344000m/h.</desc>
<speed>2.040000</speed>
</trkpt>
<trkpt lat="55.954819" lon="26.544447">
<ele>206.177856</ele>
<time>2010-08-29T08:38:50Z</time>
<desc>lat.=55.954819, lon.=26.544447, Alt.=206.177856m. Speed=7.020000m/h.</desc>
<speed>1.950000</speed>
</trkpt>
<trkpt lat="55.954815" lon="26.544497">
<ele>203.525513</ele>
<time>2010-08-29T08:38:51Z</time>
<desc>lat.=55.954815, lon.=26.544497, Alt.=203.525513m. Speed=9.324000m/h.</desc>
<speed>2.590000</speed>
</trkpt>
<trkpt lat="55.954819" lon="26.544542">
<ele>204.670044</ele>
<time>2010-08-29T08:38:52Z</time>
<desc>lat.=55.954819, lon.=26.544542, Alt.=204.670044m. Speed=9.000000m/h.</desc>
<speed>2.500000</speed>
</trkpt>
<trkpt lat="55.954819" lon="26.544603">
<ele>204.002075</ele>
<time>2010-08-29T08:38:53Z</time>
<desc>lat.=55.954819, lon.=26.544603, Alt.=204.002075m. Speed=9.864000m/h.</desc>
<speed>2.740000</speed>
</trkpt>
<trkpt lat="55.954815" lon="26.544668">
<ele>203.529419</ele>
<time>2010-08-29T08:38:54Z</time>
<desc>lat.=55.954815, lon.=26.544668, Alt.=203.529419m. Speed=11.016000m/h.</desc>
<speed>3.060000</speed>
</trkpt>
<trkpt lat="55.954811" lon="26.544739">
<ele>202.443481</ele>
<time>2010-08-29T08:38:55Z</time>
<desc>lat.=55.954811, lon.=26.544739, Alt.=202.443481m. Speed=10.476000m/h.</desc>
<speed>2.910000</speed>
</trkpt>
<trkpt lat="55.954800" lon="26.544790">
<ele>202.115356</ele>
<time>2010-08-29T08:38:56Z</time>
<desc>lat.=55.954800, lon.=26.544790, Alt.=202.115356m. Speed=10.152000m/h.</desc>
<speed>2.820000</speed>
</trkpt>
<trkpt lat="55.954803" lon="26.544851">
<ele>202.138794</ele>
<time>2010-08-29T08:38:57Z</time>
<desc>lat.=55.954803, lon.=26.544851, Alt.=202.138794m. Speed=10.152000m/h.</desc>
<speed>2.820000</speed>
</trkpt>
<trkpt lat="55.954807" lon="26.544920">
<ele>201.193481</ele>
<time>2010-08-29T08:38:58Z</time>
<desc>lat.=55.954807, lon.=26.544920, Alt.=201.193481m. Speed=12.204000m/h.</desc>
<speed>3.390000</speed>
</trkpt>
<trkpt lat="55.954819" lon="26.544985">
<ele>202.400513</ele>
<time>2010-08-29T08:38:59Z</time>
<desc>lat.=55.954819, lon.=26.544985, Alt.=202.400513m. Speed=12.996000m/h.</desc>
<speed>3.610000</speed>
</trkpt>
<trkpt lat="55.954826" lon="26.545052">
<ele>204.177856</ele>
<time>2010-08-29T08:39:00Z</time>
<desc>lat.=55.954826, lon.=26.545052, Alt.=204.177856m. Speed=12.888000m/h.</desc>
<speed>3.580000</speed>
</trkpt>
<trkpt lat="55.954834" lon="26.545130">
<ele>202.845825</ele>
<time>2010-08-29T08:39:01Z</time>
<desc>lat.=55.954834, lon.=26.545130, Alt.=202.845825m. Speed=12.276000m/h.</desc>
<speed>3.410000</speed>
</trkpt>
<trkpt lat="55.954830" lon="26.545208">
<ele>203.423950</ele>
<time>2010-08-29T08:39:02Z</time>
<desc>lat.=55.954830, lon.=26.545208, Alt.=203.423950m. Speed=14.832000m/h.</desc>
<speed>4.120000</speed>
</trkpt>
<trkpt lat="55.954830" lon="26.545307">
<ele>202.357544</ele>
<time>2010-08-29T08:39:03Z</time>
<desc>lat.=55.954830, lon.=26.545307, Alt.=202.357544m. Speed=15.048000m/h.</desc>
<speed>4.180000</speed>
</trkpt>
<trkpt lat="55.954823" lon="26.545397">
<ele>201.564575</ele>
<time>2010-08-29T08:39:04Z</time>
<desc>lat.=55.954823, lon.=26.545397, Alt.=201.564575m. Speed=16.559999m/h.</desc>
<speed>4.600000</speed>
</trkpt>
<trkpt lat="55.954826" lon="26.545475">
<ele>201.658325</ele>
<time>2010-08-29T08:39:05Z</time>
<desc>lat.=55.954826, lon.=26.545475, Alt.=201.658325m. Speed=14.544000m/h.</desc>
<speed>4.040000</speed>
</trkpt>
<trkpt lat="55.954834" lon="26.545546">
<ele>202.927856</ele>
<time>2010-08-29T08:39:06Z</time>
<desc>lat.=55.954834, lon.=26.545546, Alt.=202.927856m. Speed=12.492000m/h.</desc>
<speed>3.470000</speed>
</trkpt>
<trkpt lat="55.954838" lon="26.545612">
<ele>203.443481</ele>
<time>2010-08-29T08:39:07Z</time>
<desc>lat.=55.954838, lon.=26.545612, Alt.=203.443481m. Speed=9.396000m/h.</desc>
<speed>2.610000</speed>
</trkpt>
<trkpt lat="55.954845" lon="26.545666">
<ele>205.826294</ele>
<time>2010-08-29T08:39:08Z</time>
<desc>lat.=55.954845, lon.=26.545666, Alt.=205.826294m. Speed=11.196000m/h.</desc>
<speed>3.110000</speed>
</trkpt>
<trkpt lat="55.954842" lon="26.545721">
<ele>208.306763</ele>
<time>2010-08-29T08:39:09Z</time>
<desc>lat.=55.954842, lon.=26.545721, Alt.=208.306763m. Speed=9.180000m/h.</desc>
<speed>2.550000</speed>
</trkpt>
<trkpt lat="55.954849" lon="26.545776">
<ele>211.076294</ele>
<time>2010-08-29T08:39:10Z</time>
<desc>lat.=55.954849, lon.=26.545776, Alt.=211.076294m. Speed=11.088000m/h.</desc>
<speed>3.080000</speed>
</trkpt>
<trkpt lat="55.954849" lon="26.545835">
<ele>209.127075</ele>
<time>2010-08-29T08:39:11Z</time>
<desc>lat.=55.954849, lon.=26.545835, Alt.=209.127075m. Speed=10.908000m/h.</desc>
<speed>3.030000</speed>
</trkpt>
<trkpt lat="55.954861" lon="26.545895">
<ele>211.216919</ele>
<time>2010-08-29T08:39:12Z</time>
<desc>lat.=55.954861, lon.=26.545895, Alt.=211.216919m. Speed=12.852000m/h.</desc>
<speed>3.570000</speed>
</trkpt>
<trkpt lat="55.954865" lon="26.545961">
<ele>212.791138</ele>
<time>2010-08-29T08:39:13Z</time>
<desc>lat.=55.954865, lon.=26.545961, Alt.=212.791138m. Speed=14.436000m/h.</desc>
<speed>4.010000</speed>
</trkpt>
<trkpt lat="55.954857" lon="26.546045">
<ele>213.963013</ele>
<time>2010-08-29T08:39:14Z</time>
<desc>lat.=55.954857, lon.=26.546045, Alt.=213.963013m. Speed=15.336000m/h.</desc>
<speed>4.260000</speed>
</trkpt>
<trkpt lat="55.954868" lon="26.546122">
<ele>215.798950</ele>
<time>2010-08-29T08:39:15Z</time>
<desc>lat.=55.954868, lon.=26.546122, Alt.=215.798950m. Speed=15.876000m/h.</desc>
<speed>4.410000</speed>
</trkpt>
<trkpt lat="55.954872" lon="26.546185">
<ele>217.466919</ele>
<time>2010-08-29T08:39:16Z</time>
<desc>lat.=55.954872, lon.=26.546185, Alt.=217.466919m. Speed=12.312000m/h.</desc>
<speed>3.420000</speed>
</trkpt>
<trkpt lat="55.954876" lon="26.546289">
<ele>219.787231</ele>
<time>2010-08-29T08:39:17Z</time>
<desc>lat.=55.954876, lon.=26.546289, Alt.=219.787231m. Speed=16.992001m/h.</desc>
<speed>4.720000</speed>
</trkpt>
<trkpt lat="55.954868" lon="26.546400">
<ele>221.205200</ele>
<time>2010-08-29T08:39:18Z</time>
<desc>lat.=55.954868, lon.=26.546400, Alt.=221.205200m. Speed=17.100000m/h.</desc>
<speed>4.750000</speed>
</trkpt>
<trkpt lat="55.954876" lon="26.546499">
<ele>223.341919</ele>
<time>2010-08-29T08:39:19Z</time>
<desc>lat.=55.954876, lon.=26.546499, Alt.=223.341919m. Speed=17.424000m/h.</desc>
<speed>4.840000</speed>
</trkpt>
<trkpt lat="55.954880" lon="26.546593">
<ele>225.400513</ele>
<time>2010-08-29T08:39:20Z</time>
<desc>lat.=55.954880, lon.=26.546593, Alt.=225.400513m. Speed=17.028000m/h.</desc>
<speed>4.730000</speed>
</trkpt>
<trkpt lat="55.954880" lon="26.546684">
<ele>226.673950</ele>
<time>2010-08-29T08:39:21Z</time>
<desc>lat.=55.954880, lon.=26.546684, Alt.=226.673950m. Speed=18.252001m/h.</desc>
<speed>5.070000</speed>
</trkpt>
<trkpt lat="55.954884" lon="26.546772">
<ele>228.177856</ele>
<time>2010-08-29T08:39:22Z</time>
<desc>lat.=55.954884, lon.=26.546772, Alt.=228.177856m. Speed=17.604000m/h.</desc>
<speed>4.890000</speed>
</trkpt>
<trkpt lat="55.954868" lon="26.546886">
<ele>231.338013</ele>
<time>2010-08-29T08:39:23Z</time>
<desc>lat.=55.954868, lon.=26.546886, Alt.=231.338013m. Speed=16.667999m/h.</desc>
<speed>4.630000</speed>
</trkpt>
<trkpt lat="55.954861" lon="26.546999">
<ele>232.884888</ele>
<time>2010-08-29T08:39:24Z</time>
<desc>lat.=55.954861, lon.=26.546999, Alt.=232.884888m. Speed=16.559999m/h.</desc>
<speed>4.600000</speed>
</trkpt>
<trkpt lat="55.954861" lon="26.547100">
<ele>233.377075</ele>
<time>2010-08-29T08:39:25Z</time>
<desc>lat.=55.954861, lon.=26.547100, Alt.=233.377075m. Speed=17.172001m/h.</desc>
<speed>4.770000</speed>
</trkpt>
<trkpt lat="55.954865" lon="26.547186">
<ele>235.322388</ele>
<time>2010-08-29T08:39:26Z</time>
<desc>lat.=55.954865, lon.=26.547186, Alt.=235.322388m. Speed=15.552000m/h.</desc>
<speed>4.320000</speed>
</trkpt>
<trkpt lat="55.954861" lon="26.547260">
<ele>235.744263</ele>
<time>2010-08-29T08:39:27Z</time>
<desc>lat.=55.954861, lon.=26.547260, Alt.=235.744263m. Speed=15.408000m/h.</desc>
<speed>4.280000</speed>
</trkpt>
<trkpt lat="55.954849" lon="26.547333">
<ele>232.916138</ele>
<time>2010-08-29T08:39:28Z</time>
<desc>lat.=55.954849, lon.=26.547333, Alt.=232.916138m. Speed=14.724000m/h.</desc>
<speed>4.090000</speed>
</trkpt>
<trkpt lat="55.954849" lon="26.547403">
<ele>232.369263</ele>
<time>2010-08-29T08:39:29Z</time>
<desc>lat.=55.954849, lon.=26.547403, Alt.=232.369263m. Speed=15.048000m/h.</desc>
<speed>4.180000</speed>
</trkpt>
<trkpt lat="55.954857" lon="26.547480">
<ele>232.978638</ele>
<time>2010-08-29T08:39:30Z</time>
<desc>lat.=55.954857, lon.=26.547480, Alt.=232.978638m. Speed=15.660000m/h.</desc>
<speed>4.350000</speed>
</trkpt>
<trkpt lat="55.954857" lon="26.547552">
<ele>233.189575</ele>
<time>2010-08-29T08:39:31Z</time>
<desc>lat.=55.954857, lon.=26.547552, Alt.=233.189575m. Speed=15.552000m/h.</desc>
<speed>4.320000</speed>
</trkpt>
<trkpt lat="55.954857" lon="26.547623">
<ele>232.974731</ele>
<time>2010-08-29T08:39:32Z</time>
<desc>lat.=55.954857, lon.=26.547623, Alt.=232.974731m. Speed=15.300000m/h.</desc>
<speed>4.250000</speed>
</trkpt>
<trkpt lat="55.954861" lon="26.547689">
<ele>233.529419</ele>
<time>2010-08-29T08:39:33Z</time>
<desc>lat.=55.954861, lon.=26.547689, Alt.=233.529419m. Speed=14.616000m/h.</desc>
<speed>4.060000</speed>
</trkpt>
<trkpt lat="55.954868" lon="26.547766">
<ele>234.162231</ele>
<time>2010-08-29T08:39:34Z</time>
<desc>lat.=55.954868, lon.=26.547766, Alt.=234.162231m. Speed=14.796000m/h.</desc>
<speed>4.110000</speed>
</trkpt>
<trkpt lat="55.954868" lon="26.547844">
<ele>234.127075</ele>
<time>2010-08-29T08:39:35Z</time>
<desc>lat.=55.954868, lon.=26.547844, Alt.=234.127075m. Speed=14.076000m/h.</desc>
<speed>3.910000</speed>
</trkpt>
<trkpt lat="55.954865" lon="26.547928">
<ele>232.408325</ele>
<time>2010-08-29T08:39:36Z</time>
<desc>lat.=55.954865, lon.=26.547928, Alt.=232.408325m. Speed=13.536000m/h.</desc>
<speed>3.760000</speed>
</trkpt>
<trkpt lat="55.954861" lon="26.548010">
<ele>231.732544</ele>
<time>2010-08-29T08:39:37Z</time>
<desc>lat.=55.954861, lon.=26.548010, Alt.=231.732544m. Speed=14.940000m/h.</desc>
<speed>4.150000</speed>
</trkpt>
<trkpt lat="55.954865" lon="26.548082">
<ele>232.334106</ele>
<time>2010-08-29T08:39:38Z</time>
<desc>lat.=55.954865, lon.=26.548082, Alt.=232.334106m. Speed=14.184000m/h.</desc>
<speed>3.940000</speed>
</trkpt>
<trkpt lat="55.954865" lon="26.548145">
<ele>233.466919</ele>
<time>2010-08-29T08:39:39Z</time>
<desc>lat.=55.954865, lon.=26.548145, Alt.=233.466919m. Speed=14.868000m/h.</desc>
<speed>4.130000</speed>
</trkpt>
<trkpt lat="55.954853" lon="26.548246">
<ele>230.248169</ele>
<time>2010-08-29T08:39:40Z</time>
<desc>lat.=55.954853, lon.=26.548246, Alt.=230.248169m. Speed=14.976000m/h.</desc>
<speed>4.160000</speed>
</trkpt>
<trkpt lat="55.954849" lon="26.548317">
<ele>229.072388</ele>
<time>2010-08-29T08:39:41Z</time>
<desc>lat.=55.954849, lon.=26.548317, Alt.=229.072388m. Speed=14.328000m/h.</desc>
<speed>3.980000</speed>
</trkpt>
<trkpt lat="55.954838" lon="26.548410">
<ele>228.084106</ele>
<time>2010-08-29T08:39:42Z</time>
<desc>lat.=55.954838, lon.=26.548410, Alt.=228.084106m. Speed=14.796000m/h.</desc>
<speed>4.110000</speed>
</trkpt>
<trkpt lat="55.954826" lon="26.548496">
<ele>227.029419</ele>
<time>2010-08-29T08:39:43Z</time>
<desc>lat.=55.954826, lon.=26.548496, Alt.=227.029419m. Speed=14.256000m/h.</desc>
<speed>3.960000</speed>
</trkpt>
<trkpt lat="55.954815" lon="26.548571">
<ele>226.755981</ele>
<time>2010-08-29T08:39:44Z</time>
<desc>lat.=55.954815, lon.=26.548571, Alt.=226.755981m. Speed=13.788000m/h.</desc>
<speed>3.830000</speed>
</trkpt>
<trkpt lat="55.954803" lon="26.548660">
<ele>224.357544</ele>
<time>2010-08-29T08:39:45Z</time>
<desc>lat.=55.954803, lon.=26.548660, Alt.=224.357544m. Speed=14.184000m/h.</desc>
<speed>3.940000</speed>
</trkpt>
<trkpt lat="55.954807" lon="26.548725">
<ele>225.498169</ele>
<time>2010-08-29T08:39:46Z</time>
<desc>lat.=55.954807, lon.=26.548725, Alt.=225.498169m. Speed=13.500000m/h.</desc>
<speed>3.750000</speed>
</trkpt>
<trkpt lat="55.954807" lon="26.548788">
<ele>225.490356</ele>
<time>2010-08-29T08:39:47Z</time>
<desc>lat.=55.954807, lon.=26.548788, Alt.=225.490356m. Speed=12.780000m/h.</desc>
<speed>3.550000</speed>
</trkpt>
<trkpt lat="55.954807" lon="26.548847">
<ele>225.716919</ele>
<time>2010-08-29T08:39:48Z</time>
<desc>lat.=55.954807, lon.=26.548847, Alt.=225.716919m. Speed=12.420000m/h.</desc>
<speed>3.450000</speed>
</trkpt>
<trkpt lat="55.954800" lon="26.548914">
<ele>226.498169</ele>
<time>2010-08-29T08:39:49Z</time>
<desc>lat.=55.954800, lon.=26.548914, Alt.=226.498169m. Speed=12.456000m/h.</desc>
<speed>3.460000</speed>
</trkpt>
<trkpt lat="55.954784" lon="26.549011">
<ele>223.255981</ele>
<time>2010-08-29T08:39:50Z</time>
<desc>lat.=55.954784, lon.=26.549011, Alt.=223.255981m. Speed=12.240000m/h.</desc>
<speed>3.400000</speed>
</trkpt>
<trkpt lat="55.954784" lon="26.549078">
<ele>221.002075</ele>
<time>2010-08-29T08:39:51Z</time>
<desc>lat.=55.954784, lon.=26.549078, Alt.=221.002075m. Speed=11.700000m/h.</desc>
<speed>3.250000</speed>
</trkpt>
<trkpt lat="55.954784" lon="26.549139">
<ele>219.681763</ele>
<time>2010-08-29T08:39:52Z</time>
<desc>lat.=55.954784, lon.=26.549139, Alt.=219.681763m. Speed=11.412000m/h.</desc>
<speed>3.170000</speed>
</trkpt>
<trkpt lat="55.954773" lon="26.549238">
<ele>213.884888</ele>
<time>2010-08-29T08:39:53Z</time>
<desc>lat.=55.954773, lon.=26.549238, Alt.=213.884888m. Speed=11.772000m/h.</desc>
<speed>3.270000</speed>
</trkpt>
<trkpt lat="55.954773" lon="26.549324">
<ele>212.298950</ele>
<time>2010-08-29T08:39:54Z</time>
<desc>lat.=55.954773, lon.=26.549324, Alt.=212.298950m. Speed=11.052000m/h.</desc>
<speed>3.070000</speed>
</trkpt>
<trkpt lat="55.954769" lon="26.549391">
<ele>210.255981</ele>
<time>2010-08-29T08:39:55Z</time>
<desc>lat.=55.954769, lon.=26.549391, Alt.=210.255981m. Speed=10.296000m/h.</desc>
<speed>2.860000</speed>
</trkpt>
<trkpt lat="55.954765" lon="26.549450">
<ele>209.439575</ele>
<time>2010-08-29T08:39:56Z</time>
<desc>lat.=55.954765, lon.=26.549450, Alt.=209.439575m. Speed=10.584000m/h.</desc>
<speed>2.940000</speed>
</trkpt>
<trkpt lat="55.954758" lon="26.549520">
<ele>206.982544</ele>
<time>2010-08-29T08:39:57Z</time>
<desc>lat.=55.954758, lon.=26.549520, Alt.=206.982544m. Speed=10.620000m/h.</desc>
<speed>2.950000</speed>
</trkpt>
<trkpt lat="55.954762" lon="26.549580">
<ele>205.494263</ele>
<time>2010-08-29T08:39:58Z</time>
<desc>lat.=55.954762, lon.=26.549580, Alt.=205.494263m. Speed=10.476000m/h.</desc>
<speed>2.910000</speed>
</trkpt>
<trkpt lat="55.954754" lon="26.549644">
<ele>201.404419</ele>
<time>2010-08-29T08:39:59Z</time>
<desc>lat.=55.954754, lon.=26.549644, Alt.=201.404419m. Speed=8.640000m/h.</desc>
<speed>2.400000</speed>
</trkpt>
<trkpt lat="55.954746" lon="26.549688">
<ele>201.736450</ele>
<time>2010-08-29T08:40:00Z</time>
<desc>lat.=55.954746, lon.=26.549688, Alt.=201.736450m. Speed=9.612000m/h.</desc>
<speed>2.670000</speed>
</trkpt>
<trkpt lat="55.954735" lon="26.549732">
<ele>200.916138</ele>
<time>2010-08-29T08:40:01Z</time>
<desc>lat.=55.954735, lon.=26.549732, Alt.=200.916138m. Speed=9.504000m/h.</desc>
<speed>2.640000</speed>
</trkpt>
<trkpt lat="55.954723" lon="26.549795">
<ele>199.173950</ele>
<time>2010-08-29T08:40:02Z</time>
<desc>lat.=55.954723, lon.=26.549795, Alt.=199.173950m. Speed=10.764000m/h.</desc>
<speed>2.990000</speed>
</trkpt>
<trkpt lat="55.954723" lon="26.549852">
<ele>198.287231</ele>
<time>2010-08-29T08:40:03Z</time>
<desc>lat.=55.954723, lon.=26.549852, Alt.=198.287231m. Speed=10.044000m/h.</desc>
<speed>2.790000</speed>
</trkpt>
<trkpt lat="55.954723" lon="26.549898">
<ele>198.310669</ele>
<time>2010-08-29T08:40:04Z</time>
<desc>lat.=55.954723, lon.=26.549898, Alt.=198.310669m. Speed=8.640000m/h.</desc>
<speed>2.400000</speed>
</trkpt>
<trkpt lat="55.954712" lon="26.549948">
<ele>196.505981</ele>
<time>2010-08-29T08:40:05Z</time>
<desc>lat.=55.954712, lon.=26.549948, Alt.=196.505981m. Speed=11.016000m/h.</desc>
<speed>3.060000</speed>
</trkpt>
<trkpt lat="55.954712" lon="26.550009">
<ele>195.755981</ele>
<time>2010-08-29T08:40:06Z</time>
<desc>lat.=55.954712, lon.=26.550009, Alt.=195.755981m. Speed=10.944000m/h.</desc>
<speed>3.040000</speed>
</trkpt>
<trkpt lat="55.954712" lon="26.550068">
<ele>195.146606</ele>
<time>2010-08-29T08:40:07Z</time>
<desc>lat.=55.954712, lon.=26.550068, Alt.=195.146606m. Speed=11.916000m/h.</desc>
<speed>3.310000</speed>
</trkpt>
<trkpt lat="55.954704" lon="26.550131">
<ele>193.959106</ele>
<time>2010-08-29T08:40:08Z</time>
<desc>lat.=55.954704, lon.=26.550131, Alt.=193.959106m. Speed=11.664000m/h.</desc>
<speed>3.240000</speed>
</trkpt>
<trkpt lat="55.954700" lon="26.550203">
<ele>193.377075</ele>
<time>2010-08-29T08:40:09Z</time>
<desc>lat.=55.954700, lon.=26.550203, Alt.=193.377075m. Speed=14.220000m/h.</desc>
<speed>3.950000</speed>
</trkpt>
<trkpt lat="55.954704" lon="26.550274">
<ele>193.224731</ele>
<time>2010-08-29T08:40:10Z</time>
<desc>lat.=55.954704, lon.=26.550274, Alt.=193.224731m. Speed=13.788000m/h.</desc>
<speed>3.830000</speed>
</trkpt>
<trkpt lat="55.954693" lon="26.550350">
<ele>191.966919</ele>
<time>2010-08-29T08:40:11Z</time>
<desc>lat.=55.954693, lon.=26.550350, Alt.=191.966919m. Speed=14.364000m/h.</desc>
<speed>3.990000</speed>
</trkpt>
<trkpt lat="55.954693" lon="26.550428">
<ele>191.830200</ele>
<time>2010-08-29T08:40:12Z</time>
<desc>lat.=55.954693, lon.=26.550428, Alt.=191.830200m. Speed=14.760000m/h.</desc>
<speed>4.100000</speed>
</trkpt>
<trkpt lat="55.954693" lon="26.550520">
<ele>191.744263</ele>
<time>2010-08-29T08:40:13Z</time>
<desc>lat.=55.954693, lon.=26.550520, Alt.=191.744263m. Speed=15.948000m/h.</desc>
<speed>4.430000</speed>
</trkpt>
<trkpt lat="55.954700" lon="26.550615">
<ele>191.314575</ele>
<time>2010-08-29T08:40:14Z</time>
<desc>lat.=55.954700, lon.=26.550615, Alt.=191.314575m. Speed=17.100000m/h.</desc>
<speed>4.750000</speed>
</trkpt>
<trkpt lat="55.954700" lon="26.550709">
<ele>191.490356</ele>
<time>2010-08-29T08:40:15Z</time>
<desc>lat.=55.954700, lon.=26.550709, Alt.=191.490356m. Speed=18.180000m/h.</desc>
<speed>5.050000</speed>
</trkpt>
<trkpt lat="55.954697" lon="26.550823">
<ele>186.681763</ele>
<time>2010-08-29T08:40:16Z</time>
<desc>lat.=55.954697, lon.=26.550823, Alt.=186.681763m. Speed=17.964001m/h.</desc>
<speed>4.990000</speed>
</trkpt>
<trkpt lat="55.954689" lon="26.550934">
<ele>182.963013</ele>
<time>2010-08-29T08:40:17Z</time>
<desc>lat.=55.954689, lon.=26.550934, Alt.=182.963013m. Speed=18.072001m/h.</desc>
<speed>5.020000</speed>
</trkpt>
<trkpt lat="55.954685" lon="26.551006">
<ele>182.064575</ele>
<time>2010-08-29T08:40:18Z</time>
<desc>lat.=55.954685, lon.=26.551006, Alt.=182.064575m. Speed=12.636000m/h.</desc>
<speed>3.510000</speed>
</trkpt>
<trkpt lat="55.954674" lon="26.551077">
<ele>180.709106</ele>
<time>2010-08-29T08:40:19Z</time>
<desc>lat.=55.954674, lon.=26.551077, Alt.=180.709106m. Speed=14.436000m/h.</desc>
<speed>4.010000</speed>
</trkpt>
<trkpt lat="55.954674" lon="26.551149">
<ele>181.361450</ele>
<time>2010-08-29T08:40:20Z</time>
<desc>lat.=55.954674, lon.=26.551149, Alt.=181.361450m. Speed=14.616000m/h.</desc>
<speed>4.060000</speed>
</trkpt>
<trkpt lat="55.954670" lon="26.551212">
<ele>181.603638</ele>
<time>2010-08-29T08:40:21Z</time>
<desc>lat.=55.954670, lon.=26.551212, Alt.=181.603638m. Speed=12.312000m/h.</desc>
<speed>3.420000</speed>
</trkpt>
<trkpt lat="55.954651" lon="26.551304">
<ele>182.845825</ele>
<time>2010-08-29T08:40:22Z</time>
<desc>lat.=55.954651, lon.=26.551304, Alt.=182.845825m. Speed=15.444000m/h.</desc>
<speed>4.290000</speed>
</trkpt>
<trkpt lat="55.954643" lon="26.551380">
<ele>183.427856</ele>
<time>2010-08-29T08:40:23Z</time>
<desc>lat.=55.954643, lon.=26.551380, Alt.=183.427856m. Speed=14.616000m/h.</desc>
<speed>4.060000</speed>
</trkpt>
<trkpt lat="55.954628" lon="26.551462">
<ele>185.068481</ele>
<time>2010-08-29T08:40:24Z</time>
<desc>lat.=55.954628, lon.=26.551462, Alt.=185.068481m. Speed=15.912000m/h.</desc>
<speed>4.420000</speed>
</trkpt>
<trkpt lat="55.954620" lon="26.551542">
<ele>185.920044</ele>
<time>2010-08-29T08:40:25Z</time>
<desc>lat.=55.954620, lon.=26.551542, Alt.=185.920044m. Speed=16.056000m/h.</desc>
<speed>4.460000</speed>
</trkpt>
<trkpt lat="55.954617" lon="26.551619">
<ele>185.935669</ele>
<time>2010-08-29T08:40:26Z</time>
<desc>lat.=55.954617, lon.=26.551619, Alt.=185.935669m. Speed=16.992001m/h.</desc>
<speed>4.720000</speed>
</trkpt>
<trkpt lat="55.954617" lon="26.551699">
<ele>186.060669</ele>
<time>2010-08-29T08:40:27Z</time>
<desc>lat.=55.954617, lon.=26.551699, Alt.=186.060669m. Speed=15.696000m/h.</desc>
<speed>4.360000</speed>
</trkpt>
<trkpt lat="55.954617" lon="26.551779">
<ele>186.205200</ele>
<time>2010-08-29T08:40:28Z</time>
<desc>lat.=55.954617, lon.=26.551779, Alt.=186.205200m. Speed=14.976000m/h.</desc>
<speed>4.160000</speed>
</trkpt>
<trkpt lat="55.954624" lon="26.551857">
<ele>186.474731</ele>
<time>2010-08-29T08:40:29Z</time>
<desc>lat.=55.954624, lon.=26.551857, Alt.=186.474731m. Speed=13.392000m/h.</desc>
<speed>3.720000</speed>
</trkpt>
<trkpt lat="55.954636" lon="26.551941">
<ele>187.498169</ele>
<time>2010-08-29T08:40:30Z</time>
<desc>lat.=55.954636, lon.=26.551941, Alt.=187.498169m. Speed=13.392000m/h.</desc>
<speed>3.720000</speed>
</trkpt>
<trkpt lat="55.954636" lon="26.552011">
<ele>188.220825</ele>
<time>2010-08-29T08:40:31Z</time>
<desc>lat.=55.954636, lon.=26.552011, Alt.=188.220825m. Speed=12.060000m/h.</desc>
<speed>3.350000</speed>
</trkpt>
<trkpt lat="55.954632" lon="26.552086">
<ele>188.384888</ele>
<time>2010-08-29T08:40:32Z</time>
<desc>lat.=55.954632, lon.=26.552086, Alt.=188.384888m. Speed=13.968000m/h.</desc>
<speed>3.880000</speed>
</trkpt>
<trkpt lat="55.954639" lon="26.552185">
<ele>189.838013</ele>
<time>2010-08-29T08:40:33Z</time>
<desc>lat.=55.954639, lon.=26.552185, Alt.=189.838013m. Speed=15.912000m/h.</desc>
<speed>4.420000</speed>
</trkpt>
<trkpt lat="55.954655" lon="26.552280">
<ele>191.752075</ele>
<time>2010-08-29T08:40:34Z</time>
<desc>lat.=55.954655, lon.=26.552280, Alt.=191.752075m. Speed=16.091999m/h.</desc>
<speed>4.470000</speed>
</trkpt>
<trkpt lat="55.954651" lon="26.552376">
<ele>192.841919</ele>
<time>2010-08-29T08:40:35Z</time>
<desc>lat.=55.954651, lon.=26.552376, Alt.=192.841919m. Speed=17.316000m/h.</desc>
<speed>4.810000</speed>
</trkpt>
<trkpt lat="55.954639" lon="26.552502">
<ele>193.818481</ele>
<time>2010-08-29T08:40:36Z</time>
<desc>lat.=55.954639, lon.=26.552502, Alt.=193.818481m. Speed=20.520000m/h.</desc>
<speed>5.700000</speed>
</trkpt>
<trkpt lat="55.954632" lon="26.552624">
<ele>194.744263</ele>
<time>2010-08-29T08:40:37Z</time>
<desc>lat.=55.954632, lon.=26.552624, Alt.=194.744263m. Speed=21.816000m/h.</desc>
<speed>6.060000</speed>
</trkpt>
<trkpt lat="55.954647" lon="26.552746">
<ele>195.931763</ele>
<time>2010-08-29T08:40:38Z</time>
<desc>lat.=55.954647, lon.=26.552746, Alt.=195.931763m. Speed=21.816000m/h.</desc>
<speed>6.060000</speed>
</trkpt>
<trkpt lat="55.954651" lon="26.552856">
<ele>197.759888</ele>
<time>2010-08-29T08:40:39Z</time>
<desc>lat.=55.954651, lon.=26.552856, Alt.=197.759888m. Speed=20.124001m/h.</desc>
<speed>5.590000</speed>
</trkpt>
<trkpt lat="55.954647" lon="26.552942">
<ele>199.185669</ele>
<time>2010-08-29T08:40:40Z</time>
<desc>lat.=55.954647, lon.=26.552942, Alt.=199.185669m. Speed=17.424000m/h.</desc>
<speed>4.840000</speed>
</trkpt>
<trkpt lat="55.954651" lon="26.553036">
<ele>200.267700</ele>
<time>2010-08-29T08:40:41Z</time>
<desc>lat.=55.954651, lon.=26.553036, Alt.=200.267700m. Speed=18.540001m/h.</desc>
<speed>5.150000</speed>
</trkpt>
<trkpt lat="55.954651" lon="26.553127">
<ele>201.670044</ele>
<time>2010-08-29T08:40:42Z</time>
<desc>lat.=55.954651, lon.=26.553127, Alt.=201.670044m. Speed=19.332001m/h.</desc>
<speed>5.370000</speed>
</trkpt>
<trkpt lat="55.954647" lon="26.553213">
<ele>203.193481</ele>
<time>2010-08-29T08:40:43Z</time>
<desc>lat.=55.954647, lon.=26.553213, Alt.=203.193481m. Speed=17.568001m/h.</desc>
<speed>4.880000</speed>
</trkpt>
<trkpt lat="55.954636" lon="26.553299">
<ele>200.455200</ele>
<time>2010-08-29T08:40:44Z</time>
<desc>lat.=55.954636, lon.=26.553299, Alt.=200.455200m. Speed=15.660000m/h.</desc>
<speed>4.350000</speed>
</trkpt>
<trkpt lat="55.954632" lon="26.553379">
<ele>201.865356</ele>
<time>2010-08-29T08:40:45Z</time>
<desc>lat.=55.954632, lon.=26.553379, Alt.=201.865356m. Speed=16.775999m/h.</desc>
<speed>4.660000</speed>
</trkpt>
<trkpt lat="55.954628" lon="26.553455">
<ele>202.459106</ele>
<time>2010-08-29T08:40:46Z</time>
<desc>lat.=55.954628, lon.=26.553455, Alt.=202.459106m. Speed=15.228000m/h.</desc>
<speed>4.230000</speed>
</trkpt>
<trkpt lat="55.954628" lon="26.553530">
<ele>203.865356</ele>
<time>2010-08-29T08:40:47Z</time>
<desc>lat.=55.954628, lon.=26.553530, Alt.=203.865356m. Speed=16.667999m/h.</desc>
<speed>4.630000</speed>
</trkpt>
<trkpt lat="55.954620" lon="26.553625">
<ele>201.189575</ele>
<time>2010-08-29T08:40:48Z</time>
<desc>lat.=55.954620, lon.=26.553625, Alt.=201.189575m. Speed=17.208000m/h.</desc>
<speed>4.780000</speed>
</trkpt>
<trkpt lat="55.954617" lon="26.553713">
<ele>201.326294</ele>
<time>2010-08-29T08:40:49Z</time>
<desc>lat.=55.954617, lon.=26.553713, Alt.=201.326294m. Speed=17.747999m/h.</desc>
<speed>4.930000</speed>
</trkpt>
<trkpt lat="55.954617" lon="26.553791">
<ele>201.732544</ele>
<time>2010-08-29T08:40:50Z</time>
<desc>lat.=55.954617, lon.=26.553791, Alt.=201.732544m. Speed=13.824000m/h.</desc>
<speed>3.840000</speed>
</trkpt>
<trkpt lat="55.954620" lon="26.553852">
<ele>202.853638</ele>
<time>2010-08-29T08:40:51Z</time>
<desc>lat.=55.954620, lon.=26.553852, Alt.=202.853638m. Speed=12.240000m/h.</desc>
<speed>3.400000</speed>
</trkpt>
<trkpt lat="55.954624" lon="26.553919">
<ele>204.080200</ele>
<time>2010-08-29T08:40:52Z</time>
<desc>lat.=55.954624, lon.=26.553919, Alt.=204.080200m. Speed=11.556000m/h.</desc>
<speed>3.210000</speed>
</trkpt>
<trkpt lat="55.954628" lon="26.553967">
<ele>205.443481</ele>
<time>2010-08-29T08:40:53Z</time>
<desc>lat.=55.954628, lon.=26.553967, Alt.=205.443481m. Speed=7.812000m/h.</desc>
<speed>2.170000</speed>
</trkpt>
<trkpt lat="55.954632" lon="26.554005">
<ele>207.045044</ele>
<time>2010-08-29T08:40:54Z</time>
<desc>lat.=55.954632, lon.=26.554005, Alt.=207.045044m. Speed=5.220000m/h.</desc>
<speed>1.450000</speed>
</trkpt>
<trkpt lat="55.954639" lon="26.554039">
<ele>208.978638</ele>
<time>2010-08-29T08:40:55Z</time>
<desc>lat.=55.954639, lon.=26.554039, Alt.=208.978638m. Speed=3.996000m/h.</desc>
<speed>1.110000</speed>
</trkpt>
<trkpt lat="55.954678" lon="26.554113">
<ele>209.404419</ele>
<time>2010-08-29T08:40:56Z</time>
<desc>lat.=55.954678, lon.=26.554113, Alt.=209.404419m. Speed=4.824000m/h.</desc>
<speed>1.340000</speed>
</trkpt>
<trkpt lat="55.954708" lon="26.554155">
<ele>211.119263</ele>
<time>2010-08-29T08:40:57Z</time>
<desc>lat.=55.954708, lon.=26.554155, Alt.=211.119263m. Speed=4.680000m/h.</desc>
<speed>1.300000</speed>
</trkpt>
<trkpt lat="55.954731" lon="26.554178">
<ele>211.939575</ele>
<time>2010-08-29T08:40:58Z</time>
<desc>lat.=55.954731, lon.=26.554178, Alt.=211.939575m. Speed=4.284000m/h.</desc>
<speed>1.190000</speed>
</trkpt>
<trkpt lat="55.954735" lon="26.554174">
<ele>212.400513</ele>
<time>2010-08-29T08:40:59Z</time>
<desc>lat.=55.954735, lon.=26.554174, Alt.=212.400513m. Speed=3.420000m/h.</desc>
<speed>0.950000</speed>
</trkpt>
<trkpt lat="55.954739" lon="26.554169">
<ele>212.908325</ele>
<time>2010-08-29T08:41:00Z</time>
<desc>lat.=55.954739, lon.=26.554169, Alt.=212.908325m. Speed=4.320000m/h.</desc>
<speed>1.200000</speed>
</trkpt>
<trkpt lat="55.954746" lon="26.554161">
<ele>213.255981</ele>
<time>2010-08-29T08:41:01Z</time>
<desc>lat.=55.954746, lon.=26.554161, Alt.=213.255981m. Speed=6.300000m/h.</desc>
<speed>1.750000</speed>
</trkpt>
<trkpt lat="55.954758" lon="26.554155">
<ele>213.896606</ele>
<time>2010-08-29T08:41:02Z</time>
<desc>lat.=55.954758, lon.=26.554155, Alt.=213.896606m. Speed=6.408000m/h.</desc>
<speed>1.780000</speed>
</trkpt>
<trkpt lat="55.954769" lon="26.554165">
<ele>214.181763</ele>
<time>2010-08-29T08:41:03Z</time>
<desc>lat.=55.954769, lon.=26.554165, Alt.=214.181763m. Speed=5.220000m/h.</desc>
<speed>1.450000</speed>
</trkpt>
<trkpt lat="55.954781" lon="26.554180">
<ele>214.529419</ele>
<time>2010-08-29T08:41:04Z</time>
<desc>lat.=55.954781, lon.=26.554180, Alt.=214.529419m. Speed=6.120000m/h.</desc>
<speed>1.700000</speed>
</trkpt>
<trkpt lat="55.954792" lon="26.554195">
<ele>214.935669</ele>
<time>2010-08-29T08:41:05Z</time>
<desc>lat.=55.954792, lon.=26.554195, Alt.=214.935669m. Speed=5.436000m/h.</desc>
<speed>1.510000</speed>
</trkpt>
<trkpt lat="55.954800" lon="26.554201">
<ele>214.853638</ele>
<time>2010-08-29T08:41:06Z</time>
<desc>lat.=55.954800, lon.=26.554201, Alt.=214.853638m. Speed=5.760000m/h.</desc>
<speed>1.600000</speed>
</trkpt>
<trkpt lat="55.954811" lon="26.554234">
<ele>213.912231</ele>
<time>2010-08-29T08:41:07Z</time>
<desc>lat.=55.954811, lon.=26.554234, Alt.=213.912231m. Speed=6.012000m/h.</desc>
<speed>1.670000</speed>
</trkpt>
<trkpt lat="55.954826" lon="26.554264">
<ele>213.279419</ele>
<time>2010-08-29T08:41:08Z</time>
<desc>lat.=55.954826, lon.=26.554264, Alt.=213.279419m. Speed=6.336000m/h.</desc>
<speed>1.760000</speed>
</trkpt>
<trkpt lat="55.954842" lon="26.554316">
<ele>211.873169</ele>
<time>2010-08-29T08:41:09Z</time>
<desc>lat.=55.954842, lon.=26.554316, Alt.=211.873169m. Speed=8.208000m/h.</desc>
<speed>2.280000</speed>
</trkpt>
<trkpt lat="55.954861" lon="26.554352">
<ele>211.693481</ele>
<time>2010-08-29T08:41:10Z</time>
<desc>lat.=55.954861, lon.=26.554352, Alt.=211.693481m. Speed=8.604000m/h.</desc>
<speed>2.390000</speed>
</trkpt>
<trkpt lat="55.954903" lon="26.554394">
<ele>211.572388</ele>
<time>2010-08-29T08:41:11Z</time>
<desc>lat.=55.954903, lon.=26.554394, Alt.=211.572388m. Speed=10.404000m/h.</desc>
<speed>2.890000</speed>
</trkpt>
<trkpt lat="55.954918" lon="26.554485">
<ele>205.982544</ele>
<time>2010-08-29T08:41:12Z</time>
<desc>lat.=55.954918, lon.=26.554485, Alt.=205.982544m. Speed=7.632000m/h.</desc>
<speed>2.120000</speed>
</trkpt>
<trkpt lat="55.954926" lon="26.554533">
<ele>204.021606</ele>
<time>2010-08-29T08:41:13Z</time>
<desc>lat.=55.954926, lon.=26.554533, Alt.=204.021606m. Speed=6.120000m/h.</desc>
<speed>1.700000</speed>
</trkpt>
<trkpt lat="55.954945" lon="26.554558">
<ele>202.634888</ele>
<time>2010-08-29T08:41:14Z</time>
<desc>lat.=55.954945, lon.=26.554558, Alt.=202.634888m. Speed=6.516000m/h.</desc>
<speed>1.810000</speed>
</trkpt>
<trkpt lat="55.954964" lon="26.554575">
<ele>200.662231</ele>
<time>2010-08-29T08:41:15Z</time>
<desc>lat.=55.954964, lon.=26.554575, Alt.=200.662231m. Speed=4.644000m/h.</desc>
<speed>1.290000</speed>
</trkpt>
<trkpt lat="55.954987" lon="26.554600">
<ele>198.857544</ele>
<time>2010-08-29T08:41:16Z</time>
<desc>lat.=55.954987, lon.=26.554600, Alt.=198.857544m. Speed=7.740000m/h.</desc>
<speed>2.150000</speed>
</trkpt>
<trkpt lat="55.955006" lon="26.554605">
<ele>197.763794</ele>
<time>2010-08-29T08:41:17Z</time>
<desc>lat.=55.955006, lon.=26.554605, Alt.=197.763794m. Speed=7.920000m/h.</desc>
<speed>2.200000</speed>
</trkpt>
<trkpt lat="55.955029" lon="26.554609">
<ele>196.744263</ele>
<time>2010-08-29T08:41:18Z</time>
<desc>lat.=55.955029, lon.=26.554609, Alt.=196.744263m. Speed=6.588000m/h.</desc>
<speed>1.830000</speed>
</trkpt>
<trkpt lat="55.955048" lon="26.554604">
<ele>195.232544</ele>
<time>2010-08-29T08:41:19Z</time>
<desc>lat.=55.955048, lon.=26.554604, Alt.=195.232544m. Speed=7.128000m/h.</desc>
<speed>1.980000</speed>
</trkpt>
<trkpt lat="55.955067" lon="26.554590">
<ele>193.205200</ele>
<time>2010-08-29T08:41:20Z</time>
<desc>lat.=55.955067, lon.=26.554590, Alt.=193.205200m. Speed=7.992000m/h.</desc>
<speed>2.220000</speed>
</trkpt>
<trkpt lat="55.955086" lon="26.554594">
<ele>192.775513</ele>
<time>2010-08-29T08:41:21Z</time>
<desc>lat.=55.955086, lon.=26.554594, Alt.=192.775513m. Speed=5.508000m/h.</desc>
<speed>1.530000</speed>
</trkpt>
<trkpt lat="55.955109" lon="26.554609">
<ele>192.502075</ele>
<time>2010-08-29T08:41:22Z</time>
<desc>lat.=55.955109, lon.=26.554609, Alt.=192.502075m. Speed=5.076000m/h.</desc>
<speed>1.410000</speed>
</trkpt>
<trkpt lat="55.955135" lon="26.554609">
<ele>190.802856</ele>
<time>2010-08-29T08:41:23Z</time>
<desc>lat.=55.955135, lon.=26.554609, Alt.=190.802856m. Speed=8.244000m/h.</desc>
<speed>2.290000</speed>
</trkpt>
<trkpt lat="55.955158" lon="26.554611">
<ele>190.173950</ele>
<time>2010-08-29T08:41:24Z</time>
<desc>lat.=55.955158, lon.=26.554611, Alt.=190.173950m. Speed=7.884000m/h.</desc>
<speed>2.190000</speed>
</trkpt>
<trkpt lat="55.955193" lon="26.554615">
<ele>189.056763</ele>
<time>2010-08-29T08:41:25Z</time>
<desc>lat.=55.955193, lon.=26.554615, Alt.=189.056763m. Speed=9.792000m/h.</desc>
<speed>2.720000</speed>
</trkpt>
<trkpt lat="55.955219" lon="26.554626">
<ele>187.880981</ele>
<time>2010-08-29T08:41:26Z</time>
<desc>lat.=55.955219, lon.=26.554626, Alt.=187.880981m. Speed=8.100000m/h.</desc>
<speed>2.250000</speed>
</trkpt>
<trkpt lat="55.955242" lon="26.554642">
<ele>186.341919</ele>
<time>2010-08-29T08:41:27Z</time>
<desc>lat.=55.955242, lon.=26.554642, Alt.=186.341919m. Speed=5.652000m/h.</desc>
<speed>1.570000</speed>
</trkpt>
<trkpt lat="55.955273" lon="26.554649">
<ele>185.505981</ele>
<time>2010-08-29T08:41:28Z</time>
<desc>lat.=55.955273, lon.=26.554649, Alt.=185.505981m. Speed=8.244000m/h.</desc>
<speed>2.290000</speed>
</trkpt>
<trkpt lat="55.955311" lon="26.554655">
<ele>182.177856</ele>
<time>2010-08-29T08:41:29Z</time>
<desc>lat.=55.955311, lon.=26.554655, Alt.=182.177856m. Speed=9.504000m/h.</desc>
<speed>2.640000</speed>
</trkpt>
<trkpt lat="55.955330" lon="26.554655">
<ele>180.752075</ele>
<time>2010-08-29T08:41:30Z</time>
<desc>lat.=55.955330, lon.=26.554655, Alt.=180.752075m. Speed=9.504000m/h.</desc>
<speed>2.640000</speed>
</trkpt>
<trkpt lat="55.955349" lon="26.554642">
<ele>178.580200</ele>
<time>2010-08-29T08:41:31Z</time>
<desc>lat.=55.955349, lon.=26.554642, Alt.=178.580200m. Speed=8.964000m/h.</desc>
<speed>2.490000</speed>
</trkpt>
<trkpt lat="55.955376" lon="26.554634">
<ele>175.939575</ele>
<time>2010-08-29T08:41:32Z</time>
<desc>lat.=55.955376, lon.=26.554634, Alt.=175.939575m. Speed=9.252000m/h.</desc>
<speed>2.570000</speed>
</trkpt>
<trkpt lat="55.955402" lon="26.554625">
<ele>175.115356</ele>
<time>2010-08-29T08:41:33Z</time>
<desc>lat.=55.955402, lon.=26.554625, Alt.=175.115356m. Speed=8.856000m/h.</desc>
<speed>2.460000</speed>
</trkpt>
<trkpt lat="55.955425" lon="26.554619">
<ele>168.728638</ele>
<time>2010-08-29T08:41:34Z</time>
<desc>lat.=55.955425, lon.=26.554619, Alt.=168.728638m. Speed=8.352000m/h.</desc>
<speed>2.320000</speed>
</trkpt>
<trkpt lat="55.955448" lon="26.554619">
<ele>163.564575</ele>
<time>2010-08-29T08:41:35Z</time>
<desc>lat.=55.955448, lon.=26.554619, Alt.=163.564575m. Speed=10.404000m/h.</desc>
<speed>2.890000</speed>
</trkpt>
<trkpt lat="55.955490" lon="26.554647">
<ele>161.404419</ele>
<time>2010-08-29T08:41:36Z</time>
<desc>lat.=55.955490, lon.=26.554647, Alt.=161.404419m. Speed=9.756000m/h.</desc>
<speed>2.710000</speed>
</trkpt>
<trkpt lat="55.955524" lon="26.554674">
<ele>158.322388</ele>
<time>2010-08-29T08:41:37Z</time>
<desc>lat.=55.955524, lon.=26.554674, Alt.=158.322388m. Speed=9.324000m/h.</desc>
<speed>2.590000</speed>
</trkpt>
<trkpt lat="55.955544" lon="26.554691">
<ele>156.052856</ele>
<time>2010-08-29T08:41:38Z</time>
<desc>lat.=55.955544, lon.=26.554691, Alt.=156.052856m. Speed=9.252000m/h.</desc>
<speed>2.570000</speed>
</trkpt>
<trkpt lat="55.955578" lon="26.554705">
<ele>154.396606</ele>
<time>2010-08-29T08:41:39Z</time>
<desc>lat.=55.955578, lon.=26.554705, Alt.=154.396606m. Speed=10.080000m/h.</desc>
<speed>2.800000</speed>
</trkpt>
<trkpt lat="55.955624" lon="26.554722">
<ele>153.412231</ele>
<time>2010-08-29T08:41:40Z</time>
<desc>lat.=55.955624, lon.=26.554722, Alt.=153.412231m. Speed=11.592000m/h.</desc>
<speed>3.220000</speed>
</trkpt>
<trkpt lat="55.955669" lon="26.554724">
<ele>152.482544</ele>
<time>2010-08-29T08:41:41Z</time>
<desc>lat.=55.955669, lon.=26.554724, Alt.=152.482544m. Speed=15.264000m/h.</desc>
<speed>4.240000</speed>
</trkpt>
<trkpt lat="55.955715" lon="26.554716">
<ele>150.599731</ele>
<time>2010-08-29T08:41:42Z</time>
<desc>lat.=55.955715, lon.=26.554716, Alt.=150.599731m. Speed=13.464000m/h.</desc>
<speed>3.740000</speed>
</trkpt>
<trkpt lat="55.955761" lon="26.554701">
<ele>149.185669</ele>
<time>2010-08-29T08:41:43Z</time>
<desc>lat.=55.955761, lon.=26.554701, Alt.=149.185669m. Speed=15.192000m/h.</desc>
<speed>4.220000</speed>
</trkpt>
<trkpt lat="55.955803" lon="26.554691">
<ele>147.783325</ele>
<time>2010-08-29T08:41:44Z</time>
<desc>lat.=55.955803, lon.=26.554691, Alt.=147.783325m. Speed=12.528000m/h.</desc>
<speed>3.480000</speed>
</trkpt>
<trkpt lat="55.955837" lon="26.554684">
<ele>146.970825</ele>
<time>2010-08-29T08:41:45Z</time>
<desc>lat.=55.955837, lon.=26.554684, Alt.=146.970825m. Speed=8.424000m/h.</desc>
<speed>2.340000</speed>
</trkpt>
<trkpt lat="55.955868" lon="26.554667">
<ele>146.045044</ele>
<time>2010-08-29T08:41:46Z</time>
<desc>lat.=55.955868, lon.=26.554667, Alt.=146.045044m. Speed=10.584000m/h.</desc>
<speed>2.940000</speed>
</trkpt>
<trkpt lat="55.955902" lon="26.554646">
<ele>143.888794</ele>
<time>2010-08-29T08:41:47Z</time>
<desc>lat.=55.955902, lon.=26.554646, Alt.=143.888794m. Speed=10.260000m/h.</desc>
<speed>2.850000</speed>
</trkpt>
<trkpt lat="55.955940" lon="26.554630">
<ele>140.713013</ele>
<time>2010-08-29T08:41:48Z</time>
<desc>lat.=55.955940, lon.=26.554630, Alt.=140.713013m. Speed=12.060000m/h.</desc>
<speed>3.350000</speed>
</trkpt>
<trkpt lat="55.955982" lon="26.554625">
<ele>139.170044</ele>
<time>2010-08-29T08:41:49Z</time>
<desc>lat.=55.955982, lon.=26.554625, Alt.=139.170044m. Speed=12.672000m/h.</desc>
<speed>3.520000</speed>
</trkpt>
<trkpt lat="55.956024" lon="26.554615">
<ele>136.201294</ele>
<time>2010-08-29T08:41:50Z</time>
<desc>lat.=55.956024, lon.=26.554615, Alt.=136.201294m. Speed=11.700000m/h.</desc>
<speed>3.250000</speed>
</trkpt>
<trkpt lat="55.956074" lon="26.554613">
<ele>134.474731</ele>
<time>2010-08-29T08:41:51Z</time>
<desc>lat.=55.956074, lon.=26.554613, Alt.=134.474731m. Speed=12.204000m/h.</desc>
<speed>3.390000</speed>
</trkpt>
<trkpt lat="55.956112" lon="26.554609">
<ele>132.771606</ele>
<time>2010-08-29T08:41:52Z</time>
<desc>lat.=55.956112, lon.=26.554609, Alt.=132.771606m. Speed=13.752000m/h.</desc>
<speed>3.820000</speed>
</trkpt>
<trkpt lat="55.956154" lon="26.554602">
<ele>130.115356</ele>
<time>2010-08-29T08:41:53Z</time>
<desc>lat.=55.956154, lon.=26.554602, Alt.=130.115356m. Speed=13.716000m/h.</desc>
<speed>3.810000</speed>
</trkpt>
<trkpt lat="55.956188" lon="26.554585">
<ele>127.110413</ele>
<time>2010-08-29T08:41:54Z</time>
<desc>lat.=55.956188, lon.=26.554585, Alt.=127.110413m. Speed=11.772000m/h.</desc>
<speed>3.270000</speed>
</trkpt>
<trkpt lat="55.956223" lon="26.554583">
<ele>126.344788</ele>
<time>2010-08-29T08:41:55Z</time>
<desc>lat.=55.956223, lon.=26.554583, Alt.=126.344788m. Speed=10.908000m/h.</desc>
<speed>3.030000</speed>
</trkpt>
<trkpt lat="55.956264" lon="26.554590">
<ele>126.288147</ele>
<time>2010-08-29T08:41:56Z</time>
<desc>lat.=55.956264, lon.=26.554590, Alt.=126.288147m. Speed=12.780000m/h.</desc>
<speed>3.550000</speed>
</trkpt>
<trkpt lat="55.956314" lon="26.554579">
<ele>125.325256</ele>
<time>2010-08-29T08:41:57Z</time>
<desc>lat.=55.956314, lon.=26.554579, Alt.=125.325256m. Speed=13.284000m/h.</desc>
<speed>3.690000</speed>
</trkpt>
<trkpt lat="55.956352" lon="26.554567">
<ele>122.590881</ele>
<time>2010-08-29T08:41:58Z</time>
<desc>lat.=55.956352, lon.=26.554567, Alt.=122.590881m. Speed=12.960000m/h.</desc>
<speed>3.600000</speed>
</trkpt>
<trkpt lat="55.956390" lon="26.554558">
<ele>121.055725</ele>
<time>2010-08-29T08:41:59Z</time>
<desc>lat.=55.956390, lon.=26.554558, Alt.=121.055725m. Speed=11.556000m/h.</desc>
<speed>3.210000</speed>
</trkpt>
<trkpt lat="55.956429" lon="26.554546">
<ele>118.975647</ele>
<time>2010-08-29T08:42:00Z</time>
<desc>lat.=55.956429, lon.=26.554546, Alt.=118.975647m. Speed=11.988000m/h.</desc>
<speed>3.330000</speed>
</trkpt>
<trkpt lat="55.956467" lon="26.554539">
<ele>117.258850</ele>
<time>2010-08-29T08:42:01Z</time>
<desc>lat.=55.956467, lon.=26.554539, Alt.=117.258850m. Speed=11.412000m/h.</desc>
<speed>3.170000</speed>
</trkpt>
<trkpt lat="55.956501" lon="26.554527">
<ele>115.741272</ele>
<time>2010-08-29T08:42:02Z</time>
<desc>lat.=55.956501, lon.=26.554527, Alt.=115.741272m. Speed=10.872000m/h.</desc>
<speed>3.020000</speed>
</trkpt>
<trkpt lat="55.956535" lon="26.554527">
<ele>116.067444</ele>
<time>2010-08-29T08:42:03Z</time>
<desc>lat.=55.956535, lon.=26.554527, Alt.=116.067444m. Speed=10.152000m/h.</desc>
<speed>2.820000</speed>
</trkpt>
<trkpt lat="55.956570" lon="26.554527">
<ele>115.891663</ele>
<time>2010-08-29T08:42:04Z</time>
<desc>lat.=55.956570, lon.=26.554527, Alt.=115.891663m. Speed=10.476000m/h.</desc>
<speed>2.910000</speed>
</trkpt>
<trkpt lat="55.956600" lon="26.554522">
<ele>114.852600</ele>
<time>2010-08-29T08:42:05Z</time>
<desc>lat.=55.956600, lon.=26.554522, Alt.=114.852600m. Speed=12.168000m/h.</desc>
<speed>3.380000</speed>
</trkpt>
<trkpt lat="55.956627" lon="26.554518">
<ele>113.991272</ele>
<time>2010-08-29T08:42:06Z</time>
<desc>lat.=55.956627, lon.=26.554518, Alt.=113.991272m. Speed=10.764000m/h.</desc>
<speed>2.990000</speed>
</trkpt>
<trkpt lat="55.956661" lon="26.554516">
<ele>114.077209</ele>
<time>2010-08-29T08:42:07Z</time>
<desc>lat.=55.956661, lon.=26.554516, Alt.=114.077209m. Speed=10.836000m/h.</desc>
<speed>3.010000</speed>
</trkpt>
<trkpt lat="55.956692" lon="26.554516">
<ele>113.997131</ele>
<time>2010-08-29T08:42:08Z</time>
<desc>lat.=55.956692, lon.=26.554516, Alt.=113.997131m. Speed=11.412000m/h.</desc>
<speed>3.170000</speed>
</trkpt>
<trkpt lat="55.956730" lon="26.554527">
<ele>114.409241</ele>
<time>2010-08-29T08:42:09Z</time>
<desc>lat.=55.956730, lon.=26.554527, Alt.=114.409241m. Speed=9.684000m/h.</desc>
<speed>2.690000</speed>
</trkpt>
<trkpt lat="55.956760" lon="26.554527">
<ele>114.286194</ele>
<time>2010-08-29T08:42:10Z</time>
<desc>lat.=55.956760, lon.=26.554527, Alt.=114.286194m. Speed=9.792000m/h.</desc>
<speed>2.720000</speed>
</trkpt>
<trkpt lat="55.956795" lon="26.554535">
<ele>113.633850</ele>
<time>2010-08-29T08:42:11Z</time>
<desc>lat.=55.956795, lon.=26.554535, Alt.=113.633850m. Speed=10.908000m/h.</desc>
<speed>3.030000</speed>
</trkpt>
<trkpt lat="55.956821" lon="26.554541">
<ele>112.909241</ele>
<time>2010-08-29T08:42:12Z</time>
<desc>lat.=55.956821, lon.=26.554541, Alt.=112.909241m. Speed=10.080000m/h.</desc>
<speed>2.800000</speed>
</trkpt>
<trkpt lat="55.956860" lon="26.554531">
<ele>111.147522</ele>
<time>2010-08-29T08:42:13Z</time>
<desc>lat.=55.956860, lon.=26.554531, Alt.=111.147522m. Speed=8.928000m/h.</desc>
<speed>2.480000</speed>
</trkpt>
<trkpt lat="55.956886" lon="26.554522">
<ele>110.172913</ele>
<time>2010-08-29T08:42:14Z</time>
<desc>lat.=55.956886, lon.=26.554522, Alt.=110.172913m. Speed=7.992000m/h.</desc>
<speed>2.220000</speed>
</trkpt>
<trkpt lat="55.956924" lon="26.554531">
<ele>111.362366</ele>
<time>2010-08-29T08:42:15Z</time>
<desc>lat.=55.956924, lon.=26.554531, Alt.=111.362366m. Speed=9.036000m/h.</desc>
<speed>2.510000</speed>
</trkpt>
<trkpt lat="55.956970" lon="26.554550">
<ele>112.729553</ele>
<time>2010-08-29T08:42:16Z</time>
<desc>lat.=55.956970, lon.=26.554550, Alt.=112.729553m. Speed=9.684000m/h.</desc>
<speed>2.690000</speed>
</trkpt>
<trkpt lat="55.957005" lon="26.554564">
<ele>114.092834</ele>
<time>2010-08-29T08:42:17Z</time>
<desc>lat.=55.957005, lon.=26.554564, Alt.=114.092834m. Speed=10.188000m/h.</desc>
<speed>2.830000</speed>
</trkpt>
<trkpt lat="55.957035" lon="26.554569">
<ele>115.272522</ele>
<time>2010-08-29T08:42:18Z</time>
<desc>lat.=55.957035, lon.=26.554569, Alt.=115.272522m. Speed=8.352000m/h.</desc>
<speed>2.320000</speed>
</trkpt>
<trkpt lat="55.957062" lon="26.554575">
<ele>116.131897</ele>
<time>2010-08-29T08:42:19Z</time>
<desc>lat.=55.957062, lon.=26.554575, Alt.=116.131897m. Speed=7.308000m/h.</desc>
<speed>2.030000</speed>
</trkpt>
<trkpt lat="55.957096" lon="26.554581">
<ele>117.129944</ele>
<time>2010-08-29T08:42:20Z</time>
<desc>lat.=55.957096, lon.=26.554581, Alt.=117.129944m. Speed=9.288000m/h.</desc>
<speed>2.580000</speed>
</trkpt>
<trkpt lat="55.957130" lon="26.554594">
<ele>118.309631</ele>
<time>2010-08-29T08:42:21Z</time>
<desc>lat.=55.957130, lon.=26.554594, Alt.=118.309631m. Speed=10.656000m/h.</desc>
<speed>2.960000</speed>
</trkpt>
<trkpt lat="55.957165" lon="26.554611">
<ele>119.352600</ele>
<time>2010-08-29T08:42:22Z</time>
<desc>lat.=55.957165, lon.=26.554611, Alt.=119.352600m. Speed=11.484000m/h.</desc>
<speed>3.190000</speed>
</trkpt>
<trkpt lat="55.957195" lon="26.554619">
<ele>119.876038</ele>
<time>2010-08-29T08:42:23Z</time>
<desc>lat.=55.957195, lon.=26.554619, Alt.=119.876038m. Speed=11.916000m/h.</desc>
<speed>3.310000</speed>
</trkpt>
<trkpt lat="55.957222" lon="26.554626">
<ele>120.594788</ele>
<time>2010-08-29T08:42:24Z</time>
<desc>lat.=55.957222, lon.=26.554626, Alt.=120.594788m. Speed=12.060000m/h.</desc>
<speed>3.350000</speed>
</trkpt>
<trkpt lat="55.957260" lon="26.554630">
<ele>122.713928</ele>
<time>2010-08-29T08:42:25Z</time>
<desc>lat.=55.957260, lon.=26.554630, Alt.=122.713928m. Speed=8.460000m/h.</desc>
<speed>2.350000</speed>
</trkpt>
<trkpt lat="55.957298" lon="26.554625">
<ele>125.098694</ele>
<time>2010-08-29T08:42:26Z</time>
<desc>lat.=55.957298, lon.=26.554625, Alt.=125.098694m. Speed=9.576000m/h.</desc>
<speed>2.660000</speed>
</trkpt>
<trkpt lat="55.957336" lon="26.554625">
<ele>128.416138</ele>
<time>2010-08-29T08:42:27Z</time>
<desc>lat.=55.957336, lon.=26.554625, Alt.=128.416138m. Speed=7.740000m/h.</desc>
<speed>2.150000</speed>
</trkpt>
<trkpt lat="55.957355" lon="26.554630">
<ele>129.548950</ele>
<time>2010-08-29T08:42:28Z</time>
<desc>lat.=55.957355, lon.=26.554630, Alt.=129.548950m. Speed=7.596000m/h.</desc>
<speed>2.110000</speed>
</trkpt>
<trkpt lat="55.957405" lon="26.554646">
<ele>130.630981</ele>
<time>2010-08-29T08:42:29Z</time>
<desc>lat.=55.957405, lon.=26.554646, Alt.=130.630981m. Speed=8.388000m/h.</desc>
<speed>2.330000</speed>
</trkpt>
<trkpt lat="55.957447" lon="26.554668">
<ele>133.377075</ele>
<time>2010-08-29T08:42:30Z</time>
<desc>lat.=55.957447, lon.=26.554668, Alt.=133.377075m. Speed=7.020000m/h.</desc>
<speed>1.950000</speed>
</trkpt>
<trkpt lat="55.957481" lon="26.554693">
<ele>136.197388</ele>
<time>2010-08-29T08:42:31Z</time>
<desc>lat.=55.957481, lon.=26.554693, Alt.=136.197388m. Speed=5.256000m/h.</desc>
<speed>1.460000</speed>
</trkpt>
<trkpt lat="55.957500" lon="26.554703">
<ele>137.084106</ele>
<time>2010-08-29T08:42:32Z</time>
<desc>lat.=55.957500, lon.=26.554703, Alt.=137.084106m. Speed=7.704000m/h.</desc>
<speed>2.140000</speed>
</trkpt>
<trkpt lat="55.957535" lon="26.554728">
<ele>140.068481</ele>
<time>2010-08-29T08:42:33Z</time>
<desc>lat.=55.957535, lon.=26.554728, Alt.=140.068481m. Speed=7.380000m/h.</desc>
<speed>2.050000</speed>
</trkpt>
<trkpt lat="55.957558" lon="26.554741">
<ele>141.865356</ele>
<time>2010-08-29T08:42:34Z</time>
<desc>lat.=55.957558, lon.=26.554741, Alt.=141.865356m. Speed=8.064000m/h.</desc>
<speed>2.240000</speed>
</trkpt>
<trkpt lat="55.957584" lon="26.554737">
<ele>142.498169</ele>
<time>2010-08-29T08:42:35Z</time>
<desc>lat.=55.957584, lon.=26.554737, Alt.=142.498169m. Speed=7.452000m/h.</desc>
<speed>2.070000</speed>
</trkpt>
<trkpt lat="55.957611" lon="26.554749">
<ele>142.287231</ele>
<time>2010-08-29T08:42:36Z</time>
<desc>lat.=55.957611, lon.=26.554749, Alt.=142.287231m. Speed=5.472000m/h.</desc>
<speed>1.520000</speed>
</trkpt>
<trkpt lat="55.957623" lon="26.554762">
<ele>143.330200</ele>
<time>2010-08-29T08:42:37Z</time>
<desc>lat.=55.957623, lon.=26.554762, Alt.=143.330200m. Speed=2.772000m/h.</desc>
<speed>0.770000</speed>
</trkpt>
<trkpt lat="55.957638" lon="26.554764">
<ele>143.623169</ele>
<time>2010-08-29T08:42:38Z</time>
<desc>lat.=55.957638, lon.=26.554764, Alt.=143.623169m. Speed=2.772000m/h.</desc>
<speed>0.770000</speed>
</trkpt>
<trkpt lat="55.957653" lon="26.554775">
<ele>144.466919</ele>
<time>2010-08-29T08:42:39Z</time>
<desc>lat.=55.957653, lon.=26.554775, Alt.=144.466919m. Speed=2.772000m/h.</desc>
<speed>0.770000</speed>
</trkpt>
<trkpt lat="55.957668" lon="26.554787">
<ele>145.752075</ele>
<time>2010-08-29T08:42:40Z</time>
<desc>lat.=55.957668, lon.=26.554787, Alt.=145.752075m. Speed=1.908000m/h.</desc>
<speed>0.530000</speed>
</trkpt>
<trkpt lat="55.957676" lon="26.554792">
<ele>146.740356</ele>
<time>2010-08-29T08:42:41Z</time>
<desc>lat.=55.957676, lon.=26.554792, Alt.=146.740356m. Speed=0.936000m/h.</desc>
<speed>0.260000</speed>
</trkpt>
<trkpt lat="55.957676" lon="26.554794">
<ele>147.298950</ele>
<time>2010-08-29T08:42:42Z</time>
<desc>lat.=55.957676, lon.=26.554794, Alt.=147.298950m. Speed=1.296000m/h.</desc>
<speed>0.360000</speed>
</trkpt>
<trkpt lat="55.957680" lon="26.554798">
<ele>147.705200</ele>
<time>2010-08-29T08:42:43Z</time>
<desc>lat.=55.957680, lon.=26.554798, Alt.=147.705200m. Speed=1.368000m/h.</desc>
<speed>0.380000</speed>
</trkpt>
<trkpt lat="55.957684" lon="26.554800">
<ele>148.068481</ele>
<time>2010-08-29T08:42:44Z</time>
<desc>lat.=55.957684, lon.=26.554800, Alt.=148.068481m. Speed=1.332000m/h.</desc>
<speed>0.370000</speed>
</trkpt>
<trkpt lat="55.957691" lon="26.554804">
<ele>148.443481</ele>
<time>2010-08-29T08:42:45Z</time>
<desc>lat.=55.957691, lon.=26.554804, Alt.=148.443481m. Speed=1.332000m/h.</desc>
<speed>0.370000</speed>
</trkpt>
<trkpt lat="55.957691" lon="26.554808">
<ele>148.814575</ele>
<time>2010-08-29T08:42:46Z</time>
<desc>lat.=55.957691, lon.=26.554808, Alt.=148.814575m. Speed=1.188000m/h.</desc>
<speed>0.330000</speed>
</trkpt>
<trkpt lat="55.957695" lon="26.554811">
<ele>149.173950</ele>
<time>2010-08-29T08:42:47Z</time>
<desc>lat.=55.957695, lon.=26.554811, Alt.=149.173950m. Speed=1.080000m/h.</desc>
<speed>0.300000</speed>
</trkpt>
<trkpt lat="55.957699" lon="26.554813">
<ele>149.470825</ele>
<time>2010-08-29T08:42:48Z</time>
<desc>lat.=55.957699, lon.=26.554813, Alt.=149.470825m. Speed=0.756000m/h.</desc>
<speed>0.210000</speed>
</trkpt>
<trkpt lat="55.957703" lon="26.554815">
<ele>149.662231</ele>
<time>2010-08-29T08:42:49Z</time>
<desc>lat.=55.957703, lon.=26.554815, Alt.=149.662231m. Speed=0.720000m/h.</desc>
<speed>0.200000</speed>
</trkpt>
<trkpt lat="55.957703" lon="26.554815">
<ele>149.892700</ele>
<time>2010-08-29T08:42:50Z</time>
<desc>lat.=55.957703, lon.=26.554815, Alt.=149.892700m. Speed=0.288000m/h.</desc>
<speed>0.080000</speed>
</trkpt>
<trkpt lat="55.957703" lon="26.554817">
<ele>150.056763</ele>
<time>2010-08-29T08:42:51Z</time>
<desc>lat.=55.957703, lon.=26.554817, Alt.=150.056763m. Speed=0.108000m/h.</desc>
<speed>0.030000</speed>
</trkpt>
<trkpt lat="55.957703" lon="26.554817">
<ele>150.130981</ele>
<time>2010-08-29T08:42:52Z</time>
<desc>lat.=55.957703, lon.=26.554817, Alt.=150.130981m. Speed=0.000000m/h.</desc>
<speed>0.000000</speed>
</trkpt>
<trkpt lat="55.957703" lon="26.554817">
<ele>150.123169</ele>
<time>2010-08-29T08:42:53Z</time>
<desc>lat.=55.957703, lon.=26.554817, Alt.=150.123169m. Speed=0.108000m/h.</desc>
<speed>0.030000</speed>
</trkpt>
<trkpt lat="55.957703" lon="26.554817">
<ele>150.080200</ele>
<time>2010-08-29T08:42:54Z</time>
<desc>lat.=55.957703, lon.=26.554817, Alt.=150.080200m. Speed=0.072000m/h.</desc>
<speed>0.020000</speed>
</trkpt>
<trkpt lat="55.957703" lon="26.554817">
<ele>150.052856</ele>
<time>2010-08-29T08:42:55Z</time>
<desc>lat.=55.957703, lon.=26.554817, Alt.=150.052856m. Speed=0.000000m/h.</desc>
<speed>0.000000</speed>
</trkpt>
<trkpt lat="55.957703" lon="26.554817">
<ele>150.064575</ele>
<time>2010-08-29T08:42:56Z</time>
<desc>lat.=55.957703, lon.=26.554817, Alt.=150.064575m. Speed=0.036000m/h.</desc>
<speed>0.010000</speed>
</trkpt>
<trkpt lat="55.957703" lon="26.554817">
<ele>150.072388</ele>
<time>2010-08-29T08:42:57Z</time>
<desc>lat.=55.957703, lon.=26.554817, Alt.=150.072388m. Speed=0.000000m/h.</desc>
<speed>0.000000</speed>
</trkpt>
<trkpt lat="55.957703" lon="26.554817">
<ele>150.072388</ele>
<time>2010-08-29T08:42:58Z</time>
<desc>lat.=55.957703, lon.=26.554817, Alt.=150.072388m. Speed=0.036000m/h.</desc>
<speed>0.010000</speed>
</trkpt>
<trkpt lat="55.957703" lon="26.554817">
<ele>150.048950</ele>
<time>2010-08-29T08:42:59Z</time>
<desc>lat.=55.957703, lon.=26.554817, Alt.=150.048950m. Speed=0.000000m/h.</desc>
<speed>0.000000</speed>
</trkpt>
<trkpt lat="55.957703" lon="26.554817">
<ele>150.025513</ele>
<time>2010-08-29T08:43:00Z</time>
<desc>lat.=55.957703, lon.=26.554817, Alt.=150.025513m. Speed=0.036000m/h.</desc>
<speed>0.010000</speed>
</trkpt>
<trkpt lat="55.957706" lon="26.554817">
<ele>150.005981</ele>
<time>2010-08-29T08:43:01Z</time>
<desc>lat.=55.957706, lon.=26.554817, Alt.=150.005981m. Speed=0.036000m/h.</desc>
<speed>0.010000</speed>
</trkpt>
<trkpt lat="55.957706" lon="26.554817">
<ele>149.970825</ele>
<time>2010-08-29T08:43:02Z</time>
<desc>lat.=55.957706, lon.=26.554817, Alt.=149.970825m. Speed=0.000000m/h.</desc>
<speed>0.000000</speed>
</trkpt>
<trkpt lat="55.957706" lon="26.554817">
<ele>149.947388</ele>
<time>2010-08-29T08:43:03Z</time>
<desc>lat.=55.957706, lon.=26.554817, Alt.=149.947388m. Speed=0.000000m/h.</desc>
<speed>0.000000</speed>
</trkpt>
<trkpt lat="55.957706" lon="26.554817">
<ele>149.931763</ele>
<time>2010-08-29T08:43:04Z</time>
<desc>lat.=55.957706, lon.=26.554817, Alt.=149.931763m. Speed=0.000000m/h.</desc>
<speed>0.000000</speed>
</trkpt>
<trkpt lat="55.957706" lon="26.554817">
<ele>149.920044</ele>
<time>2010-08-29T08:43:05Z</time>
<desc>lat.=55.957706, lon.=26.554817, Alt.=149.920044m. Speed=0.000000m/h.</desc>
<speed>0.000000</speed>
</trkpt>
<trkpt lat="55.957706" lon="26.554817">
<ele>149.908325</ele>
<time>2010-08-29T08:43:06Z</time>
<desc>lat.=55.957706, lon.=26.554817, Alt.=149.908325m. Speed=0.036000m/h.</desc>
<speed>0.010000</speed>
</trkpt>
<trkpt lat="55.957706" lon="26.554815">
<ele>149.896606</ele>
<time>2010-08-29T08:43:07Z</time>
<desc>lat.=55.957706, lon.=26.554815, Alt.=149.896606m. Speed=0.000000m/h.</desc>
<speed>0.000000</speed>
</trkpt>
<trkpt lat="55.957706" lon="26.554815">
<ele>149.877075</ele>
<time>2010-08-29T08:43:08Z</time>
<desc>lat.=55.957706, lon.=26.554815, Alt.=149.877075m. Speed=0.000000m/h.</desc>
<speed>0.000000</speed>
</trkpt>
<trkpt lat="55.957706" lon="26.554815">
<ele>149.865356</ele>
<time>2010-08-29T08:43:09Z</time>
<desc>lat.=55.957706, lon.=26.554815, Alt.=149.865356m. Speed=0.108000m/h.</desc>
<speed>0.030000</speed>
</trkpt>
<trkpt lat="55.957706" lon="26.554815">
<ele>149.861450</ele>
<time>2010-08-29T08:43:10Z</time>
<desc>lat.=55.957706, lon.=26.554815, Alt.=149.861450m. Speed=0.108000m/h.</desc>
<speed>0.030000</speed>
</trkpt>
<trkpt lat="55.957706" lon="26.554815">
<ele>149.857544</ele>
<time>2010-08-29T08:43:11Z</time>
<desc>lat.=55.957706, lon.=26.554815, Alt.=149.857544m. Speed=0.000000m/h.</desc>
<speed>0.000000</speed>
</trkpt>
<trkpt lat="55.957706" lon="26.554817">
<ele>149.841919</ele>
<time>2010-08-29T08:43:12Z</time>
<desc>lat.=55.957706, lon.=26.554817, Alt.=149.841919m. Speed=0.000000m/h.</desc>
<speed>0.000000</speed>
</trkpt>
<trkpt lat="55.957706" lon="26.554817">
<ele>149.826294</ele>
<time>2010-08-29T08:43:13Z</time>
<desc>lat.=55.957706, lon.=26.554817, Alt.=149.826294m. Speed=0.000000m/h.</desc>
<speed>0.000000</speed>
</trkpt>
<trkpt lat="55.957706" lon="26.554817">
<ele>149.814575</ele>
<time>2010-08-29T08:43:14Z</time>
<desc>lat.=55.957706, lon.=26.554817, Alt.=149.814575m. Speed=0.000000m/h.</desc>
<speed>0.000000</speed>
</trkpt>
<trkpt lat="55.957706" lon="26.554817">
<ele>149.802856</ele>
<time>2010-08-29T08:43:15Z</time>
<desc>lat.=55.957706, lon.=26.554817, Alt.=149.802856m. Speed=0.000000m/h.</desc>
<speed>0.000000</speed>
</trkpt>
<trkpt lat="55.957706" lon="26.554817">
<ele>149.798950</ele>
<time>2010-08-29T08:43:16Z</time>
<desc>lat.=55.957706, lon.=26.554817, Alt.=149.798950m. Speed=0.072000m/h.</desc>
<speed>0.020000</speed>
</trkpt>
<trkpt lat="55.957706" lon="26.554817">
<ele>149.795044</ele>
<time>2010-08-29T08:43:17Z</time>
<desc>lat.=55.957706, lon.=26.554817, Alt.=149.795044m. Speed=0.000000m/h.</desc>
<speed>0.000000</speed>
</trkpt>
<trkpt lat="55.957706" lon="26.554817">
<ele>149.795044</ele>
<time>2010-08-29T08:43:18Z</time>
<desc>lat.=55.957706, lon.=26.554817, Alt.=149.795044m. Speed=0.036000m/h.</desc>
<speed>0.010000</speed>
</trkpt>
<trkpt lat="55.957706" lon="26.554817">
<ele>149.791138</ele>
<time>2010-08-29T08:43:19Z</time>
<desc>lat.=55.957706, lon.=26.554817, Alt.=149.791138m. Speed=0.036000m/h.</desc>
<speed>0.010000</speed>
</trkpt>
<trkpt lat="55.957706" lon="26.554817">
<ele>149.791138</ele>
<time>2010-08-29T08:43:20Z</time>
<desc>lat.=55.957706, lon.=26.554817, Alt.=149.791138m. Speed=0.036000m/h.</desc>
<speed>0.010000</speed>
</trkpt>
<trkpt lat="55.957706" lon="26.554817">
<ele>149.787231</ele>
<time>2010-08-29T08:43:21Z</time>
<desc>lat.=55.957706, lon.=26.554817, Alt.=149.787231m. Speed=0.000000m/h.</desc>
<speed>0.000000</speed>
</trkpt>
<trkpt lat="55.957706" lon="26.554817">
<ele>149.787231</ele>
<time>2010-08-29T08:43:22Z</time>
<desc>lat.=55.957706, lon.=26.554817, Alt.=149.787231m. Speed=0.000000m/h.</desc>
<speed>0.000000</speed>
</trkpt>
<trkpt lat="55.957706" lon="26.554817">
<ele>149.783325</ele>
<time>2010-08-29T08:43:23Z</time>
<desc>lat.=55.957706, lon.=26.554817, Alt.=149.783325m. Speed=0.396000m/h.</desc>
<speed>0.110000</speed>
</trkpt>
<trkpt lat="55.957706" lon="26.554819">
<ele>149.779419</ele>
<time>2010-08-29T08:43:24Z</time>
<desc>lat.=55.957706, lon.=26.554819, Alt.=149.779419m. Speed=0.432000m/h.</desc>
<speed>0.120000</speed>
</trkpt>
<trkpt lat="55.957706" lon="26.554821">
<ele>149.775513</ele>
<time>2010-08-29T08:43:25Z</time>
<desc>lat.=55.957706, lon.=26.554821, Alt.=149.775513m. Speed=0.468000m/h.</desc>
<speed>0.130000</speed>
</trkpt>
<trkpt lat="55.957710" lon="26.554823">
<ele>149.771606</ele>
<time>2010-08-29T08:43:26Z</time>
<desc>lat.=55.957710, lon.=26.554823, Alt.=149.771606m. Speed=0.612000m/h.</desc>
<speed>0.170000</speed>
</trkpt>
<trkpt lat="55.957710" lon="26.554825">
<ele>149.767700</ele>
<time>2010-08-29T08:43:27Z</time>
<desc>lat.=55.957710, lon.=26.554825, Alt.=149.767700m. Speed=0.648000m/h.</desc>
<speed>0.180000</speed>
</trkpt>
<trkpt lat="55.957710" lon="26.554827">
<ele>149.759888</ele>
<time>2010-08-29T08:43:28Z</time>
<desc>lat.=55.957710, lon.=26.554827, Alt.=149.759888m. Speed=0.936000m/h.</desc>
<speed>0.260000</speed>
</trkpt>
<trkpt lat="55.957714" lon="26.554829">
<ele>149.755981</ele>
<time>2010-08-29T08:43:29Z</time>
<desc>lat.=55.957714, lon.=26.554829, Alt.=149.755981m. Speed=1.044000m/h.</desc>
<speed>0.290000</speed>
</trkpt>
<trkpt lat="55.957714" lon="26.554831">
<ele>149.755981</ele>
<time>2010-08-29T08:43:30Z</time>
<desc>lat.=55.957714, lon.=26.554831, Alt.=149.755981m. Speed=7.308000m/h.</desc>
<speed>2.030000</speed>
</trkpt>
<trkpt lat="55.957737" lon="26.554850">
<ele>149.728638</ele>
<time>2010-08-29T08:43:31Z</time>
<desc>lat.=55.957737, lon.=26.554850, Alt.=149.728638m. Speed=9.396000m/h.</desc>
<speed>2.610000</speed>
</trkpt>
<trkpt lat="55.957771" lon="26.554850">
<ele>149.548950</ele>
<time>2010-08-29T08:43:32Z</time>
<desc>lat.=55.957771, lon.=26.554850, Alt.=149.548950m. Speed=13.968000m/h.</desc>
<speed>3.880000</speed>
</trkpt>
<trkpt lat="55.957817" lon="26.554844">
<ele>148.869263</ele>
<time>2010-08-29T08:43:33Z</time>
<desc>lat.=55.957817, lon.=26.554844, Alt.=148.869263m. Speed=15.732000m/h.</desc>
<speed>4.370000</speed>
</trkpt>
<trkpt lat="55.957863" lon="26.554840">
<ele>148.213013</ele>
<time>2010-08-29T08:43:34Z</time>
<desc>lat.=55.957863, lon.=26.554840, Alt.=148.213013m. Speed=13.752000m/h.</desc>
<speed>3.820000</speed>
</trkpt>
<trkpt lat="55.957897" lon="26.554834">
<ele>147.353638</ele>
<time>2010-08-29T08:43:35Z</time>
<desc>lat.=55.957897, lon.=26.554834, Alt.=147.353638m. Speed=7.452000m/h.</desc>
<speed>2.070000</speed>
</trkpt>
<trkpt lat="55.957916" lon="26.554832">
<ele>146.869263</ele>
<time>2010-08-29T08:43:36Z</time>
<desc>lat.=55.957916, lon.=26.554832, Alt.=146.869263m. Speed=4.464000m/h.</desc>
<speed>1.240000</speed>
</trkpt>
<trkpt lat="55.957932" lon="26.554838">
<ele>146.298950</ele>
<time>2010-08-29T08:43:37Z</time>
<desc>lat.=55.957932, lon.=26.554838, Alt.=146.298950m. Speed=2.304000m/h.</desc>
<speed>0.640000</speed>
</trkpt>
<trkpt lat="55.957943" lon="26.554842">
<ele>145.552856</ele>
<time>2010-08-29T08:43:38Z</time>
<desc>lat.=55.957943, lon.=26.554842, Alt.=145.552856m. Speed=1.908000m/h.</desc>
<speed>0.530000</speed>
</trkpt>
<trkpt lat="55.957947" lon="26.554844">
<ele>144.908325</ele>
<time>2010-08-29T08:43:39Z</time>
<desc>lat.=55.957947, lon.=26.554844, Alt.=144.908325m. Speed=0.360000m/h.</desc>
<speed>0.100000</speed>
</trkpt>
<trkpt lat="55.957951" lon="26.554859">
<ele>145.173950</ele>
<time>2010-08-29T08:43:40Z</time>
<desc>lat.=55.957951, lon.=26.554859, Alt.=145.173950m. Speed=0.396000m/h.</desc>
<speed>0.110000</speed>
</trkpt>
<trkpt lat="55.957962" lon="26.554863">
<ele>145.295044</ele>
<time>2010-08-29T08:43:41Z</time>
<desc>lat.=55.957962, lon.=26.554863, Alt.=145.295044m. Speed=0.288000m/h.</desc>
<speed>0.080000</speed>
</trkpt>
<trkpt lat="55.957966" lon="26.554869">
<ele>145.529419</ele>
<time>2010-08-29T08:43:42Z</time>
<desc>lat.=55.957966, lon.=26.554869, Alt.=145.529419m. Speed=0.792000m/h.</desc>
<speed>0.220000</speed>
</trkpt>
<trkpt lat="55.957966" lon="26.554869">
<ele>145.365356</ele>
<time>2010-08-29T08:43:43Z</time>
<desc>lat.=55.957966, lon.=26.554869, Alt.=145.365356m. Speed=0.684000m/h.</desc>
<speed>0.190000</speed>
</trkpt>
<trkpt lat="55.957962" lon="26.554869">
<ele>145.228638</ele>
<time>2010-08-29T08:43:44Z</time>
<desc>lat.=55.957962, lon.=26.554869, Alt.=145.228638m. Speed=0.504000m/h.</desc>
<speed>0.140000</speed>
</trkpt>
<trkpt lat="55.957962" lon="26.554871">
<ele>145.115356</ele>
<time>2010-08-29T08:43:45Z</time>
<desc>lat.=55.957962, lon.=26.554871, Alt.=145.115356m. Speed=0.612000m/h.</desc>
<speed>0.170000</speed>
</trkpt>
<trkpt lat="55.957962" lon="26.554871">
<ele>145.033325</ele>
<time>2010-08-29T08:43:46Z</time>
<desc>lat.=55.957962, lon.=26.554871, Alt.=145.033325m. Speed=0.684000m/h.</desc>
<speed>0.190000</speed>
</trkpt>
<trkpt lat="55.957958" lon="26.554871">
<ele>144.963013</ele>
<time>2010-08-29T08:43:47Z</time>
<desc>lat.=55.957958, lon.=26.554871, Alt.=144.963013m. Speed=0.468000m/h.</desc>
<speed>0.130000</speed>
</trkpt>
<trkpt lat="55.957958" lon="26.554871">
<ele>144.896606</ele>
<time>2010-08-29T08:43:48Z</time>
<desc>lat.=55.957958, lon.=26.554871, Alt.=144.896606m. Speed=0.036000m/h.</desc>
<speed>0.010000</speed>
</trkpt>
<trkpt lat="55.957958" lon="26.554871">
<ele>144.830200</ele>
<time>2010-08-29T08:43:49Z</time>
<desc>lat.=55.957958, lon.=26.554871, Alt.=144.830200m. Speed=0.252000m/h.</desc>
<speed>0.070000</speed>
</trkpt>
<trkpt lat="55.957958" lon="26.554871">
<ele>144.763794</ele>
<time>2010-08-29T08:43:50Z</time>
<desc>lat.=55.957958, lon.=26.554871, Alt.=144.763794m. Speed=0.324000m/h.</desc>
<speed>0.090000</speed>
</trkpt>
<trkpt lat="55.957958" lon="26.554873">
<ele>144.693481</ele>
<time>2010-08-29T08:43:51Z</time>
<desc>lat.=55.957958, lon.=26.554873, Alt.=144.693481m. Speed=0.144000m/h.</desc>
<speed>0.040000</speed>
</trkpt>
<trkpt lat="55.957958" lon="26.554873">
<ele>144.654419</ele>
<time>2010-08-29T08:43:52Z</time>
<desc>lat.=55.957958, lon.=26.554873, Alt.=144.654419m. Speed=0.180000m/h.</desc>
<speed>0.050000</speed>
</trkpt>
<trkpt lat="55.957958" lon="26.554873">
<ele>144.607544</ele>
<time>2010-08-29T08:43:53Z</time>
<desc>lat.=55.957958, lon.=26.554873, Alt.=144.607544m. Speed=0.324000m/h.</desc>
<speed>0.090000</speed>
</trkpt>
<trkpt lat="55.957958" lon="26.554874">
<ele>144.572388</ele>
<time>2010-08-29T08:43:54Z</time>
<desc>lat.=55.957958, lon.=26.554874, Alt.=144.572388m. Speed=0.108000m/h.</desc>
<speed>0.030000</speed>
</trkpt>
<trkpt lat="55.957958" lon="26.554874">
<ele>144.541138</ele>
<time>2010-08-29T08:43:55Z</time>
<desc>lat.=55.957958, lon.=26.554874, Alt.=144.541138m. Speed=0.576000m/h.</desc>
<speed>0.160000</speed>
</trkpt>
<trkpt lat="55.957958" lon="26.554876">
<ele>144.525513</ele>
<time>2010-08-29T08:43:56Z</time>
<desc>lat.=55.957958, lon.=26.554876, Alt.=144.525513m. Speed=0.612000m/h.</desc>
<speed>0.170000</speed>
</trkpt>
<trkpt lat="55.957962" lon="26.554876">
<ele>144.498169</ele>
<time>2010-08-29T08:43:57Z</time>
<desc>lat.=55.957962, lon.=26.554876, Alt.=144.498169m. Speed=0.684000m/h.</desc>
<speed>0.190000</speed>
</trkpt>
<trkpt lat="55.957962" lon="26.554878">
<ele>144.470825</ele>
<time>2010-08-29T08:43:58Z</time>
<desc>lat.=55.957962, lon.=26.554878, Alt.=144.470825m. Speed=0.432000m/h.</desc>
<speed>0.120000</speed>
</trkpt>
<trkpt lat="55.957966" lon="26.554878">
<ele>144.459106</ele>
<time>2010-08-29T08:43:59Z</time>
<desc>lat.=55.957966, lon.=26.554878, Alt.=144.459106m. Speed=0.360000m/h.</desc>
<speed>0.100000</speed>
</trkpt>
<trkpt lat="55.957966" lon="26.554880">
<ele>144.447388</ele>
<time>2010-08-29T08:44:00Z</time>
<desc>lat.=55.957966, lon.=26.554880, Alt.=144.447388m. Speed=0.396000m/h.</desc>
<speed>0.110000</speed>
</trkpt>
<trkpt lat="55.957966" lon="26.554880">
<ele>144.431763</ele>
<time>2010-08-29T08:44:01Z</time>
<desc>lat.=55.957966, lon.=26.554880, Alt.=144.431763m. Speed=0.396000m/h.</desc>
<speed>0.110000</speed>
</trkpt>
<trkpt lat="55.957966" lon="26.554880">
<ele>144.427856</ele>
<time>2010-08-29T08:44:02Z</time>
<desc>lat.=55.957966, lon.=26.554880, Alt.=144.427856m. Speed=0.036000m/h.</desc>
<speed>0.010000</speed>
</trkpt>
<trkpt lat="55.957970" lon="26.554880">
<ele>144.423950</ele>
<time>2010-08-29T08:44:03Z</time>
<desc>lat.=55.957970, lon.=26.554880, Alt.=144.423950m. Speed=0.000000m/h.</desc>
<speed>0.000000</speed>
</trkpt>
<trkpt lat="55.957970" lon="26.554880">
<ele>144.420044</ele>
<time>2010-08-29T08:44:04Z</time>
<desc>lat.=55.957970, lon.=26.554880, Alt.=144.420044m. Speed=0.036000m/h.</desc>
<speed>0.010000</speed>
</trkpt>
<trkpt lat="55.957970" lon="26.554880">
<ele>144.408325</ele>
<time>2010-08-29T08:44:05Z</time>
<desc>lat.=55.957970, lon.=26.554880, Alt.=144.408325m. Speed=0.000000m/h.</desc>
<speed>0.000000</speed>
</trkpt>
<trkpt lat="55.957970" lon="26.554880">
<ele>144.388794</ele>
<time>2010-08-29T08:44:06Z</time>
<desc>lat.=55.957970, lon.=26.554880, Alt.=144.388794m. Speed=0.000000m/h.</desc>
<speed>0.000000</speed>
</trkpt>
<trkpt lat="55.957970" lon="26.554880">
<ele>144.373169</ele>
<time>2010-08-29T08:44:07Z</time>
<desc>lat.=55.957970, lon.=26.554880, Alt.=144.373169m. Speed=0.072000m/h.</desc>
<speed>0.020000</speed>
</trkpt>
<trkpt lat="55.957970" lon="26.554880">
<ele>144.345825</ele>
<time>2010-08-29T08:44:08Z</time>
<desc>lat.=55.957970, lon.=26.554880, Alt.=144.345825m. Speed=0.000000m/h.</desc>
<speed>0.000000</speed>
</trkpt>
<trkpt lat="55.957970" lon="26.554882">
<ele>144.330200</ele>
<time>2010-08-29T08:44:09Z</time>
<desc>lat.=55.957970, lon.=26.554882, Alt.=144.330200m. Speed=0.036000m/h.</desc>
<speed>0.010000</speed>
</trkpt>
<trkpt lat="55.957970" lon="26.554882">
<ele>144.314575</ele>
<time>2010-08-29T08:44:10Z</time>
<desc>lat.=55.957970, lon.=26.554882, Alt.=144.314575m. Speed=0.072000m/h.</desc>
<speed>0.020000</speed>
</trkpt>
<trkpt lat="55.957970" lon="26.554882">
<ele>144.279419</ele>
<time>2010-08-29T08:44:11Z</time>
<desc>lat.=55.957970, lon.=26.554882, Alt.=144.279419m. Speed=0.036000m/h.</desc>
<speed>0.010000</speed>
</trkpt>
<trkpt lat="55.957970" lon="26.554880">
<ele>144.240356</ele>
<time>2010-08-29T08:44:12Z</time>
<desc>lat.=55.957970, lon.=26.554880, Alt.=144.240356m. Speed=0.072000m/h.</desc>
<speed>0.020000</speed>
</trkpt>
<trkpt lat="55.957970" lon="26.554880">
<ele>144.240356</ele>
<time>2010-08-29T08:44:13Z</time>
<desc>lat.=55.957970, lon.=26.554880, Alt.=144.240356m. Speed=0.000000m/h.</desc>
<speed>0.000000</speed>
</trkpt>
<trkpt lat="55.957970" lon="26.554882">
<ele>144.240356</ele>
<time>2010-08-29T08:44:14Z</time>
<desc>lat.=55.957970, lon.=26.554882, Alt.=144.240356m. Speed=0.000000m/h.</desc>
<speed>0.000000</speed>
</trkpt>
<trkpt lat="55.957970" lon="26.554882">
<ele>144.236450</ele>
<time>2010-08-29T08:44:15Z</time>
<desc>lat.=55.957970, lon.=26.554882, Alt.=144.236450m. Speed=0.000000m/h.</desc>
<speed>0.000000</speed>
</trkpt>
<trkpt lat="55.957970" lon="26.554882">
<ele>144.240356</ele>
<time>2010-08-29T08:44:16Z</time>
<desc>lat.=55.957970, lon.=26.554882, Alt.=144.240356m. Speed=0.000000m/h.</desc>
<speed>0.000000</speed>
</trkpt>
<trkpt lat="55.957970" lon="26.554882">
<ele>144.240356</ele>
<time>2010-08-29T08:44:17Z</time>
<desc>lat.=55.957970, lon.=26.554882, Alt.=144.240356m. Speed=0.036000m/h.</desc>
<speed>0.010000</speed>
</trkpt>
<trkpt lat="55.957970" lon="26.554882">
<ele>144.240356</ele>
<time>2010-08-29T08:44:18Z</time>
<desc>lat.=55.957970, lon.=26.554882, Alt.=144.240356m. Speed=0.000000m/h.</desc>
<speed>0.000000</speed>
</trkpt>
<trkpt lat="55.957970" lon="26.554882">
<ele>144.240356</ele>
<time>2010-08-29T08:44:19Z</time>
<desc>lat.=55.957970, lon.=26.554882, Alt.=144.240356m. Speed=0.036000m/h.</desc>
<speed>0.010000</speed>
</trkpt>
<trkpt lat="55.957970" lon="26.554882">
<ele>144.240356</ele>
<time>2010-08-29T08:44:20Z</time>
<desc>lat.=55.957970, lon.=26.554882, Alt.=144.240356m. Speed=0.036000m/h.</desc>
<speed>0.010000</speed>
</trkpt>
<trkpt lat="55.957970" lon="26.554882">
<ele>144.232544</ele>
<time>2010-08-29T08:44:21Z</time>
<desc>lat.=55.957970, lon.=26.554882, Alt.=144.232544m. Speed=0.036000m/h.</desc>
<speed>0.010000</speed>
</trkpt>
<trkpt lat="55.957970" lon="26.554882">
<ele>144.232544</ele>
<time>2010-08-29T08:44:22Z</time>
<desc>lat.=55.957970, lon.=26.554882, Alt.=144.232544m. Speed=0.036000m/h.</desc>
<speed>0.010000</speed>
</trkpt>
<trkpt lat="55.957970" lon="26.554882">
<ele>144.232544</ele>
<time>2010-08-29T08:44:23Z</time>
<desc>lat.=55.957970, lon.=26.554882, Alt.=144.232544m. Speed=0.000000m/h.</desc>
<speed>0.000000</speed>
</trkpt>
<trkpt lat="55.957970" lon="26.554882">
<ele>144.228638</ele>
<time>2010-08-29T08:44:24Z</time>
<desc>lat.=55.957970, lon.=26.554882, Alt.=144.228638m. Speed=0.036000m/h.</desc>
<speed>0.010000</speed>
</trkpt>
<trkpt lat="55.957970" lon="26.554882">
<ele>144.224731</ele>
<time>2010-08-29T08:44:25Z</time>
<desc>lat.=55.957970, lon.=26.554882, Alt.=144.224731m. Speed=0.000000m/h.</desc>
<speed>0.000000</speed>
</trkpt>
<trkpt lat="55.957970" lon="26.554882">
<ele>144.220825</ele>
<time>2010-08-29T08:44:26Z</time>
<desc>lat.=55.957970, lon.=26.554882, Alt.=144.220825m. Speed=0.000000m/h.</desc>
<speed>0.000000</speed>
</trkpt>
<trkpt lat="55.957970" lon="26.554882">
<ele>144.220825</ele>
<time>2010-08-29T08:44:27Z</time>
<desc>lat.=55.957970, lon.=26.554882, Alt.=144.220825m. Speed=0.000000m/h.</desc>
<speed>0.000000</speed>
</trkpt>
<trkpt lat="55.957970" lon="26.554882">
<ele>144.216919</ele>
<time>2010-08-29T08:44:28Z</time>
<desc>lat.=55.957970, lon.=26.554882, Alt.=144.216919m. Speed=0.000000m/h.</desc>
<speed>0.000000</speed>
</trkpt>
<trkpt lat="55.957970" lon="26.554880">
<ele>144.216919</ele>
<time>2010-08-29T08:44:29Z</time>
<desc>lat.=55.957970, lon.=26.554880, Alt.=144.216919m. Speed=0.036000m/h.</desc>
<speed>0.010000</speed>
</trkpt>
<trkpt lat="55.957970" lon="26.554880">
<ele>144.216919</ele>
<time>2010-08-29T08:44:30Z</time>
<desc>lat.=55.957970, lon.=26.554880, Alt.=144.216919m. Speed=0.036000m/h.</desc>
<speed>0.010000</speed>
</trkpt>
<trkpt lat="55.957970" lon="26.554880">
<ele>144.216919</ele>
<time>2010-08-29T08:44:31Z</time>
<desc>lat.=55.957970, lon.=26.554880, Alt.=144.216919m. Speed=0.036000m/h.</desc>
<speed>0.010000</speed>
</trkpt>
<trkpt lat="55.957970" lon="26.554880">
<ele>144.213013</ele>
<time>2010-08-29T08:44:32Z</time>
<desc>lat.=55.957970, lon.=26.554880, Alt.=144.213013m. Speed=0.000000m/h.</desc>
<speed>0.000000</speed>
</trkpt>
<trkpt lat="55.957970" lon="26.554880">
<ele>144.209106</ele>
<time>2010-08-29T08:44:33Z</time>
<desc>lat.=55.957970, lon.=26.554880, Alt.=144.209106m. Speed=0.036000m/h.</desc>
<speed>0.010000</speed>
</trkpt>
<trkpt lat="55.957970" lon="26.554880">
<ele>144.201294</ele>
<time>2010-08-29T08:44:34Z</time>
<desc>lat.=55.957970, lon.=26.554880, Alt.=144.201294m. Speed=0.000000m/h.</desc>
<speed>0.000000</speed>
</trkpt>
<trkpt lat="55.957970" lon="26.554880">
<ele>144.197388</ele>
<time>2010-08-29T08:44:35Z</time>
<desc>lat.=55.957970, lon.=26.554880, Alt.=144.197388m. Speed=0.000000m/h.</desc>
<speed>0.000000</speed>
</trkpt>
<trkpt lat="55.957970" lon="26.554880">
<ele>144.193481</ele>
<time>2010-08-29T08:44:36Z</time>
<desc>lat.=55.957970, lon.=26.554880, Alt.=144.193481m. Speed=0.000000m/h.</desc>
<speed>0.000000</speed>
</trkpt>
<trkpt lat="55.957970" lon="26.554880">
<ele>144.185669</ele>
<time>2010-08-29T08:44:37Z</time>
<desc>lat.=55.957970, lon.=26.554880, Alt.=144.185669m. Speed=0.036000m/h.</desc>
<speed>0.010000</speed>
</trkpt>
<trkpt lat="55.957970" lon="26.554880">
<ele>144.173950</ele>
<time>2010-08-29T08:44:38Z</time>
<desc>lat.=55.957970, lon.=26.554880, Alt.=144.173950m. Speed=0.000000m/h.</desc>
<speed>0.000000</speed>
</trkpt>
<trkpt lat="55.957970" lon="26.554880">
<ele>144.170044</ele>
<time>2010-08-29T08:44:39Z</time>
<desc>lat.=55.957970, lon.=26.554880, Alt.=144.170044m. Speed=0.000000m/h.</desc>
<speed>0.000000</speed>
</trkpt>
<trkpt lat="55.957970" lon="26.554880">
<ele>144.162231</ele>
<time>2010-08-29T08:44:40Z</time>
<desc>lat.=55.957970, lon.=26.554880, Alt.=144.162231m. Speed=0.036000m/h.</desc>
<speed>0.010000</speed>
</trkpt>
<trkpt lat="55.957970" lon="26.554880">
<ele>144.154419</ele>
<time>2010-08-29T08:44:41Z</time>
<desc>lat.=55.957970, lon.=26.554880, Alt.=144.154419m. Speed=0.000000m/h.</desc>
<speed>0.000000</speed>
</trkpt>
<trkpt lat="55.957970" lon="26.554880">
<ele>144.150513</ele>
<time>2010-08-29T08:44:42Z</time>
<desc>lat.=55.957970, lon.=26.554880, Alt.=144.150513m. Speed=0.000000m/h.</desc>
<speed>0.000000</speed>
</trkpt>
<trkpt lat="55.957970" lon="26.554880">
<ele>144.146606</ele>
<time>2010-08-29T08:44:43Z</time>
<desc>lat.=55.957970, lon.=26.554880, Alt.=144.146606m. Speed=0.036000m/h.</desc>
<speed>0.010000</speed>
</trkpt>
<trkpt lat="55.957970" lon="26.554880">
<ele>144.146606</ele>
<time>2010-08-29T08:44:44Z</time>
<desc>lat.=55.957970, lon.=26.554880, Alt.=144.146606m. Speed=0.036000m/h.</desc>
<speed>0.010000</speed>
</trkpt>
<trkpt lat="55.957970" lon="26.554880">
<ele>144.146606</ele>
<time>2010-08-29T08:44:45Z</time>
<desc>lat.=55.957970, lon.=26.554880, Alt.=144.146606m. Speed=0.000000m/h.</desc>
<speed>0.000000</speed>
</trkpt>
<trkpt lat="55.957970" lon="26.554880">
<ele>144.146606</ele>
<time>2010-08-29T08:44:46Z</time>
<desc>lat.=55.957970, lon.=26.554880, Alt.=144.146606m. Speed=0.036000m/h.</desc>
<speed>0.010000</speed>
</trkpt>
<trkpt lat="55.957973" lon="26.554880">
<ele>144.142700</ele>
<time>2010-08-29T08:44:47Z</time>
<desc>lat.=55.957973, lon.=26.554880, Alt.=144.142700m. Speed=0.036000m/h.</desc>
<speed>0.010000</speed>
</trkpt>
<trkpt lat="55.957973" lon="26.554880">
<ele>144.146606</ele>
<time>2010-08-29T08:44:48Z</time>
<desc>lat.=55.957973, lon.=26.554880, Alt.=144.146606m. Speed=0.072000m/h.</desc>
<speed>0.020000</speed>
</trkpt>
<trkpt lat="55.957973" lon="26.554880">
<ele>144.142700</ele>
<time>2010-08-29T08:44:49Z</time>
<desc>lat.=55.957973, lon.=26.554880, Alt.=144.142700m. Speed=0.000000m/h.</desc>
<speed>0.000000</speed>
</trkpt>
<trkpt lat="55.957973" lon="26.554880">
<ele>144.138794</ele>
<time>2010-08-29T08:44:50Z</time>
<desc>lat.=55.957973, lon.=26.554880, Alt.=144.138794m. Speed=0.036000m/h.</desc>
<speed>0.010000</speed>
</trkpt>
<trkpt lat="55.957973" lon="26.554880">
<ele>144.130981</ele>
<time>2010-08-29T08:44:51Z</time>
<desc>lat.=55.957973, lon.=26.554880, Alt.=144.130981m. Speed=0.000000m/h.</desc>
<speed>0.000000</speed>
</trkpt>
<trkpt lat="55.957973" lon="26.554880">
<ele>144.127075</ele>
<time>2010-08-29T08:44:52Z</time>
<desc>lat.=55.957973, lon.=26.554880, Alt.=144.127075m. Speed=0.000000m/h.</desc>
<speed>0.000000</speed>
</trkpt>
<trkpt lat="55.957973" lon="26.554880">
<ele>144.119263</ele>
<time>2010-08-29T08:44:53Z</time>
<desc>lat.=55.957973, lon.=26.554880, Alt.=144.119263m. Speed=0.072000m/h.</desc>
<speed>0.020000</speed>
</trkpt>
<trkpt lat="55.957973" lon="26.554880">
<ele>144.111450</ele>
<time>2010-08-29T08:44:54Z</time>
<desc>lat.=55.957973, lon.=26.554880, Alt.=144.111450m. Speed=0.000000m/h.</desc>
<speed>0.000000</speed>
</trkpt>
<trkpt lat="55.957973" lon="26.554880">
<ele>144.099731</ele>
<time>2010-08-29T08:44:55Z</time>
<desc>lat.=55.957973, lon.=26.554880, Alt.=144.099731m. Speed=0.036000m/h.</desc>
<speed>0.010000</speed>
</trkpt>
<trkpt lat="55.957973" lon="26.554880">
<ele>144.091919</ele>
<time>2010-08-29T08:44:56Z</time>
<desc>lat.=55.957973, lon.=26.554880, Alt.=144.091919m. Speed=0.000000m/h.</desc>
<speed>0.000000</speed>
</trkpt>
<trkpt lat="55.957973" lon="26.554880">
<ele>144.084106</ele>
<time>2010-08-29T08:44:57Z</time>
<desc>lat.=55.957973, lon.=26.554880, Alt.=144.084106m. Speed=0.036000m/h.</desc>
<speed>0.010000</speed>
</trkpt>
<trkpt lat="55.957973" lon="26.554880">
<ele>144.080200</ele>
<time>2010-08-29T08:44:58Z</time>
<desc>lat.=55.957973, lon.=26.554880, Alt.=144.080200m. Speed=0.036000m/h.</desc>
<speed>0.010000</speed>
</trkpt>
<trkpt lat="55.957973" lon="26.554880">
<ele>144.076294</ele>
<time>2010-08-29T08:44:59Z</time>
<desc>lat.=55.957973, lon.=26.554880, Alt.=144.076294m. Speed=0.000000m/h.</desc>
<speed>0.000000</speed>
</trkpt>
<trkpt lat="55.957973" lon="26.554880">
<ele>144.068481</ele>
<time>2010-08-29T08:45:00Z</time>
<desc>lat.=55.957973, lon.=26.554880, Alt.=144.068481m. Speed=0.000000m/h.</desc>
<speed>0.000000</speed>
</trkpt>
<trkpt lat="55.957973" lon="26.554880">
<ele>144.064575</ele>
<time>2010-08-29T08:45:01Z</time>
<desc>lat.=55.957973, lon.=26.554880, Alt.=144.064575m. Speed=0.000000m/h.</desc>
<speed>0.000000</speed>
</trkpt>
<trkpt lat="55.957973" lon="26.554880">
<ele>144.060669</ele>
<time>2010-08-29T08:45:02Z</time>
<desc>lat.=55.957973, lon.=26.554880, Alt.=144.060669m. Speed=0.000000m/h.</desc>
<speed>0.000000</speed>
</trkpt>
<trkpt lat="55.957973" lon="26.554880">
<ele>144.060669</ele>
<time>2010-08-29T08:45:03Z</time>
<desc>lat.=55.957973, lon.=26.554880, Alt.=144.060669m. Speed=0.000000m/h.</desc>
<speed>0.000000</speed>
</trkpt>
<trkpt lat="55.957973" lon="26.554880">
<ele>144.056763</ele>
<time>2010-08-29T08:45:04Z</time>
<desc>lat.=55.957973, lon.=26.554880, Alt.=144.056763m. Speed=0.000000m/h.</desc>
<speed>0.000000</speed>
</trkpt>
<trkpt lat="55.957973" lon="26.554880">
<ele>144.052856</ele>
<time>2010-08-29T08:45:05Z</time>
<desc>lat.=55.957973, lon.=26.554880, Alt.=144.052856m. Speed=0.000000m/h.</desc>
<speed>0.000000</speed>
</trkpt>
<trkpt lat="55.957973" lon="26.554880">
<ele>144.048950</ele>
<time>2010-08-29T08:45:06Z</time>
<desc>lat.=55.957973, lon.=26.554880, Alt.=144.048950m. Speed=0.000000m/h.</desc>
<speed>0.000000</speed>
</trkpt>
<trkpt lat="55.957973" lon="26.554880">
<ele>144.045044</ele>
<time>2010-08-29T08:45:07Z</time>
<desc>lat.=55.957973, lon.=26.554880, Alt.=144.045044m. Speed=0.036000m/h.</desc>
<speed>0.010000</speed>
</trkpt>
<trkpt lat="55.957973" lon="26.554880">
<ele>144.041138</ele>
<time>2010-08-29T08:45:08Z</time>
<desc>lat.=55.957973, lon.=26.554880, Alt.=144.041138m. Speed=0.000000m/h.</desc>
<speed>0.000000</speed>
</trkpt>
<trkpt lat="55.957973" lon="26.554880">
<ele>144.037231</ele>
<time>2010-08-29T08:45:09Z</time>
<desc>lat.=55.957973, lon.=26.554880, Alt.=144.037231m. Speed=0.000000m/h.</desc>
<speed>0.000000</speed>
</trkpt>
<trkpt lat="55.957973" lon="26.554880">
<ele>144.037231</ele>
<time>2010-08-29T08:45:10Z</time>
<desc>lat.=55.957973, lon.=26.554880, Alt.=144.037231m. Speed=0.000000m/h.</desc>
<speed>0.000000</speed>
</trkpt>
<trkpt lat="55.957973" lon="26.554882">
<ele>144.033325</ele>
<time>2010-08-29T08:45:11Z</time>
<desc>lat.=55.957973, lon.=26.554882, Alt.=144.033325m. Speed=0.000000m/h.</desc>
<speed>0.000000</speed>
</trkpt>
<trkpt lat="55.957973" lon="26.554882">
<ele>144.029419</ele>
<time>2010-08-29T08:45:12Z</time>
<desc>lat.=55.957973, lon.=26.554882, Alt.=144.029419m. Speed=0.000000m/h.</desc>
<speed>0.000000</speed>
</trkpt>
<trkpt lat="55.957973" lon="26.554882">
<ele>144.025513</ele>
<time>2010-08-29T08:45:13Z</time>
<desc>lat.=55.957973, lon.=26.554882, Alt.=144.025513m. Speed=0.036000m/h.</desc>
<speed>0.010000</speed>
</trkpt>
<trkpt lat="55.957973" lon="26.554882">
<ele>144.025513</ele>
<time>2010-08-29T08:45:14Z</time>
<desc>lat.=55.957973, lon.=26.554882, Alt.=144.025513m. Speed=0.000000m/h.</desc>
<speed>0.000000</speed>
</trkpt>
<trkpt lat="55.957973" lon="26.554882">
<ele>144.017700</ele>
<time>2010-08-29T08:45:15Z</time>
<desc>lat.=55.957973, lon.=26.554882, Alt.=144.017700m. Speed=0.036000m/h.</desc>
<speed>0.010000</speed>
</trkpt>
<trkpt lat="55.957973" lon="26.554882">
<ele>144.009888</ele>
<time>2010-08-29T08:45:16Z</time>
<desc>lat.=55.957973, lon.=26.554882, Alt.=144.009888m. Speed=0.000000m/h.</desc>
<speed>0.000000</speed>
</trkpt>
<trkpt lat="55.957973" lon="26.554882">
<ele>144.005981</ele>
<time>2010-08-29T08:45:17Z</time>
<desc>lat.=55.957973, lon.=26.554882, Alt.=144.005981m. Speed=0.036000m/h.</desc>
<speed>0.010000</speed>
</trkpt>
<trkpt lat="55.957973" lon="26.554880">
<ele>143.994263</ele>
<time>2010-08-29T08:45:18Z</time>
<desc>lat.=55.957973, lon.=26.554880, Alt.=143.994263m. Speed=0.000000m/h.</desc>
<speed>0.000000</speed>
</trkpt>
<trkpt lat="55.957973" lon="26.554882">
<ele>143.986450</ele>
<time>2010-08-29T08:45:19Z</time>
<desc>lat.=55.957973, lon.=26.554882, Alt.=143.986450m. Speed=0.000000m/h.</desc>
<speed>0.000000</speed>
</trkpt>
<trkpt lat="55.957973" lon="26.554880">
<ele>143.982544</ele>
<time>2010-08-29T08:45:20Z</time>
<desc>lat.=55.957973, lon.=26.554880, Alt.=143.982544m. Speed=0.000000m/h.</desc>
<speed>0.000000</speed>
</trkpt>
<trkpt lat="55.957973" lon="26.554880">
<ele>143.978638</ele>
<time>2010-08-29T08:45:21Z</time>
<desc>lat.=55.957973, lon.=26.554880, Alt.=143.978638m. Speed=0.000000m/h.</desc>
<speed>0.000000</speed>
</trkpt>
<trkpt lat="55.957973" lon="26.554880">
<ele>143.974731</ele>
<time>2010-08-29T08:45:22Z</time>
<desc>lat.=55.957973, lon.=26.554880, Alt.=143.974731m. Speed=0.036000m/h.</desc>
<speed>0.010000</speed>
</trkpt>
<trkpt lat="55.957973" lon="26.554880">
<ele>143.970825</ele>
<time>2010-08-29T08:45:23Z</time>
<desc>lat.=55.957973, lon.=26.554880, Alt.=143.970825m. Speed=0.000000m/h.</desc>
<speed>0.000000</speed>
</trkpt>
<trkpt lat="55.957973" lon="26.554880">
<ele>143.970825</ele>
<time>2010-08-29T08:45:24Z</time>
<desc>lat.=55.957973, lon.=26.554880, Alt.=143.970825m. Speed=0.036000m/h.</desc>
<speed>0.010000</speed>
</trkpt>
<trkpt lat="55.957973" lon="26.554880">
<ele>143.963013</ele>
<time>2010-08-29T08:45:25Z</time>
<desc>lat.=55.957973, lon.=26.554880, Alt.=143.963013m. Speed=0.036000m/h.</desc>
<speed>0.010000</speed>
</trkpt>
<trkpt lat="55.957973" lon="26.554880">
<ele>143.963013</ele>
<time>2010-08-29T08:45:26Z</time>
<desc>lat.=55.957973, lon.=26.554880, Alt.=143.963013m. Speed=0.036000m/h.</desc>
<speed>0.010000</speed>
</trkpt>
<trkpt lat="55.957973" lon="26.554880">
<ele>143.963013</ele>
<time>2010-08-29T08:45:27Z</time>
<desc>lat.=55.957973, lon.=26.554880, Alt.=143.963013m. Speed=0.036000m/h.</desc>
<speed>0.010000</speed>
</trkpt>
<trkpt lat="55.957973" lon="26.554880">
<ele>143.963013</ele>
<time>2010-08-29T08:45:28Z</time>
<desc>lat.=55.957973, lon.=26.554880, Alt.=143.963013m. Speed=0.108000m/h.</desc>
<speed>0.030000</speed>
</trkpt>
<trkpt lat="55.957973" lon="26.554880">
<ele>143.959106</ele>
<time>2010-08-29T08:45:29Z</time>
<desc>lat.=55.957973, lon.=26.554880, Alt.=143.959106m. Speed=0.180000m/h.</desc>
<speed>0.050000</speed>
</trkpt>
<trkpt lat="55.957977" lon="26.554882">
<ele>143.963013</ele>
<time>2010-08-29T08:45:30Z</time>
<desc>lat.=55.957977, lon.=26.554882, Alt.=143.963013m. Speed=4.644000m/h.</desc>
<speed>1.290000</speed>
</trkpt>
<trkpt lat="55.958004" lon="26.554888">
<ele>144.380981</ele>
<time>2010-08-29T08:45:31Z</time>
<desc>lat.=55.958004, lon.=26.554888, Alt.=144.380981m. Speed=9.540000m/h.</desc>
<speed>2.650000</speed>
</trkpt>
<trkpt lat="55.958035" lon="26.554886">
<ele>144.365356</ele>
<time>2010-08-29T08:45:32Z</time>
<desc>lat.=55.958035, lon.=26.554886, Alt.=144.365356m. Speed=10.332000m/h.</desc>
<speed>2.870000</speed>
</trkpt>
<trkpt lat="55.958065" lon="26.554886">
<ele>144.041138</ele>
<time>2010-08-29T08:45:33Z</time>
<desc>lat.=55.958065, lon.=26.554886, Alt.=144.041138m. Speed=10.044000m/h.</desc>
<speed>2.790000</speed>
</trkpt>
<trkpt lat="55.958096" lon="26.554890">
<ele>144.021606</ele>
<time>2010-08-29T08:45:34Z</time>
<desc>lat.=55.958096, lon.=26.554890, Alt.=144.021606m. Speed=9.468000m/h.</desc>
<speed>2.630000</speed>
</trkpt>
<trkpt lat="55.958134" lon="26.554882">
<ele>143.209106</ele>
<time>2010-08-29T08:45:35Z</time>
<desc>lat.=55.958134, lon.=26.554882, Alt.=143.209106m. Speed=12.060000m/h.</desc>
<speed>3.350000</speed>
</trkpt>
<trkpt lat="55.958164" lon="26.554888">
<ele>143.037231</ele>
<time>2010-08-29T08:45:36Z</time>
<desc>lat.=55.958164, lon.=26.554888, Alt.=143.037231m. Speed=11.376000m/h.</desc>
<speed>3.160000</speed>
</trkpt>
<trkpt lat="55.958195" lon="26.554893">
<ele>142.564575</ele>
<time>2010-08-29T08:45:37Z</time>
<desc>lat.=55.958195, lon.=26.554893, Alt.=142.564575m. Speed=11.592000m/h.</desc>
<speed>3.220000</speed>
</trkpt>
<trkpt lat="55.958233" lon="26.554903">
<ele>141.818481</ele>
<time>2010-08-29T08:45:38Z</time>
<desc>lat.=55.958233, lon.=26.554903, Alt.=141.818481m. Speed=13.032000m/h.</desc>
<speed>3.620000</speed>
</trkpt>
<trkpt lat="55.958271" lon="26.554905">
<ele>140.966919</ele>
<time>2010-08-29T08:45:39Z</time>
<desc>lat.=55.958271, lon.=26.554905, Alt.=140.966919m. Speed=9.648000m/h.</desc>
<speed>2.680000</speed>
</trkpt>
<trkpt lat="55.958305" lon="26.554893">
<ele>140.677856</ele>
<time>2010-08-29T08:45:40Z</time>
<desc>lat.=55.958305, lon.=26.554893, Alt.=140.677856m. Speed=12.924000m/h.</desc>
<speed>3.590000</speed>
</trkpt>
<trkpt lat="55.958344" lon="26.554890">
<ele>139.517700</ele>
<time>2010-08-29T08:45:41Z</time>
<desc>lat.=55.958344, lon.=26.554890, Alt.=139.517700m. Speed=12.204000m/h.</desc>
<speed>3.390000</speed>
</trkpt>
<trkpt lat="55.958385" lon="26.554888">
<ele>138.888794</ele>
<time>2010-08-29T08:45:42Z</time>
<desc>lat.=55.958385, lon.=26.554888, Alt.=138.888794m. Speed=11.304000m/h.</desc>
<speed>3.140000</speed>
</trkpt>
<trkpt lat="55.958424" lon="26.554888">
<ele>138.021606</ele>
<time>2010-08-29T08:45:43Z</time>
<desc>lat.=55.958424, lon.=26.554888, Alt.=138.021606m. Speed=11.160000m/h.</desc>
<speed>3.100000</speed>
</trkpt>
<trkpt lat="55.958458" lon="26.554878">
<ele>137.576294</ele>
<time>2010-08-29T08:45:44Z</time>
<desc>lat.=55.958458, lon.=26.554878, Alt.=137.576294m. Speed=9.864000m/h.</desc>
<speed>2.740000</speed>
</trkpt>
<trkpt lat="55.958496" lon="26.554873">
<ele>137.693481</ele>
<time>2010-08-29T08:45:45Z</time>
<desc>lat.=55.958496, lon.=26.554873, Alt.=137.693481m. Speed=7.308000m/h.</desc>
<speed>2.030000</speed>
</trkpt>
<trkpt lat="55.958527" lon="26.554869">
<ele>137.509888</ele>
<time>2010-08-29T08:45:46Z</time>
<desc>lat.=55.958527, lon.=26.554869, Alt.=137.509888m. Speed=8.748000m/h.</desc>
<speed>2.430000</speed>
</trkpt>
<trkpt lat="55.958557" lon="26.554865">
<ele>138.302856</ele>
<time>2010-08-29T08:45:47Z</time>
<desc>lat.=55.958557, lon.=26.554865, Alt.=138.302856m. Speed=5.688000m/h.</desc>
<speed>1.580000</speed>
</trkpt>
<trkpt lat="55.958580" lon="26.554859">
<ele>138.033325</ele>
<time>2010-08-29T08:45:48Z</time>
<desc>lat.=55.958580, lon.=26.554859, Alt.=138.033325m. Speed=4.428000m/h.</desc>
<speed>1.230000</speed>
</trkpt>
<trkpt lat="55.958603" lon="26.554861">
<ele>137.517700</ele>
<time>2010-08-29T08:45:49Z</time>
<desc>lat.=55.958603, lon.=26.554861, Alt.=137.517700m. Speed=3.780000m/h.</desc>
<speed>1.050000</speed>
</trkpt>
<trkpt lat="55.958626" lon="26.554863">
<ele>137.220825</ele>
<time>2010-08-29T08:45:50Z</time>
<desc>lat.=55.958626, lon.=26.554863, Alt.=137.220825m. Speed=4.788000m/h.</desc>
<speed>1.330000</speed>
</trkpt>
<trkpt lat="55.958649" lon="26.554857">
<ele>136.013794</ele>
<time>2010-08-29T08:45:51Z</time>
<desc>lat.=55.958649, lon.=26.554857, Alt.=136.013794m. Speed=5.724000m/h.</desc>
<speed>1.590000</speed>
</trkpt>
<trkpt lat="55.958675" lon="26.554857">
<ele>135.334106</ele>
<time>2010-08-29T08:45:52Z</time>
<desc>lat.=55.958675, lon.=26.554857, Alt.=135.334106m. Speed=5.508000m/h.</desc>
<speed>1.530000</speed>
</trkpt>
<trkpt lat="55.958698" lon="26.554857">
<ele>134.377075</ele>
<time>2010-08-29T08:45:53Z</time>
<desc>lat.=55.958698, lon.=26.554857, Alt.=134.377075m. Speed=4.212000m/h.</desc>
<speed>1.170000</speed>
</trkpt>
<trkpt lat="55.958721" lon="26.554859">
<ele>133.904419</ele>
<time>2010-08-29T08:45:54Z</time>
<desc>lat.=55.958721, lon.=26.554859, Alt.=133.904419m. Speed=4.608000m/h.</desc>
<speed>1.280000</speed>
</trkpt>
<trkpt lat="55.958748" lon="26.554859">
<ele>134.423950</ele>
<time>2010-08-29T08:45:55Z</time>
<desc>lat.=55.958748, lon.=26.554859, Alt.=134.423950m. Speed=5.292000m/h.</desc>
<speed>1.470000</speed>
</trkpt>
<trkpt lat="55.958763" lon="26.554857">
<ele>134.170044</ele>
<time>2010-08-29T08:45:56Z</time>
<desc>lat.=55.958763, lon.=26.554857, Alt.=134.170044m. Speed=5.508000m/h.</desc>
<speed>1.530000</speed>
</trkpt>
<trkpt lat="55.958794" lon="26.554852">
<ele>134.275513</ele>
<time>2010-08-29T08:45:57Z</time>
<desc>lat.=55.958794, lon.=26.554852, Alt.=134.275513m. Speed=4.860000m/h.</desc>
<speed>1.350000</speed>
</trkpt>
<trkpt lat="55.958817" lon="26.554857">
<ele>134.388794</ele>
<time>2010-08-29T08:45:58Z</time>
<desc>lat.=55.958817, lon.=26.554857, Alt.=134.388794m. Speed=5.400000m/h.</desc>
<speed>1.500000</speed>
</trkpt>
<trkpt lat="55.958832" lon="26.554857">
<ele>134.213013</ele>
<time>2010-08-29T08:45:59Z</time>
<desc>lat.=55.958832, lon.=26.554857, Alt.=134.213013m. Speed=5.472000m/h.</desc>
<speed>1.520000</speed>
</trkpt>
<trkpt lat="55.958851" lon="26.554855">
<ele>133.955200</ele>
<time>2010-08-29T08:46:00Z</time>
<desc>lat.=55.958851, lon.=26.554855, Alt.=133.955200m. Speed=5.688000m/h.</desc>
<speed>1.580000</speed>
</trkpt>
<trkpt lat="55.958870" lon="26.554850">
<ele>133.904419</ele>
<time>2010-08-29T08:46:01Z</time>
<desc>lat.=55.958870, lon.=26.554850, Alt.=133.904419m. Speed=4.824000m/h.</desc>
<speed>1.340000</speed>
</trkpt>
<trkpt lat="55.958885" lon="26.554850">
<ele>133.732544</ele>
<time>2010-08-29T08:46:02Z</time>
<desc>lat.=55.958885, lon.=26.554850, Alt.=133.732544m. Speed=5.220000m/h.</desc>
<speed>1.450000</speed>
</trkpt>
<trkpt lat="55.958904" lon="26.554848">
<ele>133.541138</ele>
<time>2010-08-29T08:46:03Z</time>
<desc>lat.=55.958904, lon.=26.554848, Alt.=133.541138m. Speed=5.328000m/h.</desc>
<speed>1.480000</speed>
</trkpt>
<trkpt lat="55.958923" lon="26.554844">
<ele>133.439575</ele>
<time>2010-08-29T08:46:04Z</time>
<desc>lat.=55.958923, lon.=26.554844, Alt.=133.439575m. Speed=6.696000m/h.</desc>
<speed>1.860000</speed>
</trkpt>
<trkpt lat="55.958946" lon="26.554836">
<ele>132.623169</ele>
<time>2010-08-29T08:46:05Z</time>
<desc>lat.=55.958946, lon.=26.554836, Alt.=132.623169m. Speed=6.084000m/h.</desc>
<speed>1.690000</speed>
</trkpt>
<trkpt lat="55.958961" lon="26.554832">
<ele>132.388794</ele>
<time>2010-08-29T08:46:06Z</time>
<desc>lat.=55.958961, lon.=26.554832, Alt.=132.388794m. Speed=5.760000m/h.</desc>
<speed>1.600000</speed>
</trkpt>
<trkpt lat="55.958981" lon="26.554827">
<ele>131.630981</ele>
<time>2010-08-29T08:46:07Z</time>
<desc>lat.=55.958981, lon.=26.554827, Alt.=131.630981m. Speed=7.020000m/h.</desc>
<speed>1.950000</speed>
</trkpt>
<trkpt lat="55.959011" lon="26.554819">
<ele>130.752075</ele>
<time>2010-08-29T08:46:08Z</time>
<desc>lat.=55.959011, lon.=26.554819, Alt.=130.752075m. Speed=9.684000m/h.</desc>
<speed>2.690000</speed>
</trkpt>
<trkpt lat="55.959042" lon="26.554827">
<ele>130.474731</ele>
<time>2010-08-29T08:46:09Z</time>
<desc>lat.=55.959042, lon.=26.554827, Alt.=130.474731m. Speed=10.008000m/h.</desc>
<speed>2.780000</speed>
</trkpt>
<trkpt lat="55.959072" lon="26.554823">
<ele>130.205200</ele>
<time>2010-08-29T08:46:10Z</time>
<desc>lat.=55.959072, lon.=26.554823, Alt.=130.205200m. Speed=10.044000m/h.</desc>
<speed>2.790000</speed>
</trkpt>
<trkpt lat="55.959099" lon="26.554817">
<ele>129.455200</ele>
<time>2010-08-29T08:46:11Z</time>
<desc>lat.=55.959099, lon.=26.554817, Alt.=129.455200m. Speed=10.368000m/h.</desc>
<speed>2.880000</speed>
</trkpt>
<trkpt lat="55.959129" lon="26.554819">
<ele>128.650513</ele>
<time>2010-08-29T08:46:12Z</time>
<desc>lat.=55.959129, lon.=26.554819, Alt.=128.650513m. Speed=8.820000m/h.</desc>
<speed>2.450000</speed>
</trkpt>
<trkpt lat="55.959152" lon="26.554823">
<ele>128.232544</ele>
<time>2010-08-29T08:46:13Z</time>
<desc>lat.=55.959152, lon.=26.554823, Alt.=128.232544m. Speed=8.712000m/h.</desc>
<speed>2.420000</speed>
</trkpt>
<trkpt lat="55.959175" lon="26.554811">
<ele>127.514709</ele>
<time>2010-08-29T08:46:14Z</time>
<desc>lat.=55.959175, lon.=26.554811, Alt.=127.514709m. Speed=7.740000m/h.</desc>
<speed>2.150000</speed>
</trkpt>
<trkpt lat="55.959202" lon="26.554804">
<ele>126.627991</ele>
<time>2010-08-29T08:46:15Z</time>
<desc>lat.=55.959202, lon.=26.554804, Alt.=126.627991m. Speed=9.432000m/h.</desc>
<speed>2.620000</speed>
</trkpt>
<trkpt lat="55.959225" lon="26.554800">
<ele>126.157288</ele>
<time>2010-08-29T08:46:16Z</time>
<desc>lat.=55.959225, lon.=26.554800, Alt.=126.157288m. Speed=9.936000m/h.</desc>
<speed>2.760000</speed>
</trkpt>
<trkpt lat="55.959255" lon="26.554813">
<ele>126.176819</ele>
<time>2010-08-29T08:46:17Z</time>
<desc>lat.=55.959255, lon.=26.554813, Alt.=126.176819m. Speed=11.196000m/h.</desc>
<speed>3.110000</speed>
</trkpt>
<trkpt lat="55.959290" lon="26.554815">
<ele>126.842834</ele>
<time>2010-08-29T08:46:18Z</time>
<desc>lat.=55.959290, lon.=26.554815, Alt.=126.842834m. Speed=10.368000m/h.</desc>
<speed>2.880000</speed>
</trkpt>
<trkpt lat="55.959316" lon="26.554815">
<ele>126.788147</ele>
<time>2010-08-29T08:46:19Z</time>
<desc>lat.=55.959316, lon.=26.554815, Alt.=126.788147m. Speed=9.504000m/h.</desc>
<speed>2.640000</speed>
</trkpt>
<trkpt lat="55.959343" lon="26.554813">
<ele>126.682678</ele>
<time>2010-08-29T08:46:20Z</time>
<desc>lat.=55.959343, lon.=26.554813, Alt.=126.682678m. Speed=10.116000m/h.</desc>
<speed>2.810000</speed>
</trkpt>
<trkpt lat="55.959370" lon="26.554811">
<ele>126.411194</ele>
<time>2010-08-29T08:46:21Z</time>
<desc>lat.=55.959370, lon.=26.554811, Alt.=126.411194m. Speed=9.252000m/h.</desc>
<speed>2.570000</speed>
</trkpt>
<trkpt lat="55.959393" lon="26.554811">
<ele>125.917053</ele>
<time>2010-08-29T08:46:22Z</time>
<desc>lat.=55.959393, lon.=26.554811, Alt.=125.917053m. Speed=8.676000m/h.</desc>
<speed>2.410000</speed>
</trkpt>
<trkpt lat="55.959419" lon="26.554836">
<ele>126.585022</ele>
<time>2010-08-29T08:46:23Z</time>
<desc>lat.=55.959419, lon.=26.554836, Alt.=126.585022m. Speed=8.712000m/h.</desc>
<speed>2.420000</speed>
</trkpt>
<trkpt lat="55.959442" lon="26.554840">
<ele>126.366272</ele>
<time>2010-08-29T08:46:24Z</time>
<desc>lat.=55.959442, lon.=26.554840, Alt.=126.366272m. Speed=7.668000m/h.</desc>
<speed>2.130000</speed>
</trkpt>
<trkpt lat="55.959461" lon="26.554838">
<ele>125.508850</ele>
<time>2010-08-29T08:46:25Z</time>
<desc>lat.=55.959461, lon.=26.554838, Alt.=125.508850m. Speed=7.812000m/h.</desc>
<speed>2.170000</speed>
</trkpt>
<trkpt lat="55.959484" lon="26.554836">
<ele>125.180725</ele>
<time>2010-08-29T08:46:26Z</time>
<desc>lat.=55.959484, lon.=26.554836, Alt.=125.180725m. Speed=9.828000m/h.</desc>
<speed>2.730000</speed>
</trkpt>
<trkpt lat="55.959511" lon="26.554838">
<ele>125.116272</ele>
<time>2010-08-29T08:46:27Z</time>
<desc>lat.=55.959511, lon.=26.554838, Alt.=125.116272m. Speed=9.396000m/h.</desc>
<speed>2.610000</speed>
</trkpt>
<trkpt lat="55.959534" lon="26.554840">
<ele>124.508850</ele>
<time>2010-08-29T08:46:28Z</time>
<desc>lat.=55.959534, lon.=26.554840, Alt.=124.508850m. Speed=9.252000m/h.</desc>
<speed>2.570000</speed>
</trkpt>
<trkpt lat="55.959560" lon="26.554838">
<ele>124.061584</ele>
<time>2010-08-29T08:46:29Z</time>
<desc>lat.=55.959560, lon.=26.554838, Alt.=124.061584m. Speed=9.288000m/h.</desc>
<speed>2.580000</speed>
</trkpt>
<trkpt lat="55.959587" lon="26.554836">
<ele>123.977600</ele>
<time>2010-08-29T08:46:30Z</time>
<desc>lat.=55.959587, lon.=26.554836, Alt.=123.977600m. Speed=10.800000m/h.</desc>
<speed>3.000000</speed>
</trkpt>
<trkpt lat="55.959618" lon="26.554831">
<ele>123.743225</ele>
<time>2010-08-29T08:46:31Z</time>
<desc>lat.=55.959618, lon.=26.554831, Alt.=123.743225m. Speed=12.276000m/h.</desc>
<speed>3.410000</speed>
</trkpt>
<trkpt lat="55.959648" lon="26.554831">
<ele>123.489319</ele>
<time>2010-08-29T08:46:32Z</time>
<desc>lat.=55.959648, lon.=26.554831, Alt.=123.489319m. Speed=11.844000m/h.</desc>
<speed>3.290000</speed>
</trkpt>
<trkpt lat="55.959682" lon="26.554819">
<ele>122.516663</ele>
<time>2010-08-29T08:46:33Z</time>
<desc>lat.=55.959682, lon.=26.554819, Alt.=122.516663m. Speed=13.680000m/h.</desc>
<speed>3.800000</speed>
</trkpt>
<trkpt lat="55.959717" lon="26.554810">
<ele>121.825256</ele>
<time>2010-08-29T08:46:34Z</time>
<desc>lat.=55.959717, lon.=26.554810, Alt.=121.825256m. Speed=13.320000m/h.</desc>
<speed>3.700000</speed>
</trkpt>
<trkpt lat="55.959740" lon="26.554798">
<ele>120.965881</ele>
<time>2010-08-29T08:46:35Z</time>
<desc>lat.=55.959740, lon.=26.554798, Alt.=120.965881m. Speed=9.000000m/h.</desc>
<speed>2.500000</speed>
</trkpt>
<trkpt lat="55.959755" lon="26.554794">
<ele>120.405334</ele>
<time>2010-08-29T08:46:36Z</time>
<desc>lat.=55.959755, lon.=26.554794, Alt.=120.405334m. Speed=4.212000m/h.</desc>
<speed>1.170000</speed>
</trkpt>
<trkpt lat="55.959763" lon="26.554792">
<ele>119.917053</ele>
<time>2010-08-29T08:46:37Z</time>
<desc>lat.=55.959763, lon.=26.554792, Alt.=119.917053m. Speed=0.828000m/h.</desc>
<speed>0.230000</speed>
</trkpt>
<trkpt lat="55.959766" lon="26.554796">
<ele>120.137756</ele>
<time>2010-08-29T08:46:38Z</time>
<desc>lat.=55.959766, lon.=26.554796, Alt.=120.137756m. Speed=0.576000m/h.</desc>
<speed>0.160000</speed>
</trkpt>
<trkpt lat="55.959774" lon="26.554802">
<ele>120.069397</ele>
<time>2010-08-29T08:46:39Z</time>
<desc>lat.=55.959774, lon.=26.554802, Alt.=120.069397m. Speed=0.648000m/h.</desc>
<speed>0.180000</speed>
</trkpt>
<trkpt lat="55.959778" lon="26.554800">
<ele>119.932678</ele>
<time>2010-08-29T08:46:40Z</time>
<desc>lat.=55.959778, lon.=26.554800, Alt.=119.932678m. Speed=0.720000m/h.</desc>
<speed>0.200000</speed>
</trkpt>
<trkpt lat="55.959778" lon="26.554798">
<ele>119.842834</ele>
<time>2010-08-29T08:46:41Z</time>
<desc>lat.=55.959778, lon.=26.554798, Alt.=119.842834m. Speed=0.504000m/h.</desc>
<speed>0.140000</speed>
</trkpt>
<trkpt lat="55.959782" lon="26.554796">
<ele>119.782288</ele>
<time>2010-08-29T08:46:42Z</time>
<desc>lat.=55.959782, lon.=26.554796, Alt.=119.782288m. Speed=0.864000m/h.</desc>
<speed>0.240000</speed>
</trkpt>
<trkpt lat="55.959782" lon="26.554792">
<ele>119.741272</ele>
<time>2010-08-29T08:46:43Z</time>
<desc>lat.=55.959782, lon.=26.554792, Alt.=119.741272m. Speed=0.756000m/h.</desc>
<speed>0.210000</speed>
</trkpt>
<trkpt lat="55.959782" lon="26.554789">
<ele>119.711975</ele>
<time>2010-08-29T08:46:44Z</time>
<desc>lat.=55.959782, lon.=26.554789, Alt.=119.711975m. Speed=0.648000m/h.</desc>
<speed>0.180000</speed>
</trkpt>
<trkpt lat="55.959782" lon="26.554785">
<ele>119.700256</ele>
<time>2010-08-29T08:46:45Z</time>
<desc>lat.=55.959782, lon.=26.554785, Alt.=119.700256m. Speed=0.036000m/h.</desc>
<speed>0.010000</speed>
</trkpt>
<trkpt lat="55.959782" lon="26.554785">
<ele>119.682678</ele>
<time>2010-08-29T08:46:46Z</time>
<desc>lat.=55.959782, lon.=26.554785, Alt.=119.682678m. Speed=0.108000m/h.</desc>
<speed>0.030000</speed>
</trkpt>
<trkpt lat="55.959782" lon="26.554785">
<ele>119.667053</ele>
<time>2010-08-29T08:46:47Z</time>
<desc>lat.=55.959782, lon.=26.554785, Alt.=119.667053m. Speed=0.108000m/h.</desc>
<speed>0.030000</speed>
</trkpt>
<trkpt lat="55.959782" lon="26.554785">
<ele>119.655334</ele>
<time>2010-08-29T08:46:48Z</time>
<desc>lat.=55.959782, lon.=26.554785, Alt.=119.655334m. Speed=0.360000m/h.</desc>
<speed>0.100000</speed>
</trkpt>
<trkpt lat="55.959782" lon="26.554785">
<ele>119.641663</ele>
<time>2010-08-29T08:46:49Z</time>
<desc>lat.=55.959782, lon.=26.554785, Alt.=119.641663m. Speed=0.252000m/h.</desc>
<speed>0.070000</speed>
</trkpt>
<trkpt lat="55.959782" lon="26.554785">
<ele>119.626038</ele>
<time>2010-08-29T08:46:50Z</time>
<desc>lat.=55.959782, lon.=26.554785, Alt.=119.626038m. Speed=0.180000m/h.</desc>
<speed>0.050000</speed>
</trkpt>
<trkpt lat="55.959782" lon="26.554787">
<ele>119.590881</ele>
<time>2010-08-29T08:46:51Z</time>
<desc>lat.=55.959782, lon.=26.554787, Alt.=119.590881m. Speed=0.180000m/h.</desc>
<speed>0.050000</speed>
</trkpt>
<trkpt lat="55.959782" lon="26.554787">
<ele>119.557678</ele>
<time>2010-08-29T08:46:52Z</time>
<desc>lat.=55.959782, lon.=26.554787, Alt.=119.557678m. Speed=0.216000m/h.</desc>
<speed>0.060000</speed>
</trkpt>
<trkpt lat="55.959785" lon="26.554787">
<ele>119.528381</ele>
<time>2010-08-29T08:46:53Z</time>
<desc>lat.=55.959785, lon.=26.554787, Alt.=119.528381m. Speed=0.396000m/h.</desc>
<speed>0.110000</speed>
</trkpt>
<trkpt lat="55.959785" lon="26.554789">
<ele>119.501038</ele>
<time>2010-08-29T08:46:54Z</time>
<desc>lat.=55.959785, lon.=26.554789, Alt.=119.501038m. Speed=0.180000m/h.</desc>
<speed>0.050000</speed>
</trkpt>
<trkpt lat="55.959785" lon="26.554789">
<ele>119.477600</ele>
<time>2010-08-29T08:46:55Z</time>
<desc>lat.=55.959785, lon.=26.554789, Alt.=119.477600m. Speed=0.252000m/h.</desc>
<speed>0.070000</speed>
</trkpt>
<trkpt lat="55.959785" lon="26.554790">
<ele>119.467834</ele>
<time>2010-08-29T08:46:56Z</time>
<desc>lat.=55.959785, lon.=26.554790, Alt.=119.467834m. Speed=0.036000m/h.</desc>
<speed>0.010000</speed>
</trkpt>
<trkpt lat="55.959785" lon="26.554790">
<ele>119.460022</ele>
<time>2010-08-29T08:46:57Z</time>
<desc>lat.=55.959785, lon.=26.554790, Alt.=119.460022m. Speed=0.216000m/h.</desc>
<speed>0.060000</speed>
</trkpt>
<trkpt lat="55.959785" lon="26.554790">
<ele>119.450256</ele>
<time>2010-08-29T08:46:58Z</time>
<desc>lat.=55.959785, lon.=26.554790, Alt.=119.450256m. Speed=0.144000m/h.</desc>
<speed>0.040000</speed>
</trkpt>
<trkpt lat="55.959785" lon="26.554790">
<ele>119.440491</ele>
<time>2010-08-29T08:46:59Z</time>
<desc>lat.=55.959785, lon.=26.554790, Alt.=119.440491m. Speed=0.288000m/h.</desc>
<speed>0.080000</speed>
</trkpt>
<trkpt lat="55.959785" lon="26.554792">
<ele>119.434631</ele>
<time>2010-08-29T08:47:00Z</time>
<desc>lat.=55.959785, lon.=26.554792, Alt.=119.434631m. Speed=0.396000m/h.</desc>
<speed>0.110000</speed>
</trkpt>
<trkpt lat="55.959785" lon="26.554794">
<ele>119.428772</ele>
<time>2010-08-29T08:47:01Z</time>
<desc>lat.=55.959785, lon.=26.554794, Alt.=119.428772m. Speed=0.216000m/h.</desc>
<speed>0.060000</speed>
</trkpt>
<trkpt lat="55.959789" lon="26.554794">
<ele>119.430725</ele>
<time>2010-08-29T08:47:02Z</time>
<desc>lat.=55.959789, lon.=26.554794, Alt.=119.430725m. Speed=0.324000m/h.</desc>
<speed>0.090000</speed>
</trkpt>
<trkpt lat="55.959789" lon="26.554792">
<ele>119.428772</ele>
<time>2010-08-29T08:47:03Z</time>
<desc>lat.=55.959789, lon.=26.554792, Alt.=119.428772m. Speed=0.792000m/h.</desc>
<speed>0.220000</speed>
</trkpt>
<trkpt lat="55.959789" lon="26.554790">
<ele>119.417053</ele>
<time>2010-08-29T08:47:04Z</time>
<desc>lat.=55.959789, lon.=26.554790, Alt.=119.417053m. Speed=0.540000m/h.</desc>
<speed>0.150000</speed>
</trkpt>
<trkpt lat="55.959789" lon="26.554790">
<ele>119.403381</ele>
<time>2010-08-29T08:47:05Z</time>
<desc>lat.=55.959789, lon.=26.554790, Alt.=119.403381m. Speed=0.180000m/h.</desc>
<speed>0.050000</speed>
</trkpt>
<trkpt lat="55.959793" lon="26.554790">
<ele>119.372131</ele>
<time>2010-08-29T08:47:06Z</time>
<desc>lat.=55.959793, lon.=26.554790, Alt.=119.372131m. Speed=0.144000m/h.</desc>
<speed>0.040000</speed>
</trkpt>
<trkpt lat="55.959793" lon="26.554790">
<ele>119.360413</ele>
<time>2010-08-29T08:47:07Z</time>
<desc>lat.=55.959793, lon.=26.554790, Alt.=119.360413m. Speed=0.036000m/h.</desc>
<speed>0.010000</speed>
</trkpt>
<trkpt lat="55.959793" lon="26.554790">
<ele>119.350647</ele>
<time>2010-08-29T08:47:08Z</time>
<desc>lat.=55.959793, lon.=26.554790, Alt.=119.350647m. Speed=0.144000m/h.</desc>
<speed>0.040000</speed>
</trkpt>
<trkpt lat="55.959793" lon="26.554790">
<ele>119.333069</ele>
<time>2010-08-29T08:47:09Z</time>
<desc>lat.=55.959793, lon.=26.554790, Alt.=119.333069m. Speed=0.324000m/h.</desc>
<speed>0.090000</speed>
</trkpt>
<trkpt lat="55.959789" lon="26.554790">
<ele>119.315491</ele>
<time>2010-08-29T08:47:10Z</time>
<desc>lat.=55.959789, lon.=26.554790, Alt.=119.315491m. Speed=0.108000m/h.</desc>
<speed>0.030000</speed>
</trkpt>
<trkpt lat="55.959789" lon="26.554790">
<ele>119.288147</ele>
<time>2010-08-29T08:47:11Z</time>
<desc>lat.=55.959789, lon.=26.554790, Alt.=119.288147m. Speed=0.180000m/h.</desc>
<speed>0.050000</speed>
</trkpt>
<trkpt lat="55.959789" lon="26.554792">
<ele>119.258850</ele>
<time>2010-08-29T08:47:12Z</time>
<desc>lat.=55.959789, lon.=26.554792, Alt.=119.258850m. Speed=0.036000m/h.</desc>
<speed>0.010000</speed>
</trkpt>
<trkpt lat="55.959789" lon="26.554792">
<ele>119.241272</ele>
<time>2010-08-29T08:47:13Z</time>
<desc>lat.=55.959789, lon.=26.554792, Alt.=119.241272m. Speed=0.180000m/h.</desc>
<speed>0.050000</speed>
</trkpt>
<trkpt lat="55.959789" lon="26.554790">
<ele>119.221741</ele>
<time>2010-08-29T08:47:14Z</time>
<desc>lat.=55.959789, lon.=26.554790, Alt.=119.221741m. Speed=0.072000m/h.</desc>
<speed>0.020000</speed>
</trkpt>
<trkpt lat="55.959789" lon="26.554790">
<ele>119.215881</ele>
<time>2010-08-29T08:47:15Z</time>
<desc>lat.=55.959789, lon.=26.554790, Alt.=119.215881m. Speed=0.180000m/h.</desc>
<speed>0.050000</speed>
</trkpt>
<trkpt lat="55.959789" lon="26.554792">
<ele>119.213928</ele>
<time>2010-08-29T08:47:16Z</time>
<desc>lat.=55.959789, lon.=26.554792, Alt.=119.213928m. Speed=0.216000m/h.</desc>
<speed>0.060000</speed>
</trkpt>
<trkpt lat="55.959789" lon="26.554792">
<ele>119.229553</ele>
<time>2010-08-29T08:47:17Z</time>
<desc>lat.=55.959789, lon.=26.554792, Alt.=119.229553m. Speed=0.144000m/h.</desc>
<speed>0.040000</speed>
</trkpt>
<trkpt lat="55.959789" lon="26.554792">
<ele>119.233459</ele>
<time>2010-08-29T08:47:18Z</time>
<desc>lat.=55.959789, lon.=26.554792, Alt.=119.233459m. Speed=0.720000m/h.</desc>
<speed>0.200000</speed>
</trkpt>
<trkpt lat="55.959789" lon="26.554792">
<ele>119.239319</ele>
<time>2010-08-29T08:47:19Z</time>
<desc>lat.=55.959789, lon.=26.554792, Alt.=119.239319m. Speed=0.252000m/h.</desc>
<speed>0.070000</speed>
</trkpt>
<trkpt lat="55.959789" lon="26.554792">
<ele>119.233459</ele>
<time>2010-08-29T08:47:20Z</time>
<desc>lat.=55.959789, lon.=26.554792, Alt.=119.233459m. Speed=0.180000m/h.</desc>
<speed>0.050000</speed>
</trkpt>
<trkpt lat="55.959789" lon="26.554792">
<ele>119.217834</ele>
<time>2010-08-29T08:47:21Z</time>
<desc>lat.=55.959789, lon.=26.554792, Alt.=119.217834m. Speed=0.144000m/h.</desc>
<speed>0.040000</speed>
</trkpt>
<trkpt lat="55.959789" lon="26.554790">
<ele>119.211975</ele>
<time>2010-08-29T08:47:22Z</time>
<desc>lat.=55.959789, lon.=26.554790, Alt.=119.211975m. Speed=0.072000m/h.</desc>
<speed>0.020000</speed>
</trkpt>
<trkpt lat="55.959789" lon="26.554790">
<ele>119.211975</ele>
<time>2010-08-29T08:47:23Z</time>
<desc>lat.=55.959789, lon.=26.554790, Alt.=119.211975m. Speed=0.252000m/h.</desc>
<speed>0.070000</speed>
</trkpt>
<trkpt lat="55.959789" lon="26.554790">
<ele>119.210022</ele>
<time>2010-08-29T08:47:24Z</time>
<desc>lat.=55.959789, lon.=26.554790, Alt.=119.210022m. Speed=0.216000m/h.</desc>
<speed>0.060000</speed>
</trkpt>
<trkpt lat="55.959789" lon="26.554790">
<ele>119.215881</ele>
<time>2010-08-29T08:47:25Z</time>
<desc>lat.=55.959789, lon.=26.554790, Alt.=119.215881m. Speed=0.180000m/h.</desc>
<speed>0.050000</speed>
</trkpt>
<trkpt lat="55.959789" lon="26.554790">
<ele>119.219788</ele>
<time>2010-08-29T08:47:26Z</time>
<desc>lat.=55.959789, lon.=26.554790, Alt.=119.219788m. Speed=0.216000m/h.</desc>
<speed>0.060000</speed>
</trkpt>
<trkpt lat="55.959789" lon="26.554790">
<ele>119.227600</ele>
<time>2010-08-29T08:47:27Z</time>
<desc>lat.=55.959789, lon.=26.554790, Alt.=119.227600m. Speed=0.216000m/h.</desc>
<speed>0.060000</speed>
</trkpt>
<trkpt lat="55.959789" lon="26.554790">
<ele>119.231506</ele>
<time>2010-08-29T08:47:28Z</time>
<desc>lat.=55.959789, lon.=26.554790, Alt.=119.231506m. Speed=1.368000m/h.</desc>
<speed>0.380000</speed>
</trkpt>
<trkpt lat="55.959785" lon="26.554789">
<ele>119.254944</ele>
<time>2010-08-29T08:47:29Z</time>
<desc>lat.=55.959785, lon.=26.554789, Alt.=119.254944m. Speed=1.512000m/h.</desc>
<speed>0.420000</speed>
</trkpt>
<trkpt lat="55.959782" lon="26.554789">
<ele>119.280334</ele>
<time>2010-08-29T08:47:30Z</time>
<desc>lat.=55.959782, lon.=26.554789, Alt.=119.280334m. Speed=1.296000m/h.</desc>
<speed>0.360000</speed>
</trkpt>
<trkpt lat="55.959782" lon="26.554790">
<ele>119.321350</ele>
<time>2010-08-29T08:47:31Z</time>
<desc>lat.=55.959782, lon.=26.554790, Alt.=119.321350m. Speed=0.972000m/h.</desc>
<speed>0.270000</speed>
</trkpt>
<trkpt lat="55.959778" lon="26.554792">
<ele>119.370178</ele>
<time>2010-08-29T08:47:32Z</time>
<desc>lat.=55.959778, lon.=26.554792, Alt.=119.370178m. Speed=1.368000m/h.</desc>
<speed>0.380000</speed>
</trkpt>
<trkpt lat="55.959778" lon="26.554787">
<ele>119.413147</ele>
<time>2010-08-29T08:47:33Z</time>
<desc>lat.=55.959778, lon.=26.554787, Alt.=119.413147m. Speed=0.468000m/h.</desc>
<speed>0.130000</speed>
</trkpt>
<trkpt lat="55.959778" lon="26.554787">
<ele>119.460022</ele>
<time>2010-08-29T08:47:34Z</time>
<desc>lat.=55.959778, lon.=26.554787, Alt.=119.460022m. Speed=0.612000m/h.</desc>
<speed>0.170000</speed>
</trkpt>
<trkpt lat="55.959778" lon="26.554785">
<ele>119.520569</ele>
<time>2010-08-29T08:47:35Z</time>
<desc>lat.=55.959778, lon.=26.554785, Alt.=119.520569m. Speed=1.008000m/h.</desc>
<speed>0.280000</speed>
</trkpt>
<trkpt lat="55.959782" lon="26.554789">
<ele>119.585022</ele>
<time>2010-08-29T08:47:36Z</time>
<desc>lat.=55.959782, lon.=26.554789, Alt.=119.585022m. Speed=1.764000m/h.</desc>
<speed>0.490000</speed>
</trkpt>
<trkpt lat="55.959785" lon="26.554792">
<ele>119.637756</ele>
<time>2010-08-29T08:47:37Z</time>
<desc>lat.=55.959785, lon.=26.554792, Alt.=119.637756m. Speed=0.720000m/h.</desc>
<speed>0.200000</speed>
</trkpt>
<trkpt lat="55.959789" lon="26.554792">
<ele>119.696350</ele>
<time>2010-08-29T08:47:38Z</time>
<desc>lat.=55.959789, lon.=26.554792, Alt.=119.696350m. Speed=1.152000m/h.</desc>
<speed>0.320000</speed>
</trkpt>
<trkpt lat="55.959789" lon="26.554796">
<ele>119.758850</ele>
<time>2010-08-29T08:47:39Z</time>
<desc>lat.=55.959789, lon.=26.554796, Alt.=119.758850m. Speed=1.008000m/h.</desc>
<speed>0.280000</speed>
</trkpt>
<trkpt lat="55.959793" lon="26.554798">
<ele>119.827209</ele>
<time>2010-08-29T08:47:40Z</time>
<desc>lat.=55.959793, lon.=26.554798, Alt.=119.827209m. Speed=0.900000m/h.</desc>
<speed>0.250000</speed>
</trkpt>
<trkpt lat="55.959793" lon="26.554794">
<ele>119.883850</ele>
<time>2010-08-29T08:47:41Z</time>
<desc>lat.=55.959793, lon.=26.554794, Alt.=119.883850m. Speed=1.116000m/h.</desc>
<speed>0.310000</speed>
</trkpt>
<trkpt lat="55.959797" lon="26.554790">
<ele>119.938538</ele>
<time>2010-08-29T08:47:42Z</time>
<desc>lat.=55.959797, lon.=26.554790, Alt.=119.938538m. Speed=1.404000m/h.</desc>
<speed>0.390000</speed>
</trkpt>
<trkpt lat="55.959797" lon="26.554785">
<ele>120.006897</ele>
<time>2010-08-29T08:47:43Z</time>
<desc>lat.=55.959797, lon.=26.554785, Alt.=120.006897m. Speed=1.872000m/h.</desc>
<speed>0.520000</speed>
</trkpt>
<trkpt lat="55.959801" lon="26.554777">
<ele>120.075256</ele>
<time>2010-08-29T08:47:44Z</time>
<desc>lat.=55.959801, lon.=26.554777, Alt.=120.075256m. Speed=2.916000m/h.</desc>
<speed>0.810000</speed>
</trkpt>
<trkpt lat="55.959801" lon="26.554764">
<ele>120.147522</ele>
<time>2010-08-29T08:47:45Z</time>
<desc>lat.=55.959801, lon.=26.554764, Alt.=120.147522m. Speed=2.952000m/h.</desc>
<speed>0.820000</speed>
</trkpt>
<trkpt lat="55.959801" lon="26.554750">
<ele>120.227600</ele>
<time>2010-08-29T08:47:46Z</time>
<desc>lat.=55.959801, lon.=26.554750, Alt.=120.227600m. Speed=2.664000m/h.</desc>
<speed>0.740000</speed>
</trkpt>
<trkpt lat="55.959801" lon="26.554739">
<ele>120.305725</ele>
<time>2010-08-29T08:47:47Z</time>
<desc>lat.=55.959801, lon.=26.554739, Alt.=120.305725m. Speed=2.664000m/h.</desc>
<speed>0.740000</speed>
</trkpt>
<trkpt lat="55.959801" lon="26.554728">
<ele>120.383850</ele>
<time>2010-08-29T08:47:48Z</time>
<desc>lat.=55.959801, lon.=26.554728, Alt.=120.383850m. Speed=3.168000m/h.</desc>
<speed>0.880000</speed>
</trkpt>
<trkpt lat="55.959805" lon="26.554712">
<ele>120.463928</ele>
<time>2010-08-29T08:47:49Z</time>
<desc>lat.=55.959805, lon.=26.554712, Alt.=120.463928m. Speed=3.960000m/h.</desc>
<speed>1.100000</speed>
</trkpt>
<trkpt lat="55.959808" lon="26.554680">
<ele>120.614319</ele>
<time>2010-08-29T08:47:50Z</time>
<desc>lat.=55.959808, lon.=26.554680, Alt.=120.614319m. Speed=3.924000m/h.</desc>
<speed>1.090000</speed>
</trkpt>
<trkpt lat="55.959812" lon="26.554649">
<ele>120.776428</ele>
<time>2010-08-29T08:47:51Z</time>
<desc>lat.=55.959812, lon.=26.554649, Alt.=120.776428m. Speed=3.996000m/h.</desc>
<speed>1.110000</speed>
</trkpt>
<trkpt lat="55.959820" lon="26.554605">
<ele>121.165100</ele>
<time>2010-08-29T08:47:52Z</time>
<desc>lat.=55.959820, lon.=26.554605, Alt.=121.165100m. Speed=3.816000m/h.</desc>
<speed>1.060000</speed>
</trkpt>
<trkpt lat="55.959824" lon="26.554585">
<ele>121.233459</ele>
<time>2010-08-29T08:47:53Z</time>
<desc>lat.=55.959824, lon.=26.554585, Alt.=121.233459m. Speed=3.708000m/h.</desc>
<speed>1.030000</speed>
</trkpt>
<trkpt lat="55.959820" lon="26.554567">
<ele>121.272522</ele>
<time>2010-08-29T08:47:54Z</time>
<desc>lat.=55.959820, lon.=26.554567, Alt.=121.272522m. Speed=3.168000m/h.</desc>
<speed>0.880000</speed>
</trkpt>
<trkpt lat="55.959816" lon="26.554533">
<ele>121.309631</ele>
<time>2010-08-29T08:47:55Z</time>
<desc>lat.=55.959816, lon.=26.554533, Alt.=121.309631m. Speed=3.672000m/h.</desc>
<speed>1.020000</speed>
</trkpt>
<trkpt lat="55.959820" lon="26.554501">
<ele>121.450256</ele>
<time>2010-08-29T08:47:56Z</time>
<desc>lat.=55.959820, lon.=26.554501, Alt.=121.450256m. Speed=3.204000m/h.</desc>
<speed>0.890000</speed>
</trkpt>
<trkpt lat="55.959820" lon="26.554461">
<ele>121.637756</ele>
<time>2010-08-29T08:47:57Z</time>
<desc>lat.=55.959820, lon.=26.554461, Alt.=121.637756m. Speed=3.528000m/h.</desc>
<speed>0.980000</speed>
</trkpt>
<trkpt lat="55.959827" lon="26.554424">
<ele>121.899475</ele>
<time>2010-08-29T08:47:58Z</time>
<desc>lat.=55.959827, lon.=26.554424, Alt.=121.899475m. Speed=3.384000m/h.</desc>
<speed>0.940000</speed>
</trkpt>
<trkpt lat="55.959839" lon="26.554405">
<ele>121.934631</ele>
<time>2010-08-29T08:47:59Z</time>
<desc>lat.=55.959839, lon.=26.554405, Alt.=121.934631m. Speed=3.348000m/h.</desc>
<speed>0.930000</speed>
</trkpt>
<trkpt lat="55.959843" lon="26.554384">
<ele>121.997131</ele>
<time>2010-08-29T08:48:00Z</time>
<desc>lat.=55.959843, lon.=26.554384, Alt.=121.997131m. Speed=3.492000m/h.</desc>
<speed>0.970000</speed>
</trkpt>
<trkpt lat="55.959850" lon="26.554359">
<ele>121.979553</ele>
<time>2010-08-29T08:48:01Z</time>
<desc>lat.=55.959850, lon.=26.554359, Alt.=121.979553m. Speed=3.708000m/h.</desc>
<speed>1.030000</speed>
</trkpt>
<trkpt lat="55.959843" lon="26.554331">
<ele>121.895569</ele>
<time>2010-08-29T08:48:02Z</time>
<desc>lat.=55.959843, lon.=26.554331, Alt.=121.895569m. Speed=3.528000m/h.</desc>
<speed>0.980000</speed>
</trkpt>
<trkpt lat="55.959843" lon="26.554291">
<ele>121.905334</ele>
<time>2010-08-29T08:48:03Z</time>
<desc>lat.=55.959843, lon.=26.554291, Alt.=121.905334m. Speed=4.644000m/h.</desc>
<speed>1.290000</speed>
</trkpt>
<trkpt lat="55.959831" lon="26.554226">
<ele>121.905334</ele>
<time>2010-08-29T08:48:04Z</time>
<desc>lat.=55.959831, lon.=26.554226, Alt.=121.905334m. Speed=6.300000m/h.</desc>
<speed>1.750000</speed>
</trkpt>
<trkpt lat="55.959827" lon="26.554193">
<ele>121.913147</ele>
<time>2010-08-29T08:48:05Z</time>
<desc>lat.=55.959827, lon.=26.554193, Alt.=121.913147m. Speed=4.320000m/h.</desc>
<speed>1.200000</speed>
</trkpt>
<trkpt lat="55.959827" lon="26.554155">
<ele>122.153381</ele>
<time>2010-08-29T08:48:06Z</time>
<desc>lat.=55.959827, lon.=26.554155, Alt.=122.153381m. Speed=4.932000m/h.</desc>
<speed>1.370000</speed>
</trkpt>
<trkpt lat="55.959835" lon="26.554100">
<ele>122.395569</ele>
<time>2010-08-29T08:48:07Z</time>
<desc>lat.=55.959835, lon.=26.554100, Alt.=122.395569m. Speed=8.964000m/h.</desc>
<speed>2.490000</speed>
</trkpt>
<trkpt lat="55.959835" lon="26.554041">
<ele>122.465881</ele>
<time>2010-08-29T08:48:08Z</time>
<desc>lat.=55.959835, lon.=26.554041, Alt.=122.465881m. Speed=9.144000m/h.</desc>
<speed>2.540000</speed>
</trkpt>
<trkpt lat="55.959843" lon="26.553986">
<ele>122.838928</ele>
<time>2010-08-29T08:48:09Z</time>
<desc>lat.=55.959843, lon.=26.553986, Alt.=122.838928m. Speed=9.036000m/h.</desc>
<speed>2.510000</speed>
</trkpt>
<trkpt lat="55.959858" lon="26.553919">
<ele>123.096741</ele>
<time>2010-08-29T08:48:10Z</time>
<desc>lat.=55.959858, lon.=26.553919, Alt.=123.096741m. Speed=7.380000m/h.</desc>
<speed>2.050000</speed>
</trkpt>
<trkpt lat="55.959869" lon="26.553864">
<ele>123.448303</ele>
<time>2010-08-29T08:48:11Z</time>
<desc>lat.=55.959869, lon.=26.553864, Alt.=123.448303m. Speed=8.928000m/h.</desc>
<speed>2.480000</speed>
</trkpt>
<trkpt lat="55.959873" lon="26.553806">
<ele>123.794006</ele>
<time>2010-08-29T08:48:12Z</time>
<desc>lat.=55.959873, lon.=26.553806, Alt.=123.794006m. Speed=9.612000m/h.</desc>
<speed>2.670000</speed>
</trkpt>
<trkpt lat="55.959885" lon="26.553757">
<ele>124.020569</ele>
<time>2010-08-29T08:48:13Z</time>
<desc>lat.=55.959885, lon.=26.553757, Alt.=124.020569m. Speed=6.624000m/h.</desc>
<speed>1.840000</speed>
</trkpt>
<trkpt lat="55.959892" lon="26.553719">
<ele>124.442444</ele>
<time>2010-08-29T08:48:14Z</time>
<desc>lat.=55.959892, lon.=26.553719, Alt.=124.442444m. Speed=5.184000m/h.</desc>
<speed>1.440000</speed>
</trkpt>
<trkpt lat="55.959896" lon="26.553679">
<ele>124.825256</ele>
<time>2010-08-29T08:48:15Z</time>
<desc>lat.=55.959896, lon.=26.553679, Alt.=124.825256m. Speed=5.616000m/h.</desc>
<speed>1.560000</speed>
</trkpt>
<trkpt lat="55.959908" lon="26.553633">
<ele>125.143616</ele>
<time>2010-08-29T08:48:16Z</time>
<desc>lat.=55.959908, lon.=26.553633, Alt.=125.143616m. Speed=4.716000m/h.</desc>
<speed>1.310000</speed>
</trkpt>
<trkpt lat="55.959908" lon="26.553591">
<ele>125.659241</ele>
<time>2010-08-29T08:48:17Z</time>
<desc>lat.=55.959908, lon.=26.553591, Alt.=125.659241m. Speed=5.544000m/h.</desc>
<speed>1.540000</speed>
</trkpt>
<trkpt lat="55.959908" lon="26.553543">
<ele>126.260803</ele>
<time>2010-08-29T08:48:18Z</time>
<desc>lat.=55.959908, lon.=26.553543, Alt.=126.260803m. Speed=5.760000m/h.</desc>
<speed>1.600000</speed>
</trkpt>
<trkpt lat="55.959908" lon="26.553495">
<ele>126.579163</ele>
<time>2010-08-29T08:48:19Z</time>
<desc>lat.=55.959908, lon.=26.553495, Alt.=126.579163m. Speed=5.040000m/h.</desc>
<speed>1.400000</speed>
</trkpt>
<trkpt lat="55.959908" lon="26.553457">
<ele>126.963928</ele>
<time>2010-08-29T08:48:20Z</time>
<desc>lat.=55.959908, lon.=26.553457, Alt.=126.963928m. Speed=3.348000m/h.</desc>
<speed>0.930000</speed>
</trkpt>
<trkpt lat="55.959904" lon="26.553408">
<ele>127.534241</ele>
<time>2010-08-29T08:48:21Z</time>
<desc>lat.=55.959904, lon.=26.553408, Alt.=127.534241m. Speed=5.688000m/h.</desc>
<speed>1.580000</speed>
</trkpt>
<trkpt lat="55.959908" lon="26.553352">
<ele>128.197388</ele>
<time>2010-08-29T08:48:22Z</time>
<desc>lat.=55.959908, lon.=26.553352, Alt.=128.197388m. Speed=8.352000m/h.</desc>
<speed>2.320000</speed>
</trkpt>
<trkpt lat="55.959915" lon="26.553282">
<ele>129.009888</ele>
<time>2010-08-29T08:48:23Z</time>
<desc>lat.=55.959915, lon.=26.553282, Alt.=129.009888m. Speed=8.676000m/h.</desc>
<speed>2.410000</speed>
</trkpt>
<trkpt lat="55.959919" lon="26.553221">
<ele>129.416138</ele>
<time>2010-08-29T08:48:24Z</time>
<desc>lat.=55.959919, lon.=26.553221, Alt.=129.416138m. Speed=5.796000m/h.</desc>
<speed>1.610000</speed>
</trkpt>
<trkpt lat="55.959927" lon="26.553143">
<ele>130.064575</ele>
<time>2010-08-29T08:48:25Z</time>
<desc>lat.=55.959927, lon.=26.553143, Alt.=130.064575m. Speed=7.488000m/h.</desc>
<speed>2.080000</speed>
</trkpt>
<trkpt lat="55.959942" lon="26.553083">
<ele>130.814575</ele>
<time>2010-08-29T08:48:26Z</time>
<desc>lat.=55.959942, lon.=26.553083, Alt.=130.814575m. Speed=8.208000m/h.</desc>
<speed>2.280000</speed>
</trkpt>
<trkpt lat="55.959953" lon="26.553045">
<ele>131.634888</ele>
<time>2010-08-29T08:48:27Z</time>
<desc>lat.=55.959953, lon.=26.553045, Alt.=131.634888m. Speed=5.976000m/h.</desc>
<speed>1.660000</speed>
</trkpt>
<trkpt lat="55.959965" lon="26.553005">
<ele>132.361450</ele>
<time>2010-08-29T08:48:28Z</time>
<desc>lat.=55.959965, lon.=26.553005, Alt.=132.361450m. Speed=7.308000m/h.</desc>
<speed>2.030000</speed>
</trkpt>
<trkpt lat="55.959976" lon="26.552956">
<ele>133.416138</ele>
<time>2010-08-29T08:48:29Z</time>
<desc>lat.=55.959976, lon.=26.552956, Alt.=133.416138m. Speed=8.892000m/h.</desc>
<speed>2.470000</speed>
</trkpt>
<trkpt lat="55.959988" lon="26.552916">
<ele>134.255981</ele>
<time>2010-08-29T08:48:30Z</time>
<desc>lat.=55.959988, lon.=26.552916, Alt.=134.255981m. Speed=5.688000m/h.</desc>
<speed>1.580000</speed>
</trkpt>
<trkpt lat="55.959991" lon="26.552866">
<ele>134.877075</ele>
<time>2010-08-29T08:48:31Z</time>
<desc>lat.=55.959991, lon.=26.552866, Alt.=134.877075m. Speed=6.444000m/h.</desc>
<speed>1.790000</speed>
</trkpt>
<trkpt lat="55.959991" lon="26.552805">
<ele>135.955200</ele>
<time>2010-08-29T08:48:32Z</time>
<desc>lat.=55.959991, lon.=26.552805, Alt.=135.955200m. Speed=7.992000m/h.</desc>
<speed>2.220000</speed>
</trkpt>
<trkpt lat="55.959999" lon="26.552750">
<ele>136.681763</ele>
<time>2010-08-29T08:48:33Z</time>
<desc>lat.=55.959999, lon.=26.552750, Alt.=136.681763m. Speed=8.784000m/h.</desc>
<speed>2.440000</speed>
</trkpt>
<trkpt lat="55.960003" lon="26.552673">
<ele>137.295044</ele>
<time>2010-08-29T08:48:34Z</time>
<desc>lat.=55.960003, lon.=26.552673, Alt.=137.295044m. Speed=7.596000m/h.</desc>
<speed>2.110000</speed>
</trkpt>
<trkpt lat="55.960014" lon="26.552618">
<ele>138.048950</ele>
<time>2010-08-29T08:48:35Z</time>
<desc>lat.=55.960014, lon.=26.552618, Alt.=138.048950m. Speed=5.832000m/h.</desc>
<speed>1.620000</speed>
</trkpt>
<trkpt lat="55.960026" lon="26.552578">
<ele>138.724731</ele>
<time>2010-08-29T08:48:36Z</time>
<desc>lat.=55.960026, lon.=26.552578, Alt.=138.724731m. Speed=5.832000m/h.</desc>
<speed>1.620000</speed>
</trkpt>
<trkpt lat="55.960045" lon="26.552540">
<ele>139.412231</ele>
<time>2010-08-29T08:48:37Z</time>
<desc>lat.=55.960045, lon.=26.552540, Alt.=139.412231m. Speed=5.076000m/h.</desc>
<speed>1.410000</speed>
</trkpt>
<trkpt lat="55.960064" lon="26.552502">
<ele>139.982544</ele>
<time>2010-08-29T08:48:38Z</time>
<desc>lat.=55.960064, lon.=26.552502, Alt.=139.982544m. Speed=4.932000m/h.</desc>
<speed>1.370000</speed>
</trkpt>
<trkpt lat="55.960075" lon="26.552469">
<ele>140.670044</ele>
<time>2010-08-29T08:48:39Z</time>
<desc>lat.=55.960075, lon.=26.552469, Alt.=140.670044m. Speed=4.860000m/h.</desc>
<speed>1.350000</speed>
</trkpt>
<trkpt lat="55.960094" lon="26.552437">
<ele>141.427856</ele>
<time>2010-08-29T08:48:40Z</time>
<desc>lat.=55.960094, lon.=26.552437, Alt.=141.427856m. Speed=4.536000m/h.</desc>
<speed>1.260000</speed>
</trkpt>
<trkpt lat="55.960102" lon="26.552385">
<ele>141.943481</ele>
<time>2010-08-29T08:48:41Z</time>
<desc>lat.=55.960102, lon.=26.552385, Alt.=141.943481m. Speed=6.660000m/h.</desc>
<speed>1.850000</speed>
</trkpt>
<trkpt lat="55.960110" lon="26.552340">
<ele>142.369263</ele>
<time>2010-08-29T08:48:42Z</time>
<desc>lat.=55.960110, lon.=26.552340, Alt.=142.369263m. Speed=5.184000m/h.</desc>
<speed>1.440000</speed>
</trkpt>
<trkpt lat="55.960117" lon="26.552311">
<ele>142.888794</ele>
<time>2010-08-29T08:48:43Z</time>
<desc>lat.=55.960117, lon.=26.552311, Alt.=142.888794m. Speed=4.320000m/h.</desc>
<speed>1.200000</speed>
</trkpt>
<trkpt lat="55.960129" lon="26.552275">
<ele>143.423950</ele>
<time>2010-08-29T08:48:44Z</time>
<desc>lat.=55.960129, lon.=26.552275, Alt.=143.423950m. Speed=5.076000m/h.</desc>
<speed>1.410000</speed>
</trkpt>
<trkpt lat="55.960136" lon="26.552242">
<ele>144.076294</ele>
<time>2010-08-29T08:48:45Z</time>
<desc>lat.=55.960136, lon.=26.552242, Alt.=144.076294m. Speed=4.428000m/h.</desc>
<speed>1.230000</speed>
</trkpt>
<trkpt lat="55.960148" lon="26.552204">
<ele>144.556763</ele>
<time>2010-08-29T08:48:46Z</time>
<desc>lat.=55.960148, lon.=26.552204, Alt.=144.556763m. Speed=3.636000m/h.</desc>
<speed>1.010000</speed>
</trkpt>
<trkpt lat="55.960163" lon="26.552177">
<ele>145.287231</ele>
<time>2010-08-29T08:48:47Z</time>
<desc>lat.=55.960163, lon.=26.552177, Alt.=145.287231m. Speed=3.564000m/h.</desc>
<speed>0.990000</speed>
</trkpt>
<trkpt lat="55.960190" lon="26.552139">
<ele>145.615356</ele>
<time>2010-08-29T08:48:48Z</time>
<desc>lat.=55.960190, lon.=26.552139, Alt.=145.615356m. Speed=5.724000m/h.</desc>
<speed>1.590000</speed>
</trkpt>
<trkpt lat="55.960209" lon="26.552095">
<ele>146.181763</ele>
<time>2010-08-29T08:48:49Z</time>
<desc>lat.=55.960209, lon.=26.552095, Alt.=146.181763m. Speed=6.552000m/h.</desc>
<speed>1.820000</speed>
</trkpt>
<trkpt lat="55.960232" lon="26.552061">
<ele>146.791138</ele>
<time>2010-08-29T08:48:50Z</time>
<desc>lat.=55.960232, lon.=26.552061, Alt.=146.791138m. Speed=4.680000m/h.</desc>
<speed>1.300000</speed>
</trkpt>
<trkpt lat="55.960251" lon="26.552032">
<ele>147.236450</ele>
<time>2010-08-29T08:48:51Z</time>
<desc>lat.=55.960251, lon.=26.552032, Alt.=147.236450m. Speed=4.788000m/h.</desc>
<speed>1.330000</speed>
</trkpt>
<trkpt lat="55.960262" lon="26.551996">
<ele>148.091919</ele>
<time>2010-08-29T08:48:52Z</time>
<desc>lat.=55.960262, lon.=26.551996, Alt.=148.091919m. Speed=8.280000m/h.</desc>
<speed>2.300000</speed>
</trkpt>
<trkpt lat="55.960278" lon="26.551954">
<ele>148.783325</ele>
<time>2010-08-29T08:48:53Z</time>
<desc>lat.=55.960278, lon.=26.551954, Alt.=148.783325m. Speed=5.508000m/h.</desc>
<speed>1.530000</speed>
</trkpt>
<trkpt lat="55.960285" lon="26.551924">
<ele>149.580200</ele>
<time>2010-08-29T08:48:54Z</time>
<desc>lat.=55.960285, lon.=26.551924, Alt.=149.580200m. Speed=5.328000m/h.</desc>
<speed>1.480000</speed>
</trkpt>
<trkpt lat="55.960300" lon="26.551891">
<ele>150.189575</ele>
<time>2010-08-29T08:48:55Z</time>
<desc>lat.=55.960300, lon.=26.551891, Alt.=150.189575m. Speed=5.328000m/h.</desc>
<speed>1.480000</speed>
</trkpt>
<trkpt lat="55.960304" lon="26.551847">
<ele>150.779419</ele>
<time>2010-08-29T08:48:56Z</time>
<desc>lat.=55.960304, lon.=26.551847, Alt.=150.779419m. Speed=6.012000m/h.</desc>
<speed>1.670000</speed>
</trkpt>
<trkpt lat="55.960323" lon="26.551779">
<ele>151.834106</ele>
<time>2010-08-29T08:48:57Z</time>
<desc>lat.=55.960323, lon.=26.551779, Alt.=151.834106m. Speed=7.992000m/h.</desc>
<speed>2.220000</speed>
</trkpt>
<trkpt lat="55.960335" lon="26.551723">
<ele>152.607544</ele>
<time>2010-08-29T08:48:58Z</time>
<desc>lat.=55.960335, lon.=26.551723, Alt.=152.607544m. Speed=9.612000m/h.</desc>
<speed>2.670000</speed>
</trkpt>
<trkpt lat="55.960335" lon="26.551676">
<ele>153.369263</ele>
<time>2010-08-29T08:48:59Z</time>
<desc>lat.=55.960335, lon.=26.551676, Alt.=153.369263m. Speed=5.112000m/h.</desc>
<speed>1.420000</speed>
</trkpt>
<trkpt lat="55.960346" lon="26.551641">
<ele>153.978638</ele>
<time>2010-08-29T08:49:00Z</time>
<desc>lat.=55.960346, lon.=26.551641, Alt.=153.978638m. Speed=4.824000m/h.</desc>
<speed>1.340000</speed>
</trkpt>
<trkpt lat="55.960354" lon="26.551584">
<ele>154.205200</ele>
<time>2010-08-29T08:49:01Z</time>
<desc>lat.=55.960354, lon.=26.551584, Alt.=154.205200m. Speed=6.336000m/h.</desc>
<speed>1.760000</speed>
</trkpt>
<trkpt lat="55.960365" lon="26.551540">
<ele>154.787231</ele>
<time>2010-08-29T08:49:02Z</time>
<desc>lat.=55.960365, lon.=26.551540, Alt.=154.787231m. Speed=5.832000m/h.</desc>
<speed>1.620000</speed>
</trkpt>
<trkpt lat="55.960381" lon="26.551493">
<ele>155.045044</ele>
<time>2010-08-29T08:49:03Z</time>
<desc>lat.=55.960381, lon.=26.551493, Alt.=155.045044m. Speed=5.976000m/h.</desc>
<speed>1.660000</speed>
</trkpt>
<trkpt lat="55.960407" lon="26.551437">
<ele>155.783325</ele>
<time>2010-08-29T08:49:04Z</time>
<desc>lat.=55.960407, lon.=26.551437, Alt.=155.783325m. Speed=8.352000m/h.</desc>
<speed>2.320000</speed>
</trkpt>
<trkpt lat="55.960426" lon="26.551376">
<ele>156.576294</ele>
<time>2010-08-29T08:49:05Z</time>
<desc>lat.=55.960426, lon.=26.551376, Alt.=156.576294m. Speed=9.324000m/h.</desc>
<speed>2.590000</speed>
</trkpt>
<trkpt lat="55.960445" lon="26.551315">
<ele>156.951294</ele>
<time>2010-08-29T08:49:06Z</time>
<desc>lat.=55.960445, lon.=26.551315, Alt.=156.951294m. Speed=9.108000m/h.</desc>
<speed>2.530000</speed>
</trkpt>
<trkpt lat="55.960461" lon="26.551271">
<ele>157.537231</ele>
<time>2010-08-29T08:49:07Z</time>
<desc>lat.=55.960461, lon.=26.551271, Alt.=157.537231m. Speed=6.048000m/h.</desc>
<speed>1.680000</speed>
</trkpt>
<trkpt lat="55.960472" lon="26.551218">
<ele>158.103638</ele>
<time>2010-08-29T08:49:08Z</time>
<desc>lat.=55.960472, lon.=26.551218, Alt.=158.103638m. Speed=6.624000m/h.</desc>
<speed>1.840000</speed>
</trkpt>
<trkpt lat="55.960484" lon="26.551178">
<ele>158.912231</ele>
<time>2010-08-29T08:49:09Z</time>
<desc>lat.=55.960484, lon.=26.551178, Alt.=158.912231m. Speed=2.736000m/h.</desc>
<speed>0.760000</speed>
</trkpt>
<trkpt lat="55.960495" lon="26.551151">
<ele>159.459106</ele>
<time>2010-08-29T08:49:10Z</time>
<desc>lat.=55.960495, lon.=26.551151, Alt.=159.459106m. Speed=3.312000m/h.</desc>
<speed>0.920000</speed>
</trkpt>
<trkpt lat="55.960499" lon="26.551113">
<ele>159.724731</ele>
<time>2010-08-29T08:49:11Z</time>
<desc>lat.=55.960499, lon.=26.551113, Alt.=159.724731m. Speed=4.104000m/h.</desc>
<speed>1.140000</speed>
</trkpt>
<trkpt lat="55.960510" lon="26.551077">
<ele>160.146606</ele>
<time>2010-08-29T08:49:12Z</time>
<desc>lat.=55.960510, lon.=26.551077, Alt.=160.146606m. Speed=4.968000m/h.</desc>
<speed>1.380000</speed>
</trkpt>
<trkpt lat="55.960510" lon="26.551039">
<ele>160.537231</ele>
<time>2010-08-29T08:49:13Z</time>
<desc>lat.=55.960510, lon.=26.551039, Alt.=160.537231m. Speed=4.140000m/h.</desc>
<speed>1.150000</speed>
</trkpt>
<trkpt lat="55.960518" lon="26.551003">
<ele>160.775513</ele>
<time>2010-08-29T08:49:14Z</time>
<desc>lat.=55.960518, lon.=26.551003, Alt.=160.775513m. Speed=4.680000m/h.</desc>
<speed>1.300000</speed>
</trkpt>
<trkpt lat="55.960537" lon="26.550961">
<ele>160.771606</ele>
<time>2010-08-29T08:49:15Z</time>
<desc>lat.=55.960537, lon.=26.550961, Alt.=160.771606m. Speed=4.788000m/h.</desc>
<speed>1.330000</speed>
</trkpt>
<trkpt lat="55.960545" lon="26.550922">
<ele>161.029419</ele>
<time>2010-08-29T08:49:16Z</time>
<desc>lat.=55.960545, lon.=26.550922, Alt.=161.029419m. Speed=6.336000m/h.</desc>
<speed>1.760000</speed>
</trkpt>
<trkpt lat="55.960552" lon="26.550879">
<ele>161.400513</ele>
<time>2010-08-29T08:49:17Z</time>
<desc>lat.=55.960552, lon.=26.550879, Alt.=161.400513m. Speed=5.832000m/h.</desc>
<speed>1.620000</speed>
</trkpt>
<trkpt lat="55.960560" lon="26.550840">
<ele>161.888794</ele>
<time>2010-08-29T08:49:18Z</time>
<desc>lat.=55.960560, lon.=26.550840, Alt.=161.888794m. Speed=6.012000m/h.</desc>
<speed>1.670000</speed>
</trkpt>
<trkpt lat="55.960579" lon="26.550793">
<ele>162.173950</ele>
<time>2010-08-29T08:49:19Z</time>
<desc>lat.=55.960579, lon.=26.550793, Alt.=162.173950m. Speed=7.848000m/h.</desc>
<speed>2.180000</speed>
</trkpt>
<trkpt lat="55.960587" lon="26.550739">
<ele>162.392700</ele>
<time>2010-08-29T08:49:20Z</time>
<desc>lat.=55.960587, lon.=26.550739, Alt.=162.392700m. Speed=8.496000m/h.</desc>
<speed>2.360000</speed>
</trkpt>
<trkpt lat="55.960602" lon="26.550699">
<ele>162.857544</ele>
<time>2010-08-29T08:49:21Z</time>
<desc>lat.=55.960602, lon.=26.550699, Alt.=162.857544m. Speed=5.436000m/h.</desc>
<speed>1.510000</speed>
</trkpt>
<trkpt lat="55.960621" lon="26.550653">
<ele>163.408325</ele>
<time>2010-08-29T08:49:22Z</time>
<desc>lat.=55.960621, lon.=26.550653, Alt.=163.408325m. Speed=7.272000m/h.</desc>
<speed>2.020000</speed>
</trkpt>
<trkpt lat="55.960644" lon="26.550602">
<ele>163.798950</ele>
<time>2010-08-29T08:49:23Z</time>
<desc>lat.=55.960644, lon.=26.550602, Alt.=163.798950m. Speed=6.336000m/h.</desc>
<speed>1.760000</speed>
</trkpt>
<trkpt lat="55.960697" lon="26.550497">
<ele>165.931763</ele>
<time>2010-08-29T08:49:24Z</time>
<desc>lat.=55.960697, lon.=26.550497, Alt.=165.931763m. Speed=9.000000m/h.</desc>
<speed>2.500000</speed>
</trkpt>
<trkpt lat="55.960724" lon="26.550423">
<ele>166.908325</ele>
<time>2010-08-29T08:49:25Z</time>
<desc>lat.=55.960724, lon.=26.550423, Alt.=166.908325m. Speed=7.668000m/h.</desc>
<speed>2.130000</speed>
</trkpt>
<trkpt lat="55.960735" lon="26.550371">
<ele>167.060669</ele>
<time>2010-08-29T08:49:26Z</time>
<desc>lat.=55.960735, lon.=26.550371, Alt.=167.060669m. Speed=6.264000m/h.</desc>
<speed>1.740000</speed>
</trkpt>
<trkpt lat="55.960743" lon="26.550335">
<ele>167.420044</ele>
<time>2010-08-29T08:49:27Z</time>
<desc>lat.=55.960743, lon.=26.550335, Alt.=167.420044m. Speed=5.076000m/h.</desc>
<speed>1.410000</speed>
</trkpt>
<trkpt lat="55.960754" lon="26.550297">
<ele>167.970825</ele>
<time>2010-08-29T08:49:28Z</time>
<desc>lat.=55.960754, lon.=26.550297, Alt.=167.970825m. Speed=6.264000m/h.</desc>
<speed>1.740000</speed>
</trkpt>
<trkpt lat="55.960758" lon="26.550266">
<ele>168.041138</ele>
<time>2010-08-29T08:49:29Z</time>
<desc>lat.=55.960758, lon.=26.550266, Alt.=168.041138m. Speed=4.212000m/h.</desc>
<speed>1.170000</speed>
</trkpt>
<trkpt lat="55.960762" lon="26.550238">
<ele>168.330200</ele>
<time>2010-08-29T08:49:30Z</time>
<desc>lat.=55.960762, lon.=26.550238, Alt.=168.330200m. Speed=2.880000m/h.</desc>
<speed>0.800000</speed>
</trkpt>
<trkpt lat="55.960766" lon="26.550203">
<ele>168.670044</ele>
<time>2010-08-29T08:49:31Z</time>
<desc>lat.=55.960766, lon.=26.550203, Alt.=168.670044m. Speed=4.968000m/h.</desc>
<speed>1.380000</speed>
</trkpt>
<trkpt lat="55.960766" lon="26.550152">
<ele>168.701294</ele>
<time>2010-08-29T08:49:32Z</time>
<desc>lat.=55.960766, lon.=26.550152, Alt.=168.701294m. Speed=5.580000m/h.</desc>
<speed>1.550000</speed>
</trkpt>
<trkpt lat="55.960785" lon="26.550100">
<ele>168.349731</ele>
<time>2010-08-29T08:49:33Z</time>
<desc>lat.=55.960785, lon.=26.550100, Alt.=168.349731m. Speed=5.508000m/h.</desc>
<speed>1.530000</speed>
</trkpt>
<trkpt lat="55.960785" lon="26.550041">
<ele>168.580200</ele>
<time>2010-08-29T08:49:34Z</time>
<desc>lat.=55.960785, lon.=26.550041, Alt.=168.580200m. Speed=4.932000m/h.</desc>
<speed>1.370000</speed>
</trkpt>
<trkpt lat="55.960793" lon="26.549988">
<ele>168.529419</ele>
<time>2010-08-29T08:49:35Z</time>
<desc>lat.=55.960793, lon.=26.549988, Alt.=168.529419m. Speed=5.580000m/h.</desc>
<speed>1.550000</speed>
</trkpt>
<trkpt lat="55.960796" lon="26.549932">
<ele>168.560669</ele>
<time>2010-08-29T08:49:36Z</time>
<desc>lat.=55.960796, lon.=26.549932, Alt.=168.560669m. Speed=5.508000m/h.</desc>
<speed>1.530000</speed>
</trkpt>
<trkpt lat="55.960812" lon="26.549871">
<ele>169.076294</ele>
<time>2010-08-29T08:49:37Z</time>
<desc>lat.=55.960812, lon.=26.549871, Alt.=169.076294m. Speed=8.172000m/h.</desc>
<speed>2.270000</speed>
</trkpt>
<trkpt lat="55.960819" lon="26.549831">
<ele>169.244263</ele>
<time>2010-08-29T08:49:38Z</time>
<desc>lat.=55.960819, lon.=26.549831, Alt.=169.244263m. Speed=5.004000m/h.</desc>
<speed>1.390000</speed>
</trkpt>
<trkpt lat="55.960827" lon="26.549776">
<ele>169.213013</ele>
<time>2010-08-29T08:49:39Z</time>
<desc>lat.=55.960827, lon.=26.549776, Alt.=169.213013m. Speed=6.588000m/h.</desc>
<speed>1.830000</speed>
</trkpt>
<trkpt lat="55.960835" lon="26.549730">
<ele>169.380981</ele>
<time>2010-08-29T08:49:40Z</time>
<desc>lat.=55.960835, lon.=26.549730, Alt.=169.380981m. Speed=5.364000m/h.</desc>
<speed>1.490000</speed>
</trkpt>
<trkpt lat="55.960838" lon="26.549677">
<ele>169.240356</ele>
<time>2010-08-29T08:49:41Z</time>
<desc>lat.=55.960838, lon.=26.549677, Alt.=169.240356m. Speed=6.444000m/h.</desc>
<speed>1.790000</speed>
</trkpt>
<trkpt lat="55.960846" lon="26.549633">
<ele>169.330200</ele>
<time>2010-08-29T08:49:42Z</time>
<desc>lat.=55.960846, lon.=26.549633, Alt.=169.330200m. Speed=5.004000m/h.</desc>
<speed>1.390000</speed>
</trkpt>
<trkpt lat="55.960842" lon="26.549578">
<ele>168.912231</ele>
<time>2010-08-29T08:49:43Z</time>
<desc>lat.=55.960842, lon.=26.549578, Alt.=168.912231m. Speed=4.824000m/h.</desc>
<speed>1.340000</speed>
</trkpt>
<trkpt lat="55.960846" lon="26.549538">
<ele>166.201294</ele>
<time>2010-08-29T08:49:44Z</time>
<desc>lat.=55.960846, lon.=26.549538, Alt.=166.201294m. Speed=3.600000m/h.</desc>
<speed>1.000000</speed>
</trkpt>
<trkpt lat="55.960846" lon="26.549509">
<ele>166.877075</ele>
<time>2010-08-29T08:49:45Z</time>
<desc>lat.=55.960846, lon.=26.549509, Alt.=166.877075m. Speed=4.464000m/h.</desc>
<speed>1.240000</speed>
</trkpt>
<trkpt lat="55.960842" lon="26.549473">
<ele>166.966919</ele>
<time>2010-08-29T08:49:46Z</time>
<desc>lat.=55.960842, lon.=26.549473, Alt.=166.966919m. Speed=3.168000m/h.</desc>
<speed>0.880000</speed>
</trkpt>
<trkpt lat="55.960846" lon="26.549440">
<ele>167.115356</ele>
<time>2010-08-29T08:49:47Z</time>
<desc>lat.=55.960846, lon.=26.549440, Alt.=167.115356m. Speed=2.412000m/h.</desc>
<speed>0.670000</speed>
</trkpt>
<trkpt lat="55.960842" lon="26.549410">
<ele>167.201294</ele>
<time>2010-08-29T08:49:48Z</time>
<desc>lat.=55.960842, lon.=26.549410, Alt.=167.201294m. Speed=2.412000m/h.</desc>
<speed>0.670000</speed>
</trkpt>
<trkpt lat="55.960838" lon="26.549372">
<ele>166.091919</ele>
<time>2010-08-29T08:49:49Z</time>
<desc>lat.=55.960838, lon.=26.549372, Alt.=166.091919m. Speed=2.232000m/h.</desc>
<speed>0.620000</speed>
</trkpt>
<trkpt lat="55.960831" lon="26.549292">
<ele>164.459106</ele>
<time>2010-08-29T08:49:50Z</time>
<desc>lat.=55.960831, lon.=26.549292, Alt.=164.459106m. Speed=3.024000m/h.</desc>
<speed>0.840000</speed>
</trkpt>
<trkpt lat="55.960827" lon="26.549261">
<ele>163.740356</ele>
<time>2010-08-29T08:49:51Z</time>
<desc>lat.=55.960827, lon.=26.549261, Alt.=163.740356m. Speed=2.808000m/h.</desc>
<speed>0.780000</speed>
</trkpt>
<trkpt lat="55.960827" lon="26.549240">
<ele>163.916138</ele>
<time>2010-08-29T08:49:52Z</time>
<desc>lat.=55.960827, lon.=26.549240, Alt.=163.916138m. Speed=2.268000m/h.</desc>
<speed>0.630000</speed>
</trkpt>
<trkpt lat="55.960819" lon="26.549210">
<ele>163.857544</ele>
<time>2010-08-29T08:49:53Z</time>
<desc>lat.=55.960819, lon.=26.549210, Alt.=163.857544m. Speed=2.232000m/h.</desc>
<speed>0.620000</speed>
</trkpt>
<trkpt lat="55.960819" lon="26.549183">
<ele>163.466919</ele>
<time>2010-08-29T08:49:54Z</time>
<desc>lat.=55.960819, lon.=26.549183, Alt.=163.466919m. Speed=2.232000m/h.</desc>
<speed>0.620000</speed>
</trkpt>
<trkpt lat="55.960808" lon="26.549135">
<ele>162.064575</ele>
<time>2010-08-29T08:49:55Z</time>
<desc>lat.=55.960808, lon.=26.549135, Alt.=162.064575m. Speed=3.456000m/h.</desc>
<speed>0.960000</speed>
</trkpt>
<trkpt lat="55.960800" lon="26.549107">
<ele>161.771606</ele>
<time>2010-08-29T08:49:56Z</time>
<desc>lat.=55.960800, lon.=26.549107, Alt.=161.771606m. Speed=3.204000m/h.</desc>
<speed>0.890000</speed>
</trkpt>
<trkpt lat="55.960793" lon="26.549084">
<ele>161.798950</ele>
<time>2010-08-29T08:49:57Z</time>
<desc>lat.=55.960793, lon.=26.549084, Alt.=161.798950m. Speed=2.880000m/h.</desc>
<speed>0.800000</speed>
</trkpt>
<trkpt lat="55.960785" lon="26.549063">
<ele>161.681763</ele>
<time>2010-08-29T08:49:58Z</time>
<desc>lat.=55.960785, lon.=26.549063, Alt.=161.681763m. Speed=2.772000m/h.</desc>
<speed>0.770000</speed>
</trkpt>
<trkpt lat="55.960785" lon="26.549030">
<ele>161.584106</ele>
<time>2010-08-29T08:49:59Z</time>
<desc>lat.=55.960785, lon.=26.549030, Alt.=161.584106m. Speed=2.448000m/h.</desc>
<speed>0.680000</speed>
</trkpt>
<trkpt lat="55.960777" lon="26.549006">
<ele>161.412231</ele>
<time>2010-08-29T08:50:00Z</time>
<desc>lat.=55.960777, lon.=26.549006, Alt.=161.412231m. Speed=3.852000m/h.</desc>
<speed>1.070000</speed>
</trkpt>
<trkpt lat="55.960770" lon="26.548973">
<ele>161.162231</ele>
<time>2010-08-29T08:50:01Z</time>
<desc>lat.=55.960770, lon.=26.548973, Alt.=161.162231m. Speed=3.708000m/h.</desc>
<speed>1.030000</speed>
</trkpt>
<trkpt lat="55.960766" lon="26.548925">
<ele>159.904419</ele>
<time>2010-08-29T08:50:02Z</time>
<desc>lat.=55.960766, lon.=26.548925, Alt.=159.904419m. Speed=3.780000m/h.</desc>
<speed>1.050000</speed>
</trkpt>
<trkpt lat="55.960766" lon="26.548882">
<ele>160.017700</ele>
<time>2010-08-29T08:50:03Z</time>
<desc>lat.=55.960766, lon.=26.548882, Alt.=160.017700m. Speed=4.284000m/h.</desc>
<speed>1.190000</speed>
</trkpt>
<trkpt lat="55.960766" lon="26.548834">
<ele>159.896606</ele>
<time>2010-08-29T08:50:04Z</time>
<desc>lat.=55.960766, lon.=26.548834, Alt.=159.896606m. Speed=5.076000m/h.</desc>
<speed>1.410000</speed>
</trkpt>
<trkpt lat="55.960770" lon="26.548779">
<ele>158.177856</ele>
<time>2010-08-29T08:50:05Z</time>
<desc>lat.=55.960770, lon.=26.548779, Alt.=158.177856m. Speed=4.176000m/h.</desc>
<speed>1.160000</speed>
</trkpt>
<trkpt lat="55.960766" lon="26.548744">
<ele>157.783325</ele>
<time>2010-08-29T08:50:06Z</time>
<desc>lat.=55.960766, lon.=26.548744, Alt.=157.783325m. Speed=4.212000m/h.</desc>
<speed>1.170000</speed>
</trkpt>
<trkpt lat="55.960762" lon="26.548698">
<ele>157.353638</ele>
<time>2010-08-29T08:50:07Z</time>
<desc>lat.=55.960762, lon.=26.548698, Alt.=157.353638m. Speed=7.416000m/h.</desc>
<speed>2.060000</speed>
</trkpt>
<trkpt lat="55.960758" lon="26.548653">
<ele>156.908325</ele>
<time>2010-08-29T08:50:08Z</time>
<desc>lat.=55.960758, lon.=26.548653, Alt.=156.908325m. Speed=6.444000m/h.</desc>
<speed>1.790000</speed>
</trkpt>
<trkpt lat="55.960751" lon="26.548609">
<ele>156.513794</ele>
<time>2010-08-29T08:50:09Z</time>
<desc>lat.=55.960751, lon.=26.548609, Alt.=156.513794m. Speed=4.932000m/h.</desc>
<speed>1.370000</speed>
</trkpt>
<trkpt lat="55.960751" lon="26.548567">
<ele>155.849731</ele>
<time>2010-08-29T08:50:10Z</time>
<desc>lat.=55.960751, lon.=26.548567, Alt.=155.849731m. Speed=4.356000m/h.</desc>
<speed>1.210000</speed>
</trkpt>
<trkpt lat="55.960758" lon="26.548529">
<ele>155.240356</ele>
<time>2010-08-29T08:50:11Z</time>
<desc>lat.=55.960758, lon.=26.548529, Alt.=155.240356m. Speed=4.284000m/h.</desc>
<speed>1.190000</speed>
</trkpt>
<trkpt lat="55.960770" lon="26.548483">
<ele>154.349731</ele>
<time>2010-08-29T08:50:12Z</time>
<desc>lat.=55.960770, lon.=26.548483, Alt.=154.349731m. Speed=5.436000m/h.</desc>
<speed>1.510000</speed>
</trkpt>
<trkpt lat="55.960773" lon="26.548437">
<ele>153.572388</ele>
<time>2010-08-29T08:50:13Z</time>
<desc>lat.=55.960773, lon.=26.548437, Alt.=153.572388m. Speed=5.184000m/h.</desc>
<speed>1.440000</speed>
</trkpt>
<trkpt lat="55.960770" lon="26.548389">
<ele>153.576294</ele>
<time>2010-08-29T08:50:14Z</time>
<desc>lat.=55.960770, lon.=26.548389, Alt.=153.576294m. Speed=4.572000m/h.</desc>
<speed>1.270000</speed>
</trkpt>
<trkpt lat="55.960762" lon="26.548349">
<ele>153.603638</ele>
<time>2010-08-29T08:50:15Z</time>
<desc>lat.=55.960762, lon.=26.548349, Alt.=153.603638m. Speed=3.744000m/h.</desc>
<speed>1.040000</speed>
</trkpt>
<trkpt lat="55.960762" lon="26.548317">
<ele>153.752075</ele>
<time>2010-08-29T08:50:16Z</time>
<desc>lat.=55.960762, lon.=26.548317, Alt.=153.752075m. Speed=4.212000m/h.</desc>
<speed>1.170000</speed>
</trkpt>
<trkpt lat="55.960758" lon="26.548286">
<ele>153.834106</ele>
<time>2010-08-29T08:50:17Z</time>
<desc>lat.=55.960758, lon.=26.548286, Alt.=153.834106m. Speed=4.176000m/h.</desc>
<speed>1.160000</speed>
</trkpt>
<trkpt lat="55.960751" lon="26.548256">
<ele>153.713013</ele>
<time>2010-08-29T08:50:18Z</time>
<desc>lat.=55.960751, lon.=26.548256, Alt.=153.713013m. Speed=3.924000m/h.</desc>
<speed>1.090000</speed>
</trkpt>
<trkpt lat="55.960739" lon="26.548208">
<ele>153.673950</ele>
<time>2010-08-29T08:50:19Z</time>
<desc>lat.=55.960739, lon.=26.548208, Alt.=153.673950m. Speed=3.492000m/h.</desc>
<speed>0.970000</speed>
</trkpt>
<trkpt lat="55.960732" lon="26.548164">
<ele>153.580200</ele>
<time>2010-08-29T08:50:20Z</time>
<desc>lat.=55.960732, lon.=26.548164, Alt.=153.580200m. Speed=6.516000m/h.</desc>
<speed>1.810000</speed>
</trkpt>
<trkpt lat="55.960724" lon="26.548109">
<ele>153.595825</ele>
<time>2010-08-29T08:50:21Z</time>
<desc>lat.=55.960724, lon.=26.548109, Alt.=153.595825m. Speed=6.156000m/h.</desc>
<speed>1.710000</speed>
</trkpt>
<trkpt lat="55.960728" lon="26.548061">
<ele>153.599731</ele>
<time>2010-08-29T08:50:22Z</time>
<desc>lat.=55.960728, lon.=26.548061, Alt.=153.599731m. Speed=4.320000m/h.</desc>
<speed>1.200000</speed>
</trkpt>
<trkpt lat="55.960732" lon="26.548014">
<ele>153.505981</ele>
<time>2010-08-29T08:50:23Z</time>
<desc>lat.=55.960732, lon.=26.548014, Alt.=153.505981m. Speed=4.032000m/h.</desc>
<speed>1.120000</speed>
</trkpt>
<trkpt lat="55.960728" lon="26.547979">
<ele>153.838013</ele>
<time>2010-08-29T08:50:24Z</time>
<desc>lat.=55.960728, lon.=26.547979, Alt.=153.838013m. Speed=4.104000m/h.</desc>
<speed>1.140000</speed>
</trkpt>
<trkpt lat="55.960728" lon="26.547947">
<ele>154.025513</ele>
<time>2010-08-29T08:50:25Z</time>
<desc>lat.=55.960728, lon.=26.547947, Alt.=154.025513m. Speed=4.248000m/h.</desc>
<speed>1.180000</speed>
</trkpt>
<trkpt lat="55.960735" lon="26.547907">
<ele>154.099731</ele>
<time>2010-08-29T08:50:26Z</time>
<desc>lat.=55.960735, lon.=26.547907, Alt.=154.099731m. Speed=5.040000m/h.</desc>
<speed>1.400000</speed>
</trkpt>
<trkpt lat="55.960735" lon="26.547874">
<ele>154.068481</ele>
<time>2010-08-29T08:50:27Z</time>
<desc>lat.=55.960735, lon.=26.547874, Alt.=154.068481m. Speed=3.564000m/h.</desc>
<speed>0.990000</speed>
</trkpt>
<trkpt lat="55.960735" lon="26.547834">
<ele>153.611450</ele>
<time>2010-08-29T08:50:28Z</time>
<desc>lat.=55.960735, lon.=26.547834, Alt.=153.611450m. Speed=3.312000m/h.</desc>
<speed>0.920000</speed>
</trkpt>
<trkpt lat="55.960732" lon="26.547802">
<ele>154.138794</ele>
<time>2010-08-29T08:50:29Z</time>
<desc>lat.=55.960732, lon.=26.547802, Alt.=154.138794m. Speed=3.708000m/h.</desc>
<speed>1.030000</speed>
</trkpt>
<trkpt lat="55.960720" lon="26.547756">
<ele>154.369263</ele>
<time>2010-08-29T08:50:30Z</time>
<desc>lat.=55.960720, lon.=26.547756, Alt.=154.369263m. Speed=3.600000m/h.</desc>
<speed>1.000000</speed>
</trkpt>
<trkpt lat="55.960720" lon="26.547722">
<ele>153.998169</ele>
<time>2010-08-29T08:50:31Z</time>
<desc>lat.=55.960720, lon.=26.547722, Alt.=153.998169m. Speed=2.412000m/h.</desc>
<speed>0.670000</speed>
</trkpt>
<trkpt lat="55.960724" lon="26.547689">
<ele>153.322388</ele>
<time>2010-08-29T08:50:32Z</time>
<desc>lat.=55.960724, lon.=26.547689, Alt.=153.322388m. Speed=4.500000m/h.</desc>
<speed>1.250000</speed>
</trkpt>
<trkpt lat="55.960728" lon="26.547649">
<ele>152.970825</ele>
<time>2010-08-29T08:50:33Z</time>
<desc>lat.=55.960728, lon.=26.547649, Alt.=152.970825m. Speed=4.176000m/h.</desc>
<speed>1.160000</speed>
</trkpt>
<trkpt lat="55.960732" lon="26.547598">
<ele>151.334106</ele>
<time>2010-08-29T08:50:34Z</time>
<desc>lat.=55.960732, lon.=26.547598, Alt.=151.334106m. Speed=4.644000m/h.</desc>
<speed>1.290000</speed>
</trkpt>
<trkpt lat="55.960735" lon="26.547560">
<ele>150.998169</ele>
<time>2010-08-29T08:50:35Z</time>
<desc>lat.=55.960735, lon.=26.547560, Alt.=150.998169m. Speed=6.120000m/h.</desc>
<speed>1.700000</speed>
</trkpt>
<trkpt lat="55.960735" lon="26.547527">
<ele>149.697388</ele>
<time>2010-08-29T08:50:36Z</time>
<desc>lat.=55.960735, lon.=26.547527, Alt.=149.697388m. Speed=3.816000m/h.</desc>
<speed>1.060000</speed>
</trkpt>
<trkpt lat="55.960728" lon="26.547464">
<ele>149.158325</ele>
<time>2010-08-29T08:50:37Z</time>
<desc>lat.=55.960728, lon.=26.547464, Alt.=149.158325m. Speed=4.356000m/h.</desc>
<speed>1.210000</speed>
</trkpt>
<trkpt lat="55.960720" lon="26.547415">
<ele>149.076294</ele>
<time>2010-08-29T08:50:38Z</time>
<desc>lat.=55.960720, lon.=26.547415, Alt.=149.076294m. Speed=6.876000m/h.</desc>
<speed>1.910000</speed>
</trkpt>
<trkpt lat="55.960724" lon="26.547380">
<ele>149.412231</ele>
<time>2010-08-29T08:50:39Z</time>
<desc>lat.=55.960724, lon.=26.547380, Alt.=149.412231m. Speed=6.228000m/h.</desc>
<speed>1.730000</speed>
</trkpt>
<trkpt lat="55.960728" lon="26.547352">
<ele>149.779419</ele>
<time>2010-08-29T08:50:40Z</time>
<desc>lat.=55.960728, lon.=26.547352, Alt.=149.779419m. Speed=4.248000m/h.</desc>
<speed>1.180000</speed>
</trkpt>
<trkpt lat="55.960728" lon="26.547337">
<ele>149.689575</ele>
<time>2010-08-29T08:50:41Z</time>
<desc>lat.=55.960728, lon.=26.547337, Alt.=149.689575m. Speed=2.808000m/h.</desc>
<speed>0.780000</speed>
</trkpt>
<trkpt lat="55.960739" lon="26.547316">
<ele>149.959106</ele>
<time>2010-08-29T08:50:42Z</time>
<desc>lat.=55.960739, lon.=26.547316, Alt.=149.959106m. Speed=2.520000m/h.</desc>
<speed>0.700000</speed>
</trkpt>
<trkpt lat="55.960739" lon="26.547277">
<ele>149.927856</ele>
<time>2010-08-29T08:50:43Z</time>
<desc>lat.=55.960739, lon.=26.547277, Alt.=149.927856m. Speed=2.376000m/h.</desc>
<speed>0.660000</speed>
</trkpt>
<trkpt lat="55.960735" lon="26.547234">
<ele>150.037231</ele>
<time>2010-08-29T08:50:44Z</time>
<desc>lat.=55.960735, lon.=26.547234, Alt.=150.037231m. Speed=1.872000m/h.</desc>
<speed>0.520000</speed>
</trkpt>
<trkpt lat="55.960743" lon="26.547188">
<ele>148.564575</ele>
<time>2010-08-29T08:50:45Z</time>
<desc>lat.=55.960743, lon.=26.547188, Alt.=148.564575m. Speed=2.160000m/h.</desc>
<speed>0.600000</speed>
</trkpt>
<trkpt lat="55.960758" lon="26.547174">
<ele>148.873169</ele>
<time>2010-08-29T08:50:46Z</time>
<desc>lat.=55.960758, lon.=26.547174, Alt.=148.873169m. Speed=2.592000m/h.</desc>
<speed>0.720000</speed>
</trkpt>
<trkpt lat="55.960773" lon="26.547161">
<ele>148.228638</ele>
<time>2010-08-29T08:50:47Z</time>
<desc>lat.=55.960773, lon.=26.547161, Alt.=148.228638m. Speed=2.772000m/h.</desc>
<speed>0.770000</speed>
</trkpt>
<trkpt lat="55.960781" lon="26.547152">
<ele>148.236450</ele>
<time>2010-08-29T08:50:48Z</time>
<desc>lat.=55.960781, lon.=26.547152, Alt.=148.236450m. Speed=2.232000m/h.</desc>
<speed>0.620000</speed>
</trkpt>
<trkpt lat="55.960789" lon="26.547152">
<ele>148.599731</ele>
<time>2010-08-29T08:50:49Z</time>
<desc>lat.=55.960789, lon.=26.547152, Alt.=148.599731m. Speed=2.232000m/h.</desc>
<speed>0.620000</speed>
</trkpt>
<trkpt lat="55.960796" lon="26.547150">
<ele>148.642700</ele>
<time>2010-08-29T08:50:50Z</time>
<desc>lat.=55.960796, lon.=26.547150, Alt.=148.642700m. Speed=2.268000m/h.</desc>
<speed>0.630000</speed>
</trkpt>
<trkpt lat="55.960804" lon="26.547144">
<ele>148.576294</ele>
<time>2010-08-29T08:50:51Z</time>
<desc>lat.=55.960804, lon.=26.547144, Alt.=148.576294m. Speed=2.520000m/h.</desc>
<speed>0.700000</speed>
</trkpt>
<trkpt lat="55.960793" lon="26.547119">
<ele>146.963013</ele>
<time>2010-08-29T08:50:52Z</time>
<desc>lat.=55.960793, lon.=26.547119, Alt.=146.963013m. Speed=3.060000m/h.</desc>
<speed>0.850000</speed>
</trkpt>
<trkpt lat="55.960800" lon="26.547089">
<ele>145.955200</ele>
<time>2010-08-29T08:50:53Z</time>
<desc>lat.=55.960800, lon.=26.547089, Alt.=145.955200m. Speed=4.176000m/h.</desc>
<speed>1.160000</speed>
</trkpt>
<trkpt lat="55.960804" lon="26.547062">
<ele>145.416138</ele>
<time>2010-08-29T08:50:54Z</time>
<desc>lat.=55.960804, lon.=26.547062, Alt.=145.416138m. Speed=4.716000m/h.</desc>
<speed>1.310000</speed>
</trkpt>
<trkpt lat="55.960804" lon="26.547033">
<ele>145.205200</ele>
<time>2010-08-29T08:50:55Z</time>
<desc>lat.=55.960804, lon.=26.547033, Alt.=145.205200m. Speed=6.048000m/h.</desc>
<speed>1.680000</speed>
</trkpt>
<trkpt lat="55.960804" lon="26.546999">
<ele>144.877075</ele>
<time>2010-08-29T08:50:56Z</time>
<desc>lat.=55.960804, lon.=26.546999, Alt.=144.877075m. Speed=5.940000m/h.</desc>
<speed>1.650000</speed>
</trkpt>
<trkpt lat="55.960800" lon="26.546984">
<ele>144.064575</ele>
<time>2010-08-29T08:50:57Z</time>
<desc>lat.=55.960800, lon.=26.546984, Alt.=144.064575m. Speed=5.184000m/h.</desc>
<speed>1.440000</speed>
</trkpt>
<trkpt lat="55.960812" lon="26.546959">
<ele>143.576294</ele>
<time>2010-08-29T08:50:58Z</time>
<desc>lat.=55.960812, lon.=26.546959, Alt.=143.576294m. Speed=4.140000m/h.</desc>
<speed>1.150000</speed>
</trkpt>
<trkpt lat="55.960812" lon="26.546938">
<ele>143.982544</ele>
<time>2010-08-29T08:50:59Z</time>
<desc>lat.=55.960812, lon.=26.546938, Alt.=143.982544m. Speed=3.852000m/h.</desc>
<speed>1.070000</speed>
</trkpt>
<trkpt lat="55.960804" lon="26.546917">
<ele>143.966919</ele>
<time>2010-08-29T08:51:00Z</time>
<desc>lat.=55.960804, lon.=26.546917, Alt.=143.966919m. Speed=3.384000m/h.</desc>
<speed>0.940000</speed>
</trkpt>
<trkpt lat="55.960789" lon="26.546885">
<ele>143.720825</ele>
<time>2010-08-29T08:51:01Z</time>
<desc>lat.=55.960789, lon.=26.546885, Alt.=143.720825m. Speed=4.320000m/h.</desc>
<speed>1.200000</speed>
</trkpt>
<trkpt lat="55.960781" lon="26.546844">
<ele>143.888794</ele>
<time>2010-08-29T08:51:02Z</time>
<desc>lat.=55.960781, lon.=26.546844, Alt.=143.888794m. Speed=7.344000m/h.</desc>
<speed>2.040000</speed>
</trkpt>
<trkpt lat="55.960762" lon="26.546789">
<ele>144.568481</ele>
<time>2010-08-29T08:51:03Z</time>
<desc>lat.=55.960762, lon.=26.546789, Alt.=144.568481m. Speed=8.424000m/h.</desc>
<speed>2.340000</speed>
</trkpt>
<trkpt lat="55.960766" lon="26.546740">
<ele>144.877075</ele>
<time>2010-08-29T08:51:04Z</time>
<desc>lat.=55.960766, lon.=26.546740, Alt.=144.877075m. Speed=6.552000m/h.</desc>
<speed>1.820000</speed>
</trkpt>
<trkpt lat="55.960770" lon="26.546694">
<ele>145.213013</ele>
<time>2010-08-29T08:51:05Z</time>
<desc>lat.=55.960770, lon.=26.546694, Alt.=145.213013m. Speed=6.300000m/h.</desc>
<speed>1.750000</speed>
</trkpt>
<trkpt lat="55.960781" lon="26.546635">
<ele>145.841919</ele>
<time>2010-08-29T08:51:06Z</time>
<desc>lat.=55.960781, lon.=26.546635, Alt.=145.841919m. Speed=8.100000m/h.</desc>
<speed>2.250000</speed>
</trkpt>
<trkpt lat="55.960789" lon="26.546566">
<ele>146.041138</ele>
<time>2010-08-29T08:51:07Z</time>
<desc>lat.=55.960789, lon.=26.546566, Alt.=146.041138m. Speed=11.448000m/h.</desc>
<speed>3.180000</speed>
</trkpt>
<trkpt lat="55.960796" lon="26.546520">
<ele>146.431763</ele>
<time>2010-08-29T08:51:08Z</time>
<desc>lat.=55.960796, lon.=26.546520, Alt.=146.431763m. Speed=8.208000m/h.</desc>
<speed>2.280000</speed>
</trkpt>
<trkpt lat="55.960808" lon="26.546461">
<ele>146.564575</ele>
<time>2010-08-29T08:51:09Z</time>
<desc>lat.=55.960808, lon.=26.546461, Alt.=146.564575m. Speed=9.756000m/h.</desc>
<speed>2.710000</speed>
</trkpt>
<trkpt lat="55.960808" lon="26.546413">
<ele>146.861450</ele>
<time>2010-08-29T08:51:10Z</time>
<desc>lat.=55.960808, lon.=26.546413, Alt.=146.861450m. Speed=7.452000m/h.</desc>
<speed>2.070000</speed>
</trkpt>
<trkpt lat="55.960819" lon="26.546364">
<ele>146.564575</ele>
<time>2010-08-29T08:51:11Z</time>
<desc>lat.=55.960819, lon.=26.546364, Alt.=146.564575m. Speed=8.568000m/h.</desc>
<speed>2.380000</speed>
</trkpt>
<trkpt lat="55.960835" lon="26.546312">
<ele>146.502075</ele>
<time>2010-08-29T08:51:12Z</time>
<desc>lat.=55.960835, lon.=26.546312, Alt.=146.502075m. Speed=7.848000m/h.</desc>
<speed>2.180000</speed>
</trkpt>
<trkpt lat="55.960838" lon="26.546274">
<ele>146.525513</ele>
<time>2010-08-29T08:51:13Z</time>
<desc>lat.=55.960838, lon.=26.546274, Alt.=146.525513m. Speed=1.908000m/h.</desc>
<speed>0.530000</speed>
</trkpt>
<trkpt lat="55.960857" lon="26.546236">
<ele>147.369263</ele>
<time>2010-08-29T08:51:14Z</time>
<desc>lat.=55.960857, lon.=26.546236, Alt.=147.369263m. Speed=4.752000m/h.</desc>
<speed>1.320000</speed>
</trkpt>
<trkpt lat="55.960865" lon="26.546190">
<ele>146.943481</ele>
<time>2010-08-29T08:51:15Z</time>
<desc>lat.=55.960865, lon.=26.546190, Alt.=146.943481m. Speed=6.048000m/h.</desc>
<speed>1.680000</speed>
</trkpt>
<trkpt lat="55.960873" lon="26.546148">
<ele>146.873169</ele>
<time>2010-08-29T08:51:16Z</time>
<desc>lat.=55.960873, lon.=26.546148, Alt.=146.873169m. Speed=6.048000m/h.</desc>
<speed>1.680000</speed>
</trkpt>
<trkpt lat="55.960884" lon="26.546112">
<ele>146.814575</ele>
<time>2010-08-29T08:51:17Z</time>
<desc>lat.=55.960884, lon.=26.546112, Alt.=146.814575m. Speed=6.480000m/h.</desc>
<speed>1.800000</speed>
</trkpt>
<trkpt lat="55.960896" lon="26.546070">
<ele>147.177856</ele>
<time>2010-08-29T08:51:18Z</time>
<desc>lat.=55.960896, lon.=26.546070, Alt.=147.177856m. Speed=6.552000m/h.</desc>
<speed>1.820000</speed>
</trkpt>
<trkpt lat="55.960907" lon="26.546021">
<ele>146.638794</ele>
<time>2010-08-29T08:51:19Z</time>
<desc>lat.=55.960907, lon.=26.546021, Alt.=146.638794m. Speed=7.200000m/h.</desc>
<speed>2.000000</speed>
</trkpt>
<trkpt lat="55.960918" lon="26.545948">
<ele>145.310669</ele>
<time>2010-08-29T08:51:20Z</time>
<desc>lat.=55.960918, lon.=26.545948, Alt.=145.310669m. Speed=7.632000m/h.</desc>
<speed>2.120000</speed>
</trkpt>
<trkpt lat="55.960934" lon="26.545914">
<ele>145.869263</ele>
<time>2010-08-29T08:51:21Z</time>
<desc>lat.=55.960934, lon.=26.545914, Alt.=145.869263m. Speed=6.408000m/h.</desc>
<speed>1.780000</speed>
</trkpt>
<trkpt lat="55.960949" lon="26.545862">
<ele>145.334106</ele>
<time>2010-08-29T08:51:22Z</time>
<desc>lat.=55.960949, lon.=26.545862, Alt.=145.334106m. Speed=9.288000m/h.</desc>
<speed>2.580000</speed>
</trkpt>
<trkpt lat="55.960957" lon="26.545797">
<ele>144.865356</ele>
<time>2010-08-29T08:51:23Z</time>
<desc>lat.=55.960957, lon.=26.545797, Alt.=144.865356m. Speed=8.064000m/h.</desc>
<speed>2.240000</speed>
</trkpt>
<trkpt lat="55.960957" lon="26.545761">
<ele>144.838013</ele>
<time>2010-08-29T08:51:24Z</time>
<desc>lat.=55.960957, lon.=26.545761, Alt.=144.838013m. Speed=5.220000m/h.</desc>
<speed>1.450000</speed>
</trkpt>
<trkpt lat="55.960968" lon="26.545729">
<ele>144.923950</ele>
<time>2010-08-29T08:51:25Z</time>
<desc>lat.=55.960968, lon.=26.545729, Alt.=144.923950m. Speed=5.544000m/h.</desc>
<speed>1.540000</speed>
</trkpt>
<trkpt lat="55.960976" lon="26.545700">
<ele>144.912231</ele>
<time>2010-08-29T08:51:26Z</time>
<desc>lat.=55.960976, lon.=26.545700, Alt.=144.912231m. Speed=4.356000m/h.</desc>
<speed>1.210000</speed>
</trkpt>
<trkpt lat="55.960972" lon="26.545666">
<ele>145.244263</ele>
<time>2010-08-29T08:51:27Z</time>
<desc>lat.=55.960972, lon.=26.545666, Alt.=145.244263m. Speed=4.536000m/h.</desc>
<speed>1.260000</speed>
</trkpt>
<trkpt lat="55.960991" lon="26.545631">
<ele>146.193481</ele>
<time>2010-08-29T08:51:28Z</time>
<desc>lat.=55.960991, lon.=26.545631, Alt.=146.193481m. Speed=5.040000m/h.</desc>
<speed>1.400000</speed>
</trkpt>
<trkpt lat="55.960991" lon="26.545595">
<ele>146.607544</ele>
<time>2010-08-29T08:51:29Z</time>
<desc>lat.=55.960991, lon.=26.545595, Alt.=146.607544m. Speed=5.688000m/h.</desc>
<speed>1.580000</speed>
</trkpt>
<trkpt lat="55.960995" lon="26.545551">
<ele>146.447388</ele>
<time>2010-08-29T08:51:30Z</time>
<desc>lat.=55.960995, lon.=26.545551, Alt.=146.447388m. Speed=7.956000m/h.</desc>
<speed>2.210000</speed>
</trkpt>
<trkpt lat="55.961002" lon="26.545517">
<ele>146.627075</ele>
<time>2010-08-29T08:51:31Z</time>
<desc>lat.=55.961002, lon.=26.545517, Alt.=146.627075m. Speed=5.616000m/h.</desc>
<speed>1.560000</speed>
</trkpt>
<trkpt lat="55.961014" lon="26.545485">
<ele>146.572388</ele>
<time>2010-08-29T08:51:32Z</time>
<desc>lat.=55.961014, lon.=26.545485, Alt.=146.572388m. Speed=6.588000m/h.</desc>
<speed>1.830000</speed>
</trkpt>
<trkpt lat="55.961025" lon="26.545448">
<ele>146.826294</ele>
<time>2010-08-29T08:51:33Z</time>
<desc>lat.=55.961025, lon.=26.545448, Alt.=146.826294m. Speed=8.604000m/h.</desc>
<speed>2.390000</speed>
</trkpt>
<trkpt lat="55.961040" lon="26.545404">
<ele>147.041138</ele>
<time>2010-08-29T08:51:34Z</time>
<desc>lat.=55.961040, lon.=26.545404, Alt.=147.041138m. Speed=6.588000m/h.</desc>
<speed>1.830000</speed>
</trkpt>
<trkpt lat="55.961044" lon="26.545357">
<ele>146.373169</ele>
<time>2010-08-29T08:51:35Z</time>
<desc>lat.=55.961044, lon.=26.545357, Alt.=146.373169m. Speed=8.172000m/h.</desc>
<speed>2.270000</speed>
</trkpt>
<trkpt lat="55.961056" lon="26.545328">
<ele>146.021606</ele>
<time>2010-08-29T08:51:36Z</time>
<desc>lat.=55.961056, lon.=26.545328, Alt.=146.021606m. Speed=6.516000m/h.</desc>
<speed>1.810000</speed>
</trkpt>
<trkpt lat="55.961079" lon="26.545277">
<ele>145.088013</ele>
<time>2010-08-29T08:51:37Z</time>
<desc>lat.=55.961079, lon.=26.545277, Alt.=145.088013m. Speed=5.220000m/h.</desc>
<speed>1.450000</speed>
</trkpt>
<trkpt lat="55.961094" lon="26.545242">
<ele>144.966919</ele>
<time>2010-08-29T08:51:38Z</time>
<desc>lat.=55.961094, lon.=26.545242, Alt.=144.966919m. Speed=6.300000m/h.</desc>
<speed>1.750000</speed>
</trkpt>
<trkpt lat="55.961113" lon="26.545202">
<ele>144.216919</ele>
<time>2010-08-29T08:51:39Z</time>
<desc>lat.=55.961113, lon.=26.545202, Alt.=144.216919m. Speed=6.264000m/h.</desc>
<speed>1.740000</speed>
</trkpt>
<trkpt lat="55.961132" lon="26.545172">
<ele>143.431763</ele>
<time>2010-08-29T08:51:40Z</time>
<desc>lat.=55.961132, lon.=26.545172, Alt.=143.431763m. Speed=7.092000m/h.</desc>
<speed>1.970000</speed>
</trkpt>
<trkpt lat="55.961143" lon="26.545143">
<ele>143.451294</ele>
<time>2010-08-29T08:51:41Z</time>
<desc>lat.=55.961143, lon.=26.545143, Alt.=143.451294m. Speed=7.308000m/h.</desc>
<speed>2.030000</speed>
</trkpt>
<trkpt lat="55.961159" lon="26.545115">
<ele>143.826294</ele>
<time>2010-08-29T08:51:42Z</time>
<desc>lat.=55.961159, lon.=26.545115, Alt.=143.826294m. Speed=7.956000m/h.</desc>
<speed>2.210000</speed>
</trkpt>
<trkpt lat="55.961170" lon="26.545082">
<ele>144.088013</ele>
<time>2010-08-29T08:51:43Z</time>
<desc>lat.=55.961170, lon.=26.545082, Alt.=144.088013m. Speed=9.288000m/h.</desc>
<speed>2.580000</speed>
</trkpt>
<trkpt lat="55.961182" lon="26.545044">
<ele>144.705200</ele>
<time>2010-08-29T08:51:44Z</time>
<desc>lat.=55.961182, lon.=26.545044, Alt.=144.705200m. Speed=7.812000m/h.</desc>
<speed>2.170000</speed>
</trkpt>
<trkpt lat="55.961193" lon="26.545012">
<ele>145.459106</ele>
<time>2010-08-29T08:51:45Z</time>
<desc>lat.=55.961193, lon.=26.545012, Alt.=145.459106m. Speed=7.380000m/h.</desc>
<speed>2.050000</speed>
</trkpt>
<trkpt lat="55.961205" lon="26.544979">
<ele>145.888794</ele>
<time>2010-08-29T08:51:46Z</time>
<desc>lat.=55.961205, lon.=26.544979, Alt.=145.888794m. Speed=6.084000m/h.</desc>
<speed>1.690000</speed>
</trkpt>
<trkpt lat="55.961212" lon="26.544916">
<ele>144.603638</ele>
<time>2010-08-29T08:51:47Z</time>
<desc>lat.=55.961212, lon.=26.544916, Alt.=144.603638m. Speed=6.408000m/h.</desc>
<speed>1.780000</speed>
</trkpt>
<trkpt lat="55.961216" lon="26.544868">
<ele>143.486450</ele>
<time>2010-08-29T08:51:48Z</time>
<desc>lat.=55.961216, lon.=26.544868, Alt.=143.486450m. Speed=6.804000m/h.</desc>
<speed>1.890000</speed>
</trkpt>
<trkpt lat="55.961224" lon="26.544823">
<ele>143.306763</ele>
<time>2010-08-29T08:51:49Z</time>
<desc>lat.=55.961224, lon.=26.544823, Alt.=143.306763m. Speed=5.724000m/h.</desc>
<speed>1.590000</speed>
</trkpt>
<trkpt lat="55.961231" lon="26.544788">
<ele>143.045044</ele>
<time>2010-08-29T08:51:50Z</time>
<desc>lat.=55.961231, lon.=26.544788, Alt.=143.045044m. Speed=2.844000m/h.</desc>
<speed>0.790000</speed>
</trkpt>
<trkpt lat="55.961239" lon="26.544752">
<ele>142.349731</ele>
<time>2010-08-29T08:51:51Z</time>
<desc>lat.=55.961239, lon.=26.544752, Alt.=142.349731m. Speed=3.672000m/h.</desc>
<speed>1.020000</speed>
</trkpt>
<trkpt lat="55.961243" lon="26.544727">
<ele>142.853638</ele>
<time>2010-08-29T08:51:52Z</time>
<desc>lat.=55.961243, lon.=26.544727, Alt.=142.853638m. Speed=4.176000m/h.</desc>
<speed>1.160000</speed>
</trkpt>
<trkpt lat="55.961243" lon="26.544695">
<ele>143.365356</ele>
<time>2010-08-29T08:51:53Z</time>
<desc>lat.=55.961243, lon.=26.544695, Alt.=143.365356m. Speed=3.312000m/h.</desc>
<speed>0.920000</speed>
</trkpt>
<trkpt lat="55.961246" lon="26.544670">
<ele>143.466919</ele>
<time>2010-08-29T08:51:54Z</time>
<desc>lat.=55.961246, lon.=26.544670, Alt.=143.466919m. Speed=3.312000m/h.</desc>
<speed>0.920000</speed>
</trkpt>
<trkpt lat="55.961246" lon="26.544641">
<ele>143.759888</ele>
<time>2010-08-29T08:51:55Z</time>
<desc>lat.=55.961246, lon.=26.544641, Alt.=143.759888m. Speed=4.140000m/h.</desc>
<speed>1.150000</speed>
</trkpt>
<trkpt lat="55.961250" lon="26.544621">
<ele>144.388794</ele>
<time>2010-08-29T08:51:56Z</time>
<desc>lat.=55.961250, lon.=26.544621, Alt.=144.388794m. Speed=2.952000m/h.</desc>
<speed>0.820000</speed>
</trkpt>
<trkpt lat="55.961258" lon="26.544577">
<ele>144.267700</ele>
<time>2010-08-29T08:51:57Z</time>
<desc>lat.=55.961258, lon.=26.544577, Alt.=144.267700m. Speed=4.716000m/h.</desc>
<speed>1.310000</speed>
</trkpt>
<trkpt lat="55.961262" lon="26.544540">
<ele>144.638794</ele>
<time>2010-08-29T08:51:58Z</time>
<desc>lat.=55.961262, lon.=26.544540, Alt.=144.638794m. Speed=3.456000m/h.</desc>
<speed>0.960000</speed>
</trkpt>
<trkpt lat="55.961266" lon="26.544519">
<ele>145.134888</ele>
<time>2010-08-29T08:51:59Z</time>
<desc>lat.=55.961266, lon.=26.544519, Alt.=145.134888m. Speed=2.484000m/h.</desc>
<speed>0.690000</speed>
</trkpt>
<trkpt lat="55.961269" lon="26.544493">
<ele>145.357544</ele>
<time>2010-08-29T08:52:00Z</time>
<desc>lat.=55.961269, lon.=26.544493, Alt.=145.357544m. Speed=2.880000m/h.</desc>
<speed>0.800000</speed>
</trkpt>
<trkpt lat="55.961277" lon="26.544456">
<ele>143.970825</ele>
<time>2010-08-29T08:52:01Z</time>
<desc>lat.=55.961277, lon.=26.544456, Alt.=143.970825m. Speed=2.916000m/h.</desc>
<speed>0.810000</speed>
</trkpt>
<trkpt lat="55.961266" lon="26.544422">
<ele>144.095825</ele>
<time>2010-08-29T08:52:02Z</time>
<desc>lat.=55.961266, lon.=26.544422, Alt.=144.095825m. Speed=3.240000m/h.</desc>
<speed>0.900000</speed>
</trkpt>
<trkpt lat="55.961266" lon="26.544397">
<ele>144.130981</ele>
<time>2010-08-29T08:52:03Z</time>
<desc>lat.=55.961266, lon.=26.544397, Alt.=144.130981m. Speed=3.456000m/h.</desc>
<speed>0.960000</speed>
</trkpt>
<trkpt lat="55.961269" lon="26.544369">
<ele>143.787231</ele>
<time>2010-08-29T08:52:04Z</time>
<desc>lat.=55.961269, lon.=26.544369, Alt.=143.787231m. Speed=3.492000m/h.</desc>
<speed>0.970000</speed>
</trkpt>
<trkpt lat="55.961269" lon="26.544342">
<ele>143.435669</ele>
<time>2010-08-29T08:52:05Z</time>
<desc>lat.=55.961269, lon.=26.544342, Alt.=143.435669m. Speed=4.464000m/h.</desc>
<speed>1.240000</speed>
</trkpt>
<trkpt lat="55.961273" lon="26.544317">
<ele>143.384888</ele>
<time>2010-08-29T08:52:06Z</time>
<desc>lat.=55.961273, lon.=26.544317, Alt.=143.384888m. Speed=4.176000m/h.</desc>
<speed>1.160000</speed>
</trkpt>
<trkpt lat="55.961269" lon="26.544291">
<ele>142.970825</ele>
<time>2010-08-29T08:52:07Z</time>
<desc>lat.=55.961269, lon.=26.544291, Alt.=142.970825m. Speed=2.556000m/h.</desc>
<speed>0.710000</speed>
</trkpt>
<trkpt lat="55.961273" lon="26.544247">
<ele>142.830200</ele>
<time>2010-08-29T08:52:08Z</time>
<desc>lat.=55.961273, lon.=26.544247, Alt.=142.830200m. Speed=3.780000m/h.</desc>
<speed>1.050000</speed>
</trkpt>
<trkpt lat="55.961246" lon="26.544226">
<ele>141.599731</ele>
<time>2010-08-29T08:52:09Z</time>
<desc>lat.=55.961246, lon.=26.544226, Alt.=141.599731m. Speed=4.464000m/h.</desc>
<speed>1.240000</speed>
</trkpt>
<trkpt lat="55.961243" lon="26.544186">
<ele>140.591919</ele>
<time>2010-08-29T08:52:10Z</time>
<desc>lat.=55.961243, lon.=26.544186, Alt.=140.591919m. Speed=4.896000m/h.</desc>
<speed>1.360000</speed>
</trkpt>
<trkpt lat="55.961239" lon="26.544157">
<ele>140.556763</ele>
<time>2010-08-29T08:52:11Z</time>
<desc>lat.=55.961239, lon.=26.544157, Alt.=140.556763m. Speed=3.744000m/h.</desc>
<speed>1.040000</speed>
</trkpt>
<trkpt lat="55.961235" lon="26.544121">
<ele>140.646606</ele>
<time>2010-08-29T08:52:12Z</time>
<desc>lat.=55.961235, lon.=26.544121, Alt.=140.646606m. Speed=5.976000m/h.</desc>
<speed>1.660000</speed>
</trkpt>
<trkpt lat="55.961224" lon="26.544085">
<ele>140.740356</ele>
<time>2010-08-29T08:52:13Z</time>
<desc>lat.=55.961224, lon.=26.544085, Alt.=140.740356m. Speed=6.264000m/h.</desc>
<speed>1.740000</speed>
</trkpt>
<trkpt lat="55.961220" lon="26.544024">
<ele>140.841919</ele>
<time>2010-08-29T08:52:14Z</time>
<desc>lat.=55.961220, lon.=26.544024, Alt.=140.841919m. Speed=8.388000m/h.</desc>
<speed>2.330000</speed>
</trkpt>
<trkpt lat="55.961220" lon="26.543943">
<ele>141.767700</ele>
<time>2010-08-29T08:52:15Z</time>
<desc>lat.=55.961220, lon.=26.543943, Alt.=141.767700m. Speed=8.892000m/h.</desc>
<speed>2.470000</speed>
</trkpt>
<trkpt lat="55.961231" lon="26.543917">
<ele>142.138794</ele>
<time>2010-08-29T08:52:16Z</time>
<desc>lat.=55.961231, lon.=26.543917, Alt.=142.138794m. Speed=7.236000m/h.</desc>
<speed>2.010000</speed>
</trkpt>
<trkpt lat="55.961250" lon="26.543875">
<ele>142.744263</ele>
<time>2010-08-29T08:52:17Z</time>
<desc>lat.=55.961250, lon.=26.543875, Alt.=142.744263m. Speed=7.164000m/h.</desc>
<speed>1.990000</speed>
</trkpt>
<trkpt lat="55.961269" lon="26.543848">
<ele>143.259888</ele>
<time>2010-08-29T08:52:18Z</time>
<desc>lat.=55.961269, lon.=26.543848, Alt.=143.259888m. Speed=6.336000m/h.</desc>
<speed>1.760000</speed>
</trkpt>
<trkpt lat="55.961281" lon="26.543819">
<ele>143.814575</ele>
<time>2010-08-29T08:52:19Z</time>
<desc>lat.=55.961281, lon.=26.543819, Alt.=143.814575m. Speed=4.572000m/h.</desc>
<speed>1.270000</speed>
</trkpt>
<trkpt lat="55.961292" lon="26.543814">
<ele>143.771606</ele>
<time>2010-08-29T08:52:20Z</time>
<desc>lat.=55.961292, lon.=26.543814, Alt.=143.771606m. Speed=5.940000m/h.</desc>
<speed>1.650000</speed>
</trkpt>
<trkpt lat="55.961308" lon="26.543806">
<ele>144.056763</ele>
<time>2010-08-29T08:52:21Z</time>
<desc>lat.=55.961308, lon.=26.543806, Alt.=144.056763m. Speed=6.156000m/h.</desc>
<speed>1.710000</speed>
</trkpt>
<trkpt lat="55.961323" lon="26.543800">
<ele>144.455200</ele>
<time>2010-08-29T08:52:22Z</time>
<desc>lat.=55.961323, lon.=26.543800, Alt.=144.455200m. Speed=3.960000m/h.</desc>
<speed>1.100000</speed>
</trkpt>
<trkpt lat="55.961342" lon="26.543777">
<ele>144.845825</ele>
<time>2010-08-29T08:52:23Z</time>
<desc>lat.=55.961342, lon.=26.543777, Alt.=144.845825m. Speed=5.004000m/h.</desc>
<speed>1.390000</speed>
</trkpt>
<trkpt lat="55.961376" lon="26.543760">
<ele>144.865356</ele>
<time>2010-08-29T08:52:24Z</time>
<desc>lat.=55.961376, lon.=26.543760, Alt.=144.865356m. Speed=5.796000m/h.</desc>
<speed>1.610000</speed>
</trkpt>
<trkpt lat="55.961395" lon="26.543751">
<ele>145.205200</ele>
<time>2010-08-29T08:52:25Z</time>
<desc>lat.=55.961395, lon.=26.543751, Alt.=145.205200m. Speed=7.848000m/h.</desc>
<speed>2.180000</speed>
</trkpt>
<trkpt lat="55.961422" lon="26.543758">
<ele>145.658325</ele>
<time>2010-08-29T08:52:26Z</time>
<desc>lat.=55.961422, lon.=26.543758, Alt.=145.658325m. Speed=9.324000m/h.</desc>
<speed>2.590000</speed>
</trkpt>
<trkpt lat="55.961445" lon="26.543766">
<ele>146.080200</ele>
<time>2010-08-29T08:52:27Z</time>
<desc>lat.=55.961445, lon.=26.543766, Alt.=146.080200m. Speed=8.892000m/h.</desc>
<speed>2.470000</speed>
</trkpt>
<trkpt lat="55.961468" lon="26.543776">
<ele>146.185669</ele>
<time>2010-08-29T08:52:28Z</time>
<desc>lat.=55.961468, lon.=26.543776, Alt.=146.185669m. Speed=7.884000m/h.</desc>
<speed>2.190000</speed>
</trkpt>
<trkpt lat="55.961510" lon="26.543793">
<ele>147.400513</ele>
<time>2010-08-29T08:52:29Z</time>
<desc>lat.=55.961510, lon.=26.543793, Alt.=147.400513m. Speed=10.008000m/h.</desc>
<speed>2.780000</speed>
</trkpt>
<trkpt lat="55.961540" lon="26.543810">
<ele>147.982544</ele>
<time>2010-08-29T08:52:30Z</time>
<desc>lat.=55.961540, lon.=26.543810, Alt.=147.982544m. Speed=9.648000m/h.</desc>
<speed>2.680000</speed>
</trkpt>
<trkpt lat="55.961559" lon="26.543819">
<ele>148.345825</ele>
<time>2010-08-29T08:52:31Z</time>
<desc>lat.=55.961559, lon.=26.543819, Alt.=148.345825m. Speed=8.856000m/h.</desc>
<speed>2.460000</speed>
</trkpt>
<trkpt lat="55.961590" lon="26.543842">
<ele>148.259888</ele>
<time>2010-08-29T08:52:32Z</time>
<desc>lat.=55.961590, lon.=26.543842, Alt.=148.259888m. Speed=10.692000m/h.</desc>
<speed>2.970000</speed>
</trkpt>
<trkpt lat="55.961613" lon="26.543859">
<ele>148.365356</ele>
<time>2010-08-29T08:52:33Z</time>
<desc>lat.=55.961613, lon.=26.543859, Alt.=148.365356m. Speed=8.928000m/h.</desc>
<speed>2.480000</speed>
</trkpt>
<trkpt lat="55.961632" lon="26.543867">
<ele>149.041138</ele>
<time>2010-08-29T08:52:34Z</time>
<desc>lat.=55.961632, lon.=26.543867, Alt.=149.041138m. Speed=8.748000m/h.</desc>
<speed>2.430000</speed>
</trkpt>
<trkpt lat="55.961655" lon="26.543880">
<ele>147.158325</ele>
<time>2010-08-29T08:52:35Z</time>
<desc>lat.=55.961655, lon.=26.543880, Alt.=147.158325m. Speed=9.432000m/h.</desc>
<speed>2.620000</speed>
</trkpt>
<trkpt lat="55.961678" lon="26.543898">
<ele>147.943481</ele>
<time>2010-08-29T08:52:36Z</time>
<desc>lat.=55.961678, lon.=26.543898, Alt.=147.943481m. Speed=7.488000m/h.</desc>
<speed>2.080000</speed>
</trkpt>
<trkpt lat="55.961700" lon="26.543901">
<ele>148.459106</ele>
<time>2010-08-29T08:52:37Z</time>
<desc>lat.=55.961700, lon.=26.543901, Alt.=148.459106m. Speed=7.272000m/h.</desc>
<speed>2.020000</speed>
</trkpt>
<trkpt lat="55.961723" lon="26.543894">
<ele>146.724731</ele>
<time>2010-08-29T08:52:38Z</time>
<desc>lat.=55.961723, lon.=26.543894, Alt.=146.724731m. Speed=11.556000m/h.</desc>
<speed>3.210000</speed>
</trkpt>
<trkpt lat="55.961754" lon="26.543890">
<ele>145.443481</ele>
<time>2010-08-29T08:52:39Z</time>
<desc>lat.=55.961754, lon.=26.543890, Alt.=145.443481m. Speed=8.136000m/h.</desc>
<speed>2.260000</speed>
</trkpt>
<trkpt lat="55.961781" lon="26.543880">
<ele>144.123169</ele>
<time>2010-08-29T08:52:40Z</time>
<desc>lat.=55.961781, lon.=26.543880, Alt.=144.123169m. Speed=9.612000m/h.</desc>
<speed>2.670000</speed>
</trkpt>
<trkpt lat="55.961807" lon="26.543869">
<ele>144.326294</ele>
<time>2010-08-29T08:52:41Z</time>
<desc>lat.=55.961807, lon.=26.543869, Alt.=144.326294m. Speed=9.576000m/h.</desc>
<speed>2.660000</speed>
</trkpt>
<trkpt lat="55.961830" lon="26.543867">
<ele>144.091919</ele>
<time>2010-08-29T08:52:42Z</time>
<desc>lat.=55.961830, lon.=26.543867, Alt.=144.091919m. Speed=9.144000m/h.</desc>
<speed>2.540000</speed>
</trkpt>
<trkpt lat="55.961857" lon="26.543867">
<ele>144.373169</ele>
<time>2010-08-29T08:52:43Z</time>
<desc>lat.=55.961857, lon.=26.543867, Alt.=144.373169m. Speed=8.820000m/h.</desc>
<speed>2.450000</speed>
</trkpt>
<trkpt lat="55.961884" lon="26.543869">
<ele>143.767700</ele>
<time>2010-08-29T08:52:44Z</time>
<desc>lat.=55.961884, lon.=26.543869, Alt.=143.767700m. Speed=7.200000m/h.</desc>
<speed>2.000000</speed>
</trkpt>
<trkpt lat="55.961914" lon="26.543867">
<ele>143.572388</ele>
<time>2010-08-29T08:52:45Z</time>
<desc>lat.=55.961914, lon.=26.543867, Alt.=143.572388m. Speed=9.468000m/h.</desc>
<speed>2.630000</speed>
</trkpt>
<trkpt lat="55.961952" lon="26.543867">
<ele>143.908325</ele>
<time>2010-08-29T08:52:46Z</time>
<desc>lat.=55.961952, lon.=26.543867, Alt.=143.908325m. Speed=10.332000m/h.</desc>
<speed>2.870000</speed>
</trkpt>
<trkpt lat="55.961990" lon="26.543865">
<ele>144.963013</ele>
<time>2010-08-29T08:52:47Z</time>
<desc>lat.=55.961990, lon.=26.543865, Alt.=144.963013m. Speed=9.648000m/h.</desc>
<speed>2.680000</speed>
</trkpt>
<trkpt lat="55.962025" lon="26.543859">
<ele>143.845825</ele>
<time>2010-08-29T08:52:48Z</time>
<desc>lat.=55.962025, lon.=26.543859, Alt.=143.845825m. Speed=11.412000m/h.</desc>
<speed>3.170000</speed>
</trkpt>
<trkpt lat="55.962055" lon="26.543848">
<ele>144.130981</ele>
<time>2010-08-29T08:52:49Z</time>
<desc>lat.=55.962055, lon.=26.543848, Alt.=144.130981m. Speed=11.016000m/h.</desc>
<speed>3.060000</speed>
</trkpt>
<trkpt lat="55.962086" lon="26.543835">
<ele>144.291138</ele>
<time>2010-08-29T08:52:50Z</time>
<desc>lat.=55.962086, lon.=26.543835, Alt.=144.291138m. Speed=10.584000m/h.</desc>
<speed>2.940000</speed>
</trkpt>
<trkpt lat="55.962109" lon="26.543819">
<ele>144.595825</ele>
<time>2010-08-29T08:52:51Z</time>
<desc>lat.=55.962109, lon.=26.543819, Alt.=144.595825m. Speed=9.648000m/h.</desc>
<speed>2.680000</speed>
</trkpt>
<trkpt lat="55.962135" lon="26.543798">
<ele>145.037231</ele>
<time>2010-08-29T08:52:52Z</time>
<desc>lat.=55.962135, lon.=26.543798, Alt.=145.037231m. Speed=8.640000m/h.</desc>
<speed>2.400000</speed>
</trkpt>
<trkpt lat="55.962166" lon="26.543787">
<ele>145.255981</ele>
<time>2010-08-29T08:52:53Z</time>
<desc>lat.=55.962166, lon.=26.543787, Alt.=145.255981m. Speed=9.144000m/h.</desc>
<speed>2.540000</speed>
</trkpt>
<trkpt lat="55.962189" lon="26.543781">
<ele>145.455200</ele>
<time>2010-08-29T08:52:54Z</time>
<desc>lat.=55.962189, lon.=26.543781, Alt.=145.455200m. Speed=6.228000m/h.</desc>
<speed>1.730000</speed>
</trkpt>
<trkpt lat="55.962223" lon="26.543793">
<ele>145.060669</ele>
<time>2010-08-29T08:52:55Z</time>
<desc>lat.=55.962223, lon.=26.543793, Alt.=145.060669m. Speed=8.100000m/h.</desc>
<speed>2.250000</speed>
</trkpt>
<trkpt lat="55.962250" lon="26.543797">
<ele>145.345825</ele>
<time>2010-08-29T08:52:56Z</time>
<desc>lat.=55.962250, lon.=26.543797, Alt.=145.345825m. Speed=6.012000m/h.</desc>
<speed>1.670000</speed>
</trkpt>
<trkpt lat="55.962273" lon="26.543791">
<ele>146.127075</ele>
<time>2010-08-29T08:52:57Z</time>
<desc>lat.=55.962273, lon.=26.543791, Alt.=146.127075m. Speed=5.580000m/h.</desc>
<speed>1.550000</speed>
</trkpt>
<trkpt lat="55.962292" lon="26.543779">
<ele>146.959106</ele>
<time>2010-08-29T08:52:58Z</time>
<desc>lat.=55.962292, lon.=26.543779, Alt.=146.959106m. Speed=6.228000m/h.</desc>
<speed>1.730000</speed>
</trkpt>
<trkpt lat="55.962311" lon="26.543770">
<ele>147.779419</ele>
<time>2010-08-29T08:52:59Z</time>
<desc>lat.=55.962311, lon.=26.543770, Alt.=147.779419m. Speed=4.500000m/h.</desc>
<speed>1.250000</speed>
</trkpt>
<trkpt lat="55.962326" lon="26.543758">
<ele>148.068481</ele>
<time>2010-08-29T08:53:00Z</time>
<desc>lat.=55.962326, lon.=26.543758, Alt.=148.068481m. Speed=5.508000m/h.</desc>
<speed>1.530000</speed>
</trkpt>
<trkpt lat="55.962353" lon="26.543741">
<ele>147.974731</ele>
<time>2010-08-29T08:53:01Z</time>
<desc>lat.=55.962353, lon.=26.543741, Alt.=147.974731m. Speed=5.652000m/h.</desc>
<speed>1.570000</speed>
</trkpt>
<trkpt lat="55.962379" lon="26.543728">
<ele>148.150513</ele>
<time>2010-08-29T08:53:02Z</time>
<desc>lat.=55.962379, lon.=26.543728, Alt.=148.150513m. Speed=6.840000m/h.</desc>
<speed>1.900000</speed>
</trkpt>
<trkpt lat="55.962406" lon="26.543713">
<ele>148.498169</ele>
<time>2010-08-29T08:53:03Z</time>
<desc>lat.=55.962406, lon.=26.543713, Alt.=148.498169m. Speed=7.020000m/h.</desc>
<speed>1.950000</speed>
</trkpt>
<trkpt lat="55.962425" lon="26.543697">
<ele>148.994263</ele>
<time>2010-08-29T08:53:04Z</time>
<desc>lat.=55.962425, lon.=26.543697, Alt.=148.994263m. Speed=6.840000m/h.</desc>
<speed>1.900000</speed>
</trkpt>
<trkpt lat="55.962440" lon="26.543684">
<ele>149.451294</ele>
<time>2010-08-29T08:53:05Z</time>
<desc>lat.=55.962440, lon.=26.543684, Alt.=149.451294m. Speed=4.032000m/h.</desc>
<speed>1.120000</speed>
</trkpt>
<trkpt lat="55.962460" lon="26.543667">
<ele>149.845825</ele>
<time>2010-08-29T08:53:06Z</time>
<desc>lat.=55.962460, lon.=26.543667, Alt.=149.845825m. Speed=6.516000m/h.</desc>
<speed>1.810000</speed>
</trkpt>
<trkpt lat="55.962482" lon="26.543644">
<ele>150.005981</ele>
<time>2010-08-29T08:53:07Z</time>
<desc>lat.=55.962482, lon.=26.543644, Alt.=150.005981m. Speed=7.272000m/h.</desc>
<speed>2.020000</speed>
</trkpt>
<trkpt lat="55.962502" lon="26.543627">
<ele>150.384888</ele>
<time>2010-08-29T08:53:08Z</time>
<desc>lat.=55.962502, lon.=26.543627, Alt.=150.384888m. Speed=5.472000m/h.</desc>
<speed>1.520000</speed>
</trkpt>
<trkpt lat="55.962517" lon="26.543615">
<ele>150.584106</ele>
<time>2010-08-29T08:53:09Z</time>
<desc>lat.=55.962517, lon.=26.543615, Alt.=150.584106m. Speed=6.120000m/h.</desc>
<speed>1.700000</speed>
</trkpt>
<trkpt lat="55.962547" lon="26.543585">
<ele>151.279419</ele>
<time>2010-08-29T08:53:10Z</time>
<desc>lat.=55.962547, lon.=26.543585, Alt.=151.279419m. Speed=7.164000m/h.</desc>
<speed>1.990000</speed>
</trkpt>
<trkpt lat="55.962570" lon="26.543566">
<ele>151.572388</ele>
<time>2010-08-29T08:53:11Z</time>
<desc>lat.=55.962570, lon.=26.543566, Alt.=151.572388m. Speed=5.580000m/h.</desc>
<speed>1.550000</speed>
</trkpt>
<trkpt lat="55.962593" lon="26.543558">
<ele>151.896606</ele>
<time>2010-08-29T08:53:12Z</time>
<desc>lat.=55.962593, lon.=26.543558, Alt.=151.896606m. Speed=5.220000m/h.</desc>
<speed>1.450000</speed>
</trkpt>
<trkpt lat="55.962620" lon="26.543541">
<ele>152.177856</ele>
<time>2010-08-29T08:53:13Z</time>
<desc>lat.=55.962620, lon.=26.543541, Alt.=152.177856m. Speed=6.336000m/h.</desc>
<speed>1.760000</speed>
</trkpt>
<trkpt lat="55.962639" lon="26.543526">
<ele>152.263794</ele>
<time>2010-08-29T08:53:14Z</time>
<desc>lat.=55.962639, lon.=26.543526, Alt.=152.263794m. Speed=6.624000m/h.</desc>
<speed>1.840000</speed>
</trkpt>
<trkpt lat="55.962658" lon="26.543512">
<ele>152.447388</ele>
<time>2010-08-29T08:53:15Z</time>
<desc>lat.=55.962658, lon.=26.543512, Alt.=152.447388m. Speed=5.796000m/h.</desc>
<speed>1.610000</speed>
</trkpt>
<trkpt lat="55.962681" lon="26.543501">
<ele>152.607544</ele>
<time>2010-08-29T08:53:16Z</time>
<desc>lat.=55.962681, lon.=26.543501, Alt.=152.607544m. Speed=5.436000m/h.</desc>
<speed>1.510000</speed>
</trkpt>
<trkpt lat="55.962708" lon="26.543484">
<ele>152.752075</ele>
<time>2010-08-29T08:53:17Z</time>
<desc>lat.=55.962708, lon.=26.543484, Alt.=152.752075m. Speed=5.940000m/h.</desc>
<speed>1.650000</speed>
</trkpt>
<trkpt lat="55.962730" lon="26.543457">
<ele>153.045044</ele>
<time>2010-08-29T08:53:18Z</time>
<desc>lat.=55.962730, lon.=26.543457, Alt.=153.045044m. Speed=6.048000m/h.</desc>
<speed>1.680000</speed>
</trkpt>
<trkpt lat="55.962749" lon="26.543430">
<ele>153.224731</ele>
<time>2010-08-29T08:53:19Z</time>
<desc>lat.=55.962749, lon.=26.543430, Alt.=153.224731m. Speed=6.588000m/h.</desc>
<speed>1.830000</speed>
</trkpt>
<trkpt lat="55.962791" lon="26.543371">
<ele>154.146606</ele>
<time>2010-08-29T08:53:20Z</time>
<desc>lat.=55.962791, lon.=26.543371, Alt.=154.146606m. Speed=6.516000m/h.</desc>
<speed>1.810000</speed>
</trkpt>
<trkpt lat="55.962811" lon="26.543360">
<ele>154.373169</ele>
<time>2010-08-29T08:53:21Z</time>
<desc>lat.=55.962811, lon.=26.543360, Alt.=154.373169m. Speed=4.536000m/h.</desc>
<speed>1.260000</speed>
</trkpt>
<trkpt lat="55.962841" lon="26.543348">
<ele>154.111450</ele>
<time>2010-08-29T08:53:22Z</time>
<desc>lat.=55.962841, lon.=26.543348, Alt.=154.111450m. Speed=7.992000m/h.</desc>
<speed>2.220000</speed>
</trkpt>
<trkpt lat="55.962864" lon="26.543335">
<ele>154.283325</ele>
<time>2010-08-29T08:53:23Z</time>
<desc>lat.=55.962864, lon.=26.543335, Alt.=154.283325m. Speed=4.572000m/h.</desc>
<speed>1.270000</speed>
</trkpt>
<trkpt lat="55.962887" lon="26.543314">
<ele>154.810669</ele>
<time>2010-08-29T08:53:24Z</time>
<desc>lat.=55.962887, lon.=26.543314, Alt.=154.810669m. Speed=4.968000m/h.</desc>
<speed>1.380000</speed>
</trkpt>
<trkpt lat="55.962902" lon="26.543306">
<ele>155.170044</ele>
<time>2010-08-29T08:53:25Z</time>
<desc>lat.=55.962902, lon.=26.543306, Alt.=155.170044m. Speed=5.184000m/h.</desc>
<speed>1.440000</speed>
</trkpt>
<trkpt lat="55.962929" lon="26.543278">
<ele>154.705200</ele>
<time>2010-08-29T08:53:26Z</time>
<desc>lat.=55.962929, lon.=26.543278, Alt.=154.705200m. Speed=6.300000m/h.</desc>
<speed>1.750000</speed>
</trkpt>
<trkpt lat="55.962952" lon="26.543261">
<ele>154.666138</ele>
<time>2010-08-29T08:53:27Z</time>
<desc>lat.=55.962952, lon.=26.543261, Alt.=154.666138m. Speed=6.804000m/h.</desc>
<speed>1.890000</speed>
</trkpt>
<trkpt lat="55.962975" lon="26.543251">
<ele>153.627075</ele>
<time>2010-08-29T08:53:28Z</time>
<desc>lat.=55.962975, lon.=26.543251, Alt.=153.627075m. Speed=4.932000m/h.</desc>
<speed>1.370000</speed>
</trkpt>
<trkpt lat="55.962994" lon="26.543224">
<ele>153.009888</ele>
<time>2010-08-29T08:53:29Z</time>
<desc>lat.=55.962994, lon.=26.543224, Alt.=153.009888m. Speed=6.264000m/h.</desc>
<speed>1.740000</speed>
</trkpt>
<trkpt lat="55.963020" lon="26.543200">
<ele>153.009888</ele>
<time>2010-08-29T08:53:30Z</time>
<desc>lat.=55.963020, lon.=26.543200, Alt.=153.009888m. Speed=7.200000m/h.</desc>
<speed>2.000000</speed>
</trkpt>
<trkpt lat="55.963047" lon="26.543171">
<ele>152.865356</ele>
<time>2010-08-29T08:53:31Z</time>
<desc>lat.=55.963047, lon.=26.543171, Alt.=152.865356m. Speed=5.184000m/h.</desc>
<speed>1.440000</speed>
</trkpt>
<trkpt lat="55.963062" lon="26.543152">
<ele>152.908325</ele>
<time>2010-08-29T08:53:32Z</time>
<desc>lat.=55.963062, lon.=26.543152, Alt.=152.908325m. Speed=3.564000m/h.</desc>
<speed>0.990000</speed>
</trkpt>
<trkpt lat="55.963093" lon="26.543110">
<ele>152.623169</ele>
<time>2010-08-29T08:53:33Z</time>
<desc>lat.=55.963093, lon.=26.543110, Alt.=152.623169m. Speed=5.436000m/h.</desc>
<speed>1.510000</speed>
</trkpt>
<trkpt lat="55.963127" lon="26.543066">
<ele>152.689575</ele>
<time>2010-08-29T08:53:34Z</time>
<desc>lat.=55.963127, lon.=26.543066, Alt.=152.689575m. Speed=6.192000m/h.</desc>
<speed>1.720000</speed>
</trkpt>
<trkpt lat="55.963150" lon="26.543026">
<ele>152.630981</ele>
<time>2010-08-29T08:53:35Z</time>
<desc>lat.=55.963150, lon.=26.543026, Alt.=152.630981m. Speed=6.480000m/h.</desc>
<speed>1.800000</speed>
</trkpt>
<trkpt lat="55.963181" lon="26.542986">
<ele>152.865356</ele>
<time>2010-08-29T08:53:36Z</time>
<desc>lat.=55.963181, lon.=26.542986, Alt.=152.865356m. Speed=6.912000m/h.</desc>
<speed>1.920000</speed>
</trkpt>
<trkpt lat="55.963203" lon="26.542946">
<ele>152.955200</ele>
<time>2010-08-29T08:53:37Z</time>
<desc>lat.=55.963203, lon.=26.542946, Alt.=152.955200m. Speed=6.444000m/h.</desc>
<speed>1.790000</speed>
</trkpt>
<trkpt lat="55.963238" lon="26.542910">
<ele>152.638794</ele>
<time>2010-08-29T08:53:38Z</time>
<desc>lat.=55.963238, lon.=26.542910, Alt.=152.638794m. Speed=8.496000m/h.</desc>
<speed>2.360000</speed>
</trkpt>
<trkpt lat="55.963257" lon="26.542885">
<ele>152.630981</ele>
<time>2010-08-29T08:53:39Z</time>
<desc>lat.=55.963257, lon.=26.542885, Alt.=152.630981m. Speed=6.264000m/h.</desc>
<speed>1.740000</speed>
</trkpt>
<trkpt lat="55.963280" lon="26.542860">
<ele>153.197388</ele>
<time>2010-08-29T08:53:40Z</time>
<desc>lat.=55.963280, lon.=26.542860, Alt.=153.197388m. Speed=6.660000m/h.</desc>
<speed>1.850000</speed>
</trkpt>
<trkpt lat="55.963314" lon="26.542828">
<ele>152.779419</ele>
<time>2010-08-29T08:53:41Z</time>
<desc>lat.=55.963314, lon.=26.542828, Alt.=152.779419m. Speed=7.056000m/h.</desc>
<speed>1.960000</speed>
</trkpt>
<trkpt lat="55.963329" lon="26.542810">
<ele>152.552856</ele>
<time>2010-08-29T08:53:42Z</time>
<desc>lat.=55.963329, lon.=26.542810, Alt.=152.552856m. Speed=4.824000m/h.</desc>
<speed>1.340000</speed>
</trkpt>
<trkpt lat="55.963348" lon="26.542803">
<ele>152.427856</ele>
<time>2010-08-29T08:53:43Z</time>
<desc>lat.=55.963348, lon.=26.542803, Alt.=152.427856m. Speed=4.212000m/h.</desc>
<speed>1.170000</speed>
</trkpt>
<trkpt lat="55.963364" lon="26.542784">
<ele>152.056763</ele>
<time>2010-08-29T08:53:44Z</time>
<desc>lat.=55.963364, lon.=26.542784, Alt.=152.056763m. Speed=6.264000m/h.</desc>
<speed>1.740000</speed>
</trkpt>
<trkpt lat="55.963390" lon="26.542755">
<ele>151.173950</ele>
<time>2010-08-29T08:53:45Z</time>
<desc>lat.=55.963390, lon.=26.542755, Alt.=151.173950m. Speed=5.544000m/h.</desc>
<speed>1.540000</speed>
</trkpt>
<trkpt lat="55.963413" lon="26.542730">
<ele>150.670044</ele>
<time>2010-08-29T08:53:46Z</time>
<desc>lat.=55.963413, lon.=26.542730, Alt.=150.670044m. Speed=6.768000m/h.</desc>
<speed>1.880000</speed>
</trkpt>
<trkpt lat="55.963440" lon="26.542709">
<ele>150.045044</ele>
<time>2010-08-29T08:53:47Z</time>
<desc>lat.=55.963440, lon.=26.542709, Alt.=150.045044m. Speed=7.308000m/h.</desc>
<speed>2.030000</speed>
</trkpt>
<trkpt lat="55.963463" lon="26.542692">
<ele>149.326294</ele>
<time>2010-08-29T08:53:48Z</time>
<desc>lat.=55.963463, lon.=26.542692, Alt.=149.326294m. Speed=5.796000m/h.</desc>
<speed>1.610000</speed>
</trkpt>
<trkpt lat="55.963486" lon="26.542671">
<ele>148.865356</ele>
<time>2010-08-29T08:53:49Z</time>
<desc>lat.=55.963486, lon.=26.542671, Alt.=148.865356m. Speed=5.976000m/h.</desc>
<speed>1.660000</speed>
</trkpt>
<trkpt lat="55.963516" lon="26.542648">
<ele>148.173950</ele>
<time>2010-08-29T08:53:50Z</time>
<desc>lat.=55.963516, lon.=26.542648, Alt.=148.173950m. Speed=5.832000m/h.</desc>
<speed>1.620000</speed>
</trkpt>
<trkpt lat="55.963539" lon="26.542624">
<ele>147.306763</ele>
<time>2010-08-29T08:53:51Z</time>
<desc>lat.=55.963539, lon.=26.542624, Alt.=147.306763m. Speed=6.516000m/h.</desc>
<speed>1.810000</speed>
</trkpt>
<trkpt lat="55.963573" lon="26.542599">
<ele>146.736450</ele>
<time>2010-08-29T08:53:52Z</time>
<desc>lat.=55.963573, lon.=26.542599, Alt.=146.736450m. Speed=6.948000m/h.</desc>
<speed>1.930000</speed>
</trkpt>
<trkpt lat="55.963634" lon="26.542551">
<ele>145.091919</ele>
<time>2010-08-29T08:53:53Z</time>
<desc>lat.=55.963634, lon.=26.542551, Alt.=145.091919m. Speed=9.036000m/h.</desc>
<speed>2.510000</speed>
</trkpt>
<trkpt lat="55.963657" lon="26.542536">
<ele>144.615356</ele>
<time>2010-08-29T08:53:54Z</time>
<desc>lat.=55.963657, lon.=26.542536, Alt.=144.615356m. Speed=8.388000m/h.</desc>
<speed>2.330000</speed>
</trkpt>
<trkpt lat="55.963688" lon="26.542517">
<ele>144.205200</ele>
<time>2010-08-29T08:53:55Z</time>
<desc>lat.=55.963688, lon.=26.542517, Alt.=144.205200m. Speed=7.920000m/h.</desc>
<speed>2.200000</speed>
</trkpt>
<trkpt lat="55.963722" lon="26.542509">
<ele>144.138794</ele>
<time>2010-08-29T08:53:56Z</time>
<desc>lat.=55.963722, lon.=26.542509, Alt.=144.138794m. Speed=7.884000m/h.</desc>
<speed>2.190000</speed>
</trkpt>
<trkpt lat="55.963753" lon="26.542496">
<ele>143.525513</ele>
<time>2010-08-29T08:53:57Z</time>
<desc>lat.=55.963753, lon.=26.542496, Alt.=143.525513m. Speed=8.460000m/h.</desc>
<speed>2.350000</speed>
</trkpt>
<trkpt lat="55.963783" lon="26.542484">
<ele>143.537231</ele>
<time>2010-08-29T08:53:58Z</time>
<desc>lat.=55.963783, lon.=26.542484, Alt.=143.537231m. Speed=7.848000m/h.</desc>
<speed>2.180000</speed>
</trkpt>
<trkpt lat="55.963806" lon="26.542479">
<ele>143.423950</ele>
<time>2010-08-29T08:53:59Z</time>
<desc>lat.=55.963806, lon.=26.542479, Alt.=143.423950m. Speed=7.380000m/h.</desc>
<speed>2.050000</speed>
</trkpt>
<trkpt lat="55.963825" lon="26.542469">
<ele>142.888794</ele>
<time>2010-08-29T08:54:00Z</time>
<desc>lat.=55.963825, lon.=26.542469, Alt.=142.888794m. Speed=5.220000m/h.</desc>
<speed>1.450000</speed>
</trkpt>
<trkpt lat="55.963852" lon="26.542471">
<ele>141.923950</ele>
<time>2010-08-29T08:54:01Z</time>
<desc>lat.=55.963852, lon.=26.542471, Alt.=141.923950m. Speed=8.316000m/h.</desc>
<speed>2.310000</speed>
</trkpt>
<trkpt lat="55.963882" lon="26.542458">
<ele>142.318481</ele>
<time>2010-08-29T08:54:02Z</time>
<desc>lat.=55.963882, lon.=26.542458, Alt.=142.318481m. Speed=7.452000m/h.</desc>
<speed>2.070000</speed>
</trkpt>
<trkpt lat="55.963909" lon="26.542440">
<ele>141.904419</ele>
<time>2010-08-29T08:54:03Z</time>
<desc>lat.=55.963909, lon.=26.542440, Alt.=141.904419m. Speed=8.640000m/h.</desc>
<speed>2.400000</speed>
</trkpt>
<trkpt lat="55.963936" lon="26.542425">
<ele>140.537231</ele>
<time>2010-08-29T08:54:04Z</time>
<desc>lat.=55.963936, lon.=26.542425, Alt.=140.537231m. Speed=8.784000m/h.</desc>
<speed>2.440000</speed>
</trkpt>
<trkpt lat="55.963959" lon="26.542391">
<ele>139.834106</ele>
<time>2010-08-29T08:54:05Z</time>
<desc>lat.=55.963959, lon.=26.542391, Alt.=139.834106m. Speed=7.128000m/h.</desc>
<speed>1.980000</speed>
</trkpt>
<trkpt lat="55.963982" lon="26.542368">
<ele>138.384888</ele>
<time>2010-08-29T08:54:06Z</time>
<desc>lat.=55.963982, lon.=26.542368, Alt.=138.384888m. Speed=6.012000m/h.</desc>
<speed>1.670000</speed>
</trkpt>
<trkpt lat="55.964008" lon="26.542360">
<ele>137.845825</ele>
<time>2010-08-29T08:54:07Z</time>
<desc>lat.=55.964008, lon.=26.542360, Alt.=137.845825m. Speed=6.984000m/h.</desc>
<speed>1.940000</speed>
</trkpt>
<trkpt lat="55.964024" lon="26.542337">
<ele>136.396606</ele>
<time>2010-08-29T08:54:08Z</time>
<desc>lat.=55.964024, lon.=26.542337, Alt.=136.396606m. Speed=4.968000m/h.</desc>
<speed>1.380000</speed>
</trkpt>
<trkpt lat="55.964054" lon="26.542320">
<ele>135.931763</ele>
<time>2010-08-29T08:54:09Z</time>
<desc>lat.=55.964054, lon.=26.542320, Alt.=135.931763m. Speed=7.776000m/h.</desc>
<speed>2.160000</speed>
</trkpt>
<trkpt lat="55.964081" lon="26.542305">
<ele>135.322388</ele>
<time>2010-08-29T08:54:10Z</time>
<desc>lat.=55.964081, lon.=26.542305, Alt.=135.322388m. Speed=7.272000m/h.</desc>
<speed>2.020000</speed>
</trkpt>
<trkpt lat="55.964119" lon="26.542303">
<ele>134.568481</ele>
<time>2010-08-29T08:54:11Z</time>
<desc>lat.=55.964119, lon.=26.542303, Alt.=134.568481m. Speed=9.000000m/h.</desc>
<speed>2.500000</speed>
</trkpt>
<trkpt lat="55.964149" lon="26.542290">
<ele>134.845825</ele>
<time>2010-08-29T08:54:12Z</time>
<desc>lat.=55.964149, lon.=26.542290, Alt.=134.845825m. Speed=9.756000m/h.</desc>
<speed>2.710000</speed>
</trkpt>
<trkpt lat="55.964172" lon="26.542286">
<ele>134.451294</ele>
<time>2010-08-29T08:54:13Z</time>
<desc>lat.=55.964172, lon.=26.542286, Alt.=134.451294m. Speed=5.292000m/h.</desc>
<speed>1.470000</speed>
</trkpt>
<trkpt lat="55.964207" lon="26.542273">
<ele>133.716919</ele>
<time>2010-08-29T08:54:14Z</time>
<desc>lat.=55.964207, lon.=26.542273, Alt.=133.716919m. Speed=7.344000m/h.</desc>
<speed>2.040000</speed>
</trkpt>
<trkpt lat="55.964233" lon="26.542257">
<ele>132.287231</ele>
<time>2010-08-29T08:54:15Z</time>
<desc>lat.=55.964233, lon.=26.542257, Alt.=132.287231m. Speed=8.460000m/h.</desc>
<speed>2.350000</speed>
</trkpt>
<trkpt lat="55.964256" lon="26.542252">
<ele>131.193481</ele>
<time>2010-08-29T08:54:16Z</time>
<desc>lat.=55.964256, lon.=26.542252, Alt.=131.193481m. Speed=8.748000m/h.</desc>
<speed>2.430000</speed>
</trkpt>
<trkpt lat="55.964279" lon="26.542246">
<ele>130.252075</ele>
<time>2010-08-29T08:54:17Z</time>
<desc>lat.=55.964279, lon.=26.542246, Alt.=130.252075m. Speed=8.280000m/h.</desc>
<speed>2.300000</speed>
</trkpt>
<trkpt lat="55.964310" lon="26.542248">
<ele>130.689575</ele>
<time>2010-08-29T08:54:18Z</time>
<desc>lat.=55.964310, lon.=26.542248, Alt.=130.689575m. Speed=8.028000m/h.</desc>
<speed>2.230000</speed>
</trkpt>
<trkpt lat="55.964348" lon="26.542233">
<ele>130.349731</ele>
<time>2010-08-29T08:54:19Z</time>
<desc>lat.=55.964348, lon.=26.542233, Alt.=130.349731m. Speed=9.720000m/h.</desc>
<speed>2.700000</speed>
</trkpt>
<trkpt lat="55.964375" lon="26.542217">
<ele>129.755981</ele>
<time>2010-08-29T08:54:20Z</time>
<desc>lat.=55.964375, lon.=26.542217, Alt.=129.755981m. Speed=8.136000m/h.</desc>
<speed>2.260000</speed>
</trkpt>
<trkpt lat="55.964405" lon="26.542206">
<ele>128.697388</ele>
<time>2010-08-29T08:54:21Z</time>
<desc>lat.=55.964405, lon.=26.542206, Alt.=128.697388m. Speed=8.784000m/h.</desc>
<speed>2.440000</speed>
</trkpt>
<trkpt lat="55.964432" lon="26.542204">
<ele>127.444397</ele>
<time>2010-08-29T08:54:22Z</time>
<desc>lat.=55.964432, lon.=26.542204, Alt.=127.444397m. Speed=8.172000m/h.</desc>
<speed>2.270000</speed>
</trkpt>
<trkpt lat="55.964466" lon="26.542198">
<ele>126.764709</ele>
<time>2010-08-29T08:54:23Z</time>
<desc>lat.=55.964466, lon.=26.542198, Alt.=126.764709m. Speed=8.136000m/h.</desc>
<speed>2.260000</speed>
</trkpt>
<trkpt lat="55.964508" lon="26.542191">
<ele>126.329163</ele>
<time>2010-08-29T08:54:24Z</time>
<desc>lat.=55.964508, lon.=26.542191, Alt.=126.329163m. Speed=10.260000m/h.</desc>
<speed>2.850000</speed>
</trkpt>
<trkpt lat="55.964558" lon="26.542152">
<ele>125.129944</ele>
<time>2010-08-29T08:54:25Z</time>
<desc>lat.=55.964558, lon.=26.542152, Alt.=125.129944m. Speed=8.460000m/h.</desc>
<speed>2.350000</speed>
</trkpt>
<trkpt lat="55.964592" lon="26.542139">
<ele>124.749084</ele>
<time>2010-08-29T08:54:26Z</time>
<desc>lat.=55.964592, lon.=26.542139, Alt.=124.749084m. Speed=7.884000m/h.</desc>
<speed>2.190000</speed>
</trkpt>
<trkpt lat="55.964622" lon="26.542143">
<ele>124.710022</ele>
<time>2010-08-29T08:54:27Z</time>
<desc>lat.=55.964622, lon.=26.542143, Alt.=124.710022m. Speed=7.668000m/h.</desc>
<speed>2.130000</speed>
</trkpt>
<trkpt lat="55.964657" lon="26.542152">
<ele>123.831116</ele>
<time>2010-08-29T08:54:28Z</time>
<desc>lat.=55.964657, lon.=26.542152, Alt.=123.831116m. Speed=7.992000m/h.</desc>
<speed>2.220000</speed>
</trkpt>
<trkpt lat="55.964687" lon="26.542154">
<ele>124.374084</ele>
<time>2010-08-29T08:54:29Z</time>
<desc>lat.=55.964687, lon.=26.542154, Alt.=124.374084m. Speed=8.496000m/h.</desc>
<speed>2.360000</speed>
</trkpt>
<trkpt lat="55.964718" lon="26.542150">
<ele>125.053772</ele>
<time>2010-08-29T08:54:30Z</time>
<desc>lat.=55.964718, lon.=26.542150, Alt.=125.053772m. Speed=6.732000m/h.</desc>
<speed>1.870000</speed>
</trkpt>
<trkpt lat="55.964752" lon="26.542139">
<ele>125.274475</ele>
<time>2010-08-29T08:54:31Z</time>
<desc>lat.=55.964752, lon.=26.542139, Alt.=125.274475m. Speed=8.496000m/h.</desc>
<speed>2.360000</speed>
</trkpt>
<trkpt lat="55.964783" lon="26.542133">
<ele>125.661194</ele>
<time>2010-08-29T08:54:32Z</time>
<desc>lat.=55.964783, lon.=26.542133, Alt.=125.661194m. Speed=8.640000m/h.</desc>
<speed>2.400000</speed>
</trkpt>
<trkpt lat="55.964817" lon="26.542128">
<ele>125.745178</ele>
<time>2010-08-29T08:54:33Z</time>
<desc>lat.=55.964817, lon.=26.542128, Alt.=125.745178m. Speed=8.748000m/h.</desc>
<speed>2.430000</speed>
</trkpt>
<trkpt lat="55.964848" lon="26.542118">
<ele>125.526428</ele>
<time>2010-08-29T08:54:34Z</time>
<desc>lat.=55.964848, lon.=26.542118, Alt.=125.526428m. Speed=9.612000m/h.</desc>
<speed>2.670000</speed>
</trkpt>
<trkpt lat="55.964882" lon="26.542099">
<ele>125.586975</ele>
<time>2010-08-29T08:54:35Z</time>
<desc>lat.=55.964882, lon.=26.542099, Alt.=125.586975m. Speed=8.784000m/h.</desc>
<speed>2.440000</speed>
</trkpt>
<trkpt lat="55.964928" lon="26.542091">
<ele>124.842834</ele>
<time>2010-08-29T08:54:36Z</time>
<desc>lat.=55.964928, lon.=26.542091, Alt.=124.842834m. Speed=10.980000m/h.</desc>
<speed>3.050000</speed>
</trkpt>
<trkpt lat="55.964970" lon="26.542082">
<ele>124.864319</ele>
<time>2010-08-29T08:54:37Z</time>
<desc>lat.=55.964970, lon.=26.542082, Alt.=124.864319m. Speed=11.772000m/h.</desc>
<speed>3.270000</speed>
</trkpt>
<trkpt lat="55.965000" lon="26.542072">
<ele>124.780334</ele>
<time>2010-08-29T08:54:38Z</time>
<desc>lat.=55.965000, lon.=26.542072, Alt.=124.780334m. Speed=11.880000m/h.</desc>
<speed>3.300000</speed>
</trkpt>
<trkpt lat="55.965050" lon="26.542068">
<ele>123.415100</ele>
<time>2010-08-29T08:54:39Z</time>
<desc>lat.=55.965050, lon.=26.542068, Alt.=123.415100m. Speed=10.836000m/h.</desc>
<speed>3.010000</speed>
</trkpt>
<trkpt lat="55.965092" lon="26.542061">
<ele>123.137756</ele>
<time>2010-08-29T08:54:40Z</time>
<desc>lat.=55.965092, lon.=26.542061, Alt.=123.137756m. Speed=8.604000m/h.</desc>
<speed>2.390000</speed>
</trkpt>
<trkpt lat="55.965122" lon="26.542053">
<ele>123.094788</ele>
<time>2010-08-29T08:54:41Z</time>
<desc>lat.=55.965122, lon.=26.542053, Alt.=123.094788m. Speed=6.768000m/h.</desc>
<speed>1.880000</speed>
</trkpt>
<trkpt lat="55.965172" lon="26.542057">
<ele>123.342834</ele>
<time>2010-08-29T08:54:42Z</time>
<desc>lat.=55.965172, lon.=26.542057, Alt.=123.342834m. Speed=9.720000m/h.</desc>
<speed>2.700000</speed>
</trkpt>
<trkpt lat="55.965195" lon="26.542053">
<ele>123.147522</ele>
<time>2010-08-29T08:54:43Z</time>
<desc>lat.=55.965195, lon.=26.542053, Alt.=123.147522m. Speed=10.908000m/h.</desc>
<speed>3.030000</speed>
</trkpt>
<trkpt lat="55.965244" lon="26.542044">
<ele>123.147522</ele>
<time>2010-08-29T08:54:44Z</time>
<desc>lat.=55.965244, lon.=26.542044, Alt.=123.147522m. Speed=11.124000m/h.</desc>
<speed>3.090000</speed>
</trkpt>
<trkpt lat="55.965290" lon="26.542042">
<ele>124.116272</ele>
<time>2010-08-29T08:54:45Z</time>
<desc>lat.=55.965290, lon.=26.542042, Alt.=124.116272m. Speed=9.144000m/h.</desc>
<speed>2.540000</speed>
</trkpt>
<trkpt lat="55.965328" lon="26.542044">
<ele>124.270569</ele>
<time>2010-08-29T08:54:46Z</time>
<desc>lat.=55.965328, lon.=26.542044, Alt.=124.270569m. Speed=10.548000m/h.</desc>
<speed>2.930000</speed>
</trkpt>
<trkpt lat="55.965366" lon="26.542028">
<ele>123.858459</ele>
<time>2010-08-29T08:54:47Z</time>
<desc>lat.=55.965366, lon.=26.542028, Alt.=123.858459m. Speed=10.404000m/h.</desc>
<speed>2.890000</speed>
</trkpt>
<trkpt lat="55.965416" lon="26.542011">
<ele>123.858459</ele>
<time>2010-08-29T08:54:48Z</time>
<desc>lat.=55.965416, lon.=26.542011, Alt.=123.858459m. Speed=11.304000m/h.</desc>
<speed>3.140000</speed>
</trkpt>
<trkpt lat="55.965443" lon="26.542006">
<ele>123.772522</ele>
<time>2010-08-29T08:54:49Z</time>
<desc>lat.=55.965443, lon.=26.542006, Alt.=123.772522m. Speed=11.232000m/h.</desc>
<speed>3.120000</speed>
</trkpt>
<trkpt lat="55.965492" lon="26.542007">
<ele>123.731506</ele>
<time>2010-08-29T08:54:50Z</time>
<desc>lat.=55.965492, lon.=26.542007, Alt.=123.731506m. Speed=10.764000m/h.</desc>
<speed>2.990000</speed>
</trkpt>
<trkpt lat="55.965530" lon="26.542004">
<ele>124.506897</ele>
<time>2010-08-29T08:54:51Z</time>
<desc>lat.=55.965530, lon.=26.542004, Alt.=124.506897m. Speed=9.504000m/h.</desc>
<speed>2.640000</speed>
</trkpt>
<trkpt lat="55.965565" lon="26.541998">
<ele>125.262756</ele>
<time>2010-08-29T08:54:52Z</time>
<desc>lat.=55.965565, lon.=26.541998, Alt.=125.262756m. Speed=9.216000m/h.</desc>
<speed>2.560000</speed>
</trkpt>
<trkpt lat="55.965603" lon="26.541967">
<ele>125.321350</ele>
<time>2010-08-29T08:54:53Z</time>
<desc>lat.=55.965603, lon.=26.541967, Alt.=125.321350m. Speed=10.800000m/h.</desc>
<speed>3.000000</speed>
</trkpt>
<trkpt lat="55.965645" lon="26.541956">
<ele>124.596741</ele>
<time>2010-08-29T08:54:54Z</time>
<desc>lat.=55.965645, lon.=26.541956, Alt.=124.596741m. Speed=11.340000m/h.</desc>
<speed>3.150000</speed>
</trkpt>
<trkpt lat="55.965672" lon="26.541937">
<ele>124.045959</ele>
<time>2010-08-29T08:54:55Z</time>
<desc>lat.=55.965672, lon.=26.541937, Alt.=124.045959m. Speed=9.864000m/h.</desc>
<speed>2.740000</speed>
</trkpt>
<trkpt lat="55.965717" lon="26.541914">
<ele>124.299866</ele>
<time>2010-08-29T08:54:56Z</time>
<desc>lat.=55.965717, lon.=26.541914, Alt.=124.299866m. Speed=12.168000m/h.</desc>
<speed>3.380000</speed>
</trkpt>
<trkpt lat="55.965763" lon="26.541901">
<ele>125.231506</ele>
<time>2010-08-29T08:54:57Z</time>
<desc>lat.=55.965763, lon.=26.541901, Alt.=125.231506m. Speed=12.168000m/h.</desc>
<speed>3.380000</speed>
</trkpt>
<trkpt lat="55.965797" lon="26.541887">
<ele>126.706116</ele>
<time>2010-08-29T08:54:58Z</time>
<desc>lat.=55.965797, lon.=26.541887, Alt.=126.706116m. Speed=10.548000m/h.</desc>
<speed>2.930000</speed>
</trkpt>
<trkpt lat="55.965832" lon="26.541874">
<ele>127.526428</ele>
<time>2010-08-29T08:54:59Z</time>
<desc>lat.=55.965832, lon.=26.541874, Alt.=127.526428m. Speed=10.548000m/h.</desc>
<speed>2.930000</speed>
</trkpt>
<trkpt lat="55.965866" lon="26.541853">
<ele>127.903381</ele>
<time>2010-08-29T08:55:00Z</time>
<desc>lat.=55.965866, lon.=26.541853, Alt.=127.903381m. Speed=9.360000m/h.</desc>
<speed>2.600000</speed>
</trkpt>
<trkpt lat="55.965900" lon="26.541826">
<ele>127.411194</ele>
<time>2010-08-29T08:55:01Z</time>
<desc>lat.=55.965900, lon.=26.541826, Alt.=127.411194m. Speed=11.412000m/h.</desc>
<speed>3.170000</speed>
</trkpt>
<trkpt lat="55.965923" lon="26.541800">
<ele>127.344788</ele>
<time>2010-08-29T08:55:02Z</time>
<desc>lat.=55.965923, lon.=26.541800, Alt.=127.344788m. Speed=7.776000m/h.</desc>
<speed>2.160000</speed>
</trkpt>
<trkpt lat="55.965946" lon="26.541782">
<ele>127.848694</ele>
<time>2010-08-29T08:55:03Z</time>
<desc>lat.=55.965946, lon.=26.541782, Alt.=127.848694m. Speed=9.324000m/h.</desc>
<speed>2.590000</speed>
</trkpt>
<trkpt lat="55.965977" lon="26.541767">
<ele>127.741272</ele>
<time>2010-08-29T08:55:04Z</time>
<desc>lat.=55.965977, lon.=26.541767, Alt.=127.741272m. Speed=11.304000m/h.</desc>
<speed>3.140000</speed>
</trkpt>
<trkpt lat="55.966011" lon="26.541758">
<ele>126.901428</ele>
<time>2010-08-29T08:55:05Z</time>
<desc>lat.=55.966011, lon.=26.541758, Alt.=126.901428m. Speed=10.260000m/h.</desc>
<speed>2.850000</speed>
</trkpt>
<trkpt lat="55.966038" lon="26.541746">
<ele>126.258850</ele>
<time>2010-08-29T08:55:06Z</time>
<desc>lat.=55.966038, lon.=26.541746, Alt.=126.258850m. Speed=9.432000m/h.</desc>
<speed>2.620000</speed>
</trkpt>
<trkpt lat="55.966072" lon="26.541750">
<ele>125.657288</ele>
<time>2010-08-29T08:55:07Z</time>
<desc>lat.=55.966072, lon.=26.541750, Alt.=125.657288m. Speed=10.476000m/h.</desc>
<speed>2.910000</speed>
</trkpt>
<trkpt lat="55.966106" lon="26.541746">
<ele>125.532288</ele>
<time>2010-08-29T08:55:08Z</time>
<desc>lat.=55.966106, lon.=26.541746, Alt.=125.532288m. Speed=9.864000m/h.</desc>
<speed>2.740000</speed>
</trkpt>
<trkpt lat="55.966133" lon="26.541739">
<ele>124.981506</ele>
<time>2010-08-29T08:55:09Z</time>
<desc>lat.=55.966133, lon.=26.541739, Alt.=124.981506m. Speed=10.044000m/h.</desc>
<speed>2.790000</speed>
</trkpt>
<trkpt lat="55.966171" lon="26.541735">
<ele>124.122131</ele>
<time>2010-08-29T08:55:10Z</time>
<desc>lat.=55.966171, lon.=26.541735, Alt.=124.122131m. Speed=10.836000m/h.</desc>
<speed>3.010000</speed>
</trkpt>
<trkpt lat="55.966198" lon="26.541729">
<ele>123.292053</ele>
<time>2010-08-29T08:55:11Z</time>
<desc>lat.=55.966198, lon.=26.541729, Alt.=123.292053m. Speed=9.216000m/h.</desc>
<speed>2.560000</speed>
</trkpt>
<trkpt lat="55.966228" lon="26.541716">
<ele>120.579163</ele>
<time>2010-08-29T08:55:12Z</time>
<desc>lat.=55.966228, lon.=26.541716, Alt.=120.579163m. Speed=10.152000m/h.</desc>
<speed>2.820000</speed>
</trkpt>
<trkpt lat="55.966255" lon="26.541708">
<ele>119.354553</ele>
<time>2010-08-29T08:55:13Z</time>
<desc>lat.=55.966255, lon.=26.541708, Alt.=119.354553m. Speed=9.180000m/h.</desc>
<speed>2.550000</speed>
</trkpt>
<trkpt lat="55.966290" lon="26.541698">
<ele>118.202209</ele>
<time>2010-08-29T08:55:14Z</time>
<desc>lat.=55.966290, lon.=26.541698, Alt.=118.202209m. Speed=9.864000m/h.</desc>
<speed>2.740000</speed>
</trkpt>
<trkpt lat="55.966324" lon="26.541691">
<ele>117.961975</ele>
<time>2010-08-29T08:55:15Z</time>
<desc>lat.=55.966324, lon.=26.541691, Alt.=117.961975m. Speed=9.900000m/h.</desc>
<speed>2.750000</speed>
</trkpt>
<trkpt lat="55.966358" lon="26.541687">
<ele>117.653381</ele>
<time>2010-08-29T08:55:16Z</time>
<desc>lat.=55.966358, lon.=26.541687, Alt.=117.653381m. Speed=9.684000m/h.</desc>
<speed>2.690000</speed>
</trkpt>
<trkpt lat="55.966396" lon="26.541687">
<ele>117.221741</ele>
<time>2010-08-29T08:55:17Z</time>
<desc>lat.=55.966396, lon.=26.541687, Alt.=117.221741m. Speed=9.936000m/h.</desc>
<speed>2.760000</speed>
</trkpt>
<trkpt lat="55.966434" lon="26.541689">
<ele>116.807678</ele>
<time>2010-08-29T08:55:18Z</time>
<desc>lat.=55.966434, lon.=26.541689, Alt.=116.807678m. Speed=9.936000m/h.</desc>
<speed>2.760000</speed>
</trkpt>
<trkpt lat="55.966476" lon="26.541704">
<ele>116.188538</ele>
<time>2010-08-29T08:55:19Z</time>
<desc>lat.=55.966476, lon.=26.541704, Alt.=116.188538m. Speed=9.324000m/h.</desc>
<speed>2.590000</speed>
</trkpt>
<trkpt lat="55.966499" lon="26.541698">
<ele>115.653381</ele>
<time>2010-08-29T08:55:20Z</time>
<desc>lat.=55.966499, lon.=26.541698, Alt.=115.653381m. Speed=7.848000m/h.</desc>
<speed>2.180000</speed>
</trkpt>
<trkpt lat="55.966534" lon="26.541685">
<ele>115.981506</ele>
<time>2010-08-29T08:55:21Z</time>
<desc>lat.=55.966534, lon.=26.541685, Alt.=115.981506m. Speed=7.308000m/h.</desc>
<speed>2.030000</speed>
</trkpt>
<trkpt lat="55.966579" lon="26.541693">
<ele>118.110413</ele>
<time>2010-08-29T08:55:22Z</time>
<desc>lat.=55.966579, lon.=26.541693, Alt.=118.110413m. Speed=9.396000m/h.</desc>
<speed>2.610000</speed>
</trkpt>
<trkpt lat="55.966637" lon="26.541698">
<ele>121.137756</ele>
<time>2010-08-29T08:55:23Z</time>
<desc>lat.=55.966637, lon.=26.541698, Alt.=121.137756m. Speed=9.540000m/h.</desc>
<speed>2.650000</speed>
</trkpt>
<trkpt lat="55.966671" lon="26.541697">
<ele>122.182678</ele>
<time>2010-08-29T08:55:24Z</time>
<desc>lat.=55.966671, lon.=26.541697, Alt.=122.182678m. Speed=8.676000m/h.</desc>
<speed>2.410000</speed>
</trkpt>
<trkpt lat="55.966694" lon="26.541695">
<ele>122.319397</ele>
<time>2010-08-29T08:55:25Z</time>
<desc>lat.=55.966694, lon.=26.541695, Alt.=122.319397m. Speed=7.848000m/h.</desc>
<speed>2.180000</speed>
</trkpt>
<trkpt lat="55.966724" lon="26.541697">
<ele>122.854553</ele>
<time>2010-08-29T08:55:26Z</time>
<desc>lat.=55.966724, lon.=26.541697, Alt.=122.854553m. Speed=9.288000m/h.</desc>
<speed>2.580000</speed>
</trkpt>
<trkpt lat="55.966763" lon="26.541700">
<ele>124.356506</ele>
<time>2010-08-29T08:55:27Z</time>
<desc>lat.=55.966763, lon.=26.541700, Alt.=124.356506m. Speed=8.964000m/h.</desc>
<speed>2.490000</speed>
</trkpt>
<trkpt lat="55.966793" lon="26.541708">
<ele>125.053772</ele>
<time>2010-08-29T08:55:28Z</time>
<desc>lat.=55.966793, lon.=26.541708, Alt.=125.053772m. Speed=9.540000m/h.</desc>
<speed>2.650000</speed>
</trkpt>
<trkpt lat="55.966824" lon="26.541714">
<ele>125.501038</ele>
<time>2010-08-29T08:55:29Z</time>
<desc>lat.=55.966824, lon.=26.541714, Alt.=125.501038m. Speed=9.900000m/h.</desc>
<speed>2.750000</speed>
</trkpt>
<trkpt lat="55.966862" lon="26.541712">
<ele>124.085022</ele>
<time>2010-08-29T08:55:30Z</time>
<desc>lat.=55.966862, lon.=26.541712, Alt.=124.085022m. Speed=9.000000m/h.</desc>
<speed>2.500000</speed>
</trkpt>
<trkpt lat="55.966892" lon="26.541708">
<ele>122.483459</ele>
<time>2010-08-29T08:55:31Z</time>
<desc>lat.=55.966892, lon.=26.541708, Alt.=122.483459m. Speed=7.776000m/h.</desc>
<speed>2.160000</speed>
</trkpt>
<trkpt lat="55.966915" lon="26.541702">
<ele>121.430725</ele>
<time>2010-08-29T08:55:32Z</time>
<desc>lat.=55.966915, lon.=26.541702, Alt.=121.430725m. Speed=5.868000m/h.</desc>
<speed>1.630000</speed>
</trkpt>
<trkpt lat="55.966934" lon="26.541710">
<ele>120.598694</ele>
<time>2010-08-29T08:55:33Z</time>
<desc>lat.=55.966934, lon.=26.541710, Alt.=120.598694m. Speed=4.824000m/h.</desc>
<speed>1.340000</speed>
</trkpt>
<trkpt lat="55.966949" lon="26.541714">
<ele>119.254944</ele>
<time>2010-08-29T08:55:34Z</time>
<desc>lat.=55.966949, lon.=26.541714, Alt.=119.254944m. Speed=2.592000m/h.</desc>
<speed>0.720000</speed>
</trkpt>
<trkpt lat="55.966949" lon="26.541718">
<ele>118.893616</ele>
<time>2010-08-29T08:55:35Z</time>
<desc>lat.=55.966949, lon.=26.541718, Alt.=118.893616m. Speed=1.152000m/h.</desc>
<speed>0.320000</speed>
</trkpt>
<trkpt lat="55.966949" lon="26.541723">
<ele>118.690491</ele>
<time>2010-08-29T08:55:36Z</time>
<desc>lat.=55.966949, lon.=26.541723, Alt.=118.690491m. Speed=1.008000m/h.</desc>
<speed>0.280000</speed>
</trkpt>
<trkpt lat="55.966949" lon="26.541735">
<ele>119.001038</ele>
<time>2010-08-29T08:55:37Z</time>
<desc>lat.=55.966949, lon.=26.541735, Alt.=119.001038m. Speed=1.512000m/h.</desc>
<speed>0.420000</speed>
</trkpt>
<trkpt lat="55.966949" lon="26.541740">
<ele>118.858459</ele>
<time>2010-08-29T08:55:38Z</time>
<desc>lat.=55.966949, lon.=26.541740, Alt.=118.858459m. Speed=2.952000m/h.</desc>
<speed>0.820000</speed>
</trkpt>
<trkpt lat="55.966942" lon="26.541752">
<ele>118.710022</ele>
<time>2010-08-29T08:55:39Z</time>
<desc>lat.=55.966942, lon.=26.541752, Alt.=118.710022m. Speed=3.132000m/h.</desc>
<speed>0.870000</speed>
</trkpt>
<trkpt lat="55.966938" lon="26.541765">
<ele>118.553772</ele>
<time>2010-08-29T08:55:40Z</time>
<desc>lat.=55.966938, lon.=26.541765, Alt.=118.553772m. Speed=3.168000m/h.</desc>
<speed>0.880000</speed>
</trkpt>
<trkpt lat="55.966938" lon="26.541779">
<ele>118.399475</ele>
<time>2010-08-29T08:55:41Z</time>
<desc>lat.=55.966938, lon.=26.541779, Alt.=118.399475m. Speed=3.132000m/h.</desc>
<speed>0.870000</speed>
</trkpt>
<trkpt lat="55.966938" lon="26.541792">
<ele>118.245178</ele>
<time>2010-08-29T08:55:42Z</time>
<desc>lat.=55.966938, lon.=26.541792, Alt.=118.245178m. Speed=2.844000m/h.</desc>
<speed>0.790000</speed>
</trkpt>
<trkpt lat="55.966938" lon="26.541805">
<ele>118.090881</ele>
<time>2010-08-29T08:55:43Z</time>
<desc>lat.=55.966938, lon.=26.541805, Alt.=118.090881m. Speed=3.096000m/h.</desc>
<speed>0.860000</speed>
</trkpt>
<trkpt lat="55.966938" lon="26.541821">
<ele>117.932678</ele>
<time>2010-08-29T08:55:44Z</time>
<desc>lat.=55.966938, lon.=26.541821, Alt.=117.932678m. Speed=6.300000m/h.</desc>
<speed>1.750000</speed>
</trkpt>
<trkpt lat="55.966938" lon="26.541882">
<ele>118.346741</ele>
<time>2010-08-29T08:55:45Z</time>
<desc>lat.=55.966938, lon.=26.541882, Alt.=118.346741m. Speed=8.532000m/h.</desc>
<speed>2.370000</speed>
</trkpt>
<trkpt lat="55.966938" lon="26.541939">
<ele>118.860413</ele>
<time>2010-08-29T08:55:46Z</time>
<desc>lat.=55.966938, lon.=26.541939, Alt.=118.860413m. Speed=6.192000m/h.</desc>
<speed>1.720000</speed>
</trkpt>
<trkpt lat="55.966930" lon="26.541986">
<ele>118.905334</ele>
<time>2010-08-29T08:55:47Z</time>
<desc>lat.=55.966930, lon.=26.541986, Alt.=118.905334m. Speed=5.544000m/h.</desc>
<speed>1.540000</speed>
</trkpt>
<trkpt lat="55.966927" lon="26.542030">
<ele>118.729553</ele>
<time>2010-08-29T08:55:48Z</time>
<desc>lat.=55.966927, lon.=26.542030, Alt.=118.729553m. Speed=5.004000m/h.</desc>
<speed>1.390000</speed>
</trkpt>
<trkpt lat="55.966927" lon="26.542065">
<ele>118.327209</ele>
<time>2010-08-29T08:55:49Z</time>
<desc>lat.=55.966927, lon.=26.542065, Alt.=118.327209m. Speed=4.176000m/h.</desc>
<speed>1.160000</speed>
</trkpt>
<trkpt lat="55.966961" lon="26.542124">
<ele>117.305725</ele>
<time>2010-08-29T08:55:50Z</time>
<desc>lat.=55.966961, lon.=26.542124, Alt.=117.305725m. Speed=4.032000m/h.</desc>
<speed>1.120000</speed>
</trkpt>
<trkpt lat="55.966949" lon="26.542179">
<ele>117.075256</ele>
<time>2010-08-29T08:55:51Z</time>
<desc>lat.=55.966949, lon.=26.542179, Alt.=117.075256m. Speed=3.744000m/h.</desc>
<speed>1.040000</speed>
</trkpt>
<trkpt lat="55.966953" lon="26.542229">
<ele>116.247131</ele>
<time>2010-08-29T08:55:52Z</time>
<desc>lat.=55.966953, lon.=26.542229, Alt.=116.247131m. Speed=4.824000m/h.</desc>
<speed>1.340000</speed>
</trkpt>
<trkpt lat="55.966949" lon="26.542263">
<ele>115.874084</ele>
<time>2010-08-29T08:55:53Z</time>
<desc>lat.=55.966949, lon.=26.542263, Alt.=115.874084m. Speed=3.312000m/h.</desc>
<speed>0.920000</speed>
</trkpt>
<trkpt lat="55.966949" lon="26.542311">
<ele>116.145569</ele>
<time>2010-08-29T08:55:54Z</time>
<desc>lat.=55.966949, lon.=26.542311, Alt.=116.145569m. Speed=8.388000m/h.</desc>
<speed>2.330000</speed>
</trkpt>
<trkpt lat="55.966946" lon="26.542376">
<ele>115.553772</ele>
<time>2010-08-29T08:55:55Z</time>
<desc>lat.=55.966946, lon.=26.542376, Alt.=115.553772m. Speed=6.300000m/h.</desc>
<speed>1.750000</speed>
</trkpt>
<trkpt lat="55.966942" lon="26.542416">
<ele>115.311584</ele>
<time>2010-08-29T08:55:56Z</time>
<desc>lat.=55.966942, lon.=26.542416, Alt.=115.311584m. Speed=5.760000m/h.</desc>
<speed>1.600000</speed>
</trkpt>
<trkpt lat="55.966938" lon="26.542456">
<ele>114.860413</ele>
<time>2010-08-29T08:55:57Z</time>
<desc>lat.=55.966938, lon.=26.542456, Alt.=114.860413m. Speed=3.996000m/h.</desc>
<speed>1.110000</speed>
</trkpt>
<trkpt lat="55.966938" lon="26.542488">
<ele>114.553772</ele>
<time>2010-08-29T08:55:58Z</time>
<desc>lat.=55.966938, lon.=26.542488, Alt.=114.553772m. Speed=3.564000m/h.</desc>
<speed>0.990000</speed>
</trkpt>
<trkpt lat="55.966938" lon="26.542534">
<ele>114.581116</ele>
<time>2010-08-29T08:55:59Z</time>
<desc>lat.=55.966938, lon.=26.542534, Alt.=114.581116m. Speed=3.420000m/h.</desc>
<speed>0.950000</speed>
</trkpt>
<trkpt lat="55.966938" lon="26.542566">
<ele>114.284241</ele>
<time>2010-08-29T08:56:00Z</time>
<desc>lat.=55.966938, lon.=26.542566, Alt.=114.284241m. Speed=3.600000m/h.</desc>
<speed>1.000000</speed>
</trkpt>
<trkpt lat="55.966938" lon="26.542593">
<ele>114.034241</ele>
<time>2010-08-29T08:56:01Z</time>
<desc>lat.=55.966938, lon.=26.542593, Alt.=114.034241m. Speed=2.232000m/h.</desc>
<speed>0.620000</speed>
</trkpt>
<trkpt lat="55.966972" lon="26.542625">
<ele>113.940491</ele>
<time>2010-08-29T08:56:02Z</time>
<desc>lat.=55.966972, lon.=26.542625, Alt.=113.940491m. Speed=6.264000m/h.</desc>
<speed>1.740000</speed>
</trkpt>
<trkpt lat="55.966976" lon="26.542658">
<ele>113.211975</ele>
<time>2010-08-29T08:56:03Z</time>
<desc>lat.=55.966976, lon.=26.542658, Alt.=113.211975m. Speed=3.744000m/h.</desc>
<speed>1.040000</speed>
</trkpt>
<trkpt lat="55.966972" lon="26.542690">
<ele>111.770569</ele>
<time>2010-08-29T08:56:04Z</time>
<desc>lat.=55.966972, lon.=26.542690, Alt.=111.770569m. Speed=4.500000m/h.</desc>
<speed>1.250000</speed>
</trkpt>
<trkpt lat="55.966972" lon="26.542717">
<ele>111.282288</ele>
<time>2010-08-29T08:56:05Z</time>
<desc>lat.=55.966972, lon.=26.542717, Alt.=111.282288m. Speed=3.924000m/h.</desc>
<speed>1.090000</speed>
</trkpt>
<trkpt lat="55.966976" lon="26.542751">
<ele>111.059631</ele>
<time>2010-08-29T08:56:06Z</time>
<desc>lat.=55.966976, lon.=26.542751, Alt.=111.059631m. Speed=2.772000m/h.</desc>
<speed>0.770000</speed>
</trkpt>
<trkpt lat="55.966988" lon="26.542784">
<ele>111.002991</ele>
<time>2010-08-29T08:56:07Z</time>
<desc>lat.=55.966988, lon.=26.542784, Alt.=111.002991m. Speed=4.860000m/h.</desc>
<speed>1.350000</speed>
</trkpt>
<trkpt lat="55.966999" lon="26.542831">
<ele>110.526428</ele>
<time>2010-08-29T08:56:08Z</time>
<desc>lat.=55.966999, lon.=26.542831, Alt.=110.526428m. Speed=2.664000m/h.</desc>
<speed>0.740000</speed>
</trkpt>
<trkpt lat="55.966995" lon="26.542856">
<ele>109.895569</ele>
<time>2010-08-29T08:56:09Z</time>
<desc>lat.=55.966995, lon.=26.542856, Alt.=109.895569m. Speed=2.304000m/h.</desc>
<speed>0.640000</speed>
</trkpt>
<trkpt lat="55.966995" lon="26.542904">
<ele>109.524475</ele>
<time>2010-08-29T08:56:10Z</time>
<desc>lat.=55.966995, lon.=26.542904, Alt.=109.524475m. Speed=2.916000m/h.</desc>
<speed>0.810000</speed>
</trkpt>
<trkpt lat="55.966984" lon="26.542946">
<ele>109.372131</ele>
<time>2010-08-29T08:56:11Z</time>
<desc>lat.=55.966984, lon.=26.542946, Alt.=109.372131m. Speed=2.952000m/h.</desc>
<speed>0.820000</speed>
</trkpt>
<trkpt lat="55.966980" lon="26.542988">
<ele>109.061584</ele>
<time>2010-08-29T08:56:12Z</time>
<desc>lat.=55.966980, lon.=26.542988, Alt.=109.061584m. Speed=3.096000m/h.</desc>
<speed>0.860000</speed>
</trkpt>
<trkpt lat="55.966980" lon="26.543030">
<ele>108.547913</ele>
<time>2010-08-29T08:56:13Z</time>
<desc>lat.=55.966980, lon.=26.543030, Alt.=108.547913m. Speed=3.456000m/h.</desc>
<speed>0.960000</speed>
</trkpt>
<trkpt lat="55.966980" lon="26.543066">
<ele>108.086975</ele>
<time>2010-08-29T08:56:14Z</time>
<desc>lat.=55.966980, lon.=26.543066, Alt.=108.086975m. Speed=3.924000m/h.</desc>
<speed>1.090000</speed>
</trkpt>
<trkpt lat="55.966980" lon="26.543097">
<ele>107.426819</ele>
<time>2010-08-29T08:56:15Z</time>
<desc>lat.=55.966980, lon.=26.543097, Alt.=107.426819m. Speed=3.420000m/h.</desc>
<speed>0.950000</speed>
</trkpt>
<trkpt lat="55.966980" lon="26.543123">
<ele>106.930725</ele>
<time>2010-08-29T08:56:16Z</time>
<desc>lat.=55.966980, lon.=26.543123, Alt.=106.930725m. Speed=2.880000m/h.</desc>
<speed>0.800000</speed>
</trkpt>
<trkpt lat="55.966988" lon="26.543152">
<ele>106.495178</ele>
<time>2010-08-29T08:56:17Z</time>
<desc>lat.=55.966988, lon.=26.543152, Alt.=106.495178m. Speed=3.240000m/h.</desc>
<speed>0.900000</speed>
</trkpt>
<trkpt lat="55.966995" lon="26.543177">
<ele>105.956116</ele>
<time>2010-08-29T08:56:18Z</time>
<desc>lat.=55.966995, lon.=26.543177, Alt.=105.956116m. Speed=3.060000m/h.</desc>
<speed>0.850000</speed>
</trkpt>
<trkpt lat="55.966995" lon="26.543196">
<ele>105.497131</ele>
<time>2010-08-29T08:56:19Z</time>
<desc>lat.=55.966995, lon.=26.543196, Alt.=105.497131m. Speed=3.204000m/h.</desc>
<speed>0.890000</speed>
</trkpt>
<trkpt lat="55.966995" lon="26.543232">
<ele>105.458069</ele>
<time>2010-08-29T08:56:20Z</time>
<desc>lat.=55.966995, lon.=26.543232, Alt.=105.458069m. Speed=3.420000m/h.</desc>
<speed>0.950000</speed>
</trkpt>
<trkpt lat="55.966999" lon="26.543261">
<ele>105.200256</ele>
<time>2010-08-29T08:56:21Z</time>
<desc>lat.=55.966999, lon.=26.543261, Alt.=105.200256m. Speed=3.168000m/h.</desc>
<speed>0.880000</speed>
</trkpt>
<trkpt lat="55.966995" lon="26.543285">
<ele>104.690491</ele>
<time>2010-08-29T08:56:22Z</time>
<desc>lat.=55.966995, lon.=26.543285, Alt.=104.690491m. Speed=2.844000m/h.</desc>
<speed>0.790000</speed>
</trkpt>
<trkpt lat="55.967003" lon="26.543335">
<ele>103.729553</ele>
<time>2010-08-29T08:56:23Z</time>
<desc>lat.=55.967003, lon.=26.543335, Alt.=103.729553m. Speed=3.960000m/h.</desc>
<speed>1.100000</speed>
</trkpt>
<trkpt lat="55.967018" lon="26.543394">
<ele>103.124084</ele>
<time>2010-08-29T08:56:24Z</time>
<desc>lat.=55.967018, lon.=26.543394, Alt.=103.124084m. Speed=4.140000m/h.</desc>
<speed>1.150000</speed>
</trkpt>
<trkpt lat="55.967026" lon="26.543453">
<ele>102.184631</ele>
<time>2010-08-29T08:56:25Z</time>
<desc>lat.=55.967026, lon.=26.543453, Alt.=102.184631m. Speed=3.816000m/h.</desc>
<speed>1.060000</speed>
</trkpt>
<trkpt lat="55.967033" lon="26.543509">
<ele>101.016663</ele>
<time>2010-08-29T08:56:26Z</time>
<desc>lat.=55.967033, lon.=26.543509, Alt.=101.016663m. Speed=4.248000m/h.</desc>
<speed>1.180000</speed>
</trkpt>
<trkpt lat="55.967033" lon="26.543537">
<ele>100.893616</ele>
<time>2010-08-29T08:56:27Z</time>
<desc>lat.=55.967033, lon.=26.543537, Alt.=100.893616m. Speed=4.320000m/h.</desc>
<speed>1.200000</speed>
</trkpt>
<trkpt lat="55.967026" lon="26.543566">
<ele>100.325256</ele>
<time>2010-08-29T08:56:28Z</time>
<desc>lat.=55.967026, lon.=26.543566, Alt.=100.325256m. Speed=3.564000m/h.</desc>
<speed>0.990000</speed>
</trkpt>
<trkpt lat="55.967022" lon="26.543596">
<ele>99.967834</ele>
<time>2010-08-29T08:56:29Z</time>
<desc>lat.=55.967022, lon.=26.543596, Alt.=99.967834m. Speed=3.240000m/h.</desc>
<speed>0.900000</speed>
</trkpt>
<trkpt lat="55.967026" lon="26.543627">
<ele>99.647522</ele>
<time>2010-08-29T08:56:30Z</time>
<desc>lat.=55.967026, lon.=26.543627, Alt.=99.647522m. Speed=2.952000m/h.</desc>
<speed>0.820000</speed>
</trkpt>
<trkpt lat="55.967030" lon="26.543667">
<ele>99.495178</ele>
<time>2010-08-29T08:56:31Z</time>
<desc>lat.=55.967030, lon.=26.543667, Alt.=99.495178m. Speed=3.528000m/h.</desc>
<speed>0.980000</speed>
</trkpt>
<trkpt lat="55.967026" lon="26.543694">
<ele>99.614319</ele>
<time>2010-08-29T08:56:32Z</time>
<desc>lat.=55.967026, lon.=26.543694, Alt.=99.614319m. Speed=2.772000m/h.</desc>
<speed>0.770000</speed>
</trkpt>
<trkpt lat="55.967030" lon="26.543720">
<ele>99.676819</ele>
<time>2010-08-29T08:56:33Z</time>
<desc>lat.=55.967030, lon.=26.543720, Alt.=99.676819m. Speed=2.808000m/h.</desc>
<speed>0.780000</speed>
</trkpt>
<trkpt lat="55.967030" lon="26.543745">
<ele>99.727600</ele>
<time>2010-08-29T08:56:34Z</time>
<desc>lat.=55.967030, lon.=26.543745, Alt.=99.727600m. Speed=2.088000m/h.</desc>
<speed>0.580000</speed>
</trkpt>
<trkpt lat="55.967033" lon="26.543776">
<ele>99.629944</ele>
<time>2010-08-29T08:56:35Z</time>
<desc>lat.=55.967033, lon.=26.543776, Alt.=99.629944m. Speed=3.456000m/h.</desc>
<speed>0.960000</speed>
</trkpt>
<trkpt lat="55.967033" lon="26.543798">
<ele>99.608459</ele>
<time>2010-08-29T08:56:36Z</time>
<desc>lat.=55.967033, lon.=26.543798, Alt.=99.608459m. Speed=3.204000m/h.</desc>
<speed>0.890000</speed>
</trkpt>
<trkpt lat="55.967045" lon="26.543825">
<ele>99.825256</ele>
<time>2010-08-29T08:56:37Z</time>
<desc>lat.=55.967045, lon.=26.543825, Alt.=99.825256m. Speed=4.032000m/h.</desc>
<speed>1.120000</speed>
</trkpt>
<trkpt lat="55.967049" lon="26.543869">
<ele>99.831116</ele>
<time>2010-08-29T08:56:38Z</time>
<desc>lat.=55.967049, lon.=26.543869, Alt.=99.831116m. Speed=4.824000m/h.</desc>
<speed>1.340000</speed>
</trkpt>
<trkpt lat="55.967056" lon="26.543900">
<ele>99.573303</ele>
<time>2010-08-29T08:56:39Z</time>
<desc>lat.=55.967056, lon.=26.543900, Alt.=99.573303m. Speed=4.752000m/h.</desc>
<speed>1.320000</speed>
</trkpt>
<trkpt lat="55.967064" lon="26.543930">
<ele>99.514709</ele>
<time>2010-08-29T08:56:40Z</time>
<desc>lat.=55.967064, lon.=26.543930, Alt.=99.514709m. Speed=4.320000m/h.</desc>
<speed>1.200000</speed>
</trkpt>
<trkpt lat="55.967068" lon="26.543955">
<ele>99.405334</ele>
<time>2010-08-29T08:56:41Z</time>
<desc>lat.=55.967068, lon.=26.543955, Alt.=99.405334m. Speed=2.376000m/h.</desc>
<speed>0.660000</speed>
</trkpt>
<trkpt lat="55.967072" lon="26.543970">
<ele>99.329163</ele>
<time>2010-08-29T08:56:42Z</time>
<desc>lat.=55.967072, lon.=26.543970, Alt.=99.329163m. Speed=2.268000m/h.</desc>
<speed>0.630000</speed>
</trkpt>
<trkpt lat="55.967072" lon="26.543995">
<ele>99.260803</ele>
<time>2010-08-29T08:56:43Z</time>
<desc>lat.=55.967072, lon.=26.543995, Alt.=99.260803m. Speed=2.556000m/h.</desc>
<speed>0.710000</speed>
</trkpt>
<trkpt lat="55.967072" lon="26.544029">
<ele>99.077209</ele>
<time>2010-08-29T08:56:44Z</time>
<desc>lat.=55.967072, lon.=26.544029, Alt.=99.077209m. Speed=3.204000m/h.</desc>
<speed>0.890000</speed>
</trkpt>
<trkpt lat="55.967072" lon="26.544044">
<ele>98.790100</ele>
<time>2010-08-29T08:56:45Z</time>
<desc>lat.=55.967072, lon.=26.544044, Alt.=98.790100m. Speed=3.240000m/h.</desc>
<speed>0.900000</speed>
</trkpt>
<trkpt lat="55.967075" lon="26.544065">
<ele>98.551819</ele>
<time>2010-08-29T08:56:46Z</time>
<desc>lat.=55.967075, lon.=26.544065, Alt.=98.551819m. Speed=3.852000m/h.</desc>
<speed>1.070000</speed>
</trkpt>
<trkpt lat="55.967079" lon="26.544085">
<ele>98.254944</ele>
<time>2010-08-29T08:56:47Z</time>
<desc>lat.=55.967079, lon.=26.544085, Alt.=98.254944m. Speed=3.204000m/h.</desc>
<speed>0.890000</speed>
</trkpt>
<trkpt lat="55.967083" lon="26.544104">
<ele>97.895569</ele>
<time>2010-08-29T08:56:48Z</time>
<desc>lat.=55.967083, lon.=26.544104, Alt.=97.895569m. Speed=3.672000m/h.</desc>
<speed>1.020000</speed>
</trkpt>
<trkpt lat="55.967091" lon="26.544125">
<ele>97.575256</ele>
<time>2010-08-29T08:56:49Z</time>
<desc>lat.=55.967091, lon.=26.544125, Alt.=97.575256m. Speed=3.672000m/h.</desc>
<speed>1.020000</speed>
</trkpt>
<trkpt lat="55.967094" lon="26.544151">
<ele>97.471741</ele>
<time>2010-08-29T08:56:50Z</time>
<desc>lat.=55.967094, lon.=26.544151, Alt.=97.471741m. Speed=4.356000m/h.</desc>
<speed>1.210000</speed>
</trkpt>
<trkpt lat="55.967106" lon="26.544168">
<ele>97.215881</ele>
<time>2010-08-29T08:56:51Z</time>
<desc>lat.=55.967106, lon.=26.544168, Alt.=97.215881m. Speed=3.492000m/h.</desc>
<speed>0.970000</speed>
</trkpt>
<trkpt lat="55.967110" lon="26.544189">
<ele>96.960022</ele>
<time>2010-08-29T08:56:52Z</time>
<desc>lat.=55.967110, lon.=26.544189, Alt.=96.960022m. Speed=3.384000m/h.</desc>
<speed>0.940000</speed>
</trkpt>
<trkpt lat="55.967110" lon="26.544230">
<ele>96.733459</ele>
<time>2010-08-29T08:56:53Z</time>
<desc>lat.=55.967110, lon.=26.544230, Alt.=96.733459m. Speed=3.708000m/h.</desc>
<speed>1.030000</speed>
</trkpt>
<trkpt lat="55.967117" lon="26.544266">
<ele>96.499084</ele>
<time>2010-08-29T08:56:54Z</time>
<desc>lat.=55.967117, lon.=26.544266, Alt.=96.499084m. Speed=4.176000m/h.</desc>
<speed>1.160000</speed>
</trkpt>
<trkpt lat="55.967121" lon="26.544334">
<ele>95.727600</ele>
<time>2010-08-29T08:56:55Z</time>
<desc>lat.=55.967121, lon.=26.544334, Alt.=95.727600m. Speed=5.472000m/h.</desc>
<speed>1.520000</speed>
</trkpt>
<trkpt lat="55.967121" lon="26.544365">
<ele>95.516663</ele>
<time>2010-08-29T08:56:56Z</time>
<desc>lat.=55.967121, lon.=26.544365, Alt.=95.516663m. Speed=3.600000m/h.</desc>
<speed>1.000000</speed>
</trkpt>
<trkpt lat="55.967133" lon="26.544411">
<ele>95.594788</ele>
<time>2010-08-29T08:56:57Z</time>
<desc>lat.=55.967133, lon.=26.544411, Alt.=95.594788m. Speed=4.212000m/h.</desc>
<speed>1.170000</speed>
</trkpt>
<trkpt lat="55.967136" lon="26.544439">
<ele>95.493225</ele>
<time>2010-08-29T08:56:58Z</time>
<desc>lat.=55.967136, lon.=26.544439, Alt.=95.493225m. Speed=2.844000m/h.</desc>
<speed>0.790000</speed>
</trkpt>
<trkpt lat="55.967136" lon="26.544464">
<ele>95.153381</ele>
<time>2010-08-29T08:56:59Z</time>
<desc>lat.=55.967136, lon.=26.544464, Alt.=95.153381m. Speed=1.476000m/h.</desc>
<speed>0.410000</speed>
</trkpt>
<trkpt lat="55.967144" lon="26.544491">
<ele>95.038147</ele>
<time>2010-08-29T08:57:00Z</time>
<desc>lat.=55.967144, lon.=26.544491, Alt.=95.038147m. Speed=3.492000m/h.</desc>
<speed>0.970000</speed>
</trkpt>
<trkpt lat="55.967148" lon="26.544512">
<ele>94.835022</ele>
<time>2010-08-29T08:57:01Z</time>
<desc>lat.=55.967148, lon.=26.544512, Alt.=94.835022m. Speed=2.772000m/h.</desc>
<speed>0.770000</speed>
</trkpt>
<trkpt lat="55.967148" lon="26.544548">
<ele>94.833069</ele>
<time>2010-08-29T08:57:02Z</time>
<desc>lat.=55.967148, lon.=26.544548, Alt.=94.833069m. Speed=3.096000m/h.</desc>
<speed>0.860000</speed>
</trkpt>
<trkpt lat="55.967155" lon="26.544584">
<ele>94.846741</ele>
<time>2010-08-29T08:57:03Z</time>
<desc>lat.=55.967155, lon.=26.544584, Alt.=94.846741m. Speed=3.528000m/h.</desc>
<speed>0.980000</speed>
</trkpt>
<trkpt lat="55.967159" lon="26.544611">
<ele>94.700256</ele>
<time>2010-08-29T08:57:04Z</time>
<desc>lat.=55.967159, lon.=26.544611, Alt.=94.700256m. Speed=3.600000m/h.</desc>
<speed>1.000000</speed>
</trkpt>
<trkpt lat="55.967167" lon="26.544655">
<ele>94.713928</ele>
<time>2010-08-29T08:57:05Z</time>
<desc>lat.=55.967167, lon.=26.544655, Alt.=94.713928m. Speed=3.888000m/h.</desc>
<speed>1.080000</speed>
</trkpt>
<trkpt lat="55.967167" lon="26.544695">
<ele>94.606506</ele>
<time>2010-08-29T08:57:06Z</time>
<desc>lat.=55.967167, lon.=26.544695, Alt.=94.606506m. Speed=4.104000m/h.</desc>
<speed>1.140000</speed>
</trkpt>
<trkpt lat="55.967171" lon="26.544735">
<ele>94.626038</ele>
<time>2010-08-29T08:57:07Z</time>
<desc>lat.=55.967171, lon.=26.544735, Alt.=94.626038m. Speed=4.176000m/h.</desc>
<speed>1.160000</speed>
</trkpt>
<trkpt lat="55.967171" lon="26.544764">
<ele>94.481506</ele>
<time>2010-08-29T08:57:08Z</time>
<desc>lat.=55.967171, lon.=26.544764, Alt.=94.481506m. Speed=3.996000m/h.</desc>
<speed>1.110000</speed>
</trkpt>
<trkpt lat="55.967167" lon="26.544800">
<ele>94.327209</ele>
<time>2010-08-29T08:57:09Z</time>
<desc>lat.=55.967167, lon.=26.544800, Alt.=94.327209m. Speed=4.176000m/h.</desc>
<speed>1.160000</speed>
</trkpt>
<trkpt lat="55.967171" lon="26.544888">
<ele>94.008850</ele>
<time>2010-08-29T08:57:10Z</time>
<desc>lat.=55.967171, lon.=26.544888, Alt.=94.008850m. Speed=6.336000m/h.</desc>
<speed>1.760000</speed>
</trkpt>
<trkpt lat="55.967167" lon="26.544943">
<ele>93.967834</ele>
<time>2010-08-29T08:57:11Z</time>
<desc>lat.=55.967167, lon.=26.544943, Alt.=93.967834m. Speed=6.588000m/h.</desc>
<speed>1.830000</speed>
</trkpt>
<trkpt lat="55.967163" lon="26.544989">
<ele>93.751038</ele>
<time>2010-08-29T08:57:12Z</time>
<desc>lat.=55.967163, lon.=26.544989, Alt.=93.751038m. Speed=6.444000m/h.</desc>
<speed>1.790000</speed>
</trkpt>
<trkpt lat="55.967167" lon="26.545031">
<ele>93.497131</ele>
<time>2010-08-29T08:57:13Z</time>
<desc>lat.=55.967167, lon.=26.545031, Alt.=93.497131m. Speed=5.832000m/h.</desc>
<speed>1.620000</speed>
</trkpt>
<trkpt lat="55.967167" lon="26.545078">
<ele>93.131897</ele>
<time>2010-08-29T08:57:14Z</time>
<desc>lat.=55.967167, lon.=26.545078, Alt.=93.131897m. Speed=4.032000m/h.</desc>
<speed>1.120000</speed>
</trkpt>
<trkpt lat="55.967167" lon="26.545111">
<ele>92.696350</ele>
<time>2010-08-29T08:57:15Z</time>
<desc>lat.=55.967167, lon.=26.545111, Alt.=92.696350m. Speed=3.888000m/h.</desc>
<speed>1.080000</speed>
</trkpt>
<trkpt lat="55.967167" lon="26.545145">
<ele>92.419006</ele>
<time>2010-08-29T08:57:16Z</time>
<desc>lat.=55.967167, lon.=26.545145, Alt.=92.419006m. Speed=4.428000m/h.</desc>
<speed>1.230000</speed>
</trkpt>
<trkpt lat="55.967171" lon="26.545193">
<ele>91.803772</ele>
<time>2010-08-29T08:57:17Z</time>
<desc>lat.=55.967171, lon.=26.545193, Alt.=91.803772m. Speed=5.184000m/h.</desc>
<speed>1.440000</speed>
</trkpt>
<trkpt lat="55.967178" lon="26.545216">
<ele>91.471741</ele>
<time>2010-08-29T08:57:18Z</time>
<desc>lat.=55.967178, lon.=26.545216, Alt.=91.471741m. Speed=2.880000m/h.</desc>
<speed>0.800000</speed>
</trkpt>
<trkpt lat="55.967182" lon="26.545238">
<ele>91.186584</ele>
<time>2010-08-29T08:57:19Z</time>
<desc>lat.=55.967182, lon.=26.545238, Alt.=91.186584m. Speed=2.808000m/h.</desc>
<speed>0.780000</speed>
</trkpt>
<trkpt lat="55.967190" lon="26.545269">
<ele>91.354553</ele>
<time>2010-08-29T08:57:20Z</time>
<desc>lat.=55.967190, lon.=26.545269, Alt.=91.354553m. Speed=3.276000m/h.</desc>
<speed>0.910000</speed>
</trkpt>
<trkpt lat="55.967194" lon="26.545305">
<ele>91.438538</ele>
<time>2010-08-29T08:57:21Z</time>
<desc>lat.=55.967194, lon.=26.545305, Alt.=91.438538m. Speed=7.200000m/h.</desc>
<speed>2.000000</speed>
</trkpt>
<trkpt lat="55.967197" lon="26.545349">
<ele>91.251038</ele>
<time>2010-08-29T08:57:22Z</time>
<desc>lat.=55.967197, lon.=26.545349, Alt.=91.251038m. Speed=5.328000m/h.</desc>
<speed>1.480000</speed>
</trkpt>
<trkpt lat="55.967201" lon="26.545382">
<ele>91.333069</ele>
<time>2010-08-29T08:57:23Z</time>
<desc>lat.=55.967201, lon.=26.545382, Alt.=91.333069m. Speed=3.564000m/h.</desc>
<speed>0.990000</speed>
</trkpt>
<trkpt lat="55.967197" lon="26.545406">
<ele>91.182678</ele>
<time>2010-08-29T08:57:24Z</time>
<desc>lat.=55.967197, lon.=26.545406, Alt.=91.182678m. Speed=3.528000m/h.</desc>
<speed>0.980000</speed>
</trkpt>
<trkpt lat="55.967190" lon="26.545441">
<ele>91.018616</ele>
<time>2010-08-29T08:57:25Z</time>
<desc>lat.=55.967190, lon.=26.545441, Alt.=91.018616m. Speed=4.392000m/h.</desc>
<speed>1.220000</speed>
</trkpt>
<trkpt lat="55.967194" lon="26.545485">
<ele>91.047913</ele>
<time>2010-08-29T08:57:26Z</time>
<desc>lat.=55.967194, lon.=26.545485, Alt.=91.047913m. Speed=3.780000m/h.</desc>
<speed>1.050000</speed>
</trkpt>
<trkpt lat="55.967194" lon="26.545519">
<ele>90.778381</ele>
<time>2010-08-29T08:57:27Z</time>
<desc>lat.=55.967194, lon.=26.545519, Alt.=90.778381m. Speed=6.408000m/h.</desc>
<speed>1.780000</speed>
</trkpt>
<trkpt lat="55.967186" lon="26.545557">
<ele>90.573303</ele>
<time>2010-08-29T08:57:28Z</time>
<desc>lat.=55.967186, lon.=26.545557, Alt.=90.573303m. Speed=4.824000m/h.</desc>
<speed>1.340000</speed>
</trkpt>
<trkpt lat="55.967178" lon="26.545607">
<ele>90.569397</ele>
<time>2010-08-29T08:57:29Z</time>
<desc>lat.=55.967178, lon.=26.545607, Alt.=90.569397m. Speed=5.220000m/h.</desc>
<speed>1.450000</speed>
</trkpt>
<trkpt lat="55.967167" lon="26.545650">
<ele>90.510803</ele>
<time>2010-08-29T08:57:30Z</time>
<desc>lat.=55.967167, lon.=26.545650, Alt.=90.510803m. Speed=4.824000m/h.</desc>
<speed>1.340000</speed>
</trkpt>
<trkpt lat="55.967163" lon="26.545713">
<ele>89.956116</ele>
<time>2010-08-29T08:57:31Z</time>
<desc>lat.=55.967163, lon.=26.545713, Alt.=89.956116m. Speed=7.236000m/h.</desc>
<speed>2.010000</speed>
</trkpt>
<trkpt lat="55.967159" lon="26.545757">
<ele>89.325256</ele>
<time>2010-08-29T08:57:32Z</time>
<desc>lat.=55.967159, lon.=26.545757, Alt.=89.325256m. Speed=6.804000m/h.</desc>
<speed>1.890000</speed>
</trkpt>
<trkpt lat="55.967144" lon="26.545805">
<ele>89.061584</ele>
<time>2010-08-29T08:57:33Z</time>
<desc>lat.=55.967144, lon.=26.545805, Alt.=89.061584m. Speed=7.416000m/h.</desc>
<speed>2.060000</speed>
</trkpt>
<trkpt lat="55.967133" lon="26.545843">
<ele>88.823303</ele>
<time>2010-08-29T08:57:34Z</time>
<desc>lat.=55.967133, lon.=26.545843, Alt.=88.823303m. Speed=6.696000m/h.</desc>
<speed>1.860000</speed>
</trkpt>
<trkpt lat="55.967125" lon="26.545879">
<ele>88.778381</ele>
<time>2010-08-29T08:57:35Z</time>
<desc>lat.=55.967125, lon.=26.545879, Alt.=88.778381m. Speed=3.528000m/h.</desc>
<speed>0.980000</speed>
</trkpt>
<trkpt lat="55.967110" lon="26.545973">
<ele>89.727600</ele>
<time>2010-08-29T08:57:36Z</time>
<desc>lat.=55.967110, lon.=26.545973, Alt.=89.727600m. Speed=8.280000m/h.</desc>
<speed>2.300000</speed>
</trkpt>
<trkpt lat="55.967117" lon="26.546080">
<ele>90.045959</ele>
<time>2010-08-29T08:57:37Z</time>
<desc>lat.=55.967117, lon.=26.546080, Alt.=90.045959m. Speed=3.816000m/h.</desc>
<speed>1.060000</speed>
</trkpt>
<trkpt lat="55.967098" lon="26.546122">
<ele>90.169006</ele>
<time>2010-08-29T08:57:38Z</time>
<desc>lat.=55.967098, lon.=26.546122, Alt.=90.169006m. Speed=5.040000m/h.</desc>
<speed>1.400000</speed>
</trkpt>
<trkpt lat="55.967075" lon="26.546164">
<ele>90.067444</ele>
<time>2010-08-29T08:57:39Z</time>
<desc>lat.=55.967075, lon.=26.546164, Alt.=90.067444m. Speed=7.308000m/h.</desc>
<speed>2.030000</speed>
</trkpt>
<trkpt lat="55.967068" lon="26.546206">
<ele>89.760803</ele>
<time>2010-08-29T08:57:40Z</time>
<desc>lat.=55.967068, lon.=26.546206, Alt.=89.760803m. Speed=7.344000m/h.</desc>
<speed>2.040000</speed>
</trkpt>
<trkpt lat="55.967056" lon="26.546280">
<ele>90.411194</ele>
<time>2010-08-29T08:57:41Z</time>
<desc>lat.=55.967056, lon.=26.546280, Alt.=90.411194m. Speed=10.080000m/h.</desc>
<speed>2.800000</speed>
</trkpt>
<trkpt lat="55.967041" lon="26.546381">
<ele>92.133850</ele>
<time>2010-08-29T08:57:42Z</time>
<desc>lat.=55.967041, lon.=26.546381, Alt.=92.133850m. Speed=9.864000m/h.</desc>
<speed>2.740000</speed>
</trkpt>
<trkpt lat="55.967049" lon="26.546427">
<ele>92.776428</ele>
<time>2010-08-29T08:57:43Z</time>
<desc>lat.=55.967049, lon.=26.546427, Alt.=92.776428m. Speed=8.316000m/h.</desc>
<speed>2.310000</speed>
</trkpt>
<trkpt lat="55.967041" lon="26.546473">
<ele>92.581116</ele>
<time>2010-08-29T08:57:44Z</time>
<desc>lat.=55.967041, lon.=26.546473, Alt.=92.581116m. Speed=7.596000m/h.</desc>
<speed>2.110000</speed>
</trkpt>
<trkpt lat="55.967030" lon="26.546518">
<ele>92.372131</ele>
<time>2010-08-29T08:57:45Z</time>
<desc>lat.=55.967030, lon.=26.546518, Alt.=92.372131m. Speed=8.064000m/h.</desc>
<speed>2.240000</speed>
</trkpt>
<trkpt lat="55.967007" lon="26.546566">
<ele>91.536194</ele>
<time>2010-08-29T08:57:46Z</time>
<desc>lat.=55.967007, lon.=26.546566, Alt.=91.536194m. Speed=7.668000m/h.</desc>
<speed>2.130000</speed>
</trkpt>
<trkpt lat="55.966995" lon="26.546604">
<ele>91.317444</ele>
<time>2010-08-29T08:57:47Z</time>
<desc>lat.=55.966995, lon.=26.546604, Alt.=91.317444m. Speed=4.824000m/h.</desc>
<speed>1.340000</speed>
</trkpt>
<trkpt lat="55.966984" lon="26.546644">
<ele>90.961975</ele>
<time>2010-08-29T08:57:48Z</time>
<desc>lat.=55.966984, lon.=26.546644, Alt.=90.961975m. Speed=9.756000m/h.</desc>
<speed>2.710000</speed>
</trkpt>
<trkpt lat="55.966972" lon="26.546688">
<ele>90.618225</ele>
<time>2010-08-29T08:57:49Z</time>
<desc>lat.=55.966972, lon.=26.546688, Alt.=90.618225m. Speed=7.416000m/h.</desc>
<speed>2.060000</speed>
</trkpt>
<trkpt lat="55.966957" lon="26.546732">
<ele>90.506897</ele>
<time>2010-08-29T08:57:50Z</time>
<desc>lat.=55.966957, lon.=26.546732, Alt.=90.506897m. Speed=7.128000m/h.</desc>
<speed>1.980000</speed>
</trkpt>
<trkpt lat="55.966949" lon="26.546776">
<ele>90.473694</ele>
<time>2010-08-29T08:57:51Z</time>
<desc>lat.=55.966949, lon.=26.546776, Alt.=90.473694m. Speed=6.588000m/h.</desc>
<speed>1.830000</speed>
</trkpt>
<trkpt lat="55.966942" lon="26.546822">
<ele>90.297913</ele>
<time>2010-08-29T08:57:52Z</time>
<desc>lat.=55.966942, lon.=26.546822, Alt.=90.297913m. Speed=6.516000m/h.</desc>
<speed>1.810000</speed>
</trkpt>
<trkpt lat="55.966934" lon="26.546858">
<ele>90.014709</ele>
<time>2010-08-29T08:57:53Z</time>
<desc>lat.=55.966934, lon.=26.546858, Alt.=90.014709m. Speed=5.760000m/h.</desc>
<speed>1.600000</speed>
</trkpt>
<trkpt lat="55.966927" lon="26.546915">
<ele>89.676819</ele>
<time>2010-08-29T08:57:54Z</time>
<desc>lat.=55.966927, lon.=26.546915, Alt.=89.676819m. Speed=4.968000m/h.</desc>
<speed>1.380000</speed>
</trkpt>
<trkpt lat="55.966927" lon="26.546968">
<ele>88.840881</ele>
<time>2010-08-29T08:57:55Z</time>
<desc>lat.=55.966927, lon.=26.546968, Alt.=88.840881m. Speed=6.660000m/h.</desc>
<speed>1.850000</speed>
</trkpt>
<trkpt lat="55.966927" lon="26.546999">
<ele>88.489319</ele>
<time>2010-08-29T08:57:56Z</time>
<desc>lat.=55.966927, lon.=26.546999, Alt.=88.489319m. Speed=3.600000m/h.</desc>
<speed>1.000000</speed>
</trkpt>
<trkpt lat="55.966919" lon="26.547035">
<ele>88.288147</ele>
<time>2010-08-29T08:57:57Z</time>
<desc>lat.=55.966919, lon.=26.547035, Alt.=88.288147m. Speed=5.364000m/h.</desc>
<speed>1.490000</speed>
</trkpt>
<trkpt lat="55.966911" lon="26.547089">
<ele>88.934631</ele>
<time>2010-08-29T08:57:58Z</time>
<desc>lat.=55.966911, lon.=26.547089, Alt.=88.934631m. Speed=5.076000m/h.</desc>
<speed>1.410000</speed>
</trkpt>
<trkpt lat="55.966915" lon="26.547144">
<ele>89.221741</ele>
<time>2010-08-29T08:57:59Z</time>
<desc>lat.=55.966915, lon.=26.547144, Alt.=89.221741m. Speed=4.068000m/h.</desc>
<speed>1.130000</speed>
</trkpt>
<trkpt lat="55.966919" lon="26.547174">
<ele>89.270569</ele>
<time>2010-08-29T08:58:00Z</time>
<desc>lat.=55.966919, lon.=26.547174, Alt.=89.270569m. Speed=4.968000m/h.</desc>
<speed>1.380000</speed>
</trkpt>
<trkpt lat="55.966919" lon="26.547213">
<ele>89.116272</ele>
<time>2010-08-29T08:58:01Z</time>
<desc>lat.=55.966919, lon.=26.547213, Alt.=89.116272m. Speed=5.868000m/h.</desc>
<speed>1.630000</speed>
</trkpt>
<trkpt lat="55.966911" lon="26.547255">
<ele>89.559631</ele>
<time>2010-08-29T08:58:02Z</time>
<desc>lat.=55.966911, lon.=26.547255, Alt.=89.559631m. Speed=5.436000m/h.</desc>
<speed>1.510000</speed>
</trkpt>
<trkpt lat="55.966908" lon="26.547293">
<ele>89.504944</ele>
<time>2010-08-29T08:58:03Z</time>
<desc>lat.=55.966908, lon.=26.547293, Alt.=89.504944m. Speed=5.256000m/h.</desc>
<speed>1.460000</speed>
</trkpt>
<trkpt lat="55.966908" lon="26.547318">
<ele>89.502991</ele>
<time>2010-08-29T08:58:04Z</time>
<desc>lat.=55.966908, lon.=26.547318, Alt.=89.502991m. Speed=3.996000m/h.</desc>
<speed>1.110000</speed>
</trkpt>
<trkpt lat="55.966908" lon="26.547346">
<ele>89.706116</ele>
<time>2010-08-29T08:58:05Z</time>
<desc>lat.=55.966908, lon.=26.547346, Alt.=89.706116m. Speed=4.284000m/h.</desc>
<speed>1.190000</speed>
</trkpt>
<trkpt lat="55.966915" lon="26.547369">
<ele>89.083069</ele>
<time>2010-08-29T08:58:06Z</time>
<desc>lat.=55.966915, lon.=26.547369, Alt.=89.083069m. Speed=2.988000m/h.</desc>
<speed>0.830000</speed>
</trkpt>
<trkpt lat="55.966919" lon="26.547396">
<ele>88.669006</ele>
<time>2010-08-29T08:58:07Z</time>
<desc>lat.=55.966919, lon.=26.547396, Alt.=88.669006m. Speed=4.752000m/h.</desc>
<speed>1.320000</speed>
</trkpt>
<trkpt lat="55.966923" lon="26.547430">
<ele>88.653381</ele>
<time>2010-08-29T08:58:08Z</time>
<desc>lat.=55.966923, lon.=26.547430, Alt.=88.653381m. Speed=3.672000m/h.</desc>
<speed>1.020000</speed>
</trkpt>
<trkpt lat="55.966919" lon="26.547466">
<ele>88.764709</ele>
<time>2010-08-29T08:58:09Z</time>
<desc>lat.=55.966919, lon.=26.547466, Alt.=88.764709m. Speed=4.680000m/h.</desc>
<speed>1.300000</speed>
</trkpt>
<trkpt lat="55.966919" lon="26.547493">
<ele>88.540100</ele>
<time>2010-08-29T08:58:10Z</time>
<desc>lat.=55.966919, lon.=26.547493, Alt.=88.540100m. Speed=2.988000m/h.</desc>
<speed>0.830000</speed>
</trkpt>
<trkpt lat="55.966919" lon="26.547529">
<ele>88.735413</ele>
<time>2010-08-29T08:58:11Z</time>
<desc>lat.=55.966919, lon.=26.547529, Alt.=88.735413m. Speed=2.736000m/h.</desc>
<speed>0.760000</speed>
</trkpt>
<trkpt lat="55.966930" lon="26.547581">
<ele>88.876038</ele>
<time>2010-08-29T08:58:12Z</time>
<desc>lat.=55.966930, lon.=26.547581, Alt.=88.876038m. Speed=6.480000m/h.</desc>
<speed>1.800000</speed>
</trkpt>
<trkpt lat="55.966942" lon="26.547659">
<ele>89.108459</ele>
<time>2010-08-29T08:58:13Z</time>
<desc>lat.=55.966942, lon.=26.547659, Alt.=89.108459m. Speed=7.596000m/h.</desc>
<speed>2.110000</speed>
</trkpt>
<trkpt lat="55.966942" lon="26.547697">
<ele>88.909241</ele>
<time>2010-08-29T08:58:14Z</time>
<desc>lat.=55.966942, lon.=26.547697, Alt.=88.909241m. Speed=5.184000m/h.</desc>
<speed>1.440000</speed>
</trkpt>
<trkpt lat="55.966957" lon="26.547716">
<ele>88.790100</ele>
<time>2010-08-29T08:58:15Z</time>
<desc>lat.=55.966957, lon.=26.547716, Alt.=88.790100m. Speed=4.716000m/h.</desc>
<speed>1.310000</speed>
</trkpt>
<trkpt lat="55.966972" lon="26.547752">
<ele>88.760803</ele>
<time>2010-08-29T08:58:16Z</time>
<desc>lat.=55.966972, lon.=26.547752, Alt.=88.760803m. Speed=5.976000m/h.</desc>
<speed>1.660000</speed>
</trkpt>
<trkpt lat="55.966991" lon="26.547785">
<ele>88.751038</ele>
<time>2010-08-29T08:58:17Z</time>
<desc>lat.=55.966991, lon.=26.547785, Alt.=88.751038m. Speed=6.732000m/h.</desc>
<speed>1.870000</speed>
</trkpt>
<trkpt lat="55.966999" lon="26.547829">
<ele>88.788147</ele>
<time>2010-08-29T08:58:18Z</time>
<desc>lat.=55.966999, lon.=26.547829, Alt.=88.788147m. Speed=6.084000m/h.</desc>
<speed>1.690000</speed>
</trkpt>
<trkpt lat="55.967003" lon="26.547861">
<ele>88.231506</ele>
<time>2010-08-29T08:58:19Z</time>
<desc>lat.=55.967003, lon.=26.547861, Alt.=88.231506m. Speed=5.364000m/h.</desc>
<speed>1.490000</speed>
</trkpt>
<trkpt lat="55.966999" lon="26.547895">
<ele>87.883850</ele>
<time>2010-08-29T08:58:20Z</time>
<desc>lat.=55.966999, lon.=26.547895, Alt.=87.883850m. Speed=4.752000m/h.</desc>
<speed>1.320000</speed>
</trkpt>
<trkpt lat="55.967010" lon="26.547928">
<ele>87.655334</ele>
<time>2010-08-29T08:58:21Z</time>
<desc>lat.=55.967010, lon.=26.547928, Alt.=87.655334m. Speed=6.120000m/h.</desc>
<speed>1.700000</speed>
</trkpt>
<trkpt lat="55.967014" lon="26.547960">
<ele>87.776428</ele>
<time>2010-08-29T08:58:22Z</time>
<desc>lat.=55.967014, lon.=26.547960, Alt.=87.776428m. Speed=5.148000m/h.</desc>
<speed>1.430000</speed>
</trkpt>
<trkpt lat="55.967026" lon="26.547987">
<ele>87.559631</ele>
<time>2010-08-29T08:58:23Z</time>
<desc>lat.=55.967026, lon.=26.547987, Alt.=87.559631m. Speed=6.588000m/h.</desc>
<speed>1.830000</speed>
</trkpt>
<trkpt lat="55.967026" lon="26.548018">
<ele>87.368225</ele>
<time>2010-08-29T08:58:24Z</time>
<desc>lat.=55.967026, lon.=26.548018, Alt.=87.368225m. Speed=4.860000m/h.</desc>
<speed>1.350000</speed>
</trkpt>
<trkpt lat="55.967033" lon="26.548056">
<ele>87.110413</ele>
<time>2010-08-29T08:58:25Z</time>
<desc>lat.=55.967033, lon.=26.548056, Alt.=87.110413m. Speed=5.868000m/h.</desc>
<speed>1.630000</speed>
</trkpt>
<trkpt lat="55.967041" lon="26.548096">
<ele>87.110413</ele>
<time>2010-08-29T08:58:26Z</time>
<desc>lat.=55.967041, lon.=26.548096, Alt.=87.110413m. Speed=5.004000m/h.</desc>
<speed>1.390000</speed>
</trkpt>
<trkpt lat="55.967052" lon="26.548153">
<ele>87.016663</ele>
<time>2010-08-29T08:58:27Z</time>
<desc>lat.=55.967052, lon.=26.548153, Alt.=87.016663m. Speed=7.128000m/h.</desc>
<speed>1.980000</speed>
</trkpt>
<trkpt lat="55.967060" lon="26.548197">
<ele>86.924866</ele>
<time>2010-08-29T08:58:28Z</time>
<desc>lat.=55.967060, lon.=26.548197, Alt.=86.924866m. Speed=8.604000m/h.</desc>
<speed>2.390000</speed>
</trkpt>
<trkpt lat="55.967068" lon="26.548246">
<ele>86.928772</ele>
<time>2010-08-29T08:58:29Z</time>
<desc>lat.=55.967068, lon.=26.548246, Alt.=86.928772m. Speed=9.180000m/h.</desc>
<speed>2.550000</speed>
</trkpt>
<trkpt lat="55.967083" lon="26.548288">
<ele>86.702209</ele>
<time>2010-08-29T08:58:30Z</time>
<desc>lat.=55.967083, lon.=26.548288, Alt.=86.702209m. Speed=11.088000m/h.</desc>
<speed>3.080000</speed>
</trkpt>
<trkpt lat="55.967113" lon="26.548367">
<ele>86.768616</ele>
<time>2010-08-29T08:58:31Z</time>
<desc>lat.=55.967113, lon.=26.548367, Alt.=86.768616m. Speed=10.008000m/h.</desc>
<speed>2.780000</speed>
</trkpt>
<trkpt lat="55.967129" lon="26.548405">
<ele>86.651428</ele>
<time>2010-08-29T08:58:32Z</time>
<desc>lat.=55.967129, lon.=26.548405, Alt.=86.651428m. Speed=9.540000m/h.</desc>
<speed>2.650000</speed>
</trkpt>
<trkpt lat="55.967155" lon="26.548437">
<ele>86.629944</ele>
<time>2010-08-29T08:58:33Z</time>
<desc>lat.=55.967155, lon.=26.548437, Alt.=86.629944m. Speed=9.144000m/h.</desc>
<speed>2.540000</speed>
</trkpt>
<trkpt lat="55.967171" lon="26.548471">
<ele>86.649475</ele>
<time>2010-08-29T08:58:34Z</time>
<desc>lat.=55.967171, lon.=26.548471, Alt.=86.649475m. Speed=9.000000m/h.</desc>
<speed>2.500000</speed>
</trkpt>
<trkpt lat="55.967190" lon="26.548517">
<ele>86.860413</ele>
<time>2010-08-29T08:58:35Z</time>
<desc>lat.=55.967190, lon.=26.548517, Alt.=86.860413m. Speed=7.380000m/h.</desc>
<speed>2.050000</speed>
</trkpt>
<trkpt lat="55.967201" lon="26.548546">
<ele>86.616272</ele>
<time>2010-08-29T08:58:36Z</time>
<desc>lat.=55.967201, lon.=26.548546, Alt.=86.616272m. Speed=7.164000m/h.</desc>
<speed>1.990000</speed>
</trkpt>
<trkpt lat="55.967213" lon="26.548574">
<ele>86.614319</ele>
<time>2010-08-29T08:58:37Z</time>
<desc>lat.=55.967213, lon.=26.548574, Alt.=86.614319m. Speed=4.608000m/h.</desc>
<speed>1.280000</speed>
</trkpt>
<trkpt lat="55.967220" lon="26.548597">
<ele>86.407288</ele>
<time>2010-08-29T08:58:38Z</time>
<desc>lat.=55.967220, lon.=26.548597, Alt.=86.407288m. Speed=5.904000m/h.</desc>
<speed>1.640000</speed>
</trkpt>
<trkpt lat="55.967232" lon="26.548615">
<ele>86.376038</ele>
<time>2010-08-29T08:58:39Z</time>
<desc>lat.=55.967232, lon.=26.548615, Alt.=86.376038m. Speed=3.240000m/h.</desc>
<speed>0.900000</speed>
</trkpt>
<trkpt lat="55.967243" lon="26.548632">
<ele>86.366272</ele>
<time>2010-08-29T08:58:40Z</time>
<desc>lat.=55.967243, lon.=26.548632, Alt.=86.366272m. Speed=6.264000m/h.</desc>
<speed>1.740000</speed>
</trkpt>
<trkpt lat="55.967251" lon="26.548658">
<ele>86.461975</ele>
<time>2010-08-29T08:58:41Z</time>
<desc>lat.=55.967251, lon.=26.548658, Alt.=86.461975m. Speed=3.600000m/h.</desc>
<speed>1.000000</speed>
</trkpt>
<trkpt lat="55.967258" lon="26.548676">
<ele>86.491272</ele>
<time>2010-08-29T08:58:42Z</time>
<desc>lat.=55.967258, lon.=26.548676, Alt.=86.491272m. Speed=3.600000m/h.</desc>
<speed>1.000000</speed>
</trkpt>
<trkpt lat="55.967251" lon="26.548727">
<ele>87.995178</ele>
<time>2010-08-29T08:58:43Z</time>
<desc>lat.=55.967251, lon.=26.548727, Alt.=87.995178m. Speed=4.608000m/h.</desc>
<speed>1.280000</speed>
</trkpt>
<trkpt lat="55.967258" lon="26.548742">
<ele>88.038147</ele>
<time>2010-08-29T08:58:44Z</time>
<desc>lat.=55.967258, lon.=26.548742, Alt.=88.038147m. Speed=3.024000m/h.</desc>
<speed>0.840000</speed>
</trkpt>
<trkpt lat="55.967274" lon="26.548765">
<ele>87.967834</ele>
<time>2010-08-29T08:58:45Z</time>
<desc>lat.=55.967274, lon.=26.548765, Alt.=87.967834m. Speed=4.104000m/h.</desc>
<speed>1.140000</speed>
</trkpt>
<trkpt lat="55.967285" lon="26.548796">
<ele>87.889709</ele>
<time>2010-08-29T08:58:46Z</time>
<desc>lat.=55.967285, lon.=26.548796, Alt.=87.889709m. Speed=4.284000m/h.</desc>
<speed>1.190000</speed>
</trkpt>
<trkpt lat="55.967293" lon="26.548809">
<ele>87.942444</ele>
<time>2010-08-29T08:58:47Z</time>
<desc>lat.=55.967293, lon.=26.548809, Alt.=87.942444m. Speed=3.024000m/h.</desc>
<speed>0.840000</speed>
</trkpt>
<trkpt lat="55.967304" lon="26.548828">
<ele>88.055725</ele>
<time>2010-08-29T08:58:48Z</time>
<desc>lat.=55.967304, lon.=26.548828, Alt.=88.055725m. Speed=4.104000m/h.</desc>
<speed>1.140000</speed>
</trkpt>
<trkpt lat="55.967312" lon="26.548855">
<ele>88.098694</ele>
<time>2010-08-29T08:58:49Z</time>
<desc>lat.=55.967312, lon.=26.548855, Alt.=88.098694m. Speed=3.636000m/h.</desc>
<speed>1.010000</speed>
</trkpt>
<trkpt lat="55.967323" lon="26.548880">
<ele>88.063538</ele>
<time>2010-08-29T08:58:50Z</time>
<desc>lat.=55.967323, lon.=26.548880, Alt.=88.063538m. Speed=3.024000m/h.</desc>
<speed>0.840000</speed>
</trkpt>
<trkpt lat="55.967331" lon="26.548901">
<ele>88.200256</ele>
<time>2010-08-29T08:58:51Z</time>
<desc>lat.=55.967331, lon.=26.548901, Alt.=88.200256m. Speed=2.268000m/h.</desc>
<speed>0.630000</speed>
</trkpt>
<trkpt lat="55.967335" lon="26.548927">
<ele>88.559631</ele>
<time>2010-08-29T08:58:52Z</time>
<desc>lat.=55.967335, lon.=26.548927, Alt.=88.559631m. Speed=1.944000m/h.</desc>
<speed>0.540000</speed>
</trkpt>
<trkpt lat="55.967346" lon="26.548954">
<ele>88.555725</ele>
<time>2010-08-29T08:58:53Z</time>
<desc>lat.=55.967346, lon.=26.548954, Alt.=88.555725m. Speed=4.932000m/h.</desc>
<speed>1.370000</speed>
</trkpt>
<trkpt lat="55.967365" lon="26.548965">
<ele>88.764709</ele>
<time>2010-08-29T08:58:54Z</time>
<desc>lat.=55.967365, lon.=26.548965, Alt.=88.764709m. Speed=3.312000m/h.</desc>
<speed>0.920000</speed>
</trkpt>
<trkpt lat="55.967381" lon="26.548992">
<ele>89.653381</ele>
<time>2010-08-29T08:58:55Z</time>
<desc>lat.=55.967381, lon.=26.548992, Alt.=89.653381m. Speed=3.780000m/h.</desc>
<speed>1.050000</speed>
</trkpt>
<trkpt lat="55.967403" lon="26.548990">
<ele>89.850647</ele>
<time>2010-08-29T08:58:56Z</time>
<desc>lat.=55.967403, lon.=26.548990, Alt.=89.850647m. Speed=4.896000m/h.</desc>
<speed>1.360000</speed>
</trkpt>
<trkpt lat="55.967430" lon="26.548998">
<ele>90.012756</ele>
<time>2010-08-29T08:58:57Z</time>
<desc>lat.=55.967430, lon.=26.548998, Alt.=90.012756m. Speed=4.752000m/h.</desc>
<speed>1.320000</speed>
</trkpt>
<trkpt lat="55.967484" lon="26.548986">
<ele>90.514709</ele>
<time>2010-08-29T08:58:58Z</time>
<desc>lat.=55.967484, lon.=26.548986, Alt.=90.514709m. Speed=3.816000m/h.</desc>
<speed>1.060000</speed>
</trkpt>
<trkpt lat="55.967506" lon="26.549026">
<ele>90.319397</ele>
<time>2010-08-29T08:58:59Z</time>
<desc>lat.=55.967506, lon.=26.549026, Alt.=90.319397m. Speed=5.220000m/h.</desc>
<speed>1.450000</speed>
</trkpt>
<trkpt lat="55.967522" lon="26.549044">
<ele>90.172913</ele>
<time>2010-08-29T08:59:00Z</time>
<desc>lat.=55.967522, lon.=26.549044, Alt.=90.172913m. Speed=5.904000m/h.</desc>
<speed>1.640000</speed>
</trkpt>
<trkpt lat="55.967533" lon="26.549063">
<ele>90.202209</ele>
<time>2010-08-29T08:59:01Z</time>
<desc>lat.=55.967533, lon.=26.549063, Alt.=90.202209m. Speed=2.232000m/h.</desc>
<speed>0.620000</speed>
</trkpt>
<trkpt lat="55.967541" lon="26.549118">
<ele>91.540100</ele>
<time>2010-08-29T08:59:02Z</time>
<desc>lat.=55.967541, lon.=26.549118, Alt.=91.540100m. Speed=2.700000m/h.</desc>
<speed>0.750000</speed>
</trkpt>
<trkpt lat="55.967548" lon="26.549131">
<ele>91.633850</ele>
<time>2010-08-29T08:59:03Z</time>
<desc>lat.=55.967548, lon.=26.549131, Alt.=91.633850m. Speed=2.304000m/h.</desc>
<speed>0.640000</speed>
</trkpt>
<trkpt lat="55.967560" lon="26.549147">
<ele>92.116272</ele>
<time>2010-08-29T08:59:04Z</time>
<desc>lat.=55.967560, lon.=26.549147, Alt.=92.116272m. Speed=2.016000m/h.</desc>
<speed>0.560000</speed>
</trkpt>
<trkpt lat="55.967606" lon="26.549171">
<ele>94.100647</ele>
<time>2010-08-29T08:59:05Z</time>
<desc>lat.=55.967606, lon.=26.549171, Alt.=94.100647m. Speed=1.620000m/h.</desc>
<speed>0.450000</speed>
</trkpt>
<trkpt lat="55.967628" lon="26.549185">
<ele>95.092834</ele>
<time>2010-08-29T08:59:06Z</time>
<desc>lat.=55.967628, lon.=26.549185, Alt.=95.092834m. Speed=1.008000m/h.</desc>
<speed>0.280000</speed>
</trkpt>
<trkpt lat="55.967636" lon="26.549206">
<ele>95.319397</ele>
<time>2010-08-29T08:59:07Z</time>
<desc>lat.=55.967636, lon.=26.549206, Alt.=95.319397m. Speed=1.008000m/h.</desc>
<speed>0.280000</speed>
</trkpt>
<trkpt lat="55.967640" lon="26.549210">
<ele>95.542053</ele>
<time>2010-08-29T08:59:08Z</time>
<desc>lat.=55.967640, lon.=26.549210, Alt.=95.542053m. Speed=0.756000m/h.</desc>
<speed>0.210000</speed>
</trkpt>
<trkpt lat="55.967651" lon="26.549215">
<ele>96.002991</ele>
<time>2010-08-29T08:59:09Z</time>
<desc>lat.=55.967651, lon.=26.549215, Alt.=96.002991m. Speed=0.612000m/h.</desc>
<speed>0.170000</speed>
</trkpt>
<trkpt lat="55.967651" lon="26.549217">
<ele>95.987366</ele>
<time>2010-08-29T08:59:10Z</time>
<desc>lat.=55.967651, lon.=26.549217, Alt.=95.987366m. Speed=0.432000m/h.</desc>
<speed>0.120000</speed>
</trkpt>
<trkpt lat="55.967651" lon="26.549219">
<ele>95.991272</ele>
<time>2010-08-29T08:59:11Z</time>
<desc>lat.=55.967651, lon.=26.549219, Alt.=95.991272m. Speed=0.612000m/h.</desc>
<speed>0.170000</speed>
</trkpt>
<trkpt lat="55.967651" lon="26.549223">
<ele>95.993225</ele>
<time>2010-08-29T08:59:12Z</time>
<desc>lat.=55.967651, lon.=26.549223, Alt.=95.993225m. Speed=0.396000m/h.</desc>
<speed>0.110000</speed>
</trkpt>
<trkpt lat="55.967651" lon="26.549225">
<ele>96.004944</ele>
<time>2010-08-29T08:59:13Z</time>
<desc>lat.=55.967651, lon.=26.549225, Alt.=96.004944m. Speed=0.468000m/h.</desc>
<speed>0.130000</speed>
</trkpt>
<trkpt lat="55.967651" lon="26.549227">
<ele>96.018616</ele>
<time>2010-08-29T08:59:14Z</time>
<desc>lat.=55.967651, lon.=26.549227, Alt.=96.018616m. Speed=0.360000m/h.</desc>
<speed>0.100000</speed>
</trkpt>
<trkpt lat="55.967651" lon="26.549229">
<ele>96.038147</ele>
<time>2010-08-29T08:59:15Z</time>
<desc>lat.=55.967651, lon.=26.549229, Alt.=96.038147m. Speed=0.540000m/h.</desc>
<speed>0.150000</speed>
</trkpt>
<trkpt lat="55.967655" lon="26.549231">
<ele>96.055725</ele>
<time>2010-08-29T08:59:16Z</time>
<desc>lat.=55.967655, lon.=26.549231, Alt.=96.055725m. Speed=0.468000m/h.</desc>
<speed>0.130000</speed>
</trkpt>
<trkpt lat="55.967655" lon="26.549232">
<ele>96.071350</ele>
<time>2010-08-29T08:59:17Z</time>
<desc>lat.=55.967655, lon.=26.549232, Alt.=96.071350m. Speed=0.216000m/h.</desc>
<speed>0.060000</speed>
</trkpt>
<trkpt lat="55.967655" lon="26.549234">
<ele>96.088928</ele>
<time>2010-08-29T08:59:18Z</time>
<desc>lat.=55.967655, lon.=26.549234, Alt.=96.088928m. Speed=0.288000m/h.</desc>
<speed>0.080000</speed>
</trkpt>
<trkpt lat="55.967655" lon="26.549232">
<ele>96.098694</ele>
<time>2010-08-29T08:59:19Z</time>
<desc>lat.=55.967655, lon.=26.549232, Alt.=96.098694m. Speed=0.396000m/h.</desc>
<speed>0.110000</speed>
</trkpt>
<trkpt lat="55.967655" lon="26.549232">
<ele>96.102600</ele>
<time>2010-08-29T08:59:20Z</time>
<desc>lat.=55.967655, lon.=26.549232, Alt.=96.102600m. Speed=0.396000m/h.</desc>
<speed>0.110000</speed>
</trkpt>
<trkpt lat="55.967655" lon="26.549234">
<ele>96.112366</ele>
<time>2010-08-29T08:59:21Z</time>
<desc>lat.=55.967655, lon.=26.549234, Alt.=96.112366m. Speed=0.468000m/h.</desc>
<speed>0.130000</speed>
</trkpt>
<trkpt lat="55.967659" lon="26.549236">
<ele>96.122131</ele>
<time>2010-08-29T08:59:22Z</time>
<desc>lat.=55.967659, lon.=26.549236, Alt.=96.122131m. Speed=0.324000m/h.</desc>
<speed>0.090000</speed>
</trkpt>
<trkpt lat="55.967655" lon="26.549236">
<ele>96.139709</ele>
<time>2010-08-29T08:59:23Z</time>
<desc>lat.=55.967655, lon.=26.549236, Alt.=96.139709m. Speed=0.252000m/h.</desc>
<speed>0.070000</speed>
</trkpt>
<trkpt lat="55.967655" lon="26.549238">
<ele>96.161194</ele>
<time>2010-08-29T08:59:24Z</time>
<desc>lat.=55.967655, lon.=26.549238, Alt.=96.161194m. Speed=0.288000m/h.</desc>
<speed>0.080000</speed>
</trkpt>
<trkpt lat="55.967655" lon="26.549238">
<ele>96.184631</ele>
<time>2010-08-29T08:59:25Z</time>
<desc>lat.=55.967655, lon.=26.549238, Alt.=96.184631m. Speed=0.180000m/h.</desc>
<speed>0.050000</speed>
</trkpt>
<trkpt lat="55.967655" lon="26.549238">
<ele>96.211975</ele>
<time>2010-08-29T08:59:26Z</time>
<desc>lat.=55.967655, lon.=26.549238, Alt.=96.211975m. Speed=0.360000m/h.</desc>
<speed>0.100000</speed>
</trkpt>
<trkpt lat="55.967655" lon="26.549240">
<ele>96.237366</ele>
<time>2010-08-29T08:59:27Z</time>
<desc>lat.=55.967655, lon.=26.549240, Alt.=96.237366m. Speed=0.468000m/h.</desc>
<speed>0.130000</speed>
</trkpt>
<trkpt lat="55.967651" lon="26.549242">
<ele>96.260803</ele>
<time>2010-08-29T08:59:28Z</time>
<desc>lat.=55.967651, lon.=26.549242, Alt.=96.260803m. Speed=0.756000m/h.</desc>
<speed>0.210000</speed>
</trkpt>
<trkpt lat="55.967651" lon="26.549244">
<ele>96.288147</ele>
<time>2010-08-29T08:59:29Z</time>
<desc>lat.=55.967651, lon.=26.549244, Alt.=96.288147m. Speed=0.936000m/h.</desc>
<speed>0.260000</speed>
</trkpt>
<trkpt lat="55.967648" lon="26.549246">
<ele>96.309631</ele>
<time>2010-08-29T08:59:30Z</time>
<desc>lat.=55.967648, lon.=26.549246, Alt.=96.309631m. Speed=0.792000m/h.</desc>
<speed>0.220000</speed>
</trkpt>
<trkpt lat="55.967648" lon="26.549248">
<ele>96.329163</ele>
<time>2010-08-29T08:59:31Z</time>
<desc>lat.=55.967648, lon.=26.549248, Alt.=96.329163m. Speed=0.504000m/h.</desc>
<speed>0.140000</speed>
</trkpt>
<trkpt lat="55.967648" lon="26.549248">
<ele>96.346741</ele>
<time>2010-08-29T08:59:32Z</time>
<desc>lat.=55.967648, lon.=26.549248, Alt.=96.346741m. Speed=0.684000m/h.</desc>
<speed>0.190000</speed>
</trkpt>
<trkpt lat="55.967644" lon="26.549250">
<ele>96.393616</ele>
<time>2010-08-29T08:59:33Z</time>
<desc>lat.=55.967644, lon.=26.549250, Alt.=96.393616m. Speed=0.828000m/h.</desc>
<speed>0.230000</speed>
</trkpt>
<trkpt lat="55.967644" lon="26.549253">
<ele>96.417053</ele>
<time>2010-08-29T08:59:34Z</time>
<desc>lat.=55.967644, lon.=26.549253, Alt.=96.417053m. Speed=0.432000m/h.</desc>
<speed>0.120000</speed>
</trkpt>
<trkpt lat="55.967640" lon="26.549253">
<ele>96.467834</ele>
<time>2010-08-29T08:59:35Z</time>
<desc>lat.=55.967640, lon.=26.549253, Alt.=96.467834m. Speed=0.900000m/h.</desc>
<speed>0.250000</speed>
</trkpt>
<trkpt lat="55.967644" lon="26.549257">
<ele>96.499084</ele>
<time>2010-08-29T08:59:36Z</time>
<desc>lat.=55.967644, lon.=26.549257, Alt.=96.499084m. Speed=0.792000m/h.</desc>
<speed>0.220000</speed>
</trkpt>
<trkpt lat="55.967644" lon="26.549261">
<ele>96.526428</ele>
<time>2010-08-29T08:59:37Z</time>
<desc>lat.=55.967644, lon.=26.549261, Alt.=96.526428m. Speed=0.468000m/h.</desc>
<speed>0.130000</speed>
</trkpt>
<trkpt lat="55.967644" lon="26.549263">
<ele>96.555725</ele>
<time>2010-08-29T08:59:38Z</time>
<desc>lat.=55.967644, lon.=26.549263, Alt.=96.555725m. Speed=0.288000m/h.</desc>
<speed>0.080000</speed>
</trkpt>
<trkpt lat="55.967644" lon="26.549263">
<ele>96.581116</ele>
<time>2010-08-29T08:59:39Z</time>
<desc>lat.=55.967644, lon.=26.549263, Alt.=96.581116m. Speed=0.504000m/h.</desc>
<speed>0.140000</speed>
</trkpt>
<trkpt lat="55.967644" lon="26.549263">
<ele>96.612366</ele>
<time>2010-08-29T08:59:40Z</time>
<desc>lat.=55.967644, lon.=26.549263, Alt.=96.612366m. Speed=0.108000m/h.</desc>
<speed>0.030000</speed>
</trkpt>
<trkpt lat="55.967644" lon="26.549263">
<ele>96.631897</ele>
<time>2010-08-29T08:59:41Z</time>
<desc>lat.=55.967644, lon.=26.549263, Alt.=96.631897m. Speed=0.252000m/h.</desc>
<speed>0.070000</speed>
</trkpt>
<trkpt lat="55.967644" lon="26.549265">
<ele>96.647522</ele>
<time>2010-08-29T08:59:42Z</time>
<desc>lat.=55.967644, lon.=26.549265, Alt.=96.647522m. Speed=0.216000m/h.</desc>
<speed>0.060000</speed>
</trkpt>
<trkpt lat="55.967648" lon="26.549265">
<ele>96.659241</ele>
<time>2010-08-29T08:59:43Z</time>
<desc>lat.=55.967648, lon.=26.549265, Alt.=96.659241m. Speed=0.396000m/h.</desc>
<speed>0.110000</speed>
</trkpt>
<trkpt lat="55.967648" lon="26.549267">
<ele>96.667053</ele>
<time>2010-08-29T08:59:44Z</time>
<desc>lat.=55.967648, lon.=26.549267, Alt.=96.667053m. Speed=0.540000m/h.</desc>
<speed>0.150000</speed>
</trkpt>
<trkpt lat="55.967648" lon="26.549269">
<ele>96.670959</ele>
<time>2010-08-29T08:59:45Z</time>
<desc>lat.=55.967648, lon.=26.549269, Alt.=96.670959m. Speed=0.504000m/h.</desc>
<speed>0.140000</speed>
</trkpt>
<trkpt lat="55.967648" lon="26.549271">
<ele>96.678772</ele>
<time>2010-08-29T08:59:46Z</time>
<desc>lat.=55.967648, lon.=26.549271, Alt.=96.678772m. Speed=1.044000m/h.</desc>
<speed>0.290000</speed>
</trkpt>
<trkpt lat="55.967651" lon="26.549273">
<ele>96.678772</ele>
<time>2010-08-29T08:59:47Z</time>
<desc>lat.=55.967651, lon.=26.549273, Alt.=96.678772m. Speed=0.720000m/h.</desc>
<speed>0.200000</speed>
</trkpt>
<trkpt lat="55.967651" lon="26.549273">
<ele>96.680725</ele>
<time>2010-08-29T08:59:48Z</time>
<desc>lat.=55.967651, lon.=26.549273, Alt.=96.680725m. Speed=0.648000m/h.</desc>
<speed>0.180000</speed>
</trkpt>
<trkpt lat="55.967655" lon="26.549273">
<ele>96.682678</ele>
<time>2010-08-29T08:59:49Z</time>
<desc>lat.=55.967655, lon.=26.549273, Alt.=96.682678m. Speed=1.260000m/h.</desc>
<speed>0.350000</speed>
</trkpt>
<trkpt lat="55.967663" lon="26.549278">
<ele>96.606506</ele>
<time>2010-08-29T08:59:50Z</time>
<desc>lat.=55.967663, lon.=26.549278, Alt.=96.606506m. Speed=1.692000m/h.</desc>
<speed>0.470000</speed>
</trkpt>
<trkpt lat="55.967670" lon="26.549282">
<ele>96.608459</ele>
<time>2010-08-29T08:59:51Z</time>
<desc>lat.=55.967670, lon.=26.549282, Alt.=96.608459m. Speed=1.656000m/h.</desc>
<speed>0.460000</speed>
</trkpt>
<trkpt lat="55.967674" lon="26.549294">
<ele>96.661194</ele>
<time>2010-08-29T08:59:52Z</time>
<desc>lat.=55.967674, lon.=26.549294, Alt.=96.661194m. Speed=1.656000m/h.</desc>
<speed>0.460000</speed>
</trkpt>
<trkpt lat="55.967682" lon="26.549299">
<ele>96.708069</ele>
<time>2010-08-29T08:59:53Z</time>
<desc>lat.=55.967682, lon.=26.549299, Alt.=96.708069m. Speed=1.764000m/h.</desc>
<speed>0.490000</speed>
</trkpt>
<trkpt lat="55.967686" lon="26.549301">
<ele>96.756897</ele>
<time>2010-08-29T08:59:54Z</time>
<desc>lat.=55.967686, lon.=26.549301, Alt.=96.756897m. Speed=1.404000m/h.</desc>
<speed>0.390000</speed>
</trkpt>
<trkpt lat="55.967709" lon="26.549278">
<ele>97.176819</ele>
<time>2010-08-29T08:59:55Z</time>
<desc>lat.=55.967709, lon.=26.549278, Alt.=97.176819m. Speed=1.620000m/h.</desc>
<speed>0.450000</speed>
</trkpt>
<trkpt lat="55.967724" lon="26.549276">
<ele>97.174866</ele>
<time>2010-08-29T08:59:56Z</time>
<desc>lat.=55.967724, lon.=26.549276, Alt.=97.174866m. Speed=1.944000m/h.</desc>
<speed>0.540000</speed>
</trkpt>
<trkpt lat="55.967728" lon="26.549274">
<ele>97.188538</ele>
<time>2010-08-29T08:59:57Z</time>
<desc>lat.=55.967728, lon.=26.549274, Alt.=97.188538m. Speed=1.476000m/h.</desc>
<speed>0.410000</speed>
</trkpt>
<trkpt lat="55.967747" lon="26.549284">
<ele>97.280334</ele>
<time>2010-08-29T08:59:58Z</time>
<desc>lat.=55.967747, lon.=26.549284, Alt.=97.280334m. Speed=2.520000m/h.</desc>
<speed>0.700000</speed>
</trkpt>
<trkpt lat="55.967762" lon="26.549301">
<ele>97.309631</ele>
<time>2010-08-29T08:59:59Z</time>
<desc>lat.=55.967762, lon.=26.549301, Alt.=97.309631m. Speed=3.528000m/h.</desc>
<speed>0.980000</speed>
</trkpt>
<trkpt lat="55.967781" lon="26.549309">
<ele>97.338928</ele>
<time>2010-08-29T09:00:00Z</time>
<desc>lat.=55.967781, lon.=26.549309, Alt.=97.338928m. Speed=4.140000m/h.</desc>
<speed>1.150000</speed>
</trkpt>
<trkpt lat="55.967796" lon="26.549320">
<ele>97.419006</ele>
<time>2010-08-29T09:00:01Z</time>
<desc>lat.=55.967796, lon.=26.549320, Alt.=97.419006m. Speed=4.464000m/h.</desc>
<speed>1.240000</speed>
</trkpt>
<trkpt lat="55.967815" lon="26.549334">
<ele>97.473694</ele>
<time>2010-08-29T09:00:02Z</time>
<desc>lat.=55.967815, lon.=26.549334, Alt.=97.473694m. Speed=5.112000m/h.</desc>
<speed>1.420000</speed>
</trkpt>
<trkpt lat="55.967831" lon="26.549341">
<ele>97.524475</ele>
<time>2010-08-29T09:00:03Z</time>
<desc>lat.=55.967831, lon.=26.549341, Alt.=97.524475m. Speed=5.004000m/h.</desc>
<speed>1.390000</speed>
</trkpt>
<trkpt lat="55.967854" lon="26.549335">
<ele>98.020569</ele>
<time>2010-08-29T09:00:04Z</time>
<desc>lat.=55.967854, lon.=26.549335, Alt.=98.020569m. Speed=5.292000m/h.</desc>
<speed>1.470000</speed>
</trkpt>
<trkpt lat="55.967884" lon="26.549351">
<ele>98.001038</ele>
<time>2010-08-29T09:00:05Z</time>
<desc>lat.=55.967884, lon.=26.549351, Alt.=98.001038m. Speed=5.724000m/h.</desc>
<speed>1.590000</speed>
</trkpt>
<trkpt lat="55.967903" lon="26.549374">
<ele>98.120178</ele>
<time>2010-08-29T09:00:06Z</time>
<desc>lat.=55.967903, lon.=26.549374, Alt.=98.120178m. Speed=4.608000m/h.</desc>
<speed>1.280000</speed>
</trkpt>
<trkpt lat="55.967930" lon="26.549389">
<ele>98.176819</ele>
<time>2010-08-29T09:00:07Z</time>
<desc>lat.=55.967930, lon.=26.549389, Alt.=98.176819m. Speed=5.868000m/h.</desc>
<speed>1.630000</speed>
</trkpt>
<trkpt lat="55.967949" lon="26.549404">
<ele>98.120178</ele>
<time>2010-08-29T09:00:08Z</time>
<desc>lat.=55.967949, lon.=26.549404, Alt.=98.120178m. Speed=3.384000m/h.</desc>
<speed>0.940000</speed>
</trkpt>
<trkpt lat="55.967972" lon="26.549435">
<ele>98.602600</ele>
<time>2010-08-29T09:00:09Z</time>
<desc>lat.=55.967972, lon.=26.549435, Alt.=98.602600m. Speed=4.320000m/h.</desc>
<speed>1.200000</speed>
</trkpt>
<trkpt lat="55.967995" lon="26.549444">
<ele>98.485413</ele>
<time>2010-08-29T09:00:10Z</time>
<desc>lat.=55.967995, lon.=26.549444, Alt.=98.485413m. Speed=3.528000m/h.</desc>
<speed>0.980000</speed>
</trkpt>
<trkpt lat="55.968018" lon="26.549444">
<ele>98.231506</ele>
<time>2010-08-29T09:00:11Z</time>
<desc>lat.=55.968018, lon.=26.549444, Alt.=98.231506m. Speed=4.824000m/h.</desc>
<speed>1.340000</speed>
</trkpt>
<trkpt lat="55.968044" lon="26.549446">
<ele>98.135803</ele>
<time>2010-08-29T09:00:12Z</time>
<desc>lat.=55.968044, lon.=26.549446, Alt.=98.135803m. Speed=5.004000m/h.</desc>
<speed>1.390000</speed>
</trkpt>
<trkpt lat="55.968067" lon="26.549459">
<ele>98.413147</ele>
<time>2010-08-29T09:00:13Z</time>
<desc>lat.=55.968067, lon.=26.549459, Alt.=98.413147m. Speed=3.636000m/h.</desc>
<speed>1.010000</speed>
</trkpt>
<trkpt lat="55.968082" lon="26.549471">
<ele>98.297913</ele>
<time>2010-08-29T09:00:14Z</time>
<desc>lat.=55.968082, lon.=26.549471, Alt.=98.297913m. Speed=1.188000m/h.</desc>
<speed>0.330000</speed>
</trkpt>
<trkpt lat="55.968098" lon="26.549482">
<ele>98.278381</ele>
<time>2010-08-29T09:00:15Z</time>
<desc>lat.=55.968098, lon.=26.549482, Alt.=98.278381m. Speed=1.116000m/h.</desc>
<speed>0.310000</speed>
</trkpt>
<trkpt lat="55.968113" lon="26.549498">
<ele>98.426819</ele>
<time>2010-08-29T09:00:16Z</time>
<desc>lat.=55.968113, lon.=26.549498, Alt.=98.426819m. Speed=2.556000m/h.</desc>
<speed>0.710000</speed>
</trkpt>
<trkpt lat="55.968136" lon="26.549515">
<ele>98.481506</ele>
<time>2010-08-29T09:00:17Z</time>
<desc>lat.=55.968136, lon.=26.549515, Alt.=98.481506m. Speed=3.528000m/h.</desc>
<speed>0.980000</speed>
</trkpt>
<trkpt lat="55.968166" lon="26.549583">
<ele>98.411194</ele>
<time>2010-08-29T09:00:18Z</time>
<desc>lat.=55.968166, lon.=26.549583, Alt.=98.411194m. Speed=4.536000m/h.</desc>
<speed>1.260000</speed>
</trkpt>
<trkpt lat="55.968185" lon="26.549589">
<ele>98.362366</ele>
<time>2010-08-29T09:00:19Z</time>
<desc>lat.=55.968185, lon.=26.549589, Alt.=98.362366m. Speed=3.852000m/h.</desc>
<speed>1.070000</speed>
</trkpt>
<trkpt lat="55.968201" lon="26.549604">
<ele>98.407288</ele>
<time>2010-08-29T09:00:20Z</time>
<desc>lat.=55.968201, lon.=26.549604, Alt.=98.407288m. Speed=3.888000m/h.</desc>
<speed>1.080000</speed>
</trkpt>
<trkpt lat="55.968216" lon="26.549604">
<ele>98.995178</ele>
<time>2010-08-29T09:00:21Z</time>
<desc>lat.=55.968216, lon.=26.549604, Alt.=98.995178m. Speed=3.384000m/h.</desc>
<speed>0.940000</speed>
</trkpt>
<trkpt lat="55.968231" lon="26.549608">
<ele>99.379944</ele>
<time>2010-08-29T09:00:22Z</time>
<desc>lat.=55.968231, lon.=26.549608, Alt.=99.379944m. Speed=3.240000m/h.</desc>
<speed>0.900000</speed>
</trkpt>
<trkpt lat="55.968239" lon="26.549614">
<ele>99.426819</ele>
<time>2010-08-29T09:00:23Z</time>
<desc>lat.=55.968239, lon.=26.549614, Alt.=99.426819m. Speed=3.096000m/h.</desc>
<speed>0.860000</speed>
</trkpt>
<trkpt lat="55.968262" lon="26.549616">
<ele>99.483459</ele>
<time>2010-08-29T09:00:24Z</time>
<desc>lat.=55.968262, lon.=26.549616, Alt.=99.483459m. Speed=3.312000m/h.</desc>
<speed>0.920000</speed>
</trkpt>
<trkpt lat="55.968285" lon="26.549625">
<ele>99.502991</ele>
<time>2010-08-29T09:00:25Z</time>
<desc>lat.=55.968285, lon.=26.549625, Alt.=99.502991m. Speed=3.672000m/h.</desc>
<speed>1.020000</speed>
</trkpt>
<trkpt lat="55.968296" lon="26.549627">
<ele>99.422913</ele>
<time>2010-08-29T09:00:26Z</time>
<desc>lat.=55.968296, lon.=26.549627, Alt.=99.422913m. Speed=3.384000m/h.</desc>
<speed>0.940000</speed>
</trkpt>
<trkpt lat="55.968315" lon="26.549625">
<ele>99.409241</ele>
<time>2010-08-29T09:00:27Z</time>
<desc>lat.=55.968315, lon.=26.549625, Alt.=99.409241m. Speed=3.816000m/h.</desc>
<speed>1.060000</speed>
</trkpt>
<trkpt lat="55.968330" lon="26.549625">
<ele>99.456116</ele>
<time>2010-08-29T09:00:28Z</time>
<desc>lat.=55.968330, lon.=26.549625, Alt.=99.456116m. Speed=3.852000m/h.</desc>
<speed>1.070000</speed>
</trkpt>
<trkpt lat="55.968349" lon="26.549616">
<ele>99.835022</ele>
<time>2010-08-29T09:00:29Z</time>
<desc>lat.=55.968349, lon.=26.549616, Alt.=99.835022m. Speed=4.320000m/h.</desc>
<speed>1.200000</speed>
</trkpt>
<trkpt lat="55.968372" lon="26.549614">
<ele>99.991272</ele>
<time>2010-08-29T09:00:30Z</time>
<desc>lat.=55.968372, lon.=26.549614, Alt.=99.991272m. Speed=4.644000m/h.</desc>
<speed>1.290000</speed>
</trkpt>
<trkpt lat="55.968391" lon="26.549599">
<ele>100.280334</ele>
<time>2010-08-29T09:00:31Z</time>
<desc>lat.=55.968391, lon.=26.549599, Alt.=100.280334m. Speed=4.716000m/h.</desc>
<speed>1.310000</speed>
</trkpt>
<trkpt lat="55.968414" lon="26.549578">
<ele>100.690491</ele>
<time>2010-08-29T09:00:32Z</time>
<desc>lat.=55.968414, lon.=26.549578, Alt.=100.690491m. Speed=4.860000m/h.</desc>
<speed>1.350000</speed>
</trkpt>
<trkpt lat="55.968437" lon="26.549551">
<ele>100.848694</ele>
<time>2010-08-29T09:00:33Z</time>
<desc>lat.=55.968437, lon.=26.549551, Alt.=100.848694m. Speed=5.868000m/h.</desc>
<speed>1.630000</speed>
</trkpt>
<trkpt lat="55.968456" lon="26.549536">
<ele>101.297913</ele>
<time>2010-08-29T09:00:34Z</time>
<desc>lat.=55.968456, lon.=26.549536, Alt.=101.297913m. Speed=5.004000m/h.</desc>
<speed>1.390000</speed>
</trkpt>
<trkpt lat="55.968472" lon="26.549520">
<ele>101.327209</ele>
<time>2010-08-29T09:00:35Z</time>
<desc>lat.=55.968472, lon.=26.549520, Alt.=101.327209m. Speed=5.076000m/h.</desc>
<speed>1.410000</speed>
</trkpt>
<trkpt lat="55.968491" lon="26.549500">
<ele>101.823303</ele>
<time>2010-08-29T09:00:36Z</time>
<desc>lat.=55.968491, lon.=26.549500, Alt.=101.823303m. Speed=4.284000m/h.</desc>
<speed>1.190000</speed>
</trkpt>
<trkpt lat="55.968506" lon="26.549482">
<ele>102.389709</ele>
<time>2010-08-29T09:00:37Z</time>
<desc>lat.=55.968506, lon.=26.549482, Alt.=102.389709m. Speed=2.628000m/h.</desc>
<speed>0.730000</speed>
</trkpt>
<trkpt lat="55.968525" lon="26.549465">
<ele>103.163147</ele>
<time>2010-08-29T09:00:38Z</time>
<desc>lat.=55.968525, lon.=26.549465, Alt.=103.163147m. Speed=3.420000m/h.</desc>
<speed>0.950000</speed>
</trkpt>
<trkpt lat="55.968533" lon="26.549444">
<ele>103.522522</ele>
<time>2010-08-29T09:00:39Z</time>
<desc>lat.=55.968533, lon.=26.549444, Alt.=103.522522m. Speed=3.924000m/h.</desc>
<speed>1.090000</speed>
</trkpt>
<trkpt lat="55.968559" lon="26.549421">
<ele>104.723694</ele>
<time>2010-08-29T09:00:40Z</time>
<desc>lat.=55.968559, lon.=26.549421, Alt.=104.723694m. Speed=3.888000m/h.</desc>
<speed>1.080000</speed>
</trkpt>
<trkpt lat="55.968552" lon="26.549402">
<ele>105.153381</ele>
<time>2010-08-29T09:00:41Z</time>
<desc>lat.=55.968552, lon.=26.549402, Alt.=105.153381m. Speed=3.996000m/h.</desc>
<speed>1.110000</speed>
</trkpt>
<trkpt lat="55.968555" lon="26.549387">
<ele>105.419006</ele>
<time>2010-08-29T09:00:42Z</time>
<desc>lat.=55.968555, lon.=26.549387, Alt.=105.419006m. Speed=3.564000m/h.</desc>
<speed>0.990000</speed>
</trkpt>
<trkpt lat="55.968559" lon="26.549379">
<ele>105.809631</ele>
<time>2010-08-29T09:00:43Z</time>
<desc>lat.=55.968559, lon.=26.549379, Alt.=105.809631m. Speed=2.556000m/h.</desc>
<speed>0.710000</speed>
</trkpt>
<trkpt lat="55.968563" lon="26.549368">
<ele>106.215881</ele>
<time>2010-08-29T09:00:44Z</time>
<desc>lat.=55.968563, lon.=26.549368, Alt.=106.215881m. Speed=2.556000m/h.</desc>
<speed>0.710000</speed>
</trkpt>
<trkpt lat="55.968575" lon="26.549358">
<ele>106.657288</ele>
<time>2010-08-29T09:00:45Z</time>
<desc>lat.=55.968575, lon.=26.549358, Alt.=106.657288m. Speed=2.160000m/h.</desc>
<speed>0.600000</speed>
</trkpt>
<trkpt lat="55.968578" lon="26.549353">
<ele>107.036194</ele>
<time>2010-08-29T09:00:46Z</time>
<desc>lat.=55.968578, lon.=26.549353, Alt.=107.036194m. Speed=2.052000m/h.</desc>
<speed>0.570000</speed>
</trkpt>
<trkpt lat="55.968586" lon="26.549347">
<ele>107.385803</ele>
<time>2010-08-29T09:00:47Z</time>
<desc>lat.=55.968586, lon.=26.549347, Alt.=107.385803m. Speed=2.592000m/h.</desc>
<speed>0.720000</speed>
</trkpt>
<trkpt lat="55.968597" lon="26.549339">
<ele>107.528381</ele>
<time>2010-08-29T09:00:48Z</time>
<desc>lat.=55.968597, lon.=26.549339, Alt.=107.528381m. Speed=2.772000m/h.</desc>
<speed>0.770000</speed>
</trkpt>
<trkpt lat="55.968609" lon="26.549330">
<ele>108.016663</ele>
<time>2010-08-29T09:00:49Z</time>
<desc>lat.=55.968609, lon.=26.549330, Alt.=108.016663m. Speed=2.844000m/h.</desc>
<speed>0.790000</speed>
</trkpt>
<trkpt lat="55.968620" lon="26.549328">
<ele>108.127991</ele>
<time>2010-08-29T09:00:50Z</time>
<desc>lat.=55.968620, lon.=26.549328, Alt.=108.127991m. Speed=2.916000m/h.</desc>
<speed>0.810000</speed>
</trkpt>
<trkpt lat="55.968636" lon="26.549322">
<ele>108.251038</ele>
<time>2010-08-29T09:00:51Z</time>
<desc>lat.=55.968636, lon.=26.549322, Alt.=108.251038m. Speed=3.024000m/h.</desc>
<speed>0.840000</speed>
</trkpt>
<trkpt lat="55.968647" lon="26.549320">
<ele>108.335022</ele>
<time>2010-08-29T09:00:52Z</time>
<desc>lat.=55.968647, lon.=26.549320, Alt.=108.335022m. Speed=2.988000m/h.</desc>
<speed>0.830000</speed>
</trkpt>
<trkpt lat="55.968662" lon="26.549313">
<ele>108.401428</ele>
<time>2010-08-29T09:00:53Z</time>
<desc>lat.=55.968662, lon.=26.549313, Alt.=108.401428m. Speed=3.204000m/h.</desc>
<speed>0.890000</speed>
</trkpt>
<trkpt lat="55.968678" lon="26.549311">
<ele>108.588928</ele>
<time>2010-08-29T09:00:54Z</time>
<desc>lat.=55.968678, lon.=26.549311, Alt.=108.588928m. Speed=3.456000m/h.</desc>
<speed>0.960000</speed>
</trkpt>
<trkpt lat="55.968693" lon="26.549316">
<ele>108.780334</ele>
<time>2010-08-29T09:00:55Z</time>
<desc>lat.=55.968693, lon.=26.549316, Alt.=108.780334m. Speed=3.456000m/h.</desc>
<speed>0.960000</speed>
</trkpt>
<trkpt lat="55.968704" lon="26.549318">
<ele>108.926819</ele>
<time>2010-08-29T09:00:56Z</time>
<desc>lat.=55.968704, lon.=26.549318, Alt.=108.926819m. Speed=3.348000m/h.</desc>
<speed>0.930000</speed>
</trkpt>
<trkpt lat="55.968719" lon="26.549318">
<ele>109.167053</ele>
<time>2010-08-29T09:00:57Z</time>
<desc>lat.=55.968719, lon.=26.549318, Alt.=109.167053m. Speed=3.132000m/h.</desc>
<speed>0.870000</speed>
</trkpt>
<trkpt lat="55.968758" lon="26.549303">
<ele>109.194397</ele>
<time>2010-08-29T09:00:58Z</time>
<desc>lat.=55.968758, lon.=26.549303, Alt.=109.194397m. Speed=3.780000m/h.</desc>
<speed>1.050000</speed>
</trkpt>
<trkpt lat="55.968773" lon="26.549311">
<ele>109.456116</ele>
<time>2010-08-29T09:00:59Z</time>
<desc>lat.=55.968773, lon.=26.549311, Alt.=109.456116m. Speed=3.888000m/h.</desc>
<speed>1.080000</speed>
</trkpt>
<trkpt lat="55.968788" lon="26.549307">
<ele>109.612366</ele>
<time>2010-08-29T09:01:00Z</time>
<desc>lat.=55.968788, lon.=26.549307, Alt.=109.612366m. Speed=3.888000m/h.</desc>
<speed>1.080000</speed>
</trkpt>
<trkpt lat="55.968800" lon="26.549303">
<ele>109.815491</ele>
<time>2010-08-29T09:01:01Z</time>
<desc>lat.=55.968800, lon.=26.549303, Alt.=109.815491m. Speed=3.564000m/h.</desc>
<speed>0.990000</speed>
</trkpt>
<trkpt lat="55.968822" lon="26.549307">
<ele>109.876038</ele>
<time>2010-08-29T09:01:02Z</time>
<desc>lat.=55.968822, lon.=26.549307, Alt.=109.876038m. Speed=3.744000m/h.</desc>
<speed>1.040000</speed>
</trkpt>
<trkpt lat="55.968845" lon="26.549305">
<ele>109.862366</ele>
<time>2010-08-29T09:01:03Z</time>
<desc>lat.=55.968845, lon.=26.549305, Alt.=109.862366m. Speed=4.320000m/h.</desc>
<speed>1.200000</speed>
</trkpt>
<trkpt lat="55.968857" lon="26.549303">
<ele>110.020569</ele>
<time>2010-08-29T09:01:04Z</time>
<desc>lat.=55.968857, lon.=26.549303, Alt.=110.020569m. Speed=4.032000m/h.</desc>
<speed>1.120000</speed>
</trkpt>
<trkpt lat="55.968872" lon="26.549309">
<ele>110.067444</ele>
<time>2010-08-29T09:01:05Z</time>
<desc>lat.=55.968872, lon.=26.549309, Alt.=110.067444m. Speed=4.140000m/h.</desc>
<speed>1.150000</speed>
</trkpt>
<trkpt lat="55.968895" lon="26.549311">
<ele>110.071350</ele>
<time>2010-08-29T09:01:06Z</time>
<desc>lat.=55.968895, lon.=26.549311, Alt.=110.071350m. Speed=4.464000m/h.</desc>
<speed>1.240000</speed>
</trkpt>
<trkpt lat="55.968910" lon="26.549311">
<ele>110.174866</ele>
<time>2010-08-29T09:01:07Z</time>
<desc>lat.=55.968910, lon.=26.549311, Alt.=110.174866m. Speed=4.464000m/h.</desc>
<speed>1.240000</speed>
</trkpt>
<trkpt lat="55.968937" lon="26.549311">
<ele>110.227600</ele>
<time>2010-08-29T09:01:08Z</time>
<desc>lat.=55.968937, lon.=26.549311, Alt.=110.227600m. Speed=4.716000m/h.</desc>
<speed>1.310000</speed>
</trkpt>
<trkpt lat="55.968956" lon="26.549311">
<ele>110.276428</ele>
<time>2010-08-29T09:01:09Z</time>
<desc>lat.=55.968956, lon.=26.549311, Alt.=110.276428m. Speed=4.644000m/h.</desc>
<speed>1.290000</speed>
</trkpt>
<trkpt lat="55.968971" lon="26.549316">
<ele>110.487366</ele>
<time>2010-08-29T09:01:10Z</time>
<desc>lat.=55.968971, lon.=26.549316, Alt.=110.487366m. Speed=4.248000m/h.</desc>
<speed>1.180000</speed>
</trkpt>
<trkpt lat="55.968987" lon="26.549318">
<ele>110.598694</ele>
<time>2010-08-29T09:01:11Z</time>
<desc>lat.=55.968987, lon.=26.549318, Alt.=110.598694m. Speed=4.644000m/h.</desc>
<speed>1.290000</speed>
</trkpt>
<trkpt lat="55.969002" lon="26.549318">
<ele>110.688538</ele>
<time>2010-08-29T09:01:12Z</time>
<desc>lat.=55.969002, lon.=26.549318, Alt.=110.688538m. Speed=4.608000m/h.</desc>
<speed>1.280000</speed>
</trkpt>
<trkpt lat="55.969013" lon="26.549328">
<ele>110.143616</ele>
<time>2010-08-29T09:01:13Z</time>
<desc>lat.=55.969013, lon.=26.549328, Alt.=110.143616m. Speed=4.248000m/h.</desc>
<speed>1.180000</speed>
</trkpt>
<trkpt lat="55.969028" lon="26.549334">
<ele>110.879944</ele>
<time>2010-08-29T09:01:14Z</time>
<desc>lat.=55.969028, lon.=26.549334, Alt.=110.879944m. Speed=4.176000m/h.</desc>
<speed>1.160000</speed>
</trkpt>
<trkpt lat="55.969044" lon="26.549330">
<ele>111.112366</ele>
<time>2010-08-29T09:01:15Z</time>
<desc>lat.=55.969044, lon.=26.549330, Alt.=111.112366m. Speed=4.140000m/h.</desc>
<speed>1.150000</speed>
</trkpt>
<trkpt lat="55.969070" lon="26.549356">
<ele>110.846741</ele>
<time>2010-08-29T09:01:16Z</time>
<desc>lat.=55.969070, lon.=26.549356, Alt.=110.846741m. Speed=4.860000m/h.</desc>
<speed>1.350000</speed>
</trkpt>
<trkpt lat="55.969097" lon="26.549356">
<ele>111.147522</ele>
<time>2010-08-29T09:01:17Z</time>
<desc>lat.=55.969097, lon.=26.549356, Alt.=111.147522m. Speed=5.364000m/h.</desc>
<speed>1.490000</speed>
</trkpt>
<trkpt lat="55.969116" lon="26.549372">
<ele>111.077209</ele>
<time>2010-08-29T09:01:18Z</time>
<desc>lat.=55.969116, lon.=26.549372, Alt.=111.077209m. Speed=5.292000m/h.</desc>
<speed>1.470000</speed>
</trkpt>
<trkpt lat="55.969135" lon="26.549381">
<ele>111.159241</ele>
<time>2010-08-29T09:01:19Z</time>
<desc>lat.=55.969135, lon.=26.549381, Alt.=111.159241m. Speed=4.572000m/h.</desc>
<speed>1.270000</speed>
</trkpt>
<trkpt lat="55.969154" lon="26.549385">
<ele>111.284241</ele>
<time>2010-08-29T09:01:20Z</time>
<desc>lat.=55.969154, lon.=26.549385, Alt.=111.284241m. Speed=3.564000m/h.</desc>
<speed>0.990000</speed>
</trkpt>
<trkpt lat="55.969166" lon="26.549381">
<ele>111.516663</ele>
<time>2010-08-29T09:01:21Z</time>
<desc>lat.=55.969166, lon.=26.549381, Alt.=111.516663m. Speed=3.276000m/h.</desc>
<speed>0.910000</speed>
</trkpt>
<trkpt lat="55.969196" lon="26.549404">
<ele>111.131897</ele>
<time>2010-08-29T09:01:22Z</time>
<desc>lat.=55.969196, lon.=26.549404, Alt.=111.131897m. Speed=4.572000m/h.</desc>
<speed>1.270000</speed>
</trkpt>
<trkpt lat="55.969219" lon="26.549416">
<ele>110.879944</ele>
<time>2010-08-29T09:01:23Z</time>
<desc>lat.=55.969219, lon.=26.549416, Alt.=110.879944m. Speed=5.256000m/h.</desc>
<speed>1.460000</speed>
</trkpt>
<trkpt lat="55.969242" lon="26.549438">
<ele>110.813538</ele>
<time>2010-08-29T09:01:24Z</time>
<desc>lat.=55.969242, lon.=26.549438, Alt.=110.813538m. Speed=4.068000m/h.</desc>
<speed>1.130000</speed>
</trkpt>
<trkpt lat="55.969257" lon="26.549438">
<ele>110.489319</ele>
<time>2010-08-29T09:01:25Z</time>
<desc>lat.=55.969257, lon.=26.549438, Alt.=110.489319m. Speed=3.348000m/h.</desc>
<speed>0.930000</speed>
</trkpt>
<trkpt lat="55.969288" lon="26.549473">
<ele>110.526428</ele>
<time>2010-08-29T09:01:26Z</time>
<desc>lat.=55.969288, lon.=26.549473, Alt.=110.526428m. Speed=5.580000m/h.</desc>
<speed>1.550000</speed>
</trkpt>
<trkpt lat="55.969315" lon="26.549479">
<ele>110.493225</ele>
<time>2010-08-29T09:01:27Z</time>
<desc>lat.=55.969315, lon.=26.549479, Alt.=110.493225m. Speed=4.104000m/h.</desc>
<speed>1.140000</speed>
</trkpt>
<trkpt lat="55.969337" lon="26.549486">
<ele>110.612366</ele>
<time>2010-08-29T09:01:28Z</time>
<desc>lat.=55.969337, lon.=26.549486, Alt.=110.612366m. Speed=2.880000m/h.</desc>
<speed>0.800000</speed>
</trkpt>
<trkpt lat="55.969357" lon="26.549492">
<ele>110.590881</ele>
<time>2010-08-29T09:01:29Z</time>
<desc>lat.=55.969357, lon.=26.549492, Alt.=110.590881m. Speed=4.212000m/h.</desc>
<speed>1.170000</speed>
</trkpt>
<trkpt lat="55.969372" lon="26.549511">
<ele>110.288147</ele>
<time>2010-08-29T09:01:30Z</time>
<desc>lat.=55.969372, lon.=26.549511, Alt.=110.288147m. Speed=2.916000m/h.</desc>
<speed>0.810000</speed>
</trkpt>
<trkpt lat="55.969402" lon="26.549507">
<ele>110.178772</ele>
<time>2010-08-29T09:01:31Z</time>
<desc>lat.=55.969402, lon.=26.549507, Alt.=110.178772m. Speed=2.736000m/h.</desc>
<speed>0.760000</speed>
</trkpt>
<trkpt lat="55.969429" lon="26.549507">
<ele>109.674866</ele>
<time>2010-08-29T09:01:32Z</time>
<desc>lat.=55.969429, lon.=26.549507, Alt.=109.674866m. Speed=4.824000m/h.</desc>
<speed>1.340000</speed>
</trkpt>
<trkpt lat="55.969471" lon="26.549500">
<ele>109.350647</ele>
<time>2010-08-29T09:01:33Z</time>
<desc>lat.=55.969471, lon.=26.549500, Alt.=109.350647m. Speed=6.552000m/h.</desc>
<speed>1.820000</speed>
</trkpt>
<trkpt lat="55.969498" lon="26.549496">
<ele>109.368225</ele>
<time>2010-08-29T09:01:34Z</time>
<desc>lat.=55.969498, lon.=26.549496, Alt.=109.368225m. Speed=5.868000m/h.</desc>
<speed>1.630000</speed>
</trkpt>
<trkpt lat="55.969524" lon="26.549515">
<ele>107.756897</ele>
<time>2010-08-29T09:01:35Z</time>
<desc>lat.=55.969524, lon.=26.549515, Alt.=107.756897m. Speed=4.716000m/h.</desc>
<speed>1.310000</speed>
</trkpt>
<trkpt lat="55.969547" lon="26.549538">
<ele>107.270569</ele>
<time>2010-08-29T09:01:36Z</time>
<desc>lat.=55.969547, lon.=26.549538, Alt.=107.270569m. Speed=4.680000m/h.</desc>
<speed>1.300000</speed>
</trkpt>
<trkpt lat="55.969559" lon="26.549551">
<ele>107.294006</ele>
<time>2010-08-29T09:01:37Z</time>
<desc>lat.=55.969559, lon.=26.549551, Alt.=107.294006m. Speed=2.592000m/h.</desc>
<speed>0.720000</speed>
</trkpt>
<trkpt lat="55.969566" lon="26.549564">
<ele>106.999084</ele>
<time>2010-08-29T09:01:38Z</time>
<desc>lat.=55.969566, lon.=26.549564, Alt.=106.999084m. Speed=2.196000m/h.</desc>
<speed>0.610000</speed>
</trkpt>
<trkpt lat="55.969578" lon="26.549585">
<ele>106.758850</ele>
<time>2010-08-29T09:01:39Z</time>
<desc>lat.=55.969578, lon.=26.549585, Alt.=106.758850m. Speed=2.340000m/h.</desc>
<speed>0.650000</speed>
</trkpt>
<trkpt lat="55.969601" lon="26.549593">
<ele>106.420959</ele>
<time>2010-08-29T09:01:40Z</time>
<desc>lat.=55.969601, lon.=26.549593, Alt.=106.420959m. Speed=2.772000m/h.</desc>
<speed>0.770000</speed>
</trkpt>
<trkpt lat="55.969616" lon="26.549597">
<ele>105.926819</ele>
<time>2010-08-29T09:01:41Z</time>
<desc>lat.=55.969616, lon.=26.549597, Alt.=105.926819m. Speed=2.988000m/h.</desc>
<speed>0.830000</speed>
</trkpt>
<trkpt lat="55.969643" lon="26.549606">
<ele>106.049866</ele>
<time>2010-08-29T09:01:42Z</time>
<desc>lat.=55.969643, lon.=26.549606, Alt.=106.049866m. Speed=3.852000m/h.</desc>
<speed>1.070000</speed>
</trkpt>
<trkpt lat="55.969658" lon="26.549612">
<ele>105.973694</ele>
<time>2010-08-29T09:01:43Z</time>
<desc>lat.=55.969658, lon.=26.549612, Alt.=105.973694m. Speed=4.104000m/h.</desc>
<speed>1.140000</speed>
</trkpt>
<trkpt lat="55.969673" lon="26.549618">
<ele>105.491272</ele>
<time>2010-08-29T09:01:44Z</time>
<desc>lat.=55.969673, lon.=26.549618, Alt.=105.491272m. Speed=3.924000m/h.</desc>
<speed>1.090000</speed>
</trkpt>
<trkpt lat="55.969685" lon="26.549610">
<ele>105.391663</ele>
<time>2010-08-29T09:01:45Z</time>
<desc>lat.=55.969685, lon.=26.549610, Alt.=105.391663m. Speed=3.384000m/h.</desc>
<speed>0.940000</speed>
</trkpt>
<trkpt lat="55.969704" lon="26.549633">
<ele>105.170959</ele>
<time>2010-08-29T09:01:46Z</time>
<desc>lat.=55.969704, lon.=26.549633, Alt.=105.170959m. Speed=3.744000m/h.</desc>
<speed>1.040000</speed>
</trkpt>
<trkpt lat="55.969719" lon="26.549639">
<ele>105.014709</ele>
<time>2010-08-29T09:01:47Z</time>
<desc>lat.=55.969719, lon.=26.549639, Alt.=105.014709m. Speed=3.924000m/h.</desc>
<speed>1.090000</speed>
</trkpt>
<trkpt lat="55.969742" lon="26.549639">
<ele>104.881897</ele>
<time>2010-08-29T09:01:48Z</time>
<desc>lat.=55.969742, lon.=26.549639, Alt.=104.881897m. Speed=4.680000m/h.</desc>
<speed>1.300000</speed>
</trkpt>
<trkpt lat="55.969765" lon="26.549639">
<ele>104.700256</ele>
<time>2010-08-29T09:01:49Z</time>
<desc>lat.=55.969765, lon.=26.549639, Alt.=104.700256m. Speed=4.464000m/h.</desc>
<speed>1.240000</speed>
</trkpt>
<trkpt lat="55.969788" lon="26.549639">
<ele>104.317444</ele>
<time>2010-08-29T09:01:50Z</time>
<desc>lat.=55.969788, lon.=26.549639, Alt.=104.317444m. Speed=3.888000m/h.</desc>
<speed>1.080000</speed>
</trkpt>
<trkpt lat="55.969810" lon="26.549635">
<ele>104.450256</ele>
<time>2010-08-29T09:01:51Z</time>
<desc>lat.=55.969810, lon.=26.549635, Alt.=104.450256m. Speed=4.320000m/h.</desc>
<speed>1.200000</speed>
</trkpt>
<trkpt lat="55.969841" lon="26.549629">
<ele>104.727600</ele>
<time>2010-08-29T09:01:52Z</time>
<desc>lat.=55.969841, lon.=26.549629, Alt.=104.727600m. Speed=4.500000m/h.</desc>
<speed>1.250000</speed>
</trkpt>
<trkpt lat="55.969864" lon="26.549631">
<ele>104.616272</ele>
<time>2010-08-29T09:01:53Z</time>
<desc>lat.=55.969864, lon.=26.549631, Alt.=104.616272m. Speed=5.004000m/h.</desc>
<speed>1.390000</speed>
</trkpt>
<trkpt lat="55.969883" lon="26.549629">
<ele>104.387756</ele>
<time>2010-08-29T09:01:54Z</time>
<desc>lat.=55.969883, lon.=26.549629, Alt.=104.387756m. Speed=4.932000m/h.</desc>
<speed>1.370000</speed>
</trkpt>
<trkpt lat="55.969902" lon="26.549629">
<ele>104.420959</ele>
<time>2010-08-29T09:01:55Z</time>
<desc>lat.=55.969902, lon.=26.549629, Alt.=104.420959m. Speed=4.248000m/h.</desc>
<speed>1.180000</speed>
</trkpt>
<trkpt lat="55.969929" lon="26.549643">
<ele>104.067444</ele>
<time>2010-08-29T09:01:56Z</time>
<desc>lat.=55.969929, lon.=26.549643, Alt.=104.067444m. Speed=7.092000m/h.</desc>
<speed>1.970000</speed>
</trkpt>
<trkpt lat="55.969959" lon="26.549648">
<ele>104.032288</ele>
<time>2010-08-29T09:01:57Z</time>
<desc>lat.=55.969959, lon.=26.549648, Alt.=104.032288m. Speed=6.444000m/h.</desc>
<speed>1.790000</speed>
</trkpt>
<trkpt lat="55.969990" lon="26.549648">
<ele>105.297913</ele>
<time>2010-08-29T09:01:58Z</time>
<desc>lat.=55.969990, lon.=26.549648, Alt.=105.297913m. Speed=5.508000m/h.</desc>
<speed>1.530000</speed>
</trkpt>
<trkpt lat="55.970013" lon="26.549658">
<ele>105.278381</ele>
<time>2010-08-29T09:01:59Z</time>
<desc>lat.=55.970013, lon.=26.549658, Alt.=105.278381m. Speed=3.312000m/h.</desc>
<speed>0.920000</speed>
</trkpt>
<trkpt lat="55.970028" lon="26.549667">
<ele>105.114319</ele>
<time>2010-08-29T09:02:00Z</time>
<desc>lat.=55.970028, lon.=26.549667, Alt.=105.114319m. Speed=4.464000m/h.</desc>
<speed>1.240000</speed>
</trkpt>
<trkpt lat="55.970047" lon="26.549677">
<ele>104.915100</ele>
<time>2010-08-29T09:02:01Z</time>
<desc>lat.=55.970047, lon.=26.549677, Alt.=104.915100m. Speed=3.528000m/h.</desc>
<speed>0.980000</speed>
</trkpt>
<trkpt lat="55.970058" lon="26.549686">
<ele>104.797913</ele>
<time>2010-08-29T09:02:02Z</time>
<desc>lat.=55.970058, lon.=26.549686, Alt.=104.797913m. Speed=3.096000m/h.</desc>
<speed>0.860000</speed>
</trkpt>
<trkpt lat="55.970074" lon="26.549700">
<ele>104.522522</ele>
<time>2010-08-29T09:02:03Z</time>
<desc>lat.=55.970074, lon.=26.549700, Alt.=104.522522m. Speed=4.356000m/h.</desc>
<speed>1.210000</speed>
</trkpt>
<trkpt lat="55.970093" lon="26.549711">
<ele>104.358459</ele>
<time>2010-08-29T09:02:04Z</time>
<desc>lat.=55.970093, lon.=26.549711, Alt.=104.358459m. Speed=4.824000m/h.</desc>
<speed>1.340000</speed>
</trkpt>
<trkpt lat="55.970119" lon="26.549725">
<ele>103.026428</ele>
<time>2010-08-29T09:02:05Z</time>
<desc>lat.=55.970119, lon.=26.549725, Alt.=103.026428m. Speed=6.588000m/h.</desc>
<speed>1.830000</speed>
</trkpt>
<trkpt lat="55.970142" lon="26.549740">
<ele>102.790100</ele>
<time>2010-08-29T09:02:06Z</time>
<desc>lat.=55.970142, lon.=26.549740, Alt.=102.790100m. Speed=3.924000m/h.</desc>
<speed>1.090000</speed>
</trkpt>
<trkpt lat="55.970161" lon="26.549759">
<ele>102.551819</ele>
<time>2010-08-29T09:02:07Z</time>
<desc>lat.=55.970161, lon.=26.549759, Alt.=102.551819m. Speed=4.644000m/h.</desc>
<speed>1.290000</speed>
</trkpt>
<trkpt lat="55.970184" lon="26.549776">
<ele>102.145569</ele>
<time>2010-08-29T09:02:08Z</time>
<desc>lat.=55.970184, lon.=26.549776, Alt.=102.145569m. Speed=4.896000m/h.</desc>
<speed>1.360000</speed>
</trkpt>
<trkpt lat="55.970222" lon="26.549797">
<ele>101.833069</ele>
<time>2010-08-29T09:02:09Z</time>
<desc>lat.=55.970222, lon.=26.549797, Alt.=101.833069m. Speed=6.264000m/h.</desc>
<speed>1.740000</speed>
</trkpt>
<trkpt lat="55.970253" lon="26.549809">
<ele>101.958069</ele>
<time>2010-08-29T09:02:10Z</time>
<desc>lat.=55.970253, lon.=26.549809, Alt.=101.958069m. Speed=4.644000m/h.</desc>
<speed>1.290000</speed>
</trkpt>
<trkpt lat="55.970280" lon="26.549818">
<ele>102.194397</ele>
<time>2010-08-29T09:02:11Z</time>
<desc>lat.=55.970280, lon.=26.549818, Alt.=102.194397m. Speed=7.524000m/h.</desc>
<speed>2.090000</speed>
</trkpt>
<trkpt lat="55.970314" lon="26.549835">
<ele>102.178772</ele>
<time>2010-08-29T09:02:12Z</time>
<desc>lat.=55.970314, lon.=26.549835, Alt.=102.178772m. Speed=5.292000m/h.</desc>
<speed>1.470000</speed>
</trkpt>
<trkpt lat="55.970345" lon="26.549849">
<ele>102.143616</ele>
<time>2010-08-29T09:02:13Z</time>
<desc>lat.=55.970345, lon.=26.549849, Alt.=102.143616m. Speed=4.176000m/h.</desc>
<speed>1.160000</speed>
</trkpt>
<trkpt lat="55.970371" lon="26.549856">
<ele>102.532288</ele>
<time>2010-08-29T09:02:14Z</time>
<desc>lat.=55.970371, lon.=26.549856, Alt.=102.532288m. Speed=6.192000m/h.</desc>
<speed>1.720000</speed>
</trkpt>
<trkpt lat="55.970402" lon="26.549858">
<ele>102.549866</ele>
<time>2010-08-29T09:02:15Z</time>
<desc>lat.=55.970402, lon.=26.549858, Alt.=102.549866m. Speed=6.120000m/h.</desc>
<speed>1.700000</speed>
</trkpt>
<trkpt lat="55.970432" lon="26.549870">
<ele>102.157288</ele>
<time>2010-08-29T09:02:16Z</time>
<desc>lat.=55.970432, lon.=26.549870, Alt.=102.157288m. Speed=6.444000m/h.</desc>
<speed>1.790000</speed>
</trkpt>
<trkpt lat="55.970474" lon="26.549887">
<ele>102.075256</ele>
<time>2010-08-29T09:02:17Z</time>
<desc>lat.=55.970474, lon.=26.549887, Alt.=102.075256m. Speed=5.904000m/h.</desc>
<speed>1.640000</speed>
</trkpt>
<trkpt lat="55.970505" lon="26.549894">
<ele>102.081116</ele>
<time>2010-08-29T09:02:18Z</time>
<desc>lat.=55.970505, lon.=26.549894, Alt.=102.081116m. Speed=4.932000m/h.</desc>
<speed>1.370000</speed>
</trkpt>
<trkpt lat="55.970528" lon="26.549910">
<ele>102.094788</ele>
<time>2010-08-29T09:02:19Z</time>
<desc>lat.=55.970528, lon.=26.549910, Alt.=102.094788m. Speed=5.364000m/h.</desc>
<speed>1.490000</speed>
</trkpt>
<trkpt lat="55.970573" lon="26.549902">
<ele>101.790100</ele>
<time>2010-08-29T09:02:20Z</time>
<desc>lat.=55.970573, lon.=26.549902, Alt.=101.790100m. Speed=4.248000m/h.</desc>
<speed>1.180000</speed>
</trkpt>
<trkpt lat="55.970596" lon="26.549917">
<ele>101.872131</ele>
<time>2010-08-29T09:02:21Z</time>
<desc>lat.=55.970596, lon.=26.549917, Alt.=101.872131m. Speed=4.824000m/h.</desc>
<speed>1.340000</speed>
</trkpt>
<trkpt lat="55.970646" lon="26.549904">
<ele>101.167053</ele>
<time>2010-08-29T09:02:22Z</time>
<desc>lat.=55.970646, lon.=26.549904, Alt.=101.167053m. Speed=6.732000m/h.</desc>
<speed>1.870000</speed>
</trkpt>
<trkpt lat="55.970673" lon="26.549913">
<ele>101.211975</ele>
<time>2010-08-29T09:02:23Z</time>
<desc>lat.=55.970673, lon.=26.549913, Alt.=101.211975m. Speed=6.552000m/h.</desc>
<speed>1.820000</speed>
</trkpt>
<trkpt lat="55.970718" lon="26.549967">
<ele>100.614319</ele>
<time>2010-08-29T09:02:24Z</time>
<desc>lat.=55.970718, lon.=26.549967, Alt.=100.614319m. Speed=4.932000m/h.</desc>
<speed>1.370000</speed>
</trkpt>
<trkpt lat="55.970734" lon="26.549982">
<ele>100.600647</ele>
<time>2010-08-29T09:02:25Z</time>
<desc>lat.=55.970734, lon.=26.549982, Alt.=100.600647m. Speed=3.852000m/h.</desc>
<speed>1.070000</speed>
</trkpt>
<trkpt lat="55.970768" lon="26.550028">
<ele>99.461975</ele>
<time>2010-08-29T09:02:26Z</time>
<desc>lat.=55.970768, lon.=26.550028, Alt.=99.461975m. Speed=5.040000m/h.</desc>
<speed>1.400000</speed>
</trkpt>
<trkpt lat="55.970810" lon="26.550041">
<ele>99.557678</ele>
<time>2010-08-29T09:02:27Z</time>
<desc>lat.=55.970810, lon.=26.550041, Alt.=99.557678m. Speed=6.768000m/h.</desc>
<speed>1.880000</speed>
</trkpt>
<trkpt lat="55.970848" lon="26.550070">
<ele>99.149475</ele>
<time>2010-08-29T09:02:28Z</time>
<desc>lat.=55.970848, lon.=26.550070, Alt.=99.149475m. Speed=9.792000m/h.</desc>
<speed>2.720000</speed>
</trkpt>
<trkpt lat="55.970875" lon="26.550089">
<ele>99.381897</ele>
<time>2010-08-29T09:02:29Z</time>
<desc>lat.=55.970875, lon.=26.550089, Alt.=99.381897m. Speed=4.572000m/h.</desc>
<speed>1.270000</speed>
</trkpt>
<trkpt lat="55.970894" lon="26.550095">
<ele>99.301819</ele>
<time>2010-08-29T09:02:30Z</time>
<desc>lat.=55.970894, lon.=26.550095, Alt.=99.301819m. Speed=5.004000m/h.</desc>
<speed>1.390000</speed>
</trkpt>
<trkpt lat="55.970909" lon="26.550106">
<ele>99.327209</ele>
<time>2010-08-29T09:02:31Z</time>
<desc>lat.=55.970909, lon.=26.550106, Alt.=99.327209m. Speed=3.780000m/h.</desc>
<speed>1.050000</speed>
</trkpt>
<trkpt lat="55.970928" lon="26.550123">
<ele>99.524475</ele>
<time>2010-08-29T09:02:32Z</time>
<desc>lat.=55.970928, lon.=26.550123, Alt.=99.524475m. Speed=4.680000m/h.</desc>
<speed>1.300000</speed>
</trkpt>
<trkpt lat="55.970951" lon="26.550123">
<ele>100.047913</ele>
<time>2010-08-29T09:02:33Z</time>
<desc>lat.=55.970951, lon.=26.550123, Alt.=100.047913m. Speed=5.472000m/h.</desc>
<speed>1.520000</speed>
</trkpt>
<trkpt lat="55.970970" lon="26.550131">
<ele>99.969788</ele>
<time>2010-08-29T09:02:34Z</time>
<desc>lat.=55.970970, lon.=26.550131, Alt.=99.969788m. Speed=5.616000m/h.</desc>
<speed>1.560000</speed>
</trkpt>
<trkpt lat="55.971001" lon="26.550144">
<ele>100.020569</ele>
<time>2010-08-29T09:02:35Z</time>
<desc>lat.=55.971001, lon.=26.550144, Alt.=100.020569m. Speed=7.632000m/h.</desc>
<speed>2.120000</speed>
</trkpt>
<trkpt lat="55.971024" lon="26.550161">
<ele>100.016663</ele>
<time>2010-08-29T09:02:36Z</time>
<desc>lat.=55.971024, lon.=26.550161, Alt.=100.016663m. Speed=7.128000m/h.</desc>
<speed>1.980000</speed>
</trkpt>
<trkpt lat="55.971046" lon="26.550179">
<ele>100.032288</ele>
<time>2010-08-29T09:02:37Z</time>
<desc>lat.=55.971046, lon.=26.550179, Alt.=100.032288m. Speed=7.596000m/h.</desc>
<speed>2.110000</speed>
</trkpt>
<trkpt lat="55.971066" lon="26.550194">
<ele>100.264709</ele>
<time>2010-08-29T09:02:38Z</time>
<desc>lat.=55.971066, lon.=26.550194, Alt.=100.264709m. Speed=7.416000m/h.</desc>
<speed>2.060000</speed>
</trkpt>
<trkpt lat="55.971096" lon="26.550205">
<ele>100.210022</ele>
<time>2010-08-29T09:02:39Z</time>
<desc>lat.=55.971096, lon.=26.550205, Alt.=100.210022m. Speed=9.756000m/h.</desc>
<speed>2.710000</speed>
</trkpt>
<trkpt lat="55.971130" lon="26.550220">
<ele>100.137756</ele>
<time>2010-08-29T09:02:40Z</time>
<desc>lat.=55.971130, lon.=26.550220, Alt.=100.137756m. Speed=11.916000m/h.</desc>
<speed>3.310000</speed>
</trkpt>
<trkpt lat="55.971169" lon="26.550219">
<ele>101.290100</ele>
<time>2010-08-29T09:02:41Z</time>
<desc>lat.=55.971169, lon.=26.550219, Alt.=101.290100m. Speed=10.620000m/h.</desc>
<speed>2.950000</speed>
</trkpt>
<trkpt lat="55.971195" lon="26.550228">
<ele>101.645569</ele>
<time>2010-08-29T09:02:42Z</time>
<desc>lat.=55.971195, lon.=26.550228, Alt.=101.645569m. Speed=10.116000m/h.</desc>
<speed>2.810000</speed>
</trkpt>
<trkpt lat="55.971222" lon="26.550234">
<ele>102.235413</ele>
<time>2010-08-29T09:02:43Z</time>
<desc>lat.=55.971222, lon.=26.550234, Alt.=102.235413m. Speed=8.820000m/h.</desc>
<speed>2.450000</speed>
</trkpt>
<trkpt lat="55.971249" lon="26.550238">
<ele>103.311584</ele>
<time>2010-08-29T09:02:44Z</time>
<desc>lat.=55.971249, lon.=26.550238, Alt.=103.311584m. Speed=6.840000m/h.</desc>
<speed>1.900000</speed>
</trkpt>
<trkpt lat="55.971264" lon="26.550245">
<ele>103.413147</ele>
<time>2010-08-29T09:02:45Z</time>
<desc>lat.=55.971264, lon.=26.550245, Alt.=103.413147m. Speed=11.160000m/h.</desc>
<speed>3.100000</speed>
</trkpt>
<trkpt lat="55.971313" lon="26.550261">
<ele>105.221741</ele>
<time>2010-08-29T09:02:46Z</time>
<desc>lat.=55.971313, lon.=26.550261, Alt.=105.221741m. Speed=10.944000m/h.</desc>
<speed>3.040000</speed>
</trkpt>
<trkpt lat="55.971340" lon="26.550272">
<ele>105.940491</ele>
<time>2010-08-29T09:02:47Z</time>
<desc>lat.=55.971340, lon.=26.550272, Alt.=105.940491m. Speed=9.396000m/h.</desc>
<speed>2.610000</speed>
</trkpt>
<trkpt lat="55.971367" lon="26.550283">
<ele>106.766663</ele>
<time>2010-08-29T09:02:48Z</time>
<desc>lat.=55.971367, lon.=26.550283, Alt.=106.766663m. Speed=10.296000m/h.</desc>
<speed>2.860000</speed>
</trkpt>
<trkpt lat="55.971386" lon="26.550310">
<ele>107.217834</ele>
<time>2010-08-29T09:02:49Z</time>
<desc>lat.=55.971386, lon.=26.550310, Alt.=107.217834m. Speed=8.532000m/h.</desc>
<speed>2.370000</speed>
</trkpt>
<trkpt lat="55.971401" lon="26.550348">
<ele>107.553772</ele>
<time>2010-08-29T09:02:50Z</time>
<desc>lat.=55.971401, lon.=26.550348, Alt.=107.553772m. Speed=8.892000m/h.</desc>
<speed>2.470000</speed>
</trkpt>
<trkpt lat="55.971409" lon="26.550379">
<ele>108.149475</ele>
<time>2010-08-29T09:02:51Z</time>
<desc>lat.=55.971409, lon.=26.550379, Alt.=108.149475m. Speed=7.020000m/h.</desc>
<speed>1.950000</speed>
</trkpt>
<trkpt lat="55.971416" lon="26.550409">
<ele>108.331116</ele>
<time>2010-08-29T09:02:52Z</time>
<desc>lat.=55.971416, lon.=26.550409, Alt.=108.331116m. Speed=10.836000m/h.</desc>
<speed>3.010000</speed>
</trkpt>
<trkpt lat="55.971443" lon="26.550449">
<ele>109.575256</ele>
<time>2010-08-29T09:02:53Z</time>
<desc>lat.=55.971443, lon.=26.550449, Alt.=109.575256m. Speed=7.776000m/h.</desc>
<speed>2.160000</speed>
</trkpt>
<trkpt lat="55.971455" lon="26.550491">
<ele>110.133850</ele>
<time>2010-08-29T09:02:54Z</time>
<desc>lat.=55.971455, lon.=26.550491, Alt.=110.133850m. Speed=8.280000m/h.</desc>
<speed>2.300000</speed>
</trkpt>
<trkpt lat="55.971481" lon="26.550531">
<ele>110.651428</ele>
<time>2010-08-29T09:02:55Z</time>
<desc>lat.=55.971481, lon.=26.550531, Alt.=110.651428m. Speed=10.116000m/h.</desc>
<speed>2.810000</speed>
</trkpt>
<trkpt lat="55.971504" lon="26.550566">
<ele>110.305725</ele>
<time>2010-08-29T09:02:56Z</time>
<desc>lat.=55.971504, lon.=26.550566, Alt.=110.305725m. Speed=9.828000m/h.</desc>
<speed>2.730000</speed>
</trkpt>
<trkpt lat="55.971535" lon="26.550591">
<ele>108.835022</ele>
<time>2010-08-29T09:02:57Z</time>
<desc>lat.=55.971535, lon.=26.550591, Alt.=108.835022m. Speed=10.368000m/h.</desc>
<speed>2.880000</speed>
</trkpt>
<trkpt lat="55.971561" lon="26.550619">
<ele>107.051819</ele>
<time>2010-08-29T09:02:58Z</time>
<desc>lat.=55.971561, lon.=26.550619, Alt.=107.051819m. Speed=8.496000m/h.</desc>
<speed>2.360000</speed>
</trkpt>
<trkpt lat="55.971581" lon="26.550648">
<ele>105.956116</ele>
<time>2010-08-29T09:02:59Z</time>
<desc>lat.=55.971581, lon.=26.550648, Alt.=105.956116m. Speed=7.344000m/h.</desc>
<speed>2.040000</speed>
</trkpt>
<trkpt lat="55.971603" lon="26.550674">
<ele>104.690491</ele>
<time>2010-08-29T09:03:00Z</time>
<desc>lat.=55.971603, lon.=26.550674, Alt.=104.690491m. Speed=6.516000m/h.</desc>
<speed>1.810000</speed>
</trkpt>
<trkpt lat="55.971626" lon="26.550703">
<ele>104.602600</ele>
<time>2010-08-29T09:03:01Z</time>
<desc>lat.=55.971626, lon.=26.550703, Alt.=104.602600m. Speed=6.192000m/h.</desc>
<speed>1.720000</speed>
</trkpt>
<trkpt lat="55.971642" lon="26.550753">
<ele>104.688538</ele>
<time>2010-08-29T09:03:02Z</time>
<desc>lat.=55.971642, lon.=26.550753, Alt.=104.688538m. Speed=6.732000m/h.</desc>
<speed>1.870000</speed>
</trkpt>
<trkpt lat="55.971664" lon="26.550789">
<ele>105.215881</ele>
<time>2010-08-29T09:03:03Z</time>
<desc>lat.=55.971664, lon.=26.550789, Alt.=105.215881m. Speed=7.776000m/h.</desc>
<speed>2.160000</speed>
</trkpt>
<trkpt lat="55.971680" lon="26.550816">
<ele>105.268616</ele>
<time>2010-08-29T09:03:04Z</time>
<desc>lat.=55.971680, lon.=26.550816, Alt.=105.268616m. Speed=7.452000m/h.</desc>
<speed>2.070000</speed>
</trkpt>
<trkpt lat="55.971710" lon="26.550844">
<ele>105.042053</ele>
<time>2010-08-29T09:03:05Z</time>
<desc>lat.=55.971710, lon.=26.550844, Alt.=105.042053m. Speed=7.092000m/h.</desc>
<speed>1.970000</speed>
</trkpt>
<trkpt lat="55.971729" lon="26.550888">
<ele>104.676819</ele>
<time>2010-08-29T09:03:06Z</time>
<desc>lat.=55.971729, lon.=26.550888, Alt.=104.676819m. Speed=6.012000m/h.</desc>
<speed>1.670000</speed>
</trkpt>
<trkpt lat="55.971756" lon="26.550920">
<ele>103.358459</ele>
<time>2010-08-29T09:03:07Z</time>
<desc>lat.=55.971756, lon.=26.550920, Alt.=103.358459m. Speed=5.220000m/h.</desc>
<speed>1.450000</speed>
</trkpt>
<trkpt lat="55.971764" lon="26.550940">
<ele>103.282288</ele>
<time>2010-08-29T09:03:08Z</time>
<desc>lat.=55.971764, lon.=26.550940, Alt.=103.282288m. Speed=4.752000m/h.</desc>
<speed>1.320000</speed>
</trkpt>
<trkpt lat="55.971779" lon="26.550962">
<ele>103.044006</ele>
<time>2010-08-29T09:03:09Z</time>
<desc>lat.=55.971779, lon.=26.550962, Alt.=103.044006m. Speed=5.328000m/h.</desc>
<speed>1.480000</speed>
</trkpt>
<trkpt lat="55.971794" lon="26.550980">
<ele>102.282288</ele>
<time>2010-08-29T09:03:10Z</time>
<desc>lat.=55.971794, lon.=26.550980, Alt.=102.282288m. Speed=4.644000m/h.</desc>
<speed>1.290000</speed>
</trkpt>
<trkpt lat="55.971813" lon="26.551018">
<ele>101.497131</ele>
<time>2010-08-29T09:03:11Z</time>
<desc>lat.=55.971813, lon.=26.551018, Alt.=101.497131m. Speed=7.056000m/h.</desc>
<speed>1.960000</speed>
</trkpt>
<trkpt lat="55.971828" lon="26.551043">
<ele>100.995178</ele>
<time>2010-08-29T09:03:12Z</time>
<desc>lat.=55.971828, lon.=26.551043, Alt.=100.995178m. Speed=7.596000m/h.</desc>
<speed>2.110000</speed>
</trkpt>
<trkpt lat="55.971848" lon="26.551058">
<ele>100.477600</ele>
<time>2010-08-29T09:03:13Z</time>
<desc>lat.=55.971848, lon.=26.551058, Alt.=100.477600m. Speed=6.300000m/h.</desc>
<speed>1.750000</speed>
</trkpt>
<trkpt lat="55.971867" lon="26.551086">
<ele>100.049866</ele>
<time>2010-08-29T09:03:14Z</time>
<desc>lat.=55.971867, lon.=26.551086, Alt.=100.049866m. Speed=6.984000m/h.</desc>
<speed>1.940000</speed>
</trkpt>
<trkpt lat="55.971882" lon="26.551107">
<ele>99.393616</ele>
<time>2010-08-29T09:03:15Z</time>
<desc>lat.=55.971882, lon.=26.551107, Alt.=99.393616m. Speed=7.920000m/h.</desc>
<speed>2.200000</speed>
</trkpt>
<trkpt lat="55.971916" lon="26.551140">
<ele>99.542053</ele>
<time>2010-08-29T09:03:16Z</time>
<desc>lat.=55.971916, lon.=26.551140, Alt.=99.542053m. Speed=9.396000m/h.</desc>
<speed>2.610000</speed>
</trkpt>
<trkpt lat="55.971935" lon="26.551170">
<ele>99.292053</ele>
<time>2010-08-29T09:03:17Z</time>
<desc>lat.=55.971935, lon.=26.551170, Alt.=99.292053m. Speed=5.868000m/h.</desc>
<speed>1.630000</speed>
</trkpt>
<trkpt lat="55.971951" lon="26.551197">
<ele>99.231506</ele>
<time>2010-08-29T09:03:18Z</time>
<desc>lat.=55.971951, lon.=26.551197, Alt.=99.231506m. Speed=5.004000m/h.</desc>
<speed>1.390000</speed>
</trkpt>
<trkpt lat="55.971977" lon="26.551237">
<ele>99.606506</ele>
<time>2010-08-29T09:03:19Z</time>
<desc>lat.=55.971977, lon.=26.551237, Alt.=99.606506m. Speed=1.980000m/h.</desc>
<speed>0.550000</speed>
</trkpt>
<trkpt lat="55.971996" lon="26.551256">
<ele>100.301819</ele>
<time>2010-08-29T09:03:20Z</time>
<desc>lat.=55.971996, lon.=26.551256, Alt.=100.301819m. Speed=0.144000m/h.</desc>
<speed>0.040000</speed>
</trkpt>
<trkpt lat="55.972000" lon="26.551260">
<ele>100.745178</ele>
<time>2010-08-29T09:03:21Z</time>
<desc>lat.=55.972000, lon.=26.551260, Alt.=100.745178m. Speed=0.432000m/h.</desc>
<speed>0.120000</speed>
</trkpt>
<trkpt lat="55.972008" lon="26.551268">
<ele>101.202209</ele>
<time>2010-08-29T09:03:22Z</time>
<desc>lat.=55.972008, lon.=26.551268, Alt.=101.202209m. Speed=0.288000m/h.</desc>
<speed>0.080000</speed>
</trkpt>
<trkpt lat="55.972008" lon="26.551273">
<ele>101.446350</ele>
<time>2010-08-29T09:03:23Z</time>
<desc>lat.=55.972008, lon.=26.551273, Alt.=101.446350m. Speed=0.288000m/h.</desc>
<speed>0.080000</speed>
</trkpt>
<trkpt lat="55.972008" lon="26.551271">
<ele>101.325256</ele>
<time>2010-08-29T09:03:24Z</time>
<desc>lat.=55.972008, lon.=26.551271, Alt.=101.325256m. Speed=0.288000m/h.</desc>
<speed>0.080000</speed>
</trkpt>
<trkpt lat="55.972008" lon="26.551270">
<ele>101.231506</ele>
<time>2010-08-29T09:03:25Z</time>
<desc>lat.=55.972008, lon.=26.551270, Alt.=101.231506m. Speed=0.144000m/h.</desc>
<speed>0.040000</speed>
</trkpt>
<trkpt lat="55.972012" lon="26.551270">
<ele>101.153381</ele>
<time>2010-08-29T09:03:26Z</time>
<desc>lat.=55.972012, lon.=26.551270, Alt.=101.153381m. Speed=0.036000m/h.</desc>
<speed>0.010000</speed>
</trkpt>
<trkpt lat="55.972012" lon="26.551270">
<ele>101.073303</ele>
<time>2010-08-29T09:03:27Z</time>
<desc>lat.=55.972012, lon.=26.551270, Alt.=101.073303m. Speed=0.324000m/h.</desc>
<speed>0.090000</speed>
</trkpt>
<trkpt lat="55.972008" lon="26.551270">
<ele>101.006897</ele>
<time>2010-08-29T09:03:28Z</time>
<desc>lat.=55.972008, lon.=26.551270, Alt.=101.006897m. Speed=0.144000m/h.</desc>
<speed>0.040000</speed>
</trkpt>
<trkpt lat="55.972012" lon="26.551268">
<ele>100.956116</ele>
<time>2010-08-29T09:03:29Z</time>
<desc>lat.=55.972012, lon.=26.551268, Alt.=100.956116m. Speed=0.180000m/h.</desc>
<speed>0.050000</speed>
</trkpt>
<trkpt lat="55.972012" lon="26.551268">
<ele>100.915100</ele>
<time>2010-08-29T09:03:30Z</time>
<desc>lat.=55.972012, lon.=26.551268, Alt.=100.915100m. Speed=0.360000m/h.</desc>
<speed>0.100000</speed>
</trkpt>
<trkpt lat="55.972012" lon="26.551268">
<ele>100.866272</ele>
<time>2010-08-29T09:03:31Z</time>
<desc>lat.=55.972012, lon.=26.551268, Alt.=100.866272m. Speed=0.288000m/h.</desc>
<speed>0.080000</speed>
</trkpt>
<trkpt lat="55.972012" lon="26.551268">
<ele>100.829163</ele>
<time>2010-08-29T09:03:32Z</time>
<desc>lat.=55.972012, lon.=26.551268, Alt.=100.829163m. Speed=0.324000m/h.</desc>
<speed>0.090000</speed>
</trkpt>
<trkpt lat="55.972012" lon="26.551268">
<ele>100.794006</ele>
<time>2010-08-29T09:03:33Z</time>
<desc>lat.=55.972012, lon.=26.551268, Alt.=100.794006m. Speed=0.324000m/h.</desc>
<speed>0.090000</speed>
</trkpt>
<trkpt lat="55.972015" lon="26.551266">
<ele>100.762756</ele>
<time>2010-08-29T09:03:34Z</time>
<desc>lat.=55.972015, lon.=26.551266, Alt.=100.762756m. Speed=0.288000m/h.</desc>
<speed>0.080000</speed>
</trkpt>
<trkpt lat="55.972015" lon="26.551264">
<ele>100.737366</ele>
<time>2010-08-29T09:03:35Z</time>
<desc>lat.=55.972015, lon.=26.551264, Alt.=100.737366m. Speed=0.180000m/h.</desc>
<speed>0.050000</speed>
</trkpt>
<trkpt lat="55.972015" lon="26.551264">
<ele>100.713928</ele>
<time>2010-08-29T09:03:36Z</time>
<desc>lat.=55.972015, lon.=26.551264, Alt.=100.713928m. Speed=0.144000m/h.</desc>
<speed>0.040000</speed>
</trkpt>
<trkpt lat="55.972015" lon="26.551264">
<ele>100.694397</ele>
<time>2010-08-29T09:03:37Z</time>
<desc>lat.=55.972015, lon.=26.551264, Alt.=100.694397m. Speed=0.180000m/h.</desc>
<speed>0.050000</speed>
</trkpt>
<trkpt lat="55.972015" lon="26.551264">
<ele>100.674866</ele>
<time>2010-08-29T09:03:38Z</time>
<desc>lat.=55.972015, lon.=26.551264, Alt.=100.674866m. Speed=0.360000m/h.</desc>
<speed>0.100000</speed>
</trkpt>
<trkpt lat="55.972015" lon="26.551264">
<ele>100.657288</ele>
<time>2010-08-29T09:03:39Z</time>
<desc>lat.=55.972015, lon.=26.551264, Alt.=100.657288m. Speed=0.612000m/h.</desc>
<speed>0.170000</speed>
</trkpt>
<trkpt lat="55.972015" lon="26.551262">
<ele>100.637756</ele>
<time>2010-08-29T09:03:40Z</time>
<desc>lat.=55.972015, lon.=26.551262, Alt.=100.637756m. Speed=0.828000m/h.</desc>
<speed>0.230000</speed>
</trkpt>
<trkpt lat="55.972015" lon="26.551258">
<ele>100.622131</ele>
<time>2010-08-29T09:03:41Z</time>
<desc>lat.=55.972015, lon.=26.551258, Alt.=100.622131m. Speed=0.684000m/h.</desc>
<speed>0.190000</speed>
</trkpt>
<trkpt lat="55.972015" lon="26.551254">
<ele>100.608459</ele>
<time>2010-08-29T09:03:42Z</time>
<desc>lat.=55.972015, lon.=26.551254, Alt.=100.608459m. Speed=0.324000m/h.</desc>
<speed>0.090000</speed>
</trkpt>
<trkpt lat="55.972015" lon="26.551254">
<ele>100.594788</ele>
<time>2010-08-29T09:03:43Z</time>
<desc>lat.=55.972015, lon.=26.551254, Alt.=100.594788m. Speed=0.504000m/h.</desc>
<speed>0.140000</speed>
</trkpt>
<trkpt lat="55.972015" lon="26.551254">
<ele>100.585022</ele>
<time>2010-08-29T09:03:44Z</time>
<desc>lat.=55.972015, lon.=26.551254, Alt.=100.585022m. Speed=0.360000m/h.</desc>
<speed>0.100000</speed>
</trkpt>
<trkpt lat="55.972015" lon="26.551252">
<ele>100.577209</ele>
<time>2010-08-29T09:03:45Z</time>
<desc>lat.=55.972015, lon.=26.551252, Alt.=100.577209m. Speed=0.252000m/h.</desc>
<speed>0.070000</speed>
</trkpt>
<trkpt lat="55.972015" lon="26.551252">
<ele>100.571350</ele>
<time>2010-08-29T09:03:46Z</time>
<desc>lat.=55.972015, lon.=26.551252, Alt.=100.571350m. Speed=0.720000m/h.</desc>
<speed>0.200000</speed>
</trkpt>
<trkpt lat="55.972015" lon="26.551249">
<ele>100.561584</ele>
<time>2010-08-29T09:03:47Z</time>
<desc>lat.=55.972015, lon.=26.551249, Alt.=100.561584m. Speed=0.252000m/h.</desc>
<speed>0.070000</speed>
</trkpt>
<trkpt lat="55.972015" lon="26.551249">
<ele>100.555725</ele>
<time>2010-08-29T09:03:48Z</time>
<desc>lat.=55.972015, lon.=26.551249, Alt.=100.555725m. Speed=0.288000m/h.</desc>
<speed>0.080000</speed>
</trkpt>
<trkpt lat="55.972015" lon="26.551249">
<ele>100.544006</ele>
<time>2010-08-29T09:03:49Z</time>
<desc>lat.=55.972015, lon.=26.551249, Alt.=100.544006m. Speed=1.008000m/h.</desc>
<speed>0.280000</speed>
</trkpt>
<trkpt lat="55.972012" lon="26.551250">
<ele>100.532288</ele>
<time>2010-08-29T09:03:50Z</time>
<desc>lat.=55.972012, lon.=26.551250, Alt.=100.532288m. Speed=1.296000m/h.</desc>
<speed>0.360000</speed>
</trkpt>
<trkpt lat="55.972015" lon="26.551264">
<ele>100.540100</ele>
<time>2010-08-29T09:03:51Z</time>
<desc>lat.=55.972015, lon.=26.551264, Alt.=100.540100m. Speed=1.188000m/h.</desc>
<speed>0.330000</speed>
</trkpt>
<trkpt lat="55.972023" lon="26.551268">
<ele>100.631897</ele>
<time>2010-08-29T09:03:52Z</time>
<desc>lat.=55.972023, lon.=26.551268, Alt.=100.631897m. Speed=0.504000m/h.</desc>
<speed>0.140000</speed>
</trkpt>
<trkpt lat="55.972019" lon="26.551283">
<ele>100.622131</ele>
<time>2010-08-29T09:03:53Z</time>
<desc>lat.=55.972019, lon.=26.551283, Alt.=100.622131m. Speed=0.972000m/h.</desc>
<speed>0.270000</speed>
</trkpt>
<trkpt lat="55.972019" lon="26.551298">
<ele>100.631897</ele>
<time>2010-08-29T09:03:54Z</time>
<desc>lat.=55.972019, lon.=26.551298, Alt.=100.631897m. Speed=1.332000m/h.</desc>
<speed>0.370000</speed>
</trkpt>
<trkpt lat="55.972023" lon="26.551315">
<ele>100.657288</ele>
<time>2010-08-29T09:03:55Z</time>
<desc>lat.=55.972023, lon.=26.551315, Alt.=100.657288m. Speed=2.196000m/h.</desc>
<speed>0.610000</speed>
</trkpt>
<trkpt lat="55.972042" lon="26.551336">
<ele>100.659241</ele>
<time>2010-08-29T09:03:56Z</time>
<desc>lat.=55.972042, lon.=26.551336, Alt.=100.659241m. Speed=3.852000m/h.</desc>
<speed>1.070000</speed>
</trkpt>
<trkpt lat="55.972050" lon="26.551348">
<ele>100.692444</ele>
<time>2010-08-29T09:03:57Z</time>
<desc>lat.=55.972050, lon.=26.551348, Alt.=100.692444m. Speed=3.744000m/h.</desc>
<speed>1.040000</speed>
</trkpt>
<trkpt lat="55.972061" lon="26.551357">
<ele>100.631897</ele>
<time>2010-08-29T09:03:58Z</time>
<desc>lat.=55.972061, lon.=26.551357, Alt.=100.631897m. Speed=3.780000m/h.</desc>
<speed>1.050000</speed>
</trkpt>
<trkpt lat="55.972069" lon="26.551361">
<ele>100.549866</ele>
<time>2010-08-29T09:03:59Z</time>
<desc>lat.=55.972069, lon.=26.551361, Alt.=100.549866m. Speed=3.672000m/h.</desc>
<speed>1.020000</speed>
</trkpt>
<trkpt lat="55.972076" lon="26.551353">
<ele>100.710022</ele>
<time>2010-08-29T09:04:00Z</time>
<desc>lat.=55.972076, lon.=26.551353, Alt.=100.710022m. Speed=3.096000m/h.</desc>
<speed>0.860000</speed>
</trkpt>
<trkpt lat="55.972088" lon="26.551350">
<ele>100.661194</ele>
<time>2010-08-29T09:04:01Z</time>
<desc>lat.=55.972088, lon.=26.551350, Alt.=100.661194m. Speed=3.708000m/h.</desc>
<speed>1.030000</speed>
</trkpt>
<trkpt lat="55.972095" lon="26.551342">
<ele>100.626038</ele>
<time>2010-08-29T09:04:02Z</time>
<desc>lat.=55.972095, lon.=26.551342, Alt.=100.626038m. Speed=3.708000m/h.</desc>
<speed>1.030000</speed>
</trkpt>
<trkpt lat="55.972107" lon="26.551340">
<ele>100.618225</ele>
<time>2010-08-29T09:04:03Z</time>
<desc>lat.=55.972107, lon.=26.551340, Alt.=100.618225m. Speed=3.600000m/h.</desc>
<speed>1.000000</speed>
</trkpt>
<trkpt lat="55.972115" lon="26.551342">
<ele>100.602600</ele>
<time>2010-08-29T09:04:04Z</time>
<desc>lat.=55.972115, lon.=26.551342, Alt.=100.602600m. Speed=3.636000m/h.</desc>
<speed>1.010000</speed>
</trkpt>
<trkpt lat="55.972126" lon="26.551344">
<ele>100.592834</ele>
<time>2010-08-29T09:04:05Z</time>
<desc>lat.=55.972126, lon.=26.551344, Alt.=100.592834m. Speed=3.600000m/h.</desc>
<speed>1.000000</speed>
</trkpt>
<trkpt lat="55.972130" lon="26.551342">
<ele>100.688538</ele>
<time>2010-08-29T09:04:06Z</time>
<desc>lat.=55.972130, lon.=26.551342, Alt.=100.688538m. Speed=2.880000m/h.</desc>
<speed>0.800000</speed>
</trkpt>
<trkpt lat="55.972137" lon="26.551340">
<ele>100.657288</ele>
<time>2010-08-29T09:04:07Z</time>
<desc>lat.=55.972137, lon.=26.551340, Alt.=100.657288m. Speed=2.952000m/h.</desc>
<speed>0.820000</speed>
</trkpt>
<trkpt lat="55.972141" lon="26.551331">
<ele>100.670959</ele>
<time>2010-08-29T09:04:08Z</time>
<desc>lat.=55.972141, lon.=26.551331, Alt.=100.670959m. Speed=2.700000m/h.</desc>
<speed>0.750000</speed>
</trkpt>
<trkpt lat="55.972141" lon="26.551336">
<ele>100.794006</ele>
<time>2010-08-29T09:04:09Z</time>
<desc>lat.=55.972141, lon.=26.551336, Alt.=100.794006m. Speed=1.728000m/h.</desc>
<speed>0.480000</speed>
</trkpt>
<trkpt lat="55.972141" lon="26.551342">
<ele>100.917053</ele>
<time>2010-08-29T09:04:10Z</time>
<desc>lat.=55.972141, lon.=26.551342, Alt.=100.917053m. Speed=1.512000m/h.</desc>
<speed>0.420000</speed>
</trkpt>
<trkpt lat="55.972141" lon="26.551340">
<ele>100.760803</ele>
<time>2010-08-29T09:04:11Z</time>
<desc>lat.=55.972141, lon.=26.551340, Alt.=100.760803m. Speed=1.692000m/h.</desc>
<speed>0.470000</speed>
</trkpt>
<trkpt lat="55.972141" lon="26.551346">
<ele>100.920959</ele>
<time>2010-08-29T09:04:12Z</time>
<desc>lat.=55.972141, lon.=26.551346, Alt.=100.920959m. Speed=1.620000m/h.</desc>
<speed>0.450000</speed>
</trkpt>
<trkpt lat="55.972145" lon="26.551365">
<ele>100.651428</ele>
<time>2010-08-29T09:04:13Z</time>
<desc>lat.=55.972145, lon.=26.551365, Alt.=100.651428m. Speed=1.440000m/h.</desc>
<speed>0.400000</speed>
</trkpt>
<trkpt lat="55.972145" lon="26.551371">
<ele>100.626038</ele>
<time>2010-08-29T09:04:14Z</time>
<desc>lat.=55.972145, lon.=26.551371, Alt.=100.626038m. Speed=1.260000m/h.</desc>
<speed>0.350000</speed>
</trkpt>
<trkpt lat="55.972145" lon="26.551378">
<ele>100.713928</ele>
<time>2010-08-29T09:04:15Z</time>
<desc>lat.=55.972145, lon.=26.551378, Alt.=100.713928m. Speed=1.296000m/h.</desc>
<speed>0.360000</speed>
</trkpt>
<trkpt lat="55.972145" lon="26.551386">
<ele>100.581116</ele>
<time>2010-08-29T09:04:16Z</time>
<desc>lat.=55.972145, lon.=26.551386, Alt.=100.581116m. Speed=1.224000m/h.</desc>
<speed>0.340000</speed>
</trkpt>
<trkpt lat="55.972149" lon="26.551395">
<ele>100.717834</ele>
<time>2010-08-29T09:04:17Z</time>
<desc>lat.=55.972149, lon.=26.551395, Alt.=100.717834m. Speed=1.584000m/h.</desc>
<speed>0.440000</speed>
</trkpt>
<trkpt lat="55.972149" lon="26.551403">
<ele>101.157288</ele>
<time>2010-08-29T09:04:18Z</time>
<desc>lat.=55.972149, lon.=26.551403, Alt.=101.157288m. Speed=2.016000m/h.</desc>
<speed>0.560000</speed>
</trkpt>
<trkpt lat="55.972134" lon="26.551420">
<ele>101.297913</ele>
<time>2010-08-29T09:04:19Z</time>
<desc>lat.=55.972134, lon.=26.551420, Alt.=101.297913m. Speed=1.620000m/h.</desc>
<speed>0.450000</speed>
</trkpt>
<trkpt lat="55.972149" lon="26.551426">
<ele>101.893616</ele>
<time>2010-08-29T09:04:20Z</time>
<desc>lat.=55.972149, lon.=26.551426, Alt.=101.893616m. Speed=1.656000m/h.</desc>
<speed>0.460000</speed>
</trkpt>
<trkpt lat="55.972149" lon="26.551439">
<ele>102.151428</ele>
<time>2010-08-29T09:04:21Z</time>
<desc>lat.=55.972149, lon.=26.551439, Alt.=102.151428m. Speed=1.980000m/h.</desc>
<speed>0.550000</speed>
</trkpt>
<trkpt lat="55.972157" lon="26.551447">
<ele>102.436584</ele>
<time>2010-08-29T09:04:22Z</time>
<desc>lat.=55.972157, lon.=26.551447, Alt.=102.436584m. Speed=1.872000m/h.</desc>
<speed>0.520000</speed>
</trkpt>
<trkpt lat="55.972149" lon="26.551441">
<ele>102.698303</ele>
<time>2010-08-29T09:04:23Z</time>
<desc>lat.=55.972149, lon.=26.551441, Alt.=102.698303m. Speed=0.036000m/h.</desc>
<speed>0.010000</speed>
</trkpt>
<trkpt lat="55.972145" lon="26.551435">
<ele>103.159241</ele>
<time>2010-08-29T09:04:24Z</time>
<desc>lat.=55.972145, lon.=26.551435, Alt.=103.159241m. Speed=0.324000m/h.</desc>
<speed>0.090000</speed>
</trkpt>
<trkpt lat="55.972149" lon="26.551435">
<ele>103.061584</ele>
<time>2010-08-29T09:04:25Z</time>
<desc>lat.=55.972149, lon.=26.551435, Alt.=103.061584m. Speed=0.756000m/h.</desc>
<speed>0.210000</speed>
</trkpt>
<trkpt lat="55.972145" lon="26.551434">
<ele>103.127991</ele>
<time>2010-08-29T09:04:26Z</time>
<desc>lat.=55.972145, lon.=26.551434, Alt.=103.127991m. Speed=0.756000m/h.</desc>
<speed>0.210000</speed>
</trkpt>
<trkpt lat="55.972149" lon="26.551430">
<ele>103.075256</ele>
<time>2010-08-29T09:04:27Z</time>
<desc>lat.=55.972149, lon.=26.551430, Alt.=103.075256m. Speed=2.844000m/h.</desc>
<speed>0.790000</speed>
</trkpt>
<trkpt lat="55.972157" lon="26.551426">
<ele>102.721741</ele>
<time>2010-08-29T09:04:28Z</time>
<desc>lat.=55.972157, lon.=26.551426, Alt.=102.721741m. Speed=2.556000m/h.</desc>
<speed>0.710000</speed>
</trkpt>
<trkpt lat="55.972168" lon="26.551434">
<ele>102.252991</ele>
<time>2010-08-29T09:04:29Z</time>
<desc>lat.=55.972168, lon.=26.551434, Alt.=102.252991m. Speed=2.952000m/h.</desc>
<speed>0.820000</speed>
</trkpt>
<trkpt lat="55.972172" lon="26.551435">
<ele>102.016663</ele>
<time>2010-08-29T09:04:30Z</time>
<desc>lat.=55.972172, lon.=26.551435, Alt.=102.016663m. Speed=1.080000m/h.</desc>
<speed>0.300000</speed>
</trkpt>
<trkpt lat="55.972179" lon="26.551437">
<ele>101.631897</ele>
<time>2010-08-29T09:04:31Z</time>
<desc>lat.=55.972179, lon.=26.551437, Alt.=101.631897m. Speed=1.188000m/h.</desc>
<speed>0.330000</speed>
</trkpt>
<trkpt lat="55.972179" lon="26.551439">
<ele>101.585022</ele>
<time>2010-08-29T09:04:32Z</time>
<desc>lat.=55.972179, lon.=26.551439, Alt.=101.585022m. Speed=0.900000m/h.</desc>
<speed>0.250000</speed>
</trkpt>
<trkpt lat="55.972187" lon="26.551434">
<ele>101.303772</ele>
<time>2010-08-29T09:04:33Z</time>
<desc>lat.=55.972187, lon.=26.551434, Alt.=101.303772m. Speed=0.684000m/h.</desc>
<speed>0.190000</speed>
</trkpt>
<trkpt lat="55.972183" lon="26.551424">
<ele>101.315491</ele>
<time>2010-08-29T09:04:34Z</time>
<desc>lat.=55.972183, lon.=26.551424, Alt.=101.315491m. Speed=0.900000m/h.</desc>
<speed>0.250000</speed>
</trkpt>
<trkpt lat="55.972187" lon="26.551426">
<ele>101.391663</ele>
<time>2010-08-29T09:04:35Z</time>
<desc>lat.=55.972187, lon.=26.551426, Alt.=101.391663m. Speed=0.036000m/h.</desc>
<speed>0.010000</speed>
</trkpt>
<trkpt lat="55.972187" lon="26.551426">
<ele>101.338928</ele>
<time>2010-08-29T09:04:36Z</time>
<desc>lat.=55.972187, lon.=26.551426, Alt.=101.338928m. Speed=1.044000m/h.</desc>
<speed>0.290000</speed>
</trkpt>
<trkpt lat="55.972187" lon="26.551424">
<ele>101.290100</ele>
<time>2010-08-29T09:04:37Z</time>
<desc>lat.=55.972187, lon.=26.551424, Alt.=101.290100m. Speed=1.152000m/h.</desc>
<speed>0.320000</speed>
</trkpt>
<trkpt lat="55.972187" lon="26.551426">
<ele>101.221741</ele>
<time>2010-08-29T09:04:38Z</time>
<desc>lat.=55.972187, lon.=26.551426, Alt.=101.221741m. Speed=0.288000m/h.</desc>
<speed>0.080000</speed>
</trkpt>
<trkpt lat="55.972187" lon="26.551426">
<ele>101.151428</ele>
<time>2010-08-29T09:04:39Z</time>
<desc>lat.=55.972187, lon.=26.551426, Alt.=101.151428m. Speed=0.144000m/h.</desc>
<speed>0.040000</speed>
</trkpt>
<trkpt lat="55.972195" lon="26.551428">
<ele>101.172913</ele>
<time>2010-08-29T09:04:40Z</time>
<desc>lat.=55.972195, lon.=26.551428, Alt.=101.172913m. Speed=0.396000m/h.</desc>
<speed>0.110000</speed>
</trkpt>
<trkpt lat="55.972195" lon="26.551426">
<ele>101.141663</ele>
<time>2010-08-29T09:04:41Z</time>
<desc>lat.=55.972195, lon.=26.551426, Alt.=101.141663m. Speed=0.360000m/h.</desc>
<speed>0.100000</speed>
</trkpt>
<trkpt lat="55.972195" lon="26.551424">
<ele>101.096741</ele>
<time>2010-08-29T09:04:42Z</time>
<desc>lat.=55.972195, lon.=26.551424, Alt.=101.096741m. Speed=0.324000m/h.</desc>
<speed>0.090000</speed>
</trkpt>
<trkpt lat="55.972198" lon="26.551424">
<ele>101.057678</ele>
<time>2010-08-29T09:04:43Z</time>
<desc>lat.=55.972198, lon.=26.551424, Alt.=101.057678m. Speed=0.648000m/h.</desc>
<speed>0.180000</speed>
</trkpt>
<trkpt lat="55.972198" lon="26.551426">
<ele>101.024475</ele>
<time>2010-08-29T09:04:44Z</time>
<desc>lat.=55.972198, lon.=26.551426, Alt.=101.024475m. Speed=1.584000m/h.</desc>
<speed>0.440000</speed>
</trkpt>
<trkpt lat="55.972218" lon="26.551428">
<ele>101.356506</ele>
<time>2010-08-29T09:04:45Z</time>
<desc>lat.=55.972218, lon.=26.551428, Alt.=101.356506m. Speed=2.304000m/h.</desc>
<speed>0.640000</speed>
</trkpt>
<trkpt lat="55.972221" lon="26.551434">
<ele>101.358459</ele>
<time>2010-08-29T09:04:46Z</time>
<desc>lat.=55.972221, lon.=26.551434, Alt.=101.358459m. Speed=2.124000m/h.</desc>
<speed>0.590000</speed>
</trkpt>
<trkpt lat="55.972210" lon="26.551474">
<ele>101.561584</ele>
<time>2010-08-29T09:04:47Z</time>
<desc>lat.=55.972210, lon.=26.551474, Alt.=101.561584m. Speed=3.744000m/h.</desc>
<speed>1.040000</speed>
</trkpt>
<trkpt lat="55.972210" lon="26.551485">
<ele>101.516663</ele>
<time>2010-08-29T09:04:48Z</time>
<desc>lat.=55.972210, lon.=26.551485, Alt.=101.516663m. Speed=3.132000m/h.</desc>
<speed>0.870000</speed>
</trkpt>
<trkpt lat="55.972214" lon="26.551500">
<ele>101.208069</ele>
<time>2010-08-29T09:04:49Z</time>
<desc>lat.=55.972214, lon.=26.551500, Alt.=101.208069m. Speed=1.908000m/h.</desc>
<speed>0.530000</speed>
</trkpt>
<trkpt lat="55.972225" lon="26.551500">
<ele>100.583069</ele>
<time>2010-08-29T09:04:50Z</time>
<desc>lat.=55.972225, lon.=26.551500, Alt.=100.583069m. Speed=0.648000m/h.</desc>
<speed>0.180000</speed>
</trkpt>
<trkpt lat="55.972229" lon="26.551514">
<ele>100.243225</ele>
<time>2010-08-29T09:04:51Z</time>
<desc>lat.=55.972229, lon.=26.551514, Alt.=100.243225m. Speed=0.792000m/h.</desc>
<speed>0.220000</speed>
</trkpt>
<trkpt lat="55.972229" lon="26.551514">
<ele>100.360413</ele>
<time>2010-08-29T09:04:52Z</time>
<desc>lat.=55.972229, lon.=26.551514, Alt.=100.360413m. Speed=1.224000m/h.</desc>
<speed>0.340000</speed>
</trkpt>
<trkpt lat="55.972225" lon="26.551521">
<ele>100.387756</ele>
<time>2010-08-29T09:04:53Z</time>
<desc>lat.=55.972225, lon.=26.551521, Alt.=100.387756m. Speed=1.260000m/h.</desc>
<speed>0.350000</speed>
</trkpt>
<trkpt lat="55.972225" lon="26.551521">
<ele>100.370178</ele>
<time>2010-08-29T09:04:54Z</time>
<desc>lat.=55.972225, lon.=26.551521, Alt.=100.370178m. Speed=1.152000m/h.</desc>
<speed>0.320000</speed>
</trkpt>
<trkpt lat="55.972244" lon="26.551529">
<ele>100.713928</ele>
<time>2010-08-29T09:04:55Z</time>
<desc>lat.=55.972244, lon.=26.551529, Alt.=100.713928m. Speed=1.548000m/h.</desc>
<speed>0.430000</speed>
</trkpt>
<trkpt lat="55.972248" lon="26.551548">
<ele>100.674866</ele>
<time>2010-08-29T09:04:56Z</time>
<desc>lat.=55.972248, lon.=26.551548, Alt.=100.674866m. Speed=3.060000m/h.</desc>
<speed>0.850000</speed>
</trkpt>
<trkpt lat="55.972244" lon="26.551559">
<ele>100.524475</ele>
<time>2010-08-29T09:04:57Z</time>
<desc>lat.=55.972244, lon.=26.551559, Alt.=100.524475m. Speed=2.988000m/h.</desc>
<speed>0.830000</speed>
</trkpt>
<trkpt lat="55.972240" lon="26.551571">
<ele>100.461975</ele>
<time>2010-08-29T09:04:58Z</time>
<desc>lat.=55.972240, lon.=26.551571, Alt.=100.461975m. Speed=2.592000m/h.</desc>
<speed>0.720000</speed>
</trkpt>
<trkpt lat="55.972233" lon="26.551575">
<ele>100.325256</ele>
<time>2010-08-29T09:04:59Z</time>
<desc>lat.=55.972233, lon.=26.551575, Alt.=100.325256m. Speed=2.700000m/h.</desc>
<speed>0.750000</speed>
</trkpt>
<trkpt lat="55.972225" lon="26.551584">
<ele>100.176819</ele>
<time>2010-08-29T09:05:00Z</time>
<desc>lat.=55.972225, lon.=26.551584, Alt.=100.176819m. Speed=3.348000m/h.</desc>
<speed>0.930000</speed>
</trkpt>
<trkpt lat="55.972214" lon="26.551590">
<ele>100.092834</ele>
<time>2010-08-29T09:05:01Z</time>
<desc>lat.=55.972214, lon.=26.551590, Alt.=100.092834m. Speed=3.492000m/h.</desc>
<speed>0.970000</speed>
</trkpt>
<trkpt lat="55.972210" lon="26.551592">
<ele>99.844788</ele>
<time>2010-08-29T09:05:02Z</time>
<desc>lat.=55.972210, lon.=26.551592, Alt.=99.844788m. Speed=3.456000m/h.</desc>
<speed>0.960000</speed>
</trkpt>
<trkpt lat="55.972198" lon="26.551607">
<ele>99.819397</ele>
<time>2010-08-29T09:05:03Z</time>
<desc>lat.=55.972198, lon.=26.551607, Alt.=99.819397m. Speed=3.816000m/h.</desc>
<speed>1.060000</speed>
</trkpt>
<trkpt lat="55.972191" lon="26.551617">
<ele>99.922913</ele>
<time>2010-08-29T09:05:04Z</time>
<desc>lat.=55.972191, lon.=26.551617, Alt.=99.922913m. Speed=4.068000m/h.</desc>
<speed>1.130000</speed>
</trkpt>
<trkpt lat="55.972187" lon="26.551624">
<ele>99.803772</ele>
<time>2010-08-29T09:05:05Z</time>
<desc>lat.=55.972187, lon.=26.551624, Alt.=99.803772m. Speed=3.276000m/h.</desc>
<speed>0.910000</speed>
</trkpt>
<trkpt lat="55.972172" lon="26.551617">
<ele>99.627991</ele>
<time>2010-08-29T09:05:06Z</time>
<desc>lat.=55.972172, lon.=26.551617, Alt.=99.627991m. Speed=3.204000m/h.</desc>
<speed>0.890000</speed>
</trkpt>
<trkpt lat="55.972157" lon="26.551624">
<ele>99.438538</ele>
<time>2010-08-29T09:05:07Z</time>
<desc>lat.=55.972157, lon.=26.551624, Alt.=99.438538m. Speed=3.564000m/h.</desc>
<speed>0.990000</speed>
</trkpt>
<trkpt lat="55.972141" lon="26.551630">
<ele>99.342834</ele>
<time>2010-08-29T09:05:08Z</time>
<desc>lat.=55.972141, lon.=26.551630, Alt.=99.342834m. Speed=4.608000m/h.</desc>
<speed>1.280000</speed>
</trkpt>
<trkpt lat="55.972130" lon="26.551641">
<ele>99.059631</ele>
<time>2010-08-29T09:05:09Z</time>
<desc>lat.=55.972130, lon.=26.551641, Alt.=99.059631m. Speed=4.896000m/h.</desc>
<speed>1.360000</speed>
</trkpt>
<trkpt lat="55.972122" lon="26.551657">
<ele>98.893616</ele>
<time>2010-08-29T09:05:10Z</time>
<desc>lat.=55.972122, lon.=26.551657, Alt.=98.893616m. Speed=5.580000m/h.</desc>
<speed>1.550000</speed>
</trkpt>
<trkpt lat="55.972107" lon="26.551676">
<ele>98.696350</ele>
<time>2010-08-29T09:05:11Z</time>
<desc>lat.=55.972107, lon.=26.551676, Alt.=98.696350m. Speed=3.924000m/h.</desc>
<speed>1.090000</speed>
</trkpt>
<trkpt lat="55.972103" lon="26.551685">
<ele>98.602600</ele>
<time>2010-08-29T09:05:12Z</time>
<desc>lat.=55.972103, lon.=26.551685, Alt.=98.602600m. Speed=3.960000m/h.</desc>
<speed>1.100000</speed>
</trkpt>
<trkpt lat="55.972099" lon="26.551702">
<ele>98.385803</ele>
<time>2010-08-29T09:05:13Z</time>
<desc>lat.=55.972099, lon.=26.551702, Alt.=98.385803m. Speed=4.212000m/h.</desc>
<speed>1.170000</speed>
</trkpt>
<trkpt lat="55.972099" lon="26.551723">
<ele>98.307678</ele>
<time>2010-08-29T09:05:14Z</time>
<desc>lat.=55.972099, lon.=26.551723, Alt.=98.307678m. Speed=4.860000m/h.</desc>
<speed>1.350000</speed>
</trkpt>
<trkpt lat="55.972103" lon="26.551746">
<ele>98.297913</ele>
<time>2010-08-29T09:05:15Z</time>
<desc>lat.=55.972103, lon.=26.551746, Alt.=98.297913m. Speed=4.176000m/h.</desc>
<speed>1.160000</speed>
</trkpt>
<trkpt lat="55.972115" lon="26.551800">
<ele>98.124084</ele>
<time>2010-08-29T09:05:16Z</time>
<desc>lat.=55.972115, lon.=26.551800, Alt.=98.124084m. Speed=5.544000m/h.</desc>
<speed>1.540000</speed>
</trkpt>
<trkpt lat="55.972115" lon="26.551819">
<ele>98.137756</ele>
<time>2010-08-29T09:05:17Z</time>
<desc>lat.=55.972115, lon.=26.551819, Alt.=98.137756m. Speed=4.356000m/h.</desc>
<speed>1.210000</speed>
</trkpt>
<trkpt lat="55.972111" lon="26.551842">
<ele>98.071350</ele>
<time>2010-08-29T09:05:18Z</time>
<desc>lat.=55.972111, lon.=26.551842, Alt.=98.071350m. Speed=5.760000m/h.</desc>
<speed>1.600000</speed>
</trkpt>
<trkpt lat="55.972118" lon="26.551878">
<ele>98.497131</ele>
<time>2010-08-29T09:05:19Z</time>
<desc>lat.=55.972118, lon.=26.551878, Alt.=98.497131m. Speed=4.896000m/h.</desc>
<speed>1.360000</speed>
</trkpt>
<trkpt lat="55.972122" lon="26.551903">
<ele>98.645569</ele>
<time>2010-08-29T09:05:20Z</time>
<desc>lat.=55.972122, lon.=26.551903, Alt.=98.645569m. Speed=4.716000m/h.</desc>
<speed>1.310000</speed>
</trkpt>
<trkpt lat="55.972130" lon="26.551920">
<ele>98.835022</ele>
<time>2010-08-29T09:05:21Z</time>
<desc>lat.=55.972130, lon.=26.551920, Alt.=98.835022m. Speed=4.572000m/h.</desc>
<speed>1.270000</speed>
</trkpt>
<trkpt lat="55.972137" lon="26.551929">
<ele>99.002991</ele>
<time>2010-08-29T09:05:22Z</time>
<desc>lat.=55.972137, lon.=26.551929, Alt.=99.002991m. Speed=4.248000m/h.</desc>
<speed>1.180000</speed>
</trkpt>
<trkpt lat="55.972145" lon="26.551939">
<ele>99.116272</ele>
<time>2010-08-29T09:05:23Z</time>
<desc>lat.=55.972145, lon.=26.551939, Alt.=99.116272m. Speed=2.772000m/h.</desc>
<speed>0.770000</speed>
</trkpt>
<trkpt lat="55.972157" lon="26.551941">
<ele>99.165100</ele>
<time>2010-08-29T09:05:24Z</time>
<desc>lat.=55.972157, lon.=26.551941, Alt.=99.165100m. Speed=2.520000m/h.</desc>
<speed>0.700000</speed>
</trkpt>
<trkpt lat="55.972160" lon="26.551941">
<ele>99.377991</ele>
<time>2010-08-29T09:05:25Z</time>
<desc>lat.=55.972160, lon.=26.551941, Alt.=99.377991m. Speed=2.736000m/h.</desc>
<speed>0.760000</speed>
</trkpt>
<trkpt lat="55.972176" lon="26.551943">
<ele>99.569397</ele>
<time>2010-08-29T09:05:26Z</time>
<desc>lat.=55.972176, lon.=26.551943, Alt.=99.569397m. Speed=4.032000m/h.</desc>
<speed>1.120000</speed>
</trkpt>
<trkpt lat="55.972179" lon="26.551945">
<ele>99.530334</ele>
<time>2010-08-29T09:05:27Z</time>
<desc>lat.=55.972179, lon.=26.551945, Alt.=99.530334m. Speed=3.924000m/h.</desc>
<speed>1.090000</speed>
</trkpt>
<trkpt lat="55.972191" lon="26.551952">
<ele>99.391663</ele>
<time>2010-08-29T09:05:28Z</time>
<desc>lat.=55.972191, lon.=26.551952, Alt.=99.391663m. Speed=3.636000m/h.</desc>
<speed>1.010000</speed>
</trkpt>
<trkpt lat="55.972202" lon="26.551960">
<ele>99.204163</ele>
<time>2010-08-29T09:05:29Z</time>
<desc>lat.=55.972202, lon.=26.551960, Alt.=99.204163m. Speed=3.384000m/h.</desc>
<speed>0.940000</speed>
</trkpt>
<trkpt lat="55.972210" lon="26.551971">
<ele>98.926819</ele>
<time>2010-08-29T09:05:30Z</time>
<desc>lat.=55.972210, lon.=26.551971, Alt.=98.926819m. Speed=3.096000m/h.</desc>
<speed>0.860000</speed>
</trkpt>
<trkpt lat="55.972221" lon="26.551973">
<ele>99.108459</ele>
<time>2010-08-29T09:05:31Z</time>
<desc>lat.=55.972221, lon.=26.551973, Alt.=99.108459m. Speed=3.276000m/h.</desc>
<speed>0.910000</speed>
</trkpt>
<trkpt lat="55.972233" lon="26.551979">
<ele>99.208069</ele>
<time>2010-08-29T09:05:32Z</time>
<desc>lat.=55.972233, lon.=26.551979, Alt.=99.208069m. Speed=3.456000m/h.</desc>
<speed>0.960000</speed>
</trkpt>
<trkpt lat="55.972248" lon="26.551981">
<ele>99.417053</ele>
<time>2010-08-29T09:05:33Z</time>
<desc>lat.=55.972248, lon.=26.551981, Alt.=99.417053m. Speed=4.032000m/h.</desc>
<speed>1.120000</speed>
</trkpt>
<trkpt lat="55.972260" lon="26.551985">
<ele>99.479553</ele>
<time>2010-08-29T09:05:34Z</time>
<desc>lat.=55.972260, lon.=26.551985, Alt.=99.479553m. Speed=4.140000m/h.</desc>
<speed>1.150000</speed>
</trkpt>
<trkpt lat="55.972267" lon="26.551991">
<ele>99.637756</ele>
<time>2010-08-29T09:05:35Z</time>
<desc>lat.=55.972267, lon.=26.551991, Alt.=99.637756m. Speed=3.708000m/h.</desc>
<speed>1.030000</speed>
</trkpt>
<trkpt lat="55.972263" lon="26.551998">
<ele>99.502991</ele>
<time>2010-08-29T09:05:36Z</time>
<desc>lat.=55.972263, lon.=26.551998, Alt.=99.502991m. Speed=2.484000m/h.</desc>
<speed>0.690000</speed>
</trkpt>
<trkpt lat="55.972271" lon="26.552008">
<ele>99.544006</ele>
<time>2010-08-29T09:05:37Z</time>
<desc>lat.=55.972271, lon.=26.552008, Alt.=99.544006m. Speed=2.808000m/h.</desc>
<speed>0.780000</speed>
</trkpt>
<trkpt lat="55.972275" lon="26.552015">
<ele>99.485413</ele>
<time>2010-08-29T09:05:38Z</time>
<desc>lat.=55.972275, lon.=26.552015, Alt.=99.485413m. Speed=2.340000m/h.</desc>
<speed>0.650000</speed>
</trkpt>
<trkpt lat="55.972282" lon="26.552019">
<ele>99.540100</ele>
<time>2010-08-29T09:05:39Z</time>
<desc>lat.=55.972282, lon.=26.552019, Alt.=99.540100m. Speed=2.304000m/h.</desc>
<speed>0.640000</speed>
</trkpt>
<trkpt lat="55.972290" lon="26.552004">
<ele>99.749084</ele>
<time>2010-08-29T09:05:40Z</time>
<desc>lat.=55.972290, lon.=26.552004, Alt.=99.749084m. Speed=1.584000m/h.</desc>
<speed>0.440000</speed>
</trkpt>
<trkpt lat="55.972298" lon="26.552004">
<ele>100.190491</ele>
<time>2010-08-29T09:05:41Z</time>
<desc>lat.=55.972298, lon.=26.552004, Alt.=100.190491m. Speed=1.872000m/h.</desc>
<speed>0.520000</speed>
</trkpt>
<trkpt lat="55.972301" lon="26.552013">
<ele>100.169006</ele>
<time>2010-08-29T09:05:42Z</time>
<desc>lat.=55.972301, lon.=26.552013, Alt.=100.169006m. Speed=1.944000m/h.</desc>
<speed>0.540000</speed>
</trkpt>
<trkpt lat="55.972301" lon="26.552053">
<ele>101.147522</ele>
<time>2010-08-29T09:05:43Z</time>
<desc>lat.=55.972301, lon.=26.552053, Alt.=101.147522m. Speed=2.664000m/h.</desc>
<speed>0.740000</speed>
</trkpt>
<trkpt lat="55.972309" lon="26.552063">
<ele>101.061584</ele>
<time>2010-08-29T09:05:44Z</time>
<desc>lat.=55.972309, lon.=26.552063, Alt.=101.061584m. Speed=2.880000m/h.</desc>
<speed>0.800000</speed>
</trkpt>
<trkpt lat="55.972309" lon="26.552078">
<ele>101.151428</ele>
<time>2010-08-29T09:05:45Z</time>
<desc>lat.=55.972309, lon.=26.552078, Alt.=101.151428m. Speed=2.808000m/h.</desc>
<speed>0.780000</speed>
</trkpt>
<trkpt lat="55.972305" lon="26.552097">
<ele>101.354553</ele>
<time>2010-08-29T09:05:46Z</time>
<desc>lat.=55.972305, lon.=26.552097, Alt.=101.354553m. Speed=2.844000m/h.</desc>
<speed>0.790000</speed>
</trkpt>
<trkpt lat="55.972301" lon="26.552118">
<ele>101.370178</ele>
<time>2010-08-29T09:05:47Z</time>
<desc>lat.=55.972301, lon.=26.552118, Alt.=101.370178m. Speed=3.384000m/h.</desc>
<speed>0.940000</speed>
</trkpt>
<trkpt lat="55.972298" lon="26.552155">
<ele>101.661194</ele>
<time>2010-08-29T09:05:48Z</time>
<desc>lat.=55.972298, lon.=26.552155, Alt.=101.661194m. Speed=3.924000m/h.</desc>
<speed>1.090000</speed>
</trkpt>
<trkpt lat="55.972298" lon="26.552198">
<ele>101.627991</ele>
<time>2010-08-29T09:05:49Z</time>
<desc>lat.=55.972298, lon.=26.552198, Alt.=101.627991m. Speed=4.140000m/h.</desc>
<speed>1.150000</speed>
</trkpt>
<trkpt lat="55.972290" lon="26.552223">
<ele>101.881897</ele>
<time>2010-08-29T09:05:50Z</time>
<desc>lat.=55.972290, lon.=26.552223, Alt.=101.881897m. Speed=4.176000m/h.</desc>
<speed>1.160000</speed>
</trkpt>
<trkpt lat="55.972286" lon="26.552258">
<ele>101.838928</ele>
<time>2010-08-29T09:05:51Z</time>
<desc>lat.=55.972286, lon.=26.552258, Alt.=101.838928m. Speed=4.428000m/h.</desc>
<speed>1.230000</speed>
</trkpt>
<trkpt lat="55.972290" lon="26.552282">
<ele>101.549866</ele>
<time>2010-08-29T09:05:52Z</time>
<desc>lat.=55.972290, lon.=26.552282, Alt.=101.549866m. Speed=4.716000m/h.</desc>
<speed>1.310000</speed>
</trkpt>
<trkpt lat="55.972298" lon="26.552303">
<ele>101.126038</ele>
<time>2010-08-29T09:05:53Z</time>
<desc>lat.=55.972298, lon.=26.552303, Alt.=101.126038m. Speed=2.664000m/h.</desc>
<speed>0.740000</speed>
</trkpt>
<trkpt lat="55.972301" lon="26.552288">
<ele>100.721741</ele>
<time>2010-08-29T09:05:54Z</time>
<desc>lat.=55.972301, lon.=26.552288, Alt.=100.721741m. Speed=0.576000m/h.</desc>
<speed>0.160000</speed>
</trkpt>
<trkpt lat="55.972309" lon="26.552282">
<ele>100.163147</ele>
<time>2010-08-29T09:05:55Z</time>
<desc>lat.=55.972309, lon.=26.552282, Alt.=100.163147m. Speed=0.540000m/h.</desc>
<speed>0.150000</speed>
</trkpt>
<trkpt lat="55.972309" lon="26.552288">
<ele>100.096741</ele>
<time>2010-08-29T09:05:56Z</time>
<desc>lat.=55.972309, lon.=26.552288, Alt.=100.096741m. Speed=1.548000m/h.</desc>
<speed>0.430000</speed>
</trkpt>
<trkpt lat="55.972313" lon="26.552292">
<ele>100.075256</ele>
<time>2010-08-29T09:05:57Z</time>
<desc>lat.=55.972313, lon.=26.552292, Alt.=100.075256m. Speed=2.484000m/h.</desc>
<speed>0.690000</speed>
</trkpt>
<trkpt lat="55.972317" lon="26.552292">
<ele>99.971741</ele>
<time>2010-08-29T09:05:58Z</time>
<desc>lat.=55.972317, lon.=26.552292, Alt.=99.971741m. Speed=1.224000m/h.</desc>
<speed>0.340000</speed>
</trkpt>
<trkpt lat="55.972317" lon="26.552290">
<ele>99.836975</ele>
<time>2010-08-29T09:05:59Z</time>
<desc>lat.=55.972317, lon.=26.552290, Alt.=99.836975m. Speed=0.756000m/h.</desc>
<speed>0.210000</speed>
</trkpt>
<trkpt lat="55.972321" lon="26.552292">
<ele>99.743225</ele>
<time>2010-08-29T09:06:00Z</time>
<desc>lat.=55.972321, lon.=26.552292, Alt.=99.743225m. Speed=1.152000m/h.</desc>
<speed>0.320000</speed>
</trkpt>
<trkpt lat="55.972324" lon="26.552301">
<ele>99.809631</ele>
<time>2010-08-29T09:06:01Z</time>
<desc>lat.=55.972324, lon.=26.552301, Alt.=99.809631m. Speed=1.440000m/h.</desc>
<speed>0.400000</speed>
</trkpt>
<trkpt lat="55.972340" lon="26.552313">
<ele>99.899475</ele>
<time>2010-08-29T09:06:02Z</time>
<desc>lat.=55.972340, lon.=26.552313, Alt.=99.899475m. Speed=2.376000m/h.</desc>
<speed>0.660000</speed>
</trkpt>
<trkpt lat="55.972351" lon="26.552324">
<ele>99.967834</ele>
<time>2010-08-29T09:06:03Z</time>
<desc>lat.=55.972351, lon.=26.552324, Alt.=99.967834m. Speed=2.988000m/h.</desc>
<speed>0.830000</speed>
</trkpt>
<trkpt lat="55.972359" lon="26.552340">
<ele>99.833069</ele>
<time>2010-08-29T09:06:04Z</time>
<desc>lat.=55.972359, lon.=26.552340, Alt.=99.833069m. Speed=3.600000m/h.</desc>
<speed>1.000000</speed>
</trkpt>
<trkpt lat="55.972366" lon="26.552361">
<ele>99.725647</ele>
<time>2010-08-29T09:06:05Z</time>
<desc>lat.=55.972366, lon.=26.552361, Alt.=99.725647m. Speed=3.996000m/h.</desc>
<speed>1.110000</speed>
</trkpt>
<trkpt lat="55.972378" lon="26.552374">
<ele>99.594788</ele>
<time>2010-08-29T09:06:06Z</time>
<desc>lat.=55.972378, lon.=26.552374, Alt.=99.594788m. Speed=4.464000m/h.</desc>
<speed>1.240000</speed>
</trkpt>
<trkpt lat="55.972385" lon="26.552402">
<ele>99.708069</ele>
<time>2010-08-29T09:06:07Z</time>
<desc>lat.=55.972385, lon.=26.552402, Alt.=99.708069m. Speed=5.508000m/h.</desc>
<speed>1.530000</speed>
</trkpt>
<trkpt lat="55.972389" lon="26.552427">
<ele>99.581116</ele>
<time>2010-08-29T09:06:08Z</time>
<desc>lat.=55.972389, lon.=26.552427, Alt.=99.581116m. Speed=5.364000m/h.</desc>
<speed>1.490000</speed>
</trkpt>
<trkpt lat="55.972393" lon="26.552471">
<ele>99.618225</ele>
<time>2010-08-29T09:06:09Z</time>
<desc>lat.=55.972393, lon.=26.552471, Alt.=99.618225m. Speed=5.652000m/h.</desc>
<speed>1.570000</speed>
</trkpt>
<trkpt lat="55.972397" lon="26.552502">
<ele>99.454163</ele>
<time>2010-08-29T09:06:10Z</time>
<desc>lat.=55.972397, lon.=26.552502, Alt.=99.454163m. Speed=6.480000m/h.</desc>
<speed>1.800000</speed>
</trkpt>
<trkpt lat="55.972408" lon="26.552532">
<ele>99.594788</ele>
<time>2010-08-29T09:06:11Z</time>
<desc>lat.=55.972408, lon.=26.552532, Alt.=99.594788m. Speed=6.156000m/h.</desc>
<speed>1.710000</speed>
</trkpt>
<trkpt lat="55.972416" lon="26.552557">
<ele>99.676819</ele>
<time>2010-08-29T09:06:12Z</time>
<desc>lat.=55.972416, lon.=26.552557, Alt.=99.676819m. Speed=5.724000m/h.</desc>
<speed>1.590000</speed>
</trkpt>
<trkpt lat="55.972416" lon="26.552570">
<ele>99.752991</ele>
<time>2010-08-29T09:06:13Z</time>
<desc>lat.=55.972416, lon.=26.552570, Alt.=99.752991m. Speed=5.616000m/h.</desc>
<speed>1.560000</speed>
</trkpt>
<trkpt lat="55.972424" lon="26.552595">
<ele>99.846741</ele>
<time>2010-08-29T09:06:14Z</time>
<desc>lat.=55.972424, lon.=26.552595, Alt.=99.846741m. Speed=5.724000m/h.</desc>
<speed>1.590000</speed>
</trkpt>
<trkpt lat="55.972435" lon="26.552614">
<ele>99.764709</ele>
<time>2010-08-29T09:06:15Z</time>
<desc>lat.=55.972435, lon.=26.552614, Alt.=99.764709m. Speed=5.184000m/h.</desc>
<speed>1.440000</speed>
</trkpt>
<trkpt lat="55.972458" lon="26.552650">
<ele>99.967834</ele>
<time>2010-08-29T09:06:16Z</time>
<desc>lat.=55.972458, lon.=26.552650, Alt.=99.967834m. Speed=9.180000m/h.</desc>
<speed>2.550000</speed>
</trkpt>
<trkpt lat="55.972477" lon="26.552691">
<ele>99.985413</ele>
<time>2010-08-29T09:06:17Z</time>
<desc>lat.=55.972477, lon.=26.552691, Alt.=99.985413m. Speed=10.116000m/h.</desc>
<speed>2.810000</speed>
</trkpt>
<trkpt lat="55.972492" lon="26.552719">
<ele>99.491272</ele>
<time>2010-08-29T09:06:18Z</time>
<desc>lat.=55.972492, lon.=26.552719, Alt.=99.491272m. Speed=9.936000m/h.</desc>
<speed>2.760000</speed>
</trkpt>
<trkpt lat="55.972507" lon="26.552744">
<ele>99.452209</ele>
<time>2010-08-29T09:06:19Z</time>
<desc>lat.=55.972507, lon.=26.552744, Alt.=99.452209m. Speed=8.604000m/h.</desc>
<speed>2.390000</speed>
</trkpt>
<trkpt lat="55.972527" lon="26.552778">
<ele>99.854553</ele>
<time>2010-08-29T09:06:20Z</time>
<desc>lat.=55.972527, lon.=26.552778, Alt.=99.854553m. Speed=8.856000m/h.</desc>
<speed>2.460000</speed>
</trkpt>
<trkpt lat="55.972542" lon="26.552811">
<ele>100.180725</ele>
<time>2010-08-29T09:06:21Z</time>
<desc>lat.=55.972542, lon.=26.552811, Alt.=100.180725m. Speed=8.136000m/h.</desc>
<speed>2.260000</speed>
</trkpt>
<trkpt lat="55.972557" lon="26.552837">
<ele>100.419006</ele>
<time>2010-08-29T09:06:22Z</time>
<desc>lat.=55.972557, lon.=26.552837, Alt.=100.419006m. Speed=9.252000m/h.</desc>
<speed>2.570000</speed>
</trkpt>
<trkpt lat="55.972569" lon="26.552876">
<ele>99.622131</ele>
<time>2010-08-29T09:06:23Z</time>
<desc>lat.=55.972569, lon.=26.552876, Alt.=99.622131m. Speed=9.828000m/h.</desc>
<speed>2.730000</speed>
</trkpt>
<trkpt lat="55.972591" lon="26.552900">
<ele>99.706116</ele>
<time>2010-08-29T09:06:24Z</time>
<desc>lat.=55.972591, lon.=26.552900, Alt.=99.706116m. Speed=10.836000m/h.</desc>
<speed>3.010000</speed>
</trkpt>
<trkpt lat="55.972618" lon="26.552923">
<ele>99.909241</ele>
<time>2010-08-29T09:06:25Z</time>
<desc>lat.=55.972618, lon.=26.552923, Alt.=99.909241m. Speed=9.072000m/h.</desc>
<speed>2.520000</speed>
</trkpt>
<trkpt lat="55.972645" lon="26.552954">
<ele>100.167053</ele>
<time>2010-08-29T09:06:26Z</time>
<desc>lat.=55.972645, lon.=26.552954, Alt.=100.167053m. Speed=12.528000m/h.</desc>
<speed>3.480000</speed>
</trkpt>
<trkpt lat="55.972672" lon="26.552982">
<ele>100.085022</ele>
<time>2010-08-29T09:06:27Z</time>
<desc>lat.=55.972672, lon.=26.552982, Alt.=100.085022m. Speed=11.340000m/h.</desc>
<speed>3.150000</speed>
</trkpt>
<trkpt lat="55.972702" lon="26.553007">
<ele>99.223694</ele>
<time>2010-08-29T09:06:28Z</time>
<desc>lat.=55.972702, lon.=26.553007, Alt.=99.223694m. Speed=11.052000m/h.</desc>
<speed>3.070000</speed>
</trkpt>
<trkpt lat="55.972729" lon="26.553036">
<ele>98.393616</ele>
<time>2010-08-29T09:06:29Z</time>
<desc>lat.=55.972729, lon.=26.553036, Alt.=98.393616m. Speed=9.864000m/h.</desc>
<speed>2.740000</speed>
</trkpt>
<trkpt lat="55.972748" lon="26.553061">
<ele>98.104553</ele>
<time>2010-08-29T09:06:30Z</time>
<desc>lat.=55.972748, lon.=26.553061, Alt.=98.104553m. Speed=7.524000m/h.</desc>
<speed>2.090000</speed>
</trkpt>
<trkpt lat="55.972763" lon="26.553083">
<ele>98.030334</ele>
<time>2010-08-29T09:06:31Z</time>
<desc>lat.=55.972763, lon.=26.553083, Alt.=98.030334m. Speed=6.876000m/h.</desc>
<speed>1.910000</speed>
</trkpt>
<trkpt lat="55.972782" lon="26.553104">
<ele>98.274475</ele>
<time>2010-08-29T09:06:32Z</time>
<desc>lat.=55.972782, lon.=26.553104, Alt.=98.274475m. Speed=7.272000m/h.</desc>
<speed>2.020000</speed>
</trkpt>
<trkpt lat="55.972794" lon="26.553118">
<ele>97.575256</ele>
<time>2010-08-29T09:06:33Z</time>
<desc>lat.=55.972794, lon.=26.553118, Alt.=97.575256m. Speed=4.248000m/h.</desc>
<speed>1.180000</speed>
</trkpt>
<trkpt lat="55.972801" lon="26.553131">
<ele>97.383850</ele>
<time>2010-08-29T09:06:34Z</time>
<desc>lat.=55.972801, lon.=26.553131, Alt.=97.383850m. Speed=4.320000m/h.</desc>
<speed>1.200000</speed>
</trkpt>
<trkpt lat="55.972809" lon="26.553139">
<ele>96.895569</ele>
<time>2010-08-29T09:06:35Z</time>
<desc>lat.=55.972809, lon.=26.553139, Alt.=96.895569m. Speed=3.852000m/h.</desc>
<speed>1.070000</speed>
</trkpt>
<trkpt lat="55.972816" lon="26.553150">
<ele>96.829163</ele>
<time>2010-08-29T09:06:36Z</time>
<desc>lat.=55.972816, lon.=26.553150, Alt.=96.829163m. Speed=4.608000m/h.</desc>
<speed>1.280000</speed>
</trkpt>
<trkpt lat="55.972828" lon="26.553162">
<ele>96.786194</ele>
<time>2010-08-29T09:06:37Z</time>
<desc>lat.=55.972828, lon.=26.553162, Alt.=96.786194m. Speed=6.300000m/h.</desc>
<speed>1.750000</speed>
</trkpt>
<trkpt lat="55.972851" lon="26.553173">
<ele>96.264709</ele>
<time>2010-08-29T09:06:38Z</time>
<desc>lat.=55.972851, lon.=26.553173, Alt.=96.264709m. Speed=9.108000m/h.</desc>
<speed>2.530000</speed>
</trkpt>
<trkpt lat="55.972874" lon="26.553196">
<ele>95.762756</ele>
<time>2010-08-29T09:06:39Z</time>
<desc>lat.=55.972874, lon.=26.553196, Alt.=95.762756m. Speed=9.324000m/h.</desc>
<speed>2.590000</speed>
</trkpt>
<trkpt lat="55.972893" lon="26.553217">
<ele>95.536194</ele>
<time>2010-08-29T09:06:40Z</time>
<desc>lat.=55.972893, lon.=26.553217, Alt.=95.536194m. Speed=10.404000m/h.</desc>
<speed>2.890000</speed>
</trkpt>
<trkpt lat="55.972927" lon="26.553236">
<ele>95.768616</ele>
<time>2010-08-29T09:06:41Z</time>
<desc>lat.=55.972927, lon.=26.553236, Alt.=95.768616m. Speed=12.456000m/h.</desc>
<speed>3.460000</speed>
</trkpt>
<trkpt lat="55.972965" lon="26.553255">
<ele>95.549866</ele>
<time>2010-08-29T09:06:42Z</time>
<desc>lat.=55.972965, lon.=26.553255, Alt.=95.549866m. Speed=11.304000m/h.</desc>
<speed>3.140000</speed>
</trkpt>
<trkpt lat="55.972988" lon="26.553268">
<ele>95.653381</ele>
<time>2010-08-29T09:06:43Z</time>
<desc>lat.=55.972988, lon.=26.553268, Alt.=95.653381m. Speed=9.504000m/h.</desc>
<speed>2.640000</speed>
</trkpt>
<trkpt lat="55.973019" lon="26.553282">
<ele>95.463928</ele>
<time>2010-08-29T09:06:44Z</time>
<desc>lat.=55.973019, lon.=26.553282, Alt.=95.463928m. Speed=10.368000m/h.</desc>
<speed>2.880000</speed>
</trkpt>
<trkpt lat="55.973049" lon="26.553291">
<ele>95.280334</ele>
<time>2010-08-29T09:06:45Z</time>
<desc>lat.=55.973049, lon.=26.553291, Alt.=95.280334m. Speed=10.908000m/h.</desc>
<speed>3.030000</speed>
</trkpt>
<trkpt lat="55.973080" lon="26.553299">
<ele>95.092834</ele>
<time>2010-08-29T09:06:46Z</time>
<desc>lat.=55.973080, lon.=26.553299, Alt.=95.092834m. Speed=12.564000m/h.</desc>
<speed>3.490000</speed>
</trkpt>
<trkpt lat="55.973114" lon="26.553308">
<ele>94.919006</ele>
<time>2010-08-29T09:06:47Z</time>
<desc>lat.=55.973114, lon.=26.553308, Alt.=94.919006m. Speed=13.032000m/h.</desc>
<speed>3.620000</speed>
</trkpt>
<trkpt lat="55.973152" lon="26.553316">
<ele>94.797913</ele>
<time>2010-08-29T09:06:48Z</time>
<desc>lat.=55.973152, lon.=26.553316, Alt.=94.797913m. Speed=14.004000m/h.</desc>
<speed>3.890000</speed>
</trkpt>
<trkpt lat="55.973186" lon="26.553320">
<ele>94.358459</ele>
<time>2010-08-29T09:06:49Z</time>
<desc>lat.=55.973186, lon.=26.553320, Alt.=94.358459m. Speed=12.276000m/h.</desc>
<speed>3.410000</speed>
</trkpt>
<trkpt lat="55.973232" lon="26.553312">
<ele>93.151428</ele>
<time>2010-08-29T09:06:50Z</time>
<desc>lat.=55.973232, lon.=26.553312, Alt.=93.151428m. Speed=15.768000m/h.</desc>
<speed>4.380000</speed>
</trkpt>
<trkpt lat="55.973278" lon="26.553289">
<ele>92.395569</ele>
<time>2010-08-29T09:06:51Z</time>
<desc>lat.=55.973278, lon.=26.553289, Alt.=92.395569m. Speed=16.488001m/h.</desc>
<speed>4.580000</speed>
</trkpt>
<trkpt lat="55.973320" lon="26.553263">
<ele>92.499084</ele>
<time>2010-08-29T09:06:52Z</time>
<desc>lat.=55.973320, lon.=26.553263, Alt.=92.499084m. Speed=12.132000m/h.</desc>
<speed>3.370000</speed>
</trkpt>
<trkpt lat="55.973354" lon="26.553226">
<ele>93.120178</ele>
<time>2010-08-29T09:06:53Z</time>
<desc>lat.=55.973354, lon.=26.553226, Alt.=93.120178m. Speed=11.592000m/h.</desc>
<speed>3.220000</speed>
</trkpt>
<trkpt lat="55.973385" lon="26.553196">
<ele>92.889709</ele>
<time>2010-08-29T09:06:54Z</time>
<desc>lat.=55.973385, lon.=26.553196, Alt.=92.889709m. Speed=9.072000m/h.</desc>
<speed>2.520000</speed>
</trkpt>
<trkpt lat="55.973408" lon="26.553162">
<ele>93.547913</ele>
<time>2010-08-29T09:06:55Z</time>
<desc>lat.=55.973408, lon.=26.553162, Alt.=93.547913m. Speed=8.460000m/h.</desc>
<speed>2.350000</speed>
</trkpt>
<trkpt lat="55.973427" lon="26.553131">
<ele>94.004944</ele>
<time>2010-08-29T09:06:56Z</time>
<desc>lat.=55.973427, lon.=26.553131, Alt.=94.004944m. Speed=7.416000m/h.</desc>
<speed>2.060000</speed>
</trkpt>
<trkpt lat="55.973434" lon="26.553122">
<ele>94.772522</ele>
<time>2010-08-29T09:06:57Z</time>
<desc>lat.=55.973434, lon.=26.553122, Alt.=94.772522m. Speed=2.232000m/h.</desc>
<speed>0.620000</speed>
</trkpt>
<trkpt lat="55.973442" lon="26.553118">
<ele>95.155334</ele>
<time>2010-08-29T09:06:58Z</time>
<desc>lat.=55.973442, lon.=26.553118, Alt.=95.155334m. Speed=3.240000m/h.</desc>
<speed>0.900000</speed>
</trkpt>
<trkpt lat="55.973450" lon="26.553102">
<ele>95.454163</ele>
<time>2010-08-29T09:06:59Z</time>
<desc>lat.=55.973450, lon.=26.553102, Alt.=95.454163m. Speed=5.328000m/h.</desc>
<speed>1.480000</speed>
</trkpt>
<trkpt lat="55.973457" lon="26.553089">
<ele>94.987366</ele>
<time>2010-08-29T09:07:00Z</time>
<desc>lat.=55.973457, lon.=26.553089, Alt.=94.987366m. Speed=6.012000m/h.</desc>
<speed>1.670000</speed>
</trkpt>
<trkpt lat="55.973469" lon="26.553080">
<ele>94.854553</ele>
<time>2010-08-29T09:07:01Z</time>
<desc>lat.=55.973469, lon.=26.553080, Alt.=94.854553m. Speed=3.024000m/h.</desc>
<speed>0.840000</speed>
</trkpt>
<trkpt lat="55.973476" lon="26.553076">
<ele>94.661194</ele>
<time>2010-08-29T09:07:02Z</time>
<desc>lat.=55.973476, lon.=26.553076, Alt.=94.661194m. Speed=2.556000m/h.</desc>
<speed>0.710000</speed>
</trkpt>
<trkpt lat="55.973484" lon="26.553072">
<ele>94.577209</ele>
<time>2010-08-29T09:07:03Z</time>
<desc>lat.=55.973484, lon.=26.553072, Alt.=94.577209m. Speed=3.600000m/h.</desc>
<speed>1.000000</speed>
</trkpt>
<trkpt lat="55.973488" lon="26.553070">
<ele>94.465881</ele>
<time>2010-08-29T09:07:04Z</time>
<desc>lat.=55.973488, lon.=26.553070, Alt.=94.465881m. Speed=2.556000m/h.</desc>
<speed>0.710000</speed>
</trkpt>
<trkpt lat="55.973492" lon="26.553064">
<ele>94.362366</ele>
<time>2010-08-29T09:07:05Z</time>
<desc>lat.=55.973492, lon.=26.553064, Alt.=94.362366m. Speed=2.196000m/h.</desc>
<speed>0.610000</speed>
</trkpt>
<trkpt lat="55.973495" lon="26.553057">
<ele>94.342834</ele>
<time>2010-08-29T09:07:06Z</time>
<desc>lat.=55.973495, lon.=26.553057, Alt.=94.342834m. Speed=2.016000m/h.</desc>
<speed>0.560000</speed>
</trkpt>
<trkpt lat="55.973503" lon="26.553051">
<ele>94.313538</ele>
<time>2010-08-29T09:07:07Z</time>
<desc>lat.=55.973503, lon.=26.553051, Alt.=94.313538m. Speed=1.980000m/h.</desc>
<speed>0.550000</speed>
</trkpt>
<trkpt lat="55.973507" lon="26.553045">
<ele>94.192444</ele>
<time>2010-08-29T09:07:08Z</time>
<desc>lat.=55.973507, lon.=26.553045, Alt.=94.192444m. Speed=2.052000m/h.</desc>
<speed>0.570000</speed>
</trkpt>
<trkpt lat="55.973511" lon="26.553040">
<ele>94.071350</ele>
<time>2010-08-29T09:07:09Z</time>
<desc>lat.=55.973511, lon.=26.553040, Alt.=94.071350m. Speed=1.944000m/h.</desc>
<speed>0.540000</speed>
</trkpt>
<trkpt lat="55.973515" lon="26.553034">
<ele>93.954163</ele>
<time>2010-08-29T09:07:10Z</time>
<desc>lat.=55.973515, lon.=26.553034, Alt.=93.954163m. Speed=2.808000m/h.</desc>
<speed>0.780000</speed>
</trkpt>
<trkpt lat="55.973522" lon="26.553030">
<ele>93.838928</ele>
<time>2010-08-29T09:07:11Z</time>
<desc>lat.=55.973522, lon.=26.553030, Alt.=93.838928m. Speed=2.484000m/h.</desc>
<speed>0.690000</speed>
</trkpt>
<trkpt lat="55.973526" lon="26.553020">
<ele>93.723694</ele>
<time>2010-08-29T09:07:12Z</time>
<desc>lat.=55.973526, lon.=26.553020, Alt.=93.723694m. Speed=3.276000m/h.</desc>
<speed>0.910000</speed>
</trkpt>
<trkpt lat="55.973534" lon="26.553013">
<ele>93.604553</ele>
<time>2010-08-29T09:07:13Z</time>
<desc>lat.=55.973534, lon.=26.553013, Alt.=93.604553m. Speed=3.456000m/h.</desc>
<speed>0.960000</speed>
</trkpt>
<trkpt lat="55.973537" lon="26.553003">
<ele>93.491272</ele>
<time>2010-08-29T09:07:14Z</time>
<desc>lat.=55.973537, lon.=26.553003, Alt.=93.491272m. Speed=3.744000m/h.</desc>
<speed>1.040000</speed>
</trkpt>
<trkpt lat="55.973545" lon="26.552988">
<ele>93.600647</ele>
<time>2010-08-29T09:07:15Z</time>
<desc>lat.=55.973545, lon.=26.552988, Alt.=93.600647m. Speed=5.184000m/h.</desc>
<speed>1.440000</speed>
</trkpt>
<trkpt lat="55.973557" lon="26.552963">
<ele>93.788147</ele>
<time>2010-08-29T09:07:16Z</time>
<desc>lat.=55.973557, lon.=26.552963, Alt.=93.788147m. Speed=5.436000m/h.</desc>
<speed>1.510000</speed>
</trkpt>
<trkpt lat="55.973576" lon="26.552938">
<ele>94.032288</ele>
<time>2010-08-29T09:07:17Z</time>
<desc>lat.=55.973576, lon.=26.552938, Alt.=94.032288m. Speed=7.632000m/h.</desc>
<speed>2.120000</speed>
</trkpt>
<trkpt lat="55.973591" lon="26.552921">
<ele>94.032288</ele>
<time>2010-08-29T09:07:18Z</time>
<desc>lat.=55.973591, lon.=26.552921, Alt.=94.032288m. Speed=8.100000m/h.</desc>
<speed>2.250000</speed>
</trkpt>
<trkpt lat="55.973606" lon="26.552895">
<ele>93.797913</ele>
<time>2010-08-29T09:07:19Z</time>
<desc>lat.=55.973606, lon.=26.552895, Alt.=93.797913m. Speed=8.316000m/h.</desc>
<speed>2.310000</speed>
</trkpt>
<trkpt lat="55.973618" lon="26.552876">
<ele>93.290100</ele>
<time>2010-08-29T09:07:20Z</time>
<desc>lat.=55.973618, lon.=26.552876, Alt.=93.290100m. Speed=8.460000m/h.</desc>
<speed>2.350000</speed>
</trkpt>
<trkpt lat="55.973633" lon="26.552856">
<ele>93.251038</ele>
<time>2010-08-29T09:07:21Z</time>
<desc>lat.=55.973633, lon.=26.552856, Alt.=93.251038m. Speed=7.416000m/h.</desc>
<speed>2.060000</speed>
</trkpt>
<trkpt lat="55.973644" lon="26.552839">
<ele>93.153381</ele>
<time>2010-08-29T09:07:22Z</time>
<desc>lat.=55.973644, lon.=26.552839, Alt.=93.153381m. Speed=8.028000m/h.</desc>
<speed>2.230000</speed>
</trkpt>
<trkpt lat="55.973663" lon="26.552818">
<ele>92.778381</ele>
<time>2010-08-29T09:07:23Z</time>
<desc>lat.=55.973663, lon.=26.552818, Alt.=92.778381m. Speed=9.756000m/h.</desc>
<speed>2.710000</speed>
</trkpt>
<trkpt lat="55.973682" lon="26.552803">
<ele>92.854553</ele>
<time>2010-08-29T09:07:24Z</time>
<desc>lat.=55.973682, lon.=26.552803, Alt.=92.854553m. Speed=8.064000m/h.</desc>
<speed>2.240000</speed>
</trkpt>
<trkpt lat="55.973698" lon="26.552788">
<ele>92.825256</ele>
<time>2010-08-29T09:07:25Z</time>
<desc>lat.=55.973698, lon.=26.552788, Alt.=92.825256m. Speed=6.804000m/h.</desc>
<speed>1.890000</speed>
</trkpt>
<trkpt lat="55.973709" lon="26.552773">
<ele>92.690491</ele>
<time>2010-08-29T09:07:26Z</time>
<desc>lat.=55.973709, lon.=26.552773, Alt.=92.690491m. Speed=5.112000m/h.</desc>
<speed>1.420000</speed>
</trkpt>
<trkpt lat="55.973732" lon="26.552757">
<ele>93.280334</ele>
<time>2010-08-29T09:07:27Z</time>
<desc>lat.=55.973732, lon.=26.552757, Alt.=93.280334m. Speed=5.868000m/h.</desc>
<speed>1.630000</speed>
</trkpt>
<trkpt lat="55.973751" lon="26.552742">
<ele>93.131897</ele>
<time>2010-08-29T09:07:28Z</time>
<desc>lat.=55.973751, lon.=26.552742, Alt.=93.131897m. Speed=8.100000m/h.</desc>
<speed>2.250000</speed>
</trkpt>
<trkpt lat="55.973766" lon="26.552729">
<ele>93.399475</ele>
<time>2010-08-29T09:07:29Z</time>
<desc>lat.=55.973766, lon.=26.552729, Alt.=93.399475m. Speed=6.156000m/h.</desc>
<speed>1.710000</speed>
</trkpt>
<trkpt lat="55.973782" lon="26.552715">
<ele>93.588928</ele>
<time>2010-08-29T09:07:30Z</time>
<desc>lat.=55.973782, lon.=26.552715, Alt.=93.588928m. Speed=6.768000m/h.</desc>
<speed>1.880000</speed>
</trkpt>
<trkpt lat="55.973793" lon="26.552698">
<ele>93.786194</ele>
<time>2010-08-29T09:07:31Z</time>
<desc>lat.=55.973793, lon.=26.552698, Alt.=93.786194m. Speed=6.192000m/h.</desc>
<speed>1.720000</speed>
</trkpt>
<trkpt lat="55.973808" lon="26.552689">
<ele>94.092834</ele>
<time>2010-08-29T09:07:32Z</time>
<desc>lat.=55.973808, lon.=26.552689, Alt.=94.092834m. Speed=5.652000m/h.</desc>
<speed>1.570000</speed>
</trkpt>
<trkpt lat="55.973820" lon="26.552675">
<ele>94.401428</ele>
<time>2010-08-29T09:07:33Z</time>
<desc>lat.=55.973820, lon.=26.552675, Alt.=94.401428m. Speed=6.012000m/h.</desc>
<speed>1.670000</speed>
</trkpt>
<trkpt lat="55.973835" lon="26.552673">
<ele>94.502991</ele>
<time>2010-08-29T09:07:34Z</time>
<desc>lat.=55.973835, lon.=26.552673, Alt.=94.502991m. Speed=3.780000m/h.</desc>
<speed>1.050000</speed>
</trkpt>
<trkpt lat="55.973843" lon="26.552666">
<ele>94.504944</ele>
<time>2010-08-29T09:07:35Z</time>
<desc>lat.=55.973843, lon.=26.552666, Alt.=94.504944m. Speed=3.456000m/h.</desc>
<speed>0.960000</speed>
</trkpt>
<trkpt lat="55.973858" lon="26.552645">
<ele>94.721741</ele>
<time>2010-08-29T09:07:36Z</time>
<desc>lat.=55.973858, lon.=26.552645, Alt.=94.721741m. Speed=4.320000m/h.</desc>
<speed>1.200000</speed>
</trkpt>
<trkpt lat="55.973873" lon="26.552633">
<ele>94.801819</ele>
<time>2010-08-29T09:07:37Z</time>
<desc>lat.=55.973873, lon.=26.552633, Alt.=94.801819m. Speed=5.544000m/h.</desc>
<speed>1.540000</speed>
</trkpt>
<trkpt lat="55.973892" lon="26.552620">
<ele>94.862366</ele>
<time>2010-08-29T09:07:38Z</time>
<desc>lat.=55.973892, lon.=26.552620, Alt.=94.862366m. Speed=7.452000m/h.</desc>
<speed>2.070000</speed>
</trkpt>
<trkpt lat="55.973907" lon="26.552612">
<ele>95.002991</ele>
<time>2010-08-29T09:07:39Z</time>
<desc>lat.=55.973907, lon.=26.552612, Alt.=95.002991m. Speed=6.516000m/h.</desc>
<speed>1.810000</speed>
</trkpt>
<trkpt lat="55.973919" lon="26.552612">
<ele>95.092834</ele>
<time>2010-08-29T09:07:40Z</time>
<desc>lat.=55.973919, lon.=26.552612, Alt.=95.092834m. Speed=5.328000m/h.</desc>
<speed>1.480000</speed>
</trkpt>
<trkpt lat="55.973930" lon="26.552620">
<ele>95.198303</ele>
<time>2010-08-29T09:07:41Z</time>
<desc>lat.=55.973930, lon.=26.552620, Alt.=95.198303m. Speed=4.104000m/h.</desc>
<speed>1.140000</speed>
</trkpt>
<trkpt lat="55.973938" lon="26.552618">
<ele>95.274475</ele>
<time>2010-08-29T09:07:42Z</time>
<desc>lat.=55.973938, lon.=26.552618, Alt.=95.274475m. Speed=3.636000m/h.</desc>
<speed>1.010000</speed>
</trkpt>
<trkpt lat="55.973949" lon="26.552607">
<ele>95.446350</ele>
<time>2010-08-29T09:07:43Z</time>
<desc>lat.=55.973949, lon.=26.552607, Alt.=95.446350m. Speed=4.176000m/h.</desc>
<speed>1.160000</speed>
</trkpt>
<trkpt lat="55.973972" lon="26.552601">
<ele>95.526428</ele>
<time>2010-08-29T09:07:44Z</time>
<desc>lat.=55.973972, lon.=26.552601, Alt.=95.526428m. Speed=5.184000m/h.</desc>
<speed>1.440000</speed>
</trkpt>
<trkpt lat="55.974003" lon="26.552578">
<ele>95.938538</ele>
<time>2010-08-29T09:07:45Z</time>
<desc>lat.=55.974003, lon.=26.552578, Alt.=95.938538m. Speed=7.308000m/h.</desc>
<speed>2.030000</speed>
</trkpt>
<trkpt lat="55.974041" lon="26.552538">
<ele>96.762756</ele>
<time>2010-08-29T09:07:46Z</time>
<desc>lat.=55.974041, lon.=26.552538, Alt.=96.762756m. Speed=10.440000m/h.</desc>
<speed>2.900000</speed>
</trkpt>
<trkpt lat="55.974072" lon="26.552509">
<ele>97.504944</ele>
<time>2010-08-29T09:07:47Z</time>
<desc>lat.=55.974072, lon.=26.552509, Alt.=97.504944m. Speed=10.332000m/h.</desc>
<speed>2.870000</speed>
</trkpt>
<trkpt lat="55.974087" lon="26.552492">
<ele>97.889709</ele>
<time>2010-08-29T09:07:48Z</time>
<desc>lat.=55.974087, lon.=26.552492, Alt.=97.889709m. Speed=7.776000m/h.</desc>
<speed>2.160000</speed>
</trkpt>
<trkpt lat="55.974102" lon="26.552481">
<ele>98.278381</ele>
<time>2010-08-29T09:07:49Z</time>
<desc>lat.=55.974102, lon.=26.552481, Alt.=98.278381m. Speed=6.660000m/h.</desc>
<speed>1.850000</speed>
</trkpt>
<trkpt lat="55.974117" lon="26.552471">
<ele>98.393616</ele>
<time>2010-08-29T09:07:50Z</time>
<desc>lat.=55.974117, lon.=26.552471, Alt.=98.393616m. Speed=7.704000m/h.</desc>
<speed>2.140000</speed>
</trkpt>
<trkpt lat="55.974133" lon="26.552465">
<ele>98.762756</ele>
<time>2010-08-29T09:07:51Z</time>
<desc>lat.=55.974133, lon.=26.552465, Alt.=98.762756m. Speed=6.480000m/h.</desc>
<speed>1.800000</speed>
</trkpt>
<trkpt lat="55.974144" lon="26.552477">
<ele>99.174866</ele>
<time>2010-08-29T09:07:52Z</time>
<desc>lat.=55.974144, lon.=26.552477, Alt.=99.174866m. Speed=2.016000m/h.</desc>
<speed>0.560000</speed>
</trkpt>
<trkpt lat="55.974152" lon="26.552481">
<ele>99.411194</ele>
<time>2010-08-29T09:07:53Z</time>
<desc>lat.=55.974152, lon.=26.552481, Alt.=99.411194m. Speed=2.340000m/h.</desc>
<speed>0.650000</speed>
</trkpt>
<trkpt lat="55.974155" lon="26.552483">
<ele>99.620178</ele>
<time>2010-08-29T09:07:54Z</time>
<desc>lat.=55.974155, lon.=26.552483, Alt.=99.620178m. Speed=1.692000m/h.</desc>
<speed>0.470000</speed>
</trkpt>
<trkpt lat="55.974167" lon="26.552481">
<ele>99.950256</ele>
<time>2010-08-29T09:07:55Z</time>
<desc>lat.=55.974167, lon.=26.552481, Alt.=99.950256m. Speed=2.232000m/h.</desc>
<speed>0.620000</speed>
</trkpt>
<trkpt lat="55.974178" lon="26.552465">
<ele>100.547913</ele>
<time>2010-08-29T09:07:56Z</time>
<desc>lat.=55.974178, lon.=26.552465, Alt.=100.547913m. Speed=3.060000m/h.</desc>
<speed>0.850000</speed>
</trkpt>
<trkpt lat="55.974186" lon="26.552444">
<ele>101.680725</ele>
<time>2010-08-29T09:07:57Z</time>
<desc>lat.=55.974186, lon.=26.552444, Alt.=101.680725m. Speed=3.672000m/h.</desc>
<speed>1.020000</speed>
</trkpt>
<trkpt lat="55.974216" lon="26.552420">
<ele>101.340881</ele>
<time>2010-08-29T09:07:58Z</time>
<desc>lat.=55.974216, lon.=26.552420, Alt.=101.340881m. Speed=6.948000m/h.</desc>
<speed>1.930000</speed>
</trkpt>
<trkpt lat="55.974228" lon="26.552391">
<ele>101.835022</ele>
<time>2010-08-29T09:07:59Z</time>
<desc>lat.=55.974228, lon.=26.552391, Alt.=101.835022m. Speed=7.488000m/h.</desc>
<speed>2.080000</speed>
</trkpt>
<trkpt lat="55.974247" lon="26.552370">
<ele>102.153381</ele>
<time>2010-08-29T09:08:00Z</time>
<desc>lat.=55.974247, lon.=26.552370, Alt.=102.153381m. Speed=6.588000m/h.</desc>
<speed>1.830000</speed>
</trkpt>
<trkpt lat="55.974266" lon="26.552353">
<ele>102.897522</ele>
<time>2010-08-29T09:08:01Z</time>
<desc>lat.=55.974266, lon.=26.552353, Alt.=102.897522m. Speed=5.328000m/h.</desc>
<speed>1.480000</speed>
</trkpt>
<trkpt lat="55.974285" lon="26.552338">
<ele>103.157288</ele>
<time>2010-08-29T09:08:02Z</time>
<desc>lat.=55.974285, lon.=26.552338, Alt.=103.157288m. Speed=6.192000m/h.</desc>
<speed>1.720000</speed>
</trkpt>
<trkpt lat="55.974300" lon="26.552324">
<ele>103.481506</ele>
<time>2010-08-29T09:08:03Z</time>
<desc>lat.=55.974300, lon.=26.552324, Alt.=103.481506m. Speed=4.752000m/h.</desc>
<speed>1.320000</speed>
</trkpt>
<trkpt lat="55.974335" lon="26.552309">
<ele>104.157288</ele>
<time>2010-08-29T09:08:04Z</time>
<desc>lat.=55.974335, lon.=26.552309, Alt.=104.157288m. Speed=6.084000m/h.</desc>
<speed>1.690000</speed>
</trkpt>
<trkpt lat="55.974354" lon="26.552286">
<ele>104.170959</ele>
<time>2010-08-29T09:08:05Z</time>
<desc>lat.=55.974354, lon.=26.552286, Alt.=104.170959m. Speed=6.588000m/h.</desc>
<speed>1.830000</speed>
</trkpt>
<trkpt lat="55.974377" lon="26.552269">
<ele>104.229553</ele>
<time>2010-08-29T09:08:06Z</time>
<desc>lat.=55.974377, lon.=26.552269, Alt.=104.229553m. Speed=7.812000m/h.</desc>
<speed>2.170000</speed>
</trkpt>
<trkpt lat="55.974400" lon="26.552250">
<ele>104.393616</ele>
<time>2010-08-29T09:08:07Z</time>
<desc>lat.=55.974400, lon.=26.552250, Alt.=104.393616m. Speed=6.624000m/h.</desc>
<speed>1.840000</speed>
</trkpt>
<trkpt lat="55.974419" lon="26.552242">
<ele>104.491272</ele>
<time>2010-08-29T09:08:08Z</time>
<desc>lat.=55.974419, lon.=26.552242, Alt.=104.491272m. Speed=7.200000m/h.</desc>
<speed>2.000000</speed>
</trkpt>
<trkpt lat="55.974438" lon="26.552240">
<ele>104.735413</ele>
<time>2010-08-29T09:08:09Z</time>
<desc>lat.=55.974438, lon.=26.552240, Alt.=104.735413m. Speed=5.328000m/h.</desc>
<speed>1.480000</speed>
</trkpt>
<trkpt lat="55.974453" lon="26.552231">
<ele>104.883850</ele>
<time>2010-08-29T09:08:10Z</time>
<desc>lat.=55.974453, lon.=26.552231, Alt.=104.883850m. Speed=5.544000m/h.</desc>
<speed>1.540000</speed>
</trkpt>
<trkpt lat="55.974472" lon="26.552221">
<ele>104.954163</ele>
<time>2010-08-29T09:08:11Z</time>
<desc>lat.=55.974472, lon.=26.552221, Alt.=104.954163m. Speed=4.212000m/h.</desc>
<speed>1.170000</speed>
</trkpt>
<trkpt lat="55.974487" lon="26.552219">
<ele>105.051819</ele>
<time>2010-08-29T09:08:12Z</time>
<desc>lat.=55.974487, lon.=26.552219, Alt.=105.051819m. Speed=3.996000m/h.</desc>
<speed>1.110000</speed>
</trkpt>
<trkpt lat="55.974510" lon="26.552217">
<ele>105.184631</ele>
<time>2010-08-29T09:08:13Z</time>
<desc>lat.=55.974510, lon.=26.552217, Alt.=105.184631m. Speed=6.732000m/h.</desc>
<speed>1.870000</speed>
</trkpt>
<trkpt lat="55.974537" lon="26.552191">
<ele>105.055725</ele>
<time>2010-08-29T09:08:14Z</time>
<desc>lat.=55.974537, lon.=26.552191, Alt.=105.055725m. Speed=6.156000m/h.</desc>
<speed>1.710000</speed>
</trkpt>
<trkpt lat="55.974567" lon="26.552181">
<ele>105.387756</ele>
<time>2010-08-29T09:08:15Z</time>
<desc>lat.=55.974567, lon.=26.552181, Alt.=105.387756m. Speed=4.392000m/h.</desc>
<speed>1.220000</speed>
</trkpt>
<trkpt lat="55.974598" lon="26.552168">
<ele>105.627991</ele>
<time>2010-08-29T09:08:16Z</time>
<desc>lat.=55.974598, lon.=26.552168, Alt.=105.627991m. Speed=4.968000m/h.</desc>
<speed>1.380000</speed>
</trkpt>
<trkpt lat="55.974621" lon="26.552145">
<ele>106.301819</ele>
<time>2010-08-29T09:08:17Z</time>
<desc>lat.=55.974621, lon.=26.552145, Alt.=106.301819m. Speed=5.652000m/h.</desc>
<speed>1.570000</speed>
</trkpt>
<trkpt lat="55.974651" lon="26.552120">
<ele>106.600647</ele>
<time>2010-08-29T09:08:18Z</time>
<desc>lat.=55.974651, lon.=26.552120, Alt.=106.600647m. Speed=7.092000m/h.</desc>
<speed>1.970000</speed>
</trkpt>
<trkpt lat="55.974705" lon="26.552067">
<ele>106.653381</ele>
<time>2010-08-29T09:08:19Z</time>
<desc>lat.=55.974705, lon.=26.552067, Alt.=106.653381m. Speed=9.072000m/h.</desc>
<speed>2.520000</speed>
</trkpt>
<trkpt lat="55.974747" lon="26.552029">
<ele>107.014709</ele>
<time>2010-08-29T09:08:20Z</time>
<desc>lat.=55.974747, lon.=26.552029, Alt.=107.014709m. Speed=11.412000m/h.</desc>
<speed>3.170000</speed>
</trkpt>
<trkpt lat="55.974773" lon="26.551998">
<ele>107.151428</ele>
<time>2010-08-29T09:08:21Z</time>
<desc>lat.=55.974773, lon.=26.551998, Alt.=107.151428m. Speed=9.396000m/h.</desc>
<speed>2.610000</speed>
</trkpt>
<trkpt lat="55.974812" lon="26.551975">
<ele>107.360413</ele>
<time>2010-08-29T09:08:22Z</time>
<desc>lat.=55.974812, lon.=26.551975, Alt.=107.360413m. Speed=10.584000m/h.</desc>
<speed>2.940000</speed>
</trkpt>
<trkpt lat="55.974846" lon="26.551958">
<ele>107.710022</ele>
<time>2010-08-29T09:08:23Z</time>
<desc>lat.=55.974846, lon.=26.551958, Alt.=107.710022m. Speed=8.172000m/h.</desc>
<speed>2.270000</speed>
</trkpt>
<trkpt lat="55.974869" lon="26.551931">
<ele>107.729553</ele>
<time>2010-08-29T09:08:24Z</time>
<desc>lat.=55.974869, lon.=26.551931, Alt.=107.729553m. Speed=6.012000m/h.</desc>
<speed>1.670000</speed>
</trkpt>
<trkpt lat="55.974895" lon="26.551914">
<ele>107.909241</ele>
<time>2010-08-29T09:08:25Z</time>
<desc>lat.=55.974895, lon.=26.551914, Alt.=107.909241m. Speed=6.228000m/h.</desc>
<speed>1.730000</speed>
</trkpt>
<trkpt lat="55.974911" lon="26.551903">
<ele>107.961975</ele>
<time>2010-08-29T09:08:26Z</time>
<desc>lat.=55.974911, lon.=26.551903, Alt.=107.961975m. Speed=5.904000m/h.</desc>
<speed>1.640000</speed>
</trkpt>
<trkpt lat="55.974930" lon="26.551891">
<ele>107.586975</ele>
<time>2010-08-29T09:08:27Z</time>
<desc>lat.=55.974930, lon.=26.551891, Alt.=107.586975m. Speed=6.300000m/h.</desc>
<speed>1.750000</speed>
</trkpt>
<trkpt lat="55.974937" lon="26.551880">
<ele>106.885803</ele>
<time>2010-08-29T09:08:28Z</time>
<desc>lat.=55.974937, lon.=26.551880, Alt.=106.885803m. Speed=5.148000m/h.</desc>
<speed>1.430000</speed>
</trkpt>
<trkpt lat="55.974945" lon="26.551857">
<ele>106.809631</ele>
<time>2010-08-29T09:08:29Z</time>
<desc>lat.=55.974945, lon.=26.551857, Alt.=106.809631m. Speed=6.048000m/h.</desc>
<speed>1.680000</speed>
</trkpt>
<trkpt lat="55.974953" lon="26.551842">
<ele>106.534241</ele>
<time>2010-08-29T09:08:30Z</time>
<desc>lat.=55.974953, lon.=26.551842, Alt.=106.534241m. Speed=4.860000m/h.</desc>
<speed>1.350000</speed>
</trkpt>
<trkpt lat="55.974964" lon="26.551826">
<ele>106.614319</ele>
<time>2010-08-29T09:08:31Z</time>
<desc>lat.=55.974964, lon.=26.551826, Alt.=106.614319m. Speed=5.004000m/h.</desc>
<speed>1.390000</speed>
</trkpt>
<trkpt lat="55.974976" lon="26.551802">
<ele>106.391663</ele>
<time>2010-08-29T09:08:32Z</time>
<desc>lat.=55.974976, lon.=26.551802, Alt.=106.391663m. Speed=4.644000m/h.</desc>
<speed>1.290000</speed>
</trkpt>
<trkpt lat="55.975002" lon="26.551773">
<ele>106.192444</ele>
<time>2010-08-29T09:08:33Z</time>
<desc>lat.=55.975002, lon.=26.551773, Alt.=106.192444m. Speed=6.948000m/h.</desc>
<speed>1.930000</speed>
</trkpt>
<trkpt lat="55.975029" lon="26.551746">
<ele>105.598694</ele>
<time>2010-08-29T09:08:34Z</time>
<desc>lat.=55.975029, lon.=26.551746, Alt.=105.598694m. Speed=5.112000m/h.</desc>
<speed>1.420000</speed>
</trkpt>
<trkpt lat="55.975044" lon="26.551729">
<ele>105.327209</ele>
<time>2010-08-29T09:08:35Z</time>
<desc>lat.=55.975044, lon.=26.551729, Alt.=105.327209m. Speed=1.260000m/h.</desc>
<speed>0.350000</speed>
</trkpt>
<trkpt lat="55.975056" lon="26.551718">
<ele>104.788147</ele>
<time>2010-08-29T09:08:36Z</time>
<desc>lat.=55.975056, lon.=26.551718, Alt.=104.788147m. Speed=0.468000m/h.</desc>
<speed>0.130000</speed>
</trkpt>
<trkpt lat="55.975063" lon="26.551712">
<ele>104.823303</ele>
<time>2010-08-29T09:08:37Z</time>
<desc>lat.=55.975063, lon.=26.551712, Alt.=104.823303m. Speed=0.324000m/h.</desc>
<speed>0.090000</speed>
</trkpt>
<trkpt lat="55.975067" lon="26.551714">
<ele>104.915100</ele>
<time>2010-08-29T09:08:38Z</time>
<desc>lat.=55.975067, lon.=26.551714, Alt.=104.915100m. Speed=0.000000m/h.</desc>
<speed>0.000000</speed>
</trkpt>
<trkpt lat="55.975067" lon="26.551720">
<ele>105.157288</ele>
<time>2010-08-29T09:08:39Z</time>
<desc>lat.=55.975067, lon.=26.551720, Alt.=105.157288m. Speed=0.756000m/h.</desc>
<speed>0.210000</speed>
</trkpt>
<trkpt lat="55.975067" lon="26.551723">
<ele>105.141663</ele>
<time>2010-08-29T09:08:40Z</time>
<desc>lat.=55.975067, lon.=26.551723, Alt.=105.141663m. Speed=1.080000m/h.</desc>
<speed>0.300000</speed>
</trkpt>
<trkpt lat="55.975071" lon="26.551725">
<ele>105.352600</ele>
<time>2010-08-29T09:08:41Z</time>
<desc>lat.=55.975071, lon.=26.551725, Alt.=105.352600m. Speed=0.180000m/h.</desc>
<speed>0.050000</speed>
</trkpt>
<trkpt lat="55.975071" lon="26.551714">
<ele>105.430725</ele>
<time>2010-08-29T09:08:42Z</time>
<desc>lat.=55.975071, lon.=26.551714, Alt.=105.430725m. Speed=0.000000m/h.</desc>
<speed>0.000000</speed>
</trkpt>
<trkpt lat="55.975079" lon="26.551712">
<ele>105.450256</ele>
<time>2010-08-29T09:08:43Z</time>
<desc>lat.=55.975079, lon.=26.551712, Alt.=105.450256m. Speed=0.576000m/h.</desc>
<speed>0.160000</speed>
</trkpt>
<trkpt lat="55.975082" lon="26.551714">
<ele>105.774475</ele>
<time>2010-08-29T09:08:44Z</time>
<desc>lat.=55.975082, lon.=26.551714, Alt.=105.774475m. Speed=0.036000m/h.</desc>
<speed>0.010000</speed>
</trkpt>
<trkpt lat="55.975082" lon="26.551714">
<ele>105.795959</ele>
<time>2010-08-29T09:08:45Z</time>
<desc>lat.=55.975082, lon.=26.551714, Alt.=105.795959m. Speed=0.180000m/h.</desc>
<speed>0.050000</speed>
</trkpt>
<trkpt lat="55.975082" lon="26.551716">
<ele>105.803772</ele>
<time>2010-08-29T09:08:46Z</time>
<desc>lat.=55.975082, lon.=26.551716, Alt.=105.803772m. Speed=0.252000m/h.</desc>
<speed>0.070000</speed>
</trkpt>
<trkpt lat="55.975082" lon="26.551714">
<ele>105.827209</ele>
<time>2010-08-29T09:08:47Z</time>
<desc>lat.=55.975082, lon.=26.551714, Alt.=105.827209m. Speed=0.072000m/h.</desc>
<speed>0.020000</speed>
</trkpt>
<trkpt lat="55.975082" lon="26.551714">
<ele>105.850647</ele>
<time>2010-08-29T09:08:48Z</time>
<desc>lat.=55.975082, lon.=26.551714, Alt.=105.850647m. Speed=0.036000m/h.</desc>
<speed>0.010000</speed>
</trkpt>
<trkpt lat="55.975082" lon="26.551714">
<ele>105.860413</ele>
<time>2010-08-29T09:08:49Z</time>
<desc>lat.=55.975082, lon.=26.551714, Alt.=105.860413m. Speed=0.036000m/h.</desc>
<speed>0.010000</speed>
</trkpt>
<trkpt lat="55.975082" lon="26.551714">
<ele>105.874084</ele>
<time>2010-08-29T09:08:50Z</time>
<desc>lat.=55.975082, lon.=26.551714, Alt.=105.874084m. Speed=0.072000m/h.</desc>
<speed>0.020000</speed>
</trkpt>
<trkpt lat="55.975082" lon="26.551714">
<ele>105.876038</ele>
<time>2010-08-29T09:08:51Z</time>
<desc>lat.=55.975082, lon.=26.551714, Alt.=105.876038m. Speed=0.036000m/h.</desc>
<speed>0.010000</speed>
</trkpt>
<trkpt lat="55.975082" lon="26.551714">
<ele>105.891663</ele>
<time>2010-08-29T09:08:52Z</time>
<desc>lat.=55.975082, lon.=26.551714, Alt.=105.891663m. Speed=0.108000m/h.</desc>
<speed>0.030000</speed>
</trkpt>
<trkpt lat="55.975082" lon="26.551714">
<ele>105.895569</ele>
<time>2010-08-29T09:08:53Z</time>
<desc>lat.=55.975082, lon.=26.551714, Alt.=105.895569m. Speed=0.036000m/h.</desc>
<speed>0.010000</speed>
</trkpt>
<trkpt lat="55.975082" lon="26.551714">
<ele>105.901428</ele>
<time>2010-08-29T09:08:54Z</time>
<desc>lat.=55.975082, lon.=26.551714, Alt.=105.901428m. Speed=0.036000m/h.</desc>
<speed>0.010000</speed>
</trkpt>
<trkpt lat="55.975082" lon="26.551714">
<ele>105.905334</ele>
<time>2010-08-29T09:08:55Z</time>
<desc>lat.=55.975082, lon.=26.551714, Alt.=105.905334m. Speed=0.000000m/h.</desc>
<speed>0.000000</speed>
</trkpt>
<trkpt lat="55.975082" lon="26.551714">
<ele>105.911194</ele>
<time>2010-08-29T09:08:56Z</time>
<desc>lat.=55.975082, lon.=26.551714, Alt.=105.911194m. Speed=0.036000m/h.</desc>
<speed>0.010000</speed>
</trkpt>
<trkpt lat="55.975082" lon="26.551714">
<ele>105.915100</ele>
<time>2010-08-29T09:08:57Z</time>
<desc>lat.=55.975082, lon.=26.551714, Alt.=105.915100m. Speed=0.036000m/h.</desc>
<speed>0.010000</speed>
</trkpt>
<trkpt lat="55.975082" lon="26.551714">
<ele>105.924866</ele>
<time>2010-08-29T09:08:58Z</time>
<desc>lat.=55.975082, lon.=26.551714, Alt.=105.924866m. Speed=0.072000m/h.</desc>
<speed>0.020000</speed>
</trkpt>
<trkpt lat="55.975082" lon="26.551714">
<ele>105.928772</ele>
<time>2010-08-29T09:08:59Z</time>
<desc>lat.=55.975082, lon.=26.551714, Alt.=105.928772m. Speed=0.036000m/h.</desc>
<speed>0.010000</speed>
</trkpt>
<trkpt lat="55.975082" lon="26.551716">
<ele>105.942444</ele>
<time>2010-08-29T09:09:00Z</time>
<desc>lat.=55.975082, lon.=26.551716, Alt.=105.942444m. Speed=0.036000m/h.</desc>
<speed>0.010000</speed>
</trkpt>
<trkpt lat="55.975082" lon="26.551714">
<ele>105.956116</ele>
<time>2010-08-29T09:09:01Z</time>
<desc>lat.=55.975082, lon.=26.551714, Alt.=105.956116m. Speed=0.144000m/h.</desc>
<speed>0.040000</speed>
</trkpt>
<trkpt lat="55.975082" lon="26.551716">
<ele>105.971741</ele>
<time>2010-08-29T09:09:02Z</time>
<desc>lat.=55.975082, lon.=26.551716, Alt.=105.971741m. Speed=0.072000m/h.</desc>
<speed>0.020000</speed>
</trkpt>
<trkpt lat="55.975082" lon="26.551716">
<ele>105.989319</ele>
<time>2010-08-29T09:09:03Z</time>
<desc>lat.=55.975082, lon.=26.551716, Alt.=105.989319m. Speed=0.072000m/h.</desc>
<speed>0.020000</speed>
</trkpt>
<trkpt lat="55.975082" lon="26.551716">
<ele>106.008850</ele>
<time>2010-08-29T09:09:04Z</time>
<desc>lat.=55.975082, lon.=26.551716, Alt.=106.008850m. Speed=0.216000m/h.</desc>
<speed>0.060000</speed>
</trkpt>
<trkpt lat="55.975086" lon="26.551716">
<ele>106.032288</ele>
<time>2010-08-29T09:09:05Z</time>
<desc>lat.=55.975086, lon.=26.551716, Alt.=106.032288m. Speed=0.360000m/h.</desc>
<speed>0.100000</speed>
</trkpt>
<trkpt lat="55.975086" lon="26.551716">
<ele>106.055725</ele>
<time>2010-08-29T09:09:06Z</time>
<desc>lat.=55.975086, lon.=26.551716, Alt.=106.055725m. Speed=1.944000m/h.</desc>
<speed>0.540000</speed>
</trkpt>
<trkpt lat="55.975101" lon="26.551706">
<ele>106.229553</ele>
<time>2010-08-29T09:09:07Z</time>
<desc>lat.=55.975101, lon.=26.551706, Alt.=106.229553m. Speed=3.204000m/h.</desc>
<speed>0.890000</speed>
</trkpt>
<trkpt lat="55.975113" lon="26.551695">
<ele>107.188538</ele>
<time>2010-08-29T09:09:08Z</time>
<desc>lat.=55.975113, lon.=26.551695, Alt.=107.188538m. Speed=3.636000m/h.</desc>
<speed>1.010000</speed>
</trkpt>
<trkpt lat="55.975124" lon="26.551674">
<ele>107.821350</ele>
<time>2010-08-29T09:09:09Z</time>
<desc>lat.=55.975124, lon.=26.551674, Alt.=107.821350m. Speed=4.428000m/h.</desc>
<speed>1.230000</speed>
</trkpt>
<trkpt lat="55.975136" lon="26.551659">
<ele>108.073303</ele>
<time>2010-08-29T09:09:10Z</time>
<desc>lat.=55.975136, lon.=26.551659, Alt.=108.073303m. Speed=5.400000m/h.</desc>
<speed>1.500000</speed>
</trkpt>
<trkpt lat="55.975155" lon="26.551647">
<ele>108.198303</ele>
<time>2010-08-29T09:09:11Z</time>
<desc>lat.=55.975155, lon.=26.551647, Alt.=108.198303m. Speed=7.308000m/h.</desc>
<speed>2.030000</speed>
</trkpt>
<trkpt lat="55.975182" lon="26.551638">
<ele>108.278381</ele>
<time>2010-08-29T09:09:12Z</time>
<desc>lat.=55.975182, lon.=26.551638, Alt.=108.278381m. Speed=7.344000m/h.</desc>
<speed>2.040000</speed>
</trkpt>
<trkpt lat="55.975201" lon="26.551626">
<ele>108.364319</ele>
<time>2010-08-29T09:09:13Z</time>
<desc>lat.=55.975201, lon.=26.551626, Alt.=108.364319m. Speed=7.092000m/h.</desc>
<speed>1.970000</speed>
</trkpt>
<trkpt lat="55.975220" lon="26.551617">
<ele>108.307678</ele>
<time>2010-08-29T09:09:14Z</time>
<desc>lat.=55.975220, lon.=26.551617, Alt.=108.307678m. Speed=6.912000m/h.</desc>
<speed>1.920000</speed>
</trkpt>
<trkpt lat="55.975239" lon="26.551607">
<ele>108.239319</ele>
<time>2010-08-29T09:09:15Z</time>
<desc>lat.=55.975239, lon.=26.551607, Alt.=108.239319m. Speed=5.904000m/h.</desc>
<speed>1.640000</speed>
</trkpt>
<trkpt lat="55.975254" lon="26.551601">
<ele>108.141663</ele>
<time>2010-08-29T09:09:16Z</time>
<desc>lat.=55.975254, lon.=26.551601, Alt.=108.141663m. Speed=6.084000m/h.</desc>
<speed>1.690000</speed>
</trkpt>
<trkpt lat="55.975273" lon="26.551596">
<ele>108.065491</ele>
<time>2010-08-29T09:09:17Z</time>
<desc>lat.=55.975273, lon.=26.551596, Alt.=108.065491m. Speed=6.588000m/h.</desc>
<speed>1.830000</speed>
</trkpt>
<trkpt lat="55.975296" lon="26.551577">
<ele>108.372131</ele>
<time>2010-08-29T09:09:18Z</time>
<desc>lat.=55.975296, lon.=26.551577, Alt.=108.372131m. Speed=8.244000m/h.</desc>
<speed>2.290000</speed>
</trkpt>
<trkpt lat="55.975311" lon="26.551567">
<ele>108.506897</ele>
<time>2010-08-29T09:09:19Z</time>
<desc>lat.=55.975311, lon.=26.551567, Alt.=108.506897m. Speed=5.688000m/h.</desc>
<speed>1.580000</speed>
</trkpt>
<trkpt lat="55.975323" lon="26.551558">
<ele>108.487366</ele>
<time>2010-08-29T09:09:20Z</time>
<desc>lat.=55.975323, lon.=26.551558, Alt.=108.487366m. Speed=3.924000m/h.</desc>
<speed>1.090000</speed>
</trkpt>
<trkpt lat="55.975334" lon="26.551552">
<ele>108.561584</ele>
<time>2010-08-29T09:09:21Z</time>
<desc>lat.=55.975334, lon.=26.551552, Alt.=108.561584m. Speed=3.456000m/h.</desc>
<speed>0.960000</speed>
</trkpt>
<trkpt lat="55.975342" lon="26.551552">
<ele>108.672913</ele>
<time>2010-08-29T09:09:22Z</time>
<desc>lat.=55.975342, lon.=26.551552, Alt.=108.672913m. Speed=2.376000m/h.</desc>
<speed>0.660000</speed>
</trkpt>
<trkpt lat="55.975353" lon="26.551540">
<ele>108.768616</ele>
<time>2010-08-29T09:09:23Z</time>
<desc>lat.=55.975353, lon.=26.551540, Alt.=108.768616m. Speed=3.384000m/h.</desc>
<speed>0.940000</speed>
</trkpt>
<trkpt lat="55.975372" lon="26.551525">
<ele>109.006897</ele>
<time>2010-08-29T09:09:24Z</time>
<desc>lat.=55.975372, lon.=26.551525, Alt.=109.006897m. Speed=4.212000m/h.</desc>
<speed>1.170000</speed>
</trkpt>
<trkpt lat="55.975388" lon="26.551523">
<ele>109.196350</ele>
<time>2010-08-29T09:09:25Z</time>
<desc>lat.=55.975388, lon.=26.551523, Alt.=109.196350m. Speed=4.500000m/h.</desc>
<speed>1.250000</speed>
</trkpt>
<trkpt lat="55.975407" lon="26.551517">
<ele>109.245178</ele>
<time>2010-08-29T09:09:26Z</time>
<desc>lat.=55.975407, lon.=26.551517, Alt.=109.245178m. Speed=4.644000m/h.</desc>
<speed>1.290000</speed>
</trkpt>
<trkpt lat="55.975418" lon="26.551514">
<ele>109.262756</ele>
<time>2010-08-29T09:09:27Z</time>
<desc>lat.=55.975418, lon.=26.551514, Alt.=109.262756m. Speed=4.284000m/h.</desc>
<speed>1.190000</speed>
</trkpt>
<trkpt lat="55.975449" lon="26.551498">
<ele>109.086975</ele>
<time>2010-08-29T09:09:28Z</time>
<desc>lat.=55.975449, lon.=26.551498, Alt.=109.086975m. Speed=5.652000m/h.</desc>
<speed>1.570000</speed>
</trkpt>
<trkpt lat="55.975456" lon="26.551498">
<ele>109.184631</ele>
<time>2010-08-29T09:09:29Z</time>
<desc>lat.=55.975456, lon.=26.551498, Alt.=109.184631m. Speed=2.736000m/h.</desc>
<speed>0.760000</speed>
</trkpt>
<trkpt lat="55.975468" lon="26.551493">
<ele>109.077209</ele>
<time>2010-08-29T09:09:30Z</time>
<desc>lat.=55.975468, lon.=26.551493, Alt.=109.077209m. Speed=3.420000m/h.</desc>
<speed>0.950000</speed>
</trkpt>
<trkpt lat="55.975491" lon="26.551477">
<ele>108.403381</ele>
<time>2010-08-29T09:09:31Z</time>
<desc>lat.=55.975491, lon.=26.551477, Alt.=108.403381m. Speed=2.016000m/h.</desc>
<speed>0.560000</speed>
</trkpt>
<trkpt lat="55.975510" lon="26.551460">
<ele>109.335022</ele>
<time>2010-08-29T09:09:32Z</time>
<desc>lat.=55.975510, lon.=26.551460, Alt.=109.335022m. Speed=2.376000m/h.</desc>
<speed>0.660000</speed>
</trkpt>
<trkpt lat="55.975533" lon="26.551439">
<ele>108.674866</ele>
<time>2010-08-29T09:09:33Z</time>
<desc>lat.=55.975533, lon.=26.551439, Alt.=108.674866m. Speed=3.492000m/h.</desc>
<speed>0.970000</speed>
</trkpt>
<trkpt lat="55.975544" lon="26.551416">
<ele>108.805725</ele>
<time>2010-08-29T09:09:34Z</time>
<desc>lat.=55.975544, lon.=26.551416, Alt.=108.805725m. Speed=4.716000m/h.</desc>
<speed>1.310000</speed>
</trkpt>
<trkpt lat="55.975555" lon="26.551411">
<ele>108.743225</ele>
<time>2010-08-29T09:09:35Z</time>
<desc>lat.=55.975555, lon.=26.551411, Alt.=108.743225m. Speed=5.220000m/h.</desc>
<speed>1.450000</speed>
</trkpt>
<trkpt lat="55.975563" lon="26.551409">
<ele>108.116272</ele>
<time>2010-08-29T09:09:36Z</time>
<desc>lat.=55.975563, lon.=26.551409, Alt.=108.116272m. Speed=3.564000m/h.</desc>
<speed>0.990000</speed>
</trkpt>
<trkpt lat="55.975582" lon="26.551382">
<ele>107.588928</ele>
<time>2010-08-29T09:09:37Z</time>
<desc>lat.=55.975582, lon.=26.551382, Alt.=107.588928m. Speed=6.480000m/h.</desc>
<speed>1.800000</speed>
</trkpt>
<trkpt lat="55.975597" lon="26.551357">
<ele>107.182678</ele>
<time>2010-08-29T09:09:38Z</time>
<desc>lat.=55.975597, lon.=26.551357, Alt.=107.182678m. Speed=4.860000m/h.</desc>
<speed>1.350000</speed>
</trkpt>
<trkpt lat="55.975613" lon="26.551336">
<ele>106.815491</ele>
<time>2010-08-29T09:09:39Z</time>
<desc>lat.=55.975613, lon.=26.551336, Alt.=106.815491m. Speed=6.552000m/h.</desc>
<speed>1.820000</speed>
</trkpt>
<trkpt lat="55.975624" lon="26.551304">
<ele>107.280334</ele>
<time>2010-08-29T09:09:40Z</time>
<desc>lat.=55.975624, lon.=26.551304, Alt.=107.280334m. Speed=7.704000m/h.</desc>
<speed>2.140000</speed>
</trkpt>
<trkpt lat="55.975643" lon="26.551275">
<ele>107.340881</ele>
<time>2010-08-29T09:09:41Z</time>
<desc>lat.=55.975643, lon.=26.551275, Alt.=107.340881m. Speed=7.092000m/h.</desc>
<speed>1.970000</speed>
</trkpt>
<trkpt lat="55.975658" lon="26.551256">
<ele>107.094788</ele>
<time>2010-08-29T09:09:42Z</time>
<desc>lat.=55.975658, lon.=26.551256, Alt.=107.094788m. Speed=5.832000m/h.</desc>
<speed>1.620000</speed>
</trkpt>
<trkpt lat="55.975681" lon="26.551235">
<ele>106.405334</ele>
<time>2010-08-29T09:09:43Z</time>
<desc>lat.=55.975681, lon.=26.551235, Alt.=106.405334m. Speed=2.628000m/h.</desc>
<speed>0.730000</speed>
</trkpt>
<trkpt lat="55.975693" lon="26.551231">
<ele>106.317444</ele>
<time>2010-08-29T09:09:44Z</time>
<desc>lat.=55.975693, lon.=26.551231, Alt.=106.317444m. Speed=2.736000m/h.</desc>
<speed>0.760000</speed>
</trkpt>
<trkpt lat="55.975700" lon="26.551224">
<ele>106.297913</ele>
<time>2010-08-29T09:09:45Z</time>
<desc>lat.=55.975700, lon.=26.551224, Alt.=106.297913m. Speed=2.916000m/h.</desc>
<speed>0.810000</speed>
</trkpt>
<trkpt lat="55.975708" lon="26.551218">
<ele>106.323303</ele>
<time>2010-08-29T09:09:46Z</time>
<desc>lat.=55.975708, lon.=26.551218, Alt.=106.323303m. Speed=3.132000m/h.</desc>
<speed>0.870000</speed>
</trkpt>
<trkpt lat="55.975731" lon="26.551199">
<ele>106.397522</ele>
<time>2010-08-29T09:09:47Z</time>
<desc>lat.=55.975731, lon.=26.551199, Alt.=106.397522m. Speed=4.752000m/h.</desc>
<speed>1.320000</speed>
</trkpt>
<trkpt lat="55.975742" lon="26.551186">
<ele>106.526428</ele>
<time>2010-08-29T09:09:48Z</time>
<desc>lat.=55.975742, lon.=26.551186, Alt.=106.526428m. Speed=5.400000m/h.</desc>
<speed>1.500000</speed>
</trkpt>
<trkpt lat="55.975754" lon="26.551176">
<ele>106.481506</ele>
<time>2010-08-29T09:09:49Z</time>
<desc>lat.=55.975754, lon.=26.551176, Alt.=106.481506m. Speed=2.124000m/h.</desc>
<speed>0.590000</speed>
</trkpt>
<trkpt lat="55.975780" lon="26.551146">
<ele>106.516663</ele>
<time>2010-08-29T09:09:50Z</time>
<desc>lat.=55.975780, lon.=26.551146, Alt.=106.516663m. Speed=4.032000m/h.</desc>
<speed>1.120000</speed>
</trkpt>
<trkpt lat="55.975803" lon="26.551117">
<ele>107.026428</ele>
<time>2010-08-29T09:09:51Z</time>
<desc>lat.=55.975803, lon.=26.551117, Alt.=107.026428m. Speed=5.616000m/h.</desc>
<speed>1.560000</speed>
</trkpt>
<trkpt lat="55.975826" lon="26.551081">
<ele>107.581116</ele>
<time>2010-08-29T09:09:52Z</time>
<desc>lat.=55.975826, lon.=26.551081, Alt.=107.581116m. Speed=6.372000m/h.</desc>
<speed>1.770000</speed>
</trkpt>
<trkpt lat="55.975857" lon="26.551043">
<ele>107.471741</ele>
<time>2010-08-29T09:09:53Z</time>
<desc>lat.=55.975857, lon.=26.551043, Alt.=107.471741m. Speed=7.452000m/h.</desc>
<speed>2.070000</speed>
</trkpt>
<trkpt lat="55.975876" lon="26.551023">
<ele>107.653381</ele>
<time>2010-08-29T09:09:54Z</time>
<desc>lat.=55.975876, lon.=26.551023, Alt.=107.653381m. Speed=4.284000m/h.</desc>
<speed>1.190000</speed>
</trkpt>
<trkpt lat="55.975895" lon="26.551003">
<ele>107.815491</ele>
<time>2010-08-29T09:09:55Z</time>
<desc>lat.=55.975895, lon.=26.551003, Alt.=107.815491m. Speed=5.580000m/h.</desc>
<speed>1.550000</speed>
</trkpt>
<trkpt lat="55.975922" lon="26.550968">
<ele>107.528381</ele>
<time>2010-08-29T09:09:56Z</time>
<desc>lat.=55.975922, lon.=26.550968, Alt.=107.528381m. Speed=8.496000m/h.</desc>
<speed>2.360000</speed>
</trkpt>
<trkpt lat="55.975929" lon="26.550949">
<ele>107.120178</ele>
<time>2010-08-29T09:09:57Z</time>
<desc>lat.=55.975929, lon.=26.550949, Alt.=107.120178m. Speed=8.964000m/h.</desc>
<speed>2.490000</speed>
</trkpt>
<trkpt lat="55.975948" lon="26.550934">
<ele>107.547913</ele>
<time>2010-08-29T09:09:58Z</time>
<desc>lat.=55.975948, lon.=26.550934, Alt.=107.547913m. Speed=7.560000m/h.</desc>
<speed>2.100000</speed>
</trkpt>
<trkpt lat="55.975971" lon="26.550922">
<ele>107.602600</ele>
<time>2010-08-29T09:09:59Z</time>
<desc>lat.=55.975971, lon.=26.550922, Alt.=107.602600m. Speed=7.812000m/h.</desc>
<speed>2.170000</speed>
</trkpt>
<trkpt lat="55.975979" lon="26.550911">
<ele>106.833069</ele>
<time>2010-08-29T09:10:00Z</time>
<desc>lat.=55.975979, lon.=26.550911, Alt.=106.833069m. Speed=5.256000m/h.</desc>
<speed>1.460000</speed>
</trkpt>
<trkpt lat="55.975990" lon="26.550911">
<ele>106.817444</ele>
<time>2010-08-29T09:10:01Z</time>
<desc>lat.=55.975990, lon.=26.550911, Alt.=106.817444m. Speed=4.104000m/h.</desc>
<speed>1.140000</speed>
</trkpt>
<trkpt lat="55.975998" lon="26.550913">
<ele>106.954163</ele>
<time>2010-08-29T09:10:02Z</time>
<desc>lat.=55.975998, lon.=26.550913, Alt.=106.954163m. Speed=1.908000m/h.</desc>
<speed>0.530000</speed>
</trkpt>
<trkpt lat="55.976009" lon="26.550898">
<ele>106.979553</ele>
<time>2010-08-29T09:10:03Z</time>
<desc>lat.=55.976009, lon.=26.550898, Alt.=106.979553m. Speed=3.996000m/h.</desc>
<speed>1.110000</speed>
</trkpt>
<trkpt lat="55.976017" lon="26.550892">
<ele>107.174866</ele>
<time>2010-08-29T09:10:04Z</time>
<desc>lat.=55.976017, lon.=26.550892, Alt.=107.174866m. Speed=4.068000m/h.</desc>
<speed>1.130000</speed>
</trkpt>
<trkpt lat="55.976028" lon="26.550877">
<ele>107.295959</ele>
<time>2010-08-29T09:10:05Z</time>
<desc>lat.=55.976028, lon.=26.550877, Alt.=107.295959m. Speed=4.320000m/h.</desc>
<speed>1.200000</speed>
</trkpt>
<trkpt lat="55.976036" lon="26.550867">
<ele>107.409241</ele>
<time>2010-08-29T09:10:06Z</time>
<desc>lat.=55.976036, lon.=26.550867, Alt.=107.409241m. Speed=4.320000m/h.</desc>
<speed>1.200000</speed>
</trkpt>
<trkpt lat="55.976044" lon="26.550861">
<ele>107.532288</ele>
<time>2010-08-29T09:10:07Z</time>
<desc>lat.=55.976044, lon.=26.550861, Alt.=107.532288m. Speed=4.032000m/h.</desc>
<speed>1.120000</speed>
</trkpt>
<trkpt lat="55.976055" lon="26.550854">
<ele>107.643616</ele>
<time>2010-08-29T09:10:08Z</time>
<desc>lat.=55.976055, lon.=26.550854, Alt.=107.643616m. Speed=4.140000m/h.</desc>
<speed>1.150000</speed>
</trkpt>
<trkpt lat="55.976070" lon="26.550844">
<ele>107.752991</ele>
<time>2010-08-29T09:10:09Z</time>
<desc>lat.=55.976070, lon.=26.550844, Alt.=107.752991m. Speed=4.464000m/h.</desc>
<speed>1.240000</speed>
</trkpt>
<trkpt lat="55.976093" lon="26.550827">
<ele>107.389709</ele>
<time>2010-08-29T09:10:10Z</time>
<desc>lat.=55.976093, lon.=26.550827, Alt.=107.389709m. Speed=5.436000m/h.</desc>
<speed>1.510000</speed>
</trkpt>
<trkpt lat="55.976116" lon="26.550816">
<ele>107.422913</ele>
<time>2010-08-29T09:10:11Z</time>
<desc>lat.=55.976116, lon.=26.550816, Alt.=107.422913m. Speed=6.624000m/h.</desc>
<speed>1.840000</speed>
</trkpt>
<trkpt lat="55.976154" lon="26.550808">
<ele>107.233459</ele>
<time>2010-08-29T09:10:12Z</time>
<desc>lat.=55.976154, lon.=26.550808, Alt.=107.233459m. Speed=7.956000m/h.</desc>
<speed>2.210000</speed>
</trkpt>
<trkpt lat="55.976185" lon="26.550791">
<ele>107.096741</ele>
<time>2010-08-29T09:10:13Z</time>
<desc>lat.=55.976185, lon.=26.550791, Alt.=107.096741m. Speed=8.532000m/h.</desc>
<speed>2.370000</speed>
</trkpt>
<trkpt lat="55.976208" lon="26.550776">
<ele>107.012756</ele>
<time>2010-08-29T09:10:14Z</time>
<desc>lat.=55.976208, lon.=26.550776, Alt.=107.012756m. Speed=7.416000m/h.</desc>
<speed>2.060000</speed>
</trkpt>
<trkpt lat="55.976231" lon="26.550755">
<ele>107.221741</ele>
<time>2010-08-29T09:10:15Z</time>
<desc>lat.=55.976231, lon.=26.550755, Alt.=107.221741m. Speed=8.604000m/h.</desc>
<speed>2.390000</speed>
</trkpt>
<trkpt lat="55.976246" lon="26.550735">
<ele>107.469788</ele>
<time>2010-08-29T09:10:16Z</time>
<desc>lat.=55.976246, lon.=26.550735, Alt.=107.469788m. Speed=6.012000m/h.</desc>
<speed>1.670000</speed>
</trkpt>
<trkpt lat="55.976265" lon="26.550711">
<ele>107.645569</ele>
<time>2010-08-29T09:10:17Z</time>
<desc>lat.=55.976265, lon.=26.550711, Alt.=107.645569m. Speed=8.244000m/h.</desc>
<speed>2.290000</speed>
</trkpt>
<trkpt lat="55.976288" lon="26.550694">
<ele>107.688538</ele>
<time>2010-08-29T09:10:18Z</time>
<desc>lat.=55.976288, lon.=26.550694, Alt.=107.688538m. Speed=7.560000m/h.</desc>
<speed>2.100000</speed>
</trkpt>
<trkpt lat="55.976315" lon="26.550676">
<ele>107.965881</ele>
<time>2010-08-29T09:10:19Z</time>
<desc>lat.=55.976315, lon.=26.550676, Alt.=107.965881m. Speed=9.144000m/h.</desc>
<speed>2.540000</speed>
</trkpt>
<trkpt lat="55.976341" lon="26.550652">
<ele>108.086975</ele>
<time>2010-08-29T09:10:20Z</time>
<desc>lat.=55.976341, lon.=26.550652, Alt.=108.086975m. Speed=9.936000m/h.</desc>
<speed>2.760000</speed>
</trkpt>
<trkpt lat="55.976372" lon="26.550621">
<ele>108.467834</ele>
<time>2010-08-29T09:10:21Z</time>
<desc>lat.=55.976372, lon.=26.550621, Alt.=108.467834m. Speed=8.640000m/h.</desc>
<speed>2.400000</speed>
</trkpt>
<trkpt lat="55.976398" lon="26.550594">
<ele>108.862366</ele>
<time>2010-08-29T09:10:22Z</time>
<desc>lat.=55.976398, lon.=26.550594, Alt.=108.862366m. Speed=10.008000m/h.</desc>
<speed>2.780000</speed>
</trkpt>
<trkpt lat="55.976418" lon="26.550568">
<ele>109.260803</ele>
<time>2010-08-29T09:10:23Z</time>
<desc>lat.=55.976418, lon.=26.550568, Alt.=109.260803m. Speed=7.056000m/h.</desc>
<speed>1.960000</speed>
</trkpt>
<trkpt lat="55.976437" lon="26.550549">
<ele>109.407288</ele>
<time>2010-08-29T09:10:24Z</time>
<desc>lat.=55.976437, lon.=26.550549, Alt.=109.407288m. Speed=5.760000m/h.</desc>
<speed>1.600000</speed>
</trkpt>
<trkpt lat="55.976448" lon="26.550543">
<ele>109.383850</ele>
<time>2010-08-29T09:10:25Z</time>
<desc>lat.=55.976448, lon.=26.550543, Alt.=109.383850m. Speed=5.508000m/h.</desc>
<speed>1.530000</speed>
</trkpt>
<trkpt lat="55.976460" lon="26.550533">
<ele>109.073303</ele>
<time>2010-08-29T09:10:26Z</time>
<desc>lat.=55.976460, lon.=26.550533, Alt.=109.073303m. Speed=5.652000m/h.</desc>
<speed>1.570000</speed>
</trkpt>
<trkpt lat="55.976471" lon="26.550528">
<ele>108.893616</ele>
<time>2010-08-29T09:10:27Z</time>
<desc>lat.=55.976471, lon.=26.550528, Alt.=108.893616m. Speed=5.328000m/h.</desc>
<speed>1.480000</speed>
</trkpt>
<trkpt lat="55.976486" lon="26.550516">
<ele>108.786194</ele>
<time>2010-08-29T09:10:28Z</time>
<desc>lat.=55.976486, lon.=26.550516, Alt.=108.786194m. Speed=7.668000m/h.</desc>
<speed>2.130000</speed>
</trkpt>
<trkpt lat="55.976501" lon="26.550499">
<ele>108.782288</ele>
<time>2010-08-29T09:10:29Z</time>
<desc>lat.=55.976501, lon.=26.550499, Alt.=108.782288m. Speed=7.848000m/h.</desc>
<speed>2.180000</speed>
</trkpt>
<trkpt lat="55.976521" lon="26.550484">
<ele>108.624084</ele>
<time>2010-08-29T09:10:30Z</time>
<desc>lat.=55.976521, lon.=26.550484, Alt.=108.624084m. Speed=8.712000m/h.</desc>
<speed>2.420000</speed>
</trkpt>
<trkpt lat="55.976543" lon="26.550461">
<ele>109.036194</ele>
<time>2010-08-29T09:10:31Z</time>
<desc>lat.=55.976543, lon.=26.550461, Alt.=109.036194m. Speed=8.820000m/h.</desc>
<speed>2.450000</speed>
</trkpt>
<trkpt lat="55.976555" lon="26.550425">
<ele>109.096741</ele>
<time>2010-08-29T09:10:32Z</time>
<desc>lat.=55.976555, lon.=26.550425, Alt.=109.096741m. Speed=10.188000m/h.</desc>
<speed>2.830000</speed>
</trkpt>
<trkpt lat="55.976582" lon="26.550398">
<ele>109.085022</ele>
<time>2010-08-29T09:10:33Z</time>
<desc>lat.=55.976582, lon.=26.550398, Alt.=109.085022m. Speed=10.296000m/h.</desc>
<speed>2.860000</speed>
</trkpt>
<trkpt lat="55.976597" lon="26.550364">
<ele>108.754944</ele>
<time>2010-08-29T09:10:34Z</time>
<desc>lat.=55.976597, lon.=26.550364, Alt.=108.754944m. Speed=11.268000m/h.</desc>
<speed>3.130000</speed>
</trkpt>
<trkpt lat="55.976620" lon="26.550331">
<ele>108.780334</ele>
<time>2010-08-29T09:10:35Z</time>
<desc>lat.=55.976620, lon.=26.550331, Alt.=108.780334m. Speed=10.800000m/h.</desc>
<speed>3.000000</speed>
</trkpt>
<trkpt lat="55.976635" lon="26.550301">
<ele>108.524475</ele>
<time>2010-08-29T09:10:36Z</time>
<desc>lat.=55.976635, lon.=26.550301, Alt.=108.524475m. Speed=10.404000m/h.</desc>
<speed>2.890000</speed>
</trkpt>
<trkpt lat="55.976658" lon="26.550274">
<ele>108.170959</ele>
<time>2010-08-29T09:10:37Z</time>
<desc>lat.=55.976658, lon.=26.550274, Alt.=108.170959m. Speed=9.648000m/h.</desc>
<speed>2.680000</speed>
</trkpt>
<trkpt lat="55.976677" lon="26.550251">
<ele>107.895569</ele>
<time>2010-08-29T09:10:38Z</time>
<desc>lat.=55.976677, lon.=26.550251, Alt.=107.895569m. Speed=8.280000m/h.</desc>
<speed>2.300000</speed>
</trkpt>
<trkpt lat="55.976692" lon="26.550232">
<ele>107.653381</ele>
<time>2010-08-29T09:10:39Z</time>
<desc>lat.=55.976692, lon.=26.550232, Alt.=107.653381m. Speed=7.236000m/h.</desc>
<speed>2.010000</speed>
</trkpt>
<trkpt lat="55.976711" lon="26.550222">
<ele>107.157288</ele>
<time>2010-08-29T09:10:40Z</time>
<desc>lat.=55.976711, lon.=26.550222, Alt.=107.157288m. Speed=6.804000m/h.</desc>
<speed>1.890000</speed>
</trkpt>
<trkpt lat="55.976730" lon="26.550213">
<ele>107.305725</ele>
<time>2010-08-29T09:10:41Z</time>
<desc>lat.=55.976730, lon.=26.550213, Alt.=107.305725m. Speed=6.948000m/h.</desc>
<speed>1.930000</speed>
</trkpt>
<trkpt lat="55.976746" lon="26.550207">
<ele>107.260803</ele>
<time>2010-08-29T09:10:42Z</time>
<desc>lat.=55.976746, lon.=26.550207, Alt.=107.260803m. Speed=5.940000m/h.</desc>
<speed>1.650000</speed>
</trkpt>
<trkpt lat="55.976765" lon="26.550205">
<ele>107.020569</ele>
<time>2010-08-29T09:10:43Z</time>
<desc>lat.=55.976765, lon.=26.550205, Alt.=107.020569m. Speed=6.300000m/h.</desc>
<speed>1.750000</speed>
</trkpt>
<trkpt lat="55.976780" lon="26.550203">
<ele>106.975647</ele>
<time>2010-08-29T09:10:44Z</time>
<desc>lat.=55.976780, lon.=26.550203, Alt.=106.975647m. Speed=4.932000m/h.</desc>
<speed>1.370000</speed>
</trkpt>
<trkpt lat="55.976795" lon="26.550192">
<ele>107.108459</ele>
<time>2010-08-29T09:10:45Z</time>
<desc>lat.=55.976795, lon.=26.550192, Alt.=107.108459m. Speed=4.104000m/h.</desc>
<speed>1.140000</speed>
</trkpt>
<trkpt lat="55.976810" lon="26.550184">
<ele>106.919006</ele>
<time>2010-08-29T09:10:46Z</time>
<desc>lat.=55.976810, lon.=26.550184, Alt.=106.919006m. Speed=6.336000m/h.</desc>
<speed>1.760000</speed>
</trkpt>
<trkpt lat="55.976833" lon="26.550179">
<ele>107.211975</ele>
<time>2010-08-29T09:10:47Z</time>
<desc>lat.=55.976833, lon.=26.550179, Alt.=107.211975m. Speed=6.264000m/h.</desc>
<speed>1.740000</speed>
</trkpt>
<trkpt lat="55.976845" lon="26.550169">
<ele>107.297913</ele>
<time>2010-08-29T09:10:48Z</time>
<desc>lat.=55.976845, lon.=26.550169, Alt.=107.297913m. Speed=2.628000m/h.</desc>
<speed>0.730000</speed>
</trkpt>
<trkpt lat="55.976856" lon="26.550169">
<ele>107.569397</ele>
<time>2010-08-29T09:10:49Z</time>
<desc>lat.=55.976856, lon.=26.550169, Alt.=107.569397m. Speed=3.636000m/h.</desc>
<speed>1.010000</speed>
</trkpt>
<trkpt lat="55.976871" lon="26.550161">
<ele>107.836975</ele>
<time>2010-08-29T09:10:50Z</time>
<desc>lat.=55.976871, lon.=26.550161, Alt.=107.836975m. Speed=4.104000m/h.</desc>
<speed>1.140000</speed>
</trkpt>
<trkpt lat="55.976883" lon="26.550156">
<ele>107.842834</ele>
<time>2010-08-29T09:10:51Z</time>
<desc>lat.=55.976883, lon.=26.550156, Alt.=107.842834m. Speed=4.140000m/h.</desc>
<speed>1.150000</speed>
</trkpt>
<trkpt lat="55.976894" lon="26.550146">
<ele>107.967834</ele>
<time>2010-08-29T09:10:52Z</time>
<desc>lat.=55.976894, lon.=26.550146, Alt.=107.967834m. Speed=4.752000m/h.</desc>
<speed>1.320000</speed>
</trkpt>
<trkpt lat="55.976910" lon="26.550137">
<ele>108.118225</ele>
<time>2010-08-29T09:10:53Z</time>
<desc>lat.=55.976910, lon.=26.550137, Alt.=108.118225m. Speed=5.040000m/h.</desc>
<speed>1.400000</speed>
</trkpt>
<trkpt lat="55.976929" lon="26.550127">
<ele>108.393616</ele>
<time>2010-08-29T09:10:54Z</time>
<desc>lat.=55.976929, lon.=26.550127, Alt.=108.393616m. Speed=5.328000m/h.</desc>
<speed>1.480000</speed>
</trkpt>
<trkpt lat="55.976944" lon="26.550123">
<ele>108.532288</ele>
<time>2010-08-29T09:10:55Z</time>
<desc>lat.=55.976944, lon.=26.550123, Alt.=108.532288m. Speed=4.788000m/h.</desc>
<speed>1.330000</speed>
</trkpt>
<trkpt lat="55.976952" lon="26.550119">
<ele>108.719788</ele>
<time>2010-08-29T09:10:56Z</time>
<desc>lat.=55.976952, lon.=26.550119, Alt.=108.719788m. Speed=3.816000m/h.</desc>
<speed>1.060000</speed>
</trkpt>
<trkpt lat="55.976959" lon="26.550117">
<ele>108.819397</ele>
<time>2010-08-29T09:10:57Z</time>
<desc>lat.=55.976959, lon.=26.550117, Alt.=108.819397m. Speed=3.528000m/h.</desc>
<speed>0.980000</speed>
</trkpt>
<trkpt lat="55.976974" lon="26.550138">
<ele>108.770569</ele>
<time>2010-08-29T09:10:58Z</time>
<desc>lat.=55.976974, lon.=26.550138, Alt.=108.770569m. Speed=2.808000m/h.</desc>
<speed>0.780000</speed>
</trkpt>
<trkpt lat="55.976978" lon="26.550133">
<ele>108.594788</ele>
<time>2010-08-29T09:10:59Z</time>
<desc>lat.=55.976978, lon.=26.550133, Alt.=108.594788m. Speed=1.800000m/h.</desc>
<speed>0.500000</speed>
</trkpt>
<trkpt lat="55.976978" lon="26.550138">
<ele>109.118225</ele>
<time>2010-08-29T09:11:00Z</time>
<desc>lat.=55.976978, lon.=26.550138, Alt.=109.118225m. Speed=1.044000m/h.</desc>
<speed>0.290000</speed>
</trkpt>
<trkpt lat="55.976978" lon="26.550129">
<ele>109.905334</ele>
<time>2010-08-29T09:11:01Z</time>
<desc>lat.=55.976978, lon.=26.550129, Alt.=109.905334m. Speed=0.720000m/h.</desc>
<speed>0.200000</speed>
</trkpt>
<trkpt lat="55.976978" lon="26.550131">
<ele>110.499084</ele>
<time>2010-08-29T09:11:02Z</time>
<desc>lat.=55.976978, lon.=26.550131, Alt.=110.499084m. Speed=1.008000m/h.</desc>
<speed>0.280000</speed>
</trkpt>
<trkpt lat="55.976982" lon="26.550137">
<ele>110.833069</ele>
<time>2010-08-29T09:11:03Z</time>
<desc>lat.=55.976982, lon.=26.550137, Alt.=110.833069m. Speed=1.260000m/h.</desc>
<speed>0.350000</speed>
</trkpt>
<trkpt lat="55.976990" lon="26.550138">
<ele>110.920959</ele>
<time>2010-08-29T09:11:04Z</time>
<desc>lat.=55.976990, lon.=26.550138, Alt.=110.920959m. Speed=1.692000m/h.</desc>
<speed>0.470000</speed>
</trkpt>
<trkpt lat="55.976997" lon="26.550138">
<ele>111.063538</ele>
<time>2010-08-29T09:11:05Z</time>
<desc>lat.=55.976997, lon.=26.550138, Alt.=111.063538m. Speed=1.980000m/h.</desc>
<speed>0.550000</speed>
</trkpt>
<trkpt lat="55.977009" lon="26.550138">
<ele>111.342834</ele>
<time>2010-08-29T09:11:06Z</time>
<desc>lat.=55.977009, lon.=26.550138, Alt.=111.342834m. Speed=3.240000m/h.</desc>
<speed>0.900000</speed>
</trkpt>
<trkpt lat="55.977032" lon="26.550150">
<ele>111.612366</ele>
<time>2010-08-29T09:11:07Z</time>
<desc>lat.=55.977032, lon.=26.550150, Alt.=111.612366m. Speed=4.212000m/h.</desc>
<speed>1.170000</speed>
</trkpt>
<trkpt lat="55.977039" lon="26.550165">
<ele>112.440491</ele>
<time>2010-08-29T09:11:08Z</time>
<desc>lat.=55.977039, lon.=26.550165, Alt.=112.440491m. Speed=3.492000m/h.</desc>
<speed>0.970000</speed>
</trkpt>
<trkpt lat="55.977055" lon="26.550169">
<ele>112.473694</ele>
<time>2010-08-29T09:11:09Z</time>
<desc>lat.=55.977055, lon.=26.550169, Alt.=112.473694m. Speed=2.556000m/h.</desc>
<speed>0.710000</speed>
</trkpt>
<trkpt lat="55.977077" lon="26.550175">
<ele>112.167053</ele>
<time>2010-08-29T09:11:10Z</time>
<desc>lat.=55.977077, lon.=26.550175, Alt.=112.167053m. Speed=2.232000m/h.</desc>
<speed>0.620000</speed>
</trkpt>
<trkpt lat="55.977081" lon="26.550177">
<ele>112.596741</ele>
<time>2010-08-29T09:11:11Z</time>
<desc>lat.=55.977081, lon.=26.550177, Alt.=112.596741m. Speed=1.440000m/h.</desc>
<speed>0.400000</speed>
</trkpt>
<trkpt lat="55.977085" lon="26.550192">
<ele>113.766663</ele>
<time>2010-08-29T09:11:12Z</time>
<desc>lat.=55.977085, lon.=26.550192, Alt.=113.766663m. Speed=0.972000m/h.</desc>
<speed>0.270000</speed>
</trkpt>
<trkpt lat="55.977100" lon="26.550184">
<ele>113.682678</ele>
<time>2010-08-29T09:11:13Z</time>
<desc>lat.=55.977100, lon.=26.550184, Alt.=113.682678m. Speed=0.972000m/h.</desc>
<speed>0.270000</speed>
</trkpt>
<trkpt lat="55.977108" lon="26.550188">
<ele>113.489319</ele>
<time>2010-08-29T09:11:14Z</time>
<desc>lat.=55.977108, lon.=26.550188, Alt.=113.489319m. Speed=0.828000m/h.</desc>
<speed>0.230000</speed>
</trkpt>
<trkpt lat="55.977119" lon="26.550184">
<ele>113.200256</ele>
<time>2010-08-29T09:11:15Z</time>
<desc>lat.=55.977119, lon.=26.550184, Alt.=113.200256m. Speed=0.864000m/h.</desc>
<speed>0.240000</speed>
</trkpt>
<trkpt lat="55.977123" lon="26.550182">
<ele>113.247131</ele>
<time>2010-08-29T09:11:16Z</time>
<desc>lat.=55.977123, lon.=26.550182, Alt.=113.247131m. Speed=0.972000m/h.</desc>
<speed>0.270000</speed>
</trkpt>
<trkpt lat="55.977123" lon="26.550182">
<ele>113.292053</ele>
<time>2010-08-29T09:11:17Z</time>
<desc>lat.=55.977123, lon.=26.550182, Alt.=113.292053m. Speed=0.972000m/h.</desc>
<speed>0.270000</speed>
</trkpt>
<trkpt lat="55.977127" lon="26.550182">
<ele>113.331116</ele>
<time>2010-08-29T09:11:18Z</time>
<desc>lat.=55.977127, lon.=26.550182, Alt.=113.331116m. Speed=1.116000m/h.</desc>
<speed>0.310000</speed>
</trkpt>
<trkpt lat="55.977131" lon="26.550188">
<ele>113.526428</ele>
<time>2010-08-29T09:11:19Z</time>
<desc>lat.=55.977131, lon.=26.550188, Alt.=113.526428m. Speed=0.828000m/h.</desc>
<speed>0.230000</speed>
</trkpt>
<trkpt lat="55.977146" lon="26.550180">
<ele>113.340881</ele>
<time>2010-08-29T09:11:20Z</time>
<desc>lat.=55.977146, lon.=26.550180, Alt.=113.340881m. Speed=0.900000m/h.</desc>
<speed>0.250000</speed>
</trkpt>
<trkpt lat="55.977150" lon="26.550184">
<ele>113.504944</ele>
<time>2010-08-29T09:11:21Z</time>
<desc>lat.=55.977150, lon.=26.550184, Alt.=113.504944m. Speed=0.720000m/h.</desc>
<speed>0.200000</speed>
</trkpt>
<trkpt lat="55.977154" lon="26.550190">
<ele>113.653381</ele>
<time>2010-08-29T09:11:22Z</time>
<desc>lat.=55.977154, lon.=26.550190, Alt.=113.653381m. Speed=0.720000m/h.</desc>
<speed>0.200000</speed>
</trkpt>
<trkpt lat="55.977158" lon="26.550190">
<ele>113.713928</ele>
<time>2010-08-29T09:11:23Z</time>
<desc>lat.=55.977158, lon.=26.550190, Alt.=113.713928m. Speed=1.152000m/h.</desc>
<speed>0.320000</speed>
</trkpt>
<trkpt lat="55.977165" lon="26.550188">
<ele>113.897522</ele>
<time>2010-08-29T09:11:24Z</time>
<desc>lat.=55.977165, lon.=26.550188, Alt.=113.897522m. Speed=1.512000m/h.</desc>
<speed>0.420000</speed>
</trkpt>
<trkpt lat="55.977173" lon="26.550188">
<ele>114.114319</ele>
<time>2010-08-29T09:11:25Z</time>
<desc>lat.=55.977173, lon.=26.550188, Alt.=114.114319m. Speed=1.800000m/h.</desc>
<speed>0.500000</speed>
</trkpt>
<trkpt lat="55.977184" lon="26.550175">
<ele>114.549866</ele>
<time>2010-08-29T09:11:26Z</time>
<desc>lat.=55.977184, lon.=26.550175, Alt.=114.549866m. Speed=2.700000m/h.</desc>
<speed>0.750000</speed>
</trkpt>
<trkpt lat="55.977203" lon="26.550173">
<ele>114.405334</ele>
<time>2010-08-29T09:11:27Z</time>
<desc>lat.=55.977203, lon.=26.550173, Alt.=114.405334m. Speed=3.456000m/h.</desc>
<speed>0.960000</speed>
</trkpt>
<trkpt lat="55.977219" lon="26.550165">
<ele>114.827209</ele>
<time>2010-08-29T09:11:28Z</time>
<desc>lat.=55.977219, lon.=26.550165, Alt.=114.827209m. Speed=4.212000m/h.</desc>
<speed>1.170000</speed>
</trkpt>
<trkpt lat="55.977226" lon="26.550161">
<ele>114.940491</ele>
<time>2010-08-29T09:11:29Z</time>
<desc>lat.=55.977226, lon.=26.550161, Alt.=114.940491m. Speed=11.160000m/h.</desc>
<speed>3.100000</speed>
</trkpt>
<trkpt lat="55.977272" lon="26.550148">
<ele>115.426819</ele>
<time>2010-08-29T09:11:30Z</time>
<desc>lat.=55.977272, lon.=26.550148, Alt.=115.426819m. Speed=14.580000m/h.</desc>
<speed>4.050000</speed>
</trkpt>
<trkpt lat="55.977306" lon="26.550135">
<ele>115.667053</ele>
<time>2010-08-29T09:11:31Z</time>
<desc>lat.=55.977306, lon.=26.550135, Alt.=115.667053m. Speed=13.356000m/h.</desc>
<speed>3.710000</speed>
</trkpt>
<trkpt lat="55.977345" lon="26.550125">
<ele>115.749084</ele>
<time>2010-08-29T09:11:32Z</time>
<desc>lat.=55.977345, lon.=26.550125, Alt.=115.749084m. Speed=12.204000m/h.</desc>
<speed>3.390000</speed>
</trkpt>
<trkpt lat="55.977383" lon="26.550116">
<ele>116.018616</ele>
<time>2010-08-29T09:11:33Z</time>
<desc>lat.=55.977383, lon.=26.550116, Alt.=116.018616m. Speed=13.932000m/h.</desc>
<speed>3.870000</speed>
</trkpt>
<trkpt lat="55.977425" lon="26.550112">
<ele>116.104553</ele>
<time>2010-08-29T09:11:34Z</time>
<desc>lat.=55.977425, lon.=26.550112, Alt.=116.104553m. Speed=13.788000m/h.</desc>
<speed>3.830000</speed>
</trkpt>
<trkpt lat="55.977463" lon="26.550108">
<ele>115.926819</ele>
<time>2010-08-29T09:11:35Z</time>
<desc>lat.=55.977463, lon.=26.550108, Alt.=115.926819m. Speed=13.392000m/h.</desc>
<speed>3.720000</speed>
</trkpt>
<trkpt lat="55.977501" lon="26.550102">
<ele>116.059631</ele>
<time>2010-08-29T09:11:36Z</time>
<desc>lat.=55.977501, lon.=26.550102, Alt.=116.059631m. Speed=16.091999m/h.</desc>
<speed>4.470000</speed>
</trkpt>
<trkpt lat="55.977543" lon="26.550100">
<ele>116.116272</ele>
<time>2010-08-29T09:11:37Z</time>
<desc>lat.=55.977543, lon.=26.550100, Alt.=116.116272m. Speed=17.280001m/h.</desc>
<speed>4.800000</speed>
</trkpt>
<trkpt lat="55.977585" lon="26.550097">
<ele>115.557678</ele>
<time>2010-08-29T09:11:38Z</time>
<desc>lat.=55.977585, lon.=26.550097, Alt.=115.557678m. Speed=16.452000m/h.</desc>
<speed>4.570000</speed>
</trkpt>
<trkpt lat="55.977619" lon="26.550097">
<ele>115.397522</ele>
<time>2010-08-29T09:11:39Z</time>
<desc>lat.=55.977619, lon.=26.550097, Alt.=115.397522m. Speed=15.732000m/h.</desc>
<speed>4.370000</speed>
</trkpt>
<trkpt lat="55.977646" lon="26.550098">
<ele>114.395569</ele>
<time>2010-08-29T09:11:40Z</time>
<desc>lat.=55.977646, lon.=26.550098, Alt.=114.395569m. Speed=15.264000m/h.</desc>
<speed>4.240000</speed>
</trkpt>
<trkpt lat="55.977680" lon="26.550098">
<ele>113.887756</ele>
<time>2010-08-29T09:11:41Z</time>
<desc>lat.=55.977680, lon.=26.550098, Alt.=113.887756m. Speed=13.680000m/h.</desc>
<speed>3.800000</speed>
</trkpt>
<trkpt lat="55.977711" lon="26.550102">
<ele>113.497131</ele>
<time>2010-08-29T09:11:42Z</time>
<desc>lat.=55.977711, lon.=26.550102, Alt.=113.497131m. Speed=12.384000m/h.</desc>
<speed>3.440000</speed>
</trkpt>
<trkpt lat="55.977741" lon="26.550108">
<ele>114.012756</ele>
<time>2010-08-29T09:11:43Z</time>
<desc>lat.=55.977741, lon.=26.550108, Alt.=114.012756m. Speed=9.144000m/h.</desc>
<speed>2.540000</speed>
</trkpt>
<trkpt lat="55.977764" lon="26.550106">
<ele>114.002991</ele>
<time>2010-08-29T09:11:44Z</time>
<desc>lat.=55.977764, lon.=26.550106, Alt.=114.002991m. Speed=8.424000m/h.</desc>
<speed>2.340000</speed>
</trkpt>
<trkpt lat="55.977791" lon="26.550110">
<ele>112.920959</ele>
<time>2010-08-29T09:11:45Z</time>
<desc>lat.=55.977791, lon.=26.550110, Alt.=112.920959m. Speed=9.540000m/h.</desc>
<speed>2.650000</speed>
</trkpt>
<trkpt lat="55.977821" lon="26.550112">
<ele>112.530334</ele>
<time>2010-08-29T09:11:46Z</time>
<desc>lat.=55.977821, lon.=26.550112, Alt.=112.530334m. Speed=8.280000m/h.</desc>
<speed>2.300000</speed>
</trkpt>
<trkpt lat="55.977844" lon="26.550116">
<ele>111.657288</ele>
<time>2010-08-29T09:11:47Z</time>
<desc>lat.=55.977844, lon.=26.550116, Alt.=111.657288m. Speed=8.388000m/h.</desc>
<speed>2.330000</speed>
</trkpt>
<trkpt lat="55.977879" lon="26.550123">
<ele>111.294006</ele>
<time>2010-08-29T09:11:48Z</time>
<desc>lat.=55.977879, lon.=26.550123, Alt.=111.294006m. Speed=9.252000m/h.</desc>
<speed>2.570000</speed>
</trkpt>
<trkpt lat="55.977901" lon="26.550125">
<ele>110.737366</ele>
<time>2010-08-29T09:11:49Z</time>
<desc>lat.=55.977901, lon.=26.550125, Alt.=110.737366m. Speed=6.084000m/h.</desc>
<speed>1.690000</speed>
</trkpt>
<trkpt lat="55.977917" lon="26.550116">
<ele>110.038147</ele>
<time>2010-08-29T09:11:50Z</time>
<desc>lat.=55.977917, lon.=26.550116, Alt.=110.038147m. Speed=4.824000m/h.</desc>
<speed>1.340000</speed>
</trkpt>
<trkpt lat="55.977932" lon="26.550116">
<ele>109.782288</ele>
<time>2010-08-29T09:11:51Z</time>
<desc>lat.=55.977932, lon.=26.550116, Alt.=109.782288m. Speed=5.004000m/h.</desc>
<speed>1.390000</speed>
</trkpt>
<trkpt lat="55.977947" lon="26.550116">
<ele>109.028381</ele>
<time>2010-08-29T09:11:52Z</time>
<desc>lat.=55.977947, lon.=26.550116, Alt.=109.028381m. Speed=4.788000m/h.</desc>
<speed>1.330000</speed>
</trkpt>
<trkpt lat="55.977974" lon="26.550102">
<ele>108.428772</ele>
<time>2010-08-29T09:11:53Z</time>
<desc>lat.=55.977974, lon.=26.550102, Alt.=108.428772m. Speed=7.524000m/h.</desc>
<speed>2.090000</speed>
</trkpt>
<trkpt lat="55.978001" lon="26.550091">
<ele>107.942444</ele>
<time>2010-08-29T09:11:54Z</time>
<desc>lat.=55.978001, lon.=26.550091, Alt.=107.942444m. Speed=7.596000m/h.</desc>
<speed>2.110000</speed>
</trkpt>
<trkpt lat="55.978031" lon="26.550093">
<ele>107.506897</ele>
<time>2010-08-29T09:11:55Z</time>
<desc>lat.=55.978031, lon.=26.550093, Alt.=107.506897m. Speed=8.388000m/h.</desc>
<speed>2.330000</speed>
</trkpt>
<trkpt lat="55.978065" lon="26.550097">
<ele>106.717834</ele>
<time>2010-08-29T09:11:56Z</time>
<desc>lat.=55.978065, lon.=26.550097, Alt.=106.717834m. Speed=9.396000m/h.</desc>
<speed>2.610000</speed>
</trkpt>
<trkpt lat="55.978096" lon="26.550114">
<ele>106.387756</ele>
<time>2010-08-29T09:11:57Z</time>
<desc>lat.=55.978096, lon.=26.550114, Alt.=106.387756m. Speed=8.532000m/h.</desc>
<speed>2.370000</speed>
</trkpt>
<trkpt lat="55.978142" lon="26.550125">
<ele>105.338928</ele>
<time>2010-08-29T09:11:58Z</time>
<desc>lat.=55.978142, lon.=26.550125, Alt.=105.338928m. Speed=10.404000m/h.</desc>
<speed>2.890000</speed>
</trkpt>
<trkpt lat="55.978172" lon="26.550114">
<ele>105.098694</ele>
<time>2010-08-29T09:11:59Z</time>
<desc>lat.=55.978172, lon.=26.550114, Alt.=105.098694m. Speed=9.468000m/h.</desc>
<speed>2.630000</speed>
</trkpt>
<trkpt lat="55.978207" lon="26.550114">
<ele>103.428772</ele>
<time>2010-08-29T09:12:00Z</time>
<desc>lat.=55.978207, lon.=26.550114, Alt.=103.428772m. Speed=8.820000m/h.</desc>
<speed>2.450000</speed>
</trkpt>
<trkpt lat="55.978245" lon="26.550116">
<ele>102.184631</ele>
<time>2010-08-29T09:12:01Z</time>
<desc>lat.=55.978245, lon.=26.550116, Alt.=102.184631m. Speed=10.440000m/h.</desc>
<speed>2.900000</speed>
</trkpt>
<trkpt lat="55.978275" lon="26.550106">
<ele>100.751038</ele>
<time>2010-08-29T09:12:02Z</time>
<desc>lat.=55.978275, lon.=26.550106, Alt.=100.751038m. Speed=7.668000m/h.</desc>
<speed>2.130000</speed>
</trkpt>
<trkpt lat="55.978298" lon="26.550098">
<ele>100.008850</ele>
<time>2010-08-29T09:12:03Z</time>
<desc>lat.=55.978298, lon.=26.550098, Alt.=100.008850m. Speed=7.020000m/h.</desc>
<speed>1.950000</speed>
</trkpt>
<trkpt lat="55.978348" lon="26.550074">
<ele>97.504944</ele>
<time>2010-08-29T09:12:04Z</time>
<desc>lat.=55.978348, lon.=26.550074, Alt.=97.504944m. Speed=9.000000m/h.</desc>
<speed>2.500000</speed>
</trkpt>
<trkpt lat="55.978374" lon="26.550060">
<ele>95.827209</ele>
<time>2010-08-29T09:12:05Z</time>
<desc>lat.=55.978374, lon.=26.550060, Alt.=95.827209m. Speed=10.584000m/h.</desc>
<speed>2.940000</speed>
</trkpt>
<trkpt lat="55.978405" lon="26.550043">
<ele>95.233459</ele>
<time>2010-08-29T09:12:06Z</time>
<desc>lat.=55.978405, lon.=26.550043, Alt.=95.233459m. Speed=11.592000m/h.</desc>
<speed>3.220000</speed>
</trkpt>
<trkpt lat="55.978436" lon="26.550011">
<ele>94.137756</ele>
<time>2010-08-29T09:12:07Z</time>
<desc>lat.=55.978436, lon.=26.550011, Alt.=94.137756m. Speed=11.340000m/h.</desc>
<speed>3.150000</speed>
</trkpt>
<trkpt lat="55.978470" lon="26.549978">
<ele>94.911194</ele>
<time>2010-08-29T09:12:08Z</time>
<desc>lat.=55.978470, lon.=26.549978, Alt.=94.911194m. Speed=13.104000m/h.</desc>
<speed>3.640000</speed>
</trkpt>
<trkpt lat="55.978527" lon="26.549955">
<ele>96.467834</ele>
<time>2010-08-29T09:12:09Z</time>
<desc>lat.=55.978527, lon.=26.549955, Alt.=96.467834m. Speed=18.288000m/h.</desc>
<speed>5.080000</speed>
</trkpt>
<trkpt lat="55.978592" lon="26.549942">
<ele>95.473694</ele>
<time>2010-08-29T09:12:10Z</time>
<desc>lat.=55.978592, lon.=26.549942, Alt.=95.473694m. Speed=20.844000m/h.</desc>
<speed>5.790000</speed>
</trkpt>
<trkpt lat="55.978653" lon="26.549946">
<ele>95.501038</ele>
<time>2010-08-29T09:12:11Z</time>
<desc>lat.=55.978653, lon.=26.549946, Alt.=95.501038m. Speed=19.440001m/h.</desc>
<speed>5.400000</speed>
</trkpt>
<trkpt lat="55.978699" lon="26.549974">
<ele>94.692444</ele>
<time>2010-08-29T09:12:12Z</time>
<desc>lat.=55.978699, lon.=26.549974, Alt.=94.692444m. Speed=18.468000m/h.</desc>
<speed>5.130000</speed>
</trkpt>
<trkpt lat="55.978741" lon="26.550014">
<ele>93.106506</ele>
<time>2010-08-29T09:12:13Z</time>
<desc>lat.=55.978741, lon.=26.550014, Alt.=93.106506m. Speed=17.964001m/h.</desc>
<speed>4.990000</speed>
</trkpt>
<trkpt lat="55.978779" lon="26.550062">
<ele>91.526428</ele>
<time>2010-08-29T09:12:14Z</time>
<desc>lat.=55.978779, lon.=26.550062, Alt.=91.526428m. Speed=18.000000m/h.</desc>
<speed>5.000000</speed>
</trkpt>
<trkpt lat="55.978821" lon="26.550100">
<ele>91.036194</ele>
<time>2010-08-29T09:12:15Z</time>
<desc>lat.=55.978821, lon.=26.550100, Alt.=91.036194m. Speed=17.892000m/h.</desc>
<speed>4.970000</speed>
</trkpt>
<trkpt lat="55.978859" lon="26.550137">
<ele>90.422913</ele>
<time>2010-08-29T09:12:16Z</time>
<desc>lat.=55.978859, lon.=26.550137, Alt.=90.422913m. Speed=15.984000m/h.</desc>
<speed>4.440000</speed>
</trkpt>
<trkpt lat="55.978901" lon="26.550167">
<ele>89.370178</ele>
<time>2010-08-29T09:12:17Z</time>
<desc>lat.=55.978901, lon.=26.550167, Alt.=89.370178m. Speed=15.408000m/h.</desc>
<speed>4.280000</speed>
</trkpt>
<trkpt lat="55.978951" lon="26.550196">
<ele>89.743225</ele>
<time>2010-08-29T09:12:18Z</time>
<desc>lat.=55.978951, lon.=26.550196, Alt.=89.743225m. Speed=15.228000m/h.</desc>
<speed>4.230000</speed>
</trkpt>
<trkpt lat="55.979008" lon="26.550217">
<ele>90.038147</ele>
<time>2010-08-29T09:12:19Z</time>
<desc>lat.=55.979008, lon.=26.550217, Alt.=90.038147m. Speed=15.048000m/h.</desc>
<speed>4.180000</speed>
</trkpt>
<trkpt lat="55.979053" lon="26.550249">
<ele>90.104553</ele>
<time>2010-08-29T09:12:20Z</time>
<desc>lat.=55.979053, lon.=26.550249, Alt.=90.104553m. Speed=15.552000m/h.</desc>
<speed>4.320000</speed>
</trkpt>
<trkpt lat="55.979103" lon="26.550287">
<ele>90.879944</ele>
<time>2010-08-29T09:12:21Z</time>
<desc>lat.=55.979103, lon.=26.550287, Alt.=90.879944m. Speed=14.616000m/h.</desc>
<speed>4.060000</speed>
</trkpt>
<trkpt lat="55.979141" lon="26.550331">
<ele>91.104553</ele>
<time>2010-08-29T09:12:22Z</time>
<desc>lat.=55.979141, lon.=26.550331, Alt.=91.104553m. Speed=14.688000m/h.</desc>
<speed>4.080000</speed>
</trkpt>
<trkpt lat="55.979198" lon="26.550371">
<ele>93.030334</ele>
<time>2010-08-29T09:12:23Z</time>
<desc>lat.=55.979198, lon.=26.550371, Alt.=93.030334m. Speed=15.912000m/h.</desc>
<speed>4.420000</speed>
</trkpt>
<trkpt lat="55.979233" lon="26.550413">
<ele>92.946350</ele>
<time>2010-08-29T09:12:24Z</time>
<desc>lat.=55.979233, lon.=26.550413, Alt.=92.946350m. Speed=14.940000m/h.</desc>
<speed>4.150000</speed>
</trkpt>
<trkpt lat="55.979267" lon="26.550455">
<ele>93.106506</ele>
<time>2010-08-29T09:12:25Z</time>
<desc>lat.=55.979267, lon.=26.550455, Alt.=93.106506m. Speed=15.300000m/h.</desc>
<speed>4.250000</speed>
</trkpt>
<trkpt lat="55.979305" lon="26.550495">
<ele>93.815491</ele>
<time>2010-08-29T09:12:26Z</time>
<desc>lat.=55.979305, lon.=26.550495, Alt.=93.815491m. Speed=15.120000m/h.</desc>
<speed>4.200000</speed>
</trkpt>
<trkpt lat="55.979332" lon="26.550543">
<ele>94.096741</ele>
<time>2010-08-29T09:12:27Z</time>
<desc>lat.=55.979332, lon.=26.550543, Alt.=94.096741m. Speed=14.616000m/h.</desc>
<speed>4.060000</speed>
</trkpt>
<trkpt lat="55.979362" lon="26.550589">
<ele>94.489319</ele>
<time>2010-08-29T09:12:28Z</time>
<desc>lat.=55.979362, lon.=26.550589, Alt.=94.489319m. Speed=14.832000m/h.</desc>
<speed>4.120000</speed>
</trkpt>
<trkpt lat="55.979385" lon="26.550640">
<ele>94.456116</ele>
<time>2010-08-29T09:12:29Z</time>
<desc>lat.=55.979385, lon.=26.550640, Alt.=94.456116m. Speed=14.328000m/h.</desc>
<speed>3.980000</speed>
</trkpt>
<trkpt lat="55.979408" lon="26.550695">
<ele>94.432678</ele>
<time>2010-08-29T09:12:30Z</time>
<desc>lat.=55.979408, lon.=26.550695, Alt.=94.432678m. Speed=14.112000m/h.</desc>
<speed>3.920000</speed>
</trkpt>
<trkpt lat="55.979435" lon="26.550735">
<ele>94.411194</ele>
<time>2010-08-29T09:12:31Z</time>
<desc>lat.=55.979435, lon.=26.550735, Alt.=94.411194m. Speed=13.500000m/h.</desc>
<speed>3.750000</speed>
</trkpt>
<trkpt lat="55.979454" lon="26.550787">
<ele>95.139709</ele>
<time>2010-08-29T09:12:32Z</time>
<desc>lat.=55.979454, lon.=26.550787, Alt.=95.139709m. Speed=14.580000m/h.</desc>
<speed>4.050000</speed>
</trkpt>
<trkpt lat="55.979477" lon="26.550844">
<ele>95.592834</ele>
<time>2010-08-29T09:12:33Z</time>
<desc>lat.=55.979477, lon.=26.550844, Alt.=95.592834m. Speed=16.128000m/h.</desc>
<speed>4.480000</speed>
</trkpt>
<trkpt lat="55.979500" lon="26.550900">
<ele>95.807678</ele>
<time>2010-08-29T09:12:34Z</time>
<desc>lat.=55.979500, lon.=26.550900, Alt.=95.807678m. Speed=15.336000m/h.</desc>
<speed>4.260000</speed>
</trkpt>
<trkpt lat="55.979519" lon="26.550957">
<ele>95.965881</ele>
<time>2010-08-29T09:12:35Z</time>
<desc>lat.=55.979519, lon.=26.550957, Alt.=95.965881m. Speed=15.480000m/h.</desc>
<speed>4.300000</speed>
</trkpt>
<trkpt lat="55.979538" lon="26.551022">
<ele>96.120178</ele>
<time>2010-08-29T09:12:36Z</time>
<desc>lat.=55.979538, lon.=26.551022, Alt.=96.120178m. Speed=15.444000m/h.</desc>
<speed>4.290000</speed>
</trkpt>
<trkpt lat="55.979549" lon="26.551085">
<ele>96.327209</ele>
<time>2010-08-29T09:12:37Z</time>
<desc>lat.=55.979549, lon.=26.551085, Alt.=96.327209m. Speed=15.228000m/h.</desc>
<speed>4.230000</speed>
</trkpt>
<trkpt lat="55.979561" lon="26.551146">
<ele>96.497131</ele>
<time>2010-08-29T09:12:38Z</time>
<desc>lat.=55.979561, lon.=26.551146, Alt.=96.497131m. Speed=13.536000m/h.</desc>
<speed>3.760000</speed>
</trkpt>
<trkpt lat="55.979568" lon="26.551210">
<ele>96.557678</ele>
<time>2010-08-29T09:12:39Z</time>
<desc>lat.=55.979568, lon.=26.551210, Alt.=96.557678m. Speed=13.068000m/h.</desc>
<speed>3.630000</speed>
</trkpt>
<trkpt lat="55.979576" lon="26.551273">
<ele>96.581116</ele>
<time>2010-08-29T09:12:40Z</time>
<desc>lat.=55.979576, lon.=26.551273, Alt.=96.581116m. Speed=12.060000m/h.</desc>
<speed>3.350000</speed>
</trkpt>
<trkpt lat="55.979576" lon="26.551325">
<ele>96.551819</ele>
<time>2010-08-29T09:12:41Z</time>
<desc>lat.=55.979576, lon.=26.551325, Alt.=96.551819m. Speed=10.044000m/h.</desc>
<speed>2.790000</speed>
</trkpt>
<trkpt lat="55.979576" lon="26.551365">
<ele>96.524475</ele>
<time>2010-08-29T09:12:42Z</time>
<desc>lat.=55.979576, lon.=26.551365, Alt.=96.524475m. Speed=8.820000m/h.</desc>
<speed>2.450000</speed>
</trkpt>
<trkpt lat="55.979584" lon="26.551426">
<ele>96.006897</ele>
<time>2010-08-29T09:12:43Z</time>
<desc>lat.=55.979584, lon.=26.551426, Alt.=96.006897m. Speed=8.568000m/h.</desc>
<speed>2.380000</speed>
</trkpt>
<trkpt lat="55.979591" lon="26.551468">
<ele>94.725647</ele>
<time>2010-08-29T09:12:44Z</time>
<desc>lat.=55.979591, lon.=26.551468, Alt.=94.725647m. Speed=8.640000m/h.</desc>
<speed>2.400000</speed>
</trkpt>
<trkpt lat="55.979599" lon="26.551504">
<ele>94.645569</ele>
<time>2010-08-29T09:12:45Z</time>
<desc>lat.=55.979599, lon.=26.551504, Alt.=94.645569m. Speed=6.912000m/h.</desc>
<speed>1.920000</speed>
</trkpt>
<trkpt lat="55.979599" lon="26.551533">
<ele>94.790100</ele>
<time>2010-08-29T09:12:46Z</time>
<desc>lat.=55.979599, lon.=26.551533, Alt.=94.790100m. Speed=6.228000m/h.</desc>
<speed>1.730000</speed>
</trkpt>
<trkpt lat="55.979599" lon="26.551565">
<ele>95.102600</ele>
<time>2010-08-29T09:12:47Z</time>
<desc>lat.=55.979599, lon.=26.551565, Alt.=95.102600m. Speed=6.516000m/h.</desc>
<speed>1.810000</speed>
</trkpt>
<trkpt lat="55.979603" lon="26.551600">
<ele>94.499084</ele>
<time>2010-08-29T09:12:48Z</time>
<desc>lat.=55.979603, lon.=26.551600, Alt.=94.499084m. Speed=8.172000m/h.</desc>
<speed>2.270000</speed>
</trkpt>
<trkpt lat="55.979610" lon="26.551638">
<ele>94.305725</ele>
<time>2010-08-29T09:12:49Z</time>
<desc>lat.=55.979610, lon.=26.551638, Alt.=94.305725m. Speed=7.308000m/h.</desc>
<speed>2.030000</speed>
</trkpt>
<trkpt lat="55.979618" lon="26.551680">
<ele>94.176819</ele>
<time>2010-08-29T09:12:50Z</time>
<desc>lat.=55.979618, lon.=26.551680, Alt.=94.176819m. Speed=7.812000m/h.</desc>
<speed>2.170000</speed>
</trkpt>
<trkpt lat="55.979622" lon="26.551710">
<ele>94.237366</ele>
<time>2010-08-29T09:12:51Z</time>
<desc>lat.=55.979622, lon.=26.551710, Alt.=94.237366m. Speed=5.940000m/h.</desc>
<speed>1.650000</speed>
</trkpt>
<trkpt lat="55.979622" lon="26.551739">
<ele>94.264709</ele>
<time>2010-08-29T09:12:52Z</time>
<desc>lat.=55.979622, lon.=26.551739, Alt.=94.264709m. Speed=7.596000m/h.</desc>
<speed>2.110000</speed>
</trkpt>
<trkpt lat="55.979626" lon="26.551773">
<ele>94.114319</ele>
<time>2010-08-29T09:12:53Z</time>
<desc>lat.=55.979626, lon.=26.551773, Alt.=94.114319m. Speed=7.164000m/h.</desc>
<speed>1.990000</speed>
</trkpt>
<trkpt lat="55.979630" lon="26.551805">
<ele>94.110413</ele>
<time>2010-08-29T09:12:54Z</time>
<desc>lat.=55.979630, lon.=26.551805, Alt.=94.110413m. Speed=7.596000m/h.</desc>
<speed>2.110000</speed>
</trkpt>
<trkpt lat="55.979633" lon="26.551836">
<ele>93.936584</ele>
<time>2010-08-29T09:12:55Z</time>
<desc>lat.=55.979633, lon.=26.551836, Alt.=93.936584m. Speed=7.020000m/h.</desc>
<speed>1.950000</speed>
</trkpt>
<trkpt lat="55.979633" lon="26.551868">
<ele>93.946350</ele>
<time>2010-08-29T09:12:56Z</time>
<desc>lat.=55.979633, lon.=26.551868, Alt.=93.946350m. Speed=7.452000m/h.</desc>
<speed>2.070000</speed>
</trkpt>
<trkpt lat="55.979633" lon="26.551901">
<ele>94.038147</ele>
<time>2010-08-29T09:12:57Z</time>
<desc>lat.=55.979633, lon.=26.551901, Alt.=94.038147m. Speed=7.380000m/h.</desc>
<speed>2.050000</speed>
</trkpt>
<trkpt lat="55.979641" lon="26.551933">
<ele>93.790100</ele>
<time>2010-08-29T09:12:58Z</time>
<desc>lat.=55.979641, lon.=26.551933, Alt.=93.790100m. Speed=5.868000m/h.</desc>
<speed>1.630000</speed>
</trkpt>
<trkpt lat="55.979645" lon="26.551964">
<ele>93.790100</ele>
<time>2010-08-29T09:12:59Z</time>
<desc>lat.=55.979645, lon.=26.551964, Alt.=93.790100m. Speed=7.560000m/h.</desc>
<speed>2.100000</speed>
</trkpt>
<trkpt lat="55.979645" lon="26.552000">
<ele>93.616272</ele>
<time>2010-08-29T09:13:00Z</time>
<desc>lat.=55.979645, lon.=26.552000, Alt.=93.616272m. Speed=7.920000m/h.</desc>
<speed>2.200000</speed>
</trkpt>
<trkpt lat="55.979652" lon="26.552032">
<ele>93.321350</ele>
<time>2010-08-29T09:13:01Z</time>
<desc>lat.=55.979652, lon.=26.552032, Alt.=93.321350m. Speed=7.308000m/h.</desc>
<speed>2.030000</speed>
</trkpt>
<trkpt lat="55.979652" lon="26.552069">
<ele>92.893616</ele>
<time>2010-08-29T09:13:02Z</time>
<desc>lat.=55.979652, lon.=26.552069, Alt.=92.893616m. Speed=7.272000m/h.</desc>
<speed>2.020000</speed>
</trkpt>
<trkpt lat="55.979656" lon="26.552107">
<ele>93.219788</ele>
<time>2010-08-29T09:13:03Z</time>
<desc>lat.=55.979656, lon.=26.552107, Alt.=93.219788m. Speed=7.344000m/h.</desc>
<speed>2.040000</speed>
</trkpt>
<trkpt lat="55.979671" lon="26.552155">
<ele>94.594788</ele>
<time>2010-08-29T09:13:04Z</time>
<desc>lat.=55.979671, lon.=26.552155, Alt.=94.594788m. Speed=8.784000m/h.</desc>
<speed>2.440000</speed>
</trkpt>
<trkpt lat="55.979679" lon="26.552187">
<ele>94.639709</ele>
<time>2010-08-29T09:13:05Z</time>
<desc>lat.=55.979679, lon.=26.552187, Alt.=94.639709m. Speed=6.876000m/h.</desc>
<speed>1.910000</speed>
</trkpt>
<trkpt lat="55.979683" lon="26.552221">
<ele>94.754944</ele>
<time>2010-08-29T09:13:06Z</time>
<desc>lat.=55.979683, lon.=26.552221, Alt.=94.754944m. Speed=5.976000m/h.</desc>
<speed>1.660000</speed>
</trkpt>
<trkpt lat="55.979691" lon="26.552246">
<ele>94.831116</ele>
<time>2010-08-29T09:13:07Z</time>
<desc>lat.=55.979691, lon.=26.552246, Alt.=94.831116m. Speed=5.796000m/h.</desc>
<speed>1.610000</speed>
</trkpt>
<trkpt lat="55.979694" lon="26.552277">
<ele>94.815491</ele>
<time>2010-08-29T09:13:08Z</time>
<desc>lat.=55.979694, lon.=26.552277, Alt.=94.815491m. Speed=7.128000m/h.</desc>
<speed>1.980000</speed>
</trkpt>
<trkpt lat="55.979698" lon="26.552315">
<ele>95.149475</ele>
<time>2010-08-29T09:13:09Z</time>
<desc>lat.=55.979698, lon.=26.552315, Alt.=95.149475m. Speed=7.776000m/h.</desc>
<speed>2.160000</speed>
</trkpt>
<trkpt lat="55.979706" lon="26.552341">
<ele>95.106506</ele>
<time>2010-08-29T09:13:10Z</time>
<desc>lat.=55.979706, lon.=26.552341, Alt.=95.106506m. Speed=7.416000m/h.</desc>
<speed>2.060000</speed>
</trkpt>
<trkpt lat="55.979713" lon="26.552366">
<ele>95.038147</ele>
<time>2010-08-29T09:13:11Z</time>
<desc>lat.=55.979713, lon.=26.552366, Alt.=95.038147m. Speed=6.768000m/h.</desc>
<speed>1.880000</speed>
</trkpt>
<trkpt lat="55.979717" lon="26.552397">
<ele>95.315491</ele>
<time>2010-08-29T09:13:12Z</time>
<desc>lat.=55.979717, lon.=26.552397, Alt.=95.315491m. Speed=6.336000m/h.</desc>
<speed>1.760000</speed>
</trkpt>
<trkpt lat="55.979725" lon="26.552416">
<ele>95.622131</ele>
<time>2010-08-29T09:13:13Z</time>
<desc>lat.=55.979725, lon.=26.552416, Alt.=95.622131m. Speed=6.408000m/h.</desc>
<speed>1.780000</speed>
</trkpt>
<trkpt lat="55.979729" lon="26.552446">
<ele>95.520569</ele>
<time>2010-08-29T09:13:14Z</time>
<desc>lat.=55.979729, lon.=26.552446, Alt.=95.520569m. Speed=7.164000m/h.</desc>
<speed>1.990000</speed>
</trkpt>
<trkpt lat="55.979729" lon="26.552475">
<ele>95.760803</ele>
<time>2010-08-29T09:13:15Z</time>
<desc>lat.=55.979729, lon.=26.552475, Alt.=95.760803m. Speed=5.904000m/h.</desc>
<speed>1.640000</speed>
</trkpt>
<trkpt lat="55.979733" lon="26.552500">
<ele>95.932678</ele>
<time>2010-08-29T09:13:16Z</time>
<desc>lat.=55.979733, lon.=26.552500, Alt.=95.932678m. Speed=5.976000m/h.</desc>
<speed>1.660000</speed>
</trkpt>
<trkpt lat="55.979736" lon="26.552525">
<ele>96.108459</ele>
<time>2010-08-29T09:13:17Z</time>
<desc>lat.=55.979736, lon.=26.552525, Alt.=96.108459m. Speed=5.580000m/h.</desc>
<speed>1.550000</speed>
</trkpt>
<trkpt lat="55.979736" lon="26.552557">
<ele>96.419006</ele>
<time>2010-08-29T09:13:18Z</time>
<desc>lat.=55.979736, lon.=26.552557, Alt.=96.419006m. Speed=6.300000m/h.</desc>
<speed>1.750000</speed>
</trkpt>
<trkpt lat="55.979740" lon="26.552588">
<ele>96.604553</ele>
<time>2010-08-29T09:13:19Z</time>
<desc>lat.=55.979740, lon.=26.552588, Alt.=96.604553m. Speed=8.136000m/h.</desc>
<speed>2.260000</speed>
</trkpt>
<trkpt lat="55.979744" lon="26.552628">
<ele>96.858459</ele>
<time>2010-08-29T09:13:20Z</time>
<desc>lat.=55.979744, lon.=26.552628, Alt.=96.858459m. Speed=8.352000m/h.</desc>
<speed>2.320000</speed>
</trkpt>
<trkpt lat="55.979748" lon="26.552660">
<ele>97.014709</ele>
<time>2010-08-29T09:13:21Z</time>
<desc>lat.=55.979748, lon.=26.552660, Alt.=97.014709m. Speed=7.236000m/h.</desc>
<speed>2.010000</speed>
</trkpt>
<trkpt lat="55.979752" lon="26.552687">
<ele>97.176819</ele>
<time>2010-08-29T09:13:22Z</time>
<desc>lat.=55.979752, lon.=26.552687, Alt.=97.176819m. Speed=6.624000m/h.</desc>
<speed>1.840000</speed>
</trkpt>
<trkpt lat="55.979755" lon="26.552715">
<ele>97.278381</ele>
<time>2010-08-29T09:13:23Z</time>
<desc>lat.=55.979755, lon.=26.552715, Alt.=97.278381m. Speed=5.976000m/h.</desc>
<speed>1.660000</speed>
</trkpt>
<trkpt lat="55.979763" lon="26.552740">
<ele>97.452209</ele>
<time>2010-08-29T09:13:24Z</time>
<desc>lat.=55.979763, lon.=26.552740, Alt.=97.452209m. Speed=5.472000m/h.</desc>
<speed>1.520000</speed>
</trkpt>
<trkpt lat="55.979778" lon="26.552767">
<ele>97.760803</ele>
<time>2010-08-29T09:13:25Z</time>
<desc>lat.=55.979778, lon.=26.552767, Alt.=97.760803m. Speed=7.884000m/h.</desc>
<speed>2.190000</speed>
</trkpt>
<trkpt lat="55.979786" lon="26.552795">
<ele>97.930725</ele>
<time>2010-08-29T09:13:26Z</time>
<desc>lat.=55.979786, lon.=26.552795, Alt.=97.930725m. Speed=6.588000m/h.</desc>
<speed>1.830000</speed>
</trkpt>
<trkpt lat="55.979782" lon="26.552822">
<ele>98.631897</ele>
<time>2010-08-29T09:13:27Z</time>
<desc>lat.=55.979782, lon.=26.552822, Alt.=98.631897m. Speed=6.012000m/h.</desc>
<speed>1.670000</speed>
</trkpt>
<trkpt lat="55.979790" lon="26.552851">
<ele>98.936584</ele>
<time>2010-08-29T09:13:28Z</time>
<desc>lat.=55.979790, lon.=26.552851, Alt.=98.936584m. Speed=5.544000m/h.</desc>
<speed>1.540000</speed>
</trkpt>
<trkpt lat="55.979786" lon="26.552883">
<ele>99.071350</ele>
<time>2010-08-29T09:13:29Z</time>
<desc>lat.=55.979786, lon.=26.552883, Alt.=99.071350m. Speed=4.824000m/h.</desc>
<speed>1.340000</speed>
</trkpt>
<trkpt lat="55.979790" lon="26.552908">
<ele>99.276428</ele>
<time>2010-08-29T09:13:30Z</time>
<desc>lat.=55.979790, lon.=26.552908, Alt.=99.276428m. Speed=6.804000m/h.</desc>
<speed>1.890000</speed>
</trkpt>
<trkpt lat="55.979797" lon="26.552942">
<ele>99.491272</ele>
<time>2010-08-29T09:13:31Z</time>
<desc>lat.=55.979797, lon.=26.552942, Alt.=99.491272m. Speed=6.696000m/h.</desc>
<speed>1.860000</speed>
</trkpt>
<trkpt lat="55.979801" lon="26.552982">
<ele>99.497131</ele>
<time>2010-08-29T09:13:32Z</time>
<desc>lat.=55.979801, lon.=26.552982, Alt.=99.497131m. Speed=8.568000m/h.</desc>
<speed>2.380000</speed>
</trkpt>
<trkpt lat="55.979809" lon="26.553019">
<ele>99.577209</ele>
<time>2010-08-29T09:13:33Z</time>
<desc>lat.=55.979809, lon.=26.553019, Alt.=99.577209m. Speed=7.344000m/h.</desc>
<speed>2.040000</speed>
</trkpt>
<trkpt lat="55.979813" lon="26.553045">
<ele>99.877991</ele>
<time>2010-08-29T09:13:34Z</time>
<desc>lat.=55.979813, lon.=26.553045, Alt.=99.877991m. Speed=6.408000m/h.</desc>
<speed>1.780000</speed>
</trkpt>
<trkpt lat="55.979824" lon="26.553082">
<ele>100.801819</ele>
<time>2010-08-29T09:13:35Z</time>
<desc>lat.=55.979824, lon.=26.553082, Alt.=100.801819m. Speed=7.956000m/h.</desc>
<speed>2.210000</speed>
</trkpt>
<trkpt lat="55.979832" lon="26.553110">
<ele>101.219788</ele>
<time>2010-08-29T09:13:36Z</time>
<desc>lat.=55.979832, lon.=26.553110, Alt.=101.219788m. Speed=6.732000m/h.</desc>
<speed>1.870000</speed>
</trkpt>
<trkpt lat="55.979832" lon="26.553129">
<ele>101.739319</ele>
<time>2010-08-29T09:13:37Z</time>
<desc>lat.=55.979832, lon.=26.553129, Alt.=101.739319m. Speed=4.464000m/h.</desc>
<speed>1.240000</speed>
</trkpt>
<trkpt lat="55.979828" lon="26.553148">
<ele>102.635803</ele>
<time>2010-08-29T09:13:38Z</time>
<desc>lat.=55.979828, lon.=26.553148, Alt.=102.635803m. Speed=3.888000m/h.</desc>
<speed>1.080000</speed>
</trkpt>
<trkpt lat="55.979832" lon="26.553160">
<ele>103.274475</ele>
<time>2010-08-29T09:13:39Z</time>
<desc>lat.=55.979832, lon.=26.553160, Alt.=103.274475m. Speed=4.428000m/h.</desc>
<speed>1.230000</speed>
</trkpt>
<trkpt lat="55.979832" lon="26.553192">
<ele>103.887756</ele>
<time>2010-08-29T09:13:40Z</time>
<desc>lat.=55.979832, lon.=26.553192, Alt.=103.887756m. Speed=5.220000m/h.</desc>
<speed>1.450000</speed>
</trkpt>
<trkpt lat="55.979839" lon="26.553215">
<ele>104.389709</ele>
<time>2010-08-29T09:13:41Z</time>
<desc>lat.=55.979839, lon.=26.553215, Alt.=104.389709m. Speed=6.012000m/h.</desc>
<speed>1.670000</speed>
</trkpt>
<trkpt lat="55.979843" lon="26.553240">
<ele>104.770569</ele>
<time>2010-08-29T09:13:42Z</time>
<desc>lat.=55.979843, lon.=26.553240, Alt.=104.770569m. Speed=5.148000m/h.</desc>
<speed>1.430000</speed>
</trkpt>
<trkpt lat="55.979851" lon="26.553267">
<ele>105.192444</ele>
<time>2010-08-29T09:13:43Z</time>
<desc>lat.=55.979851, lon.=26.553267, Alt.=105.192444m. Speed=6.192000m/h.</desc>
<speed>1.720000</speed>
</trkpt>
<trkpt lat="55.979866" lon="26.553280">
<ele>106.211975</ele>
<time>2010-08-29T09:13:44Z</time>
<desc>lat.=55.979866, lon.=26.553280, Alt.=106.211975m. Speed=6.696000m/h.</desc>
<speed>1.860000</speed>
</trkpt>
<trkpt lat="55.979877" lon="26.553314">
<ele>106.588928</ele>
<time>2010-08-29T09:13:45Z</time>
<desc>lat.=55.979877, lon.=26.553314, Alt.=106.588928m. Speed=6.732000m/h.</desc>
<speed>1.870000</speed>
</trkpt>
<trkpt lat="55.979893" lon="26.553352">
<ele>107.163147</ele>
<time>2010-08-29T09:13:46Z</time>
<desc>lat.=55.979893, lon.=26.553352, Alt.=107.163147m. Speed=6.948000m/h.</desc>
<speed>1.930000</speed>
</trkpt>
<trkpt lat="55.979893" lon="26.553379">
<ele>107.346741</ele>
<time>2010-08-29T09:13:47Z</time>
<desc>lat.=55.979893, lon.=26.553379, Alt.=107.346741m. Speed=5.148000m/h.</desc>
<speed>1.430000</speed>
</trkpt>
<trkpt lat="55.979893" lon="26.553396">
<ele>107.616272</ele>
<time>2010-08-29T09:13:48Z</time>
<desc>lat.=55.979893, lon.=26.553396, Alt.=107.616272m. Speed=3.348000m/h.</desc>
<speed>0.930000</speed>
</trkpt>
<trkpt lat="55.979893" lon="26.553410">
<ele>107.979553</ele>
<time>2010-08-29T09:13:49Z</time>
<desc>lat.=55.979893, lon.=26.553410, Alt.=107.979553m. Speed=2.484000m/h.</desc>
<speed>0.690000</speed>
</trkpt>
<trkpt lat="55.979893" lon="26.553417">
<ele>108.229553</ele>
<time>2010-08-29T09:13:50Z</time>
<desc>lat.=55.979893, lon.=26.553417, Alt.=108.229553m. Speed=1.584000m/h.</desc>
<speed>0.440000</speed>
</trkpt>
<trkpt lat="55.979889" lon="26.553423">
<ele>108.325256</ele>
<time>2010-08-29T09:13:51Z</time>
<desc>lat.=55.979889, lon.=26.553423, Alt.=108.325256m. Speed=1.116000m/h.</desc>
<speed>0.310000</speed>
</trkpt>
<trkpt lat="55.979889" lon="26.553429">
<ele>108.735413</ele>
<time>2010-08-29T09:13:52Z</time>
<desc>lat.=55.979889, lon.=26.553429, Alt.=108.735413m. Speed=1.008000m/h.</desc>
<speed>0.280000</speed>
</trkpt>
<trkpt lat="55.979889" lon="26.553432">
<ele>109.129944</ele>
<time>2010-08-29T09:13:53Z</time>
<desc>lat.=55.979889, lon.=26.553432, Alt.=109.129944m. Speed=0.792000m/h.</desc>
<speed>0.220000</speed>
</trkpt>
<trkpt lat="55.979889" lon="26.553436">
<ele>109.419006</ele>
<time>2010-08-29T09:13:54Z</time>
<desc>lat.=55.979889, lon.=26.553436, Alt.=109.419006m. Speed=0.540000m/h.</desc>
<speed>0.150000</speed>
</trkpt>
<trkpt lat="55.979889" lon="26.553440">
<ele>109.639709</ele>
<time>2010-08-29T09:13:55Z</time>
<desc>lat.=55.979889, lon.=26.553440, Alt.=109.639709m. Speed=0.360000m/h.</desc>
<speed>0.100000</speed>
</trkpt>
<trkpt lat="55.979889" lon="26.553440">
<ele>109.813538</ele>
<time>2010-08-29T09:13:56Z</time>
<desc>lat.=55.979889, lon.=26.553440, Alt.=109.813538m. Speed=0.036000m/h.</desc>
<speed>0.010000</speed>
</trkpt>
<trkpt lat="55.979889" lon="26.553442">
<ele>109.938538</ele>
<time>2010-08-29T09:13:57Z</time>
<desc>lat.=55.979889, lon.=26.553442, Alt.=109.938538m. Speed=0.000000m/h.</desc>
<speed>0.000000</speed>
</trkpt>
<trkpt lat="55.979889" lon="26.553442">
<ele>110.036194</ele>
<time>2010-08-29T09:13:58Z</time>
<desc>lat.=55.979889, lon.=26.553442, Alt.=110.036194m. Speed=0.108000m/h.</desc>
<speed>0.030000</speed>
</trkpt>
<trkpt lat="55.979889" lon="26.553442">
<ele>110.114319</ele>
<time>2010-08-29T09:13:59Z</time>
<desc>lat.=55.979889, lon.=26.553442, Alt.=110.114319m. Speed=0.324000m/h.</desc>
<speed>0.090000</speed>
</trkpt>
<trkpt lat="55.979889" lon="26.553444">
<ele>110.182678</ele>
<time>2010-08-29T09:14:00Z</time>
<desc>lat.=55.979889, lon.=26.553444, Alt.=110.182678m. Speed=0.000000m/h.</desc>
<speed>0.000000</speed>
</trkpt>
<trkpt lat="55.979889" lon="26.553444">
<ele>110.233459</ele>
<time>2010-08-29T09:14:01Z</time>
<desc>lat.=55.979889, lon.=26.553444, Alt.=110.233459m. Speed=0.036000m/h.</desc>
<speed>0.010000</speed>
</trkpt>
<trkpt lat="55.979889" lon="26.553444">
<ele>110.286194</ele>
<time>2010-08-29T09:14:02Z</time>
<desc>lat.=55.979889, lon.=26.553444, Alt.=110.286194m. Speed=0.180000m/h.</desc>
<speed>0.050000</speed>
</trkpt>
<trkpt lat="55.979889" lon="26.553446">
<ele>110.335022</ele>
<time>2010-08-29T09:14:03Z</time>
<desc>lat.=55.979889, lon.=26.553446, Alt.=110.335022m. Speed=0.144000m/h.</desc>
<speed>0.040000</speed>
</trkpt>
<trkpt lat="55.979889" lon="26.553446">
<ele>110.381897</ele>
<time>2010-08-29T09:14:04Z</time>
<desc>lat.=55.979889, lon.=26.553446, Alt.=110.381897m. Speed=0.108000m/h.</desc>
<speed>0.030000</speed>
</trkpt>
<trkpt lat="55.979889" lon="26.553446">
<ele>110.428772</ele>
<time>2010-08-29T09:14:05Z</time>
<desc>lat.=55.979889, lon.=26.553446, Alt.=110.428772m. Speed=0.072000m/h.</desc>
<speed>0.020000</speed>
</trkpt>
<trkpt lat="55.979889" lon="26.553448">
<ele>110.475647</ele>
<time>2010-08-29T09:14:06Z</time>
<desc>lat.=55.979889, lon.=26.553448, Alt.=110.475647m. Speed=0.000000m/h.</desc>
<speed>0.000000</speed>
</trkpt>
<trkpt lat="55.979889" lon="26.553448">
<ele>110.502991</ele>
<time>2010-08-29T09:14:07Z</time>
<desc>lat.=55.979889, lon.=26.553448, Alt.=110.502991m. Speed=0.036000m/h.</desc>
<speed>0.010000</speed>
</trkpt>
<trkpt lat="55.979889" lon="26.553448">
<ele>110.502991</ele>
<time>2010-08-29T09:14:08Z</time>
<desc>lat.=55.979889, lon.=26.553448, Alt.=110.502991m. Speed=0.000000m/h.</desc>
<speed>0.000000</speed>
</trkpt>
<trkpt lat="55.979889" lon="26.553448">
<ele>110.504944</ele>
<time>2010-08-29T09:14:09Z</time>
<desc>lat.=55.979889, lon.=26.553448, Alt.=110.504944m. Speed=0.072000m/h.</desc>
<speed>0.020000</speed>
</trkpt>
<trkpt lat="55.979889" lon="26.553448">
<ele>110.504944</ele>
<time>2010-08-29T09:14:10Z</time>
<desc>lat.=55.979889, lon.=26.553448, Alt.=110.504944m. Speed=0.036000m/h.</desc>
<speed>0.010000</speed>
</trkpt>
<trkpt lat="55.979889" lon="26.553448">
<ele>110.502991</ele>
<time>2010-08-29T09:14:11Z</time>
<desc>lat.=55.979889, lon.=26.553448, Alt.=110.502991m. Speed=0.000000m/h.</desc>
<speed>0.000000</speed>
</trkpt>
<trkpt lat="55.979889" lon="26.553448">
<ele>110.501038</ele>
<time>2010-08-29T09:14:12Z</time>
<desc>lat.=55.979889, lon.=26.553448, Alt.=110.501038m. Speed=0.000000m/h.</desc>
<speed>0.000000</speed>
</trkpt>
<trkpt lat="55.979889" lon="26.553448">
<ele>110.495178</ele>
<time>2010-08-29T09:14:13Z</time>
<desc>lat.=55.979889, lon.=26.553448, Alt.=110.495178m. Speed=0.000000m/h.</desc>
<speed>0.000000</speed>
</trkpt>
<trkpt lat="55.979889" lon="26.553448">
<ele>110.491272</ele>
<time>2010-08-29T09:14:14Z</time>
<desc>lat.=55.979889, lon.=26.553448, Alt.=110.491272m. Speed=0.000000m/h.</desc>
<speed>0.000000</speed>
</trkpt>
<trkpt lat="55.979889" lon="26.553448">
<ele>110.491272</ele>
<time>2010-08-29T09:14:15Z</time>
<desc>lat.=55.979889, lon.=26.553448, Alt.=110.491272m. Speed=0.000000m/h.</desc>
<speed>0.000000</speed>
</trkpt>
<trkpt lat="55.979889" lon="26.553448">
<ele>110.489319</ele>
<time>2010-08-29T09:14:16Z</time>
<desc>lat.=55.979889, lon.=26.553448, Alt.=110.489319m. Speed=0.000000m/h.</desc>
<speed>0.000000</speed>
</trkpt>
<trkpt lat="55.979889" lon="26.553448">
<ele>110.487366</ele>
<time>2010-08-29T09:14:17Z</time>
<desc>lat.=55.979889, lon.=26.553448, Alt.=110.487366m. Speed=0.000000m/h.</desc>
<speed>0.000000</speed>
</trkpt>
<trkpt lat="55.979889" lon="26.553448">
<ele>110.487366</ele>
<time>2010-08-29T09:14:18Z</time>
<desc>lat.=55.979889, lon.=26.553448, Alt.=110.487366m. Speed=0.000000m/h.</desc>
<speed>0.000000</speed>
</trkpt>
<trkpt lat="55.979889" lon="26.553448">
<ele>110.485413</ele>
<time>2010-08-29T09:14:19Z</time>
<desc>lat.=55.979889, lon.=26.553448, Alt.=110.485413m. Speed=0.000000m/h.</desc>
<speed>0.000000</speed>
</trkpt>
<trkpt lat="55.979889" lon="26.553448">
<ele>110.485413</ele>
<time>2010-08-29T09:14:20Z</time>
<desc>lat.=55.979889, lon.=26.553448, Alt.=110.485413m. Speed=0.000000m/h.</desc>
<speed>0.000000</speed>
</trkpt>
<trkpt lat="55.979889" lon="26.553448">
<ele>110.487366</ele>
<time>2010-08-29T09:14:21Z</time>
<desc>lat.=55.979889, lon.=26.553448, Alt.=110.487366m. Speed=0.036000m/h.</desc>
<speed>0.010000</speed>
</trkpt>
<trkpt lat="55.979889" lon="26.553448">
<ele>110.491272</ele>
<time>2010-08-29T09:14:22Z</time>
<desc>lat.=55.979889, lon.=26.553448, Alt.=110.491272m. Speed=0.036000m/h.</desc>
<speed>0.010000</speed>
</trkpt>
<trkpt lat="55.979889" lon="26.553448">
<ele>110.489319</ele>
<time>2010-08-29T09:14:23Z</time>
<desc>lat.=55.979889, lon.=26.553448, Alt.=110.489319m. Speed=0.000000m/h.</desc>
<speed>0.000000</speed>
</trkpt>
<trkpt lat="55.979889" lon="26.553448">
<ele>110.491272</ele>
<time>2010-08-29T09:14:24Z</time>
<desc>lat.=55.979889, lon.=26.553448, Alt.=110.491272m. Speed=0.000000m/h.</desc>
<speed>0.000000</speed>
</trkpt>
<trkpt lat="55.979889" lon="26.553448">
<ele>110.489319</ele>
<time>2010-08-29T09:14:25Z</time>
<desc>lat.=55.979889, lon.=26.553448, Alt.=110.489319m. Speed=0.108000m/h.</desc>
<speed>0.030000</speed>
</trkpt>
<trkpt lat="55.979889" lon="26.553448">
<ele>110.489319</ele>
<time>2010-08-29T09:14:26Z</time>
<desc>lat.=55.979889, lon.=26.553448, Alt.=110.489319m. Speed=0.108000m/h.</desc>
<speed>0.030000</speed>
</trkpt>
<trkpt lat="55.979889" lon="26.553448">
<ele>110.493225</ele>
<time>2010-08-29T09:14:27Z</time>
<desc>lat.=55.979889, lon.=26.553448, Alt.=110.493225m. Speed=0.000000m/h.</desc>
<speed>0.000000</speed>
</trkpt>
<trkpt lat="55.979889" lon="26.553448">
<ele>110.493225</ele>
<time>2010-08-29T09:14:28Z</time>
<desc>lat.=55.979889, lon.=26.553448, Alt.=110.493225m. Speed=0.000000m/h.</desc>
<speed>0.000000</speed>
</trkpt>
<trkpt lat="55.979889" lon="26.553448">
<ele>110.489319</ele>
<time>2010-08-29T09:14:29Z</time>
<desc>lat.=55.979889, lon.=26.553448, Alt.=110.489319m. Speed=0.000000m/h.</desc>
<speed>0.000000</speed>
</trkpt>
<trkpt lat="55.979889" lon="26.553448">
<ele>110.493225</ele>
<time>2010-08-29T09:14:30Z</time>
<desc>lat.=55.979889, lon.=26.553448, Alt.=110.493225m. Speed=0.000000m/h.</desc>
<speed>0.000000</speed>
</trkpt>
<trkpt lat="55.979889" lon="26.553448">
<ele>110.495178</ele>
<time>2010-08-29T09:14:31Z</time>
<desc>lat.=55.979889, lon.=26.553448, Alt.=110.495178m. Speed=0.180000m/h.</desc>
<speed>0.050000</speed>
</trkpt>
<trkpt lat="55.979889" lon="26.553448">
<ele>110.497131</ele>
<time>2010-08-29T09:14:32Z</time>
<desc>lat.=55.979889, lon.=26.553448, Alt.=110.497131m. Speed=0.144000m/h.</desc>
<speed>0.040000</speed>
</trkpt>
<trkpt lat="55.979889" lon="26.553450">
<ele>110.501038</ele>
<time>2010-08-29T09:14:33Z</time>
<desc>lat.=55.979889, lon.=26.553450, Alt.=110.501038m. Speed=0.504000m/h.</desc>
<speed>0.140000</speed>
</trkpt>
<trkpt lat="55.979885" lon="26.553452">
<ele>110.528381</ele>
<time>2010-08-29T09:14:34Z</time>
<desc>lat.=55.979885, lon.=26.553452, Alt.=110.528381m. Speed=2.196000m/h.</desc>
<speed>0.610000</speed>
</trkpt>
<trkpt lat="55.979885" lon="26.553461">
<ele>110.559631</ele>
<time>2010-08-29T09:14:35Z</time>
<desc>lat.=55.979885, lon.=26.553461, Alt.=110.559631m. Speed=3.672000m/h.</desc>
<speed>1.020000</speed>
</trkpt>
<trkpt lat="55.979870" lon="26.553501">
<ele>110.860413</ele>
<time>2010-08-29T09:14:36Z</time>
<desc>lat.=55.979870, lon.=26.553501, Alt.=110.860413m. Speed=5.652000m/h.</desc>
<speed>1.570000</speed>
</trkpt>
<trkpt lat="55.979855" lon="26.553543">
<ele>111.151428</ele>
<time>2010-08-29T09:14:37Z</time>
<desc>lat.=55.979855, lon.=26.553543, Alt.=111.151428m. Speed=8.388000m/h.</desc>
<speed>2.330000</speed>
</trkpt>
<trkpt lat="55.979843" lon="26.553585">
<ele>111.301819</ele>
<time>2010-08-29T09:14:38Z</time>
<desc>lat.=55.979843, lon.=26.553585, Alt.=111.301819m. Speed=9.468000m/h.</desc>
<speed>2.630000</speed>
</trkpt>
<trkpt lat="55.979832" lon="26.553627">
<ele>111.153381</ele>
<time>2010-08-29T09:14:39Z</time>
<desc>lat.=55.979832, lon.=26.553627, Alt.=111.153381m. Speed=9.576000m/h.</desc>
<speed>2.660000</speed>
</trkpt>
<trkpt lat="55.979816" lon="26.553684">
<ele>111.053772</ele>
<time>2010-08-29T09:14:40Z</time>
<desc>lat.=55.979816, lon.=26.553684, Alt.=111.053772m. Speed=11.340000m/h.</desc>
<speed>3.150000</speed>
</trkpt>
<trkpt lat="55.979805" lon="26.553734">
<ele>110.858459</ele>
<time>2010-08-29T09:14:41Z</time>
<desc>lat.=55.979805, lon.=26.553734, Alt.=110.858459m. Speed=10.548000m/h.</desc>
<speed>2.930000</speed>
</trkpt>
<trkpt lat="55.979790" lon="26.553791">
<ele>110.821350</ele>
<time>2010-08-29T09:14:42Z</time>
<desc>lat.=55.979790, lon.=26.553791, Alt.=110.821350m. Speed=10.152000m/h.</desc>
<speed>2.820000</speed>
</trkpt>
<trkpt lat="55.979782" lon="26.553843">
<ele>110.629944</ele>
<time>2010-08-29T09:14:43Z</time>
<desc>lat.=55.979782, lon.=26.553843, Alt.=110.629944m. Speed=11.160000m/h.</desc>
<speed>3.100000</speed>
</trkpt>
<trkpt lat="55.979774" lon="26.553890">
<ele>110.446350</ele>
<time>2010-08-29T09:14:44Z</time>
<desc>lat.=55.979774, lon.=26.553890, Alt.=110.446350m. Speed=9.684000m/h.</desc>
<speed>2.690000</speed>
</trkpt>
<trkpt lat="55.979763" lon="26.553940">
<ele>109.862366</ele>
<time>2010-08-29T09:14:45Z</time>
<desc>lat.=55.979763, lon.=26.553940, Alt.=109.862366m. Speed=9.504000m/h.</desc>
<speed>2.640000</speed>
</trkpt>
<trkpt lat="55.979755" lon="26.553982">
<ele>109.565491</ele>
<time>2010-08-29T09:14:46Z</time>
<desc>lat.=55.979755, lon.=26.553982, Alt.=109.565491m. Speed=8.892000m/h.</desc>
<speed>2.470000</speed>
</trkpt>
<trkpt lat="55.979752" lon="26.554020">
<ele>109.319397</ele>
<time>2010-08-29T09:14:47Z</time>
<desc>lat.=55.979752, lon.=26.554020, Alt.=109.319397m. Speed=7.740000m/h.</desc>
<speed>2.150000</speed>
</trkpt>
<trkpt lat="55.979744" lon="26.554064">
<ele>109.126038</ele>
<time>2010-08-29T09:14:48Z</time>
<desc>lat.=55.979744, lon.=26.554064, Alt.=109.126038m. Speed=9.684000m/h.</desc>
<speed>2.690000</speed>
</trkpt>
<trkpt lat="55.979736" lon="26.554117">
<ele>108.840881</ele>
<time>2010-08-29T09:14:49Z</time>
<desc>lat.=55.979736, lon.=26.554117, Alt.=108.840881m. Speed=10.332000m/h.</desc>
<speed>2.870000</speed>
</trkpt>
<trkpt lat="55.979713" lon="26.554190">
<ele>108.352600</ele>
<time>2010-08-29T09:14:50Z</time>
<desc>lat.=55.979713, lon.=26.554190, Alt.=108.352600m. Speed=10.584000m/h.</desc>
<speed>2.940000</speed>
</trkpt>
<trkpt lat="55.979710" lon="26.554241">
<ele>108.213928</ele>
<time>2010-08-29T09:14:51Z</time>
<desc>lat.=55.979710, lon.=26.554241, Alt.=108.213928m. Speed=9.288000m/h.</desc>
<speed>2.580000</speed>
</trkpt>
<trkpt lat="55.979706" lon="26.554281">
<ele>107.946350</ele>
<time>2010-08-29T09:14:52Z</time>
<desc>lat.=55.979706, lon.=26.554281, Alt.=107.946350m. Speed=7.884000m/h.</desc>
<speed>2.190000</speed>
</trkpt>
<trkpt lat="55.979702" lon="26.554321">
<ele>107.795959</ele>
<time>2010-08-29T09:14:53Z</time>
<desc>lat.=55.979702, lon.=26.554321, Alt.=107.795959m. Speed=7.704000m/h.</desc>
<speed>2.140000</speed>
</trkpt>
<trkpt lat="55.979698" lon="26.554363">
<ele>107.778381</ele>
<time>2010-08-29T09:14:54Z</time>
<desc>lat.=55.979698, lon.=26.554363, Alt.=107.778381m. Speed=6.984000m/h.</desc>
<speed>1.940000</speed>
</trkpt>
<trkpt lat="55.979698" lon="26.554419">
<ele>107.891663</ele>
<time>2010-08-29T09:14:55Z</time>
<desc>lat.=55.979698, lon.=26.554419, Alt.=107.891663m. Speed=7.200000m/h.</desc>
<speed>2.000000</speed>
</trkpt>
<trkpt lat="55.979698" lon="26.554447">
<ele>107.741272</ele>
<time>2010-08-29T09:14:56Z</time>
<desc>lat.=55.979698, lon.=26.554447, Alt.=107.741272m. Speed=5.616000m/h.</desc>
<speed>1.560000</speed>
</trkpt>
<trkpt lat="55.979698" lon="26.554476">
<ele>107.532288</ele>
<time>2010-08-29T09:14:57Z</time>
<desc>lat.=55.979698, lon.=26.554476, Alt.=107.532288m. Speed=6.516000m/h.</desc>
<speed>1.810000</speed>
</trkpt>
<trkpt lat="55.979694" lon="26.554501">
<ele>107.782288</ele>
<time>2010-08-29T09:14:58Z</time>
<desc>lat.=55.979694, lon.=26.554501, Alt.=107.782288m. Speed=5.904000m/h.</desc>
<speed>1.640000</speed>
</trkpt>
<trkpt lat="55.979694" lon="26.554537">
<ele>107.602600</ele>
<time>2010-08-29T09:14:59Z</time>
<desc>lat.=55.979694, lon.=26.554537, Alt.=107.602600m. Speed=6.624000m/h.</desc>
<speed>1.840000</speed>
</trkpt>
<trkpt lat="55.979683" lon="26.554604">
<ele>107.961975</ele>
<time>2010-08-29T09:15:00Z</time>
<desc>lat.=55.979683, lon.=26.554604, Alt.=107.961975m. Speed=8.604000m/h.</desc>
<speed>2.390000</speed>
</trkpt>
<trkpt lat="55.979679" lon="26.554638">
<ele>107.743225</ele>
<time>2010-08-29T09:15:01Z</time>
<desc>lat.=55.979679, lon.=26.554638, Alt.=107.743225m. Speed=7.128000m/h.</desc>
<speed>1.980000</speed>
</trkpt>
<trkpt lat="55.979675" lon="26.554670">
<ele>107.620178</ele>
<time>2010-08-29T09:15:02Z</time>
<desc>lat.=55.979675, lon.=26.554670, Alt.=107.620178m. Speed=7.344000m/h.</desc>
<speed>2.040000</speed>
</trkpt>
<trkpt lat="55.979671" lon="26.554707">
<ele>107.627991</ele>
<time>2010-08-29T09:15:03Z</time>
<desc>lat.=55.979671, lon.=26.554707, Alt.=107.627991m. Speed=7.020000m/h.</desc>
<speed>1.950000</speed>
</trkpt>
<trkpt lat="55.979679" lon="26.554739">
<ele>107.604553</ele>
<time>2010-08-29T09:15:04Z</time>
<desc>lat.=55.979679, lon.=26.554739, Alt.=107.604553m. Speed=6.480000m/h.</desc>
<speed>1.800000</speed>
</trkpt>
<trkpt lat="55.979675" lon="26.554779">
<ele>107.678772</ele>
<time>2010-08-29T09:15:05Z</time>
<desc>lat.=55.979675, lon.=26.554779, Alt.=107.678772m. Speed=6.624000m/h.</desc>
<speed>1.840000</speed>
</trkpt>
<trkpt lat="55.979671" lon="26.554810">
<ele>107.725647</ele>
<time>2010-08-29T09:15:06Z</time>
<desc>lat.=55.979671, lon.=26.554810, Alt.=107.725647m. Speed=5.652000m/h.</desc>
<speed>1.570000</speed>
</trkpt>
<trkpt lat="55.979664" lon="26.554842">
<ele>107.790100</ele>
<time>2010-08-29T09:15:07Z</time>
<desc>lat.=55.979664, lon.=26.554842, Alt.=107.790100m. Speed=5.256000m/h.</desc>
<speed>1.460000</speed>
</trkpt>
<trkpt lat="55.979660" lon="26.554865">
<ele>107.612366</ele>
<time>2010-08-29T09:15:08Z</time>
<desc>lat.=55.979660, lon.=26.554865, Alt.=107.612366m. Speed=4.788000m/h.</desc>
<speed>1.330000</speed>
</trkpt>
<trkpt lat="55.979656" lon="26.554893">
<ele>107.629944</ele>
<time>2010-08-29T09:15:09Z</time>
<desc>lat.=55.979656, lon.=26.554893, Alt.=107.629944m. Speed=7.092000m/h.</desc>
<speed>1.970000</speed>
</trkpt>
<trkpt lat="55.979656" lon="26.554926">
<ele>107.667053</ele>
<time>2010-08-29T09:15:10Z</time>
<desc>lat.=55.979656, lon.=26.554926, Alt.=107.667053m. Speed=5.904000m/h.</desc>
<speed>1.640000</speed>
</trkpt>
<trkpt lat="55.979652" lon="26.554956">
<ele>107.631897</ele>
<time>2010-08-29T09:15:11Z</time>
<desc>lat.=55.979652, lon.=26.554956, Alt.=107.631897m. Speed=6.768000m/h.</desc>
<speed>1.880000</speed>
</trkpt>
<trkpt lat="55.979656" lon="26.554977">
<ele>107.563538</ele>
<time>2010-08-29T09:15:12Z</time>
<desc>lat.=55.979656, lon.=26.554977, Alt.=107.563538m. Speed=4.356000m/h.</desc>
<speed>1.210000</speed>
</trkpt>
<trkpt lat="55.979652" lon="26.555002">
<ele>107.549866</ele>
<time>2010-08-29T09:15:13Z</time>
<desc>lat.=55.979652, lon.=26.555002, Alt.=107.549866m. Speed=5.724000m/h.</desc>
<speed>1.590000</speed>
</trkpt>
<trkpt lat="55.979649" lon="26.555019">
<ele>107.385803</ele>
<time>2010-08-29T09:15:14Z</time>
<desc>lat.=55.979649, lon.=26.555019, Alt.=107.385803m. Speed=5.832000m/h.</desc>
<speed>1.620000</speed>
</trkpt>
<trkpt lat="55.979649" lon="26.555044">
<ele>107.174866</ele>
<time>2010-08-29T09:15:15Z</time>
<desc>lat.=55.979649, lon.=26.555044, Alt.=107.174866m. Speed=3.924000m/h.</desc>
<speed>1.090000</speed>
</trkpt>
<trkpt lat="55.979641" lon="26.555090">
<ele>107.001038</ele>
<time>2010-08-29T09:15:16Z</time>
<desc>lat.=55.979641, lon.=26.555090, Alt.=107.001038m. Speed=5.940000m/h.</desc>
<speed>1.650000</speed>
</trkpt>
<trkpt lat="55.979633" lon="26.555117">
<ele>106.913147</ele>
<time>2010-08-29T09:15:17Z</time>
<desc>lat.=55.979633, lon.=26.555117, Alt.=106.913147m. Speed=4.572000m/h.</desc>
<speed>1.270000</speed>
</trkpt>
<trkpt lat="55.979626" lon="26.555138">
<ele>106.881897</ele>
<time>2010-08-29T09:15:18Z</time>
<desc>lat.=55.979626, lon.=26.555138, Alt.=106.881897m. Speed=5.220000m/h.</desc>
<speed>1.450000</speed>
</trkpt>
<trkpt lat="55.979614" lon="26.555166">
<ele>106.661194</ele>
<time>2010-08-29T09:15:19Z</time>
<desc>lat.=55.979614, lon.=26.555166, Alt.=106.661194m. Speed=5.760000m/h.</desc>
<speed>1.600000</speed>
</trkpt>
<trkpt lat="55.979610" lon="26.555199">
<ele>106.592834</ele>
<time>2010-08-29T09:15:20Z</time>
<desc>lat.=55.979610, lon.=26.555199, Alt.=106.592834m. Speed=6.048000m/h.</desc>
<speed>1.680000</speed>
</trkpt>
<trkpt lat="55.979603" lon="26.555223">
<ele>106.346741</ele>
<time>2010-08-29T09:15:21Z</time>
<desc>lat.=55.979603, lon.=26.555223, Alt.=106.346741m. Speed=4.968000m/h.</desc>
<speed>1.380000</speed>
</trkpt>
<trkpt lat="55.979599" lon="26.555258">
<ele>106.036194</ele>
<time>2010-08-29T09:15:22Z</time>
<desc>lat.=55.979599, lon.=26.555258, Alt.=106.036194m. Speed=5.436000m/h.</desc>
<speed>1.510000</speed>
</trkpt>
<trkpt lat="55.979584" lon="26.555302">
<ele>105.442444</ele>
<time>2010-08-29T09:15:23Z</time>
<desc>lat.=55.979584, lon.=26.555302, Alt.=105.442444m. Speed=5.724000m/h.</desc>
<speed>1.590000</speed>
</trkpt>
<trkpt lat="55.979576" lon="26.555351">
<ele>104.542053</ele>
<time>2010-08-29T09:15:24Z</time>
<desc>lat.=55.979576, lon.=26.555351, Alt.=104.542053m. Speed=5.544000m/h.</desc>
<speed>1.540000</speed>
</trkpt>
<trkpt lat="55.979568" lon="26.555376">
<ele>104.108459</ele>
<time>2010-08-29T09:15:25Z</time>
<desc>lat.=55.979568, lon.=26.555376, Alt.=104.108459m. Speed=5.112000m/h.</desc>
<speed>1.420000</speed>
</trkpt>
<trkpt lat="55.979565" lon="26.555403">
<ele>103.797913</ele>
<time>2010-08-29T09:15:26Z</time>
<desc>lat.=55.979565, lon.=26.555403, Alt.=103.797913m. Speed=5.040000m/h.</desc>
<speed>1.400000</speed>
</trkpt>
<trkpt lat="55.979557" lon="26.555420">
<ele>103.571350</ele>
<time>2010-08-29T09:15:27Z</time>
<desc>lat.=55.979557, lon.=26.555420, Alt.=103.571350m. Speed=4.248000m/h.</desc>
<speed>1.180000</speed>
</trkpt>
<trkpt lat="55.979549" lon="26.555443">
<ele>103.368225</ele>
<time>2010-08-29T09:15:28Z</time>
<desc>lat.=55.979549, lon.=26.555443, Alt.=103.368225m. Speed=6.660000m/h.</desc>
<speed>1.850000</speed>
</trkpt>
<trkpt lat="55.979542" lon="26.555475">
<ele>103.278381</ele>
<time>2010-08-29T09:15:29Z</time>
<desc>lat.=55.979542, lon.=26.555475, Alt.=103.278381m. Speed=6.084000m/h.</desc>
<speed>1.690000</speed>
</trkpt>
<trkpt lat="55.979527" lon="26.555496">
<ele>103.645569</ele>
<time>2010-08-29T09:15:30Z</time>
<desc>lat.=55.979527, lon.=26.555496, Alt.=103.645569m. Speed=7.020000m/h.</desc>
<speed>1.950000</speed>
</trkpt>
<trkpt lat="55.979519" lon="26.555527">
<ele>103.489319</ele>
<time>2010-08-29T09:15:31Z</time>
<desc>lat.=55.979519, lon.=26.555527, Alt.=103.489319m. Speed=6.012000m/h.</desc>
<speed>1.670000</speed>
</trkpt>
<trkpt lat="55.979507" lon="26.555553">
<ele>103.702209</ele>
<time>2010-08-29T09:15:32Z</time>
<desc>lat.=55.979507, lon.=26.555553, Alt.=103.702209m. Speed=7.956000m/h.</desc>
<speed>2.210000</speed>
</trkpt>
<trkpt lat="55.979492" lon="26.555588">
<ele>103.754944</ele>
<time>2010-08-29T09:15:33Z</time>
<desc>lat.=55.979492, lon.=26.555588, Alt.=103.754944m. Speed=8.928000m/h.</desc>
<speed>2.480000</speed>
</trkpt>
<trkpt lat="55.979477" lon="26.555628">
<ele>103.243225</ele>
<time>2010-08-29T09:15:34Z</time>
<desc>lat.=55.979477, lon.=26.555628, Alt.=103.243225m. Speed=8.820000m/h.</desc>
<speed>2.450000</speed>
</trkpt>
<trkpt lat="55.979458" lon="26.555666">
<ele>102.836975</ele>
<time>2010-08-29T09:15:35Z</time>
<desc>lat.=55.979458, lon.=26.555666, Alt.=102.836975m. Speed=8.748000m/h.</desc>
<speed>2.430000</speed>
</trkpt>
<trkpt lat="55.979439" lon="26.555708">
<ele>102.381897</ele>
<time>2010-08-29T09:15:36Z</time>
<desc>lat.=55.979439, lon.=26.555708, Alt.=102.381897m. Speed=8.208000m/h.</desc>
<speed>2.280000</speed>
</trkpt>
<trkpt lat="55.979427" lon="26.555744">
<ele>102.276428</ele>
<time>2010-08-29T09:15:37Z</time>
<desc>lat.=55.979427, lon.=26.555744, Alt.=102.276428m. Speed=8.928000m/h.</desc>
<speed>2.480000</speed>
</trkpt>
<trkpt lat="55.979420" lon="26.555771">
<ele>102.444397</ele>
<time>2010-08-29T09:15:38Z</time>
<desc>lat.=55.979420, lon.=26.555771, Alt.=102.444397m. Speed=7.020000m/h.</desc>
<speed>1.950000</speed>
</trkpt>
<trkpt lat="55.979412" lon="26.555801">
<ele>102.329163</ele>
<time>2010-08-29T09:15:39Z</time>
<desc>lat.=55.979412, lon.=26.555801, Alt.=102.329163m. Speed=6.336000m/h.</desc>
<speed>1.760000</speed>
</trkpt>
<trkpt lat="55.979404" lon="26.555845">
<ele>102.585022</ele>
<time>2010-08-29T09:15:40Z</time>
<desc>lat.=55.979404, lon.=26.555845, Alt.=102.585022m. Speed=7.344000m/h.</desc>
<speed>2.040000</speed>
</trkpt>
<trkpt lat="55.979397" lon="26.555887">
<ele>102.629944</ele>
<time>2010-08-29T09:15:41Z</time>
<desc>lat.=55.979397, lon.=26.555887, Alt.=102.629944m. Speed=8.316000m/h.</desc>
<speed>2.310000</speed>
</trkpt>
<trkpt lat="55.979393" lon="26.555922">
<ele>102.301819</ele>
<time>2010-08-29T09:15:42Z</time>
<desc>lat.=55.979393, lon.=26.555922, Alt.=102.301819m. Speed=5.940000m/h.</desc>
<speed>1.650000</speed>
</trkpt>
<trkpt lat="55.979393" lon="26.555954">
<ele>101.643616</ele>
<time>2010-08-29T09:15:43Z</time>
<desc>lat.=55.979393, lon.=26.555954, Alt.=101.643616m. Speed=6.192000m/h.</desc>
<speed>1.720000</speed>
</trkpt>
<trkpt lat="55.979389" lon="26.555988">
<ele>101.311584</ele>
<time>2010-08-29T09:15:44Z</time>
<desc>lat.=55.979389, lon.=26.555988, Alt.=101.311584m. Speed=6.336000m/h.</desc>
<speed>1.760000</speed>
</trkpt>
<trkpt lat="55.979385" lon="26.556017">
<ele>100.911194</ele>
<time>2010-08-29T09:15:45Z</time>
<desc>lat.=55.979385, lon.=26.556017, Alt.=100.911194m. Speed=5.616000m/h.</desc>
<speed>1.560000</speed>
</trkpt>
<trkpt lat="55.979378" lon="26.556040">
<ele>100.274475</ele>
<time>2010-08-29T09:15:46Z</time>
<desc>lat.=55.979378, lon.=26.556040, Alt.=100.274475m. Speed=4.896000m/h.</desc>
<speed>1.360000</speed>
</trkpt>
<trkpt lat="55.979378" lon="26.556059">
<ele>99.866272</ele>
<time>2010-08-29T09:15:47Z</time>
<desc>lat.=55.979378, lon.=26.556059, Alt.=99.866272m. Speed=3.600000m/h.</desc>
<speed>1.000000</speed>
</trkpt>
<trkpt lat="55.979374" lon="26.556068">
<ele>99.776428</ele>
<time>2010-08-29T09:15:48Z</time>
<desc>lat.=55.979374, lon.=26.556068, Alt.=99.776428m. Speed=1.980000m/h.</desc>
<speed>0.550000</speed>
</trkpt>
<trkpt lat="55.979374" lon="26.556089">
<ele>99.428772</ele>
<time>2010-08-29T09:15:49Z</time>
<desc>lat.=55.979374, lon.=26.556089, Alt.=99.428772m. Speed=1.980000m/h.</desc>
<speed>0.550000</speed>
</trkpt>
<trkpt lat="55.979370" lon="26.556105">
<ele>99.669006</ele>
<time>2010-08-29T09:15:50Z</time>
<desc>lat.=55.979370, lon.=26.556105, Alt.=99.669006m. Speed=1.188000m/h.</desc>
<speed>0.330000</speed>
</trkpt>
<trkpt lat="55.979362" lon="26.556122">
<ele>99.600647</ele>
<time>2010-08-29T09:15:51Z</time>
<desc>lat.=55.979362, lon.=26.556122, Alt.=99.600647m. Speed=1.152000m/h.</desc>
<speed>0.320000</speed>
</trkpt>
<trkpt lat="55.979362" lon="26.556129">
<ele>99.670959</ele>
<time>2010-08-29T09:15:52Z</time>
<desc>lat.=55.979362, lon.=26.556129, Alt.=99.670959m. Speed=0.756000m/h.</desc>
<speed>0.210000</speed>
</trkpt>
<trkpt lat="55.979362" lon="26.556141">
<ele>100.461975</ele>
<time>2010-08-29T09:15:53Z</time>
<desc>lat.=55.979362, lon.=26.556141, Alt.=100.461975m. Speed=0.504000m/h.</desc>
<speed>0.140000</speed>
</trkpt>
<trkpt lat="55.979362" lon="26.556156">
<ele>101.044006</ele>
<time>2010-08-29T09:15:54Z</time>
<desc>lat.=55.979362, lon.=26.556156, Alt.=101.044006m. Speed=0.324000m/h.</desc>
<speed>0.090000</speed>
</trkpt>
<trkpt lat="55.979366" lon="26.556160">
<ele>101.356506</ele>
<time>2010-08-29T09:15:55Z</time>
<desc>lat.=55.979366, lon.=26.556160, Alt.=101.356506m. Speed=0.288000m/h.</desc>
<speed>0.080000</speed>
</trkpt>
<trkpt lat="55.979366" lon="26.556160">
<ele>101.235413</ele>
<time>2010-08-29T09:15:56Z</time>
<desc>lat.=55.979366, lon.=26.556160, Alt.=101.235413m. Speed=1.512000m/h.</desc>
<speed>0.420000</speed>
</trkpt>
<trkpt lat="55.979366" lon="26.556170">
<ele>101.241272</ele>
<time>2010-08-29T09:15:57Z</time>
<desc>lat.=55.979366, lon.=26.556170, Alt.=101.241272m. Speed=3.276000m/h.</desc>
<speed>0.910000</speed>
</trkpt>
<trkpt lat="55.979366" lon="26.556189">
<ele>101.184631</ele>
<time>2010-08-29T09:15:58Z</time>
<desc>lat.=55.979366, lon.=26.556189, Alt.=101.184631m. Speed=5.148000m/h.</desc>
<speed>1.430000</speed>
</trkpt>
<trkpt lat="55.979362" lon="26.556213">
<ele>100.692444</ele>
<time>2010-08-29T09:15:59Z</time>
<desc>lat.=55.979362, lon.=26.556213, Alt.=100.692444m. Speed=4.320000m/h.</desc>
<speed>1.200000</speed>
</trkpt>
<trkpt lat="55.979362" lon="26.556229">
<ele>100.532288</ele>
<time>2010-08-29T09:16:00Z</time>
<desc>lat.=55.979362, lon.=26.556229, Alt.=100.532288m. Speed=3.456000m/h.</desc>
<speed>0.960000</speed>
</trkpt>
<trkpt lat="55.979355" lon="26.556255">
<ele>100.346741</ele>
<time>2010-08-29T09:16:01Z</time>
<desc>lat.=55.979355, lon.=26.556255, Alt.=100.346741m. Speed=5.400000m/h.</desc>
<speed>1.500000</speed>
</trkpt>
<trkpt lat="55.979347" lon="26.556282">
<ele>100.362366</ele>
<time>2010-08-29T09:16:02Z</time>
<desc>lat.=55.979347, lon.=26.556282, Alt.=100.362366m. Speed=6.048000m/h.</desc>
<speed>1.680000</speed>
</trkpt>
<trkpt lat="55.979343" lon="26.556311">
<ele>100.254944</ele>
<time>2010-08-29T09:16:03Z</time>
<desc>lat.=55.979343, lon.=26.556311, Alt.=100.254944m. Speed=7.560000m/h.</desc>
<speed>2.100000</speed>
</trkpt>
<trkpt lat="55.979332" lon="26.556362">
<ele>100.169006</ele>
<time>2010-08-29T09:16:04Z</time>
<desc>lat.=55.979332, lon.=26.556362, Alt.=100.169006m. Speed=7.920000m/h.</desc>
<speed>2.200000</speed>
</trkpt>
<trkpt lat="55.979317" lon="26.556400">
<ele>100.147522</ele>
<time>2010-08-29T09:16:05Z</time>
<desc>lat.=55.979317, lon.=26.556400, Alt.=100.147522m. Speed=7.812000m/h.</desc>
<speed>2.170000</speed>
</trkpt>
<trkpt lat="55.979305" lon="26.556423">
<ele>99.965881</ele>
<time>2010-08-29T09:16:06Z</time>
<desc>lat.=55.979305, lon.=26.556423, Alt.=99.965881m. Speed=6.804000m/h.</desc>
<speed>1.890000</speed>
</trkpt>
<trkpt lat="55.979298" lon="26.556448">
<ele>99.973694</ele>
<time>2010-08-29T09:16:07Z</time>
<desc>lat.=55.979298, lon.=26.556448, Alt.=99.973694m. Speed=5.580000m/h.</desc>
<speed>1.550000</speed>
</trkpt>
<trkpt lat="55.979294" lon="26.556467">
<ele>99.928772</ele>
<time>2010-08-29T09:16:08Z</time>
<desc>lat.=55.979294, lon.=26.556467, Alt.=99.928772m. Speed=4.248000m/h.</desc>
<speed>1.180000</speed>
</trkpt>
<trkpt lat="55.979290" lon="26.556484">
<ele>99.973694</ele>
<time>2010-08-29T09:16:09Z</time>
<desc>lat.=55.979290, lon.=26.556484, Alt.=99.973694m. Speed=4.536000m/h.</desc>
<speed>1.260000</speed>
</trkpt>
<trkpt lat="55.979282" lon="26.556496">
<ele>100.161194</ele>
<time>2010-08-29T09:16:10Z</time>
<desc>lat.=55.979282, lon.=26.556496, Alt.=100.161194m. Speed=3.060000m/h.</desc>
<speed>0.850000</speed>
</trkpt>
<trkpt lat="55.979267" lon="26.556503">
<ele>100.661194</ele>
<time>2010-08-29T09:16:11Z</time>
<desc>lat.=55.979267, lon.=26.556503, Alt.=100.661194m. Speed=3.168000m/h.</desc>
<speed>0.880000</speed>
</trkpt>
<trkpt lat="55.979259" lon="26.556519">
<ele>100.583069</ele>
<time>2010-08-29T09:16:12Z</time>
<desc>lat.=55.979259, lon.=26.556519, Alt.=100.583069m. Speed=5.004000m/h.</desc>
<speed>1.390000</speed>
</trkpt>
<trkpt lat="55.979259" lon="26.556534">
<ele>100.764709</ele>
<time>2010-08-29T09:16:13Z</time>
<desc>lat.=55.979259, lon.=26.556534, Alt.=100.764709m. Speed=5.724000m/h.</desc>
<speed>1.590000</speed>
</trkpt>
<trkpt lat="55.979256" lon="26.556555">
<ele>100.948303</ele>
<time>2010-08-29T09:16:14Z</time>
<desc>lat.=55.979256, lon.=26.556555, Alt.=100.948303m. Speed=6.732000m/h.</desc>
<speed>1.870000</speed>
</trkpt>
<trkpt lat="55.979252" lon="26.556585">
<ele>101.139709</ele>
<time>2010-08-29T09:16:15Z</time>
<desc>lat.=55.979252, lon.=26.556585, Alt.=101.139709m. Speed=6.552000m/h.</desc>
<speed>1.820000</speed>
</trkpt>
<trkpt lat="55.979248" lon="26.556623">
<ele>101.497131</ele>
<time>2010-08-29T09:16:16Z</time>
<desc>lat.=55.979248, lon.=26.556623, Alt.=101.497131m. Speed=6.480000m/h.</desc>
<speed>1.800000</speed>
</trkpt>
<trkpt lat="55.979233" lon="26.556643">
<ele>102.182678</ele>
<time>2010-08-29T09:16:17Z</time>
<desc>lat.=55.979233, lon.=26.556643, Alt.=102.182678m. Speed=7.272000m/h.</desc>
<speed>2.020000</speed>
</trkpt>
<trkpt lat="55.979221" lon="26.556664">
<ele>102.233459</ele>
<time>2010-08-29T09:16:18Z</time>
<desc>lat.=55.979221, lon.=26.556664, Alt.=102.233459m. Speed=5.400000m/h.</desc>
<speed>1.500000</speed>
</trkpt>
<trkpt lat="55.979214" lon="26.556688">
<ele>102.071350</ele>
<time>2010-08-29T09:16:19Z</time>
<desc>lat.=55.979214, lon.=26.556688, Alt.=102.071350m. Speed=2.124000m/h.</desc>
<speed>0.590000</speed>
</trkpt>
<trkpt lat="55.979210" lon="26.556704">
<ele>101.577209</ele>
<time>2010-08-29T09:16:20Z</time>
<desc>lat.=55.979210, lon.=26.556704, Alt.=101.577209m. Speed=2.952000m/h.</desc>
<speed>0.820000</speed>
</trkpt>
<trkpt lat="55.979198" lon="26.556719">
<ele>101.794006</ele>
<time>2010-08-29T09:16:21Z</time>
<desc>lat.=55.979198, lon.=26.556719, Alt.=101.794006m. Speed=3.600000m/h.</desc>
<speed>1.000000</speed>
</trkpt>
<trkpt lat="55.979191" lon="26.556746">
<ele>101.680725</ele>
<time>2010-08-29T09:16:22Z</time>
<desc>lat.=55.979191, lon.=26.556746, Alt.=101.680725m. Speed=4.752000m/h.</desc>
<speed>1.320000</speed>
</trkpt>
<trkpt lat="55.979183" lon="26.556767">
<ele>101.618225</ele>
<time>2010-08-29T09:16:23Z</time>
<desc>lat.=55.979183, lon.=26.556767, Alt.=101.618225m. Speed=5.616000m/h.</desc>
<speed>1.560000</speed>
</trkpt>
<trkpt lat="55.979172" lon="26.556786">
<ele>101.788147</ele>
<time>2010-08-29T09:16:24Z</time>
<desc>lat.=55.979172, lon.=26.556786, Alt.=101.788147m. Speed=5.688000m/h.</desc>
<speed>1.580000</speed>
</trkpt>
<trkpt lat="55.979164" lon="26.556807">
<ele>101.881897</ele>
<time>2010-08-29T09:16:25Z</time>
<desc>lat.=55.979164, lon.=26.556807, Alt.=101.881897m. Speed=4.572000m/h.</desc>
<speed>1.270000</speed>
</trkpt>
<trkpt lat="55.979156" lon="26.556829">
<ele>101.917053</ele>
<time>2010-08-29T09:16:26Z</time>
<desc>lat.=55.979156, lon.=26.556829, Alt.=101.917053m. Speed=4.392000m/h.</desc>
<speed>1.220000</speed>
</trkpt>
<trkpt lat="55.979153" lon="26.556850">
<ele>102.026428</ele>
<time>2010-08-29T09:16:27Z</time>
<desc>lat.=55.979153, lon.=26.556850, Alt.=102.026428m. Speed=5.004000m/h.</desc>
<speed>1.390000</speed>
</trkpt>
<trkpt lat="55.979149" lon="26.556868">
<ele>102.126038</ele>
<time>2010-08-29T09:16:28Z</time>
<desc>lat.=55.979149, lon.=26.556868, Alt.=102.126038m. Speed=4.752000m/h.</desc>
<speed>1.320000</speed>
</trkpt>
<trkpt lat="55.979145" lon="26.556896">
<ele>102.262756</ele>
<time>2010-08-29T09:16:29Z</time>
<desc>lat.=55.979145, lon.=26.556896, Alt.=102.262756m. Speed=3.996000m/h.</desc>
<speed>1.110000</speed>
</trkpt>
<trkpt lat="55.979137" lon="26.556913">
<ele>102.292053</ele>
<time>2010-08-29T09:16:30Z</time>
<desc>lat.=55.979137, lon.=26.556913, Alt.=102.292053m. Speed=4.716000m/h.</desc>
<speed>1.310000</speed>
</trkpt>
<trkpt lat="55.979134" lon="26.556931">
<ele>102.544006</ele>
<time>2010-08-29T09:16:31Z</time>
<desc>lat.=55.979134, lon.=26.556931, Alt.=102.544006m. Speed=4.896000m/h.</desc>
<speed>1.360000</speed>
</trkpt>
<trkpt lat="55.979126" lon="26.556950">
<ele>102.698303</ele>
<time>2010-08-29T09:16:32Z</time>
<desc>lat.=55.979126, lon.=26.556950, Alt.=102.698303m. Speed=4.896000m/h.</desc>
<speed>1.360000</speed>
</trkpt>
<trkpt lat="55.979118" lon="26.556965">
<ele>102.770569</ele>
<time>2010-08-29T09:16:33Z</time>
<desc>lat.=55.979118, lon.=26.556965, Alt.=102.770569m. Speed=5.004000m/h.</desc>
<speed>1.390000</speed>
</trkpt>
<trkpt lat="55.979111" lon="26.556986">
<ele>102.952209</ele>
<time>2010-08-29T09:16:34Z</time>
<desc>lat.=55.979111, lon.=26.556986, Alt.=102.952209m. Speed=5.868000m/h.</desc>
<speed>1.630000</speed>
</trkpt>
<trkpt lat="55.979103" lon="26.557005">
<ele>103.129944</ele>
<time>2010-08-29T09:16:35Z</time>
<desc>lat.=55.979103, lon.=26.557005, Alt.=103.129944m. Speed=5.976000m/h.</desc>
<speed>1.660000</speed>
</trkpt>
<trkpt lat="55.979092" lon="26.557018">
<ele>103.376038</ele>
<time>2010-08-29T09:16:36Z</time>
<desc>lat.=55.979092, lon.=26.557018, Alt.=103.376038m. Speed=5.076000m/h.</desc>
<speed>1.410000</speed>
</trkpt>
<trkpt lat="55.979092" lon="26.557035">
<ele>103.260803</ele>
<time>2010-08-29T09:16:37Z</time>
<desc>lat.=55.979092, lon.=26.557035, Alt.=103.260803m. Speed=5.436000m/h.</desc>
<speed>1.510000</speed>
</trkpt>
<trkpt lat="55.979088" lon="26.557055">
<ele>103.325256</ele>
<time>2010-08-29T09:16:38Z</time>
<desc>lat.=55.979088, lon.=26.557055, Alt.=103.325256m. Speed=5.112000m/h.</desc>
<speed>1.420000</speed>
</trkpt>
<trkpt lat="55.979080" lon="26.557074">
<ele>103.346741</ele>
<time>2010-08-29T09:16:39Z</time>
<desc>lat.=55.979080, lon.=26.557074, Alt.=103.346741m. Speed=5.724000m/h.</desc>
<speed>1.590000</speed>
</trkpt>
<trkpt lat="55.979069" lon="26.557095">
<ele>103.653381</ele>
<time>2010-08-29T09:16:40Z</time>
<desc>lat.=55.979069, lon.=26.557095, Alt.=103.653381m. Speed=5.400000m/h.</desc>
<speed>1.500000</speed>
</trkpt>
<trkpt lat="55.979065" lon="26.557117">
<ele>103.725647</ele>
<time>2010-08-29T09:16:41Z</time>
<desc>lat.=55.979065, lon.=26.557117, Alt.=103.725647m. Speed=4.896000m/h.</desc>
<speed>1.360000</speed>
</trkpt>
<trkpt lat="55.979061" lon="26.557138">
<ele>103.786194</ele>
<time>2010-08-29T09:16:42Z</time>
<desc>lat.=55.979061, lon.=26.557138, Alt.=103.786194m. Speed=3.960000m/h.</desc>
<speed>1.100000</speed>
</trkpt>
<trkpt lat="55.979057" lon="26.557159">
<ele>103.782288</ele>
<time>2010-08-29T09:16:43Z</time>
<desc>lat.=55.979057, lon.=26.557159, Alt.=103.782288m. Speed=5.328000m/h.</desc>
<speed>1.480000</speed>
</trkpt>
<trkpt lat="55.979050" lon="26.557178">
<ele>103.454163</ele>
<time>2010-08-29T09:16:44Z</time>
<desc>lat.=55.979050, lon.=26.557178, Alt.=103.454163m. Speed=6.408000m/h.</desc>
<speed>1.780000</speed>
</trkpt>
<trkpt lat="55.979046" lon="26.557201">
<ele>103.571350</ele>
<time>2010-08-29T09:16:45Z</time>
<desc>lat.=55.979046, lon.=26.557201, Alt.=103.571350m. Speed=5.040000m/h.</desc>
<speed>1.400000</speed>
</trkpt>
<trkpt lat="55.979038" lon="26.557226">
<ele>103.616272</ele>
<time>2010-08-29T09:16:46Z</time>
<desc>lat.=55.979038, lon.=26.557226, Alt.=103.616272m. Speed=4.752000m/h.</desc>
<speed>1.320000</speed>
</trkpt>
<trkpt lat="55.979038" lon="26.557247">
<ele>103.702209</ele>
<time>2010-08-29T09:16:47Z</time>
<desc>lat.=55.979038, lon.=26.557247, Alt.=103.702209m. Speed=5.904000m/h.</desc>
<speed>1.640000</speed>
</trkpt>
<trkpt lat="55.979031" lon="26.557272">
<ele>103.926819</ele>
<time>2010-08-29T09:16:48Z</time>
<desc>lat.=55.979031, lon.=26.557272, Alt.=103.926819m. Speed=5.868000m/h.</desc>
<speed>1.630000</speed>
</trkpt>
<trkpt lat="55.979023" lon="26.557306">
<ele>103.899475</ele>
<time>2010-08-29T09:16:49Z</time>
<desc>lat.=55.979023, lon.=26.557306, Alt.=103.899475m. Speed=5.940000m/h.</desc>
<speed>1.650000</speed>
</trkpt>
<trkpt lat="55.979023" lon="26.557346">
<ele>104.325256</ele>
<time>2010-08-29T09:16:50Z</time>
<desc>lat.=55.979023, lon.=26.557346, Alt.=104.325256m. Speed=5.040000m/h.</desc>
<speed>1.400000</speed>
</trkpt>
<trkpt lat="55.979012" lon="26.557375">
<ele>104.444397</ele>
<time>2010-08-29T09:16:51Z</time>
<desc>lat.=55.979012, lon.=26.557375, Alt.=104.444397m. Speed=6.732000m/h.</desc>
<speed>1.870000</speed>
</trkpt>
<trkpt lat="55.978996" lon="26.557398">
<ele>104.766663</ele>
<time>2010-08-29T09:16:52Z</time>
<desc>lat.=55.978996, lon.=26.557398, Alt.=104.766663m. Speed=7.596000m/h.</desc>
<speed>2.110000</speed>
</trkpt>
<trkpt lat="55.978977" lon="26.557428">
<ele>105.807678</ele>
<time>2010-08-29T09:16:53Z</time>
<desc>lat.=55.978977, lon.=26.557428, Alt.=105.807678m. Speed=7.884000m/h.</desc>
<speed>2.190000</speed>
</trkpt>
<trkpt lat="55.978966" lon="26.557457">
<ele>106.042053</ele>
<time>2010-08-29T09:16:54Z</time>
<desc>lat.=55.978966, lon.=26.557457, Alt.=106.042053m. Speed=7.632000m/h.</desc>
<speed>2.120000</speed>
</trkpt>
<trkpt lat="55.978954" lon="26.557482">
<ele>106.104553</ele>
<time>2010-08-29T09:16:55Z</time>
<desc>lat.=55.978954, lon.=26.557482, Alt.=106.104553m. Speed=5.760000m/h.</desc>
<speed>1.600000</speed>
</trkpt>
<trkpt lat="55.978939" lon="26.557508">
<ele>105.809631</ele>
<time>2010-08-29T09:16:56Z</time>
<desc>lat.=55.978939, lon.=26.557508, Alt.=105.809631m. Speed=6.084000m/h.</desc>
<speed>1.690000</speed>
</trkpt>
<trkpt lat="55.978924" lon="26.557529">
<ele>105.960022</ele>
<time>2010-08-29T09:16:57Z</time>
<desc>lat.=55.978924, lon.=26.557529, Alt.=105.960022m. Speed=6.480000m/h.</desc>
<speed>1.800000</speed>
</trkpt>
<trkpt lat="55.978912" lon="26.557558">
<ele>105.680725</ele>
<time>2010-08-29T09:16:58Z</time>
<desc>lat.=55.978912, lon.=26.557558, Alt.=105.680725m. Speed=7.380000m/h.</desc>
<speed>2.050000</speed>
</trkpt>
<trkpt lat="55.978897" lon="26.557590">
<ele>105.157288</ele>
<time>2010-08-29T09:16:59Z</time>
<desc>lat.=55.978897, lon.=26.557590, Alt.=105.157288m. Speed=7.524000m/h.</desc>
<speed>2.090000</speed>
</trkpt>
<trkpt lat="55.978882" lon="26.557619">
<ele>105.516663</ele>
<time>2010-08-29T09:17:00Z</time>
<desc>lat.=55.978882, lon.=26.557619, Alt.=105.516663m. Speed=7.452000m/h.</desc>
<speed>2.070000</speed>
</trkpt>
<trkpt lat="55.978870" lon="26.557652">
<ele>104.758850</ele>
<time>2010-08-29T09:17:01Z</time>
<desc>lat.=55.978870, lon.=26.557652, Alt.=104.758850m. Speed=7.848000m/h.</desc>
<speed>2.180000</speed>
</trkpt>
<trkpt lat="55.978855" lon="26.557678">
<ele>104.985413</ele>
<time>2010-08-29T09:17:02Z</time>
<desc>lat.=55.978855, lon.=26.557678, Alt.=104.985413m. Speed=8.748000m/h.</desc>
<speed>2.430000</speed>
</trkpt>
<trkpt lat="55.978844" lon="26.557707">
<ele>105.243225</ele>
<time>2010-08-29T09:17:03Z</time>
<desc>lat.=55.978844, lon.=26.557707, Alt.=105.243225m. Speed=7.236000m/h.</desc>
<speed>2.010000</speed>
</trkpt>
<trkpt lat="55.978832" lon="26.557743">
<ele>105.309631</ele>
<time>2010-08-29T09:17:04Z</time>
<desc>lat.=55.978832, lon.=26.557743, Alt.=105.309631m. Speed=8.532000m/h.</desc>
<speed>2.370000</speed>
</trkpt>
<trkpt lat="55.978825" lon="26.557781">
<ele>105.247131</ele>
<time>2010-08-29T09:17:05Z</time>
<desc>lat.=55.978825, lon.=26.557781, Alt.=105.247131m. Speed=8.676000m/h.</desc>
<speed>2.410000</speed>
</trkpt>
<trkpt lat="55.978813" lon="26.557816">
<ele>104.885803</ele>
<time>2010-08-29T09:17:06Z</time>
<desc>lat.=55.978813, lon.=26.557816, Alt.=104.885803m. Speed=8.460000m/h.</desc>
<speed>2.350000</speed>
</trkpt>
<trkpt lat="55.978798" lon="26.557842">
<ele>105.327209</ele>
<time>2010-08-29T09:17:07Z</time>
<desc>lat.=55.978798, lon.=26.557842, Alt.=105.327209m. Speed=8.856000m/h.</desc>
<speed>2.460000</speed>
</trkpt>
<trkpt lat="55.978783" lon="26.557875">
<ele>105.460022</ele>
<time>2010-08-29T09:17:08Z</time>
<desc>lat.=55.978783, lon.=26.557875, Alt.=105.460022m. Speed=8.640000m/h.</desc>
<speed>2.400000</speed>
</trkpt>
<trkpt lat="55.978771" lon="26.557905">
<ele>105.690491</ele>
<time>2010-08-29T09:17:09Z</time>
<desc>lat.=55.978771, lon.=26.557905, Alt.=105.690491m. Speed=8.280000m/h.</desc>
<speed>2.300000</speed>
</trkpt>
<trkpt lat="55.978760" lon="26.557934">
<ele>105.620178</ele>
<time>2010-08-29T09:17:10Z</time>
<desc>lat.=55.978760, lon.=26.557934, Alt.=105.620178m. Speed=8.208000m/h.</desc>
<speed>2.280000</speed>
</trkpt>
<trkpt lat="55.978748" lon="26.557964">
<ele>106.430725</ele>
<time>2010-08-29T09:17:11Z</time>
<desc>lat.=55.978748, lon.=26.557964, Alt.=106.430725m. Speed=8.388000m/h.</desc>
<speed>2.330000</speed>
</trkpt>
<trkpt lat="55.978737" lon="26.557997">
<ele>105.661194</ele>
<time>2010-08-29T09:17:12Z</time>
<desc>lat.=55.978737, lon.=26.557997, Alt.=105.661194m. Speed=7.452000m/h.</desc>
<speed>2.070000</speed>
</trkpt>
<trkpt lat="55.978722" lon="26.558041">
<ele>105.950256</ele>
<time>2010-08-29T09:17:13Z</time>
<desc>lat.=55.978722, lon.=26.558041, Alt.=105.950256m. Speed=8.604000m/h.</desc>
<speed>2.390000</speed>
</trkpt>
<trkpt lat="55.978710" lon="26.558071">
<ele>105.815491</ele>
<time>2010-08-29T09:17:14Z</time>
<desc>lat.=55.978710, lon.=26.558071, Alt.=105.815491m. Speed=7.380000m/h.</desc>
<speed>2.050000</speed>
</trkpt>
<trkpt lat="55.978695" lon="26.558102">
<ele>104.913147</ele>
<time>2010-08-29T09:17:15Z</time>
<desc>lat.=55.978695, lon.=26.558102, Alt.=104.913147m. Speed=7.452000m/h.</desc>
<speed>2.070000</speed>
</trkpt>
<trkpt lat="55.978676" lon="26.558132">
<ele>103.385803</ele>
<time>2010-08-29T09:17:16Z</time>
<desc>lat.=55.978676, lon.=26.558132, Alt.=103.385803m. Speed=8.316000m/h.</desc>
<speed>2.310000</speed>
</trkpt>
<trkpt lat="55.978664" lon="26.558155">
<ele>103.411194</ele>
<time>2010-08-29T09:17:17Z</time>
<desc>lat.=55.978664, lon.=26.558155, Alt.=103.411194m. Speed=8.208000m/h.</desc>
<speed>2.280000</speed>
</trkpt>
<trkpt lat="55.978653" lon="26.558182">
<ele>103.770569</ele>
<time>2010-08-29T09:17:18Z</time>
<desc>lat.=55.978653, lon.=26.558182, Alt.=103.770569m. Speed=7.092000m/h.</desc>
<speed>1.970000</speed>
</trkpt>
<trkpt lat="55.978645" lon="26.558218">
<ele>103.602600</ele>
<time>2010-08-29T09:17:19Z</time>
<desc>lat.=55.978645, lon.=26.558218, Alt.=103.602600m. Speed=8.136000m/h.</desc>
<speed>2.260000</speed>
</trkpt>
<trkpt lat="55.978638" lon="26.558249">
<ele>103.495178</ele>
<time>2010-08-29T09:17:20Z</time>
<desc>lat.=55.978638, lon.=26.558249, Alt.=103.495178m. Speed=6.696000m/h.</desc>
<speed>1.860000</speed>
</trkpt>
<trkpt lat="55.978642" lon="26.558271">
<ele>104.092834</ele>
<time>2010-08-29T09:17:21Z</time>
<desc>lat.=55.978642, lon.=26.558271, Alt.=104.092834m. Speed=6.012000m/h.</desc>
<speed>1.670000</speed>
</trkpt>
<trkpt lat="55.978638" lon="26.558304">
<ele>103.754944</ele>
<time>2010-08-29T09:17:22Z</time>
<desc>lat.=55.978638, lon.=26.558304, Alt.=103.754944m. Speed=7.992000m/h.</desc>
<speed>2.220000</speed>
</trkpt>
<trkpt lat="55.978634" lon="26.558336">
<ele>103.538147</ele>
<time>2010-08-29T09:17:23Z</time>
<desc>lat.=55.978634, lon.=26.558336, Alt.=103.538147m. Speed=6.480000m/h.</desc>
<speed>1.800000</speed>
</trkpt>
<trkpt lat="55.978622" lon="26.558371">
<ele>103.026428</ele>
<time>2010-08-29T09:17:24Z</time>
<desc>lat.=55.978622, lon.=26.558371, Alt.=103.026428m. Speed=8.892000m/h.</desc>
<speed>2.470000</speed>
</trkpt>
<trkpt lat="55.978619" lon="26.558399">
<ele>102.858459</ele>
<time>2010-08-29T09:17:25Z</time>
<desc>lat.=55.978619, lon.=26.558399, Alt.=102.858459m. Speed=6.588000m/h.</desc>
<speed>1.830000</speed>
</trkpt>
<trkpt lat="55.978611" lon="26.558434">
<ele>102.772522</ele>
<time>2010-08-29T09:17:26Z</time>
<desc>lat.=55.978611, lon.=26.558434, Alt.=102.772522m. Speed=7.812000m/h.</desc>
<speed>2.170000</speed>
</trkpt>
<trkpt lat="55.978596" lon="26.558464">
<ele>102.645569</ele>
<time>2010-08-29T09:17:27Z</time>
<desc>lat.=55.978596, lon.=26.558464, Alt.=102.645569m. Speed=7.200000m/h.</desc>
<speed>2.000000</speed>
</trkpt>
<trkpt lat="55.978588" lon="26.558479">
<ele>102.950256</ele>
<time>2010-08-29T09:17:28Z</time>
<desc>lat.=55.978588, lon.=26.558479, Alt.=102.950256m. Speed=6.264000m/h.</desc>
<speed>1.740000</speed>
</trkpt>
<trkpt lat="55.978565" lon="26.558508">
<ele>103.137756</ele>
<time>2010-08-29T09:17:29Z</time>
<desc>lat.=55.978565, lon.=26.558508, Alt.=103.137756m. Speed=7.812000m/h.</desc>
<speed>2.170000</speed>
</trkpt>
<trkpt lat="55.978550" lon="26.558529">
<ele>103.659241</ele>
<time>2010-08-29T09:17:30Z</time>
<desc>lat.=55.978550, lon.=26.558529, Alt.=103.659241m. Speed=7.452000m/h.</desc>
<speed>2.070000</speed>
</trkpt>
<trkpt lat="55.978546" lon="26.558561">
<ele>104.622131</ele>
<time>2010-08-29T09:17:31Z</time>
<desc>lat.=55.978546, lon.=26.558561, Alt.=104.622131m. Speed=10.224000m/h.</desc>
<speed>2.840000</speed>
</trkpt>
<trkpt lat="55.978535" lon="26.558592">
<ele>105.252991</ele>
<time>2010-08-29T09:17:32Z</time>
<desc>lat.=55.978535, lon.=26.558592, Alt.=105.252991m. Speed=8.496000m/h.</desc>
<speed>2.360000</speed>
</trkpt>
<trkpt lat="55.978523" lon="26.558624">
<ele>105.135803</ele>
<time>2010-08-29T09:17:33Z</time>
<desc>lat.=55.978523, lon.=26.558624, Alt.=105.135803m. Speed=9.900000m/h.</desc>
<speed>2.750000</speed>
</trkpt>
<trkpt lat="55.978508" lon="26.558670">
<ele>105.161194</ele>
<time>2010-08-29T09:17:34Z</time>
<desc>lat.=55.978508, lon.=26.558670, Alt.=105.161194m. Speed=10.728000m/h.</desc>
<speed>2.980000</speed>
</trkpt>
<trkpt lat="55.978500" lon="26.558704">
<ele>105.260803</ele>
<time>2010-08-29T09:17:35Z</time>
<desc>lat.=55.978500, lon.=26.558704, Alt.=105.260803m. Speed=8.748000m/h.</desc>
<speed>2.430000</speed>
</trkpt>
<trkpt lat="55.978493" lon="26.558735">
<ele>105.676819</ele>
<time>2010-08-29T09:17:36Z</time>
<desc>lat.=55.978493, lon.=26.558735, Alt.=105.676819m. Speed=9.288000m/h.</desc>
<speed>2.580000</speed>
</trkpt>
<trkpt lat="55.978489" lon="26.558771">
<ele>106.282288</ele>
<time>2010-08-29T09:17:37Z</time>
<desc>lat.=55.978489, lon.=26.558771, Alt.=106.282288m. Speed=8.964000m/h.</desc>
<speed>2.490000</speed>
</trkpt>
<trkpt lat="55.978481" lon="26.558807">
<ele>106.544006</ele>
<time>2010-08-29T09:17:38Z</time>
<desc>lat.=55.978481, lon.=26.558807, Alt.=106.544006m. Speed=7.920000m/h.</desc>
<speed>2.200000</speed>
</trkpt>
<trkpt lat="55.978477" lon="26.558857">
<ele>107.528381</ele>
<time>2010-08-29T09:17:39Z</time>
<desc>lat.=55.978477, lon.=26.558857, Alt.=107.528381m. Speed=9.108000m/h.</desc>
<speed>2.530000</speed>
</trkpt>
<trkpt lat="55.978474" lon="26.558912">
<ele>106.723694</ele>
<time>2010-08-29T09:17:40Z</time>
<desc>lat.=55.978474, lon.=26.558912, Alt.=106.723694m. Speed=9.504000m/h.</desc>
<speed>2.640000</speed>
</trkpt>
<trkpt lat="55.978458" lon="26.558979">
<ele>106.143616</ele>
<time>2010-08-29T09:17:41Z</time>
<desc>lat.=55.978458, lon.=26.558979, Alt.=106.143616m. Speed=9.720000m/h.</desc>
<speed>2.700000</speed>
</trkpt>
<trkpt lat="55.978458" lon="26.559046">
<ele>106.327209</ele>
<time>2010-08-29T09:17:42Z</time>
<desc>lat.=55.978458, lon.=26.559046, Alt.=106.327209m. Speed=10.620000m/h.</desc>
<speed>2.950000</speed>
</trkpt>
<trkpt lat="55.978451" lon="26.559103">
<ele>106.782288</ele>
<time>2010-08-29T09:17:43Z</time>
<desc>lat.=55.978451, lon.=26.559103, Alt.=106.782288m. Speed=12.240000m/h.</desc>
<speed>3.400000</speed>
</trkpt>
<trkpt lat="55.978443" lon="26.559164">
<ele>107.192444</ele>
<time>2010-08-29T09:17:44Z</time>
<desc>lat.=55.978443, lon.=26.559164, Alt.=107.192444m. Speed=12.456000m/h.</desc>
<speed>3.460000</speed>
</trkpt>
<trkpt lat="55.978424" lon="26.559214">
<ele>108.264709</ele>
<time>2010-08-29T09:17:45Z</time>
<desc>lat.=55.978424, lon.=26.559214, Alt.=108.264709m. Speed=12.240000m/h.</desc>
<speed>3.400000</speed>
</trkpt>
<trkpt lat="55.978409" lon="26.559273">
<ele>108.213928</ele>
<time>2010-08-29T09:17:46Z</time>
<desc>lat.=55.978409, lon.=26.559273, Alt.=108.213928m. Speed=13.176000m/h.</desc>
<speed>3.660000</speed>
</trkpt>
<trkpt lat="55.978397" lon="26.559328">
<ele>109.221741</ele>
<time>2010-08-29T09:17:47Z</time>
<desc>lat.=55.978397, lon.=26.559328, Alt.=109.221741m. Speed=12.348000m/h.</desc>
<speed>3.430000</speed>
</trkpt>
<trkpt lat="55.978378" lon="26.559376">
<ele>109.463928</ele>
<time>2010-08-29T09:17:48Z</time>
<desc>lat.=55.978378, lon.=26.559376, Alt.=109.463928m. Speed=11.700000m/h.</desc>
<speed>3.250000</speed>
</trkpt>
<trkpt lat="55.978363" lon="26.559423">
<ele>109.176819</ele>
<time>2010-08-29T09:17:49Z</time>
<desc>lat.=55.978363, lon.=26.559423, Alt.=109.176819m. Speed=8.604000m/h.</desc>
<speed>2.390000</speed>
</trkpt>
<trkpt lat="55.978359" lon="26.559467">
<ele>108.995178</ele>
<time>2010-08-29T09:17:50Z</time>
<desc>lat.=55.978359, lon.=26.559467, Alt.=108.995178m. Speed=6.768000m/h.</desc>
<speed>1.880000</speed>
</trkpt>
<trkpt lat="55.978355" lon="26.559486">
<ele>109.094788</ele>
<time>2010-08-29T09:17:51Z</time>
<desc>lat.=55.978355, lon.=26.559486, Alt.=109.094788m. Speed=6.012000m/h.</desc>
<speed>1.670000</speed>
</trkpt>
<trkpt lat="55.978355" lon="26.559538">
<ele>108.637756</ele>
<time>2010-08-29T09:17:52Z</time>
<desc>lat.=55.978355, lon.=26.559538, Alt.=108.637756m. Speed=7.200000m/h.</desc>
<speed>2.000000</speed>
</trkpt>
<trkpt lat="55.978355" lon="26.559587">
<ele>109.411194</ele>
<time>2010-08-29T09:17:53Z</time>
<desc>lat.=55.978355, lon.=26.559587, Alt.=109.411194m. Speed=6.948000m/h.</desc>
<speed>1.930000</speed>
</trkpt>
<trkpt lat="55.978352" lon="26.559620">
<ele>109.651428</ele>
<time>2010-08-29T09:17:54Z</time>
<desc>lat.=55.978352, lon.=26.559620, Alt.=109.651428m. Speed=7.308000m/h.</desc>
<speed>2.030000</speed>
</trkpt>
<trkpt lat="55.978348" lon="26.559647">
<ele>109.219788</ele>
<time>2010-08-29T09:17:55Z</time>
<desc>lat.=55.978348, lon.=26.559647, Alt.=109.219788m. Speed=6.552000m/h.</desc>
<speed>1.820000</speed>
</trkpt>
<trkpt lat="55.978340" lon="26.559681">
<ele>108.762756</ele>
<time>2010-08-29T09:17:56Z</time>
<desc>lat.=55.978340, lon.=26.559681, Alt.=108.762756m. Speed=6.480000m/h.</desc>
<speed>1.800000</speed>
</trkpt>
<trkpt lat="55.978329" lon="26.559702">
<ele>107.971741</ele>
<time>2010-08-29T09:17:57Z</time>
<desc>lat.=55.978329, lon.=26.559702, Alt.=107.971741m. Speed=6.912000m/h.</desc>
<speed>1.920000</speed>
</trkpt>
<trkpt lat="55.978325" lon="26.559731">
<ele>107.737366</ele>
<time>2010-08-29T09:17:58Z</time>
<desc>lat.=55.978325, lon.=26.559731, Alt.=107.737366m. Speed=5.436000m/h.</desc>
<speed>1.510000</speed>
</trkpt>
<trkpt lat="55.978325" lon="26.559753">
<ele>107.325256</ele>
<time>2010-08-29T09:17:59Z</time>
<desc>lat.=55.978325, lon.=26.559753, Alt.=107.325256m. Speed=5.796000m/h.</desc>
<speed>1.610000</speed>
</trkpt>
<trkpt lat="55.978321" lon="26.559784">
<ele>106.387756</ele>
<time>2010-08-29T09:18:00Z</time>
<desc>lat.=55.978321, lon.=26.559784, Alt.=106.387756m. Speed=6.444000m/h.</desc>
<speed>1.790000</speed>
</trkpt>
<trkpt lat="55.978317" lon="26.559801">
<ele>106.844788</ele>
<time>2010-08-29T09:18:01Z</time>
<desc>lat.=55.978317, lon.=26.559801, Alt.=106.844788m. Speed=4.212000m/h.</desc>
<speed>1.170000</speed>
</trkpt>
<trkpt lat="55.978317" lon="26.559814">
<ele>106.372131</ele>
<time>2010-08-29T09:18:02Z</time>
<desc>lat.=55.978317, lon.=26.559814, Alt.=106.372131m. Speed=3.888000m/h.</desc>
<speed>1.080000</speed>
</trkpt>
<trkpt lat="55.978329" lon="26.559816">
<ele>105.911194</ele>
<time>2010-08-29T09:18:03Z</time>
<desc>lat.=55.978329, lon.=26.559816, Alt.=105.911194m. Speed=2.808000m/h.</desc>
<speed>0.780000</speed>
</trkpt>
<trkpt lat="55.978348" lon="26.559805">
<ele>105.524475</ele>
<time>2010-08-29T09:18:04Z</time>
<desc>lat.=55.978348, lon.=26.559805, Alt.=105.524475m. Speed=7.308000m/h.</desc>
<speed>2.030000</speed>
</trkpt>
<trkpt lat="55.978367" lon="26.559788">
<ele>105.530334</ele>
<time>2010-08-29T09:18:05Z</time>
<desc>lat.=55.978367, lon.=26.559788, Alt.=105.530334m. Speed=7.128000m/h.</desc>
<speed>1.980000</speed>
</trkpt>
<trkpt lat="55.978386" lon="26.559776">
<ele>105.383850</ele>
<time>2010-08-29T09:18:06Z</time>
<desc>lat.=55.978386, lon.=26.559776, Alt.=105.383850m. Speed=7.632000m/h.</desc>
<speed>2.120000</speed>
</trkpt>
<trkpt lat="55.978409" lon="26.559767">
<ele>105.581116</ele>
<time>2010-08-29T09:18:07Z</time>
<desc>lat.=55.978409, lon.=26.559767, Alt.=105.581116m. Speed=6.804000m/h.</desc>
<speed>1.890000</speed>
</trkpt>
<trkpt lat="55.978428" lon="26.559757">
<ele>105.633850</ele>
<time>2010-08-29T09:18:08Z</time>
<desc>lat.=55.978428, lon.=26.559757, Alt.=105.633850m. Speed=6.876000m/h.</desc>
<speed>1.910000</speed>
</trkpt>
<trkpt lat="55.978447" lon="26.559752">
<ele>105.213928</ele>
<time>2010-08-29T09:18:09Z</time>
<desc>lat.=55.978447, lon.=26.559752, Alt.=105.213928m. Speed=7.380000m/h.</desc>
<speed>2.050000</speed>
</trkpt>
<trkpt lat="55.978470" lon="26.559734">
<ele>105.840881</ele>
<time>2010-08-29T09:18:10Z</time>
<desc>lat.=55.978470, lon.=26.559734, Alt.=105.840881m. Speed=7.524000m/h.</desc>
<speed>2.090000</speed>
</trkpt>
<trkpt lat="55.978485" lon="26.559721">
<ele>106.178772</ele>
<time>2010-08-29T09:18:11Z</time>
<desc>lat.=55.978485, lon.=26.559721, Alt.=106.178772m. Speed=5.760000m/h.</desc>
<speed>1.600000</speed>
</trkpt>
<trkpt lat="55.978493" lon="26.559708">
<ele>106.448303</ele>
<time>2010-08-29T09:18:12Z</time>
<desc>lat.=55.978493, lon.=26.559708, Alt.=106.448303m. Speed=4.212000m/h.</desc>
<speed>1.170000</speed>
</trkpt>
<trkpt lat="55.978500" lon="26.559694">
<ele>106.676819</ele>
<time>2010-08-29T09:18:13Z</time>
<desc>lat.=55.978500, lon.=26.559694, Alt.=106.676819m. Speed=4.896000m/h.</desc>
<speed>1.360000</speed>
</trkpt>
<trkpt lat="55.978512" lon="26.559683">
<ele>107.001038</ele>
<time>2010-08-29T09:18:14Z</time>
<desc>lat.=55.978512, lon.=26.559683, Alt.=107.001038m. Speed=4.140000m/h.</desc>
<speed>1.150000</speed>
</trkpt>
<trkpt lat="55.978527" lon="26.559677">
<ele>107.280334</ele>
<time>2010-08-29T09:18:15Z</time>
<desc>lat.=55.978527, lon.=26.559677, Alt.=107.280334m. Speed=3.564000m/h.</desc>
<speed>0.990000</speed>
</trkpt>
<trkpt lat="55.978542" lon="26.559671">
<ele>107.708069</ele>
<time>2010-08-29T09:18:16Z</time>
<desc>lat.=55.978542, lon.=26.559671, Alt.=107.708069m. Speed=6.408000m/h.</desc>
<speed>1.780000</speed>
</trkpt>
<trkpt lat="55.978561" lon="26.559668">
<ele>107.872131</ele>
<time>2010-08-29T09:18:17Z</time>
<desc>lat.=55.978561, lon.=26.559668, Alt.=107.872131m. Speed=6.336000m/h.</desc>
<speed>1.760000</speed>
</trkpt>
<trkpt lat="55.978577" lon="26.559666">
<ele>107.993225</ele>
<time>2010-08-29T09:18:18Z</time>
<desc>lat.=55.978577, lon.=26.559666, Alt.=107.993225m. Speed=6.300000m/h.</desc>
<speed>1.750000</speed>
</trkpt>
<trkpt lat="55.978592" lon="26.559666">
<ele>108.219788</ele>
<time>2010-08-29T09:18:19Z</time>
<desc>lat.=55.978592, lon.=26.559666, Alt.=108.219788m. Speed=5.724000m/h.</desc>
<speed>1.590000</speed>
</trkpt>
<trkpt lat="55.978611" lon="26.559660">
<ele>108.686584</ele>
<time>2010-08-29T09:18:20Z</time>
<desc>lat.=55.978611, lon.=26.559660, Alt.=108.686584m. Speed=5.832000m/h.</desc>
<speed>1.620000</speed>
</trkpt>
<trkpt lat="55.978626" lon="26.559660">
<ele>109.012756</ele>
<time>2010-08-29T09:18:21Z</time>
<desc>lat.=55.978626, lon.=26.559660, Alt.=109.012756m. Speed=4.680000m/h.</desc>
<speed>1.300000</speed>
</trkpt>
<trkpt lat="55.978642" lon="26.559654">
<ele>109.352600</ele>
<time>2010-08-29T09:18:22Z</time>
<desc>lat.=55.978642, lon.=26.559654, Alt.=109.352600m. Speed=5.760000m/h.</desc>
<speed>1.600000</speed>
</trkpt>
<trkpt lat="55.978653" lon="26.559649">
<ele>109.629944</ele>
<time>2010-08-29T09:18:23Z</time>
<desc>lat.=55.978653, lon.=26.559649, Alt.=109.629944m. Speed=6.120000m/h.</desc>
<speed>1.700000</speed>
</trkpt>
<trkpt lat="55.978672" lon="26.559656">
<ele>109.903381</ele>
<time>2010-08-29T09:18:24Z</time>
<desc>lat.=55.978672, lon.=26.559656, Alt.=109.903381m. Speed=7.092000m/h.</desc>
<speed>1.970000</speed>
</trkpt>
<trkpt lat="55.978683" lon="26.559662">
<ele>110.161194</ele>
<time>2010-08-29T09:18:25Z</time>
<desc>lat.=55.978683, lon.=26.559662, Alt.=110.161194m. Speed=6.696000m/h.</desc>
<speed>1.860000</speed>
</trkpt>
<trkpt lat="55.978699" lon="26.559679">
<ele>111.848694</ele>
<time>2010-08-29T09:18:26Z</time>
<desc>lat.=55.978699, lon.=26.559679, Alt.=111.848694m. Speed=4.392000m/h.</desc>
<speed>1.220000</speed>
</trkpt>
<trkpt lat="55.978706" lon="26.559687">
<ele>112.262756</ele>
<time>2010-08-29T09:18:27Z</time>
<desc>lat.=55.978706, lon.=26.559687, Alt.=112.262756m. Speed=3.096000m/h.</desc>
<speed>0.860000</speed>
</trkpt>
<trkpt lat="55.978718" lon="26.559698">
<ele>112.424866</ele>
<time>2010-08-29T09:18:28Z</time>
<desc>lat.=55.978718, lon.=26.559698, Alt.=112.424866m. Speed=6.480000m/h.</desc>
<speed>1.800000</speed>
</trkpt>
<trkpt lat="55.978729" lon="26.559700">
<ele>112.665100</ele>
<time>2010-08-29T09:18:29Z</time>
<desc>lat.=55.978729, lon.=26.559700, Alt.=112.665100m. Speed=6.156000m/h.</desc>
<speed>1.710000</speed>
</trkpt>
<trkpt lat="55.978745" lon="26.559700">
<ele>112.807678</ele>
<time>2010-08-29T09:18:30Z</time>
<desc>lat.=55.978745, lon.=26.559700, Alt.=112.807678m. Speed=5.400000m/h.</desc>
<speed>1.500000</speed>
</trkpt>
<trkpt lat="55.978764" lon="26.559696">
<ele>112.922913</ele>
<time>2010-08-29T09:18:31Z</time>
<desc>lat.=55.978764, lon.=26.559696, Alt.=112.922913m. Speed=7.020000m/h.</desc>
<speed>1.950000</speed>
</trkpt>
<trkpt lat="55.978783" lon="26.559690">
<ele>113.161194</ele>
<time>2010-08-29T09:18:32Z</time>
<desc>lat.=55.978783, lon.=26.559690, Alt.=113.161194m. Speed=6.984000m/h.</desc>
<speed>1.940000</speed>
</trkpt>
<trkpt lat="55.978806" lon="26.559681">
<ele>113.377991</ele>
<time>2010-08-29T09:18:33Z</time>
<desc>lat.=55.978806, lon.=26.559681, Alt.=113.377991m. Speed=8.028000m/h.</desc>
<speed>2.230000</speed>
</trkpt>
<trkpt lat="55.978825" lon="26.559677">
<ele>113.774475</ele>
<time>2010-08-29T09:18:34Z</time>
<desc>lat.=55.978825, lon.=26.559677, Alt.=113.774475m. Speed=6.120000m/h.</desc>
<speed>1.700000</speed>
</trkpt>
<trkpt lat="55.978840" lon="26.559677">
<ele>113.991272</ele>
<time>2010-08-29T09:18:35Z</time>
<desc>lat.=55.978840, lon.=26.559677, Alt.=113.991272m. Speed=4.104000m/h.</desc>
<speed>1.140000</speed>
</trkpt>
<trkpt lat="55.978851" lon="26.559679">
<ele>114.493225</ele>
<time>2010-08-29T09:18:36Z</time>
<desc>lat.=55.978851, lon.=26.559679, Alt.=114.493225m. Speed=3.456000m/h.</desc>
<speed>0.960000</speed>
</trkpt>
<trkpt lat="55.978867" lon="26.559679">
<ele>115.590881</ele>
<time>2010-08-29T09:18:37Z</time>
<desc>lat.=55.978867, lon.=26.559679, Alt.=115.590881m. Speed=3.708000m/h.</desc>
<speed>1.030000</speed>
</trkpt>
<trkpt lat="55.978878" lon="26.559679">
<ele>116.348694</ele>
<time>2010-08-29T09:18:38Z</time>
<desc>lat.=55.978878, lon.=26.559679, Alt.=116.348694m. Speed=2.304000m/h.</desc>
<speed>0.640000</speed>
</trkpt>
<trkpt lat="55.978889" lon="26.559681">
<ele>115.932678</ele>
<time>2010-08-29T09:18:39Z</time>
<desc>lat.=55.978889, lon.=26.559681, Alt.=115.932678m. Speed=3.312000m/h.</desc>
<speed>0.920000</speed>
</trkpt>
<trkpt lat="55.978905" lon="26.559675">
<ele>116.413147</ele>
<time>2010-08-29T09:18:40Z</time>
<desc>lat.=55.978905, lon.=26.559675, Alt.=116.413147m. Speed=5.256000m/h.</desc>
<speed>1.460000</speed>
</trkpt>
<trkpt lat="55.978924" lon="26.559679">
<ele>116.919006</ele>
<time>2010-08-29T09:18:41Z</time>
<desc>lat.=55.978924, lon.=26.559679, Alt.=116.919006m. Speed=3.492000m/h.</desc>
<speed>0.970000</speed>
</trkpt>
<trkpt lat="55.978943" lon="26.559677">
<ele>117.196350</ele>
<time>2010-08-29T09:18:42Z</time>
<desc>lat.=55.978943, lon.=26.559677, Alt.=117.196350m. Speed=4.032000m/h.</desc>
<speed>1.120000</speed>
</trkpt>
<trkpt lat="55.978985" lon="26.559681">
<ele>116.524475</ele>
<time>2010-08-29T09:18:43Z</time>
<desc>lat.=55.978985, lon.=26.559681, Alt.=116.524475m. Speed=5.076000m/h.</desc>
<speed>1.410000</speed>
</trkpt>
<trkpt lat="55.979000" lon="26.559669">
<ele>116.928772</ele>
<time>2010-08-29T09:18:44Z</time>
<desc>lat.=55.979000, lon.=26.559669, Alt.=116.928772m. Speed=2.628000m/h.</desc>
<speed>0.730000</speed>
</trkpt>
<trkpt lat="55.979019" lon="26.559660">
<ele>117.264709</ele>
<time>2010-08-29T09:18:45Z</time>
<desc>lat.=55.979019, lon.=26.559660, Alt.=117.264709m. Speed=3.816000m/h.</desc>
<speed>1.060000</speed>
</trkpt>
<trkpt lat="55.979042" lon="26.559649">
<ele>117.913147</ele>
<time>2010-08-29T09:18:46Z</time>
<desc>lat.=55.979042, lon.=26.559649, Alt.=117.913147m. Speed=4.824000m/h.</desc>
<speed>1.340000</speed>
</trkpt>
<trkpt lat="55.979065" lon="26.559633">
<ele>118.737366</ele>
<time>2010-08-29T09:18:47Z</time>
<desc>lat.=55.979065, lon.=26.559633, Alt.=118.737366m. Speed=5.436000m/h.</desc>
<speed>1.510000</speed>
</trkpt>
<trkpt lat="55.979080" lon="26.559624">
<ele>119.493225</ele>
<time>2010-08-29T09:18:48Z</time>
<desc>lat.=55.979080, lon.=26.559624, Alt.=119.493225m. Speed=3.420000m/h.</desc>
<speed>0.950000</speed>
</trkpt>
<trkpt lat="55.979103" lon="26.559618">
<ele>120.090881</ele>
<time>2010-08-29T09:18:49Z</time>
<desc>lat.=55.979103, lon.=26.559618, Alt.=120.090881m. Speed=4.896000m/h.</desc>
<speed>1.360000</speed>
</trkpt>
<trkpt lat="55.979118" lon="26.559610">
<ele>120.751038</ele>
<time>2010-08-29T09:18:50Z</time>
<desc>lat.=55.979118, lon.=26.559610, Alt.=120.751038m. Speed=2.880000m/h.</desc>
<speed>0.800000</speed>
</trkpt>
<trkpt lat="55.979137" lon="26.559603">
<ele>121.426819</ele>
<time>2010-08-29T09:18:51Z</time>
<desc>lat.=55.979137, lon.=26.559603, Alt.=121.426819m. Speed=2.916000m/h.</desc>
<speed>0.810000</speed>
</trkpt>
<trkpt lat="55.979156" lon="26.559593">
<ele>122.163147</ele>
<time>2010-08-29T09:18:52Z</time>
<desc>lat.=55.979156, lon.=26.559593, Alt.=122.163147m. Speed=2.052000m/h.</desc>
<speed>0.570000</speed>
</trkpt>
<trkpt lat="55.979176" lon="26.559586">
<ele>122.872131</ele>
<time>2010-08-29T09:18:53Z</time>
<desc>lat.=55.979176, lon.=26.559586, Alt.=122.872131m. Speed=3.996000m/h.</desc>
<speed>1.110000</speed>
</trkpt>
<trkpt lat="55.979202" lon="26.559580">
<ele>123.557678</ele>
<time>2010-08-29T09:18:54Z</time>
<desc>lat.=55.979202, lon.=26.559580, Alt.=123.557678m. Speed=4.788000m/h.</desc>
<speed>1.330000</speed>
</trkpt>
<trkpt lat="55.979225" lon="26.559568">
<ele>124.376038</ele>
<time>2010-08-29T09:18:55Z</time>
<desc>lat.=55.979225, lon.=26.559568, Alt.=124.376038m. Speed=5.364000m/h.</desc>
<speed>1.490000</speed>
</trkpt>
<trkpt lat="55.979256" lon="26.559555">
<ele>124.555725</ele>
<time>2010-08-29T09:18:56Z</time>
<desc>lat.=55.979256, lon.=26.559555, Alt.=124.555725m. Speed=6.876000m/h.</desc>
<speed>1.910000</speed>
</trkpt>
<trkpt lat="55.979294" lon="26.559505">
<ele>128.064575</ele>
<time>2010-08-29T09:18:57Z</time>
<desc>lat.=55.979294, lon.=26.559505, Alt.=128.064575m. Speed=4.104000m/h.</desc>
<speed>1.140000</speed>
</trkpt>
<trkpt lat="55.979324" lon="26.559479">
<ele>129.533325</ele>
<time>2010-08-29T09:18:58Z</time>
<desc>lat.=55.979324, lon.=26.559479, Alt.=129.533325m. Speed=3.492000m/h.</desc>
<speed>0.970000</speed>
</trkpt>
<trkpt lat="55.979347" lon="26.559469">
<ele>130.088013</ele>
<time>2010-08-29T09:18:59Z</time>
<desc>lat.=55.979347, lon.=26.559469, Alt.=130.088013m. Speed=5.544000m/h.</desc>
<speed>1.540000</speed>
</trkpt>
<trkpt lat="55.979370" lon="26.559475">
<ele>130.564575</ele>
<time>2010-08-29T09:19:00Z</time>
<desc>lat.=55.979370, lon.=26.559475, Alt.=130.564575m. Speed=5.544000m/h.</desc>
<speed>1.540000</speed>
</trkpt>
<trkpt lat="55.979385" lon="26.559494">
<ele>131.209106</ele>
<time>2010-08-29T09:19:01Z</time>
<desc>lat.=55.979385, lon.=26.559494, Alt.=131.209106m. Speed=5.472000m/h.</desc>
<speed>1.520000</speed>
</trkpt>
<trkpt lat="55.979401" lon="26.559507">
<ele>131.521606</ele>
<time>2010-08-29T09:19:02Z</time>
<desc>lat.=55.979401, lon.=26.559507, Alt.=131.521606m. Speed=4.212000m/h.</desc>
<speed>1.170000</speed>
</trkpt>
<trkpt lat="55.979416" lon="26.559519">
<ele>132.013794</ele>
<time>2010-08-29T09:19:03Z</time>
<desc>lat.=55.979416, lon.=26.559519, Alt.=132.013794m. Speed=3.924000m/h.</desc>
<speed>1.090000</speed>
</trkpt>
<trkpt lat="55.979427" lon="26.559526">
<ele>132.384888</ele>
<time>2010-08-29T09:19:04Z</time>
<desc>lat.=55.979427, lon.=26.559526, Alt.=132.384888m. Speed=3.456000m/h.</desc>
<speed>0.960000</speed>
</trkpt>
<trkpt lat="55.979446" lon="26.559530">
<ele>132.572388</ele>
<time>2010-08-29T09:19:05Z</time>
<desc>lat.=55.979446, lon.=26.559530, Alt.=132.572388m. Speed=2.664000m/h.</desc>
<speed>0.740000</speed>
</trkpt>
<trkpt lat="55.979465" lon="26.559532">
<ele>133.248169</ele>
<time>2010-08-29T09:19:06Z</time>
<desc>lat.=55.979465, lon.=26.559532, Alt.=133.248169m. Speed=3.924000m/h.</desc>
<speed>1.090000</speed>
</trkpt>
<trkpt lat="55.979507" lon="26.559521">
<ele>132.556763</ele>
<time>2010-08-29T09:19:07Z</time>
<desc>lat.=55.979507, lon.=26.559521, Alt.=132.556763m. Speed=4.932000m/h.</desc>
<speed>1.370000</speed>
</trkpt>
<trkpt lat="55.979527" lon="26.559538">
<ele>132.759888</ele>
<time>2010-08-29T09:19:08Z</time>
<desc>lat.=55.979527, lon.=26.559538, Alt.=132.759888m. Speed=5.004000m/h.</desc>
<speed>1.390000</speed>
</trkpt>
<trkpt lat="55.979542" lon="26.559544">
<ele>132.373169</ele>
<time>2010-08-29T09:19:09Z</time>
<desc>lat.=55.979542, lon.=26.559544, Alt.=132.373169m. Speed=4.212000m/h.</desc>
<speed>1.170000</speed>
</trkpt>
<trkpt lat="55.979565" lon="26.559546">
<ele>132.392700</ele>
<time>2010-08-29T09:19:10Z</time>
<desc>lat.=55.979565, lon.=26.559546, Alt.=132.392700m. Speed=4.320000m/h.</desc>
<speed>1.200000</speed>
</trkpt>
<trkpt lat="55.979591" lon="26.559553">
<ele>132.505981</ele>
<time>2010-08-29T09:19:11Z</time>
<desc>lat.=55.979591, lon.=26.559553, Alt.=132.505981m. Speed=4.824000m/h.</desc>
<speed>1.340000</speed>
</trkpt>
<trkpt lat="55.979618" lon="26.559563">
<ele>133.064575</ele>
<time>2010-08-29T09:19:12Z</time>
<desc>lat.=55.979618, lon.=26.559563, Alt.=133.064575m. Speed=5.292000m/h.</desc>
<speed>1.470000</speed>
</trkpt>
<trkpt lat="55.979645" lon="26.559566">
<ele>134.013794</ele>
<time>2010-08-29T09:19:13Z</time>
<desc>lat.=55.979645, lon.=26.559566, Alt.=134.013794m. Speed=4.248000m/h.</desc>
<speed>1.180000</speed>
</trkpt>
<trkpt lat="55.979671" lon="26.559574">
<ele>134.572388</ele>
<time>2010-08-29T09:19:14Z</time>
<desc>lat.=55.979671, lon.=26.559574, Alt.=134.572388m. Speed=4.464000m/h.</desc>
<speed>1.240000</speed>
</trkpt>
<trkpt lat="55.979694" lon="26.559580">
<ele>135.045044</ele>
<time>2010-08-29T09:19:15Z</time>
<desc>lat.=55.979694, lon.=26.559580, Alt.=135.045044m. Speed=2.376000m/h.</desc>
<speed>0.660000</speed>
</trkpt>
<trkpt lat="55.979713" lon="26.559584">
<ele>135.466919</ele>
<time>2010-08-29T09:19:16Z</time>
<desc>lat.=55.979713, lon.=26.559584, Alt.=135.466919m. Speed=4.788000m/h.</desc>
<speed>1.330000</speed>
</trkpt>
<trkpt lat="55.979748" lon="26.559589">
<ele>136.017700</ele>
<time>2010-08-29T09:19:17Z</time>
<desc>lat.=55.979748, lon.=26.559589, Alt.=136.017700m. Speed=5.220000m/h.</desc>
<speed>1.450000</speed>
</trkpt>
<trkpt lat="55.979786" lon="26.559628">
<ele>136.068481</ele>
<time>2010-08-29T09:19:18Z</time>
<desc>lat.=55.979786, lon.=26.559628, Alt.=136.068481m. Speed=8.784000m/h.</desc>
<speed>2.440000</speed>
</trkpt>
<trkpt lat="55.979824" lon="26.559656">
<ele>136.783325</ele>
<time>2010-08-29T09:19:19Z</time>
<desc>lat.=55.979824, lon.=26.559656, Alt.=136.783325m. Speed=9.828000m/h.</desc>
<speed>2.730000</speed>
</trkpt>
<trkpt lat="55.979851" lon="26.559683">
<ele>137.103638</ele>
<time>2010-08-29T09:19:20Z</time>
<desc>lat.=55.979851, lon.=26.559683, Alt.=137.103638m. Speed=6.948000m/h.</desc>
<speed>1.930000</speed>
</trkpt>
<trkpt lat="55.979885" lon="26.559698">
<ele>137.283325</ele>
<time>2010-08-29T09:19:21Z</time>
<desc>lat.=55.979885, lon.=26.559698, Alt.=137.283325m. Speed=6.516000m/h.</desc>
<speed>1.810000</speed>
</trkpt>
<trkpt lat="55.979923" lon="26.559725">
<ele>137.404419</ele>
<time>2010-08-29T09:19:22Z</time>
<desc>lat.=55.979923, lon.=26.559725, Alt.=137.404419m. Speed=6.372000m/h.</desc>
<speed>1.770000</speed>
</trkpt>
<trkpt lat="55.979961" lon="26.559731">
<ele>137.900513</ele>
<time>2010-08-29T09:19:23Z</time>
<desc>lat.=55.979961, lon.=26.559731, Alt.=137.900513m. Speed=6.840000m/h.</desc>
<speed>1.900000</speed>
</trkpt>
<trkpt lat="55.979984" lon="26.559731">
<ele>138.634888</ele>
<time>2010-08-29T09:19:24Z</time>
<desc>lat.=55.979984, lon.=26.559731, Alt.=138.634888m. Speed=3.852000m/h.</desc>
<speed>1.070000</speed>
</trkpt>
<trkpt lat="55.980011" lon="26.559736">
<ele>138.658325</ele>
<time>2010-08-29T09:19:25Z</time>
<desc>lat.=55.980011, lon.=26.559736, Alt.=138.658325m. Speed=5.292000m/h.</desc>
<speed>1.470000</speed>
</trkpt>
<trkpt lat="55.980042" lon="26.559763">
<ele>137.752075</ele>
<time>2010-08-29T09:19:26Z</time>
<desc>lat.=55.980042, lon.=26.559763, Alt.=137.752075m. Speed=4.176000m/h.</desc>
<speed>1.160000</speed>
</trkpt>
<trkpt lat="55.980072" lon="26.559757">
<ele>137.916138</ele>
<time>2010-08-29T09:19:27Z</time>
<desc>lat.=55.980072, lon.=26.559757, Alt.=137.916138m. Speed=4.968000m/h.</desc>
<speed>1.380000</speed>
</trkpt>
<trkpt lat="55.980110" lon="26.559753">
<ele>137.615356</ele>
<time>2010-08-29T09:19:28Z</time>
<desc>lat.=55.980110, lon.=26.559753, Alt.=137.615356m. Speed=5.292000m/h.</desc>
<speed>1.470000</speed>
</trkpt>
<trkpt lat="55.980156" lon="26.559761">
<ele>137.474731</ele>
<time>2010-08-29T09:19:29Z</time>
<desc>lat.=55.980156, lon.=26.559761, Alt.=137.474731m. Speed=5.904000m/h.</desc>
<speed>1.640000</speed>
</trkpt>
<trkpt lat="55.980202" lon="26.559778">
<ele>136.630981</ele>
<time>2010-08-29T09:19:30Z</time>
<desc>lat.=55.980202, lon.=26.559778, Alt.=136.630981m. Speed=6.084000m/h.</desc>
<speed>1.690000</speed>
</trkpt>
<trkpt lat="55.980244" lon="26.559786">
<ele>136.806763</ele>
<time>2010-08-29T09:19:31Z</time>
<desc>lat.=55.980244, lon.=26.559786, Alt.=136.806763m. Speed=2.988000m/h.</desc>
<speed>0.830000</speed>
</trkpt>
<trkpt lat="55.980263" lon="26.559786">
<ele>137.369263</ele>
<time>2010-08-29T09:19:32Z</time>
<desc>lat.=55.980263, lon.=26.559786, Alt.=137.369263m. Speed=4.968000m/h.</desc>
<speed>1.380000</speed>
</trkpt>
<trkpt lat="55.980293" lon="26.559780">
<ele>137.373169</ele>
<time>2010-08-29T09:19:33Z</time>
<desc>lat.=55.980293, lon.=26.559780, Alt.=137.373169m. Speed=4.428000m/h.</desc>
<speed>1.230000</speed>
</trkpt>
<trkpt lat="55.980331" lon="26.559813">
<ele>136.326294</ele>
<time>2010-08-29T09:19:34Z</time>
<desc>lat.=55.980331, lon.=26.559813, Alt.=136.326294m. Speed=3.204000m/h.</desc>
<speed>0.890000</speed>
</trkpt>
<trkpt lat="55.980354" lon="26.559813">
<ele>136.841919</ele>
<time>2010-08-29T09:19:35Z</time>
<desc>lat.=55.980354, lon.=26.559813, Alt.=136.841919m. Speed=3.960000m/h.</desc>
<speed>1.100000</speed>
</trkpt>
<trkpt lat="55.980389" lon="26.559818">
<ele>136.287231</ele>
<time>2010-08-29T09:19:36Z</time>
<desc>lat.=55.980389, lon.=26.559818, Alt.=136.287231m. Speed=3.636000m/h.</desc>
<speed>1.010000</speed>
</trkpt>
<trkpt lat="55.980419" lon="26.559801">
<ele>135.017700</ele>
<time>2010-08-29T09:19:37Z</time>
<desc>lat.=55.980419, lon.=26.559801, Alt.=135.017700m. Speed=2.160000m/h.</desc>
<speed>0.600000</speed>
</trkpt>
<trkpt lat="55.980434" lon="26.559793">
<ele>134.943481</ele>
<time>2010-08-29T09:19:38Z</time>
<desc>lat.=55.980434, lon.=26.559793, Alt.=134.943481m. Speed=2.340000m/h.</desc>
<speed>0.650000</speed>
</trkpt>
<trkpt lat="55.980453" lon="26.559790">
<ele>135.213013</ele>
<time>2010-08-29T09:19:39Z</time>
<desc>lat.=55.980453, lon.=26.559790, Alt.=135.213013m. Speed=3.168000m/h.</desc>
<speed>0.880000</speed>
</trkpt>
<trkpt lat="55.980476" lon="26.559784">
<ele>135.443481</ele>
<time>2010-08-29T09:19:40Z</time>
<desc>lat.=55.980476, lon.=26.559784, Alt.=135.443481m. Speed=3.636000m/h.</desc>
<speed>1.010000</speed>
</trkpt>
<trkpt lat="55.980495" lon="26.559790">
<ele>135.466919</ele>
<time>2010-08-29T09:19:41Z</time>
<desc>lat.=55.980495, lon.=26.559790, Alt.=135.466919m. Speed=3.636000m/h.</desc>
<speed>1.010000</speed>
</trkpt>
<trkpt lat="55.980530" lon="26.559795">
<ele>135.240356</ele>
<time>2010-08-29T09:19:42Z</time>
<desc>lat.=55.980530, lon.=26.559795, Alt.=135.240356m. Speed=4.104000m/h.</desc>
<speed>1.140000</speed>
</trkpt>
<trkpt lat="55.980556" lon="26.559792">
<ele>135.072388</ele>
<time>2010-08-29T09:19:43Z</time>
<desc>lat.=55.980556, lon.=26.559792, Alt.=135.072388m. Speed=4.212000m/h.</desc>
<speed>1.170000</speed>
</trkpt>
<trkpt lat="55.980579" lon="26.559792">
<ele>134.513794</ele>
<time>2010-08-29T09:19:44Z</time>
<desc>lat.=55.980579, lon.=26.559792, Alt.=134.513794m. Speed=3.924000m/h.</desc>
<speed>1.090000</speed>
</trkpt>
<trkpt lat="55.980602" lon="26.559788">
<ele>134.459106</ele>
<time>2010-08-29T09:19:45Z</time>
<desc>lat.=55.980602, lon.=26.559788, Alt.=134.459106m. Speed=4.104000m/h.</desc>
<speed>1.140000</speed>
</trkpt>
<trkpt lat="55.980625" lon="26.559788">
<ele>134.443481</ele>
<time>2010-08-29T09:19:46Z</time>
<desc>lat.=55.980625, lon.=26.559788, Alt.=134.443481m. Speed=3.744000m/h.</desc>
<speed>1.040000</speed>
</trkpt>
<trkpt lat="55.980648" lon="26.559778">
<ele>134.341919</ele>
<time>2010-08-29T09:19:47Z</time>
<desc>lat.=55.980648, lon.=26.559778, Alt.=134.341919m. Speed=3.960000m/h.</desc>
<speed>1.100000</speed>
</trkpt>
<trkpt lat="55.980667" lon="26.559772">
<ele>134.045044</ele>
<time>2010-08-29T09:19:48Z</time>
<desc>lat.=55.980667, lon.=26.559772, Alt.=134.045044m. Speed=4.392000m/h.</desc>
<speed>1.220000</speed>
</trkpt>
<trkpt lat="55.980686" lon="26.559771">
<ele>133.420044</ele>
<time>2010-08-29T09:19:49Z</time>
<desc>lat.=55.980686, lon.=26.559771, Alt.=133.420044m. Speed=4.608000m/h.</desc>
<speed>1.280000</speed>
</trkpt>
<trkpt lat="55.980709" lon="26.559765">
<ele>133.048950</ele>
<time>2010-08-29T09:19:50Z</time>
<desc>lat.=55.980709, lon.=26.559765, Alt.=133.048950m. Speed=5.040000m/h.</desc>
<speed>1.400000</speed>
</trkpt>
<trkpt lat="55.980732" lon="26.559763">
<ele>132.529419</ele>
<time>2010-08-29T09:19:51Z</time>
<desc>lat.=55.980732, lon.=26.559763, Alt.=132.529419m. Speed=4.752000m/h.</desc>
<speed>1.320000</speed>
</trkpt>
<trkpt lat="55.980751" lon="26.559750">
<ele>132.130981</ele>
<time>2010-08-29T09:19:52Z</time>
<desc>lat.=55.980751, lon.=26.559750, Alt.=132.130981m. Speed=4.140000m/h.</desc>
<speed>1.150000</speed>
</trkpt>
<trkpt lat="55.980762" lon="26.559744">
<ele>131.912231</ele>
<time>2010-08-29T09:19:53Z</time>
<desc>lat.=55.980762, lon.=26.559744, Alt.=131.912231m. Speed=3.744000m/h.</desc>
<speed>1.040000</speed>
</trkpt>
<trkpt lat="55.980778" lon="26.559736">
<ele>131.838013</ele>
<time>2010-08-29T09:19:54Z</time>
<desc>lat.=55.980778, lon.=26.559736, Alt.=131.838013m. Speed=3.960000m/h.</desc>
<speed>1.100000</speed>
</trkpt>
<trkpt lat="55.980797" lon="26.559732">
<ele>131.248169</ele>
<time>2010-08-29T09:19:55Z</time>
<desc>lat.=55.980797, lon.=26.559732, Alt.=131.248169m. Speed=4.032000m/h.</desc>
<speed>1.120000</speed>
</trkpt>
<trkpt lat="55.980820" lon="26.559731">
<ele>130.759888</ele>
<time>2010-08-29T09:19:56Z</time>
<desc>lat.=55.980820, lon.=26.559731, Alt.=130.759888m. Speed=4.284000m/h.</desc>
<speed>1.190000</speed>
</trkpt>
<trkpt lat="55.980839" lon="26.559742">
<ele>129.865356</ele>
<time>2010-08-29T09:19:57Z</time>
<desc>lat.=55.980839, lon.=26.559742, Alt.=129.865356m. Speed=4.464000m/h.</desc>
<speed>1.240000</speed>
</trkpt>
<trkpt lat="55.980858" lon="26.559748">
<ele>129.771606</ele>
<time>2010-08-29T09:19:58Z</time>
<desc>lat.=55.980858, lon.=26.559748, Alt.=129.771606m. Speed=4.212000m/h.</desc>
<speed>1.170000</speed>
</trkpt>
<trkpt lat="55.980873" lon="26.559752">
<ele>129.302856</ele>
<time>2010-08-29T09:19:59Z</time>
<desc>lat.=55.980873, lon.=26.559752, Alt.=129.302856m. Speed=4.392000m/h.</desc>
<speed>1.220000</speed>
</trkpt>
<trkpt lat="55.980892" lon="26.559738">
<ele>129.056763</ele>
<time>2010-08-29T09:20:00Z</time>
<desc>lat.=55.980892, lon.=26.559738, Alt.=129.056763m. Speed=4.248000m/h.</desc>
<speed>1.180000</speed>
</trkpt>
<trkpt lat="55.980911" lon="26.559723">
<ele>128.869263</ele>
<time>2010-08-29T09:20:01Z</time>
<desc>lat.=55.980911, lon.=26.559723, Alt.=128.869263m. Speed=4.176000m/h.</desc>
<speed>1.160000</speed>
</trkpt>
<trkpt lat="55.980930" lon="26.559713">
<ele>128.736450</ele>
<time>2010-08-29T09:20:02Z</time>
<desc>lat.=55.980930, lon.=26.559713, Alt.=128.736450m. Speed=4.176000m/h.</desc>
<speed>1.160000</speed>
</trkpt>
<trkpt lat="55.980953" lon="26.559704">
<ele>128.287231</ele>
<time>2010-08-29T09:20:03Z</time>
<desc>lat.=55.980953, lon.=26.559704, Alt.=128.287231m. Speed=4.572000m/h.</desc>
<speed>1.270000</speed>
</trkpt>
<trkpt lat="55.980972" lon="26.559698">
<ele>128.213013</ele>
<time>2010-08-29T09:20:04Z</time>
<desc>lat.=55.980972, lon.=26.559698, Alt.=128.213013m. Speed=4.248000m/h.</desc>
<speed>1.180000</speed>
</trkpt>
<trkpt lat="55.980995" lon="26.559692">
<ele>128.021606</ele>
<time>2010-08-29T09:20:05Z</time>
<desc>lat.=55.980995, lon.=26.559692, Alt.=128.021606m. Speed=4.068000m/h.</desc>
<speed>1.130000</speed>
</trkpt>
<trkpt lat="55.981018" lon="26.559698">
<ele>127.842834</ele>
<time>2010-08-29T09:20:06Z</time>
<desc>lat.=55.981018, lon.=26.559698, Alt.=127.842834m. Speed=3.708000m/h.</desc>
<speed>1.030000</speed>
</trkpt>
<trkpt lat="55.981049" lon="26.559689">
<ele>127.577209</ele>
<time>2010-08-29T09:20:07Z</time>
<desc>lat.=55.981049, lon.=26.559689, Alt.=127.577209m. Speed=4.608000m/h.</desc>
<speed>1.280000</speed>
</trkpt>
<trkpt lat="55.981075" lon="26.559673">
<ele>127.561584</ele>
<time>2010-08-29T09:20:08Z</time>
<desc>lat.=55.981075, lon.=26.559673, Alt.=127.561584m. Speed=4.968000m/h.</desc>
<speed>1.380000</speed>
</trkpt>
<trkpt lat="55.981117" lon="26.559662">
<ele>125.627991</ele>
<time>2010-08-29T09:20:09Z</time>
<desc>lat.=55.981117, lon.=26.559662, Alt.=125.627991m. Speed=5.904000m/h.</desc>
<speed>1.640000</speed>
</trkpt>
<trkpt lat="55.981152" lon="26.559647">
<ele>125.413147</ele>
<time>2010-08-29T09:20:10Z</time>
<desc>lat.=55.981152, lon.=26.559647, Alt.=125.413147m. Speed=6.624000m/h.</desc>
<speed>1.840000</speed>
</trkpt>
<trkpt lat="55.981178" lon="26.559631">
<ele>125.040100</ele>
<time>2010-08-29T09:20:11Z</time>
<desc>lat.=55.981178, lon.=26.559631, Alt.=125.040100m. Speed=5.688000m/h.</desc>
<speed>1.580000</speed>
</trkpt>
<trkpt lat="55.981220" lon="26.559631">
<ele>123.571350</ele>
<time>2010-08-29T09:20:12Z</time>
<desc>lat.=55.981220, lon.=26.559631, Alt.=123.571350m. Speed=5.724000m/h.</desc>
<speed>1.590000</speed>
</trkpt>
<trkpt lat="55.981262" lon="26.559631">
<ele>122.555725</ele>
<time>2010-08-29T09:20:13Z</time>
<desc>lat.=55.981262, lon.=26.559631, Alt.=122.555725m. Speed=5.400000m/h.</desc>
<speed>1.500000</speed>
</trkpt>
<trkpt lat="55.981281" lon="26.559626">
<ele>122.110413</ele>
<time>2010-08-29T09:20:14Z</time>
<desc>lat.=55.981281, lon.=26.559626, Alt.=122.110413m. Speed=4.500000m/h.</desc>
<speed>1.250000</speed>
</trkpt>
<trkpt lat="55.981312" lon="26.559595">
<ele>121.163147</ele>
<time>2010-08-29T09:20:15Z</time>
<desc>lat.=55.981312, lon.=26.559595, Alt.=121.163147m. Speed=5.400000m/h.</desc>
<speed>1.500000</speed>
</trkpt>
<trkpt lat="55.981327" lon="26.559595">
<ele>121.153381</ele>
<time>2010-08-29T09:20:16Z</time>
<desc>lat.=55.981327, lon.=26.559595, Alt.=121.153381m. Speed=2.700000m/h.</desc>
<speed>0.750000</speed>
</trkpt>
<trkpt lat="55.981346" lon="26.559597">
<ele>121.350647</ele>
<time>2010-08-29T09:20:17Z</time>
<desc>lat.=55.981346, lon.=26.559597, Alt.=121.350647m. Speed=3.888000m/h.</desc>
<speed>1.080000</speed>
</trkpt>
<trkpt lat="55.981365" lon="26.559593">
<ele>121.040100</ele>
<time>2010-08-29T09:20:18Z</time>
<desc>lat.=55.981365, lon.=26.559593, Alt.=121.040100m. Speed=3.312000m/h.</desc>
<speed>0.920000</speed>
</trkpt>
<trkpt lat="55.981377" lon="26.559595">
<ele>121.249084</ele>
<time>2010-08-29T09:20:19Z</time>
<desc>lat.=55.981377, lon.=26.559595, Alt.=121.249084m. Speed=2.484000m/h.</desc>
<speed>0.690000</speed>
</trkpt>
<trkpt lat="55.981392" lon="26.559601">
<ele>121.163147</ele>
<time>2010-08-29T09:20:20Z</time>
<desc>lat.=55.981392, lon.=26.559601, Alt.=121.163147m. Speed=2.304000m/h.</desc>
<speed>0.640000</speed>
</trkpt>
<trkpt lat="55.981407" lon="26.559610">
<ele>120.864319</ele>
<time>2010-08-29T09:20:21Z</time>
<desc>lat.=55.981407, lon.=26.559610, Alt.=120.864319m. Speed=1.332000m/h.</desc>
<speed>0.370000</speed>
</trkpt>
<trkpt lat="55.981411" lon="26.559612">
<ele>120.751038</ele>
<time>2010-08-29T09:20:22Z</time>
<desc>lat.=55.981411, lon.=26.559612, Alt.=120.751038m. Speed=0.720000m/h.</desc>
<speed>0.200000</speed>
</trkpt>
<trkpt lat="55.981411" lon="26.559608">
<ele>120.608459</ele>
<time>2010-08-29T09:20:23Z</time>
<desc>lat.=55.981411, lon.=26.559608, Alt.=120.608459m. Speed=0.468000m/h.</desc>
<speed>0.130000</speed>
</trkpt>
<trkpt lat="55.981411" lon="26.559608">
<ele>120.501038</ele>
<time>2010-08-29T09:20:24Z</time>
<desc>lat.=55.981411, lon.=26.559608, Alt.=120.501038m. Speed=0.288000m/h.</desc>
<speed>0.080000</speed>
</trkpt>
<trkpt lat="55.981415" lon="26.559608">
<ele>120.391663</ele>
<time>2010-08-29T09:20:25Z</time>
<desc>lat.=55.981415, lon.=26.559608, Alt.=120.391663m. Speed=0.468000m/h.</desc>
<speed>0.130000</speed>
</trkpt>
<trkpt lat="55.981415" lon="26.559610">
<ele>120.301819</ele>
<time>2010-08-29T09:20:26Z</time>
<desc>lat.=55.981415, lon.=26.559610, Alt.=120.301819m. Speed=0.468000m/h.</desc>
<speed>0.130000</speed>
</trkpt>
<trkpt lat="55.981415" lon="26.559608">
<ele>120.213928</ele>
<time>2010-08-29T09:20:27Z</time>
<desc>lat.=55.981415, lon.=26.559608, Alt.=120.213928m. Speed=0.576000m/h.</desc>
<speed>0.160000</speed>
</trkpt>
<trkpt lat="55.981419" lon="26.559607">
<ele>120.137756</ele>
<time>2010-08-29T09:20:28Z</time>
<desc>lat.=55.981419, lon.=26.559607, Alt.=120.137756m. Speed=0.900000m/h.</desc>
<speed>0.250000</speed>
</trkpt>
<trkpt lat="55.981419" lon="26.559605">
<ele>120.077209</ele>
<time>2010-08-29T09:20:29Z</time>
<desc>lat.=55.981419, lon.=26.559605, Alt.=120.077209m. Speed=1.008000m/h.</desc>
<speed>0.280000</speed>
</trkpt>
<trkpt lat="55.981422" lon="26.559603">
<ele>120.034241</ele>
<time>2010-08-29T09:20:30Z</time>
<desc>lat.=55.981422, lon.=26.559603, Alt.=120.034241m. Speed=1.296000m/h.</desc>
<speed>0.360000</speed>
</trkpt>
<trkpt lat="55.981426" lon="26.559599">
<ele>120.001038</ele>
<time>2010-08-29T09:20:31Z</time>
<desc>lat.=55.981426, lon.=26.559599, Alt.=120.001038m. Speed=1.620000m/h.</desc>
<speed>0.450000</speed>
</trkpt>
<trkpt lat="55.981430" lon="26.559597">
<ele>119.967834</ele>
<time>2010-08-29T09:20:32Z</time>
<desc>lat.=55.981430, lon.=26.559597, Alt.=119.967834m. Speed=1.512000m/h.</desc>
<speed>0.420000</speed>
</trkpt>
<trkpt lat="55.981434" lon="26.559595">
<ele>119.926819</ele>
<time>2010-08-29T09:20:33Z</time>
<desc>lat.=55.981434, lon.=26.559595, Alt.=119.926819m. Speed=1.692000m/h.</desc>
<speed>0.470000</speed>
</trkpt>
<trkpt lat="55.981438" lon="26.559597">
<ele>119.895569</ele>
<time>2010-08-29T09:20:34Z</time>
<desc>lat.=55.981438, lon.=26.559597, Alt.=119.895569m. Speed=2.520000m/h.</desc>
<speed>0.700000</speed>
</trkpt>
<trkpt lat="55.981445" lon="26.559603">
<ele>119.877991</ele>
<time>2010-08-29T09:20:35Z</time>
<desc>lat.=55.981445, lon.=26.559603, Alt.=119.877991m. Speed=3.672000m/h.</desc>
<speed>1.020000</speed>
</trkpt>
<trkpt lat="55.981461" lon="26.559605">
<ele>119.479553</ele>
<time>2010-08-29T09:20:36Z</time>
<desc>lat.=55.981461, lon.=26.559605, Alt.=119.479553m. Speed=3.564000m/h.</desc>
<speed>0.990000</speed>
</trkpt>
<trkpt lat="55.981472" lon="26.559597">
<ele>119.139709</ele>
<time>2010-08-29T09:20:37Z</time>
<desc>lat.=55.981472, lon.=26.559597, Alt.=119.139709m. Speed=2.844000m/h.</desc>
<speed>0.790000</speed>
</trkpt>
<trkpt lat="55.981491" lon="26.559589">
<ele>119.434631</ele>
<time>2010-08-29T09:20:38Z</time>
<desc>lat.=55.981491, lon.=26.559589, Alt.=119.434631m. Speed=2.772000m/h.</desc>
<speed>0.770000</speed>
</trkpt>
<trkpt lat="55.981506" lon="26.559593">
<ele>119.491272</ele>
<time>2010-08-29T09:20:39Z</time>
<desc>lat.=55.981506, lon.=26.559593, Alt.=119.491272m. Speed=2.952000m/h.</desc>
<speed>0.820000</speed>
</trkpt>
<trkpt lat="55.981522" lon="26.559599">
<ele>119.321350</ele>
<time>2010-08-29T09:20:40Z</time>
<desc>lat.=55.981522, lon.=26.559599, Alt.=119.321350m. Speed=3.168000m/h.</desc>
<speed>0.880000</speed>
</trkpt>
<trkpt lat="55.981541" lon="26.559601">
<ele>119.411194</ele>
<time>2010-08-29T09:20:41Z</time>
<desc>lat.=55.981541, lon.=26.559601, Alt.=119.411194m. Speed=3.600000m/h.</desc>
<speed>1.000000</speed>
</trkpt>
<trkpt lat="55.981560" lon="26.559593">
<ele>119.901428</ele>
<time>2010-08-29T09:20:42Z</time>
<desc>lat.=55.981560, lon.=26.559593, Alt.=119.901428m. Speed=3.492000m/h.</desc>
<speed>0.970000</speed>
</trkpt>
<trkpt lat="55.981583" lon="26.559591">
<ele>120.002991</ele>
<time>2010-08-29T09:20:43Z</time>
<desc>lat.=55.981583, lon.=26.559591, Alt.=120.002991m. Speed=4.284000m/h.</desc>
<speed>1.190000</speed>
</trkpt>
<trkpt lat="55.981598" lon="26.559593">
<ele>120.036194</ele>
<time>2010-08-29T09:20:44Z</time>
<desc>lat.=55.981598, lon.=26.559593, Alt.=120.036194m. Speed=3.888000m/h.</desc>
<speed>1.080000</speed>
</trkpt>
<trkpt lat="55.981617" lon="26.559599">
<ele>119.901428</ele>
<time>2010-08-29T09:20:45Z</time>
<desc>lat.=55.981617, lon.=26.559599, Alt.=119.901428m. Speed=4.320000m/h.</desc>
<speed>1.200000</speed>
</trkpt>
<trkpt lat="55.981659" lon="26.559587">
<ele>119.936584</ele>
<time>2010-08-29T09:20:46Z</time>
<desc>lat.=55.981659, lon.=26.559587, Alt.=119.936584m. Speed=5.904000m/h.</desc>
<speed>1.640000</speed>
</trkpt>
<trkpt lat="55.981689" lon="26.559597">
<ele>119.739319</ele>
<time>2010-08-29T09:20:47Z</time>
<desc>lat.=55.981689, lon.=26.559597, Alt.=119.739319m. Speed=7.920000m/h.</desc>
<speed>2.200000</speed>
</trkpt>
<trkpt lat="55.981728" lon="26.559589">
<ele>119.276428</ele>
<time>2010-08-29T09:20:48Z</time>
<desc>lat.=55.981728, lon.=26.559589, Alt.=119.276428m. Speed=8.064000m/h.</desc>
<speed>2.240000</speed>
</trkpt>
<trkpt lat="55.981754" lon="26.559597">
<ele>119.276428</ele>
<time>2010-08-29T09:20:49Z</time>
<desc>lat.=55.981754, lon.=26.559597, Alt.=119.276428m. Speed=6.336000m/h.</desc>
<speed>1.760000</speed>
</trkpt>
<trkpt lat="55.981792" lon="26.559599">
<ele>118.153381</ele>
<time>2010-08-29T09:20:50Z</time>
<desc>lat.=55.981792, lon.=26.559599, Alt.=118.153381m. Speed=7.992000m/h.</desc>
<speed>2.220000</speed>
</trkpt>
<trkpt lat="55.981823" lon="26.559603">
<ele>117.760803</ele>
<time>2010-08-29T09:20:51Z</time>
<desc>lat.=55.981823, lon.=26.559603, Alt.=117.760803m. Speed=8.100000m/h.</desc>
<speed>2.250000</speed>
</trkpt>
<trkpt lat="55.981853" lon="26.559605">
<ele>117.348694</ele>
<time>2010-08-29T09:20:52Z</time>
<desc>lat.=55.981853, lon.=26.559605, Alt.=117.348694m. Speed=7.452000m/h.</desc>
<speed>2.070000</speed>
</trkpt>
<trkpt lat="55.981884" lon="26.559618">
<ele>117.637756</ele>
<time>2010-08-29T09:20:53Z</time>
<desc>lat.=55.981884, lon.=26.559618, Alt.=117.637756m. Speed=7.632000m/h.</desc>
<speed>2.120000</speed>
</trkpt>
<trkpt lat="55.981926" lon="26.559624">
<ele>116.567444</ele>
<time>2010-08-29T09:20:54Z</time>
<desc>lat.=55.981926, lon.=26.559624, Alt.=116.567444m. Speed=8.388000m/h.</desc>
<speed>2.330000</speed>
</trkpt>
<trkpt lat="55.981960" lon="26.559633">
<ele>116.723694</ele>
<time>2010-08-29T09:20:55Z</time>
<desc>lat.=55.981960, lon.=26.559633, Alt.=116.723694m. Speed=8.172000m/h.</desc>
<speed>2.270000</speed>
</trkpt>
<trkpt lat="55.981995" lon="26.559671">
<ele>116.272522</ele>
<time>2010-08-29T09:20:56Z</time>
<desc>lat.=55.981995, lon.=26.559671, Alt.=116.272522m. Speed=8.964000m/h.</desc>
<speed>2.490000</speed>
</trkpt>
<trkpt lat="55.982018" lon="26.559689">
<ele>116.317444</ele>
<time>2010-08-29T09:20:57Z</time>
<desc>lat.=55.982018, lon.=26.559689, Alt.=116.317444m. Speed=7.884000m/h.</desc>
<speed>2.190000</speed>
</trkpt>
<trkpt lat="55.982048" lon="26.559706">
<ele>116.407288</ele>
<time>2010-08-29T09:20:58Z</time>
<desc>lat.=55.982048, lon.=26.559706, Alt.=116.407288m. Speed=9.504000m/h.</desc>
<speed>2.640000</speed>
</trkpt>
<trkpt lat="55.982079" lon="26.559727">
<ele>115.055725</ele>
<time>2010-08-29T09:20:59Z</time>
<desc>lat.=55.982079, lon.=26.559727, Alt.=115.055725m. Speed=10.728000m/h.</desc>
<speed>2.980000</speed>
</trkpt>
<trkpt lat="55.982121" lon="26.559761">
<ele>113.877991</ele>
<time>2010-08-29T09:21:00Z</time>
<desc>lat.=55.982121, lon.=26.559761, Alt.=113.877991m. Speed=11.700000m/h.</desc>
<speed>3.250000</speed>
</trkpt>
<trkpt lat="55.982143" lon="26.559795">
<ele>113.538147</ele>
<time>2010-08-29T09:21:01Z</time>
<desc>lat.=55.982143, lon.=26.559795, Alt.=113.538147m. Speed=11.412000m/h.</desc>
<speed>3.170000</speed>
</trkpt>
<trkpt lat="55.982178" lon="26.559835">
<ele>113.428772</ele>
<time>2010-08-29T09:21:02Z</time>
<desc>lat.=55.982178, lon.=26.559835, Alt.=113.428772m. Speed=11.016000m/h.</desc>
<speed>3.060000</speed>
</trkpt>
<trkpt lat="55.982204" lon="26.559866">
<ele>112.971741</ele>
<time>2010-08-29T09:21:03Z</time>
<desc>lat.=55.982204, lon.=26.559866, Alt.=112.971741m. Speed=8.316000m/h.</desc>
<speed>2.310000</speed>
</trkpt>
<trkpt lat="55.982227" lon="26.559896">
<ele>112.844788</ele>
<time>2010-08-29T09:21:04Z</time>
<desc>lat.=55.982227, lon.=26.559896, Alt.=112.844788m. Speed=8.280000m/h.</desc>
<speed>2.300000</speed>
</trkpt>
<trkpt lat="55.982250" lon="26.559933">
<ele>113.239319</ele>
<time>2010-08-29T09:21:05Z</time>
<desc>lat.=55.982250, lon.=26.559933, Alt.=113.239319m. Speed=9.288000m/h.</desc>
<speed>2.580000</speed>
</trkpt>
<trkpt lat="55.982273" lon="26.559965">
<ele>112.215881</ele>
<time>2010-08-29T09:21:06Z</time>
<desc>lat.=55.982273, lon.=26.559965, Alt.=112.215881m. Speed=10.692000m/h.</desc>
<speed>2.970000</speed>
</trkpt>
<trkpt lat="55.982311" lon="26.560003">
<ele>113.127991</ele>
<time>2010-08-29T09:21:07Z</time>
<desc>lat.=55.982311, lon.=26.560003, Alt.=113.127991m. Speed=10.980000m/h.</desc>
<speed>3.050000</speed>
</trkpt>
<trkpt lat="55.982334" lon="26.560034">
<ele>112.540100</ele>
<time>2010-08-29T09:21:08Z</time>
<desc>lat.=55.982334, lon.=26.560034, Alt.=112.540100m. Speed=6.588000m/h.</desc>
<speed>1.830000</speed>
</trkpt>
<trkpt lat="55.982361" lon="26.560059">
<ele>112.241272</ele>
<time>2010-08-29T09:21:09Z</time>
<desc>lat.=55.982361, lon.=26.560059, Alt.=112.241272m. Speed=7.704000m/h.</desc>
<speed>2.140000</speed>
</trkpt>
<trkpt lat="55.982407" lon="26.560093">
<ele>111.231506</ele>
<time>2010-08-29T09:21:10Z</time>
<desc>lat.=55.982407, lon.=26.560093, Alt.=111.231506m. Speed=7.488000m/h.</desc>
<speed>2.080000</speed>
</trkpt>
<trkpt lat="55.982430" lon="26.560099">
<ele>111.737366</ele>
<time>2010-08-29T09:21:11Z</time>
<desc>lat.=55.982430, lon.=26.560099, Alt.=111.737366m. Speed=6.300000m/h.</desc>
<speed>1.750000</speed>
</trkpt>
<trkpt lat="55.982456" lon="26.560122">
<ele>110.186584</ele>
<time>2010-08-29T09:21:12Z</time>
<desc>lat.=55.982456, lon.=26.560122, Alt.=110.186584m. Speed=4.644000m/h.</desc>
<speed>1.290000</speed>
</trkpt>
<trkpt lat="55.982475" lon="26.560143">
<ele>110.016663</ele>
<time>2010-08-29T09:21:13Z</time>
<desc>lat.=55.982475, lon.=26.560143, Alt.=110.016663m. Speed=3.528000m/h.</desc>
<speed>0.980000</speed>
</trkpt>
<trkpt lat="55.982498" lon="26.560167">
<ele>108.411194</ele>
<time>2010-08-29T09:21:14Z</time>
<desc>lat.=55.982498, lon.=26.560167, Alt.=108.411194m. Speed=2.952000m/h.</desc>
<speed>0.820000</speed>
</trkpt>
<trkpt lat="55.982521" lon="26.560198">
<ele>106.376038</ele>
<time>2010-08-29T09:21:15Z</time>
<desc>lat.=55.982521, lon.=26.560198, Alt.=106.376038m. Speed=2.952000m/h.</desc>
<speed>0.820000</speed>
</trkpt>
<trkpt lat="55.982536" lon="26.560221">
<ele>104.975647</ele>
<time>2010-08-29T09:21:16Z</time>
<desc>lat.=55.982536, lon.=26.560221, Alt.=104.975647m. Speed=3.312000m/h.</desc>
<speed>0.920000</speed>
</trkpt>
<trkpt lat="55.982555" lon="26.560247">
<ele>102.954163</ele>
<time>2010-08-29T09:21:17Z</time>
<desc>lat.=55.982555, lon.=26.560247, Alt.=102.954163m. Speed=3.060000m/h.</desc>
<speed>0.850000</speed>
</trkpt>
<trkpt lat="55.982567" lon="26.560263">
<ele>102.372131</ele>
<time>2010-08-29T09:21:18Z</time>
<desc>lat.=55.982567, lon.=26.560263, Alt.=102.372131m. Speed=3.528000m/h.</desc>
<speed>0.980000</speed>
</trkpt>
<trkpt lat="55.982586" lon="26.560272">
<ele>102.047913</ele>
<time>2010-08-29T09:21:19Z</time>
<desc>lat.=55.982586, lon.=26.560272, Alt.=102.047913m. Speed=4.428000m/h.</desc>
<speed>1.230000</speed>
</trkpt>
<trkpt lat="55.982613" lon="26.560282">
<ele>101.581116</ele>
<time>2010-08-29T09:21:20Z</time>
<desc>lat.=55.982613, lon.=26.560282, Alt.=101.581116m. Speed=4.572000m/h.</desc>
<speed>1.270000</speed>
</trkpt>
<trkpt lat="55.982643" lon="26.560299">
<ele>101.559631</ele>
<time>2010-08-29T09:21:21Z</time>
<desc>lat.=55.982643, lon.=26.560299, Alt.=101.559631m. Speed=5.220000m/h.</desc>
<speed>1.450000</speed>
</trkpt>
<trkpt lat="55.982662" lon="26.560305">
<ele>100.985413</ele>
<time>2010-08-29T09:21:22Z</time>
<desc>lat.=55.982662, lon.=26.560305, Alt.=100.985413m. Speed=2.340000m/h.</desc>
<speed>0.650000</speed>
</trkpt>
<trkpt lat="55.982708" lon="26.560308">
<ele>100.661194</ele>
<time>2010-08-29T09:21:23Z</time>
<desc>lat.=55.982708, lon.=26.560308, Alt.=100.661194m. Speed=5.112000m/h.</desc>
<speed>1.420000</speed>
</trkpt>
<trkpt lat="55.982731" lon="26.560305">
<ele>100.231506</ele>
<time>2010-08-29T09:21:24Z</time>
<desc>lat.=55.982731, lon.=26.560305, Alt.=100.231506m. Speed=5.004000m/h.</desc>
<speed>1.390000</speed>
</trkpt>
<trkpt lat="55.982769" lon="26.560312">
<ele>99.979553</ele>
<time>2010-08-29T09:21:25Z</time>
<desc>lat.=55.982769, lon.=26.560312, Alt.=99.979553m. Speed=4.752000m/h.</desc>
<speed>1.320000</speed>
</trkpt>
<trkpt lat="55.982800" lon="26.560312">
<ele>99.745178</ele>
<time>2010-08-29T09:21:26Z</time>
<desc>lat.=55.982800, lon.=26.560312, Alt.=99.745178m. Speed=4.320000m/h.</desc>
<speed>1.200000</speed>
</trkpt>
<trkpt lat="55.982826" lon="26.560310">
<ele>99.999084</ele>
<time>2010-08-29T09:21:27Z</time>
<desc>lat.=55.982826, lon.=26.560310, Alt.=99.999084m. Speed=6.084000m/h.</desc>
<speed>1.690000</speed>
</trkpt>
<trkpt lat="55.982853" lon="26.560318">
<ele>100.127991</ele>
<time>2010-08-29T09:21:28Z</time>
<desc>lat.=55.982853, lon.=26.560318, Alt.=100.127991m. Speed=4.896000m/h.</desc>
<speed>1.360000</speed>
</trkpt>
<trkpt lat="55.982868" lon="26.560329">
<ele>100.294006</ele>
<time>2010-08-29T09:21:29Z</time>
<desc>lat.=55.982868, lon.=26.560329, Alt.=100.294006m. Speed=4.104000m/h.</desc>
<speed>1.140000</speed>
</trkpt>
<trkpt lat="55.982895" lon="26.560333">
<ele>100.512756</ele>
<time>2010-08-29T09:21:30Z</time>
<desc>lat.=55.982895, lon.=26.560333, Alt.=100.512756m. Speed=3.348000m/h.</desc>
<speed>0.930000</speed>
</trkpt>
<trkpt lat="55.982922" lon="26.560345">
<ele>100.655334</ele>
<time>2010-08-29T09:21:31Z</time>
<desc>lat.=55.982922, lon.=26.560345, Alt.=100.655334m. Speed=4.500000m/h.</desc>
<speed>1.250000</speed>
</trkpt>
<trkpt lat="55.982941" lon="26.560354">
<ele>100.696350</ele>
<time>2010-08-29T09:21:32Z</time>
<desc>lat.=55.982941, lon.=26.560354, Alt.=100.696350m. Speed=4.320000m/h.</desc>
<speed>1.200000</speed>
</trkpt>
<trkpt lat="55.982956" lon="26.560368">
<ele>100.520569</ele>
<time>2010-08-29T09:21:33Z</time>
<desc>lat.=55.982956, lon.=26.560368, Alt.=100.520569m. Speed=4.716000m/h.</desc>
<speed>1.310000</speed>
</trkpt>
<trkpt lat="55.982983" lon="26.560375">
<ele>99.920959</ele>
<time>2010-08-29T09:21:34Z</time>
<desc>lat.=55.982983, lon.=26.560375, Alt.=99.920959m. Speed=4.284000m/h.</desc>
<speed>1.190000</speed>
</trkpt>
<trkpt lat="55.983006" lon="26.560385">
<ele>99.721741</ele>
<time>2010-08-29T09:21:35Z</time>
<desc>lat.=55.983006, lon.=26.560385, Alt.=99.721741m. Speed=3.852000m/h.</desc>
<speed>1.070000</speed>
</trkpt>
<trkpt lat="55.983032" lon="26.560379">
<ele>99.690491</ele>
<time>2010-08-29T09:21:36Z</time>
<desc>lat.=55.983032, lon.=26.560379, Alt.=99.690491m. Speed=5.940000m/h.</desc>
<speed>1.650000</speed>
</trkpt>
<trkpt lat="55.983047" lon="26.560385">
<ele>99.348694</ele>
<time>2010-08-29T09:21:37Z</time>
<desc>lat.=55.983047, lon.=26.560385, Alt.=99.348694m. Speed=2.988000m/h.</desc>
<speed>0.830000</speed>
</trkpt>
<trkpt lat="55.983059" lon="26.560406">
<ele>98.915100</ele>
<time>2010-08-29T09:21:38Z</time>
<desc>lat.=55.983059, lon.=26.560406, Alt.=98.915100m. Speed=2.664000m/h.</desc>
<speed>0.740000</speed>
</trkpt>
<trkpt lat="55.983086" lon="26.560402">
<ele>98.987366</ele>
<time>2010-08-29T09:21:39Z</time>
<desc>lat.=55.983086, lon.=26.560402, Alt.=98.987366m. Speed=3.168000m/h.</desc>
<speed>0.880000</speed>
</trkpt>
<trkpt lat="55.983109" lon="26.560410">
<ele>98.731506</ele>
<time>2010-08-29T09:21:40Z</time>
<desc>lat.=55.983109, lon.=26.560410, Alt.=98.731506m. Speed=2.916000m/h.</desc>
<speed>0.810000</speed>
</trkpt>
<trkpt lat="55.983131" lon="26.560425">
<ele>98.592834</ele>
<time>2010-08-29T09:21:41Z</time>
<desc>lat.=55.983131, lon.=26.560425, Alt.=98.592834m. Speed=3.384000m/h.</desc>
<speed>0.940000</speed>
</trkpt>
<trkpt lat="55.983147" lon="26.560434">
<ele>98.483459</ele>
<time>2010-08-29T09:21:42Z</time>
<desc>lat.=55.983147, lon.=26.560434, Alt.=98.483459m. Speed=3.312000m/h.</desc>
<speed>0.920000</speed>
</trkpt>
<trkpt lat="55.983166" lon="26.560440">
<ele>98.278381</ele>
<time>2010-08-29T09:21:43Z</time>
<desc>lat.=55.983166, lon.=26.560440, Alt.=98.278381m. Speed=3.564000m/h.</desc>
<speed>0.990000</speed>
</trkpt>
<trkpt lat="55.983181" lon="26.560453">
<ele>98.237366</ele>
<time>2010-08-29T09:21:44Z</time>
<desc>lat.=55.983181, lon.=26.560453, Alt.=98.237366m. Speed=3.384000m/h.</desc>
<speed>0.940000</speed>
</trkpt>
<trkpt lat="55.983208" lon="26.560463">
<ele>98.170959</ele>
<time>2010-08-29T09:21:45Z</time>
<desc>lat.=55.983208, lon.=26.560463, Alt.=98.170959m. Speed=4.212000m/h.</desc>
<speed>1.170000</speed>
</trkpt>
<trkpt lat="55.983234" lon="26.560482">
<ele>98.126038</ele>
<time>2010-08-29T09:21:46Z</time>
<desc>lat.=55.983234, lon.=26.560482, Alt.=98.126038m. Speed=4.104000m/h.</desc>
<speed>1.140000</speed>
</trkpt>
<trkpt lat="55.983253" lon="26.560499">
<ele>97.979553</ele>
<time>2010-08-29T09:21:47Z</time>
<desc>lat.=55.983253, lon.=26.560499, Alt.=97.979553m. Speed=4.680000m/h.</desc>
<speed>1.300000</speed>
</trkpt>
<trkpt lat="55.983273" lon="26.560516">
<ele>98.182678</ele>
<time>2010-08-29T09:21:48Z</time>
<desc>lat.=55.983273, lon.=26.560516, Alt.=98.182678m. Speed=5.184000m/h.</desc>
<speed>1.440000</speed>
</trkpt>
<trkpt lat="55.983299" lon="26.560535">
<ele>98.446350</ele>
<time>2010-08-29T09:21:49Z</time>
<desc>lat.=55.983299, lon.=26.560535, Alt.=98.446350m. Speed=4.968000m/h.</desc>
<speed>1.380000</speed>
</trkpt>
<trkpt lat="55.983326" lon="26.560543">
<ele>98.305725</ele>
<time>2010-08-29T09:21:50Z</time>
<desc>lat.=55.983326, lon.=26.560543, Alt.=98.305725m. Speed=3.816000m/h.</desc>
<speed>1.060000</speed>
</trkpt>
<trkpt lat="55.983341" lon="26.560556">
<ele>98.178772</ele>
<time>2010-08-29T09:21:51Z</time>
<desc>lat.=55.983341, lon.=26.560556, Alt.=98.178772m. Speed=3.096000m/h.</desc>
<speed>0.860000</speed>
</trkpt>
<trkpt lat="55.983356" lon="26.560568">
<ele>98.231506</ele>
<time>2010-08-29T09:21:52Z</time>
<desc>lat.=55.983356, lon.=26.560568, Alt.=98.231506m. Speed=2.592000m/h.</desc>
<speed>0.720000</speed>
</trkpt>
<trkpt lat="55.983383" lon="26.560574">
<ele>98.682678</ele>
<time>2010-08-29T09:21:53Z</time>
<desc>lat.=55.983383, lon.=26.560574, Alt.=98.682678m. Speed=2.952000m/h.</desc>
<speed>0.820000</speed>
</trkpt>
<trkpt lat="55.983421" lon="26.560587">
<ele>99.135803</ele>
<time>2010-08-29T09:21:54Z</time>
<desc>lat.=55.983421, lon.=26.560587, Alt.=99.135803m. Speed=3.672000m/h.</desc>
<speed>1.020000</speed>
</trkpt>
<trkpt lat="55.983479" lon="26.560591">
<ele>99.284241</ele>
<time>2010-08-29T09:21:55Z</time>
<desc>lat.=55.983479, lon.=26.560591, Alt.=99.284241m. Speed=5.904000m/h.</desc>
<speed>1.640000</speed>
</trkpt>
<trkpt lat="55.983513" lon="26.560598">
<ele>99.526428</ele>
<time>2010-08-29T09:21:56Z</time>
<desc>lat.=55.983513, lon.=26.560598, Alt.=99.526428m. Speed=6.408000m/h.</desc>
<speed>1.780000</speed>
</trkpt>
<trkpt lat="55.983540" lon="26.560608">
<ele>99.475647</ele>
<time>2010-08-29T09:21:57Z</time>
<desc>lat.=55.983540, lon.=26.560608, Alt.=99.475647m. Speed=6.444000m/h.</desc>
<speed>1.790000</speed>
</trkpt>
<trkpt lat="55.983566" lon="26.560612">
<ele>99.467834</ele>
<time>2010-08-29T09:21:58Z</time>
<desc>lat.=55.983566, lon.=26.560612, Alt.=99.467834m. Speed=5.868000m/h.</desc>
<speed>1.630000</speed>
</trkpt>
<trkpt lat="55.983593" lon="26.560612">
<ele>99.348694</ele>
<time>2010-08-29T09:21:59Z</time>
<desc>lat.=55.983593, lon.=26.560612, Alt.=99.348694m. Speed=5.220000m/h.</desc>
<speed>1.450000</speed>
</trkpt>
<trkpt lat="55.983631" lon="26.560602">
<ele>99.381897</ele>
<time>2010-08-29T09:22:00Z</time>
<desc>lat.=55.983631, lon.=26.560602, Alt.=99.381897m. Speed=6.804000m/h.</desc>
<speed>1.890000</speed>
</trkpt>
<trkpt lat="55.983685" lon="26.560596">
<ele>99.491272</ele>
<time>2010-08-29T09:22:01Z</time>
<desc>lat.=55.983685, lon.=26.560596, Alt.=99.491272m. Speed=6.912000m/h.</desc>
<speed>1.920000</speed>
</trkpt>
<trkpt lat="55.983742" lon="26.560583">
<ele>100.040100</ele>
<time>2010-08-29T09:22:02Z</time>
<desc>lat.=55.983742, lon.=26.560583, Alt.=100.040100m. Speed=7.164000m/h.</desc>
<speed>1.990000</speed>
</trkpt>
<trkpt lat="55.983761" lon="26.560574">
<ele>99.842834</ele>
<time>2010-08-29T09:22:03Z</time>
<desc>lat.=55.983761, lon.=26.560574, Alt.=99.842834m. Speed=2.160000m/h.</desc>
<speed>0.600000</speed>
</trkpt>
<trkpt lat="55.983784" lon="26.560560">
<ele>98.868225</ele>
<time>2010-08-29T09:22:04Z</time>
<desc>lat.=55.983784, lon.=26.560560, Alt.=98.868225m. Speed=5.544000m/h.</desc>
<speed>1.540000</speed>
</trkpt>
<trkpt lat="55.983814" lon="26.560551">
<ele>98.788147</ele>
<time>2010-08-29T09:22:05Z</time>
<desc>lat.=55.983814, lon.=26.560551, Alt.=98.788147m. Speed=6.048000m/h.</desc>
<speed>1.680000</speed>
</trkpt>
<trkpt lat="55.983837" lon="26.560558">
<ele>98.079163</ele>
<time>2010-08-29T09:22:06Z</time>
<desc>lat.=55.983837, lon.=26.560558, Alt.=98.079163m. Speed=4.752000m/h.</desc>
<speed>1.320000</speed>
</trkpt>
<trkpt lat="55.983860" lon="26.560577">
<ele>97.276428</ele>
<time>2010-08-29T09:22:07Z</time>
<desc>lat.=55.983860, lon.=26.560577, Alt.=97.276428m. Speed=5.076000m/h.</desc>
<speed>1.410000</speed>
</trkpt>
<trkpt lat="55.983871" lon="26.560589">
<ele>96.899475</ele>
<time>2010-08-29T09:22:08Z</time>
<desc>lat.=55.983871, lon.=26.560589, Alt.=96.899475m. Speed=4.428000m/h.</desc>
<speed>1.230000</speed>
</trkpt>
<trkpt lat="55.983891" lon="26.560593">
<ele>96.528381</ele>
<time>2010-08-29T09:22:09Z</time>
<desc>lat.=55.983891, lon.=26.560593, Alt.=96.528381m. Speed=3.852000m/h.</desc>
<speed>1.070000</speed>
</trkpt>
<trkpt lat="55.983913" lon="26.560587">
<ele>96.329163</ele>
<time>2010-08-29T09:22:10Z</time>
<desc>lat.=55.983913, lon.=26.560587, Alt.=96.329163m. Speed=5.112000m/h.</desc>
<speed>1.420000</speed>
</trkpt>
<trkpt lat="55.983944" lon="26.560598">
<ele>96.489319</ele>
<time>2010-08-29T09:22:11Z</time>
<desc>lat.=55.983944, lon.=26.560598, Alt.=96.489319m. Speed=6.480000m/h.</desc>
<speed>1.800000</speed>
</trkpt>
<trkpt lat="55.983974" lon="26.560595">
<ele>97.020569</ele>
<time>2010-08-29T09:22:12Z</time>
<desc>lat.=55.983974, lon.=26.560595, Alt.=97.020569m. Speed=6.048000m/h.</desc>
<speed>1.680000</speed>
</trkpt>
<trkpt lat="55.984005" lon="26.560602">
<ele>97.491272</ele>
<time>2010-08-29T09:22:13Z</time>
<desc>lat.=55.984005, lon.=26.560602, Alt.=97.491272m. Speed=4.716000m/h.</desc>
<speed>1.310000</speed>
</trkpt>
<trkpt lat="55.984035" lon="26.560602">
<ele>98.081116</ele>
<time>2010-08-29T09:22:14Z</time>
<desc>lat.=55.984035, lon.=26.560602, Alt.=98.081116m. Speed=5.220000m/h.</desc>
<speed>1.450000</speed>
</trkpt>
<trkpt lat="55.984081" lon="26.560585">
<ele>98.465881</ele>
<time>2010-08-29T09:22:15Z</time>
<desc>lat.=55.984081, lon.=26.560585, Alt.=98.465881m. Speed=8.784000m/h.</desc>
<speed>2.440000</speed>
</trkpt>
<trkpt lat="55.984116" lon="26.560570">
<ele>98.422913</ele>
<time>2010-08-29T09:22:16Z</time>
<desc>lat.=55.984116, lon.=26.560570, Alt.=98.422913m. Speed=6.336000m/h.</desc>
<speed>1.760000</speed>
</trkpt>
<trkpt lat="55.984150" lon="26.560566">
<ele>98.200256</ele>
<time>2010-08-29T09:22:17Z</time>
<desc>lat.=55.984150, lon.=26.560566, Alt.=98.200256m. Speed=8.136000m/h.</desc>
<speed>2.260000</speed>
</trkpt>
<trkpt lat="55.984180" lon="26.560558">
<ele>98.823303</ele>
<time>2010-08-29T09:22:18Z</time>
<desc>lat.=55.984180, lon.=26.560558, Alt.=98.823303m. Speed=5.220000m/h.</desc>
<speed>1.450000</speed>
</trkpt>
<trkpt lat="55.984200" lon="26.560564">
<ele>98.938538</ele>
<time>2010-08-29T09:22:19Z</time>
<desc>lat.=55.984200, lon.=26.560564, Alt.=98.938538m. Speed=4.752000m/h.</desc>
<speed>1.320000</speed>
</trkpt>
<trkpt lat="55.984226" lon="26.560570">
<ele>98.489319</ele>
<time>2010-08-29T09:22:20Z</time>
<desc>lat.=55.984226, lon.=26.560570, Alt.=98.489319m. Speed=6.516000m/h.</desc>
<speed>1.810000</speed>
</trkpt>
<trkpt lat="55.984253" lon="26.560575">
<ele>98.528381</ele>
<time>2010-08-29T09:22:21Z</time>
<desc>lat.=55.984253, lon.=26.560575, Alt.=98.528381m. Speed=5.760000m/h.</desc>
<speed>1.600000</speed>
</trkpt>
<trkpt lat="55.984276" lon="26.560583">
<ele>98.823303</ele>
<time>2010-08-29T09:22:22Z</time>
<desc>lat.=55.984276, lon.=26.560583, Alt.=98.823303m. Speed=4.068000m/h.</desc>
<speed>1.130000</speed>
</trkpt>
<trkpt lat="55.984299" lon="26.560583">
<ele>99.206116</ele>
<time>2010-08-29T09:22:23Z</time>
<desc>lat.=55.984299, lon.=26.560583, Alt.=99.206116m. Speed=4.572000m/h.</desc>
<speed>1.270000</speed>
</trkpt>
<trkpt lat="55.984325" lon="26.560585">
<ele>99.989319</ele>
<time>2010-08-29T09:22:24Z</time>
<desc>lat.=55.984325, lon.=26.560585, Alt.=99.989319m. Speed=2.376000m/h.</desc>
<speed>0.660000</speed>
</trkpt>
<trkpt lat="55.984360" lon="26.560587">
<ele>101.477600</ele>
<time>2010-08-29T09:22:25Z</time>
<desc>lat.=55.984360, lon.=26.560587, Alt.=101.477600m. Speed=2.736000m/h.</desc>
<speed>0.760000</speed>
</trkpt>
<trkpt lat="55.984383" lon="26.560589">
<ele>102.045959</ele>
<time>2010-08-29T09:22:26Z</time>
<desc>lat.=55.984383, lon.=26.560589, Alt.=102.045959m. Speed=2.772000m/h.</desc>
<speed>0.770000</speed>
</trkpt>
<trkpt lat="55.984398" lon="26.560596">
<ele>102.073303</ele>
<time>2010-08-29T09:22:27Z</time>
<desc>lat.=55.984398, lon.=26.560596, Alt.=102.073303m. Speed=3.528000m/h.</desc>
<speed>0.980000</speed>
</trkpt>
<trkpt lat="55.984417" lon="26.560598">
<ele>101.739319</ele>
<time>2010-08-29T09:22:28Z</time>
<desc>lat.=55.984417, lon.=26.560598, Alt.=101.739319m. Speed=5.292000m/h.</desc>
<speed>1.470000</speed>
</trkpt>
<trkpt lat="55.984432" lon="26.560602">
<ele>101.651428</ele>
<time>2010-08-29T09:22:29Z</time>
<desc>lat.=55.984432, lon.=26.560602, Alt.=101.651428m. Speed=4.896000m/h.</desc>
<speed>1.360000</speed>
</trkpt>
<trkpt lat="55.984459" lon="26.560596">
<ele>101.044006</ele>
<time>2010-08-29T09:22:30Z</time>
<desc>lat.=55.984459, lon.=26.560596, Alt.=101.044006m. Speed=10.080000m/h.</desc>
<speed>2.800000</speed>
</trkpt>
<trkpt lat="55.984493" lon="26.560585">
<ele>100.700256</ele>
<time>2010-08-29T09:22:31Z</time>
<desc>lat.=55.984493, lon.=26.560585, Alt.=100.700256m. Speed=6.516000m/h.</desc>
<speed>1.810000</speed>
</trkpt>
<trkpt lat="55.984509" lon="26.560589">
<ele>100.776428</ele>
<time>2010-08-29T09:22:32Z</time>
<desc>lat.=55.984509, lon.=26.560589, Alt.=100.776428m. Speed=5.040000m/h.</desc>
<speed>1.400000</speed>
</trkpt>
<trkpt lat="55.984535" lon="26.560596">
<ele>101.292053</ele>
<time>2010-08-29T09:22:33Z</time>
<desc>lat.=55.984535, lon.=26.560596, Alt.=101.292053m. Speed=4.104000m/h.</desc>
<speed>1.140000</speed>
</trkpt>
<trkpt lat="55.984566" lon="26.560600">
<ele>101.489319</ele>
<time>2010-08-29T09:22:34Z</time>
<desc>lat.=55.984566, lon.=26.560600, Alt.=101.489319m. Speed=4.896000m/h.</desc>
<speed>1.360000</speed>
</trkpt>
<trkpt lat="55.984596" lon="26.560602">
<ele>101.618225</ele>
<time>2010-08-29T09:22:35Z</time>
<desc>lat.=55.984596, lon.=26.560602, Alt.=101.618225m. Speed=2.556000m/h.</desc>
<speed>0.710000</speed>
</trkpt>
<trkpt lat="55.984646" lon="26.560600">
<ele>101.473694</ele>
<time>2010-08-29T09:22:36Z</time>
<desc>lat.=55.984646, lon.=26.560600, Alt.=101.473694m. Speed=6.444000m/h.</desc>
<speed>1.790000</speed>
</trkpt>
<trkpt lat="55.984680" lon="26.560600">
<ele>101.401428</ele>
<time>2010-08-29T09:22:37Z</time>
<desc>lat.=55.984680, lon.=26.560600, Alt.=101.401428m. Speed=5.544000m/h.</desc>
<speed>1.540000</speed>
</trkpt>
<trkpt lat="55.984715" lon="26.560593">
<ele>101.137756</ele>
<time>2010-08-29T09:22:38Z</time>
<desc>lat.=55.984715, lon.=26.560593, Alt.=101.137756m. Speed=7.452000m/h.</desc>
<speed>2.070000</speed>
</trkpt>
<trkpt lat="55.984741" lon="26.560595">
<ele>101.522522</ele>
<time>2010-08-29T09:22:39Z</time>
<desc>lat.=55.984741, lon.=26.560595, Alt.=101.522522m. Speed=4.968000m/h.</desc>
<speed>1.380000</speed>
</trkpt>
<trkpt lat="55.984772" lon="26.560587">
<ele>101.376038</ele>
<time>2010-08-29T09:22:40Z</time>
<desc>lat.=55.984772, lon.=26.560587, Alt.=101.376038m. Speed=6.444000m/h.</desc>
<speed>1.790000</speed>
</trkpt>
<trkpt lat="55.984791" lon="26.560575">
<ele>101.086975</ele>
<time>2010-08-29T09:22:41Z</time>
<desc>lat.=55.984791, lon.=26.560575, Alt.=101.086975m. Speed=6.660000m/h.</desc>
<speed>1.850000</speed>
</trkpt>
<trkpt lat="55.984814" lon="26.560572">
<ele>101.270569</ele>
<time>2010-08-29T09:22:42Z</time>
<desc>lat.=55.984814, lon.=26.560572, Alt.=101.270569m. Speed=6.984000m/h.</desc>
<speed>1.940000</speed>
</trkpt>
<trkpt lat="55.984852" lon="26.560553">
<ele>101.737366</ele>
<time>2010-08-29T09:22:43Z</time>
<desc>lat.=55.984852, lon.=26.560553, Alt.=101.737366m. Speed=6.192000m/h.</desc>
<speed>1.720000</speed>
</trkpt>
<trkpt lat="55.984875" lon="26.560537">
<ele>102.233459</ele>
<time>2010-08-29T09:22:44Z</time>
<desc>lat.=55.984875, lon.=26.560537, Alt.=102.233459m. Speed=7.488000m/h.</desc>
<speed>2.080000</speed>
</trkpt>
<trkpt lat="55.984894" lon="26.560530">
<ele>102.643616</ele>
<time>2010-08-29T09:22:45Z</time>
<desc>lat.=55.984894, lon.=26.560530, Alt.=102.643616m. Speed=5.400000m/h.</desc>
<speed>1.500000</speed>
</trkpt>
<trkpt lat="55.984932" lon="26.560526">
<ele>104.169006</ele>
<time>2010-08-29T09:22:46Z</time>
<desc>lat.=55.984932, lon.=26.560526, Alt.=104.169006m. Speed=5.256000m/h.</desc>
<speed>1.460000</speed>
</trkpt>
<trkpt lat="55.984943" lon="26.560524">
<ele>104.852600</ele>
<time>2010-08-29T09:22:47Z</time>
<desc>lat.=55.984943, lon.=26.560524, Alt.=104.852600m. Speed=7.272000m/h.</desc>
<speed>2.020000</speed>
</trkpt>
<trkpt lat="55.984970" lon="26.560520">
<ele>106.157288</ele>
<time>2010-08-29T09:22:48Z</time>
<desc>lat.=55.984970, lon.=26.560520, Alt.=106.157288m. Speed=9.288000m/h.</desc>
<speed>2.580000</speed>
</trkpt>
<trkpt lat="55.985016" lon="26.560507">
<ele>107.563538</ele>
<time>2010-08-29T09:22:49Z</time>
<desc>lat.=55.985016, lon.=26.560507, Alt.=107.563538m. Speed=9.036000m/h.</desc>
<speed>2.510000</speed>
</trkpt>
<trkpt lat="55.985062" lon="26.560501">
<ele>108.647522</ele>
<time>2010-08-29T09:22:50Z</time>
<desc>lat.=55.985062, lon.=26.560501, Alt.=108.647522m. Speed=10.692000m/h.</desc>
<speed>2.970000</speed>
</trkpt>
<trkpt lat="55.985100" lon="26.560486">
<ele>109.456116</ele>
<time>2010-08-29T09:22:51Z</time>
<desc>lat.=55.985100, lon.=26.560486, Alt.=109.456116m. Speed=10.836000m/h.</desc>
<speed>3.010000</speed>
</trkpt>
<trkpt lat="55.985126" lon="26.560478">
<ele>108.567444</ele>
<time>2010-08-29T09:22:52Z</time>
<desc>lat.=55.985126, lon.=26.560478, Alt.=108.567444m. Speed=9.360000m/h.</desc>
<speed>2.600000</speed>
</trkpt>
<trkpt lat="55.985157" lon="26.560471">
<ele>108.536194</ele>
<time>2010-08-29T09:22:53Z</time>
<desc>lat.=55.985157, lon.=26.560471, Alt.=108.536194m. Speed=7.992000m/h.</desc>
<speed>2.220000</speed>
</trkpt>
<trkpt lat="55.985176" lon="26.560471">
<ele>108.098694</ele>
<time>2010-08-29T09:22:54Z</time>
<desc>lat.=55.985176, lon.=26.560471, Alt.=108.098694m. Speed=6.948000m/h.</desc>
<speed>1.930000</speed>
</trkpt>
<trkpt lat="55.985199" lon="26.560478">
<ele>107.614319</ele>
<time>2010-08-29T09:22:55Z</time>
<desc>lat.=55.985199, lon.=26.560478, Alt.=107.614319m. Speed=5.652000m/h.</desc>
<speed>1.570000</speed>
</trkpt>
<trkpt lat="55.985222" lon="26.560476">
<ele>107.567444</ele>
<time>2010-08-29T09:22:56Z</time>
<desc>lat.=55.985222, lon.=26.560476, Alt.=107.567444m. Speed=4.716000m/h.</desc>
<speed>1.310000</speed>
</trkpt>
<trkpt lat="55.985241" lon="26.560478">
<ele>108.180725</ele>
<time>2010-08-29T09:22:57Z</time>
<desc>lat.=55.985241, lon.=26.560478, Alt.=108.180725m. Speed=4.248000m/h.</desc>
<speed>1.180000</speed>
</trkpt>
<trkpt lat="55.985275" lon="26.560486">
<ele>107.383850</ele>
<time>2010-08-29T09:22:58Z</time>
<desc>lat.=55.985275, lon.=26.560486, Alt.=107.383850m. Speed=4.860000m/h.</desc>
<speed>1.350000</speed>
</trkpt>
<trkpt lat="55.985306" lon="26.560486">
<ele>107.040100</ele>
<time>2010-08-29T09:22:59Z</time>
<desc>lat.=55.985306, lon.=26.560486, Alt.=107.040100m. Speed=7.704000m/h.</desc>
<speed>2.140000</speed>
</trkpt>
<trkpt lat="55.985329" lon="26.560476">
<ele>107.635803</ele>
<time>2010-08-29T09:23:00Z</time>
<desc>lat.=55.985329, lon.=26.560476, Alt.=107.635803m. Speed=6.552000m/h.</desc>
<speed>1.820000</speed>
</trkpt>
<trkpt lat="55.985355" lon="26.560469">
<ele>107.219788</ele>
<time>2010-08-29T09:23:01Z</time>
<desc>lat.=55.985355, lon.=26.560469, Alt.=107.219788m. Speed=5.364000m/h.</desc>
<speed>1.490000</speed>
</trkpt>
<trkpt lat="55.985394" lon="26.560455">
<ele>107.301819</ele>
<time>2010-08-29T09:23:02Z</time>
<desc>lat.=55.985394, lon.=26.560455, Alt.=107.301819m. Speed=6.264000m/h.</desc>
<speed>1.740000</speed>
</trkpt>
<trkpt lat="55.985428" lon="26.560455">
<ele>106.596741</ele>
<time>2010-08-29T09:23:03Z</time>
<desc>lat.=55.985428, lon.=26.560455, Alt.=106.596741m. Speed=8.784000m/h.</desc>
<speed>2.440000</speed>
</trkpt>
<trkpt lat="55.985466" lon="26.560453">
<ele>105.879944</ele>
<time>2010-08-29T09:23:04Z</time>
<desc>lat.=55.985466, lon.=26.560453, Alt.=105.879944m. Speed=6.264000m/h.</desc>
<speed>1.740000</speed>
</trkpt>
<trkpt lat="55.985489" lon="26.560444">
<ele>105.653381</ele>
<time>2010-08-29T09:23:05Z</time>
<desc>lat.=55.985489, lon.=26.560444, Alt.=105.653381m. Speed=5.544000m/h.</desc>
<speed>1.540000</speed>
</trkpt>
<trkpt lat="55.985512" lon="26.560421">
<ele>105.911194</ele>
<time>2010-08-29T09:23:06Z</time>
<desc>lat.=55.985512, lon.=26.560421, Alt.=105.911194m. Speed=6.840000m/h.</desc>
<speed>1.900000</speed>
</trkpt>
<trkpt lat="55.985535" lon="26.560398">
<ele>106.243225</ele>
<time>2010-08-29T09:23:07Z</time>
<desc>lat.=55.985535, lon.=26.560398, Alt.=106.243225m. Speed=5.508000m/h.</desc>
<speed>1.530000</speed>
</trkpt>
<trkpt lat="55.985558" lon="26.560383">
<ele>105.827209</ele>
<time>2010-08-29T09:23:08Z</time>
<desc>lat.=55.985558, lon.=26.560383, Alt.=105.827209m. Speed=6.732000m/h.</desc>
<speed>1.870000</speed>
</trkpt>
<trkpt lat="55.985577" lon="26.560377">
<ele>106.188538</ele>
<time>2010-08-29T09:23:09Z</time>
<desc>lat.=55.985577, lon.=26.560377, Alt.=106.188538m. Speed=6.660000m/h.</desc>
<speed>1.850000</speed>
</trkpt>
<trkpt lat="55.985600" lon="26.560368">
<ele>106.055725</ele>
<time>2010-08-29T09:23:10Z</time>
<desc>lat.=55.985600, lon.=26.560368, Alt.=106.055725m. Speed=5.760000m/h.</desc>
<speed>1.600000</speed>
</trkpt>
<trkpt lat="55.985634" lon="26.560349">
<ele>105.852600</ele>
<time>2010-08-29T09:23:11Z</time>
<desc>lat.=55.985634, lon.=26.560349, Alt.=105.852600m. Speed=5.364000m/h.</desc>
<speed>1.490000</speed>
</trkpt>
<trkpt lat="55.985668" lon="26.560333">
<ele>105.856506</ele>
<time>2010-08-29T09:23:12Z</time>
<desc>lat.=55.985668, lon.=26.560333, Alt.=105.856506m. Speed=7.776000m/h.</desc>
<speed>2.160000</speed>
</trkpt>
<trkpt lat="55.985691" lon="26.560324">
<ele>106.044006</ele>
<time>2010-08-29T09:23:13Z</time>
<desc>lat.=55.985691, lon.=26.560324, Alt.=106.044006m. Speed=4.644000m/h.</desc>
<speed>1.290000</speed>
</trkpt>
<trkpt lat="55.985725" lon="26.560297">
<ele>103.997131</ele>
<time>2010-08-29T09:23:14Z</time>
<desc>lat.=55.985725, lon.=26.560297, Alt.=103.997131m. Speed=7.704000m/h.</desc>
<speed>2.140000</speed>
</trkpt>
<trkpt lat="55.985756" lon="26.560291">
<ele>103.467834</ele>
<time>2010-08-29T09:23:15Z</time>
<desc>lat.=55.985756, lon.=26.560291, Alt.=103.467834m. Speed=7.776000m/h.</desc>
<speed>2.160000</speed>
</trkpt>
<trkpt lat="55.985794" lon="26.560278">
<ele>103.495178</ele>
<time>2010-08-29T09:23:16Z</time>
<desc>lat.=55.985794, lon.=26.560278, Alt.=103.495178m. Speed=9.900000m/h.</desc>
<speed>2.750000</speed>
</trkpt>
<trkpt lat="55.985817" lon="26.560272">
<ele>103.295959</ele>
<time>2010-08-29T09:23:17Z</time>
<desc>lat.=55.985817, lon.=26.560272, Alt.=103.295959m. Speed=7.308000m/h.</desc>
<speed>2.030000</speed>
</trkpt>
<trkpt lat="55.985836" lon="26.560272">
<ele>103.606506</ele>
<time>2010-08-29T09:23:18Z</time>
<desc>lat.=55.985836, lon.=26.560272, Alt.=103.606506m. Speed=6.624000m/h.</desc>
<speed>1.840000</speed>
</trkpt>
<trkpt lat="55.985859" lon="26.560259">
<ele>103.381897</ele>
<time>2010-08-29T09:23:19Z</time>
<desc>lat.=55.985859, lon.=26.560259, Alt.=103.381897m. Speed=6.732000m/h.</desc>
<speed>1.870000</speed>
</trkpt>
<trkpt lat="55.985878" lon="26.560249">
<ele>103.145569</ele>
<time>2010-08-29T09:23:20Z</time>
<desc>lat.=55.985878, lon.=26.560249, Alt.=103.145569m. Speed=5.436000m/h.</desc>
<speed>1.510000</speed>
</trkpt>
<trkpt lat="55.985901" lon="26.560225">
<ele>102.924866</ele>
<time>2010-08-29T09:23:21Z</time>
<desc>lat.=55.985901, lon.=26.560225, Alt.=102.924866m. Speed=9.108000m/h.</desc>
<speed>2.530000</speed>
</trkpt>
<trkpt lat="55.985931" lon="26.560196">
<ele>102.612366</ele>
<time>2010-08-29T09:23:22Z</time>
<desc>lat.=55.985931, lon.=26.560196, Alt.=102.612366m. Speed=9.828000m/h.</desc>
<speed>2.730000</speed>
</trkpt>
<trkpt lat="55.985958" lon="26.560177">
<ele>102.438538</ele>
<time>2010-08-29T09:23:23Z</time>
<desc>lat.=55.985958, lon.=26.560177, Alt.=102.438538m. Speed=8.892000m/h.</desc>
<speed>2.470000</speed>
</trkpt>
<trkpt lat="55.985992" lon="26.560150">
<ele>102.299866</ele>
<time>2010-08-29T09:23:24Z</time>
<desc>lat.=55.985992, lon.=26.560150, Alt.=102.299866m. Speed=10.404000m/h.</desc>
<speed>2.890000</speed>
</trkpt>
<trkpt lat="55.986023" lon="26.560131">
<ele>101.667053</ele>
<time>2010-08-29T09:23:25Z</time>
<desc>lat.=55.986023, lon.=26.560131, Alt.=101.667053m. Speed=10.836000m/h.</desc>
<speed>3.010000</speed>
</trkpt>
<trkpt lat="55.986053" lon="26.560120">
<ele>101.704163</ele>
<time>2010-08-29T09:23:26Z</time>
<desc>lat.=55.986053, lon.=26.560120, Alt.=101.704163m. Speed=9.252000m/h.</desc>
<speed>2.570000</speed>
</trkpt>
<trkpt lat="55.986084" lon="26.560104">
<ele>101.622131</ele>
<time>2010-08-29T09:23:27Z</time>
<desc>lat.=55.986084, lon.=26.560104, Alt.=101.622131m. Speed=10.800000m/h.</desc>
<speed>3.000000</speed>
</trkpt>
<trkpt lat="55.986118" lon="26.560089">
<ele>101.452209</ele>
<time>2010-08-29T09:23:28Z</time>
<desc>lat.=55.986118, lon.=26.560089, Alt.=101.452209m. Speed=12.456000m/h.</desc>
<speed>3.460000</speed>
</trkpt>
<trkpt lat="55.986156" lon="26.560074">
<ele>100.874084</ele>
<time>2010-08-29T09:23:29Z</time>
<desc>lat.=55.986156, lon.=26.560074, Alt.=100.874084m. Speed=14.580000m/h.</desc>
<speed>4.050000</speed>
</trkpt>
<trkpt lat="55.986191" lon="26.560057">
<ele>100.415100</ele>
<time>2010-08-29T09:23:30Z</time>
<desc>lat.=55.986191, lon.=26.560057, Alt.=100.415100m. Speed=10.656000m/h.</desc>
<speed>2.960000</speed>
</trkpt>
<trkpt lat="55.986221" lon="26.560051">
<ele>100.795959</ele>
<time>2010-08-29T09:23:31Z</time>
<desc>lat.=55.986221, lon.=26.560051, Alt.=100.795959m. Speed=9.576000m/h.</desc>
<speed>2.660000</speed>
</trkpt>
<trkpt lat="55.986252" lon="26.560043">
<ele>100.809631</ele>
<time>2010-08-29T09:23:32Z</time>
<desc>lat.=55.986252, lon.=26.560043, Alt.=100.809631m. Speed=9.288000m/h.</desc>
<speed>2.580000</speed>
</trkpt>
<trkpt lat="55.986279" lon="26.560028">
<ele>100.522522</ele>
<time>2010-08-29T09:23:33Z</time>
<desc>lat.=55.986279, lon.=26.560028, Alt.=100.522522m. Speed=9.864000m/h.</desc>
<speed>2.740000</speed>
</trkpt>
<trkpt lat="55.986309" lon="26.560020">
<ele>99.815491</ele>
<time>2010-08-29T09:23:34Z</time>
<desc>lat.=55.986309, lon.=26.560020, Alt.=99.815491m. Speed=10.296000m/h.</desc>
<speed>2.860000</speed>
</trkpt>
<trkpt lat="55.986340" lon="26.560009">
<ele>98.913147</ele>
<time>2010-08-29T09:23:35Z</time>
<desc>lat.=55.986340, lon.=26.560009, Alt.=98.913147m. Speed=8.784000m/h.</desc>
<speed>2.440000</speed>
</trkpt>
<trkpt lat="55.986370" lon="26.560009">
<ele>98.233459</ele>
<time>2010-08-29T09:23:36Z</time>
<desc>lat.=55.986370, lon.=26.560009, Alt.=98.233459m. Speed=10.656000m/h.</desc>
<speed>2.960000</speed>
</trkpt>
<trkpt lat="55.986397" lon="26.560005">
<ele>97.407288</ele>
<time>2010-08-29T09:23:37Z</time>
<desc>lat.=55.986397, lon.=26.560005, Alt.=97.407288m. Speed=9.756000m/h.</desc>
<speed>2.710000</speed>
</trkpt>
<trkpt lat="55.986423" lon="26.560011">
<ele>97.372131</ele>
<time>2010-08-29T09:23:38Z</time>
<desc>lat.=55.986423, lon.=26.560011, Alt.=97.372131m. Speed=9.036000m/h.</desc>
<speed>2.510000</speed>
</trkpt>
<trkpt lat="55.986450" lon="26.560007">
<ele>97.169006</ele>
<time>2010-08-29T09:23:39Z</time>
<desc>lat.=55.986450, lon.=26.560007, Alt.=97.169006m. Speed=8.316000m/h.</desc>
<speed>2.310000</speed>
</trkpt>
<trkpt lat="55.986477" lon="26.560013">
<ele>98.010803</ele>
<time>2010-08-29T09:23:40Z</time>
<desc>lat.=55.986477, lon.=26.560013, Alt.=98.010803m. Speed=4.788000m/h.</desc>
<speed>1.330000</speed>
</trkpt>
<trkpt lat="55.986496" lon="26.560011">
<ele>97.801819</ele>
<time>2010-08-29T09:23:41Z</time>
<desc>lat.=55.986496, lon.=26.560011, Alt.=97.801819m. Speed=6.228000m/h.</desc>
<speed>1.730000</speed>
</trkpt>
<trkpt lat="55.986515" lon="26.560013">
<ele>97.747131</ele>
<time>2010-08-29T09:23:42Z</time>
<desc>lat.=55.986515, lon.=26.560013, Alt.=97.747131m. Speed=6.408000m/h.</desc>
<speed>1.780000</speed>
</trkpt>
<trkpt lat="55.986538" lon="26.560020">
<ele>98.182678</ele>
<time>2010-08-29T09:23:43Z</time>
<desc>lat.=55.986538, lon.=26.560020, Alt.=98.182678m. Speed=6.336000m/h.</desc>
<speed>1.760000</speed>
</trkpt>
<trkpt lat="55.986572" lon="26.560020">
<ele>98.977600</ele>
<time>2010-08-29T09:23:44Z</time>
<desc>lat.=55.986572, lon.=26.560020, Alt.=98.977600m. Speed=7.200000m/h.</desc>
<speed>2.000000</speed>
</trkpt>
<trkpt lat="55.986588" lon="26.560019">
<ele>98.579163</ele>
<time>2010-08-29T09:23:45Z</time>
<desc>lat.=55.986588, lon.=26.560019, Alt.=98.579163m. Speed=6.552000m/h.</desc>
<speed>1.820000</speed>
</trkpt>
<trkpt lat="55.986607" lon="26.560024">
<ele>98.030334</ele>
<time>2010-08-29T09:23:46Z</time>
<desc>lat.=55.986607, lon.=26.560024, Alt.=98.030334m. Speed=8.424000m/h.</desc>
<speed>2.340000</speed>
</trkpt>
<trkpt lat="55.986626" lon="26.560030">
<ele>97.317444</ele>
<time>2010-08-29T09:23:47Z</time>
<desc>lat.=55.986626, lon.=26.560030, Alt.=97.317444m. Speed=8.856000m/h.</desc>
<speed>2.460000</speed>
</trkpt>
<trkpt lat="55.986649" lon="26.560032">
<ele>96.803772</ele>
<time>2010-08-29T09:23:48Z</time>
<desc>lat.=55.986649, lon.=26.560032, Alt.=96.803772m. Speed=11.160000m/h.</desc>
<speed>3.100000</speed>
</trkpt>
<trkpt lat="55.986679" lon="26.560043">
<ele>97.012756</ele>
<time>2010-08-29T09:23:49Z</time>
<desc>lat.=55.986679, lon.=26.560043, Alt.=97.012756m. Speed=11.340000m/h.</desc>
<speed>3.150000</speed>
</trkpt>
<trkpt lat="55.986706" lon="26.560055">
<ele>96.876038</ele>
<time>2010-08-29T09:23:50Z</time>
<desc>lat.=55.986706, lon.=26.560055, Alt.=96.876038m. Speed=9.972000m/h.</desc>
<speed>2.770000</speed>
</trkpt>
<trkpt lat="55.986732" lon="26.560072">
<ele>97.502991</ele>
<time>2010-08-29T09:23:51Z</time>
<desc>lat.=55.986732, lon.=26.560072, Alt.=97.502991m. Speed=10.512000m/h.</desc>
<speed>2.920000</speed>
</trkpt>
<trkpt lat="55.986752" lon="26.560087">
<ele>97.495178</ele>
<time>2010-08-29T09:23:52Z</time>
<desc>lat.=55.986752, lon.=26.560087, Alt.=97.495178m. Speed=7.452000m/h.</desc>
<speed>2.070000</speed>
</trkpt>
<trkpt lat="55.986767" lon="26.560104">
<ele>97.510803</ele>
<time>2010-08-29T09:23:53Z</time>
<desc>lat.=55.986767, lon.=26.560104, Alt.=97.510803m. Speed=6.588000m/h.</desc>
<speed>1.830000</speed>
</trkpt>
<trkpt lat="55.986786" lon="26.560110">
<ele>98.104553</ele>
<time>2010-08-29T09:23:54Z</time>
<desc>lat.=55.986786, lon.=26.560110, Alt.=98.104553m. Speed=7.884000m/h.</desc>
<speed>2.190000</speed>
</trkpt>
<trkpt lat="55.986805" lon="26.560120">
<ele>98.340881</ele>
<time>2010-08-29T09:23:55Z</time>
<desc>lat.=55.986805, lon.=26.560120, Alt.=98.340881m. Speed=10.008000m/h.</desc>
<speed>2.780000</speed>
</trkpt>
<trkpt lat="55.986828" lon="26.560131">
<ele>97.891663</ele>
<time>2010-08-29T09:23:56Z</time>
<desc>lat.=55.986828, lon.=26.560131, Alt.=97.891663m. Speed=9.216000m/h.</desc>
<speed>2.560000</speed>
</trkpt>
<trkpt lat="55.986851" lon="26.560148">
<ele>97.846741</ele>
<time>2010-08-29T09:23:57Z</time>
<desc>lat.=55.986851, lon.=26.560148, Alt.=97.846741m. Speed=9.108000m/h.</desc>
<speed>2.530000</speed>
</trkpt>
<trkpt lat="55.986870" lon="26.560175">
<ele>97.848694</ele>
<time>2010-08-29T09:23:58Z</time>
<desc>lat.=55.986870, lon.=26.560175, Alt.=97.848694m. Speed=7.884000m/h.</desc>
<speed>2.190000</speed>
</trkpt>
<trkpt lat="55.986889" lon="26.560202">
<ele>97.973694</ele>
<time>2010-08-29T09:23:59Z</time>
<desc>lat.=55.986889, lon.=26.560202, Alt.=97.973694m. Speed=9.396000m/h.</desc>
<speed>2.610000</speed>
</trkpt>
<trkpt lat="55.986908" lon="26.560242">
<ele>98.176819</ele>
<time>2010-08-29T09:24:00Z</time>
<desc>lat.=55.986908, lon.=26.560242, Alt.=98.176819m. Speed=8.460000m/h.</desc>
<speed>2.350000</speed>
</trkpt>
<trkpt lat="55.986923" lon="26.560278">
<ele>98.442444</ele>
<time>2010-08-29T09:24:01Z</time>
<desc>lat.=55.986923, lon.=26.560278, Alt.=98.442444m. Speed=8.172000m/h.</desc>
<speed>2.270000</speed>
</trkpt>
<trkpt lat="55.986938" lon="26.560305">
<ele>98.571350</ele>
<time>2010-08-29T09:24:02Z</time>
<desc>lat.=55.986938, lon.=26.560305, Alt.=98.571350m. Speed=5.940000m/h.</desc>
<speed>1.650000</speed>
</trkpt>
<trkpt lat="55.986950" lon="26.560339">
<ele>98.348694</ele>
<time>2010-08-29T09:24:03Z</time>
<desc>lat.=55.986950, lon.=26.560339, Alt.=98.348694m. Speed=7.848000m/h.</desc>
<speed>2.180000</speed>
</trkpt>
<trkpt lat="55.986965" lon="26.560368">
<ele>98.430725</ele>
<time>2010-08-29T09:24:04Z</time>
<desc>lat.=55.986965, lon.=26.560368, Alt.=98.430725m. Speed=7.704000m/h.</desc>
<speed>2.140000</speed>
</trkpt>
<trkpt lat="55.986984" lon="26.560402">
<ele>98.489319</ele>
<time>2010-08-29T09:24:05Z</time>
<desc>lat.=55.986984, lon.=26.560402, Alt.=98.489319m. Speed=8.316000m/h.</desc>
<speed>2.310000</speed>
</trkpt>
<trkpt lat="55.987007" lon="26.560429">
<ele>98.501038</ele>
<time>2010-08-29T09:24:06Z</time>
<desc>lat.=55.987007, lon.=26.560429, Alt.=98.501038m. Speed=9.828000m/h.</desc>
<speed>2.730000</speed>
</trkpt>
<trkpt lat="55.987026" lon="26.560446">
<ele>98.651428</ele>
<time>2010-08-29T09:24:07Z</time>
<desc>lat.=55.987026, lon.=26.560446, Alt.=98.651428m. Speed=7.488000m/h.</desc>
<speed>2.080000</speed>
</trkpt>
<trkpt lat="55.987049" lon="26.560459">
<ele>98.536194</ele>
<time>2010-08-29T09:24:08Z</time>
<desc>lat.=55.987049, lon.=26.560459, Alt.=98.536194m. Speed=7.092000m/h.</desc>
<speed>1.970000</speed>
</trkpt>
<trkpt lat="55.987072" lon="26.560465">
<ele>98.585022</ele>
<time>2010-08-29T09:24:09Z</time>
<desc>lat.=55.987072, lon.=26.560465, Alt.=98.585022m. Speed=7.668000m/h.</desc>
<speed>2.130000</speed>
</trkpt>
<trkpt lat="55.987099" lon="26.560469">
<ele>98.542053</ele>
<time>2010-08-29T09:24:10Z</time>
<desc>lat.=55.987099, lon.=26.560469, Alt.=98.542053m. Speed=9.432000m/h.</desc>
<speed>2.620000</speed>
</trkpt>
<trkpt lat="55.987125" lon="26.560474">
<ele>98.936584</ele>
<time>2010-08-29T09:24:11Z</time>
<desc>lat.=55.987125, lon.=26.560474, Alt.=98.936584m. Speed=8.748000m/h.</desc>
<speed>2.430000</speed>
</trkpt>
<trkpt lat="55.987148" lon="26.560484">
<ele>99.795959</ele>
<time>2010-08-29T09:24:12Z</time>
<desc>lat.=55.987148, lon.=26.560484, Alt.=99.795959m. Speed=7.344000m/h.</desc>
<speed>2.040000</speed>
</trkpt>
<trkpt lat="55.987175" lon="26.560497">
<ele>99.907288</ele>
<time>2010-08-29T09:24:13Z</time>
<desc>lat.=55.987175, lon.=26.560497, Alt.=99.907288m. Speed=8.352000m/h.</desc>
<speed>2.320000</speed>
</trkpt>
<trkpt lat="55.987202" lon="26.560507">
<ele>100.208069</ele>
<time>2010-08-29T09:24:14Z</time>
<desc>lat.=55.987202, lon.=26.560507, Alt.=100.208069m. Speed=7.704000m/h.</desc>
<speed>2.140000</speed>
</trkpt>
<trkpt lat="55.987240" lon="26.560522">
<ele>100.536194</ele>
<time>2010-08-29T09:24:15Z</time>
<desc>lat.=55.987240, lon.=26.560522, Alt.=100.536194m. Speed=6.588000m/h.</desc>
<speed>1.830000</speed>
</trkpt>
<trkpt lat="55.987270" lon="26.560539">
<ele>100.764709</ele>
<time>2010-08-29T09:24:16Z</time>
<desc>lat.=55.987270, lon.=26.560539, Alt.=100.764709m. Speed=6.480000m/h.</desc>
<speed>1.800000</speed>
</trkpt>
<trkpt lat="55.987309" lon="26.560535">
<ele>99.926819</ele>
<time>2010-08-29T09:24:17Z</time>
<desc>lat.=55.987309, lon.=26.560535, Alt.=99.926819m. Speed=7.056000m/h.</desc>
<speed>1.960000</speed>
</trkpt>
<trkpt lat="55.987335" lon="26.560547">
<ele>99.540100</ele>
<time>2010-08-29T09:24:18Z</time>
<desc>lat.=55.987335, lon.=26.560547, Alt.=99.540100m. Speed=8.100000m/h.</desc>
<speed>2.250000</speed>
</trkpt>
<trkpt lat="55.987366" lon="26.560555">
<ele>99.229553</ele>
<time>2010-08-29T09:24:19Z</time>
<desc>lat.=55.987366, lon.=26.560555, Alt.=99.229553m. Speed=8.532000m/h.</desc>
<speed>2.370000</speed>
</trkpt>
<trkpt lat="55.987392" lon="26.560560">
<ele>98.758850</ele>
<time>2010-08-29T09:24:20Z</time>
<desc>lat.=55.987392, lon.=26.560560, Alt.=98.758850m. Speed=7.632000m/h.</desc>
<speed>2.120000</speed>
</trkpt>
<trkpt lat="55.987431" lon="26.560560">
<ele>97.118225</ele>
<time>2010-08-29T09:24:21Z</time>
<desc>lat.=55.987431, lon.=26.560560, Alt.=97.118225m. Speed=8.244000m/h.</desc>
<speed>2.290000</speed>
</trkpt>
<trkpt lat="55.987469" lon="26.560570">
<ele>96.215881</ele>
<time>2010-08-29T09:24:22Z</time>
<desc>lat.=55.987469, lon.=26.560570, Alt.=96.215881m. Speed=9.612000m/h.</desc>
<speed>2.670000</speed>
</trkpt>
<trkpt lat="55.987507" lon="26.560595">
<ele>95.456116</ele>
<time>2010-08-29T09:24:23Z</time>
<desc>lat.=55.987507, lon.=26.560595, Alt.=95.456116m. Speed=9.072000m/h.</desc>
<speed>2.520000</speed>
</trkpt>
<trkpt lat="55.987556" lon="26.560619">
<ele>93.415100</ele>
<time>2010-08-29T09:24:24Z</time>
<desc>lat.=55.987556, lon.=26.560619, Alt.=93.415100m. Speed=7.776000m/h.</desc>
<speed>2.160000</speed>
</trkpt>
<trkpt lat="55.987598" lon="26.560600">
<ele>91.932678</ele>
<time>2010-08-29T09:24:25Z</time>
<desc>lat.=55.987598, lon.=26.560600, Alt.=91.932678m. Speed=6.516000m/h.</desc>
<speed>1.810000</speed>
</trkpt>
<trkpt lat="55.987629" lon="26.560616">
<ele>91.489319</ele>
<time>2010-08-29T09:24:26Z</time>
<desc>lat.=55.987629, lon.=26.560616, Alt.=91.489319m. Speed=4.932000m/h.</desc>
<speed>1.370000</speed>
</trkpt>
<trkpt lat="55.987652" lon="26.560635">
<ele>91.381897</ele>
<time>2010-08-29T09:24:27Z</time>
<desc>lat.=55.987652, lon.=26.560635, Alt.=91.381897m. Speed=4.680000m/h.</desc>
<speed>1.300000</speed>
</trkpt>
<trkpt lat="55.987671" lon="26.560665">
<ele>90.985413</ele>
<time>2010-08-29T09:24:28Z</time>
<desc>lat.=55.987671, lon.=26.560665, Alt.=90.985413m. Speed=3.240000m/h.</desc>
<speed>0.900000</speed>
</trkpt>
<trkpt lat="55.987686" lon="26.560671">
<ele>90.952209</ele>
<time>2010-08-29T09:24:29Z</time>
<desc>lat.=55.987686, lon.=26.560671, Alt.=90.952209m. Speed=3.312000m/h.</desc>
<speed>0.920000</speed>
</trkpt>
<trkpt lat="55.987705" lon="26.560680">
<ele>90.844788</ele>
<time>2010-08-29T09:24:30Z</time>
<desc>lat.=55.987705, lon.=26.560680, Alt.=90.844788m. Speed=3.600000m/h.</desc>
<speed>1.000000</speed>
</trkpt>
<trkpt lat="55.987717" lon="26.560696">
<ele>90.383850</ele>
<time>2010-08-29T09:24:31Z</time>
<desc>lat.=55.987717, lon.=26.560696, Alt.=90.383850m. Speed=3.780000m/h.</desc>
<speed>1.050000</speed>
</trkpt>
<trkpt lat="55.987732" lon="26.560701">
<ele>90.217834</ele>
<time>2010-08-29T09:24:32Z</time>
<desc>lat.=55.987732, lon.=26.560701, Alt.=90.217834m. Speed=4.536000m/h.</desc>
<speed>1.260000</speed>
</trkpt>
<trkpt lat="55.987743" lon="26.560715">
<ele>90.143616</ele>
<time>2010-08-29T09:24:33Z</time>
<desc>lat.=55.987743, lon.=26.560715, Alt.=90.143616m. Speed=5.004000m/h.</desc>
<speed>1.390000</speed>
</trkpt>
<trkpt lat="55.987755" lon="26.560724">
<ele>89.952209</ele>
<time>2010-08-29T09:24:34Z</time>
<desc>lat.=55.987755, lon.=26.560724, Alt.=89.952209m. Speed=2.448000m/h.</desc>
<speed>0.680000</speed>
</trkpt>
<trkpt lat="55.987762" lon="26.560720">
<ele>89.667053</ele>
<time>2010-08-29T09:24:35Z</time>
<desc>lat.=55.987762, lon.=26.560720, Alt.=89.667053m. Speed=1.620000m/h.</desc>
<speed>0.450000</speed>
</trkpt>
<trkpt lat="55.987766" lon="26.560720">
<ele>89.485413</ele>
<time>2010-08-29T09:24:36Z</time>
<desc>lat.=55.987766, lon.=26.560720, Alt.=89.485413m. Speed=1.656000m/h.</desc>
<speed>0.460000</speed>
</trkpt>
<trkpt lat="55.987778" lon="26.560726">
<ele>89.364319</ele>
<time>2010-08-29T09:24:37Z</time>
<desc>lat.=55.987778, lon.=26.560726, Alt.=89.364319m. Speed=2.736000m/h.</desc>
<speed>0.760000</speed>
</trkpt>
<trkpt lat="55.987785" lon="26.560730">
<ele>88.932678</ele>
<time>2010-08-29T09:24:38Z</time>
<desc>lat.=55.987785, lon.=26.560730, Alt.=88.932678m. Speed=2.988000m/h.</desc>
<speed>0.830000</speed>
</trkpt>
<trkpt lat="55.987793" lon="26.560732">
<ele>88.495178</ele>
<time>2010-08-29T09:24:39Z</time>
<desc>lat.=55.987793, lon.=26.560732, Alt.=88.495178m. Speed=3.276000m/h.</desc>
<speed>0.910000</speed>
</trkpt>
<trkpt lat="55.987801" lon="26.560740">
<ele>88.071350</ele>
<time>2010-08-29T09:24:40Z</time>
<desc>lat.=55.987801, lon.=26.560740, Alt.=88.071350m. Speed=3.636000m/h.</desc>
<speed>1.010000</speed>
</trkpt>
<trkpt lat="55.987835" lon="26.560745">
<ele>87.823303</ele>
<time>2010-08-29T09:24:41Z</time>
<desc>lat.=55.987835, lon.=26.560745, Alt.=87.823303m. Speed=5.364000m/h.</desc>
<speed>1.490000</speed>
</trkpt>
<trkpt lat="55.987865" lon="26.560753">
<ele>87.624084</ele>
<time>2010-08-29T09:24:42Z</time>
<desc>lat.=55.987865, lon.=26.560753, Alt.=87.624084m. Speed=7.344000m/h.</desc>
<speed>2.040000</speed>
</trkpt>
<trkpt lat="55.987900" lon="26.560776">
<ele>87.788147</ele>
<time>2010-08-29T09:24:43Z</time>
<desc>lat.=55.987900, lon.=26.560776, Alt.=87.788147m. Speed=9.180000m/h.</desc>
<speed>2.550000</speed>
</trkpt>
<trkpt lat="55.987923" lon="26.560793">
<ele>87.016663</ele>
<time>2010-08-29T09:24:44Z</time>
<desc>lat.=55.987923, lon.=26.560793, Alt.=87.016663m. Speed=8.496000m/h.</desc>
<speed>2.360000</speed>
</trkpt>
<trkpt lat="55.987961" lon="26.560804">
<ele>86.393616</ele>
<time>2010-08-29T09:24:45Z</time>
<desc>lat.=55.987961, lon.=26.560804, Alt.=86.393616m. Speed=9.648000m/h.</desc>
<speed>2.680000</speed>
</trkpt>
<trkpt lat="55.987995" lon="26.560816">
<ele>85.756897</ele>
<time>2010-08-29T09:24:46Z</time>
<desc>lat.=55.987995, lon.=26.560816, Alt.=85.756897m. Speed=10.872000m/h.</desc>
<speed>3.020000</speed>
</trkpt>
<trkpt lat="55.988029" lon="26.560827">
<ele>85.338928</ele>
<time>2010-08-29T09:24:47Z</time>
<desc>lat.=55.988029, lon.=26.560827, Alt.=85.338928m. Speed=12.276000m/h.</desc>
<speed>3.410000</speed>
</trkpt>
<trkpt lat="55.988064" lon="26.560843">
<ele>84.690491</ele>
<time>2010-08-29T09:24:48Z</time>
<desc>lat.=55.988064, lon.=26.560843, Alt.=84.690491m. Speed=12.492000m/h.</desc>
<speed>3.470000</speed>
</trkpt>
<trkpt lat="55.988110" lon="26.560850">
<ele>83.963928</ele>
<time>2010-08-29T09:24:49Z</time>
<desc>lat.=55.988110, lon.=26.560850, Alt.=83.963928m. Speed=13.104000m/h.</desc>
<speed>3.640000</speed>
</trkpt>
<trkpt lat="55.988144" lon="26.560860">
<ele>83.434631</ele>
<time>2010-08-29T09:24:50Z</time>
<desc>lat.=55.988144, lon.=26.560860, Alt.=83.434631m. Speed=13.176000m/h.</desc>
<speed>3.660000</speed>
</trkpt>
<trkpt lat="55.988186" lon="26.560860">
<ele>82.993225</ele>
<time>2010-08-29T09:24:51Z</time>
<desc>lat.=55.988186, lon.=26.560860, Alt.=82.993225m. Speed=13.356000m/h.</desc>
<speed>3.710000</speed>
</trkpt>
<trkpt lat="55.988224" lon="26.560888">
<ele>83.100647</ele>
<time>2010-08-29T09:24:52Z</time>
<desc>lat.=55.988224, lon.=26.560888, Alt.=83.100647m. Speed=13.176000m/h.</desc>
<speed>3.660000</speed>
</trkpt>
<trkpt lat="55.988262" lon="26.560905">
<ele>82.799866</ele>
<time>2010-08-29T09:24:53Z</time>
<desc>lat.=55.988262, lon.=26.560905, Alt.=82.799866m. Speed=13.716000m/h.</desc>
<speed>3.810000</speed>
</trkpt>
<trkpt lat="55.988316" lon="26.560919">
<ele>82.309631</ele>
<time>2010-08-29T09:24:54Z</time>
<desc>lat.=55.988316, lon.=26.560919, Alt.=82.309631m. Speed=14.976000m/h.</desc>
<speed>4.160000</speed>
</trkpt>
<trkpt lat="55.988369" lon="26.560928">
<ele>82.133850</ele>
<time>2010-08-29T09:24:55Z</time>
<desc>lat.=55.988369, lon.=26.560928, Alt.=82.133850m. Speed=15.984000m/h.</desc>
<speed>4.440000</speed>
</trkpt>
<trkpt lat="55.988411" lon="26.560946">
<ele>82.174866</ele>
<time>2010-08-29T09:24:56Z</time>
<desc>lat.=55.988411, lon.=26.560946, Alt.=82.174866m. Speed=15.264000m/h.</desc>
<speed>4.240000</speed>
</trkpt>
<trkpt lat="55.988449" lon="26.560965">
<ele>82.100647</ele>
<time>2010-08-29T09:24:57Z</time>
<desc>lat.=55.988449, lon.=26.560965, Alt.=82.100647m. Speed=12.744000m/h.</desc>
<speed>3.540000</speed>
</trkpt>
<trkpt lat="55.988487" lon="26.560976">
<ele>82.004944</ele>
<time>2010-08-29T09:24:58Z</time>
<desc>lat.=55.988487, lon.=26.560976, Alt.=82.004944m. Speed=13.140000m/h.</desc>
<speed>3.650000</speed>
</trkpt>
<trkpt lat="55.988525" lon="26.560987">
<ele>81.948303</ele>
<time>2010-08-29T09:24:59Z</time>
<desc>lat.=55.988525, lon.=26.560987, Alt.=81.948303m. Speed=12.420000m/h.</desc>
<speed>3.450000</speed>
</trkpt>
<trkpt lat="55.988564" lon="26.560995">
<ele>81.938538</ele>
<time>2010-08-29T09:25:00Z</time>
<desc>lat.=55.988564, lon.=26.560995, Alt.=81.938538m. Speed=12.564000m/h.</desc>
<speed>3.490000</speed>
</trkpt>
<trkpt lat="55.988602" lon="26.561001">
<ele>81.770569</ele>
<time>2010-08-29T09:25:01Z</time>
<desc>lat.=55.988602, lon.=26.561001, Alt.=81.770569m. Speed=13.932000m/h.</desc>
<speed>3.870000</speed>
</trkpt>
<trkpt lat="55.988655" lon="26.561003">
<ele>81.911194</ele>
<time>2010-08-29T09:25:02Z</time>
<desc>lat.=55.988655, lon.=26.561003, Alt.=81.911194m. Speed=14.544000m/h.</desc>
<speed>4.040000</speed>
</trkpt>
<trkpt lat="55.988693" lon="26.561008">
<ele>81.795959</ele>
<time>2010-08-29T09:25:03Z</time>
<desc>lat.=55.988693, lon.=26.561008, Alt.=81.795959m. Speed=13.284000m/h.</desc>
<speed>3.690000</speed>
</trkpt>
<trkpt lat="55.988731" lon="26.561012">
<ele>81.702209</ele>
<time>2010-08-29T09:25:04Z</time>
<desc>lat.=55.988731, lon.=26.561012, Alt.=81.702209m. Speed=14.040000m/h.</desc>
<speed>3.900000</speed>
</trkpt>
<trkpt lat="55.988789" lon="26.561016">
<ele>82.829163</ele>
<time>2010-08-29T09:25:05Z</time>
<desc>lat.=55.988789, lon.=26.561016, Alt.=82.829163m. Speed=13.392000m/h.</desc>
<speed>3.720000</speed>
</trkpt>
<trkpt lat="55.988834" lon="26.561018">
<ele>83.294006</ele>
<time>2010-08-29T09:25:06Z</time>
<desc>lat.=55.988834, lon.=26.561018, Alt.=83.294006m. Speed=14.040000m/h.</desc>
<speed>3.900000</speed>
</trkpt>
<trkpt lat="55.988873" lon="26.561020">
<ele>83.655334</ele>
<time>2010-08-29T09:25:07Z</time>
<desc>lat.=55.988873, lon.=26.561020, Alt.=83.655334m. Speed=12.276000m/h.</desc>
<speed>3.410000</speed>
</trkpt>
<trkpt lat="55.988914" lon="26.561018">
<ele>84.575256</ele>
<time>2010-08-29T09:25:08Z</time>
<desc>lat.=55.988914, lon.=26.561018, Alt.=84.575256m. Speed=9.180000m/h.</desc>
<speed>2.550000</speed>
</trkpt>
<trkpt lat="55.988945" lon="26.561024">
<ele>84.649475</ele>
<time>2010-08-29T09:25:09Z</time>
<desc>lat.=55.988945, lon.=26.561024, Alt.=84.649475m. Speed=8.784000m/h.</desc>
<speed>2.440000</speed>
</trkpt>
<trkpt lat="55.988983" lon="26.561028">
<ele>85.141663</ele>
<time>2010-08-29T09:25:10Z</time>
<desc>lat.=55.988983, lon.=26.561028, Alt.=85.141663m. Speed=12.060000m/h.</desc>
<speed>3.350000</speed>
</trkpt>
<trkpt lat="55.989033" lon="26.561039">
<ele>84.782288</ele>
<time>2010-08-29T09:25:11Z</time>
<desc>lat.=55.989033, lon.=26.561039, Alt.=84.782288m. Speed=12.240000m/h.</desc>
<speed>3.400000</speed>
</trkpt>
<trkpt lat="55.989086" lon="26.561043">
<ele>83.915100</ele>
<time>2010-08-29T09:25:12Z</time>
<desc>lat.=55.989086, lon.=26.561043, Alt.=83.915100m. Speed=13.716000m/h.</desc>
<speed>3.810000</speed>
</trkpt>
<trkpt lat="55.989140" lon="26.561026">
<ele>84.145569</ele>
<time>2010-08-29T09:25:13Z</time>
<desc>lat.=55.989140, lon.=26.561026, Alt.=84.145569m. Speed=12.888000m/h.</desc>
<speed>3.580000</speed>
</trkpt>
<trkpt lat="55.989182" lon="26.561022">
<ele>84.501038</ele>
<time>2010-08-29T09:25:14Z</time>
<desc>lat.=55.989182, lon.=26.561022, Alt.=84.501038m. Speed=11.160000m/h.</desc>
<speed>3.100000</speed>
</trkpt>
<trkpt lat="55.989201" lon="26.561031">
<ele>86.323303</ele>
<time>2010-08-29T09:25:15Z</time>
<desc>lat.=55.989201, lon.=26.561031, Alt.=86.323303m. Speed=5.976000m/h.</desc>
<speed>1.660000</speed>
</trkpt>
<trkpt lat="55.989227" lon="26.561037">
<ele>87.727600</ele>
<time>2010-08-29T09:25:16Z</time>
<desc>lat.=55.989227, lon.=26.561037, Alt.=87.727600m. Speed=2.556000m/h.</desc>
<speed>0.710000</speed>
</trkpt>
<trkpt lat="55.989243" lon="26.561041">
<ele>87.295959</ele>
<time>2010-08-29T09:25:17Z</time>
<desc>lat.=55.989243, lon.=26.561041, Alt.=87.295959m. Speed=1.728000m/h.</desc>
<speed>0.480000</speed>
</trkpt>
<trkpt lat="55.989258" lon="26.561041">
<ele>87.184631</ele>
<time>2010-08-29T09:25:18Z</time>
<desc>lat.=55.989258, lon.=26.561041, Alt.=87.184631m. Speed=1.296000m/h.</desc>
<speed>0.360000</speed>
</trkpt>
<trkpt lat="55.989265" lon="26.561045">
<ele>87.862366</ele>
<time>2010-08-29T09:25:19Z</time>
<desc>lat.=55.989265, lon.=26.561045, Alt.=87.862366m. Speed=1.044000m/h.</desc>
<speed>0.290000</speed>
</trkpt>
<trkpt lat="55.989269" lon="26.561043">
<ele>87.817444</ele>
<time>2010-08-29T09:25:20Z</time>
<desc>lat.=55.989269, lon.=26.561043, Alt.=87.817444m. Speed=0.396000m/h.</desc>
<speed>0.110000</speed>
</trkpt>
<trkpt lat="55.989269" lon="26.561041">
<ele>87.838928</ele>
<time>2010-08-29T09:25:21Z</time>
<desc>lat.=55.989269, lon.=26.561041, Alt.=87.838928m. Speed=0.684000m/h.</desc>
<speed>0.190000</speed>
</trkpt>
<trkpt lat="55.989269" lon="26.561039">
<ele>87.846741</ele>
<time>2010-08-29T09:25:22Z</time>
<desc>lat.=55.989269, lon.=26.561039, Alt.=87.846741m. Speed=0.396000m/h.</desc>
<speed>0.110000</speed>
</trkpt>
<trkpt lat="55.989273" lon="26.561037">
<ele>87.833069</ele>
<time>2010-08-29T09:25:23Z</time>
<desc>lat.=55.989273, lon.=26.561037, Alt.=87.833069m. Speed=0.180000m/h.</desc>
<speed>0.050000</speed>
</trkpt>
<trkpt lat="55.989273" lon="26.561037">
<ele>87.836975</ele>
<time>2010-08-29T09:25:24Z</time>
<desc>lat.=55.989273, lon.=26.561037, Alt.=87.836975m. Speed=0.108000m/h.</desc>
<speed>0.030000</speed>
</trkpt>
<trkpt lat="55.989273" lon="26.561037">
<ele>87.860413</ele>
<time>2010-08-29T09:25:25Z</time>
<desc>lat.=55.989273, lon.=26.561037, Alt.=87.860413m. Speed=0.612000m/h.</desc>
<speed>0.170000</speed>
</trkpt>
<trkpt lat="55.989273" lon="26.561035">
<ele>87.909241</ele>
<time>2010-08-29T09:25:26Z</time>
<desc>lat.=55.989273, lon.=26.561035, Alt.=87.909241m. Speed=0.684000m/h.</desc>
<speed>0.190000</speed>
</trkpt>
<trkpt lat="55.989277" lon="26.561037">
<ele>87.958069</ele>
<time>2010-08-29T09:25:27Z</time>
<desc>lat.=55.989277, lon.=26.561037, Alt.=87.958069m. Speed=1.764000m/h.</desc>
<speed>0.490000</speed>
</trkpt>
<trkpt lat="55.989281" lon="26.561031">
<ele>87.997131</ele>
<time>2010-08-29T09:25:28Z</time>
<desc>lat.=55.989281, lon.=26.561031, Alt.=87.997131m. Speed=1.836000m/h.</desc>
<speed>0.510000</speed>
</trkpt>
<trkpt lat="55.989285" lon="26.561031">
<ele>88.055725</ele>
<time>2010-08-29T09:25:29Z</time>
<desc>lat.=55.989285, lon.=26.561031, Alt.=88.055725m. Speed=0.720000m/h.</desc>
<speed>0.200000</speed>
</trkpt>
<trkpt lat="55.989288" lon="26.561031">
<ele>88.131897</ele>
<time>2010-08-29T09:25:30Z</time>
<desc>lat.=55.989288, lon.=26.561031, Alt.=88.131897m. Speed=1.188000m/h.</desc>
<speed>0.330000</speed>
</trkpt>
<trkpt lat="55.989285" lon="26.561026">
<ele>88.196350</ele>
<time>2010-08-29T09:25:31Z</time>
<desc>lat.=55.989285, lon.=26.561026, Alt.=88.196350m. Speed=1.908000m/h.</desc>
<speed>0.530000</speed>
</trkpt>
<trkpt lat="55.989285" lon="26.561020">
<ele>88.264709</ele>
<time>2010-08-29T09:25:32Z</time>
<desc>lat.=55.989285, lon.=26.561020, Alt.=88.264709m. Speed=2.160000m/h.</desc>
<speed>0.600000</speed>
</trkpt>
<trkpt lat="55.989277" lon="26.561016">
<ele>88.331116</ele>
<time>2010-08-29T09:25:33Z</time>
<desc>lat.=55.989277, lon.=26.561016, Alt.=88.331116m. Speed=2.664000m/h.</desc>
<speed>0.740000</speed>
</trkpt>
<trkpt lat="55.989273" lon="26.561016">
<ele>88.399475</ele>
<time>2010-08-29T09:25:34Z</time>
<desc>lat.=55.989273, lon.=26.561016, Alt.=88.399475m. Speed=3.276000m/h.</desc>
<speed>0.910000</speed>
</trkpt>
<trkpt lat="55.989262" lon="26.561016">
<ele>88.372131</ele>
<time>2010-08-29T09:25:35Z</time>
<desc>lat.=55.989262, lon.=26.561016, Alt.=88.372131m. Speed=3.636000m/h.</desc>
<speed>1.010000</speed>
</trkpt>
<trkpt lat="55.989254" lon="26.561012">
<ele>88.454163</ele>
<time>2010-08-29T09:25:36Z</time>
<desc>lat.=55.989254, lon.=26.561012, Alt.=88.454163m. Speed=4.212000m/h.</desc>
<speed>1.170000</speed>
</trkpt>
<trkpt lat="55.989243" lon="26.561016">
<ele>88.487366</ele>
<time>2010-08-29T09:25:37Z</time>
<desc>lat.=55.989243, lon.=26.561016, Alt.=88.487366m. Speed=4.176000m/h.</desc>
<speed>1.160000</speed>
</trkpt>
<trkpt lat="55.989235" lon="26.561014">
<ele>88.317444</ele>
<time>2010-08-29T09:25:38Z</time>
<desc>lat.=55.989235, lon.=26.561014, Alt.=88.317444m. Speed=3.492000m/h.</desc>
<speed>0.970000</speed>
</trkpt>
<trkpt lat="55.989227" lon="26.561010">
<ele>88.493225</ele>
<time>2010-08-29T09:25:39Z</time>
<desc>lat.=55.989227, lon.=26.561010, Alt.=88.493225m. Speed=2.160000m/h.</desc>
<speed>0.600000</speed>
</trkpt>
<trkpt lat="55.989223" lon="26.561029">
<ele>89.317444</ele>
<time>2010-08-29T09:25:40Z</time>
<desc>lat.=55.989223, lon.=26.561029, Alt.=89.317444m. Speed=1.476000m/h.</desc>
<speed>0.410000</speed>
</trkpt>
<trkpt lat="55.989223" lon="26.561033">
<ele>89.477600</ele>
<time>2010-08-29T09:25:41Z</time>
<desc>lat.=55.989223, lon.=26.561033, Alt.=89.477600m. Speed=1.116000m/h.</desc>
<speed>0.310000</speed>
</trkpt>
<trkpt lat="55.989223" lon="26.561043">
<ele>89.639709</ele>
<time>2010-08-29T09:25:42Z</time>
<desc>lat.=55.989223, lon.=26.561043, Alt.=89.639709m. Speed=1.152000m/h.</desc>
<speed>0.320000</speed>
</trkpt>
<trkpt lat="55.989227" lon="26.561039">
<ele>89.604553</ele>
<time>2010-08-29T09:25:43Z</time>
<desc>lat.=55.989227, lon.=26.561039, Alt.=89.604553m. Speed=0.972000m/h.</desc>
<speed>0.270000</speed>
</trkpt>
<trkpt lat="55.989223" lon="26.561039">
<ele>89.575256</ele>
<time>2010-08-29T09:25:44Z</time>
<desc>lat.=55.989223, lon.=26.561039, Alt.=89.575256m. Speed=0.288000m/h.</desc>
<speed>0.080000</speed>
</trkpt>
<trkpt lat="55.989220" lon="26.561039">
<ele>89.829163</ele>
<time>2010-08-29T09:25:45Z</time>
<desc>lat.=55.989220, lon.=26.561039, Alt.=89.829163m. Speed=0.504000m/h.</desc>
<speed>0.140000</speed>
</trkpt>
<trkpt lat="55.989216" lon="26.561041">
<ele>90.018616</ele>
<time>2010-08-29T09:25:46Z</time>
<desc>lat.=55.989216, lon.=26.561041, Alt.=90.018616m. Speed=0.756000m/h.</desc>
<speed>0.210000</speed>
</trkpt>
<trkpt lat="55.989216" lon="26.561043">
<ele>90.012756</ele>
<time>2010-08-29T09:25:47Z</time>
<desc>lat.=55.989216, lon.=26.561043, Alt.=90.012756m. Speed=0.828000m/h.</desc>
<speed>0.230000</speed>
</trkpt>
<trkpt lat="55.989212" lon="26.561045">
<ele>90.008850</ele>
<time>2010-08-29T09:25:48Z</time>
<desc>lat.=55.989212, lon.=26.561045, Alt.=90.008850m. Speed=0.288000m/h.</desc>
<speed>0.080000</speed>
</trkpt>
<trkpt lat="55.989212" lon="26.561047">
<ele>90.004944</ele>
<time>2010-08-29T09:25:49Z</time>
<desc>lat.=55.989212, lon.=26.561047, Alt.=90.004944m. Speed=0.288000m/h.</desc>
<speed>0.080000</speed>
</trkpt>
<trkpt lat="55.989212" lon="26.561047">
<ele>90.001038</ele>
<time>2010-08-29T09:25:50Z</time>
<desc>lat.=55.989212, lon.=26.561047, Alt.=90.001038m. Speed=0.216000m/h.</desc>
<speed>0.060000</speed>
</trkpt>
<trkpt lat="55.989212" lon="26.561045">
<ele>90.008850</ele>
<time>2010-08-29T09:25:51Z</time>
<desc>lat.=55.989212, lon.=26.561045, Alt.=90.008850m. Speed=0.108000m/h.</desc>
<speed>0.030000</speed>
</trkpt>
<trkpt lat="55.989212" lon="26.561045">
<ele>90.018616</ele>
<time>2010-08-29T09:25:52Z</time>
<desc>lat.=55.989212, lon.=26.561045, Alt.=90.018616m. Speed=0.000000m/h.</desc>
<speed>0.000000</speed>
</trkpt>
<trkpt lat="55.989212" lon="26.561045">
<ele>90.026428</ele>
<time>2010-08-29T09:25:53Z</time>
<desc>lat.=55.989212, lon.=26.561045, Alt.=90.026428m. Speed=0.036000m/h.</desc>
<speed>0.010000</speed>
</trkpt>
<trkpt lat="55.989212" lon="26.561045">
<ele>90.022522</ele>
<time>2010-08-29T09:25:54Z</time>
<desc>lat.=55.989212, lon.=26.561045, Alt.=90.022522m. Speed=0.000000m/h.</desc>
<speed>0.000000</speed>
</trkpt>
<trkpt lat="55.989212" lon="26.561045">
<ele>90.008850</ele>
<time>2010-08-29T09:25:55Z</time>
<desc>lat.=55.989212, lon.=26.561045, Alt.=90.008850m. Speed=0.000000m/h.</desc>
<speed>0.000000</speed>
</trkpt>
<trkpt lat="55.989212" lon="26.561045">
<ele>90.026428</ele>
<time>2010-08-29T09:25:56Z</time>
<desc>lat.=55.989212, lon.=26.561045, Alt.=90.026428m. Speed=0.036000m/h.</desc>
<speed>0.010000</speed>
</trkpt>
<trkpt lat="55.989212" lon="26.561047">
<ele>90.057678</ele>
<time>2010-08-29T09:25:57Z</time>
<desc>lat.=55.989212, lon.=26.561047, Alt.=90.057678m. Speed=0.072000m/h.</desc>
<speed>0.020000</speed>
</trkpt>
<trkpt lat="55.989212" lon="26.561047">
<ele>90.063538</ele>
<time>2010-08-29T09:25:58Z</time>
<desc>lat.=55.989212, lon.=26.561047, Alt.=90.063538m. Speed=0.000000m/h.</desc>
<speed>0.000000</speed>
</trkpt>
<trkpt lat="55.989212" lon="26.561047">
<ele>90.071350</ele>
<time>2010-08-29T09:25:59Z</time>
<desc>lat.=55.989212, lon.=26.561047, Alt.=90.071350m. Speed=0.000000m/h.</desc>
<speed>0.000000</speed>
</trkpt>
<trkpt lat="55.989212" lon="26.561047">
<ele>90.057678</ele>
<time>2010-08-29T09:26:00Z</time>
<desc>lat.=55.989212, lon.=26.561047, Alt.=90.057678m. Speed=0.000000m/h.</desc>
<speed>0.000000</speed>
</trkpt>
<trkpt lat="55.989212" lon="26.561047">
<ele>90.063538</ele>
<time>2010-08-29T09:26:01Z</time>
<desc>lat.=55.989212, lon.=26.561047, Alt.=90.063538m. Speed=0.000000m/h.</desc>
<speed>0.000000</speed>
</trkpt>
<trkpt lat="55.989212" lon="26.561047">
<ele>90.075256</ele>
<time>2010-08-29T09:26:02Z</time>
<desc>lat.=55.989212, lon.=26.561047, Alt.=90.075256m. Speed=0.036000m/h.</desc>
<speed>0.010000</speed>
</trkpt>
<trkpt lat="55.989212" lon="26.561047">
<ele>90.077209</ele>
<time>2010-08-29T09:26:03Z</time>
<desc>lat.=55.989212, lon.=26.561047, Alt.=90.077209m. Speed=0.000000m/h.</desc>
<speed>0.000000</speed>
</trkpt>
<trkpt lat="55.989212" lon="26.561047">
<ele>90.079163</ele>
<time>2010-08-29T09:26:04Z</time>
<desc>lat.=55.989212, lon.=26.561047, Alt.=90.079163m. Speed=0.072000m/h.</desc>
<speed>0.020000</speed>
</trkpt>
<trkpt lat="55.989212" lon="26.561047">
<ele>90.090881</ele>
<time>2010-08-29T09:26:05Z</time>
<desc>lat.=55.989212, lon.=26.561047, Alt.=90.090881m. Speed=0.000000m/h.</desc>
<speed>0.000000</speed>
</trkpt>
<trkpt lat="55.989212" lon="26.561047">
<ele>90.096741</ele>
<time>2010-08-29T09:26:06Z</time>
<desc>lat.=55.989212, lon.=26.561047, Alt.=90.096741m. Speed=0.000000m/h.</desc>
<speed>0.000000</speed>
</trkpt>
<trkpt lat="55.989212" lon="26.561047">
<ele>90.110413</ele>
<time>2010-08-29T09:26:07Z</time>
<desc>lat.=55.989212, lon.=26.561047, Alt.=90.110413m. Speed=0.000000m/h.</desc>
<speed>0.000000</speed>
</trkpt>
<trkpt lat="55.989212" lon="26.561047">
<ele>90.122131</ele>
<time>2010-08-29T09:26:08Z</time>
<desc>lat.=55.989212, lon.=26.561047, Alt.=90.122131m. Speed=0.000000m/h.</desc>
<speed>0.000000</speed>
</trkpt>
<trkpt lat="55.989212" lon="26.561047">
<ele>90.126038</ele>
<time>2010-08-29T09:26:09Z</time>
<desc>lat.=55.989212, lon.=26.561047, Alt.=90.126038m. Speed=0.000000m/h.</desc>
<speed>0.000000</speed>
</trkpt>
<trkpt lat="55.989212" lon="26.561047">
<ele>90.133850</ele>
<time>2010-08-29T09:26:10Z</time>
<desc>lat.=55.989212, lon.=26.561047, Alt.=90.133850m. Speed=0.144000m/h.</desc>
<speed>0.040000</speed>
</trkpt>
<trkpt lat="55.989212" lon="26.561047">
<ele>90.143616</ele>
<time>2010-08-29T09:26:11Z</time>
<desc>lat.=55.989212, lon.=26.561047, Alt.=90.143616m. Speed=0.036000m/h.</desc>
<speed>0.010000</speed>
</trkpt>
<trkpt lat="55.989212" lon="26.561047">
<ele>90.147522</ele>
<time>2010-08-29T09:26:12Z</time>
<desc>lat.=55.989212, lon.=26.561047, Alt.=90.147522m. Speed=0.000000m/h.</desc>
<speed>0.000000</speed>
</trkpt>
<trkpt lat="55.989212" lon="26.561047">
<ele>90.151428</ele>
<time>2010-08-29T09:26:13Z</time>
<desc>lat.=55.989212, lon.=26.561047, Alt.=90.151428m. Speed=0.000000m/h.</desc>
<speed>0.000000</speed>
</trkpt>
<trkpt lat="55.989212" lon="26.561047">
<ele>90.157288</ele>
<time>2010-08-29T09:26:14Z</time>
<desc>lat.=55.989212, lon.=26.561047, Alt.=90.157288m. Speed=0.000000m/h.</desc>
<speed>0.000000</speed>
</trkpt>
<trkpt lat="55.989212" lon="26.561047">
<ele>90.165100</ele>
<time>2010-08-29T09:26:15Z</time>
<desc>lat.=55.989212, lon.=26.561047, Alt.=90.165100m. Speed=0.036000m/h.</desc>
<speed>0.010000</speed>
</trkpt>
<trkpt lat="55.989212" lon="26.561045">
<ele>90.172913</ele>
<time>2010-08-29T09:26:16Z</time>
<desc>lat.=55.989212, lon.=26.561045, Alt.=90.172913m. Speed=0.000000m/h.</desc>
<speed>0.000000</speed>
</trkpt>
<trkpt lat="55.989212" lon="26.561045">
<ele>90.178772</ele>
<time>2010-08-29T09:26:17Z</time>
<desc>lat.=55.989212, lon.=26.561045, Alt.=90.178772m. Speed=0.000000m/h.</desc>
<speed>0.000000</speed>
</trkpt>
<trkpt lat="55.989212" lon="26.561045">
<ele>90.178772</ele>
<time>2010-08-29T09:26:18Z</time>
<desc>lat.=55.989212, lon.=26.561045, Alt.=90.178772m. Speed=0.000000m/h.</desc>
<speed>0.000000</speed>
</trkpt>
<trkpt lat="55.989212" lon="26.561045">
<ele>90.184631</ele>
<time>2010-08-29T09:26:19Z</time>
<desc>lat.=55.989212, lon.=26.561045, Alt.=90.184631m. Speed=0.000000m/h.</desc>
<speed>0.000000</speed>
</trkpt>
<trkpt lat="55.989212" lon="26.561045">
<ele>90.192444</ele>
<time>2010-08-29T09:26:20Z</time>
<desc>lat.=55.989212, lon.=26.561045, Alt.=90.192444m. Speed=0.072000m/h.</desc>
<speed>0.020000</speed>
</trkpt>
<trkpt lat="55.989212" lon="26.561045">
<ele>90.196350</ele>
<time>2010-08-29T09:26:21Z</time>
<desc>lat.=55.989212, lon.=26.561045, Alt.=90.196350m. Speed=0.144000m/h.</desc>
<speed>0.040000</speed>
</trkpt>
<trkpt lat="55.989212" lon="26.561045">
<ele>90.200256</ele>
<time>2010-08-29T09:26:22Z</time>
<desc>lat.=55.989212, lon.=26.561045, Alt.=90.200256m. Speed=0.144000m/h.</desc>
<speed>0.040000</speed>
</trkpt>
<trkpt lat="55.989212" lon="26.561045">
<ele>90.202209</ele>
<time>2010-08-29T09:26:23Z</time>
<desc>lat.=55.989212, lon.=26.561045, Alt.=90.202209m. Speed=0.144000m/h.</desc>
<speed>0.040000</speed>
</trkpt>
<trkpt lat="55.989212" lon="26.561045">
<ele>90.210022</ele>
<time>2010-08-29T09:26:24Z</time>
<desc>lat.=55.989212, lon.=26.561045, Alt.=90.210022m. Speed=0.252000m/h.</desc>
<speed>0.070000</speed>
</trkpt>
<trkpt lat="55.989212" lon="26.561045">
<ele>90.213928</ele>
<time>2010-08-29T09:26:25Z</time>
<desc>lat.=55.989212, lon.=26.561045, Alt.=90.213928m. Speed=0.216000m/h.</desc>
<speed>0.060000</speed>
</trkpt>
<trkpt lat="55.989212" lon="26.561045">
<ele>90.215881</ele>
<time>2010-08-29T09:26:26Z</time>
<desc>lat.=55.989212, lon.=26.561045, Alt.=90.215881m. Speed=0.108000m/h.</desc>
<speed>0.030000</speed>
</trkpt>
<trkpt lat="55.989212" lon="26.561045">
<ele>90.219788</ele>
<time>2010-08-29T09:26:27Z</time>
<desc>lat.=55.989212, lon.=26.561045, Alt.=90.219788m. Speed=0.000000m/h.</desc>
<speed>0.000000</speed>
</trkpt>
<trkpt lat="55.989212" lon="26.561045">
<ele>90.221741</ele>
<time>2010-08-29T09:26:28Z</time>
<desc>lat.=55.989212, lon.=26.561045, Alt.=90.221741m. Speed=0.036000m/h.</desc>
<speed>0.010000</speed>
</trkpt>
<trkpt lat="55.989212" lon="26.561045">
<ele>90.227600</ele>
<time>2010-08-29T09:26:29Z</time>
<desc>lat.=55.989212, lon.=26.561045, Alt.=90.227600m. Speed=0.036000m/h.</desc>
<speed>0.010000</speed>
</trkpt>
<trkpt lat="55.989212" lon="26.561045">
<ele>90.231506</ele>
<time>2010-08-29T09:26:30Z</time>
<desc>lat.=55.989212, lon.=26.561045, Alt.=90.231506m. Speed=0.036000m/h.</desc>
<speed>0.010000</speed>
</trkpt>
<trkpt lat="55.989212" lon="26.561045">
<ele>90.233459</ele>
<time>2010-08-29T09:26:31Z</time>
<desc>lat.=55.989212, lon.=26.561045, Alt.=90.233459m. Speed=0.000000m/h.</desc>
<speed>0.000000</speed>
</trkpt>
<trkpt lat="55.989212" lon="26.561045">
<ele>90.235413</ele>
<time>2010-08-29T09:26:32Z</time>
<desc>lat.=55.989212, lon.=26.561045, Alt.=90.235413m. Speed=0.000000m/h.</desc>
<speed>0.000000</speed>
</trkpt>
<trkpt lat="55.989212" lon="26.561045">
<ele>90.235413</ele>
<time>2010-08-29T09:26:33Z</time>
<desc>lat.=55.989212, lon.=26.561045, Alt.=90.235413m. Speed=0.000000m/h.</desc>
<speed>0.000000</speed>
</trkpt>
<trkpt lat="55.989212" lon="26.561045">
<ele>90.241272</ele>
<time>2010-08-29T09:26:34Z</time>
<desc>lat.=55.989212, lon.=26.561045, Alt.=90.241272m. Speed=0.036000m/h.</desc>
<speed>0.010000</speed>
</trkpt>
<trkpt lat="55.989212" lon="26.561045">
<ele>90.243225</ele>
<time>2010-08-29T09:26:35Z</time>
<desc>lat.=55.989212, lon.=26.561045, Alt.=90.243225m. Speed=0.000000m/h.</desc>
<speed>0.000000</speed>
</trkpt>
<trkpt lat="55.989212" lon="26.561045">
<ele>90.247131</ele>
<time>2010-08-29T09:26:36Z</time>
<desc>lat.=55.989212, lon.=26.561045, Alt.=90.247131m. Speed=0.000000m/h.</desc>
<speed>0.000000</speed>
</trkpt>
<trkpt lat="55.989212" lon="26.561045">
<ele>90.251038</ele>
<time>2010-08-29T09:26:37Z</time>
<desc>lat.=55.989212, lon.=26.561045, Alt.=90.251038m. Speed=0.000000m/h.</desc>
<speed>0.000000</speed>
</trkpt>
<trkpt lat="55.989212" lon="26.561045">
<ele>90.252991</ele>
<time>2010-08-29T09:26:38Z</time>
<desc>lat.=55.989212, lon.=26.561045, Alt.=90.252991m. Speed=0.000000m/h.</desc>
<speed>0.000000</speed>
</trkpt>
<trkpt lat="55.989212" lon="26.561045">
<ele>90.252991</ele>
<time>2010-08-29T09:26:39Z</time>
<desc>lat.=55.989212, lon.=26.561045, Alt.=90.252991m. Speed=0.000000m/h.</desc>
<speed>0.000000</speed>
</trkpt>
<trkpt lat="55.989212" lon="26.561045">
<ele>90.252991</ele>
<time>2010-08-29T09:26:40Z</time>
<desc>lat.=55.989212, lon.=26.561045, Alt.=90.252991m. Speed=0.000000m/h.</desc>
<speed>0.000000</speed>
</trkpt>
<trkpt lat="55.989212" lon="26.561045">
<ele>90.252991</ele>
<time>2010-08-29T09:26:41Z</time>
<desc>lat.=55.989212, lon.=26.561045, Alt.=90.252991m. Speed=0.000000m/h.</desc>
<speed>0.000000</speed>
</trkpt>
<trkpt lat="55.989212" lon="26.561045">
<ele>90.251038</ele>
<time>2010-08-29T09:26:42Z</time>
<desc>lat.=55.989212, lon.=26.561045, Alt.=90.251038m. Speed=0.000000m/h.</desc>
<speed>0.000000</speed>
</trkpt>
<trkpt lat="55.989212" lon="26.561045">
<ele>90.252991</ele>
<time>2010-08-29T09:26:43Z</time>
<desc>lat.=55.989212, lon.=26.561045, Alt.=90.252991m. Speed=0.000000m/h.</desc>
<speed>0.000000</speed>
</trkpt>
<trkpt lat="55.989212" lon="26.561045">
<ele>90.254944</ele>
<time>2010-08-29T09:26:44Z</time>
<desc>lat.=55.989212, lon.=26.561045, Alt.=90.254944m. Speed=0.000000m/h.</desc>
<speed>0.000000</speed>
</trkpt>
<trkpt lat="55.989212" lon="26.561045">
<ele>90.254944</ele>
<time>2010-08-29T09:26:45Z</time>
<desc>lat.=55.989212, lon.=26.561045, Alt.=90.254944m. Speed=0.000000m/h.</desc>
<speed>0.000000</speed>
</trkpt>
<trkpt lat="55.989212" lon="26.561045">
<ele>90.258850</ele>
<time>2010-08-29T09:26:46Z</time>
<desc>lat.=55.989212, lon.=26.561045, Alt.=90.258850m. Speed=0.000000m/h.</desc>
<speed>0.000000</speed>
</trkpt>
<trkpt lat="55.989212" lon="26.561045">
<ele>90.260803</ele>
<time>2010-08-29T09:26:47Z</time>
<desc>lat.=55.989212, lon.=26.561045, Alt.=90.260803m. Speed=0.000000m/h.</desc>
<speed>0.000000</speed>
</trkpt>
<trkpt lat="55.989212" lon="26.561045">
<ele>90.258850</ele>
<time>2010-08-29T09:26:48Z</time>
<desc>lat.=55.989212, lon.=26.561045, Alt.=90.258850m. Speed=0.000000m/h.</desc>
<speed>0.000000</speed>
</trkpt>
<trkpt lat="55.989212" lon="26.561045">
<ele>90.258850</ele>
<time>2010-08-29T09:26:49Z</time>
<desc>lat.=55.989212, lon.=26.561045, Alt.=90.258850m. Speed=0.000000m/h.</desc>
<speed>0.000000</speed>
</trkpt>
<trkpt lat="55.989212" lon="26.561045">
<ele>90.256897</ele>
<time>2010-08-29T09:26:50Z</time>
<desc>lat.=55.989212, lon.=26.561045, Alt.=90.256897m. Speed=0.036000m/h.</desc>
<speed>0.010000</speed>
</trkpt>
<trkpt lat="55.989212" lon="26.561045">
<ele>90.256897</ele>
<time>2010-08-29T09:26:51Z</time>
<desc>lat.=55.989212, lon.=26.561045, Alt.=90.256897m. Speed=0.144000m/h.</desc>
<speed>0.040000</speed>
</trkpt>
<trkpt lat="55.989212" lon="26.561045">
<ele>90.256897</ele>
<time>2010-08-29T09:26:52Z</time>
<desc>lat.=55.989212, lon.=26.561045, Alt.=90.256897m. Speed=0.072000m/h.</desc>
<speed>0.020000</speed>
</trkpt>
<trkpt lat="55.989212" lon="26.561045">
<ele>90.254944</ele>
<time>2010-08-29T09:26:53Z</time>
<desc>lat.=55.989212, lon.=26.561045, Alt.=90.254944m. Speed=0.288000m/h.</desc>
<speed>0.080000</speed>
</trkpt>
<trkpt lat="55.989212" lon="26.561045">
<ele>90.254944</ele>
<time>2010-08-29T09:26:54Z</time>
<desc>lat.=55.989212, lon.=26.561045, Alt.=90.254944m. Speed=1.764000m/h.</desc>
<speed>0.490000</speed>
</trkpt>
<trkpt lat="55.989212" lon="26.561052">
<ele>90.374084</ele>
<time>2010-08-29T09:26:55Z</time>
<desc>lat.=55.989212, lon.=26.561052, Alt.=90.374084m. Speed=1.836000m/h.</desc>
<speed>0.510000</speed>
</trkpt>
<trkpt lat="55.989216" lon="26.561062">
<ele>90.383850</ele>
<time>2010-08-29T09:26:56Z</time>
<desc>lat.=55.989216, lon.=26.561062, Alt.=90.383850m. Speed=1.044000m/h.</desc>
<speed>0.290000</speed>
</trkpt>
<trkpt lat="55.989216" lon="26.561062">
<ele>90.319397</ele>
<time>2010-08-29T09:26:57Z</time>
<desc>lat.=55.989216, lon.=26.561062, Alt.=90.319397m. Speed=0.180000m/h.</desc>
<speed>0.050000</speed>
</trkpt>
<trkpt lat="55.989223" lon="26.561062">
<ele>90.413147</ele>
<time>2010-08-29T09:26:58Z</time>
<desc>lat.=55.989223, lon.=26.561062, Alt.=90.413147m. Speed=1.044000m/h.</desc>
<speed>0.290000</speed>
</trkpt>
<trkpt lat="55.989220" lon="26.561066">
<ele>90.364319</ele>
<time>2010-08-29T09:26:59Z</time>
<desc>lat.=55.989220, lon.=26.561066, Alt.=90.364319m. Speed=0.792000m/h.</desc>
<speed>0.220000</speed>
</trkpt>
<trkpt lat="55.989223" lon="26.561066">
<ele>90.405334</ele>
<time>2010-08-29T09:27:00Z</time>
<desc>lat.=55.989223, lon.=26.561066, Alt.=90.405334m. Speed=0.576000m/h.</desc>
<speed>0.160000</speed>
</trkpt>
<trkpt lat="55.989223" lon="26.561064">
<ele>90.430725</ele>
<time>2010-08-29T09:27:01Z</time>
<desc>lat.=55.989223, lon.=26.561064, Alt.=90.430725m. Speed=0.504000m/h.</desc>
<speed>0.140000</speed>
</trkpt>
<trkpt lat="55.989227" lon="26.561066">
<ele>90.450256</ele>
<time>2010-08-29T09:27:02Z</time>
<desc>lat.=55.989227, lon.=26.561066, Alt.=90.450256m. Speed=0.108000m/h.</desc>
<speed>0.030000</speed>
</trkpt>
<trkpt lat="55.989227" lon="26.561064">
<ele>90.450256</ele>
<time>2010-08-29T09:27:03Z</time>
<desc>lat.=55.989227, lon.=26.561064, Alt.=90.450256m. Speed=0.108000m/h.</desc>
<speed>0.030000</speed>
</trkpt>
<trkpt lat="55.989227" lon="26.561066">
<ele>90.448303</ele>
<time>2010-08-29T09:27:04Z</time>
<desc>lat.=55.989227, lon.=26.561066, Alt.=90.448303m. Speed=0.144000m/h.</desc>
<speed>0.040000</speed>
</trkpt>
<trkpt lat="55.989227" lon="26.561066">
<ele>90.432678</ele>
<time>2010-08-29T09:27:05Z</time>
<desc>lat.=55.989227, lon.=26.561066, Alt.=90.432678m. Speed=0.360000m/h.</desc>
<speed>0.100000</speed>
</trkpt>
<trkpt lat="55.989227" lon="26.561066">
<ele>90.413147</ele>
<time>2010-08-29T09:27:06Z</time>
<desc>lat.=55.989227, lon.=26.561066, Alt.=90.413147m. Speed=0.468000m/h.</desc>
<speed>0.130000</speed>
</trkpt>
<trkpt lat="55.989223" lon="26.561066">
<ele>90.383850</ele>
<time>2010-08-29T09:27:07Z</time>
<desc>lat.=55.989223, lon.=26.561066, Alt.=90.383850m. Speed=0.108000m/h.</desc>
<speed>0.030000</speed>
</trkpt>
<trkpt lat="55.989223" lon="26.561066">
<ele>90.348694</ele>
<time>2010-08-29T09:27:08Z</time>
<desc>lat.=55.989223, lon.=26.561066, Alt.=90.348694m. Speed=0.252000m/h.</desc>
<speed>0.070000</speed>
</trkpt>
<trkpt lat="55.989223" lon="26.561066">
<ele>90.315491</ele>
<time>2010-08-29T09:27:09Z</time>
<desc>lat.=55.989223, lon.=26.561066, Alt.=90.315491m. Speed=0.216000m/h.</desc>
<speed>0.060000</speed>
</trkpt>
<trkpt lat="55.989223" lon="26.561066">
<ele>90.272522</ele>
<time>2010-08-29T09:27:10Z</time>
<desc>lat.=55.989223, lon.=26.561066, Alt.=90.272522m. Speed=0.216000m/h.</desc>
<speed>0.060000</speed>
</trkpt>
<trkpt lat="55.989223" lon="26.561066">
<ele>90.229553</ele>
<time>2010-08-29T09:27:11Z</time>
<desc>lat.=55.989223, lon.=26.561066, Alt.=90.229553m. Speed=0.144000m/h.</desc>
<speed>0.040000</speed>
</trkpt>
<trkpt lat="55.989223" lon="26.561066">
<ele>90.198303</ele>
<time>2010-08-29T09:27:12Z</time>
<desc>lat.=55.989223, lon.=26.561066, Alt.=90.198303m. Speed=0.180000m/h.</desc>
<speed>0.050000</speed>
</trkpt>
<trkpt lat="55.989223" lon="26.561066">
<ele>90.172913</ele>
<time>2010-08-29T09:27:13Z</time>
<desc>lat.=55.989223, lon.=26.561066, Alt.=90.172913m. Speed=0.108000m/h.</desc>
<speed>0.030000</speed>
</trkpt>
<trkpt lat="55.989223" lon="26.561066">
<ele>90.167053</ele>
<time>2010-08-29T09:27:14Z</time>
<desc>lat.=55.989223, lon.=26.561066, Alt.=90.167053m. Speed=0.036000m/h.</desc>
<speed>0.010000</speed>
</trkpt>
<trkpt lat="55.989223" lon="26.561066">
<ele>90.165100</ele>
<time>2010-08-29T09:27:15Z</time>
<desc>lat.=55.989223, lon.=26.561066, Alt.=90.165100m. Speed=0.000000m/h.</desc>
<speed>0.000000</speed>
</trkpt>
<trkpt lat="55.989223" lon="26.561066">
<ele>90.165100</ele>
<time>2010-08-29T09:27:16Z</time>
<desc>lat.=55.989223, lon.=26.561066, Alt.=90.165100m. Speed=0.036000m/h.</desc>
<speed>0.010000</speed>
</trkpt>
<trkpt lat="55.989223" lon="26.561066">
<ele>90.163147</ele>
<time>2010-08-29T09:27:17Z</time>
<desc>lat.=55.989223, lon.=26.561066, Alt.=90.163147m. Speed=0.000000m/h.</desc>
<speed>0.000000</speed>
</trkpt>
<trkpt lat="55.989223" lon="26.561066">
<ele>90.159241</ele>
<time>2010-08-29T09:27:18Z</time>
<desc>lat.=55.989223, lon.=26.561066, Alt.=90.159241m. Speed=0.036000m/h.</desc>
<speed>0.010000</speed>
</trkpt>
<trkpt lat="55.989223" lon="26.561066">
<ele>90.161194</ele>
<time>2010-08-29T09:27:19Z</time>
<desc>lat.=55.989223, lon.=26.561066, Alt.=90.161194m. Speed=0.000000m/h.</desc>
<speed>0.000000</speed>
</trkpt>
<trkpt lat="55.989223" lon="26.561066">
<ele>90.161194</ele>
<time>2010-08-29T09:27:20Z</time>
<desc>lat.=55.989223, lon.=26.561066, Alt.=90.161194m. Speed=0.000000m/h.</desc>
<speed>0.000000</speed>
</trkpt>
<trkpt lat="55.989223" lon="26.561066">
<ele>90.163147</ele>
<time>2010-08-29T09:27:21Z</time>
<desc>lat.=55.989223, lon.=26.561066, Alt.=90.163147m. Speed=0.036000m/h.</desc>
<speed>0.010000</speed>
</trkpt>
<trkpt lat="55.989223" lon="26.561066">
<ele>90.163147</ele>
<time>2010-08-29T09:27:22Z</time>
<desc>lat.=55.989223, lon.=26.561066, Alt.=90.163147m. Speed=0.036000m/h.</desc>
<speed>0.010000</speed>
</trkpt>
<trkpt lat="55.989223" lon="26.561066">
<ele>90.161194</ele>
<time>2010-08-29T09:27:23Z</time>
<desc>lat.=55.989223, lon.=26.561066, Alt.=90.161194m. Speed=0.036000m/h.</desc>
<speed>0.010000</speed>
</trkpt>
<trkpt lat="55.989223" lon="26.561066">
<ele>90.163147</ele>
<time>2010-08-29T09:27:24Z</time>
<desc>lat.=55.989223, lon.=26.561066, Alt.=90.163147m. Speed=0.000000m/h.</desc>
<speed>0.000000</speed>
</trkpt>
<trkpt lat="55.989223" lon="26.561066">
<ele>90.163147</ele>
<time>2010-08-29T09:27:25Z</time>
<desc>lat.=55.989223, lon.=26.561066, Alt.=90.163147m. Speed=0.036000m/h.</desc>
<speed>0.010000</speed>
</trkpt>
<trkpt lat="55.989223" lon="26.561066">
<ele>90.169006</ele>
<time>2010-08-29T09:27:26Z</time>
<desc>lat.=55.989223, lon.=26.561066, Alt.=90.169006m. Speed=0.000000m/h.</desc>
<speed>0.000000</speed>
</trkpt>
<trkpt lat="55.989223" lon="26.561066">
<ele>90.172913</ele>
<time>2010-08-29T09:27:27Z</time>
<desc>lat.=55.989223, lon.=26.561066, Alt.=90.172913m. Speed=0.036000m/h.</desc>
<speed>0.010000</speed>
</trkpt>
<trkpt lat="55.989223" lon="26.561066">
<ele>90.176819</ele>
<time>2010-08-29T09:27:28Z</time>
<desc>lat.=55.989223, lon.=26.561066, Alt.=90.176819m. Speed=0.072000m/h.</desc>
<speed>0.020000</speed>
</trkpt>
<trkpt lat="55.989223" lon="26.561066">
<ele>90.184631</ele>
<time>2010-08-29T09:27:29Z</time>
<desc>lat.=55.989223, lon.=26.561066, Alt.=90.184631m. Speed=0.180000m/h.</desc>
<speed>0.050000</speed>
</trkpt>
<trkpt lat="55.989223" lon="26.561066">
<ele>90.188538</ele>
<time>2010-08-29T09:27:30Z</time>
<desc>lat.=55.989223, lon.=26.561066, Alt.=90.188538m. Speed=0.108000m/h.</desc>
<speed>0.030000</speed>
</trkpt>
<trkpt lat="55.989223" lon="26.561066">
<ele>90.186584</ele>
<time>2010-08-29T09:27:31Z</time>
<desc>lat.=55.989223, lon.=26.561066, Alt.=90.186584m. Speed=0.036000m/h.</desc>
<speed>0.010000</speed>
</trkpt>
<trkpt lat="55.989223" lon="26.561066">
<ele>90.186584</ele>
<time>2010-08-29T09:27:32Z</time>
<desc>lat.=55.989223, lon.=26.561066, Alt.=90.186584m. Speed=0.108000m/h.</desc>
<speed>0.030000</speed>
</trkpt>
<trkpt lat="55.989223" lon="26.561066">
<ele>90.184631</ele>
<time>2010-08-29T09:27:33Z</time>
<desc>lat.=55.989223, lon.=26.561066, Alt.=90.184631m. Speed=0.036000m/h.</desc>
<speed>0.010000</speed>
</trkpt>
<trkpt lat="55.989223" lon="26.561066">
<ele>90.186584</ele>
<time>2010-08-29T09:27:34Z</time>
<desc>lat.=55.989223, lon.=26.561066, Alt.=90.186584m. Speed=0.036000m/h.</desc>
<speed>0.010000</speed>
</trkpt>
<trkpt lat="55.989223" lon="26.561066">
<ele>90.188538</ele>
<time>2010-08-29T09:27:35Z</time>
<desc>lat.=55.989223, lon.=26.561066, Alt.=90.188538m. Speed=0.000000m/h.</desc>
<speed>0.000000</speed>
</trkpt>
<trkpt lat="55.989223" lon="26.561066">
<ele>90.190491</ele>
<time>2010-08-29T09:27:36Z</time>
<desc>lat.=55.989223, lon.=26.561066, Alt.=90.190491m. Speed=0.072000m/h.</desc>
<speed>0.020000</speed>
</trkpt>
<trkpt lat="55.989223" lon="26.561066">
<ele>90.192444</ele>
<time>2010-08-29T09:27:37Z</time>
<desc>lat.=55.989223, lon.=26.561066, Alt.=90.192444m. Speed=0.036000m/h.</desc>
<speed>0.010000</speed>
</trkpt>
<trkpt lat="55.989223" lon="26.561066">
<ele>90.192444</ele>
<time>2010-08-29T09:27:38Z</time>
<desc>lat.=55.989223, lon.=26.561066, Alt.=90.192444m. Speed=0.036000m/h.</desc>
<speed>0.010000</speed>
</trkpt>
<trkpt lat="55.989223" lon="26.561066">
<ele>90.190491</ele>
<time>2010-08-29T09:27:39Z</time>
<desc>lat.=55.989223, lon.=26.561066, Alt.=90.190491m. Speed=0.000000m/h.</desc>
<speed>0.000000</speed>
</trkpt>
<trkpt lat="55.989223" lon="26.561066">
<ele>90.194397</ele>
<time>2010-08-29T09:27:40Z</time>
<desc>lat.=55.989223, lon.=26.561066, Alt.=90.194397m. Speed=0.000000m/h.</desc>
<speed>0.000000</speed>
</trkpt>
<trkpt lat="55.989223" lon="26.561066">
<ele>90.192444</ele>
<time>2010-08-29T09:27:41Z</time>
<desc>lat.=55.989223, lon.=26.561066, Alt.=90.192444m. Speed=0.108000m/h.</desc>
<speed>0.030000</speed>
</trkpt>
<trkpt lat="55.989223" lon="26.561066">
<ele>90.192444</ele>
<time>2010-08-29T09:27:42Z</time>
<desc>lat.=55.989223, lon.=26.561066, Alt.=90.192444m. Speed=0.036000m/h.</desc>
<speed>0.010000</speed>
</trkpt>
<trkpt lat="55.989223" lon="26.561066">
<ele>90.196350</ele>
<time>2010-08-29T09:27:43Z</time>
<desc>lat.=55.989223, lon.=26.561066, Alt.=90.196350m. Speed=0.072000m/h.</desc>
<speed>0.020000</speed>
</trkpt>
<trkpt lat="55.989223" lon="26.561066">
<ele>90.206116</ele>
<time>2010-08-29T09:27:44Z</time>
<desc>lat.=55.989223, lon.=26.561066, Alt.=90.206116m. Speed=0.108000m/h.</desc>
<speed>0.030000</speed>
</trkpt>
<trkpt lat="55.989223" lon="26.561066">
<ele>90.213928</ele>
<time>2010-08-29T09:27:45Z</time>
<desc>lat.=55.989223, lon.=26.561066, Alt.=90.213928m. Speed=0.072000m/h.</desc>
<speed>0.020000</speed>
</trkpt>
<trkpt lat="55.989223" lon="26.561066">
<ele>90.219788</ele>
<time>2010-08-29T09:27:46Z</time>
<desc>lat.=55.989223, lon.=26.561066, Alt.=90.219788m. Speed=0.252000m/h.</desc>
<speed>0.070000</speed>
</trkpt>
<trkpt lat="55.989223" lon="26.561066">
<ele>90.217834</ele>
<time>2010-08-29T09:27:47Z</time>
<desc>lat.=55.989223, lon.=26.561066, Alt.=90.217834m. Speed=0.144000m/h.</desc>
<speed>0.040000</speed>
</trkpt>
<trkpt lat="55.989223" lon="26.561066">
<ele>90.221741</ele>
<time>2010-08-29T09:27:48Z</time>
<desc>lat.=55.989223, lon.=26.561066, Alt.=90.221741m. Speed=0.108000m/h.</desc>
<speed>0.030000</speed>
</trkpt>
<trkpt lat="55.989223" lon="26.561066">
<ele>90.225647</ele>
<time>2010-08-29T09:27:49Z</time>
<desc>lat.=55.989223, lon.=26.561066, Alt.=90.225647m. Speed=0.036000m/h.</desc>
<speed>0.010000</speed>
</trkpt>
<trkpt lat="55.989223" lon="26.561066">
<ele>90.229553</ele>
<time>2010-08-29T09:27:50Z</time>
<desc>lat.=55.989223, lon.=26.561066, Alt.=90.229553m. Speed=0.036000m/h.</desc>
<speed>0.010000</speed>
</trkpt>
<trkpt lat="55.989223" lon="26.561066">
<ele>90.229553</ele>
<time>2010-08-29T09:27:51Z</time>
<desc>lat.=55.989223, lon.=26.561066, Alt.=90.229553m. Speed=0.144000m/h.</desc>
<speed>0.040000</speed>
</trkpt>
<trkpt lat="55.989223" lon="26.561066">
<ele>90.231506</ele>
<time>2010-08-29T09:27:52Z</time>
<desc>lat.=55.989223, lon.=26.561066, Alt.=90.231506m. Speed=0.108000m/h.</desc>
<speed>0.030000</speed>
</trkpt>
<trkpt lat="55.989223" lon="26.561066">
<ele>90.231506</ele>
<time>2010-08-29T09:27:53Z</time>
<desc>lat.=55.989223, lon.=26.561066, Alt.=90.231506m. Speed=0.072000m/h.</desc>
<speed>0.020000</speed>
</trkpt>
<trkpt lat="55.989223" lon="26.561066">
<ele>90.237366</ele>
<time>2010-08-29T09:27:54Z</time>
<desc>lat.=55.989223, lon.=26.561066, Alt.=90.237366m. Speed=0.396000m/h.</desc>
<speed>0.110000</speed>
</trkpt>
<trkpt lat="55.989227" lon="26.561066">
<ele>90.245178</ele>
<time>2010-08-29T09:27:55Z</time>
<desc>lat.=55.989227, lon.=26.561066, Alt.=90.245178m. Speed=0.072000m/h.</desc>
<speed>0.020000</speed>
</trkpt>
<trkpt lat="55.989227" lon="26.561066">
<ele>90.245178</ele>
<time>2010-08-29T09:27:56Z</time>
<desc>lat.=55.989227, lon.=26.561066, Alt.=90.245178m. Speed=0.000000m/h.</desc>
<speed>0.000000</speed>
</trkpt>
<trkpt lat="55.989227" lon="26.561066">
<ele>90.245178</ele>
<time>2010-08-29T09:27:57Z</time>
<desc>lat.=55.989227, lon.=26.561066, Alt.=90.245178m. Speed=0.000000m/h.</desc>
<speed>0.000000</speed>
</trkpt>
<trkpt lat="55.989227" lon="26.561066">
<ele>90.249084</ele>
<time>2010-08-29T09:27:58Z</time>
<desc>lat.=55.989227, lon.=26.561066, Alt.=90.249084m. Speed=0.036000m/h.</desc>
<speed>0.010000</speed>
</trkpt>
<trkpt lat="55.989227" lon="26.561066">
<ele>90.251038</ele>
<time>2010-08-29T09:27:59Z</time>
<desc>lat.=55.989227, lon.=26.561066, Alt.=90.251038m. Speed=0.072000m/h.</desc>
<speed>0.020000</speed>
</trkpt>
<trkpt lat="55.989227" lon="26.561066">
<ele>90.249084</ele>
<time>2010-08-29T09:28:00Z</time>
<desc>lat.=55.989227, lon.=26.561066, Alt.=90.249084m. Speed=0.396000m/h.</desc>
<speed>0.110000</speed>
</trkpt>
<trkpt lat="55.989227" lon="26.561066">
<ele>90.245178</ele>
<time>2010-08-29T09:28:01Z</time>
<desc>lat.=55.989227, lon.=26.561066, Alt.=90.245178m. Speed=4.176000m/h.</desc>
<speed>1.160000</speed>
</trkpt>
<trkpt lat="55.989239" lon="26.561075">
<ele>90.446350</ele>
<time>2010-08-29T09:28:02Z</time>
<desc>lat.=55.989239, lon.=26.561075, Alt.=90.446350m. Speed=1.368000m/h.</desc>
<speed>0.380000</speed>
</trkpt>
<trkpt lat="55.989243" lon="26.561085">
<ele>90.585022</ele>
<time>2010-08-29T09:28:03Z</time>
<desc>lat.=55.989243, lon.=26.561085, Alt.=90.585022m. Speed=2.160000m/h.</desc>
<speed>0.600000</speed>
</trkpt>
<trkpt lat="55.989246" lon="26.561075">
<ele>90.512756</ele>
<time>2010-08-29T09:28:04Z</time>
<desc>lat.=55.989246, lon.=26.561075, Alt.=90.512756m. Speed=1.620000m/h.</desc>
<speed>0.450000</speed>
</trkpt>
<trkpt lat="55.989254" lon="26.561062">
<ele>90.483459</ele>
<time>2010-08-29T09:28:05Z</time>
<desc>lat.=55.989254, lon.=26.561062, Alt.=90.483459m. Speed=1.908000m/h.</desc>
<speed>0.530000</speed>
</trkpt>
<trkpt lat="55.989258" lon="26.561058">
<ele>90.504944</ele>
<time>2010-08-29T09:28:06Z</time>
<desc>lat.=55.989258, lon.=26.561058, Alt.=90.504944m. Speed=1.152000m/h.</desc>
<speed>0.320000</speed>
</trkpt>
<trkpt lat="55.989262" lon="26.561060">
<ele>90.586975</ele>
<time>2010-08-29T09:28:07Z</time>
<desc>lat.=55.989262, lon.=26.561060, Alt.=90.586975m. Speed=1.008000m/h.</desc>
<speed>0.280000</speed>
</trkpt>
<trkpt lat="55.989273" lon="26.561058">
<ele>90.872131</ele>
<time>2010-08-29T09:28:08Z</time>
<desc>lat.=55.989273, lon.=26.561058, Alt.=90.872131m. Speed=0.972000m/h.</desc>
<speed>0.270000</speed>
</trkpt>
<trkpt lat="55.989277" lon="26.561054">
<ele>90.829163</ele>
<time>2010-08-29T09:28:09Z</time>
<desc>lat.=55.989277, lon.=26.561054, Alt.=90.829163m. Speed=1.008000m/h.</desc>
<speed>0.280000</speed>
</trkpt>
<trkpt lat="55.989277" lon="26.561066">
<ele>90.657288</ele>
<time>2010-08-29T09:28:10Z</time>
<desc>lat.=55.989277, lon.=26.561066, Alt.=90.657288m. Speed=0.864000m/h.</desc>
<speed>0.240000</speed>
</trkpt>
<trkpt lat="55.989277" lon="26.561068">
<ele>90.555725</ele>
<time>2010-08-29T09:28:11Z</time>
<desc>lat.=55.989277, lon.=26.561068, Alt.=90.555725m. Speed=0.540000m/h.</desc>
<speed>0.150000</speed>
</trkpt>
<trkpt lat="55.989281" lon="26.561069">
<ele>90.442444</ele>
<time>2010-08-29T09:28:12Z</time>
<desc>lat.=55.989281, lon.=26.561069, Alt.=90.442444m. Speed=0.576000m/h.</desc>
<speed>0.160000</speed>
</trkpt>
<trkpt lat="55.989281" lon="26.561069">
<ele>90.329163</ele>
<time>2010-08-29T09:28:13Z</time>
<desc>lat.=55.989281, lon.=26.561069, Alt.=90.329163m. Speed=0.720000m/h.</desc>
<speed>0.200000</speed>
</trkpt>
<trkpt lat="55.989281" lon="26.561069">
<ele>90.221741</ele>
<time>2010-08-29T09:28:14Z</time>
<desc>lat.=55.989281, lon.=26.561069, Alt.=90.221741m. Speed=3.672000m/h.</desc>
<speed>1.020000</speed>
</trkpt>
<trkpt lat="55.989296" lon="26.561073">
<ele>90.190491</ele>
<time>2010-08-29T09:28:15Z</time>
<desc>lat.=55.989296, lon.=26.561073, Alt.=90.190491m. Speed=4.716000m/h.</desc>
<speed>1.310000</speed>
</trkpt>
<trkpt lat="55.989311" lon="26.561075">
<ele>90.038147</ele>
<time>2010-08-29T09:28:16Z</time>
<desc>lat.=55.989311, lon.=26.561075, Alt.=90.038147m. Speed=4.860000m/h.</desc>
<speed>1.350000</speed>
</trkpt>
<trkpt lat="55.989323" lon="26.561073">
<ele>89.833069</ele>
<time>2010-08-29T09:28:17Z</time>
<desc>lat.=55.989323, lon.=26.561073, Alt.=89.833069m. Speed=4.284000m/h.</desc>
<speed>1.190000</speed>
</trkpt>
<trkpt lat="55.989353" lon="26.561075">
<ele>89.887756</ele>
<time>2010-08-29T09:28:18Z</time>
<desc>lat.=55.989353, lon.=26.561075, Alt.=89.887756m. Speed=7.200000m/h.</desc>
<speed>2.000000</speed>
</trkpt>
<trkpt lat="55.989380" lon="26.561064">
<ele>90.143616</ele>
<time>2010-08-29T09:28:19Z</time>
<desc>lat.=55.989380, lon.=26.561064, Alt.=90.143616m. Speed=8.100000m/h.</desc>
<speed>2.250000</speed>
</trkpt>
<trkpt lat="55.989403" lon="26.561050">
<ele>90.301819</ele>
<time>2010-08-29T09:28:20Z</time>
<desc>lat.=55.989403, lon.=26.561050, Alt.=90.301819m. Speed=7.524000m/h.</desc>
<speed>2.090000</speed>
</trkpt>
<trkpt lat="55.989433" lon="26.561037">
<ele>90.958069</ele>
<time>2010-08-29T09:28:21Z</time>
<desc>lat.=55.989433, lon.=26.561037, Alt.=90.958069m. Speed=8.928000m/h.</desc>
<speed>2.480000</speed>
</trkpt>
<trkpt lat="55.989464" lon="26.561020">
<ele>90.690491</ele>
<time>2010-08-29T09:28:22Z</time>
<desc>lat.=55.989464, lon.=26.561020, Alt.=90.690491m. Speed=8.100000m/h.</desc>
<speed>2.250000</speed>
</trkpt>
<trkpt lat="55.989487" lon="26.561020">
<ele>90.883850</ele>
<time>2010-08-29T09:28:23Z</time>
<desc>lat.=55.989487, lon.=26.561020, Alt.=90.883850m. Speed=7.848000m/h.</desc>
<speed>2.180000</speed>
</trkpt>
<trkpt lat="55.989529" lon="26.561007">
<ele>91.532288</ele>
<time>2010-08-29T09:28:24Z</time>
<desc>lat.=55.989529, lon.=26.561007, Alt.=91.532288m. Speed=8.532000m/h.</desc>
<speed>2.370000</speed>
</trkpt>
<trkpt lat="55.989559" lon="26.561005">
<ele>91.391663</ele>
<time>2010-08-29T09:28:25Z</time>
<desc>lat.=55.989559, lon.=26.561005, Alt.=91.391663m. Speed=7.956000m/h.</desc>
<speed>2.210000</speed>
</trkpt>
<trkpt lat="55.989590" lon="26.560999">
<ele>91.372131</ele>
<time>2010-08-29T09:28:26Z</time>
<desc>lat.=55.989590, lon.=26.560999, Alt.=91.372131m. Speed=7.884000m/h.</desc>
<speed>2.190000</speed>
</trkpt>
<trkpt lat="55.989609" lon="26.560995">
<ele>91.743225</ele>
<time>2010-08-29T09:28:27Z</time>
<desc>lat.=55.989609, lon.=26.560995, Alt.=91.743225m. Speed=7.524000m/h.</desc>
<speed>2.090000</speed>
</trkpt>
<trkpt lat="55.989628" lon="26.561003">
<ele>91.686584</ele>
<time>2010-08-29T09:28:28Z</time>
<desc>lat.=55.989628, lon.=26.561003, Alt.=91.686584m. Speed=7.344000m/h.</desc>
<speed>2.040000</speed>
</trkpt>
<trkpt lat="55.989647" lon="26.561014">
<ele>91.627991</ele>
<time>2010-08-29T09:28:29Z</time>
<desc>lat.=55.989647, lon.=26.561014, Alt.=91.627991m. Speed=6.948000m/h.</desc>
<speed>1.930000</speed>
</trkpt>
<trkpt lat="55.989670" lon="26.561029">
<ele>91.438538</ele>
<time>2010-08-29T09:28:30Z</time>
<desc>lat.=55.989670, lon.=26.561029, Alt.=91.438538m. Speed=8.172000m/h.</desc>
<speed>2.270000</speed>
</trkpt>
<trkpt lat="55.989697" lon="26.561045">
<ele>91.835022</ele>
<time>2010-08-29T09:28:31Z</time>
<desc>lat.=55.989697, lon.=26.561045, Alt.=91.835022m. Speed=8.856000m/h.</desc>
<speed>2.460000</speed>
</trkpt>
<trkpt lat="55.989716" lon="26.561064">
<ele>91.833069</ele>
<time>2010-08-29T09:28:32Z</time>
<desc>lat.=55.989716, lon.=26.561064, Alt.=91.833069m. Speed=7.308000m/h.</desc>
<speed>2.030000</speed>
</trkpt>
<trkpt lat="55.989727" lon="26.561083">
<ele>91.995178</ele>
<time>2010-08-29T09:28:33Z</time>
<desc>lat.=55.989727, lon.=26.561083, Alt.=91.995178m. Speed=6.516000m/h.</desc>
<speed>1.810000</speed>
</trkpt>
<trkpt lat="55.989742" lon="26.561110">
<ele>91.995178</ele>
<time>2010-08-29T09:28:34Z</time>
<desc>lat.=55.989742, lon.=26.561110, Alt.=91.995178m. Speed=6.588000m/h.</desc>
<speed>1.830000</speed>
</trkpt>
<trkpt lat="55.989761" lon="26.561138">
<ele>92.044006</ele>
<time>2010-08-29T09:28:35Z</time>
<desc>lat.=55.989761, lon.=26.561138, Alt.=92.044006m. Speed=8.604000m/h.</desc>
<speed>2.390000</speed>
</trkpt>
<trkpt lat="55.989780" lon="26.561163">
<ele>91.069397</ele>
<time>2010-08-29T09:28:36Z</time>
<desc>lat.=55.989780, lon.=26.561163, Alt.=91.069397m. Speed=6.552000m/h.</desc>
<speed>1.820000</speed>
</trkpt>
<trkpt lat="55.989788" lon="26.561182">
<ele>90.883850</ele>
<time>2010-08-29T09:28:37Z</time>
<desc>lat.=55.989788, lon.=26.561182, Alt.=90.883850m. Speed=4.608000m/h.</desc>
<speed>1.280000</speed>
</trkpt>
<trkpt lat="55.989796" lon="26.561199">
<ele>90.989319</ele>
<time>2010-08-29T09:28:38Z</time>
<desc>lat.=55.989796, lon.=26.561199, Alt.=90.989319m. Speed=2.772000m/h.</desc>
<speed>0.770000</speed>
</trkpt>
<trkpt lat="55.989799" lon="26.561216">
<ele>91.081116</ele>
<time>2010-08-29T09:28:39Z</time>
<desc>lat.=55.989799, lon.=26.561216, Alt.=91.081116m. Speed=2.052000m/h.</desc>
<speed>0.570000</speed>
</trkpt>
<trkpt lat="55.989799" lon="26.561232">
<ele>91.104553</ele>
<time>2010-08-29T09:28:40Z</time>
<desc>lat.=55.989799, lon.=26.561232, Alt.=91.104553m. Speed=3.348000m/h.</desc>
<speed>0.930000</speed>
</trkpt>
<trkpt lat="55.989807" lon="26.561255">
<ele>90.850647</ele>
<time>2010-08-29T09:28:41Z</time>
<desc>lat.=55.989807, lon.=26.561255, Alt.=90.850647m. Speed=2.952000m/h.</desc>
<speed>0.820000</speed>
</trkpt>
<trkpt lat="55.989807" lon="26.561281">
<ele>90.387756</ele>
<time>2010-08-29T09:28:42Z</time>
<desc>lat.=55.989807, lon.=26.561281, Alt.=90.387756m. Speed=3.096000m/h.</desc>
<speed>0.860000</speed>
</trkpt>
<trkpt lat="55.989811" lon="26.561296">
<ele>90.112366</ele>
<time>2010-08-29T09:28:43Z</time>
<desc>lat.=55.989811, lon.=26.561296, Alt.=90.112366m. Speed=3.960000m/h.</desc>
<speed>1.100000</speed>
</trkpt>
<trkpt lat="55.989815" lon="26.561323">
<ele>90.044006</ele>
<time>2010-08-29T09:28:44Z</time>
<desc>lat.=55.989815, lon.=26.561323, Alt.=90.044006m. Speed=5.508000m/h.</desc>
<speed>1.530000</speed>
</trkpt>
<trkpt lat="55.989815" lon="26.561354">
<ele>90.118225</ele>
<time>2010-08-29T09:28:45Z</time>
<desc>lat.=55.989815, lon.=26.561354, Alt.=90.118225m. Speed=5.004000m/h.</desc>
<speed>1.390000</speed>
</trkpt>
<trkpt lat="55.989819" lon="26.561380">
<ele>90.104553</ele>
<time>2010-08-29T09:28:46Z</time>
<desc>lat.=55.989819, lon.=26.561380, Alt.=90.104553m. Speed=5.652000m/h.</desc>
<speed>1.570000</speed>
</trkpt>
<trkpt lat="55.989826" lon="26.561407">
<ele>90.446350</ele>
<time>2010-08-29T09:28:47Z</time>
<desc>lat.=55.989826, lon.=26.561407, Alt.=90.446350m. Speed=6.480000m/h.</desc>
<speed>1.800000</speed>
</trkpt>
<trkpt lat="55.989838" lon="26.561440">
<ele>90.559631</ele>
<time>2010-08-29T09:28:48Z</time>
<desc>lat.=55.989838, lon.=26.561440, Alt.=90.559631m. Speed=7.884000m/h.</desc>
<speed>2.190000</speed>
</trkpt>
<trkpt lat="55.989845" lon="26.561468">
<ele>90.586975</ele>
<time>2010-08-29T09:28:49Z</time>
<desc>lat.=55.989845, lon.=26.561468, Alt.=90.586975m. Speed=7.812000m/h.</desc>
<speed>2.170000</speed>
</trkpt>
<trkpt lat="55.989868" lon="26.561504">
<ele>90.907288</ele>
<time>2010-08-29T09:28:50Z</time>
<desc>lat.=55.989868, lon.=26.561504, Alt.=90.907288m. Speed=8.604000m/h.</desc>
<speed>2.390000</speed>
</trkpt>
<trkpt lat="55.989883" lon="26.561544">
<ele>90.915100</ele>
<time>2010-08-29T09:28:51Z</time>
<desc>lat.=55.989883, lon.=26.561544, Alt.=90.915100m. Speed=8.532000m/h.</desc>
<speed>2.370000</speed>
</trkpt>
<trkpt lat="55.989899" lon="26.561577">
<ele>90.895569</ele>
<time>2010-08-29T09:28:52Z</time>
<desc>lat.=55.989899, lon.=26.561577, Alt.=90.895569m. Speed=8.928000m/h.</desc>
<speed>2.480000</speed>
</trkpt>
<trkpt lat="55.989910" lon="26.561611">
<ele>91.266663</ele>
<time>2010-08-29T09:28:53Z</time>
<desc>lat.=55.989910, lon.=26.561611, Alt.=91.266663m. Speed=8.820000m/h.</desc>
<speed>2.450000</speed>
</trkpt>
<trkpt lat="55.989925" lon="26.561651">
<ele>91.487366</ele>
<time>2010-08-29T09:28:54Z</time>
<desc>lat.=55.989925, lon.=26.561651, Alt.=91.487366m. Speed=8.604000m/h.</desc>
<speed>2.390000</speed>
</trkpt>
<trkpt lat="55.989944" lon="26.561687">
<ele>91.278381</ele>
<time>2010-08-29T09:28:55Z</time>
<desc>lat.=55.989944, lon.=26.561687, Alt.=91.278381m. Speed=8.604000m/h.</desc>
<speed>2.390000</speed>
</trkpt>
<trkpt lat="55.989964" lon="26.561720">
<ele>91.186584</ele>
<time>2010-08-29T09:28:56Z</time>
<desc>lat.=55.989964, lon.=26.561720, Alt.=91.186584m. Speed=8.856000m/h.</desc>
<speed>2.460000</speed>
</trkpt>
<trkpt lat="55.989975" lon="26.561758">
<ele>91.024475</ele>
<time>2010-08-29T09:28:57Z</time>
<desc>lat.=55.989975, lon.=26.561758, Alt.=91.024475m. Speed=9.360000m/h.</desc>
<speed>2.600000</speed>
</trkpt>
<trkpt lat="55.989990" lon="26.561790">
<ele>91.139709</ele>
<time>2010-08-29T09:28:58Z</time>
<desc>lat.=55.989990, lon.=26.561790, Alt.=91.139709m. Speed=9.108000m/h.</desc>
<speed>2.530000</speed>
</trkpt>
<trkpt lat="55.990005" lon="26.561821">
<ele>91.473694</ele>
<time>2010-08-29T09:28:59Z</time>
<desc>lat.=55.990005, lon.=26.561821, Alt.=91.473694m. Speed=8.172000m/h.</desc>
<speed>2.270000</speed>
</trkpt>
<trkpt lat="55.990021" lon="26.561844">
<ele>91.694397</ele>
<time>2010-08-29T09:29:00Z</time>
<desc>lat.=55.990021, lon.=26.561844, Alt.=91.694397m. Speed=8.352000m/h.</desc>
<speed>2.320000</speed>
</trkpt>
<trkpt lat="55.990044" lon="26.561869">
<ele>91.555725</ele>
<time>2010-08-29T09:29:01Z</time>
<desc>lat.=55.990044, lon.=26.561869, Alt.=91.555725m. Speed=10.188000m/h.</desc>
<speed>2.830000</speed>
</trkpt>
<trkpt lat="55.990063" lon="26.561901">
<ele>91.710022</ele>
<time>2010-08-29T09:29:02Z</time>
<desc>lat.=55.990063, lon.=26.561901, Alt.=91.710022m. Speed=11.376000m/h.</desc>
<speed>3.160000</speed>
</trkpt>
<trkpt lat="55.990086" lon="26.561930">
<ele>91.370178</ele>
<time>2010-08-29T09:29:03Z</time>
<desc>lat.=55.990086, lon.=26.561930, Alt.=91.370178m. Speed=9.324000m/h.</desc>
<speed>2.590000</speed>
</trkpt>
<trkpt lat="55.990101" lon="26.561960">
<ele>91.866272</ele>
<time>2010-08-29T09:29:04Z</time>
<desc>lat.=55.990101, lon.=26.561960, Alt.=91.866272m. Speed=8.460000m/h.</desc>
<speed>2.350000</speed>
</trkpt>
<trkpt lat="55.990120" lon="26.561987">
<ele>91.786194</ele>
<time>2010-08-29T09:29:05Z</time>
<desc>lat.=55.990120, lon.=26.561987, Alt.=91.786194m. Speed=9.036000m/h.</desc>
<speed>2.510000</speed>
</trkpt>
<trkpt lat="55.990150" lon="26.562006">
<ele>92.120178</ele>
<time>2010-08-29T09:29:06Z</time>
<desc>lat.=55.990150, lon.=26.562006, Alt.=92.120178m. Speed=9.936000m/h.</desc>
<speed>2.760000</speed>
</trkpt>
<trkpt lat="55.990173" lon="26.562031">
<ele>92.280334</ele>
<time>2010-08-29T09:29:07Z</time>
<desc>lat.=55.990173, lon.=26.562031, Alt.=92.280334m. Speed=10.980000m/h.</desc>
<speed>3.050000</speed>
</trkpt>
<trkpt lat="55.990196" lon="26.562061">
<ele>92.530334</ele>
<time>2010-08-29T09:29:08Z</time>
<desc>lat.=55.990196, lon.=26.562061, Alt.=92.530334m. Speed=9.792000m/h.</desc>
<speed>2.720000</speed>
</trkpt>
<trkpt lat="55.990219" lon="26.562090">
<ele>92.399475</ele>
<time>2010-08-29T09:29:09Z</time>
<desc>lat.=55.990219, lon.=26.562090, Alt.=92.399475m. Speed=9.252000m/h.</desc>
<speed>2.570000</speed>
</trkpt>
<trkpt lat="55.990234" lon="26.562130">
<ele>92.354553</ele>
<time>2010-08-29T09:29:10Z</time>
<desc>lat.=55.990234, lon.=26.562130, Alt.=92.354553m. Speed=7.812000m/h.</desc>
<speed>2.170000</speed>
</trkpt>
<trkpt lat="55.990261" lon="26.562162">
<ele>92.905334</ele>
<time>2010-08-29T09:29:11Z</time>
<desc>lat.=55.990261, lon.=26.562162, Alt.=92.905334m. Speed=7.956000m/h.</desc>
<speed>2.210000</speed>
</trkpt>
<trkpt lat="55.990276" lon="26.562204">
<ele>92.743225</ele>
<time>2010-08-29T09:29:12Z</time>
<desc>lat.=55.990276, lon.=26.562204, Alt.=92.743225m. Speed=9.396000m/h.</desc>
<speed>2.610000</speed>
</trkpt>
<trkpt lat="55.990292" lon="26.562250">
<ele>93.292053</ele>
<time>2010-08-29T09:29:13Z</time>
<desc>lat.=55.990292, lon.=26.562250, Alt.=93.292053m. Speed=11.304000m/h.</desc>
<speed>3.140000</speed>
</trkpt>
<trkpt lat="55.990314" lon="26.562288">
<ele>93.725647</ele>
<time>2010-08-29T09:29:14Z</time>
<desc>lat.=55.990314, lon.=26.562288, Alt.=93.725647m. Speed=12.204000m/h.</desc>
<speed>3.390000</speed>
</trkpt>
<trkpt lat="55.990334" lon="26.562330">
<ele>94.067444</ele>
<time>2010-08-29T09:29:15Z</time>
<desc>lat.=55.990334, lon.=26.562330, Alt.=94.067444m. Speed=11.376000m/h.</desc>
<speed>3.160000</speed>
</trkpt>
<trkpt lat="55.990353" lon="26.562368">
<ele>94.637756</ele>
<time>2010-08-29T09:29:16Z</time>
<desc>lat.=55.990353, lon.=26.562368, Alt.=94.637756m. Speed=11.268000m/h.</desc>
<speed>3.130000</speed>
</trkpt>
<trkpt lat="55.990364" lon="26.562408">
<ele>94.999084</ele>
<time>2010-08-29T09:29:17Z</time>
<desc>lat.=55.990364, lon.=26.562408, Alt.=94.999084m. Speed=9.324000m/h.</desc>
<speed>2.590000</speed>
</trkpt>
<trkpt lat="55.990372" lon="26.562449">
<ele>95.465881</ele>
<time>2010-08-29T09:29:18Z</time>
<desc>lat.=55.990372, lon.=26.562449, Alt.=95.465881m. Speed=8.928000m/h.</desc>
<speed>2.480000</speed>
</trkpt>
<trkpt lat="55.990383" lon="26.562487">
<ele>95.706116</ele>
<time>2010-08-29T09:29:19Z</time>
<desc>lat.=55.990383, lon.=26.562487, Alt.=95.706116m. Speed=9.396000m/h.</desc>
<speed>2.610000</speed>
</trkpt>
<trkpt lat="55.990402" lon="26.562517">
<ele>95.368225</ele>
<time>2010-08-29T09:29:20Z</time>
<desc>lat.=55.990402, lon.=26.562517, Alt.=95.368225m. Speed=8.028000m/h.</desc>
<speed>2.230000</speed>
</trkpt>
<trkpt lat="55.990417" lon="26.562551">
<ele>95.477600</ele>
<time>2010-08-29T09:29:21Z</time>
<desc>lat.=55.990417, lon.=26.562551, Alt.=95.477600m. Speed=9.036000m/h.</desc>
<speed>2.510000</speed>
</trkpt>
<trkpt lat="55.990433" lon="26.562605">
<ele>95.174866</ele>
<time>2010-08-29T09:29:22Z</time>
<desc>lat.=55.990433, lon.=26.562605, Alt.=95.174866m. Speed=9.684000m/h.</desc>
<speed>2.690000</speed>
</trkpt>
<trkpt lat="55.990452" lon="26.562672">
<ele>94.206116</ele>
<time>2010-08-29T09:29:23Z</time>
<desc>lat.=55.990452, lon.=26.562672, Alt.=94.206116m. Speed=10.836000m/h.</desc>
<speed>3.010000</speed>
</trkpt>
<trkpt lat="55.990471" lon="26.562716">
<ele>93.706116</ele>
<time>2010-08-29T09:29:24Z</time>
<desc>lat.=55.990471, lon.=26.562716, Alt.=93.706116m. Speed=7.812000m/h.</desc>
<speed>2.170000</speed>
</trkpt>
<trkpt lat="55.990479" lon="26.562740">
<ele>93.448303</ele>
<time>2010-08-29T09:29:25Z</time>
<desc>lat.=55.990479, lon.=26.562740, Alt.=93.448303m. Speed=3.168000m/h.</desc>
<speed>0.880000</speed>
</trkpt>
<trkpt lat="55.990490" lon="26.562761">
<ele>93.739319</ele>
<time>2010-08-29T09:29:26Z</time>
<desc>lat.=55.990490, lon.=26.562761, Alt.=93.739319m. Speed=5.544000m/h.</desc>
<speed>1.540000</speed>
</trkpt>
<trkpt lat="55.990501" lon="26.562811">
<ele>93.659241</ele>
<time>2010-08-29T09:29:27Z</time>
<desc>lat.=55.990501, lon.=26.562811, Alt.=93.659241m. Speed=5.580000m/h.</desc>
<speed>1.550000</speed>
</trkpt>
<trkpt lat="55.990513" lon="26.562868">
<ele>93.385803</ele>
<time>2010-08-29T09:29:28Z</time>
<desc>lat.=55.990513, lon.=26.562868, Alt.=93.385803m. Speed=4.680000m/h.</desc>
<speed>1.300000</speed>
</trkpt>
<trkpt lat="55.990520" lon="26.562908">
<ele>92.901428</ele>
<time>2010-08-29T09:29:29Z</time>
<desc>lat.=55.990520, lon.=26.562908, Alt.=92.901428m. Speed=5.544000m/h.</desc>
<speed>1.540000</speed>
</trkpt>
<trkpt lat="55.990532" lon="26.562941">
<ele>92.969788</ele>
<time>2010-08-29T09:29:30Z</time>
<desc>lat.=55.990532, lon.=26.562941, Alt.=92.969788m. Speed=4.860000m/h.</desc>
<speed>1.350000</speed>
</trkpt>
<trkpt lat="55.990536" lon="26.562983">
<ele>93.399475</ele>
<time>2010-08-29T09:29:31Z</time>
<desc>lat.=55.990536, lon.=26.562983, Alt.=93.399475m. Speed=5.472000m/h.</desc>
<speed>1.520000</speed>
</trkpt>
<trkpt lat="55.990543" lon="26.563017">
<ele>92.954163</ele>
<time>2010-08-29T09:29:32Z</time>
<desc>lat.=55.990543, lon.=26.563017, Alt.=92.954163m. Speed=5.328000m/h.</desc>
<speed>1.480000</speed>
</trkpt>
<trkpt lat="55.990551" lon="26.563065">
<ele>93.038147</ele>
<time>2010-08-29T09:29:33Z</time>
<desc>lat.=55.990551, lon.=26.563065, Alt.=93.038147m. Speed=5.652000m/h.</desc>
<speed>1.570000</speed>
</trkpt>
<trkpt lat="55.990566" lon="26.563101">
<ele>92.887756</ele>
<time>2010-08-29T09:29:34Z</time>
<desc>lat.=55.990566, lon.=26.563101, Alt.=92.887756m. Speed=5.436000m/h.</desc>
<speed>1.510000</speed>
</trkpt>
<trkpt lat="55.990585" lon="26.563131">
<ele>93.069397</ele>
<time>2010-08-29T09:29:35Z</time>
<desc>lat.=55.990585, lon.=26.563131, Alt.=93.069397m. Speed=6.228000m/h.</desc>
<speed>1.730000</speed>
</trkpt>
<trkpt lat="55.990597" lon="26.563175">
<ele>92.530334</ele>
<time>2010-08-29T09:29:36Z</time>
<desc>lat.=55.990597, lon.=26.563175, Alt.=92.530334m. Speed=5.868000m/h.</desc>
<speed>1.630000</speed>
</trkpt>
<trkpt lat="55.990608" lon="26.563215">
<ele>92.786194</ele>
<time>2010-08-29T09:29:37Z</time>
<desc>lat.=55.990608, lon.=26.563215, Alt.=92.786194m. Speed=6.192000m/h.</desc>
<speed>1.720000</speed>
</trkpt>
<trkpt lat="55.990631" lon="26.563251">
<ele>92.883850</ele>
<time>2010-08-29T09:29:38Z</time>
<desc>lat.=55.990631, lon.=26.563251, Alt.=92.883850m. Speed=6.660000m/h.</desc>
<speed>1.850000</speed>
</trkpt>
<trkpt lat="55.990650" lon="26.563297">
<ele>93.036194</ele>
<time>2010-08-29T09:29:39Z</time>
<desc>lat.=55.990650, lon.=26.563297, Alt.=93.036194m. Speed=8.604000m/h.</desc>
<speed>2.390000</speed>
</trkpt>
<trkpt lat="55.990665" lon="26.563343">
<ele>93.585022</ele>
<time>2010-08-29T09:29:40Z</time>
<desc>lat.=55.990665, lon.=26.563343, Alt.=93.585022m. Speed=9.468000m/h.</desc>
<speed>2.630000</speed>
</trkpt>
<trkpt lat="55.990673" lon="26.563381">
<ele>93.641663</ele>
<time>2010-08-29T09:29:41Z</time>
<desc>lat.=55.990673, lon.=26.563381, Alt.=93.641663m. Speed=7.632000m/h.</desc>
<speed>2.120000</speed>
</trkpt>
<trkpt lat="55.990685" lon="26.563417">
<ele>93.784241</ele>
<time>2010-08-29T09:29:42Z</time>
<desc>lat.=55.990685, lon.=26.563417, Alt.=93.784241m. Speed=7.596000m/h.</desc>
<speed>2.110000</speed>
</trkpt>
<trkpt lat="55.990696" lon="26.563454">
<ele>94.034241</ele>
<time>2010-08-29T09:29:43Z</time>
<desc>lat.=55.990696, lon.=26.563454, Alt.=94.034241m. Speed=7.308000m/h.</desc>
<speed>2.030000</speed>
</trkpt>
<trkpt lat="55.990711" lon="26.563507">
<ele>94.186584</ele>
<time>2010-08-29T09:29:44Z</time>
<desc>lat.=55.990711, lon.=26.563507, Alt.=94.186584m. Speed=7.164000m/h.</desc>
<speed>1.990000</speed>
</trkpt>
<trkpt lat="55.990723" lon="26.563551">
<ele>94.715881</ele>
<time>2010-08-29T09:29:45Z</time>
<desc>lat.=55.990723, lon.=26.563551, Alt.=94.715881m. Speed=5.472000m/h.</desc>
<speed>1.520000</speed>
</trkpt>
<trkpt lat="55.990734" lon="26.563581">
<ele>94.866272</ele>
<time>2010-08-29T09:29:46Z</time>
<desc>lat.=55.990734, lon.=26.563581, Alt.=94.866272m. Speed=5.508000m/h.</desc>
<speed>1.530000</speed>
</trkpt>
<trkpt lat="55.990746" lon="26.563614">
<ele>95.307678</ele>
<time>2010-08-29T09:29:47Z</time>
<desc>lat.=55.990746, lon.=26.563614, Alt.=95.307678m. Speed=2.124000m/h.</desc>
<speed>0.590000</speed>
</trkpt>
<trkpt lat="55.990753" lon="26.563641">
<ele>95.342834</ele>
<time>2010-08-29T09:29:48Z</time>
<desc>lat.=55.990753, lon.=26.563641, Alt.=95.342834m. Speed=5.904000m/h.</desc>
<speed>1.640000</speed>
</trkpt>
<trkpt lat="55.990761" lon="26.563677">
<ele>95.475647</ele>
<time>2010-08-29T09:29:49Z</time>
<desc>lat.=55.990761, lon.=26.563677, Alt.=95.475647m. Speed=5.400000m/h.</desc>
<speed>1.500000</speed>
</trkpt>
<trkpt lat="55.990765" lon="26.563709">
<ele>95.340881</ele>
<time>2010-08-29T09:29:50Z</time>
<desc>lat.=55.990765, lon.=26.563709, Alt.=95.340881m. Speed=5.472000m/h.</desc>
<speed>1.520000</speed>
</trkpt>
<trkpt lat="55.990776" lon="26.563734">
<ele>95.210022</ele>
<time>2010-08-29T09:29:51Z</time>
<desc>lat.=55.990776, lon.=26.563734, Alt.=95.210022m. Speed=4.248000m/h.</desc>
<speed>1.180000</speed>
</trkpt>
<trkpt lat="55.990791" lon="26.563782">
<ele>95.032288</ele>
<time>2010-08-29T09:29:52Z</time>
<desc>lat.=55.990791, lon.=26.563782, Alt.=95.032288m. Speed=7.560000m/h.</desc>
<speed>2.100000</speed>
</trkpt>
<trkpt lat="55.990807" lon="26.563812">
<ele>94.883850</ele>
<time>2010-08-29T09:29:53Z</time>
<desc>lat.=55.990807, lon.=26.563812, Alt.=94.883850m. Speed=6.336000m/h.</desc>
<speed>1.760000</speed>
</trkpt>
<trkpt lat="55.990814" lon="26.563868">
<ele>94.866272</ele>
<time>2010-08-29T09:29:54Z</time>
<desc>lat.=55.990814, lon.=26.563868, Alt.=94.866272m. Speed=8.208000m/h.</desc>
<speed>2.280000</speed>
</trkpt>
<trkpt lat="55.990837" lon="26.563934">
<ele>94.116272</ele>
<time>2010-08-29T09:29:55Z</time>
<desc>lat.=55.990837, lon.=26.563934, Alt.=94.116272m. Speed=7.056000m/h.</desc>
<speed>1.960000</speed>
</trkpt>
<trkpt lat="55.990852" lon="26.564001">
<ele>94.114319</ele>
<time>2010-08-29T09:29:56Z</time>
<desc>lat.=55.990852, lon.=26.564001, Alt.=94.114319m. Speed=8.316000m/h.</desc>
<speed>2.310000</speed>
</trkpt>
<trkpt lat="55.990871" lon="26.564060">
<ele>94.059631</ele>
<time>2010-08-29T09:29:57Z</time>
<desc>lat.=55.990871, lon.=26.564060, Alt.=94.059631m. Speed=10.728000m/h.</desc>
<speed>2.980000</speed>
</trkpt>
<trkpt lat="55.990898" lon="26.564125">
<ele>94.038147</ele>
<time>2010-08-29T09:29:58Z</time>
<desc>lat.=55.990898, lon.=26.564125, Alt.=94.038147m. Speed=8.640000m/h.</desc>
<speed>2.400000</speed>
</trkpt>
<trkpt lat="55.990921" lon="26.564182">
<ele>93.602600</ele>
<time>2010-08-29T09:29:59Z</time>
<desc>lat.=55.990921, lon.=26.564182, Alt.=93.602600m. Speed=10.080000m/h.</desc>
<speed>2.800000</speed>
</trkpt>
<trkpt lat="55.990936" lon="26.564236">
<ele>93.626038</ele>
<time>2010-08-29T09:30:00Z</time>
<desc>lat.=55.990936, lon.=26.564236, Alt.=93.626038m. Speed=9.432000m/h.</desc>
<speed>2.620000</speed>
</trkpt>
<trkpt lat="55.990959" lon="26.564272">
<ele>93.278381</ele>
<time>2010-08-29T09:30:01Z</time>
<desc>lat.=55.990959, lon.=26.564272, Alt.=93.278381m. Speed=7.272000m/h.</desc>
<speed>2.020000</speed>
</trkpt>
<trkpt lat="55.990971" lon="26.564335">
<ele>94.280334</ele>
<time>2010-08-29T09:30:02Z</time>
<desc>lat.=55.990971, lon.=26.564335, Alt.=94.280334m. Speed=6.732000m/h.</desc>
<speed>1.870000</speed>
</trkpt>
<trkpt lat="55.990990" lon="26.564381">
<ele>95.294006</ele>
<time>2010-08-29T09:30:03Z</time>
<desc>lat.=55.990990, lon.=26.564381, Alt.=95.294006m. Speed=7.956000m/h.</desc>
<speed>2.210000</speed>
</trkpt>
<trkpt lat="55.991009" lon="26.564423">
<ele>96.358459</ele>
<time>2010-08-29T09:30:04Z</time>
<desc>lat.=55.991009, lon.=26.564423, Alt.=96.358459m. Speed=7.704000m/h.</desc>
<speed>2.140000</speed>
</trkpt>
<trkpt lat="55.991028" lon="26.564445">
<ele>95.426819</ele>
<time>2010-08-29T09:30:05Z</time>
<desc>lat.=55.991028, lon.=26.564445, Alt.=95.426819m. Speed=5.616000m/h.</desc>
<speed>1.560000</speed>
</trkpt>
<trkpt lat="55.991051" lon="26.564470">
<ele>94.522522</ele>
<time>2010-08-29T09:30:06Z</time>
<desc>lat.=55.991051, lon.=26.564470, Alt.=94.522522m. Speed=9.468000m/h.</desc>
<speed>2.630000</speed>
</trkpt>
<trkpt lat="55.991070" lon="26.564495">
<ele>94.116272</ele>
<time>2010-08-29T09:30:07Z</time>
<desc>lat.=55.991070, lon.=26.564495, Alt.=94.116272m. Speed=5.796000m/h.</desc>
<speed>1.610000</speed>
</trkpt>
<trkpt lat="55.991085" lon="26.564516">
<ele>93.120178</ele>
<time>2010-08-29T09:30:08Z</time>
<desc>lat.=55.991085, lon.=26.564516, Alt.=93.120178m. Speed=6.660000m/h.</desc>
<speed>1.850000</speed>
</trkpt>
<trkpt lat="55.991104" lon="26.564535">
<ele>92.719788</ele>
<time>2010-08-29T09:30:09Z</time>
<desc>lat.=55.991104, lon.=26.564535, Alt.=92.719788m. Speed=4.968000m/h.</desc>
<speed>1.380000</speed>
</trkpt>
<trkpt lat="55.991119" lon="26.564548">
<ele>92.702209</ele>
<time>2010-08-29T09:30:10Z</time>
<desc>lat.=55.991119, lon.=26.564548, Alt.=92.702209m. Speed=5.616000m/h.</desc>
<speed>1.560000</speed>
</trkpt>
<trkpt lat="55.991146" lon="26.564568">
<ele>92.303772</ele>
<time>2010-08-29T09:30:11Z</time>
<desc>lat.=55.991146, lon.=26.564568, Alt.=92.303772m. Speed=8.028000m/h.</desc>
<speed>2.230000</speed>
</trkpt>
<trkpt lat="55.991173" lon="26.564587">
<ele>92.567444</ele>
<time>2010-08-29T09:30:12Z</time>
<desc>lat.=55.991173, lon.=26.564587, Alt.=92.567444m. Speed=7.884000m/h.</desc>
<speed>2.190000</speed>
</trkpt>
<trkpt lat="55.991207" lon="26.564600">
<ele>93.594788</ele>
<time>2010-08-29T09:30:13Z</time>
<desc>lat.=55.991207, lon.=26.564600, Alt.=93.594788m. Speed=8.676000m/h.</desc>
<speed>2.410000</speed>
</trkpt>
<trkpt lat="55.991234" lon="26.564611">
<ele>93.647522</ele>
<time>2010-08-29T09:30:14Z</time>
<desc>lat.=55.991234, lon.=26.564611, Alt.=93.647522m. Speed=8.820000m/h.</desc>
<speed>2.450000</speed>
</trkpt>
<trkpt lat="55.991257" lon="26.564631">
<ele>93.872131</ele>
<time>2010-08-29T09:30:15Z</time>
<desc>lat.=55.991257, lon.=26.564631, Alt.=93.872131m. Speed=7.164000m/h.</desc>
<speed>1.990000</speed>
</trkpt>
<trkpt lat="55.991287" lon="26.564648">
<ele>94.229553</ele>
<time>2010-08-29T09:30:16Z</time>
<desc>lat.=55.991287, lon.=26.564648, Alt.=94.229553m. Speed=9.216000m/h.</desc>
<speed>2.560000</speed>
</trkpt>
<trkpt lat="55.991318" lon="26.564657">
<ele>94.260803</ele>
<time>2010-08-29T09:30:17Z</time>
<desc>lat.=55.991318, lon.=26.564657, Alt.=94.260803m. Speed=6.804000m/h.</desc>
<speed>1.890000</speed>
</trkpt>
<trkpt lat="55.991341" lon="26.564665">
<ele>94.458069</ele>
<time>2010-08-29T09:30:18Z</time>
<desc>lat.=55.991341, lon.=26.564665, Alt.=94.458069m. Speed=6.732000m/h.</desc>
<speed>1.870000</speed>
</trkpt>
<trkpt lat="55.991360" lon="26.564671">
<ele>94.331116</ele>
<time>2010-08-29T09:30:19Z</time>
<desc>lat.=55.991360, lon.=26.564671, Alt.=94.331116m. Speed=6.408000m/h.</desc>
<speed>1.780000</speed>
</trkpt>
<trkpt lat="55.991379" lon="26.564678">
<ele>94.756897</ele>
<time>2010-08-29T09:30:20Z</time>
<desc>lat.=55.991379, lon.=26.564678, Alt.=94.756897m. Speed=6.156000m/h.</desc>
<speed>1.710000</speed>
</trkpt>
<trkpt lat="55.991402" lon="26.564682">
<ele>95.110413</ele>
<time>2010-08-29T09:30:21Z</time>
<desc>lat.=55.991402, lon.=26.564682, Alt.=95.110413m. Speed=5.292000m/h.</desc>
<speed>1.470000</speed>
</trkpt>
<trkpt lat="55.991421" lon="26.564684">
<ele>95.141663</ele>
<time>2010-08-29T09:30:22Z</time>
<desc>lat.=55.991421, lon.=26.564684, Alt.=95.141663m. Speed=5.472000m/h.</desc>
<speed>1.520000</speed>
</trkpt>
<trkpt lat="55.991436" lon="26.564686">
<ele>95.448303</ele>
<time>2010-08-29T09:30:23Z</time>
<desc>lat.=55.991436, lon.=26.564686, Alt.=95.448303m. Speed=3.708000m/h.</desc>
<speed>1.030000</speed>
</trkpt>
<trkpt lat="55.991470" lon="26.564678">
<ele>96.026428</ele>
<time>2010-08-29T09:30:24Z</time>
<desc>lat.=55.991470, lon.=26.564678, Alt.=96.026428m. Speed=7.380000m/h.</desc>
<speed>2.050000</speed>
</trkpt>
<trkpt lat="55.991497" lon="26.564678">
<ele>96.627991</ele>
<time>2010-08-29T09:30:25Z</time>
<desc>lat.=55.991497, lon.=26.564678, Alt.=96.627991m. Speed=6.624000m/h.</desc>
<speed>1.840000</speed>
</trkpt>
<trkpt lat="55.991539" lon="26.564669">
<ele>97.610413</ele>
<time>2010-08-29T09:30:26Z</time>
<desc>lat.=55.991539, lon.=26.564669, Alt.=97.610413m. Speed=6.660000m/h.</desc>
<speed>1.850000</speed>
</trkpt>
<trkpt lat="55.991573" lon="26.564663">
<ele>98.528381</ele>
<time>2010-08-29T09:30:27Z</time>
<desc>lat.=55.991573, lon.=26.564663, Alt.=98.528381m. Speed=7.200000m/h.</desc>
<speed>2.000000</speed>
</trkpt>
<trkpt lat="55.991596" lon="26.564665">
<ele>99.635803</ele>
<time>2010-08-29T09:30:28Z</time>
<desc>lat.=55.991596, lon.=26.564665, Alt.=99.635803m. Speed=5.904000m/h.</desc>
<speed>1.640000</speed>
</trkpt>
<trkpt lat="55.991619" lon="26.564665">
<ele>100.465881</ele>
<time>2010-08-29T09:30:29Z</time>
<desc>lat.=55.991619, lon.=26.564665, Alt.=100.465881m. Speed=6.660000m/h.</desc>
<speed>1.850000</speed>
</trkpt>
<trkpt lat="55.991646" lon="26.564657">
<ele>101.356506</ele>
<time>2010-08-29T09:30:30Z</time>
<desc>lat.=55.991646, lon.=26.564657, Alt.=101.356506m. Speed=7.740000m/h.</desc>
<speed>2.150000</speed>
</trkpt>
<trkpt lat="55.991676" lon="26.564655">
<ele>102.038147</ele>
<time>2010-08-29T09:30:31Z</time>
<desc>lat.=55.991676, lon.=26.564655, Alt.=102.038147m. Speed=8.784000m/h.</desc>
<speed>2.440000</speed>
</trkpt>
<trkpt lat="55.991707" lon="26.564648">
<ele>101.463928</ele>
<time>2010-08-29T09:30:32Z</time>
<desc>lat.=55.991707, lon.=26.564648, Alt.=101.463928m. Speed=7.200000m/h.</desc>
<speed>2.000000</speed>
</trkpt>
<trkpt lat="55.991730" lon="26.564640">
<ele>101.135803</ele>
<time>2010-08-29T09:30:33Z</time>
<desc>lat.=55.991730, lon.=26.564640, Alt.=101.135803m. Speed=5.652000m/h.</desc>
<speed>1.570000</speed>
</trkpt>
<trkpt lat="55.991749" lon="26.564631">
<ele>100.922913</ele>
<time>2010-08-29T09:30:34Z</time>
<desc>lat.=55.991749, lon.=26.564631, Alt.=100.922913m. Speed=5.220000m/h.</desc>
<speed>1.450000</speed>
</trkpt>
<trkpt lat="55.991772" lon="26.564621">
<ele>99.952209</ele>
<time>2010-08-29T09:30:35Z</time>
<desc>lat.=55.991772, lon.=26.564621, Alt.=99.952209m. Speed=5.040000m/h.</desc>
<speed>1.400000</speed>
</trkpt>
<trkpt lat="55.991795" lon="26.564621">
<ele>99.848694</ele>
<time>2010-08-29T09:30:36Z</time>
<desc>lat.=55.991795, lon.=26.564621, Alt.=99.848694m. Speed=6.228000m/h.</desc>
<speed>1.730000</speed>
</trkpt>
<trkpt lat="55.991814" lon="26.564615">
<ele>99.678772</ele>
<time>2010-08-29T09:30:37Z</time>
<desc>lat.=55.991814, lon.=26.564615, Alt.=99.678772m. Speed=5.292000m/h.</desc>
<speed>1.470000</speed>
</trkpt>
<trkpt lat="55.991833" lon="26.564608">
<ele>100.403381</ele>
<time>2010-08-29T09:30:38Z</time>
<desc>lat.=55.991833, lon.=26.564608, Alt.=100.403381m. Speed=4.356000m/h.</desc>
<speed>1.210000</speed>
</trkpt>
<trkpt lat="55.991852" lon="26.564611">
<ele>100.651428</ele>
<time>2010-08-29T09:30:39Z</time>
<desc>lat.=55.991852, lon.=26.564611, Alt.=100.651428m. Speed=5.364000m/h.</desc>
<speed>1.490000</speed>
</trkpt>
<trkpt lat="55.991879" lon="26.564634">
<ele>101.221741</ele>
<time>2010-08-29T09:30:40Z</time>
<desc>lat.=55.991879, lon.=26.564634, Alt.=101.221741m. Speed=5.436000m/h.</desc>
<speed>1.510000</speed>
</trkpt>
<trkpt lat="55.991898" lon="26.564648">
<ele>101.583069</ele>
<time>2010-08-29T09:30:41Z</time>
<desc>lat.=55.991898, lon.=26.564648, Alt.=101.583069m. Speed=4.860000m/h.</desc>
<speed>1.350000</speed>
</trkpt>
<trkpt lat="55.991913" lon="26.564661">
<ele>102.012756</ele>
<time>2010-08-29T09:30:42Z</time>
<desc>lat.=55.991913, lon.=26.564661, Alt.=102.012756m. Speed=4.896000m/h.</desc>
<speed>1.360000</speed>
</trkpt>
<trkpt lat="55.991940" lon="26.564674">
<ele>102.676819</ele>
<time>2010-08-29T09:30:43Z</time>
<desc>lat.=55.991940, lon.=26.564674, Alt.=102.676819m. Speed=7.992000m/h.</desc>
<speed>2.220000</speed>
</trkpt>
<trkpt lat="55.991962" lon="26.564672">
<ele>103.127991</ele>
<time>2010-08-29T09:30:44Z</time>
<desc>lat.=55.991962, lon.=26.564672, Alt.=103.127991m. Speed=9.504000m/h.</desc>
<speed>2.640000</speed>
</trkpt>
<trkpt lat="55.991989" lon="26.564669">
<ele>103.811584</ele>
<time>2010-08-29T09:30:45Z</time>
<desc>lat.=55.991989, lon.=26.564669, Alt.=103.811584m. Speed=8.100000m/h.</desc>
<speed>2.250000</speed>
</trkpt>
<trkpt lat="55.992008" lon="26.564659">
<ele>104.186584</ele>
<time>2010-08-29T09:30:46Z</time>
<desc>lat.=55.992008, lon.=26.564659, Alt.=104.186584m. Speed=7.812000m/h.</desc>
<speed>2.170000</speed>
</trkpt>
<trkpt lat="55.992027" lon="26.564659">
<ele>104.942444</ele>
<time>2010-08-29T09:30:47Z</time>
<desc>lat.=55.992027, lon.=26.564659, Alt.=104.942444m. Speed=6.804000m/h.</desc>
<speed>1.890000</speed>
</trkpt>
<trkpt lat="55.992054" lon="26.564650">
<ele>105.280334</ele>
<time>2010-08-29T09:30:48Z</time>
<desc>lat.=55.992054, lon.=26.564650, Alt.=105.280334m. Speed=8.748000m/h.</desc>
<speed>2.430000</speed>
</trkpt>
<trkpt lat="55.992085" lon="26.564650">
<ele>106.504944</ele>
<time>2010-08-29T09:30:49Z</time>
<desc>lat.=55.992085, lon.=26.564650, Alt.=106.504944m. Speed=8.100000m/h.</desc>
<speed>2.250000</speed>
</trkpt>
<trkpt lat="55.992104" lon="26.564646">
<ele>106.752991</ele>
<time>2010-08-29T09:30:50Z</time>
<desc>lat.=55.992104, lon.=26.564646, Alt.=106.752991m. Speed=7.560000m/h.</desc>
<speed>2.100000</speed>
</trkpt>
<trkpt lat="55.992123" lon="26.564651">
<ele>107.108459</ele>
<time>2010-08-29T09:30:51Z</time>
<desc>lat.=55.992123, lon.=26.564651, Alt.=107.108459m. Speed=8.100000m/h.</desc>
<speed>2.250000</speed>
</trkpt>
<trkpt lat="55.992142" lon="26.564659">
<ele>107.057678</ele>
<time>2010-08-29T09:30:52Z</time>
<desc>lat.=55.992142, lon.=26.564659, Alt.=107.057678m. Speed=7.020000m/h.</desc>
<speed>1.950000</speed>
</trkpt>
<trkpt lat="55.992165" lon="26.564672">
<ele>107.083069</ele>
<time>2010-08-29T09:30:53Z</time>
<desc>lat.=55.992165, lon.=26.564672, Alt.=107.083069m. Speed=7.452000m/h.</desc>
<speed>2.070000</speed>
</trkpt>
<trkpt lat="55.992191" lon="26.564684">
<ele>107.022522</ele>
<time>2010-08-29T09:30:54Z</time>
<desc>lat.=55.992191, lon.=26.564684, Alt.=107.022522m. Speed=9.684000m/h.</desc>
<speed>2.690000</speed>
</trkpt>
<trkpt lat="55.992218" lon="26.564705">
<ele>107.165100</ele>
<time>2010-08-29T09:30:55Z</time>
<desc>lat.=55.992218, lon.=26.564705, Alt.=107.165100m. Speed=10.908000m/h.</desc>
<speed>3.030000</speed>
</trkpt>
<trkpt lat="55.992237" lon="26.564739">
<ele>107.852600</ele>
<time>2010-08-29T09:30:56Z</time>
<desc>lat.=55.992237, lon.=26.564739, Alt.=107.852600m. Speed=10.044000m/h.</desc>
<speed>2.790000</speed>
</trkpt>
<trkpt lat="55.992252" lon="26.564768">
<ele>107.614319</ele>
<time>2010-08-29T09:30:57Z</time>
<desc>lat.=55.992252, lon.=26.564768, Alt.=107.614319m. Speed=5.256000m/h.</desc>
<speed>1.460000</speed>
</trkpt>
<trkpt lat="55.992260" lon="26.564812">
<ele>107.251038</ele>
<time>2010-08-29T09:30:58Z</time>
<desc>lat.=55.992260, lon.=26.564812, Alt.=107.251038m. Speed=8.424000m/h.</desc>
<speed>2.340000</speed>
</trkpt>
<trkpt lat="55.992268" lon="26.564875">
<ele>106.530334</ele>
<time>2010-08-29T09:30:59Z</time>
<desc>lat.=55.992268, lon.=26.564875, Alt.=106.530334m. Speed=10.620000m/h.</desc>
<speed>2.950000</speed>
</trkpt>
<trkpt lat="55.992275" lon="26.564922">
<ele>106.344788</ele>
<time>2010-08-29T09:31:00Z</time>
<desc>lat.=55.992275, lon.=26.564922, Alt.=106.344788m. Speed=9.504000m/h.</desc>
<speed>2.640000</speed>
</trkpt>
<trkpt lat="55.992302" lon="26.565001">
<ele>104.506897</ele>
<time>2010-08-29T09:31:01Z</time>
<desc>lat.=55.992302, lon.=26.565001, Alt.=104.506897m. Speed=11.052000m/h.</desc>
<speed>3.070000</speed>
</trkpt>
<trkpt lat="55.992321" lon="26.565077">
<ele>102.713928</ele>
<time>2010-08-29T09:31:02Z</time>
<desc>lat.=55.992321, lon.=26.565077, Alt.=102.713928m. Speed=10.728000m/h.</desc>
<speed>2.980000</speed>
</trkpt>
<trkpt lat="55.992336" lon="26.565119">
<ele>102.440491</ele>
<time>2010-08-29T09:31:03Z</time>
<desc>lat.=55.992336, lon.=26.565119, Alt.=102.440491m. Speed=7.344000m/h.</desc>
<speed>2.040000</speed>
</trkpt>
<trkpt lat="55.992355" lon="26.565166">
<ele>102.299866</ele>
<time>2010-08-29T09:31:04Z</time>
<desc>lat.=55.992355, lon.=26.565166, Alt.=102.299866m. Speed=8.208000m/h.</desc>
<speed>2.280000</speed>
</trkpt>
<trkpt lat="55.992393" lon="26.565205">
<ele>101.323303</ele>
<time>2010-08-29T09:31:05Z</time>
<desc>lat.=55.992393, lon.=26.565205, Alt.=101.323303m. Speed=9.144000m/h.</desc>
<speed>2.540000</speed>
</trkpt>
<trkpt lat="55.992390" lon="26.565247">
<ele>99.069397</ele>
<time>2010-08-29T09:31:06Z</time>
<desc>lat.=55.992390, lon.=26.565247, Alt.=99.069397m. Speed=4.824000m/h.</desc>
<speed>1.340000</speed>
</trkpt>
<trkpt lat="55.992397" lon="26.565262">
<ele>98.538147</ele>
<time>2010-08-29T09:31:07Z</time>
<desc>lat.=55.992397, lon.=26.565262, Alt.=98.538147m. Speed=1.728000m/h.</desc>
<speed>0.480000</speed>
</trkpt>
<trkpt lat="55.992397" lon="26.565285">
<ele>98.110413</ele>
<time>2010-08-29T09:31:08Z</time>
<desc>lat.=55.992397, lon.=26.565285, Alt.=98.110413m. Speed=3.348000m/h.</desc>
<speed>0.930000</speed>
</trkpt>
<trkpt lat="55.992405" lon="26.565310">
<ele>97.698303</ele>
<time>2010-08-29T09:31:09Z</time>
<desc>lat.=55.992405, lon.=26.565310, Alt.=97.698303m. Speed=4.860000m/h.</desc>
<speed>1.350000</speed>
</trkpt>
<trkpt lat="55.992413" lon="26.565331">
<ele>97.454163</ele>
<time>2010-08-29T09:31:10Z</time>
<desc>lat.=55.992413, lon.=26.565331, Alt.=97.454163m. Speed=5.940000m/h.</desc>
<speed>1.650000</speed>
</trkpt>
<trkpt lat="55.992420" lon="26.565351">
<ele>96.913147</ele>
<time>2010-08-29T09:31:11Z</time>
<desc>lat.=55.992420, lon.=26.565351, Alt.=96.913147m. Speed=6.156000m/h.</desc>
<speed>1.710000</speed>
</trkpt>
<trkpt lat="55.992428" lon="26.565384">
<ele>96.751038</ele>
<time>2010-08-29T09:31:12Z</time>
<desc>lat.=55.992428, lon.=26.565384, Alt.=96.751038m. Speed=6.660000m/h.</desc>
<speed>1.850000</speed>
</trkpt>
<trkpt lat="55.992435" lon="26.565411">
<ele>96.467834</ele>
<time>2010-08-29T09:31:13Z</time>
<desc>lat.=55.992435, lon.=26.565411, Alt.=96.467834m. Speed=4.608000m/h.</desc>
<speed>1.280000</speed>
</trkpt>
<trkpt lat="55.992439" lon="26.565424">
<ele>95.801819</ele>
<time>2010-08-29T09:31:14Z</time>
<desc>lat.=55.992439, lon.=26.565424, Alt.=95.801819m. Speed=3.276000m/h.</desc>
<speed>0.910000</speed>
</trkpt>
<trkpt lat="55.992451" lon="26.565441">
<ele>95.690491</ele>
<time>2010-08-29T09:31:15Z</time>
<desc>lat.=55.992451, lon.=26.565441, Alt.=95.690491m. Speed=3.888000m/h.</desc>
<speed>1.080000</speed>
</trkpt>
<trkpt lat="55.992455" lon="26.565466">
<ele>95.387756</ele>
<time>2010-08-29T09:31:16Z</time>
<desc>lat.=55.992455, lon.=26.565466, Alt.=95.387756m. Speed=3.852000m/h.</desc>
<speed>1.070000</speed>
</trkpt>
<trkpt lat="55.992458" lon="26.565523">
<ele>94.567444</ele>
<time>2010-08-29T09:31:17Z</time>
<desc>lat.=55.992458, lon.=26.565523, Alt.=94.567444m. Speed=6.768000m/h.</desc>
<speed>1.880000</speed>
</trkpt>
<trkpt lat="55.992462" lon="26.565563">
<ele>94.215881</ele>
<time>2010-08-29T09:31:18Z</time>
<desc>lat.=55.992462, lon.=26.565563, Alt.=94.215881m. Speed=7.560000m/h.</desc>
<speed>2.100000</speed>
</trkpt>
<trkpt lat="55.992474" lon="26.565596">
<ele>92.614319</ele>
<time>2010-08-29T09:31:19Z</time>
<desc>lat.=55.992474, lon.=26.565596, Alt.=92.614319m. Speed=8.424000m/h.</desc>
<speed>2.340000</speed>
</trkpt>
<trkpt lat="55.992477" lon="26.565632">
<ele>92.366272</ele>
<time>2010-08-29T09:31:20Z</time>
<desc>lat.=55.992477, lon.=26.565632, Alt.=92.366272m. Speed=8.604000m/h.</desc>
<speed>2.390000</speed>
</trkpt>
<trkpt lat="55.992485" lon="26.565670">
<ele>92.174866</ele>
<time>2010-08-29T09:31:21Z</time>
<desc>lat.=55.992485, lon.=26.565670, Alt.=92.174866m. Speed=8.460000m/h.</desc>
<speed>2.350000</speed>
</trkpt>
<trkpt lat="55.992493" lon="26.565710">
<ele>91.866272</ele>
<time>2010-08-29T09:31:22Z</time>
<desc>lat.=55.992493, lon.=26.565710, Alt.=91.866272m. Speed=9.684000m/h.</desc>
<speed>2.690000</speed>
</trkpt>
<trkpt lat="55.992496" lon="26.565752">
<ele>91.997131</ele>
<time>2010-08-29T09:31:23Z</time>
<desc>lat.=55.992496, lon.=26.565752, Alt.=91.997131m. Speed=9.648000m/h.</desc>
<speed>2.680000</speed>
</trkpt>
<trkpt lat="55.992496" lon="26.565804">
<ele>91.877991</ele>
<time>2010-08-29T09:31:24Z</time>
<desc>lat.=55.992496, lon.=26.565804, Alt.=91.877991m. Speed=9.612000m/h.</desc>
<speed>2.670000</speed>
</trkpt>
<trkpt lat="55.992504" lon="26.565855">
<ele>91.563538</ele>
<time>2010-08-29T09:31:25Z</time>
<desc>lat.=55.992504, lon.=26.565855, Alt.=91.563538m. Speed=9.540000m/h.</desc>
<speed>2.650000</speed>
</trkpt>
<trkpt lat="55.992508" lon="26.565899">
<ele>90.391663</ele>
<time>2010-08-29T09:31:26Z</time>
<desc>lat.=55.992508, lon.=26.565899, Alt.=90.391663m. Speed=9.072000m/h.</desc>
<speed>2.520000</speed>
</trkpt>
<trkpt lat="55.992516" lon="26.565937">
<ele>90.112366</ele>
<time>2010-08-29T09:31:27Z</time>
<desc>lat.=55.992516, lon.=26.565937, Alt.=90.112366m. Speed=8.496000m/h.</desc>
<speed>2.360000</speed>
</trkpt>
<trkpt lat="55.992516" lon="26.565983">
<ele>89.702209</ele>
<time>2010-08-29T09:31:28Z</time>
<desc>lat.=55.992516, lon.=26.565983, Alt.=89.702209m. Speed=9.108000m/h.</desc>
<speed>2.530000</speed>
</trkpt>
<trkpt lat="55.992519" lon="26.566010">
<ele>89.827209</ele>
<time>2010-08-29T09:31:29Z</time>
<desc>lat.=55.992519, lon.=26.566010, Alt.=89.827209m. Speed=8.172000m/h.</desc>
<speed>2.270000</speed>
</trkpt>
<trkpt lat="55.992523" lon="26.566057">
<ele>89.887756</ele>
<time>2010-08-29T09:31:30Z</time>
<desc>lat.=55.992523, lon.=26.566057, Alt.=89.887756m. Speed=11.124000m/h.</desc>
<speed>3.090000</speed>
</trkpt>
<trkpt lat="55.992527" lon="26.566109">
<ele>89.553772</ele>
<time>2010-08-29T09:31:31Z</time>
<desc>lat.=55.992527, lon.=26.566109, Alt.=89.553772m. Speed=8.388000m/h.</desc>
<speed>2.330000</speed>
</trkpt>
<trkpt lat="55.992523" lon="26.566191">
<ele>90.327209</ele>
<time>2010-08-29T09:31:32Z</time>
<desc>lat.=55.992523, lon.=26.566191, Alt.=90.327209m. Speed=10.872000m/h.</desc>
<speed>3.020000</speed>
</trkpt>
<trkpt lat="55.992527" lon="26.566244">
<ele>90.303772</ele>
<time>2010-08-29T09:31:33Z</time>
<desc>lat.=55.992527, lon.=26.566244, Alt.=90.303772m. Speed=11.628000m/h.</desc>
<speed>3.230000</speed>
</trkpt>
<trkpt lat="55.992535" lon="26.566301">
<ele>89.735413</ele>
<time>2010-08-29T09:31:34Z</time>
<desc>lat.=55.992535, lon.=26.566301, Alt.=89.735413m. Speed=11.628000m/h.</desc>
<speed>3.230000</speed>
</trkpt>
<trkpt lat="55.992535" lon="26.566364">
<ele>89.708069</ele>
<time>2010-08-29T09:31:35Z</time>
<desc>lat.=55.992535, lon.=26.566364, Alt.=89.708069m. Speed=10.224000m/h.</desc>
<speed>2.840000</speed>
</trkpt>
<trkpt lat="55.992538" lon="26.566408">
<ele>89.112366</ele>
<time>2010-08-29T09:31:36Z</time>
<desc>lat.=55.992538, lon.=26.566408, Alt.=89.112366m. Speed=10.080000m/h.</desc>
<speed>2.800000</speed>
</trkpt>
<trkpt lat="55.992546" lon="26.566462">
<ele>88.858459</ele>
<time>2010-08-29T09:31:37Z</time>
<desc>lat.=55.992546, lon.=26.566462, Alt.=88.858459m. Speed=10.440000m/h.</desc>
<speed>2.900000</speed>
</trkpt>
<trkpt lat="55.992554" lon="26.566517">
<ele>88.776428</ele>
<time>2010-08-29T09:31:38Z</time>
<desc>lat.=55.992554, lon.=26.566517, Alt.=88.776428m. Speed=10.152000m/h.</desc>
<speed>2.820000</speed>
</trkpt>
<trkpt lat="55.992561" lon="26.566574">
<ele>88.252991</ele>
<time>2010-08-29T09:31:39Z</time>
<desc>lat.=55.992561, lon.=26.566574, Alt.=88.252991m. Speed=12.420000m/h.</desc>
<speed>3.450000</speed>
</trkpt>
<trkpt lat="55.992569" lon="26.566647">
<ele>87.692444</ele>
<time>2010-08-29T09:31:40Z</time>
<desc>lat.=55.992569, lon.=26.566647, Alt.=87.692444m. Speed=13.464000m/h.</desc>
<speed>3.740000</speed>
</trkpt>
<trkpt lat="55.992577" lon="26.566711">
<ele>87.180725</ele>
<time>2010-08-29T09:31:41Z</time>
<desc>lat.=55.992577, lon.=26.566711, Alt.=87.180725m. Speed=12.168000m/h.</desc>
<speed>3.380000</speed>
</trkpt>
<trkpt lat="55.992584" lon="26.566767">
<ele>86.530334</ele>
<time>2010-08-29T09:31:42Z</time>
<desc>lat.=55.992584, lon.=26.566767, Alt.=86.530334m. Speed=10.908000m/h.</desc>
<speed>3.030000</speed>
</trkpt>
<trkpt lat="55.992592" lon="26.566828">
<ele>86.167053</ele>
<time>2010-08-29T09:31:43Z</time>
<desc>lat.=55.992592, lon.=26.566828, Alt.=86.167053m. Speed=11.448000m/h.</desc>
<speed>3.180000</speed>
</trkpt>
<trkpt lat="55.992596" lon="26.566881">
<ele>86.210022</ele>
<time>2010-08-29T09:31:44Z</time>
<desc>lat.=55.992596, lon.=26.566881, Alt.=86.210022m. Speed=10.188000m/h.</desc>
<speed>2.830000</speed>
</trkpt>
<trkpt lat="55.992592" lon="26.566936">
<ele>87.659241</ele>
<time>2010-08-29T09:31:45Z</time>
<desc>lat.=55.992592, lon.=26.566936, Alt.=87.659241m. Speed=10.224000m/h.</desc>
<speed>2.840000</speed>
</trkpt>
<trkpt lat="55.992596" lon="26.566984">
<ele>87.325256</ele>
<time>2010-08-29T09:31:46Z</time>
<desc>lat.=55.992596, lon.=26.566984, Alt.=87.325256m. Speed=10.008000m/h.</desc>
<speed>2.780000</speed>
</trkpt>
<trkpt lat="55.992596" lon="26.567055">
<ele>87.985413</ele>
<time>2010-08-29T09:31:47Z</time>
<desc>lat.=55.992596, lon.=26.567055, Alt.=87.985413m. Speed=8.604000m/h.</desc>
<speed>2.390000</speed>
</trkpt>
<trkpt lat="55.992588" lon="26.567116">
<ele>88.514709</ele>
<time>2010-08-29T09:31:48Z</time>
<desc>lat.=55.992588, lon.=26.567116, Alt.=88.514709m. Speed=7.848000m/h.</desc>
<speed>2.180000</speed>
</trkpt>
<trkpt lat="55.992584" lon="26.567169">
<ele>89.385803</ele>
<time>2010-08-29T09:31:49Z</time>
<desc>lat.=55.992584, lon.=26.567169, Alt.=89.385803m. Speed=6.048000m/h.</desc>
<speed>1.680000</speed>
</trkpt>
<trkpt lat="55.992584" lon="26.567192">
<ele>89.143616</ele>
<time>2010-08-29T09:31:50Z</time>
<desc>lat.=55.992584, lon.=26.567192, Alt.=89.143616m. Speed=5.256000m/h.</desc>
<speed>1.460000</speed>
</trkpt>
<trkpt lat="55.992588" lon="26.567225">
<ele>89.360413</ele>
<time>2010-08-29T09:31:51Z</time>
<desc>lat.=55.992588, lon.=26.567225, Alt.=89.360413m. Speed=6.984000m/h.</desc>
<speed>1.940000</speed>
</trkpt>
<trkpt lat="55.992584" lon="26.567257">
<ele>89.157288</ele>
<time>2010-08-29T09:31:52Z</time>
<desc>lat.=55.992584, lon.=26.567257, Alt.=89.157288m. Speed=6.444000m/h.</desc>
<speed>1.790000</speed>
</trkpt>
<trkpt lat="55.992580" lon="26.567295">
<ele>89.852600</ele>
<time>2010-08-29T09:31:53Z</time>
<desc>lat.=55.992580, lon.=26.567295, Alt.=89.852600m. Speed=5.436000m/h.</desc>
<speed>1.510000</speed>
</trkpt>
<trkpt lat="55.992580" lon="26.567326">
<ele>89.825256</ele>
<time>2010-08-29T09:31:54Z</time>
<desc>lat.=55.992580, lon.=26.567326, Alt.=89.825256m. Speed=7.488000m/h.</desc>
<speed>2.080000</speed>
</trkpt>
<trkpt lat="55.992577" lon="26.567373">
<ele>89.963928</ele>
<time>2010-08-29T09:31:55Z</time>
<desc>lat.=55.992577, lon.=26.567373, Alt.=89.963928m. Speed=7.992000m/h.</desc>
<speed>2.220000</speed>
</trkpt>
<trkpt lat="55.992577" lon="26.567411">
<ele>89.715881</ele>
<time>2010-08-29T09:31:56Z</time>
<desc>lat.=55.992577, lon.=26.567411, Alt.=89.715881m. Speed=7.164000m/h.</desc>
<speed>1.990000</speed>
</trkpt>
<trkpt lat="55.992573" lon="26.567451">
<ele>89.417053</ele>
<time>2010-08-29T09:31:57Z</time>
<desc>lat.=55.992573, lon.=26.567451, Alt.=89.417053m. Speed=8.964000m/h.</desc>
<speed>2.490000</speed>
</trkpt>
<trkpt lat="55.992569" lon="26.567492">
<ele>89.579163</ele>
<time>2010-08-29T09:31:58Z</time>
<desc>lat.=55.992569, lon.=26.567492, Alt.=89.579163m. Speed=8.712000m/h.</desc>
<speed>2.420000</speed>
</trkpt>
<trkpt lat="55.992573" lon="26.567539">
<ele>89.741272</ele>
<time>2010-08-29T09:31:59Z</time>
<desc>lat.=55.992573, lon.=26.567539, Alt.=89.741272m. Speed=8.100000m/h.</desc>
<speed>2.250000</speed>
</trkpt>
<trkpt lat="55.992573" lon="26.567591">
<ele>89.594788</ele>
<time>2010-08-29T09:32:00Z</time>
<desc>lat.=55.992573, lon.=26.567591, Alt.=89.594788m. Speed=9.396000m/h.</desc>
<speed>2.610000</speed>
</trkpt>
<trkpt lat="55.992573" lon="26.567642">
<ele>89.499084</ele>
<time>2010-08-29T09:32:01Z</time>
<desc>lat.=55.992573, lon.=26.567642, Alt.=89.499084m. Speed=9.792000m/h.</desc>
<speed>2.720000</speed>
</trkpt>
<trkpt lat="55.992573" lon="26.567698">
<ele>89.182678</ele>
<time>2010-08-29T09:32:02Z</time>
<desc>lat.=55.992573, lon.=26.567698, Alt.=89.182678m. Speed=10.656000m/h.</desc>
<speed>2.960000</speed>
</trkpt>
<trkpt lat="55.992550" lon="26.567774">
<ele>90.403381</ele>
<time>2010-08-29T09:32:03Z</time>
<desc>lat.=55.992550, lon.=26.567774, Alt.=90.403381m. Speed=10.980000m/h.</desc>
<speed>3.050000</speed>
</trkpt>
<trkpt lat="55.992542" lon="26.567831">
<ele>90.858459</ele>
<time>2010-08-29T09:32:04Z</time>
<desc>lat.=55.992542, lon.=26.567831, Alt.=90.858459m. Speed=10.368000m/h.</desc>
<speed>2.880000</speed>
</trkpt>
<trkpt lat="55.992538" lon="26.567886">
<ele>91.272522</ele>
<time>2010-08-29T09:32:05Z</time>
<desc>lat.=55.992538, lon.=26.567886, Alt.=91.272522m. Speed=10.476000m/h.</desc>
<speed>2.910000</speed>
</trkpt>
<trkpt lat="55.992535" lon="26.567940">
<ele>91.670959</ele>
<time>2010-08-29T09:32:06Z</time>
<desc>lat.=55.992535, lon.=26.567940, Alt.=91.670959m. Speed=9.828000m/h.</desc>
<speed>2.730000</speed>
</trkpt>
<trkpt lat="55.992535" lon="26.567991">
<ele>91.860413</ele>
<time>2010-08-29T09:32:07Z</time>
<desc>lat.=55.992535, lon.=26.567991, Alt.=91.860413m. Speed=7.560000m/h.</desc>
<speed>2.100000</speed>
</trkpt>
<trkpt lat="55.992531" lon="26.568024">
<ele>92.036194</ele>
<time>2010-08-29T09:32:08Z</time>
<desc>lat.=55.992531, lon.=26.568024, Alt.=92.036194m. Speed=5.184000m/h.</desc>
<speed>1.440000</speed>
</trkpt>
<trkpt lat="55.992531" lon="26.568039">
<ele>92.143616</ele>
<time>2010-08-29T09:32:09Z</time>
<desc>lat.=55.992531, lon.=26.568039, Alt.=92.143616m. Speed=1.800000m/h.</desc>
<speed>0.500000</speed>
</trkpt>
<trkpt lat="55.992527" lon="26.568045">
<ele>92.254944</ele>
<time>2010-08-29T09:32:10Z</time>
<desc>lat.=55.992527, lon.=26.568045, Alt.=92.254944m. Speed=1.260000m/h.</desc>
<speed>0.350000</speed>
</trkpt>
<trkpt lat="55.992523" lon="26.568050">
<ele>92.649475</ele>
<time>2010-08-29T09:32:11Z</time>
<desc>lat.=55.992523, lon.=26.568050, Alt.=92.649475m. Speed=1.008000m/h.</desc>
<speed>0.280000</speed>
</trkpt>
<trkpt lat="55.992523" lon="26.568056">
<ele>92.842834</ele>
<time>2010-08-29T09:32:12Z</time>
<desc>lat.=55.992523, lon.=26.568056, Alt.=92.842834m. Speed=1.044000m/h.</desc>
<speed>0.290000</speed>
</trkpt>
<trkpt lat="55.992523" lon="26.568060">
<ele>92.811584</ele>
<time>2010-08-29T09:32:13Z</time>
<desc>lat.=55.992523, lon.=26.568060, Alt.=92.811584m. Speed=0.828000m/h.</desc>
<speed>0.230000</speed>
</trkpt>
<trkpt lat="55.992523" lon="26.568064">
<ele>92.790100</ele>
<time>2010-08-29T09:32:14Z</time>
<desc>lat.=55.992523, lon.=26.568064, Alt.=92.790100m. Speed=1.044000m/h.</desc>
<speed>0.290000</speed>
</trkpt>
<trkpt lat="55.992523" lon="26.568069">
<ele>92.762756</ele>
<time>2010-08-29T09:32:15Z</time>
<desc>lat.=55.992523, lon.=26.568069, Alt.=92.762756m. Speed=0.036000m/h.</desc>
<speed>0.010000</speed>
</trkpt>
<trkpt lat="55.992523" lon="26.568069">
<ele>92.737366</ele>
<time>2010-08-29T09:32:16Z</time>
<desc>lat.=55.992523, lon.=26.568069, Alt.=92.737366m. Speed=0.180000m/h.</desc>
<speed>0.050000</speed>
</trkpt>
<trkpt lat="55.992523" lon="26.568068">
<ele>92.711975</ele>
<time>2010-08-29T09:32:17Z</time>
<desc>lat.=55.992523, lon.=26.568068, Alt.=92.711975m. Speed=0.036000m/h.</desc>
<speed>0.010000</speed>
</trkpt>
<trkpt lat="55.992523" lon="26.568068">
<ele>92.696350</ele>
<time>2010-08-29T09:32:18Z</time>
<desc>lat.=55.992523, lon.=26.568068, Alt.=92.696350m. Speed=0.072000m/h.</desc>
<speed>0.020000</speed>
</trkpt>
<trkpt lat="55.992523" lon="26.568068">
<ele>92.700256</ele>
<time>2010-08-29T09:32:19Z</time>
<desc>lat.=55.992523, lon.=26.568068, Alt.=92.700256m. Speed=0.036000m/h.</desc>
<speed>0.010000</speed>
</trkpt>
<trkpt lat="55.992523" lon="26.568068">
<ele>92.704163</ele>
<time>2010-08-29T09:32:20Z</time>
<desc>lat.=55.992523, lon.=26.568068, Alt.=92.704163m. Speed=0.036000m/h.</desc>
<speed>0.010000</speed>
</trkpt>
<trkpt lat="55.992523" lon="26.568068">
<ele>92.700256</ele>
<time>2010-08-29T09:32:21Z</time>
<desc>lat.=55.992523, lon.=26.568068, Alt.=92.700256m. Speed=0.072000m/h.</desc>
<speed>0.020000</speed>
</trkpt>
<trkpt lat="55.992523" lon="26.568068">
<ele>92.704163</ele>
<time>2010-08-29T09:32:22Z</time>
<desc>lat.=55.992523, lon.=26.568068, Alt.=92.704163m. Speed=0.252000m/h.</desc>
<speed>0.070000</speed>
</trkpt>
<trkpt lat="55.992523" lon="26.568069">
<ele>92.713928</ele>
<time>2010-08-29T09:32:23Z</time>
<desc>lat.=55.992523, lon.=26.568069, Alt.=92.713928m. Speed=0.288000m/h.</desc>
<speed>0.080000</speed>
</trkpt>
<trkpt lat="55.992519" lon="26.568071">
<ele>92.727600</ele>
<time>2010-08-29T09:32:24Z</time>
<desc>lat.=55.992519, lon.=26.568071, Alt.=92.727600m. Speed=0.252000m/h.</desc>
<speed>0.070000</speed>
</trkpt>
<trkpt lat="55.992523" lon="26.568071">
<ele>92.747131</ele>
<time>2010-08-29T09:32:25Z</time>
<desc>lat.=55.992523, lon.=26.568071, Alt.=92.747131m. Speed=0.144000m/h.</desc>
<speed>0.040000</speed>
</trkpt>
<trkpt lat="55.992523" lon="26.568071">
<ele>92.780334</ele>
<time>2010-08-29T09:32:26Z</time>
<desc>lat.=55.992523, lon.=26.568071, Alt.=92.780334m. Speed=0.036000m/h.</desc>
<speed>0.010000</speed>
</trkpt>
<trkpt lat="55.992523" lon="26.568069">
<ele>92.827209</ele>
<time>2010-08-29T09:32:27Z</time>
<desc>lat.=55.992523, lon.=26.568069, Alt.=92.827209m. Speed=0.000000m/h.</desc>
<speed>0.000000</speed>
</trkpt>
<trkpt lat="55.992523" lon="26.568071">
<ele>92.835022</ele>
<time>2010-08-29T09:32:28Z</time>
<desc>lat.=55.992523, lon.=26.568071, Alt.=92.835022m. Speed=0.036000m/h.</desc>
<speed>0.010000</speed>
</trkpt>
<trkpt lat="55.992523" lon="26.568069">
<ele>92.827209</ele>
<time>2010-08-29T09:32:29Z</time>
<desc>lat.=55.992523, lon.=26.568069, Alt.=92.827209m. Speed=0.072000m/h.</desc>
<speed>0.020000</speed>
</trkpt>
<trkpt lat="55.992523" lon="26.568069">
<ele>92.817444</ele>
<time>2010-08-29T09:32:30Z</time>
<desc>lat.=55.992523, lon.=26.568069, Alt.=92.817444m. Speed=0.000000m/h.</desc>
<speed>0.000000</speed>
</trkpt>
<trkpt lat="55.992523" lon="26.568069">
<ele>92.809631</ele>
<time>2010-08-29T09:32:31Z</time>
<desc>lat.=55.992523, lon.=26.568069, Alt.=92.809631m. Speed=0.000000m/h.</desc>
<speed>0.000000</speed>
</trkpt>
<trkpt lat="55.992523" lon="26.568069">
<ele>92.794006</ele>
<time>2010-08-29T09:32:32Z</time>
<desc>lat.=55.992523, lon.=26.568069, Alt.=92.794006m. Speed=0.432000m/h.</desc>
<speed>0.120000</speed>
</trkpt>
<trkpt lat="55.992523" lon="26.568069">
<ele>92.776428</ele>
<time>2010-08-29T09:32:33Z</time>
<desc>lat.=55.992523, lon.=26.568069, Alt.=92.776428m. Speed=0.072000m/h.</desc>
<speed>0.020000</speed>
</trkpt>
<trkpt lat="55.992523" lon="26.568068">
<ele>92.764709</ele>
<time>2010-08-29T09:32:34Z</time>
<desc>lat.=55.992523, lon.=26.568068, Alt.=92.764709m. Speed=0.828000m/h.</desc>
<speed>0.230000</speed>
</trkpt>
<trkpt lat="55.992523" lon="26.568071">
<ele>92.735413</ele>
<time>2010-08-29T09:32:35Z</time>
<desc>lat.=55.992523, lon.=26.568071, Alt.=92.735413m. Speed=1.836000m/h.</desc>
<speed>0.510000</speed>
</trkpt>
<trkpt lat="55.992519" lon="26.568081">
<ele>92.749084</ele>
<time>2010-08-29T09:32:36Z</time>
<desc>lat.=55.992519, lon.=26.568081, Alt.=92.749084m. Speed=1.404000m/h.</desc>
<speed>0.390000</speed>
</trkpt>
<trkpt lat="55.992519" lon="26.568087">
<ele>92.721741</ele>
<time>2010-08-29T09:32:37Z</time>
<desc>lat.=55.992519, lon.=26.568087, Alt.=92.721741m. Speed=3.276000m/h.</desc>
<speed>0.910000</speed>
</trkpt>
<trkpt lat="55.992519" lon="26.568100">
<ele>92.723694</ele>
<time>2010-08-29T09:32:38Z</time>
<desc>lat.=55.992519, lon.=26.568100, Alt.=92.723694m. Speed=2.592000m/h.</desc>
<speed>0.720000</speed>
</trkpt>
<trkpt lat="55.992519" lon="26.568111">
<ele>92.735413</ele>
<time>2010-08-29T09:32:39Z</time>
<desc>lat.=55.992519, lon.=26.568111, Alt.=92.735413m. Speed=2.196000m/h.</desc>
<speed>0.610000</speed>
</trkpt>
<trkpt lat="55.992519" lon="26.568121">
<ele>92.752991</ele>
<time>2010-08-29T09:32:40Z</time>
<desc>lat.=55.992519, lon.=26.568121, Alt.=92.752991m. Speed=1.548000m/h.</desc>
<speed>0.430000</speed>
</trkpt>
<trkpt lat="55.992523" lon="26.568129">
<ele>92.772522</ele>
<time>2010-08-29T09:32:41Z</time>
<desc>lat.=55.992523, lon.=26.568129, Alt.=92.772522m. Speed=0.972000m/h.</desc>
<speed>0.270000</speed>
</trkpt>
<trkpt lat="55.992523" lon="26.568132">
<ele>92.788147</ele>
<time>2010-08-29T09:32:42Z</time>
<desc>lat.=55.992523, lon.=26.568132, Alt.=92.788147m. Speed=0.756000m/h.</desc>
<speed>0.210000</speed>
</trkpt>
<trkpt lat="55.992523" lon="26.568136">
<ele>92.801819</ele>
<time>2010-08-29T09:32:43Z</time>
<desc>lat.=55.992523, lon.=26.568136, Alt.=92.801819m. Speed=0.612000m/h.</desc>
<speed>0.170000</speed>
</trkpt>
<trkpt lat="55.992523" lon="26.568138">
<ele>92.813538</ele>
<time>2010-08-29T09:32:44Z</time>
<desc>lat.=55.992523, lon.=26.568138, Alt.=92.813538m. Speed=0.468000m/h.</desc>
<speed>0.130000</speed>
</trkpt>
<trkpt lat="55.992523" lon="26.568140">
<ele>92.823303</ele>
<time>2010-08-29T09:32:45Z</time>
<desc>lat.=55.992523, lon.=26.568140, Alt.=92.823303m. Speed=0.576000m/h.</desc>
<speed>0.160000</speed>
</trkpt>
<trkpt lat="55.992527" lon="26.568142">
<ele>92.829163</ele>
<time>2010-08-29T09:32:46Z</time>
<desc>lat.=55.992527, lon.=26.568142, Alt.=92.829163m. Speed=0.396000m/h.</desc>
<speed>0.110000</speed>
</trkpt>
<trkpt lat="55.992527" lon="26.568140">
<ele>92.831116</ele>
<time>2010-08-29T09:32:47Z</time>
<desc>lat.=55.992527, lon.=26.568140, Alt.=92.831116m. Speed=0.144000m/h.</desc>
<speed>0.040000</speed>
</trkpt>
<trkpt lat="55.992527" lon="26.568140">
<ele>92.831116</ele>
<time>2010-08-29T09:32:48Z</time>
<desc>lat.=55.992527, lon.=26.568140, Alt.=92.831116m. Speed=0.180000m/h.</desc>
<speed>0.050000</speed>
</trkpt>
<trkpt lat="55.992527" lon="26.568140">
<ele>92.831116</ele>
<time>2010-08-29T09:32:49Z</time>
<desc>lat.=55.992527, lon.=26.568140, Alt.=92.831116m. Speed=0.180000m/h.</desc>
<speed>0.050000</speed>
</trkpt>
<trkpt lat="55.992527" lon="26.568142">
<ele>92.827209</ele>
<time>2010-08-29T09:32:50Z</time>
<desc>lat.=55.992527, lon.=26.568142, Alt.=92.827209m. Speed=0.036000m/h.</desc>
<speed>0.010000</speed>
</trkpt>
<trkpt lat="55.992527" lon="26.568142">
<ele>92.825256</ele>
<time>2010-08-29T09:32:51Z</time>
<desc>lat.=55.992527, lon.=26.568142, Alt.=92.825256m. Speed=0.072000m/h.</desc>
<speed>0.020000</speed>
</trkpt>
<trkpt lat="55.992527" lon="26.568142">
<ele>92.821350</ele>
<time>2010-08-29T09:32:52Z</time>
<desc>lat.=55.992527, lon.=26.568142, Alt.=92.821350m. Speed=0.180000m/h.</desc>
<speed>0.050000</speed>
</trkpt>
<trkpt lat="55.992527" lon="26.568142">
<ele>92.815491</ele>
<time>2010-08-29T09:32:53Z</time>
<desc>lat.=55.992527, lon.=26.568142, Alt.=92.815491m. Speed=0.108000m/h.</desc>
<speed>0.030000</speed>
</trkpt>
<trkpt lat="55.992527" lon="26.568144">
<ele>92.809631</ele>
<time>2010-08-29T09:32:54Z</time>
<desc>lat.=55.992527, lon.=26.568144, Alt.=92.809631m. Speed=0.072000m/h.</desc>
<speed>0.020000</speed>
</trkpt>
<trkpt lat="55.992527" lon="26.568144">
<ele>92.803772</ele>
<time>2010-08-29T09:32:55Z</time>
<desc>lat.=55.992527, lon.=26.568144, Alt.=92.803772m. Speed=0.324000m/h.</desc>
<speed>0.090000</speed>
</trkpt>
<trkpt lat="55.992527" lon="26.568142">
<ele>92.795959</ele>
<time>2010-08-29T09:32:56Z</time>
<desc>lat.=55.992527, lon.=26.568142, Alt.=92.795959m. Speed=0.324000m/h.</desc>
<speed>0.090000</speed>
</trkpt>
<trkpt lat="55.992527" lon="26.568142">
<ele>92.790100</ele>
<time>2010-08-29T09:32:57Z</time>
<desc>lat.=55.992527, lon.=26.568142, Alt.=92.790100m. Speed=0.252000m/h.</desc>
<speed>0.070000</speed>
</trkpt>
<trkpt lat="55.992527" lon="26.568142">
<ele>92.784241</ele>
<time>2010-08-29T09:32:58Z</time>
<desc>lat.=55.992527, lon.=26.568142, Alt.=92.784241m. Speed=0.468000m/h.</desc>
<speed>0.130000</speed>
</trkpt>
<trkpt lat="55.992527" lon="26.568140">
<ele>92.780334</ele>
<time>2010-08-29T09:32:59Z</time>
<desc>lat.=55.992527, lon.=26.568140, Alt.=92.780334m. Speed=0.576000m/h.</desc>
<speed>0.160000</speed>
</trkpt>
<trkpt lat="55.992527" lon="26.568138">
<ele>92.778381</ele>
<time>2010-08-29T09:33:00Z</time>
<desc>lat.=55.992527, lon.=26.568138, Alt.=92.778381m. Speed=0.612000m/h.</desc>
<speed>0.170000</speed>
</trkpt>
<trkpt lat="55.992523" lon="26.568136">
<ele>92.774475</ele>
<time>2010-08-29T09:33:01Z</time>
<desc>lat.=55.992523, lon.=26.568136, Alt.=92.774475m. Speed=0.144000m/h.</desc>
<speed>0.040000</speed>
</trkpt>
<trkpt lat="55.992523" lon="26.568136">
<ele>92.770569</ele>
<time>2010-08-29T09:33:02Z</time>
<desc>lat.=55.992523, lon.=26.568136, Alt.=92.770569m. Speed=0.432000m/h.</desc>
<speed>0.120000</speed>
</trkpt>
<trkpt lat="55.992527" lon="26.568134">
<ele>92.758850</ele>
<time>2010-08-29T09:33:03Z</time>
<desc>lat.=55.992527, lon.=26.568134, Alt.=92.758850m. Speed=0.432000m/h.</desc>
<speed>0.120000</speed>
</trkpt>
<trkpt lat="55.992527" lon="26.568136">
<ele>92.735413</ele>
<time>2010-08-29T09:33:04Z</time>
<desc>lat.=55.992527, lon.=26.568136, Alt.=92.735413m. Speed=0.792000m/h.</desc>
<speed>0.220000</speed>
</trkpt>
<trkpt lat="55.992527" lon="26.568140">
<ele>92.721741</ele>
<time>2010-08-29T09:33:05Z</time>
<desc>lat.=55.992527, lon.=26.568140, Alt.=92.721741m. Speed=0.720000m/h.</desc>
<speed>0.200000</speed>
</trkpt>
<trkpt lat="55.992527" lon="26.568142">
<ele>92.710022</ele>
<time>2010-08-29T09:33:06Z</time>
<desc>lat.=55.992527, lon.=26.568142, Alt.=92.710022m. Speed=0.720000m/h.</desc>
<speed>0.200000</speed>
</trkpt>
<trkpt lat="55.992531" lon="26.568144">
<ele>92.698303</ele>
<time>2010-08-29T09:33:07Z</time>
<desc>lat.=55.992531, lon.=26.568144, Alt.=92.698303m. Speed=0.396000m/h.</desc>
<speed>0.110000</speed>
</trkpt>
<trkpt lat="55.992531" lon="26.568144">
<ele>92.684631</ele>
<time>2010-08-29T09:33:08Z</time>
<desc>lat.=55.992531, lon.=26.568144, Alt.=92.684631m. Speed=0.144000m/h.</desc>
<speed>0.040000</speed>
</trkpt>
<trkpt lat="55.992531" lon="26.568144">
<ele>92.667053</ele>
<time>2010-08-29T09:33:09Z</time>
<desc>lat.=55.992531, lon.=26.568144, Alt.=92.667053m. Speed=0.540000m/h.</desc>
<speed>0.150000</speed>
</trkpt>
<trkpt lat="55.992527" lon="26.568144">
<ele>92.653381</ele>
<time>2010-08-29T09:33:10Z</time>
<desc>lat.=55.992527, lon.=26.568144, Alt.=92.653381m. Speed=0.144000m/h.</desc>
<speed>0.040000</speed>
</trkpt>
<trkpt lat="55.992527" lon="26.568146">
<ele>92.643616</ele>
<time>2010-08-29T09:33:11Z</time>
<desc>lat.=55.992527, lon.=26.568146, Alt.=92.643616m. Speed=0.684000m/h.</desc>
<speed>0.190000</speed>
</trkpt>
<trkpt lat="55.992531" lon="26.568148">
<ele>92.639709</ele>
<time>2010-08-29T09:33:12Z</time>
<desc>lat.=55.992531, lon.=26.568148, Alt.=92.639709m. Speed=0.684000m/h.</desc>
<speed>0.190000</speed>
</trkpt>
<trkpt lat="55.992531" lon="26.568150">
<ele>92.639709</ele>
<time>2010-08-29T09:33:13Z</time>
<desc>lat.=55.992531, lon.=26.568150, Alt.=92.639709m. Speed=1.908000m/h.</desc>
<speed>0.530000</speed>
</trkpt>
<trkpt lat="55.992531" lon="26.568159">
<ele>92.645569</ele>
<time>2010-08-29T09:33:14Z</time>
<desc>lat.=55.992531, lon.=26.568159, Alt.=92.645569m. Speed=2.988000m/h.</desc>
<speed>0.830000</speed>
</trkpt>
<trkpt lat="55.992531" lon="26.568172">
<ele>92.649475</ele>
<time>2010-08-29T09:33:15Z</time>
<desc>lat.=55.992531, lon.=26.568172, Alt.=92.649475m. Speed=2.916000m/h.</desc>
<speed>0.810000</speed>
</trkpt>
<trkpt lat="55.992535" lon="26.568186">
<ele>92.657288</ele>
<time>2010-08-29T09:33:16Z</time>
<desc>lat.=55.992535, lon.=26.568186, Alt.=92.657288m. Speed=3.096000m/h.</desc>
<speed>0.860000</speed>
</trkpt>
<trkpt lat="55.992535" lon="26.568199">
<ele>92.667053</ele>
<time>2010-08-29T09:33:17Z</time>
<desc>lat.=55.992535, lon.=26.568199, Alt.=92.667053m. Speed=3.780000m/h.</desc>
<speed>1.050000</speed>
</trkpt>
<trkpt lat="55.992523" lon="26.568237">
<ele>93.358459</ele>
<time>2010-08-29T09:33:18Z</time>
<desc>lat.=55.992523, lon.=26.568237, Alt.=93.358459m. Speed=5.112000m/h.</desc>
<speed>1.420000</speed>
</trkpt>
<trkpt lat="55.992523" lon="26.568260">
<ele>93.897522</ele>
<time>2010-08-29T09:33:19Z</time>
<desc>lat.=55.992523, lon.=26.568260, Alt.=93.897522m. Speed=5.364000m/h.</desc>
<speed>1.490000</speed>
</trkpt>
<trkpt lat="55.992523" lon="26.568287">
<ele>94.270569</ele>
<time>2010-08-29T09:33:20Z</time>
<desc>lat.=55.992523, lon.=26.568287, Alt.=94.270569m. Speed=5.652000m/h.</desc>
<speed>1.570000</speed>
</trkpt>
<trkpt lat="55.992519" lon="26.568317">
<ele>94.397522</ele>
<time>2010-08-29T09:33:21Z</time>
<desc>lat.=55.992519, lon.=26.568317, Alt.=94.397522m. Speed=5.508000m/h.</desc>
<speed>1.530000</speed>
</trkpt>
<trkpt lat="55.992516" lon="26.568356">
<ele>94.872131</ele>
<time>2010-08-29T09:33:22Z</time>
<desc>lat.=55.992516, lon.=26.568356, Alt.=94.872131m. Speed=7.200000m/h.</desc>
<speed>2.000000</speed>
</trkpt>
<trkpt lat="55.992512" lon="26.568392">
<ele>95.477600</ele>
<time>2010-08-29T09:33:23Z</time>
<desc>lat.=55.992512, lon.=26.568392, Alt.=95.477600m. Speed=7.272000m/h.</desc>
<speed>2.020000</speed>
</trkpt>
<trkpt lat="55.992504" lon="26.568424">
<ele>95.758850</ele>
<time>2010-08-29T09:33:24Z</time>
<desc>lat.=55.992504, lon.=26.568424, Alt.=95.758850m. Speed=8.496000m/h.</desc>
<speed>2.360000</speed>
</trkpt>
<trkpt lat="55.992496" lon="26.568472">
<ele>95.604553</ele>
<time>2010-08-29T09:33:25Z</time>
<desc>lat.=55.992496, lon.=26.568472, Alt.=95.604553m. Speed=8.460000m/h.</desc>
<speed>2.350000</speed>
</trkpt>
<trkpt lat="55.992489" lon="26.568508">
<ele>95.827209</ele>
<time>2010-08-29T09:33:26Z</time>
<desc>lat.=55.992489, lon.=26.568508, Alt.=95.827209m. Speed=8.388000m/h.</desc>
<speed>2.330000</speed>
</trkpt>
<trkpt lat="55.992485" lon="26.568546">
<ele>95.870178</ele>
<time>2010-08-29T09:33:27Z</time>
<desc>lat.=55.992485, lon.=26.568546, Alt.=95.870178m. Speed=8.496000m/h.</desc>
<speed>2.360000</speed>
</trkpt>
<trkpt lat="55.992481" lon="26.568590">
<ele>95.936584</ele>
<time>2010-08-29T09:33:28Z</time>
<desc>lat.=55.992481, lon.=26.568590, Alt.=95.936584m. Speed=8.172000m/h.</desc>
<speed>2.270000</speed>
</trkpt>
<trkpt lat="55.992477" lon="26.568630">
<ele>95.876038</ele>
<time>2010-08-29T09:33:29Z</time>
<desc>lat.=55.992477, lon.=26.568630, Alt.=95.876038m. Speed=9.540000m/h.</desc>
<speed>2.650000</speed>
</trkpt>
<trkpt lat="55.992474" lon="26.568680">
<ele>95.260803</ele>
<time>2010-08-29T09:33:30Z</time>
<desc>lat.=55.992474, lon.=26.568680, Alt.=95.260803m. Speed=9.252000m/h.</desc>
<speed>2.570000</speed>
</trkpt>
<trkpt lat="55.992470" lon="26.568722">
<ele>94.833069</ele>
<time>2010-08-29T09:33:31Z</time>
<desc>lat.=55.992470, lon.=26.568722, Alt.=94.833069m. Speed=9.468000m/h.</desc>
<speed>2.630000</speed>
</trkpt>
<trkpt lat="55.992466" lon="26.568766">
<ele>95.026428</ele>
<time>2010-08-29T09:33:32Z</time>
<desc>lat.=55.992466, lon.=26.568766, Alt.=95.026428m. Speed=8.748000m/h.</desc>
<speed>2.430000</speed>
</trkpt>
<trkpt lat="55.992466" lon="26.568800">
<ele>95.549866</ele>
<time>2010-08-29T09:33:33Z</time>
<desc>lat.=55.992466, lon.=26.568800, Alt.=95.549866m. Speed=8.172000m/h.</desc>
<speed>2.270000</speed>
</trkpt>
<trkpt lat="55.992466" lon="26.568838">
<ele>95.751038</ele>
<time>2010-08-29T09:33:34Z</time>
<desc>lat.=55.992466, lon.=26.568838, Alt.=95.751038m. Speed=8.028000m/h.</desc>
<speed>2.230000</speed>
</trkpt>
<trkpt lat="55.992458" lon="26.568880">
<ele>96.147522</ele>
<time>2010-08-29T09:33:35Z</time>
<desc>lat.=55.992458, lon.=26.568880, Alt.=96.147522m. Speed=9.000000m/h.</desc>
<speed>2.500000</speed>
</trkpt>
<trkpt lat="55.992455" lon="26.568926">
<ele>96.186584</ele>
<time>2010-08-29T09:33:36Z</time>
<desc>lat.=55.992455, lon.=26.568926, Alt.=96.186584m. Speed=8.424000m/h.</desc>
<speed>2.340000</speed>
</trkpt>
<trkpt lat="55.992455" lon="26.568974">
<ele>95.801819</ele>
<time>2010-08-29T09:33:37Z</time>
<desc>lat.=55.992455, lon.=26.568974, Alt.=95.801819m. Speed=8.388000m/h.</desc>
<speed>2.330000</speed>
</trkpt>
<trkpt lat="55.992455" lon="26.569025">
<ele>96.471741</ele>
<time>2010-08-29T09:33:38Z</time>
<desc>lat.=55.992455, lon.=26.569025, Alt.=96.471741m. Speed=8.028000m/h.</desc>
<speed>2.230000</speed>
</trkpt>
<trkpt lat="55.992455" lon="26.569071">
<ele>96.479553</ele>
<time>2010-08-29T09:33:39Z</time>
<desc>lat.=55.992455, lon.=26.569071, Alt.=96.479553m. Speed=7.200000m/h.</desc>
<speed>2.000000</speed>
</trkpt>
<trkpt lat="55.992451" lon="26.569103">
<ele>96.983459</ele>
<time>2010-08-29T09:33:40Z</time>
<desc>lat.=55.992451, lon.=26.569103, Alt.=96.983459m. Speed=6.876000m/h.</desc>
<speed>1.910000</speed>
</trkpt>
<trkpt lat="55.992447" lon="26.569141">
<ele>97.358459</ele>
<time>2010-08-29T09:33:41Z</time>
<desc>lat.=55.992447, lon.=26.569141, Alt.=97.358459m. Speed=7.128000m/h.</desc>
<speed>1.980000</speed>
</trkpt>
<trkpt lat="55.992443" lon="26.569178">
<ele>98.506897</ele>
<time>2010-08-29T09:33:42Z</time>
<desc>lat.=55.992443, lon.=26.569178, Alt.=98.506897m. Speed=6.264000m/h.</desc>
<speed>1.740000</speed>
</trkpt>
<trkpt lat="55.992443" lon="26.569212">
<ele>99.006897</ele>
<time>2010-08-29T09:33:43Z</time>
<desc>lat.=55.992443, lon.=26.569212, Alt.=99.006897m. Speed=6.480000m/h.</desc>
<speed>1.800000</speed>
</trkpt>
<trkpt lat="55.992439" lon="26.569242">
<ele>99.420959</ele>
<time>2010-08-29T09:33:44Z</time>
<desc>lat.=55.992439, lon.=26.569242, Alt.=99.420959m. Speed=4.932000m/h.</desc>
<speed>1.370000</speed>
</trkpt>
<trkpt lat="55.992439" lon="26.569277">
<ele>100.065491</ele>
<time>2010-08-29T09:33:45Z</time>
<desc>lat.=55.992439, lon.=26.569277, Alt.=100.065491m. Speed=5.616000m/h.</desc>
<speed>1.560000</speed>
</trkpt>
<trkpt lat="55.992435" lon="26.569307">
<ele>100.372131</ele>
<time>2010-08-29T09:33:46Z</time>
<desc>lat.=55.992435, lon.=26.569307, Alt.=100.372131m. Speed=6.084000m/h.</desc>
<speed>1.690000</speed>
</trkpt>
<trkpt lat="55.992432" lon="26.569328">
<ele>100.262756</ele>
<time>2010-08-29T09:33:47Z</time>
<desc>lat.=55.992432, lon.=26.569328, Alt.=100.262756m. Speed=6.480000m/h.</desc>
<speed>1.800000</speed>
</trkpt>
<trkpt lat="55.992432" lon="26.569349">
<ele>100.268616</ele>
<time>2010-08-29T09:33:48Z</time>
<desc>lat.=55.992432, lon.=26.569349, Alt.=100.268616m. Speed=7.380000m/h.</desc>
<speed>2.050000</speed>
</trkpt>
<trkpt lat="55.992432" lon="26.569382">
<ele>100.256897</ele>
<time>2010-08-29T09:33:49Z</time>
<desc>lat.=55.992432, lon.=26.569382, Alt.=100.256897m. Speed=7.416000m/h.</desc>
<speed>2.060000</speed>
</trkpt>
<trkpt lat="55.992428" lon="26.569420">
<ele>101.069397</ele>
<time>2010-08-29T09:33:50Z</time>
<desc>lat.=55.992428, lon.=26.569420, Alt.=101.069397m. Speed=4.932000m/h.</desc>
<speed>1.370000</speed>
</trkpt>
<trkpt lat="55.992424" lon="26.569456">
<ele>101.229553</ele>
<time>2010-08-29T09:33:51Z</time>
<desc>lat.=55.992424, lon.=26.569456, Alt.=101.229553m. Speed=7.272000m/h.</desc>
<speed>2.020000</speed>
</trkpt>
<trkpt lat="55.992424" lon="26.569492">
<ele>102.223694</ele>
<time>2010-08-29T09:33:52Z</time>
<desc>lat.=55.992424, lon.=26.569492, Alt.=102.223694m. Speed=5.076000m/h.</desc>
<speed>1.410000</speed>
</trkpt>
<trkpt lat="55.992416" lon="26.569527">
<ele>103.122131</ele>
<time>2010-08-29T09:33:53Z</time>
<desc>lat.=55.992416, lon.=26.569527, Alt.=103.122131m. Speed=6.444000m/h.</desc>
<speed>1.790000</speed>
</trkpt>
<trkpt lat="55.992405" lon="26.569563">
<ele>103.401428</ele>
<time>2010-08-29T09:33:54Z</time>
<desc>lat.=55.992405, lon.=26.569563, Alt.=103.401428m. Speed=6.624000m/h.</desc>
<speed>1.840000</speed>
</trkpt>
<trkpt lat="55.992405" lon="26.569595">
<ele>103.954163</ele>
<time>2010-08-29T09:33:55Z</time>
<desc>lat.=55.992405, lon.=26.569595, Alt.=103.954163m. Speed=6.264000m/h.</desc>
<speed>1.740000</speed>
</trkpt>
<trkpt lat="55.992401" lon="26.569626">
<ele>104.104553</ele>
<time>2010-08-29T09:33:56Z</time>
<desc>lat.=55.992401, lon.=26.569626, Alt.=104.104553m. Speed=4.356000m/h.</desc>
<speed>1.210000</speed>
</trkpt>
<trkpt lat="55.992393" lon="26.569653">
<ele>104.170959</ele>
<time>2010-08-29T09:33:57Z</time>
<desc>lat.=55.992393, lon.=26.569653, Alt.=104.170959m. Speed=5.220000m/h.</desc>
<speed>1.450000</speed>
</trkpt>
<trkpt lat="55.992390" lon="26.569685">
<ele>103.624084</ele>
<time>2010-08-29T09:33:58Z</time>
<desc>lat.=55.992390, lon.=26.569685, Alt.=103.624084m. Speed=3.564000m/h.</desc>
<speed>0.990000</speed>
</trkpt>
<trkpt lat="55.992382" lon="26.569717">
<ele>104.051819</ele>
<time>2010-08-29T09:33:59Z</time>
<desc>lat.=55.992382, lon.=26.569717, Alt.=104.051819m. Speed=8.964000m/h.</desc>
<speed>2.490000</speed>
</trkpt>
<trkpt lat="55.992378" lon="26.569754">
<ele>104.182678</ele>
<time>2010-08-29T09:34:00Z</time>
<desc>lat.=55.992378, lon.=26.569754, Alt.=104.182678m. Speed=6.984000m/h.</desc>
<speed>1.940000</speed>
</trkpt>
<trkpt lat="55.992367" lon="26.569790">
<ele>104.313538</ele>
<time>2010-08-29T09:34:01Z</time>
<desc>lat.=55.992367, lon.=26.569790, Alt.=104.313538m. Speed=7.812000m/h.</desc>
<speed>2.170000</speed>
</trkpt>
<trkpt lat="55.992355" lon="26.569828">
<ele>104.426819</ele>
<time>2010-08-29T09:34:02Z</time>
<desc>lat.=55.992355, lon.=26.569828, Alt.=104.426819m. Speed=5.760000m/h.</desc>
<speed>1.600000</speed>
</trkpt>
<trkpt lat="55.992355" lon="26.569853">
<ele>103.077209</ele>
<time>2010-08-29T09:34:03Z</time>
<desc>lat.=55.992355, lon.=26.569853, Alt.=103.077209m. Speed=5.004000m/h.</desc>
<speed>1.390000</speed>
</trkpt>
<trkpt lat="55.992348" lon="26.569872">
<ele>103.194397</ele>
<time>2010-08-29T09:34:04Z</time>
<desc>lat.=55.992348, lon.=26.569872, Alt.=103.194397m. Speed=3.204000m/h.</desc>
<speed>0.890000</speed>
</trkpt>
<trkpt lat="55.992348" lon="26.569895">
<ele>103.204163</ele>
<time>2010-08-29T09:34:05Z</time>
<desc>lat.=55.992348, lon.=26.569895, Alt.=103.204163m. Speed=3.528000m/h.</desc>
<speed>0.980000</speed>
</trkpt>
<trkpt lat="55.992344" lon="26.569929">
<ele>103.042053</ele>
<time>2010-08-29T09:34:06Z</time>
<desc>lat.=55.992344, lon.=26.569929, Alt.=103.042053m. Speed=4.212000m/h.</desc>
<speed>1.170000</speed>
</trkpt>
<trkpt lat="55.992336" lon="26.569975">
<ele>102.725647</ele>
<time>2010-08-29T09:34:07Z</time>
<desc>lat.=55.992336, lon.=26.569975, Alt.=102.725647m. Speed=7.812000m/h.</desc>
<speed>2.170000</speed>
</trkpt>
<trkpt lat="55.992325" lon="26.570013">
<ele>102.940491</ele>
<time>2010-08-29T09:34:08Z</time>
<desc>lat.=55.992325, lon.=26.570013, Alt.=102.940491m. Speed=7.128000m/h.</desc>
<speed>1.980000</speed>
</trkpt>
<trkpt lat="55.992310" lon="26.570057">
<ele>102.704163</ele>
<time>2010-08-29T09:34:09Z</time>
<desc>lat.=55.992310, lon.=26.570057, Alt.=102.704163m. Speed=6.732000m/h.</desc>
<speed>1.870000</speed>
</trkpt>
<trkpt lat="55.992298" lon="26.570097">
<ele>102.710022</ele>
<time>2010-08-29T09:34:10Z</time>
<desc>lat.=55.992298, lon.=26.570097, Alt.=102.710022m. Speed=6.732000m/h.</desc>
<speed>1.870000</speed>
</trkpt>
<trkpt lat="55.992287" lon="26.570139">
<ele>102.501038</ele>
<time>2010-08-29T09:34:11Z</time>
<desc>lat.=55.992287, lon.=26.570139, Alt.=102.501038m. Speed=9.252000m/h.</desc>
<speed>2.570000</speed>
</trkpt>
<trkpt lat="55.992283" lon="26.570210">
<ele>101.702209</ele>
<time>2010-08-29T09:34:12Z</time>
<desc>lat.=55.992283, lon.=26.570210, Alt.=101.702209m. Speed=9.648000m/h.</desc>
<speed>2.680000</speed>
</trkpt>
<trkpt lat="55.992279" lon="26.570276">
<ele>100.950256</ele>
<time>2010-08-29T09:34:13Z</time>
<desc>lat.=55.992279, lon.=26.570276, Alt.=100.950256m. Speed=9.324000m/h.</desc>
<speed>2.590000</speed>
</trkpt>
<trkpt lat="55.992271" lon="26.570333">
<ele>100.670959</ele>
<time>2010-08-29T09:34:14Z</time>
<desc>lat.=55.992271, lon.=26.570333, Alt.=100.670959m. Speed=7.704000m/h.</desc>
<speed>2.140000</speed>
</trkpt>
<trkpt lat="55.992279" lon="26.570387">
<ele>99.836975</ele>
<time>2010-08-29T09:34:15Z</time>
<desc>lat.=55.992279, lon.=26.570387, Alt.=99.836975m. Speed=6.588000m/h.</desc>
<speed>1.830000</speed>
</trkpt>
<trkpt lat="55.992271" lon="26.570433">
<ele>98.270569</ele>
<time>2010-08-29T09:34:16Z</time>
<desc>lat.=55.992271, lon.=26.570433, Alt.=98.270569m. Speed=6.984000m/h.</desc>
<speed>1.940000</speed>
</trkpt>
<trkpt lat="55.992264" lon="26.570475">
<ele>98.399475</ele>
<time>2010-08-29T09:34:17Z</time>
<desc>lat.=55.992264, lon.=26.570475, Alt.=98.399475m. Speed=6.732000m/h.</desc>
<speed>1.870000</speed>
</trkpt>
<trkpt lat="55.992256" lon="26.570515">
<ele>98.383850</ele>
<time>2010-08-29T09:34:18Z</time>
<desc>lat.=55.992256, lon.=26.570515, Alt.=98.383850m. Speed=7.164000m/h.</desc>
<speed>1.990000</speed>
</trkpt>
<trkpt lat="55.992249" lon="26.570559">
<ele>98.848694</ele>
<time>2010-08-29T09:34:19Z</time>
<desc>lat.=55.992249, lon.=26.570559, Alt.=98.848694m. Speed=8.064000m/h.</desc>
<speed>2.240000</speed>
</trkpt>
<trkpt lat="55.992241" lon="26.570601">
<ele>98.985413</ele>
<time>2010-08-29T09:34:20Z</time>
<desc>lat.=55.992241, lon.=26.570601, Alt.=98.985413m. Speed=7.344000m/h.</desc>
<speed>2.040000</speed>
</trkpt>
<trkpt lat="55.992233" lon="26.570646">
<ele>99.258850</ele>
<time>2010-08-29T09:34:21Z</time>
<desc>lat.=55.992233, lon.=26.570646, Alt.=99.258850m. Speed=7.956000m/h.</desc>
<speed>2.210000</speed>
</trkpt>
<trkpt lat="55.992226" lon="26.570721">
<ele>99.426819</ele>
<time>2010-08-29T09:34:22Z</time>
<desc>lat.=55.992226, lon.=26.570721, Alt.=99.426819m. Speed=10.404000m/h.</desc>
<speed>2.890000</speed>
</trkpt>
<trkpt lat="55.992226" lon="26.570770">
<ele>99.545959</ele>
<time>2010-08-29T09:34:23Z</time>
<desc>lat.=55.992226, lon.=26.570770, Alt.=99.545959m. Speed=8.856000m/h.</desc>
<speed>2.460000</speed>
</trkpt>
<trkpt lat="55.992226" lon="26.570822">
<ele>99.997131</ele>
<time>2010-08-29T09:34:24Z</time>
<desc>lat.=55.992226, lon.=26.570822, Alt.=99.997131m. Speed=8.640000m/h.</desc>
<speed>2.400000</speed>
</trkpt>
<trkpt lat="55.992218" lon="26.570866">
<ele>99.540100</ele>
<time>2010-08-29T09:34:25Z</time>
<desc>lat.=55.992218, lon.=26.570866, Alt.=99.540100m. Speed=10.980000m/h.</desc>
<speed>3.050000</speed>
</trkpt>
<trkpt lat="55.992218" lon="26.570915">
<ele>99.268616</ele>
<time>2010-08-29T09:34:26Z</time>
<desc>lat.=55.992218, lon.=26.570915, Alt.=99.268616m. Speed=9.684000m/h.</desc>
<speed>2.690000</speed>
</trkpt>
<trkpt lat="55.992218" lon="26.570969">
<ele>99.559631</ele>
<time>2010-08-29T09:34:27Z</time>
<desc>lat.=55.992218, lon.=26.570969, Alt.=99.559631m. Speed=9.720000m/h.</desc>
<speed>2.700000</speed>
</trkpt>
<trkpt lat="55.992218" lon="26.571024">
<ele>99.907288</ele>
<time>2010-08-29T09:34:28Z</time>
<desc>lat.=55.992218, lon.=26.571024, Alt.=99.907288m. Speed=10.656000m/h.</desc>
<speed>2.960000</speed>
</trkpt>
<trkpt lat="55.992210" lon="26.571100">
<ele>100.231506</ele>
<time>2010-08-29T09:34:29Z</time>
<desc>lat.=55.992210, lon.=26.571100, Alt.=100.231506m. Speed=11.016000m/h.</desc>
<speed>3.060000</speed>
</trkpt>
<trkpt lat="55.992210" lon="26.571180">
<ele>99.686584</ele>
<time>2010-08-29T09:34:30Z</time>
<desc>lat.=55.992210, lon.=26.571180, Alt.=99.686584m. Speed=11.448000m/h.</desc>
<speed>3.180000</speed>
</trkpt>
<trkpt lat="55.992214" lon="26.571249">
<ele>98.948303</ele>
<time>2010-08-29T09:34:31Z</time>
<desc>lat.=55.992214, lon.=26.571249, Alt.=98.948303m. Speed=10.152000m/h.</desc>
<speed>2.820000</speed>
</trkpt>
<trkpt lat="55.992218" lon="26.571302">
<ele>98.723694</ele>
<time>2010-08-29T09:34:32Z</time>
<desc>lat.=55.992218, lon.=26.571302, Alt.=98.723694m. Speed=8.604000m/h.</desc>
<speed>2.390000</speed>
</trkpt>
<trkpt lat="55.992226" lon="26.571341">
<ele>98.325256</ele>
<time>2010-08-29T09:34:33Z</time>
<desc>lat.=55.992226, lon.=26.571341, Alt.=98.325256m. Speed=6.228000m/h.</desc>
<speed>1.730000</speed>
</trkpt>
<trkpt lat="55.992226" lon="26.571373">
<ele>97.860413</ele>
<time>2010-08-29T09:34:34Z</time>
<desc>lat.=55.992226, lon.=26.571373, Alt.=97.860413m. Speed=6.012000m/h.</desc>
<speed>1.670000</speed>
</trkpt>
<trkpt lat="55.992233" lon="26.571409">
<ele>97.377991</ele>
<time>2010-08-29T09:34:35Z</time>
<desc>lat.=55.992233, lon.=26.571409, Alt.=97.377991m. Speed=8.856000m/h.</desc>
<speed>2.460000</speed>
</trkpt>
<trkpt lat="55.992237" lon="26.571453">
<ele>97.049866</ele>
<time>2010-08-29T09:34:36Z</time>
<desc>lat.=55.992237, lon.=26.571453, Alt.=97.049866m. Speed=6.984000m/h.</desc>
<speed>1.940000</speed>
</trkpt>
<trkpt lat="55.992245" lon="26.571512">
<ele>96.493225</ele>
<time>2010-08-29T09:34:37Z</time>
<desc>lat.=55.992245, lon.=26.571512, Alt.=96.493225m. Speed=7.920000m/h.</desc>
<speed>2.200000</speed>
</trkpt>
<trkpt lat="55.992260" lon="26.571554">
<ele>95.950256</ele>
<time>2010-08-29T09:34:38Z</time>
<desc>lat.=55.992260, lon.=26.571554, Alt.=95.950256m. Speed=8.604000m/h.</desc>
<speed>2.390000</speed>
</trkpt>
<trkpt lat="55.992268" lon="26.571596">
<ele>95.836975</ele>
<time>2010-08-29T09:34:39Z</time>
<desc>lat.=55.992268, lon.=26.571596, Alt.=95.836975m. Speed=7.596000m/h.</desc>
<speed>2.110000</speed>
</trkpt>
<trkpt lat="55.992271" lon="26.571629">
<ele>95.944397</ele>
<time>2010-08-29T09:34:40Z</time>
<desc>lat.=55.992271, lon.=26.571629, Alt.=95.944397m. Speed=6.372000m/h.</desc>
<speed>1.770000</speed>
</trkpt>
<trkpt lat="55.992279" lon="26.571674">
<ele>97.036194</ele>
<time>2010-08-29T09:34:41Z</time>
<desc>lat.=55.992279, lon.=26.571674, Alt.=97.036194m. Speed=5.652000m/h.</desc>
<speed>1.570000</speed>
</trkpt>
<trkpt lat="55.992290" lon="26.571699">
<ele>97.657288</ele>
<time>2010-08-29T09:34:42Z</time>
<desc>lat.=55.992290, lon.=26.571699, Alt.=97.657288m. Speed=4.464000m/h.</desc>
<speed>1.240000</speed>
</trkpt>
<trkpt lat="55.992298" lon="26.571733">
<ele>97.379944</ele>
<time>2010-08-29T09:34:43Z</time>
<desc>lat.=55.992298, lon.=26.571733, Alt.=97.379944m. Speed=4.644000m/h.</desc>
<speed>1.290000</speed>
</trkpt>
<trkpt lat="55.992302" lon="26.571756">
<ele>97.735413</ele>
<time>2010-08-29T09:34:44Z</time>
<desc>lat.=55.992302, lon.=26.571756, Alt.=97.735413m. Speed=3.708000m/h.</desc>
<speed>1.030000</speed>
</trkpt>
<trkpt lat="55.992302" lon="26.571787">
<ele>97.413147</ele>
<time>2010-08-29T09:34:45Z</time>
<desc>lat.=55.992302, lon.=26.571787, Alt.=97.413147m. Speed=5.652000m/h.</desc>
<speed>1.570000</speed>
</trkpt>
<trkpt lat="55.992302" lon="26.571829">
<ele>97.782288</ele>
<time>2010-08-29T09:34:46Z</time>
<desc>lat.=55.992302, lon.=26.571829, Alt.=97.782288m. Speed=6.840000m/h.</desc>
<speed>1.900000</speed>
</trkpt>
<trkpt lat="55.992310" lon="26.571865">
<ele>97.627991</ele>
<time>2010-08-29T09:34:47Z</time>
<desc>lat.=55.992310, lon.=26.571865, Alt.=97.627991m. Speed=7.056000m/h.</desc>
<speed>1.960000</speed>
</trkpt>
<trkpt lat="55.992317" lon="26.571903">
<ele>97.372131</ele>
<time>2010-08-29T09:34:48Z</time>
<desc>lat.=55.992317, lon.=26.571903, Alt.=97.372131m. Speed=6.372000m/h.</desc>
<speed>1.770000</speed>
</trkpt>
<trkpt lat="55.992329" lon="26.571932">
<ele>97.182678</ele>
<time>2010-08-29T09:34:49Z</time>
<desc>lat.=55.992329, lon.=26.571932, Alt.=97.182678m. Speed=6.156000m/h.</desc>
<speed>1.710000</speed>
</trkpt>
<trkpt lat="55.992332" lon="26.571966">
<ele>96.751038</ele>
<time>2010-08-29T09:34:50Z</time>
<desc>lat.=55.992332, lon.=26.571966, Alt.=96.751038m. Speed=5.256000m/h.</desc>
<speed>1.460000</speed>
</trkpt>
<trkpt lat="55.992329" lon="26.572002">
<ele>95.315491</ele>
<time>2010-08-29T09:34:51Z</time>
<desc>lat.=55.992329, lon.=26.572002, Alt.=95.315491m. Speed=4.320000m/h.</desc>
<speed>1.200000</speed>
</trkpt>
<trkpt lat="55.992332" lon="26.572027">
<ele>95.407288</ele>
<time>2010-08-29T09:34:52Z</time>
<desc>lat.=55.992332, lon.=26.572027, Alt.=95.407288m. Speed=4.284000m/h.</desc>
<speed>1.190000</speed>
</trkpt>
<trkpt lat="55.992340" lon="26.572046">
<ele>95.313538</ele>
<time>2010-08-29T09:34:53Z</time>
<desc>lat.=55.992340, lon.=26.572046, Alt.=95.313538m. Speed=3.276000m/h.</desc>
<speed>0.910000</speed>
</trkpt>
<trkpt lat="55.992332" lon="26.572067">
<ele>95.530334</ele>
<time>2010-08-29T09:34:54Z</time>
<desc>lat.=55.992332, lon.=26.572067, Alt.=95.530334m. Speed=1.296000m/h.</desc>
<speed>0.360000</speed>
</trkpt>
<trkpt lat="55.992336" lon="26.572069">
<ele>94.835022</ele>
<time>2010-08-29T09:34:55Z</time>
<desc>lat.=55.992336, lon.=26.572069, Alt.=94.835022m. Speed=0.396000m/h.</desc>
<speed>0.110000</speed>
</trkpt>
<trkpt lat="55.992332" lon="26.572083">
<ele>95.241272</ele>
<time>2010-08-29T09:34:56Z</time>
<desc>lat.=55.992332, lon.=26.572083, Alt.=95.241272m. Speed=0.324000m/h.</desc>
<speed>0.090000</speed>
</trkpt>
<trkpt lat="55.992329" lon="26.572096">
<ele>95.167053</ele>
<time>2010-08-29T09:34:57Z</time>
<desc>lat.=55.992329, lon.=26.572096, Alt.=95.167053m. Speed=0.612000m/h.</desc>
<speed>0.170000</speed>
</trkpt>
<trkpt lat="55.992325" lon="26.572104">
<ele>95.245178</ele>
<time>2010-08-29T09:34:58Z</time>
<desc>lat.=55.992325, lon.=26.572104, Alt.=95.245178m. Speed=0.432000m/h.</desc>
<speed>0.120000</speed>
</trkpt>
<trkpt lat="55.992329" lon="26.572105">
<ele>95.161194</ele>
<time>2010-08-29T09:34:59Z</time>
<desc>lat.=55.992329, lon.=26.572105, Alt.=95.161194m. Speed=0.180000m/h.</desc>
<speed>0.050000</speed>
</trkpt>
<trkpt lat="55.992329" lon="26.572105">
<ele>95.092834</ele>
<time>2010-08-29T09:35:00Z</time>
<desc>lat.=55.992329, lon.=26.572105, Alt.=95.092834m. Speed=0.252000m/h.</desc>
<speed>0.070000</speed>
</trkpt>
<trkpt lat="55.992329" lon="26.572105">
<ele>95.040100</ele>
<time>2010-08-29T09:35:01Z</time>
<desc>lat.=55.992329, lon.=26.572105, Alt.=95.040100m. Speed=0.432000m/h.</desc>
<speed>0.120000</speed>
</trkpt>
<trkpt lat="55.992329" lon="26.572104">
<ele>94.987366</ele>
<time>2010-08-29T09:35:02Z</time>
<desc>lat.=55.992329, lon.=26.572104, Alt.=94.987366m. Speed=0.180000m/h.</desc>
<speed>0.050000</speed>
</trkpt>
<trkpt lat="55.992329" lon="26.572104">
<ele>94.942444</ele>
<time>2010-08-29T09:35:03Z</time>
<desc>lat.=55.992329, lon.=26.572104, Alt.=94.942444m. Speed=0.216000m/h.</desc>
<speed>0.060000</speed>
</trkpt>
<trkpt lat="55.992329" lon="26.572105">
<ele>94.899475</ele>
<time>2010-08-29T09:35:04Z</time>
<desc>lat.=55.992329, lon.=26.572105, Alt.=94.899475m. Speed=0.684000m/h.</desc>
<speed>0.190000</speed>
</trkpt>
<trkpt lat="55.992329" lon="26.572109">
<ele>94.872131</ele>
<time>2010-08-29T09:35:05Z</time>
<desc>lat.=55.992329, lon.=26.572109, Alt.=94.872131m. Speed=0.828000m/h.</desc>
<speed>0.230000</speed>
</trkpt>
<trkpt lat="55.992329" lon="26.572113">
<ele>94.854553</ele>
<time>2010-08-29T09:35:06Z</time>
<desc>lat.=55.992329, lon.=26.572113, Alt.=94.854553m. Speed=0.720000m/h.</desc>
<speed>0.200000</speed>
</trkpt>
<trkpt lat="55.992329" lon="26.572115">
<ele>94.846741</ele>
<time>2010-08-29T09:35:07Z</time>
<desc>lat.=55.992329, lon.=26.572115, Alt.=94.846741m. Speed=0.396000m/h.</desc>
<speed>0.110000</speed>
</trkpt>
<trkpt lat="55.992329" lon="26.572117">
<ele>94.833069</ele>
<time>2010-08-29T09:35:08Z</time>
<desc>lat.=55.992329, lon.=26.572117, Alt.=94.833069m. Speed=0.468000m/h.</desc>
<speed>0.130000</speed>
</trkpt>
<trkpt lat="55.992332" lon="26.572119">
<ele>94.819397</ele>
<time>2010-08-29T09:35:09Z</time>
<desc>lat.=55.992332, lon.=26.572119, Alt.=94.819397m. Speed=0.612000m/h.</desc>
<speed>0.170000</speed>
</trkpt>
<trkpt lat="55.992332" lon="26.572121">
<ele>94.809631</ele>
<time>2010-08-29T09:35:10Z</time>
<desc>lat.=55.992332, lon.=26.572121, Alt.=94.809631m. Speed=0.324000m/h.</desc>
<speed>0.090000</speed>
</trkpt>
<trkpt lat="55.992332" lon="26.572123">
<ele>94.813538</ele>
<time>2010-08-29T09:35:11Z</time>
<desc>lat.=55.992332, lon.=26.572123, Alt.=94.813538m. Speed=0.036000m/h.</desc>
<speed>0.010000</speed>
</trkpt>
<trkpt lat="55.992332" lon="26.572123">
<ele>94.811584</ele>
<time>2010-08-29T09:35:12Z</time>
<desc>lat.=55.992332, lon.=26.572123, Alt.=94.811584m. Speed=0.324000m/h.</desc>
<speed>0.090000</speed>
</trkpt>
<trkpt lat="55.992332" lon="26.572124">
<ele>94.811584</ele>
<time>2010-08-29T09:35:13Z</time>
<desc>lat.=55.992332, lon.=26.572124, Alt.=94.811584m. Speed=0.540000m/h.</desc>
<speed>0.150000</speed>
</trkpt>
<trkpt lat="55.992332" lon="26.572126">
<ele>94.813538</ele>
<time>2010-08-29T09:35:14Z</time>
<desc>lat.=55.992332, lon.=26.572126, Alt.=94.813538m. Speed=0.720000m/h.</desc>
<speed>0.200000</speed>
</trkpt>
<trkpt lat="55.992332" lon="26.572128">
<ele>94.815491</ele>
<time>2010-08-29T09:35:15Z</time>
<desc>lat.=55.992332, lon.=26.572128, Alt.=94.815491m. Speed=2.304000m/h.</desc>
<speed>0.640000</speed>
</trkpt>
<trkpt lat="55.992344" lon="26.572132">
<ele>94.885803</ele>
<time>2010-08-29T09:35:16Z</time>
<desc>lat.=55.992344, lon.=26.572132, Alt.=94.885803m. Speed=3.024000m/h.</desc>
<speed>0.840000</speed>
</trkpt>
<trkpt lat="55.992348" lon="26.572159">
<ele>95.526428</ele>
<time>2010-08-29T09:35:17Z</time>
<desc>lat.=55.992348, lon.=26.572159, Alt.=95.526428m. Speed=3.096000m/h.</desc>
<speed>0.860000</speed>
</trkpt>
<trkpt lat="55.992352" lon="26.572189">
<ele>95.229553</ele>
<time>2010-08-29T09:35:18Z</time>
<desc>lat.=55.992352, lon.=26.572189, Alt.=95.229553m. Speed=3.888000m/h.</desc>
<speed>1.080000</speed>
</trkpt>
<trkpt lat="55.992355" lon="26.572208">
<ele>95.713928</ele>
<time>2010-08-29T09:35:19Z</time>
<desc>lat.=55.992355, lon.=26.572208, Alt.=95.713928m. Speed=3.204000m/h.</desc>
<speed>0.890000</speed>
</trkpt>
<trkpt lat="55.992363" lon="26.572226">
<ele>95.723694</ele>
<time>2010-08-29T09:35:20Z</time>
<desc>lat.=55.992363, lon.=26.572226, Alt.=95.723694m. Speed=3.780000m/h.</desc>
<speed>1.050000</speed>
</trkpt>
<trkpt lat="55.992367" lon="26.572237">
<ele>95.768616</ele>
<time>2010-08-29T09:35:21Z</time>
<desc>lat.=55.992367, lon.=26.572237, Alt.=95.768616m. Speed=3.276000m/h.</desc>
<speed>0.910000</speed>
</trkpt>
<trkpt lat="55.992374" lon="26.572266">
<ele>96.182678</ele>
<time>2010-08-29T09:35:22Z</time>
<desc>lat.=55.992374, lon.=26.572266, Alt.=96.182678m. Speed=6.804000m/h.</desc>
<speed>1.890000</speed>
</trkpt>
<trkpt lat="55.992382" lon="26.572289">
<ele>96.280334</ele>
<time>2010-08-29T09:35:23Z</time>
<desc>lat.=55.992382, lon.=26.572289, Alt.=96.280334m. Speed=6.480000m/h.</desc>
<speed>1.800000</speed>
</trkpt>
<trkpt lat="55.992386" lon="26.572313">
<ele>96.210022</ele>
<time>2010-08-29T09:35:24Z</time>
<desc>lat.=55.992386, lon.=26.572313, Alt.=96.210022m. Speed=4.068000m/h.</desc>
<speed>1.130000</speed>
</trkpt>
<trkpt lat="55.992393" lon="26.572344">
<ele>96.239319</ele>
<time>2010-08-29T09:35:25Z</time>
<desc>lat.=55.992393, lon.=26.572344, Alt.=96.239319m. Speed=7.632000m/h.</desc>
<speed>2.120000</speed>
</trkpt>
<trkpt lat="55.992409" lon="26.572376">
<ele>96.102600</ele>
<time>2010-08-29T09:35:26Z</time>
<desc>lat.=55.992409, lon.=26.572376, Alt.=96.102600m. Speed=7.128000m/h.</desc>
<speed>1.980000</speed>
</trkpt>
<trkpt lat="55.992424" lon="26.572401">
<ele>95.825256</ele>
<time>2010-08-29T09:35:26Z</time>
<desc>lat.=55.992424, lon.=26.572401, Alt.=95.825256m. Speed=6.084000m/h.</desc>
<speed>1.690000</speed>
</trkpt>
<trkpt lat="55.992439" lon="26.572426">
<ele>95.852600</ele>
<time>2010-08-29T09:35:28Z</time>
<desc>lat.=55.992439, lon.=26.572426, Alt.=95.852600m. Speed=7.344000m/h.</desc>
<speed>2.040000</speed>
</trkpt>
<trkpt lat="55.992439" lon="26.572460">
<ele>95.848694</ele>
<time>2010-08-29T09:35:29Z</time>
<desc>lat.=55.992439, lon.=26.572460, Alt.=95.848694m. Speed=5.904000m/h.</desc>
<speed>1.640000</speed>
</trkpt>
<trkpt lat="55.992455" lon="26.572498">
<ele>95.659241</ele>
<time>2010-08-29T09:35:30Z</time>
<desc>lat.=55.992455, lon.=26.572498, Alt.=95.659241m. Speed=8.640000m/h.</desc>
<speed>2.400000</speed>
</trkpt>
<trkpt lat="55.992466" lon="26.572556">
<ele>95.698303</ele>
<time>2010-08-29T09:35:31Z</time>
<desc>lat.=55.992466, lon.=26.572556, Alt.=95.698303m. Speed=9.468000m/h.</desc>
<speed>2.630000</speed>
</trkpt>
<trkpt lat="55.992485" lon="26.572607">
<ele>95.557678</ele>
<time>2010-08-29T09:35:32Z</time>
<desc>lat.=55.992485, lon.=26.572607, Alt.=95.557678m. Speed=9.288000m/h.</desc>
<speed>2.580000</speed>
</trkpt>
<trkpt lat="55.992496" lon="26.572651">
<ele>95.608459</ele>
<time>2010-08-29T09:35:33Z</time>
<desc>lat.=55.992496, lon.=26.572651, Alt.=95.608459m. Speed=9.108000m/h.</desc>
<speed>2.530000</speed>
</trkpt>
<trkpt lat="55.992512" lon="26.572687">
<ele>95.518616</ele>
<time>2010-08-29T09:35:34Z</time>
<desc>lat.=55.992512, lon.=26.572687, Alt.=95.518616m. Speed=9.360000m/h.</desc>
<speed>2.600000</speed>
</trkpt>
<trkpt lat="55.992523" lon="26.572739">
<ele>96.083069</ele>
<time>2010-08-29T09:35:35Z</time>
<desc>lat.=55.992523, lon.=26.572739, Alt.=96.083069m. Speed=9.792000m/h.</desc>
<speed>2.720000</speed>
</trkpt>
<trkpt lat="55.992535" lon="26.572786">
<ele>96.434631</ele>
<time>2010-08-29T09:35:36Z</time>
<desc>lat.=55.992535, lon.=26.572786, Alt.=96.434631m. Speed=9.144000m/h.</desc>
<speed>2.540000</speed>
</trkpt>
<trkpt lat="55.992554" lon="26.572817">
<ele>96.372131</ele>
<time>2010-08-29T09:35:37Z</time>
<desc>lat.=55.992554, lon.=26.572817, Alt.=96.372131m. Speed=8.964000m/h.</desc>
<speed>2.490000</speed>
</trkpt>
<trkpt lat="55.992565" lon="26.572861">
<ele>96.518616</ele>
<time>2010-08-29T09:35:38Z</time>
<desc>lat.=55.992565, lon.=26.572861, Alt.=96.518616m. Speed=10.368000m/h.</desc>
<speed>2.880000</speed>
</trkpt>
<trkpt lat="55.992577" lon="26.572908">
<ele>96.872131</ele>
<time>2010-08-29T09:35:39Z</time>
<desc>lat.=55.992577, lon.=26.572908, Alt.=96.872131m. Speed=10.368000m/h.</desc>
<speed>2.880000</speed>
</trkpt>
<trkpt lat="55.992584" lon="26.572952">
<ele>96.835022</ele>
<time>2010-08-29T09:35:40Z</time>
<desc>lat.=55.992584, lon.=26.572952, Alt.=96.835022m. Speed=9.900000m/h.</desc>
<speed>2.750000</speed>
</trkpt>
<trkpt lat="55.992596" lon="26.572992">
<ele>97.319397</ele>
<time>2010-08-29T09:35:41Z</time>
<desc>lat.=55.992596, lon.=26.572992, Alt.=97.319397m. Speed=9.432000m/h.</desc>
<speed>2.620000</speed>
</trkpt>
<trkpt lat="55.992607" lon="26.573025">
<ele>96.479553</ele>
<time>2010-08-29T09:35:42Z</time>
<desc>lat.=55.992607, lon.=26.573025, Alt.=96.479553m. Speed=8.136000m/h.</desc>
<speed>2.260000</speed>
</trkpt>
<trkpt lat="55.992619" lon="26.573069">
<ele>96.079163</ele>
<time>2010-08-29T09:35:43Z</time>
<desc>lat.=55.992619, lon.=26.573069, Alt.=96.079163m. Speed=8.352000m/h.</desc>
<speed>2.320000</speed>
</trkpt>
<trkpt lat="55.992630" lon="26.573112">
<ele>96.352600</ele>
<time>2010-08-29T09:35:44Z</time>
<desc>lat.=55.992630, lon.=26.573112, Alt.=96.352600m. Speed=8.964000m/h.</desc>
<speed>2.490000</speed>
</trkpt>
<trkpt lat="55.992638" lon="26.573156">
<ele>96.174866</ele>
<time>2010-08-29T09:35:45Z</time>
<desc>lat.=55.992638, lon.=26.573156, Alt.=96.174866m. Speed=10.368000m/h.</desc>
<speed>2.880000</speed>
</trkpt>
<trkpt lat="55.992645" lon="26.573196">
<ele>95.458069</ele>
<time>2010-08-29T09:35:46Z</time>
<desc>lat.=55.992645, lon.=26.573196, Alt.=95.458069m. Speed=9.684000m/h.</desc>
<speed>2.690000</speed>
</trkpt>
<trkpt lat="55.992653" lon="26.573236">
<ele>95.569397</ele>
<time>2010-08-29T09:35:47Z</time>
<desc>lat.=55.992653, lon.=26.573236, Alt.=95.569397m. Speed=8.172000m/h.</desc>
<speed>2.270000</speed>
</trkpt>
<trkpt lat="55.992664" lon="26.573273">
<ele>95.920959</ele>
<time>2010-08-29T09:35:48Z</time>
<desc>lat.=55.992664, lon.=26.573273, Alt.=95.920959m. Speed=8.820000m/h.</desc>
<speed>2.450000</speed>
</trkpt>
<trkpt lat="55.992676" lon="26.573305">
<ele>96.106506</ele>
<time>2010-08-29T09:35:49Z</time>
<desc>lat.=55.992676, lon.=26.573305, Alt.=96.106506m. Speed=8.424000m/h.</desc>
<speed>2.340000</speed>
</trkpt>
<trkpt lat="55.992683" lon="26.573338">
<ele>96.520569</ele>
<time>2010-08-29T09:35:50Z</time>
<desc>lat.=55.992683, lon.=26.573338, Alt.=96.520569m. Speed=8.676000m/h.</desc>
<speed>2.410000</speed>
</trkpt>
<trkpt lat="55.992691" lon="26.573366">
<ele>97.352600</ele>
<time>2010-08-29T09:35:51Z</time>
<desc>lat.=55.992691, lon.=26.573366, Alt.=97.352600m. Speed=6.336000m/h.</desc>
<speed>1.760000</speed>
</trkpt>
<trkpt lat="55.992702" lon="26.573395">
<ele>98.110413</ele>
<time>2010-08-29T09:35:52Z</time>
<desc>lat.=55.992702, lon.=26.573395, Alt.=98.110413m. Speed=7.344000m/h.</desc>
<speed>2.040000</speed>
</trkpt>
<trkpt lat="55.992710" lon="26.573425">
<ele>97.897522</ele>
<time>2010-08-29T09:35:53Z</time>
<desc>lat.=55.992710, lon.=26.573425, Alt.=97.897522m. Speed=7.632000m/h.</desc>
<speed>2.120000</speed>
</trkpt>
<trkpt lat="55.992718" lon="26.573458">
<ele>98.305725</ele>
<time>2010-08-29T09:35:54Z</time>
<desc>lat.=55.992718, lon.=26.573458, Alt.=98.305725m. Speed=7.272000m/h.</desc>
<speed>2.020000</speed>
</trkpt>
<trkpt lat="55.992725" lon="26.573488">
<ele>98.991272</ele>
<time>2010-08-29T09:35:55Z</time>
<desc>lat.=55.992725, lon.=26.573488, Alt.=98.991272m. Speed=7.920000m/h.</desc>
<speed>2.200000</speed>
</trkpt>
<trkpt lat="55.992733" lon="26.573521">
<ele>99.678772</ele>
<time>2010-08-29T09:35:56Z</time>
<desc>lat.=55.992733, lon.=26.573521, Alt.=99.678772m. Speed=7.884000m/h.</desc>
<speed>2.190000</speed>
</trkpt>
<trkpt lat="55.992748" lon="26.573544">
<ele>99.790100</ele>
<time>2010-08-29T09:35:57Z</time>
<desc>lat.=55.992748, lon.=26.573544, Alt.=99.790100m. Speed=5.796000m/h.</desc>
<speed>1.610000</speed>
</trkpt>
<trkpt lat="55.992760" lon="26.573568">
<ele>99.665100</ele>
<time>2010-08-29T09:35:58Z</time>
<desc>lat.=55.992760, lon.=26.573568, Alt.=99.665100m. Speed=7.992000m/h.</desc>
<speed>2.220000</speed>
</trkpt>
<trkpt lat="55.992771" lon="26.573599">
<ele>100.245178</ele>
<time>2010-08-29T09:35:59Z</time>
<desc>lat.=55.992771, lon.=26.573599, Alt.=100.245178m. Speed=7.776000m/h.</desc>
<speed>2.160000</speed>
</trkpt>
<trkpt lat="55.992783" lon="26.573631">
<ele>100.770569</ele>
<time>2010-08-29T09:36:00Z</time>
<desc>lat.=55.992783, lon.=26.573631, Alt.=100.770569m. Speed=8.316000m/h.</desc>
<speed>2.310000</speed>
</trkpt>
<trkpt lat="55.992794" lon="26.573669">
<ele>101.001038</ele>
<time>2010-08-29T09:36:01Z</time>
<desc>lat.=55.992794, lon.=26.573669, Alt.=101.001038m. Speed=8.172000m/h.</desc>
<speed>2.270000</speed>
</trkpt>
<trkpt lat="55.992802" lon="26.573694">
<ele>100.893616</ele>
<time>2010-08-29T09:36:02Z</time>
<desc>lat.=55.992802, lon.=26.573694, Alt.=100.893616m. Speed=4.788000m/h.</desc>
<speed>1.330000</speed>
</trkpt>
<trkpt lat="55.992805" lon="26.573719">
<ele>100.807678</ele>
<time>2010-08-29T09:36:03Z</time>
<desc>lat.=55.992805, lon.=26.573719, Alt.=100.807678m. Speed=5.004000m/h.</desc>
<speed>1.390000</speed>
</trkpt>
<trkpt lat="55.992817" lon="26.573738">
<ele>100.934631</ele>
<time>2010-08-29T09:36:04Z</time>
<desc>lat.=55.992817, lon.=26.573738, Alt.=100.934631m. Speed=7.020000m/h.</desc>
<speed>1.950000</speed>
</trkpt>
<trkpt lat="55.992828" lon="26.573753">
<ele>100.907288</ele>
<time>2010-08-29T09:36:05Z</time>
<desc>lat.=55.992828, lon.=26.573753, Alt.=100.907288m. Speed=3.816000m/h.</desc>
<speed>1.060000</speed>
</trkpt>
<trkpt lat="55.992844" lon="26.573786">
<ele>100.698303</ele>
<time>2010-08-29T09:36:06Z</time>
<desc>lat.=55.992844, lon.=26.573786, Alt.=100.698303m. Speed=6.048000m/h.</desc>
<speed>1.680000</speed>
</trkpt>
<trkpt lat="55.992855" lon="26.573818">
<ele>100.354553</ele>
<time>2010-08-29T09:36:07Z</time>
<desc>lat.=55.992855, lon.=26.573818, Alt.=100.354553m. Speed=4.248000m/h.</desc>
<speed>1.180000</speed>
</trkpt>
<trkpt lat="55.992863" lon="26.573835">
<ele>100.270569</ele>
<time>2010-08-29T09:36:08Z</time>
<desc>lat.=55.992863, lon.=26.573835, Alt.=100.270569m. Speed=3.672000m/h.</desc>
<speed>1.020000</speed>
</trkpt>
<trkpt lat="55.992870" lon="26.573849">
<ele>100.102600</ele>
<time>2010-08-29T09:36:09Z</time>
<desc>lat.=55.992870, lon.=26.573849, Alt.=100.102600m. Speed=3.816000m/h.</desc>
<speed>1.060000</speed>
</trkpt>
<trkpt lat="55.992874" lon="26.573875">
<ele>100.387756</ele>
<time>2010-08-29T09:36:10Z</time>
<desc>lat.=55.992874, lon.=26.573875, Alt.=100.387756m. Speed=2.880000m/h.</desc>
<speed>0.800000</speed>
</trkpt>
<trkpt lat="55.992886" lon="26.573904">
<ele>100.600647</ele>
<time>2010-08-29T09:36:11Z</time>
<desc>lat.=55.992886, lon.=26.573904, Alt.=100.600647m. Speed=5.364000m/h.</desc>
<speed>1.490000</speed>
</trkpt>
<trkpt lat="55.992889" lon="26.573936">
<ele>100.868225</ele>
<time>2010-08-29T09:36:12Z</time>
<desc>lat.=55.992889, lon.=26.573936, Alt.=100.868225m. Speed=6.696000m/h.</desc>
<speed>1.860000</speed>
</trkpt>
<trkpt lat="55.992901" lon="26.573959">
<ele>100.612366</ele>
<time>2010-08-29T09:36:13Z</time>
<desc>lat.=55.992901, lon.=26.573959, Alt.=100.612366m. Speed=4.968000m/h.</desc>
<speed>1.380000</speed>
</trkpt>
<trkpt lat="55.992908" lon="26.573984">
<ele>100.737366</ele>
<time>2010-08-29T09:36:14Z</time>
<desc>lat.=55.992908, lon.=26.573984, Alt.=100.737366m. Speed=6.624000m/h.</desc>
<speed>1.840000</speed>
</trkpt>
<trkpt lat="55.992924" lon="26.574013">
<ele>100.917053</ele>
<time>2010-08-29T09:36:15Z</time>
<desc>lat.=55.992924, lon.=26.574013, Alt.=100.917053m. Speed=5.724000m/h.</desc>
<speed>1.590000</speed>
</trkpt>
<trkpt lat="55.992931" lon="26.574064">
<ele>100.942444</ele>
<time>2010-08-29T09:36:16Z</time>
<desc>lat.=55.992931, lon.=26.574064, Alt.=100.942444m. Speed=8.100000m/h.</desc>
<speed>2.250000</speed>
</trkpt>
<trkpt lat="55.992947" lon="26.574116">
<ele>100.827209</ele>
<time>2010-08-29T09:36:17Z</time>
<desc>lat.=55.992947, lon.=26.574116, Alt.=100.827209m. Speed=7.344000m/h.</desc>
<speed>2.040000</speed>
</trkpt>
<trkpt lat="55.992950" lon="26.574154">
<ele>100.463928</ele>
<time>2010-08-29T09:36:18Z</time>
<desc>lat.=55.992950, lon.=26.574154, Alt.=100.463928m. Speed=7.416000m/h.</desc>
<speed>2.060000</speed>
</trkpt>
<trkpt lat="55.992966" lon="26.574209">
<ele>100.176819</ele>
<time>2010-08-29T09:36:19Z</time>
<desc>lat.=55.992966, lon.=26.574209, Alt.=100.176819m. Speed=8.928000m/h.</desc>
<speed>2.480000</speed>
</trkpt>
<trkpt lat="55.992992" lon="26.574261">
<ele>100.395569</ele>
<time>2010-08-29T09:36:20Z</time>
<desc>lat.=55.992992, lon.=26.574261, Alt.=100.395569m. Speed=9.108000m/h.</desc>
<speed>2.530000</speed>
</trkpt>
<trkpt lat="55.993011" lon="26.574305">
<ele>100.016663</ele>
<time>2010-08-29T09:36:21Z</time>
<desc>lat.=55.993011, lon.=26.574305, Alt.=100.016663m. Speed=10.404000m/h.</desc>
<speed>2.890000</speed>
</trkpt>
<trkpt lat="55.993034" lon="26.574326">
<ele>98.979553</ele>
<time>2010-08-29T09:36:22Z</time>
<desc>lat.=55.993034, lon.=26.574326, Alt.=98.979553m. Speed=6.264000m/h.</desc>
<speed>1.740000</speed>
</trkpt>
<trkpt lat="55.993046" lon="26.574348">
<ele>98.700256</ele>
<time>2010-08-29T09:36:23Z</time>
<desc>lat.=55.993046, lon.=26.574348, Alt.=98.700256m. Speed=7.596000m/h.</desc>
<speed>2.110000</speed>
</trkpt>
<trkpt lat="55.993057" lon="26.574385">
<ele>99.022522</ele>
<time>2010-08-29T09:36:24Z</time>
<desc>lat.=55.993057, lon.=26.574385, Alt.=99.022522m. Speed=9.000000m/h.</desc>
<speed>2.500000</speed>
</trkpt>
<trkpt lat="55.993073" lon="26.574423">
<ele>99.442444</ele>
<time>2010-08-29T09:36:25Z</time>
<desc>lat.=55.993073, lon.=26.574423, Alt.=99.442444m. Speed=7.740000m/h.</desc>
<speed>2.150000</speed>
</trkpt>
<trkpt lat="55.993088" lon="26.574455">
<ele>99.606506</ele>
<time>2010-08-29T09:36:26Z</time>
<desc>lat.=55.993088, lon.=26.574455, Alt.=99.606506m. Speed=7.200000m/h.</desc>
<speed>2.000000</speed>
</trkpt>
<trkpt lat="55.993092" lon="26.574488">
<ele>100.133850</ele>
<time>2010-08-29T09:36:27Z</time>
<desc>lat.=55.993092, lon.=26.574488, Alt.=100.133850m. Speed=7.164000m/h.</desc>
<speed>1.990000</speed>
</trkpt>
<trkpt lat="55.993099" lon="26.574530">
<ele>100.026428</ele>
<time>2010-08-29T09:36:28Z</time>
<desc>lat.=55.993099, lon.=26.574530, Alt.=100.026428m. Speed=3.528000m/h.</desc>
<speed>0.980000</speed>
</trkpt>
<trkpt lat="55.993107" lon="26.574558">
<ele>100.254944</ele>
<time>2010-08-29T09:36:29Z</time>
<desc>lat.=55.993107, lon.=26.574558, Alt.=100.254944m. Speed=5.004000m/h.</desc>
<speed>1.390000</speed>
</trkpt>
<trkpt lat="55.993111" lon="26.574589">
<ele>100.715881</ele>
<time>2010-08-29T09:36:30Z</time>
<desc>lat.=55.993111, lon.=26.574589, Alt.=100.715881m. Speed=5.184000m/h.</desc>
<speed>1.440000</speed>
</trkpt>
<trkpt lat="55.993122" lon="26.574629">
<ele>101.159241</ele>
<time>2010-08-29T09:36:31Z</time>
<desc>lat.=55.993122, lon.=26.574629, Alt.=101.159241m. Speed=6.480000m/h.</desc>
<speed>1.800000</speed>
</trkpt>
<trkpt lat="55.993137" lon="26.574659">
<ele>101.479553</ele>
<time>2010-08-29T09:36:32Z</time>
<desc>lat.=55.993137, lon.=26.574659, Alt.=101.479553m. Speed=3.960000m/h.</desc>
<speed>1.100000</speed>
</trkpt>
<trkpt lat="55.993149" lon="26.574684">
<ele>101.715881</ele>
<time>2010-08-29T09:36:33Z</time>
<desc>lat.=55.993149, lon.=26.574684, Alt.=101.715881m. Speed=3.348000m/h.</desc>
<speed>0.930000</speed>
</trkpt>
<trkpt lat="55.993160" lon="26.574718">
<ele>101.729553</ele>
<time>2010-08-29T09:36:34Z</time>
<desc>lat.=55.993160, lon.=26.574718, Alt.=101.729553m. Speed=3.204000m/h.</desc>
<speed>0.890000</speed>
</trkpt>
<trkpt lat="55.993172" lon="26.574753">
<ele>101.483459</ele>
<time>2010-08-29T09:36:35Z</time>
<desc>lat.=55.993172, lon.=26.574753, Alt.=101.483459m. Speed=6.444000m/h.</desc>
<speed>1.790000</speed>
</trkpt>
<trkpt lat="55.993183" lon="26.574781">
<ele>101.299866</ele>
<time>2010-08-29T09:36:36Z</time>
<desc>lat.=55.993183, lon.=26.574781, Alt.=101.299866m. Speed=6.120000m/h.</desc>
<speed>1.700000</speed>
</trkpt>
<trkpt lat="55.993202" lon="26.574814">
<ele>100.821350</ele>
<time>2010-08-29T09:36:37Z</time>
<desc>lat.=55.993202, lon.=26.574814, Alt.=100.821350m. Speed=4.896000m/h.</desc>
<speed>1.360000</speed>
</trkpt>
<trkpt lat="55.993217" lon="26.574850">
<ele>99.577209</ele>
<time>2010-08-29T09:36:38Z</time>
<desc>lat.=55.993217, lon.=26.574850, Alt.=99.577209m. Speed=6.660000m/h.</desc>
<speed>1.850000</speed>
</trkpt>
<trkpt lat="55.993244" lon="26.574905">
<ele>98.588928</ele>
<time>2010-08-29T09:36:39Z</time>
<desc>lat.=55.993244, lon.=26.574905, Alt.=98.588928m. Speed=10.152000m/h.</desc>
<speed>2.820000</speed>
</trkpt>
<trkpt lat="55.993267" lon="26.574934">
<ele>98.149475</ele>
<time>2010-08-29T09:36:40Z</time>
<desc>lat.=55.993267, lon.=26.574934, Alt.=98.149475m. Speed=8.172000m/h.</desc>
<speed>2.270000</speed>
</trkpt>
<trkpt lat="55.993282" lon="26.574974">
<ele>97.733459</ele>
<time>2010-08-29T09:36:41Z</time>
<desc>lat.=55.993282, lon.=26.574974, Alt.=97.733459m. Speed=8.388000m/h.</desc>
<speed>2.330000</speed>
</trkpt>
<trkpt lat="55.993301" lon="26.575001">
<ele>97.196350</ele>
<time>2010-08-29T09:36:42Z</time>
<desc>lat.=55.993301, lon.=26.575001, Alt.=97.196350m. Speed=6.012000m/h.</desc>
<speed>1.670000</speed>
</trkpt>
<trkpt lat="55.993313" lon="26.575045">
<ele>96.895569</ele>
<time>2010-08-29T09:36:43Z</time>
<desc>lat.=55.993313, lon.=26.575045, Alt.=96.895569m. Speed=5.220000m/h.</desc>
<speed>1.450000</speed>
</trkpt>
<trkpt lat="55.993332" lon="26.575092">
<ele>96.088928</ele>
<time>2010-08-29T09:36:44Z</time>
<desc>lat.=55.993332, lon.=26.575092, Alt.=96.088928m. Speed=5.760000m/h.</desc>
<speed>1.600000</speed>
</trkpt>
<trkpt lat="55.993359" lon="26.575123">
<ele>95.704163</ele>
<time>2010-08-29T09:36:45Z</time>
<desc>lat.=55.993359, lon.=26.575123, Alt.=95.704163m. Speed=6.732000m/h.</desc>
<speed>1.870000</speed>
</trkpt>
<trkpt lat="55.993370" lon="26.575153">
<ele>95.530334</ele>
<time>2010-08-29T09:36:46Z</time>
<desc>lat.=55.993370, lon.=26.575153, Alt.=95.530334m. Speed=6.192000m/h.</desc>
<speed>1.720000</speed>
</trkpt>
<trkpt lat="55.993378" lon="26.575191">
<ele>95.606506</ele>
<time>2010-08-29T09:36:47Z</time>
<desc>lat.=55.993378, lon.=26.575191, Alt.=95.606506m. Speed=4.860000m/h.</desc>
<speed>1.350000</speed>
</trkpt>
<trkpt lat="55.993385" lon="26.575228">
<ele>95.473694</ele>
<time>2010-08-29T09:36:48Z</time>
<desc>lat.=55.993385, lon.=26.575228, Alt.=95.473694m. Speed=7.740000m/h.</desc>
<speed>2.150000</speed>
</trkpt>
<trkpt lat="55.993385" lon="26.575298">
<ele>95.862366</ele>
<time>2010-08-29T09:36:49Z</time>
<desc>lat.=55.993385, lon.=26.575298, Alt.=95.862366m. Speed=7.056000m/h.</desc>
<speed>1.960000</speed>
</trkpt>
<trkpt lat="55.993393" lon="26.575350">
<ele>95.954163</ele>
<time>2010-08-29T09:36:50Z</time>
<desc>lat.=55.993393, lon.=26.575350, Alt.=95.954163m. Speed=5.508000m/h.</desc>
<speed>1.530000</speed>
</trkpt>
<trkpt lat="55.993401" lon="26.575388">
<ele>95.989319</ele>
<time>2010-08-29T09:36:51Z</time>
<desc>lat.=55.993401, lon.=26.575388, Alt.=95.989319m. Speed=5.904000m/h.</desc>
<speed>1.640000</speed>
</trkpt>
<trkpt lat="55.993404" lon="26.575434">
<ele>95.143616</ele>
<time>2010-08-29T09:36:52Z</time>
<desc>lat.=55.993404, lon.=26.575434, Alt.=95.143616m. Speed=5.940000m/h.</desc>
<speed>1.650000</speed>
</trkpt>
<trkpt lat="55.993416" lon="26.575483">
<ele>94.471741</ele>
<time>2010-08-29T09:36:53Z</time>
<desc>lat.=55.993416, lon.=26.575483, Alt.=94.471741m. Speed=6.588000m/h.</desc>
<speed>1.830000</speed>
</trkpt>
<trkpt lat="55.993420" lon="26.575546">
<ele>94.756897</ele>
<time>2010-08-29T09:36:54Z</time>
<desc>lat.=55.993420, lon.=26.575546, Alt.=94.756897m. Speed=5.724000m/h.</desc>
<speed>1.590000</speed>
</trkpt>
<trkpt lat="55.993423" lon="26.575592">
<ele>94.477600</ele>
<time>2010-08-29T09:36:55Z</time>
<desc>lat.=55.993423, lon.=26.575592, Alt.=94.477600m. Speed=6.840000m/h.</desc>
<speed>1.900000</speed>
</trkpt>
<trkpt lat="55.993420" lon="26.575640">
<ele>94.295959</ele>
<time>2010-08-29T09:36:56Z</time>
<desc>lat.=55.993420, lon.=26.575640, Alt.=94.295959m. Speed=7.092000m/h.</desc>
<speed>1.970000</speed>
</trkpt>
<trkpt lat="55.993416" lon="26.575716">
<ele>95.163147</ele>
<time>2010-08-29T09:36:57Z</time>
<desc>lat.=55.993416, lon.=26.575716, Alt.=95.163147m. Speed=6.408000m/h.</desc>
<speed>1.780000</speed>
</trkpt>
<trkpt lat="55.993423" lon="26.575768">
<ele>95.850647</ele>
<time>2010-08-29T09:36:58Z</time>
<desc>lat.=55.993423, lon.=26.575768, Alt.=95.850647m. Speed=6.300000m/h.</desc>
<speed>1.750000</speed>
</trkpt>
<trkpt lat="55.993423" lon="26.575832">
<ele>96.252991</ele>
<time>2010-08-29T09:36:59Z</time>
<desc>lat.=55.993423, lon.=26.575832, Alt.=96.252991m. Speed=5.580000m/h.</desc>
<speed>1.550000</speed>
</trkpt>
<trkpt lat="55.993420" lon="26.575962">
<ele>97.600647</ele>
<time>2010-08-29T09:37:00Z</time>
<desc>lat.=55.993420, lon.=26.575962, Alt.=97.600647m. Speed=7.956000m/h.</desc>
<speed>2.210000</speed>
</trkpt>
<trkpt lat="55.993431" lon="26.576036">
<ele>98.083069</ele>
<time>2010-08-29T09:37:01Z</time>
<desc>lat.=55.993431, lon.=26.576036, Alt.=98.083069m. Speed=7.416000m/h.</desc>
<speed>2.060000</speed>
</trkpt>
<trkpt lat="55.993443" lon="26.576086">
<ele>98.223694</ele>
<time>2010-08-29T09:37:02Z</time>
<desc>lat.=55.993443, lon.=26.576086, Alt.=98.223694m. Speed=9.180000m/h.</desc>
<speed>2.550000</speed>
</trkpt>
<trkpt lat="55.993454" lon="26.576139">
<ele>98.026428</ele>
<time>2010-08-29T09:37:03Z</time>
<desc>lat.=55.993454, lon.=26.576139, Alt.=98.026428m. Speed=7.308000m/h.</desc>
<speed>2.030000</speed>
</trkpt>
<trkpt lat="55.993465" lon="26.576189">
<ele>98.192444</ele>
<time>2010-08-29T09:37:04Z</time>
<desc>lat.=55.993465, lon.=26.576189, Alt.=98.192444m. Speed=9.108000m/h.</desc>
<speed>2.530000</speed>
</trkpt>
<trkpt lat="55.993477" lon="26.576260">
<ele>98.811584</ele>
<time>2010-08-29T09:37:05Z</time>
<desc>lat.=55.993477, lon.=26.576260, Alt.=98.811584m. Speed=11.484000m/h.</desc>
<speed>3.190000</speed>
</trkpt>
<trkpt lat="55.993488" lon="26.576345">
<ele>98.733459</ele>
<time>2010-08-29T09:37:06Z</time>
<desc>lat.=55.993488, lon.=26.576345, Alt.=98.733459m. Speed=10.800000m/h.</desc>
<speed>3.000000</speed>
</trkpt>
<trkpt lat="55.993496" lon="26.576410">
<ele>98.817444</ele>
<time>2010-08-29T09:37:07Z</time>
<desc>lat.=55.993496, lon.=26.576410, Alt.=98.817444m. Speed=7.776000m/h.</desc>
<speed>2.160000</speed>
</trkpt>
<trkpt lat="55.993504" lon="26.576469">
<ele>98.905334</ele>
<time>2010-08-29T09:37:08Z</time>
<desc>lat.=55.993504, lon.=26.576469, Alt.=98.905334m. Speed=9.612000m/h.</desc>
<speed>2.670000</speed>
</trkpt>
<trkpt lat="55.993504" lon="26.576515">
<ele>99.518616</ele>
<time>2010-08-29T09:37:09Z</time>
<desc>lat.=55.993504, lon.=26.576515, Alt.=99.518616m. Speed=4.752000m/h.</desc>
<speed>1.320000</speed>
</trkpt>
<trkpt lat="55.993507" lon="26.576544">
<ele>100.122131</ele>
<time>2010-08-29T09:37:10Z</time>
<desc>lat.=55.993507, lon.=26.576544, Alt.=100.122131m. Speed=5.220000m/h.</desc>
<speed>1.450000</speed>
</trkpt>
<trkpt lat="55.993523" lon="26.576578">
<ele>100.475647</ele>
<time>2010-08-29T09:37:11Z</time>
<desc>lat.=55.993523, lon.=26.576578, Alt.=100.475647m. Speed=6.912000m/h.</desc>
<speed>1.920000</speed>
</trkpt>
<trkpt lat="55.993523" lon="26.576620">
<ele>100.502991</ele>
<time>2010-08-29T09:37:12Z</time>
<desc>lat.=55.993523, lon.=26.576620, Alt.=100.502991m. Speed=4.428000m/h.</desc>
<speed>1.230000</speed>
</trkpt>
<trkpt lat="55.993523" lon="26.576687">
<ele>100.098694</ele>
<time>2010-08-29T09:37:13Z</time>
<desc>lat.=55.993523, lon.=26.576687, Alt.=100.098694m. Speed=7.308000m/h.</desc>
<speed>2.030000</speed>
</trkpt>
<trkpt lat="55.993530" lon="26.576738">
<ele>99.692444</ele>
<time>2010-08-29T09:37:14Z</time>
<desc>lat.=55.993530, lon.=26.576738, Alt.=99.692444m. Speed=8.820000m/h.</desc>
<speed>2.450000</speed>
</trkpt>
<trkpt lat="55.993553" lon="26.576803">
<ele>100.002991</ele>
<time>2010-08-29T09:37:15Z</time>
<desc>lat.=55.993553, lon.=26.576803, Alt.=100.002991m. Speed=11.088000m/h.</desc>
<speed>3.080000</speed>
</trkpt>
<trkpt lat="55.993565" lon="26.576857">
<ele>100.026428</ele>
<time>2010-08-29T09:37:16Z</time>
<desc>lat.=55.993565, lon.=26.576857, Alt.=100.026428m. Speed=9.864000m/h.</desc>
<speed>2.740000</speed>
</trkpt>
<trkpt lat="55.993576" lon="26.576910">
<ele>100.161194</ele>
<time>2010-08-29T09:37:17Z</time>
<desc>lat.=55.993576, lon.=26.576910, Alt.=100.161194m. Speed=9.792000m/h.</desc>
<speed>2.720000</speed>
</trkpt>
<trkpt lat="55.993591" lon="26.576954">
<ele>100.696350</ele>
<time>2010-08-29T09:37:18Z</time>
<desc>lat.=55.993591, lon.=26.576954, Alt.=100.696350m. Speed=10.656000m/h.</desc>
<speed>2.960000</speed>
</trkpt>
<trkpt lat="55.993614" lon="26.577019">
<ele>100.614319</ele>
<time>2010-08-29T09:37:19Z</time>
<desc>lat.=55.993614, lon.=26.577019, Alt.=100.614319m. Speed=9.792000m/h.</desc>
<speed>2.720000</speed>
</trkpt>
<trkpt lat="55.993633" lon="26.577070">
<ele>101.299866</ele>
<time>2010-08-29T09:37:20Z</time>
<desc>lat.=55.993633, lon.=26.577070, Alt.=101.299866m. Speed=10.872000m/h.</desc>
<speed>3.020000</speed>
</trkpt>
<trkpt lat="55.993660" lon="26.577127">
<ele>102.335022</ele>
<time>2010-08-29T09:37:21Z</time>
<desc>lat.=55.993660, lon.=26.577127, Alt.=102.335022m. Speed=10.620000m/h.</desc>
<speed>2.950000</speed>
</trkpt>
<trkpt lat="55.993675" lon="26.577177">
<ele>102.952209</ele>
<time>2010-08-29T09:37:22Z</time>
<desc>lat.=55.993675, lon.=26.577177, Alt.=102.952209m. Speed=10.908000m/h.</desc>
<speed>3.030000</speed>
</trkpt>
<trkpt lat="55.993694" lon="26.577240">
<ele>103.713928</ele>
<time>2010-08-29T09:37:23Z</time>
<desc>lat.=55.993694, lon.=26.577240, Alt.=103.713928m. Speed=10.224000m/h.</desc>
<speed>2.840000</speed>
</trkpt>
<trkpt lat="55.993729" lon="26.577318">
<ele>104.249084</ele>
<time>2010-08-29T09:37:24Z</time>
<desc>lat.=55.993729, lon.=26.577318, Alt.=104.249084m. Speed=9.684000m/h.</desc>
<speed>2.690000</speed>
</trkpt>
<trkpt lat="55.993752" lon="26.577351">
<ele>104.610413</ele>
<time>2010-08-29T09:37:25Z</time>
<desc>lat.=55.993752, lon.=26.577351, Alt.=104.610413m. Speed=5.544000m/h.</desc>
<speed>1.540000</speed>
</trkpt>
<trkpt lat="55.993774" lon="26.577391">
<ele>106.034241</ele>
<time>2010-08-29T09:37:26Z</time>
<desc>lat.=55.993774, lon.=26.577391, Alt.=106.034241m. Speed=12.204000m/h.</desc>
<speed>3.390000</speed>
</trkpt>
<trkpt lat="55.993805" lon="26.577436">
<ele>106.655334</ele>
<time>2010-08-29T09:37:27Z</time>
<desc>lat.=55.993805, lon.=26.577436, Alt.=106.655334m. Speed=8.064000m/h.</desc>
<speed>2.240000</speed>
</trkpt>
<trkpt lat="55.993824" lon="26.577473">
<ele>107.172913</ele>
<time>2010-08-29T09:37:28Z</time>
<desc>lat.=55.993824, lon.=26.577473, Alt.=107.172913m. Speed=5.832000m/h.</desc>
<speed>1.620000</speed>
</trkpt>
<trkpt lat="55.993839" lon="26.577505">
<ele>107.713928</ele>
<time>2010-08-29T09:37:29Z</time>
<desc>lat.=55.993839, lon.=26.577505, Alt.=107.713928m. Speed=7.380000m/h.</desc>
<speed>2.050000</speed>
</trkpt>
<trkpt lat="55.993862" lon="26.577543">
<ele>108.024475</ele>
<time>2010-08-29T09:37:30Z</time>
<desc>lat.=55.993862, lon.=26.577543, Alt.=108.024475m. Speed=7.452000m/h.</desc>
<speed>2.070000</speed>
</trkpt>
<trkpt lat="55.993881" lon="26.577606">
<ele>107.426819</ele>
<time>2010-08-29T09:37:31Z</time>
<desc>lat.=55.993881, lon.=26.577606, Alt.=107.426819m. Speed=7.668000m/h.</desc>
<speed>2.130000</speed>
</trkpt>
<trkpt lat="55.993900" lon="26.577663">
<ele>107.030334</ele>
<time>2010-08-29T09:37:32Z</time>
<desc>lat.=55.993900, lon.=26.577663, Alt.=107.030334m. Speed=8.388000m/h.</desc>
<speed>2.330000</speed>
</trkpt>
<trkpt lat="55.993912" lon="26.577700">
<ele>107.352600</ele>
<time>2010-08-29T09:37:33Z</time>
<desc>lat.=55.993912, lon.=26.577700, Alt.=107.352600m. Speed=8.892000m/h.</desc>
<speed>2.470000</speed>
</trkpt>
<trkpt lat="55.993927" lon="26.577751">
<ele>106.620178</ele>
<time>2010-08-29T09:37:34Z</time>
<desc>lat.=55.993927, lon.=26.577751, Alt.=106.620178m. Speed=9.684000m/h.</desc>
<speed>2.690000</speed>
</trkpt>
<trkpt lat="55.993938" lon="26.577795">
<ele>106.311584</ele>
<time>2010-08-29T09:37:35Z</time>
<desc>lat.=55.993938, lon.=26.577795, Alt.=106.311584m. Speed=8.316000m/h.</desc>
<speed>2.310000</speed>
</trkpt>
<trkpt lat="55.993954" lon="26.577841">
<ele>105.768616</ele>
<time>2010-08-29T09:37:36Z</time>
<desc>lat.=55.993954, lon.=26.577841, Alt.=105.768616m. Speed=10.152000m/h.</desc>
<speed>2.820000</speed>
</trkpt>
<trkpt lat="55.993969" lon="26.577896">
<ele>105.549866</ele>
<time>2010-08-29T09:37:37Z</time>
<desc>lat.=55.993969, lon.=26.577896, Alt.=105.549866m. Speed=11.052000m/h.</desc>
<speed>3.070000</speed>
</trkpt>
<trkpt lat="55.993992" lon="26.577961">
<ele>105.868225</ele>
<time>2010-08-29T09:37:38Z</time>
<desc>lat.=55.993992, lon.=26.577961, Alt.=105.868225m. Speed=11.196000m/h.</desc>
<speed>3.110000</speed>
</trkpt>
<trkpt lat="55.994007" lon="26.578011">
<ele>105.969788</ele>
<time>2010-08-29T09:37:39Z</time>
<desc>lat.=55.994007, lon.=26.578011, Alt.=105.969788m. Speed=10.080000m/h.</desc>
<speed>2.800000</speed>
</trkpt>
<trkpt lat="55.994026" lon="26.578060">
<ele>105.975647</ele>
<time>2010-08-29T09:37:40Z</time>
<desc>lat.=55.994026, lon.=26.578060, Alt.=105.975647m. Speed=10.008000m/h.</desc>
<speed>2.780000</speed>
</trkpt>
<trkpt lat="55.994061" lon="26.578140">
<ele>106.532288</ele>
<time>2010-08-29T09:37:41Z</time>
<desc>lat.=55.994061, lon.=26.578140, Alt.=106.532288m. Speed=10.332000m/h.</desc>
<speed>2.870000</speed>
</trkpt>
<trkpt lat="55.994080" lon="26.578209">
<ele>107.018616</ele>
<time>2010-08-29T09:37:42Z</time>
<desc>lat.=55.994080, lon.=26.578209, Alt.=107.018616m. Speed=13.644000m/h.</desc>
<speed>3.790000</speed>
</trkpt>
<trkpt lat="55.994095" lon="26.578264">
<ele>106.973694</ele>
<time>2010-08-29T09:37:43Z</time>
<desc>lat.=55.994095, lon.=26.578264, Alt.=106.973694m. Speed=11.808000m/h.</desc>
<speed>3.280000</speed>
</trkpt>
<trkpt lat="55.994114" lon="26.578331">
<ele>108.085022</ele>
<time>2010-08-29T09:37:44Z</time>
<desc>lat.=55.994114, lon.=26.578331, Alt.=108.085022m. Speed=13.284000m/h.</desc>
<speed>3.690000</speed>
</trkpt>
<trkpt lat="55.994152" lon="26.578398">
<ele>109.006897</ele>
<time>2010-08-29T09:37:45Z</time>
<desc>lat.=55.994152, lon.=26.578398, Alt.=109.006897m. Speed=12.924000m/h.</desc>
<speed>3.590000</speed>
</trkpt>
<trkpt lat="55.994175" lon="26.578457">
<ele>109.047913</ele>
<time>2010-08-29T09:37:46Z</time>
<desc>lat.=55.994175, lon.=26.578457, Alt.=109.047913m. Speed=12.852000m/h.</desc>
<speed>3.570000</speed>
</trkpt>
<trkpt lat="55.994194" lon="26.578518">
<ele>108.967834</ele>
<time>2010-08-29T09:37:47Z</time>
<desc>lat.=55.994194, lon.=26.578518, Alt.=108.967834m. Speed=12.924000m/h.</desc>
<speed>3.590000</speed>
</trkpt>
<trkpt lat="55.994209" lon="26.578571">
<ele>108.657288</ele>
<time>2010-08-29T09:37:48Z</time>
<desc>lat.=55.994209, lon.=26.578571, Alt.=108.657288m. Speed=11.556000m/h.</desc>
<speed>3.210000</speed>
</trkpt>
<trkpt lat="55.994228" lon="26.578646">
<ele>108.243225</ele>
<time>2010-08-29T09:37:49Z</time>
<desc>lat.=55.994228, lon.=26.578646, Alt.=108.243225m. Speed=10.296000m/h.</desc>
<speed>2.860000</speed>
</trkpt>
<trkpt lat="55.994247" lon="26.578720">
<ele>106.661194</ele>
<time>2010-08-29T09:37:50Z</time>
<desc>lat.=55.994247, lon.=26.578720, Alt.=106.661194m. Speed=8.568000m/h.</desc>
<speed>2.380000</speed>
</trkpt>
<trkpt lat="55.994247" lon="26.578791">
<ele>105.993225</ele>
<time>2010-08-29T09:37:51Z</time>
<desc>lat.=55.994247, lon.=26.578791, Alt.=105.993225m. Speed=11.088000m/h.</desc>
<speed>3.080000</speed>
</trkpt>
<trkpt lat="55.994255" lon="26.578854">
<ele>105.704163</ele>
<time>2010-08-29T09:37:52Z</time>
<desc>lat.=55.994255, lon.=26.578854, Alt.=105.704163m. Speed=11.052000m/h.</desc>
<speed>3.070000</speed>
</trkpt>
<trkpt lat="55.994267" lon="26.578926">
<ele>105.588928</ele>
<time>2010-08-29T09:37:53Z</time>
<desc>lat.=55.994267, lon.=26.578926, Alt.=105.588928m. Speed=10.584000m/h.</desc>
<speed>2.940000</speed>
</trkpt>
<trkpt lat="55.994282" lon="26.578999">
<ele>104.782288</ele>
<time>2010-08-29T09:37:54Z</time>
<desc>lat.=55.994282, lon.=26.578999, Alt.=104.782288m. Speed=11.376000m/h.</desc>
<speed>3.160000</speed>
</trkpt>
<trkpt lat="55.994297" lon="26.579088">
<ele>102.983459</ele>
<time>2010-08-29T09:37:55Z</time>
<desc>lat.=55.994297, lon.=26.579088, Alt.=102.983459m. Speed=11.340000m/h.</desc>
<speed>3.150000</speed>
</trkpt>
<trkpt lat="55.994305" lon="26.579153">
<ele>102.977600</ele>
<time>2010-08-29T09:37:56Z</time>
<desc>lat.=55.994305, lon.=26.579153, Alt.=102.977600m. Speed=12.528000m/h.</desc>
<speed>3.480000</speed>
</trkpt>
<trkpt lat="55.994316" lon="26.579233">
<ele>102.122131</ele>
<time>2010-08-29T09:37:57Z</time>
<desc>lat.=55.994316, lon.=26.579233, Alt.=102.122131m. Speed=14.760000m/h.</desc>
<speed>4.100000</speed>
</trkpt>
<trkpt lat="55.994331" lon="26.579313">
<ele>100.252991</ele>
<time>2010-08-29T09:37:58Z</time>
<desc>lat.=55.994331, lon.=26.579313, Alt.=100.252991m. Speed=11.520000m/h.</desc>
<speed>3.200000</speed>
</trkpt>
<trkpt lat="55.994343" lon="26.579372">
<ele>100.247131</ele>
<time>2010-08-29T09:37:59Z</time>
<desc>lat.=55.994343, lon.=26.579372, Alt.=100.247131m. Speed=10.404000m/h.</desc>
<speed>2.890000</speed>
</trkpt>
<trkpt lat="55.994354" lon="26.579454">
<ele>100.323303</ele>
<time>2010-08-29T09:38:00Z</time>
<desc>lat.=55.994354, lon.=26.579454, Alt.=100.323303m. Speed=10.440000m/h.</desc>
<speed>2.900000</speed>
</trkpt>
<trkpt lat="55.994370" lon="26.579519">
<ele>101.100647</ele>
<time>2010-08-29T09:38:01Z</time>
<desc>lat.=55.994370, lon.=26.579519, Alt.=101.100647m. Speed=8.532000m/h.</desc>
<speed>2.370000</speed>
</trkpt>
<trkpt lat="55.994381" lon="26.579592">
<ele>101.950256</ele>
<time>2010-08-29T09:38:02Z</time>
<desc>lat.=55.994381, lon.=26.579592, Alt.=101.950256m. Speed=10.332000m/h.</desc>
<speed>2.870000</speed>
</trkpt>
<trkpt lat="55.994389" lon="26.579657">
<ele>102.143616</ele>
<time>2010-08-29T09:38:03Z</time>
<desc>lat.=55.994389, lon.=26.579657, Alt.=102.143616m. Speed=10.800000m/h.</desc>
<speed>3.000000</speed>
</trkpt>
<trkpt lat="55.994400" lon="26.579718">
<ele>101.698303</ele>
<time>2010-08-29T09:38:04Z</time>
<desc>lat.=55.994400, lon.=26.579718, Alt.=101.698303m. Speed=10.944000m/h.</desc>
<speed>3.040000</speed>
</trkpt>
<trkpt lat="55.994408" lon="26.579775">
<ele>101.282288</ele>
<time>2010-08-29T09:38:05Z</time>
<desc>lat.=55.994408, lon.=26.579775, Alt.=101.282288m. Speed=11.340000m/h.</desc>
<speed>3.150000</speed>
</trkpt>
<trkpt lat="55.994431" lon="26.579826">
<ele>101.754944</ele>
<time>2010-08-29T09:38:06Z</time>
<desc>lat.=55.994431, lon.=26.579826, Alt.=101.754944m. Speed=11.232000m/h.</desc>
<speed>3.120000</speed>
</trkpt>
<trkpt lat="55.994446" lon="26.579878">
<ele>102.233459</ele>
<time>2010-08-29T09:38:07Z</time>
<desc>lat.=55.994446, lon.=26.579878, Alt.=102.233459m. Speed=12.132000m/h.</desc>
<speed>3.370000</speed>
</trkpt>
<trkpt lat="55.994453" lon="26.579918">
<ele>102.413147</ele>
<time>2010-08-29T09:38:08Z</time>
<desc>lat.=55.994453, lon.=26.579918, Alt.=102.413147m. Speed=6.768000m/h.</desc>
<speed>1.880000</speed>
</trkpt>
<trkpt lat="55.994465" lon="26.579947">
<ele>102.940491</ele>
<time>2010-08-29T09:38:09Z</time>
<desc>lat.=55.994465, lon.=26.579947, Alt.=102.940491m. Speed=6.336000m/h.</desc>
<speed>1.760000</speed>
</trkpt>
<trkpt lat="55.994473" lon="26.579988">
<ele>102.719788</ele>
<time>2010-08-29T09:38:10Z</time>
<desc>lat.=55.994473, lon.=26.579988, Alt.=102.719788m. Speed=8.712000m/h.</desc>
<speed>2.420000</speed>
</trkpt>
<trkpt lat="55.994480" lon="26.580042">
<ele>102.460022</ele>
<time>2010-08-29T09:38:11Z</time>
<desc>lat.=55.994480, lon.=26.580042, Alt.=102.460022m. Speed=9.468000m/h.</desc>
<speed>2.630000</speed>
</trkpt>
<trkpt lat="55.994488" lon="26.580095">
<ele>102.417053</ele>
<time>2010-08-29T09:38:12Z</time>
<desc>lat.=55.994488, lon.=26.580095, Alt.=102.417053m. Speed=8.676000m/h.</desc>
<speed>2.410000</speed>
</trkpt>
<trkpt lat="55.994495" lon="26.580143">
<ele>101.137756</ele>
<time>2010-08-29T09:38:13Z</time>
<desc>lat.=55.994495, lon.=26.580143, Alt.=101.137756m. Speed=8.856000m/h.</desc>
<speed>2.460000</speed>
</trkpt>
<trkpt lat="55.994507" lon="26.580191">
<ele>100.456116</ele>
<time>2010-08-29T09:38:14Z</time>
<desc>lat.=55.994507, lon.=26.580191, Alt.=100.456116m. Speed=10.404000m/h.</desc>
<speed>2.890000</speed>
</trkpt>
<trkpt lat="55.994514" lon="26.580227">
<ele>99.954163</ele>
<time>2010-08-29T09:38:15Z</time>
<desc>lat.=55.994514, lon.=26.580227, Alt.=99.954163m. Speed=6.840000m/h.</desc>
<speed>1.900000</speed>
</trkpt>
<trkpt lat="55.994522" lon="26.580263">
<ele>99.204163</ele>
<time>2010-08-29T09:38:16Z</time>
<desc>lat.=55.994522, lon.=26.580263, Alt.=99.204163m. Speed=7.920000m/h.</desc>
<speed>2.200000</speed>
</trkpt>
<trkpt lat="55.994526" lon="26.580294">
<ele>99.059631</ele>
<time>2010-08-29T09:38:17Z</time>
<desc>lat.=55.994526, lon.=26.580294, Alt.=99.059631m. Speed=4.464000m/h.</desc>
<speed>1.240000</speed>
</trkpt>
<trkpt lat="55.994530" lon="26.580324">
<ele>98.958069</ele>
<time>2010-08-29T09:38:18Z</time>
<desc>lat.=55.994530, lon.=26.580324, Alt.=98.958069m. Speed=6.876000m/h.</desc>
<speed>1.910000</speed>
</trkpt>
<trkpt lat="55.994530" lon="26.580381">
<ele>99.413147</ele>
<time>2010-08-29T09:38:19Z</time>
<desc>lat.=55.994530, lon.=26.580381, Alt.=99.413147m. Speed=9.216000m/h.</desc>
<speed>2.560000</speed>
</trkpt>
<trkpt lat="55.994530" lon="26.580431">
<ele>99.413147</ele>
<time>2010-08-29T09:38:20Z</time>
<desc>lat.=55.994530, lon.=26.580431, Alt.=99.413147m. Speed=5.652000m/h.</desc>
<speed>1.570000</speed>
</trkpt>
<trkpt lat="55.994534" lon="26.580498">
<ele>99.329163</ele>
<time>2010-08-29T09:38:21Z</time>
<desc>lat.=55.994534, lon.=26.580498, Alt.=99.329163m. Speed=12.492000m/h.</desc>
<speed>3.470000</speed>
</trkpt>
<trkpt lat="55.994545" lon="26.580580">
<ele>98.085022</ele>
<time>2010-08-29T09:38:22Z</time>
<desc>lat.=55.994545, lon.=26.580580, Alt.=98.085022m. Speed=13.428000m/h.</desc>
<speed>3.730000</speed>
</trkpt>
<trkpt lat="55.994549" lon="26.580673">
<ele>96.735413</ele>
<time>2010-08-29T09:38:23Z</time>
<desc>lat.=55.994549, lon.=26.580673, Alt.=96.735413m. Speed=13.644000m/h.</desc>
<speed>3.790000</speed>
</trkpt>
<trkpt lat="55.994553" lon="26.580751">
<ele>96.063538</ele>
<time>2010-08-29T09:38:24Z</time>
<desc>lat.=55.994553, lon.=26.580751, Alt.=96.063538m. Speed=12.780000m/h.</desc>
<speed>3.550000</speed>
</trkpt>
<trkpt lat="55.994556" lon="26.580824">
<ele>96.887756</ele>
<time>2010-08-29T09:38:25Z</time>
<desc>lat.=55.994556, lon.=26.580824, Alt.=96.887756m. Speed=12.132000m/h.</desc>
<speed>3.370000</speed>
</trkpt>
<trkpt lat="55.994560" lon="26.580883">
<ele>98.342834</ele>
<time>2010-08-29T09:38:26Z</time>
<desc>lat.=55.994560, lon.=26.580883, Alt.=98.342834m. Speed=8.568000m/h.</desc>
<speed>2.380000</speed>
</trkpt>
<trkpt lat="55.994568" lon="26.580919">
<ele>99.801819</ele>
<time>2010-08-29T09:38:27Z</time>
<desc>lat.=55.994568, lon.=26.580919, Alt.=99.801819m. Speed=2.808000m/h.</desc>
<speed>0.780000</speed>
</trkpt>
<trkpt lat="55.994560" lon="26.580950">
<ele>99.057678</ele>
<time>2010-08-29T09:38:28Z</time>
<desc>lat.=55.994560, lon.=26.580950, Alt.=99.057678m. Speed=1.080000m/h.</desc>
<speed>0.300000</speed>
</trkpt>
<trkpt lat="55.994564" lon="26.580961">
<ele>99.575256</ele>
<time>2010-08-29T09:38:29Z</time>
<desc>lat.=55.994564, lon.=26.580961, Alt.=99.575256m. Speed=0.648000m/h.</desc>
<speed>0.180000</speed>
</trkpt>
<trkpt lat="55.994560" lon="26.580973">
<ele>100.649475</ele>
<time>2010-08-29T09:38:30Z</time>
<desc>lat.=55.994560, lon.=26.580973, Alt.=100.649475m. Speed=0.432000m/h.</desc>
<speed>0.120000</speed>
</trkpt>
<trkpt lat="55.994560" lon="26.580973">
<ele>100.639709</ele>
<time>2010-08-29T09:38:31Z</time>
<desc>lat.=55.994560, lon.=26.580973, Alt.=100.639709m. Speed=0.396000m/h.</desc>
<speed>0.110000</speed>
</trkpt>
<trkpt lat="55.994556" lon="26.580973">
<ele>100.653381</ele>
<time>2010-08-29T09:38:32Z</time>
<desc>lat.=55.994556, lon.=26.580973, Alt.=100.653381m. Speed=0.432000m/h.</desc>
<speed>0.120000</speed>
</trkpt>
<trkpt lat="55.994556" lon="26.580975">
<ele>100.665100</ele>
<time>2010-08-29T09:38:33Z</time>
<desc>lat.=55.994556, lon.=26.580975, Alt.=100.665100m. Speed=0.180000m/h.</desc>
<speed>0.050000</speed>
</trkpt>
<trkpt lat="55.994556" lon="26.580973">
<ele>100.684631</ele>
<time>2010-08-29T09:38:34Z</time>
<desc>lat.=55.994556, lon.=26.580973, Alt.=100.684631m. Speed=0.108000m/h.</desc>
<speed>0.030000</speed>
</trkpt>
<trkpt lat="55.994556" lon="26.580975">
<ele>100.717834</ele>
<time>2010-08-29T09:38:35Z</time>
<desc>lat.=55.994556, lon.=26.580975, Alt.=100.717834m. Speed=0.036000m/h.</desc>
<speed>0.010000</speed>
</trkpt>
<trkpt lat="55.994556" lon="26.580975">
<ele>100.756897</ele>
<time>2010-08-29T09:38:36Z</time>
<desc>lat.=55.994556, lon.=26.580975, Alt.=100.756897m. Speed=0.144000m/h.</desc>
<speed>0.040000</speed>
</trkpt>
<trkpt lat="55.994556" lon="26.580975">
<ele>100.807678</ele>
<time>2010-08-29T09:38:37Z</time>
<desc>lat.=55.994556, lon.=26.580975, Alt.=100.807678m. Speed=0.000000m/h.</desc>
<speed>0.000000</speed>
</trkpt>
<trkpt lat="55.994556" lon="26.580975">
<ele>100.842834</ele>
<time>2010-08-29T09:38:38Z</time>
<desc>lat.=55.994556, lon.=26.580975, Alt.=100.842834m. Speed=0.144000m/h.</desc>
<speed>0.040000</speed>
</trkpt>
<trkpt lat="55.994556" lon="26.580975">
<ele>100.883850</ele>
<time>2010-08-29T09:38:39Z</time>
<desc>lat.=55.994556, lon.=26.580975, Alt.=100.883850m. Speed=0.072000m/h.</desc>
<speed>0.020000</speed>
</trkpt>
<trkpt lat="55.994556" lon="26.580975">
<ele>100.932678</ele>
<time>2010-08-29T09:38:40Z</time>
<desc>lat.=55.994556, lon.=26.580975, Alt.=100.932678m. Speed=0.324000m/h.</desc>
<speed>0.090000</speed>
</trkpt>
<trkpt lat="55.994560" lon="26.580975">
<ele>100.999084</ele>
<time>2010-08-29T09:38:41Z</time>
<desc>lat.=55.994560, lon.=26.580975, Alt.=100.999084m. Speed=0.108000m/h.</desc>
<speed>0.030000</speed>
</trkpt>
<trkpt lat="55.994560" lon="26.580975">
<ele>101.063538</ele>
<time>2010-08-29T09:38:42Z</time>
<desc>lat.=55.994560, lon.=26.580975, Alt.=101.063538m. Speed=0.288000m/h.</desc>
<speed>0.080000</speed>
</trkpt>
<trkpt lat="55.994560" lon="26.580975">
<ele>101.126038</ele>
<time>2010-08-29T09:38:43Z</time>
<desc>lat.=55.994560, lon.=26.580975, Alt.=101.126038m. Speed=0.108000m/h.</desc>
<speed>0.030000</speed>
</trkpt>
<trkpt lat="55.994560" lon="26.580975">
<ele>101.169006</ele>
<time>2010-08-29T09:38:44Z</time>
<desc>lat.=55.994560, lon.=26.580975, Alt.=101.169006m. Speed=0.108000m/h.</desc>
<speed>0.030000</speed>
</trkpt>
<trkpt lat="55.994560" lon="26.580975">
<ele>101.221741</ele>
<time>2010-08-29T09:38:45Z</time>
<desc>lat.=55.994560, lon.=26.580975, Alt.=101.221741m. Speed=0.036000m/h.</desc>
<speed>0.010000</speed>
</trkpt>
<trkpt lat="55.994560" lon="26.580975">
<ele>101.243225</ele>
<time>2010-08-29T09:38:46Z</time>
<desc>lat.=55.994560, lon.=26.580975, Alt.=101.243225m. Speed=0.000000m/h.</desc>
<speed>0.000000</speed>
</trkpt>
<trkpt lat="55.994560" lon="26.580975">
<ele>101.260803</ele>
<time>2010-08-29T09:38:47Z</time>
<desc>lat.=55.994560, lon.=26.580975, Alt.=101.260803m. Speed=0.576000m/h.</desc>
<speed>0.160000</speed>
</trkpt>
<trkpt lat="55.994560" lon="26.580976">
<ele>101.264709</ele>
<time>2010-08-29T09:38:48Z</time>
<desc>lat.=55.994560, lon.=26.580976, Alt.=101.264709m. Speed=0.972000m/h.</desc>
<speed>0.270000</speed>
</trkpt>
<trkpt lat="55.994564" lon="26.580980">
<ele>101.266663</ele>
<time>2010-08-29T09:38:49Z</time>
<desc>lat.=55.994564, lon.=26.580980, Alt.=101.266663m. Speed=1.440000m/h.</desc>
<speed>0.400000</speed>
</trkpt>
<trkpt lat="55.994564" lon="26.580986">
<ele>101.270569</ele>
<time>2010-08-29T09:38:50Z</time>
<desc>lat.=55.994564, lon.=26.580986, Alt.=101.270569m. Speed=1.944000m/h.</desc>
<speed>0.540000</speed>
</trkpt>
<trkpt lat="55.994568" lon="26.580996">
<ele>101.280334</ele>
<time>2010-08-29T09:38:51Z</time>
<desc>lat.=55.994568, lon.=26.580996, Alt.=101.280334m. Speed=2.628000m/h.</desc>
<speed>0.730000</speed>
</trkpt>
<trkpt lat="55.994568" lon="26.581007">
<ele>101.290100</ele>
<time>2010-08-29T09:38:52Z</time>
<desc>lat.=55.994568, lon.=26.581007, Alt.=101.290100m. Speed=3.816000m/h.</desc>
<speed>1.060000</speed>
</trkpt>
<trkpt lat="55.994576" lon="26.581036">
<ele>101.252991</ele>
<time>2010-08-29T09:38:53Z</time>
<desc>lat.=55.994576, lon.=26.581036, Alt.=101.252991m. Speed=4.932000m/h.</desc>
<speed>1.370000</speed>
</trkpt>
<trkpt lat="55.994587" lon="26.581059">
<ele>101.530334</ele>
<time>2010-08-29T09:38:54Z</time>
<desc>lat.=55.994587, lon.=26.581059, Alt.=101.530334m. Speed=4.932000m/h.</desc>
<speed>1.370000</speed>
</trkpt>
<trkpt lat="55.994591" lon="26.581093">
<ele>101.883850</ele>
<time>2010-08-29T09:38:55Z</time>
<desc>lat.=55.994591, lon.=26.581093, Alt.=101.883850m. Speed=5.688000m/h.</desc>
<speed>1.580000</speed>
</trkpt>
<trkpt lat="55.994591" lon="26.581137">
<ele>101.745178</ele>
<time>2010-08-29T09:38:56Z</time>
<desc>lat.=55.994591, lon.=26.581137, Alt.=101.745178m. Speed=9.036000m/h.</desc>
<speed>2.510000</speed>
</trkpt>
<trkpt lat="55.994591" lon="26.581182">
<ele>101.887756</ele>
<time>2010-08-29T09:38:57Z</time>
<desc>lat.=55.994591, lon.=26.581182, Alt.=101.887756m. Speed=8.892000m/h.</desc>
<speed>2.470000</speed>
</trkpt>
<trkpt lat="55.994595" lon="26.581244">
<ele>101.838928</ele>
<time>2010-08-29T09:38:58Z</time>
<desc>lat.=55.994595, lon.=26.581244, Alt.=101.838928m. Speed=9.180000m/h.</desc>
<speed>2.550000</speed>
</trkpt>
<trkpt lat="55.994598" lon="26.581301">
<ele>101.831116</ele>
<time>2010-08-29T09:38:59Z</time>
<desc>lat.=55.994598, lon.=26.581301, Alt.=101.831116m. Speed=10.548000m/h.</desc>
<speed>2.930000</speed>
</trkpt>
<trkpt lat="55.994606" lon="26.581369">
<ele>101.848694</ele>
<time>2010-08-29T09:39:00Z</time>
<desc>lat.=55.994606, lon.=26.581369, Alt.=101.848694m. Speed=11.196000m/h.</desc>
<speed>3.110000</speed>
</trkpt>
<trkpt lat="55.994614" lon="26.581438">
<ele>101.544006</ele>
<time>2010-08-29T09:39:01Z</time>
<desc>lat.=55.994614, lon.=26.581438, Alt.=101.544006m. Speed=12.132000m/h.</desc>
<speed>3.370000</speed>
</trkpt>
<trkpt lat="55.994617" lon="26.581484">
<ele>101.651428</ele>
<time>2010-08-29T09:39:02Z</time>
<desc>lat.=55.994617, lon.=26.581484, Alt.=101.651428m. Speed=10.296000m/h.</desc>
<speed>2.860000</speed>
</trkpt>
<trkpt lat="55.994637" lon="26.581554">
<ele>101.073303</ele>
<time>2010-08-29T09:39:03Z</time>
<desc>lat.=55.994637, lon.=26.581554, Alt.=101.073303m. Speed=8.892000m/h.</desc>
<speed>2.470000</speed>
</trkpt>
<trkpt lat="55.994644" lon="26.581614">
<ele>100.862366</ele>
<time>2010-08-29T09:39:04Z</time>
<desc>lat.=55.994644, lon.=26.581614, Alt.=100.862366m. Speed=8.784000m/h.</desc>
<speed>2.440000</speed>
</trkpt>
<trkpt lat="55.994648" lon="26.581661">
<ele>100.626038</ele>
<time>2010-08-29T09:39:05Z</time>
<desc>lat.=55.994648, lon.=26.581661, Alt.=100.626038m. Speed=8.964000m/h.</desc>
<speed>2.490000</speed>
</trkpt>
<trkpt lat="55.994656" lon="26.581709">
<ele>101.137756</ele>
<time>2010-08-29T09:39:06Z</time>
<desc>lat.=55.994656, lon.=26.581709, Alt.=101.137756m. Speed=8.280000m/h.</desc>
<speed>2.300000</speed>
</trkpt>
<trkpt lat="55.994656" lon="26.581751">
<ele>101.891663</ele>
<time>2010-08-29T09:39:07Z</time>
<desc>lat.=55.994656, lon.=26.581751, Alt.=101.891663m. Speed=9.828000m/h.</desc>
<speed>2.730000</speed>
</trkpt>
<trkpt lat="55.994656" lon="26.581800">
<ele>102.422913</ele>
<time>2010-08-29T09:39:08Z</time>
<desc>lat.=55.994656, lon.=26.581800, Alt.=102.422913m. Speed=10.800000m/h.</desc>
<speed>3.000000</speed>
</trkpt>
<trkpt lat="55.994652" lon="26.581852">
<ele>102.784241</ele>
<time>2010-08-29T09:39:09Z</time>
<desc>lat.=55.994652, lon.=26.581852, Alt.=102.784241m. Speed=10.944000m/h.</desc>
<speed>3.040000</speed>
</trkpt>
<trkpt lat="55.994648" lon="26.581903">
<ele>102.815491</ele>
<time>2010-08-29T09:39:10Z</time>
<desc>lat.=55.994648, lon.=26.581903, Alt.=102.815491m. Speed=11.232000m/h.</desc>
<speed>3.120000</speed>
</trkpt>
<trkpt lat="55.994648" lon="26.581953">
<ele>102.907288</ele>
<time>2010-08-29T09:39:11Z</time>
<desc>lat.=55.994648, lon.=26.581953, Alt.=102.907288m. Speed=9.252000m/h.</desc>
<speed>2.570000</speed>
</trkpt>
<trkpt lat="55.994637" lon="26.582001">
<ele>103.182678</ele>
<time>2010-08-29T09:39:12Z</time>
<desc>lat.=55.994637, lon.=26.582001, Alt.=103.182678m. Speed=10.260000m/h.</desc>
<speed>2.850000</speed>
</trkpt>
<trkpt lat="55.994637" lon="26.582052">
<ele>103.852600</ele>
<time>2010-08-29T09:39:13Z</time>
<desc>lat.=55.994637, lon.=26.582052, Alt.=103.852600m. Speed=11.268000m/h.</desc>
<speed>3.130000</speed>
</trkpt>
<trkpt lat="55.994633" lon="26.582096">
<ele>103.653381</ele>
<time>2010-08-29T09:39:14Z</time>
<desc>lat.=55.994633, lon.=26.582096, Alt.=103.653381m. Speed=10.656000m/h.</desc>
<speed>2.960000</speed>
</trkpt>
<trkpt lat="55.994629" lon="26.582144">
<ele>103.495178</ele>
<time>2010-08-29T09:39:15Z</time>
<desc>lat.=55.994629, lon.=26.582144, Alt.=103.495178m. Speed=10.692000m/h.</desc>
<speed>2.970000</speed>
</trkpt>
<trkpt lat="55.994625" lon="26.582188">
<ele>103.588928</ele>
<time>2010-08-29T09:39:16Z</time>
<desc>lat.=55.994625, lon.=26.582188, Alt.=103.588928m. Speed=9.432000m/h.</desc>
<speed>2.620000</speed>
</trkpt>
<trkpt lat="55.994621" lon="26.582230">
<ele>103.520569</ele>
<time>2010-08-29T09:39:17Z</time>
<desc>lat.=55.994621, lon.=26.582230, Alt.=103.520569m. Speed=8.892000m/h.</desc>
<speed>2.470000</speed>
</trkpt>
<trkpt lat="55.994617" lon="26.582266">
<ele>103.493225</ele>
<time>2010-08-29T09:39:18Z</time>
<desc>lat.=55.994617, lon.=26.582266, Alt.=103.493225m. Speed=7.704000m/h.</desc>
<speed>2.140000</speed>
</trkpt>
<trkpt lat="55.994614" lon="26.582298">
<ele>102.491272</ele>
<time>2010-08-29T09:39:19Z</time>
<desc>lat.=55.994614, lon.=26.582298, Alt.=102.491272m. Speed=7.524000m/h.</desc>
<speed>2.090000</speed>
</trkpt>
<trkpt lat="55.994614" lon="26.582340">
<ele>102.610413</ele>
<time>2010-08-29T09:39:20Z</time>
<desc>lat.=55.994614, lon.=26.582340, Alt.=102.610413m. Speed=10.332000m/h.</desc>
<speed>2.870000</speed>
</trkpt>
<trkpt lat="55.994610" lon="26.582375">
<ele>102.864319</ele>
<time>2010-08-29T09:39:21Z</time>
<desc>lat.=55.994610, lon.=26.582375, Alt.=102.864319m. Speed=7.848000m/h.</desc>
<speed>2.180000</speed>
</trkpt>
<trkpt lat="55.994606" lon="26.582409">
<ele>102.836975</ele>
<time>2010-08-29T09:39:22Z</time>
<desc>lat.=55.994606, lon.=26.582409, Alt.=102.836975m. Speed=7.776000m/h.</desc>
<speed>2.160000</speed>
</trkpt>
<trkpt lat="55.994606" lon="26.582441">
<ele>102.618225</ele>
<time>2010-08-29T09:39:23Z</time>
<desc>lat.=55.994606, lon.=26.582441, Alt.=102.618225m. Speed=6.948000m/h.</desc>
<speed>1.930000</speed>
</trkpt>
<trkpt lat="55.994602" lon="26.582472">
<ele>102.602600</ele>
<time>2010-08-29T09:39:24Z</time>
<desc>lat.=55.994602, lon.=26.582472, Alt.=102.602600m. Speed=5.652000m/h.</desc>
<speed>1.570000</speed>
</trkpt>
<trkpt lat="55.994595" lon="26.582512">
<ele>102.077209</ele>
<time>2010-08-29T09:39:25Z</time>
<desc>lat.=55.994595, lon.=26.582512, Alt.=102.077209m. Speed=6.624000m/h.</desc>
<speed>1.840000</speed>
</trkpt>
<trkpt lat="55.994591" lon="26.582548">
<ele>101.325256</ele>
<time>2010-08-29T09:39:26Z</time>
<desc>lat.=55.994591, lon.=26.582548, Alt.=101.325256m. Speed=5.760000m/h.</desc>
<speed>1.600000</speed>
</trkpt>
<trkpt lat="55.994579" lon="26.582577">
<ele>101.131897</ele>
<time>2010-08-29T09:39:27Z</time>
<desc>lat.=55.994579, lon.=26.582577, Alt.=101.131897m. Speed=4.752000m/h.</desc>
<speed>1.320000</speed>
</trkpt>
<trkpt lat="55.994572" lon="26.582615">
<ele>100.860413</ele>
<time>2010-08-29T09:39:28Z</time>
<desc>lat.=55.994572, lon.=26.582615, Alt.=100.860413m. Speed=7.092000m/h.</desc>
<speed>1.970000</speed>
</trkpt>
<trkpt lat="55.994560" lon="26.582664">
<ele>100.540100</ele>
<time>2010-08-29T09:39:29Z</time>
<desc>lat.=55.994560, lon.=26.582664, Alt.=100.540100m. Speed=6.768000m/h.</desc>
<speed>1.880000</speed>
</trkpt>
<trkpt lat="55.994549" lon="26.582722">
<ele>100.428772</ele>
<time>2010-08-29T09:39:30Z</time>
<desc>lat.=55.994549, lon.=26.582722, Alt.=100.428772m. Speed=11.772000m/h.</desc>
<speed>3.270000</speed>
</trkpt>
<trkpt lat="55.994534" lon="26.582775">
<ele>100.335022</ele>
<time>2010-08-29T09:39:31Z</time>
<desc>lat.=55.994534, lon.=26.582775, Alt.=100.335022m. Speed=7.164000m/h.</desc>
<speed>1.990000</speed>
</trkpt>
<trkpt lat="55.994530" lon="26.582811">
<ele>100.356506</ele>
<time>2010-08-29T09:39:32Z</time>
<desc>lat.=55.994530, lon.=26.582811, Alt.=100.356506m. Speed=6.984000m/h.</desc>
<speed>1.940000</speed>
</trkpt>
<trkpt lat="55.994530" lon="26.582859">
<ele>100.399475</ele>
<time>2010-08-29T09:39:33Z</time>
<desc>lat.=55.994530, lon.=26.582859, Alt.=100.399475m. Speed=8.676000m/h.</desc>
<speed>2.410000</speed>
</trkpt>
<trkpt lat="55.994530" lon="26.582890">
<ele>100.120178</ele>
<time>2010-08-29T09:39:34Z</time>
<desc>lat.=55.994530, lon.=26.582890, Alt.=100.120178m. Speed=4.788000m/h.</desc>
<speed>1.330000</speed>
</trkpt>
<trkpt lat="55.994514" lon="26.582954">
<ele>99.747131</ele>
<time>2010-08-29T09:39:35Z</time>
<desc>lat.=55.994514, lon.=26.582954, Alt.=99.747131m. Speed=10.800000m/h.</desc>
<speed>3.000000</speed>
</trkpt>
<trkpt lat="55.994499" lon="26.583025">
<ele>99.610413</ele>
<time>2010-08-29T09:39:36Z</time>
<desc>lat.=55.994499, lon.=26.583025, Alt.=99.610413m. Speed=10.332000m/h.</desc>
<speed>2.870000</speed>
</trkpt>
<trkpt lat="55.994484" lon="26.583080">
<ele>99.604553</ele>
<time>2010-08-29T09:39:37Z</time>
<desc>lat.=55.994484, lon.=26.583080, Alt.=99.604553m. Speed=9.468000m/h.</desc>
<speed>2.630000</speed>
</trkpt>
<trkpt lat="55.994465" lon="26.583130">
<ele>99.221741</ele>
<time>2010-08-29T09:39:38Z</time>
<desc>lat.=55.994465, lon.=26.583130, Alt.=99.221741m. Speed=9.864000m/h.</desc>
<speed>2.740000</speed>
</trkpt>
<trkpt lat="55.994442" lon="26.583179">
<ele>99.204163</ele>
<time>2010-08-29T09:39:39Z</time>
<desc>lat.=55.994442, lon.=26.583179, Alt.=99.204163m. Speed=9.756000m/h.</desc>
<speed>2.710000</speed>
</trkpt>
<trkpt lat="55.994423" lon="26.583220">
<ele>99.258850</ele>
<time>2010-08-29T09:39:40Z</time>
<desc>lat.=55.994423, lon.=26.583220, Alt.=99.258850m. Speed=9.612000m/h.</desc>
<speed>2.670000</speed>
</trkpt>
<trkpt lat="55.994408" lon="26.583292">
<ele>99.663147</ele>
<time>2010-08-29T09:39:41Z</time>
<desc>lat.=55.994408, lon.=26.583292, Alt.=99.663147m. Speed=9.972000m/h.</desc>
<speed>2.770000</speed>
</trkpt>
<trkpt lat="55.994392" lon="26.583347">
<ele>100.016663</ele>
<time>2010-08-29T09:39:42Z</time>
<desc>lat.=55.994392, lon.=26.583347, Alt.=100.016663m. Speed=9.180000m/h.</desc>
<speed>2.550000</speed>
</trkpt>
<trkpt lat="55.994377" lon="26.583408">
<ele>100.434631</ele>
<time>2010-08-29T09:39:43Z</time>
<desc>lat.=55.994377, lon.=26.583408, Alt.=100.434631m. Speed=9.972000m/h.</desc>
<speed>2.770000</speed>
</trkpt>
<trkpt lat="55.994343" lon="26.583483">
<ele>101.028381</ele>
<time>2010-08-29T09:39:44Z</time>
<desc>lat.=55.994343, lon.=26.583483, Alt.=101.028381m. Speed=13.032000m/h.</desc>
<speed>3.620000</speed>
</trkpt>
<trkpt lat="55.994328" lon="26.583546">
<ele>101.616272</ele>
<time>2010-08-29T09:39:45Z</time>
<desc>lat.=55.994328, lon.=26.583546, Alt.=101.616272m. Speed=10.044000m/h.</desc>
<speed>2.790000</speed>
</trkpt>
<trkpt lat="55.994308" lon="26.583614">
<ele>102.764709</ele>
<time>2010-08-29T09:39:46Z</time>
<desc>lat.=55.994308, lon.=26.583614, Alt.=102.764709m. Speed=12.672000m/h.</desc>
<speed>3.520000</speed>
</trkpt>
<trkpt lat="55.994301" lon="26.583689">
<ele>103.342834</ele>
<time>2010-08-29T09:39:47Z</time>
<desc>lat.=55.994301, lon.=26.583689, Alt.=103.342834m. Speed=9.648000m/h.</desc>
<speed>2.680000</speed>
</trkpt>
<trkpt lat="55.994286" lon="26.583740">
<ele>104.252991</ele>
<time>2010-08-29T09:39:48Z</time>
<desc>lat.=55.994286, lon.=26.583740, Alt.=104.252991m. Speed=10.260000m/h.</desc>
<speed>2.850000</speed>
</trkpt>
<trkpt lat="55.994263" lon="26.583797">
<ele>105.051819</ele>
<time>2010-08-29T09:39:49Z</time>
<desc>lat.=55.994263, lon.=26.583797, Alt.=105.051819m. Speed=11.664000m/h.</desc>
<speed>3.240000</speed>
</trkpt>
<trkpt lat="55.994232" lon="26.583857">
<ele>104.731506</ele>
<time>2010-08-29T09:39:50Z</time>
<desc>lat.=55.994232, lon.=26.583857, Alt.=104.731506m. Speed=11.232000m/h.</desc>
<speed>3.120000</speed>
</trkpt>
<trkpt lat="55.994205" lon="26.583912">
<ele>105.372131</ele>
<time>2010-08-29T09:39:51Z</time>
<desc>lat.=55.994205, lon.=26.583912, Alt.=105.372131m. Speed=11.160000m/h.</desc>
<speed>3.100000</speed>
</trkpt>
<trkpt lat="55.994190" lon="26.583961">
<ele>105.989319</ele>
<time>2010-08-29T09:39:52Z</time>
<desc>lat.=55.994190, lon.=26.583961, Alt.=105.989319m. Speed=10.548000m/h.</desc>
<speed>2.930000</speed>
</trkpt>
<trkpt lat="55.994179" lon="26.583996">
<ele>106.639709</ele>
<time>2010-08-29T09:39:53Z</time>
<desc>lat.=55.994179, lon.=26.583996, Alt.=106.639709m. Speed=7.272000m/h.</desc>
<speed>2.020000</speed>
</trkpt>
<trkpt lat="55.994171" lon="26.584044">
<ele>106.544006</ele>
<time>2010-08-29T09:39:54Z</time>
<desc>lat.=55.994171, lon.=26.584044, Alt.=106.544006m. Speed=10.944000m/h.</desc>
<speed>3.040000</speed>
</trkpt>
<trkpt lat="55.994156" lon="26.584095">
<ele>106.598694</ele>
<time>2010-08-29T09:39:55Z</time>
<desc>lat.=55.994156, lon.=26.584095, Alt.=106.598694m. Speed=10.512000m/h.</desc>
<speed>2.920000</speed>
</trkpt>
<trkpt lat="55.994141" lon="26.584148">
<ele>105.700256</ele>
<time>2010-08-29T09:39:56Z</time>
<desc>lat.=55.994141, lon.=26.584148, Alt.=105.700256m. Speed=9.504000m/h.</desc>
<speed>2.640000</speed>
</trkpt>
<trkpt lat="55.994114" lon="26.584196">
<ele>104.098694</ele>
<time>2010-08-29T09:39:57Z</time>
<desc>lat.=55.994114, lon.=26.584196, Alt.=104.098694m. Speed=9.432000m/h.</desc>
<speed>2.620000</speed>
</trkpt>
<trkpt lat="55.994102" lon="26.584249">
<ele>105.182678</ele>
<time>2010-08-29T09:39:58Z</time>
<desc>lat.=55.994102, lon.=26.584249, Alt.=105.182678m. Speed=8.208000m/h.</desc>
<speed>2.280000</speed>
</trkpt>
<trkpt lat="55.994095" lon="26.584290">
<ele>103.840881</ele>
<time>2010-08-29T09:39:59Z</time>
<desc>lat.=55.994095, lon.=26.584290, Alt.=103.840881m. Speed=5.508000m/h.</desc>
<speed>1.530000</speed>
</trkpt>
<trkpt lat="55.994087" lon="26.584320">
<ele>103.184631</ele>
<time>2010-08-29T09:40:00Z</time>
<desc>lat.=55.994087, lon.=26.584320, Alt.=103.184631m. Speed=5.508000m/h.</desc>
<speed>1.530000</speed>
</trkpt>
<trkpt lat="55.994083" lon="26.584372">
<ele>104.044006</ele>
<time>2010-08-29T09:40:01Z</time>
<desc>lat.=55.994083, lon.=26.584372, Alt.=104.044006m. Speed=5.724000m/h.</desc>
<speed>1.590000</speed>
</trkpt>
<trkpt lat="55.994076" lon="26.584415">
<ele>103.622131</ele>
<time>2010-08-29T09:40:02Z</time>
<desc>lat.=55.994076, lon.=26.584415, Alt.=103.622131m. Speed=6.660000m/h.</desc>
<speed>1.850000</speed>
</trkpt>
<trkpt lat="55.994072" lon="26.584450">
<ele>103.956116</ele>
<time>2010-08-29T09:40:03Z</time>
<desc>lat.=55.994072, lon.=26.584450, Alt.=103.956116m. Speed=5.076000m/h.</desc>
<speed>1.410000</speed>
</trkpt>
<trkpt lat="55.994064" lon="26.584490">
<ele>104.180725</ele>
<time>2010-08-29T09:40:04Z</time>
<desc>lat.=55.994064, lon.=26.584490, Alt.=104.180725m. Speed=8.964000m/h.</desc>
<speed>2.490000</speed>
</trkpt>
<trkpt lat="55.994053" lon="26.584541">
<ele>104.387756</ele>
<time>2010-08-29T09:40:05Z</time>
<desc>lat.=55.994053, lon.=26.584541, Alt.=104.387756m. Speed=9.792000m/h.</desc>
<speed>2.720000</speed>
</trkpt>
<trkpt lat="55.994045" lon="26.584581">
<ele>104.042053</ele>
<time>2010-08-29T09:40:06Z</time>
<desc>lat.=55.994045, lon.=26.584581, Alt.=104.042053m. Speed=8.136000m/h.</desc>
<speed>2.260000</speed>
</trkpt>
<trkpt lat="55.994038" lon="26.584620">
<ele>103.768616</ele>
<time>2010-08-29T09:40:07Z</time>
<desc>lat.=55.994038, lon.=26.584620, Alt.=103.768616m. Speed=5.544000m/h.</desc>
<speed>1.540000</speed>
</trkpt>
<trkpt lat="55.994038" lon="26.584702">
<ele>102.711975</ele>
<time>2010-08-29T09:40:08Z</time>
<desc>lat.=55.994038, lon.=26.584702, Alt.=102.711975m. Speed=8.388000m/h.</desc>
<speed>2.330000</speed>
</trkpt>
<trkpt lat="55.994034" lon="26.584757">
<ele>101.801819</ele>
<time>2010-08-29T09:40:09Z</time>
<desc>lat.=55.994034, lon.=26.584757, Alt.=101.801819m. Speed=7.668000m/h.</desc>
<speed>2.130000</speed>
</trkpt>
<trkpt lat="55.994019" lon="26.584803">
<ele>101.669006</ele>
<time>2010-08-29T09:40:10Z</time>
<desc>lat.=55.994019, lon.=26.584803, Alt.=101.669006m. Speed=6.624000m/h.</desc>
<speed>1.840000</speed>
</trkpt>
<trkpt lat="55.993996" lon="26.584852">
<ele>100.829163</ele>
<time>2010-08-29T09:40:11Z</time>
<desc>lat.=55.993996, lon.=26.584852, Alt.=100.829163m. Speed=8.172000m/h.</desc>
<speed>2.270000</speed>
</trkpt>
<trkpt lat="55.993980" lon="26.584887">
<ele>100.044006</ele>
<time>2010-08-29T09:40:12Z</time>
<desc>lat.=55.993980, lon.=26.584887, Alt.=100.044006m. Speed=5.832000m/h.</desc>
<speed>1.620000</speed>
</trkpt>
<trkpt lat="55.993969" lon="26.584919">
<ele>99.795959</ele>
<time>2010-08-29T09:40:13Z</time>
<desc>lat.=55.993969, lon.=26.584919, Alt.=99.795959m. Speed=6.624000m/h.</desc>
<speed>1.840000</speed>
</trkpt>
<trkpt lat="55.993950" lon="26.584953">
<ele>99.881897</ele>
<time>2010-08-29T09:40:14Z</time>
<desc>lat.=55.993950, lon.=26.584953, Alt.=99.881897m. Speed=5.760000m/h.</desc>
<speed>1.600000</speed>
</trkpt>
<trkpt lat="55.993919" lon="26.584997">
<ele>100.659241</ele>
<time>2010-08-29T09:40:15Z</time>
<desc>lat.=55.993919, lon.=26.584997, Alt.=100.659241m. Speed=7.776000m/h.</desc>
<speed>2.160000</speed>
</trkpt>
<trkpt lat="55.993904" lon="26.585062">
<ele>101.674866</ele>
<time>2010-08-29T09:40:16Z</time>
<desc>lat.=55.993904, lon.=26.585062, Alt.=101.674866m. Speed=6.912000m/h.</desc>
<speed>1.920000</speed>
</trkpt>
<trkpt lat="55.993889" lon="26.585093">
<ele>102.143616</ele>
<time>2010-08-29T09:40:17Z</time>
<desc>lat.=55.993889, lon.=26.585093, Alt.=102.143616m. Speed=6.552000m/h.</desc>
<speed>1.820000</speed>
</trkpt>
<trkpt lat="55.993870" lon="26.585121">
<ele>102.706116</ele>
<time>2010-08-29T09:40:18Z</time>
<desc>lat.=55.993870, lon.=26.585121, Alt.=102.706116m. Speed=6.984000m/h.</desc>
<speed>1.940000</speed>
</trkpt>
<trkpt lat="55.993862" lon="26.585159">
<ele>102.946350</ele>
<time>2010-08-29T09:40:19Z</time>
<desc>lat.=55.993862, lon.=26.585159, Alt.=102.946350m. Speed=6.120000m/h.</desc>
<speed>1.700000</speed>
</trkpt>
<trkpt lat="55.993851" lon="26.585249">
<ele>103.538147</ele>
<time>2010-08-29T09:40:20Z</time>
<desc>lat.=55.993851, lon.=26.585249, Alt.=103.538147m. Speed=8.820000m/h.</desc>
<speed>2.450000</speed>
</trkpt>
<trkpt lat="55.993839" lon="26.585283">
<ele>104.079163</ele>
<time>2010-08-29T09:40:21Z</time>
<desc>lat.=55.993839, lon.=26.585283, Alt.=104.079163m. Speed=6.084000m/h.</desc>
<speed>1.690000</speed>
</trkpt>
<trkpt lat="55.993813" lon="26.585323">
<ele>103.952209</ele>
<time>2010-08-29T09:40:22Z</time>
<desc>lat.=55.993813, lon.=26.585323, Alt.=103.952209m. Speed=8.352000m/h.</desc>
<speed>2.320000</speed>
</trkpt>
<trkpt lat="55.993797" lon="26.585358">
<ele>104.581116</ele>
<time>2010-08-29T09:40:23Z</time>
<desc>lat.=55.993797, lon.=26.585358, Alt.=104.581116m. Speed=7.668000m/h.</desc>
<speed>2.130000</speed>
</trkpt>
<trkpt lat="55.993790" lon="26.585386">
<ele>105.481506</ele>
<time>2010-08-29T09:40:24Z</time>
<desc>lat.=55.993790, lon.=26.585386, Alt.=105.481506m. Speed=6.336000m/h.</desc>
<speed>1.760000</speed>
</trkpt>
<trkpt lat="55.993778" lon="26.585426">
<ele>105.795959</ele>
<time>2010-08-29T09:40:25Z</time>
<desc>lat.=55.993778, lon.=26.585426, Alt.=105.795959m. Speed=6.696000m/h.</desc>
<speed>1.860000</speed>
</trkpt>
<trkpt lat="55.993763" lon="26.585468">
<ele>106.604553</ele>
<time>2010-08-29T09:40:26Z</time>
<desc>lat.=55.993763, lon.=26.585468, Alt.=106.604553m. Speed=9.972000m/h.</desc>
<speed>2.770000</speed>
</trkpt>
<trkpt lat="55.993732" lon="26.585520">
<ele>107.799866</ele>
<time>2010-08-29T09:40:27Z</time>
<desc>lat.=55.993732, lon.=26.585520, Alt.=107.799866m. Speed=9.180000m/h.</desc>
<speed>2.550000</speed>
</trkpt>
<trkpt lat="55.993683" lon="26.585566">
<ele>107.879944</ele>
<time>2010-08-29T09:40:28Z</time>
<desc>lat.=55.993683, lon.=26.585566, Alt.=107.879944m. Speed=8.208000m/h.</desc>
<speed>2.280000</speed>
</trkpt>
<trkpt lat="55.993668" lon="26.585608">
<ele>107.944397</ele>
<time>2010-08-29T09:40:29Z</time>
<desc>lat.=55.993668, lon.=26.585608, Alt.=107.944397m. Speed=7.992000m/h.</desc>
<speed>2.220000</speed>
</trkpt>
<trkpt lat="55.993645" lon="26.585665">
<ele>108.024475</ele>
<time>2010-08-29T09:40:30Z</time>
<desc>lat.=55.993645, lon.=26.585665, Alt.=108.024475m. Speed=8.316000m/h.</desc>
<speed>2.310000</speed>
</trkpt>
<trkpt lat="55.993587" lon="26.585701">
<ele>108.268616</ele>
<time>2010-08-29T09:40:31Z</time>
<desc>lat.=55.993587, lon.=26.585701, Alt.=108.268616m. Speed=8.280000m/h.</desc>
<speed>2.300000</speed>
</trkpt>
<trkpt lat="55.993561" lon="26.585756">
<ele>107.854553</ele>
<time>2010-08-29T09:40:32Z</time>
<desc>lat.=55.993561, lon.=26.585756, Alt.=107.854553m. Speed=7.920000m/h.</desc>
<speed>2.200000</speed>
</trkpt>
<trkpt lat="55.993549" lon="26.585787">
<ele>107.905334</ele>
<time>2010-08-29T09:40:33Z</time>
<desc>lat.=55.993549, lon.=26.585787, Alt.=107.905334m. Speed=11.412000m/h.</desc>
<speed>3.170000</speed>
</trkpt>
<trkpt lat="55.993534" lon="26.585848">
<ele>108.387756</ele>
<time>2010-08-29T09:40:34Z</time>
<desc>lat.=55.993534, lon.=26.585848, Alt.=108.387756m. Speed=10.872000m/h.</desc>
<speed>3.020000</speed>
</trkpt>
<trkpt lat="55.993504" lon="26.585915">
<ele>110.063538</ele>
<time>2010-08-29T09:40:35Z</time>
<desc>lat.=55.993504, lon.=26.585915, Alt.=110.063538m. Speed=11.916000m/h.</desc>
<speed>3.310000</speed>
</trkpt>
<trkpt lat="55.993484" lon="26.585968">
<ele>110.528381</ele>
<time>2010-08-29T09:40:36Z</time>
<desc>lat.=55.993484, lon.=26.585968, Alt.=110.528381m. Speed=11.700000m/h.</desc>
<speed>3.250000</speed>
</trkpt>
<trkpt lat="55.993473" lon="26.586010">
<ele>110.151428</ele>
<time>2010-08-29T09:40:37Z</time>
<desc>lat.=55.993473, lon.=26.586010, Alt.=110.151428m. Speed=7.056000m/h.</desc>
<speed>1.960000</speed>
</trkpt>
<trkpt lat="55.993469" lon="26.586046">
<ele>109.598694</ele>
<time>2010-08-29T09:40:38Z</time>
<desc>lat.=55.993469, lon.=26.586046, Alt.=109.598694m. Speed=5.040000m/h.</desc>
<speed>1.400000</speed>
</trkpt>
<trkpt lat="55.993473" lon="26.586088">
<ele>109.002991</ele>
<time>2010-08-29T09:40:39Z</time>
<desc>lat.=55.993473, lon.=26.586088, Alt.=109.002991m. Speed=6.300000m/h.</desc>
<speed>1.750000</speed>
</trkpt>
<trkpt lat="55.993469" lon="26.586130">
<ele>108.762756</ele>
<time>2010-08-29T09:40:40Z</time>
<desc>lat.=55.993469, lon.=26.586130, Alt.=108.762756m. Speed=8.568000m/h.</desc>
<speed>2.380000</speed>
</trkpt>
<trkpt lat="55.993473" lon="26.586208">
<ele>107.807678</ele>
<time>2010-08-29T09:40:41Z</time>
<desc>lat.=55.993473, lon.=26.586208, Alt.=107.807678m. Speed=9.612000m/h.</desc>
<speed>2.670000</speed>
</trkpt>
<trkpt lat="55.993477" lon="26.586281">
<ele>107.124084</ele>
<time>2010-08-29T09:40:42Z</time>
<desc>lat.=55.993477, lon.=26.586281, Alt.=107.124084m. Speed=10.332000m/h.</desc>
<speed>2.870000</speed>
</trkpt>
<trkpt lat="55.993484" lon="26.586365">
<ele>105.745178</ele>
<time>2010-08-29T09:40:43Z</time>
<desc>lat.=55.993484, lon.=26.586365, Alt.=105.745178m. Speed=10.800000m/h.</desc>
<speed>3.000000</speed>
</trkpt>
<trkpt lat="55.993484" lon="26.586422">
<ele>104.758850</ele>
<time>2010-08-29T09:40:44Z</time>
<desc>lat.=55.993484, lon.=26.586422, Alt.=104.758850m. Speed=10.188000m/h.</desc>
<speed>2.830000</speed>
</trkpt>
<trkpt lat="55.993484" lon="26.586500">
<ele>102.551819</ele>
<time>2010-08-29T09:40:45Z</time>
<desc>lat.=55.993484, lon.=26.586500, Alt.=102.551819m. Speed=11.088000m/h.</desc>
<speed>3.080000</speed>
</trkpt>
<trkpt lat="55.993473" lon="26.586557">
<ele>101.581116</ele>
<time>2010-08-29T09:40:46Z</time>
<desc>lat.=55.993473, lon.=26.586557, Alt.=101.581116m. Speed=10.332000m/h.</desc>
<speed>2.870000</speed>
</trkpt>
<trkpt lat="55.993465" lon="26.586624">
<ele>99.547913</ele>
<time>2010-08-29T09:40:47Z</time>
<desc>lat.=55.993465, lon.=26.586624, Alt.=99.547913m. Speed=7.416000m/h.</desc>
<speed>2.060000</speed>
</trkpt>
<trkpt lat="55.993446" lon="26.586681">
<ele>98.294006</ele>
<time>2010-08-29T09:40:48Z</time>
<desc>lat.=55.993446, lon.=26.586681, Alt.=98.294006m. Speed=7.560000m/h.</desc>
<speed>2.100000</speed>
</trkpt>
<trkpt lat="55.993435" lon="26.586760">
<ele>97.088928</ele>
<time>2010-08-29T09:40:49Z</time>
<desc>lat.=55.993435, lon.=26.586760, Alt.=97.088928m. Speed=9.432000m/h.</desc>
<speed>2.620000</speed>
</trkpt>
<trkpt lat="55.993420" lon="26.586826">
<ele>96.264709</ele>
<time>2010-08-29T09:40:50Z</time>
<desc>lat.=55.993420, lon.=26.586826, Alt.=96.264709m. Speed=8.064000m/h.</desc>
<speed>2.240000</speed>
</trkpt>
<trkpt lat="55.993416" lon="26.586861">
<ele>95.897522</ele>
<time>2010-08-29T09:40:51Z</time>
<desc>lat.=55.993416, lon.=26.586861, Alt.=95.897522m. Speed=11.592000m/h.</desc>
<speed>3.220000</speed>
</trkpt>
<trkpt lat="55.993408" lon="26.586910">
<ele>95.698303</ele>
<time>2010-08-29T09:40:52Z</time>
<desc>lat.=55.993408, lon.=26.586910, Alt.=95.698303m. Speed=11.952000m/h.</desc>
<speed>3.320000</speed>
</trkpt>
<trkpt lat="55.993382" lon="26.586981">
<ele>94.848694</ele>
<time>2010-08-29T09:40:53Z</time>
<desc>lat.=55.993382, lon.=26.586981, Alt.=94.848694m. Speed=11.412000m/h.</desc>
<speed>3.170000</speed>
</trkpt>
<trkpt lat="55.993359" lon="26.587097">
<ele>93.096741</ele>
<time>2010-08-29T09:40:54Z</time>
<desc>lat.=55.993359, lon.=26.587097, Alt.=93.096741m. Speed=10.584000m/h.</desc>
<speed>2.940000</speed>
</trkpt>
<trkpt lat="55.993332" lon="26.587172">
<ele>92.243225</ele>
<time>2010-08-29T09:40:55Z</time>
<desc>lat.=55.993332, lon.=26.587172, Alt.=92.243225m. Speed=11.088000m/h.</desc>
<speed>3.080000</speed>
</trkpt>
<trkpt lat="55.993305" lon="26.587248">
<ele>92.327209</ele>
<time>2010-08-29T09:40:56Z</time>
<desc>lat.=55.993305, lon.=26.587248, Alt.=92.327209m. Speed=10.692000m/h.</desc>
<speed>2.970000</speed>
</trkpt>
<trkpt lat="55.993275" lon="26.587332">
<ele>93.971741</ele>
<time>2010-08-29T09:40:57Z</time>
<desc>lat.=55.993275, lon.=26.587332, Alt.=93.971741m. Speed=10.584000m/h.</desc>
<speed>2.940000</speed>
</trkpt>
<trkpt lat="55.993252" lon="26.587381">
<ele>94.075256</ele>
<time>2010-08-29T09:40:58Z</time>
<desc>lat.=55.993252, lon.=26.587381, Alt.=94.075256m. Speed=9.036000m/h.</desc>
<speed>2.510000</speed>
</trkpt>
<trkpt lat="55.993225" lon="26.587440">
<ele>95.106506</ele>
<time>2010-08-29T09:40:59Z</time>
<desc>lat.=55.993225, lon.=26.587440, Alt.=95.106506m. Speed=9.432000m/h.</desc>
<speed>2.620000</speed>
</trkpt>
<trkpt lat="55.993210" lon="26.587490">
<ele>95.372131</ele>
<time>2010-08-29T09:41:00Z</time>
<desc>lat.=55.993210, lon.=26.587490, Alt.=95.372131m. Speed=10.620000m/h.</desc>
<speed>2.950000</speed>
</trkpt>
<trkpt lat="55.993191" lon="26.587524">
<ele>95.299866</ele>
<time>2010-08-29T09:41:01Z</time>
<desc>lat.=55.993191, lon.=26.587524, Alt.=95.299866m. Speed=9.288000m/h.</desc>
<speed>2.580000</speed>
</trkpt>
<trkpt lat="55.993176" lon="26.587572">
<ele>94.920959</ele>
<time>2010-08-29T09:41:02Z</time>
<desc>lat.=55.993176, lon.=26.587572, Alt.=94.920959m. Speed=8.820000m/h.</desc>
<speed>2.450000</speed>
</trkpt>
<trkpt lat="55.993153" lon="26.587605">
<ele>95.864319</ele>
<time>2010-08-29T09:41:03Z</time>
<desc>lat.=55.993153, lon.=26.587605, Alt.=95.864319m. Speed=7.740000m/h.</desc>
<speed>2.150000</speed>
</trkpt>
<trkpt lat="55.993141" lon="26.587633">
<ele>95.430725</ele>
<time>2010-08-29T09:41:04Z</time>
<desc>lat.=55.993141, lon.=26.587633, Alt.=95.430725m. Speed=7.200000m/h.</desc>
<speed>2.000000</speed>
</trkpt>
<trkpt lat="55.993126" lon="26.587660">
<ele>95.245178</ele>
<time>2010-08-29T09:41:05Z</time>
<desc>lat.=55.993126, lon.=26.587660, Alt.=95.245178m. Speed=6.156000m/h.</desc>
<speed>1.710000</speed>
</trkpt>
<trkpt lat="55.993114" lon="26.587698">
<ele>94.465881</ele>
<time>2010-08-29T09:41:06Z</time>
<desc>lat.=55.993114, lon.=26.587698, Alt.=94.465881m. Speed=6.408000m/h.</desc>
<speed>1.780000</speed>
</trkpt>
<trkpt lat="55.993099" lon="26.587715">
<ele>94.112366</ele>
<time>2010-08-29T09:41:07Z</time>
<desc>lat.=55.993099, lon.=26.587715, Alt.=94.112366m. Speed=6.624000m/h.</desc>
<speed>1.840000</speed>
</trkpt>
<trkpt lat="55.993088" lon="26.587740">
<ele>94.122131</ele>
<time>2010-08-29T09:41:08Z</time>
<desc>lat.=55.993088, lon.=26.587740, Alt.=94.122131m. Speed=5.688000m/h.</desc>
<speed>1.580000</speed>
</trkpt>
<trkpt lat="55.993073" lon="26.587765">
<ele>94.481506</ele>
<time>2010-08-29T09:41:09Z</time>
<desc>lat.=55.993073, lon.=26.587765, Alt.=94.481506m. Speed=6.120000m/h.</desc>
<speed>1.700000</speed>
</trkpt>
<trkpt lat="55.993061" lon="26.587788">
<ele>94.840881</ele>
<time>2010-08-29T09:41:10Z</time>
<desc>lat.=55.993061, lon.=26.587788, Alt.=94.840881m. Speed=5.868000m/h.</desc>
<speed>1.630000</speed>
</trkpt>
<trkpt lat="55.993053" lon="26.587809">
<ele>94.831116</ele>
<time>2010-08-29T09:41:11Z</time>
<desc>lat.=55.993053, lon.=26.587809, Alt.=94.831116m. Speed=3.852000m/h.</desc>
<speed>1.070000</speed>
</trkpt>
<trkpt lat="55.993038" lon="26.587833">
<ele>95.071350</ele>
<time>2010-08-29T09:41:12Z</time>
<desc>lat.=55.993038, lon.=26.587833, Alt.=95.071350m. Speed=5.688000m/h.</desc>
<speed>1.580000</speed>
</trkpt>
<trkpt lat="55.993023" lon="26.587847">
<ele>94.903381</ele>
<time>2010-08-29T09:41:13Z</time>
<desc>lat.=55.993023, lon.=26.587847, Alt.=94.903381m. Speed=5.976000m/h.</desc>
<speed>1.660000</speed>
</trkpt>
<trkpt lat="55.993011" lon="26.587864">
<ele>94.497131</ele>
<time>2010-08-29T09:41:14Z</time>
<desc>lat.=55.993011, lon.=26.587864, Alt.=94.497131m. Speed=5.184000m/h.</desc>
<speed>1.440000</speed>
</trkpt>
<trkpt lat="55.992992" lon="26.587881">
<ele>94.268616</ele>
<time>2010-08-29T09:41:15Z</time>
<desc>lat.=55.992992, lon.=26.587881, Alt.=94.268616m. Speed=4.284000m/h.</desc>
<speed>1.190000</speed>
</trkpt>
<trkpt lat="55.992981" lon="26.587896">
<ele>94.370178</ele>
<time>2010-08-29T09:41:16Z</time>
<desc>lat.=55.992981, lon.=26.587896, Alt.=94.370178m. Speed=5.940000m/h.</desc>
<speed>1.650000</speed>
</trkpt>
<trkpt lat="55.992973" lon="26.587914">
<ele>94.651428</ele>
<time>2010-08-29T09:41:17Z</time>
<desc>lat.=55.992973, lon.=26.587914, Alt.=94.651428m. Speed=4.320000m/h.</desc>
<speed>1.200000</speed>
</trkpt>
<trkpt lat="55.992962" lon="26.587933">
<ele>94.854553</ele>
<time>2010-08-29T09:41:18Z</time>
<desc>lat.=55.992962, lon.=26.587933, Alt.=94.854553m. Speed=6.048000m/h.</desc>
<speed>1.680000</speed>
</trkpt>
<trkpt lat="55.992950" lon="26.587959">
<ele>94.829163</ele>
<time>2010-08-29T09:41:19Z</time>
<desc>lat.=55.992950, lon.=26.587959, Alt.=94.829163m. Speed=6.444000m/h.</desc>
<speed>1.790000</speed>
</trkpt>
<trkpt lat="55.992943" lon="26.587976">
<ele>95.254944</ele>
<time>2010-08-29T09:41:20Z</time>
<desc>lat.=55.992943, lon.=26.587976, Alt.=95.254944m. Speed=6.876000m/h.</desc>
<speed>1.910000</speed>
</trkpt>
<trkpt lat="55.992928" lon="26.588007">
<ele>94.989319</ele>
<time>2010-08-29T09:41:21Z</time>
<desc>lat.=55.992928, lon.=26.588007, Alt.=94.989319m. Speed=6.696000m/h.</desc>
<speed>1.860000</speed>
</trkpt>
<trkpt lat="55.992905" lon="26.588030">
<ele>95.034241</ele>
<time>2010-08-29T09:41:22Z</time>
<desc>lat.=55.992905, lon.=26.588030, Alt.=95.034241m. Speed=7.380000m/h.</desc>
<speed>2.050000</speed>
</trkpt>
<trkpt lat="55.992886" lon="26.588047">
<ele>94.729553</ele>
<time>2010-08-29T09:41:23Z</time>
<desc>lat.=55.992886, lon.=26.588047, Alt.=94.729553m. Speed=8.280000m/h.</desc>
<speed>2.300000</speed>
</trkpt>
<trkpt lat="55.992867" lon="26.588079">
<ele>95.227600</ele>
<time>2010-08-29T09:41:24Z</time>
<desc>lat.=55.992867, lon.=26.588079, Alt.=95.227600m. Speed=9.252000m/h.</desc>
<speed>2.570000</speed>
</trkpt>
<trkpt lat="55.992847" lon="26.588112">
<ele>95.442444</ele>
<time>2010-08-29T09:41:25Z</time>
<desc>lat.=55.992847, lon.=26.588112, Alt.=95.442444m. Speed=9.144000m/h.</desc>
<speed>2.540000</speed>
</trkpt>
<trkpt lat="55.992832" lon="26.588142">
<ele>95.710022</ele>
<time>2010-08-29T09:41:26Z</time>
<desc>lat.=55.992832, lon.=26.588142, Alt.=95.710022m. Speed=8.712000m/h.</desc>
<speed>2.420000</speed>
</trkpt>
<trkpt lat="55.992821" lon="26.588171">
<ele>96.268616</ele>
<time>2010-08-29T09:41:27Z</time>
<desc>lat.=55.992821, lon.=26.588171, Alt.=96.268616m. Speed=7.632000m/h.</desc>
<speed>2.120000</speed>
</trkpt>
<trkpt lat="55.992805" lon="26.588202">
<ele>96.547913</ele>
<time>2010-08-29T09:41:28Z</time>
<desc>lat.=55.992805, lon.=26.588202, Alt.=96.547913m. Speed=10.080000m/h.</desc>
<speed>2.800000</speed>
</trkpt>
<trkpt lat="55.992790" lon="26.588226">
<ele>96.803772</ele>
<time>2010-08-29T09:41:29Z</time>
<desc>lat.=55.992790, lon.=26.588226, Alt.=96.803772m. Speed=8.892000m/h.</desc>
<speed>2.470000</speed>
</trkpt>
<trkpt lat="55.992767" lon="26.588253">
<ele>97.163147</ele>
<time>2010-08-29T09:41:30Z</time>
<desc>lat.=55.992767, lon.=26.588253, Alt.=97.163147m. Speed=9.288000m/h.</desc>
<speed>2.580000</speed>
</trkpt>
<trkpt lat="55.992744" lon="26.588291">
<ele>97.229553</ele>
<time>2010-08-29T09:41:31Z</time>
<desc>lat.=55.992744, lon.=26.588291, Alt.=97.229553m. Speed=9.972000m/h.</desc>
<speed>2.770000</speed>
</trkpt>
<trkpt lat="55.992725" lon="26.588327">
<ele>97.245178</ele>
<time>2010-08-29T09:41:32Z</time>
<desc>lat.=55.992725, lon.=26.588327, Alt.=97.245178m. Speed=10.332000m/h.</desc>
<speed>2.870000</speed>
</trkpt>
<trkpt lat="55.992706" lon="26.588360">
<ele>97.534241</ele>
<time>2010-08-29T09:41:33Z</time>
<desc>lat.=55.992706, lon.=26.588360, Alt.=97.534241m. Speed=10.260000m/h.</desc>
<speed>2.850000</speed>
</trkpt>
<trkpt lat="55.992687" lon="26.588394">
<ele>97.446350</ele>
<time>2010-08-29T09:41:34Z</time>
<desc>lat.=55.992687, lon.=26.588394, Alt.=97.446350m. Speed=9.972000m/h.</desc>
<speed>2.770000</speed>
</trkpt>
<trkpt lat="55.992668" lon="26.588436">
<ele>97.993225</ele>
<time>2010-08-29T09:41:35Z</time>
<desc>lat.=55.992668, lon.=26.588436, Alt.=97.993225m. Speed=9.144000m/h.</desc>
<speed>2.540000</speed>
</trkpt>
<trkpt lat="55.992649" lon="26.588469">
<ele>98.104553</ele>
<time>2010-08-29T09:41:36Z</time>
<desc>lat.=55.992649, lon.=26.588469, Alt.=98.104553m. Speed=10.368000m/h.</desc>
<speed>2.880000</speed>
</trkpt>
<trkpt lat="55.992630" lon="26.588497">
<ele>98.364319</ele>
<time>2010-08-29T09:41:37Z</time>
<desc>lat.=55.992630, lon.=26.588497, Alt.=98.364319m. Speed=8.820000m/h.</desc>
<speed>2.450000</speed>
</trkpt>
<trkpt lat="55.992615" lon="26.588530">
<ele>98.254944</ele>
<time>2010-08-29T09:41:38Z</time>
<desc>lat.=55.992615, lon.=26.588530, Alt.=98.254944m. Speed=9.288000m/h.</desc>
<speed>2.580000</speed>
</trkpt>
<trkpt lat="55.992596" lon="26.588570">
<ele>98.354553</ele>
<time>2010-08-29T09:41:39Z</time>
<desc>lat.=55.992596, lon.=26.588570, Alt.=98.354553m. Speed=9.504000m/h.</desc>
<speed>2.640000</speed>
</trkpt>
<trkpt lat="55.992577" lon="26.588606">
<ele>98.331116</ele>
<time>2010-08-29T09:41:40Z</time>
<desc>lat.=55.992577, lon.=26.588606, Alt.=98.331116m. Speed=10.152000m/h.</desc>
<speed>2.820000</speed>
</trkpt>
<trkpt lat="55.992558" lon="26.588636">
<ele>98.379944</ele>
<time>2010-08-29T09:41:41Z</time>
<desc>lat.=55.992558, lon.=26.588636, Alt.=98.379944m. Speed=10.116000m/h.</desc>
<speed>2.810000</speed>
</trkpt>
<trkpt lat="55.992535" lon="26.588665">
<ele>98.167053</ele>
<time>2010-08-29T09:41:42Z</time>
<desc>lat.=55.992535, lon.=26.588665, Alt.=98.167053m. Speed=10.512000m/h.</desc>
<speed>2.920000</speed>
</trkpt>
<trkpt lat="55.992519" lon="26.588696">
<ele>98.294006</ele>
<time>2010-08-29T09:41:43Z</time>
<desc>lat.=55.992519, lon.=26.588696, Alt.=98.294006m. Speed=10.116000m/h.</desc>
<speed>2.810000</speed>
</trkpt>
<trkpt lat="55.992496" lon="26.588734">
<ele>98.446350</ele>
<time>2010-08-29T09:41:44Z</time>
<desc>lat.=55.992496, lon.=26.588734, Alt.=98.446350m. Speed=10.548000m/h.</desc>
<speed>2.930000</speed>
</trkpt>
<trkpt lat="55.992477" lon="26.588766">
<ele>99.014709</ele>
<time>2010-08-29T09:41:45Z</time>
<desc>lat.=55.992477, lon.=26.588766, Alt.=99.014709m. Speed=10.944000m/h.</desc>
<speed>3.040000</speed>
</trkpt>
<trkpt lat="55.992455" lon="26.588804">
<ele>98.565491</ele>
<time>2010-08-29T09:41:46Z</time>
<desc>lat.=55.992455, lon.=26.588804, Alt.=98.565491m. Speed=11.700000m/h.</desc>
<speed>3.250000</speed>
</trkpt>
<trkpt lat="55.992432" lon="26.588840">
<ele>99.133850</ele>
<time>2010-08-29T09:41:47Z</time>
<desc>lat.=55.992432, lon.=26.588840, Alt.=99.133850m. Speed=10.728000m/h.</desc>
<speed>2.980000</speed>
</trkpt>
<trkpt lat="55.992409" lon="26.588884">
<ele>99.231506</ele>
<time>2010-08-29T09:41:48Z</time>
<desc>lat.=55.992409, lon.=26.588884, Alt.=99.231506m. Speed=11.808000m/h.</desc>
<speed>3.280000</speed>
</trkpt>
<trkpt lat="55.992390" lon="26.588919">
<ele>99.180725</ele>
<time>2010-08-29T09:41:49Z</time>
<desc>lat.=55.992390, lon.=26.588919, Alt.=99.180725m. Speed=11.016000m/h.</desc>
<speed>3.060000</speed>
</trkpt>
<trkpt lat="55.992374" lon="26.588953">
<ele>99.249084</ele>
<time>2010-08-29T09:41:50Z</time>
<desc>lat.=55.992374, lon.=26.588953, Alt.=99.249084m. Speed=9.144000m/h.</desc>
<speed>2.540000</speed>
</trkpt>
<trkpt lat="55.992359" lon="26.588991">
<ele>99.561584</ele>
<time>2010-08-29T09:41:51Z</time>
<desc>lat.=55.992359, lon.=26.588991, Alt.=99.561584m. Speed=10.080000m/h.</desc>
<speed>2.800000</speed>
</trkpt>
<trkpt lat="55.992348" lon="26.589029">
<ele>99.704163</ele>
<time>2010-08-29T09:41:52Z</time>
<desc>lat.=55.992348, lon.=26.589029, Alt.=99.704163m. Speed=10.116000m/h.</desc>
<speed>2.810000</speed>
</trkpt>
<trkpt lat="55.992329" lon="26.589075">
<ele>100.014709</ele>
<time>2010-08-29T09:41:53Z</time>
<desc>lat.=55.992329, lon.=26.589075, Alt.=100.014709m. Speed=10.404000m/h.</desc>
<speed>2.890000</speed>
</trkpt>
<trkpt lat="55.992313" lon="26.589113">
<ele>100.149475</ele>
<time>2010-08-29T09:41:54Z</time>
<desc>lat.=55.992313, lon.=26.589113, Alt.=100.149475m. Speed=9.000000m/h.</desc>
<speed>2.500000</speed>
</trkpt>
<trkpt lat="55.992302" lon="26.589148">
<ele>100.030334</ele>
<time>2010-08-29T09:41:55Z</time>
<desc>lat.=55.992302, lon.=26.589148, Alt.=100.030334m. Speed=8.424000m/h.</desc>
<speed>2.340000</speed>
</trkpt>
<trkpt lat="55.992294" lon="26.589186">
<ele>100.442444</ele>
<time>2010-08-29T09:41:56Z</time>
<desc>lat.=55.992294, lon.=26.589186, Alt.=100.442444m. Speed=9.324000m/h.</desc>
<speed>2.590000</speed>
</trkpt>
<trkpt lat="55.992287" lon="26.589230">
<ele>100.729553</ele>
<time>2010-08-29T09:41:57Z</time>
<desc>lat.=55.992287, lon.=26.589230, Alt.=100.729553m. Speed=7.776000m/h.</desc>
<speed>2.160000</speed>
</trkpt>
<trkpt lat="55.992283" lon="26.589281">
<ele>100.645569</ele>
<time>2010-08-29T09:41:58Z</time>
<desc>lat.=55.992283, lon.=26.589281, Alt.=100.645569m. Speed=9.612000m/h.</desc>
<speed>2.670000</speed>
</trkpt>
<trkpt lat="55.992283" lon="26.589338">
<ele>100.577209</ele>
<time>2010-08-29T09:41:59Z</time>
<desc>lat.=55.992283, lon.=26.589338, Alt.=100.577209m. Speed=8.964000m/h.</desc>
<speed>2.490000</speed>
</trkpt>
<trkpt lat="55.992283" lon="26.589380">
<ele>100.221741</ele>
<time>2010-08-29T09:42:00Z</time>
<desc>lat.=55.992283, lon.=26.589380, Alt.=100.221741m. Speed=8.820000m/h.</desc>
<speed>2.450000</speed>
</trkpt>
<trkpt lat="55.992283" lon="26.589422">
<ele>100.866272</ele>
<time>2010-08-29T09:42:01Z</time>
<desc>lat.=55.992283, lon.=26.589422, Alt.=100.866272m. Speed=10.080000m/h.</desc>
<speed>2.800000</speed>
</trkpt>
<trkpt lat="55.992287" lon="26.589464">
<ele>101.481506</ele>
<time>2010-08-29T09:42:02Z</time>
<desc>lat.=55.992287, lon.=26.589464, Alt.=101.481506m. Speed=8.244000m/h.</desc>
<speed>2.290000</speed>
</trkpt>
<trkpt lat="55.992290" lon="26.589504">
<ele>101.502991</ele>
<time>2010-08-29T09:42:03Z</time>
<desc>lat.=55.992290, lon.=26.589504, Alt.=101.502991m. Speed=7.992000m/h.</desc>
<speed>2.220000</speed>
</trkpt>
<trkpt lat="55.992290" lon="26.589546">
<ele>101.096741</ele>
<time>2010-08-29T09:42:04Z</time>
<desc>lat.=55.992290, lon.=26.589546, Alt.=101.096741m. Speed=9.072000m/h.</desc>
<speed>2.520000</speed>
</trkpt>
<trkpt lat="55.992290" lon="26.589590">
<ele>100.901428</ele>
<time>2010-08-29T09:42:05Z</time>
<desc>lat.=55.992290, lon.=26.589590, Alt.=100.901428m. Speed=8.460000m/h.</desc>
<speed>2.350000</speed>
</trkpt>
<trkpt lat="55.992298" lon="26.589628">
<ele>100.643616</ele>
<time>2010-08-29T09:42:06Z</time>
<desc>lat.=55.992298, lon.=26.589628, Alt.=100.643616m. Speed=8.028000m/h.</desc>
<speed>2.230000</speed>
</trkpt>
<trkpt lat="55.992306" lon="26.589672">
<ele>100.573303</ele>
<time>2010-08-29T09:42:07Z</time>
<desc>lat.=55.992306, lon.=26.589672, Alt.=100.573303m. Speed=8.100000m/h.</desc>
<speed>2.250000</speed>
</trkpt>
<trkpt lat="55.992310" lon="26.589706">
<ele>100.692444</ele>
<time>2010-08-29T09:42:08Z</time>
<desc>lat.=55.992310, lon.=26.589706, Alt.=100.692444m. Speed=7.848000m/h.</desc>
<speed>2.180000</speed>
</trkpt>
<trkpt lat="55.992313" lon="26.589737">
<ele>100.817444</ele>
<time>2010-08-29T09:42:09Z</time>
<desc>lat.=55.992313, lon.=26.589737, Alt.=100.817444m. Speed=5.940000m/h.</desc>
<speed>1.650000</speed>
</trkpt>
<trkpt lat="55.992325" lon="26.589769">
<ele>101.241272</ele>
<time>2010-08-29T09:42:10Z</time>
<desc>lat.=55.992325, lon.=26.589769, Alt.=101.241272m. Speed=8.424000m/h.</desc>
<speed>2.340000</speed>
</trkpt>
<trkpt lat="55.992332" lon="26.589809">
<ele>101.161194</ele>
<time>2010-08-29T09:42:11Z</time>
<desc>lat.=55.992332, lon.=26.589809, Alt.=101.161194m. Speed=9.324000m/h.</desc>
<speed>2.590000</speed>
</trkpt>
<trkpt lat="55.992344" lon="26.589849">
<ele>101.034241</ele>
<time>2010-08-29T09:42:12Z</time>
<desc>lat.=55.992344, lon.=26.589849, Alt.=101.034241m. Speed=9.324000m/h.</desc>
<speed>2.590000</speed>
</trkpt>
<trkpt lat="55.992355" lon="26.589890">
<ele>100.786194</ele>
<time>2010-08-29T09:42:13Z</time>
<desc>lat.=55.992355, lon.=26.589890, Alt.=100.786194m. Speed=9.360000m/h.</desc>
<speed>2.600000</speed>
</trkpt>
<trkpt lat="55.992371" lon="26.589928">
<ele>100.542053</ele>
<time>2010-08-29T09:42:14Z</time>
<desc>lat.=55.992371, lon.=26.589928, Alt.=100.542053m. Speed=8.352000m/h.</desc>
<speed>2.320000</speed>
</trkpt>
<trkpt lat="55.992378" lon="26.589968">
<ele>100.504944</ele>
<time>2010-08-29T09:42:15Z</time>
<desc>lat.=55.992378, lon.=26.589968, Alt.=100.504944m. Speed=7.452000m/h.</desc>
<speed>2.070000</speed>
</trkpt>
<trkpt lat="55.992386" lon="26.590002">
<ele>100.854553</ele>
<time>2010-08-29T09:42:16Z</time>
<desc>lat.=55.992386, lon.=26.590002, Alt.=100.854553m. Speed=8.856000m/h.</desc>
<speed>2.460000</speed>
</trkpt>
<trkpt lat="55.992397" lon="26.590038">
<ele>100.866272</ele>
<time>2010-08-29T09:42:17Z</time>
<desc>lat.=55.992397, lon.=26.590038, Alt.=100.866272m. Speed=8.712000m/h.</desc>
<speed>2.420000</speed>
</trkpt>
<trkpt lat="55.992409" lon="26.590076">
<ele>100.844788</ele>
<time>2010-08-29T09:42:18Z</time>
<desc>lat.=55.992409, lon.=26.590076, Alt.=100.844788m. Speed=9.612000m/h.</desc>
<speed>2.670000</speed>
</trkpt>
<trkpt lat="55.992424" lon="26.590115">
<ele>100.874084</ele>
<time>2010-08-29T09:42:19Z</time>
<desc>lat.=55.992424, lon.=26.590115, Alt.=100.874084m. Speed=10.188000m/h.</desc>
<speed>2.830000</speed>
</trkpt>
<trkpt lat="55.992439" lon="26.590160">
<ele>100.920959</ele>
<time>2010-08-29T09:42:20Z</time>
<desc>lat.=55.992439, lon.=26.590160, Alt.=100.920959m. Speed=11.160000m/h.</desc>
<speed>3.100000</speed>
</trkpt>
<trkpt lat="55.992455" lon="26.590216">
<ele>101.577209</ele>
<time>2010-08-29T09:42:21Z</time>
<desc>lat.=55.992455, lon.=26.590216, Alt.=101.577209m. Speed=12.204000m/h.</desc>
<speed>3.390000</speed>
</trkpt>
<trkpt lat="55.992477" lon="26.590260">
<ele>101.391663</ele>
<time>2010-08-29T09:42:22Z</time>
<desc>lat.=55.992477, lon.=26.590260, Alt.=101.391663m. Speed=11.484000m/h.</desc>
<speed>3.190000</speed>
</trkpt>
<trkpt lat="55.992496" lon="26.590305">
<ele>101.460022</ele>
<time>2010-08-29T09:42:23Z</time>
<desc>lat.=55.992496, lon.=26.590305, Alt.=101.460022m. Speed=12.240000m/h.</desc>
<speed>3.400000</speed>
</trkpt>
<trkpt lat="55.992512" lon="26.590357">
<ele>101.391663</ele>
<time>2010-08-29T09:42:24Z</time>
<desc>lat.=55.992512, lon.=26.590357, Alt.=101.391663m. Speed=12.024000m/h.</desc>
<speed>3.340000</speed>
</trkpt>
<trkpt lat="55.992527" lon="26.590412">
<ele>101.786194</ele>
<time>2010-08-29T09:42:25Z</time>
<desc>lat.=55.992527, lon.=26.590412, Alt.=101.786194m. Speed=12.600000m/h.</desc>
<speed>3.500000</speed>
</trkpt>
<trkpt lat="55.992538" lon="26.590479">
<ele>102.614319</ele>
<time>2010-08-29T09:42:26Z</time>
<desc>lat.=55.992538, lon.=26.590479, Alt.=102.614319m. Speed=13.068000m/h.</desc>
<speed>3.630000</speed>
</trkpt>
<trkpt lat="55.992554" lon="26.590536">
<ele>102.108459</ele>
<time>2010-08-29T09:42:27Z</time>
<desc>lat.=55.992554, lon.=26.590536, Alt.=102.108459m. Speed=12.708000m/h.</desc>
<speed>3.530000</speed>
</trkpt>
<trkpt lat="55.992577" lon="26.590597">
<ele>101.661194</ele>
<time>2010-08-29T09:42:28Z</time>
<desc>lat.=55.992577, lon.=26.590597, Alt.=101.661194m. Speed=13.896000m/h.</desc>
<speed>3.860000</speed>
</trkpt>
<trkpt lat="55.992592" lon="26.590649">
<ele>101.540100</ele>
<time>2010-08-29T09:42:29Z</time>
<desc>lat.=55.992592, lon.=26.590649, Alt.=101.540100m. Speed=13.572000m/h.</desc>
<speed>3.770000</speed>
</trkpt>
<trkpt lat="55.992607" lon="26.590706">
<ele>101.286194</ele>
<time>2010-08-29T09:42:30Z</time>
<desc>lat.=55.992607, lon.=26.590706, Alt.=101.286194m. Speed=11.916000m/h.</desc>
<speed>3.310000</speed>
</trkpt>
<trkpt lat="55.992619" lon="26.590755">
<ele>101.665100</ele>
<time>2010-08-29T09:42:31Z</time>
<desc>lat.=55.992619, lon.=26.590755, Alt.=101.665100m. Speed=11.916000m/h.</desc>
<speed>3.310000</speed>
</trkpt>
<trkpt lat="55.992630" lon="26.590805">
<ele>101.698303</ele>
<time>2010-08-29T09:42:32Z</time>
<desc>lat.=55.992630, lon.=26.590805, Alt.=101.698303m. Speed=11.520000m/h.</desc>
<speed>3.200000</speed>
</trkpt>
<trkpt lat="55.992641" lon="26.590847">
<ele>101.969788</ele>
<time>2010-08-29T09:42:33Z</time>
<desc>lat.=55.992641, lon.=26.590847, Alt.=101.969788m. Speed=10.836000m/h.</desc>
<speed>3.010000</speed>
</trkpt>
<trkpt lat="55.992649" lon="26.590885">
<ele>101.879944</ele>
<time>2010-08-29T09:42:34Z</time>
<desc>lat.=55.992649, lon.=26.590885, Alt.=101.879944m. Speed=7.884000m/h.</desc>
<speed>2.190000</speed>
</trkpt>
<trkpt lat="55.992657" lon="26.590914">
<ele>102.127991</ele>
<time>2010-08-29T09:42:35Z</time>
<desc>lat.=55.992657, lon.=26.590914, Alt.=102.127991m. Speed=4.896000m/h.</desc>
<speed>1.360000</speed>
</trkpt>
<trkpt lat="55.992661" lon="26.590927">
<ele>102.381897</ele>
<time>2010-08-29T09:42:36Z</time>
<desc>lat.=55.992661, lon.=26.590927, Alt.=102.381897m. Speed=0.468000m/h.</desc>
<speed>0.130000</speed>
</trkpt>
<trkpt lat="55.992661" lon="26.590929">
<ele>102.274475</ele>
<time>2010-08-29T09:42:37Z</time>
<desc>lat.=55.992661, lon.=26.590929, Alt.=102.274475m. Speed=0.432000m/h.</desc>
<speed>0.120000</speed>
</trkpt>
<trkpt lat="55.992657" lon="26.590939">
<ele>102.932678</ele>
<time>2010-08-29T09:42:38Z</time>
<desc>lat.=55.992657, lon.=26.590939, Alt.=102.932678m. Speed=0.360000m/h.</desc>
<speed>0.100000</speed>
</trkpt>
<trkpt lat="55.992645" lon="26.590940">
<ele>103.110413</ele>
<time>2010-08-29T09:42:39Z</time>
<desc>lat.=55.992645, lon.=26.590940, Alt.=103.110413m. Speed=0.144000m/h.</desc>
<speed>0.040000</speed>
</trkpt>
<trkpt lat="55.992645" lon="26.590939">
<ele>103.102600</ele>
<time>2010-08-29T09:42:40Z</time>
<desc>lat.=55.992645, lon.=26.590939, Alt.=103.102600m. Speed=0.360000m/h.</desc>
<speed>0.100000</speed>
</trkpt>
<trkpt lat="55.992649" lon="26.590939">
<ele>103.110413</ele>
<time>2010-08-29T09:42:41Z</time>
<desc>lat.=55.992649, lon.=26.590939, Alt.=103.110413m. Speed=0.108000m/h.</desc>
<speed>0.030000</speed>
</trkpt>
<trkpt lat="55.992649" lon="26.590939">
<ele>103.127991</ele>
<time>2010-08-29T09:42:42Z</time>
<desc>lat.=55.992649, lon.=26.590939, Alt.=103.127991m. Speed=0.000000m/h.</desc>
<speed>0.000000</speed>
</trkpt>
<trkpt lat="55.992649" lon="26.590939">
<ele>103.112366</ele>
<time>2010-08-29T09:42:43Z</time>
<desc>lat.=55.992649, lon.=26.590939, Alt.=103.112366m. Speed=0.072000m/h.</desc>
<speed>0.020000</speed>
</trkpt>
<trkpt lat="55.992649" lon="26.590939">
<ele>103.079163</ele>
<time>2010-08-29T09:42:44Z</time>
<desc>lat.=55.992649, lon.=26.590939, Alt.=103.079163m. Speed=0.252000m/h.</desc>
<speed>0.070000</speed>
</trkpt>
<trkpt lat="55.992649" lon="26.590939">
<ele>103.049866</ele>
<time>2010-08-29T09:42:45Z</time>
<desc>lat.=55.992649, lon.=26.590939, Alt.=103.049866m. Speed=0.252000m/h.</desc>
<speed>0.070000</speed>
</trkpt>
<trkpt lat="55.992649" lon="26.590940">
<ele>103.026428</ele>
<time>2010-08-29T09:42:46Z</time>
<desc>lat.=55.992649, lon.=26.590940, Alt.=103.026428m. Speed=0.000000m/h.</desc>
<speed>0.000000</speed>
</trkpt>
<trkpt lat="55.992649" lon="26.590940">
<ele>103.004944</ele>
<time>2010-08-29T09:42:47Z</time>
<desc>lat.=55.992649, lon.=26.590940, Alt.=103.004944m. Speed=0.216000m/h.</desc>
<speed>0.060000</speed>
</trkpt>
<trkpt lat="55.992649" lon="26.590940">
<ele>102.987366</ele>
<time>2010-08-29T09:42:48Z</time>
<desc>lat.=55.992649, lon.=26.590940, Alt.=102.987366m. Speed=0.216000m/h.</desc>
<speed>0.060000</speed>
</trkpt>
<trkpt lat="55.992649" lon="26.590940">
<ele>102.967834</ele>
<time>2010-08-29T09:42:49Z</time>
<desc>lat.=55.992649, lon.=26.590940, Alt.=102.967834m. Speed=0.108000m/h.</desc>
<speed>0.030000</speed>
</trkpt>
<trkpt lat="55.992649" lon="26.590939">
<ele>102.946350</ele>
<time>2010-08-29T09:42:50Z</time>
<desc>lat.=55.992649, lon.=26.590939, Alt.=102.946350m. Speed=0.180000m/h.</desc>
<speed>0.050000</speed>
</trkpt>
<trkpt lat="55.992649" lon="26.590940">
<ele>102.928772</ele>
<time>2010-08-29T09:42:51Z</time>
<desc>lat.=55.992649, lon.=26.590940, Alt.=102.928772m. Speed=0.288000m/h.</desc>
<speed>0.080000</speed>
</trkpt>
<trkpt lat="55.992649" lon="26.590940">
<ele>102.919006</ele>
<time>2010-08-29T09:42:52Z</time>
<desc>lat.=55.992649, lon.=26.590940, Alt.=102.919006m. Speed=0.036000m/h.</desc>
<speed>0.010000</speed>
</trkpt>
<trkpt lat="55.992649" lon="26.590940">
<ele>102.911194</ele>
<time>2010-08-29T09:42:53Z</time>
<desc>lat.=55.992649, lon.=26.590940, Alt.=102.911194m. Speed=0.180000m/h.</desc>
<speed>0.050000</speed>
</trkpt>
<trkpt lat="55.992649" lon="26.590940">
<ele>102.909241</ele>
<time>2010-08-29T09:42:54Z</time>
<desc>lat.=55.992649, lon.=26.590940, Alt.=102.909241m. Speed=0.252000m/h.</desc>
<speed>0.070000</speed>
</trkpt>
<trkpt lat="55.992649" lon="26.590940">
<ele>102.899475</ele>
<time>2010-08-29T09:42:55Z</time>
<desc>lat.=55.992649, lon.=26.590940, Alt.=102.899475m. Speed=0.288000m/h.</desc>
<speed>0.080000</speed>
</trkpt>
<trkpt lat="55.992653" lon="26.590939">
<ele>102.891663</ele>
<time>2010-08-29T09:42:56Z</time>
<desc>lat.=55.992653, lon.=26.590939, Alt.=102.891663m. Speed=0.396000m/h.</desc>
<speed>0.110000</speed>
</trkpt>
<trkpt lat="55.992653" lon="26.590937">
<ele>102.885803</ele>
<time>2010-08-29T09:42:57Z</time>
<desc>lat.=55.992653, lon.=26.590937, Alt.=102.885803m. Speed=0.540000m/h.</desc>
<speed>0.150000</speed>
</trkpt>
<trkpt lat="55.992653" lon="26.590935">
<ele>102.881897</ele>
<time>2010-08-29T09:42:58Z</time>
<desc>lat.=55.992653, lon.=26.590935, Alt.=102.881897m. Speed=0.360000m/h.</desc>
<speed>0.100000</speed>
</trkpt>
<trkpt lat="55.992653" lon="26.590935">
<ele>102.877991</ele>
<time>2010-08-29T09:42:59Z</time>
<desc>lat.=55.992653, lon.=26.590935, Alt.=102.877991m. Speed=0.540000m/h.</desc>
<speed>0.150000</speed>
</trkpt>
<trkpt lat="55.992653" lon="26.590933">
<ele>102.874084</ele>
<time>2010-08-29T09:43:00Z</time>
<desc>lat.=55.992653, lon.=26.590933, Alt.=102.874084m. Speed=0.504000m/h.</desc>
<speed>0.140000</speed>
</trkpt>
<trkpt lat="55.992657" lon="26.590931">
<ele>102.868225</ele>
<time>2010-08-29T09:43:01Z</time>
<desc>lat.=55.992657, lon.=26.590931, Alt.=102.868225m. Speed=0.360000m/h.</desc>
<speed>0.100000</speed>
</trkpt>
<trkpt lat="55.992657" lon="26.590931">
<ele>102.862366</ele>
<time>2010-08-29T09:43:02Z</time>
<desc>lat.=55.992657, lon.=26.590931, Alt.=102.862366m. Speed=0.432000m/h.</desc>
<speed>0.120000</speed>
</trkpt>
<trkpt lat="55.992657" lon="26.590929">
<ele>102.856506</ele>
<time>2010-08-29T09:43:03Z</time>
<desc>lat.=55.992657, lon.=26.590929, Alt.=102.856506m. Speed=0.216000m/h.</desc>
<speed>0.060000</speed>
</trkpt>
<trkpt lat="55.992657" lon="26.590929">
<ele>102.852600</ele>
<time>2010-08-29T09:43:04Z</time>
<desc>lat.=55.992657, lon.=26.590929, Alt.=102.852600m. Speed=0.324000m/h.</desc>
<speed>0.090000</speed>
</trkpt>
<trkpt lat="55.992657" lon="26.590931">
<ele>102.848694</ele>
<time>2010-08-29T09:43:05Z</time>
<desc>lat.=55.992657, lon.=26.590931, Alt.=102.848694m. Speed=2.232000m/h.</desc>
<speed>0.620000</speed>
</trkpt>
<trkpt lat="55.992657" lon="26.590940">
<ele>102.846741</ele>
<time>2010-08-29T09:43:06Z</time>
<desc>lat.=55.992657, lon.=26.590940, Alt.=102.846741m. Speed=3.852000m/h.</desc>
<speed>1.070000</speed>
</trkpt>
<trkpt lat="55.992661" lon="26.590958">
<ele>102.876038</ele>
<time>2010-08-29T09:43:07Z</time>
<desc>lat.=55.992661, lon.=26.590958, Alt.=102.876038m. Speed=2.484000m/h.</desc>
<speed>0.690000</speed>
</trkpt>
<trkpt lat="55.992661" lon="26.590965">
<ele>102.887756</ele>
<time>2010-08-29T09:43:08Z</time>
<desc>lat.=55.992661, lon.=26.590965, Alt.=102.887756m. Speed=1.404000m/h.</desc>
<speed>0.390000</speed>
</trkpt>
<trkpt lat="55.992661" lon="26.590967">
<ele>102.874084</ele>
<time>2010-08-29T09:43:09Z</time>
<desc>lat.=55.992661, lon.=26.590967, Alt.=102.874084m. Speed=0.720000m/h.</desc>
<speed>0.200000</speed>
</trkpt>
<trkpt lat="55.992661" lon="26.590975">
<ele>102.842834</ele>
<time>2010-08-29T09:43:10Z</time>
<desc>lat.=55.992661, lon.=26.590975, Alt.=102.842834m. Speed=0.864000m/h.</desc>
<speed>0.240000</speed>
</trkpt>
<trkpt lat="55.992661" lon="26.590981">
<ele>102.862366</ele>
<time>2010-08-29T09:43:11Z</time>
<desc>lat.=55.992661, lon.=26.590981, Alt.=102.862366m. Speed=0.468000m/h.</desc>
<speed>0.130000</speed>
</trkpt>
<trkpt lat="55.992661" lon="26.590984">
<ele>102.919006</ele>
<time>2010-08-29T09:43:12Z</time>
<desc>lat.=55.992661, lon.=26.590984, Alt.=102.919006m. Speed=0.180000m/h.</desc>
<speed>0.050000</speed>
</trkpt>
<trkpt lat="55.992661" lon="26.590986">
<ele>102.922913</ele>
<time>2010-08-29T09:43:13Z</time>
<desc>lat.=55.992661, lon.=26.590986, Alt.=102.922913m. Speed=2.232000m/h.</desc>
<speed>0.620000</speed>
</trkpt>
<trkpt lat="55.992664" lon="26.591015">
<ele>103.135803</ele>
<time>2010-08-29T09:43:14Z</time>
<desc>lat.=55.992664, lon.=26.591015, Alt.=103.135803m. Speed=4.428000m/h.</desc>
<speed>1.230000</speed>
</trkpt>
<trkpt lat="55.992664" lon="26.591049">
<ele>103.124084</ele>
<time>2010-08-29T09:43:15Z</time>
<desc>lat.=55.992664, lon.=26.591049, Alt.=103.124084m. Speed=5.868000m/h.</desc>
<speed>1.630000</speed>
</trkpt>
<trkpt lat="55.992664" lon="26.591084">
<ele>102.944397</ele>
<time>2010-08-29T09:43:16Z</time>
<desc>lat.=55.992664, lon.=26.591084, Alt.=102.944397m. Speed=6.156000m/h.</desc>
<speed>1.710000</speed>
</trkpt>
<trkpt lat="55.992661" lon="26.591116">
<ele>102.635803</ele>
<time>2010-08-29T09:43:17Z</time>
<desc>lat.=55.992661, lon.=26.591116, Alt.=102.635803m. Speed=6.912000m/h.</desc>
<speed>1.920000</speed>
</trkpt>
<trkpt lat="55.992653" lon="26.591143">
<ele>102.487366</ele>
<time>2010-08-29T09:43:18Z</time>
<desc>lat.=55.992653, lon.=26.591143, Alt.=102.487366m. Speed=6.012000m/h.</desc>
<speed>1.670000</speed>
</trkpt>
<trkpt lat="55.992653" lon="26.591162">
<ele>102.669006</ele>
<time>2010-08-29T09:43:19Z</time>
<desc>lat.=55.992653, lon.=26.591162, Alt.=102.669006m. Speed=5.688000m/h.</desc>
<speed>1.580000</speed>
</trkpt>
<trkpt lat="55.992649" lon="26.591183">
<ele>102.624084</ele>
<time>2010-08-29T09:43:20Z</time>
<desc>lat.=55.992649, lon.=26.591183, Alt.=102.624084m. Speed=6.840000m/h.</desc>
<speed>1.900000</speed>
</trkpt>
<trkpt lat="55.992641" lon="26.591213">
<ele>102.635803</ele>
<time>2010-08-29T09:43:21Z</time>
<desc>lat.=55.992641, lon.=26.591213, Alt.=102.635803m. Speed=8.028000m/h.</desc>
<speed>2.230000</speed>
</trkpt>
<trkpt lat="55.992638" lon="26.591251">
<ele>102.567444</ele>
<time>2010-08-29T09:43:22Z</time>
<desc>lat.=55.992638, lon.=26.591251, Alt.=102.567444m. Speed=6.624000m/h.</desc>
<speed>1.840000</speed>
</trkpt>
<trkpt lat="55.992638" lon="26.591278">
<ele>102.735413</ele>
<time>2010-08-29T09:43:23Z</time>
<desc>lat.=55.992638, lon.=26.591278, Alt.=102.735413m. Speed=4.608000m/h.</desc>
<speed>1.280000</speed>
</trkpt>
<trkpt lat="55.992641" lon="26.591290">
<ele>102.606506</ele>
<time>2010-08-29T09:43:24Z</time>
<desc>lat.=55.992641, lon.=26.591290, Alt.=102.606506m. Speed=1.548000m/h.</desc>
<speed>0.430000</speed>
</trkpt>
<trkpt lat="55.992641" lon="26.591293">
<ele>102.731506</ele>
<time>2010-08-29T09:43:25Z</time>
<desc>lat.=55.992641, lon.=26.591293, Alt.=102.731506m. Speed=0.792000m/h.</desc>
<speed>0.220000</speed>
</trkpt>
<trkpt lat="55.992645" lon="26.591303">
<ele>102.739319</ele>
<time>2010-08-29T09:43:26Z</time>
<desc>lat.=55.992645, lon.=26.591303, Alt.=102.739319m. Speed=0.432000m/h.</desc>
<speed>0.120000</speed>
</trkpt>
<trkpt lat="55.992649" lon="26.591307">
<ele>102.799866</ele>
<time>2010-08-29T09:43:27Z</time>
<desc>lat.=55.992649, lon.=26.591307, Alt.=102.799866m. Speed=0.324000m/h.</desc>
<speed>0.090000</speed>
</trkpt>
<trkpt lat="55.992653" lon="26.591305">
<ele>102.891663</ele>
<time>2010-08-29T09:43:28Z</time>
<desc>lat.=55.992653, lon.=26.591305, Alt.=102.891663m. Speed=0.036000m/h.</desc>
<speed>0.010000</speed>
</trkpt>
<trkpt lat="55.992653" lon="26.591305">
<ele>102.895569</ele>
<time>2010-08-29T09:43:29Z</time>
<desc>lat.=55.992653, lon.=26.591305, Alt.=102.895569m. Speed=0.324000m/h.</desc>
<speed>0.090000</speed>
</trkpt>
<trkpt lat="55.992653" lon="26.591303">
<ele>102.891663</ele>
<time>2010-08-29T09:43:30Z</time>
<desc>lat.=55.992653, lon.=26.591303, Alt.=102.891663m. Speed=0.360000m/h.</desc>
<speed>0.100000</speed>
</trkpt>
<trkpt lat="55.992653" lon="26.591301">
<ele>102.870178</ele>
<time>2010-08-29T09:43:31Z</time>
<desc>lat.=55.992653, lon.=26.591301, Alt.=102.870178m. Speed=0.108000m/h.</desc>
<speed>0.030000</speed>
</trkpt>
<trkpt lat="55.992653" lon="26.591301">
<ele>102.846741</ele>
<time>2010-08-29T09:43:32Z</time>
<desc>lat.=55.992653, lon.=26.591301, Alt.=102.846741m. Speed=0.036000m/h.</desc>
<speed>0.010000</speed>
</trkpt>
<trkpt lat="55.992653" lon="26.591301">
<ele>102.827209</ele>
<time>2010-08-29T09:43:33Z</time>
<desc>lat.=55.992653, lon.=26.591301, Alt.=102.827209m. Speed=0.108000m/h.</desc>
<speed>0.030000</speed>
</trkpt>
<trkpt lat="55.992653" lon="26.591299">
<ele>102.811584</ele>
<time>2010-08-29T09:43:34Z</time>
<desc>lat.=55.992653, lon.=26.591299, Alt.=102.811584m. Speed=0.000000m/h.</desc>
<speed>0.000000</speed>
</trkpt>
<trkpt lat="55.992653" lon="26.591299">
<ele>102.803772</ele>
<time>2010-08-29T09:43:35Z</time>
<desc>lat.=55.992653, lon.=26.591299, Alt.=102.803772m. Speed=0.216000m/h.</desc>
<speed>0.060000</speed>
</trkpt>
<trkpt lat="55.992653" lon="26.591299">
<ele>102.790100</ele>
<time>2010-08-29T09:43:36Z</time>
<desc>lat.=55.992653, lon.=26.591299, Alt.=102.790100m. Speed=0.108000m/h.</desc>
<speed>0.030000</speed>
</trkpt>
<trkpt lat="55.992653" lon="26.591299">
<ele>102.770569</ele>
<time>2010-08-29T09:43:37Z</time>
<desc>lat.=55.992653, lon.=26.591299, Alt.=102.770569m. Speed=0.324000m/h.</desc>
<speed>0.090000</speed>
</trkpt>
<trkpt lat="55.992653" lon="26.591297">
<ele>102.758850</ele>
<time>2010-08-29T09:43:38Z</time>
<desc>lat.=55.992653, lon.=26.591297, Alt.=102.758850m. Speed=0.216000m/h.</desc>
<speed>0.060000</speed>
</trkpt>
<trkpt lat="55.992653" lon="26.591297">
<ele>102.756897</ele>
<time>2010-08-29T09:43:39Z</time>
<desc>lat.=55.992653, lon.=26.591297, Alt.=102.756897m. Speed=0.000000m/h.</desc>
<speed>0.000000</speed>
</trkpt>
<trkpt lat="55.992653" lon="26.591297">
<ele>102.756897</ele>
<time>2010-08-29T09:43:40Z</time>
<desc>lat.=55.992653, lon.=26.591297, Alt.=102.756897m. Speed=0.000000m/h.</desc>
<speed>0.000000</speed>
</trkpt>
<trkpt lat="55.992653" lon="26.591297">
<ele>102.758850</ele>
<time>2010-08-29T09:43:41Z</time>
<desc>lat.=55.992653, lon.=26.591297, Alt.=102.758850m. Speed=0.072000m/h.</desc>
<speed>0.020000</speed>
</trkpt>
<trkpt lat="55.992653" lon="26.591297">
<ele>102.760803</ele>
<time>2010-08-29T09:43:42Z</time>
<desc>lat.=55.992653, lon.=26.591297, Alt.=102.760803m. Speed=0.000000m/h.</desc>
<speed>0.000000</speed>
</trkpt>
<trkpt lat="55.992653" lon="26.591297">
<ele>102.764709</ele>
<time>2010-08-29T09:43:43Z</time>
<desc>lat.=55.992653, lon.=26.591297, Alt.=102.764709m. Speed=0.036000m/h.</desc>
<speed>0.010000</speed>
</trkpt>
<trkpt lat="55.992653" lon="26.591297">
<ele>102.764709</ele>
<time>2010-08-29T09:43:44Z</time>
<desc>lat.=55.992653, lon.=26.591297, Alt.=102.764709m. Speed=0.036000m/h.</desc>
<speed>0.010000</speed>
</trkpt>
<trkpt lat="55.992653" lon="26.591297">
<ele>102.772522</ele>
<time>2010-08-29T09:43:45Z</time>
<desc>lat.=55.992653, lon.=26.591297, Alt.=102.772522m. Speed=0.036000m/h.</desc>
<speed>0.010000</speed>
</trkpt>
<trkpt lat="55.992653" lon="26.591297">
<ele>102.772522</ele>
<time>2010-08-29T09:43:46Z</time>
<desc>lat.=55.992653, lon.=26.591297, Alt.=102.772522m. Speed=0.108000m/h.</desc>
<speed>0.030000</speed>
</trkpt>
<trkpt lat="55.992653" lon="26.591297">
<ele>102.782288</ele>
<time>2010-08-29T09:43:47Z</time>
<desc>lat.=55.992653, lon.=26.591297, Alt.=102.782288m. Speed=0.036000m/h.</desc>
<speed>0.010000</speed>
</trkpt>
<trkpt lat="55.992653" lon="26.591297">
<ele>102.784241</ele>
<time>2010-08-29T09:43:48Z</time>
<desc>lat.=55.992653, lon.=26.591297, Alt.=102.784241m. Speed=0.144000m/h.</desc>
<speed>0.040000</speed>
</trkpt>
<trkpt lat="55.992653" lon="26.591297">
<ele>102.786194</ele>
<time>2010-08-29T09:43:49Z</time>
<desc>lat.=55.992653, lon.=26.591297, Alt.=102.786194m. Speed=0.288000m/h.</desc>
<speed>0.080000</speed>
</trkpt>
<trkpt lat="55.992653" lon="26.591297">
<ele>102.786194</ele>
<time>2010-08-29T09:43:50Z</time>
<desc>lat.=55.992653, lon.=26.591297, Alt.=102.786194m. Speed=0.216000m/h.</desc>
<speed>0.060000</speed>
</trkpt>
<trkpt lat="55.992653" lon="26.591297">
<ele>102.778381</ele>
<time>2010-08-29T09:43:51Z</time>
<desc>lat.=55.992653, lon.=26.591297, Alt.=102.778381m. Speed=0.756000m/h.</desc>
<speed>0.210000</speed>
</trkpt>
<trkpt lat="55.992653" lon="26.591299">
<ele>102.745178</ele>
<time>2010-08-29T09:43:52Z</time>
<desc>lat.=55.992653, lon.=26.591299, Alt.=102.745178m. Speed=4.140000m/h.</desc>
<speed>1.150000</speed>
</trkpt>
<trkpt lat="55.992676" lon="26.591282">
<ele>102.372131</ele>
<time>2010-08-29T09:43:53Z</time>
<desc>lat.=55.992676, lon.=26.591282, Alt.=102.372131m. Speed=9.972000m/h.</desc>
<speed>2.770000</speed>
</trkpt>
<trkpt lat="55.992710" lon="26.591261">
<ele>101.932678</ele>
<time>2010-08-29T09:43:54Z</time>
<desc>lat.=55.992710, lon.=26.591261, Alt.=101.932678m. Speed=11.304000m/h.</desc>
<speed>3.140000</speed>
</trkpt>
<trkpt lat="55.992741" lon="26.591240">
<ele>101.860413</ele>
<time>2010-08-29T09:43:55Z</time>
<desc>lat.=55.992741, lon.=26.591240, Alt.=101.860413m. Speed=12.276000m/h.</desc>
<speed>3.410000</speed>
</trkpt>
<trkpt lat="55.992775" lon="26.591221">
<ele>101.737366</ele>
<time>2010-08-29T09:43:56Z</time>
<desc>lat.=55.992775, lon.=26.591221, Alt.=101.737366m. Speed=13.248000m/h.</desc>
<speed>3.680000</speed>
</trkpt>
<trkpt lat="55.992813" lon="26.591192">
<ele>101.784241</ele>
<time>2010-08-29T09:43:57Z</time>
<desc>lat.=55.992813, lon.=26.591192, Alt.=101.784241m. Speed=12.744000m/h.</desc>
<speed>3.540000</speed>
</trkpt>
<trkpt lat="55.992851" lon="26.591169">
<ele>101.883850</ele>
<time>2010-08-29T09:43:58Z</time>
<desc>lat.=55.992851, lon.=26.591169, Alt.=101.883850m. Speed=13.176000m/h.</desc>
<speed>3.660000</speed>
</trkpt>
<trkpt lat="55.992886" lon="26.591150">
<ele>101.749084</ele>
<time>2010-08-29T09:43:59Z</time>
<desc>lat.=55.992886, lon.=26.591150, Alt.=101.749084m. Speed=12.132000m/h.</desc>
<speed>3.370000</speed>
</trkpt>
<trkpt lat="55.992916" lon="26.591135">
<ele>101.770569</ele>
<time>2010-08-29T09:44:00Z</time>
<desc>lat.=55.992916, lon.=26.591135, Alt.=101.770569m. Speed=12.528000m/h.</desc>
<speed>3.480000</speed>
</trkpt>
<trkpt lat="55.992950" lon="26.591114">
<ele>101.807678</ele>
<time>2010-08-29T09:44:01Z</time>
<desc>lat.=55.992950, lon.=26.591114, Alt.=101.807678m. Speed=14.364000m/h.</desc>
<speed>3.990000</speed>
</trkpt>
<trkpt lat="55.992989" lon="26.591095">
<ele>101.930725</ele>
<time>2010-08-29T09:44:02Z</time>
<desc>lat.=55.992989, lon.=26.591095, Alt.=101.930725m. Speed=12.888000m/h.</desc>
<speed>3.580000</speed>
</trkpt>
<trkpt lat="55.993023" lon="26.591078">
<ele>101.983459</ele>
<time>2010-08-29T09:44:03Z</time>
<desc>lat.=55.993023, lon.=26.591078, Alt.=101.983459m. Speed=10.296000m/h.</desc>
<speed>2.860000</speed>
</trkpt>
<trkpt lat="55.993034" lon="26.591068">
<ele>101.823303</ele>
<time>2010-08-29T09:44:04Z</time>
<desc>lat.=55.993034, lon.=26.591068, Alt.=101.823303m. Speed=0.360000m/h.</desc>
<speed>0.100000</speed>
</trkpt>
<trkpt lat="55.993034" lon="26.591068">
<ele>101.827209</ele>
<time>2010-08-29T09:44:05Z</time>
<desc>lat.=55.993034, lon.=26.591068, Alt.=101.827209m. Speed=0.432000m/h.</desc>
<speed>0.120000</speed>
</trkpt>
<trkpt lat="55.993034" lon="26.591066">
<ele>101.833069</ele>
<time>2010-08-29T09:44:06Z</time>
<desc>lat.=55.993034, lon.=26.591066, Alt.=101.833069m. Speed=0.324000m/h.</desc>
<speed>0.090000</speed>
</trkpt>
<trkpt lat="55.993034" lon="26.591063">
<ele>101.840881</ele>
<time>2010-08-29T09:44:07Z</time>
<desc>lat.=55.993034, lon.=26.591063, Alt.=101.840881m. Speed=0.144000m/h.</desc>
<speed>0.040000</speed>
</trkpt>
<trkpt lat="55.993034" lon="26.591063">
<ele>101.817444</ele>
<time>2010-08-29T09:44:08Z</time>
<desc>lat.=55.993034, lon.=26.591063, Alt.=101.817444m. Speed=0.360000m/h.</desc>
<speed>0.100000</speed>
</trkpt>
<trkpt lat="55.993034" lon="26.591063">
<ele>101.794006</ele>
<time>2010-08-29T09:44:09Z</time>
<desc>lat.=55.993034, lon.=26.591063, Alt.=101.794006m. Speed=0.288000m/h.</desc>
<speed>0.080000</speed>
</trkpt>
<trkpt lat="55.993034" lon="26.591063">
<ele>101.766663</ele>
<time>2010-08-29T09:44:10Z</time>
<desc>lat.=55.993034, lon.=26.591063, Alt.=101.766663m. Speed=0.252000m/h.</desc>
<speed>0.070000</speed>
</trkpt>
<trkpt lat="55.993034" lon="26.591061">
<ele>101.743225</ele>
<time>2010-08-29T09:44:11Z</time>
<desc>lat.=55.993034, lon.=26.591061, Alt.=101.743225m. Speed=0.396000m/h.</desc>
<speed>0.110000</speed>
</trkpt>
<trkpt lat="55.993034" lon="26.591061">
<ele>101.725647</ele>
<time>2010-08-29T09:44:12Z</time>
<desc>lat.=55.993034, lon.=26.591061, Alt.=101.725647m. Speed=0.288000m/h.</desc>
<speed>0.080000</speed>
</trkpt>
<trkpt lat="55.993034" lon="26.591061">
<ele>101.723694</ele>
<time>2010-08-29T09:44:13Z</time>
<desc>lat.=55.993034, lon.=26.591061, Alt.=101.723694m. Speed=0.252000m/h.</desc>
<speed>0.070000</speed>
</trkpt>
<trkpt lat="55.993034" lon="26.591061">
<ele>101.719788</ele>
<time>2010-08-29T09:44:14Z</time>
<desc>lat.=55.993034, lon.=26.591061, Alt.=101.719788m. Speed=0.216000m/h.</desc>
<speed>0.060000</speed>
</trkpt>
<trkpt lat="55.993034" lon="26.591061">
<ele>101.706116</ele>
<time>2010-08-29T09:44:15Z</time>
<desc>lat.=55.993034, lon.=26.591061, Alt.=101.706116m. Speed=0.504000m/h.</desc>
<speed>0.140000</speed>
</trkpt>
<trkpt lat="55.993034" lon="26.591061">
<ele>101.682678</ele>
<time>2010-08-29T09:44:16Z</time>
<desc>lat.=55.993034, lon.=26.591061, Alt.=101.682678m. Speed=0.612000m/h.</desc>
<speed>0.170000</speed>
</trkpt>
<trkpt lat="55.993038" lon="26.591059">
<ele>101.665100</ele>
<time>2010-08-29T09:44:17Z</time>
<desc>lat.=55.993038, lon.=26.591059, Alt.=101.665100m. Speed=1.584000m/h.</desc>
<speed>0.440000</speed>
</trkpt>
<trkpt lat="55.993057" lon="26.591045">
<ele>101.920959</ele>
<time>2010-08-29T09:44:18Z</time>
<desc>lat.=55.993057, lon.=26.591045, Alt.=101.920959m. Speed=8.496000m/h.</desc>
<speed>2.360000</speed>
</trkpt>
<trkpt lat="55.993080" lon="26.591026">
<ele>102.186584</ele>
<time>2010-08-29T09:44:19Z</time>
<desc>lat.=55.993080, lon.=26.591026, Alt.=102.186584m. Speed=9.720000m/h.</desc>
<speed>2.700000</speed>
</trkpt>
<trkpt lat="55.993107" lon="26.591002">
<ele>102.430725</ele>
<time>2010-08-29T09:44:20Z</time>
<desc>lat.=55.993107, lon.=26.591002, Alt.=102.430725m. Speed=10.260000m/h.</desc>
<speed>2.850000</speed>
</trkpt>
<trkpt lat="55.993134" lon="26.590973">
<ele>102.508850</ele>
<time>2010-08-29T09:44:21Z</time>
<desc>lat.=55.993134, lon.=26.590973, Alt.=102.508850m. Speed=10.692000m/h.</desc>
<speed>2.970000</speed>
</trkpt>
<trkpt lat="55.993160" lon="26.590942">
<ele>102.573303</ele>
<time>2010-08-29T09:44:22Z</time>
<desc>lat.=55.993160, lon.=26.590942, Alt.=102.573303m. Speed=11.988000m/h.</desc>
<speed>3.330000</speed>
</trkpt>
<trkpt lat="55.993191" lon="26.590910">
<ele>102.598694</ele>
<time>2010-08-29T09:44:23Z</time>
<desc>lat.=55.993191, lon.=26.590910, Alt.=102.598694m. Speed=10.800000m/h.</desc>
<speed>3.000000</speed>
</trkpt>
<trkpt lat="55.993217" lon="26.590879">
<ele>102.778381</ele>
<time>2010-08-29T09:44:24Z</time>
<desc>lat.=55.993217, lon.=26.590879, Alt.=102.778381m. Speed=14.076000m/h.</desc>
<speed>3.910000</speed>
</trkpt>
<trkpt lat="55.993252" lon="26.590851">
<ele>102.719788</ele>
<time>2010-08-29T09:44:25Z</time>
<desc>lat.=55.993252, lon.=26.590851, Alt.=102.719788m. Speed=13.428000m/h.</desc>
<speed>3.730000</speed>
</trkpt>
<trkpt lat="55.993282" lon="26.590820">
<ele>102.692444</ele>
<time>2010-08-29T09:44:26Z</time>
<desc>lat.=55.993282, lon.=26.590820, Alt.=102.692444m. Speed=14.148000m/h.</desc>
<speed>3.930000</speed>
</trkpt>
<trkpt lat="55.993317" lon="26.590796">
<ele>102.903381</ele>
<time>2010-08-29T09:44:27Z</time>
<desc>lat.=55.993317, lon.=26.590796, Alt.=102.903381m. Speed=13.428000m/h.</desc>
<speed>3.730000</speed>
</trkpt>
<trkpt lat="55.993343" lon="26.590773">
<ele>102.999084</ele>
<time>2010-08-29T09:44:28Z</time>
<desc>lat.=55.993343, lon.=26.590773, Alt.=102.999084m. Speed=11.988000m/h.</desc>
<speed>3.330000</speed>
</trkpt>
<trkpt lat="55.993370" lon="26.590754">
<ele>103.026428</ele>
<time>2010-08-29T09:44:29Z</time>
<desc>lat.=55.993370, lon.=26.590754, Alt.=103.026428m. Speed=10.404000m/h.</desc>
<speed>2.890000</speed>
</trkpt>
<trkpt lat="55.993397" lon="26.590734">
<ele>102.897522</ele>
<time>2010-08-29T09:44:30Z</time>
<desc>lat.=55.993397, lon.=26.590734, Alt.=102.897522m. Speed=10.188000m/h.</desc>
<speed>2.830000</speed>
</trkpt>
<trkpt lat="55.993423" lon="26.590719">
<ele>102.667053</ele>
<time>2010-08-29T09:44:31Z</time>
<desc>lat.=55.993423, lon.=26.590719, Alt.=102.667053m. Speed=10.800000m/h.</desc>
<speed>3.000000</speed>
</trkpt>
<trkpt lat="55.993450" lon="26.590704">
<ele>102.592834</ele>
<time>2010-08-29T09:44:32Z</time>
<desc>lat.=55.993450, lon.=26.590704, Alt.=102.592834m. Speed=10.800000m/h.</desc>
<speed>3.000000</speed>
</trkpt>
<trkpt lat="55.993473" lon="26.590685">
<ele>102.821350</ele>
<time>2010-08-29T09:44:33Z</time>
<desc>lat.=55.993473, lon.=26.590685, Alt.=102.821350m. Speed=10.080000m/h.</desc>
<speed>2.800000</speed>
</trkpt>
<trkpt lat="55.993500" lon="26.590672">
<ele>103.014709</ele>
<time>2010-08-29T09:44:34Z</time>
<desc>lat.=55.993500, lon.=26.590672, Alt.=103.014709m. Speed=9.864000m/h.</desc>
<speed>2.740000</speed>
</trkpt>
<trkpt lat="55.993526" lon="26.590654">
<ele>103.018616</ele>
<time>2010-08-29T09:44:35Z</time>
<desc>lat.=55.993526, lon.=26.590654, Alt.=103.018616m. Speed=10.728000m/h.</desc>
<speed>2.980000</speed>
</trkpt>
<trkpt lat="55.993557" lon="26.590639">
<ele>103.098694</ele>
<time>2010-08-29T09:44:36Z</time>
<desc>lat.=55.993557, lon.=26.590639, Alt.=103.098694m. Speed=11.196000m/h.</desc>
<speed>3.110000</speed>
</trkpt>
<trkpt lat="55.993584" lon="26.590624">
<ele>103.172913</ele>
<time>2010-08-29T09:44:37Z</time>
<desc>lat.=55.993584, lon.=26.590624, Alt.=103.172913m. Speed=11.484000m/h.</desc>
<speed>3.190000</speed>
</trkpt>
<trkpt lat="55.993614" lon="26.590603">
<ele>103.047913</ele>
<time>2010-08-29T09:44:38Z</time>
<desc>lat.=55.993614, lon.=26.590603, Alt.=103.047913m. Speed=12.096000m/h.</desc>
<speed>3.360000</speed>
</trkpt>
<trkpt lat="55.993641" lon="26.590584">
<ele>103.026428</ele>
<time>2010-08-29T09:44:39Z</time>
<desc>lat.=55.993641, lon.=26.590584, Alt.=103.026428m. Speed=10.728000m/h.</desc>
<speed>2.980000</speed>
</trkpt>
<trkpt lat="55.993668" lon="26.590569">
<ele>102.911194</ele>
<time>2010-08-29T09:44:40Z</time>
<desc>lat.=55.993668, lon.=26.590569, Alt.=102.911194m. Speed=10.764000m/h.</desc>
<speed>2.990000</speed>
</trkpt>
<trkpt lat="55.993698" lon="26.590555">
<ele>102.774475</ele>
<time>2010-08-29T09:44:41Z</time>
<desc>lat.=55.993698, lon.=26.590555, Alt.=102.774475m. Speed=10.800000m/h.</desc>
<speed>3.000000</speed>
</trkpt>
<trkpt lat="55.993725" lon="26.590542">
<ele>102.708069</ele>
<time>2010-08-29T09:44:42Z</time>
<desc>lat.=55.993725, lon.=26.590542, Alt.=102.708069m. Speed=11.484000m/h.</desc>
<speed>3.190000</speed>
</trkpt>
<trkpt lat="55.993752" lon="26.590525">
<ele>102.684631</ele>
<time>2010-08-29T09:44:43Z</time>
<desc>lat.=55.993752, lon.=26.590525, Alt.=102.684631m. Speed=10.656000m/h.</desc>
<speed>2.960000</speed>
</trkpt>
<trkpt lat="55.993782" lon="26.590509">
<ele>103.936584</ele>
<time>2010-08-29T09:44:44Z</time>
<desc>lat.=55.993782, lon.=26.590509, Alt.=103.936584m. Speed=11.160000m/h.</desc>
<speed>3.100000</speed>
</trkpt>
<trkpt lat="55.993805" lon="26.590492">
<ele>104.065491</ele>
<time>2010-08-29T09:44:45Z</time>
<desc>lat.=55.993805, lon.=26.590492, Alt.=104.065491m. Speed=8.280000m/h.</desc>
<speed>2.300000</speed>
</trkpt>
<trkpt lat="55.993828" lon="26.590481">
<ele>104.098694</ele>
<time>2010-08-29T09:44:46Z</time>
<desc>lat.=55.993828, lon.=26.590481, Alt.=104.098694m. Speed=9.000000m/h.</desc>
<speed>2.500000</speed>
</trkpt>
<trkpt lat="55.993851" lon="26.590471">
<ele>104.106506</ele>
<time>2010-08-29T09:44:47Z</time>
<desc>lat.=55.993851, lon.=26.590471, Alt.=104.106506m. Speed=9.108000m/h.</desc>
<speed>2.530000</speed>
</trkpt>
<trkpt lat="55.993874" lon="26.590467">
<ele>103.840881</ele>
<time>2010-08-29T09:44:48Z</time>
<desc>lat.=55.993874, lon.=26.590467, Alt.=103.840881m. Speed=9.252000m/h.</desc>
<speed>2.570000</speed>
</trkpt>
<trkpt lat="55.993904" lon="26.590464">
<ele>103.444397</ele>
<time>2010-08-29T09:44:49Z</time>
<desc>lat.=55.993904, lon.=26.590464, Alt.=103.444397m. Speed=9.468000m/h.</desc>
<speed>2.630000</speed>
</trkpt>
<trkpt lat="55.993927" lon="26.590458">
<ele>103.112366</ele>
<time>2010-08-29T09:44:50Z</time>
<desc>lat.=55.993927, lon.=26.590458, Alt.=103.112366m. Speed=8.388000m/h.</desc>
<speed>2.330000</speed>
</trkpt>
<trkpt lat="55.993954" lon="26.590446">
<ele>103.102600</ele>
<time>2010-08-29T09:44:51Z</time>
<desc>lat.=55.993954, lon.=26.590446, Alt.=103.102600m. Speed=9.576000m/h.</desc>
<speed>2.660000</speed>
</trkpt>
<trkpt lat="55.993980" lon="26.590446">
<ele>102.821350</ele>
<time>2010-08-29T09:44:52Z</time>
<desc>lat.=55.993980, lon.=26.590446, Alt.=102.821350m. Speed=9.540000m/h.</desc>
<speed>2.650000</speed>
</trkpt>
<trkpt lat="55.994003" lon="26.590441">
<ele>101.971741</ele>
<time>2010-08-29T09:44:53Z</time>
<desc>lat.=55.994003, lon.=26.590441, Alt.=101.971741m. Speed=8.928000m/h.</desc>
<speed>2.480000</speed>
</trkpt>
<trkpt lat="55.994022" lon="26.590429">
<ele>101.821350</ele>
<time>2010-08-29T09:44:54Z</time>
<desc>lat.=55.994022, lon.=26.590429, Alt.=101.821350m. Speed=9.900000m/h.</desc>
<speed>2.750000</speed>
</trkpt>
<trkpt lat="55.994045" lon="26.590416">
<ele>101.518616</ele>
<time>2010-08-29T09:44:55Z</time>
<desc>lat.=55.994045, lon.=26.590416, Alt.=101.518616m. Speed=9.216000m/h.</desc>
<speed>2.560000</speed>
</trkpt>
<trkpt lat="55.994064" lon="26.590401">
<ele>101.530334</ele>
<time>2010-08-29T09:44:56Z</time>
<desc>lat.=55.994064, lon.=26.590401, Alt.=101.530334m. Speed=11.016000m/h.</desc>
<speed>3.060000</speed>
</trkpt>
<trkpt lat="55.994091" lon="26.590382">
<ele>101.485413</ele>
<time>2010-08-29T09:44:57Z</time>
<desc>lat.=55.994091, lon.=26.590382, Alt.=101.485413m. Speed=10.620000m/h.</desc>
<speed>2.950000</speed>
</trkpt>
<trkpt lat="55.994118" lon="26.590364">
<ele>103.047913</ele>
<time>2010-08-29T09:44:58Z</time>
<desc>lat.=55.994118, lon.=26.590364, Alt.=103.047913m. Speed=10.872000m/h.</desc>
<speed>3.020000</speed>
</trkpt>
<trkpt lat="55.994141" lon="26.590351">
<ele>103.071350</ele>
<time>2010-08-29T09:44:59Z</time>
<desc>lat.=55.994141, lon.=26.590351, Alt.=103.071350m. Speed=10.692000m/h.</desc>
<speed>2.970000</speed>
</trkpt>
<trkpt lat="55.994164" lon="26.590336">
<ele>102.967834</ele>
<time>2010-08-29T09:45:00Z</time>
<desc>lat.=55.994164, lon.=26.590336, Alt.=102.967834m. Speed=9.252000m/h.</desc>
<speed>2.570000</speed>
</trkpt>
<trkpt lat="55.994186" lon="26.590317">
<ele>102.684631</ele>
<time>2010-08-29T09:45:01Z</time>
<desc>lat.=55.994186, lon.=26.590317, Alt.=102.684631m. Speed=9.684000m/h.</desc>
<speed>2.690000</speed>
</trkpt>
<trkpt lat="55.994205" lon="26.590302">
<ele>102.610413</ele>
<time>2010-08-29T09:45:02Z</time>
<desc>lat.=55.994205, lon.=26.590302, Alt.=102.610413m. Speed=9.792000m/h.</desc>
<speed>2.720000</speed>
</trkpt>
<trkpt lat="55.994228" lon="26.590284">
<ele>102.618225</ele>
<time>2010-08-29T09:45:03Z</time>
<desc>lat.=55.994228, lon.=26.590284, Alt.=102.618225m. Speed=8.640000m/h.</desc>
<speed>2.400000</speed>
</trkpt>
<trkpt lat="55.994244" lon="26.590267">
<ele>102.807678</ele>
<time>2010-08-29T09:45:04Z</time>
<desc>lat.=55.994244, lon.=26.590267, Alt.=102.807678m. Speed=9.792000m/h.</desc>
<speed>2.720000</speed>
</trkpt>
<trkpt lat="55.994263" lon="26.590254">
<ele>102.604553</ele>
<time>2010-08-29T09:45:05Z</time>
<desc>lat.=55.994263, lon.=26.590254, Alt.=102.604553m. Speed=8.460000m/h.</desc>
<speed>2.350000</speed>
</trkpt>
<trkpt lat="55.994286" lon="26.590242">
<ele>102.436584</ele>
<time>2010-08-29T09:45:06Z</time>
<desc>lat.=55.994286, lon.=26.590242, Alt.=102.436584m. Speed=9.504000m/h.</desc>
<speed>2.640000</speed>
</trkpt>
<trkpt lat="55.994305" lon="26.590229">
<ele>102.358459</ele>
<time>2010-08-29T09:45:07Z</time>
<desc>lat.=55.994305, lon.=26.590229, Alt.=102.358459m. Speed=9.108000m/h.</desc>
<speed>2.530000</speed>
</trkpt>
<trkpt lat="55.994328" lon="26.590214">
<ele>102.118225</ele>
<time>2010-08-29T09:45:08Z</time>
<desc>lat.=55.994328, lon.=26.590214, Alt.=102.118225m. Speed=9.252000m/h.</desc>
<speed>2.570000</speed>
</trkpt>
<trkpt lat="55.994358" lon="26.590191">
<ele>102.110413</ele>
<time>2010-08-29T09:45:09Z</time>
<desc>lat.=55.994358, lon.=26.590191, Alt.=102.110413m. Speed=11.052000m/h.</desc>
<speed>3.070000</speed>
</trkpt>
<trkpt lat="55.994385" lon="26.590168">
<ele>101.928772</ele>
<time>2010-08-29T09:45:10Z</time>
<desc>lat.=55.994385, lon.=26.590168, Alt.=101.928772m. Speed=11.232000m/h.</desc>
<speed>3.120000</speed>
</trkpt>
<trkpt lat="55.994408" lon="26.590143">
<ele>102.036194</ele>
<time>2010-08-29T09:45:11Z</time>
<desc>lat.=55.994408, lon.=26.590143, Alt.=102.036194m. Speed=9.180000m/h.</desc>
<speed>2.550000</speed>
</trkpt>
<trkpt lat="55.994427" lon="26.590128">
<ele>102.208069</ele>
<time>2010-08-29T09:45:12Z</time>
<desc>lat.=55.994427, lon.=26.590128, Alt.=102.208069m. Speed=10.152000m/h.</desc>
<speed>2.820000</speed>
</trkpt>
<trkpt lat="55.994450" lon="26.590107">
<ele>102.247131</ele>
<time>2010-08-29T09:45:13Z</time>
<desc>lat.=55.994450, lon.=26.590107, Alt.=102.247131m. Speed=10.728000m/h.</desc>
<speed>2.980000</speed>
</trkpt>
<trkpt lat="55.994476" lon="26.590090">
<ele>102.139709</ele>
<time>2010-08-29T09:45:14Z</time>
<desc>lat.=55.994476, lon.=26.590090, Alt.=102.139709m. Speed=11.340000m/h.</desc>
<speed>3.150000</speed>
</trkpt>
<trkpt lat="55.994503" lon="26.590069">
<ele>101.934631</ele>
<time>2010-08-29T09:45:15Z</time>
<desc>lat.=55.994503, lon.=26.590069, Alt.=101.934631m. Speed=10.584000m/h.</desc>
<speed>2.940000</speed>
</trkpt>
<trkpt lat="55.994526" lon="26.590052">
<ele>101.956116</ele>
<time>2010-08-29T09:45:16Z</time>
<desc>lat.=55.994526, lon.=26.590052, Alt.=101.956116m. Speed=10.044000m/h.</desc>
<speed>2.790000</speed>
</trkpt>
<trkpt lat="55.994553" lon="26.590036">
<ele>102.528381</ele>
<time>2010-08-29T09:45:17Z</time>
<desc>lat.=55.994553, lon.=26.590036, Alt.=102.528381m. Speed=9.576000m/h.</desc>
<speed>2.660000</speed>
</trkpt>
<trkpt lat="55.994576" lon="26.590027">
<ele>102.715881</ele>
<time>2010-08-29T09:45:18Z</time>
<desc>lat.=55.994576, lon.=26.590027, Alt.=102.715881m. Speed=8.604000m/h.</desc>
<speed>2.390000</speed>
</trkpt>
<trkpt lat="55.994595" lon="26.590015">
<ele>102.766663</ele>
<time>2010-08-29T09:45:19Z</time>
<desc>lat.=55.994595, lon.=26.590015, Alt.=102.766663m. Speed=8.028000m/h.</desc>
<speed>2.230000</speed>
</trkpt>
<trkpt lat="55.994617" lon="26.590004">
<ele>102.719788</ele>
<time>2010-08-29T09:45:20Z</time>
<desc>lat.=55.994617, lon.=26.590004, Alt.=102.719788m. Speed=8.352000m/h.</desc>
<speed>2.320000</speed>
</trkpt>
<trkpt lat="55.994644" lon="26.589991">
<ele>102.749084</ele>
<time>2010-08-29T09:45:21Z</time>
<desc>lat.=55.994644, lon.=26.589991, Alt.=102.749084m. Speed=10.836000m/h.</desc>
<speed>3.010000</speed>
</trkpt>
<trkpt lat="55.994675" lon="26.589977">
<ele>102.598694</ele>
<time>2010-08-29T09:45:22Z</time>
<desc>lat.=55.994675, lon.=26.589977, Alt.=102.598694m. Speed=11.664000m/h.</desc>
<speed>3.240000</speed>
</trkpt>
<trkpt lat="55.994701" lon="26.589960">
<ele>102.407288</ele>
<time>2010-08-29T09:45:23Z</time>
<desc>lat.=55.994701, lon.=26.589960, Alt.=102.407288m. Speed=12.096000m/h.</desc>
<speed>3.360000</speed>
</trkpt>
<trkpt lat="55.994732" lon="26.589943">
<ele>102.502991</ele>
<time>2010-08-29T09:45:24Z</time>
<desc>lat.=55.994732, lon.=26.589943, Alt.=102.502991m. Speed=11.016000m/h.</desc>
<speed>3.060000</speed>
</trkpt>
<trkpt lat="55.994755" lon="26.589928">
<ele>102.463928</ele>
<time>2010-08-29T09:45:25Z</time>
<desc>lat.=55.994755, lon.=26.589928, Alt.=102.463928m. Speed=9.864000m/h.</desc>
<speed>2.740000</speed>
</trkpt>
<trkpt lat="55.994781" lon="26.589912">
<ele>103.450256</ele>
<time>2010-08-29T09:45:26Z</time>
<desc>lat.=55.994781, lon.=26.589912, Alt.=103.450256m. Speed=10.764000m/h.</desc>
<speed>2.990000</speed>
</trkpt>
<trkpt lat="55.994808" lon="26.589897">
<ele>103.655334</ele>
<time>2010-08-29T09:45:27Z</time>
<desc>lat.=55.994808, lon.=26.589897, Alt.=103.655334m. Speed=9.828000m/h.</desc>
<speed>2.730000</speed>
</trkpt>
<trkpt lat="55.994835" lon="26.589884">
<ele>103.891663</ele>
<time>2010-08-29T09:45:28Z</time>
<desc>lat.=55.994835, lon.=26.589884, Alt.=103.891663m. Speed=9.324000m/h.</desc>
<speed>2.590000</speed>
</trkpt>
<trkpt lat="55.994862" lon="26.589861">
<ele>103.743225</ele>
<time>2010-08-29T09:45:29Z</time>
<desc>lat.=55.994862, lon.=26.589861, Alt.=103.743225m. Speed=8.748000m/h.</desc>
<speed>2.430000</speed>
</trkpt>
<trkpt lat="55.994884" lon="26.589846">
<ele>103.651428</ele>
<time>2010-08-29T09:45:30Z</time>
<desc>lat.=55.994884, lon.=26.589846, Alt.=103.651428m. Speed=10.296000m/h.</desc>
<speed>2.860000</speed>
</trkpt>
<trkpt lat="55.994911" lon="26.589830">
<ele>103.797913</ele>
<time>2010-08-29T09:45:31Z</time>
<desc>lat.=55.994911, lon.=26.589830, Alt.=103.797913m. Speed=9.648000m/h.</desc>
<speed>2.680000</speed>
</trkpt>
<trkpt lat="55.994934" lon="26.589813">
<ele>103.874084</ele>
<time>2010-08-29T09:45:32Z</time>
<desc>lat.=55.994934, lon.=26.589813, Alt.=103.874084m. Speed=10.260000m/h.</desc>
<speed>2.850000</speed>
</trkpt>
<trkpt lat="55.994961" lon="26.589800">
<ele>103.678772</ele>
<time>2010-08-29T09:45:33Z</time>
<desc>lat.=55.994961, lon.=26.589800, Alt.=103.678772m. Speed=9.900000m/h.</desc>
<speed>2.750000</speed>
</trkpt>
<trkpt lat="55.994984" lon="26.589783">
<ele>103.335022</ele>
<time>2010-08-29T09:45:34Z</time>
<desc>lat.=55.994984, lon.=26.589783, Alt.=103.335022m. Speed=10.188000m/h.</desc>
<speed>2.830000</speed>
</trkpt>
<trkpt lat="55.995007" lon="26.589766">
<ele>102.985413</ele>
<time>2010-08-29T09:45:35Z</time>
<desc>lat.=55.995007, lon.=26.589766, Alt.=102.985413m. Speed=11.088000m/h.</desc>
<speed>3.080000</speed>
</trkpt>
<trkpt lat="55.995033" lon="26.589746">
<ele>102.749084</ele>
<time>2010-08-29T09:45:36Z</time>
<desc>lat.=55.995033, lon.=26.589746, Alt.=102.749084m. Speed=10.692000m/h.</desc>
<speed>2.970000</speed>
</trkpt>
<trkpt lat="55.995052" lon="26.589725">
<ele>102.614319</ele>
<time>2010-08-29T09:45:37Z</time>
<desc>lat.=55.995052, lon.=26.589725, Alt.=102.614319m. Speed=9.576000m/h.</desc>
<speed>2.660000</speed>
</trkpt>
<trkpt lat="55.995075" lon="26.589699">
<ele>103.024475</ele>
<time>2010-08-29T09:45:38Z</time>
<desc>lat.=55.995075, lon.=26.589699, Alt.=103.024475m. Speed=9.324000m/h.</desc>
<speed>2.590000</speed>
</trkpt>
<trkpt lat="55.995094" lon="26.589672">
<ele>103.883850</ele>
<time>2010-08-29T09:45:39Z</time>
<desc>lat.=55.995094, lon.=26.589672, Alt.=103.883850m. Speed=10.836000m/h.</desc>
<speed>3.010000</speed>
</trkpt>
<trkpt lat="55.995117" lon="26.589640">
<ele>103.977600</ele>
<time>2010-08-29T09:45:40Z</time>
<desc>lat.=55.995117, lon.=26.589640, Alt.=103.977600m. Speed=10.620000m/h.</desc>
<speed>2.950000</speed>
</trkpt>
<trkpt lat="55.995140" lon="26.589609">
<ele>103.680725</ele>
<time>2010-08-29T09:45:41Z</time>
<desc>lat.=55.995140, lon.=26.589609, Alt.=103.680725m. Speed=10.800000m/h.</desc>
<speed>3.000000</speed>
</trkpt>
<trkpt lat="55.995163" lon="26.589575">
<ele>103.743225</ele>
<time>2010-08-29T09:45:42Z</time>
<desc>lat.=55.995163, lon.=26.589575, Alt.=103.743225m. Speed=10.548000m/h.</desc>
<speed>2.930000</speed>
</trkpt>
<trkpt lat="55.995186" lon="26.589537">
<ele>103.686584</ele>
<time>2010-08-29T09:45:43Z</time>
<desc>lat.=55.995186, lon.=26.589537, Alt.=103.686584m. Speed=10.872000m/h.</desc>
<speed>3.020000</speed>
</trkpt>
<trkpt lat="55.995213" lon="26.589502">
<ele>103.588928</ele>
<time>2010-08-29T09:45:44Z</time>
<desc>lat.=55.995213, lon.=26.589502, Alt.=103.588928m. Speed=11.124000m/h.</desc>
<speed>3.090000</speed>
</trkpt>
<trkpt lat="55.995235" lon="26.589472">
<ele>103.127991</ele>
<time>2010-08-29T09:45:45Z</time>
<desc>lat.=55.995235, lon.=26.589472, Alt.=103.127991m. Speed=10.332000m/h.</desc>
<speed>2.870000</speed>
</trkpt>
<trkpt lat="55.995258" lon="26.589445">
<ele>102.946350</ele>
<time>2010-08-29T09:45:46Z</time>
<desc>lat.=55.995258, lon.=26.589445, Alt.=102.946350m. Speed=9.288000m/h.</desc>
<speed>2.580000</speed>
</trkpt>
<trkpt lat="55.995281" lon="26.589417">
<ele>102.700256</ele>
<time>2010-08-29T09:45:47Z</time>
<desc>lat.=55.995281, lon.=26.589417, Alt.=102.700256m. Speed=9.180000m/h.</desc>
<speed>2.550000</speed>
</trkpt>
<trkpt lat="55.995300" lon="26.589386">
<ele>102.555725</ele>
<time>2010-08-29T09:45:48Z</time>
<desc>lat.=55.995300, lon.=26.589386, Alt.=102.555725m. Speed=9.540000m/h.</desc>
<speed>2.650000</speed>
</trkpt>
<trkpt lat="55.995323" lon="26.589350">
<ele>102.684631</ele>
<time>2010-08-29T09:45:49Z</time>
<desc>lat.=55.995323, lon.=26.589350, Alt.=102.684631m. Speed=9.288000m/h.</desc>
<speed>2.580000</speed>
</trkpt>
<trkpt lat="55.995346" lon="26.589327">
<ele>103.833069</ele>
<time>2010-08-29T09:45:50Z</time>
<desc>lat.=55.995346, lon.=26.589327, Alt.=103.833069m. Speed=10.080000m/h.</desc>
<speed>2.800000</speed>
</trkpt>
<trkpt lat="55.995369" lon="26.589304">
<ele>103.907288</ele>
<time>2010-08-29T09:45:51Z</time>
<desc>lat.=55.995369, lon.=26.589304, Alt.=103.907288m. Speed=9.468000m/h.</desc>
<speed>2.630000</speed>
</trkpt>
<trkpt lat="55.995388" lon="26.589272">
<ele>103.752991</ele>
<time>2010-08-29T09:45:52Z</time>
<desc>lat.=55.995388, lon.=26.589272, Alt.=103.752991m. Speed=8.712000m/h.</desc>
<speed>2.420000</speed>
</trkpt>
<trkpt lat="55.995403" lon="26.589245">
<ele>103.889709</ele>
<time>2010-08-29T09:45:53Z</time>
<desc>lat.=55.995403, lon.=26.589245, Alt.=103.889709m. Speed=7.848000m/h.</desc>
<speed>2.180000</speed>
</trkpt>
<trkpt lat="55.995419" lon="26.589216">
<ele>104.110413</ele>
<time>2010-08-29T09:45:54Z</time>
<desc>lat.=55.995419, lon.=26.589216, Alt.=104.110413m. Speed=9.252000m/h.</desc>
<speed>2.570000</speed>
</trkpt>
<trkpt lat="55.995441" lon="26.589182">
<ele>103.961975</ele>
<time>2010-08-29T09:45:55Z</time>
<desc>lat.=55.995441, lon.=26.589182, Alt.=103.961975m. Speed=10.584000m/h.</desc>
<speed>2.940000</speed>
</trkpt>
<trkpt lat="55.995457" lon="26.589151">
<ele>104.174866</ele>
<time>2010-08-29T09:45:56Z</time>
<desc>lat.=55.995457, lon.=26.589151, Alt.=104.174866m. Speed=7.920000m/h.</desc>
<speed>2.200000</speed>
</trkpt>
<trkpt lat="55.995468" lon="26.589123">
<ele>104.329163</ele>
<time>2010-08-29T09:45:57Z</time>
<desc>lat.=55.995468, lon.=26.589123, Alt.=104.329163m. Speed=6.948000m/h.</desc>
<speed>1.930000</speed>
</trkpt>
<trkpt lat="55.995480" lon="26.589104">
<ele>104.622131</ele>
<time>2010-08-29T09:45:58Z</time>
<desc>lat.=55.995480, lon.=26.589104, Alt.=104.622131m. Speed=5.832000m/h.</desc>
<speed>1.620000</speed>
</trkpt>
<trkpt lat="55.995487" lon="26.589075">
<ele>105.547913</ele>
<time>2010-08-29T09:45:59Z</time>
<desc>lat.=55.995487, lon.=26.589075, Alt.=105.547913m. Speed=8.316000m/h.</desc>
<speed>2.310000</speed>
</trkpt>
<trkpt lat="55.995506" lon="26.589043">
<ele>105.682678</ele>
<time>2010-08-29T09:46:00Z</time>
<desc>lat.=55.995506, lon.=26.589043, Alt.=105.682678m. Speed=8.352000m/h.</desc>
<speed>2.320000</speed>
</trkpt>
<trkpt lat="55.995522" lon="26.589020">
<ele>105.729553</ele>
<time>2010-08-29T09:46:01Z</time>
<desc>lat.=55.995522, lon.=26.589020, Alt.=105.729553m. Speed=7.416000m/h.</desc>
<speed>2.060000</speed>
</trkpt>
<trkpt lat="55.995533" lon="26.588995">
<ele>105.874084</ele>
<time>2010-08-29T09:46:02Z</time>
<desc>lat.=55.995533, lon.=26.588995, Alt.=105.874084m. Speed=8.604000m/h.</desc>
<speed>2.390000</speed>
</trkpt>
<trkpt lat="55.995552" lon="26.588974">
<ele>106.178772</ele>
<time>2010-08-29T09:46:03Z</time>
<desc>lat.=55.995552, lon.=26.588974, Alt.=106.178772m. Speed=8.424000m/h.</desc>
<speed>2.340000</speed>
</trkpt>
<trkpt lat="55.995571" lon="26.588945">
<ele>106.335022</ele>
<time>2010-08-29T09:46:04Z</time>
<desc>lat.=55.995571, lon.=26.588945, Alt.=106.335022m. Speed=8.208000m/h.</desc>
<speed>2.280000</speed>
</trkpt>
<trkpt lat="55.995586" lon="26.588917">
<ele>106.596741</ele>
<time>2010-08-29T09:46:05Z</time>
<desc>lat.=55.995586, lon.=26.588917, Alt.=106.596741m. Speed=8.604000m/h.</desc>
<speed>2.390000</speed>
</trkpt>
<trkpt lat="55.995617" lon="26.588890">
<ele>106.108459</ele>
<time>2010-08-29T09:46:06Z</time>
<desc>lat.=55.995617, lon.=26.588890, Alt.=106.108459m. Speed=8.892000m/h.</desc>
<speed>2.470000</speed>
</trkpt>
<trkpt lat="55.995647" lon="26.588858">
<ele>105.911194</ele>
<time>2010-08-29T09:46:07Z</time>
<desc>lat.=55.995647, lon.=26.588858, Alt.=105.911194m. Speed=10.476000m/h.</desc>
<speed>2.910000</speed>
</trkpt>
<trkpt lat="55.995670" lon="26.588829">
<ele>105.797913</ele>
<time>2010-08-29T09:46:08Z</time>
<desc>lat.=55.995670, lon.=26.588829, Alt.=105.797913m. Speed=8.316000m/h.</desc>
<speed>2.310000</speed>
</trkpt>
<trkpt lat="55.995689" lon="26.588812">
<ele>105.786194</ele>
<time>2010-08-29T09:46:09Z</time>
<desc>lat.=55.995689, lon.=26.588812, Alt.=105.786194m. Speed=5.472000m/h.</desc>
<speed>1.520000</speed>
</trkpt>
<trkpt lat="55.995708" lon="26.588799">
<ele>105.879944</ele>
<time>2010-08-29T09:46:10Z</time>
<desc>lat.=55.995708, lon.=26.588799, Alt.=105.879944m. Speed=8.244000m/h.</desc>
<speed>2.290000</speed>
</trkpt>
<trkpt lat="55.995735" lon="26.588768">
<ele>105.803772</ele>
<time>2010-08-29T09:46:11Z</time>
<desc>lat.=55.995735, lon.=26.588768, Alt.=105.803772m. Speed=8.064000m/h.</desc>
<speed>2.240000</speed>
</trkpt>
<trkpt lat="55.995750" lon="26.588747">
<ele>105.963928</ele>
<time>2010-08-29T09:46:12Z</time>
<desc>lat.=55.995750, lon.=26.588747, Alt.=105.963928m. Speed=7.596000m/h.</desc>
<speed>2.110000</speed>
</trkpt>
<trkpt lat="55.995766" lon="26.588728">
<ele>106.147522</ele>
<time>2010-08-29T09:46:13Z</time>
<desc>lat.=55.995766, lon.=26.588728, Alt.=106.147522m. Speed=5.148000m/h.</desc>
<speed>1.430000</speed>
</trkpt>
<trkpt lat="55.995792" lon="26.588717">
<ele>106.272522</ele>
<time>2010-08-29T09:46:14Z</time>
<desc>lat.=55.995792, lon.=26.588717, Alt.=106.272522m. Speed=5.976000m/h.</desc>
<speed>1.660000</speed>
</trkpt>
<trkpt lat="55.995815" lon="26.588709">
<ele>106.329163</ele>
<time>2010-08-29T09:46:15Z</time>
<desc>lat.=55.995815, lon.=26.588709, Alt.=106.329163m. Speed=7.668000m/h.</desc>
<speed>2.130000</speed>
</trkpt>
<trkpt lat="55.995834" lon="26.588703">
<ele>106.544006</ele>
<time>2010-08-29T09:46:16Z</time>
<desc>lat.=55.995834, lon.=26.588703, Alt.=106.544006m. Speed=6.516000m/h.</desc>
<speed>1.810000</speed>
</trkpt>
<trkpt lat="55.995850" lon="26.588715">
<ele>106.643616</ele>
<time>2010-08-29T09:46:17Z</time>
<desc>lat.=55.995850, lon.=26.588715, Alt.=106.643616m. Speed=6.516000m/h.</desc>
<speed>1.810000</speed>
</trkpt>
<trkpt lat="55.995869" lon="26.588724">
<ele>106.782288</ele>
<time>2010-08-29T09:46:18Z</time>
<desc>lat.=55.995869, lon.=26.588724, Alt.=106.782288m. Speed=8.028000m/h.</desc>
<speed>2.230000</speed>
</trkpt>
<trkpt lat="55.995895" lon="26.588741">
<ele>106.825256</ele>
<time>2010-08-29T09:46:19Z</time>
<desc>lat.=55.995895, lon.=26.588741, Alt.=106.825256m. Speed=8.820000m/h.</desc>
<speed>2.450000</speed>
</trkpt>
<trkpt lat="55.995911" lon="26.588760">
<ele>106.903381</ele>
<time>2010-08-29T09:46:20Z</time>
<desc>lat.=55.995911, lon.=26.588760, Alt.=106.903381m. Speed=7.704000m/h.</desc>
<speed>2.140000</speed>
</trkpt>
<trkpt lat="55.995934" lon="26.588770">
<ele>107.051819</ele>
<time>2010-08-29T09:46:21Z</time>
<desc>lat.=55.995934, lon.=26.588770, Alt.=107.051819m. Speed=8.064000m/h.</desc>
<speed>2.240000</speed>
</trkpt>
<trkpt lat="55.995953" lon="26.588789">
<ele>106.991272</ele>
<time>2010-08-29T09:46:22Z</time>
<desc>lat.=55.995953, lon.=26.588789, Alt.=106.991272m. Speed=7.812000m/h.</desc>
<speed>2.170000</speed>
</trkpt>
<trkpt lat="55.995964" lon="26.588808">
<ele>107.360413</ele>
<time>2010-08-29T09:46:23Z</time>
<desc>lat.=55.995964, lon.=26.588808, Alt.=107.360413m. Speed=7.164000m/h.</desc>
<speed>1.990000</speed>
</trkpt>
<trkpt lat="55.995983" lon="26.588818">
<ele>107.643616</ele>
<time>2010-08-29T09:46:24Z</time>
<desc>lat.=55.995983, lon.=26.588818, Alt.=107.643616m. Speed=7.524000m/h.</desc>
<speed>2.090000</speed>
</trkpt>
<trkpt lat="55.996025" lon="26.588812">
<ele>107.862366</ele>
<time>2010-08-29T09:46:25Z</time>
<desc>lat.=55.996025, lon.=26.588812, Alt.=107.862366m. Speed=6.912000m/h.</desc>
<speed>1.920000</speed>
</trkpt>
<trkpt lat="55.996071" lon="26.588799">
<ele>108.686584</ele>
<time>2010-08-29T09:46:26Z</time>
<desc>lat.=55.996071, lon.=26.588799, Alt.=108.686584m. Speed=6.444000m/h.</desc>
<speed>1.790000</speed>
</trkpt>
<trkpt lat="55.996086" lon="26.588806">
<ele>109.403381</ele>
<time>2010-08-29T09:46:27Z</time>
<desc>lat.=55.996086, lon.=26.588806, Alt.=109.403381m. Speed=3.744000m/h.</desc>
<speed>1.040000</speed>
</trkpt>
<trkpt lat="55.996109" lon="26.588816">
<ele>109.795959</ele>
<time>2010-08-29T09:46:28Z</time>
<desc>lat.=55.996109, lon.=26.588816, Alt.=109.795959m. Speed=4.932000m/h.</desc>
<speed>1.370000</speed>
</trkpt>
<trkpt lat="55.996128" lon="26.588840">
<ele>110.020569</ele>
<time>2010-08-29T09:46:29Z</time>
<desc>lat.=55.996128, lon.=26.588840, Alt.=110.020569m. Speed=5.148000m/h.</desc>
<speed>1.430000</speed>
</trkpt>
<trkpt lat="55.996136" lon="26.588860">
<ele>110.415100</ele>
<time>2010-08-29T09:46:30Z</time>
<desc>lat.=55.996136, lon.=26.588860, Alt.=110.415100m. Speed=3.816000m/h.</desc>
<speed>1.060000</speed>
</trkpt>
<trkpt lat="55.996155" lon="26.588877">
<ele>110.294006</ele>
<time>2010-08-29T09:46:31Z</time>
<desc>lat.=55.996155, lon.=26.588877, Alt.=110.294006m. Speed=4.788000m/h.</desc>
<speed>1.330000</speed>
</trkpt>
<trkpt lat="55.996170" lon="26.588892">
<ele>110.268616</ele>
<time>2010-08-29T09:46:32Z</time>
<desc>lat.=55.996170, lon.=26.588892, Alt.=110.268616m. Speed=5.724000m/h.</desc>
<speed>1.590000</speed>
</trkpt>
<trkpt lat="55.996197" lon="26.588894">
<ele>110.479553</ele>
<time>2010-08-29T09:46:33Z</time>
<desc>lat.=55.996197, lon.=26.588894, Alt.=110.479553m. Speed=6.588000m/h.</desc>
<speed>1.830000</speed>
</trkpt>
<trkpt lat="55.996212" lon="26.588903">
<ele>110.563538</ele>
<time>2010-08-29T09:46:34Z</time>
<desc>lat.=55.996212, lon.=26.588903, Alt.=110.563538m. Speed=5.004000m/h.</desc>
<speed>1.390000</speed>
</trkpt>
<trkpt lat="55.996223" lon="26.588917">
<ele>110.711975</ele>
<time>2010-08-29T09:46:35Z</time>
<desc>lat.=55.996223, lon.=26.588917, Alt.=110.711975m. Speed=4.608000m/h.</desc>
<speed>1.280000</speed>
</trkpt>
<trkpt lat="55.996239" lon="26.588942">
<ele>111.065491</ele>
<time>2010-08-29T09:46:36Z</time>
<desc>lat.=55.996239, lon.=26.588942, Alt.=111.065491m. Speed=7.416000m/h.</desc>
<speed>2.060000</speed>
</trkpt>
<trkpt lat="55.996254" lon="26.588970">
<ele>111.202209</ele>
<time>2010-08-29T09:46:37Z</time>
<desc>lat.=55.996254, lon.=26.588970, Alt.=111.202209m. Speed=8.028000m/h.</desc>
<speed>2.230000</speed>
</trkpt>
<trkpt lat="55.996277" lon="26.588995">
<ele>111.329163</ele>
<time>2010-08-29T09:46:38Z</time>
<desc>lat.=55.996277, lon.=26.588995, Alt.=111.329163m. Speed=8.820000m/h.</desc>
<speed>2.450000</speed>
</trkpt>
<trkpt lat="55.996292" lon="26.589024">
<ele>111.297913</ele>
<time>2010-08-29T09:46:39Z</time>
<desc>lat.=55.996292, lon.=26.589024, Alt.=111.297913m. Speed=5.904000m/h.</desc>
<speed>1.640000</speed>
</trkpt>
<trkpt lat="55.996307" lon="26.589031">
<ele>111.370178</ele>
<time>2010-08-29T09:46:40Z</time>
<desc>lat.=55.996307, lon.=26.589031, Alt.=111.370178m. Speed=3.492000m/h.</desc>
<speed>0.970000</speed>
</trkpt>
<trkpt lat="55.996323" lon="26.589035">
<ele>111.303772</ele>
<time>2010-08-29T09:46:41Z</time>
<desc>lat.=55.996323, lon.=26.589035, Alt.=111.303772m. Speed=1.908000m/h.</desc>
<speed>0.530000</speed>
</trkpt>
<trkpt lat="55.996334" lon="26.589045">
<ele>111.604553</ele>
<time>2010-08-29T09:46:42Z</time>
<desc>lat.=55.996334, lon.=26.589045, Alt.=111.604553m. Speed=1.728000m/h.</desc>
<speed>0.480000</speed>
</trkpt>
<trkpt lat="55.996334" lon="26.589056">
<ele>111.651428</ele>
<time>2010-08-29T09:46:43Z</time>
<desc>lat.=55.996334, lon.=26.589056, Alt.=111.651428m. Speed=1.224000m/h.</desc>
<speed>0.340000</speed>
</trkpt>
<trkpt lat="55.996338" lon="26.589052">
<ele>111.624084</ele>
<time>2010-08-29T09:46:44Z</time>
<desc>lat.=55.996338, lon.=26.589052, Alt.=111.624084m. Speed=0.864000m/h.</desc>
<speed>0.240000</speed>
</trkpt>
<trkpt lat="55.996338" lon="26.589050">
<ele>111.577209</ele>
<time>2010-08-29T09:46:45Z</time>
<desc>lat.=55.996338, lon.=26.589050, Alt.=111.577209m. Speed=0.396000m/h.</desc>
<speed>0.110000</speed>
</trkpt>
<trkpt lat="55.996342" lon="26.589050">
<ele>111.536194</ele>
<time>2010-08-29T09:46:46Z</time>
<desc>lat.=55.996342, lon.=26.589050, Alt.=111.536194m. Speed=0.288000m/h.</desc>
<speed>0.080000</speed>
</trkpt>
<trkpt lat="55.996342" lon="26.589048">
<ele>111.518616</ele>
<time>2010-08-29T09:46:47Z</time>
<desc>lat.=55.996342, lon.=26.589048, Alt.=111.518616m. Speed=0.180000m/h.</desc>
<speed>0.050000</speed>
</trkpt>
<trkpt lat="55.996338" lon="26.589048">
<ele>111.501038</ele>
<time>2010-08-29T09:46:48Z</time>
<desc>lat.=55.996338, lon.=26.589048, Alt.=111.501038m. Speed=0.072000m/h.</desc>
<speed>0.020000</speed>
</trkpt>
<trkpt lat="55.996338" lon="26.589048">
<ele>111.497131</ele>
<time>2010-08-29T09:46:49Z</time>
<desc>lat.=55.996338, lon.=26.589048, Alt.=111.497131m. Speed=0.180000m/h.</desc>
<speed>0.050000</speed>
</trkpt>
<trkpt lat="55.996338" lon="26.589048">
<ele>111.495178</ele>
<time>2010-08-29T09:46:50Z</time>
<desc>lat.=55.996338, lon.=26.589048, Alt.=111.495178m. Speed=1.584000m/h.</desc>
<speed>0.440000</speed>
</trkpt>
<trkpt lat="55.996342" lon="26.589045">
<ele>111.471741</ele>
<time>2010-08-29T09:46:51Z</time>
<desc>lat.=55.996342, lon.=26.589045, Alt.=111.471741m. Speed=3.060000m/h.</desc>
<speed>0.850000</speed>
</trkpt>
<trkpt lat="55.996349" lon="26.589039">
<ele>111.450256</ele>
<time>2010-08-29T09:46:52Z</time>
<desc>lat.=55.996349, lon.=26.589039, Alt.=111.450256m. Speed=2.988000m/h.</desc>
<speed>0.830000</speed>
</trkpt>
<trkpt lat="55.996357" lon="26.589035">
<ele>111.413147</ele>
<time>2010-08-29T09:46:53Z</time>
<desc>lat.=55.996357, lon.=26.589035, Alt.=111.413147m. Speed=2.340000m/h.</desc>
<speed>0.650000</speed>
</trkpt>
<trkpt lat="55.996365" lon="26.589037">
<ele>111.368225</ele>
<time>2010-08-29T09:46:54Z</time>
<desc>lat.=55.996365, lon.=26.589037, Alt.=111.368225m. Speed=2.556000m/h.</desc>
<speed>0.710000</speed>
</trkpt>
<trkpt lat="55.996368" lon="26.589037">
<ele>111.327209</ele>
<time>2010-08-29T09:46:55Z</time>
<desc>lat.=55.996368, lon.=26.589037, Alt.=111.327209m. Speed=2.592000m/h.</desc>
<speed>0.720000</speed>
</trkpt>
<trkpt lat="55.996376" lon="26.589037">
<ele>111.286194</ele>
<time>2010-08-29T09:46:56Z</time>
<desc>lat.=55.996376, lon.=26.589037, Alt.=111.286194m. Speed=3.384000m/h.</desc>
<speed>0.940000</speed>
</trkpt>
<trkpt lat="55.996384" lon="26.589043">
<ele>111.169006</ele>
<time>2010-08-29T09:46:57Z</time>
<desc>lat.=55.996384, lon.=26.589043, Alt.=111.169006m. Speed=3.276000m/h.</desc>
<speed>0.910000</speed>
</trkpt>
<trkpt lat="55.996391" lon="26.589046">
<ele>110.991272</ele>
<time>2010-08-29T09:46:58Z</time>
<desc>lat.=55.996391, lon.=26.589046, Alt.=110.991272m. Speed=1.872000m/h.</desc>
<speed>0.520000</speed>
</trkpt>
<trkpt lat="55.996395" lon="26.589050">
<ele>110.827209</ele>
<time>2010-08-29T09:46:59Z</time>
<desc>lat.=55.996395, lon.=26.589050, Alt.=110.827209m. Speed=2.592000m/h.</desc>
<speed>0.720000</speed>
</trkpt>
<trkpt lat="55.996403" lon="26.589050">
<ele>110.684631</ele>
<time>2010-08-29T09:47:00Z</time>
<desc>lat.=55.996403, lon.=26.589050, Alt.=110.684631m. Speed=2.268000m/h.</desc>
<speed>0.630000</speed>
</trkpt>
<trkpt lat="55.996410" lon="26.589050">
<ele>110.557678</ele>
<time>2010-08-29T09:47:01Z</time>
<desc>lat.=55.996410, lon.=26.589050, Alt.=110.557678m. Speed=1.980000m/h.</desc>
<speed>0.550000</speed>
</trkpt>
<trkpt lat="55.996414" lon="26.589048">
<ele>110.452209</ele>
<time>2010-08-29T09:47:02Z</time>
<desc>lat.=55.996414, lon.=26.589048, Alt.=110.452209m. Speed=1.764000m/h.</desc>
<speed>0.490000</speed>
</trkpt>
<trkpt lat="55.996418" lon="26.589046">
<ele>110.350647</ele>
<time>2010-08-29T09:47:03Z</time>
<desc>lat.=55.996418, lon.=26.589046, Alt.=110.350647m. Speed=1.656000m/h.</desc>
<speed>0.460000</speed>
</trkpt>
<trkpt lat="55.996422" lon="26.589046">
<ele>110.270569</ele>
<time>2010-08-29T09:47:04Z</time>
<desc>lat.=55.996422, lon.=26.589046, Alt.=110.270569m. Speed=1.800000m/h.</desc>
<speed>0.500000</speed>
</trkpt>
<trkpt lat="55.996426" lon="26.589043">
<ele>110.196350</ele>
<time>2010-08-29T09:47:05Z</time>
<desc>lat.=55.996426, lon.=26.589043, Alt.=110.196350m. Speed=1.152000m/h.</desc>
<speed>0.320000</speed>
</trkpt>
<trkpt lat="55.996429" lon="26.589041">
<ele>110.137756</ele>
<time>2010-08-29T09:47:06Z</time>
<desc>lat.=55.996429, lon.=26.589041, Alt.=110.137756m. Speed=1.008000m/h.</desc>
<speed>0.280000</speed>
</trkpt>
<trkpt lat="55.996433" lon="26.589041">
<ele>110.092834</ele>
<time>2010-08-29T09:47:07Z</time>
<desc>lat.=55.996433, lon.=26.589041, Alt.=110.092834m. Speed=1.476000m/h.</desc>
<speed>0.410000</speed>
</trkpt>
<trkpt lat="55.996437" lon="26.589041">
<ele>110.053772</ele>
<time>2010-08-29T09:47:08Z</time>
<desc>lat.=55.996437, lon.=26.589041, Alt.=110.053772m. Speed=1.404000m/h.</desc>
<speed>0.390000</speed>
</trkpt>
<trkpt lat="55.996441" lon="26.589041">
<ele>110.016663</ele>
<time>2010-08-29T09:47:09Z</time>
<desc>lat.=55.996441, lon.=26.589041, Alt.=110.016663m. Speed=1.656000m/h.</desc>
<speed>0.460000</speed>
</trkpt>
<trkpt lat="55.996445" lon="26.589043">
<ele>109.981506</ele>
<time>2010-08-29T09:47:10Z</time>
<desc>lat.=55.996445, lon.=26.589043, Alt.=109.981506m. Speed=0.864000m/h.</desc>
<speed>0.240000</speed>
</trkpt>
<trkpt lat="55.996445" lon="26.589043">
<ele>109.938538</ele>
<time>2010-08-29T09:47:11Z</time>
<desc>lat.=55.996445, lon.=26.589043, Alt.=109.938538m. Speed=0.252000m/h.</desc>
<speed>0.070000</speed>
</trkpt>
<trkpt lat="55.996445" lon="26.589045">
<ele>109.913147</ele>
<time>2010-08-29T09:47:12Z</time>
<desc>lat.=55.996445, lon.=26.589045, Alt.=109.913147m. Speed=0.504000m/h.</desc>
<speed>0.140000</speed>
</trkpt>
<trkpt lat="55.996445" lon="26.589045">
<ele>109.897522</ele>
<time>2010-08-29T09:47:13Z</time>
<desc>lat.=55.996445, lon.=26.589045, Alt.=109.897522m. Speed=0.504000m/h.</desc>
<speed>0.140000</speed>
</trkpt>
<trkpt lat="55.996445" lon="26.589046">
<ele>109.893616</ele>
<time>2010-08-29T09:47:14Z</time>
<desc>lat.=55.996445, lon.=26.589046, Alt.=109.893616m. Speed=0.756000m/h.</desc>
<speed>0.210000</speed>
</trkpt>
<trkpt lat="55.996445" lon="26.589048">
<ele>109.897522</ele>
<time>2010-08-29T09:47:15Z</time>
<desc>lat.=55.996445, lon.=26.589048, Alt.=109.897522m. Speed=0.864000m/h.</desc>
<speed>0.240000</speed>
</trkpt>
<trkpt lat="55.996445" lon="26.589052">
<ele>109.901428</ele>
<time>2010-08-29T09:47:16Z</time>
<desc>lat.=55.996445, lon.=26.589052, Alt.=109.901428m. Speed=1.404000m/h.</desc>
<speed>0.390000</speed>
</trkpt>
<trkpt lat="55.996449" lon="26.589054">
<ele>109.903381</ele>
<time>2010-08-29T09:47:17Z</time>
<desc>lat.=55.996449, lon.=26.589054, Alt.=109.903381m. Speed=2.340000m/h.</desc>
<speed>0.650000</speed>
</trkpt>
<trkpt lat="55.996452" lon="26.589058">
<ele>109.905334</ele>
<time>2010-08-29T09:47:18Z</time>
<desc>lat.=55.996452, lon.=26.589058, Alt.=109.905334m. Speed=2.412000m/h.</desc>
<speed>0.670000</speed>
</trkpt>
<trkpt lat="55.996460" lon="26.589064">
<ele>109.958069</ele>
<time>2010-08-29T09:47:19Z</time>
<desc>lat.=55.996460, lon.=26.589064, Alt.=109.958069m. Speed=2.160000m/h.</desc>
<speed>0.600000</speed>
</trkpt>
<trkpt lat="55.996464" lon="26.589067">
<ele>110.020569</ele>
<time>2010-08-29T09:47:20Z</time>
<desc>lat.=55.996464, lon.=26.589067, Alt.=110.020569m. Speed=1.620000m/h.</desc>
<speed>0.450000</speed>
</trkpt>
<trkpt lat="55.996468" lon="26.589069">
<ele>110.086975</ele>
<time>2010-08-29T09:47:21Z</time>
<desc>lat.=55.996468, lon.=26.589069, Alt.=110.086975m. Speed=1.512000m/h.</desc>
<speed>0.420000</speed>
</trkpt>
<trkpt lat="55.996471" lon="26.589073">
<ele>110.155334</ele>
<time>2010-08-29T09:47:22Z</time>
<desc>lat.=55.996471, lon.=26.589073, Alt.=110.155334m. Speed=1.512000m/h.</desc>
<speed>0.420000</speed>
</trkpt>
<trkpt lat="55.996471" lon="26.589077">
<ele>110.225647</ele>
<time>2010-08-29T09:47:23Z</time>
<desc>lat.=55.996471, lon.=26.589077, Alt.=110.225647m. Speed=1.728000m/h.</desc>
<speed>0.480000</speed>
</trkpt>
<trkpt lat="55.996475" lon="26.589083">
<ele>110.295959</ele>
<time>2010-08-29T09:47:24Z</time>
<desc>lat.=55.996475, lon.=26.589083, Alt.=110.295959m. Speed=1.584000m/h.</desc>
<speed>0.440000</speed>
</trkpt>
<trkpt lat="55.996479" lon="26.589088">
<ele>110.366272</ele>
<time>2010-08-29T09:47:25Z</time>
<desc>lat.=55.996479, lon.=26.589088, Alt.=110.366272m. Speed=2.592000m/h.</desc>
<speed>0.720000</speed>
</trkpt>
<trkpt lat="55.996487" lon="26.589094">
<ele>110.442444</ele>
<time>2010-08-29T09:47:26Z</time>
<desc>lat.=55.996487, lon.=26.589094, Alt.=110.442444m. Speed=2.448000m/h.</desc>
<speed>0.680000</speed>
</trkpt>
<trkpt lat="55.996490" lon="26.589102">
<ele>110.520569</ele>
<time>2010-08-29T09:47:27Z</time>
<desc>lat.=55.996490, lon.=26.589102, Alt.=110.520569m. Speed=3.240000m/h.</desc>
<speed>0.900000</speed>
</trkpt>
<trkpt lat="55.996498" lon="26.589106">
<ele>110.596741</ele>
<time>2010-08-29T09:47:28Z</time>
<desc>lat.=55.996498, lon.=26.589106, Alt.=110.596741m. Speed=3.672000m/h.</desc>
<speed>1.020000</speed>
</trkpt>
<trkpt lat="55.996502" lon="26.589121">
<ele>110.831116</ele>
<time>2010-08-29T09:47:29Z</time>
<desc>lat.=55.996502, lon.=26.589121, Alt.=110.831116m. Speed=3.528000m/h.</desc>
<speed>0.980000</speed>
</trkpt>
<trkpt lat="55.996513" lon="26.589136">
<ele>111.040100</ele>
<time>2010-08-29T09:47:30Z</time>
<desc>lat.=55.996513, lon.=26.589136, Alt.=111.040100m. Speed=3.708000m/h.</desc>
<speed>1.030000</speed>
</trkpt>
<trkpt lat="55.996525" lon="26.589151">
<ele>111.239319</ele>
<time>2010-08-29T09:47:31Z</time>
<desc>lat.=55.996525, lon.=26.589151, Alt.=111.239319m. Speed=3.888000m/h.</desc>
<speed>1.080000</speed>
</trkpt>
<trkpt lat="55.996532" lon="26.589172">
<ele>111.444397</ele>
<time>2010-08-29T09:47:32Z</time>
<desc>lat.=55.996532, lon.=26.589172, Alt.=111.444397m. Speed=4.140000m/h.</desc>
<speed>1.150000</speed>
</trkpt>
<trkpt lat="55.996544" lon="26.589199">
<ele>111.586975</ele>
<time>2010-08-29T09:47:33Z</time>
<desc>lat.=55.996544, lon.=26.589199, Alt.=111.586975m. Speed=4.572000m/h.</desc>
<speed>1.270000</speed>
</trkpt>
<trkpt lat="55.996548" lon="26.589231">
<ele>111.786194</ele>
<time>2010-08-29T09:47:34Z</time>
<desc>lat.=55.996548, lon.=26.589231, Alt.=111.786194m. Speed=4.464000m/h.</desc>
<speed>1.240000</speed>
</trkpt>
<trkpt lat="55.996563" lon="26.589254">
<ele>111.856506</ele>
<time>2010-08-29T09:47:35Z</time>
<desc>lat.=55.996563, lon.=26.589254, Alt.=111.856506m. Speed=4.104000m/h.</desc>
<speed>1.140000</speed>
</trkpt>
<trkpt lat="55.996578" lon="26.589275">
<ele>111.967834</ele>
<time>2010-08-29T09:47:36Z</time>
<desc>lat.=55.996578, lon.=26.589275, Alt.=111.967834m. Speed=3.420000m/h.</desc>
<speed>0.950000</speed>
</trkpt>
<trkpt lat="55.996609" lon="26.589325">
<ele>112.237366</ele>
<time>2010-08-29T09:47:37Z</time>
<desc>lat.=55.996609, lon.=26.589325, Alt.=112.237366m. Speed=2.484000m/h.</desc>
<speed>0.690000</speed>
</trkpt>
<trkpt lat="55.996605" lon="26.589352">
<ele>112.133850</ele>
<time>2010-08-29T09:47:38Z</time>
<desc>lat.=55.996605, lon.=26.589352, Alt.=112.133850m. Speed=0.828000m/h.</desc>
<speed>0.230000</speed>
</trkpt>
<trkpt lat="55.996609" lon="26.589350">
<ele>112.475647</ele>
<time>2010-08-29T09:47:39Z</time>
<desc>lat.=55.996609, lon.=26.589350, Alt.=112.475647m. Speed=0.540000m/h.</desc>
<speed>0.150000</speed>
</trkpt>
<trkpt lat="55.996613" lon="26.589369">
<ele>112.633850</ele>
<time>2010-08-29T09:47:40Z</time>
<desc>lat.=55.996613, lon.=26.589369, Alt.=112.633850m. Speed=0.612000m/h.</desc>
<speed>0.170000</speed>
</trkpt>
<trkpt lat="55.996613" lon="26.589375">
<ele>113.063538</ele>
<time>2010-08-29T09:47:41Z</time>
<desc>lat.=55.996613, lon.=26.589375, Alt.=113.063538m. Speed=0.108000m/h.</desc>
<speed>0.030000</speed>
</trkpt>
<trkpt lat="55.996613" lon="26.589375">
<ele>113.094788</ele>
<time>2010-08-29T09:47:42Z</time>
<desc>lat.=55.996613, lon.=26.589375, Alt.=113.094788m. Speed=0.036000m/h.</desc>
<speed>0.010000</speed>
</trkpt>
<trkpt lat="55.996613" lon="26.589375">
<ele>113.143616</ele>
<time>2010-08-29T09:47:43Z</time>
<desc>lat.=55.996613, lon.=26.589375, Alt.=113.143616m. Speed=0.360000m/h.</desc>
<speed>0.100000</speed>
</trkpt>
<trkpt lat="55.996613" lon="26.589376">
<ele>113.170959</ele>
<time>2010-08-29T09:47:44Z</time>
<desc>lat.=55.996613, lon.=26.589376, Alt.=113.170959m. Speed=0.540000m/h.</desc>
<speed>0.150000</speed>
</trkpt>
<trkpt lat="55.996616" lon="26.589380">
<ele>113.208069</ele>
<time>2010-08-29T09:47:45Z</time>
<desc>lat.=55.996616, lon.=26.589380, Alt.=113.208069m. Speed=1.080000m/h.</desc>
<speed>0.300000</speed>
</trkpt>
<trkpt lat="55.996628" lon="26.589394">
<ele>113.274475</ele>
<time>2010-08-29T09:47:46Z</time>
<desc>lat.=55.996628, lon.=26.589394, Alt.=113.274475m. Speed=0.828000m/h.</desc>
<speed>0.230000</speed>
</trkpt>
<trkpt lat="55.996639" lon="26.589401">
<ele>113.284241</ele>
<time>2010-08-29T09:47:47Z</time>
<desc>lat.=55.996639, lon.=26.589401, Alt.=113.284241m. Speed=0.900000m/h.</desc>
<speed>0.250000</speed>
</trkpt>
<trkpt lat="55.996647" lon="26.589422">
<ele>113.272522</ele>
<time>2010-08-29T09:47:48Z</time>
<desc>lat.=55.996647, lon.=26.589422, Alt.=113.272522m. Speed=1.008000m/h.</desc>
<speed>0.280000</speed>
</trkpt>
<trkpt lat="55.996647" lon="26.589437">
<ele>113.883850</ele>
<time>2010-08-29T09:47:49Z</time>
<desc>lat.=55.996647, lon.=26.589437, Alt.=113.883850m. Speed=1.080000m/h.</desc>
<speed>0.300000</speed>
</trkpt>
<trkpt lat="55.996647" lon="26.589449">
<ele>114.120178</ele>
<time>2010-08-29T09:47:50Z</time>
<desc>lat.=55.996647, lon.=26.589449, Alt.=114.120178m. Speed=0.792000m/h.</desc>
<speed>0.220000</speed>
</trkpt>
<trkpt lat="55.996651" lon="26.589457">
<ele>114.116272</ele>
<time>2010-08-29T09:47:51Z</time>
<desc>lat.=55.996651, lon.=26.589457, Alt.=114.116272m. Speed=0.072000m/h.</desc>
<speed>0.020000</speed>
</trkpt>
<trkpt lat="55.996662" lon="26.589464">
<ele>114.438538</ele>
<time>2010-08-29T09:47:52Z</time>
<desc>lat.=55.996662, lon.=26.589464, Alt.=114.438538m. Speed=0.108000m/h.</desc>
<speed>0.030000</speed>
</trkpt>
<trkpt lat="55.996670" lon="26.589474">
<ele>114.516663</ele>
<time>2010-08-29T09:47:53Z</time>
<desc>lat.=55.996670, lon.=26.589474, Alt.=114.516663m. Speed=0.396000m/h.</desc>
<speed>0.110000</speed>
</trkpt>
<trkpt lat="55.996670" lon="26.589476">
<ele>114.510803</ele>
<time>2010-08-29T09:47:54Z</time>
<desc>lat.=55.996670, lon.=26.589476, Alt.=114.510803m. Speed=0.216000m/h.</desc>
<speed>0.060000</speed>
</trkpt>
<trkpt lat="55.996670" lon="26.589478">
<ele>114.504944</ele>
<time>2010-08-29T09:47:55Z</time>
<desc>lat.=55.996670, lon.=26.589478, Alt.=114.504944m. Speed=0.468000m/h.</desc>
<speed>0.130000</speed>
</trkpt>
<trkpt lat="55.996670" lon="26.589479">
<ele>114.526428</ele>
<time>2010-08-29T09:47:56Z</time>
<desc>lat.=55.996670, lon.=26.589479, Alt.=114.526428m. Speed=0.072000m/h.</desc>
<speed>0.020000</speed>
</trkpt>
<trkpt lat="55.996670" lon="26.589479">
<ele>114.534241</ele>
<time>2010-08-29T09:47:57Z</time>
<desc>lat.=55.996670, lon.=26.589479, Alt.=114.534241m. Speed=0.396000m/h.</desc>
<speed>0.110000</speed>
</trkpt>
<trkpt lat="55.996670" lon="26.589478">
<ele>114.545959</ele>
<time>2010-08-29T09:47:58Z</time>
<desc>lat.=55.996670, lon.=26.589478, Alt.=114.545959m. Speed=0.216000m/h.</desc>
<speed>0.060000</speed>
</trkpt>
<trkpt lat="55.996674" lon="26.589478">
<ele>114.557678</ele>
<time>2010-08-29T09:47:59Z</time>
<desc>lat.=55.996674, lon.=26.589478, Alt.=114.557678m. Speed=0.108000m/h.</desc>
<speed>0.030000</speed>
</trkpt>
<trkpt lat="55.996674" lon="26.589478">
<ele>114.586975</ele>
<time>2010-08-29T09:48:00Z</time>
<desc>lat.=55.996674, lon.=26.589478, Alt.=114.586975m. Speed=0.036000m/h.</desc>
<speed>0.010000</speed>
</trkpt>
<trkpt lat="55.996674" lon="26.589478">
<ele>114.610413</ele>
<time>2010-08-29T09:48:01Z</time>
<desc>lat.=55.996674, lon.=26.589478, Alt.=114.610413m. Speed=0.108000m/h.</desc>
<speed>0.030000</speed>
</trkpt>
<trkpt lat="55.996674" lon="26.589479">
<ele>114.610413</ele>
<time>2010-08-29T09:48:02Z</time>
<desc>lat.=55.996674, lon.=26.589479, Alt.=114.610413m. Speed=0.036000m/h.</desc>
<speed>0.010000</speed>
</trkpt>
<trkpt lat="55.996674" lon="26.589479">
<ele>114.618225</ele>
<time>2010-08-29T09:48:03Z</time>
<desc>lat.=55.996674, lon.=26.589479, Alt.=114.618225m. Speed=0.000000m/h.</desc>
<speed>0.000000</speed>
</trkpt>
<trkpt lat="55.996674" lon="26.589479">
<ele>114.622131</ele>
<time>2010-08-29T09:48:04Z</time>
<desc>lat.=55.996674, lon.=26.589479, Alt.=114.622131m. Speed=0.036000m/h.</desc>
<speed>0.010000</speed>
</trkpt>
<trkpt lat="55.996674" lon="26.589479">
<ele>114.633850</ele>
<time>2010-08-29T09:48:05Z</time>
<desc>lat.=55.996674, lon.=26.589479, Alt.=114.633850m. Speed=0.000000m/h.</desc>
<speed>0.000000</speed>
</trkpt>
<trkpt lat="55.996674" lon="26.589479">
<ele>114.635803</ele>
<time>2010-08-29T09:48:06Z</time>
<desc>lat.=55.996674, lon.=26.589479, Alt.=114.635803m. Speed=0.036000m/h.</desc>
<speed>0.010000</speed>
</trkpt>
<trkpt lat="55.996674" lon="26.589479">
<ele>114.643616</ele>
<time>2010-08-29T09:48:07Z</time>
<desc>lat.=55.996674, lon.=26.589479, Alt.=114.643616m. Speed=0.000000m/h.</desc>
<speed>0.000000</speed>
</trkpt>
<trkpt lat="55.996674" lon="26.589479">
<ele>114.647522</ele>
<time>2010-08-29T09:48:08Z</time>
<desc>lat.=55.996674, lon.=26.589479, Alt.=114.647522m. Speed=0.072000m/h.</desc>
<speed>0.020000</speed>
</trkpt>
<trkpt lat="55.996674" lon="26.589479">
<ele>114.651428</ele>
<time>2010-08-29T09:48:09Z</time>
<desc>lat.=55.996674, lon.=26.589479, Alt.=114.651428m. Speed=0.000000m/h.</desc>
<speed>0.000000</speed>
</trkpt>
<trkpt lat="55.996674" lon="26.589479">
<ele>114.659241</ele>
<time>2010-08-29T09:48:10Z</time>
<desc>lat.=55.996674, lon.=26.589479, Alt.=114.659241m. Speed=0.000000m/h.</desc>
<speed>0.000000</speed>
</trkpt>
<trkpt lat="55.996674" lon="26.589479">
<ele>114.659241</ele>
<time>2010-08-29T09:48:11Z</time>
<desc>lat.=55.996674, lon.=26.589479, Alt.=114.659241m. Speed=0.000000m/h.</desc>
<speed>0.000000</speed>
</trkpt>
<trkpt lat="55.996674" lon="26.589479">
<ele>114.663147</ele>
<time>2010-08-29T09:48:12Z</time>
<desc>lat.=55.996674, lon.=26.589479, Alt.=114.663147m. Speed=0.000000m/h.</desc>
<speed>0.000000</speed>
</trkpt>
<trkpt lat="55.996674" lon="26.589479">
<ele>114.661194</ele>
<time>2010-08-29T09:48:13Z</time>
<desc>lat.=55.996674, lon.=26.589479, Alt.=114.661194m. Speed=0.000000m/h.</desc>
<speed>0.000000</speed>
</trkpt>
<trkpt lat="55.996674" lon="26.589479">
<ele>114.667053</ele>
<time>2010-08-29T09:48:14Z</time>
<desc>lat.=55.996674, lon.=26.589479, Alt.=114.667053m. Speed=0.072000m/h.</desc>
<speed>0.020000</speed>
</trkpt>
<trkpt lat="55.996674" lon="26.589479">
<ele>114.674866</ele>
<time>2010-08-29T09:48:15Z</time>
<desc>lat.=55.996674, lon.=26.589479, Alt.=114.674866m. Speed=0.036000m/h.</desc>
<speed>0.010000</speed>
</trkpt>
<trkpt lat="55.996674" lon="26.589479">
<ele>114.680725</ele>
<time>2010-08-29T09:48:16Z</time>
<desc>lat.=55.996674, lon.=26.589479, Alt.=114.680725m. Speed=0.036000m/h.</desc>
<speed>0.010000</speed>
</trkpt>
<trkpt lat="55.996674" lon="26.589479">
<ele>114.684631</ele>
<time>2010-08-29T09:48:17Z</time>
<desc>lat.=55.996674, lon.=26.589479, Alt.=114.684631m. Speed=0.072000m/h.</desc>
<speed>0.020000</speed>
</trkpt>
<trkpt lat="55.996674" lon="26.589479">
<ele>114.678772</ele>
<time>2010-08-29T09:48:18Z</time>
<desc>lat.=55.996674, lon.=26.589479, Alt.=114.678772m. Speed=0.000000m/h.</desc>
<speed>0.000000</speed>
</trkpt>
<trkpt lat="55.996674" lon="26.589479">
<ele>114.676819</ele>
<time>2010-08-29T09:48:19Z</time>
<desc>lat.=55.996674, lon.=26.589479, Alt.=114.676819m. Speed=0.036000m/h.</desc>
<speed>0.010000</speed>
</trkpt>
<trkpt lat="55.996674" lon="26.589479">
<ele>114.678772</ele>
<time>2010-08-29T09:48:20Z</time>
<desc>lat.=55.996674, lon.=26.589479, Alt.=114.678772m. Speed=0.000000m/h.</desc>
<speed>0.000000</speed>
</trkpt>
<trkpt lat="55.996674" lon="26.589481">
<ele>114.678772</ele>
<time>2010-08-29T09:48:21Z</time>
<desc>lat.=55.996674, lon.=26.589481, Alt.=114.678772m. Speed=0.000000m/h.</desc>
<speed>0.000000</speed>
</trkpt>
<trkpt lat="55.996674" lon="26.589481">
<ele>114.680725</ele>
<time>2010-08-29T09:48:22Z</time>
<desc>lat.=55.996674, lon.=26.589481, Alt.=114.680725m. Speed=0.000000m/h.</desc>
<speed>0.000000</speed>
</trkpt>
<trkpt lat="55.996674" lon="26.589481">
<ele>114.680725</ele>
<time>2010-08-29T09:48:23Z</time>
<desc>lat.=55.996674, lon.=26.589481, Alt.=114.680725m. Speed=0.000000m/h.</desc>
<speed>0.000000</speed>
</trkpt>
<trkpt lat="55.996674" lon="26.589481">
<ele>114.678772</ele>
<time>2010-08-29T09:48:24Z</time>
<desc>lat.=55.996674, lon.=26.589481, Alt.=114.678772m. Speed=0.036000m/h.</desc>
<speed>0.010000</speed>
</trkpt>
<trkpt lat="55.996674" lon="26.589481">
<ele>114.674866</ele>
<time>2010-08-29T09:48:25Z</time>
<desc>lat.=55.996674, lon.=26.589481, Alt.=114.674866m. Speed=0.000000m/h.</desc>
<speed>0.000000</speed>
</trkpt>
<trkpt lat="55.996674" lon="26.589481">
<ele>114.670959</ele>
<time>2010-08-29T09:48:26Z</time>
<desc>lat.=55.996674, lon.=26.589481, Alt.=114.670959m. Speed=0.000000m/h.</desc>
<speed>0.000000</speed>
</trkpt>
<trkpt lat="55.996674" lon="26.589481">
<ele>114.670959</ele>
<time>2010-08-29T09:48:27Z</time>
<desc>lat.=55.996674, lon.=26.589481, Alt.=114.670959m. Speed=0.000000m/h.</desc>
<speed>0.000000</speed>
</trkpt>
<trkpt lat="55.996674" lon="26.589481">
<ele>114.670959</ele>
<time>2010-08-29T09:48:28Z</time>
<desc>lat.=55.996674, lon.=26.589481, Alt.=114.670959m. Speed=0.036000m/h.</desc>
<speed>0.010000</speed>
</trkpt>
<trkpt lat="55.996674" lon="26.589481">
<ele>114.669006</ele>
<time>2010-08-29T09:48:29Z</time>
<desc>lat.=55.996674, lon.=26.589481, Alt.=114.669006m. Speed=0.072000m/h.</desc>
<speed>0.020000</speed>
</trkpt>
<trkpt lat="55.996674" lon="26.589481">
<ele>114.669006</ele>
<time>2010-08-29T09:48:30Z</time>
<desc>lat.=55.996674, lon.=26.589481, Alt.=114.669006m. Speed=0.072000m/h.</desc>
<speed>0.020000</speed>
</trkpt>
<trkpt lat="55.996674" lon="26.589481">
<ele>114.667053</ele>
<time>2010-08-29T09:48:31Z</time>
<desc>lat.=55.996674, lon.=26.589481, Alt.=114.667053m. Speed=0.036000m/h.</desc>
<speed>0.010000</speed>
</trkpt>
<trkpt lat="55.996674" lon="26.589479">
<ele>114.643616</ele>
<time>2010-08-29T09:48:32Z</time>
<desc>lat.=55.996674, lon.=26.589479, Alt.=114.643616m. Speed=2.196000m/h.</desc>
<speed>0.610000</speed>
</trkpt>
<trkpt lat="55.996677" lon="26.589468">
<ele>114.536194</ele>
<time>2010-08-29T09:48:33Z</time>
<desc>lat.=55.996677, lon.=26.589468, Alt.=114.536194m. Speed=2.124000m/h.</desc>
<speed>0.590000</speed>
</trkpt>
<trkpt lat="55.996681" lon="26.589460">
<ele>114.590881</ele>
<time>2010-08-29T09:48:34Z</time>
<desc>lat.=55.996681, lon.=26.589460, Alt.=114.590881m. Speed=2.016000m/h.</desc>
<speed>0.560000</speed>
</trkpt>
<trkpt lat="55.996689" lon="26.589457">
<ele>114.854553</ele>
<time>2010-08-29T09:48:35Z</time>
<desc>lat.=55.996689, lon.=26.589457, Alt.=114.854553m. Speed=1.980000m/h.</desc>
<speed>0.550000</speed>
</trkpt>
<trkpt lat="55.996693" lon="26.589451">
<ele>115.045959</ele>
<time>2010-08-29T09:48:36Z</time>
<desc>lat.=55.996693, lon.=26.589451, Alt.=115.045959m. Speed=1.800000m/h.</desc>
<speed>0.500000</speed>
</trkpt>
<trkpt lat="55.996693" lon="26.589449">
<ele>115.081116</ele>
<time>2010-08-29T09:48:37Z</time>
<desc>lat.=55.996693, lon.=26.589449, Alt.=115.081116m. Speed=1.548000m/h.</desc>
<speed>0.430000</speed>
</trkpt>
<trkpt lat="55.996696" lon="26.589443">
<ele>115.163147</ele>
<time>2010-08-29T09:48:38Z</time>
<desc>lat.=55.996696, lon.=26.589443, Alt.=115.163147m. Speed=1.476000m/h.</desc>
<speed>0.410000</speed>
</trkpt>
<trkpt lat="55.996696" lon="26.589436">
<ele>115.260803</ele>
<time>2010-08-29T09:48:39Z</time>
<desc>lat.=55.996696, lon.=26.589436, Alt.=115.260803m. Speed=1.476000m/h.</desc>
<speed>0.410000</speed>
</trkpt>
<trkpt lat="55.996700" lon="26.589424">
<ele>115.254944</ele>
<time>2010-08-29T09:48:40Z</time>
<desc>lat.=55.996700, lon.=26.589424, Alt.=115.254944m. Speed=1.764000m/h.</desc>
<speed>0.490000</speed>
</trkpt>
<trkpt lat="55.996700" lon="26.589413">
<ele>115.340881</ele>
<time>2010-08-29T09:48:41Z</time>
<desc>lat.=55.996700, lon.=26.589413, Alt.=115.340881m. Speed=1.764000m/h.</desc>
<speed>0.490000</speed>
</trkpt>
<trkpt lat="55.996704" lon="26.589403">
<ele>115.346741</ele>
<time>2010-08-29T09:48:42Z</time>
<desc>lat.=55.996704, lon.=26.589403, Alt.=115.346741m. Speed=1.692000m/h.</desc>
<speed>0.470000</speed>
</trkpt>
<trkpt lat="55.996708" lon="26.589397">
<ele>115.374084</ele>
<time>2010-08-29T09:48:43Z</time>
<desc>lat.=55.996708, lon.=26.589397, Alt.=115.374084m. Speed=1.692000m/h.</desc>
<speed>0.470000</speed>
</trkpt>
<trkpt lat="55.996712" lon="26.589394">
<ele>115.524475</ele>
<time>2010-08-29T09:48:44Z</time>
<desc>lat.=55.996712, lon.=26.589394, Alt.=115.524475m. Speed=1.692000m/h.</desc>
<speed>0.470000</speed>
</trkpt>
<trkpt lat="55.996719" lon="26.589394">
<ele>115.731506</ele>
<time>2010-08-29T09:48:45Z</time>
<desc>lat.=55.996719, lon.=26.589394, Alt.=115.731506m. Speed=1.620000m/h.</desc>
<speed>0.450000</speed>
</trkpt>
<trkpt lat="55.996723" lon="26.589390">
<ele>115.897522</ele>
<time>2010-08-29T09:48:46Z</time>
<desc>lat.=55.996723, lon.=26.589390, Alt.=115.897522m. Speed=1.548000m/h.</desc>
<speed>0.430000</speed>
</trkpt>
<trkpt lat="55.996727" lon="26.589390">
<ele>116.104553</ele>
<time>2010-08-29T09:48:47Z</time>
<desc>lat.=55.996727, lon.=26.589390, Alt.=116.104553m. Speed=1.548000m/h.</desc>
<speed>0.430000</speed>
</trkpt>
<trkpt lat="55.996731" lon="26.589386">
<ele>116.213928</ele>
<time>2010-08-29T09:48:48Z</time>
<desc>lat.=55.996731, lon.=26.589386, Alt.=116.213928m. Speed=1.512000m/h.</desc>
<speed>0.420000</speed>
</trkpt>
<trkpt lat="55.996731" lon="26.589382">
<ele>116.452209</ele>
<time>2010-08-29T09:48:49Z</time>
<desc>lat.=55.996731, lon.=26.589382, Alt.=116.452209m. Speed=1.440000m/h.</desc>
<speed>0.400000</speed>
</trkpt>
<trkpt lat="55.996735" lon="26.589382">
<ele>116.598694</ele>
<time>2010-08-29T09:48:50Z</time>
<desc>lat.=55.996735, lon.=26.589382, Alt.=116.598694m. Speed=1.440000m/h.</desc>
<speed>0.400000</speed>
</trkpt>
<trkpt lat="55.996735" lon="26.589386">
<ele>116.819397</ele>
<time>2010-08-29T09:48:51Z</time>
<desc>lat.=55.996735, lon.=26.589386, Alt.=116.819397m. Speed=1.260000m/h.</desc>
<speed>0.350000</speed>
</trkpt>
<trkpt lat="55.996738" lon="26.589403">
<ele>117.069397</ele>
<time>2010-08-29T09:48:52Z</time>
<desc>lat.=55.996738, lon.=26.589403, Alt.=117.069397m. Speed=1.008000m/h.</desc>
<speed>0.280000</speed>
</trkpt>
<trkpt lat="55.996750" lon="26.589422">
<ele>117.696350</ele>
<time>2010-08-29T09:48:53Z</time>
<desc>lat.=55.996750, lon.=26.589422, Alt.=117.696350m. Speed=1.188000m/h.</desc>
<speed>0.330000</speed>
</trkpt>
<trkpt lat="55.996750" lon="26.589426">
<ele>118.030334</ele>
<time>2010-08-29T09:48:54Z</time>
<desc>lat.=55.996750, lon.=26.589426, Alt.=118.030334m. Speed=1.044000m/h.</desc>
<speed>0.290000</speed>
</trkpt>
<trkpt lat="55.996750" lon="26.589436">
<ele>118.356506</ele>
<time>2010-08-29T09:48:55Z</time>
<desc>lat.=55.996750, lon.=26.589436, Alt.=118.356506m. Speed=0.972000m/h.</desc>
<speed>0.270000</speed>
</trkpt>
<trkpt lat="55.996746" lon="26.589445">
<ele>118.706116</ele>
<time>2010-08-29T09:48:56Z</time>
<desc>lat.=55.996746, lon.=26.589445, Alt.=118.706116m. Speed=0.900000m/h.</desc>
<speed>0.250000</speed>
</trkpt>
<trkpt lat="55.996750" lon="26.589441">
<ele>119.217834</ele>
<time>2010-08-29T09:48:57Z</time>
<desc>lat.=55.996750, lon.=26.589441, Alt.=119.217834m. Speed=0.756000m/h.</desc>
<speed>0.210000</speed>
</trkpt>
<trkpt lat="55.996750" lon="26.589443">
<ele>119.309631</ele>
<time>2010-08-29T09:48:58Z</time>
<desc>lat.=55.996750, lon.=26.589443, Alt.=119.309631m. Speed=0.468000m/h.</desc>
<speed>0.130000</speed>
</trkpt>
<trkpt lat="55.996750" lon="26.589443">
<ele>119.403381</ele>
<time>2010-08-29T09:48:59Z</time>
<desc>lat.=55.996750, lon.=26.589443, Alt.=119.403381m. Speed=0.288000m/h.</desc>
<speed>0.080000</speed>
</trkpt>
<trkpt lat="55.996754" lon="26.589443">
<ele>119.495178</ele>
<time>2010-08-29T09:49:00Z</time>
<desc>lat.=55.996754, lon.=26.589443, Alt.=119.495178m. Speed=0.504000m/h.</desc>
<speed>0.140000</speed>
</trkpt>
<trkpt lat="55.996754" lon="26.589441">
<ele>119.588928</ele>
<time>2010-08-29T09:49:01Z</time>
<desc>lat.=55.996754, lon.=26.589441, Alt.=119.588928m. Speed=0.504000m/h.</desc>
<speed>0.140000</speed>
</trkpt>
<trkpt lat="55.996754" lon="26.589439">
<ele>119.678772</ele>
<time>2010-08-29T09:49:02Z</time>
<desc>lat.=55.996754, lon.=26.589439, Alt.=119.678772m. Speed=1.008000m/h.</desc>
<speed>0.280000</speed>
</trkpt>
<trkpt lat="55.996754" lon="26.589436">
<ele>119.772522</ele>
<time>2010-08-29T09:49:03Z</time>
<desc>lat.=55.996754, lon.=26.589436, Alt.=119.772522m. Speed=1.152000m/h.</desc>
<speed>0.320000</speed>
</trkpt>
<trkpt lat="55.996758" lon="26.589426">
<ele>119.977600</ele>
<time>2010-08-29T09:49:04Z</time>
<desc>lat.=55.996758, lon.=26.589426, Alt.=119.977600m. Speed=1.152000m/h.</desc>
<speed>0.320000</speed>
</trkpt>
<trkpt lat="55.996758" lon="26.589420">
<ele>120.163147</ele>
<time>2010-08-29T09:49:05Z</time>
<desc>lat.=55.996758, lon.=26.589420, Alt.=120.163147m. Speed=0.936000m/h.</desc>
<speed>0.260000</speed>
</trkpt>
<trkpt lat="55.996750" lon="26.589396">
<ele>120.094788</ele>
<time>2010-08-29T09:49:06Z</time>
<desc>lat.=55.996750, lon.=26.589396, Alt.=120.094788m. Speed=1.296000m/h.</desc>
<speed>0.360000</speed>
</trkpt>
<trkpt lat="55.996758" lon="26.589371">
<ele>120.204163</ele>
<time>2010-08-29T09:49:07Z</time>
<desc>lat.=55.996758, lon.=26.589371, Alt.=120.204163m. Speed=1.332000m/h.</desc>
<speed>0.370000</speed>
</trkpt>
<trkpt lat="55.996761" lon="26.589340">
<ele>120.135803</ele>
<time>2010-08-29T09:49:08Z</time>
<desc>lat.=55.996761, lon.=26.589340, Alt.=120.135803m. Speed=1.332000m/h.</desc>
<speed>0.370000</speed>
</trkpt>
<trkpt lat="55.996758" lon="26.589296">
<ele>120.053772</ele>
<time>2010-08-29T09:49:09Z</time>
<desc>lat.=55.996758, lon.=26.589296, Alt.=120.053772m. Speed=1.656000m/h.</desc>
<speed>0.460000</speed>
</trkpt>
<trkpt lat="55.996758" lon="26.589289">
<ele>120.370178</ele>
<time>2010-08-29T09:49:10Z</time>
<desc>lat.=55.996758, lon.=26.589289, Alt.=120.370178m. Speed=1.512000m/h.</desc>
<speed>0.420000</speed>
</trkpt>
<trkpt lat="55.996758" lon="26.589279">
<ele>120.502991</ele>
<time>2010-08-29T09:49:11Z</time>
<desc>lat.=55.996758, lon.=26.589279, Alt.=120.502991m. Speed=1.404000m/h.</desc>
<speed>0.390000</speed>
</trkpt>
<trkpt lat="55.996761" lon="26.589260">
<ele>120.526428</ele>
<time>2010-08-29T09:49:12Z</time>
<desc>lat.=55.996761, lon.=26.589260, Alt.=120.526428m. Speed=1.260000m/h.</desc>
<speed>0.350000</speed>
</trkpt>
<trkpt lat="55.996765" lon="26.589260">
<ele>120.702209</ele>
<time>2010-08-29T09:49:13Z</time>
<desc>lat.=55.996765, lon.=26.589260, Alt.=120.702209m. Speed=1.080000m/h.</desc>
<speed>0.300000</speed>
</trkpt>
<trkpt lat="55.996765" lon="26.589256">
<ele>120.807678</ele>
<time>2010-08-29T09:49:14Z</time>
<desc>lat.=55.996765, lon.=26.589256, Alt.=120.807678m. Speed=0.972000m/h.</desc>
<speed>0.270000</speed>
</trkpt>
<trkpt lat="55.996769" lon="26.589249">
<ele>120.948303</ele>
<time>2010-08-29T09:49:15Z</time>
<desc>lat.=55.996769, lon.=26.589249, Alt.=120.948303m. Speed=1.008000m/h.</desc>
<speed>0.280000</speed>
</trkpt>
<trkpt lat="55.996769" lon="26.589245">
<ele>121.120178</ele>
<time>2010-08-29T09:49:16Z</time>
<desc>lat.=55.996769, lon.=26.589245, Alt.=121.120178m. Speed=0.972000m/h.</desc>
<speed>0.270000</speed>
</trkpt>
<trkpt lat="55.996769" lon="26.589241">
<ele>121.325256</ele>
<time>2010-08-29T09:49:17Z</time>
<desc>lat.=55.996769, lon.=26.589241, Alt.=121.325256m. Speed=0.864000m/h.</desc>
<speed>0.240000</speed>
</trkpt>
<trkpt lat="55.996769" lon="26.589237">
<ele>121.424866</ele>
<time>2010-08-29T09:49:18Z</time>
<desc>lat.=55.996769, lon.=26.589237, Alt.=121.424866m. Speed=0.864000m/h.</desc>
<speed>0.240000</speed>
</trkpt>
<trkpt lat="55.996769" lon="26.589233">
<ele>121.526428</ele>
<time>2010-08-29T09:49:19Z</time>
<desc>lat.=55.996769, lon.=26.589233, Alt.=121.526428m. Speed=0.900000m/h.</desc>
<speed>0.250000</speed>
</trkpt>
<trkpt lat="55.996773" lon="26.589230">
<ele>121.629944</ele>
<time>2010-08-29T09:49:20Z</time>
<desc>lat.=55.996773, lon.=26.589230, Alt.=121.629944m. Speed=0.792000m/h.</desc>
<speed>0.220000</speed>
</trkpt>
<trkpt lat="55.996773" lon="26.589226">
<ele>121.735413</ele>
<time>2010-08-29T09:49:21Z</time>
<desc>lat.=55.996773, lon.=26.589226, Alt.=121.735413m. Speed=0.720000m/h.</desc>
<speed>0.200000</speed>
</trkpt>
<trkpt lat="55.996773" lon="26.589224">
<ele>121.842834</ele>
<time>2010-08-29T09:49:22Z</time>
<desc>lat.=55.996773, lon.=26.589224, Alt.=121.842834m. Speed=0.684000m/h.</desc>
<speed>0.190000</speed>
</trkpt>
<trkpt lat="55.996773" lon="26.589222">
<ele>121.948303</ele>
<time>2010-08-29T09:49:23Z</time>
<desc>lat.=55.996773, lon.=26.589222, Alt.=121.948303m. Speed=0.396000m/h.</desc>
<speed>0.110000</speed>
</trkpt>
<trkpt lat="55.996777" lon="26.589220">
<ele>122.055725</ele>
<time>2010-08-29T09:49:24Z</time>
<desc>lat.=55.996777, lon.=26.589220, Alt.=122.055725m. Speed=0.216000m/h.</desc>
<speed>0.060000</speed>
</trkpt>
<trkpt lat="55.996777" lon="26.589218">
<ele>122.165100</ele>
<time>2010-08-29T09:49:25Z</time>
<desc>lat.=55.996777, lon.=26.589218, Alt.=122.165100m. Speed=0.432000m/h.</desc>
<speed>0.120000</speed>
</trkpt>
<trkpt lat="55.996777" lon="26.589218">
<ele>122.274475</ele>
<time>2010-08-29T09:49:26Z</time>
<desc>lat.=55.996777, lon.=26.589218, Alt.=122.274475m. Speed=0.540000m/h.</desc>
<speed>0.150000</speed>
</trkpt>
<trkpt lat="55.996777" lon="26.589220">
<ele>122.383850</ele>
<time>2010-08-29T09:49:27Z</time>
<desc>lat.=55.996777, lon.=26.589220, Alt.=122.383850m. Speed=0.576000m/h.</desc>
<speed>0.160000</speed>
</trkpt>
<trkpt lat="55.996780" lon="26.589220">
<ele>122.491272</ele>
<time>2010-08-29T09:49:28Z</time>
<desc>lat.=55.996780, lon.=26.589220, Alt.=122.491272m. Speed=0.576000m/h.</desc>
<speed>0.160000</speed>
</trkpt>
<trkpt lat="55.996780" lon="26.589220">
<ele>122.602600</ele>
<time>2010-08-29T09:49:29Z</time>
<desc>lat.=55.996780, lon.=26.589220, Alt.=122.602600m. Speed=0.756000m/h.</desc>
<speed>0.210000</speed>
</trkpt>
<trkpt lat="55.996784" lon="26.589222">
<ele>122.708069</ele>
<time>2010-08-29T09:49:30Z</time>
<desc>lat.=55.996784, lon.=26.589222, Alt.=122.708069m. Speed=0.756000m/h.</desc>
<speed>0.210000</speed>
</trkpt>
<trkpt lat="55.996784" lon="26.589222">
<ele>122.817444</ele>
<time>2010-08-29T09:49:31Z</time>
<desc>lat.=55.996784, lon.=26.589222, Alt.=122.817444m. Speed=0.792000m/h.</desc>
<speed>0.220000</speed>
</trkpt>
<trkpt lat="55.996788" lon="26.589224">
<ele>122.922913</ele>
<time>2010-08-29T09:49:32Z</time>
<desc>lat.=55.996788, lon.=26.589224, Alt.=122.922913m. Speed=0.936000m/h.</desc>
<speed>0.260000</speed>
</trkpt>
<trkpt lat="55.996792" lon="26.589226">
<ele>123.022522</ele>
<time>2010-08-29T09:49:33Z</time>
<desc>lat.=55.996792, lon.=26.589226, Alt.=123.022522m. Speed=1.152000m/h.</desc>
<speed>0.320000</speed>
</trkpt>
<trkpt lat="55.996807" lon="26.589252">
<ele>123.038147</ele>
<time>2010-08-29T09:49:34Z</time>
<desc>lat.=55.996807, lon.=26.589252, Alt.=123.038147m. Speed=1.476000m/h.</desc>
<speed>0.410000</speed>
</trkpt>
<trkpt lat="55.996826" lon="26.589275">
<ele>123.002991</ele>
<time>2010-08-29T09:49:35Z</time>
<desc>lat.=55.996826, lon.=26.589275, Alt.=123.002991m. Speed=1.620000m/h.</desc>
<speed>0.450000</speed>
</trkpt>
<trkpt lat="55.996834" lon="26.589287">
<ele>123.034241</ele>
<time>2010-08-29T09:49:36Z</time>
<desc>lat.=55.996834, lon.=26.589287, Alt.=123.034241m. Speed=1.728000m/h.</desc>
<speed>0.480000</speed>
</trkpt>
<trkpt lat="55.996838" lon="26.589294">
<ele>123.159241</ele>
<time>2010-08-29T09:49:37Z</time>
<desc>lat.=55.996838, lon.=26.589294, Alt.=123.159241m. Speed=1.656000m/h.</desc>
<speed>0.460000</speed>
</trkpt>
<trkpt lat="55.996841" lon="26.589302">
<ele>123.137756</ele>
<time>2010-08-29T09:49:38Z</time>
<desc>lat.=55.996841, lon.=26.589302, Alt.=123.137756m. Speed=1.476000m/h.</desc>
<speed>0.410000</speed>
</trkpt>
<trkpt lat="55.996849" lon="26.589310">
<ele>123.239319</ele>
<time>2010-08-29T09:49:39Z</time>
<desc>lat.=55.996849, lon.=26.589310, Alt.=123.239319m. Speed=1.584000m/h.</desc>
<speed>0.440000</speed>
</trkpt>
<trkpt lat="55.996853" lon="26.589314">
<ele>123.370178</ele>
<time>2010-08-29T09:49:40Z</time>
<desc>lat.=55.996853, lon.=26.589314, Alt.=123.370178m. Speed=1.476000m/h.</desc>
<speed>0.410000</speed>
</trkpt>
<trkpt lat="55.996857" lon="26.589321">
<ele>123.397522</ele>
<time>2010-08-29T09:49:41Z</time>
<desc>lat.=55.996857, lon.=26.589321, Alt.=123.397522m. Speed=1.512000m/h.</desc>
<speed>0.420000</speed>
</trkpt>
<trkpt lat="55.996864" lon="26.589327">
<ele>123.399475</ele>
<time>2010-08-29T09:49:42Z</time>
<desc>lat.=55.996864, lon.=26.589327, Alt.=123.399475m. Speed=1.476000m/h.</desc>
<speed>0.410000</speed>
</trkpt>
<trkpt lat="55.996872" lon="26.589327">
<ele>123.502991</ele>
<time>2010-08-29T09:49:43Z</time>
<desc>lat.=55.996872, lon.=26.589327, Alt.=123.502991m. Speed=1.512000m/h.</desc>
<speed>0.420000</speed>
</trkpt>
<trkpt lat="55.996880" lon="26.589325">
<ele>123.721741</ele>
<time>2010-08-29T09:49:44Z</time>
<desc>lat.=55.996880, lon.=26.589325, Alt.=123.721741m. Speed=1.548000m/h.</desc>
<speed>0.430000</speed>
</trkpt>
<trkpt lat="55.996887" lon="26.589327">
<ele>123.905334</ele>
<time>2010-08-29T09:49:45Z</time>
<desc>lat.=55.996887, lon.=26.589327, Alt.=123.905334m. Speed=1.548000m/h.</desc>
<speed>0.430000</speed>
</trkpt>
<trkpt lat="55.996895" lon="26.589327">
<ele>124.088928</ele>
<time>2010-08-29T09:49:46Z</time>
<desc>lat.=55.996895, lon.=26.589327, Alt.=124.088928m. Speed=1.620000m/h.</desc>
<speed>0.450000</speed>
</trkpt>
<trkpt lat="55.996902" lon="26.589317">
<ele>124.170959</ele>
<time>2010-08-29T09:49:47Z</time>
<desc>lat.=55.996902, lon.=26.589317, Alt.=124.170959m. Speed=1.620000m/h.</desc>
<speed>0.450000</speed>
</trkpt>
<trkpt lat="55.996910" lon="26.589304">
<ele>124.305725</ele>
<time>2010-08-29T09:49:48Z</time>
<desc>lat.=55.996910, lon.=26.589304, Alt.=124.305725m. Speed=1.728000m/h.</desc>
<speed>0.480000</speed>
</trkpt>
<trkpt lat="55.996922" lon="26.589293">
<ele>124.352600</ele>
<time>2010-08-29T09:49:49Z</time>
<desc>lat.=55.996922, lon.=26.589293, Alt.=124.352600m. Speed=1.800000m/h.</desc>
<speed>0.500000</speed>
</trkpt>
<trkpt lat="55.996933" lon="26.589285">
<ele>124.549866</ele>
<time>2010-08-29T09:49:50Z</time>
<desc>lat.=55.996933, lon.=26.589285, Alt.=124.549866m. Speed=2.016000m/h.</desc>
<speed>0.560000</speed>
</trkpt>
<trkpt lat="55.996944" lon="26.589266">
<ele>124.942444</ele>
<time>2010-08-29T09:49:51Z</time>
<desc>lat.=55.996944, lon.=26.589266, Alt.=124.942444m. Speed=2.196000m/h.</desc>
<speed>0.610000</speed>
</trkpt>
<trkpt lat="55.996964" lon="26.589247">
<ele>125.612366</ele>
<time>2010-08-29T09:49:52Z</time>
<desc>lat.=55.996964, lon.=26.589247, Alt.=125.612366m. Speed=2.736000m/h.</desc>
<speed>0.760000</speed>
</trkpt>
<trkpt lat="55.996975" lon="26.589235">
<ele>125.723694</ele>
<time>2010-08-29T09:49:53Z</time>
<desc>lat.=55.996975, lon.=26.589235, Alt.=125.723694m. Speed=3.132000m/h.</desc>
<speed>0.870000</speed>
</trkpt>
<trkpt lat="55.996983" lon="26.589230">
<ele>125.866272</ele>
<time>2010-08-29T09:49:54Z</time>
<desc>lat.=55.996983, lon.=26.589230, Alt.=125.866272m. Speed=2.880000m/h.</desc>
<speed>0.800000</speed>
</trkpt>
<trkpt lat="55.996990" lon="26.589230">
<ele>126.044006</ele>
<time>2010-08-29T09:49:55Z</time>
<desc>lat.=55.996990, lon.=26.589230, Alt.=126.044006m. Speed=2.808000m/h.</desc>
<speed>0.780000</speed>
</trkpt>
<trkpt lat="55.996998" lon="26.589226">
<ele>126.172913</ele>
<time>2010-08-29T09:49:56Z</time>
<desc>lat.=55.996998, lon.=26.589226, Alt.=126.172913m. Speed=1.908000m/h.</desc>
<speed>0.530000</speed>
</trkpt>
<trkpt lat="55.996998" lon="26.589222">
<ele>126.352600</ele>
<time>2010-08-29T09:49:57Z</time>
<desc>lat.=55.996998, lon.=26.589222, Alt.=126.352600m. Speed=1.440000m/h.</desc>
<speed>0.400000</speed>
</trkpt>
<trkpt lat="55.996998" lon="26.589190">
<ele>126.407288</ele>
<time>2010-08-29T09:49:58Z</time>
<desc>lat.=55.996998, lon.=26.589190, Alt.=126.407288m. Speed=1.368000m/h.</desc>
<speed>0.380000</speed>
</trkpt>
<trkpt lat="55.997017" lon="26.589178">
<ele>124.364319</ele>
<time>2010-08-29T09:49:59Z</time>
<desc>lat.=55.997017, lon.=26.589178, Alt.=124.364319m. Speed=1.332000m/h.</desc>
<speed>0.370000</speed>
</trkpt>
<trkpt lat="55.997032" lon="26.589165">
<ele>123.415100</ele>
<time>2010-08-29T09:50:00Z</time>
<desc>lat.=55.997032, lon.=26.589165, Alt.=123.415100m. Speed=1.116000m/h.</desc>
<speed>0.310000</speed>
</trkpt>
<trkpt lat="55.997047" lon="26.589153">
<ele>122.766663</ele>
<time>2010-08-29T09:50:01Z</time>
<desc>lat.=55.997047, lon.=26.589153, Alt.=122.766663m. Speed=1.044000m/h.</desc>
<speed>0.290000</speed>
</trkpt>
<trkpt lat="55.997047" lon="26.589148">
<ele>121.856506</ele>
<time>2010-08-29T09:50:02Z</time>
<desc>lat.=55.997047, lon.=26.589148, Alt.=121.856506m. Speed=0.324000m/h.</desc>
<speed>0.090000</speed>
</trkpt>
<trkpt lat="55.997051" lon="26.589136">
<ele>121.483459</ele>
<time>2010-08-29T09:50:03Z</time>
<desc>lat.=55.997051, lon.=26.589136, Alt.=121.483459m. Speed=0.396000m/h.</desc>
<speed>0.110000</speed>
</trkpt>
<trkpt lat="55.997055" lon="26.589127">
<ele>120.694397</ele>
<time>2010-08-29T09:50:04Z</time>
<desc>lat.=55.997055, lon.=26.589127, Alt.=120.694397m. Speed=0.432000m/h.</desc>
<speed>0.120000</speed>
</trkpt>
<trkpt lat="55.997059" lon="26.589125">
<ele>120.756897</ele>
<time>2010-08-29T09:50:05Z</time>
<desc>lat.=55.997059, lon.=26.589125, Alt.=120.756897m. Speed=0.432000m/h.</desc>
<speed>0.120000</speed>
</trkpt>
<trkpt lat="55.997059" lon="26.589123">
<ele>120.809631</ele>
<time>2010-08-29T09:50:06Z</time>
<desc>lat.=55.997059, lon.=26.589123, Alt.=120.809631m. Speed=0.252000m/h.</desc>
<speed>0.070000</speed>
</trkpt>
<trkpt lat="55.997059" lon="26.589123">
<ele>120.854553</ele>
<time>2010-08-29T09:50:07Z</time>
<desc>lat.=55.997059, lon.=26.589123, Alt.=120.854553m. Speed=0.072000m/h.</desc>
<speed>0.020000</speed>
</trkpt>
<trkpt lat="55.997059" lon="26.589123">
<ele>120.901428</ele>
<time>2010-08-29T09:50:08Z</time>
<desc>lat.=55.997059, lon.=26.589123, Alt.=120.901428m. Speed=0.108000m/h.</desc>
<speed>0.030000</speed>
</trkpt>
<trkpt lat="55.997059" lon="26.589123">
<ele>120.956116</ele>
<time>2010-08-29T09:50:09Z</time>
<desc>lat.=55.997059, lon.=26.589123, Alt.=120.956116m. Speed=0.216000m/h.</desc>
<speed>0.060000</speed>
</trkpt>
<trkpt lat="55.997059" lon="26.589123">
<ele>121.022522</ele>
<time>2010-08-29T09:50:10Z</time>
<desc>lat.=55.997059, lon.=26.589123, Alt.=121.022522m. Speed=0.972000m/h.</desc>
<speed>0.270000</speed>
</trkpt>
<trkpt lat="55.997059" lon="26.589117">
<ele>121.108459</ele>
<time>2010-08-29T09:50:11Z</time>
<desc>lat.=55.997059, lon.=26.589117, Alt.=121.108459m. Speed=0.936000m/h.</desc>
<speed>0.260000</speed>
</trkpt>
<trkpt lat="55.997059" lon="26.589113">
<ele>121.198303</ele>
<time>2010-08-29T09:50:12Z</time>
<desc>lat.=55.997059, lon.=26.589113, Alt.=121.198303m. Speed=1.152000m/h.</desc>
<speed>0.320000</speed>
</trkpt>
<trkpt lat="55.997063" lon="26.589102">
<ele>121.110413</ele>
<time>2010-08-29T09:50:13Z</time>
<desc>lat.=55.997063, lon.=26.589102, Alt.=121.110413m. Speed=1.296000m/h.</desc>
<speed>0.360000</speed>
</trkpt>
<trkpt lat="55.997066" lon="26.589100">
<ele>121.620178</ele>
<time>2010-08-29T09:50:14Z</time>
<desc>lat.=55.997066, lon.=26.589100, Alt.=121.620178m. Speed=1.332000m/h.</desc>
<speed>0.370000</speed>
</trkpt>
<trkpt lat="55.997074" lon="26.589092">
<ele>122.268616</ele>
<time>2010-08-29T09:50:15Z</time>
<desc>lat.=55.997074, lon.=26.589092, Alt.=122.268616m. Speed=1.440000m/h.</desc>
<speed>0.400000</speed>
</trkpt>
<trkpt lat="55.997082" lon="26.589088">
<ele>122.413147</ele>
<time>2010-08-29T09:50:16Z</time>
<desc>lat.=55.997082, lon.=26.589088, Alt.=122.413147m. Speed=1.440000m/h.</desc>
<speed>0.400000</speed>
</trkpt>
<trkpt lat="55.997086" lon="26.589085">
<ele>122.672913</ele>
<time>2010-08-29T09:50:17Z</time>
<desc>lat.=55.997086, lon.=26.589085, Alt.=122.672913m. Speed=1.548000m/h.</desc>
<speed>0.430000</speed>
</trkpt>
<trkpt lat="55.997089" lon="26.589066">
<ele>122.210022</ele>
<time>2010-08-29T09:50:18Z</time>
<desc>lat.=55.997089, lon.=26.589066, Alt.=122.210022m. Speed=1.656000m/h.</desc>
<speed>0.460000</speed>
</trkpt>
<trkpt lat="55.997101" lon="26.589054">
<ele>122.061584</ele>
<time>2010-08-29T09:50:19Z</time>
<desc>lat.=55.997101, lon.=26.589054, Alt.=122.061584m. Speed=1.728000m/h.</desc>
<speed>0.480000</speed>
</trkpt>
<trkpt lat="55.997108" lon="26.589041">
<ele>122.520569</ele>
<time>2010-08-29T09:50:20Z</time>
<desc>lat.=55.997108, lon.=26.589041, Alt.=122.520569m. Speed=2.160000m/h.</desc>
<speed>0.600000</speed>
</trkpt>
<trkpt lat="55.997120" lon="26.589033">
<ele>122.579163</ele>
<time>2010-08-29T09:50:21Z</time>
<desc>lat.=55.997120, lon.=26.589033, Alt.=122.579163m. Speed=2.340000m/h.</desc>
<speed>0.650000</speed>
</trkpt>
<trkpt lat="55.997143" lon="26.589025">
<ele>122.262756</ele>
<time>2010-08-29T09:50:22Z</time>
<desc>lat.=55.997143, lon.=26.589025, Alt.=122.262756m. Speed=2.700000m/h.</desc>
<speed>0.750000</speed>
</trkpt>
<trkpt lat="55.997154" lon="26.589016">
<ele>122.020569</ele>
<time>2010-08-29T09:50:23Z</time>
<desc>lat.=55.997154, lon.=26.589016, Alt.=122.020569m. Speed=3.240000m/h.</desc>
<speed>0.900000</speed>
</trkpt>
<trkpt lat="55.997169" lon="26.589012">
<ele>121.901428</ele>
<time>2010-08-29T09:50:24Z</time>
<desc>lat.=55.997169, lon.=26.589012, Alt.=121.901428m. Speed=3.456000m/h.</desc>
<speed>0.960000</speed>
</trkpt>
<trkpt lat="55.997189" lon="26.589001">
<ele>121.774475</ele>
<time>2010-08-29T09:50:25Z</time>
<desc>lat.=55.997189, lon.=26.589001, Alt.=121.774475m. Speed=3.888000m/h.</desc>
<speed>1.080000</speed>
</trkpt>
<trkpt lat="55.997211" lon="26.588989">
<ele>121.436584</ele>
<time>2010-08-29T09:50:26Z</time>
<desc>lat.=55.997211, lon.=26.588989, Alt.=121.436584m. Speed=4.500000m/h.</desc>
<speed>1.250000</speed>
</trkpt>
<trkpt lat="55.997223" lon="26.588985">
<ele>121.323303</ele>
<time>2010-08-29T09:50:27Z</time>
<desc>lat.=55.997223, lon.=26.588985, Alt.=121.323303m. Speed=4.284000m/h.</desc>
<speed>1.190000</speed>
</trkpt>
<trkpt lat="55.997242" lon="26.588964">
<ele>121.252991</ele>
<time>2010-08-29T09:50:28Z</time>
<desc>lat.=55.997242, lon.=26.588964, Alt.=121.252991m. Speed=4.320000m/h.</desc>
<speed>1.200000</speed>
</trkpt>
<trkpt lat="55.997261" lon="26.588945">
<ele>121.395569</ele>
<time>2010-08-29T09:50:29Z</time>
<desc>lat.=55.997261, lon.=26.588945, Alt.=121.395569m. Speed=4.572000m/h.</desc>
<speed>1.270000</speed>
</trkpt>
<trkpt lat="55.997280" lon="26.588928">
<ele>121.579163</ele>
<time>2010-08-29T09:50:30Z</time>
<desc>lat.=55.997280, lon.=26.588928, Alt.=121.579163m. Speed=4.968000m/h.</desc>
<speed>1.380000</speed>
</trkpt>
<trkpt lat="55.997311" lon="26.588905">
<ele>120.954163</ele>
<time>2010-08-29T09:50:31Z</time>
<desc>lat.=55.997311, lon.=26.588905, Alt.=120.954163m. Speed=5.292000m/h.</desc>
<speed>1.470000</speed>
</trkpt>
<trkpt lat="55.997334" lon="26.588879">
<ele>121.055725</ele>
<time>2010-08-29T09:50:32Z</time>
<desc>lat.=55.997334, lon.=26.588879, Alt.=121.055725m. Speed=4.572000m/h.</desc>
<speed>1.270000</speed>
</trkpt>
<trkpt lat="55.997368" lon="26.588869">
<ele>120.598694</ele>
<time>2010-08-29T09:50:33Z</time>
<desc>lat.=55.997368, lon.=26.588869, Alt.=120.598694m. Speed=5.436000m/h.</desc>
<speed>1.510000</speed>
</trkpt>
<trkpt lat="55.997398" lon="26.588856">
<ele>120.241272</ele>
<time>2010-08-29T09:50:34Z</time>
<desc>lat.=55.997398, lon.=26.588856, Alt.=120.241272m. Speed=5.040000m/h.</desc>
<speed>1.400000</speed>
</trkpt>
<trkpt lat="55.997425" lon="26.588844">
<ele>120.001038</ele>
<time>2010-08-29T09:50:35Z</time>
<desc>lat.=55.997425, lon.=26.588844, Alt.=120.001038m. Speed=5.544000m/h.</desc>
<speed>1.540000</speed>
</trkpt>
<trkpt lat="55.997437" lon="26.588829">
<ele>120.057678</ele>
<time>2010-08-29T09:50:36Z</time>
<desc>lat.=55.997437, lon.=26.588829, Alt.=120.057678m. Speed=4.068000m/h.</desc>
<speed>1.130000</speed>
</trkpt>
<trkpt lat="55.997459" lon="26.588804">
<ele>120.010803</ele>
<time>2010-08-29T09:50:37Z</time>
<desc>lat.=55.997459, lon.=26.588804, Alt.=120.010803m. Speed=4.644000m/h.</desc>
<speed>1.290000</speed>
</trkpt>
<trkpt lat="55.997486" lon="26.588791">
<ele>119.713928</ele>
<time>2010-08-29T09:50:38Z</time>
<desc>lat.=55.997486, lon.=26.588791, Alt.=119.713928m. Speed=3.852000m/h.</desc>
<speed>1.070000</speed>
</trkpt>
<trkpt lat="55.997520" lon="26.588760">
<ele>119.278381</ele>
<time>2010-08-29T09:50:39Z</time>
<desc>lat.=55.997520, lon.=26.588760, Alt.=119.278381m. Speed=5.436000m/h.</desc>
<speed>1.510000</speed>
</trkpt>
<trkpt lat="55.997543" lon="26.588743">
<ele>119.235413</ele>
<time>2010-08-29T09:50:40Z</time>
<desc>lat.=55.997543, lon.=26.588743, Alt.=119.235413m. Speed=4.176000m/h.</desc>
<speed>1.160000</speed>
</trkpt>
<trkpt lat="55.997574" lon="26.588717">
<ele>119.024475</ele>
<time>2010-08-29T09:50:41Z</time>
<desc>lat.=55.997574, lon.=26.588717, Alt.=119.024475m. Speed=7.848000m/h.</desc>
<speed>2.180000</speed>
</trkpt>
<trkpt lat="55.997597" lon="26.588694">
<ele>118.729553</ele>
<time>2010-08-29T09:50:42Z</time>
<desc>lat.=55.997597, lon.=26.588694, Alt.=118.729553m. Speed=3.996000m/h.</desc>
<speed>1.110000</speed>
</trkpt>
<trkpt lat="55.997612" lon="26.588690">
<ele>118.460022</ele>
<time>2010-08-29T09:50:43Z</time>
<desc>lat.=55.997612, lon.=26.588690, Alt.=118.460022m. Speed=4.608000m/h.</desc>
<speed>1.280000</speed>
</trkpt>
<trkpt lat="55.997627" lon="26.588671">
<ele>117.786194</ele>
<time>2010-08-29T09:50:44Z</time>
<desc>lat.=55.997627, lon.=26.588671, Alt.=117.786194m. Speed=4.932000m/h.</desc>
<speed>1.370000</speed>
</trkpt>
<trkpt lat="55.997654" lon="26.588655">
<ele>117.501038</ele>
<time>2010-08-29T09:50:45Z</time>
<desc>lat.=55.997654, lon.=26.588655, Alt.=117.501038m. Speed=5.940000m/h.</desc>
<speed>1.650000</speed>
</trkpt>
<trkpt lat="55.997665" lon="26.588631">
<ele>117.184631</ele>
<time>2010-08-29T09:50:46Z</time>
<desc>lat.=55.997665, lon.=26.588631, Alt.=117.184631m. Speed=4.032000m/h.</desc>
<speed>1.120000</speed>
</trkpt>
<trkpt lat="55.997677" lon="26.588598">
<ele>117.071350</ele>
<time>2010-08-29T09:50:47Z</time>
<desc>lat.=55.997677, lon.=26.588598, Alt.=117.071350m. Speed=3.528000m/h.</desc>
<speed>0.980000</speed>
</trkpt>
<trkpt lat="55.997688" lon="26.588575">
<ele>116.819397</ele>
<time>2010-08-29T09:50:48Z</time>
<desc>lat.=55.997688, lon.=26.588575, Alt.=116.819397m. Speed=3.816000m/h.</desc>
<speed>1.060000</speed>
</trkpt>
<trkpt lat="55.997700" lon="26.588556">
<ele>116.700256</ele>
<time>2010-08-29T09:50:49Z</time>
<desc>lat.=55.997700, lon.=26.588556, Alt.=116.700256m. Speed=4.680000m/h.</desc>
<speed>1.300000</speed>
</trkpt>
<trkpt lat="55.997715" lon="26.588533">
<ele>116.495178</ele>
<time>2010-08-29T09:50:50Z</time>
<desc>lat.=55.997715, lon.=26.588533, Alt.=116.495178m. Speed=4.896000m/h.</desc>
<speed>1.360000</speed>
</trkpt>
<trkpt lat="55.997738" lon="26.588501">
<ele>116.290100</ele>
<time>2010-08-29T09:50:51Z</time>
<desc>lat.=55.997738, lon.=26.588501, Alt.=116.290100m. Speed=5.688000m/h.</desc>
<speed>1.580000</speed>
</trkpt>
<trkpt lat="55.997753" lon="26.588448">
<ele>115.393616</ele>
<time>2010-08-29T09:50:52Z</time>
<desc>lat.=55.997753, lon.=26.588448, Alt.=115.393616m. Speed=6.084000m/h.</desc>
<speed>1.690000</speed>
</trkpt>
<trkpt lat="55.997765" lon="26.588375">
<ele>114.608459</ele>
<time>2010-08-29T09:50:53Z</time>
<desc>lat.=55.997765, lon.=26.588375, Alt.=114.608459m. Speed=7.236000m/h.</desc>
<speed>2.010000</speed>
</trkpt>
<trkpt lat="55.997776" lon="26.588318">
<ele>114.559631</ele>
<time>2010-08-29T09:50:54Z</time>
<desc>lat.=55.997776, lon.=26.588318, Alt.=114.559631m. Speed=4.608000m/h.</desc>
<speed>1.280000</speed>
</trkpt>
<trkpt lat="55.997780" lon="26.588282">
<ele>114.309631</ele>
<time>2010-08-29T09:50:55Z</time>
<desc>lat.=55.997780, lon.=26.588282, Alt.=114.309631m. Speed=6.516000m/h.</desc>
<speed>1.810000</speed>
</trkpt>
<trkpt lat="55.997787" lon="26.588236">
<ele>114.366272</ele>
<time>2010-08-29T09:50:56Z</time>
<desc>lat.=55.997787, lon.=26.588236, Alt.=114.366272m. Speed=6.516000m/h.</desc>
<speed>1.810000</speed>
</trkpt>
<trkpt lat="55.997803" lon="26.588181">
<ele>114.606506</ele>
<time>2010-08-29T09:50:57Z</time>
<desc>lat.=55.997803, lon.=26.588181, Alt.=114.606506m. Speed=7.308000m/h.</desc>
<speed>2.030000</speed>
</trkpt>
<trkpt lat="55.997826" lon="26.588139">
<ele>114.821350</ele>
<time>2010-08-29T09:50:58Z</time>
<desc>lat.=55.997826, lon.=26.588139, Alt.=114.821350m. Speed=6.444000m/h.</desc>
<speed>1.790000</speed>
</trkpt>
<trkpt lat="55.997841" lon="26.588068">
<ele>113.626038</ele>
<time>2010-08-29T09:50:59Z</time>
<desc>lat.=55.997841, lon.=26.588068, Alt.=113.626038m. Speed=5.976000m/h.</desc>
<speed>1.660000</speed>
</trkpt>
<trkpt lat="55.997849" lon="26.588017">
<ele>112.690491</ele>
<time>2010-08-29T09:51:00Z</time>
<desc>lat.=55.997849, lon.=26.588017, Alt.=112.690491m. Speed=5.328000m/h.</desc>
<speed>1.480000</speed>
</trkpt>
<trkpt lat="55.997860" lon="26.587975">
<ele>111.977600</ele>
<time>2010-08-29T09:51:01Z</time>
<desc>lat.=55.997860, lon.=26.587975, Alt.=111.977600m. Speed=5.040000m/h.</desc>
<speed>1.400000</speed>
</trkpt>
<trkpt lat="55.997871" lon="26.587946">
<ele>112.288147</ele>
<time>2010-08-29T09:51:02Z</time>
<desc>lat.=55.997871, lon.=26.587946, Alt.=112.288147m. Speed=4.896000m/h.</desc>
<speed>1.360000</speed>
</trkpt>
<trkpt lat="55.997894" lon="26.587919">
<ele>112.471741</ele>
<time>2010-08-29T09:51:03Z</time>
<desc>lat.=55.997894, lon.=26.587919, Alt.=112.471741m. Speed=5.364000m/h.</desc>
<speed>1.490000</speed>
</trkpt>
<trkpt lat="55.997913" lon="26.587891">
<ele>112.381897</ele>
<time>2010-08-29T09:51:04Z</time>
<desc>lat.=55.997913, lon.=26.587891, Alt.=112.381897m. Speed=5.184000m/h.</desc>
<speed>1.440000</speed>
</trkpt>
<trkpt lat="55.997932" lon="26.587851">
<ele>112.622131</ele>
<time>2010-08-29T09:51:05Z</time>
<desc>lat.=55.997932, lon.=26.587851, Alt.=112.622131m. Speed=6.516000m/h.</desc>
<speed>1.810000</speed>
</trkpt>
<trkpt lat="55.997952" lon="26.587822">
<ele>112.702209</ele>
<time>2010-08-29T09:51:06Z</time>
<desc>lat.=55.997952, lon.=26.587822, Alt.=112.702209m. Speed=4.068000m/h.</desc>
<speed>1.130000</speed>
</trkpt>
<trkpt lat="55.997967" lon="26.587801">
<ele>112.438538</ele>
<time>2010-08-29T09:51:07Z</time>
<desc>lat.=55.997967, lon.=26.587801, Alt.=112.438538m. Speed=4.104000m/h.</desc>
<speed>1.140000</speed>
</trkpt>
<trkpt lat="55.997990" lon="26.587742">
<ele>112.165100</ele>
<time>2010-08-29T09:51:08Z</time>
<desc>lat.=55.997990, lon.=26.587742, Alt.=112.165100m. Speed=5.400000m/h.</desc>
<speed>1.500000</speed>
</trkpt>
<trkpt lat="55.998009" lon="26.587713">
<ele>111.881897</ele>
<time>2010-08-29T09:51:09Z</time>
<desc>lat.=55.998009, lon.=26.587713, Alt.=111.881897m. Speed=2.916000m/h.</desc>
<speed>0.810000</speed>
</trkpt>
<trkpt lat="55.998028" lon="26.587660">
<ele>111.528381</ele>
<time>2010-08-29T09:51:10Z</time>
<desc>lat.=55.998028, lon.=26.587660, Alt.=111.528381m. Speed=4.860000m/h.</desc>
<speed>1.350000</speed>
</trkpt>
<trkpt lat="55.998035" lon="26.587629">
<ele>111.600647</ele>
<time>2010-08-29T09:51:11Z</time>
<desc>lat.=55.998035, lon.=26.587629, Alt.=111.600647m. Speed=3.780000m/h.</desc>
<speed>1.050000</speed>
</trkpt>
<trkpt lat="55.998043" lon="26.587595">
<ele>111.491272</ele>
<time>2010-08-29T09:51:12Z</time>
<desc>lat.=55.998043, lon.=26.587595, Alt.=111.491272m. Speed=4.752000m/h.</desc>
<speed>1.320000</speed>
</trkpt>
<trkpt lat="55.998055" lon="26.587549">
<ele>111.260803</ele>
<time>2010-08-29T09:51:13Z</time>
<desc>lat.=55.998055, lon.=26.587549, Alt.=111.260803m. Speed=5.112000m/h.</desc>
<speed>1.420000</speed>
</trkpt>
<trkpt lat="55.998058" lon="26.587505">
<ele>111.112366</ele>
<time>2010-08-29T09:51:14Z</time>
<desc>lat.=55.998058, lon.=26.587505, Alt.=111.112366m. Speed=4.788000m/h.</desc>
<speed>1.330000</speed>
</trkpt>
<trkpt lat="55.998070" lon="26.587475">
<ele>111.477600</ele>
<time>2010-08-29T09:51:15Z</time>
<desc>lat.=55.998070, lon.=26.587475, Alt.=111.477600m. Speed=4.680000m/h.</desc>
<speed>1.300000</speed>
</trkpt>
<trkpt lat="55.998081" lon="26.587435">
<ele>111.266663</ele>
<time>2010-08-29T09:51:16Z</time>
<desc>lat.=55.998081, lon.=26.587435, Alt.=111.266663m. Speed=5.076000m/h.</desc>
<speed>1.410000</speed>
</trkpt>
<trkpt lat="55.998085" lon="26.587389">
<ele>111.518616</ele>
<time>2010-08-29T09:51:17Z</time>
<desc>lat.=55.998085, lon.=26.587389, Alt.=111.518616m. Speed=4.932000m/h.</desc>
<speed>1.370000</speed>
</trkpt>
<trkpt lat="55.998093" lon="26.587362">
<ele>111.842834</ele>
<time>2010-08-29T09:51:18Z</time>
<desc>lat.=55.998093, lon.=26.587362, Alt.=111.842834m. Speed=3.456000m/h.</desc>
<speed>0.960000</speed>
</trkpt>
<trkpt lat="55.998100" lon="26.587332">
<ele>111.237366</ele>
<time>2010-08-29T09:51:19Z</time>
<desc>lat.=55.998100, lon.=26.587332, Alt.=111.237366m. Speed=4.032000m/h.</desc>
<speed>1.120000</speed>
</trkpt>
<trkpt lat="55.998108" lon="26.587299">
<ele>111.208069</ele>
<time>2010-08-29T09:51:20Z</time>
<desc>lat.=55.998108, lon.=26.587299, Alt.=111.208069m. Speed=3.744000m/h.</desc>
<speed>1.040000</speed>
</trkpt>
<trkpt lat="55.998119" lon="26.587257">
<ele>110.956116</ele>
<time>2010-08-29T09:51:21Z</time>
<desc>lat.=55.998119, lon.=26.587257, Alt.=110.956116m. Speed=4.788000m/h.</desc>
<speed>1.330000</speed>
</trkpt>
<trkpt lat="55.998138" lon="26.587206">
<ele>109.577209</ele>
<time>2010-08-29T09:51:22Z</time>
<desc>lat.=55.998138, lon.=26.587206, Alt.=109.577209m. Speed=5.616000m/h.</desc>
<speed>1.560000</speed>
</trkpt>
<trkpt lat="55.998161" lon="26.587168">
<ele>110.270569</ele>
<time>2010-08-29T09:51:23Z</time>
<desc>lat.=55.998161, lon.=26.587168, Alt.=110.270569m. Speed=5.652000m/h.</desc>
<speed>1.570000</speed>
</trkpt>
<trkpt lat="55.998165" lon="26.587133">
<ele>109.965881</ele>
<time>2010-08-29T09:51:24Z</time>
<desc>lat.=55.998165, lon.=26.587133, Alt.=109.965881m. Speed=5.220000m/h.</desc>
<speed>1.450000</speed>
</trkpt>
<trkpt lat="55.998177" lon="26.587105">
<ele>109.717834</ele>
<time>2010-08-29T09:51:25Z</time>
<desc>lat.=55.998177, lon.=26.587105, Alt.=109.717834m. Speed=4.572000m/h.</desc>
<speed>1.270000</speed>
</trkpt>
<trkpt lat="55.998180" lon="26.587078">
<ele>109.463928</ele>
<time>2010-08-29T09:51:26Z</time>
<desc>lat.=55.998180, lon.=26.587078, Alt.=109.463928m. Speed=5.832000m/h.</desc>
<speed>1.620000</speed>
</trkpt>
<trkpt lat="55.998196" lon="26.587036">
<ele>109.561584</ele>
<time>2010-08-29T09:51:27Z</time>
<desc>lat.=55.998196, lon.=26.587036, Alt.=109.561584m. Speed=7.776000m/h.</desc>
<speed>2.160000</speed>
</trkpt>
<trkpt lat="55.998207" lon="26.586996">
<ele>109.297913</ele>
<time>2010-08-29T09:51:28Z</time>
<desc>lat.=55.998207, lon.=26.586996, Alt.=109.297913m. Speed=6.156000m/h.</desc>
<speed>1.710000</speed>
</trkpt>
<trkpt lat="55.998219" lon="26.586967">
<ele>108.881897</ele>
<time>2010-08-29T09:51:29Z</time>
<desc>lat.=55.998219, lon.=26.586967, Alt.=108.881897m. Speed=6.048000m/h.</desc>
<speed>1.680000</speed>
</trkpt>
<trkpt lat="55.998230" lon="26.586935">
<ele>108.545959</ele>
<time>2010-08-29T09:51:30Z</time>
<desc>lat.=55.998230, lon.=26.586935, Alt.=108.545959m. Speed=5.724000m/h.</desc>
<speed>1.590000</speed>
</trkpt>
<trkpt lat="55.998234" lon="26.586908">
<ele>108.430725</ele>
<time>2010-08-29T09:51:31Z</time>
<desc>lat.=55.998234, lon.=26.586908, Alt.=108.430725m. Speed=4.320000m/h.</desc>
<speed>1.200000</speed>
</trkpt>
<trkpt lat="55.998238" lon="26.586863">
<ele>107.686584</ele>
<time>2010-08-29T09:51:32Z</time>
<desc>lat.=55.998238, lon.=26.586863, Alt.=107.686584m. Speed=5.436000m/h.</desc>
<speed>1.510000</speed>
</trkpt>
<trkpt lat="55.998257" lon="26.586821">
<ele>108.044006</ele>
<time>2010-08-29T09:51:33Z</time>
<desc>lat.=55.998257, lon.=26.586821, Alt.=108.044006m. Speed=6.552000m/h.</desc>
<speed>1.820000</speed>
</trkpt>
<trkpt lat="55.998295" lon="26.586775">
<ele>108.762756</ele>
<time>2010-08-29T09:51:34Z</time>
<desc>lat.=55.998295, lon.=26.586775, Alt.=108.762756m. Speed=10.440000m/h.</desc>
<speed>2.900000</speed>
</trkpt>
<trkpt lat="55.998318" lon="26.586727">
<ele>108.331116</ele>
<time>2010-08-29T09:51:35Z</time>
<desc>lat.=55.998318, lon.=26.586727, Alt.=108.331116m. Speed=7.560000m/h.</desc>
<speed>2.100000</speed>
</trkpt>
<trkpt lat="55.998341" lon="26.586683">
<ele>107.936584</ele>
<time>2010-08-29T09:51:36Z</time>
<desc>lat.=55.998341, lon.=26.586683, Alt.=107.936584m. Speed=6.660000m/h.</desc>
<speed>1.850000</speed>
</trkpt>
<trkpt lat="55.998367" lon="26.586639">
<ele>108.022522</ele>
<time>2010-08-29T09:51:37Z</time>
<desc>lat.=55.998367, lon.=26.586639, Alt.=108.022522m. Speed=11.304000m/h.</desc>
<speed>3.140000</speed>
</trkpt>
<trkpt lat="55.998398" lon="26.586590">
<ele>108.567444</ele>
<time>2010-08-29T09:51:38Z</time>
<desc>lat.=55.998398, lon.=26.586590, Alt.=108.567444m. Speed=10.044000m/h.</desc>
<speed>2.790000</speed>
</trkpt>
<trkpt lat="55.998421" lon="26.586555">
<ele>108.926819</ele>
<time>2010-08-29T09:51:39Z</time>
<desc>lat.=55.998421, lon.=26.586555, Alt.=108.926819m. Speed=5.832000m/h.</desc>
<speed>1.620000</speed>
</trkpt>
<trkpt lat="55.998432" lon="26.586525">
<ele>109.018616</ele>
<time>2010-08-29T09:51:40Z</time>
<desc>lat.=55.998432, lon.=26.586525, Alt.=109.018616m. Speed=3.816000m/h.</desc>
<speed>1.060000</speed>
</trkpt>
<trkpt lat="55.998444" lon="26.586477">
<ele>108.641663</ele>
<time>2010-08-29T09:51:41Z</time>
<desc>lat.=55.998444, lon.=26.586477, Alt.=108.641663m. Speed=6.552000m/h.</desc>
<speed>1.820000</speed>
</trkpt>
<trkpt lat="55.998459" lon="26.586447">
<ele>108.735413</ele>
<time>2010-08-29T09:51:42Z</time>
<desc>lat.=55.998459, lon.=26.586447, Alt.=108.735413m. Speed=6.516000m/h.</desc>
<speed>1.810000</speed>
</trkpt>
<trkpt lat="55.998482" lon="26.586412">
<ele>108.200256</ele>
<time>2010-08-29T09:51:43Z</time>
<desc>lat.=55.998482, lon.=26.586412, Alt.=108.200256m. Speed=6.408000m/h.</desc>
<speed>1.780000</speed>
</trkpt>
<trkpt lat="55.998505" lon="26.586380">
<ele>108.096741</ele>
<time>2010-08-29T09:51:44Z</time>
<desc>lat.=55.998505, lon.=26.586380, Alt.=108.096741m. Speed=4.788000m/h.</desc>
<speed>1.330000</speed>
</trkpt>
<trkpt lat="55.998508" lon="26.586353">
<ele>107.434631</ele>
<time>2010-08-29T09:51:45Z</time>
<desc>lat.=55.998508, lon.=26.586353, Alt.=107.434631m. Speed=5.256000m/h.</desc>
<speed>1.460000</speed>
</trkpt>
<trkpt lat="55.998520" lon="26.586330">
<ele>107.295959</ele>
<time>2010-08-29T09:51:46Z</time>
<desc>lat.=55.998520, lon.=26.586330, Alt.=107.295959m. Speed=3.096000m/h.</desc>
<speed>0.860000</speed>
</trkpt>
<trkpt lat="55.998535" lon="26.586294">
<ele>106.700256</ele>
<time>2010-08-29T09:51:47Z</time>
<desc>lat.=55.998535, lon.=26.586294, Alt.=106.700256m. Speed=4.608000m/h.</desc>
<speed>1.280000</speed>
</trkpt>
<trkpt lat="55.998566" lon="26.586254">
<ele>105.721741</ele>
<time>2010-08-29T09:51:48Z</time>
<desc>lat.=55.998566, lon.=26.586254, Alt.=105.721741m. Speed=5.292000m/h.</desc>
<speed>1.470000</speed>
</trkpt>
<trkpt lat="55.998581" lon="26.586241">
<ele>105.499084</ele>
<time>2010-08-29T09:51:49Z</time>
<desc>lat.=55.998581, lon.=26.586241, Alt.=105.499084m. Speed=5.652000m/h.</desc>
<speed>1.570000</speed>
</trkpt>
<trkpt lat="55.998596" lon="26.586224">
<ele>105.295959</ele>
<time>2010-08-29T09:51:50Z</time>
<desc>lat.=55.998596, lon.=26.586224, Alt.=105.295959m. Speed=5.796000m/h.</desc>
<speed>1.610000</speed>
</trkpt>
<trkpt lat="55.998615" lon="26.586195">
<ele>105.563538</ele>
<time>2010-08-29T09:51:51Z</time>
<desc>lat.=55.998615, lon.=26.586195, Alt.=105.563538m. Speed=8.028000m/h.</desc>
<speed>2.230000</speed>
</trkpt>
<trkpt lat="55.998638" lon="26.586164">
<ele>105.565491</ele>
<time>2010-08-29T09:51:52Z</time>
<desc>lat.=55.998638, lon.=26.586164, Alt.=105.565491m. Speed=8.424000m/h.</desc>
<speed>2.340000</speed>
</trkpt>
<trkpt lat="55.998669" lon="26.586134">
<ele>105.684631</ele>
<time>2010-08-29T09:51:53Z</time>
<desc>lat.=55.998669, lon.=26.586134, Alt.=105.684631m. Speed=9.864000m/h.</desc>
<speed>2.740000</speed>
</trkpt>
<trkpt lat="55.998688" lon="26.586107">
<ele>105.321350</ele>
<time>2010-08-29T09:51:54Z</time>
<desc>lat.=55.998688, lon.=26.586107, Alt.=105.321350m. Speed=7.812000m/h.</desc>
<speed>2.170000</speed>
</trkpt>
<trkpt lat="55.998726" lon="26.586060">
<ele>104.862366</ele>
<time>2010-08-29T09:51:55Z</time>
<desc>lat.=55.998726, lon.=26.586060, Alt.=104.862366m. Speed=8.496000m/h.</desc>
<speed>2.360000</speed>
</trkpt>
<trkpt lat="55.998749" lon="26.586023">
<ele>104.721741</ele>
<time>2010-08-29T09:51:56Z</time>
<desc>lat.=55.998749, lon.=26.586023, Alt.=104.721741m. Speed=9.108000m/h.</desc>
<speed>2.530000</speed>
</trkpt>
<trkpt lat="55.998783" lon="26.585985">
<ele>104.920959</ele>
<time>2010-08-29T09:51:57Z</time>
<desc>lat.=55.998783, lon.=26.585985, Alt.=104.920959m. Speed=6.120000m/h.</desc>
<speed>1.700000</speed>
</trkpt>
<trkpt lat="55.998833" lon="26.585947">
<ele>105.204163</ele>
<time>2010-08-29T09:51:58Z</time>
<desc>lat.=55.998833, lon.=26.585947, Alt.=105.204163m. Speed=6.084000m/h.</desc>
<speed>1.690000</speed>
</trkpt>
<trkpt lat="55.998878" lon="26.585922">
<ele>106.004944</ele>
<time>2010-08-29T09:51:59Z</time>
<desc>lat.=55.998878, lon.=26.585922, Alt.=106.004944m. Speed=7.128000m/h.</desc>
<speed>1.980000</speed>
</trkpt>
<trkpt lat="55.998905" lon="26.585892">
<ele>106.241272</ele>
<time>2010-08-29T09:52:00Z</time>
<desc>lat.=55.998905, lon.=26.585892, Alt.=106.241272m. Speed=10.152000m/h.</desc>
<speed>2.820000</speed>
</trkpt>
<trkpt lat="55.998928" lon="26.585861">
<ele>106.379944</ele>
<time>2010-08-29T09:52:01Z</time>
<desc>lat.=55.998928, lon.=26.585861, Alt.=106.379944m. Speed=8.532000m/h.</desc>
<speed>2.370000</speed>
</trkpt>
<trkpt lat="55.998955" lon="26.585829">
<ele>106.086975</ele>
<time>2010-08-29T09:52:02Z</time>
<desc>lat.=55.998955, lon.=26.585829, Alt.=106.086975m. Speed=7.812000m/h.</desc>
<speed>2.170000</speed>
</trkpt>
<trkpt lat="55.998974" lon="26.585810">
<ele>106.358459</ele>
<time>2010-08-29T09:52:03Z</time>
<desc>lat.=55.998974, lon.=26.585810, Alt.=106.358459m. Speed=6.876000m/h.</desc>
<speed>1.910000</speed>
</trkpt>
<trkpt lat="55.998989" lon="26.585787">
<ele>106.442444</ele>
<time>2010-08-29T09:52:04Z</time>
<desc>lat.=55.998989, lon.=26.585787, Alt.=106.442444m. Speed=5.832000m/h.</desc>
<speed>1.620000</speed>
</trkpt>
<trkpt lat="55.999012" lon="26.585762">
<ele>106.704163</ele>
<time>2010-08-29T09:52:05Z</time>
<desc>lat.=55.999012, lon.=26.585762, Alt.=106.704163m. Speed=6.732000m/h.</desc>
<speed>1.870000</speed>
</trkpt>
<trkpt lat="55.999023" lon="26.585743">
<ele>106.725647</ele>
<time>2010-08-29T09:52:06Z</time>
<desc>lat.=55.999023, lon.=26.585743, Alt.=106.725647m. Speed=4.788000m/h.</desc>
<speed>1.330000</speed>
</trkpt>
<trkpt lat="55.999046" lon="26.585714">
<ele>106.942444</ele>
<time>2010-08-29T09:52:07Z</time>
<desc>lat.=55.999046, lon.=26.585714, Alt.=106.942444m. Speed=5.472000m/h.</desc>
<speed>1.520000</speed>
</trkpt>
<trkpt lat="55.999073" lon="26.585688">
<ele>107.182678</ele>
<time>2010-08-29T09:52:08Z</time>
<desc>lat.=55.999073, lon.=26.585688, Alt.=107.182678m. Speed=4.932000m/h.</desc>
<speed>1.370000</speed>
</trkpt>
<trkpt lat="55.999084" lon="26.585670">
<ele>107.436584</ele>
<time>2010-08-29T09:52:09Z</time>
<desc>lat.=55.999084, lon.=26.585670, Alt.=107.436584m. Speed=4.752000m/h.</desc>
<speed>1.320000</speed>
</trkpt>
<trkpt lat="55.999119" lon="26.585638">
<ele>107.887756</ele>
<time>2010-08-29T09:52:10Z</time>
<desc>lat.=55.999119, lon.=26.585638, Alt.=107.887756m. Speed=9.540000m/h.</desc>
<speed>2.650000</speed>
</trkpt>
<trkpt lat="55.999146" lon="26.585608">
<ele>108.192444</ele>
<time>2010-08-29T09:52:11Z</time>
<desc>lat.=55.999146, lon.=26.585608, Alt.=108.192444m. Speed=7.452000m/h.</desc>
<speed>2.070000</speed>
</trkpt>
<trkpt lat="55.999165" lon="26.585587">
<ele>108.260803</ele>
<time>2010-08-29T09:52:12Z</time>
<desc>lat.=55.999165, lon.=26.585587, Alt.=108.260803m. Speed=7.020000m/h.</desc>
<speed>1.950000</speed>
</trkpt>
<trkpt lat="55.999184" lon="26.585558">
<ele>108.516663</ele>
<time>2010-08-29T09:52:13Z</time>
<desc>lat.=55.999184, lon.=26.585558, Alt.=108.516663m. Speed=6.840000m/h.</desc>
<speed>1.900000</speed>
</trkpt>
<trkpt lat="55.999207" lon="26.585543">
<ele>108.915100</ele>
<time>2010-08-29T09:52:14Z</time>
<desc>lat.=55.999207, lon.=26.585543, Alt.=108.915100m. Speed=9.756000m/h.</desc>
<speed>2.710000</speed>
</trkpt>
<trkpt lat="55.999233" lon="26.585535">
<ele>109.153381</ele>
<time>2010-08-29T09:52:15Z</time>
<desc>lat.=55.999233, lon.=26.585535, Alt.=109.153381m. Speed=5.328000m/h.</desc>
<speed>1.480000</speed>
</trkpt>
<trkpt lat="55.999256" lon="26.585508">
<ele>109.217834</ele>
<time>2010-08-29T09:52:16Z</time>
<desc>lat.=55.999256, lon.=26.585508, Alt.=109.217834m. Speed=6.228000m/h.</desc>
<speed>1.730000</speed>
</trkpt>
<trkpt lat="55.999275" lon="26.585480">
<ele>109.598694</ele>
<time>2010-08-29T09:52:17Z</time>
<desc>lat.=55.999275, lon.=26.585480, Alt.=109.598694m. Speed=8.244000m/h.</desc>
<speed>2.290000</speed>
</trkpt>
<trkpt lat="55.999279" lon="26.585463">
<ele>109.577209</ele>
<time>2010-08-29T09:52:18Z</time>
<desc>lat.=55.999279, lon.=26.585463, Alt.=109.577209m. Speed=4.032000m/h.</desc>
<speed>1.120000</speed>
</trkpt>
<trkpt lat="55.999287" lon="26.585440">
<ele>109.954163</ele>
<time>2010-08-29T09:52:19Z</time>
<desc>lat.=55.999287, lon.=26.585440, Alt.=109.954163m. Speed=3.672000m/h.</desc>
<speed>1.020000</speed>
</trkpt>
<trkpt lat="55.999302" lon="26.585417">
<ele>110.163147</ele>
<time>2010-08-29T09:52:20Z</time>
<desc>lat.=55.999302, lon.=26.585417, Alt.=110.163147m. Speed=5.724000m/h.</desc>
<speed>1.590000</speed>
</trkpt>
<trkpt lat="55.999325" lon="26.585400">
<ele>110.510803</ele>
<time>2010-08-29T09:52:21Z</time>
<desc>lat.=55.999325, lon.=26.585400, Alt.=110.510803m. Speed=4.896000m/h.</desc>
<speed>1.360000</speed>
</trkpt>
<trkpt lat="55.999344" lon="26.585382">
<ele>110.897522</ele>
<time>2010-08-29T09:52:22Z</time>
<desc>lat.=55.999344, lon.=26.585382, Alt.=110.897522m. Speed=5.184000m/h.</desc>
<speed>1.440000</speed>
</trkpt>
<trkpt lat="55.999355" lon="26.585365">
<ele>111.233459</ele>
<time>2010-08-29T09:52:23Z</time>
<desc>lat.=55.999355, lon.=26.585365, Alt.=111.233459m. Speed=4.140000m/h.</desc>
<speed>1.150000</speed>
</trkpt>
<trkpt lat="55.999367" lon="26.585350">
<ele>111.977600</ele>
<time>2010-08-29T09:52:24Z</time>
<desc>lat.=55.999367, lon.=26.585350, Alt.=111.977600m. Speed=3.132000m/h.</desc>
<speed>0.870000</speed>
</trkpt>
<trkpt lat="55.999374" lon="26.585342">
<ele>112.614319</ele>
<time>2010-08-29T09:52:25Z</time>
<desc>lat.=55.999374, lon.=26.585342, Alt.=112.614319m. Speed=4.212000m/h.</desc>
<speed>1.170000</speed>
</trkpt>
<trkpt lat="55.999390" lon="26.585329">
<ele>113.549866</ele>
<time>2010-08-29T09:52:26Z</time>
<desc>lat.=55.999390, lon.=26.585329, Alt.=113.549866m. Speed=2.088000m/h.</desc>
<speed>0.580000</speed>
</trkpt>
<trkpt lat="55.999393" lon="26.585318">
<ele>113.780334</ele>
<time>2010-08-29T09:52:27Z</time>
<desc>lat.=55.999393, lon.=26.585318, Alt.=113.780334m. Speed=2.664000m/h.</desc>
<speed>0.740000</speed>
</trkpt>
<trkpt lat="55.999405" lon="26.585299">
<ele>114.342834</ele>
<time>2010-08-29T09:52:28Z</time>
<desc>lat.=55.999405, lon.=26.585299, Alt.=114.342834m. Speed=3.420000m/h.</desc>
<speed>0.950000</speed>
</trkpt>
<trkpt lat="55.999424" lon="26.585283">
<ele>115.014709</ele>
<time>2010-08-29T09:52:29Z</time>
<desc>lat.=55.999424, lon.=26.585283, Alt.=115.014709m. Speed=3.996000m/h.</desc>
<speed>1.110000</speed>
</trkpt>
<trkpt lat="55.999439" lon="26.585260">
<ele>115.770569</ele>
<time>2010-08-29T09:52:30Z</time>
<desc>lat.=55.999439, lon.=26.585260, Alt.=115.770569m. Speed=4.392000m/h.</desc>
<speed>1.220000</speed>
</trkpt>
<trkpt lat="55.999458" lon="26.585222">
<ele>115.467834</ele>
<time>2010-08-29T09:52:31Z</time>
<desc>lat.=55.999458, lon.=26.585222, Alt.=115.467834m. Speed=3.924000m/h.</desc>
<speed>1.090000</speed>
</trkpt>
<trkpt lat="55.999470" lon="26.585203">
<ele>115.780334</ele>
<time>2010-08-29T09:52:32Z</time>
<desc>lat.=55.999470, lon.=26.585203, Alt.=115.780334m. Speed=4.140000m/h.</desc>
<speed>1.150000</speed>
</trkpt>
<trkpt lat="55.999481" lon="26.585186">
<ele>115.967834</ele>
<time>2010-08-29T09:52:33Z</time>
<desc>lat.=55.999481, lon.=26.585186, Alt.=115.967834m. Speed=3.852000m/h.</desc>
<speed>1.070000</speed>
</trkpt>
<trkpt lat="55.999496" lon="26.585154">
<ele>116.122131</ele>
<time>2010-08-29T09:52:34Z</time>
<desc>lat.=55.999496, lon.=26.585154, Alt.=116.122131m. Speed=4.536000m/h.</desc>
<speed>1.260000</speed>
</trkpt>
<trkpt lat="55.999519" lon="26.585106">
<ele>115.200256</ele>
<time>2010-08-29T09:52:35Z</time>
<desc>lat.=55.999519, lon.=26.585106, Alt.=115.200256m. Speed=5.040000m/h.</desc>
<speed>1.400000</speed>
</trkpt>
<trkpt lat="55.999538" lon="26.585077">
<ele>115.137756</ele>
<time>2010-08-29T09:52:36Z</time>
<desc>lat.=55.999538, lon.=26.585077, Alt.=115.137756m. Speed=3.600000m/h.</desc>
<speed>1.000000</speed>
</trkpt>
<trkpt lat="55.999561" lon="26.585054">
<ele>114.809631</ele>
<time>2010-08-29T09:52:37Z</time>
<desc>lat.=55.999561, lon.=26.585054, Alt.=114.809631m. Speed=1.836000m/h.</desc>
<speed>0.510000</speed>
</trkpt>
<trkpt lat="55.999580" lon="26.585026">
<ele>114.024475</ele>
<time>2010-08-29T09:52:38Z</time>
<desc>lat.=55.999580, lon.=26.585026, Alt.=114.024475m. Speed=3.456000m/h.</desc>
<speed>0.960000</speed>
</trkpt>
<trkpt lat="55.999596" lon="26.585001">
<ele>114.239319</ele>
<time>2010-08-29T09:52:39Z</time>
<desc>lat.=55.999596, lon.=26.585001, Alt.=114.239319m. Speed=3.744000m/h.</desc>
<speed>1.040000</speed>
</trkpt>
<trkpt lat="55.999607" lon="26.584980">
<ele>114.567444</ele>
<time>2010-08-29T09:52:40Z</time>
<desc>lat.=55.999607, lon.=26.584980, Alt.=114.567444m. Speed=3.600000m/h.</desc>
<speed>1.000000</speed>
</trkpt>
<trkpt lat="55.999622" lon="26.584955">
<ele>114.362366</ele>
<time>2010-08-29T09:52:41Z</time>
<desc>lat.=55.999622, lon.=26.584955, Alt.=114.362366m. Speed=3.708000m/h.</desc>
<speed>1.030000</speed>
</trkpt>
<trkpt lat="55.999630" lon="26.584929">
<ele>114.440491</ele>
<time>2010-08-29T09:52:42Z</time>
<desc>lat.=55.999630, lon.=26.584929, Alt.=114.440491m. Speed=4.932000m/h.</desc>
<speed>1.370000</speed>
</trkpt>
<trkpt lat="55.999649" lon="26.584883">
<ele>113.866272</ele>
<time>2010-08-29T09:52:43Z</time>
<desc>lat.=55.999649, lon.=26.584883, Alt.=113.866272m. Speed=6.876000m/h.</desc>
<speed>1.910000</speed>
</trkpt>
<trkpt lat="55.999660" lon="26.584852">
<ele>113.924866</ele>
<time>2010-08-29T09:52:44Z</time>
<desc>lat.=55.999660, lon.=26.584852, Alt.=113.924866m. Speed=6.480000m/h.</desc>
<speed>1.800000</speed>
</trkpt>
<trkpt lat="55.999683" lon="26.584808">
<ele>113.258850</ele>
<time>2010-08-29T09:52:45Z</time>
<desc>lat.=55.999683, lon.=26.584808, Alt.=113.258850m. Speed=5.184000m/h.</desc>
<speed>1.440000</speed>
</trkpt>
<trkpt lat="55.999695" lon="26.584774">
<ele>112.899475</ele>
<time>2010-08-29T09:52:46Z</time>
<desc>lat.=55.999695, lon.=26.584774, Alt.=112.899475m. Speed=4.356000m/h.</desc>
<speed>1.210000</speed>
</trkpt>
<trkpt lat="55.999718" lon="26.584736">
<ele>112.383850</ele>
<time>2010-08-29T09:52:47Z</time>
<desc>lat.=55.999718, lon.=26.584736, Alt.=112.383850m. Speed=4.896000m/h.</desc>
<speed>1.360000</speed>
</trkpt>
<trkpt lat="55.999733" lon="26.584717">
<ele>112.211975</ele>
<time>2010-08-29T09:52:48Z</time>
<desc>lat.=55.999733, lon.=26.584717, Alt.=112.211975m. Speed=4.104000m/h.</desc>
<speed>1.140000</speed>
</trkpt>
<trkpt lat="55.999752" lon="26.584692">
<ele>112.491272</ele>
<time>2010-08-29T09:52:49Z</time>
<desc>lat.=55.999752, lon.=26.584692, Alt.=112.491272m. Speed=4.392000m/h.</desc>
<speed>1.220000</speed>
</trkpt>
<trkpt lat="55.999763" lon="26.584677">
<ele>112.376038</ele>
<time>2010-08-29T09:52:50Z</time>
<desc>lat.=55.999763, lon.=26.584677, Alt.=112.376038m. Speed=3.060000m/h.</desc>
<speed>0.850000</speed>
</trkpt>
<trkpt lat="55.999767" lon="26.584669">
<ele>112.454163</ele>
<time>2010-08-29T09:52:51Z</time>
<desc>lat.=55.999767, lon.=26.584669, Alt.=112.454163m. Speed=0.756000m/h.</desc>
<speed>0.210000</speed>
</trkpt>
<trkpt lat="55.999775" lon="26.584663">
<ele>112.577209</ele>
<time>2010-08-29T09:52:52Z</time>
<desc>lat.=55.999775, lon.=26.584663, Alt.=112.577209m. Speed=0.684000m/h.</desc>
<speed>0.190000</speed>
</trkpt>
<trkpt lat="55.999786" lon="26.584656">
<ele>112.717834</ele>
<time>2010-08-29T09:52:53Z</time>
<desc>lat.=55.999786, lon.=26.584656, Alt.=112.717834m. Speed=0.828000m/h.</desc>
<speed>0.230000</speed>
</trkpt>
<trkpt lat="55.999802" lon="26.584646">
<ele>112.833069</ele>
<time>2010-08-29T09:52:54Z</time>
<desc>lat.=55.999802, lon.=26.584646, Alt.=112.833069m. Speed=1.008000m/h.</desc>
<speed>0.280000</speed>
</trkpt>
<trkpt lat="55.999805" lon="26.584642">
<ele>112.870178</ele>
<time>2010-08-29T09:52:55Z</time>
<desc>lat.=55.999805, lon.=26.584642, Alt.=112.870178m. Speed=1.116000m/h.</desc>
<speed>0.310000</speed>
</trkpt>
<trkpt lat="55.999813" lon="26.584631">
<ele>112.795959</ele>
<time>2010-08-29T09:52:56Z</time>
<desc>lat.=55.999813, lon.=26.584631, Alt.=112.795959m. Speed=1.080000m/h.</desc>
<speed>0.300000</speed>
</trkpt>
<trkpt lat="55.999809" lon="26.584618">
<ele>112.772522</ele>
<time>2010-08-29T09:52:57Z</time>
<desc>lat.=55.999809, lon.=26.584618, Alt.=112.772522m. Speed=0.972000m/h.</desc>
<speed>0.270000</speed>
</trkpt>
<trkpt lat="55.999813" lon="26.584616">
<ele>112.852600</ele>
<time>2010-08-29T09:52:58Z</time>
<desc>lat.=55.999813, lon.=26.584616, Alt.=112.852600m. Speed=0.792000m/h.</desc>
<speed>0.220000</speed>
</trkpt>
<trkpt lat="55.999817" lon="26.584602">
<ele>112.897522</ele>
<time>2010-08-29T09:52:59Z</time>
<desc>lat.=55.999817, lon.=26.584602, Alt.=112.897522m. Speed=1.116000m/h.</desc>
<speed>0.310000</speed>
</trkpt>
<trkpt lat="55.999817" lon="26.584599">
<ele>112.967834</ele>
<time>2010-08-29T09:53:00Z</time>
<desc>lat.=55.999817, lon.=26.584599, Alt.=112.967834m. Speed=1.080000m/h.</desc>
<speed>0.300000</speed>
</trkpt>
<trkpt lat="55.999821" lon="26.584595">
<ele>112.840881</ele>
<time>2010-08-29T09:53:01Z</time>
<desc>lat.=55.999821, lon.=26.584595, Alt.=112.840881m. Speed=1.008000m/h.</desc>
<speed>0.280000</speed>
</trkpt>
<trkpt lat="55.999825" lon="26.584589">
<ele>112.813538</ele>
<time>2010-08-29T09:53:02Z</time>
<desc>lat.=55.999825, lon.=26.584589, Alt.=112.813538m. Speed=1.080000m/h.</desc>
<speed>0.300000</speed>
</trkpt>
<trkpt lat="55.999828" lon="26.584587">
<ele>112.774475</ele>
<time>2010-08-29T09:53:03Z</time>
<desc>lat.=55.999828, lon.=26.584587, Alt.=112.774475m. Speed=0.972000m/h.</desc>
<speed>0.270000</speed>
</trkpt>
<trkpt lat="55.999832" lon="26.584583">
<ele>112.731506</ele>
<time>2010-08-29T09:53:04Z</time>
<desc>lat.=55.999832, lon.=26.584583, Alt.=112.731506m. Speed=0.936000m/h.</desc>
<speed>0.260000</speed>
</trkpt>
<trkpt lat="55.999832" lon="26.584581">
<ele>112.670959</ele>
<time>2010-08-29T09:53:05Z</time>
<desc>lat.=55.999832, lon.=26.584581, Alt.=112.670959m. Speed=0.900000m/h.</desc>
<speed>0.250000</speed>
</trkpt>
<trkpt lat="55.999840" lon="26.584579">
<ele>112.563538</ele>
<time>2010-08-29T09:53:06Z</time>
<desc>lat.=55.999840, lon.=26.584579, Alt.=112.563538m. Speed=0.936000m/h.</desc>
<speed>0.260000</speed>
</trkpt>
<trkpt lat="55.999840" lon="26.584576">
<ele>112.573303</ele>
<time>2010-08-29T09:53:07Z</time>
<desc>lat.=55.999840, lon.=26.584576, Alt.=112.573303m. Speed=1.188000m/h.</desc>
<speed>0.330000</speed>
</trkpt>
<trkpt lat="55.999836" lon="26.584551">
<ele>112.567444</ele>
<time>2010-08-29T09:53:08Z</time>
<desc>lat.=55.999836, lon.=26.584551, Alt.=112.567444m. Speed=1.476000m/h.</desc>
<speed>0.410000</speed>
</trkpt>
<trkpt lat="55.999836" lon="26.584528">
<ele>112.415100</ele>
<time>2010-08-29T09:53:09Z</time>
<desc>lat.=55.999836, lon.=26.584528, Alt.=112.415100m. Speed=2.016000m/h.</desc>
<speed>0.560000</speed>
</trkpt>
<trkpt lat="55.999844" lon="26.584509">
<ele>112.356506</ele>
<time>2010-08-29T09:53:10Z</time>
<desc>lat.=55.999844, lon.=26.584509, Alt.=112.356506m. Speed=2.268000m/h.</desc>
<speed>0.630000</speed>
</trkpt>
<trkpt lat="55.999847" lon="26.584486">
<ele>112.518616</ele>
<time>2010-08-29T09:53:11Z</time>
<desc>lat.=55.999847, lon.=26.584486, Alt.=112.518616m. Speed=3.672000m/h.</desc>
<speed>1.020000</speed>
</trkpt>
<trkpt lat="55.999851" lon="26.584467">
<ele>112.477600</ele>
<time>2010-08-29T09:53:12Z</time>
<desc>lat.=55.999851, lon.=26.584467, Alt.=112.477600m. Speed=6.660000m/h.</desc>
<speed>1.850000</speed>
</trkpt>
<trkpt lat="55.999878" lon="26.584457">
<ele>111.823303</ele>
<time>2010-08-29T09:53:13Z</time>
<desc>lat.=55.999878, lon.=26.584457, Alt.=111.823303m. Speed=8.964000m/h.</desc>
<speed>2.490000</speed>
</trkpt>
<trkpt lat="55.999889" lon="26.584425">
<ele>111.241272</ele>
<time>2010-08-29T09:53:14Z</time>
<desc>lat.=55.999889, lon.=26.584425, Alt.=111.241272m. Speed=9.036000m/h.</desc>
<speed>2.510000</speed>
</trkpt>
<trkpt lat="55.999908" lon="26.584389">
<ele>110.549866</ele>
<time>2010-08-29T09:53:15Z</time>
<desc>lat.=55.999908, lon.=26.584389, Alt.=110.549866m. Speed=10.872000m/h.</desc>
<speed>3.020000</speed>
</trkpt>
<trkpt lat="55.999924" lon="26.584339">
<ele>110.161194</ele>
<time>2010-08-29T09:53:16Z</time>
<desc>lat.=55.999924, lon.=26.584339, Alt.=110.161194m. Speed=12.924000m/h.</desc>
<speed>3.590000</speed>
</trkpt>
<trkpt lat="55.999950" lon="26.584286">
<ele>109.598694</ele>
<time>2010-08-29T09:53:17Z</time>
<desc>lat.=55.999950, lon.=26.584286, Alt.=109.598694m. Speed=15.048000m/h.</desc>
<speed>4.180000</speed>
</trkpt>
<trkpt lat="55.999969" lon="26.584232">
<ele>109.073303</ele>
<time>2010-08-29T09:53:18Z</time>
<desc>lat.=55.999969, lon.=26.584232, Alt.=109.073303m. Speed=11.448000m/h.</desc>
<speed>3.180000</speed>
</trkpt>
<trkpt lat="55.999992" lon="26.584177">
<ele>109.327209</ele>
<time>2010-08-29T09:53:19Z</time>
<desc>lat.=55.999992, lon.=26.584177, Alt.=109.327209m. Speed=11.448000m/h.</desc>
<speed>3.180000</speed>
</trkpt>
<trkpt lat="56.000019" lon="26.584120">
<ele>109.317444</ele>
<time>2010-08-29T09:53:20Z</time>
<desc>lat.=56.000019, lon.=26.584120, Alt.=109.317444m. Speed=13.572000m/h.</desc>
<speed>3.770000</speed>
</trkpt>
<trkpt lat="56.000050" lon="26.584072">
<ele>109.461975</ele>
<time>2010-08-29T09:53:21Z</time>
<desc>lat.=56.000050, lon.=26.584072, Alt.=109.461975m. Speed=15.408000m/h.</desc>
<speed>4.280000</speed>
</trkpt>
<trkpt lat="56.000069" lon="26.584044">
<ele>109.557678</ele>
<time>2010-08-29T09:53:22Z</time>
<desc>lat.=56.000069, lon.=26.584044, Alt.=109.557678m. Speed=8.640000m/h.</desc>
<speed>2.400000</speed>
</trkpt>
<trkpt lat="56.000092" lon="26.584021">
<ele>109.385803</ele>
<time>2010-08-29T09:53:23Z</time>
<desc>lat.=56.000092, lon.=26.584021, Alt.=109.385803m. Speed=5.580000m/h.</desc>
<speed>1.550000</speed>
</trkpt>
<trkpt lat="56.000114" lon="26.583988">
<ele>108.674866</ele>
<time>2010-08-29T09:53:24Z</time>
<desc>lat.=56.000114, lon.=26.583988, Alt.=108.674866m. Speed=5.256000m/h.</desc>
<speed>1.460000</speed>
</trkpt>
<trkpt lat="56.000130" lon="26.583967">
<ele>108.333069</ele>
<time>2010-08-29T09:53:25Z</time>
<desc>lat.=56.000130, lon.=26.583967, Alt.=108.333069m. Speed=7.236000m/h.</desc>
<speed>2.010000</speed>
</trkpt>
<trkpt lat="56.000141" lon="26.583954">
<ele>108.405334</ele>
<time>2010-08-29T09:53:26Z</time>
<desc>lat.=56.000141, lon.=26.583954, Alt.=108.405334m. Speed=4.248000m/h.</desc>
<speed>1.180000</speed>
</trkpt>
<trkpt lat="56.000172" lon="26.583927">
<ele>108.784241</ele>
<time>2010-08-29T09:53:27Z</time>
<desc>lat.=56.000172, lon.=26.583927, Alt.=108.784241m. Speed=8.820000m/h.</desc>
<speed>2.450000</speed>
</trkpt>
<trkpt lat="56.000195" lon="26.583902">
<ele>109.067444</ele>
<time>2010-08-29T09:53:28Z</time>
<desc>lat.=56.000195, lon.=26.583902, Alt.=109.067444m. Speed=9.324000m/h.</desc>
<speed>2.590000</speed>
</trkpt>
<trkpt lat="56.000210" lon="26.583885">
<ele>109.114319</ele>
<time>2010-08-29T09:53:29Z</time>
<desc>lat.=56.000210, lon.=26.583885, Alt.=109.114319m. Speed=5.040000m/h.</desc>
<speed>1.400000</speed>
</trkpt>
<trkpt lat="56.000225" lon="26.583868">
<ele>109.223694</ele>
<time>2010-08-29T09:53:30Z</time>
<desc>lat.=56.000225, lon.=26.583868, Alt.=109.223694m. Speed=5.832000m/h.</desc>
<speed>1.620000</speed>
</trkpt>
<trkpt lat="56.000244" lon="26.583851">
<ele>109.311584</ele>
<time>2010-08-29T09:53:31Z</time>
<desc>lat.=56.000244, lon.=26.583851, Alt.=109.311584m. Speed=6.984000m/h.</desc>
<speed>1.940000</speed>
</trkpt>
<trkpt lat="56.000267" lon="26.583830">
<ele>109.235413</ele>
<time>2010-08-29T09:53:32Z</time>
<desc>lat.=56.000267, lon.=26.583830, Alt.=109.235413m. Speed=6.516000m/h.</desc>
<speed>1.810000</speed>
</trkpt>
<trkpt lat="56.000282" lon="26.583815">
<ele>109.141663</ele>
<time>2010-08-29T09:53:33Z</time>
<desc>lat.=56.000282, lon.=26.583815, Alt.=109.141663m. Speed=6.480000m/h.</desc>
<speed>1.800000</speed>
</trkpt>
<trkpt lat="56.000298" lon="26.583796">
<ele>109.073303</ele>
<time>2010-08-29T09:53:34Z</time>
<desc>lat.=56.000298, lon.=26.583796, Alt.=109.073303m. Speed=5.400000m/h.</desc>
<speed>1.500000</speed>
</trkpt>
<trkpt lat="56.000313" lon="26.583776">
<ele>109.321350</ele>
<time>2010-08-29T09:53:35Z</time>
<desc>lat.=56.000313, lon.=26.583776, Alt.=109.321350m. Speed=5.184000m/h.</desc>
<speed>1.440000</speed>
</trkpt>
<trkpt lat="56.000324" lon="26.583759">
<ele>109.446350</ele>
<time>2010-08-29T09:53:36Z</time>
<desc>lat.=56.000324, lon.=26.583759, Alt.=109.446350m. Speed=4.644000m/h.</desc>
<speed>1.290000</speed>
</trkpt>
<trkpt lat="56.000336" lon="26.583746">
<ele>109.770569</ele>
<time>2010-08-29T09:53:37Z</time>
<desc>lat.=56.000336, lon.=26.583746, Alt.=109.770569m. Speed=3.024000m/h.</desc>
<speed>0.840000</speed>
</trkpt>
<trkpt lat="56.000343" lon="26.583727">
<ele>110.182678</ele>
<time>2010-08-29T09:53:38Z</time>
<desc>lat.=56.000343, lon.=26.583727, Alt.=110.182678m. Speed=3.888000m/h.</desc>
<speed>1.080000</speed>
</trkpt>
<trkpt lat="56.000366" lon="26.583702">
<ele>110.557678</ele>
<time>2010-08-29T09:53:39Z</time>
<desc>lat.=56.000366, lon.=26.583702, Alt.=110.557678m. Speed=7.812000m/h.</desc>
<speed>2.170000</speed>
</trkpt>
<trkpt lat="56.000389" lon="26.583683">
<ele>110.928772</ele>
<time>2010-08-29T09:53:40Z</time>
<desc>lat.=56.000389, lon.=26.583683, Alt.=110.928772m. Speed=6.192000m/h.</desc>
<speed>1.720000</speed>
</trkpt>
<trkpt lat="56.000404" lon="26.583670">
<ele>111.340881</ele>
<time>2010-08-29T09:53:41Z</time>
<desc>lat.=56.000404, lon.=26.583670, Alt.=111.340881m. Speed=4.572000m/h.</desc>
<speed>1.270000</speed>
</trkpt>
<trkpt lat="56.000423" lon="26.583652">
<ele>112.176819</ele>
<time>2010-08-29T09:53:42Z</time>
<desc>lat.=56.000423, lon.=26.583652, Alt.=112.176819m. Speed=3.132000m/h.</desc>
<speed>0.870000</speed>
</trkpt>
<trkpt lat="56.000431" lon="26.583639">
<ele>112.661194</ele>
<time>2010-08-29T09:53:43Z</time>
<desc>lat.=56.000431, lon.=26.583639, Alt.=112.661194m. Speed=1.908000m/h.</desc>
<speed>0.530000</speed>
</trkpt>
<trkpt lat="56.000446" lon="26.583633">
<ele>113.120178</ele>
<time>2010-08-29T09:53:44Z</time>
<desc>lat.=56.000446, lon.=26.583633, Alt.=113.120178m. Speed=3.024000m/h.</desc>
<speed>0.840000</speed>
</trkpt>
<trkpt lat="56.000465" lon="26.583622">
<ele>112.907288</ele>
<time>2010-08-29T09:53:45Z</time>
<desc>lat.=56.000465, lon.=26.583622, Alt.=112.907288m. Speed=3.528000m/h.</desc>
<speed>0.980000</speed>
</trkpt>
<trkpt lat="56.000473" lon="26.583616">
<ele>113.299866</ele>
<time>2010-08-29T09:53:46Z</time>
<desc>lat.=56.000473, lon.=26.583616, Alt.=113.299866m. Speed=12.276000m/h.</desc>
<speed>3.410000</speed>
</trkpt>
<trkpt lat="56.000496" lon="26.583590">
<ele>113.752991</ele>
<time>2010-08-29T09:53:47Z</time>
<desc>lat.=56.000496, lon.=26.583590, Alt.=113.752991m. Speed=8.064000m/h.</desc>
<speed>2.240000</speed>
</trkpt>
<trkpt lat="56.000511" lon="26.583574">
<ele>113.991272</ele>
<time>2010-08-29T09:53:48Z</time>
<desc>lat.=56.000511, lon.=26.583574, Alt.=113.991272m. Speed=5.976000m/h.</desc>
<speed>1.660000</speed>
</trkpt>
<trkpt lat="56.000526" lon="26.583565">
<ele>114.477600</ele>
<time>2010-08-29T09:53:49Z</time>
<desc>lat.=56.000526, lon.=26.583565, Alt.=114.477600m. Speed=7.704000m/h.</desc>
<speed>2.140000</speed>
</trkpt>
<trkpt lat="56.000542" lon="26.583563">
<ele>115.012756</ele>
<time>2010-08-29T09:53:50Z</time>
<desc>lat.=56.000542, lon.=26.583563, Alt.=115.012756m. Speed=3.744000m/h.</desc>
<speed>1.040000</speed>
</trkpt>
<trkpt lat="56.000576" lon="26.583559">
<ele>115.254944</ele>
<time>2010-08-29T09:53:51Z</time>
<desc>lat.=56.000576, lon.=26.583559, Alt.=115.254944m. Speed=9.648000m/h.</desc>
<speed>2.680000</speed>
</trkpt>
<trkpt lat="56.000618" lon="26.583540">
<ele>115.200256</ele>
<time>2010-08-29T09:53:52Z</time>
<desc>lat.=56.000618, lon.=26.583540, Alt.=115.200256m. Speed=10.116000m/h.</desc>
<speed>2.810000</speed>
</trkpt>
<trkpt lat="56.000656" lon="26.583525">
<ele>114.772522</ele>
<time>2010-08-29T09:53:53Z</time>
<desc>lat.=56.000656, lon.=26.583525, Alt.=114.772522m. Speed=9.972000m/h.</desc>
<speed>2.770000</speed>
</trkpt>
<trkpt lat="56.000690" lon="26.583490">
<ele>114.133850</ele>
<time>2010-08-29T09:53:54Z</time>
<desc>lat.=56.000690, lon.=26.583490, Alt.=114.133850m. Speed=10.044000m/h.</desc>
<speed>2.790000</speed>
</trkpt>
<trkpt lat="56.000721" lon="26.583456">
<ele>114.460022</ele>
<time>2010-08-29T09:53:55Z</time>
<desc>lat.=56.000721, lon.=26.583456, Alt.=114.460022m. Speed=9.900000m/h.</desc>
<speed>2.750000</speed>
</trkpt>
<trkpt lat="56.000740" lon="26.583420">
<ele>114.844788</ele>
<time>2010-08-29T09:53:56Z</time>
<desc>lat.=56.000740, lon.=26.583420, Alt.=114.844788m. Speed=10.116000m/h.</desc>
<speed>2.810000</speed>
</trkpt>
<trkpt lat="56.000748" lon="26.583385">
<ele>115.034241</ele>
<time>2010-08-29T09:53:57Z</time>
<desc>lat.=56.000748, lon.=26.583385, Alt.=115.034241m. Speed=4.464000m/h.</desc>
<speed>1.240000</speed>
</trkpt>
<trkpt lat="56.000759" lon="26.583366">
<ele>115.065491</ele>
<time>2010-08-29T09:53:58Z</time>
<desc>lat.=56.000759, lon.=26.583366, Alt.=115.065491m. Speed=4.752000m/h.</desc>
<speed>1.320000</speed>
</trkpt>
<trkpt lat="56.000774" lon="26.583324">
<ele>114.381897</ele>
<time>2010-08-29T09:53:59Z</time>
<desc>lat.=56.000774, lon.=26.583324, Alt.=114.381897m. Speed=4.752000m/h.</desc>
<speed>1.320000</speed>
</trkpt>
<trkpt lat="56.000790" lon="26.583302">
<ele>114.526428</ele>
<time>2010-08-29T09:54:00Z</time>
<desc>lat.=56.000790, lon.=26.583302, Alt.=114.526428m. Speed=3.780000m/h.</desc>
<speed>1.050000</speed>
</trkpt>
<trkpt lat="56.000801" lon="26.583279">
<ele>114.303772</ele>
<time>2010-08-29T09:54:01Z</time>
<desc>lat.=56.000801, lon.=26.583279, Alt.=114.303772m. Speed=3.744000m/h.</desc>
<speed>1.040000</speed>
</trkpt>
<trkpt lat="56.000816" lon="26.583252">
<ele>114.907288</ele>
<time>2010-08-29T09:54:02Z</time>
<desc>lat.=56.000816, lon.=26.583252, Alt.=114.907288m. Speed=4.608000m/h.</desc>
<speed>1.280000</speed>
</trkpt>
<trkpt lat="56.000839" lon="26.583195">
<ele>115.581116</ele>
<time>2010-08-29T09:54:03Z</time>
<desc>lat.=56.000839, lon.=26.583195, Alt.=115.581116m. Speed=9.504000m/h.</desc>
<speed>2.640000</speed>
</trkpt>
<trkpt lat="56.000854" lon="26.583162">
<ele>115.770569</ele>
<time>2010-08-29T09:54:04Z</time>
<desc>lat.=56.000854, lon.=26.583162, Alt.=115.770569m. Speed=5.652000m/h.</desc>
<speed>1.570000</speed>
</trkpt>
<trkpt lat="56.000870" lon="26.583126">
<ele>116.243225</ele>
<time>2010-08-29T09:54:05Z</time>
<desc>lat.=56.000870, lon.=26.583126, Alt.=116.243225m. Speed=9.792000m/h.</desc>
<speed>2.720000</speed>
</trkpt>
<trkpt lat="56.000893" lon="26.583090">
<ele>116.575256</ele>
<time>2010-08-29T09:54:06Z</time>
<desc>lat.=56.000893, lon.=26.583090, Alt.=116.575256m. Speed=9.756000m/h.</desc>
<speed>2.710000</speed>
</trkpt>
<trkpt lat="56.000923" lon="26.583052">
<ele>115.944397</ele>
<time>2010-08-29T09:54:07Z</time>
<desc>lat.=56.000923, lon.=26.583052, Alt.=115.944397m. Speed=9.000000m/h.</desc>
<speed>2.500000</speed>
</trkpt>
<trkpt lat="56.000950" lon="26.583025">
<ele>116.504944</ele>
<time>2010-08-29T09:54:08Z</time>
<desc>lat.=56.000950, lon.=26.583025, Alt.=116.504944m. Speed=7.956000m/h.</desc>
<speed>2.210000</speed>
</trkpt>
<trkpt lat="56.000977" lon="26.582987">
<ele>117.137756</ele>
<time>2010-08-29T09:54:09Z</time>
<desc>lat.=56.000977, lon.=26.582987, Alt.=117.137756m. Speed=8.568000m/h.</desc>
<speed>2.380000</speed>
</trkpt>
<trkpt lat="56.000999" lon="26.582951">
<ele>116.854553</ele>
<time>2010-08-29T09:54:10Z</time>
<desc>lat.=56.000999, lon.=26.582951, Alt.=116.854553m. Speed=8.172000m/h.</desc>
<speed>2.270000</speed>
</trkpt>
<trkpt lat="56.001015" lon="26.582916">
<ele>115.575256</ele>
<time>2010-08-29T09:54:11Z</time>
<desc>lat.=56.001015, lon.=26.582916, Alt.=115.575256m. Speed=6.552000m/h.</desc>
<speed>1.820000</speed>
</trkpt>
<trkpt lat="56.001026" lon="26.582886">
<ele>115.292053</ele>
<time>2010-08-29T09:54:12Z</time>
<desc>lat.=56.001026, lon.=26.582886, Alt.=115.292053m. Speed=6.624000m/h.</desc>
<speed>1.840000</speed>
</trkpt>
<trkpt lat="56.001038" lon="26.582851">
<ele>115.055725</ele>
<time>2010-08-29T09:54:13Z</time>
<desc>lat.=56.001038, lon.=26.582851, Alt.=115.055725m. Speed=7.416000m/h.</desc>
<speed>2.060000</speed>
</trkpt>
<trkpt lat="56.001049" lon="26.582813">
<ele>114.758850</ele>
<time>2010-08-29T09:54:14Z</time>
<desc>lat.=56.001049, lon.=26.582813, Alt.=114.758850m. Speed=7.380000m/h.</desc>
<speed>2.050000</speed>
</trkpt>
<trkpt lat="56.001064" lon="26.582788">
<ele>114.682678</ele>
<time>2010-08-29T09:54:15Z</time>
<desc>lat.=56.001064, lon.=26.582788, Alt.=114.682678m. Speed=5.616000m/h.</desc>
<speed>1.560000</speed>
</trkpt>
<trkpt lat="56.001068" lon="26.582769">
<ele>114.575256</ele>
<time>2010-08-29T09:54:16Z</time>
<desc>lat.=56.001068, lon.=26.582769, Alt.=114.575256m. Speed=3.564000m/h.</desc>
<speed>0.990000</speed>
</trkpt>
<trkpt lat="56.001076" lon="26.582745">
<ele>113.995178</ele>
<time>2010-08-29T09:54:17Z</time>
<desc>lat.=56.001076, lon.=26.582745, Alt.=113.995178m. Speed=4.068000m/h.</desc>
<speed>1.130000</speed>
</trkpt>
<trkpt lat="56.001087" lon="26.582720">
<ele>113.932678</ele>
<time>2010-08-29T09:54:18Z</time>
<desc>lat.=56.001087, lon.=26.582720, Alt.=113.932678m. Speed=4.824000m/h.</desc>
<speed>1.340000</speed>
</trkpt>
<trkpt lat="56.001110" lon="26.582691">
<ele>113.985413</ele>
<time>2010-08-29T09:54:19Z</time>
<desc>lat.=56.001110, lon.=26.582691, Alt.=113.985413m. Speed=5.184000m/h.</desc>
<speed>1.440000</speed>
</trkpt>
<trkpt lat="56.001125" lon="26.582670">
<ele>114.026428</ele>
<time>2010-08-29T09:54:20Z</time>
<desc>lat.=56.001125, lon.=26.582670, Alt.=114.026428m. Speed=3.672000m/h.</desc>
<speed>1.020000</speed>
</trkpt>
<trkpt lat="56.001129" lon="26.582638">
<ele>113.835022</ele>
<time>2010-08-29T09:54:21Z</time>
<desc>lat.=56.001129, lon.=26.582638, Alt.=113.835022m. Speed=5.076000m/h.</desc>
<speed>1.410000</speed>
</trkpt>
<trkpt lat="56.001141" lon="26.582594">
<ele>113.319397</ele>
<time>2010-08-29T09:54:22Z</time>
<desc>lat.=56.001141, lon.=26.582594, Alt.=113.319397m. Speed=8.964000m/h.</desc>
<speed>2.490000</speed>
</trkpt>
<trkpt lat="56.001152" lon="26.582567">
<ele>112.637756</ele>
<time>2010-08-29T09:54:23Z</time>
<desc>lat.=56.001152, lon.=26.582567, Alt.=112.637756m. Speed=10.044000m/h.</desc>
<speed>2.790000</speed>
</trkpt>
<trkpt lat="56.001160" lon="26.582518">
<ele>112.364319</ele>
<time>2010-08-29T09:54:24Z</time>
<desc>lat.=56.001160, lon.=26.582518, Alt.=112.364319m. Speed=12.312000m/h.</desc>
<speed>3.420000</speed>
</trkpt>
<trkpt lat="56.001163" lon="26.582470">
<ele>112.483459</ele>
<time>2010-08-29T09:54:25Z</time>
<desc>lat.=56.001163, lon.=26.582470, Alt.=112.483459m. Speed=10.800000m/h.</desc>
<speed>3.000000</speed>
</trkpt>
<trkpt lat="56.001171" lon="26.582420">
<ele>112.387756</ele>
<time>2010-08-29T09:54:26Z</time>
<desc>lat.=56.001171, lon.=26.582420, Alt.=112.387756m. Speed=11.196000m/h.</desc>
<speed>3.110000</speed>
</trkpt>
<trkpt lat="56.001198" lon="26.582365">
<ele>113.204163</ele>
<time>2010-08-29T09:54:27Z</time>
<desc>lat.=56.001198, lon.=26.582365, Alt.=113.204163m. Speed=10.512000m/h.</desc>
<speed>2.920000</speed>
</trkpt>
<trkpt lat="56.001213" lon="26.582323">
<ele>113.475647</ele>
<time>2010-08-29T09:54:28Z</time>
<desc>lat.=56.001213, lon.=26.582323, Alt.=113.475647m. Speed=6.480000m/h.</desc>
<speed>1.800000</speed>
</trkpt>
<trkpt lat="56.001217" lon="26.582285">
<ele>113.788147</ele>
<time>2010-08-29T09:54:29Z</time>
<desc>lat.=56.001217, lon.=26.582285, Alt.=113.788147m. Speed=6.804000m/h.</desc>
<speed>1.890000</speed>
</trkpt>
<trkpt lat="56.001232" lon="26.582258">
<ele>114.393616</ele>
<time>2010-08-29T09:54:30Z</time>
<desc>lat.=56.001232, lon.=26.582258, Alt.=114.393616m. Speed=7.272000m/h.</desc>
<speed>2.020000</speed>
</trkpt>
<trkpt lat="56.001240" lon="26.582235">
<ele>114.754944</ele>
<time>2010-08-29T09:54:31Z</time>
<desc>lat.=56.001240, lon.=26.582235, Alt.=114.754944m. Speed=5.544000m/h.</desc>
<speed>1.540000</speed>
</trkpt>
<trkpt lat="56.001247" lon="26.582203">
<ele>115.204163</ele>
<time>2010-08-29T09:54:32Z</time>
<desc>lat.=56.001247, lon.=26.582203, Alt.=115.204163m. Speed=3.996000m/h.</desc>
<speed>1.110000</speed>
</trkpt>
<trkpt lat="56.001255" lon="26.582172">
<ele>115.559631</ele>
<time>2010-08-29T09:54:33Z</time>
<desc>lat.=56.001255, lon.=26.582172, Alt.=115.559631m. Speed=5.760000m/h.</desc>
<speed>1.600000</speed>
</trkpt>
<trkpt lat="56.001278" lon="26.582102">
<ele>115.458069</ele>
<time>2010-08-29T09:54:34Z</time>
<desc>lat.=56.001278, lon.=26.582102, Alt.=115.458069m. Speed=5.220000m/h.</desc>
<speed>1.450000</speed>
</trkpt>
<trkpt lat="56.001286" lon="26.582067">
<ele>115.876038</ele>
<time>2010-08-29T09:54:35Z</time>
<desc>lat.=56.001286, lon.=26.582067, Alt.=115.876038m. Speed=7.092000m/h.</desc>
<speed>1.970000</speed>
</trkpt>
<trkpt lat="56.001297" lon="26.582031">
<ele>116.252991</ele>
<time>2010-08-29T09:54:36Z</time>
<desc>lat.=56.001297, lon.=26.582031, Alt.=116.252991m. Speed=5.580000m/h.</desc>
<speed>1.550000</speed>
</trkpt>
<trkpt lat="56.001320" lon="26.581987">
<ele>116.327209</ele>
<time>2010-08-29T09:54:37Z</time>
<desc>lat.=56.001320, lon.=26.581987, Alt.=116.327209m. Speed=5.004000m/h.</desc>
<speed>1.390000</speed>
</trkpt>
<trkpt lat="56.001331" lon="26.581972">
<ele>116.682678</ele>
<time>2010-08-29T09:54:38Z</time>
<desc>lat.=56.001331, lon.=26.581972, Alt.=116.682678m. Speed=1.584000m/h.</desc>
<speed>0.440000</speed>
</trkpt>
<trkpt lat="56.001335" lon="26.581966">
<ele>117.215881</ele>
<time>2010-08-29T09:54:39Z</time>
<desc>lat.=56.001335, lon.=26.581966, Alt.=117.215881m. Speed=1.620000m/h.</desc>
<speed>0.450000</speed>
</trkpt>
<trkpt lat="56.001343" lon="26.581961">
<ele>117.743225</ele>
<time>2010-08-29T09:54:40Z</time>
<desc>lat.=56.001343, lon.=26.581961, Alt.=117.743225m. Speed=1.476000m/h.</desc>
<speed>0.410000</speed>
</trkpt>
<trkpt lat="56.001343" lon="26.581953">
<ele>118.044006</ele>
<time>2010-08-29T09:54:41Z</time>
<desc>lat.=56.001343, lon.=26.581953, Alt.=118.044006m. Speed=1.044000m/h.</desc>
<speed>0.290000</speed>
</trkpt>
<trkpt lat="56.001343" lon="26.581936">
<ele>117.313538</ele>
<time>2010-08-29T09:54:42Z</time>
<desc>lat.=56.001343, lon.=26.581936, Alt.=117.313538m. Speed=1.404000m/h.</desc>
<speed>0.390000</speed>
</trkpt>
<trkpt lat="56.001339" lon="26.581926">
<ele>117.430725</ele>
<time>2010-08-29T09:54:43Z</time>
<desc>lat.=56.001339, lon.=26.581926, Alt.=117.430725m. Speed=1.224000m/h.</desc>
<speed>0.340000</speed>
</trkpt>
<trkpt lat="56.001339" lon="26.581915">
<ele>117.604553</ele>
<time>2010-08-29T09:54:44Z</time>
<desc>lat.=56.001339, lon.=26.581915, Alt.=117.604553m. Speed=1.224000m/h.</desc>
<speed>0.340000</speed>
</trkpt>
<trkpt lat="56.001331" lon="26.581894">
<ele>117.669006</ele>
<time>2010-08-29T09:54:45Z</time>
<desc>lat.=56.001331, lon.=26.581894, Alt.=117.669006m. Speed=1.512000m/h.</desc>
<speed>0.420000</speed>
</trkpt>
<trkpt lat="56.001331" lon="26.581875">
<ele>117.905334</ele>
<time>2010-08-29T09:54:46Z</time>
<desc>lat.=56.001331, lon.=26.581875, Alt.=117.905334m. Speed=1.728000m/h.</desc>
<speed>0.480000</speed>
</trkpt>
<trkpt lat="56.001328" lon="26.581842">
<ele>118.167053</ele>
<time>2010-08-29T09:54:47Z</time>
<desc>lat.=56.001328, lon.=26.581842, Alt.=118.167053m. Speed=2.124000m/h.</desc>
<speed>0.590000</speed>
</trkpt>
<trkpt lat="56.001320" lon="26.581829">
<ele>118.481506</ele>
<time>2010-08-29T09:54:48Z</time>
<desc>lat.=56.001320, lon.=26.581829, Alt.=118.481506m. Speed=1.728000m/h.</desc>
<speed>0.480000</speed>
</trkpt>
<trkpt lat="56.001320" lon="26.581814">
<ele>118.749084</ele>
<time>2010-08-29T09:54:49Z</time>
<desc>lat.=56.001320, lon.=26.581814, Alt.=118.749084m. Speed=1.692000m/h.</desc>
<speed>0.470000</speed>
</trkpt>
<trkpt lat="56.001320" lon="26.581802">
<ele>118.889709</ele>
<time>2010-08-29T09:54:50Z</time>
<desc>lat.=56.001320, lon.=26.581802, Alt.=118.889709m. Speed=1.656000m/h.</desc>
<speed>0.460000</speed>
</trkpt>
<trkpt lat="56.001320" lon="26.581795">
<ele>119.085022</ele>
<time>2010-08-29T09:54:51Z</time>
<desc>lat.=56.001320, lon.=26.581795, Alt.=119.085022m. Speed=1.404000m/h.</desc>
<speed>0.390000</speed>
</trkpt>
<trkpt lat="56.001320" lon="26.581785">
<ele>119.241272</ele>
<time>2010-08-29T09:54:52Z</time>
<desc>lat.=56.001320, lon.=26.581785, Alt.=119.241272m. Speed=1.332000m/h.</desc>
<speed>0.370000</speed>
</trkpt>
<trkpt lat="56.001320" lon="26.581774">
<ele>118.864319</ele>
<time>2010-08-29T09:54:53Z</time>
<desc>lat.=56.001320, lon.=26.581774, Alt.=118.864319m. Speed=1.260000m/h.</desc>
<speed>0.350000</speed>
</trkpt>
<trkpt lat="56.001328" lon="26.581743">
<ele>119.044006</ele>
<time>2010-08-29T09:54:54Z</time>
<desc>lat.=56.001328, lon.=26.581743, Alt.=119.044006m. Speed=1.728000m/h.</desc>
<speed>0.480000</speed>
</trkpt>
<trkpt lat="56.001331" lon="26.581720">
<ele>119.225647</ele>
<time>2010-08-29T09:54:55Z</time>
<desc>lat.=56.001331, lon.=26.581720, Alt.=119.225647m. Speed=1.908000m/h.</desc>
<speed>0.530000</speed>
</trkpt>
<trkpt lat="56.001335" lon="26.581715">
<ele>119.473694</ele>
<time>2010-08-29T09:54:56Z</time>
<desc>lat.=56.001335, lon.=26.581715, Alt.=119.473694m. Speed=1.692000m/h.</desc>
<speed>0.470000</speed>
</trkpt>
<trkpt lat="56.001335" lon="26.581705">
<ele>119.659241</ele>
<time>2010-08-29T09:54:57Z</time>
<desc>lat.=56.001335, lon.=26.581705, Alt.=119.659241m. Speed=1.656000m/h.</desc>
<speed>0.460000</speed>
</trkpt>
<trkpt lat="56.001343" lon="26.581696">
<ele>119.903381</ele>
<time>2010-08-29T09:54:58Z</time>
<desc>lat.=56.001343, lon.=26.581696, Alt.=119.903381m. Speed=1.692000m/h.</desc>
<speed>0.470000</speed>
</trkpt>
<trkpt lat="56.001347" lon="26.581694">
<ele>120.104553</ele>
<time>2010-08-29T09:54:59Z</time>
<desc>lat.=56.001347, lon.=26.581694, Alt.=120.104553m. Speed=1.512000m/h.</desc>
<speed>0.420000</speed>
</trkpt>
<trkpt lat="56.001347" lon="26.581682">
<ele>120.397522</ele>
<time>2010-08-29T09:55:00Z</time>
<desc>lat.=56.001347, lon.=26.581682, Alt.=120.397522m. Speed=1.512000m/h.</desc>
<speed>0.420000</speed>
</trkpt>
<trkpt lat="56.001354" lon="26.581676">
<ele>120.653381</ele>
<time>2010-08-29T09:55:01Z</time>
<desc>lat.=56.001354, lon.=26.581676, Alt.=120.653381m. Speed=1.404000m/h.</desc>
<speed>0.390000</speed>
</trkpt>
<trkpt lat="56.001373" lon="26.581667">
<ele>120.536194</ele>
<time>2010-08-29T09:55:02Z</time>
<desc>lat.=56.001373, lon.=26.581667, Alt.=120.536194m. Speed=1.548000m/h.</desc>
<speed>0.430000</speed>
</trkpt>
<trkpt lat="56.001400" lon="26.581610">
<ele>120.114319</ele>
<time>2010-08-29T09:55:03Z</time>
<desc>lat.=56.001400, lon.=26.581610, Alt.=120.114319m. Speed=2.376000m/h.</desc>
<speed>0.660000</speed>
</trkpt>
<trkpt lat="56.001408" lon="26.581591">
<ele>120.151428</ele>
<time>2010-08-29T09:55:04Z</time>
<desc>lat.=56.001408, lon.=26.581591, Alt.=120.151428m. Speed=2.592000m/h.</desc>
<speed>0.720000</speed>
</trkpt>
<trkpt lat="56.001411" lon="26.581572">
<ele>120.426819</ele>
<time>2010-08-29T09:55:05Z</time>
<desc>lat.=56.001411, lon.=26.581572, Alt.=120.426819m. Speed=2.844000m/h.</desc>
<speed>0.790000</speed>
</trkpt>
<trkpt lat="56.001419" lon="26.581560">
<ele>120.674866</ele>
<time>2010-08-29T09:55:06Z</time>
<desc>lat.=56.001419, lon.=26.581560, Alt.=120.674866m. Speed=3.600000m/h.</desc>
<speed>1.000000</speed>
</trkpt>
<trkpt lat="56.001427" lon="26.581551">
<ele>120.901428</ele>
<time>2010-08-29T09:55:07Z</time>
<desc>lat.=56.001427, lon.=26.581551, Alt.=120.901428m. Speed=2.808000m/h.</desc>
<speed>0.780000</speed>
</trkpt>
<trkpt lat="56.001434" lon="26.581541">
<ele>120.727600</ele>
<time>2010-08-29T09:55:08Z</time>
<desc>lat.=56.001434, lon.=26.581541, Alt.=120.727600m. Speed=3.276000m/h.</desc>
<speed>0.910000</speed>
</trkpt>
<trkpt lat="56.001442" lon="26.581514">
<ele>120.924866</ele>
<time>2010-08-29T09:55:09Z</time>
<desc>lat.=56.001442, lon.=26.581514, Alt.=120.924866m. Speed=4.572000m/h.</desc>
<speed>1.270000</speed>
</trkpt>
<trkpt lat="56.001446" lon="26.581503">
<ele>121.124084</ele>
<time>2010-08-29T09:55:10Z</time>
<desc>lat.=56.001446, lon.=26.581503, Alt.=121.124084m. Speed=3.996000m/h.</desc>
<speed>1.110000</speed>
</trkpt>
<trkpt lat="56.001461" lon="26.581484">
<ele>121.317444</ele>
<time>2010-08-29T09:55:11Z</time>
<desc>lat.=56.001461, lon.=26.581484, Alt.=121.317444m. Speed=4.176000m/h.</desc>
<speed>1.160000</speed>
</trkpt>
<trkpt lat="56.001472" lon="26.581472">
<ele>121.692444</ele>
<time>2010-08-29T09:55:12Z</time>
<desc>lat.=56.001472, lon.=26.581472, Alt.=121.692444m. Speed=4.140000m/h.</desc>
<speed>1.150000</speed>
</trkpt>
<trkpt lat="56.001484" lon="26.581463">
<ele>121.958069</ele>
<time>2010-08-29T09:55:13Z</time>
<desc>lat.=56.001484, lon.=26.581463, Alt.=121.958069m. Speed=3.276000m/h.</desc>
<speed>0.910000</speed>
</trkpt>
<trkpt lat="56.001492" lon="26.581451">
<ele>122.217834</ele>
<time>2010-08-29T09:55:14Z</time>
<desc>lat.=56.001492, lon.=26.581451, Alt.=122.217834m. Speed=3.132000m/h.</desc>
<speed>0.870000</speed>
</trkpt>
<trkpt lat="56.001511" lon="26.581434">
<ele>122.672913</ele>
<time>2010-08-29T09:55:15Z</time>
<desc>lat.=56.001511, lon.=26.581434, Alt.=122.672913m. Speed=3.564000m/h.</desc>
<speed>0.990000</speed>
</trkpt>
<trkpt lat="56.001522" lon="26.581415">
<ele>122.848694</ele>
<time>2010-08-29T09:55:16Z</time>
<desc>lat.=56.001522, lon.=26.581415, Alt.=122.848694m. Speed=3.780000m/h.</desc>
<speed>1.050000</speed>
</trkpt>
<trkpt lat="56.001537" lon="26.581394">
<ele>123.032288</ele>
<time>2010-08-29T09:55:17Z</time>
<desc>lat.=56.001537, lon.=26.581394, Alt.=123.032288m. Speed=3.924000m/h.</desc>
<speed>1.090000</speed>
</trkpt>
<trkpt lat="56.001553" lon="26.581362">
<ele>123.137756</ele>
<time>2010-08-29T09:55:18Z</time>
<desc>lat.=56.001553, lon.=26.581362, Alt.=123.137756m. Speed=3.996000m/h.</desc>
<speed>1.110000</speed>
</trkpt>
<trkpt lat="56.001564" lon="26.581345">
<ele>123.370178</ele>
<time>2010-08-29T09:55:19Z</time>
<desc>lat.=56.001564, lon.=26.581345, Alt.=123.370178m. Speed=3.528000m/h.</desc>
<speed>0.980000</speed>
</trkpt>
<trkpt lat="56.001583" lon="26.581331">
<ele>123.508850</ele>
<time>2010-08-29T09:55:20Z</time>
<desc>lat.=56.001583, lon.=26.581331, Alt.=123.508850m. Speed=3.780000m/h.</desc>
<speed>1.050000</speed>
</trkpt>
<trkpt lat="56.001598" lon="26.581326">
<ele>123.766663</ele>
<time>2010-08-29T09:55:21Z</time>
<desc>lat.=56.001598, lon.=26.581326, Alt.=123.766663m. Speed=3.672000m/h.</desc>
<speed>1.020000</speed>
</trkpt>
<trkpt lat="56.001606" lon="26.581316">
<ele>123.903381</ele>
<time>2010-08-29T09:55:22Z</time>
<desc>lat.=56.001606, lon.=26.581316, Alt.=123.903381m. Speed=4.176000m/h.</desc>
<speed>1.160000</speed>
</trkpt>
<trkpt lat="56.001625" lon="26.581293">
<ele>124.002991</ele>
<time>2010-08-29T09:55:23Z</time>
<desc>lat.=56.001625, lon.=26.581293, Alt.=124.002991m. Speed=5.148000m/h.</desc>
<speed>1.430000</speed>
</trkpt>
<trkpt lat="56.001637" lon="26.581272">
<ele>124.075256</ele>
<time>2010-08-29T09:55:24Z</time>
<desc>lat.=56.001637, lon.=26.581272, Alt.=124.075256m. Speed=5.436000m/h.</desc>
<speed>1.510000</speed>
</trkpt>
<trkpt lat="56.001659" lon="26.581257">
<ele>124.081116</ele>
<time>2010-08-29T09:55:25Z</time>
<desc>lat.=56.001659, lon.=26.581257, Alt.=124.081116m. Speed=6.048000m/h.</desc>
<speed>1.680000</speed>
</trkpt>
<trkpt lat="56.001678" lon="26.581247">
<ele>122.932678</ele>
<time>2010-08-29T09:55:26Z</time>
<desc>lat.=56.001678, lon.=26.581247, Alt.=122.932678m. Speed=5.184000m/h.</desc>
<speed>1.440000</speed>
</trkpt>
<trkpt lat="56.001705" lon="26.581228">
<ele>122.692444</ele>
<time>2010-08-29T09:55:27Z</time>
<desc>lat.=56.001705, lon.=26.581228, Alt.=122.692444m. Speed=4.752000m/h.</desc>
<speed>1.320000</speed>
</trkpt>
<trkpt lat="56.001720" lon="26.581211">
<ele>122.460022</ele>
<time>2010-08-29T09:55:28Z</time>
<desc>lat.=56.001720, lon.=26.581211, Alt.=122.460022m. Speed=2.376000m/h.</desc>
<speed>0.660000</speed>
</trkpt>
<trkpt lat="56.001732" lon="26.581196">
<ele>122.063538</ele>
<time>2010-08-29T09:55:29Z</time>
<desc>lat.=56.001732, lon.=26.581196, Alt.=122.063538m. Speed=3.096000m/h.</desc>
<speed>0.860000</speed>
</trkpt>
<trkpt lat="56.001751" lon="26.581177">
<ele>121.741272</ele>
<time>2010-08-29T09:55:30Z</time>
<desc>lat.=56.001751, lon.=26.581177, Alt.=121.741272m. Speed=3.564000m/h.</desc>
<speed>0.990000</speed>
</trkpt>
<trkpt lat="56.001755" lon="26.581169">
<ele>121.639709</ele>
<time>2010-08-29T09:55:31Z</time>
<desc>lat.=56.001755, lon.=26.581169, Alt.=121.639709m. Speed=2.556000m/h.</desc>
<speed>0.710000</speed>
</trkpt>
<trkpt lat="56.001774" lon="26.581156">
<ele>121.694397</ele>
<time>2010-08-29T09:55:32Z</time>
<desc>lat.=56.001774, lon.=26.581156, Alt.=121.694397m. Speed=3.060000m/h.</desc>
<speed>0.850000</speed>
</trkpt>
<trkpt lat="56.001804" lon="26.581144">
<ele>122.227600</ele>
<time>2010-08-29T09:55:33Z</time>
<desc>lat.=56.001804, lon.=26.581144, Alt.=122.227600m. Speed=4.320000m/h.</desc>
<speed>1.200000</speed>
</trkpt>
<trkpt lat="56.001827" lon="26.581123">
<ele>121.831116</ele>
<time>2010-08-29T09:55:34Z</time>
<desc>lat.=56.001827, lon.=26.581123, Alt.=121.831116m. Speed=4.752000m/h.</desc>
<speed>1.320000</speed>
</trkpt>
<trkpt lat="56.001846" lon="26.581102">
<ele>121.772522</ele>
<time>2010-08-29T09:55:35Z</time>
<desc>lat.=56.001846, lon.=26.581102, Alt.=121.772522m. Speed=5.040000m/h.</desc>
<speed>1.400000</speed>
</trkpt>
<trkpt lat="56.001862" lon="26.581079">
<ele>121.917053</ele>
<time>2010-08-29T09:55:36Z</time>
<desc>lat.=56.001862, lon.=26.581079, Alt.=121.917053m. Speed=4.896000m/h.</desc>
<speed>1.360000</speed>
</trkpt>
<trkpt lat="56.001873" lon="26.581059">
<ele>121.907288</ele>
<time>2010-08-29T09:55:37Z</time>
<desc>lat.=56.001873, lon.=26.581059, Alt.=121.907288m. Speed=4.896000m/h.</desc>
<speed>1.360000</speed>
</trkpt>
<trkpt lat="56.001884" lon="26.580999">
<ele>121.700256</ele>
<time>2010-08-29T09:55:38Z</time>
<desc>lat.=56.001884, lon.=26.580999, Alt.=121.700256m. Speed=6.444000m/h.</desc>
<speed>1.790000</speed>
</trkpt>
<trkpt lat="56.001892" lon="26.580973">
<ele>121.663147</ele>
<time>2010-08-29T09:55:39Z</time>
<desc>lat.=56.001892, lon.=26.580973, Alt.=121.663147m. Speed=4.644000m/h.</desc>
<speed>1.290000</speed>
</trkpt>
<trkpt lat="56.001907" lon="26.580906">
<ele>121.743225</ele>
<time>2010-08-29T09:55:40Z</time>
<desc>lat.=56.001907, lon.=26.580906, Alt.=121.743225m. Speed=6.300000m/h.</desc>
<speed>1.750000</speed>
</trkpt>
<trkpt lat="56.001919" lon="26.580877">
<ele>121.952209</ele>
<time>2010-08-29T09:55:41Z</time>
<desc>lat.=56.001919, lon.=26.580877, Alt.=121.952209m. Speed=3.924000m/h.</desc>
<speed>1.090000</speed>
</trkpt>
<trkpt lat="56.001945" lon="26.580853">
<ele>122.524475</ele>
<time>2010-08-29T09:55:42Z</time>
<desc>lat.=56.001945, lon.=26.580853, Alt.=122.524475m. Speed=4.536000m/h.</desc>
<speed>1.260000</speed>
</trkpt>
<trkpt lat="56.001953" lon="26.580833">
<ele>122.538147</ele>
<time>2010-08-29T09:55:43Z</time>
<desc>lat.=56.001953, lon.=26.580833, Alt.=122.538147m. Speed=3.204000m/h.</desc>
<speed>0.890000</speed>
</trkpt>
<trkpt lat="56.001961" lon="26.580812">
<ele>122.444397</ele>
<time>2010-08-29T09:55:44Z</time>
<desc>lat.=56.001961, lon.=26.580812, Alt.=122.444397m. Speed=2.700000m/h.</desc>
<speed>0.750000</speed>
</trkpt>
<trkpt lat="56.001972" lon="26.580795">
<ele>122.561584</ele>
<time>2010-08-29T09:55:45Z</time>
<desc>lat.=56.001972, lon.=26.580795, Alt.=122.561584m. Speed=2.412000m/h.</desc>
<speed>0.670000</speed>
</trkpt>
<trkpt lat="56.001995" lon="26.580772">
<ele>122.198303</ele>
<time>2010-08-29T09:55:46Z</time>
<desc>lat.=56.001995, lon.=26.580772, Alt.=122.198303m. Speed=2.376000m/h.</desc>
<speed>0.660000</speed>
</trkpt>
<trkpt lat="56.001999" lon="26.580761">
<ele>122.004944</ele>
<time>2010-08-29T09:55:47Z</time>
<desc>lat.=56.001999, lon.=26.580761, Alt.=122.004944m. Speed=1.944000m/h.</desc>
<speed>0.540000</speed>
</trkpt>
<trkpt lat="56.002010" lon="26.580740">
<ele>122.071350</ele>
<time>2010-08-29T09:55:48Z</time>
<desc>lat.=56.002010, lon.=26.580740, Alt.=122.071350m. Speed=1.872000m/h.</desc>
<speed>0.520000</speed>
</trkpt>
<trkpt lat="56.002014" lon="26.580692">
<ele>121.036194</ele>
<time>2010-08-29T09:55:49Z</time>
<desc>lat.=56.002014, lon.=26.580692, Alt.=121.036194m. Speed=1.800000m/h.</desc>
<speed>0.500000</speed>
</trkpt>
<trkpt lat="56.002014" lon="26.580679">
<ele>121.038147</ele>
<time>2010-08-29T09:55:50Z</time>
<desc>lat.=56.002014, lon.=26.580679, Alt.=121.038147m. Speed=1.872000m/h.</desc>
<speed>0.520000</speed>
</trkpt>
<trkpt lat="56.002018" lon="26.580671">
<ele>121.018616</ele>
<time>2010-08-29T09:55:51Z</time>
<desc>lat.=56.002018, lon.=26.580671, Alt.=121.018616m. Speed=1.728000m/h.</desc>
<speed>0.480000</speed>
</trkpt>
<trkpt lat="56.002026" lon="26.580610">
<ele>121.198303</ele>
<time>2010-08-29T09:55:52Z</time>
<desc>lat.=56.002026, lon.=26.580610, Alt.=121.198303m. Speed=2.592000m/h.</desc>
<speed>0.720000</speed>
</trkpt>
<trkpt lat="56.002026" lon="26.580597">
<ele>121.223694</ele>
<time>2010-08-29T09:55:53Z</time>
<desc>lat.=56.002026, lon.=26.580597, Alt.=121.223694m. Speed=2.556000m/h.</desc>
<speed>0.710000</speed>
</trkpt>
<trkpt lat="56.002037" lon="26.580580">
<ele>121.223694</ele>
<time>2010-08-29T09:55:54Z</time>
<desc>lat.=56.002037, lon.=26.580580, Alt.=121.223694m. Speed=2.700000m/h.</desc>
<speed>0.750000</speed>
</trkpt>
<trkpt lat="56.002056" lon="26.580561">
<ele>121.143616</ele>
<time>2010-08-29T09:55:55Z</time>
<desc>lat.=56.002056, lon.=26.580561, Alt.=121.143616m. Speed=3.024000m/h.</desc>
<speed>0.840000</speed>
</trkpt>
<trkpt lat="56.002068" lon="26.580534">
<ele>121.424866</ele>
<time>2010-08-29T09:55:56Z</time>
<desc>lat.=56.002068, lon.=26.580534, Alt.=121.424866m. Speed=3.384000m/h.</desc>
<speed>0.940000</speed>
</trkpt>
<trkpt lat="56.002083" lon="26.580500">
<ele>120.985413</ele>
<time>2010-08-29T09:55:57Z</time>
<desc>lat.=56.002083, lon.=26.580500, Alt.=120.985413m. Speed=3.852000m/h.</desc>
<speed>1.070000</speed>
</trkpt>
<trkpt lat="56.002094" lon="26.580475">
<ele>120.928772</ele>
<time>2010-08-29T09:55:58Z</time>
<desc>lat.=56.002094, lon.=26.580475, Alt.=120.928772m. Speed=3.348000m/h.</desc>
<speed>0.930000</speed>
</trkpt>
<trkpt lat="56.002102" lon="26.580414">
<ele>120.436584</ele>
<time>2010-08-29T09:55:59Z</time>
<desc>lat.=56.002102, lon.=26.580414, Alt.=120.436584m. Speed=4.860000m/h.</desc>
<speed>1.350000</speed>
</trkpt>
<trkpt lat="56.002110" lon="26.580385">
<ele>120.454163</ele>
<time>2010-08-29T09:56:00Z</time>
<desc>lat.=56.002110, lon.=26.580385, Alt.=120.454163m. Speed=5.256000m/h.</desc>
<speed>1.460000</speed>
</trkpt>
<trkpt lat="56.002117" lon="26.580359">
<ele>120.725647</ele>
<time>2010-08-29T09:56:01Z</time>
<desc>lat.=56.002117, lon.=26.580359, Alt.=120.725647m. Speed=2.988000m/h.</desc>
<speed>0.830000</speed>
</trkpt>
<trkpt lat="56.002121" lon="26.580341">
<ele>120.842834</ele>
<time>2010-08-29T09:56:02Z</time>
<desc>lat.=56.002121, lon.=26.580341, Alt.=120.842834m. Speed=2.124000m/h.</desc>
<speed>0.590000</speed>
</trkpt>
<trkpt lat="56.002129" lon="26.580320">
<ele>121.167053</ele>
<time>2010-08-29T09:56:03Z</time>
<desc>lat.=56.002129, lon.=26.580320, Alt.=121.167053m. Speed=2.160000m/h.</desc>
<speed>0.600000</speed>
</trkpt>
<trkpt lat="56.002132" lon="26.580303">
<ele>121.534241</ele>
<time>2010-08-29T09:56:04Z</time>
<desc>lat.=56.002132, lon.=26.580303, Alt.=121.534241m. Speed=2.160000m/h.</desc>
<speed>0.600000</speed>
</trkpt>
<trkpt lat="56.002132" lon="26.580280">
<ele>121.764709</ele>
<time>2010-08-29T09:56:05Z</time>
<desc>lat.=56.002132, lon.=26.580280, Alt.=121.764709m. Speed=2.448000m/h.</desc>
<speed>0.680000</speed>
</trkpt>
<trkpt lat="56.002136" lon="26.580256">
<ele>121.856506</ele>
<time>2010-08-29T09:56:06Z</time>
<desc>lat.=56.002136, lon.=26.580256, Alt.=121.856506m. Speed=2.880000m/h.</desc>
<speed>0.800000</speed>
</trkpt>
<trkpt lat="56.002140" lon="26.580225">
<ele>121.827209</ele>
<time>2010-08-29T09:56:07Z</time>
<desc>lat.=56.002140, lon.=26.580225, Alt.=121.827209m. Speed=3.312000m/h.</desc>
<speed>0.920000</speed>
</trkpt>
<trkpt lat="56.002136" lon="26.580204">
<ele>121.606506</ele>
<time>2010-08-29T09:56:08Z</time>
<desc>lat.=56.002136, lon.=26.580204, Alt.=121.606506m. Speed=3.420000m/h.</desc>
<speed>0.950000</speed>
</trkpt>
<trkpt lat="56.002136" lon="26.580189">
<ele>121.608459</ele>
<time>2010-08-29T09:56:09Z</time>
<desc>lat.=56.002136, lon.=26.580189, Alt.=121.608459m. Speed=2.916000m/h.</desc>
<speed>0.810000</speed>
</trkpt>
<trkpt lat="56.002140" lon="26.580164">
<ele>121.680725</ele>
<time>2010-08-29T09:56:10Z</time>
<desc>lat.=56.002140, lon.=26.580164, Alt.=121.680725m. Speed=3.240000m/h.</desc>
<speed>0.900000</speed>
</trkpt>
<trkpt lat="56.002140" lon="26.580133">
<ele>121.881897</ele>
<time>2010-08-29T09:56:11Z</time>
<desc>lat.=56.002140, lon.=26.580133, Alt.=121.881897m. Speed=3.564000m/h.</desc>
<speed>0.990000</speed>
</trkpt>
<trkpt lat="56.002144" lon="26.580107">
<ele>121.973694</ele>
<time>2010-08-29T09:56:12Z</time>
<desc>lat.=56.002144, lon.=26.580107, Alt.=121.973694m. Speed=3.600000m/h.</desc>
<speed>1.000000</speed>
</trkpt>
<trkpt lat="56.002148" lon="26.580072">
<ele>122.038147</ele>
<time>2010-08-29T09:56:13Z</time>
<desc>lat.=56.002148, lon.=26.580072, Alt.=122.038147m. Speed=4.104000m/h.</desc>
<speed>1.140000</speed>
</trkpt>
<trkpt lat="56.002155" lon="26.580036">
<ele>122.126038</ele>
<time>2010-08-29T09:56:14Z</time>
<desc>lat.=56.002155, lon.=26.580036, Alt.=122.126038m. Speed=4.716000m/h.</desc>
<speed>1.310000</speed>
</trkpt>
<trkpt lat="56.002159" lon="26.580006">
<ele>122.348694</ele>
<time>2010-08-29T09:56:15Z</time>
<desc>lat.=56.002159, lon.=26.580006, Alt.=122.348694m. Speed=4.752000m/h.</desc>
<speed>1.320000</speed>
</trkpt>
<trkpt lat="56.002163" lon="26.579973">
<ele>122.292053</ele>
<time>2010-08-29T09:56:16Z</time>
<desc>lat.=56.002163, lon.=26.579973, Alt.=122.292053m. Speed=4.896000m/h.</desc>
<speed>1.360000</speed>
</trkpt>
<trkpt lat="56.002171" lon="26.579939">
<ele>122.266663</ele>
<time>2010-08-29T09:56:17Z</time>
<desc>lat.=56.002171, lon.=26.579939, Alt.=122.266663m. Speed=5.148000m/h.</desc>
<speed>1.430000</speed>
</trkpt>
<trkpt lat="56.002174" lon="26.579891">
<ele>122.219788</ele>
<time>2010-08-29T09:56:18Z</time>
<desc>lat.=56.002174, lon.=26.579891, Alt.=122.219788m. Speed=6.444000m/h.</desc>
<speed>1.790000</speed>
</trkpt>
<trkpt lat="56.002178" lon="26.579863">
<ele>122.245178</ele>
<time>2010-08-29T09:56:19Z</time>
<desc>lat.=56.002178, lon.=26.579863, Alt.=122.245178m. Speed=3.780000m/h.</desc>
<speed>1.050000</speed>
</trkpt>
<trkpt lat="56.002182" lon="26.579840">
<ele>122.231506</ele>
<time>2010-08-29T09:56:20Z</time>
<desc>lat.=56.002182, lon.=26.579840, Alt.=122.231506m. Speed=1.152000m/h.</desc>
<speed>0.320000</speed>
</trkpt>
<trkpt lat="56.002186" lon="26.579823">
<ele>122.422913</ele>
<time>2010-08-29T09:56:21Z</time>
<desc>lat.=56.002186, lon.=26.579823, Alt.=122.422913m. Speed=0.684000m/h.</desc>
<speed>0.190000</speed>
</trkpt>
<trkpt lat="56.002190" lon="26.579805">
<ele>122.651428</ele>
<time>2010-08-29T09:56:22Z</time>
<desc>lat.=56.002190, lon.=26.579805, Alt.=122.651428m. Speed=1.584000m/h.</desc>
<speed>0.440000</speed>
</trkpt>
<trkpt lat="56.002197" lon="26.579765">
<ele>123.086975</ele>
<time>2010-08-29T09:56:23Z</time>
<desc>lat.=56.002197, lon.=26.579765, Alt.=123.086975m. Speed=2.088000m/h.</desc>
<speed>0.580000</speed>
</trkpt>
<trkpt lat="56.002201" lon="26.579723">
<ele>123.575256</ele>
<time>2010-08-29T09:56:24Z</time>
<desc>lat.=56.002201, lon.=26.579723, Alt.=123.575256m. Speed=2.340000m/h.</desc>
<speed>0.650000</speed>
</trkpt>
<trkpt lat="56.002209" lon="26.579681">
<ele>123.540100</ele>
<time>2010-08-29T09:56:25Z</time>
<desc>lat.=56.002209, lon.=26.579681, Alt.=123.540100m. Speed=2.448000m/h.</desc>
<speed>0.680000</speed>
</trkpt>
<trkpt lat="56.002209" lon="26.579649">
<ele>123.981506</ele>
<time>2010-08-29T09:56:26Z</time>
<desc>lat.=56.002209, lon.=26.579649, Alt.=123.981506m. Speed=2.808000m/h.</desc>
<speed>0.780000</speed>
</trkpt>
<trkpt lat="56.002213" lon="26.579599">
<ele>123.807678</ele>
<time>2010-08-29T09:56:27Z</time>
<desc>lat.=56.002213, lon.=26.579599, Alt.=123.807678m. Speed=3.060000m/h.</desc>
<speed>0.850000</speed>
</trkpt>
<trkpt lat="56.002216" lon="26.579567">
<ele>123.870178</ele>
<time>2010-08-29T09:56:28Z</time>
<desc>lat.=56.002216, lon.=26.579567, Alt.=123.870178m. Speed=2.700000m/h.</desc>
<speed>0.750000</speed>
</trkpt>
<trkpt lat="56.002216" lon="26.579533">
<ele>124.018616</ele>
<time>2010-08-29T09:56:29Z</time>
<desc>lat.=56.002216, lon.=26.579533, Alt.=124.018616m. Speed=3.636000m/h.</desc>
<speed>1.010000</speed>
</trkpt>
<trkpt lat="56.002224" lon="26.579468">
<ele>123.672913</ele>
<time>2010-08-29T09:56:30Z</time>
<desc>lat.=56.002224, lon.=26.579468, Alt.=123.672913m. Speed=5.688000m/h.</desc>
<speed>1.580000</speed>
</trkpt>
<trkpt lat="56.002216" lon="26.579416">
<ele>123.350647</ele>
<time>2010-08-29T09:56:31Z</time>
<desc>lat.=56.002216, lon.=26.579416, Alt.=123.350647m. Speed=4.896000m/h.</desc>
<speed>1.360000</speed>
</trkpt>
<trkpt lat="56.002205" lon="26.579357">
<ele>123.067444</ele>
<time>2010-08-29T09:56:32Z</time>
<desc>lat.=56.002205, lon.=26.579357, Alt.=123.067444m. Speed=4.680000m/h.</desc>
<speed>1.300000</speed>
</trkpt>
<trkpt lat="56.002201" lon="26.579313">
<ele>123.143616</ele>
<time>2010-08-29T09:56:33Z</time>
<desc>lat.=56.002201, lon.=26.579313, Alt.=123.143616m. Speed=2.844000m/h.</desc>
<speed>0.790000</speed>
</trkpt>
<trkpt lat="56.002197" lon="26.579281">
<ele>123.251038</ele>
<time>2010-08-29T09:56:34Z</time>
<desc>lat.=56.002197, lon.=26.579281, Alt.=123.251038m. Speed=3.924000m/h.</desc>
<speed>1.090000</speed>
</trkpt>
<trkpt lat="56.002197" lon="26.579252">
<ele>123.952209</ele>
<time>2010-08-29T09:56:35Z</time>
<desc>lat.=56.002197, lon.=26.579252, Alt.=123.952209m. Speed=3.888000m/h.</desc>
<speed>1.080000</speed>
</trkpt>
<trkpt lat="56.002197" lon="26.579231">
<ele>124.129944</ele>
<time>2010-08-29T09:56:36Z</time>
<desc>lat.=56.002197, lon.=26.579231, Alt.=124.129944m. Speed=3.312000m/h.</desc>
<speed>0.920000</speed>
</trkpt>
<trkpt lat="56.002201" lon="26.579210">
<ele>124.407288</ele>
<time>2010-08-29T09:56:37Z</time>
<desc>lat.=56.002201, lon.=26.579210, Alt.=124.407288m. Speed=1.692000m/h.</desc>
<speed>0.470000</speed>
</trkpt>
<trkpt lat="56.002193" lon="26.579182">
<ele>124.436584</ele>
<time>2010-08-29T09:56:38Z</time>
<desc>lat.=56.002193, lon.=26.579182, Alt.=124.436584m. Speed=1.116000m/h.</desc>
<speed>0.310000</speed>
</trkpt>
<trkpt lat="56.002201" lon="26.579155">
<ele>123.981506</ele>
<time>2010-08-29T09:56:39Z</time>
<desc>lat.=56.002201, lon.=26.579155, Alt.=123.981506m. Speed=1.944000m/h.</desc>
<speed>0.540000</speed>
</trkpt>
<trkpt lat="56.002209" lon="26.579145">
<ele>123.586975</ele>
<time>2010-08-29T09:56:40Z</time>
<desc>lat.=56.002209, lon.=26.579145, Alt.=123.586975m. Speed=1.872000m/h.</desc>
<speed>0.520000</speed>
</trkpt>
<trkpt lat="56.002216" lon="26.579136">
<ele>123.530334</ele>
<time>2010-08-29T09:56:41Z</time>
<desc>lat.=56.002216, lon.=26.579136, Alt.=123.530334m. Speed=1.692000m/h.</desc>
<speed>0.470000</speed>
</trkpt>
<trkpt lat="56.002220" lon="26.579117">
<ele>123.672913</ele>
<time>2010-08-29T09:56:42Z</time>
<desc>lat.=56.002220, lon.=26.579117, Alt.=123.672913m. Speed=1.656000m/h.</desc>
<speed>0.460000</speed>
</trkpt>
<trkpt lat="56.002224" lon="26.579102">
<ele>123.792053</ele>
<time>2010-08-29T09:56:43Z</time>
<desc>lat.=56.002224, lon.=26.579102, Alt.=123.792053m. Speed=1.440000m/h.</desc>
<speed>0.400000</speed>
</trkpt>
<trkpt lat="56.002232" lon="26.579084">
<ele>123.727600</ele>
<time>2010-08-29T09:56:44Z</time>
<desc>lat.=56.002232, lon.=26.579084, Alt.=123.727600m. Speed=1.368000m/h.</desc>
<speed>0.380000</speed>
</trkpt>
<trkpt lat="56.002235" lon="26.579063">
<ele>123.850647</ele>
<time>2010-08-29T09:56:45Z</time>
<desc>lat.=56.002235, lon.=26.579063, Alt.=123.850647m. Speed=1.368000m/h.</desc>
<speed>0.380000</speed>
</trkpt>
<trkpt lat="56.002243" lon="26.579039">
<ele>123.797913</ele>
<time>2010-08-29T09:56:46Z</time>
<desc>lat.=56.002243, lon.=26.579039, Alt.=123.797913m. Speed=1.656000m/h.</desc>
<speed>0.460000</speed>
</trkpt>
<trkpt lat="56.002243" lon="26.579016">
<ele>123.838928</ele>
<time>2010-08-29T09:56:47Z</time>
<desc>lat.=56.002243, lon.=26.579016, Alt.=123.838928m. Speed=1.836000m/h.</desc>
<speed>0.510000</speed>
</trkpt>
<trkpt lat="56.002254" lon="26.578991">
<ele>123.460022</ele>
<time>2010-08-29T09:56:48Z</time>
<desc>lat.=56.002254, lon.=26.578991, Alt.=123.460022m. Speed=2.088000m/h.</desc>
<speed>0.580000</speed>
</trkpt>
<trkpt lat="56.002262" lon="26.578962">
<ele>123.458069</ele>
<time>2010-08-29T09:56:49Z</time>
<desc>lat.=56.002262, lon.=26.578962, Alt.=123.458069m. Speed=2.052000m/h.</desc>
<speed>0.570000</speed>
</trkpt>
<trkpt lat="56.002266" lon="26.578932">
<ele>123.206116</ele>
<time>2010-08-29T09:56:50Z</time>
<desc>lat.=56.002266, lon.=26.578932, Alt.=123.206116m. Speed=2.124000m/h.</desc>
<speed>0.590000</speed>
</trkpt>
<trkpt lat="56.002274" lon="26.578897">
<ele>123.272522</ele>
<time>2010-08-29T09:56:51Z</time>
<desc>lat.=56.002274, lon.=26.578897, Alt.=123.272522m. Speed=2.592000m/h.</desc>
<speed>0.720000</speed>
</trkpt>
<trkpt lat="56.002277" lon="26.578880">
<ele>123.366272</ele>
<time>2010-08-29T09:56:52Z</time>
<desc>lat.=56.002277, lon.=26.578880, Alt.=123.366272m. Speed=2.196000m/h.</desc>
<speed>0.610000</speed>
</trkpt>
<trkpt lat="56.002285" lon="26.578850">
<ele>123.399475</ele>
<time>2010-08-29T09:56:53Z</time>
<desc>lat.=56.002285, lon.=26.578850, Alt.=123.399475m. Speed=2.016000m/h.</desc>
<speed>0.560000</speed>
</trkpt>
<trkpt lat="56.002293" lon="26.578819">
<ele>123.438538</ele>
<time>2010-08-29T09:56:54Z</time>
<desc>lat.=56.002293, lon.=26.578819, Alt.=123.438538m. Speed=2.340000m/h.</desc>
<speed>0.650000</speed>
</trkpt>
<trkpt lat="56.002304" lon="26.578772">
<ele>123.434631</ele>
<time>2010-08-29T09:56:55Z</time>
<desc>lat.=56.002304, lon.=26.578772, Alt.=123.434631m. Speed=3.276000m/h.</desc>
<speed>0.910000</speed>
</trkpt>
<trkpt lat="56.002308" lon="26.578676">
<ele>122.973694</ele>
<time>2010-08-29T09:56:56Z</time>
<desc>lat.=56.002308, lon.=26.578676, Alt.=122.973694m. Speed=3.888000m/h.</desc>
<speed>1.080000</speed>
</trkpt>
<trkpt lat="56.002316" lon="26.578646">
<ele>123.149475</ele>
<time>2010-08-29T09:56:57Z</time>
<desc>lat.=56.002316, lon.=26.578646, Alt.=123.149475m. Speed=4.140000m/h.</desc>
<speed>1.150000</speed>
</trkpt>
<trkpt lat="56.002323" lon="26.578617">
<ele>123.475647</ele>
<time>2010-08-29T09:56:58Z</time>
<desc>lat.=56.002323, lon.=26.578617, Alt.=123.475647m. Speed=3.744000m/h.</desc>
<speed>1.040000</speed>
</trkpt>
<trkpt lat="56.002331" lon="26.578583">
<ele>123.872131</ele>
<time>2010-08-29T09:56:59Z</time>
<desc>lat.=56.002331, lon.=26.578583, Alt.=123.872131m. Speed=4.068000m/h.</desc>
<speed>1.130000</speed>
</trkpt>
<trkpt lat="56.002335" lon="26.578548">
<ele>124.030334</ele>
<time>2010-08-29T09:57:00Z</time>
<desc>lat.=56.002335, lon.=26.578548, Alt.=124.030334m. Speed=4.572000m/h.</desc>
<speed>1.270000</speed>
</trkpt>
<trkpt lat="56.002346" lon="26.578463">
<ele>123.686584</ele>
<time>2010-08-29T09:57:01Z</time>
<desc>lat.=56.002346, lon.=26.578463, Alt.=123.686584m. Speed=4.896000m/h.</desc>
<speed>1.360000</speed>
</trkpt>
<trkpt lat="56.002354" lon="26.578409">
<ele>123.346741</ele>
<time>2010-08-29T09:57:02Z</time>
<desc>lat.=56.002354, lon.=26.578409, Alt.=123.346741m. Speed=5.688000m/h.</desc>
<speed>1.580000</speed>
</trkpt>
<trkpt lat="56.002361" lon="26.578377">
<ele>123.323303</ele>
<time>2010-08-29T09:57:03Z</time>
<desc>lat.=56.002361, lon.=26.578377, Alt.=123.323303m. Speed=3.888000m/h.</desc>
<speed>1.080000</speed>
</trkpt>
<trkpt lat="56.002373" lon="26.578354">
<ele>123.419006</ele>
<time>2010-08-29T09:57:04Z</time>
<desc>lat.=56.002373, lon.=26.578354, Alt.=123.419006m. Speed=3.672000m/h.</desc>
<speed>1.020000</speed>
</trkpt>
<trkpt lat="56.002380" lon="26.578329">
<ele>123.667053</ele>
<time>2010-08-29T09:57:05Z</time>
<desc>lat.=56.002380, lon.=26.578329, Alt.=123.667053m. Speed=1.800000m/h.</desc>
<speed>0.500000</speed>
</trkpt>
<trkpt lat="56.002388" lon="26.578270">
<ele>123.393616</ele>
<time>2010-08-29T09:57:06Z</time>
<desc>lat.=56.002388, lon.=26.578270, Alt.=123.393616m. Speed=1.080000m/h.</desc>
<speed>0.300000</speed>
</trkpt>
<trkpt lat="56.002399" lon="26.578247">
<ele>123.499084</ele>
<time>2010-08-29T09:57:07Z</time>
<desc>lat.=56.002399, lon.=26.578247, Alt.=123.499084m. Speed=1.836000m/h.</desc>
<speed>0.510000</speed>
</trkpt>
<trkpt lat="56.002411" lon="26.578209">
<ele>123.434631</ele>
<time>2010-08-29T09:57:08Z</time>
<desc>lat.=56.002411, lon.=26.578209, Alt.=123.434631m. Speed=2.592000m/h.</desc>
<speed>0.720000</speed>
</trkpt>
<trkpt lat="56.002422" lon="26.578167">
<ele>123.540100</ele>
<time>2010-08-29T09:57:09Z</time>
<desc>lat.=56.002422, lon.=26.578167, Alt.=123.540100m. Speed=3.384000m/h.</desc>
<speed>0.940000</speed>
</trkpt>
<trkpt lat="56.002426" lon="26.578131">
<ele>123.823303</ele>
<time>2010-08-29T09:57:10Z</time>
<desc>lat.=56.002426, lon.=26.578131, Alt.=123.823303m. Speed=3.672000m/h.</desc>
<speed>1.020000</speed>
</trkpt>
<trkpt lat="56.002434" lon="26.578093">
<ele>124.116272</ele>
<time>2010-08-29T09:57:11Z</time>
<desc>lat.=56.002434, lon.=26.578093, Alt.=124.116272m. Speed=4.104000m/h.</desc>
<speed>1.140000</speed>
</trkpt>
<trkpt lat="56.002438" lon="26.578064">
<ele>124.428772</ele>
<time>2010-08-29T09:57:12Z</time>
<desc>lat.=56.002438, lon.=26.578064, Alt.=124.428772m. Speed=4.140000m/h.</desc>
<speed>1.150000</speed>
</trkpt>
<trkpt lat="56.002441" lon="26.578030">
<ele>124.696350</ele>
<time>2010-08-29T09:57:13Z</time>
<desc>lat.=56.002441, lon.=26.578030, Alt.=124.696350m. Speed=4.104000m/h.</desc>
<speed>1.140000</speed>
</trkpt>
<trkpt lat="56.002438" lon="26.577991">
<ele>124.737366</ele>
<time>2010-08-29T09:57:14Z</time>
<desc>lat.=56.002438, lon.=26.577991, Alt.=124.737366m. Speed=4.716000m/h.</desc>
<speed>1.310000</speed>
</trkpt>
<trkpt lat="56.002441" lon="26.577951">
<ele>124.803772</ele>
<time>2010-08-29T09:57:15Z</time>
<desc>lat.=56.002441, lon.=26.577951, Alt.=124.803772m. Speed=5.256000m/h.</desc>
<speed>1.460000</speed>
</trkpt>
<trkpt lat="56.002441" lon="26.577923">
<ele>124.930725</ele>
<time>2010-08-29T09:57:16Z</time>
<desc>lat.=56.002441, lon.=26.577923, Alt.=124.930725m. Speed=4.824000m/h.</desc>
<speed>1.340000</speed>
</trkpt>
<trkpt lat="56.002434" lon="26.577894">
<ele>124.983459</ele>
<time>2010-08-29T09:57:17Z</time>
<desc>lat.=56.002434, lon.=26.577894, Alt.=124.983459m. Speed=4.752000m/h.</desc>
<speed>1.320000</speed>
</trkpt>
<trkpt lat="56.002434" lon="26.577860">
<ele>125.215881</ele>
<time>2010-08-29T09:57:18Z</time>
<desc>lat.=56.002434, lon.=26.577860, Alt.=125.215881m. Speed=4.860000m/h.</desc>
<speed>1.350000</speed>
</trkpt>
<trkpt lat="56.002441" lon="26.577827">
<ele>125.409241</ele>
<time>2010-08-29T09:57:19Z</time>
<desc>lat.=56.002441, lon.=26.577827, Alt.=125.409241m. Speed=4.932000m/h.</desc>
<speed>1.370000</speed>
</trkpt>
<trkpt lat="56.002453" lon="26.577793">
<ele>125.573303</ele>
<time>2010-08-29T09:57:20Z</time>
<desc>lat.=56.002453, lon.=26.577793, Alt.=125.573303m. Speed=5.472000m/h.</desc>
<speed>1.520000</speed>
</trkpt>
<trkpt lat="56.002464" lon="26.577749">
<ele>125.696350</ele>
<time>2010-08-29T09:57:21Z</time>
<desc>lat.=56.002464, lon.=26.577749, Alt.=125.696350m. Speed=7.452000m/h.</desc>
<speed>2.070000</speed>
</trkpt>
<trkpt lat="56.002472" lon="26.577705">
<ele>125.860413</ele>
<time>2010-08-29T09:57:22Z</time>
<desc>lat.=56.002472, lon.=26.577705, Alt.=125.860413m. Speed=7.668000m/h.</desc>
<speed>2.130000</speed>
</trkpt>
<trkpt lat="56.002468" lon="26.577650">
<ele>125.792053</ele>
<time>2010-08-29T09:57:23Z</time>
<desc>lat.=56.002468, lon.=26.577650, Alt.=125.792053m. Speed=7.992000m/h.</desc>
<speed>2.220000</speed>
</trkpt>
<trkpt lat="56.002468" lon="26.577604">
<ele>125.725647</ele>
<time>2010-08-29T09:57:24Z</time>
<desc>lat.=56.002468, lon.=26.577604, Alt.=125.725647m. Speed=8.604000m/h.</desc>
<speed>2.390000</speed>
</trkpt>
<trkpt lat="56.002476" lon="26.577547">
<ele>125.473694</ele>
<time>2010-08-29T09:57:25Z</time>
<desc>lat.=56.002476, lon.=26.577547, Alt.=125.473694m. Speed=10.260000m/h.</desc>
<speed>2.850000</speed>
</trkpt>
<trkpt lat="56.002480" lon="26.577494">
<ele>125.751038</ele>
<time>2010-08-29T09:57:26Z</time>
<desc>lat.=56.002480, lon.=26.577494, Alt.=125.751038m. Speed=11.736000m/h.</desc>
<speed>3.260000</speed>
</trkpt>
<trkpt lat="56.002476" lon="26.577440">
<ele>125.506897</ele>
<time>2010-08-29T09:57:27Z</time>
<desc>lat.=56.002476, lon.=26.577440, Alt.=125.506897m. Speed=8.892000m/h.</desc>
<speed>2.470000</speed>
</trkpt>
<trkpt lat="56.002472" lon="26.577387">
<ele>124.874084</ele>
<time>2010-08-29T09:57:28Z</time>
<desc>lat.=56.002472, lon.=26.577387, Alt.=124.874084m. Speed=12.456000m/h.</desc>
<speed>3.460000</speed>
</trkpt>
<trkpt lat="56.002472" lon="26.577332">
<ele>124.465881</ele>
<time>2010-08-29T09:57:29Z</time>
<desc>lat.=56.002472, lon.=26.577332, Alt.=124.465881m. Speed=10.584000m/h.</desc>
<speed>2.940000</speed>
</trkpt>
<trkpt lat="56.002476" lon="26.577280">
<ele>123.659241</ele>
<time>2010-08-29T09:57:30Z</time>
<desc>lat.=56.002476, lon.=26.577280, Alt.=123.659241m. Speed=10.332000m/h.</desc>
<speed>2.870000</speed>
</trkpt>
<trkpt lat="56.002468" lon="26.577225">
<ele>122.188538</ele>
<time>2010-08-29T09:57:31Z</time>
<desc>lat.=56.002468, lon.=26.577225, Alt.=122.188538m. Speed=11.700000m/h.</desc>
<speed>3.250000</speed>
</trkpt>
<trkpt lat="56.002464" lon="26.577169">
<ele>121.897522</ele>
<time>2010-08-29T09:57:32Z</time>
<desc>lat.=56.002464, lon.=26.577169, Alt.=121.897522m. Speed=10.188000m/h.</desc>
<speed>2.830000</speed>
</trkpt>
<trkpt lat="56.002453" lon="26.577129">
<ele>121.145569</ele>
<time>2010-08-29T09:57:33Z</time>
<desc>lat.=56.002453, lon.=26.577129, Alt.=121.145569m. Speed=9.036000m/h.</desc>
<speed>2.510000</speed>
</trkpt>
<trkpt lat="56.002464" lon="26.577017">
<ele>119.768616</ele>
<time>2010-08-29T09:57:34Z</time>
<desc>lat.=56.002464, lon.=26.577017, Alt.=119.768616m. Speed=8.748000m/h.</desc>
<speed>2.430000</speed>
</trkpt>
<trkpt lat="56.002464" lon="26.576981">
<ele>119.170959</ele>
<time>2010-08-29T09:57:35Z</time>
<desc>lat.=56.002464, lon.=26.576981, Alt.=119.170959m. Speed=5.760000m/h.</desc>
<speed>1.600000</speed>
</trkpt>
<trkpt lat="56.002468" lon="26.576944">
<ele>119.155334</ele>
<time>2010-08-29T09:57:36Z</time>
<desc>lat.=56.002468, lon.=26.576944, Alt.=119.155334m. Speed=7.236000m/h.</desc>
<speed>2.010000</speed>
</trkpt>
<trkpt lat="56.002480" lon="26.576891">
<ele>118.909241</ele>
<time>2010-08-29T09:57:37Z</time>
<desc>lat.=56.002480, lon.=26.576891, Alt.=118.909241m. Speed=7.200000m/h.</desc>
<speed>2.000000</speed>
</trkpt>
<trkpt lat="56.002483" lon="26.576843">
<ele>118.270569</ele>
<time>2010-08-29T09:57:38Z</time>
<desc>lat.=56.002483, lon.=26.576843, Alt.=118.270569m. Speed=6.696000m/h.</desc>
<speed>1.860000</speed>
</trkpt>
<trkpt lat="56.002491" lon="26.576809">
<ele>118.262756</ele>
<time>2010-08-29T09:57:39Z</time>
<desc>lat.=56.002491, lon.=26.576809, Alt.=118.262756m. Speed=7.380000m/h.</desc>
<speed>2.050000</speed>
</trkpt>
<trkpt lat="56.002499" lon="26.576767">
<ele>118.106506</ele>
<time>2010-08-29T09:57:40Z</time>
<desc>lat.=56.002499, lon.=26.576767, Alt.=118.106506m. Speed=7.200000m/h.</desc>
<speed>2.000000</speed>
</trkpt>
<trkpt lat="56.002502" lon="26.576731">
<ele>118.194397</ele>
<time>2010-08-29T09:57:41Z</time>
<desc>lat.=56.002502, lon.=26.576731, Alt.=118.194397m. Speed=7.848000m/h.</desc>
<speed>2.180000</speed>
</trkpt>
<trkpt lat="56.002502" lon="26.576687">
<ele>117.491272</ele>
<time>2010-08-29T09:57:42Z</time>
<desc>lat.=56.002502, lon.=26.576687, Alt.=117.491272m. Speed=8.928000m/h.</desc>
<speed>2.480000</speed>
</trkpt>
<trkpt lat="56.002510" lon="26.576645">
<ele>117.280334</ele>
<time>2010-08-29T09:57:43Z</time>
<desc>lat.=56.002510, lon.=26.576645, Alt.=117.280334m. Speed=8.856000m/h.</desc>
<speed>2.460000</speed>
</trkpt>
<trkpt lat="56.002518" lon="26.576609">
<ele>116.430725</ele>
<time>2010-08-29T09:57:44Z</time>
<desc>lat.=56.002518, lon.=26.576609, Alt.=116.430725m. Speed=8.712000m/h.</desc>
<speed>2.420000</speed>
</trkpt>
<trkpt lat="56.002533" lon="26.576555">
<ele>116.024475</ele>
<time>2010-08-29T09:57:45Z</time>
<desc>lat.=56.002533, lon.=26.576555, Alt.=116.024475m. Speed=9.504000m/h.</desc>
<speed>2.640000</speed>
</trkpt>
<trkpt lat="56.002548" lon="26.576508">
<ele>116.311584</ele>
<time>2010-08-29T09:57:46Z</time>
<desc>lat.=56.002548, lon.=26.576508, Alt.=116.311584m. Speed=11.124000m/h.</desc>
<speed>3.090000</speed>
</trkpt>
<trkpt lat="56.002579" lon="26.576439">
<ele>116.647522</ele>
<time>2010-08-29T09:57:47Z</time>
<desc>lat.=56.002579, lon.=26.576439, Alt.=116.647522m. Speed=10.764000m/h.</desc>
<speed>2.990000</speed>
</trkpt>
<trkpt lat="56.002605" lon="26.576380">
<ele>116.770569</ele>
<time>2010-08-29T09:57:48Z</time>
<desc>lat.=56.002605, lon.=26.576380, Alt.=116.770569m. Speed=10.548000m/h.</desc>
<speed>2.930000</speed>
</trkpt>
<trkpt lat="56.002628" lon="26.576332">
<ele>116.659241</ele>
<time>2010-08-29T09:57:49Z</time>
<desc>lat.=56.002628, lon.=26.576332, Alt.=116.659241m. Speed=10.908000m/h.</desc>
<speed>3.030000</speed>
</trkpt>
<trkpt lat="56.002644" lon="26.576279">
<ele>115.835022</ele>
<time>2010-08-29T09:57:50Z</time>
<desc>lat.=56.002644, lon.=26.576279, Alt.=115.835022m. Speed=9.216000m/h.</desc>
<speed>2.560000</speed>
</trkpt>
<trkpt lat="56.002663" lon="26.576214">
<ele>115.184631</ele>
<time>2010-08-29T09:57:51Z</time>
<desc>lat.=56.002663, lon.=26.576214, Alt.=115.184631m. Speed=9.000000m/h.</desc>
<speed>2.500000</speed>
</trkpt>
<trkpt lat="56.002678" lon="26.576143">
<ele>115.149475</ele>
<time>2010-08-29T09:57:52Z</time>
<desc>lat.=56.002678, lon.=26.576143, Alt.=115.149475m. Speed=9.720000m/h.</desc>
<speed>2.700000</speed>
</trkpt>
<trkpt lat="56.002697" lon="26.576077">
<ele>115.081116</ele>
<time>2010-08-29T09:57:53Z</time>
<desc>lat.=56.002697, lon.=26.576077, Alt.=115.081116m. Speed=9.000000m/h.</desc>
<speed>2.500000</speed>
</trkpt>
<trkpt lat="56.002705" lon="26.576006">
<ele>114.491272</ele>
<time>2010-08-29T09:57:54Z</time>
<desc>lat.=56.002705, lon.=26.576006, Alt.=114.491272m. Speed=8.460000m/h.</desc>
<speed>2.350000</speed>
</trkpt>
<trkpt lat="56.002720" lon="26.575954">
<ele>114.555725</ele>
<time>2010-08-29T09:57:55Z</time>
<desc>lat.=56.002720, lon.=26.575954, Alt.=114.555725m. Speed=5.256000m/h.</desc>
<speed>1.460000</speed>
</trkpt>
<trkpt lat="56.002728" lon="26.575914">
<ele>115.268616</ele>
<time>2010-08-29T09:57:56Z</time>
<desc>lat.=56.002728, lon.=26.575914, Alt.=115.268616m. Speed=4.536000m/h.</desc>
<speed>1.260000</speed>
</trkpt>
<trkpt lat="56.002739" lon="26.575842">
<ele>115.002991</ele>
<time>2010-08-29T09:57:57Z</time>
<desc>lat.=56.002739, lon.=26.575842, Alt.=115.002991m. Speed=6.336000m/h.</desc>
<speed>1.760000</speed>
</trkpt>
<trkpt lat="56.002747" lon="26.575775">
<ele>115.104553</ele>
<time>2010-08-29T09:57:58Z</time>
<desc>lat.=56.002747, lon.=26.575775, Alt.=115.104553m. Speed=6.876000m/h.</desc>
<speed>1.910000</speed>
</trkpt>
<trkpt lat="56.002750" lon="26.575706">
<ele>115.284241</ele>
<time>2010-08-29T09:57:59Z</time>
<desc>lat.=56.002750, lon.=26.575706, Alt.=115.284241m. Speed=7.200000m/h.</desc>
<speed>2.000000</speed>
</trkpt>
<trkpt lat="56.002754" lon="26.575649">
<ele>114.915100</ele>
<time>2010-08-29T09:58:00Z</time>
<desc>lat.=56.002754, lon.=26.575649, Alt.=114.915100m. Speed=8.640000m/h.</desc>
<speed>2.400000</speed>
</trkpt>
<trkpt lat="56.002754" lon="26.575588">
<ele>114.631897</ele>
<time>2010-08-29T09:58:01Z</time>
<desc>lat.=56.002754, lon.=26.575588, Alt.=114.631897m. Speed=7.380000m/h.</desc>
<speed>2.050000</speed>
</trkpt>
<trkpt lat="56.002754" lon="26.575512">
<ele>115.174866</ele>
<time>2010-08-29T09:58:02Z</time>
<desc>lat.=56.002754, lon.=26.575512, Alt.=115.174866m. Speed=10.584000m/h.</desc>
<speed>2.940000</speed>
</trkpt>
<trkpt lat="56.002766" lon="26.575434">
<ele>115.221741</ele>
<time>2010-08-29T09:58:03Z</time>
<desc>lat.=56.002766, lon.=26.575434, Alt.=115.221741m. Speed=10.548000m/h.</desc>
<speed>2.930000</speed>
</trkpt>
<trkpt lat="56.002773" lon="26.575359">
<ele>115.112366</ele>
<time>2010-08-29T09:58:04Z</time>
<desc>lat.=56.002773, lon.=26.575359, Alt.=115.112366m. Speed=13.572000m/h.</desc>
<speed>3.770000</speed>
</trkpt>
<trkpt lat="56.002781" lon="26.575283">
<ele>114.292053</ele>
<time>2010-08-29T09:58:05Z</time>
<desc>lat.=56.002781, lon.=26.575283, Alt.=114.292053m. Speed=15.372000m/h.</desc>
<speed>4.270000</speed>
</trkpt>
<trkpt lat="56.002800" lon="26.575203">
<ele>114.016663</ele>
<time>2010-08-29T09:58:06Z</time>
<desc>lat.=56.002800, lon.=26.575203, Alt.=114.016663m. Speed=14.724000m/h.</desc>
<speed>4.090000</speed>
</trkpt>
<trkpt lat="56.002811" lon="26.575111">
<ele>114.126038</ele>
<time>2010-08-29T09:58:07Z</time>
<desc>lat.=56.002811, lon.=26.575111, Alt.=114.126038m. Speed=16.704000m/h.</desc>
<speed>4.640000</speed>
</trkpt>
<trkpt lat="56.002827" lon="26.575018">
<ele>113.727600</ele>
<time>2010-08-29T09:58:08Z</time>
<desc>lat.=56.002827, lon.=26.575018, Alt.=113.727600m. Speed=15.444000m/h.</desc>
<speed>4.290000</speed>
</trkpt>
<trkpt lat="56.002831" lon="26.574892">
<ele>113.616272</ele>
<time>2010-08-29T09:58:09Z</time>
<desc>lat.=56.002831, lon.=26.574892, Alt.=113.616272m. Speed=18.936001m/h.</desc>
<speed>5.260000</speed>
</trkpt>
<trkpt lat="56.002853" lon="26.574797">
<ele>113.899475</ele>
<time>2010-08-29T09:58:10Z</time>
<desc>lat.=56.002853, lon.=26.574797, Alt.=113.899475m. Speed=19.980000m/h.</desc>
<speed>5.550000</speed>
</trkpt>
<trkpt lat="56.002872" lon="26.574673">
<ele>115.124084</ele>
<time>2010-08-29T09:58:11Z</time>
<desc>lat.=56.002872, lon.=26.574673, Alt.=115.124084m. Speed=20.771999m/h.</desc>
<speed>5.770000</speed>
</trkpt>
<trkpt lat="56.002880" lon="26.574556">
<ele>114.497131</ele>
<time>2010-08-29T09:58:12Z</time>
<desc>lat.=56.002880, lon.=26.574556, Alt.=114.497131m. Speed=20.556000m/h.</desc>
<speed>5.710000</speed>
</trkpt>
<trkpt lat="56.002888" lon="26.574453">
<ele>114.667053</ele>
<time>2010-08-29T09:58:13Z</time>
<desc>lat.=56.002888, lon.=26.574453, Alt.=114.667053m. Speed=19.368000m/h.</desc>
<speed>5.380000</speed>
</trkpt>
<trkpt lat="56.002899" lon="26.574356">
<ele>114.930725</ele>
<time>2010-08-29T09:58:14Z</time>
<desc>lat.=56.002899, lon.=26.574356, Alt.=114.930725m. Speed=20.160000m/h.</desc>
<speed>5.600000</speed>
</trkpt>
<trkpt lat="56.002899" lon="26.574261">
<ele>115.674866</ele>
<time>2010-08-29T09:58:15Z</time>
<desc>lat.=56.002899, lon.=26.574261, Alt.=115.674866m. Speed=19.799999m/h.</desc>
<speed>5.500000</speed>
</trkpt>
<trkpt lat="56.002903" lon="26.574156">
<ele>116.520569</ele>
<time>2010-08-29T09:58:16Z</time>
<desc>lat.=56.002903, lon.=26.574156, Alt.=116.520569m. Speed=19.007999m/h.</desc>
<speed>5.280000</speed>
</trkpt>
<trkpt lat="56.002907" lon="26.574053">
<ele>116.292053</ele>
<time>2010-08-29T09:58:17Z</time>
<desc>lat.=56.002907, lon.=26.574053, Alt.=116.292053m. Speed=18.792000m/h.</desc>
<speed>5.220000</speed>
</trkpt>
<trkpt lat="56.002911" lon="26.573957">
<ele>116.807678</ele>
<time>2010-08-29T09:58:18Z</time>
<desc>lat.=56.002911, lon.=26.573957, Alt.=116.807678m. Speed=17.532000m/h.</desc>
<speed>4.870000</speed>
</trkpt>
<trkpt lat="56.002907" lon="26.573879">
<ele>116.831116</ele>
<time>2010-08-29T09:58:19Z</time>
<desc>lat.=56.002907, lon.=26.573879, Alt.=116.831116m. Speed=14.760000m/h.</desc>
<speed>4.100000</speed>
</trkpt>
<trkpt lat="56.002911" lon="26.573795">
<ele>117.190491</ele>
<time>2010-08-29T09:58:20Z</time>
<desc>lat.=56.002911, lon.=26.573795, Alt.=117.190491m. Speed=15.228000m/h.</desc>
<speed>4.230000</speed>
</trkpt>
<trkpt lat="56.002918" lon="26.573717">
<ele>117.948303</ele>
<time>2010-08-29T09:58:21Z</time>
<desc>lat.=56.002918, lon.=26.573717, Alt.=117.948303m. Speed=14.688000m/h.</desc>
<speed>4.080000</speed>
</trkpt>
<trkpt lat="56.002922" lon="26.573637">
<ele>118.745178</ele>
<time>2010-08-29T09:58:22Z</time>
<desc>lat.=56.002922, lon.=26.573637, Alt.=118.745178m. Speed=14.112000m/h.</desc>
<speed>3.920000</speed>
</trkpt>
<trkpt lat="56.002922" lon="26.573553">
<ele>118.883850</ele>
<time>2010-08-29T09:58:23Z</time>
<desc>lat.=56.002922, lon.=26.573553, Alt.=118.883850m. Speed=15.444000m/h.</desc>
<speed>4.290000</speed>
</trkpt>
<trkpt lat="56.002922" lon="26.573484">
<ele>119.290100</ele>
<time>2010-08-29T09:58:24Z</time>
<desc>lat.=56.002922, lon.=26.573484, Alt.=119.290100m. Speed=14.688000m/h.</desc>
<speed>4.080000</speed>
</trkpt>
<trkpt lat="56.002926" lon="26.573393">
<ele>119.079163</ele>
<time>2010-08-29T09:58:25Z</time>
<desc>lat.=56.002926, lon.=26.573393, Alt.=119.079163m. Speed=15.876000m/h.</desc>
<speed>4.410000</speed>
</trkpt>
<trkpt lat="56.002926" lon="26.573328">
<ele>118.211975</ele>
<time>2010-08-29T09:58:26Z</time>
<desc>lat.=56.002926, lon.=26.573328, Alt.=118.211975m. Speed=13.320000m/h.</desc>
<speed>3.700000</speed>
</trkpt>
<trkpt lat="56.002926" lon="26.573261">
<ele>117.639709</ele>
<time>2010-08-29T09:58:27Z</time>
<desc>lat.=56.002926, lon.=26.573261, Alt.=117.639709m. Speed=11.124000m/h.</desc>
<speed>3.090000</speed>
</trkpt>
<trkpt lat="56.002922" lon="26.573206">
<ele>116.614319</ele>
<time>2010-08-29T09:58:28Z</time>
<desc>lat.=56.002922, lon.=26.573206, Alt.=116.614319m. Speed=10.620000m/h.</desc>
<speed>2.950000</speed>
</trkpt>
<trkpt lat="56.002922" lon="26.573133">
<ele>115.635803</ele>
<time>2010-08-29T09:58:29Z</time>
<desc>lat.=56.002922, lon.=26.573133, Alt.=115.635803m. Speed=12.168000m/h.</desc>
<speed>3.380000</speed>
</trkpt>
<trkpt lat="56.002926" lon="26.573050">
<ele>113.663147</ele>
<time>2010-08-29T09:58:30Z</time>
<desc>lat.=56.002926, lon.=26.573050, Alt.=113.663147m. Speed=11.880000m/h.</desc>
<speed>3.300000</speed>
</trkpt>
<trkpt lat="56.002930" lon="26.572956">
<ele>112.145569</ele>
<time>2010-08-29T09:58:31Z</time>
<desc>lat.=56.002930, lon.=26.572956, Alt.=112.145569m. Speed=12.096000m/h.</desc>
<speed>3.360000</speed>
</trkpt>
<trkpt lat="56.002926" lon="26.572889">
<ele>112.454163</ele>
<time>2010-08-29T09:58:32Z</time>
<desc>lat.=56.002926, lon.=26.572889, Alt.=112.454163m. Speed=11.232000m/h.</desc>
<speed>3.120000</speed>
</trkpt>
<trkpt lat="56.002918" lon="26.572813">
<ele>112.051819</ele>
<time>2010-08-29T09:58:33Z</time>
<desc>lat.=56.002918, lon.=26.572813, Alt.=112.051819m. Speed=11.196000m/h.</desc>
<speed>3.110000</speed>
</trkpt>
<trkpt lat="56.002926" lon="26.572739">
<ele>111.282288</ele>
<time>2010-08-29T09:58:34Z</time>
<desc>lat.=56.002926, lon.=26.572739, Alt.=111.282288m. Speed=11.736000m/h.</desc>
<speed>3.260000</speed>
</trkpt>
<trkpt lat="56.002926" lon="26.572659">
<ele>110.901428</ele>
<time>2010-08-29T09:58:35Z</time>
<desc>lat.=56.002926, lon.=26.572659, Alt.=110.901428m. Speed=10.404000m/h.</desc>
<speed>2.890000</speed>
</trkpt>
<trkpt lat="56.002937" lon="26.572586">
<ele>109.979553</ele>
<time>2010-08-29T09:58:36Z</time>
<desc>lat.=56.002937, lon.=26.572586, Alt.=109.979553m. Speed=8.280000m/h.</desc>
<speed>2.300000</speed>
</trkpt>
<trkpt lat="56.002949" lon="26.572519">
<ele>109.397522</ele>
<time>2010-08-29T09:58:37Z</time>
<desc>lat.=56.002949, lon.=26.572519, Alt.=109.397522m. Speed=6.336000m/h.</desc>
<speed>1.760000</speed>
</trkpt>
<trkpt lat="56.002968" lon="26.572426">
<ele>108.336975</ele>
<time>2010-08-29T09:58:38Z</time>
<desc>lat.=56.002968, lon.=26.572426, Alt.=108.336975m. Speed=6.660000m/h.</desc>
<speed>1.850000</speed>
</trkpt>
<trkpt lat="56.002979" lon="26.572355">
<ele>108.424866</ele>
<time>2010-08-29T09:58:39Z</time>
<desc>lat.=56.002979, lon.=26.572355, Alt.=108.424866m. Speed=6.696000m/h.</desc>
<speed>1.860000</speed>
</trkpt>
<trkpt lat="56.002979" lon="26.572321">
<ele>107.713928</ele>
<time>2010-08-29T09:58:40Z</time>
<desc>lat.=56.002979, lon.=26.572321, Alt.=107.713928m. Speed=1.656000m/h.</desc>
<speed>0.460000</speed>
</trkpt>
<trkpt lat="56.002979" lon="26.572298">
<ele>107.924866</ele>
<time>2010-08-29T09:58:41Z</time>
<desc>lat.=56.002979, lon.=26.572298, Alt.=107.924866m. Speed=0.864000m/h.</desc>
<speed>0.240000</speed>
</trkpt>
<trkpt lat="56.002983" lon="26.572281">
<ele>107.792053</ele>
<time>2010-08-29T09:58:42Z</time>
<desc>lat.=56.002983, lon.=26.572281, Alt.=107.792053m. Speed=0.756000m/h.</desc>
<speed>0.210000</speed>
</trkpt>
<trkpt lat="56.002987" lon="26.572258">
<ele>108.624084</ele>
<time>2010-08-29T09:58:43Z</time>
<desc>lat.=56.002987, lon.=26.572258, Alt.=108.624084m. Speed=1.044000m/h.</desc>
<speed>0.290000</speed>
</trkpt>
<trkpt lat="56.002987" lon="26.572254">
<ele>108.620178</ele>
<time>2010-08-29T09:58:44Z</time>
<desc>lat.=56.002987, lon.=26.572254, Alt.=108.620178m. Speed=0.468000m/h.</desc>
<speed>0.130000</speed>
</trkpt>
<trkpt lat="56.002987" lon="26.572250">
<ele>108.583069</ele>
<time>2010-08-29T09:58:45Z</time>
<desc>lat.=56.002987, lon.=26.572250, Alt.=108.583069m. Speed=0.540000m/h.</desc>
<speed>0.150000</speed>
</trkpt>
<trkpt lat="56.002987" lon="26.572247">
<ele>108.549866</ele>
<time>2010-08-29T09:58:46Z</time>
<desc>lat.=56.002987, lon.=26.572247, Alt.=108.549866m. Speed=0.468000m/h.</desc>
<speed>0.130000</speed>
</trkpt>
<trkpt lat="56.002987" lon="26.572245">
<ele>108.514709</ele>
<time>2010-08-29T09:58:47Z</time>
<desc>lat.=56.002987, lon.=26.572245, Alt.=108.514709m. Speed=0.360000m/h.</desc>
<speed>0.100000</speed>
</trkpt>
<trkpt lat="56.002991" lon="26.572245">
<ele>108.493225</ele>
<time>2010-08-29T09:58:48Z</time>
<desc>lat.=56.002991, lon.=26.572245, Alt.=108.493225m. Speed=0.072000m/h.</desc>
<speed>0.020000</speed>
</trkpt>
<trkpt lat="56.002991" lon="26.572245">
<ele>108.473694</ele>
<time>2010-08-29T09:58:49Z</time>
<desc>lat.=56.002991, lon.=26.572245, Alt.=108.473694m. Speed=0.324000m/h.</desc>
<speed>0.090000</speed>
</trkpt>
<trkpt lat="56.002991" lon="26.572243">
<ele>108.491272</ele>
<time>2010-08-29T09:58:50Z</time>
<desc>lat.=56.002991, lon.=26.572243, Alt.=108.491272m. Speed=0.108000m/h.</desc>
<speed>0.030000</speed>
</trkpt>
<trkpt lat="56.002991" lon="26.572243">
<ele>108.540100</ele>
<time>2010-08-29T09:58:51Z</time>
<desc>lat.=56.002991, lon.=26.572243, Alt.=108.540100m. Speed=0.144000m/h.</desc>
<speed>0.040000</speed>
</trkpt>
<trkpt lat="56.002991" lon="26.572243">
<ele>108.571350</ele>
<time>2010-08-29T09:58:52Z</time>
<desc>lat.=56.002991, lon.=26.572243, Alt.=108.571350m. Speed=0.504000m/h.</desc>
<speed>0.140000</speed>
</trkpt>
<trkpt lat="56.002991" lon="26.572239">
<ele>108.631897</ele>
<time>2010-08-29T09:58:53Z</time>
<desc>lat.=56.002991, lon.=26.572239, Alt.=108.631897m. Speed=0.432000m/h.</desc>
<speed>0.120000</speed>
</trkpt>
<trkpt lat="56.002995" lon="26.572237">
<ele>108.682678</ele>
<time>2010-08-29T09:58:54Z</time>
<desc>lat.=56.002995, lon.=26.572237, Alt.=108.682678m. Speed=0.612000m/h.</desc>
<speed>0.170000</speed>
</trkpt>
<trkpt lat="56.002995" lon="26.572235">
<ele>108.723694</ele>
<time>2010-08-29T09:58:55Z</time>
<desc>lat.=56.002995, lon.=26.572235, Alt.=108.723694m. Speed=0.648000m/h.</desc>
<speed>0.180000</speed>
</trkpt>
<trkpt lat="56.002995" lon="26.572231">
<ele>108.760803</ele>
<time>2010-08-29T09:58:56Z</time>
<desc>lat.=56.002995, lon.=26.572231, Alt.=108.760803m. Speed=0.648000m/h.</desc>
<speed>0.180000</speed>
</trkpt>
<trkpt lat="56.002995" lon="26.572229">
<ele>108.788147</ele>
<time>2010-08-29T09:58:57Z</time>
<desc>lat.=56.002995, lon.=26.572229, Alt.=108.788147m. Speed=0.072000m/h.</desc>
<speed>0.020000</speed>
</trkpt>
<trkpt lat="56.002995" lon="26.572229">
<ele>108.811584</ele>
<time>2010-08-29T09:58:58Z</time>
<desc>lat.=56.002995, lon.=26.572229, Alt.=108.811584m. Speed=0.216000m/h.</desc>
<speed>0.060000</speed>
</trkpt>
<trkpt lat="56.002995" lon="26.572229">
<ele>108.831116</ele>
<time>2010-08-29T09:58:59Z</time>
<desc>lat.=56.002995, lon.=26.572229, Alt.=108.831116m. Speed=0.288000m/h.</desc>
<speed>0.080000</speed>
</trkpt>
<trkpt lat="56.002995" lon="26.572231">
<ele>108.852600</ele>
<time>2010-08-29T09:59:00Z</time>
<desc>lat.=56.002995, lon.=26.572231, Alt.=108.852600m. Speed=0.288000m/h.</desc>
<speed>0.080000</speed>
</trkpt>
<trkpt lat="56.002995" lon="26.572229">
<ele>108.868225</ele>
<time>2010-08-29T09:59:01Z</time>
<desc>lat.=56.002995, lon.=26.572229, Alt.=108.868225m. Speed=0.108000m/h.</desc>
<speed>0.030000</speed>
</trkpt>
<trkpt lat="56.002995" lon="26.572229">
<ele>108.885803</ele>
<time>2010-08-29T09:59:02Z</time>
<desc>lat.=56.002995, lon.=26.572229, Alt.=108.885803m. Speed=0.540000m/h.</desc>
<speed>0.150000</speed>
</trkpt>
<trkpt lat="56.002991" lon="26.572227">
<ele>108.895569</ele>
<time>2010-08-29T09:59:03Z</time>
<desc>lat.=56.002991, lon.=26.572227, Alt.=108.895569m. Speed=0.648000m/h.</desc>
<speed>0.180000</speed>
</trkpt>
<trkpt lat="56.002991" lon="26.572226">
<ele>108.909241</ele>
<time>2010-08-29T09:59:04Z</time>
<desc>lat.=56.002991, lon.=26.572226, Alt.=108.909241m. Speed=1.080000m/h.</desc>
<speed>0.300000</speed>
</trkpt>
<trkpt lat="56.002991" lon="26.572222">
<ele>108.930725</ele>
<time>2010-08-29T09:59:05Z</time>
<desc>lat.=56.002991, lon.=26.572222, Alt.=108.930725m. Speed=0.792000m/h.</desc>
<speed>0.220000</speed>
</trkpt>
<trkpt lat="56.002991" lon="26.572218">
<ele>108.954163</ele>
<time>2010-08-29T09:59:06Z</time>
<desc>lat.=56.002991, lon.=26.572218, Alt.=108.954163m. Speed=0.792000m/h.</desc>
<speed>0.220000</speed>
</trkpt>
<trkpt lat="56.002991" lon="26.572214">
<ele>108.977600</ele>
<time>2010-08-29T09:59:07Z</time>
<desc>lat.=56.002991, lon.=26.572214, Alt.=108.977600m. Speed=0.684000m/h.</desc>
<speed>0.190000</speed>
</trkpt>
<trkpt lat="56.002991" lon="26.572212">
<ele>108.997131</ele>
<time>2010-08-29T09:59:08Z</time>
<desc>lat.=56.002991, lon.=26.572212, Alt.=108.997131m. Speed=0.252000m/h.</desc>
<speed>0.070000</speed>
</trkpt>
<trkpt lat="56.002991" lon="26.572214">
<ele>109.016663</ele>
<time>2010-08-29T09:59:09Z</time>
<desc>lat.=56.002991, lon.=26.572214, Alt.=109.016663m. Speed=0.936000m/h.</desc>
<speed>0.260000</speed>
</trkpt>
<trkpt lat="56.002987" lon="26.572216">
<ele>109.038147</ele>
<time>2010-08-29T09:59:10Z</time>
<desc>lat.=56.002987, lon.=26.572216, Alt.=109.038147m. Speed=1.296000m/h.</desc>
<speed>0.360000</speed>
</trkpt>
<trkpt lat="56.002987" lon="26.572222">
<ele>109.059631</ele>
<time>2010-08-29T09:59:11Z</time>
<desc>lat.=56.002987, lon.=26.572222, Alt.=109.059631m. Speed=0.072000m/h.</desc>
<speed>0.020000</speed>
</trkpt>
<trkpt lat="56.002987" lon="26.572222">
<ele>109.083069</ele>
<time>2010-08-29T09:59:12Z</time>
<desc>lat.=56.002987, lon.=26.572222, Alt.=109.083069m. Speed=0.360000m/h.</desc>
<speed>0.100000</speed>
</trkpt>
<trkpt lat="56.002987" lon="26.572222">
<ele>109.106506</ele>
<time>2010-08-29T09:59:13Z</time>
<desc>lat.=56.002987, lon.=26.572222, Alt.=109.106506m. Speed=0.360000m/h.</desc>
<speed>0.100000</speed>
</trkpt>
<trkpt lat="56.002987" lon="26.572222">
<ele>109.129944</ele>
<time>2010-08-29T09:59:14Z</time>
<desc>lat.=56.002987, lon.=26.572222, Alt.=109.129944m. Speed=0.288000m/h.</desc>
<speed>0.080000</speed>
</trkpt>
<trkpt lat="56.002987" lon="26.572222">
<ele>109.155334</ele>
<time>2010-08-29T09:59:15Z</time>
<desc>lat.=56.002987, lon.=26.572222, Alt.=109.155334m. Speed=0.540000m/h.</desc>
<speed>0.150000</speed>
</trkpt>
<trkpt lat="56.002987" lon="26.572220">
<ele>109.176819</ele>
<time>2010-08-29T09:59:16Z</time>
<desc>lat.=56.002987, lon.=26.572220, Alt.=109.176819m. Speed=0.468000m/h.</desc>
<speed>0.130000</speed>
</trkpt>
<trkpt lat="56.002987" lon="26.572218">
<ele>109.196350</ele>
<time>2010-08-29T09:59:17Z</time>
<desc>lat.=56.002987, lon.=26.572218, Alt.=109.196350m. Speed=0.720000m/h.</desc>
<speed>0.200000</speed>
</trkpt>
<trkpt lat="56.002987" lon="26.572214">
<ele>109.210022</ele>
<time>2010-08-29T09:59:18Z</time>
<desc>lat.=56.002987, lon.=26.572214, Alt.=109.210022m. Speed=0.540000m/h.</desc>
<speed>0.150000</speed>
</trkpt>
<trkpt lat="56.002987" lon="26.572212">
<ele>109.227600</ele>
<time>2010-08-29T09:59:19Z</time>
<desc>lat.=56.002987, lon.=26.572212, Alt.=109.227600m. Speed=0.288000m/h.</desc>
<speed>0.080000</speed>
</trkpt>
<trkpt lat="56.002987" lon="26.572210">
<ele>109.239319</ele>
<time>2010-08-29T09:59:20Z</time>
<desc>lat.=56.002987, lon.=26.572210, Alt.=109.239319m. Speed=0.576000m/h.</desc>
<speed>0.160000</speed>
</trkpt>
<trkpt lat="56.002987" lon="26.572214">
<ele>109.251038</ele>
<time>2010-08-29T09:59:21Z</time>
<desc>lat.=56.002987, lon.=26.572214, Alt.=109.251038m. Speed=0.612000m/h.</desc>
<speed>0.170000</speed>
</trkpt>
<trkpt lat="56.002987" lon="26.572214">
<ele>109.260803</ele>
<time>2010-08-29T09:59:22Z</time>
<desc>lat.=56.002987, lon.=26.572214, Alt.=109.260803m. Speed=0.540000m/h.</desc>
<speed>0.150000</speed>
</trkpt>
<trkpt lat="56.002991" lon="26.572218">
<ele>109.270569</ele>
<time>2010-08-29T09:59:23Z</time>
<desc>lat.=56.002991, lon.=26.572218, Alt.=109.270569m. Speed=0.540000m/h.</desc>
<speed>0.150000</speed>
</trkpt>
<trkpt lat="56.002987" lon="26.572220">
<ele>109.278381</ele>
<time>2010-08-29T09:59:24Z</time>
<desc>lat.=56.002987, lon.=26.572220, Alt.=109.278381m. Speed=0.540000m/h.</desc>
<speed>0.150000</speed>
</trkpt>
<trkpt lat="56.002987" lon="26.572222">
<ele>109.288147</ele>
<time>2010-08-29T09:59:25Z</time>
<desc>lat.=56.002987, lon.=26.572222, Alt.=109.288147m. Speed=0.216000m/h.</desc>
<speed>0.060000</speed>
</trkpt>
<trkpt lat="56.002987" lon="26.572222">
<ele>109.295959</ele>
<time>2010-08-29T09:59:26Z</time>
<desc>lat.=56.002987, lon.=26.572222, Alt.=109.295959m. Speed=0.216000m/h.</desc>
<speed>0.060000</speed>
</trkpt>
<trkpt lat="56.002987" lon="26.572222">
<ele>109.305725</ele>
<time>2010-08-29T09:59:27Z</time>
<desc>lat.=56.002987, lon.=26.572222, Alt.=109.305725m. Speed=0.324000m/h.</desc>
<speed>0.090000</speed>
</trkpt>
<trkpt lat="56.002987" lon="26.572220">
<ele>109.313538</ele>
<time>2010-08-29T09:59:28Z</time>
<desc>lat.=56.002987, lon.=26.572220, Alt.=109.313538m. Speed=0.216000m/h.</desc>
<speed>0.060000</speed>
</trkpt>
<trkpt lat="56.002987" lon="26.572220">
<ele>109.321350</ele>
<time>2010-08-29T09:59:29Z</time>
<desc>lat.=56.002987, lon.=26.572220, Alt.=109.321350m. Speed=0.504000m/h.</desc>
<speed>0.140000</speed>
</trkpt>
<trkpt lat="56.002987" lon="26.572220">
<ele>109.327209</ele>
<time>2010-08-29T09:59:30Z</time>
<desc>lat.=56.002987, lon.=26.572220, Alt.=109.327209m. Speed=1.116000m/h.</desc>
<speed>0.310000</speed>
</trkpt>
<trkpt lat="56.002991" lon="26.572216">
<ele>109.333069</ele>
<time>2010-08-29T09:59:31Z</time>
<desc>lat.=56.002991, lon.=26.572216, Alt.=109.333069m. Speed=0.972000m/h.</desc>
<speed>0.270000</speed>
</trkpt>
<trkpt lat="56.002991" lon="26.572212">
<ele>109.336975</ele>
<time>2010-08-29T09:59:32Z</time>
<desc>lat.=56.002991, lon.=26.572212, Alt.=109.336975m. Speed=0.792000m/h.</desc>
<speed>0.220000</speed>
</trkpt>
<trkpt lat="56.002991" lon="26.572208">
<ele>109.340881</ele>
<time>2010-08-29T09:59:33Z</time>
<desc>lat.=56.002991, lon.=26.572208, Alt.=109.340881m. Speed=1.008000m/h.</desc>
<speed>0.280000</speed>
</trkpt>
<trkpt lat="56.002995" lon="26.572205">
<ele>109.342834</ele>
<time>2010-08-29T09:59:34Z</time>
<desc>lat.=56.002995, lon.=26.572205, Alt.=109.342834m. Speed=1.260000m/h.</desc>
<speed>0.350000</speed>
</trkpt>
<trkpt lat="56.002998" lon="26.572205">
<ele>109.340881</ele>
<time>2010-08-29T09:59:35Z</time>
<desc>lat.=56.002998, lon.=26.572205, Alt.=109.340881m. Speed=1.476000m/h.</desc>
<speed>0.410000</speed>
</trkpt>
<trkpt lat="56.003002" lon="26.572205">
<ele>109.338928</ele>
<time>2010-08-29T09:59:36Z</time>
<desc>lat.=56.003002, lon.=26.572205, Alt.=109.338928m. Speed=1.980000m/h.</desc>
<speed>0.550000</speed>
</trkpt>
<trkpt lat="56.003006" lon="26.572205">
<ele>109.336975</ele>
<time>2010-08-29T09:59:37Z</time>
<desc>lat.=56.003006, lon.=26.572205, Alt.=109.336975m. Speed=2.664000m/h.</desc>
<speed>0.740000</speed>
</trkpt>
<trkpt lat="56.003014" lon="26.572203">
<ele>109.333069</ele>
<time>2010-08-29T09:59:38Z</time>
<desc>lat.=56.003014, lon.=26.572203, Alt.=109.333069m. Speed=2.484000m/h.</desc>
<speed>0.690000</speed>
</trkpt>
<trkpt lat="56.003021" lon="26.572205">
<ele>109.333069</ele>
<time>2010-08-29T09:59:39Z</time>
<desc>lat.=56.003021, lon.=26.572205, Alt.=109.333069m. Speed=2.448000m/h.</desc>
<speed>0.680000</speed>
</trkpt>
<trkpt lat="56.003025" lon="26.572206">
<ele>109.331116</ele>
<time>2010-08-29T09:59:40Z</time>
<desc>lat.=56.003025, lon.=26.572206, Alt.=109.331116m. Speed=2.196000m/h.</desc>
<speed>0.610000</speed>
</trkpt>
<trkpt lat="56.003033" lon="26.572206">
<ele>109.336975</ele>
<time>2010-08-29T09:59:41Z</time>
<desc>lat.=56.003033, lon.=26.572206, Alt.=109.336975m. Speed=2.052000m/h.</desc>
<speed>0.570000</speed>
</trkpt>
<trkpt lat="56.003036" lon="26.572205">
<ele>109.344788</ele>
<time>2010-08-29T09:59:42Z</time>
<desc>lat.=56.003036, lon.=26.572205, Alt.=109.344788m. Speed=1.404000m/h.</desc>
<speed>0.390000</speed>
</trkpt>
<trkpt lat="56.003036" lon="26.572199">
<ele>109.360413</ele>
<time>2010-08-29T09:59:43Z</time>
<desc>lat.=56.003036, lon.=26.572199, Alt.=109.360413m. Speed=3.780000m/h.</desc>
<speed>1.050000</speed>
</trkpt>
<trkpt lat="56.003033" lon="26.572176">
<ele>108.581116</ele>
<time>2010-08-29T09:59:44Z</time>
<desc>lat.=56.003033, lon.=26.572176, Alt.=108.581116m. Speed=3.888000m/h.</desc>
<speed>1.080000</speed>
</trkpt>
<trkpt lat="56.003029" lon="26.572149">
<ele>108.735413</ele>
<time>2010-08-29T09:59:45Z</time>
<desc>lat.=56.003029, lon.=26.572149, Alt.=108.735413m. Speed=4.500000m/h.</desc>
<speed>1.250000</speed>
</trkpt>
<trkpt lat="56.003036" lon="26.572119">
<ele>108.626038</ele>
<time>2010-08-29T09:59:46Z</time>
<desc>lat.=56.003036, lon.=26.572119, Alt.=108.626038m. Speed=4.248000m/h.</desc>
<speed>1.180000</speed>
</trkpt>
<trkpt lat="56.003033" lon="26.572081">
<ele>108.278381</ele>
<time>2010-08-29T09:59:47Z</time>
<desc>lat.=56.003033, lon.=26.572081, Alt.=108.278381m. Speed=4.500000m/h.</desc>
<speed>1.250000</speed>
</trkpt>
<trkpt lat="56.003044" lon="26.572042">
<ele>108.362366</ele>
<time>2010-08-29T09:59:48Z</time>
<desc>lat.=56.003044, lon.=26.572042, Alt.=108.362366m. Speed=4.680000m/h.</desc>
<speed>1.300000</speed>
</trkpt>
<trkpt lat="56.003040" lon="26.572014">
<ele>108.415100</ele>
<time>2010-08-29T09:59:49Z</time>
<desc>lat.=56.003040, lon.=26.572014, Alt.=108.415100m. Speed=4.752000m/h.</desc>
<speed>1.320000</speed>
</trkpt>
<trkpt lat="56.003036" lon="26.571981">
<ele>108.333069</ele>
<time>2010-08-29T09:59:50Z</time>
<desc>lat.=56.003036, lon.=26.571981, Alt.=108.333069m. Speed=5.220000m/h.</desc>
<speed>1.450000</speed>
</trkpt>
<trkpt lat="56.003033" lon="26.571943">
<ele>107.821350</ele>
<time>2010-08-29T09:59:51Z</time>
<desc>lat.=56.003033, lon.=26.571943, Alt.=107.821350m. Speed=6.192000m/h.</desc>
<speed>1.720000</speed>
</trkpt>
<trkpt lat="56.003025" lon="26.571907">
<ele>107.870178</ele>
<time>2010-08-29T09:59:52Z</time>
<desc>lat.=56.003025, lon.=26.571907, Alt.=107.870178m. Speed=5.724000m/h.</desc>
<speed>1.590000</speed>
</trkpt>
<trkpt lat="56.003021" lon="26.571863">
<ele>107.549866</ele>
<time>2010-08-29T09:59:53Z</time>
<desc>lat.=56.003021, lon.=26.571863, Alt.=107.549866m. Speed=9.360000m/h.</desc>
<speed>2.600000</speed>
</trkpt>
<trkpt lat="56.003010" lon="26.571827">
<ele>106.848694</ele>
<time>2010-08-29T09:59:54Z</time>
<desc>lat.=56.003010, lon.=26.571827, Alt.=106.848694m. Speed=6.840000m/h.</desc>
<speed>1.900000</speed>
</trkpt>
<trkpt lat="56.003010" lon="26.571800">
<ele>106.752991</ele>
<time>2010-08-29T09:59:55Z</time>
<desc>lat.=56.003010, lon.=26.571800, Alt.=106.752991m. Speed=7.776000m/h.</desc>
<speed>2.160000</speed>
</trkpt>
<trkpt lat="56.003014" lon="26.571749">
<ele>106.422913</ele>
<time>2010-08-29T09:59:56Z</time>
<desc>lat.=56.003014, lon.=26.571749, Alt.=106.422913m. Speed=5.760000m/h.</desc>
<speed>1.600000</speed>
</trkpt>
<trkpt lat="56.003021" lon="26.571716">
<ele>106.245178</ele>
<time>2010-08-29T09:59:57Z</time>
<desc>lat.=56.003021, lon.=26.571716, Alt.=106.245178m. Speed=7.452000m/h.</desc>
<speed>2.070000</speed>
</trkpt>
<trkpt lat="56.003021" lon="26.571674">
<ele>106.139709</ele>
<time>2010-08-29T09:59:58Z</time>
<desc>lat.=56.003021, lon.=26.571674, Alt.=106.139709m. Speed=8.568000m/h.</desc>
<speed>2.380000</speed>
</trkpt>
<trkpt lat="56.003017" lon="26.571629">
<ele>106.010803</ele>
<time>2010-08-29T09:59:59Z</time>
<desc>lat.=56.003017, lon.=26.571629, Alt.=106.010803m. Speed=8.568000m/h.</desc>
<speed>2.380000</speed>
</trkpt>
<trkpt lat="56.003017" lon="26.571585">
<ele>106.120178</ele>
<time>2010-08-29T10:00:00Z</time>
<desc>lat.=56.003017, lon.=26.571585, Alt.=106.120178m. Speed=8.172000m/h.</desc>
<speed>2.270000</speed>
</trkpt>
<trkpt lat="56.003017" lon="26.571545">
<ele>106.135803</ele>
<time>2010-08-29T10:00:01Z</time>
<desc>lat.=56.003017, lon.=26.571545, Alt.=106.135803m. Speed=8.748000m/h.</desc>
<speed>2.430000</speed>
</trkpt>
<trkpt lat="56.003017" lon="26.571495">
<ele>106.016663</ele>
<time>2010-08-29T10:00:02Z</time>
<desc>lat.=56.003017, lon.=26.571495, Alt.=106.016663m. Speed=8.460000m/h.</desc>
<speed>2.350000</speed>
</trkpt>
<trkpt lat="56.003021" lon="26.571465">
<ele>105.928772</ele>
<time>2010-08-29T10:00:03Z</time>
<desc>lat.=56.003021, lon.=26.571465, Alt.=105.928772m. Speed=6.516000m/h.</desc>
<speed>1.810000</speed>
</trkpt>
<trkpt lat="56.003029" lon="26.571424">
<ele>106.028381</ele>
<time>2010-08-29T10:00:04Z</time>
<desc>lat.=56.003029, lon.=26.571424, Alt.=106.028381m. Speed=7.848000m/h.</desc>
<speed>2.180000</speed>
</trkpt>
<trkpt lat="56.003033" lon="26.571381">
<ele>106.085022</ele>
<time>2010-08-29T10:00:05Z</time>
<desc>lat.=56.003033, lon.=26.571381, Alt.=106.085022m. Speed=8.316000m/h.</desc>
<speed>2.310000</speed>
</trkpt>
<trkpt lat="56.003040" lon="26.571342">
<ele>105.854553</ele>
<time>2010-08-29T10:00:06Z</time>
<desc>lat.=56.003040, lon.=26.571342, Alt.=105.854553m. Speed=5.832000m/h.</desc>
<speed>1.620000</speed>
</trkpt>
<trkpt lat="56.003044" lon="26.571291">
<ele>106.069397</ele>
<time>2010-08-29T10:00:07Z</time>
<desc>lat.=56.003044, lon.=26.571291, Alt.=106.069397m. Speed=8.676000m/h.</desc>
<speed>2.410000</speed>
</trkpt>
<trkpt lat="56.003052" lon="26.571251">
<ele>106.292053</ele>
<time>2010-08-29T10:00:08Z</time>
<desc>lat.=56.003052, lon.=26.571251, Alt.=106.292053m. Speed=6.588000m/h.</desc>
<speed>1.830000</speed>
</trkpt>
<trkpt lat="56.003048" lon="26.571220">
<ele>106.264709</ele>
<time>2010-08-29T10:00:09Z</time>
<desc>lat.=56.003048, lon.=26.571220, Alt.=106.264709m. Speed=4.068000m/h.</desc>
<speed>1.130000</speed>
</trkpt>
<trkpt lat="56.003048" lon="26.571198">
<ele>106.407288</ele>
<time>2010-08-29T10:00:10Z</time>
<desc>lat.=56.003048, lon.=26.571198, Alt.=106.407288m. Speed=2.736000m/h.</desc>
<speed>0.760000</speed>
</trkpt>
<trkpt lat="56.003044" lon="26.571177">
<ele>106.315491</ele>
<time>2010-08-29T10:00:11Z</time>
<desc>lat.=56.003044, lon.=26.571177, Alt.=106.315491m. Speed=2.124000m/h.</desc>
<speed>0.590000</speed>
</trkpt>
<trkpt lat="56.003052" lon="26.571138">
<ele>106.469788</ele>
<time>2010-08-29T10:00:12Z</time>
<desc>lat.=56.003052, lon.=26.571138, Alt.=106.469788m. Speed=3.096000m/h.</desc>
<speed>0.860000</speed>
</trkpt>
<trkpt lat="56.003059" lon="26.571110">
<ele>106.450256</ele>
<time>2010-08-29T10:00:13Z</time>
<desc>lat.=56.003059, lon.=26.571110, Alt.=106.450256m. Speed=3.816000m/h.</desc>
<speed>1.060000</speed>
</trkpt>
<trkpt lat="56.003063" lon="26.571062">
<ele>106.627991</ele>
<time>2010-08-29T10:00:14Z</time>
<desc>lat.=56.003063, lon.=26.571062, Alt.=106.627991m. Speed=4.824000m/h.</desc>
<speed>1.340000</speed>
</trkpt>
<trkpt lat="56.003071" lon="26.571026">
<ele>106.667053</ele>
<time>2010-08-29T10:00:15Z</time>
<desc>lat.=56.003071, lon.=26.571026, Alt.=106.667053m. Speed=4.140000m/h.</desc>
<speed>1.150000</speed>
</trkpt>
<trkpt lat="56.003078" lon="26.570999">
<ele>106.762756</ele>
<time>2010-08-29T10:00:16Z</time>
<desc>lat.=56.003078, lon.=26.570999, Alt.=106.762756m. Speed=4.644000m/h.</desc>
<speed>1.290000</speed>
</trkpt>
<trkpt lat="56.003086" lon="26.570972">
<ele>106.729553</ele>
<time>2010-08-29T10:00:17Z</time>
<desc>lat.=56.003086, lon.=26.570972, Alt.=106.729553m. Speed=5.184000m/h.</desc>
<speed>1.440000</speed>
</trkpt>
<trkpt lat="56.003101" lon="26.570946">
<ele>106.827209</ele>
<time>2010-08-29T10:00:18Z</time>
<desc>lat.=56.003101, lon.=26.570946, Alt.=106.827209m. Speed=4.608000m/h.</desc>
<speed>1.280000</speed>
</trkpt>
<trkpt lat="56.003113" lon="26.570917">
<ele>106.780334</ele>
<time>2010-08-29T10:00:19Z</time>
<desc>lat.=56.003113, lon.=26.570917, Alt.=106.780334m. Speed=4.608000m/h.</desc>
<speed>1.280000</speed>
</trkpt>
<trkpt lat="56.003124" lon="26.570889">
<ele>106.819397</ele>
<time>2010-08-29T10:00:20Z</time>
<desc>lat.=56.003124, lon.=26.570889, Alt.=106.819397m. Speed=4.644000m/h.</desc>
<speed>1.290000</speed>
</trkpt>
<trkpt lat="56.003136" lon="26.570843">
<ele>106.774475</ele>
<time>2010-08-29T10:00:21Z</time>
<desc>lat.=56.003136, lon.=26.570843, Alt.=106.774475m. Speed=4.860000m/h.</desc>
<speed>1.350000</speed>
</trkpt>
<trkpt lat="56.003139" lon="26.570818">
<ele>106.838928</ele>
<time>2010-08-29T10:00:22Z</time>
<desc>lat.=56.003139, lon.=26.570818, Alt.=106.838928m. Speed=4.464000m/h.</desc>
<speed>1.240000</speed>
</trkpt>
<trkpt lat="56.003147" lon="26.570795">
<ele>106.889709</ele>
<time>2010-08-29T10:00:23Z</time>
<desc>lat.=56.003147, lon.=26.570795, Alt.=106.889709m. Speed=3.564000m/h.</desc>
<speed>0.990000</speed>
</trkpt>
<trkpt lat="56.003147" lon="26.570766">
<ele>106.981506</ele>
<time>2010-08-29T10:00:24Z</time>
<desc>lat.=56.003147, lon.=26.570766, Alt.=106.981506m. Speed=3.456000m/h.</desc>
<speed>0.960000</speed>
</trkpt>
<trkpt lat="56.003151" lon="26.570738">
<ele>107.094788</ele>
<time>2010-08-29T10:00:25Z</time>
<desc>lat.=56.003151, lon.=26.570738, Alt.=107.094788m. Speed=4.104000m/h.</desc>
<speed>1.140000</speed>
</trkpt>
<trkpt lat="56.003159" lon="26.570705">
<ele>107.196350</ele>
<time>2010-08-29T10:00:26Z</time>
<desc>lat.=56.003159, lon.=26.570705, Alt.=107.196350m. Speed=4.284000m/h.</desc>
<speed>1.190000</speed>
</trkpt>
<trkpt lat="56.003166" lon="26.570681">
<ele>107.221741</ele>
<time>2010-08-29T10:00:27Z</time>
<desc>lat.=56.003166, lon.=26.570681, Alt.=107.221741m. Speed=4.464000m/h.</desc>
<speed>1.240000</speed>
</trkpt>
<trkpt lat="56.003181" lon="26.570637">
<ele>107.385803</ele>
<time>2010-08-29T10:00:28Z</time>
<desc>lat.=56.003181, lon.=26.570637, Alt.=107.385803m. Speed=6.264000m/h.</desc>
<speed>1.740000</speed>
</trkpt>
<trkpt lat="56.003189" lon="26.570589">
<ele>107.393616</ele>
<time>2010-08-29T10:00:29Z</time>
<desc>lat.=56.003189, lon.=26.570589, Alt.=107.393616m. Speed=7.236000m/h.</desc>
<speed>2.010000</speed>
</trkpt>
<trkpt lat="56.003208" lon="26.570553">
<ele>107.670959</ele>
<time>2010-08-29T10:00:30Z</time>
<desc>lat.=56.003208, lon.=26.570553, Alt.=107.670959m. Speed=7.128000m/h.</desc>
<speed>1.980000</speed>
</trkpt>
<trkpt lat="56.003220" lon="26.570480">
<ele>107.805725</ele>
<time>2010-08-29T10:00:31Z</time>
<desc>lat.=56.003220, lon.=26.570480, Alt.=107.805725m. Speed=9.360000m/h.</desc>
<speed>2.600000</speed>
</trkpt>
<trkpt lat="56.003227" lon="26.570435">
<ele>107.944397</ele>
<time>2010-08-29T10:00:32Z</time>
<desc>lat.=56.003227, lon.=26.570435, Alt.=107.944397m. Speed=8.460000m/h.</desc>
<speed>2.350000</speed>
</trkpt>
<trkpt lat="56.003239" lon="26.570389">
<ele>108.235413</ele>
<time>2010-08-29T10:00:33Z</time>
<desc>lat.=56.003239, lon.=26.570389, Alt.=108.235413m. Speed=7.596000m/h.</desc>
<speed>2.110000</speed>
</trkpt>
<trkpt lat="56.003246" lon="26.570354">
<ele>108.575256</ele>
<time>2010-08-29T10:00:34Z</time>
<desc>lat.=56.003246, lon.=26.570354, Alt.=108.575256m. Speed=5.148000m/h.</desc>
<speed>1.430000</speed>
</trkpt>
<trkpt lat="56.003254" lon="26.570316">
<ele>108.747131</ele>
<time>2010-08-29T10:00:35Z</time>
<desc>lat.=56.003254, lon.=26.570316, Alt.=108.747131m. Speed=8.712000m/h.</desc>
<speed>2.420000</speed>
</trkpt>
<trkpt lat="56.003269" lon="26.570272">
<ele>108.987366</ele>
<time>2010-08-29T10:00:36Z</time>
<desc>lat.=56.003269, lon.=26.570272, Alt.=108.987366m. Speed=7.884000m/h.</desc>
<speed>2.190000</speed>
</trkpt>
<trkpt lat="56.003288" lon="26.570211">
<ele>109.417053</ele>
<time>2010-08-29T10:00:37Z</time>
<desc>lat.=56.003288, lon.=26.570211, Alt.=109.417053m. Speed=8.604000m/h.</desc>
<speed>2.390000</speed>
</trkpt>
<trkpt lat="56.003296" lon="26.570158">
<ele>109.733459</ele>
<time>2010-08-29T10:00:38Z</time>
<desc>lat.=56.003296, lon.=26.570158, Alt.=109.733459m. Speed=7.452000m/h.</desc>
<speed>2.070000</speed>
</trkpt>
<trkpt lat="56.003296" lon="26.570114">
<ele>110.051819</ele>
<time>2010-08-29T10:00:39Z</time>
<desc>lat.=56.003296, lon.=26.570114, Alt.=110.051819m. Speed=8.532000m/h.</desc>
<speed>2.370000</speed>
</trkpt>
<trkpt lat="56.003319" lon="26.570053">
<ele>110.919006</ele>
<time>2010-08-29T10:00:40Z</time>
<desc>lat.=56.003319, lon.=26.570053, Alt.=110.919006m. Speed=8.712000m/h.</desc>
<speed>2.420000</speed>
</trkpt>
<trkpt lat="56.003334" lon="26.570000">
<ele>111.901428</ele>
<time>2010-08-29T10:00:41Z</time>
<desc>lat.=56.003334, lon.=26.570000, Alt.=111.901428m. Speed=9.072000m/h.</desc>
<speed>2.520000</speed>
</trkpt>
<trkpt lat="56.003342" lon="26.569950">
<ele>112.836975</ele>
<time>2010-08-29T10:00:42Z</time>
<desc>lat.=56.003342, lon.=26.569950, Alt.=112.836975m. Speed=9.000000m/h.</desc>
<speed>2.500000</speed>
</trkpt>
<trkpt lat="56.003349" lon="26.569897">
<ele>114.083069</ele>
<time>2010-08-29T10:00:43Z</time>
<desc>lat.=56.003349, lon.=26.569897, Alt.=114.083069m. Speed=8.892000m/h.</desc>
<speed>2.470000</speed>
</trkpt>
<trkpt lat="56.003365" lon="26.569826">
<ele>116.176819</ele>
<time>2010-08-29T10:00:44Z</time>
<desc>lat.=56.003365, lon.=26.569826, Alt.=116.176819m. Speed=8.604000m/h.</desc>
<speed>2.390000</speed>
</trkpt>
<trkpt lat="56.003387" lon="26.569775">
<ele>117.702209</ele>
<time>2010-08-29T10:00:45Z</time>
<desc>lat.=56.003387, lon.=26.569775, Alt.=117.702209m. Speed=7.344000m/h.</desc>
<speed>2.040000</speed>
</trkpt>
<trkpt lat="56.003395" lon="26.569742">
<ele>118.940491</ele>
<time>2010-08-29T10:00:46Z</time>
<desc>lat.=56.003395, lon.=26.569742, Alt.=118.940491m. Speed=6.120000m/h.</desc>
<speed>1.700000</speed>
</trkpt>
<trkpt lat="56.003403" lon="26.569700">
<ele>120.108459</ele>
<time>2010-08-29T10:00:47Z</time>
<desc>lat.=56.003403, lon.=26.569700, Alt.=120.108459m. Speed=8.064000m/h.</desc>
<speed>2.240000</speed>
</trkpt>
<trkpt lat="56.003399" lon="26.569647">
<ele>120.850647</ele>
<time>2010-08-29T10:00:48Z</time>
<desc>lat.=56.003399, lon.=26.569647, Alt.=120.850647m. Speed=6.300000m/h.</desc>
<speed>1.750000</speed>
</trkpt>
<trkpt lat="56.003410" lon="26.569616">
<ele>121.790100</ele>
<time>2010-08-29T10:00:49Z</time>
<desc>lat.=56.003410, lon.=26.569616, Alt.=121.790100m. Speed=7.668000m/h.</desc>
<speed>2.130000</speed>
</trkpt>
<trkpt lat="56.003414" lon="26.569588">
<ele>122.749084</ele>
<time>2010-08-29T10:00:50Z</time>
<desc>lat.=56.003414, lon.=26.569588, Alt.=122.749084m. Speed=7.956000m/h.</desc>
<speed>2.210000</speed>
</trkpt>
<trkpt lat="56.003422" lon="26.569546">
<ele>123.676819</ele>
<time>2010-08-29T10:00:51Z</time>
<desc>lat.=56.003422, lon.=26.569546, Alt.=123.676819m. Speed=10.872000m/h.</desc>
<speed>3.020000</speed>
</trkpt>
<trkpt lat="56.003433" lon="26.569502">
<ele>124.897522</ele>
<time>2010-08-29T10:00:52Z</time>
<desc>lat.=56.003433, lon.=26.569502, Alt.=124.897522m. Speed=12.384000m/h.</desc>
<speed>3.440000</speed>
</trkpt>
<trkpt lat="56.003448" lon="26.569458">
<ele>126.335022</ele>
<time>2010-08-29T10:00:53Z</time>
<desc>lat.=56.003448, lon.=26.569458, Alt.=126.335022m. Speed=11.592000m/h.</desc>
<speed>3.220000</speed>
</trkpt>
<trkpt lat="56.003464" lon="26.569422">
<ele>127.879944</ele>
<time>2010-08-29T10:00:54Z</time>
<desc>lat.=56.003464, lon.=26.569422, Alt.=127.879944m. Speed=8.784000m/h.</desc>
<speed>2.440000</speed>
</trkpt>
<trkpt lat="56.003479" lon="26.569386">
<ele>129.115356</ele>
<time>2010-08-29T10:00:55Z</time>
<desc>lat.=56.003479, lon.=26.569386, Alt.=129.115356m. Speed=9.648000m/h.</desc>
<speed>2.680000</speed>
</trkpt>
<trkpt lat="56.003490" lon="26.569357">
<ele>130.638794</ele>
<time>2010-08-29T10:00:56Z</time>
<desc>lat.=56.003490, lon.=26.569357, Alt.=130.638794m. Speed=7.092000m/h.</desc>
<speed>1.970000</speed>
</trkpt>
<trkpt lat="56.003498" lon="26.569334">
<ele>132.009888</ele>
<time>2010-08-29T10:00:57Z</time>
<desc>lat.=56.003498, lon.=26.569334, Alt.=132.009888m. Speed=6.516000m/h.</desc>
<speed>1.810000</speed>
</trkpt>
<trkpt lat="56.003517" lon="26.569262">
<ele>134.795044</ele>
<time>2010-08-29T10:00:58Z</time>
<desc>lat.=56.003517, lon.=26.569262, Alt.=134.795044m. Speed=4.500000m/h.</desc>
<speed>1.250000</speed>
</trkpt>
<trkpt lat="56.003529" lon="26.569237">
<ele>133.822388</ele>
<time>2010-08-29T10:00:59Z</time>
<desc>lat.=56.003529, lon.=26.569237, Alt.=133.822388m. Speed=7.056000m/h.</desc>
<speed>1.960000</speed>
</trkpt>
<trkpt lat="56.003551" lon="26.569181">
<ele>135.478638</ele>
<time>2010-08-29T10:01:00Z</time>
<desc>lat.=56.003551, lon.=26.569181, Alt.=135.478638m. Speed=7.884000m/h.</desc>
<speed>2.190000</speed>
</trkpt>
<trkpt lat="56.003586" lon="26.569118">
<ele>137.166138</ele>
<time>2010-08-29T10:01:01Z</time>
<desc>lat.=56.003586, lon.=26.569118, Alt.=137.166138m. Speed=7.236000m/h.</desc>
<speed>2.010000</speed>
</trkpt>
<trkpt lat="56.003613" lon="26.569065">
<ele>138.775513</ele>
<time>2010-08-29T10:01:02Z</time>
<desc>lat.=56.003613, lon.=26.569065, Alt.=138.775513m. Speed=6.624000m/h.</desc>
<speed>1.840000</speed>
</trkpt>
<trkpt lat="56.003632" lon="26.569010">
<ele>140.494263</ele>
<time>2010-08-29T10:01:03Z</time>
<desc>lat.=56.003632, lon.=26.569010, Alt.=140.494263m. Speed=5.940000m/h.</desc>
<speed>1.650000</speed>
</trkpt>
<trkpt lat="56.003654" lon="26.568966">
<ele>142.189575</ele>
<time>2010-08-29T10:01:04Z</time>
<desc>lat.=56.003654, lon.=26.568966, Alt.=142.189575m. Speed=4.644000m/h.</desc>
<speed>1.290000</speed>
</trkpt>
<trkpt lat="56.003666" lon="26.568928">
<ele>142.322388</ele>
<time>2010-08-29T10:01:05Z</time>
<desc>lat.=56.003666, lon.=26.568928, Alt.=142.322388m. Speed=5.580000m/h.</desc>
<speed>1.550000</speed>
</trkpt>
<trkpt lat="56.003689" lon="26.568874">
<ele>143.791138</ele>
<time>2010-08-29T10:01:06Z</time>
<desc>lat.=56.003689, lon.=26.568874, Alt.=143.791138m. Speed=6.444000m/h.</desc>
<speed>1.790000</speed>
</trkpt>
<trkpt lat="56.003704" lon="26.568838">
<ele>144.763794</ele>
<time>2010-08-29T10:01:07Z</time>
<desc>lat.=56.003704, lon.=26.568838, Alt.=144.763794m. Speed=8.352000m/h.</desc>
<speed>2.320000</speed>
</trkpt>
<trkpt lat="56.003731" lon="26.568792">
<ele>145.849731</ele>
<time>2010-08-29T10:01:08Z</time>
<desc>lat.=56.003731, lon.=26.568792, Alt.=145.849731m. Speed=8.100000m/h.</desc>
<speed>2.250000</speed>
</trkpt>
<trkpt lat="56.003750" lon="26.568760">
<ele>146.654419</ele>
<time>2010-08-29T10:01:09Z</time>
<desc>lat.=56.003750, lon.=26.568760, Alt.=146.654419m. Speed=7.812000m/h.</desc>
<speed>2.170000</speed>
</trkpt>
<trkpt lat="56.003769" lon="26.568727">
<ele>147.158325</ele>
<time>2010-08-29T10:01:10Z</time>
<desc>lat.=56.003769, lon.=26.568727, Alt.=147.158325m. Speed=6.948000m/h.</desc>
<speed>1.930000</speed>
</trkpt>
<trkpt lat="56.003780" lon="26.568693">
<ele>147.845825</ele>
<time>2010-08-29T10:01:11Z</time>
<desc>lat.=56.003780, lon.=26.568693, Alt.=147.845825m. Speed=5.220000m/h.</desc>
<speed>1.450000</speed>
</trkpt>
<trkpt lat="56.003803" lon="26.568657">
<ele>148.767700</ele>
<time>2010-08-29T10:01:12Z</time>
<desc>lat.=56.003803, lon.=26.568657, Alt.=148.767700m. Speed=8.424000m/h.</desc>
<speed>2.340000</speed>
</trkpt>
<trkpt lat="56.003822" lon="26.568623">
<ele>149.693481</ele>
<time>2010-08-29T10:01:13Z</time>
<desc>lat.=56.003822, lon.=26.568623, Alt.=149.693481m. Speed=9.108000m/h.</desc>
<speed>2.530000</speed>
</trkpt>
<trkpt lat="56.003838" lon="26.568583">
<ele>150.580200</ele>
<time>2010-08-29T10:01:14Z</time>
<desc>lat.=56.003838, lon.=26.568583, Alt.=150.580200m. Speed=9.288000m/h.</desc>
<speed>2.580000</speed>
</trkpt>
<trkpt lat="56.003872" lon="26.568537">
<ele>151.517700</ele>
<time>2010-08-29T10:01:15Z</time>
<desc>lat.=56.003872, lon.=26.568537, Alt.=151.517700m. Speed=9.036000m/h.</desc>
<speed>2.510000</speed>
</trkpt>
<trkpt lat="56.003899" lon="26.568491">
<ele>152.076294</ele>
<time>2010-08-29T10:01:16Z</time>
<desc>lat.=56.003899, lon.=26.568491, Alt.=152.076294m. Speed=9.396000m/h.</desc>
<speed>2.610000</speed>
</trkpt>
<trkpt lat="56.003929" lon="26.568449">
<ele>152.830200</ele>
<time>2010-08-29T10:01:17Z</time>
<desc>lat.=56.003929, lon.=26.568449, Alt.=152.830200m. Speed=8.424000m/h.</desc>
<speed>2.340000</speed>
</trkpt>
<trkpt lat="56.003948" lon="26.568417">
<ele>153.615356</ele>
<time>2010-08-29T10:01:18Z</time>
<desc>lat.=56.003948, lon.=26.568417, Alt.=153.615356m. Speed=5.904000m/h.</desc>
<speed>1.640000</speed>
</trkpt>
<trkpt lat="56.003960" lon="26.568399">
<ele>154.509888</ele>
<time>2010-08-29T10:01:19Z</time>
<desc>lat.=56.003960, lon.=26.568399, Alt.=154.509888m. Speed=2.268000m/h.</desc>
<speed>0.630000</speed>
</trkpt>
<trkpt lat="56.003967" lon="26.568375">
<ele>155.416138</ele>
<time>2010-08-29T10:01:20Z</time>
<desc>lat.=56.003967, lon.=26.568375, Alt.=155.416138m. Speed=2.916000m/h.</desc>
<speed>0.810000</speed>
</trkpt>
<trkpt lat="56.003967" lon="26.568365">
<ele>154.420044</ele>
<time>2010-08-29T10:01:21Z</time>
<desc>lat.=56.003967, lon.=26.568365, Alt.=154.420044m. Speed=1.404000m/h.</desc>
<speed>0.390000</speed>
</trkpt>
<trkpt lat="56.003975" lon="26.568359">
<ele>154.787231</ele>
<time>2010-08-29T10:01:22Z</time>
<desc>lat.=56.003975, lon.=26.568359, Alt.=154.787231m. Speed=1.332000m/h.</desc>
<speed>0.370000</speed>
</trkpt>
<trkpt lat="56.003979" lon="26.568342">
<ele>153.982544</ele>
<time>2010-08-29T10:01:23Z</time>
<desc>lat.=56.003979, lon.=26.568342, Alt.=153.982544m. Speed=1.512000m/h.</desc>
<speed>0.420000</speed>
</trkpt>
<trkpt lat="56.003990" lon="26.568325">
<ele>153.900513</ele>
<time>2010-08-29T10:01:24Z</time>
<desc>lat.=56.003990, lon.=26.568325, Alt.=153.900513m. Speed=2.520000m/h.</desc>
<speed>0.700000</speed>
</trkpt>
<trkpt lat="56.003994" lon="26.568308">
<ele>154.377075</ele>
<time>2010-08-29T10:01:25Z</time>
<desc>lat.=56.003994, lon.=26.568308, Alt.=154.377075m. Speed=2.556000m/h.</desc>
<speed>0.710000</speed>
</trkpt>
<trkpt lat="56.004009" lon="26.568277">
<ele>154.021606</ele>
<time>2010-08-29T10:01:26Z</time>
<desc>lat.=56.004009, lon.=26.568277, Alt.=154.021606m. Speed=3.600000m/h.</desc>
<speed>1.000000</speed>
</trkpt>
<trkpt lat="56.004013" lon="26.568237">
<ele>154.080200</ele>
<time>2010-08-29T10:01:27Z</time>
<desc>lat.=56.004013, lon.=26.568237, Alt.=154.080200m. Speed=3.924000m/h.</desc>
<speed>1.090000</speed>
</trkpt>
<trkpt lat="56.004021" lon="26.568211">
<ele>153.841919</ele>
<time>2010-08-29T10:01:28Z</time>
<desc>lat.=56.004021, lon.=26.568211, Alt.=153.841919m. Speed=3.996000m/h.</desc>
<speed>1.110000</speed>
</trkpt>
<trkpt lat="56.004028" lon="26.568192">
<ele>153.689575</ele>
<time>2010-08-29T10:01:29Z</time>
<desc>lat.=56.004028, lon.=26.568192, Alt.=153.689575m. Speed=3.384000m/h.</desc>
<speed>0.940000</speed>
</trkpt>
<trkpt lat="56.004036" lon="26.568169">
<ele>154.037231</ele>
<time>2010-08-29T10:01:30Z</time>
<desc>lat.=56.004036, lon.=26.568169, Alt.=154.037231m. Speed=3.024000m/h.</desc>
<speed>0.840000</speed>
</trkpt>
<trkpt lat="56.004040" lon="26.568157">
<ele>153.716919</ele>
<time>2010-08-29T10:01:31Z</time>
<desc>lat.=56.004040, lon.=26.568157, Alt.=153.716919m. Speed=2.088000m/h.</desc>
<speed>0.580000</speed>
</trkpt>
<trkpt lat="56.004040" lon="26.568138">
<ele>152.990356</ele>
<time>2010-08-29T10:01:32Z</time>
<desc>lat.=56.004040, lon.=26.568138, Alt.=152.990356m. Speed=1.980000m/h.</desc>
<speed>0.550000</speed>
</trkpt>
<trkpt lat="56.004044" lon="26.568129">
<ele>152.931763</ele>
<time>2010-08-29T10:01:33Z</time>
<desc>lat.=56.004044, lon.=26.568129, Alt.=152.931763m. Speed=1.728000m/h.</desc>
<speed>0.480000</speed>
</trkpt>
<trkpt lat="56.004044" lon="26.568123">
<ele>153.005981</ele>
<time>2010-08-29T10:01:34Z</time>
<desc>lat.=56.004044, lon.=26.568123, Alt.=153.005981m. Speed=1.188000m/h.</desc>
<speed>0.330000</speed>
</trkpt>
<trkpt lat="56.004047" lon="26.568125">
<ele>153.056763</ele>
<time>2010-08-29T10:01:35Z</time>
<desc>lat.=56.004047, lon.=26.568125, Alt.=153.056763m. Speed=0.612000m/h.</desc>
<speed>0.170000</speed>
</trkpt>
<trkpt lat="56.004063" lon="26.568115">
<ele>153.275513</ele>
<time>2010-08-29T10:01:36Z</time>
<desc>lat.=56.004063, lon.=26.568115, Alt.=153.275513m. Speed=1.080000m/h.</desc>
<speed>0.300000</speed>
</trkpt>
<trkpt lat="56.004066" lon="26.568119">
<ele>153.283325</ele>
<time>2010-08-29T10:01:37Z</time>
<desc>lat.=56.004066, lon.=26.568119, Alt.=153.283325m. Speed=1.188000m/h.</desc>
<speed>0.330000</speed>
</trkpt>
<trkpt lat="56.004074" lon="26.568123">
<ele>153.259888</ele>
<time>2010-08-29T10:01:38Z</time>
<desc>lat.=56.004074, lon.=26.568123, Alt.=153.259888m. Speed=1.512000m/h.</desc>
<speed>0.420000</speed>
</trkpt>
<trkpt lat="56.004078" lon="26.568113">
<ele>153.310669</ele>
<time>2010-08-29T10:01:39Z</time>
<desc>lat.=56.004078, lon.=26.568113, Alt.=153.310669m. Speed=1.008000m/h.</desc>
<speed>0.280000</speed>
</trkpt>
<trkpt lat="56.004074" lon="26.568100">
<ele>153.060669</ele>
<time>2010-08-29T10:01:40Z</time>
<desc>lat.=56.004074, lon.=26.568100, Alt.=153.060669m. Speed=0.252000m/h.</desc>
<speed>0.070000</speed>
</trkpt>
<trkpt lat="56.004082" lon="26.568096">
<ele>152.818481</ele>
<time>2010-08-29T10:01:41Z</time>
<desc>lat.=56.004082, lon.=26.568096, Alt.=152.818481m. Speed=0.360000m/h.</desc>
<speed>0.100000</speed>
</trkpt>
<trkpt lat="56.004089" lon="26.568092">
<ele>152.783325</ele>
<time>2010-08-29T10:01:42Z</time>
<desc>lat.=56.004089, lon.=26.568092, Alt.=152.783325m. Speed=0.288000m/h.</desc>
<speed>0.080000</speed>
</trkpt>
<trkpt lat="56.004089" lon="26.568090">
<ele>152.912231</ele>
<time>2010-08-29T10:01:43Z</time>
<desc>lat.=56.004089, lon.=26.568090, Alt.=152.912231m. Speed=0.144000m/h.</desc>
<speed>0.040000</speed>
</trkpt>
<trkpt lat="56.004089" lon="26.568090">
<ele>153.013794</ele>
<time>2010-08-29T10:01:44Z</time>
<desc>lat.=56.004089, lon.=26.568090, Alt.=153.013794m. Speed=0.504000m/h.</desc>
<speed>0.140000</speed>
</trkpt>
<trkpt lat="56.004089" lon="26.568090">
<ele>153.099731</ele>
<time>2010-08-29T10:01:45Z</time>
<desc>lat.=56.004089, lon.=26.568090, Alt.=153.099731m. Speed=0.216000m/h.</desc>
<speed>0.060000</speed>
</trkpt>
<trkpt lat="56.004089" lon="26.568092">
<ele>153.162231</ele>
<time>2010-08-29T10:01:46Z</time>
<desc>lat.=56.004089, lon.=26.568092, Alt.=153.162231m. Speed=0.216000m/h.</desc>
<speed>0.060000</speed>
</trkpt>
<trkpt lat="56.004089" lon="26.568092">
<ele>153.216919</ele>
<time>2010-08-29T10:01:47Z</time>
<desc>lat.=56.004089, lon.=26.568092, Alt.=153.216919m. Speed=0.396000m/h.</desc>
<speed>0.110000</speed>
</trkpt>
<trkpt lat="56.004089" lon="26.568090">
<ele>153.267700</ele>
<time>2010-08-29T10:01:48Z</time>
<desc>lat.=56.004089, lon.=26.568090, Alt.=153.267700m. Speed=0.180000m/h.</desc>
<speed>0.050000</speed>
</trkpt>
<trkpt lat="56.004089" lon="26.568090">
<ele>153.302856</ele>
<time>2010-08-29T10:01:49Z</time>
<desc>lat.=56.004089, lon.=26.568090, Alt.=153.302856m. Speed=0.432000m/h.</desc>
<speed>0.120000</speed>
</trkpt>
<trkpt lat="56.004089" lon="26.568089">
<ele>153.341919</ele>
<time>2010-08-29T10:01:50Z</time>
<desc>lat.=56.004089, lon.=26.568089, Alt.=153.341919m. Speed=0.828000m/h.</desc>
<speed>0.230000</speed>
</trkpt>
<trkpt lat="56.004093" lon="26.568085">
<ele>153.365356</ele>
<time>2010-08-29T10:01:51Z</time>
<desc>lat.=56.004093, lon.=26.568085, Alt.=153.365356m. Speed=1.080000m/h.</desc>
<speed>0.300000</speed>
</trkpt>
<trkpt lat="56.004108" lon="26.568079">
<ele>153.150513</ele>
<time>2010-08-29T10:01:52Z</time>
<desc>lat.=56.004108, lon.=26.568079, Alt.=153.150513m. Speed=0.864000m/h.</desc>
<speed>0.240000</speed>
</trkpt>
<trkpt lat="56.004120" lon="26.568073">
<ele>153.322388</ele>
<time>2010-08-29T10:01:53Z</time>
<desc>lat.=56.004120, lon.=26.568073, Alt.=153.322388m. Speed=1.044000m/h.</desc>
<speed>0.290000</speed>
</trkpt>
<trkpt lat="56.004131" lon="26.568075">
<ele>153.279419</ele>
<time>2010-08-29T10:01:54Z</time>
<desc>lat.=56.004131, lon.=26.568075, Alt.=153.279419m. Speed=0.504000m/h.</desc>
<speed>0.140000</speed>
</trkpt>
<trkpt lat="56.004139" lon="26.568062">
<ele>153.080200</ele>
<time>2010-08-29T10:01:55Z</time>
<desc>lat.=56.004139, lon.=26.568062, Alt.=153.080200m. Speed=0.792000m/h.</desc>
<speed>0.220000</speed>
</trkpt>
<trkpt lat="56.004139" lon="26.568060">
<ele>153.084106</ele>
<time>2010-08-29T10:01:56Z</time>
<desc>lat.=56.004139, lon.=26.568060, Alt.=153.084106m. Speed=0.684000m/h.</desc>
<speed>0.190000</speed>
</trkpt>
<trkpt lat="56.004139" lon="26.568056">
<ele>153.088013</ele>
<time>2010-08-29T10:01:57Z</time>
<desc>lat.=56.004139, lon.=26.568056, Alt.=153.088013m. Speed=1.080000m/h.</desc>
<speed>0.300000</speed>
</trkpt>
<trkpt lat="56.004150" lon="26.568050">
<ele>152.912231</ele>
<time>2010-08-29T10:01:58Z</time>
<desc>lat.=56.004150, lon.=26.568050, Alt.=152.912231m. Speed=1.116000m/h.</desc>
<speed>0.310000</speed>
</trkpt>
<trkpt lat="56.004181" lon="26.568069">
<ele>152.607544</ele>
<time>2010-08-29T10:01:59Z</time>
<desc>lat.=56.004181, lon.=26.568069, Alt.=152.607544m. Speed=1.080000m/h.</desc>
<speed>0.300000</speed>
</trkpt>
<trkpt lat="56.004211" lon="26.568092">
<ele>152.505981</ele>
<time>2010-08-29T10:02:00Z</time>
<desc>lat.=56.004211, lon.=26.568092, Alt.=152.505981m. Speed=1.692000m/h.</desc>
<speed>0.470000</speed>
</trkpt>
<trkpt lat="56.004219" lon="26.568094">
<ele>152.396606</ele>
<time>2010-08-29T10:02:01Z</time>
<desc>lat.=56.004219, lon.=26.568094, Alt.=152.396606m. Speed=1.584000m/h.</desc>
<speed>0.440000</speed>
</trkpt>
<trkpt lat="56.004234" lon="26.568102">
<ele>152.236450</ele>
<time>2010-08-29T10:02:02Z</time>
<desc>lat.=56.004234, lon.=26.568102, Alt.=152.236450m. Speed=1.656000m/h.</desc>
<speed>0.460000</speed>
</trkpt>
<trkpt lat="56.004246" lon="26.568096">
<ele>152.017700</ele>
<time>2010-08-29T10:02:03Z</time>
<desc>lat.=56.004246, lon.=26.568096, Alt.=152.017700m. Speed=1.404000m/h.</desc>
<speed>0.390000</speed>
</trkpt>
<trkpt lat="56.004257" lon="26.568094">
<ele>151.994263</ele>
<time>2010-08-29T10:02:04Z</time>
<desc>lat.=56.004257, lon.=26.568094, Alt.=151.994263m. Speed=1.764000m/h.</desc>
<speed>0.490000</speed>
</trkpt>
<trkpt lat="56.004265" lon="26.568087">
<ele>151.970825</ele>
<time>2010-08-29T10:02:05Z</time>
<desc>lat.=56.004265, lon.=26.568087, Alt.=151.970825m. Speed=1.404000m/h.</desc>
<speed>0.390000</speed>
</trkpt>
<trkpt lat="56.004272" lon="26.568077">
<ele>152.009888</ele>
<time>2010-08-29T10:02:06Z</time>
<desc>lat.=56.004272, lon.=26.568077, Alt.=152.009888m. Speed=0.828000m/h.</desc>
<speed>0.230000</speed>
</trkpt>
<trkpt lat="56.004284" lon="26.568068">
<ele>151.920044</ele>
<time>2010-08-29T10:02:07Z</time>
<desc>lat.=56.004284, lon.=26.568068, Alt.=151.920044m. Speed=1.188000m/h.</desc>
<speed>0.330000</speed>
</trkpt>
<trkpt lat="56.004292" lon="26.568047">
<ele>151.545044</ele>
<time>2010-08-29T10:02:08Z</time>
<desc>lat.=56.004292, lon.=26.568047, Alt.=151.545044m. Speed=0.864000m/h.</desc>
<speed>0.240000</speed>
</trkpt>
<trkpt lat="56.004299" lon="26.568043">
<ele>150.927856</ele>
<time>2010-08-29T10:02:09Z</time>
<desc>lat.=56.004299, lon.=26.568043, Alt.=150.927856m. Speed=0.936000m/h.</desc>
<speed>0.260000</speed>
</trkpt>
<trkpt lat="56.004314" lon="26.568035">
<ele>150.470825</ele>
<time>2010-08-29T10:02:10Z</time>
<desc>lat.=56.004314, lon.=26.568035, Alt.=150.470825m. Speed=1.368000m/h.</desc>
<speed>0.380000</speed>
</trkpt>
<trkpt lat="56.004333" lon="26.567984">
<ele>149.888794</ele>
<time>2010-08-29T10:02:11Z</time>
<desc>lat.=56.004333, lon.=26.567984, Alt.=149.888794m. Speed=1.296000m/h.</desc>
<speed>0.360000</speed>
</trkpt>
<trkpt lat="56.004345" lon="26.567966">
<ele>149.798950</ele>
<time>2010-08-29T10:02:12Z</time>
<desc>lat.=56.004345, lon.=26.567966, Alt.=149.798950m. Speed=1.548000m/h.</desc>
<speed>0.430000</speed>
</trkpt>
<trkpt lat="56.004364" lon="26.567949">
<ele>149.439575</ele>
<time>2010-08-29T10:02:13Z</time>
<desc>lat.=56.004364, lon.=26.567949, Alt.=149.439575m. Speed=1.872000m/h.</desc>
<speed>0.520000</speed>
</trkpt>
<trkpt lat="56.004391" lon="26.567921">
<ele>148.939575</ele>
<time>2010-08-29T10:02:14Z</time>
<desc>lat.=56.004391, lon.=26.567921, Alt.=148.939575m. Speed=2.520000m/h.</desc>
<speed>0.700000</speed>
</trkpt>
<trkpt lat="56.004410" lon="26.567900">
<ele>148.677856</ele>
<time>2010-08-29T10:02:15Z</time>
<desc>lat.=56.004410, lon.=26.567900, Alt.=148.677856m. Speed=2.880000m/h.</desc>
<speed>0.800000</speed>
</trkpt>
<trkpt lat="56.004421" lon="26.567877">
<ele>148.443481</ele>
<time>2010-08-29T10:02:16Z</time>
<desc>lat.=56.004421, lon.=26.567877, Alt.=148.443481m. Speed=2.772000m/h.</desc>
<speed>0.770000</speed>
</trkpt>
<trkpt lat="56.004436" lon="26.567846">
<ele>147.916138</ele>
<time>2010-08-29T10:02:17Z</time>
<desc>lat.=56.004436, lon.=26.567846, Alt.=147.916138m. Speed=2.628000m/h.</desc>
<speed>0.730000</speed>
</trkpt>
<trkpt lat="56.004452" lon="26.567833">
<ele>147.767700</ele>
<time>2010-08-29T10:02:18Z</time>
<desc>lat.=56.004452, lon.=26.567833, Alt.=147.767700m. Speed=2.700000m/h.</desc>
<speed>0.750000</speed>
</trkpt>
<trkpt lat="56.004471" lon="26.567820">
<ele>147.705200</ele>
<time>2010-08-29T10:02:19Z</time>
<desc>lat.=56.004471, lon.=26.567820, Alt.=147.705200m. Speed=2.880000m/h.</desc>
<speed>0.800000</speed>
</trkpt>
<trkpt lat="56.004490" lon="26.567806">
<ele>147.541138</ele>
<time>2010-08-29T10:02:20Z</time>
<desc>lat.=56.004490, lon.=26.567806, Alt.=147.541138m. Speed=3.132000m/h.</desc>
<speed>0.870000</speed>
</trkpt>
<trkpt lat="56.004532" lon="26.567791">
<ele>147.181763</ele>
<time>2010-08-29T10:02:21Z</time>
<desc>lat.=56.004532, lon.=26.567791, Alt.=147.181763m. Speed=3.996000m/h.</desc>
<speed>1.110000</speed>
</trkpt>
<trkpt lat="56.004555" lon="26.567776">
<ele>146.990356</ele>
<time>2010-08-29T10:02:22Z</time>
<desc>lat.=56.004555, lon.=26.567776, Alt.=146.990356m. Speed=3.636000m/h.</desc>
<speed>1.010000</speed>
</trkpt>
<trkpt lat="56.004574" lon="26.567753">
<ele>146.685669</ele>
<time>2010-08-29T10:02:23Z</time>
<desc>lat.=56.004574, lon.=26.567753, Alt.=146.685669m. Speed=3.276000m/h.</desc>
<speed>0.910000</speed>
</trkpt>
<trkpt lat="56.004589" lon="26.567749">
<ele>146.330200</ele>
<time>2010-08-29T10:02:24Z</time>
<desc>lat.=56.004589, lon.=26.567749, Alt.=146.330200m. Speed=2.484000m/h.</desc>
<speed>0.690000</speed>
</trkpt>
<trkpt lat="56.004612" lon="26.567705">
<ele>145.904419</ele>
<time>2010-08-29T10:02:25Z</time>
<desc>lat.=56.004612, lon.=26.567705, Alt.=145.904419m. Speed=1.980000m/h.</desc>
<speed>0.550000</speed>
</trkpt>
<trkpt lat="56.004635" lon="26.567699">
<ele>145.802856</ele>
<time>2010-08-29T10:02:26Z</time>
<desc>lat.=56.004635, lon.=26.567699, Alt.=145.802856m. Speed=1.188000m/h.</desc>
<speed>0.330000</speed>
</trkpt>
<trkpt lat="56.004646" lon="26.567701">
<ele>145.783325</ele>
<time>2010-08-29T10:02:27Z</time>
<desc>lat.=56.004646, lon.=26.567701, Alt.=145.783325m. Speed=0.900000m/h.</desc>
<speed>0.250000</speed>
</trkpt>
<trkpt lat="56.004665" lon="26.567694">
<ele>145.892700</ele>
<time>2010-08-29T10:02:28Z</time>
<desc>lat.=56.004665, lon.=26.567694, Alt.=145.892700m. Speed=1.188000m/h.</desc>
<speed>0.330000</speed>
</trkpt>
<trkpt lat="56.004688" lon="26.567688">
<ele>144.580200</ele>
<time>2010-08-29T10:02:29Z</time>
<desc>lat.=56.004688, lon.=26.567688, Alt.=144.580200m. Speed=1.764000m/h.</desc>
<speed>0.490000</speed>
</trkpt>
<trkpt lat="56.004704" lon="26.567678">
<ele>143.697388</ele>
<time>2010-08-29T10:02:30Z</time>
<desc>lat.=56.004704, lon.=26.567678, Alt.=143.697388m. Speed=1.800000m/h.</desc>
<speed>0.500000</speed>
</trkpt>
<trkpt lat="56.004719" lon="26.567659">
<ele>143.459106</ele>
<time>2010-08-29T10:02:31Z</time>
<desc>lat.=56.004719, lon.=26.567659, Alt.=143.459106m. Speed=2.304000m/h.</desc>
<speed>0.640000</speed>
</trkpt>
<trkpt lat="56.004738" lon="26.567650">
<ele>142.670044</ele>
<time>2010-08-29T10:02:32Z</time>
<desc>lat.=56.004738, lon.=26.567650, Alt.=142.670044m. Speed=2.124000m/h.</desc>
<speed>0.590000</speed>
</trkpt>
<trkpt lat="56.004745" lon="26.567638">
<ele>142.205200</ele>
<time>2010-08-29T10:02:33Z</time>
<desc>lat.=56.004745, lon.=26.567638, Alt.=142.205200m. Speed=1.800000m/h.</desc>
<speed>0.500000</speed>
</trkpt>
<trkpt lat="56.004753" lon="26.567631">
<ele>142.088013</ele>
<time>2010-08-29T10:02:34Z</time>
<desc>lat.=56.004753, lon.=26.567631, Alt.=142.088013m. Speed=1.368000m/h.</desc>
<speed>0.380000</speed>
</trkpt>
<trkpt lat="56.004757" lon="26.567627">
<ele>141.923950</ele>
<time>2010-08-29T10:02:35Z</time>
<desc>lat.=56.004757, lon.=26.567627, Alt.=141.923950m. Speed=0.936000m/h.</desc>
<speed>0.260000</speed>
</trkpt>
<trkpt lat="56.004765" lon="26.567619">
<ele>141.384888</ele>
<time>2010-08-29T10:02:36Z</time>
<desc>lat.=56.004765, lon.=26.567619, Alt.=141.384888m. Speed=0.648000m/h.</desc>
<speed>0.180000</speed>
</trkpt>
<trkpt lat="56.004765" lon="26.567621">
<ele>141.041138</ele>
<time>2010-08-29T10:02:37Z</time>
<desc>lat.=56.004765, lon.=26.567621, Alt.=141.041138m. Speed=0.432000m/h.</desc>
<speed>0.120000</speed>
</trkpt>
<trkpt lat="56.004772" lon="26.567619">
<ele>140.709106</ele>
<time>2010-08-29T10:02:38Z</time>
<desc>lat.=56.004772, lon.=26.567619, Alt.=140.709106m. Speed=0.936000m/h.</desc>
<speed>0.260000</speed>
</trkpt>
<trkpt lat="56.004772" lon="26.567617">
<ele>140.736450</ele>
<time>2010-08-29T10:02:39Z</time>
<desc>lat.=56.004772, lon.=26.567617, Alt.=140.736450m. Speed=0.432000m/h.</desc>
<speed>0.120000</speed>
</trkpt>
<trkpt lat="56.004776" lon="26.567617">
<ele>140.759888</ele>
<time>2010-08-29T10:02:40Z</time>
<desc>lat.=56.004776, lon.=26.567617, Alt.=140.759888m. Speed=0.468000m/h.</desc>
<speed>0.130000</speed>
</trkpt>
<trkpt lat="56.004776" lon="26.567617">
<ele>140.787231</ele>
<time>2010-08-29T10:02:41Z</time>
<desc>lat.=56.004776, lon.=26.567617, Alt.=140.787231m. Speed=0.540000m/h.</desc>
<speed>0.150000</speed>
</trkpt>
<trkpt lat="56.004776" lon="26.567616">
<ele>140.810669</ele>
<time>2010-08-29T10:02:42Z</time>
<desc>lat.=56.004776, lon.=26.567616, Alt.=140.810669m. Speed=0.432000m/h.</desc>
<speed>0.120000</speed>
</trkpt>
<trkpt lat="56.004780" lon="26.567617">
<ele>140.838013</ele>
<time>2010-08-29T10:02:43Z</time>
<desc>lat.=56.004780, lon.=26.567617, Alt.=140.838013m. Speed=0.540000m/h.</desc>
<speed>0.150000</speed>
</trkpt>
<trkpt lat="56.004780" lon="26.567617">
<ele>140.865356</ele>
<time>2010-08-29T10:02:44Z</time>
<desc>lat.=56.004780, lon.=26.567617, Alt.=140.865356m. Speed=0.072000m/h.</desc>
<speed>0.020000</speed>
</trkpt>
<trkpt lat="56.004780" lon="26.567617">
<ele>140.880981</ele>
<time>2010-08-29T10:02:45Z</time>
<desc>lat.=56.004780, lon.=26.567617, Alt.=140.880981m. Speed=0.864000m/h.</desc>
<speed>0.240000</speed>
</trkpt>
<trkpt lat="56.004784" lon="26.567614">
<ele>140.896606</ele>
<time>2010-08-29T10:02:46Z</time>
<desc>lat.=56.004784, lon.=26.567614, Alt.=140.896606m. Speed=1.188000m/h.</desc>
<speed>0.330000</speed>
</trkpt>
<trkpt lat="56.004795" lon="26.567610">
<ele>140.115356</ele>
<time>2010-08-29T10:02:47Z</time>
<desc>lat.=56.004795, lon.=26.567610, Alt.=140.115356m. Speed=1.224000m/h.</desc>
<speed>0.340000</speed>
</trkpt>
<trkpt lat="56.004826" lon="26.567535">
<ele>138.338013</ele>
<time>2010-08-29T10:02:48Z</time>
<desc>lat.=56.004826, lon.=26.567535, Alt.=138.338013m. Speed=2.808000m/h.</desc>
<speed>0.780000</speed>
</trkpt>
<trkpt lat="56.004845" lon="26.567503">
<ele>137.056763</ele>
<time>2010-08-29T10:02:49Z</time>
<desc>lat.=56.004845, lon.=26.567503, Alt.=137.056763m. Speed=3.204000m/h.</desc>
<speed>0.890000</speed>
</trkpt>
<trkpt lat="56.004848" lon="26.567490">
<ele>136.834106</ele>
<time>2010-08-29T10:02:50Z</time>
<desc>lat.=56.004848, lon.=26.567490, Alt.=136.834106m. Speed=2.988000m/h.</desc>
<speed>0.830000</speed>
</trkpt>
<trkpt lat="56.004852" lon="26.567480">
<ele>136.634888</ele>
<time>2010-08-29T10:02:51Z</time>
<desc>lat.=56.004852, lon.=26.567480, Alt.=136.634888m. Speed=2.628000m/h.</desc>
<speed>0.730000</speed>
</trkpt>
<trkpt lat="56.004860" lon="26.567471">
<ele>136.638794</ele>
<time>2010-08-29T10:02:52Z</time>
<desc>lat.=56.004860, lon.=26.567471, Alt.=136.638794m. Speed=2.700000m/h.</desc>
<speed>0.750000</speed>
</trkpt>
<trkpt lat="56.004868" lon="26.567459">
<ele>136.611450</ele>
<time>2010-08-29T10:02:53Z</time>
<desc>lat.=56.004868, lon.=26.567459, Alt.=136.611450m. Speed=2.664000m/h.</desc>
<speed>0.740000</speed>
</trkpt>
<trkpt lat="56.004868" lon="26.567451">
<ele>136.455200</ele>
<time>2010-08-29T10:02:54Z</time>
<desc>lat.=56.004868, lon.=26.567451, Alt.=136.455200m. Speed=2.088000m/h.</desc>
<speed>0.580000</speed>
</trkpt>
<trkpt lat="56.004871" lon="26.567444">
<ele>136.267700</ele>
<time>2010-08-29T10:02:55Z</time>
<desc>lat.=56.004871, lon.=26.567444, Alt.=136.267700m. Speed=1.836000m/h.</desc>
<speed>0.510000</speed>
</trkpt>
<trkpt lat="56.004883" lon="26.567429">
<ele>135.939575</ele>
<time>2010-08-29T10:02:56Z</time>
<desc>lat.=56.004883, lon.=26.567429, Alt.=135.939575m. Speed=2.484000m/h.</desc>
<speed>0.690000</speed>
</trkpt>
<trkpt lat="56.004887" lon="26.567419">
<ele>135.693481</ele>
<time>2010-08-29T10:02:57Z</time>
<desc>lat.=56.004887, lon.=26.567419, Alt.=135.693481m. Speed=2.340000m/h.</desc>
<speed>0.650000</speed>
</trkpt>
<trkpt lat="56.004887" lon="26.567408">
<ele>135.486450</ele>
<time>2010-08-29T10:02:58Z</time>
<desc>lat.=56.004887, lon.=26.567408, Alt.=135.486450m. Speed=2.448000m/h.</desc>
<speed>0.680000</speed>
</trkpt>
<trkpt lat="56.004890" lon="26.567402">
<ele>135.025513</ele>
<time>2010-08-29T10:02:59Z</time>
<desc>lat.=56.004890, lon.=26.567402, Alt.=135.025513m. Speed=2.268000m/h.</desc>
<speed>0.630000</speed>
</trkpt>
<trkpt lat="56.004906" lon="26.567356">
<ele>134.213013</ele>
<time>2010-08-29T10:03:00Z</time>
<desc>lat.=56.004906, lon.=26.567356, Alt.=134.213013m. Speed=2.736000m/h.</desc>
<speed>0.760000</speed>
</trkpt>
<trkpt lat="56.004913" lon="26.567347">
<ele>133.884888</ele>
<time>2010-08-29T10:03:01Z</time>
<desc>lat.=56.004913, lon.=26.567347, Alt.=133.884888m. Speed=2.124000m/h.</desc>
<speed>0.590000</speed>
</trkpt>
<trkpt lat="56.004921" lon="26.567327">
<ele>133.685669</ele>
<time>2010-08-29T10:03:02Z</time>
<desc>lat.=56.004921, lon.=26.567327, Alt.=133.685669m. Speed=2.484000m/h.</desc>
<speed>0.690000</speed>
</trkpt>
<trkpt lat="56.004925" lon="26.567314">
<ele>133.193481</ele>
<time>2010-08-29T10:03:03Z</time>
<desc>lat.=56.004925, lon.=26.567314, Alt.=133.193481m. Speed=2.556000m/h.</desc>
<speed>0.710000</speed>
</trkpt>
<trkpt lat="56.004929" lon="26.567297">
<ele>132.841919</ele>
<time>2010-08-29T10:03:04Z</time>
<desc>lat.=56.004929, lon.=26.567297, Alt.=132.841919m. Speed=2.520000m/h.</desc>
<speed>0.700000</speed>
</trkpt>
<trkpt lat="56.004936" lon="26.567276">
<ele>132.416138</ele>
<time>2010-08-29T10:03:05Z</time>
<desc>lat.=56.004936, lon.=26.567276, Alt.=132.416138m. Speed=2.916000m/h.</desc>
<speed>0.810000</speed>
</trkpt>
<trkpt lat="56.004944" lon="26.567270">
<ele>132.341919</ele>
<time>2010-08-29T10:03:06Z</time>
<desc>lat.=56.004944, lon.=26.567270, Alt.=132.341919m. Speed=2.196000m/h.</desc>
<speed>0.610000</speed>
</trkpt>
<trkpt lat="56.004955" lon="26.567266">
<ele>132.220825</ele>
<time>2010-08-29T10:03:07Z</time>
<desc>lat.=56.004955, lon.=26.567266, Alt.=132.220825m. Speed=1.764000m/h.</desc>
<speed>0.490000</speed>
</trkpt>
<trkpt lat="56.004959" lon="26.567238">
<ele>131.888794</ele>
<time>2010-08-29T10:03:08Z</time>
<desc>lat.=56.004959, lon.=26.567238, Alt.=131.888794m. Speed=2.520000m/h.</desc>
<speed>0.700000</speed>
</trkpt>
<trkpt lat="56.004959" lon="26.567226">
<ele>131.818481</ele>
<time>2010-08-29T10:03:09Z</time>
<desc>lat.=56.004959, lon.=26.567226, Alt.=131.818481m. Speed=2.448000m/h.</desc>
<speed>0.680000</speed>
</trkpt>
<trkpt lat="56.004963" lon="26.567188">
<ele>131.670044</ele>
<time>2010-08-29T10:03:10Z</time>
<desc>lat.=56.004963, lon.=26.567188, Alt.=131.670044m. Speed=3.096000m/h.</desc>
<speed>0.860000</speed>
</trkpt>
<trkpt lat="56.004974" lon="26.567150">
<ele>131.513794</ele>
<time>2010-08-29T10:03:11Z</time>
<desc>lat.=56.004974, lon.=26.567150, Alt.=131.513794m. Speed=3.888000m/h.</desc>
<speed>1.080000</speed>
</trkpt>
<trkpt lat="56.004971" lon="26.567127">
<ele>131.463013</ele>
<time>2010-08-29T10:03:12Z</time>
<desc>lat.=56.004971, lon.=26.567127, Alt.=131.463013m. Speed=3.924000m/h.</desc>
<speed>1.090000</speed>
</trkpt>
<trkpt lat="56.004978" lon="26.567099">
<ele>131.322388</ele>
<time>2010-08-29T10:03:13Z</time>
<desc>lat.=56.004978, lon.=26.567099, Alt.=131.322388m. Speed=4.140000m/h.</desc>
<speed>1.150000</speed>
</trkpt>
<trkpt lat="56.004978" lon="26.567074">
<ele>131.177856</ele>
<time>2010-08-29T10:03:14Z</time>
<desc>lat.=56.004978, lon.=26.567074, Alt.=131.177856m. Speed=4.320000m/h.</desc>
<speed>1.200000</speed>
</trkpt>
<trkpt lat="56.004982" lon="26.567053">
<ele>130.728638</ele>
<time>2010-08-29T10:03:15Z</time>
<desc>lat.=56.004982, lon.=26.567053, Alt.=130.728638m. Speed=4.032000m/h.</desc>
<speed>1.120000</speed>
</trkpt>
<trkpt lat="56.004986" lon="26.567036">
<ele>130.314575</ele>
<time>2010-08-29T10:03:16Z</time>
<desc>lat.=56.004986, lon.=26.567036, Alt.=130.314575m. Speed=3.204000m/h.</desc>
<speed>0.890000</speed>
</trkpt>
<trkpt lat="56.004993" lon="26.567026">
<ele>130.357544</ele>
<time>2010-08-29T10:03:17Z</time>
<desc>lat.=56.004993, lon.=26.567026, Alt.=130.357544m. Speed=2.592000m/h.</desc>
<speed>0.720000</speed>
</trkpt>
<trkpt lat="56.004990" lon="26.567015">
<ele>130.455200</ele>
<time>2010-08-29T10:03:18Z</time>
<desc>lat.=56.004990, lon.=26.567015, Alt.=130.455200m. Speed=2.412000m/h.</desc>
<speed>0.670000</speed>
</trkpt>
<trkpt lat="56.004978" lon="26.566984">
<ele>130.420044</ele>
<time>2010-08-29T10:03:19Z</time>
<desc>lat.=56.004978, lon.=26.566984, Alt.=130.420044m. Speed=3.168000m/h.</desc>
<speed>0.880000</speed>
</trkpt>
<trkpt lat="56.004974" lon="26.566944">
<ele>130.107544</ele>
<time>2010-08-29T10:03:20Z</time>
<desc>lat.=56.004974, lon.=26.566944, Alt.=130.107544m. Speed=3.672000m/h.</desc>
<speed>1.020000</speed>
</trkpt>
<trkpt lat="56.004967" lon="26.566917">
<ele>130.072388</ele>
<time>2010-08-29T10:03:21Z</time>
<desc>lat.=56.004967, lon.=26.566917, Alt.=130.072388m. Speed=3.672000m/h.</desc>
<speed>1.020000</speed>
</trkpt>
<trkpt lat="56.004959" lon="26.566914">
<ele>130.111450</ele>
<time>2010-08-29T10:03:22Z</time>
<desc>lat.=56.004959, lon.=26.566914, Alt.=130.111450m. Speed=3.204000m/h.</desc>
<speed>0.890000</speed>
</trkpt>
<trkpt lat="56.004951" lon="26.566885">
<ele>129.724731</ele>
<time>2010-08-29T10:03:23Z</time>
<desc>lat.=56.004951, lon.=26.566885, Alt.=129.724731m. Speed=3.564000m/h.</desc>
<speed>0.990000</speed>
</trkpt>
<trkpt lat="56.004951" lon="26.566864">
<ele>129.736450</ele>
<time>2010-08-29T10:03:24Z</time>
<desc>lat.=56.004951, lon.=26.566864, Alt.=129.736450m. Speed=2.916000m/h.</desc>
<speed>0.810000</speed>
</trkpt>
<trkpt lat="56.004955" lon="26.566833">
<ele>129.685669</ele>
<time>2010-08-29T10:03:25Z</time>
<desc>lat.=56.004955, lon.=26.566833, Alt.=129.685669m. Speed=2.484000m/h.</desc>
<speed>0.690000</speed>
</trkpt>
<trkpt lat="56.004955" lon="26.566814">
<ele>129.642700</ele>
<time>2010-08-29T10:03:26Z</time>
<desc>lat.=56.004955, lon.=26.566814, Alt.=129.642700m. Speed=2.304000m/h.</desc>
<speed>0.640000</speed>
</trkpt>
<trkpt lat="56.004951" lon="26.566774">
<ele>128.935669</ele>
<time>2010-08-29T10:03:27Z</time>
<desc>lat.=56.004951, lon.=26.566774, Alt.=128.935669m. Speed=3.600000m/h.</desc>
<speed>1.000000</speed>
</trkpt>
<trkpt lat="56.004944" lon="26.566751">
<ele>128.771606</ele>
<time>2010-08-29T10:03:28Z</time>
<desc>lat.=56.004944, lon.=26.566751, Alt.=128.771606m. Speed=3.816000m/h.</desc>
<speed>1.060000</speed>
</trkpt>
<trkpt lat="56.004940" lon="26.566727">
<ele>128.865356</ele>
<time>2010-08-29T10:03:29Z</time>
<desc>lat.=56.004940, lon.=26.566727, Alt.=128.865356m. Speed=3.420000m/h.</desc>
<speed>0.950000</speed>
</trkpt>
<trkpt lat="56.004936" lon="26.566702">
<ele>128.818481</ele>
<time>2010-08-29T10:03:30Z</time>
<desc>lat.=56.004936, lon.=26.566702, Alt.=128.818481m. Speed=3.168000m/h.</desc>
<speed>0.880000</speed>
</trkpt>
<trkpt lat="56.004925" lon="26.566656">
<ele>128.939575</ele>
<time>2010-08-29T10:03:31Z</time>
<desc>lat.=56.004925, lon.=26.566656, Alt.=128.939575m. Speed=4.896000m/h.</desc>
<speed>1.360000</speed>
</trkpt>
<trkpt lat="56.004910" lon="26.566622">
<ele>129.123169</ele>
<time>2010-08-29T10:03:32Z</time>
<desc>lat.=56.004910, lon.=26.566622, Alt.=129.123169m. Speed=5.256000m/h.</desc>
<speed>1.460000</speed>
</trkpt>
<trkpt lat="56.004864" lon="26.566551">
<ele>129.677856</ele>
<time>2010-08-29T10:03:33Z</time>
<desc>lat.=56.004864, lon.=26.566551, Alt.=129.677856m. Speed=6.552000m/h.</desc>
<speed>1.820000</speed>
</trkpt>
<trkpt lat="56.004848" lon="26.566517">
<ele>129.795044</ele>
<time>2010-08-29T10:03:34Z</time>
<desc>lat.=56.004848, lon.=26.566517, Alt.=129.795044m. Speed=8.136000m/h.</desc>
<speed>2.260000</speed>
</trkpt>
<trkpt lat="56.004837" lon="26.566473">
<ele>129.994263</ele>
<time>2010-08-29T10:03:35Z</time>
<desc>lat.=56.004837, lon.=26.566473, Alt.=129.994263m. Speed=10.152000m/h.</desc>
<speed>2.820000</speed>
</trkpt>
<trkpt lat="56.004822" lon="26.566444">
<ele>130.127075</ele>
<time>2010-08-29T10:03:36Z</time>
<desc>lat.=56.004822, lon.=26.566444, Alt.=130.127075m. Speed=7.560000m/h.</desc>
<speed>2.100000</speed>
</trkpt>
<trkpt lat="56.004822" lon="26.566406">
<ele>130.470825</ele>
<time>2010-08-29T10:03:37Z</time>
<desc>lat.=56.004822, lon.=26.566406, Alt.=130.470825m. Speed=6.768000m/h.</desc>
<speed>1.880000</speed>
</trkpt>
<trkpt lat="56.004818" lon="26.566372">
<ele>130.670044</ele>
<time>2010-08-29T10:03:38Z</time>
<desc>lat.=56.004818, lon.=26.566372, Alt.=130.670044m. Speed=3.780000m/h.</desc>
<speed>1.050000</speed>
</trkpt>
<trkpt lat="56.004799" lon="26.566332">
<ele>130.900513</ele>
<time>2010-08-29T10:03:39Z</time>
<desc>lat.=56.004799, lon.=26.566332, Alt.=130.900513m. Speed=2.880000m/h.</desc>
<speed>0.800000</speed>
</trkpt>
<trkpt lat="56.004791" lon="26.566288">
<ele>131.170044</ele>
<time>2010-08-29T10:03:40Z</time>
<desc>lat.=56.004791, lon.=26.566288, Alt.=131.170044m. Speed=2.844000m/h.</desc>
<speed>0.790000</speed>
</trkpt>
<trkpt lat="56.004780" lon="26.566263">
<ele>131.451294</ele>
<time>2010-08-29T10:03:41Z</time>
<desc>lat.=56.004780, lon.=26.566263, Alt.=131.451294m. Speed=2.772000m/h.</desc>
<speed>0.770000</speed>
</trkpt>
<trkpt lat="56.004753" lon="26.566216">
<ele>131.525513</ele>
<time>2010-08-29T10:03:42Z</time>
<desc>lat.=56.004753, lon.=26.566216, Alt.=131.525513m. Speed=6.624000m/h.</desc>
<speed>1.840000</speed>
</trkpt>
<trkpt lat="56.004749" lon="26.566166">
<ele>131.455200</ele>
<time>2010-08-29T10:03:43Z</time>
<desc>lat.=56.004749, lon.=26.566166, Alt.=131.455200m. Speed=4.536000m/h.</desc>
<speed>1.260000</speed>
</trkpt>
<trkpt lat="56.004742" lon="26.566116">
<ele>131.963013</ele>
<time>2010-08-29T10:03:44Z</time>
<desc>lat.=56.004742, lon.=26.566116, Alt.=131.963013m. Speed=3.960000m/h.</desc>
<speed>1.100000</speed>
</trkpt>
<trkpt lat="56.004707" lon="26.566015">
<ele>132.716919</ele>
<time>2010-08-29T10:03:45Z</time>
<desc>lat.=56.004707, lon.=26.566015, Alt.=132.716919m. Speed=3.240000m/h.</desc>
<speed>0.900000</speed>
</trkpt>
<trkpt lat="56.004704" lon="26.565964">
<ele>132.986450</ele>
<time>2010-08-29T10:03:46Z</time>
<desc>lat.=56.004704, lon.=26.565964, Alt.=132.986450m. Speed=2.556000m/h.</desc>
<speed>0.710000</speed>
</trkpt>
<trkpt lat="56.004700" lon="26.565941">
<ele>133.353638</ele>
<time>2010-08-29T10:03:47Z</time>
<desc>lat.=56.004700, lon.=26.565941, Alt.=133.353638m. Speed=2.016000m/h.</desc>
<speed>0.560000</speed>
</trkpt>
<trkpt lat="56.004700" lon="26.565901">
<ele>133.361450</ele>
<time>2010-08-29T10:03:48Z</time>
<desc>lat.=56.004700, lon.=26.565901, Alt.=133.361450m. Speed=3.060000m/h.</desc>
<speed>0.850000</speed>
</trkpt>
<trkpt lat="56.004696" lon="26.565889">
<ele>133.666138</ele>
<time>2010-08-29T10:03:49Z</time>
<desc>lat.=56.004696, lon.=26.565889, Alt.=133.666138m. Speed=2.196000m/h.</desc>
<speed>0.610000</speed>
</trkpt>
<trkpt lat="56.004688" lon="26.565880">
<ele>134.060669</ele>
<time>2010-08-29T10:03:50Z</time>
<desc>lat.=56.004688, lon.=26.565880, Alt.=134.060669m. Speed=4.140000m/h.</desc>
<speed>1.150000</speed>
</trkpt>
<trkpt lat="56.004696" lon="26.565859">
<ele>134.322388</ele>
<time>2010-08-29T10:03:51Z</time>
<desc>lat.=56.004696, lon.=26.565859, Alt.=134.322388m. Speed=2.556000m/h.</desc>
<speed>0.710000</speed>
</trkpt>
<trkpt lat="56.004704" lon="26.565830">
<ele>134.818481</ele>
<time>2010-08-29T10:03:52Z</time>
<desc>lat.=56.004704, lon.=26.565830, Alt.=134.818481m. Speed=2.556000m/h.</desc>
<speed>0.710000</speed>
</trkpt>
<trkpt lat="56.004711" lon="26.565809">
<ele>135.318481</ele>
<time>2010-08-29T10:03:53Z</time>
<desc>lat.=56.004711, lon.=26.565809, Alt.=135.318481m. Speed=2.808000m/h.</desc>
<speed>0.780000</speed>
</trkpt>
<trkpt lat="56.004726" lon="26.565790">
<ele>135.920044</ele>
<time>2010-08-29T10:03:54Z</time>
<desc>lat.=56.004726, lon.=26.565790, Alt.=135.920044m. Speed=1.908000m/h.</desc>
<speed>0.530000</speed>
</trkpt>
<trkpt lat="56.004738" lon="26.565769">
<ele>136.482544</ele>
<time>2010-08-29T10:03:55Z</time>
<desc>lat.=56.004738, lon.=26.565769, Alt.=136.482544m. Speed=2.232000m/h.</desc>
<speed>0.620000</speed>
</trkpt>
<trkpt lat="56.004742" lon="26.565731">
<ele>137.045044</ele>
<time>2010-08-29T10:03:56Z</time>
<desc>lat.=56.004742, lon.=26.565731, Alt.=137.045044m. Speed=2.376000m/h.</desc>
<speed>0.660000</speed>
</trkpt>
<trkpt lat="56.004757" lon="26.565693">
<ele>137.365356</ele>
<time>2010-08-29T10:03:57Z</time>
<desc>lat.=56.004757, lon.=26.565693, Alt.=137.365356m. Speed=1.872000m/h.</desc>
<speed>0.520000</speed>
</trkpt>
<trkpt lat="56.004776" lon="26.565657">
<ele>137.759888</ele>
<time>2010-08-29T10:03:58Z</time>
<desc>lat.=56.004776, lon.=26.565657, Alt.=137.759888m. Speed=2.592000m/h.</desc>
<speed>0.720000</speed>
</trkpt>
<trkpt lat="56.004784" lon="26.565628">
<ele>138.330200</ele>
<time>2010-08-29T10:03:59Z</time>
<desc>lat.=56.004784, lon.=26.565628, Alt.=138.330200m. Speed=1.116000m/h.</desc>
<speed>0.310000</speed>
</trkpt>
<trkpt lat="56.004787" lon="26.565588">
<ele>138.537231</ele>
<time>2010-08-29T10:04:00Z</time>
<desc>lat.=56.004787, lon.=26.565588, Alt.=138.537231m. Speed=0.216000m/h.</desc>
<speed>0.060000</speed>
</trkpt>
<trkpt lat="56.004791" lon="26.565573">
<ele>139.115356</ele>
<time>2010-08-29T10:04:01Z</time>
<desc>lat.=56.004791, lon.=26.565573, Alt.=139.115356m. Speed=2.268000m/h.</desc>
<speed>0.630000</speed>
</trkpt>
<trkpt lat="56.004795" lon="26.565548">
<ele>139.447388</ele>
<time>2010-08-29T10:04:02Z</time>
<desc>lat.=56.004795, lon.=26.565548, Alt.=139.447388m. Speed=1.044000m/h.</desc>
<speed>0.290000</speed>
</trkpt>
<trkpt lat="56.004803" lon="26.565536">
<ele>139.865356</ele>
<time>2010-08-29T10:04:03Z</time>
<desc>lat.=56.004803, lon.=26.565536, Alt.=139.865356m. Speed=4.680000m/h.</desc>
<speed>1.300000</speed>
</trkpt>
<trkpt lat="56.004818" lon="26.565504">
<ele>140.271606</ele>
<time>2010-08-29T10:04:04Z</time>
<desc>lat.=56.004818, lon.=26.565504, Alt.=140.271606m. Speed=3.276000m/h.</desc>
<speed>0.910000</speed>
</trkpt>
<trkpt lat="56.004826" lon="26.565470">
<ele>140.146606</ele>
<time>2010-08-29T10:04:05Z</time>
<desc>lat.=56.004826, lon.=26.565470, Alt.=140.146606m. Speed=2.592000m/h.</desc>
<speed>0.720000</speed>
</trkpt>
<trkpt lat="56.004845" lon="26.565434">
<ele>140.463013</ele>
<time>2010-08-29T10:04:06Z</time>
<desc>lat.=56.004845, lon.=26.565434, Alt.=140.463013m. Speed=4.032000m/h.</desc>
<speed>1.120000</speed>
</trkpt>
<trkpt lat="56.004864" lon="26.565397">
<ele>140.791138</ele>
<time>2010-08-29T10:04:07Z</time>
<desc>lat.=56.004864, lon.=26.565397, Alt.=140.791138m. Speed=3.708000m/h.</desc>
<speed>1.030000</speed>
</trkpt>
<trkpt lat="56.004887" lon="26.565357">
<ele>141.162231</ele>
<time>2010-08-29T10:04:08Z</time>
<desc>lat.=56.004887, lon.=26.565357, Alt.=141.162231m. Speed=4.608000m/h.</desc>
<speed>1.280000</speed>
</trkpt>
<trkpt lat="56.004917" lon="26.565290">
<ele>141.045044</ele>
<time>2010-08-29T10:04:09Z</time>
<desc>lat.=56.004917, lon.=26.565290, Alt.=141.045044m. Speed=6.840000m/h.</desc>
<speed>1.900000</speed>
</trkpt>
<trkpt lat="56.004929" lon="26.565256">
<ele>141.619263</ele>
<time>2010-08-29T10:04:10Z</time>
<desc>lat.=56.004929, lon.=26.565256, Alt.=141.619263m. Speed=4.572000m/h.</desc>
<speed>1.270000</speed>
</trkpt>
<trkpt lat="56.004929" lon="26.565228">
<ele>142.127075</ele>
<time>2010-08-29T10:04:11Z</time>
<desc>lat.=56.004929, lon.=26.565228, Alt.=142.127075m. Speed=2.160000m/h.</desc>
<speed>0.600000</speed>
</trkpt>
<trkpt lat="56.004940" lon="26.565199">
<ele>142.505981</ele>
<time>2010-08-29T10:04:12Z</time>
<desc>lat.=56.004940, lon.=26.565199, Alt.=142.505981m. Speed=2.592000m/h.</desc>
<speed>0.720000</speed>
</trkpt>
<trkpt lat="56.004948" lon="26.565161">
<ele>142.728638</ele>
<time>2010-08-29T10:04:13Z</time>
<desc>lat.=56.004948, lon.=26.565161, Alt.=142.728638m. Speed=1.044000m/h.</desc>
<speed>0.290000</speed>
</trkpt>
<trkpt lat="56.004951" lon="26.565144">
<ele>142.830200</ele>
<time>2010-08-29T10:04:14Z</time>
<desc>lat.=56.004951, lon.=26.565144, Alt.=142.830200m. Speed=1.836000m/h.</desc>
<speed>0.510000</speed>
</trkpt>
<trkpt lat="56.004951" lon="26.565119">
<ele>142.849731</ele>
<time>2010-08-29T10:04:15Z</time>
<desc>lat.=56.004951, lon.=26.565119, Alt.=142.849731m. Speed=3.744000m/h.</desc>
<speed>1.040000</speed>
</trkpt>
<trkpt lat="56.004948" lon="26.565115">
<ele>143.115356</ele>
<time>2010-08-29T10:04:16Z</time>
<desc>lat.=56.004948, lon.=26.565115, Alt.=143.115356m. Speed=4.356000m/h.</desc>
<speed>1.210000</speed>
</trkpt>
<trkpt lat="56.004948" lon="26.565100">
<ele>143.181763</ele>
<time>2010-08-29T10:04:17Z</time>
<desc>lat.=56.004948, lon.=26.565100, Alt.=143.181763m. Speed=2.628000m/h.</desc>
<speed>0.730000</speed>
</trkpt>
<trkpt lat="56.004944" lon="26.565105">
<ele>143.580200</ele>
<time>2010-08-29T10:04:18Z</time>
<desc>lat.=56.004944, lon.=26.565105, Alt.=143.580200m. Speed=1.836000m/h.</desc>
<speed>0.510000</speed>
</trkpt>
<trkpt lat="56.004948" lon="26.565094">
<ele>143.720825</ele>
<time>2010-08-29T10:04:19Z</time>
<desc>lat.=56.004948, lon.=26.565094, Alt.=143.720825m. Speed=2.160000m/h.</desc>
<speed>0.600000</speed>
</trkpt>
<trkpt lat="56.004951" lon="26.565084">
<ele>144.060669</ele>
<time>2010-08-29T10:04:20Z</time>
<desc>lat.=56.004951, lon.=26.565084, Alt.=144.060669m. Speed=0.612000m/h.</desc>
<speed>0.170000</speed>
</trkpt>
<trkpt lat="56.004955" lon="26.565071">
<ele>143.990356</ele>
<time>2010-08-29T10:04:21Z</time>
<desc>lat.=56.004955, lon.=26.565071, Alt.=143.990356m. Speed=1.188000m/h.</desc>
<speed>0.330000</speed>
</trkpt>
<trkpt lat="56.004955" lon="26.565071">
<ele>144.173950</ele>
<time>2010-08-29T10:04:22Z</time>
<desc>lat.=56.004955, lon.=26.565071, Alt.=144.173950m. Speed=3.168000m/h.</desc>
<speed>0.880000</speed>
</trkpt>
<trkpt lat="56.004967" lon="26.565012">
<ele>143.611450</ele>
<time>2010-08-29T10:04:23Z</time>
<desc>lat.=56.004967, lon.=26.565012, Alt.=143.611450m. Speed=1.008000m/h.</desc>
<speed>0.280000</speed>
</trkpt>
<trkpt lat="56.004974" lon="26.564999">
<ele>143.556763</ele>
<time>2010-08-29T10:04:24Z</time>
<desc>lat.=56.004974, lon.=26.564999, Alt.=143.556763m. Speed=1.296000m/h.</desc>
<speed>0.360000</speed>
</trkpt>
<trkpt lat="56.004990" lon="26.564945">
<ele>143.263794</ele>
<time>2010-08-29T10:04:25Z</time>
<desc>lat.=56.004990, lon.=26.564945, Alt.=143.263794m. Speed=1.368000m/h.</desc>
<speed>0.380000</speed>
</trkpt>
<trkpt lat="56.005013" lon="26.564909">
<ele>142.521606</ele>
<time>2010-08-29T10:04:26Z</time>
<desc>lat.=56.005013, lon.=26.564909, Alt.=142.521606m. Speed=1.908000m/h.</desc>
<speed>0.530000</speed>
</trkpt>
<trkpt lat="56.005020" lon="26.564873">
<ele>142.494263</ele>
<time>2010-08-29T10:04:27Z</time>
<desc>lat.=56.005020, lon.=26.564873, Alt.=142.494263m. Speed=3.744000m/h.</desc>
<speed>1.040000</speed>
</trkpt>
<trkpt lat="56.005043" lon="26.564808">
<ele>141.798950</ele>
<time>2010-08-29T10:04:28Z</time>
<desc>lat.=56.005043, lon.=26.564808, Alt.=141.798950m. Speed=2.484000m/h.</desc>
<speed>0.690000</speed>
</trkpt>
<trkpt lat="56.005070" lon="26.564753">
<ele>141.107544</ele>
<time>2010-08-29T10:04:29Z</time>
<desc>lat.=56.005070, lon.=26.564753, Alt.=141.107544m. Speed=2.376000m/h.</desc>
<speed>0.660000</speed>
</trkpt>
<trkpt lat="56.005089" lon="26.564716">
<ele>141.228638</ele>
<time>2010-08-29T10:04:30Z</time>
<desc>lat.=56.005089, lon.=26.564716, Alt.=141.228638m. Speed=4.248000m/h.</desc>
<speed>1.180000</speed>
</trkpt>
<trkpt lat="56.005104" lon="26.564693">
<ele>141.384888</ele>
<time>2010-08-29T10:04:31Z</time>
<desc>lat.=56.005104, lon.=26.564693, Alt.=141.384888m. Speed=3.132000m/h.</desc>
<speed>0.870000</speed>
</trkpt>
<trkpt lat="56.005116" lon="26.564672">
<ele>141.205200</ele>
<time>2010-08-29T10:04:32Z</time>
<desc>lat.=56.005116, lon.=26.564672, Alt.=141.205200m. Speed=3.348000m/h.</desc>
<speed>0.930000</speed>
</trkpt>
<trkpt lat="56.005142" lon="26.564543">
<ele>138.400513</ele>
<time>2010-08-29T10:04:33Z</time>
<desc>lat.=56.005142, lon.=26.564543, Alt.=138.400513m. Speed=2.232000m/h.</desc>
<speed>0.620000</speed>
</trkpt>
<trkpt lat="56.005211" lon="26.564434">
<ele>135.271606</ele>
<time>2010-08-29T10:04:34Z</time>
<desc>lat.=56.005211, lon.=26.564434, Alt.=135.271606m. Speed=5.148000m/h.</desc>
<speed>1.430000</speed>
</trkpt>
<trkpt lat="56.005238" lon="26.564425">
<ele>135.076294</ele>
<time>2010-08-29T10:04:35Z</time>
<desc>lat.=56.005238, lon.=26.564425, Alt.=135.076294m. Speed=0.720000m/h.</desc>
<speed>0.200000</speed>
</trkpt>
<trkpt lat="56.005249" lon="26.564415">
<ele>135.205200</ele>
<time>2010-08-29T10:04:36Z</time>
<desc>lat.=56.005249, lon.=26.564415, Alt.=135.205200m. Speed=2.016000m/h.</desc>
<speed>0.560000</speed>
</trkpt>
<trkpt lat="56.005264" lon="26.564411">
<ele>134.994263</ele>
<time>2010-08-29T10:04:37Z</time>
<desc>lat.=56.005264, lon.=26.564411, Alt.=134.994263m. Speed=1.296000m/h.</desc>
<speed>0.360000</speed>
</trkpt>
<trkpt lat="56.005295" lon="26.564394">
<ele>133.982544</ele>
<time>2010-08-29T10:04:38Z</time>
<desc>lat.=56.005295, lon.=26.564394, Alt.=133.982544m. Speed=2.520000m/h.</desc>
<speed>0.700000</speed>
</trkpt>
<trkpt lat="56.005325" lon="26.564377">
<ele>133.798950</ele>
<time>2010-08-29T10:04:39Z</time>
<desc>lat.=56.005325, lon.=26.564377, Alt.=133.798950m. Speed=3.168000m/h.</desc>
<speed>0.880000</speed>
</trkpt>
<trkpt lat="56.005356" lon="26.564362">
<ele>133.505981</ele>
<time>2010-08-29T10:04:40Z</time>
<desc>lat.=56.005356, lon.=26.564362, Alt.=133.505981m. Speed=3.996000m/h.</desc>
<speed>1.110000</speed>
</trkpt>
<trkpt lat="56.005379" lon="26.564339">
<ele>133.248169</ele>
<time>2010-08-29T10:04:41Z</time>
<desc>lat.=56.005379, lon.=26.564339, Alt.=133.248169m. Speed=3.528000m/h.</desc>
<speed>0.980000</speed>
</trkpt>
<trkpt lat="56.005409" lon="26.564270">
<ele>132.373169</ele>
<time>2010-08-29T10:04:42Z</time>
<desc>lat.=56.005409, lon.=26.564270, Alt.=132.373169m. Speed=1.764000m/h.</desc>
<speed>0.490000</speed>
</trkpt>
<trkpt lat="56.005421" lon="26.564251">
<ele>132.459106</ele>
<time>2010-08-29T10:04:43Z</time>
<desc>lat.=56.005421, lon.=26.564251, Alt.=132.459106m. Speed=1.512000m/h.</desc>
<speed>0.420000</speed>
</trkpt>
<trkpt lat="56.005444" lon="26.564198">
<ele>132.041138</ele>
<time>2010-08-29T10:04:44Z</time>
<desc>lat.=56.005444, lon.=26.564198, Alt.=132.041138m. Speed=2.376000m/h.</desc>
<speed>0.660000</speed>
</trkpt>
<trkpt lat="56.005470" lon="26.564156">
<ele>131.673950</ele>
<time>2010-08-29T10:04:45Z</time>
<desc>lat.=56.005470, lon.=26.564156, Alt.=131.673950m. Speed=2.160000m/h.</desc>
<speed>0.600000</speed>
</trkpt>
<trkpt lat="56.005482" lon="26.564150">
<ele>131.873169</ele>
<time>2010-08-29T10:04:46Z</time>
<desc>lat.=56.005482, lon.=26.564150, Alt.=131.873169m. Speed=1.548000m/h.</desc>
<speed>0.430000</speed>
</trkpt>
<trkpt lat="56.005489" lon="26.564110">
<ele>131.775513</ele>
<time>2010-08-29T10:04:47Z</time>
<desc>lat.=56.005489, lon.=26.564110, Alt.=131.775513m. Speed=2.700000m/h.</desc>
<speed>0.750000</speed>
</trkpt>
<trkpt lat="56.005508" lon="26.564098">
<ele>131.888794</ele>
<time>2010-08-29T10:04:48Z</time>
<desc>lat.=56.005508, lon.=26.564098, Alt.=131.888794m. Speed=2.412000m/h.</desc>
<speed>0.670000</speed>
</trkpt>
<trkpt lat="56.005524" lon="26.564087">
<ele>131.845825</ele>
<time>2010-08-29T10:04:49Z</time>
<desc>lat.=56.005524, lon.=26.564087, Alt.=131.845825m. Speed=2.304000m/h.</desc>
<speed>0.640000</speed>
</trkpt>
<trkpt lat="56.005543" lon="26.564070">
<ele>131.584106</ele>
<time>2010-08-29T10:04:50Z</time>
<desc>lat.=56.005543, lon.=26.564070, Alt.=131.584106m. Speed=2.664000m/h.</desc>
<speed>0.740000</speed>
</trkpt>
<trkpt lat="56.005562" lon="26.564037">
<ele>131.146606</ele>
<time>2010-08-29T10:04:51Z</time>
<desc>lat.=56.005562, lon.=26.564037, Alt.=131.146606m. Speed=2.808000m/h.</desc>
<speed>0.780000</speed>
</trkpt>
<trkpt lat="56.005581" lon="26.564022">
<ele>130.713013</ele>
<time>2010-08-29T10:04:52Z</time>
<desc>lat.=56.005581, lon.=26.564022, Alt.=130.713013m. Speed=2.700000m/h.</desc>
<speed>0.750000</speed>
</trkpt>
<trkpt lat="56.005596" lon="26.564009">
<ele>129.463013</ele>
<time>2010-08-29T10:04:53Z</time>
<desc>lat.=56.005596, lon.=26.564009, Alt.=129.463013m. Speed=2.376000m/h.</desc>
<speed>0.660000</speed>
</trkpt>
<trkpt lat="56.005627" lon="26.564003">
<ele>129.138794</ele>
<time>2010-08-29T10:04:54Z</time>
<desc>lat.=56.005627, lon.=26.564003, Alt.=129.138794m. Speed=2.376000m/h.</desc>
<speed>0.660000</speed>
</trkpt>
<trkpt lat="56.005646" lon="26.563999">
<ele>129.138794</ele>
<time>2010-08-29T10:04:55Z</time>
<desc>lat.=56.005646, lon.=26.563999, Alt.=129.138794m. Speed=2.160000m/h.</desc>
<speed>0.600000</speed>
</trkpt>
<trkpt lat="56.005665" lon="26.564001">
<ele>129.177856</ele>
<time>2010-08-29T10:04:56Z</time>
<desc>lat.=56.005665, lon.=26.564001, Alt.=129.177856m. Speed=1.872000m/h.</desc>
<speed>0.520000</speed>
</trkpt>
<trkpt lat="56.005699" lon="26.564020">
<ele>129.103638</ele>
<time>2010-08-29T10:04:57Z</time>
<desc>lat.=56.005699, lon.=26.564020, Alt.=129.103638m. Speed=2.124000m/h.</desc>
<speed>0.590000</speed>
</trkpt>
<trkpt lat="56.005714" lon="26.564016">
<ele>129.279419</ele>
<time>2010-08-29T10:04:58Z</time>
<desc>lat.=56.005714, lon.=26.564016, Alt.=129.279419m. Speed=2.124000m/h.</desc>
<speed>0.590000</speed>
</trkpt>
<trkpt lat="56.005722" lon="26.564013">
<ele>129.392700</ele>
<time>2010-08-29T10:04:59Z</time>
<desc>lat.=56.005722, lon.=26.564013, Alt.=129.392700m. Speed=1.692000m/h.</desc>
<speed>0.470000</speed>
</trkpt>
<trkpt lat="56.005745" lon="26.563984">
<ele>129.478638</ele>
<time>2010-08-29T10:05:00Z</time>
<desc>lat.=56.005745, lon.=26.563984, Alt.=129.478638m. Speed=2.268000m/h.</desc>
<speed>0.630000</speed>
</trkpt>
<trkpt lat="56.005760" lon="26.563963">
<ele>129.529419</ele>
<time>2010-08-29T10:05:01Z</time>
<desc>lat.=56.005760, lon.=26.563963, Alt.=129.529419m. Speed=2.340000m/h.</desc>
<speed>0.650000</speed>
</trkpt>
<trkpt lat="56.005775" lon="26.563948">
<ele>128.947388</ele>
<time>2010-08-29T10:05:02Z</time>
<desc>lat.=56.005775, lon.=26.563948, Alt.=128.947388m. Speed=2.304000m/h.</desc>
<speed>0.640000</speed>
</trkpt>
<trkpt lat="56.005791" lon="26.563925">
<ele>128.681763</ele>
<time>2010-08-29T10:05:03Z</time>
<desc>lat.=56.005791, lon.=26.563925, Alt.=128.681763m. Speed=2.628000m/h.</desc>
<speed>0.730000</speed>
</trkpt>
<trkpt lat="56.005806" lon="26.563921">
<ele>128.486450</ele>
<time>2010-08-29T10:05:04Z</time>
<desc>lat.=56.005806, lon.=26.563921, Alt.=128.486450m. Speed=1.908000m/h.</desc>
<speed>0.530000</speed>
</trkpt>
<trkpt lat="56.005833" lon="26.563915">
<ele>128.533325</ele>
<time>2010-08-29T10:05:05Z</time>
<desc>lat.=56.005833, lon.=26.563915, Alt.=128.533325m. Speed=2.592000m/h.</desc>
<speed>0.720000</speed>
</trkpt>
<trkpt lat="56.005848" lon="26.563911">
<ele>128.162231</ele>
<time>2010-08-29T10:05:06Z</time>
<desc>lat.=56.005848, lon.=26.563911, Alt.=128.162231m. Speed=2.268000m/h.</desc>
<speed>0.630000</speed>
</trkpt>
<trkpt lat="56.005871" lon="26.563910">
<ele>128.068481</ele>
<time>2010-08-29T10:05:07Z</time>
<desc>lat.=56.005871, lon.=26.563910, Alt.=128.068481m. Speed=2.520000m/h.</desc>
<speed>0.700000</speed>
</trkpt>
<trkpt lat="56.005882" lon="26.563911">
<ele>128.005981</ele>
<time>2010-08-29T10:05:08Z</time>
<desc>lat.=56.005882, lon.=26.563911, Alt.=128.005981m. Speed=2.340000m/h.</desc>
<speed>0.650000</speed>
</trkpt>
<trkpt lat="56.005913" lon="26.563902">
<ele>127.895569</ele>
<time>2010-08-29T10:05:09Z</time>
<desc>lat.=56.005913, lon.=26.563902, Alt.=127.895569m. Speed=2.988000m/h.</desc>
<speed>0.830000</speed>
</trkpt>
<trkpt lat="56.005943" lon="26.563892">
<ele>127.829163</ele>
<time>2010-08-29T10:05:10Z</time>
<desc>lat.=56.005943, lon.=26.563892, Alt.=127.829163m. Speed=3.312000m/h.</desc>
<speed>0.920000</speed>
</trkpt>
<trkpt lat="56.005970" lon="26.563869">
<ele>128.021606</ele>
<time>2010-08-29T10:05:11Z</time>
<desc>lat.=56.005970, lon.=26.563869, Alt.=128.021606m. Speed=4.536000m/h.</desc>
<speed>1.260000</speed>
</trkpt>
<trkpt lat="56.006004" lon="26.563793">
<ele>127.667053</ele>
<time>2010-08-29T10:05:12Z</time>
<desc>lat.=56.006004, lon.=26.563793, Alt.=127.667053m. Speed=5.616000m/h.</desc>
<speed>1.560000</speed>
</trkpt>
<trkpt lat="56.006035" lon="26.563774">
<ele>127.883850</ele>
<time>2010-08-29T10:05:13Z</time>
<desc>lat.=56.006035, lon.=26.563774, Alt.=127.883850m. Speed=6.840000m/h.</desc>
<speed>1.900000</speed>
</trkpt>
<trkpt lat="56.006062" lon="26.563751">
<ele>128.107544</ele>
<time>2010-08-29T10:05:14Z</time>
<desc>lat.=56.006062, lon.=26.563751, Alt.=128.107544m. Speed=7.164000m/h.</desc>
<speed>1.990000</speed>
</trkpt>
<trkpt lat="56.006088" lon="26.563726">
<ele>128.388794</ele>
<time>2010-08-29T10:05:15Z</time>
<desc>lat.=56.006088, lon.=26.563726, Alt.=128.388794m. Speed=7.308000m/h.</desc>
<speed>2.030000</speed>
</trkpt>
<trkpt lat="56.006111" lon="26.563704">
<ele>128.779419</ele>
<time>2010-08-29T10:05:16Z</time>
<desc>lat.=56.006111, lon.=26.563704, Alt.=128.779419m. Speed=6.012000m/h.</desc>
<speed>1.670000</speed>
</trkpt>
<trkpt lat="56.006134" lon="26.563683">
<ele>128.892700</ele>
<time>2010-08-29T10:05:17Z</time>
<desc>lat.=56.006134, lon.=26.563683, Alt.=128.892700m. Speed=4.212000m/h.</desc>
<speed>1.170000</speed>
</trkpt>
<trkpt lat="56.006145" lon="26.563656">
<ele>128.326294</ele>
<time>2010-08-29T10:05:18Z</time>
<desc>lat.=56.006145, lon.=26.563656, Alt.=128.326294m. Speed=4.536000m/h.</desc>
<speed>1.260000</speed>
</trkpt>
<trkpt lat="56.006161" lon="26.563644">
<ele>128.349731</ele>
<time>2010-08-29T10:05:19Z</time>
<desc>lat.=56.006161, lon.=26.563644, Alt.=128.349731m. Speed=2.772000m/h.</desc>
<speed>0.770000</speed>
</trkpt>
<trkpt lat="56.006195" lon="26.563637">
<ele>128.447388</ele>
<time>2010-08-29T10:05:20Z</time>
<desc>lat.=56.006195, lon.=26.563637, Alt.=128.447388m. Speed=3.780000m/h.</desc>
<speed>1.050000</speed>
</trkpt>
<trkpt lat="56.006229" lon="26.563608">
<ele>128.146606</ele>
<time>2010-08-29T10:05:21Z</time>
<desc>lat.=56.006229, lon.=26.563608, Alt.=128.146606m. Speed=4.824000m/h.</desc>
<speed>1.340000</speed>
</trkpt>
<trkpt lat="56.006256" lon="26.563585">
<ele>126.372131</ele>
<time>2010-08-29T10:05:22Z</time>
<desc>lat.=56.006256, lon.=26.563585, Alt.=126.372131m. Speed=4.356000m/h.</desc>
<speed>1.210000</speed>
</trkpt>
<trkpt lat="56.006275" lon="26.563578">
<ele>125.831116</ele>
<time>2010-08-29T10:05:23Z</time>
<desc>lat.=56.006275, lon.=26.563578, Alt.=125.831116m. Speed=2.376000m/h.</desc>
<speed>0.660000</speed>
</trkpt>
<trkpt lat="56.006298" lon="26.563570">
<ele>125.702209</ele>
<time>2010-08-29T10:05:24Z</time>
<desc>lat.=56.006298, lon.=26.563570, Alt.=125.702209m. Speed=2.592000m/h.</desc>
<speed>0.720000</speed>
</trkpt>
<trkpt lat="56.006329" lon="26.563547">
<ele>125.430725</ele>
<time>2010-08-29T10:05:25Z</time>
<desc>lat.=56.006329, lon.=26.563547, Alt.=125.430725m. Speed=2.880000m/h.</desc>
<speed>0.800000</speed>
</trkpt>
<trkpt lat="56.006355" lon="26.563530">
<ele>124.374084</ele>
<time>2010-08-29T10:05:26Z</time>
<desc>lat.=56.006355, lon.=26.563530, Alt.=124.374084m. Speed=3.312000m/h.</desc>
<speed>0.920000</speed>
</trkpt>
<trkpt lat="56.006382" lon="26.563473">
<ele>123.670959</ele>
<time>2010-08-29T10:05:27Z</time>
<desc>lat.=56.006382, lon.=26.563473, Alt.=123.670959m. Speed=3.456000m/h.</desc>
<speed>0.960000</speed>
</trkpt>
<trkpt lat="56.006413" lon="26.563448">
<ele>123.086975</ele>
<time>2010-08-29T10:05:28Z</time>
<desc>lat.=56.006413, lon.=26.563448, Alt.=123.086975m. Speed=3.852000m/h.</desc>
<speed>1.070000</speed>
</trkpt>
<trkpt lat="56.006443" lon="26.563395">
<ele>121.766663</ele>
<time>2010-08-29T10:05:29Z</time>
<desc>lat.=56.006443, lon.=26.563395, Alt.=121.766663m. Speed=4.320000m/h.</desc>
<speed>1.200000</speed>
</trkpt>
<trkpt lat="56.006462" lon="26.563377">
<ele>121.424866</ele>
<time>2010-08-29T10:05:30Z</time>
<desc>lat.=56.006462, lon.=26.563377, Alt.=121.424866m. Speed=3.708000m/h.</desc>
<speed>1.030000</speed>
</trkpt>
<trkpt lat="56.006485" lon="26.563356">
<ele>121.360413</ele>
<time>2010-08-29T10:05:31Z</time>
<desc>lat.=56.006485, lon.=26.563356, Alt.=121.360413m. Speed=4.140000m/h.</desc>
<speed>1.150000</speed>
</trkpt>
<trkpt lat="56.006512" lon="26.563343">
<ele>121.461975</ele>
<time>2010-08-29T10:05:32Z</time>
<desc>lat.=56.006512, lon.=26.563343, Alt.=121.461975m. Speed=4.428000m/h.</desc>
<speed>1.230000</speed>
</trkpt>
<trkpt lat="56.006531" lon="26.563326">
<ele>121.383850</ele>
<time>2010-08-29T10:05:33Z</time>
<desc>lat.=56.006531, lon.=26.563326, Alt.=121.383850m. Speed=4.212000m/h.</desc>
<speed>1.170000</speed>
</trkpt>
<trkpt lat="56.006550" lon="26.563311">
<ele>121.661194</ele>
<time>2010-08-29T10:05:34Z</time>
<desc>lat.=56.006550, lon.=26.563311, Alt.=121.661194m. Speed=3.816000m/h.</desc>
<speed>1.060000</speed>
</trkpt>
<trkpt lat="56.006565" lon="26.563286">
<ele>121.643616</ele>
<time>2010-08-29T10:05:35Z</time>
<desc>lat.=56.006565, lon.=26.563286, Alt.=121.643616m. Speed=3.708000m/h.</desc>
<speed>1.030000</speed>
</trkpt>
<trkpt lat="56.006573" lon="26.563255">
<ele>120.887756</ele>
<time>2010-08-29T10:05:36Z</time>
<desc>lat.=56.006573, lon.=26.563255, Alt.=120.887756m. Speed=3.744000m/h.</desc>
<speed>1.040000</speed>
</trkpt>
<trkpt lat="56.006603" lon="26.563221">
<ele>120.446350</ele>
<time>2010-08-29T10:05:37Z</time>
<desc>lat.=56.006603, lon.=26.563221, Alt.=120.446350m. Speed=4.248000m/h.</desc>
<speed>1.180000</speed>
</trkpt>
<trkpt lat="56.006630" lon="26.563198">
<ele>120.364319</ele>
<time>2010-08-29T10:05:38Z</time>
<desc>lat.=56.006630, lon.=26.563198, Alt.=120.364319m. Speed=4.464000m/h.</desc>
<speed>1.240000</speed>
</trkpt>
<trkpt lat="56.006649" lon="26.563196">
<ele>120.393616</ele>
<time>2010-08-29T10:05:39Z</time>
<desc>lat.=56.006649, lon.=26.563196, Alt.=120.393616m. Speed=4.212000m/h.</desc>
<speed>1.170000</speed>
</trkpt>
<trkpt lat="56.006660" lon="26.563200">
<ele>120.331116</ele>
<time>2010-08-29T10:05:40Z</time>
<desc>lat.=56.006660, lon.=26.563200, Alt.=120.331116m. Speed=3.492000m/h.</desc>
<speed>0.970000</speed>
</trkpt>
<trkpt lat="56.006687" lon="26.563187">
<ele>120.684631</ele>
<time>2010-08-29T10:05:41Z</time>
<desc>lat.=56.006687, lon.=26.563187, Alt.=120.684631m. Speed=3.204000m/h.</desc>
<speed>0.890000</speed>
</trkpt>
<trkpt lat="56.006706" lon="26.563166">
<ele>121.118225</ele>
<time>2010-08-29T10:05:42Z</time>
<desc>lat.=56.006706, lon.=26.563166, Alt.=121.118225m. Speed=3.060000m/h.</desc>
<speed>0.850000</speed>
</trkpt>
<trkpt lat="56.006729" lon="26.563108">
<ele>121.288147</ele>
<time>2010-08-29T10:05:43Z</time>
<desc>lat.=56.006729, lon.=26.563108, Alt.=121.288147m. Speed=4.104000m/h.</desc>
<speed>1.140000</speed>
</trkpt>
<trkpt lat="56.006748" lon="26.563084">
<ele>120.444397</ele>
<time>2010-08-29T10:05:44Z</time>
<desc>lat.=56.006748, lon.=26.563084, Alt.=120.444397m. Speed=4.248000m/h.</desc>
<speed>1.180000</speed>
</trkpt>
<trkpt lat="56.006771" lon="26.563051">
<ele>119.565491</ele>
<time>2010-08-29T10:05:45Z</time>
<desc>lat.=56.006771, lon.=26.563051, Alt.=119.565491m. Speed=5.076000m/h.</desc>
<speed>1.410000</speed>
</trkpt>
<trkpt lat="56.006802" lon="26.563021">
<ele>118.907288</ele>
<time>2010-08-29T10:05:46Z</time>
<desc>lat.=56.006802, lon.=26.563021, Alt.=118.907288m. Speed=4.860000m/h.</desc>
<speed>1.350000</speed>
</trkpt>
<trkpt lat="56.006809" lon="26.562994">
<ele>118.911194</ele>
<time>2010-08-29T10:05:47Z</time>
<desc>lat.=56.006809, lon.=26.562994, Alt.=118.911194m. Speed=4.176000m/h.</desc>
<speed>1.160000</speed>
</trkpt>
<trkpt lat="56.006817" lon="26.562954">
<ele>118.604553</ele>
<time>2010-08-29T10:05:48Z</time>
<desc>lat.=56.006817, lon.=26.562954, Alt.=118.604553m. Speed=4.248000m/h.</desc>
<speed>1.180000</speed>
</trkpt>
<trkpt lat="56.006828" lon="26.562910">
<ele>118.297913</ele>
<time>2010-08-29T10:05:49Z</time>
<desc>lat.=56.006828, lon.=26.562910, Alt.=118.297913m. Speed=4.284000m/h.</desc>
<speed>1.190000</speed>
</trkpt>
<trkpt lat="56.006870" lon="26.562893">
<ele>117.485413</ele>
<time>2010-08-29T10:05:50Z</time>
<desc>lat.=56.006870, lon.=26.562893, Alt.=117.485413m. Speed=3.924000m/h.</desc>
<speed>1.090000</speed>
</trkpt>
<trkpt lat="56.006889" lon="26.562855">
<ele>117.379944</ele>
<time>2010-08-29T10:05:51Z</time>
<desc>lat.=56.006889, lon.=26.562855, Alt.=117.379944m. Speed=4.572000m/h.</desc>
<speed>1.270000</speed>
</trkpt>
<trkpt lat="56.006905" lon="26.562822">
<ele>117.434631</ele>
<time>2010-08-29T10:05:52Z</time>
<desc>lat.=56.006905, lon.=26.562822, Alt.=117.434631m. Speed=4.788000m/h.</desc>
<speed>1.330000</speed>
</trkpt>
<trkpt lat="56.006935" lon="26.562803">
<ele>117.001038</ele>
<time>2010-08-29T10:05:53Z</time>
<desc>lat.=56.006935, lon.=26.562803, Alt.=117.001038m. Speed=4.176000m/h.</desc>
<speed>1.160000</speed>
</trkpt>
<trkpt lat="56.006931" lon="26.562792">
<ele>117.006897</ele>
<time>2010-08-29T10:05:54Z</time>
<desc>lat.=56.006931, lon.=26.562792, Alt.=117.006897m. Speed=3.384000m/h.</desc>
<speed>0.940000</speed>
</trkpt>
<trkpt lat="56.006935" lon="26.562765">
<ele>116.780334</ele>
<time>2010-08-29T10:05:55Z</time>
<desc>lat.=56.006935, lon.=26.562765, Alt.=116.780334m. Speed=3.168000m/h.</desc>
<speed>0.880000</speed>
</trkpt>
<trkpt lat="56.006950" lon="26.562744">
<ele>116.370178</ele>
<time>2010-08-29T10:05:56Z</time>
<desc>lat.=56.006950, lon.=26.562744, Alt.=116.370178m. Speed=3.132000m/h.</desc>
<speed>0.870000</speed>
</trkpt>
<trkpt lat="56.006958" lon="26.562731">
<ele>116.301819</ele>
<time>2010-08-29T10:05:57Z</time>
<desc>lat.=56.006958, lon.=26.562731, Alt.=116.301819m. Speed=3.348000m/h.</desc>
<speed>0.930000</speed>
</trkpt>
<trkpt lat="56.006985" lon="26.562662">
<ele>115.149475</ele>
<time>2010-08-29T10:05:58Z</time>
<desc>lat.=56.006985, lon.=26.562662, Alt.=115.149475m. Speed=4.464000m/h.</desc>
<speed>1.240000</speed>
</trkpt>
<trkpt lat="56.006996" lon="26.562639">
<ele>114.997131</ele>
<time>2010-08-29T10:05:59Z</time>
<desc>lat.=56.006996, lon.=26.562639, Alt.=114.997131m. Speed=4.680000m/h.</desc>
<speed>1.300000</speed>
</trkpt>
<trkpt lat="56.007004" lon="26.562624">
<ele>114.917053</ele>
<time>2010-08-29T10:06:00Z</time>
<desc>lat.=56.007004, lon.=26.562624, Alt.=114.917053m. Speed=4.140000m/h.</desc>
<speed>1.150000</speed>
</trkpt>
<trkpt lat="56.007027" lon="26.562607">
<ele>114.557678</ele>
<time>2010-08-29T10:06:01Z</time>
<desc>lat.=56.007027, lon.=26.562607, Alt.=114.557678m. Speed=4.536000m/h.</desc>
<speed>1.260000</speed>
</trkpt>
<trkpt lat="56.007034" lon="26.562590">
<ele>114.432678</ele>
<time>2010-08-29T10:06:02Z</time>
<desc>lat.=56.007034, lon.=26.562590, Alt.=114.432678m. Speed=3.600000m/h.</desc>
<speed>1.000000</speed>
</trkpt>
<trkpt lat="56.007042" lon="26.562574">
<ele>114.338928</ele>
<time>2010-08-29T10:06:03Z</time>
<desc>lat.=56.007042, lon.=26.562574, Alt.=114.338928m. Speed=3.168000m/h.</desc>
<speed>0.880000</speed>
</trkpt>
<trkpt lat="56.007050" lon="26.562574">
<ele>114.174866</ele>
<time>2010-08-29T10:06:04Z</time>
<desc>lat.=56.007050, lon.=26.562574, Alt.=114.174866m. Speed=2.196000m/h.</desc>
<speed>0.610000</speed>
</trkpt>
<trkpt lat="56.007065" lon="26.562567">
<ele>114.051819</ele>
<time>2010-08-29T10:06:05Z</time>
<desc>lat.=56.007065, lon.=26.562567, Alt.=114.051819m. Speed=1.836000m/h.</desc>
<speed>0.510000</speed>
</trkpt>
<trkpt lat="56.007069" lon="26.562559">
<ele>113.866272</ele>
<time>2010-08-29T10:06:06Z</time>
<desc>lat.=56.007069, lon.=26.562559, Alt.=113.866272m. Speed=1.836000m/h.</desc>
<speed>0.510000</speed>
</trkpt>
<trkpt lat="56.007076" lon="26.562555">
<ele>113.577209</ele>
<time>2010-08-29T10:06:07Z</time>
<desc>lat.=56.007076, lon.=26.562555, Alt.=113.577209m. Speed=1.296000m/h.</desc>
<speed>0.360000</speed>
</trkpt>
<trkpt lat="56.007084" lon="26.562548">
<ele>113.532288</ele>
<time>2010-08-29T10:06:08Z</time>
<desc>lat.=56.007084, lon.=26.562548, Alt.=113.532288m. Speed=1.008000m/h.</desc>
<speed>0.280000</speed>
</trkpt>
<trkpt lat="56.007088" lon="26.562532">
<ele>113.192444</ele>
<time>2010-08-29T10:06:09Z</time>
<desc>lat.=56.007088, lon.=26.562532, Alt.=113.192444m. Speed=1.440000m/h.</desc>
<speed>0.400000</speed>
</trkpt>
<trkpt lat="56.007095" lon="26.562527">
<ele>112.971741</ele>
<time>2010-08-29T10:06:10Z</time>
<desc>lat.=56.007095, lon.=26.562527, Alt.=112.971741m. Speed=1.404000m/h.</desc>
<speed>0.390000</speed>
</trkpt>
<trkpt lat="56.007095" lon="26.562517">
<ele>112.674866</ele>
<time>2010-08-29T10:06:11Z</time>
<desc>lat.=56.007095, lon.=26.562517, Alt.=112.674866m. Speed=1.836000m/h.</desc>
<speed>0.510000</speed>
</trkpt>
<trkpt lat="56.007107" lon="26.562500">
<ele>112.719788</ele>
<time>2010-08-29T10:06:12Z</time>
<desc>lat.=56.007107, lon.=26.562500, Alt.=112.719788m. Speed=1.872000m/h.</desc>
<speed>0.520000</speed>
</trkpt>
<trkpt lat="56.007114" lon="26.562481">
<ele>112.626038</ele>
<time>2010-08-29T10:06:13Z</time>
<desc>lat.=56.007114, lon.=26.562481, Alt.=112.626038m. Speed=2.484000m/h.</desc>
<speed>0.690000</speed>
</trkpt>
<trkpt lat="56.007130" lon="26.562422">
<ele>112.231506</ele>
<time>2010-08-29T10:06:14Z</time>
<desc>lat.=56.007130, lon.=26.562422, Alt.=112.231506m. Speed=3.384000m/h.</desc>
<speed>0.940000</speed>
</trkpt>
<trkpt lat="56.007153" lon="26.562384">
<ele>112.135803</ele>
<time>2010-08-29T10:06:15Z</time>
<desc>lat.=56.007153, lon.=26.562384, Alt.=112.135803m. Speed=3.636000m/h.</desc>
<speed>1.010000</speed>
</trkpt>
<trkpt lat="56.007164" lon="26.562359">
<ele>112.059631</ele>
<time>2010-08-29T10:06:16Z</time>
<desc>lat.=56.007164, lon.=26.562359, Alt.=112.059631m. Speed=3.348000m/h.</desc>
<speed>0.930000</speed>
</trkpt>
<trkpt lat="56.007172" lon="26.562336">
<ele>112.075256</ele>
<time>2010-08-29T10:06:17Z</time>
<desc>lat.=56.007172, lon.=26.562336, Alt.=112.075256m. Speed=3.168000m/h.</desc>
<speed>0.880000</speed>
</trkpt>
<trkpt lat="56.007183" lon="26.562313">
<ele>112.116272</ele>
<time>2010-08-29T10:06:18Z</time>
<desc>lat.=56.007183, lon.=26.562313, Alt.=112.116272m. Speed=3.312000m/h.</desc>
<speed>0.920000</speed>
</trkpt>
<trkpt lat="56.007191" lon="26.562290">
<ele>111.960022</ele>
<time>2010-08-29T10:06:19Z</time>
<desc>lat.=56.007191, lon.=26.562290, Alt.=111.960022m. Speed=3.528000m/h.</desc>
<speed>0.980000</speed>
</trkpt>
<trkpt lat="56.007198" lon="26.562256">
<ele>111.901428</ele>
<time>2010-08-29T10:06:20Z</time>
<desc>lat.=56.007198, lon.=26.562256, Alt.=111.901428m. Speed=3.528000m/h.</desc>
<speed>0.980000</speed>
</trkpt>
<trkpt lat="56.007217" lon="26.562204">
<ele>111.813538</ele>
<time>2010-08-29T10:06:21Z</time>
<desc>lat.=56.007217, lon.=26.562204, Alt.=111.813538m. Speed=4.032000m/h.</desc>
<speed>1.120000</speed>
</trkpt>
<trkpt lat="56.007221" lon="26.562176">
<ele>111.688538</ele>
<time>2010-08-29T10:06:22Z</time>
<desc>lat.=56.007221, lon.=26.562176, Alt.=111.688538m. Speed=3.456000m/h.</desc>
<speed>0.960000</speed>
</trkpt>
<trkpt lat="56.007225" lon="26.562136">
<ele>111.547913</ele>
<time>2010-08-29T10:06:23Z</time>
<desc>lat.=56.007225, lon.=26.562136, Alt.=111.547913m. Speed=4.032000m/h.</desc>
<speed>1.120000</speed>
</trkpt>
<trkpt lat="56.007229" lon="26.562117">
<ele>111.614319</ele>
<time>2010-08-29T10:06:24Z</time>
<desc>lat.=56.007229, lon.=26.562117, Alt.=111.614319m. Speed=3.852000m/h.</desc>
<speed>1.070000</speed>
</trkpt>
<trkpt lat="56.007233" lon="26.562098">
<ele>111.487366</ele>
<time>2010-08-29T10:06:25Z</time>
<desc>lat.=56.007233, lon.=26.562098, Alt.=111.487366m. Speed=3.744000m/h.</desc>
<speed>1.040000</speed>
</trkpt>
<trkpt lat="56.007240" lon="26.562080">
<ele>111.579163</ele>
<time>2010-08-29T10:06:26Z</time>
<desc>lat.=56.007240, lon.=26.562080, Alt.=111.579163m. Speed=3.384000m/h.</desc>
<speed>0.940000</speed>
</trkpt>
<trkpt lat="56.007244" lon="26.562054">
<ele>111.536194</ele>
<time>2010-08-29T10:06:27Z</time>
<desc>lat.=56.007244, lon.=26.562054, Alt.=111.536194m. Speed=3.564000m/h.</desc>
<speed>0.990000</speed>
</trkpt>
<trkpt lat="56.007248" lon="26.562019">
<ele>111.499084</ele>
<time>2010-08-29T10:06:28Z</time>
<desc>lat.=56.007248, lon.=26.562019, Alt.=111.499084m. Speed=3.924000m/h.</desc>
<speed>1.090000</speed>
</trkpt>
<trkpt lat="56.007256" lon="26.561989">
<ele>111.600647</ele>
<time>2010-08-29T10:06:29Z</time>
<desc>lat.=56.007256, lon.=26.561989, Alt.=111.600647m. Speed=3.780000m/h.</desc>
<speed>1.050000</speed>
</trkpt>
<trkpt lat="56.007259" lon="26.561945">
<ele>111.553772</ele>
<time>2010-08-29T10:06:30Z</time>
<desc>lat.=56.007259, lon.=26.561945, Alt.=111.553772m. Speed=4.212000m/h.</desc>
<speed>1.170000</speed>
</trkpt>
<trkpt lat="56.007259" lon="26.561892">
<ele>111.590881</ele>
<time>2010-08-29T10:06:31Z</time>
<desc>lat.=56.007259, lon.=26.561892, Alt.=111.590881m. Speed=4.788000m/h.</desc>
<speed>1.330000</speed>
</trkpt>
<trkpt lat="56.007263" lon="26.561857">
<ele>111.602600</ele>
<time>2010-08-29T10:06:32Z</time>
<desc>lat.=56.007263, lon.=26.561857, Alt.=111.602600m. Speed=4.572000m/h.</desc>
<speed>1.270000</speed>
</trkpt>
<trkpt lat="56.007263" lon="26.561831">
<ele>111.682678</ele>
<time>2010-08-29T10:06:33Z</time>
<desc>lat.=56.007263, lon.=26.561831, Alt.=111.682678m. Speed=4.536000m/h.</desc>
<speed>1.260000</speed>
</trkpt>
<trkpt lat="56.007271" lon="26.561810">
<ele>111.684631</ele>
<time>2010-08-29T10:06:34Z</time>
<desc>lat.=56.007271, lon.=26.561810, Alt.=111.684631m. Speed=4.104000m/h.</desc>
<speed>1.140000</speed>
</trkpt>
<trkpt lat="56.007275" lon="26.561754">
<ele>111.559631</ele>
<time>2010-08-29T10:06:35Z</time>
<desc>lat.=56.007275, lon.=26.561754, Alt.=111.559631m. Speed=4.572000m/h.</desc>
<speed>1.270000</speed>
</trkpt>
<trkpt lat="56.007309" lon="26.561720">
<ele>112.040100</ele>
<time>2010-08-29T10:06:36Z</time>
<desc>lat.=56.007309, lon.=26.561720, Alt.=112.040100m. Speed=4.032000m/h.</desc>
<speed>1.120000</speed>
</trkpt>
<trkpt lat="56.007332" lon="26.561678">
<ele>112.440491</ele>
<time>2010-08-29T10:06:37Z</time>
<desc>lat.=56.007332, lon.=26.561678, Alt.=112.440491m. Speed=3.924000m/h.</desc>
<speed>1.090000</speed>
</trkpt>
<trkpt lat="56.007324" lon="26.561642">
<ele>112.622131</ele>
<time>2010-08-29T10:06:38Z</time>
<desc>lat.=56.007324, lon.=26.561642, Alt.=112.622131m. Speed=4.212000m/h.</desc>
<speed>1.170000</speed>
</trkpt>
<trkpt lat="56.007324" lon="26.561623">
<ele>112.731506</ele>
<time>2010-08-29T10:06:39Z</time>
<desc>lat.=56.007324, lon.=26.561623, Alt.=112.731506m. Speed=4.356000m/h.</desc>
<speed>1.210000</speed>
</trkpt>
<trkpt lat="56.007336" lon="26.561590">
<ele>112.872131</ele>
<time>2010-08-29T10:06:40Z</time>
<desc>lat.=56.007336, lon.=26.561590, Alt.=112.872131m. Speed=4.608000m/h.</desc>
<speed>1.280000</speed>
</trkpt>
<trkpt lat="56.007343" lon="26.561544">
<ele>112.926819</ele>
<time>2010-08-29T10:06:41Z</time>
<desc>lat.=56.007343, lon.=26.561544, Alt.=112.926819m. Speed=4.752000m/h.</desc>
<speed>1.320000</speed>
</trkpt>
<trkpt lat="56.007347" lon="26.561512">
<ele>113.102600</ele>
<time>2010-08-29T10:06:42Z</time>
<desc>lat.=56.007347, lon.=26.561512, Alt.=113.102600m. Speed=4.392000m/h.</desc>
<speed>1.220000</speed>
</trkpt>
<trkpt lat="56.007366" lon="26.561478">
<ele>113.432678</ele>
<time>2010-08-29T10:06:43Z</time>
<desc>lat.=56.007366, lon.=26.561478, Alt.=113.432678m. Speed=4.248000m/h.</desc>
<speed>1.180000</speed>
</trkpt>
<trkpt lat="56.007370" lon="26.561449">
<ele>113.432678</ele>
<time>2010-08-29T10:06:44Z</time>
<desc>lat.=56.007370, lon.=26.561449, Alt.=113.432678m. Speed=4.068000m/h.</desc>
<speed>1.130000</speed>
</trkpt>
<trkpt lat="56.007381" lon="26.561420">
<ele>113.698303</ele>
<time>2010-08-29T10:06:45Z</time>
<desc>lat.=56.007381, lon.=26.561420, Alt.=113.698303m. Speed=3.492000m/h.</desc>
<speed>0.970000</speed>
</trkpt>
<trkpt lat="56.007381" lon="26.561398">
<ele>113.786194</ele>
<time>2010-08-29T10:06:46Z</time>
<desc>lat.=56.007381, lon.=26.561398, Alt.=113.786194m. Speed=3.276000m/h.</desc>
<speed>0.910000</speed>
</trkpt>
<trkpt lat="56.007385" lon="26.561384">
<ele>113.905334</ele>
<time>2010-08-29T10:06:47Z</time>
<desc>lat.=56.007385, lon.=26.561384, Alt.=113.905334m. Speed=2.628000m/h.</desc>
<speed>0.730000</speed>
</trkpt>
<trkpt lat="56.007389" lon="26.561352">
<ele>113.954163</ele>
<time>2010-08-29T10:06:48Z</time>
<desc>lat.=56.007389, lon.=26.561352, Alt.=113.954163m. Speed=2.736000m/h.</desc>
<speed>0.760000</speed>
</trkpt>
<trkpt lat="56.007389" lon="26.561327">
<ele>114.034241</ele>
<time>2010-08-29T10:06:49Z</time>
<desc>lat.=56.007389, lon.=26.561327, Alt.=114.034241m. Speed=2.592000m/h.</desc>
<speed>0.720000</speed>
</trkpt>
<trkpt lat="56.007389" lon="26.561308">
<ele>114.186584</ele>
<time>2010-08-29T10:06:50Z</time>
<desc>lat.=56.007389, lon.=26.561308, Alt.=114.186584m. Speed=2.232000m/h.</desc>
<speed>0.620000</speed>
</trkpt>
<trkpt lat="56.007381" lon="26.561291">
<ele>114.274475</ele>
<time>2010-08-29T10:06:51Z</time>
<desc>lat.=56.007381, lon.=26.561291, Alt.=114.274475m. Speed=2.664000m/h.</desc>
<speed>0.740000</speed>
</trkpt>
<trkpt lat="56.007378" lon="26.561211">
<ele>114.354553</ele>
<time>2010-08-29T10:06:52Z</time>
<desc>lat.=56.007378, lon.=26.561211, Alt.=114.354553m. Speed=6.012000m/h.</desc>
<speed>1.670000</speed>
</trkpt>
<trkpt lat="56.007370" lon="26.561150">
<ele>114.407288</ele>
<time>2010-08-29T10:06:53Z</time>
<desc>lat.=56.007370, lon.=26.561150, Alt.=114.407288m. Speed=3.060000m/h.</desc>
<speed>0.850000</speed>
</trkpt>
<trkpt lat="56.007374" lon="26.561123">
<ele>114.526428</ele>
<time>2010-08-29T10:06:54Z</time>
<desc>lat.=56.007374, lon.=26.561123, Alt.=114.526428m. Speed=4.284000m/h.</desc>
<speed>1.190000</speed>
</trkpt>
<trkpt lat="56.007374" lon="26.561100">
<ele>114.598694</ele>
<time>2010-08-29T10:06:55Z</time>
<desc>lat.=56.007374, lon.=26.561100, Alt.=114.598694m. Speed=4.644000m/h.</desc>
<speed>1.290000</speed>
</trkpt>
<trkpt lat="56.007370" lon="26.561066">
<ele>114.721741</ele>
<time>2010-08-29T10:06:56Z</time>
<desc>lat.=56.007370, lon.=26.561066, Alt.=114.721741m. Speed=6.624000m/h.</desc>
<speed>1.840000</speed>
</trkpt>
<trkpt lat="56.007374" lon="26.561020">
<ele>114.915100</ele>
<time>2010-08-29T10:06:57Z</time>
<desc>lat.=56.007374, lon.=26.561020, Alt.=114.915100m. Speed=7.488000m/h.</desc>
<speed>2.080000</speed>
</trkpt>
<trkpt lat="56.007381" lon="26.560987">
<ele>115.221741</ele>
<time>2010-08-29T10:06:58Z</time>
<desc>lat.=56.007381, lon.=26.560987, Alt.=115.221741m. Speed=5.364000m/h.</desc>
<speed>1.490000</speed>
</trkpt>
<trkpt lat="56.007381" lon="26.560955">
<ele>115.356506</ele>
<time>2010-08-29T10:06:59Z</time>
<desc>lat.=56.007381, lon.=26.560955, Alt.=115.356506m. Speed=6.120000m/h.</desc>
<speed>1.700000</speed>
</trkpt>
<trkpt lat="56.007389" lon="26.560900">
<ele>115.434631</ele>
<time>2010-08-29T10:07:00Z</time>
<desc>lat.=56.007389, lon.=26.560900, Alt.=115.434631m. Speed=5.472000m/h.</desc>
<speed>1.520000</speed>
</trkpt>
<trkpt lat="56.007393" lon="26.560875">
<ele>115.588928</ele>
<time>2010-08-29T10:07:01Z</time>
<desc>lat.=56.007393, lon.=26.560875, Alt.=115.588928m. Speed=3.456000m/h.</desc>
<speed>0.960000</speed>
</trkpt>
<trkpt lat="56.007404" lon="26.560833">
<ele>115.711975</ele>
<time>2010-08-29T10:07:02Z</time>
<desc>lat.=56.007404, lon.=26.560833, Alt.=115.711975m. Speed=4.932000m/h.</desc>
<speed>1.370000</speed>
</trkpt>
<trkpt lat="56.007416" lon="26.560787">
<ele>115.741272</ele>
<time>2010-08-29T10:07:03Z</time>
<desc>lat.=56.007416, lon.=26.560787, Alt.=115.741272m. Speed=4.968000m/h.</desc>
<speed>1.380000</speed>
</trkpt>
<trkpt lat="56.007423" lon="26.560724">
<ele>115.817444</ele>
<time>2010-08-29T10:07:04Z</time>
<desc>lat.=56.007423, lon.=26.560724, Alt.=115.817444m. Speed=5.472000m/h.</desc>
<speed>1.520000</speed>
</trkpt>
<trkpt lat="56.007435" lon="26.560659">
<ele>115.827209</ele>
<time>2010-08-29T10:07:05Z</time>
<desc>lat.=56.007435, lon.=26.560659, Alt.=115.827209m. Speed=7.092000m/h.</desc>
<speed>1.970000</speed>
</trkpt>
<trkpt lat="56.007446" lon="26.560614">
<ele>115.835022</ele>
<time>2010-08-29T10:07:06Z</time>
<desc>lat.=56.007446, lon.=26.560614, Alt.=115.835022m. Speed=5.868000m/h.</desc>
<speed>1.630000</speed>
</trkpt>
<trkpt lat="56.007458" lon="26.560577">
<ele>115.893616</ele>
<time>2010-08-29T10:07:07Z</time>
<desc>lat.=56.007458, lon.=26.560577, Alt.=115.893616m. Speed=6.732000m/h.</desc>
<speed>1.870000</speed>
</trkpt>
<trkpt lat="56.007462" lon="26.560547">
<ele>116.083069</ele>
<time>2010-08-29T10:07:08Z</time>
<desc>lat.=56.007462, lon.=26.560547, Alt.=116.083069m. Speed=8.640000m/h.</desc>
<speed>2.400000</speed>
</trkpt>
<trkpt lat="56.007473" lon="26.560505">
<ele>116.149475</ele>
<time>2010-08-29T10:07:09Z</time>
<desc>lat.=56.007473, lon.=26.560505, Alt.=116.149475m. Speed=7.272000m/h.</desc>
<speed>2.020000</speed>
</trkpt>
<trkpt lat="56.007481" lon="26.560469">
<ele>116.336975</ele>
<time>2010-08-29T10:07:10Z</time>
<desc>lat.=56.007481, lon.=26.560469, Alt.=116.336975m. Speed=6.660000m/h.</desc>
<speed>1.850000</speed>
</trkpt>
<trkpt lat="56.007492" lon="26.560427">
<ele>116.524475</ele>
<time>2010-08-29T10:07:11Z</time>
<desc>lat.=56.007492, lon.=26.560427, Alt.=116.524475m. Speed=5.868000m/h.</desc>
<speed>1.630000</speed>
</trkpt>
<trkpt lat="56.007500" lon="26.560379">
<ele>116.495178</ele>
<time>2010-08-29T10:07:12Z</time>
<desc>lat.=56.007500, lon.=26.560379, Alt.=116.495178m. Speed=5.112000m/h.</desc>
<speed>1.420000</speed>
</trkpt>
<trkpt lat="56.007534" lon="26.560232">
<ele>116.053772</ele>
<time>2010-08-29T10:07:13Z</time>
<desc>lat.=56.007534, lon.=26.560232, Alt.=116.053772m. Speed=6.876000m/h.</desc>
<speed>1.910000</speed>
</trkpt>
<trkpt lat="56.007553" lon="26.560188">
<ele>116.186584</ele>
<time>2010-08-29T10:07:14Z</time>
<desc>lat.=56.007553, lon.=26.560188, Alt.=116.186584m. Speed=6.264000m/h.</desc>
<speed>1.740000</speed>
</trkpt>
<trkpt lat="56.007587" lon="26.560043">
<ele>115.768616</ele>
<time>2010-08-29T10:07:15Z</time>
<desc>lat.=56.007587, lon.=26.560043, Alt.=115.768616m. Speed=5.544000m/h.</desc>
<speed>1.540000</speed>
</trkpt>
<trkpt lat="56.007599" lon="26.560001">
<ele>115.553772</ele>
<time>2010-08-29T10:07:16Z</time>
<desc>lat.=56.007599, lon.=26.560001, Alt.=115.553772m. Speed=4.896000m/h.</desc>
<speed>1.360000</speed>
</trkpt>
<trkpt lat="56.007614" lon="26.559933">
<ele>115.303772</ele>
<time>2010-08-29T10:07:17Z</time>
<desc>lat.=56.007614, lon.=26.559933, Alt.=115.303772m. Speed=4.968000m/h.</desc>
<speed>1.380000</speed>
</trkpt>
<trkpt lat="56.007645" lon="26.559832">
<ele>114.844788</ele>
<time>2010-08-29T10:07:18Z</time>
<desc>lat.=56.007645, lon.=26.559832, Alt.=114.844788m. Speed=3.888000m/h.</desc>
<speed>1.080000</speed>
</trkpt>
<trkpt lat="56.007668" lon="26.559792">
<ele>115.028381</ele>
<time>2010-08-29T10:07:19Z</time>
<desc>lat.=56.007668, lon.=26.559792, Alt.=115.028381m. Speed=4.608000m/h.</desc>
<speed>1.280000</speed>
</trkpt>
<trkpt lat="56.007690" lon="26.559753">
<ele>114.942444</ele>
<time>2010-08-29T10:07:20Z</time>
<desc>lat.=56.007690, lon.=26.559753, Alt.=114.942444m. Speed=2.844000m/h.</desc>
<speed>0.790000</speed>
</trkpt>
<trkpt lat="56.007710" lon="26.559685">
<ele>114.645569</ele>
<time>2010-08-29T10:07:21Z</time>
<desc>lat.=56.007710, lon.=26.559685, Alt.=114.645569m. Speed=3.204000m/h.</desc>
<speed>0.890000</speed>
</trkpt>
<trkpt lat="56.007721" lon="26.559645">
<ele>114.485413</ele>
<time>2010-08-29T10:07:22Z</time>
<desc>lat.=56.007721, lon.=26.559645, Alt.=114.485413m. Speed=3.888000m/h.</desc>
<speed>1.080000</speed>
</trkpt>
<trkpt lat="56.007751" lon="26.559578">
<ele>114.381897</ele>
<time>2010-08-29T10:07:23Z</time>
<desc>lat.=56.007751, lon.=26.559578, Alt.=114.381897m. Speed=4.320000m/h.</desc>
<speed>1.200000</speed>
</trkpt>
<trkpt lat="56.007759" lon="26.559530">
<ele>113.782288</ele>
<time>2010-08-29T10:07:24Z</time>
<desc>lat.=56.007759, lon.=26.559530, Alt.=113.782288m. Speed=5.040000m/h.</desc>
<speed>1.400000</speed>
</trkpt>
<trkpt lat="56.007767" lon="26.559502">
<ele>113.616272</ele>
<time>2010-08-29T10:07:25Z</time>
<desc>lat.=56.007767, lon.=26.559502, Alt.=113.616272m. Speed=4.248000m/h.</desc>
<speed>1.180000</speed>
</trkpt>
<trkpt lat="56.007774" lon="26.559469">
<ele>113.524475</ele>
<time>2010-08-29T10:07:26Z</time>
<desc>lat.=56.007774, lon.=26.559469, Alt.=113.524475m. Speed=4.428000m/h.</desc>
<speed>1.230000</speed>
</trkpt>
<trkpt lat="56.007793" lon="26.559427">
<ele>113.034241</ele>
<time>2010-08-29T10:07:27Z</time>
<desc>lat.=56.007793, lon.=26.559427, Alt.=113.034241m. Speed=5.112000m/h.</desc>
<speed>1.420000</speed>
</trkpt>
<trkpt lat="56.007813" lon="26.559387">
<ele>112.790100</ele>
<time>2010-08-29T10:07:28Z</time>
<desc>lat.=56.007813, lon.=26.559387, Alt.=112.790100m. Speed=3.312000m/h.</desc>
<speed>0.920000</speed>
</trkpt>
<trkpt lat="56.007828" lon="26.559372">
<ele>112.585022</ele>
<time>2010-08-29T10:07:29Z</time>
<desc>lat.=56.007828, lon.=26.559372, Alt.=112.585022m. Speed=4.896000m/h.</desc>
<speed>1.360000</speed>
</trkpt>
<trkpt lat="56.007866" lon="26.559361">
<ele>112.133850</ele>
<time>2010-08-29T10:07:30Z</time>
<desc>lat.=56.007866, lon.=26.559361, Alt.=112.133850m. Speed=4.644000m/h.</desc>
<speed>1.290000</speed>
</trkpt>
<trkpt lat="56.007889" lon="26.559334">
<ele>112.028381</ele>
<time>2010-08-29T10:07:31Z</time>
<desc>lat.=56.007889, lon.=26.559334, Alt.=112.028381m. Speed=4.968000m/h.</desc>
<speed>1.380000</speed>
</trkpt>
<trkpt lat="56.007912" lon="26.559313">
<ele>111.823303</ele>
<time>2010-08-29T10:07:32Z</time>
<desc>lat.=56.007912, lon.=26.559313, Alt.=111.823303m. Speed=5.004000m/h.</desc>
<speed>1.390000</speed>
</trkpt>
<trkpt lat="56.007950" lon="26.559296">
<ele>111.549866</ele>
<time>2010-08-29T10:07:33Z</time>
<desc>lat.=56.007950, lon.=26.559296, Alt.=111.549866m. Speed=7.164000m/h.</desc>
<speed>1.990000</speed>
</trkpt>
<trkpt lat="56.008003" lon="26.559286">
<ele>110.891663</ele>
<time>2010-08-29T10:07:34Z</time>
<desc>lat.=56.008003, lon.=26.559286, Alt.=110.891663m. Speed=7.344000m/h.</desc>
<speed>2.040000</speed>
</trkpt>
<trkpt lat="56.008030" lon="26.559259">
<ele>110.667053</ele>
<time>2010-08-29T10:07:35Z</time>
<desc>lat.=56.008030, lon.=26.559259, Alt.=110.667053m. Speed=8.748000m/h.</desc>
<speed>2.430000</speed>
</trkpt>
<trkpt lat="56.008057" lon="26.559231">
<ele>110.264709</ele>
<time>2010-08-29T10:07:36Z</time>
<desc>lat.=56.008057, lon.=26.559231, Alt.=110.264709m. Speed=9.252000m/h.</desc>
<speed>2.570000</speed>
</trkpt>
<trkpt lat="56.008072" lon="26.559212">
<ele>109.874084</ele>
<time>2010-08-29T10:07:37Z</time>
<desc>lat.=56.008072, lon.=26.559212, Alt.=109.874084m. Speed=5.760000m/h.</desc>
<speed>1.600000</speed>
</trkpt>
<trkpt lat="56.008095" lon="26.559191">
<ele>109.401428</ele>
<time>2010-08-29T10:07:38Z</time>
<desc>lat.=56.008095, lon.=26.559191, Alt.=109.401428m. Speed=6.372000m/h.</desc>
<speed>1.770000</speed>
</trkpt>
<trkpt lat="56.008118" lon="26.559155">
<ele>109.102600</ele>
<time>2010-08-29T10:07:39Z</time>
<desc>lat.=56.008118, lon.=26.559155, Alt.=109.102600m. Speed=8.604000m/h.</desc>
<speed>2.390000</speed>
</trkpt>
<trkpt lat="56.008144" lon="26.559116">
<ele>108.206116</ele>
<time>2010-08-29T10:07:40Z</time>
<desc>lat.=56.008144, lon.=26.559116, Alt.=108.206116m. Speed=8.208000m/h.</desc>
<speed>2.280000</speed>
</trkpt>
<trkpt lat="56.008167" lon="26.559092">
<ele>107.458069</ele>
<time>2010-08-29T10:07:41Z</time>
<desc>lat.=56.008167, lon.=26.559092, Alt.=107.458069m. Speed=6.804000m/h.</desc>
<speed>1.890000</speed>
</trkpt>
<trkpt lat="56.008186" lon="26.559063">
<ele>106.893616</ele>
<time>2010-08-29T10:07:42Z</time>
<desc>lat.=56.008186, lon.=26.559063, Alt.=106.893616m. Speed=8.820000m/h.</desc>
<speed>2.450000</speed>
</trkpt>
<trkpt lat="56.008209" lon="26.559032">
<ele>106.301819</ele>
<time>2010-08-29T10:07:43Z</time>
<desc>lat.=56.008209, lon.=26.559032, Alt.=106.301819m. Speed=9.000000m/h.</desc>
<speed>2.500000</speed>
</trkpt>
<trkpt lat="56.008244" lon="26.558996">
<ele>105.790100</ele>
<time>2010-08-29T10:07:44Z</time>
<desc>lat.=56.008244, lon.=26.558996, Alt.=105.790100m. Speed=10.656000m/h.</desc>
<speed>2.960000</speed>
</trkpt>
<trkpt lat="56.008274" lon="26.558971">
<ele>105.124084</ele>
<time>2010-08-29T10:07:45Z</time>
<desc>lat.=56.008274, lon.=26.558971, Alt.=105.124084m. Speed=6.588000m/h.</desc>
<speed>1.830000</speed>
</trkpt>
<trkpt lat="56.008305" lon="26.558945">
<ele>104.575256</ele>
<time>2010-08-29T10:07:46Z</time>
<desc>lat.=56.008305, lon.=26.558945, Alt.=104.575256m. Speed=7.668000m/h.</desc>
<speed>2.130000</speed>
</trkpt>
<trkpt lat="56.008339" lon="26.558916">
<ele>104.333069</ele>
<time>2010-08-29T10:07:47Z</time>
<desc>lat.=56.008339, lon.=26.558916, Alt.=104.333069m. Speed=10.188000m/h.</desc>
<speed>2.830000</speed>
</trkpt>
<trkpt lat="56.008373" lon="26.558865">
<ele>103.963928</ele>
<time>2010-08-29T10:07:48Z</time>
<desc>lat.=56.008373, lon.=26.558865, Alt.=103.963928m. Speed=9.252000m/h.</desc>
<speed>2.570000</speed>
</trkpt>
<trkpt lat="56.008396" lon="26.558830">
<ele>103.672913</ele>
<time>2010-08-29T10:07:49Z</time>
<desc>lat.=56.008396, lon.=26.558830, Alt.=103.672913m. Speed=7.488000m/h.</desc>
<speed>2.080000</speed>
</trkpt>
<trkpt lat="56.008423" lon="26.558798">
<ele>103.002991</ele>
<time>2010-08-29T10:07:50Z</time>
<desc>lat.=56.008423, lon.=26.558798, Alt.=103.002991m. Speed=10.440000m/h.</desc>
<speed>2.900000</speed>
</trkpt>
<trkpt lat="56.008461" lon="26.558758">
<ele>102.766663</ele>
<time>2010-08-29T10:07:51Z</time>
<desc>lat.=56.008461, lon.=26.558758, Alt.=102.766663m. Speed=7.524000m/h.</desc>
<speed>2.090000</speed>
</trkpt>
<trkpt lat="56.008492" lon="26.558729">
<ele>101.960022</ele>
<time>2010-08-29T10:07:52Z</time>
<desc>lat.=56.008492, lon.=26.558729, Alt.=101.960022m. Speed=7.524000m/h.</desc>
<speed>2.090000</speed>
</trkpt>
<trkpt lat="56.008522" lon="26.558699">
<ele>101.372131</ele>
<time>2010-08-29T10:07:53Z</time>
<desc>lat.=56.008522, lon.=26.558699, Alt.=101.372131m. Speed=9.396000m/h.</desc>
<speed>2.610000</speed>
</trkpt>
<trkpt lat="56.008545" lon="26.558670">
<ele>100.680725</ele>
<time>2010-08-29T10:07:54Z</time>
<desc>lat.=56.008545, lon.=26.558670, Alt.=100.680725m. Speed=7.560000m/h.</desc>
<speed>2.100000</speed>
</trkpt>
<trkpt lat="56.008553" lon="26.558651">
<ele>100.044006</ele>
<time>2010-08-29T10:07:55Z</time>
<desc>lat.=56.008553, lon.=26.558651, Alt.=100.044006m. Speed=3.312000m/h.</desc>
<speed>0.920000</speed>
</trkpt>
<trkpt lat="56.008564" lon="26.558636">
<ele>99.645569</ele>
<time>2010-08-29T10:07:56Z</time>
<desc>lat.=56.008564, lon.=26.558636, Alt.=99.645569m. Speed=4.644000m/h.</desc>
<speed>1.290000</speed>
</trkpt>
<trkpt lat="56.008587" lon="26.558622">
<ele>99.165100</ele>
<time>2010-08-29T10:07:57Z</time>
<desc>lat.=56.008587, lon.=26.558622, Alt.=99.165100m. Speed=8.640000m/h.</desc>
<speed>2.400000</speed>
</trkpt>
<trkpt lat="56.008610" lon="26.558605">
<ele>98.840881</ele>
<time>2010-08-29T10:07:58Z</time>
<desc>lat.=56.008610, lon.=26.558605, Alt.=98.840881m. Speed=7.416000m/h.</desc>
<speed>2.060000</speed>
</trkpt>
<trkpt lat="56.008625" lon="26.558584">
<ele>98.241272</ele>
<time>2010-08-29T10:07:59Z</time>
<desc>lat.=56.008625, lon.=26.558584, Alt.=98.241272m. Speed=4.716000m/h.</desc>
<speed>1.310000</speed>
</trkpt>
<trkpt lat="56.008648" lon="26.558571">
<ele>96.852600</ele>
<time>2010-08-29T10:08:00Z</time>
<desc>lat.=56.008648, lon.=26.558571, Alt.=96.852600m. Speed=2.772000m/h.</desc>
<speed>0.770000</speed>
</trkpt>
<trkpt lat="56.008663" lon="26.558559">
<ele>96.233459</ele>
<time>2010-08-29T10:08:01Z</time>
<desc>lat.=56.008663, lon.=26.558559, Alt.=96.233459m. Speed=3.348000m/h.</desc>
<speed>0.930000</speed>
</trkpt>
<trkpt lat="56.008682" lon="26.558556">
<ele>95.669006</ele>
<time>2010-08-29T10:08:02Z</time>
<desc>lat.=56.008682, lon.=26.558556, Alt.=95.669006m. Speed=2.340000m/h.</desc>
<speed>0.650000</speed>
</trkpt>
<trkpt lat="56.008698" lon="26.558546">
<ele>95.169006</ele>
<time>2010-08-29T10:08:03Z</time>
<desc>lat.=56.008698, lon.=26.558546, Alt.=95.169006m. Speed=2.952000m/h.</desc>
<speed>0.820000</speed>
</trkpt>
<trkpt lat="56.008713" lon="26.558538">
<ele>94.637756</ele>
<time>2010-08-29T10:08:04Z</time>
<desc>lat.=56.008713, lon.=26.558538, Alt.=94.637756m. Speed=2.088000m/h.</desc>
<speed>0.580000</speed>
</trkpt>
<trkpt lat="56.008724" lon="26.558529">
<ele>93.936584</ele>
<time>2010-08-29T10:08:05Z</time>
<desc>lat.=56.008724, lon.=26.558529, Alt.=93.936584m. Speed=1.836000m/h.</desc>
<speed>0.510000</speed>
</trkpt>
<trkpt lat="56.008747" lon="26.558523">
<ele>93.368225</ele>
<time>2010-08-29T10:08:06Z</time>
<desc>lat.=56.008747, lon.=26.558523, Alt.=93.368225m. Speed=3.492000m/h.</desc>
<speed>0.970000</speed>
</trkpt>
<trkpt lat="56.008770" lon="26.558517">
<ele>92.862366</ele>
<time>2010-08-29T10:08:07Z</time>
<desc>lat.=56.008770, lon.=26.558517, Alt.=92.862366m. Speed=3.312000m/h.</desc>
<speed>0.920000</speed>
</trkpt>
<trkpt lat="56.008797" lon="26.558506">
<ele>92.264709</ele>
<time>2010-08-29T10:08:08Z</time>
<desc>lat.=56.008797, lon.=26.558506, Alt.=92.264709m. Speed=4.212000m/h.</desc>
<speed>1.170000</speed>
</trkpt>
<trkpt lat="56.008823" lon="26.558491">
<ele>91.588928</ele>
<time>2010-08-29T10:08:09Z</time>
<desc>lat.=56.008823, lon.=26.558491, Alt.=91.588928m. Speed=4.644000m/h.</desc>
<speed>1.290000</speed>
</trkpt>
<trkpt lat="56.008839" lon="26.558481">
<ele>91.042053</ele>
<time>2010-08-29T10:08:10Z</time>
<desc>lat.=56.008839, lon.=26.558481, Alt.=91.042053m. Speed=3.528000m/h.</desc>
<speed>0.980000</speed>
</trkpt>
<trkpt lat="56.008858" lon="26.558468">
<ele>90.499084</ele>
<time>2010-08-29T10:08:11Z</time>
<desc>lat.=56.008858, lon.=26.558468, Alt.=90.499084m. Speed=4.140000m/h.</desc>
<speed>1.150000</speed>
</trkpt>
<trkpt lat="56.008888" lon="26.558449">
<ele>89.889709</ele>
<time>2010-08-29T10:08:12Z</time>
<desc>lat.=56.008888, lon.=26.558449, Alt.=89.889709m. Speed=5.976000m/h.</desc>
<speed>1.660000</speed>
</trkpt>
<trkpt lat="56.008934" lon="26.558443">
<ele>89.385803</ele>
<time>2010-08-29T10:08:13Z</time>
<desc>lat.=56.008934, lon.=26.558443, Alt.=89.385803m. Speed=6.156000m/h.</desc>
<speed>1.710000</speed>
</trkpt>
<trkpt lat="56.008949" lon="26.558422">
<ele>88.813538</ele>
<time>2010-08-29T10:08:14Z</time>
<desc>lat.=56.008949, lon.=26.558422, Alt.=88.813538m. Speed=5.436000m/h.</desc>
<speed>1.510000</speed>
</trkpt>
<trkpt lat="56.008976" lon="26.558409">
<ele>88.325256</ele>
<time>2010-08-29T10:08:15Z</time>
<desc>lat.=56.008976, lon.=26.558409, Alt.=88.325256m. Speed=3.096000m/h.</desc>
<speed>0.860000</speed>
</trkpt>
<trkpt lat="56.008991" lon="26.558393">
<ele>87.799866</ele>
<time>2010-08-29T10:08:16Z</time>
<desc>lat.=56.008991, lon.=26.558393, Alt.=87.799866m. Speed=4.464000m/h.</desc>
<speed>1.240000</speed>
</trkpt>
<trkpt lat="56.009010" lon="26.558380">
<ele>87.317444</ele>
<time>2010-08-29T10:08:17Z</time>
<desc>lat.=56.009010, lon.=26.558380, Alt.=87.317444m. Speed=3.672000m/h.</desc>
<speed>1.020000</speed>
</trkpt>
<trkpt lat="56.009026" lon="26.558353">
<ele>87.471741</ele>
<time>2010-08-29T10:08:18Z</time>
<desc>lat.=56.009026, lon.=26.558353, Alt.=87.471741m. Speed=5.220000m/h.</desc>
<speed>1.450000</speed>
</trkpt>
<trkpt lat="56.009052" lon="26.558344">
<ele>86.645569</ele>
<time>2010-08-29T10:08:19Z</time>
<desc>lat.=56.009052, lon.=26.558344, Alt.=86.645569m. Speed=2.556000m/h.</desc>
<speed>0.710000</speed>
</trkpt>
<trkpt lat="56.009060" lon="26.558342">
<ele>85.942444</ele>
<time>2010-08-29T10:08:20Z</time>
<desc>lat.=56.009060, lon.=26.558342, Alt.=85.942444m. Speed=0.720000m/h.</desc>
<speed>0.200000</speed>
</trkpt>
<trkpt lat="56.009071" lon="26.558336">
<ele>85.774475</ele>
<time>2010-08-29T10:08:21Z</time>
<desc>lat.=56.009071, lon.=26.558336, Alt.=85.774475m. Speed=1.728000m/h.</desc>
<speed>0.480000</speed>
</trkpt>
<trkpt lat="56.009090" lon="26.558315">
<ele>85.438538</ele>
<time>2010-08-29T10:08:22Z</time>
<desc>lat.=56.009090, lon.=26.558315, Alt.=85.438538m. Speed=3.996000m/h.</desc>
<speed>1.110000</speed>
</trkpt>
<trkpt lat="56.009106" lon="26.558300">
<ele>85.139709</ele>
<time>2010-08-29T10:08:23Z</time>
<desc>lat.=56.009106, lon.=26.558300, Alt.=85.139709m. Speed=4.284000m/h.</desc>
<speed>1.190000</speed>
</trkpt>
<trkpt lat="56.009106" lon="26.558298">
<ele>84.829163</ele>
<time>2010-08-29T10:08:24Z</time>
<desc>lat.=56.009106, lon.=26.558298, Alt.=84.829163m. Speed=1.944000m/h.</desc>
<speed>0.540000</speed>
</trkpt>
<trkpt lat="56.009121" lon="26.558281">
<ele>84.456116</ele>
<time>2010-08-29T10:08:25Z</time>
<desc>lat.=56.009121, lon.=26.558281, Alt.=84.456116m. Speed=2.484000m/h.</desc>
<speed>0.690000</speed>
</trkpt>
<trkpt lat="56.009140" lon="26.558270">
<ele>84.071350</ele>
<time>2010-08-29T10:08:26Z</time>
<desc>lat.=56.009140, lon.=26.558270, Alt.=84.071350m. Speed=2.592000m/h.</desc>
<speed>0.720000</speed>
</trkpt>
<trkpt lat="56.009155" lon="26.558266">
<ele>83.581116</ele>
<time>2010-08-29T10:08:27Z</time>
<desc>lat.=56.009155, lon.=26.558266, Alt.=83.581116m. Speed=0.216000m/h.</desc>
<speed>0.060000</speed>
</trkpt>
<trkpt lat="56.009167" lon="26.558270">
<ele>83.174866</ele>
<time>2010-08-29T10:08:28Z</time>
<desc>lat.=56.009167, lon.=26.558270, Alt.=83.174866m. Speed=3.564000m/h.</desc>
<speed>0.990000</speed>
</trkpt>
<trkpt lat="56.009197" lon="26.558252">
<ele>82.698303</ele>
<time>2010-08-29T10:08:29Z</time>
<desc>lat.=56.009197, lon.=26.558252, Alt.=82.698303m. Speed=1.188000m/h.</desc>
<speed>0.330000</speed>
</trkpt>
<trkpt lat="56.009235" lon="26.558243">
<ele>82.198303</ele>
<time>2010-08-29T10:08:30Z</time>
<desc>lat.=56.009235, lon.=26.558243, Alt.=82.198303m. Speed=3.420000m/h.</desc>
<speed>0.950000</speed>
</trkpt>
<trkpt lat="56.009258" lon="26.558233">
<ele>81.735413</ele>
<time>2010-08-29T10:08:31Z</time>
<desc>lat.=56.009258, lon.=26.558233, Alt.=81.735413m. Speed=1.620000m/h.</desc>
<speed>0.450000</speed>
</trkpt>
<trkpt lat="56.009274" lon="26.558229">
<ele>81.026428</ele>
<time>2010-08-29T10:08:32Z</time>
<desc>lat.=56.009274, lon.=26.558229, Alt.=81.026428m. Speed=1.188000m/h.</desc>
<speed>0.330000</speed>
</trkpt>
<trkpt lat="56.009281" lon="26.558229">
<ele>80.766663</ele>
<time>2010-08-29T10:08:33Z</time>
<desc>lat.=56.009281, lon.=26.558229, Alt.=80.766663m. Speed=0.576000m/h.</desc>
<speed>0.160000</speed>
</trkpt>
<trkpt lat="56.009293" lon="26.558229">
<ele>80.719788</ele>
<time>2010-08-29T10:08:34Z</time>
<desc>lat.=56.009293, lon.=26.558229, Alt.=80.719788m. Speed=0.576000m/h.</desc>
<speed>0.160000</speed>
</trkpt>
<trkpt lat="56.009304" lon="26.558224">
<ele>80.538147</ele>
<time>2010-08-29T10:08:35Z</time>
<desc>lat.=56.009304, lon.=26.558224, Alt.=80.538147m. Speed=1.044000m/h.</desc>
<speed>0.290000</speed>
</trkpt>
<trkpt lat="56.009312" lon="26.558228">
<ele>80.571350</ele>
<time>2010-08-29T10:08:36Z</time>
<desc>lat.=56.009312, lon.=26.558228, Alt.=80.571350m. Speed=1.908000m/h.</desc>
<speed>0.530000</speed>
</trkpt>
<trkpt lat="56.009335" lon="26.558218">
<ele>80.159241</ele>
<time>2010-08-29T10:08:37Z</time>
<desc>lat.=56.009335, lon.=26.558218, Alt.=80.159241m. Speed=1.296000m/h.</desc>
<speed>0.360000</speed>
</trkpt>
<trkpt lat="56.009361" lon="26.558237">
<ele>79.585022</ele>
<time>2010-08-29T10:08:38Z</time>
<desc>lat.=56.009361, lon.=26.558237, Alt.=79.585022m. Speed=1.260000m/h.</desc>
<speed>0.350000</speed>
</trkpt>
<trkpt lat="56.009380" lon="26.558224">
<ele>79.077209</ele>
<time>2010-08-29T10:08:39Z</time>
<desc>lat.=56.009380, lon.=26.558224, Alt.=79.077209m. Speed=1.260000m/h.</desc>
<speed>0.350000</speed>
</trkpt>
<trkpt lat="56.009396" lon="26.558218">
<ele>78.110413</ele>
<time>2010-08-29T10:08:40Z</time>
<desc>lat.=56.009396, lon.=26.558218, Alt.=78.110413m. Speed=0.720000m/h.</desc>
<speed>0.200000</speed>
</trkpt>
<trkpt lat="56.009411" lon="26.558210">
<ele>78.030334</ele>
<time>2010-08-29T10:08:41Z</time>
<desc>lat.=56.009411, lon.=26.558210, Alt.=78.030334m. Speed=1.692000m/h.</desc>
<speed>0.470000</speed>
</trkpt>
<trkpt lat="56.009441" lon="26.558220">
<ele>77.674866</ele>
<time>2010-08-29T10:08:42Z</time>
<desc>lat.=56.009441, lon.=26.558220, Alt.=77.674866m. Speed=2.124000m/h.</desc>
<speed>0.590000</speed>
</trkpt>
<trkpt lat="56.009460" lon="26.558229">
<ele>77.338928</ele>
<time>2010-08-29T10:08:43Z</time>
<desc>lat.=56.009460, lon.=26.558229, Alt.=77.338928m. Speed=1.584000m/h.</desc>
<speed>0.440000</speed>
</trkpt>
<trkpt lat="56.009506" lon="26.558220">
<ele>76.741272</ele>
<time>2010-08-29T10:08:44Z</time>
<desc>lat.=56.009506, lon.=26.558220, Alt.=76.741272m. Speed=2.340000m/h.</desc>
<speed>0.650000</speed>
</trkpt>
<trkpt lat="56.009514" lon="26.558222">
<ele>76.483459</ele>
<time>2010-08-29T10:08:45Z</time>
<desc>lat.=56.009514, lon.=26.558222, Alt.=76.483459m. Speed=2.340000m/h.</desc>
<speed>0.650000</speed>
</trkpt>
<trkpt lat="56.009537" lon="26.558210">
<ele>76.202209</ele>
<time>2010-08-29T10:08:46Z</time>
<desc>lat.=56.009537, lon.=26.558210, Alt.=76.202209m. Speed=2.304000m/h.</desc>
<speed>0.640000</speed>
</trkpt>
<trkpt lat="56.009563" lon="26.558193">
<ele>75.954163</ele>
<time>2010-08-29T10:08:47Z</time>
<desc>lat.=56.009563, lon.=26.558193, Alt.=75.954163m. Speed=2.772000m/h.</desc>
<speed>0.770000</speed>
</trkpt>
<trkpt lat="56.009590" lon="26.558184">
<ele>75.612366</ele>
<time>2010-08-29T10:08:48Z</time>
<desc>lat.=56.009590, lon.=26.558184, Alt.=75.612366m. Speed=2.664000m/h.</desc>
<speed>0.740000</speed>
</trkpt>
<trkpt lat="56.009613" lon="26.558176">
<ele>75.381897</ele>
<time>2010-08-29T10:08:49Z</time>
<desc>lat.=56.009613, lon.=26.558176, Alt.=75.381897m. Speed=2.628000m/h.</desc>
<speed>0.730000</speed>
</trkpt>
<trkpt lat="56.009617" lon="26.558176">
<ele>75.124084</ele>
<time>2010-08-29T10:08:50Z</time>
<desc>lat.=56.009617, lon.=26.558176, Alt.=75.124084m. Speed=2.052000m/h.</desc>
<speed>0.570000</speed>
</trkpt>
<trkpt lat="56.009647" lon="26.558186">
<ele>74.434631</ele>
<time>2010-08-29T10:08:51Z</time>
<desc>lat.=56.009647, lon.=26.558186, Alt.=74.434631m. Speed=2.772000m/h.</desc>
<speed>0.770000</speed>
</trkpt>
<trkpt lat="56.009659" lon="26.558176">
<ele>74.090881</ele>
<time>2010-08-29T10:08:52Z</time>
<desc>lat.=56.009659, lon.=26.558176, Alt.=74.090881m. Speed=2.340000m/h.</desc>
<speed>0.650000</speed>
</trkpt>
<trkpt lat="56.009674" lon="26.558168">
<ele>73.803772</ele>
<time>2010-08-29T10:08:53Z</time>
<desc>lat.=56.009674, lon.=26.558168, Alt.=73.803772m. Speed=1.800000m/h.</desc>
<speed>0.500000</speed>
</trkpt>
<trkpt lat="56.009686" lon="26.558165">
<ele>73.504944</ele>
<time>2010-08-29T10:08:54Z</time>
<desc>lat.=56.009686, lon.=26.558165, Alt.=73.504944m. Speed=2.124000m/h.</desc>
<speed>0.590000</speed>
</trkpt>
<trkpt lat="56.009693" lon="26.558157">
<ele>73.122131</ele>
<time>2010-08-29T10:08:55Z</time>
<desc>lat.=56.009693, lon.=26.558157, Alt.=73.122131m. Speed=1.800000m/h.</desc>
<speed>0.500000</speed>
</trkpt>
<trkpt lat="56.009697" lon="26.558149">
<ele>72.788147</ele>
<time>2010-08-29T10:08:56Z</time>
<desc>lat.=56.009697, lon.=26.558149, Alt.=72.788147m. Speed=1.044000m/h.</desc>
<speed>0.290000</speed>
</trkpt>
<trkpt lat="56.009708" lon="26.558146">
<ele>72.487366</ele>
<time>2010-08-29T10:08:57Z</time>
<desc>lat.=56.009708, lon.=26.558146, Alt.=72.487366m. Speed=1.476000m/h.</desc>
<speed>0.410000</speed>
</trkpt>
<trkpt lat="56.009716" lon="26.558149">
<ele>72.252991</ele>
<time>2010-08-29T10:08:58Z</time>
<desc>lat.=56.009716, lon.=26.558149, Alt.=72.252991m. Speed=1.620000m/h.</desc>
<speed>0.450000</speed>
</trkpt>
<trkpt lat="56.009727" lon="26.558153">
<ele>71.751038</ele>
<time>2010-08-29T10:08:59Z</time>
<desc>lat.=56.009727, lon.=26.558153, Alt.=71.751038m. Speed=1.332000m/h.</desc>
<speed>0.370000</speed>
</trkpt>
<trkpt lat="56.009750" lon="26.558151">
<ele>71.235413</ele>
<time>2010-08-29T10:09:00Z</time>
<desc>lat.=56.009750, lon.=26.558151, Alt.=71.235413m. Speed=2.304000m/h.</desc>
<speed>0.640000</speed>
</trkpt>
<trkpt lat="56.009773" lon="26.558165">
<ele>70.770569</ele>
<time>2010-08-29T10:09:01Z</time>
<desc>lat.=56.009773, lon.=26.558165, Alt.=70.770569m. Speed=2.880000m/h.</desc>
<speed>0.800000</speed>
</trkpt>
<trkpt lat="56.009792" lon="26.558165">
<ele>70.141663</ele>
<time>2010-08-29T10:09:02Z</time>
<desc>lat.=56.009792, lon.=26.558165, Alt.=70.141663m. Speed=3.024000m/h.</desc>
<speed>0.840000</speed>
</trkpt>
<trkpt lat="56.009804" lon="26.558168">
<ele>69.829163</ele>
<time>2010-08-29T10:09:03Z</time>
<desc>lat.=56.009804, lon.=26.558168, Alt.=69.829163m. Speed=2.808000m/h.</desc>
<speed>0.780000</speed>
</trkpt>
<trkpt lat="56.009808" lon="26.558178">
<ele>69.489319</ele>
<time>2010-08-29T10:09:04Z</time>
<desc>lat.=56.009808, lon.=26.558178, Alt.=69.489319m. Speed=2.304000m/h.</desc>
<speed>0.640000</speed>
</trkpt>
<trkpt lat="56.009815" lon="26.558189">
<ele>69.032288</ele>
<time>2010-08-29T10:09:05Z</time>
<desc>lat.=56.009815, lon.=26.558189, Alt.=69.032288m. Speed=1.980000m/h.</desc>
<speed>0.550000</speed>
</trkpt>
<trkpt lat="56.009838" lon="26.558207">
<ele>68.657288</ele>
<time>2010-08-29T10:09:06Z</time>
<desc>lat.=56.009838, lon.=26.558207, Alt.=68.657288m. Speed=2.304000m/h.</desc>
<speed>0.640000</speed>
</trkpt>
<trkpt lat="56.009853" lon="26.558207">
<ele>68.272522</ele>
<time>2010-08-29T10:09:07Z</time>
<desc>lat.=56.009853, lon.=26.558207, Alt.=68.272522m. Speed=1.908000m/h.</desc>
<speed>0.530000</speed>
</trkpt>
<trkpt lat="56.009876" lon="26.558195">
<ele>67.985413</ele>
<time>2010-08-29T10:09:08Z</time>
<desc>lat.=56.009876, lon.=26.558195, Alt.=67.985413m. Speed=2.736000m/h.</desc>
<speed>0.760000</speed>
</trkpt>
<trkpt lat="56.009892" lon="26.558201">
<ele>67.674866</ele>
<time>2010-08-29T10:09:09Z</time>
<desc>lat.=56.009892, lon.=26.558201, Alt.=67.674866m. Speed=2.736000m/h.</desc>
<speed>0.760000</speed>
</trkpt>
<trkpt lat="56.009903" lon="26.558203">
<ele>67.333069</ele>
<time>2010-08-29T10:09:10Z</time>
<desc>lat.=56.009903, lon.=26.558203, Alt.=67.333069m. Speed=2.808000m/h.</desc>
<speed>0.780000</speed>
</trkpt>
<trkpt lat="56.009922" lon="26.558207">
<ele>67.014709</ele>
<time>2010-08-29T10:09:11Z</time>
<desc>lat.=56.009922, lon.=26.558207, Alt.=67.014709m. Speed=3.096000m/h.</desc>
<speed>0.860000</speed>
</trkpt>
<trkpt lat="56.009968" lon="26.558241">
<ele>66.481506</ele>
<time>2010-08-29T10:09:12Z</time>
<desc>lat.=56.009968, lon.=26.558241, Alt.=66.481506m. Speed=4.284000m/h.</desc>
<speed>1.190000</speed>
</trkpt>
<trkpt lat="56.009998" lon="26.558271">
<ele>66.100647</ele>
<time>2010-08-29T10:09:13Z</time>
<desc>lat.=56.009998, lon.=26.558271, Alt.=66.100647m. Speed=4.752000m/h.</desc>
<speed>1.320000</speed>
</trkpt>
<trkpt lat="56.010036" lon="26.558296">
<ele>65.665100</ele>
<time>2010-08-29T10:09:14Z</time>
<desc>lat.=56.010036, lon.=26.558296, Alt.=65.665100m. Speed=4.680000m/h.</desc>
<speed>1.300000</speed>
</trkpt>
<trkpt lat="56.010071" lon="26.558319">
<ele>65.042053</ele>
<time>2010-08-29T10:09:15Z</time>
<desc>lat.=56.010071, lon.=26.558319, Alt.=65.042053m. Speed=5.292000m/h.</desc>
<speed>1.470000</speed>
</trkpt>
<trkpt lat="56.010105" lon="26.558329">
<ele>64.186584</ele>
<time>2010-08-29T10:09:16Z</time>
<desc>lat.=56.010105, lon.=26.558329, Alt.=64.186584m. Speed=5.004000m/h.</desc>
<speed>1.390000</speed>
</trkpt>
<trkpt lat="56.010162" lon="26.558336">
<ele>62.494659</ele>
<time>2010-08-29T10:09:17Z</time>
<desc>lat.=56.010162, lon.=26.558336, Alt.=62.494659m. Speed=5.148000m/h.</desc>
<speed>1.430000</speed>
</trkpt>
<trkpt lat="56.010181" lon="26.558348">
<ele>62.060089</ele>
<time>2010-08-29T10:09:18Z</time>
<desc>lat.=56.010181, lon.=26.558348, Alt.=62.060089m. Speed=5.220000m/h.</desc>
<speed>1.450000</speed>
</trkpt>
<trkpt lat="56.010212" lon="26.558344">
<ele>61.504425</ele>
<time>2010-08-29T10:09:19Z</time>
<desc>lat.=56.010212, lon.=26.558344, Alt.=61.504425m. Speed=5.760000m/h.</desc>
<speed>1.600000</speed>
</trkpt>
<trkpt lat="56.010216" lon="26.558353">
<ele>61.155792</ele>
<time>2010-08-29T10:09:20Z</time>
<desc>lat.=56.010216, lon.=26.558353, Alt.=61.155792m. Speed=2.988000m/h.</desc>
<speed>0.830000</speed>
</trkpt>
<trkpt lat="56.010223" lon="26.558363">
<ele>60.778839</ele>
<time>2010-08-29T10:09:21Z</time>
<desc>lat.=56.010223, lon.=26.558363, Alt.=60.778839m. Speed=1.944000m/h.</desc>
<speed>0.540000</speed>
</trkpt>
<trkpt lat="56.010239" lon="26.558371">
<ele>60.398956</ele>
<time>2010-08-29T10:09:22Z</time>
<desc>lat.=56.010239, lon.=26.558371, Alt.=60.398956m. Speed=4.068000m/h.</desc>
<speed>1.130000</speed>
</trkpt>
<trkpt lat="56.010246" lon="26.558372">
<ele>59.951691</ele>
<time>2010-08-29T10:09:23Z</time>
<desc>lat.=56.010246, lon.=26.558372, Alt.=59.951691m. Speed=0.900000m/h.</desc>
<speed>0.250000</speed>
</trkpt>
<trkpt lat="56.010258" lon="26.558372">
<ele>59.619659</ele>
<time>2010-08-29T10:09:24Z</time>
<desc>lat.=56.010258, lon.=26.558372, Alt.=59.619659m. Speed=2.196000m/h.</desc>
<speed>0.610000</speed>
</trkpt>
<trkpt lat="56.010281" lon="26.558369">
<ele>58.837433</ele>
<time>2010-08-29T10:09:25Z</time>
<desc>lat.=56.010281, lon.=26.558369, Alt.=58.837433m. Speed=4.176000m/h.</desc>
<speed>1.160000</speed>
</trkpt>
<trkpt lat="56.010296" lon="26.558363">
<ele>58.473175</ele>
<time>2010-08-29T10:09:26Z</time>
<desc>lat.=56.010296, lon.=26.558363, Alt.=58.473175m. Speed=4.932000m/h.</desc>
<speed>1.370000</speed>
</trkpt>
<trkpt lat="56.010311" lon="26.558359">
<ele>58.141144</ele>
<time>2010-08-29T10:09:27Z</time>
<desc>lat.=56.010311, lon.=26.558359, Alt.=58.141144m. Speed=5.652000m/h.</desc>
<speed>1.570000</speed>
</trkpt>
<trkpt lat="56.010330" lon="26.558369">
<ele>57.649933</ele>
<time>2010-08-29T10:09:28Z</time>
<desc>lat.=56.010330, lon.=26.558369, Alt.=57.649933m. Speed=5.076000m/h.</desc>
<speed>1.410000</speed>
</trkpt>
<trkpt lat="56.010357" lon="26.558378">
<ele>56.674347</ele>
<time>2010-08-29T10:09:29Z</time>
<desc>lat.=56.010357, lon.=26.558378, Alt.=56.674347m. Speed=3.420000m/h.</desc>
<speed>0.950000</speed>
</trkpt>
<trkpt lat="56.010372" lon="26.558390">
<ele>55.675323</ele>
<time>2010-08-29T10:09:30Z</time>
<desc>lat.=56.010372, lon.=26.558390, Alt.=55.675323m. Speed=1.980000m/h.</desc>
<speed>0.550000</speed>
</trkpt>
<trkpt lat="56.010391" lon="26.558393">
<ele>54.704620</ele>
<time>2010-08-29T10:09:31Z</time>
<desc>lat.=56.010391, lon.=26.558393, Alt.=54.704620m. Speed=3.456000m/h.</desc>
<speed>0.960000</speed>
</trkpt>
<trkpt lat="56.010426" lon="26.558393">
<ele>52.682159</ele>
<time>2010-08-29T10:09:32Z</time>
<desc>lat.=56.010426, lon.=26.558393, Alt.=52.682159m. Speed=3.060000m/h.</desc>
<speed>0.850000</speed>
</trkpt>
<trkpt lat="56.010445" lon="26.558397">
<ele>51.993683</ele>
<time>2010-08-29T10:09:33Z</time>
<desc>lat.=56.010445, lon.=26.558397, Alt.=51.993683m. Speed=4.284000m/h.</desc>
<speed>1.190000</speed>
</trkpt>
<trkpt lat="56.010464" lon="26.558397">
<ele>51.193878</ele>
<time>2010-08-29T10:09:34Z</time>
<desc>lat.=56.010464, lon.=26.558397, Alt.=51.193878m. Speed=4.608000m/h.</desc>
<speed>1.280000</speed>
</trkpt>
<trkpt lat="56.010502" lon="26.558416">
<ele>50.447784</ele>
<time>2010-08-29T10:09:35Z</time>
<desc>lat.=56.010502, lon.=26.558416, Alt.=50.447784m. Speed=5.868000m/h.</desc>
<speed>1.630000</speed>
</trkpt>
<trkpt lat="56.010532" lon="26.558428">
<ele>48.998566</ele>
<time>2010-08-29T10:09:36Z</time>
<desc>lat.=56.010532, lon.=26.558428, Alt.=48.998566m. Speed=7.704000m/h.</desc>
<speed>2.140000</speed>
</trkpt>
<trkpt lat="56.010559" lon="26.558443">
<ele>47.898956</ele>
<time>2010-08-29T10:09:37Z</time>
<desc>lat.=56.010559, lon.=26.558443, Alt.=47.898956m. Speed=7.992000m/h.</desc>
<speed>2.220000</speed>
</trkpt>
<trkpt lat="56.010624" lon="26.558456">
<ele>44.066925</ele>
<time>2010-08-29T10:09:38Z</time>
<desc>lat.=56.010624, lon.=26.558456, Alt.=44.066925m. Speed=7.812000m/h.</desc>
<speed>2.170000</speed>
</trkpt>
<trkpt lat="56.010639" lon="26.558477">
<ele>42.313019</ele>
<time>2010-08-29T10:09:39Z</time>
<desc>lat.=56.010639, lon.=26.558477, Alt.=42.313019m. Speed=5.076000m/h.</desc>
<speed>1.410000</speed>
</trkpt>
<trkpt lat="56.010658" lon="26.558485">
<ele>41.083527</ele>
<time>2010-08-29T10:09:40Z</time>
<desc>lat.=56.010658, lon.=26.558485, Alt.=41.083527m. Speed=4.500000m/h.</desc>
<speed>1.250000</speed>
</trkpt>
<trkpt lat="56.010666" lon="26.558493">
<ele>39.959503</ele>
<time>2010-08-29T10:09:41Z</time>
<desc>lat.=56.010666, lon.=26.558493, Alt.=39.959503m. Speed=1.584000m/h.</desc>
<speed>0.440000</speed>
</trkpt>
<trkpt lat="56.010674" lon="26.558495">
<ele>38.638214</ele>
<time>2010-08-29T10:09:42Z</time>
<desc>lat.=56.010674, lon.=26.558495, Alt.=38.638214m. Speed=1.116000m/h.</desc>
<speed>0.310000</speed>
</trkpt>
<trkpt lat="56.010689" lon="26.558500">
<ele>37.427277</ele>
<time>2010-08-29T10:09:43Z</time>
<desc>lat.=56.010689, lon.=26.558500, Alt.=37.427277m. Speed=3.744000m/h.</desc>
<speed>1.040000</speed>
</trkpt>
<trkpt lat="56.010700" lon="26.558523">
<ele>36.163605</ele>
<time>2010-08-29T10:09:44Z</time>
<desc>lat.=56.010700, lon.=26.558523, Alt.=36.163605m. Speed=1.548000m/h.</desc>
<speed>0.430000</speed>
</trkpt>
<trkpt lat="56.010700" lon="26.558529">
<ele>35.047394</ele>
<time>2010-08-29T10:09:45Z</time>
<desc>lat.=56.010700, lon.=26.558529, Alt.=35.047394m. Speed=0.936000m/h.</desc>
<speed>0.260000</speed>
</trkpt>
<trkpt lat="56.010704" lon="26.558538">
<ele>35.063995</ele>
<time>2010-08-29T10:09:46Z</time>
<desc>lat.=56.010704, lon.=26.558538, Alt.=35.063995m. Speed=1.404000m/h.</desc>
<speed>0.390000</speed>
</trkpt>
<trkpt lat="56.010719" lon="26.558552">
<ele>34.254425</ele>
<time>2010-08-29T10:09:47Z</time>
<desc>lat.=56.010719, lon.=26.558552, Alt.=34.254425m. Speed=1.908000m/h.</desc>
<speed>0.530000</speed>
</trkpt>
<trkpt lat="56.010731" lon="26.558548">
<ele>33.386261</ele>
<time>2010-08-29T10:09:48Z</time>
<desc>lat.=56.010731, lon.=26.558548, Alt.=33.386261m. Speed=2.088000m/h.</desc>
<speed>0.580000</speed>
</trkpt>
<trkpt lat="56.010769" lon="26.558546">
<ele>30.986588</ele>
<time>2010-08-29T10:09:49Z</time>
<desc>lat.=56.010769, lon.=26.558546, Alt.=30.986588m. Speed=1.908000m/h.</desc>
<speed>0.530000</speed>
</trkpt>
<trkpt lat="56.010784" lon="26.558542">
<ele>29.825455</ele>
<time>2010-08-29T10:09:50Z</time>
<desc>lat.=56.010784, lon.=26.558542, Alt.=29.825455m. Speed=2.340000m/h.</desc>
<speed>0.650000</speed>
</trkpt>
<trkpt lat="56.010796" lon="26.558540">
<ele>30.675552</ele>
<time>2010-08-29T10:09:51Z</time>
<desc>lat.=56.010796, lon.=26.558540, Alt.=30.675552m. Speed=1.692000m/h.</desc>
<speed>0.470000</speed>
</trkpt>
<trkpt lat="56.010803" lon="26.558533">
<ele>29.940689</ele>
<time>2010-08-29T10:09:52Z</time>
<desc>lat.=56.010803, lon.=26.558533, Alt.=29.940689m. Speed=1.800000m/h.</desc>
<speed>0.500000</speed>
</trkpt>
<trkpt lat="56.010826" lon="26.558516">
<ele>29.756607</ele>
<time>2010-08-29T10:09:53Z</time>
<desc>lat.=56.010826, lon.=26.558516, Alt.=29.756607m. Speed=1.728000m/h.</desc>
<speed>0.480000</speed>
</trkpt>
<trkpt lat="56.010845" lon="26.558508">
<ele>28.574478</ele>
<time>2010-08-29T10:09:54Z</time>
<desc>lat.=56.010845, lon.=26.558508, Alt.=28.574478m. Speed=1.440000m/h.</desc>
<speed>0.400000</speed>
</trkpt>
<trkpt lat="56.010860" lon="26.558489">
<ele>27.711685</ele>
<time>2010-08-29T10:09:55Z</time>
<desc>lat.=56.010860, lon.=26.558489, Alt.=27.711685m. Speed=1.656000m/h.</desc>
<speed>0.460000</speed>
</trkpt>
<trkpt lat="56.010891" lon="26.558470">
<ele>26.537857</ele>
<time>2010-08-29T10:09:56Z</time>
<desc>lat.=56.010891, lon.=26.558470, Alt.=26.537857m. Speed=2.304000m/h.</desc>
<speed>0.640000</speed>
</trkpt>
<trkpt lat="56.010933" lon="26.558435">
<ele>25.721451</ele>
<time>2010-08-29T10:09:57Z</time>
<desc>lat.=56.010933, lon.=26.558435, Alt.=25.721451m. Speed=3.312000m/h.</desc>
<speed>0.920000</speed>
</trkpt>
<trkpt lat="56.010960" lon="26.558409">
<ele>24.639908</ele>
<time>2010-08-29T10:09:58Z</time>
<desc>lat.=56.010960, lon.=26.558409, Alt.=24.639908m. Speed=3.420000m/h.</desc>
<speed>0.950000</speed>
</trkpt>
<trkpt lat="56.010983" lon="26.558376">
<ele>23.939224</ele>
<time>2010-08-29T10:09:59Z</time>
<desc>lat.=56.010983, lon.=26.558376, Alt.=23.939224m. Speed=4.248000m/h.</desc>
<speed>1.180000</speed>
</trkpt>
<trkpt lat="56.011002" lon="26.558342">
<ele>23.397720</ele>
<time>2010-08-29T10:10:00Z</time>
<desc>lat.=56.011002, lon.=26.558342, Alt.=23.397720m. Speed=5.112000m/h.</desc>
<speed>1.420000</speed>
</trkpt>
<trkpt lat="56.011021" lon="26.558310">
<ele>22.638443</ele>
<time>2010-08-29T10:10:01Z</time>
<desc>lat.=56.011021, lon.=26.558310, Alt.=22.638443m. Speed=4.860000m/h.</desc>
<speed>1.350000</speed>
</trkpt>
<trkpt lat="56.011066" lon="26.558249">
<ele>21.017349</ele>
<time>2010-08-29T10:10:02Z</time>
<desc>lat.=56.011066, lon.=26.558249, Alt.=21.017349m. Speed=4.716000m/h.</desc>
<speed>1.310000</speed>
</trkpt>
<trkpt lat="56.011147" lon="26.558270">
<ele>19.000259</ele>
<time>2010-08-29T10:10:03Z</time>
<desc>lat.=56.011147, lon.=26.558270, Alt.=19.000259m. Speed=4.032000m/h.</desc>
<speed>1.120000</speed>
</trkpt>
<trkpt lat="56.011162" lon="26.558249">
<ele>18.488052</ele>
<time>2010-08-29T10:10:04Z</time>
<desc>lat.=56.011162, lon.=26.558249, Alt.=18.488052m. Speed=4.356000m/h.</desc>
<speed>1.210000</speed>
</trkpt>
<trkpt lat="56.011192" lon="26.558228">
<ele>17.534927</ele>
<time>2010-08-29T10:10:05Z</time>
<desc>lat.=56.011192, lon.=26.558228, Alt.=17.534927m. Speed=3.960000m/h.</desc>
<speed>1.100000</speed>
</trkpt>
<trkpt lat="56.011227" lon="26.558201">
<ele>17.021255</ele>
<time>2010-08-29T10:10:06Z</time>
<desc>lat.=56.011227, lon.=26.558201, Alt.=17.021255m. Speed=4.320000m/h.</desc>
<speed>1.200000</speed>
</trkpt>
<trkpt lat="56.011253" lon="26.558184">
<ele>16.231216</ele>
<time>2010-08-29T10:10:07Z</time>
<desc>lat.=56.011253, lon.=26.558184, Alt.=16.231216m. Speed=4.068000m/h.</desc>
<speed>1.130000</speed>
</trkpt>
<trkpt lat="56.011295" lon="26.558170">
<ele>15.045296</ele>
<time>2010-08-29T10:10:08Z</time>
<desc>lat.=56.011295, lon.=26.558170, Alt.=15.045296m. Speed=3.816000m/h.</desc>
<speed>1.060000</speed>
</trkpt>
<trkpt lat="56.011345" lon="26.558191">
<ele>13.981087</ele>
<time>2010-08-29T10:10:09Z</time>
<desc>lat.=56.011345, lon.=26.558191, Alt.=13.981087m. Speed=3.564000m/h.</desc>
<speed>0.990000</speed>
</trkpt>
<trkpt lat="56.011395" lon="26.558203">
<ele>12.986702</ele>
<time>2010-08-29T10:10:10Z</time>
<desc>lat.=56.011395, lon.=26.558203, Alt.=12.986702m. Speed=4.248000m/h.</desc>
<speed>1.180000</speed>
</trkpt>
<trkpt lat="56.011456" lon="26.558228">
<ele>11.626839</ele>
<time>2010-08-29T10:10:11Z</time>
<desc>lat.=56.011456, lon.=26.558228, Alt.=11.626839m. Speed=5.112000m/h.</desc>
<speed>1.420000</speed>
</trkpt>
<trkpt lat="56.011505" lon="26.558273">
<ele>10.865608</ele>
<time>2010-08-29T10:10:12Z</time>
<desc>lat.=56.011505, lon.=26.558273, Alt.=10.865608m. Speed=6.732000m/h.</desc>
<speed>1.870000</speed>
</trkpt>
<trkpt lat="56.011532" lon="26.558290">
<ele>10.312630</ele>
<time>2010-08-29T10:10:13Z</time>
<desc>lat.=56.011532, lon.=26.558290, Alt.=10.312630m. Speed=5.580000m/h.</desc>
<speed>1.550000</speed>
</trkpt>
<trkpt lat="56.011543" lon="26.558292">
<ele>9.974983</ele>
<time>2010-08-29T10:10:14Z</time>
<desc>lat.=56.011543, lon.=26.558292, Alt.=9.974983m. Speed=2.664000m/h.</desc>
<speed>0.740000</speed>
</trkpt>
<trkpt lat="56.011559" lon="26.558292">
<ele>9.482063</ele>
<time>2010-08-29T10:10:15Z</time>
<desc>lat.=56.011559, lon.=26.558292, Alt.=9.482063m. Speed=3.204000m/h.</desc>
<speed>0.890000</speed>
</trkpt>
<trkpt lat="56.011585" lon="26.558292">
<ele>8.766975</ele>
<time>2010-08-29T10:10:16Z</time>
<desc>lat.=56.011585, lon.=26.558292, Alt.=8.766975m. Speed=7.452000m/h.</desc>
<speed>2.070000</speed>
</trkpt>
<trkpt lat="56.011608" lon="26.558294">
<ele>8.401253</ele>
<time>2010-08-29T10:10:17Z</time>
<desc>lat.=56.011608, lon.=26.558294, Alt.=8.401253m. Speed=8.352000m/h.</desc>
<speed>2.320000</speed>
</trkpt>
<trkpt lat="56.011635" lon="26.558296">
<ele>8.058968</ele>
<time>2010-08-29T10:10:18Z</time>
<desc>lat.=56.011635, lon.=26.558296, Alt.=8.058968m. Speed=8.460000m/h.</desc>
<speed>2.350000</speed>
</trkpt>
<trkpt lat="56.011654" lon="26.558302">
<ele>7.474918</ele>
<time>2010-08-29T10:10:19Z</time>
<desc>lat.=56.011654, lon.=26.558302, Alt.=7.474918m. Speed=5.184000m/h.</desc>
<speed>1.440000</speed>
</trkpt>
<trkpt lat="56.011669" lon="26.558302">
<ele>6.816227</ele>
<time>2010-08-29T10:10:20Z</time>
<desc>lat.=56.011669, lon.=26.558302, Alt.=6.816227m. Speed=4.788000m/h.</desc>
<speed>1.330000</speed>
</trkpt>
<trkpt lat="56.011688" lon="26.558296">
<ele>5.646427</ele>
<time>2010-08-29T10:10:21Z</time>
<desc>lat.=56.011688, lon.=26.558296, Alt.=5.646427m. Speed=4.680000m/h.</desc>
<speed>1.300000</speed>
</trkpt>
<trkpt lat="56.011707" lon="26.558304">
<ele>5.217228</ele>
<time>2010-08-29T10:10:22Z</time>
<desc>lat.=56.011707, lon.=26.558304, Alt.=5.217228m. Speed=5.256000m/h.</desc>
<speed>1.460000</speed>
</trkpt>
<trkpt lat="56.011723" lon="26.558304">
<ele>4.721378</ele>
<time>2010-08-29T10:10:23Z</time>
<desc>lat.=56.011723, lon.=26.558304, Alt.=4.721378m. Speed=5.580000m/h.</desc>
<speed>1.550000</speed>
</trkpt>
<trkpt lat="56.011742" lon="26.558310">
<ele>3.812838</ele>
<time>2010-08-29T10:10:24Z</time>
<desc>lat.=56.011742, lon.=26.558310, Alt.=3.812838m. Speed=4.140000m/h.</desc>
<speed>1.150000</speed>
</trkpt>
<trkpt lat="56.011761" lon="26.558315">
<ele>2.916536</ele>
<time>2010-08-29T10:10:25Z</time>
<desc>lat.=56.011761, lon.=26.558315, Alt.=2.916536m. Speed=5.004000m/h.</desc>
<speed>1.390000</speed>
</trkpt>
<trkpt lat="56.011780" lon="26.558321">
<ele>2.107943</ele>
<time>2010-08-29T10:10:26Z</time>
<desc>lat.=56.011780, lon.=26.558321, Alt.=2.107943m. Speed=3.312000m/h.</desc>
<speed>0.920000</speed>
</trkpt>
<trkpt lat="56.011791" lon="26.558325">
<ele>1.074113</ele>
<time>2010-08-29T10:10:27Z</time>
<desc>lat.=56.011791, lon.=26.558325, Alt.=1.074113m. Speed=2.808000m/h.</desc>
<speed>0.780000</speed>
</trkpt>
<trkpt lat="56.011810" lon="26.558323">
<ele>-0.158072</ele>
<time>2010-08-29T10:10:28Z</time>
<desc>lat.=56.011810, lon.=26.558323, Alt.=-0.158072m. Speed=4.860000m/h.</desc>
<speed>1.350000</speed>
</trkpt>
<trkpt lat="56.011826" lon="26.558340">
<ele>-1.154344</ele>
<time>2010-08-29T10:10:29Z</time>
<desc>lat.=56.011826, lon.=26.558340, Alt.=-1.154344m. Speed=3.348000m/h.</desc>
<speed>0.930000</speed>
</trkpt>
<trkpt lat="56.011837" lon="26.558346">
<ele>-2.111666</ele>
<time>2010-08-29T10:10:30Z</time>
<desc>lat.=56.011837, lon.=26.558346, Alt.=-2.111666m. Speed=2.916000m/h.</desc>
<speed>0.810000</speed>
</trkpt>
<trkpt lat="56.011856" lon="26.558346">
<ele>-2.854586</ele>
<time>2010-08-29T10:10:31Z</time>
<desc>lat.=56.011856, lon.=26.558346, Alt.=-2.854586m. Speed=5.004000m/h.</desc>
<speed>1.390000</speed>
</trkpt>
<trkpt lat="56.011868" lon="26.558342">
<ele>-3.917879</ele>
<time>2010-08-29T10:10:32Z</time>
<desc>lat.=56.011868, lon.=26.558342, Alt.=-3.917879m. Speed=3.168000m/h.</desc>
<speed>0.880000</speed>
</trkpt>
<trkpt lat="56.011871" lon="26.558342">
<ele>-4.960392</ele>
<time>2010-08-29T10:10:33Z</time>
<desc>lat.=56.011871, lon.=26.558342, Alt.=-4.960392m. Speed=0.828000m/h.</desc>
<speed>0.230000</speed>
</trkpt>
<trkpt lat="56.011890" lon="26.558332">
<ele>-5.551090</ele>
<time>2010-08-29T10:10:34Z</time>
<desc>lat.=56.011890, lon.=26.558332, Alt.=-5.551090m. Speed=5.076000m/h.</desc>
<speed>1.410000</speed>
</trkpt>
<trkpt lat="56.011913" lon="26.558325">
<ele>-6.372623</ele>
<time>2010-08-29T10:10:35Z</time>
<desc>lat.=56.011913, lon.=26.558325, Alt.=-6.372623m. Speed=6.516000m/h.</desc>
<speed>1.810000</speed>
</trkpt>
<trkpt lat="56.011936" lon="26.558311">
<ele>-6.973209</ele>
<time>2010-08-29T10:10:36Z</time>
<desc>lat.=56.011936, lon.=26.558311, Alt.=-6.973209m. Speed=10.044000m/h.</desc>
<speed>2.790000</speed>
</trkpt>
<trkpt lat="56.011967" lon="26.558306">
<ele>-7.694401</ele>
<time>2010-08-29T10:10:37Z</time>
<desc>lat.=56.011967, lon.=26.558306, Alt.=-7.694401m. Speed=8.172000m/h.</desc>
<speed>2.270000</speed>
</trkpt>
<trkpt lat="56.011986" lon="26.558321">
<ele>-8.453011</ele>
<time>2010-08-29T10:10:38Z</time>
<desc>lat.=56.011986, lon.=26.558321, Alt.=-8.453011m. Speed=5.940000m/h.</desc>
<speed>1.650000</speed>
</trkpt>
<trkpt lat="56.012001" lon="26.558329">
<ele>-9.221077</ele>
<time>2010-08-29T10:10:39Z</time>
<desc>lat.=56.012001, lon.=26.558329, Alt.=-9.221077m. Speed=5.220000m/h.</desc>
<speed>1.450000</speed>
</trkpt>
<trkpt lat="56.012016" lon="26.558338">
<ele>-10.402962</ele>
<time>2010-08-29T10:10:40Z</time>
<desc>lat.=56.012016, lon.=26.558338, Alt.=-10.402962m. Speed=3.888000m/h.</desc>
<speed>1.080000</speed>
</trkpt>
<trkpt lat="56.012032" lon="26.558331">
<ele>-11.241341</ele>
<time>2010-08-29T10:10:41Z</time>
<desc>lat.=56.012032, lon.=26.558331, Alt.=-11.241341m. Speed=3.276000m/h.</desc>
<speed>0.910000</speed>
</trkpt>
<trkpt lat="56.012054" lon="26.558315">
<ele>-12.389046</ele>
<time>2010-08-29T10:10:42Z</time>
<desc>lat.=56.012054, lon.=26.558315, Alt.=-12.389046m. Speed=4.932000m/h.</desc>
<speed>1.370000</speed>
</trkpt>
<trkpt lat="56.012085" lon="26.558313">
<ele>-13.333382</ele>
<time>2010-08-29T10:10:43Z</time>
<desc>lat.=56.012085, lon.=26.558313, Alt.=-13.333382m. Speed=6.588000m/h.</desc>
<speed>1.830000</speed>
</trkpt>
<trkpt lat="56.012131" lon="26.558285">
<ele>-15.743782</ele>
<time>2010-08-29T10:10:44Z</time>
<desc>lat.=56.012131, lon.=26.558285, Alt.=-15.743782m. Speed=4.608000m/h.</desc>
<speed>1.280000</speed>
</trkpt>
<trkpt lat="56.012154" lon="26.558287">
<ele>-16.710709</ele>
<time>2010-08-29T10:10:45Z</time>
<desc>lat.=56.012154, lon.=26.558287, Alt.=-16.710709m. Speed=3.780000m/h.</desc>
<speed>1.050000</speed>
</trkpt>
<trkpt lat="56.012218" lon="26.558275">
<ele>-19.315201</ele>
<time>2010-08-29T10:10:46Z</time>
<desc>lat.=56.012218, lon.=26.558275, Alt.=-19.315201m. Speed=5.904000m/h.</desc>
<speed>1.640000</speed>
</trkpt>
<trkpt lat="56.012283" lon="26.558229">
<ele>-23.128189</ele>
<time>2010-08-29T10:10:47Z</time>
<desc>lat.=56.012283, lon.=26.558229, Alt.=-23.128189m. Speed=7.272000m/h.</desc>
<speed>2.020000</speed>
</trkpt>
<trkpt lat="56.012325" lon="26.558180">
<ele>-26.146255</ele>
<time>2010-08-29T10:10:48Z</time>
<desc>lat.=56.012325, lon.=26.558180, Alt.=-26.146255m. Speed=3.636000m/h.</desc>
<speed>1.010000</speed>
</trkpt>
<trkpt lat="56.012394" lon="26.558186">
<ele>-28.949478</ele>
<time>2010-08-29T10:10:49Z</time>
<desc>lat.=56.012394, lon.=26.558186, Alt.=-28.949478m. Speed=4.104000m/h.</desc>
<speed>1.140000</speed>
</trkpt>
<trkpt lat="56.012444" lon="26.558176">
<ele>-31.470474</ele>
<time>2010-08-29T10:10:50Z</time>
<desc>lat.=56.012444, lon.=26.558176, Alt.=-31.470474m. Speed=4.320000m/h.</desc>
<speed>1.200000</speed>
</trkpt>
<trkpt lat="56.012455" lon="26.558159">
<ele>-32.654816</ele>
<time>2010-08-29T10:10:51Z</time>
<desc>lat.=56.012455, lon.=26.558159, Alt.=-32.654816m. Speed=4.428000m/h.</desc>
<speed>1.230000</speed>
</trkpt>
<trkpt lat="56.012482" lon="26.558132">
<ele>-34.765167</ele>
<time>2010-08-29T10:10:52Z</time>
<desc>lat.=56.012482, lon.=26.558132, Alt.=-34.765167m. Speed=3.816000m/h.</desc>
<speed>1.060000</speed>
</trkpt>
<trkpt lat="56.012524" lon="26.558098">
<ele>-37.540558</ele>
<time>2010-08-29T10:10:53Z</time>
<desc>lat.=56.012524, lon.=26.558098, Alt.=-37.540558m. Speed=5.292000m/h.</desc>
<speed>1.470000</speed>
</trkpt>
<trkpt lat="56.012558" lon="26.558058">
<ele>-38.189972</ele>
<time>2010-08-29T10:10:54Z</time>
<desc>lat.=56.012558, lon.=26.558058, Alt.=-38.189972m. Speed=5.760000m/h.</desc>
<speed>1.600000</speed>
</trkpt>
<trkpt lat="56.012585" lon="26.558056">
<ele>-39.467316</ele>
<time>2010-08-29T10:10:55Z</time>
<desc>lat.=56.012585, lon.=26.558056, Alt.=-39.467316m. Speed=5.976000m/h.</desc>
<speed>1.660000</speed>
</trkpt>
<trkpt lat="56.012611" lon="26.558031">
<ele>-40.975128</ele>
<time>2010-08-29T10:10:56Z</time>
<desc>lat.=56.012611, lon.=26.558031, Alt.=-40.975128m. Speed=3.492000m/h.</desc>
<speed>0.970000</speed>
</trkpt>
<trkpt lat="56.012630" lon="26.558018">
<ele>-41.986847</ele>
<time>2010-08-29T10:10:57Z</time>
<desc>lat.=56.012630, lon.=26.558018, Alt.=-41.986847m. Speed=4.572000m/h.</desc>
<speed>1.270000</speed>
</trkpt>
<trkpt lat="56.012650" lon="26.558010">
<ele>-42.121613</ele>
<time>2010-08-29T10:10:58Z</time>
<desc>lat.=56.012650, lon.=26.558010, Alt.=-42.121613m. Speed=3.456000m/h.</desc>
<speed>0.960000</speed>
</trkpt>
<trkpt lat="56.012661" lon="26.558018">
<ele>-42.981964</ele>
<time>2010-08-29T10:10:59Z</time>
<desc>lat.=56.012661, lon.=26.558018, Alt.=-42.981964m. Speed=2.304000m/h.</desc>
<speed>0.640000</speed>
</trkpt>
<trkpt lat="56.012676" lon="26.558014">
<ele>-44.006378</ele>
<time>2010-08-29T10:11:00Z</time>
<desc>lat.=56.012676, lon.=26.558014, Alt.=-44.006378m. Speed=4.392000m/h.</desc>
<speed>1.220000</speed>
</trkpt>
<trkpt lat="56.012695" lon="26.558001">
<ele>-45.063995</ele>
<time>2010-08-29T10:11:01Z</time>
<desc>lat.=56.012695, lon.=26.558001, Alt.=-45.063995m. Speed=5.364000m/h.</desc>
<speed>1.490000</speed>
</trkpt>
<trkpt lat="56.012718" lon="26.557981">
<ele>-46.381378</ele>
<time>2010-08-29T10:11:02Z</time>
<desc>lat.=56.012718, lon.=26.557981, Alt.=-46.381378m. Speed=5.688000m/h.</desc>
<speed>1.580000</speed>
</trkpt>
<trkpt lat="56.012756" lon="26.557989">
<ele>-47.654816</ele>
<time>2010-08-29T10:11:03Z</time>
<desc>lat.=56.012756, lon.=26.557989, Alt.=-47.654816m. Speed=5.544000m/h.</desc>
<speed>1.540000</speed>
</trkpt>
<trkpt lat="56.012791" lon="26.557985">
<ele>-48.928253</ele>
<time>2010-08-29T10:11:04Z</time>
<desc>lat.=56.012791, lon.=26.557985, Alt.=-48.928253m. Speed=6.084000m/h.</desc>
<speed>1.690000</speed>
</trkpt>
<trkpt lat="56.012833" lon="26.557997">
<ele>-50.678253</ele>
<time>2010-08-29T10:11:05Z</time>
<desc>lat.=56.012833, lon.=26.557997, Alt.=-50.678253m. Speed=4.284000m/h.</desc>
<speed>1.190000</speed>
</trkpt>
<trkpt lat="56.012871" lon="26.557974">
<ele>-52.989777</ele>
<time>2010-08-29T10:11:06Z</time>
<desc>lat.=56.012871, lon.=26.557974, Alt.=-52.989777m. Speed=3.492000m/h.</desc>
<speed>0.970000</speed>
</trkpt>
<trkpt lat="56.012894" lon="26.557961">
<ele>-54.371613</ele>
<time>2010-08-29T10:11:07Z</time>
<desc>lat.=56.012894, lon.=26.557961, Alt.=-54.371613m. Speed=4.896000m/h.</desc>
<speed>1.360000</speed>
</trkpt>
<trkpt lat="56.012905" lon="26.557943">
<ele>-55.174347</ele>
<time>2010-08-29T10:11:08Z</time>
<desc>lat.=56.012905, lon.=26.557943, Alt.=-55.174347m. Speed=4.968000m/h.</desc>
<speed>1.380000</speed>
</trkpt>
<trkpt lat="56.012932" lon="26.557926">
<ele>-56.906769</ele>
<time>2010-08-29T10:11:09Z</time>
<desc>lat.=56.012932, lon.=26.557926, Alt.=-56.906769m. Speed=4.176000m/h.</desc>
<speed>1.160000</speed>
</trkpt>
<trkpt lat="56.012985" lon="26.557917">
<ele>-59.229034</ele>
<time>2010-08-29T10:11:10Z</time>
<desc>lat.=56.012985, lon.=26.557917, Alt.=-59.229034m. Speed=3.708000m/h.</desc>
<speed>1.030000</speed>
</trkpt>
<trkpt lat="56.013012" lon="26.557896">
<ele>-60.355988</ele>
<time>2010-08-29T10:11:11Z</time>
<desc>lat.=56.013012, lon.=26.557896, Alt.=-60.355988m. Speed=5.400000m/h.</desc>
<speed>1.500000</speed>
</trkpt>
<trkpt lat="56.013027" lon="26.557880">
<ele>-61.445831</ele>
<time>2010-08-29T10:11:12Z</time>
<desc>lat.=56.013027, lon.=26.557880, Alt.=-61.445831m. Speed=4.104000m/h.</desc>
<speed>1.140000</speed>
</trkpt>
<trkpt lat="56.013050" lon="26.557856">
<ele>-62.586456</ele>
<time>2010-08-29T10:11:13Z</time>
<desc>lat.=56.013050, lon.=26.557856, Alt.=-62.586456m. Speed=4.176000m/h.</desc>
<speed>1.160000</speed>
</trkpt>
<trkpt lat="56.013069" lon="26.557827">
<ele>-63.541534</ele>
<time>2010-08-29T10:11:14Z</time>
<desc>lat.=56.013069, lon.=26.557827, Alt.=-63.541534m. Speed=6.624000m/h.</desc>
<speed>1.840000</speed>
</trkpt>
<trkpt lat="56.013115" lon="26.557823">
<ele>-65.395569</ele>
<time>2010-08-29T10:11:15Z</time>
<desc>lat.=56.013115, lon.=26.557823, Alt.=-65.395569m. Speed=7.596000m/h.</desc>
<speed>2.110000</speed>
</trkpt>
<trkpt lat="56.013145" lon="26.557768">
<ele>-66.727600</ele>
<time>2010-08-29T10:11:16Z</time>
<desc>lat.=56.013145, lon.=26.557768, Alt.=-66.727600m. Speed=7.488000m/h.</desc>
<speed>2.080000</speed>
</trkpt>
<trkpt lat="56.013180" lon="26.557751">
<ele>-68.284241</ele>
<time>2010-08-29T10:11:17Z</time>
<desc>lat.=56.013180, lon.=26.557751, Alt.=-68.284241m. Speed=3.816000m/h.</desc>
<speed>1.060000</speed>
</trkpt>
<trkpt lat="56.013218" lon="26.557739">
<ele>-69.915100</ele>
<time>2010-08-29T10:11:18Z</time>
<desc>lat.=56.013218, lon.=26.557739, Alt.=-69.915100m. Speed=4.248000m/h.</desc>
<speed>1.180000</speed>
</trkpt>
<trkpt lat="56.013229" lon="26.557720">
<ele>-71.053772</ele>
<time>2010-08-29T10:11:19Z</time>
<desc>lat.=56.013229, lon.=26.557720, Alt.=-71.053772m. Speed=5.220000m/h.</desc>
<speed>1.450000</speed>
</trkpt>
<trkpt lat="56.013351" lon="26.557613">
<ele>-69.387756</ele>
<time>2010-08-29T10:11:22Z</time>
<desc>lat.=56.013351, lon.=26.557613, Alt.=-69.387756m. Speed=2.160000m/h.</desc>
<speed>0.600000</speed>
</trkpt>
<trkpt lat="56.013371" lon="26.557598">
<ele>-68.846741</ele>
<time>2010-08-29T10:11:23Z</time>
<desc>lat.=56.013371, lon.=26.557598, Alt.=-68.846741m. Speed=3.348000m/h.</desc>
<speed>0.930000</speed>
</trkpt>
<trkpt lat="56.013386" lon="26.557577">
<ele>-69.268616</ele>
<time>2010-08-29T10:11:24Z</time>
<desc>lat.=56.013386, lon.=26.557577, Alt.=-69.268616m. Speed=4.356000m/h.</desc>
<speed>1.210000</speed>
</trkpt>
<trkpt lat="56.013397" lon="26.557568">
<ele>-69.704163</ele>
<time>2010-08-29T10:11:25Z</time>
<desc>lat.=56.013397, lon.=26.557568, Alt.=-69.704163m. Speed=4.140000m/h.</desc>
<speed>1.150000</speed>
</trkpt>
<trkpt lat="56.013412" lon="26.557556">
<ele>-70.161194</ele>
<time>2010-08-29T10:11:26Z</time>
<desc>lat.=56.013412, lon.=26.557556, Alt.=-70.161194m. Speed=4.212000m/h.</desc>
<speed>1.170000</speed>
</trkpt>
<trkpt lat="56.013493" lon="26.557486">
<ele>-69.440491</ele>
<time>2010-08-29T10:11:29Z</time>
<desc>lat.=56.013493, lon.=26.557486, Alt.=-69.440491m. Speed=5.040000m/h.</desc>
<speed>1.400000</speed>
</trkpt>
<trkpt lat="56.013504" lon="26.557465">
<ele>-69.729553</ele>
<time>2010-08-29T10:11:30Z</time>
<desc>lat.=56.013504, lon.=26.557465, Alt.=-69.729553m. Speed=5.184000m/h.</desc>
<speed>1.440000</speed>
</trkpt>
<trkpt lat="56.013519" lon="26.557449">
<ele>-70.063538</ele>
<time>2010-08-29T10:11:31Z</time>
<desc>lat.=56.013519, lon.=26.557449, Alt.=-70.063538m. Speed=5.292000m/h.</desc>
<speed>1.470000</speed>
</trkpt>
<trkpt lat="56.013531" lon="26.557417">
<ele>-70.346741</ele>
<time>2010-08-29T10:11:32Z</time>
<desc>lat.=56.013531, lon.=26.557417, Alt.=-70.346741m. Speed=6.876000m/h.</desc>
<speed>1.910000</speed>
</trkpt>
<trkpt lat="56.013527" lon="26.557386">
<ele>-70.489319</ele>
<time>2010-08-29T10:11:33Z</time>
<desc>lat.=56.013527, lon.=26.557386, Alt.=-70.489319m. Speed=3.672000m/h.</desc>
<speed>1.020000</speed>
</trkpt>
<trkpt lat="56.013535" lon="26.557364">
<ele>-70.710022</ele>
<time>2010-08-29T10:11:34Z</time>
<desc>lat.=56.013535, lon.=26.557364, Alt.=-70.710022m. Speed=6.120000m/h.</desc>
<speed>1.700000</speed>
</trkpt>
<trkpt lat="56.013561" lon="26.557327">
<ele>-71.327209</ele>
<time>2010-08-29T10:11:35Z</time>
<desc>lat.=56.013561, lon.=26.557327, Alt.=-71.327209m. Speed=6.084000m/h.</desc>
<speed>1.690000</speed>
</trkpt>
<trkpt lat="56.013584" lon="26.557291">
<ele>-71.760803</ele>
<time>2010-08-29T10:11:36Z</time>
<desc>lat.=56.013584, lon.=26.557291, Alt.=-71.760803m. Speed=6.660000m/h.</desc>
<speed>1.850000</speed>
</trkpt>
<trkpt lat="56.013638" lon="26.557152">
<ele>-72.700256</ele>
<time>2010-08-29T10:11:37Z</time>
<desc>lat.=56.013638, lon.=26.557152, Alt.=-72.700256m. Speed=6.876000m/h.</desc>
<speed>1.910000</speed>
</trkpt>
<trkpt lat="56.013664" lon="26.557085">
<ele>-73.198303</ele>
<time>2010-08-29T10:11:38Z</time>
<desc>lat.=56.013664, lon.=26.557085, Alt.=-73.198303m. Speed=6.696000m/h.</desc>
<speed>1.860000</speed>
</trkpt>
<trkpt lat="56.013783" lon="26.557007">
<ele>-72.891663</ele>
<time>2010-08-29T10:11:40Z</time>
<desc>lat.=56.013783, lon.=26.557007, Alt.=-72.891663m. Speed=8.100000m/h.</desc>
<speed>2.250000</speed>
</trkpt>
<trkpt lat="56.013817" lon="26.556990">
<ele>-73.184631</ele>
<time>2010-08-29T10:11:41Z</time>
<desc>lat.=56.013817, lon.=26.556990, Alt.=-73.184631m. Speed=7.452000m/h.</desc>
<speed>2.070000</speed>
</trkpt>
<trkpt lat="56.013924" lon="26.556879">
<ele>-75.194397</ele>
<time>2010-08-29T10:11:45Z</time>
<desc>lat.=56.013924, lon.=26.556879, Alt.=-75.194397m. Speed=4.824000m/h.</desc>
<speed>1.340000</speed>
</trkpt>
<trkpt lat="56.014023" lon="26.556822">
<ele>-72.469788</ele>
<time>2010-08-29T10:11:46Z</time>
<desc>lat.=56.014023, lon.=26.556822, Alt.=-72.469788m. Speed=4.284000m/h.</desc>
<speed>1.190000</speed>
</trkpt>
<trkpt lat="56.014053" lon="26.556847">
<ele>-72.606506</ele>
<time>2010-08-29T10:11:47Z</time>
<desc>lat.=56.014053, lon.=26.556847, Alt.=-72.606506m. Speed=4.536000m/h.</desc>
<speed>1.260000</speed>
</trkpt>
<trkpt lat="56.014088" lon="26.556805">
<ele>-72.200256</ele>
<time>2010-08-29T10:11:48Z</time>
<desc>lat.=56.014088, lon.=26.556805, Alt.=-72.200256m. Speed=2.448000m/h.</desc>
<speed>0.680000</speed>
</trkpt>
<trkpt lat="56.014256" lon="26.556629">
<ele>-70.215881</ele>
<time>2010-08-29T10:11:50Z</time>
<desc>lat.=56.014256, lon.=26.556629, Alt.=-70.215881m. Speed=3.744000m/h.</desc>
<speed>1.040000</speed>
</trkpt>
<trkpt lat="56.014328" lon="26.556580">
<ele>-68.805725</ele>
<time>2010-08-29T10:11:51Z</time>
<desc>lat.=56.014328, lon.=26.556580, Alt.=-68.805725m. Speed=3.060000m/h.</desc>
<speed>0.850000</speed>
</trkpt>
<trkpt lat="56.014671" lon="26.556343">
<ele>-60.466339</ele>
<time>2010-08-29T10:11:52Z</time>
<desc>lat.=56.014671, lon.=26.556343, Alt.=-60.466339m. Speed=4.248000m/h.</desc>
<speed>1.180000</speed>
</trkpt>
<trkpt lat="56.014797" lon="26.556246">
<ele>-58.635284</ele>
<time>2010-08-29T10:11:53Z</time>
<desc>lat.=56.014797, lon.=26.556246, Alt.=-58.635284m. Speed=4.896000m/h.</desc>
<speed>1.360000</speed>
</trkpt>
<trkpt lat="56.014866" lon="26.556208">
<ele>-57.795441</ele>
<time>2010-08-29T10:11:54Z</time>
<desc>lat.=56.014866, lon.=26.556208, Alt.=-57.795441m. Speed=4.536000m/h.</desc>
<speed>1.260000</speed>
</trkpt>
<trkpt lat="56.014889" lon="26.556183">
<ele>-56.452667</ele>
<time>2010-08-29T10:11:55Z</time>
<desc>lat.=56.014889, lon.=26.556183, Alt.=-56.452667m. Speed=3.924000m/h.</desc>
<speed>1.090000</speed>
</trkpt>
<trkpt lat="56.014896" lon="26.556185">
<ele>-56.032745</ele>
<time>2010-08-29T10:11:56Z</time>
<desc>lat.=56.014896, lon.=26.556185, Alt.=-56.032745m. Speed=3.456000m/h.</desc>
<speed>0.960000</speed>
</trkpt>
<trkpt lat="56.014969" lon="26.556162">
<ele>-55.229034</ele>
<time>2010-08-29T10:11:57Z</time>
<desc>lat.=56.014969, lon.=26.556162, Alt.=-55.229034m. Speed=3.888000m/h.</desc>
<speed>1.080000</speed>
</trkpt>
<trkpt lat="56.015049" lon="26.556133">
<ele>-54.392120</ele>
<time>2010-08-29T10:11:58Z</time>
<desc>lat.=56.015049, lon.=26.556133, Alt.=-54.392120m. Speed=4.356000m/h.</desc>
<speed>1.210000</speed>
</trkpt>
<trkpt lat="56.015076" lon="26.556126">
<ele>-53.678253</ele>
<time>2010-08-29T10:11:59Z</time>
<desc>lat.=56.015076, lon.=26.556126, Alt.=-53.678253m. Speed=4.176000m/h.</desc>
<speed>1.160000</speed>
</trkpt>
<trkpt lat="56.015102" lon="26.556103">
<ele>-52.514191</ele>
<time>2010-08-29T10:12:00Z</time>
<desc>lat.=56.015102, lon.=26.556103, Alt.=-52.514191m. Speed=4.536000m/h.</desc>
<speed>1.260000</speed>
</trkpt>
<trkpt lat="56.015171" lon="26.556059">
<ele>-51.018097</ele>
<time>2010-08-29T10:12:01Z</time>
<desc>lat.=56.015171, lon.=26.556059, Alt.=-51.018097m. Speed=4.860000m/h.</desc>
<speed>1.350000</speed>
</trkpt>
<trkpt lat="56.015217" lon="26.556028">
<ele>-50.192902</ele>
<time>2010-08-29T10:12:02Z</time>
<desc>lat.=56.015217, lon.=26.556028, Alt.=-50.192902m. Speed=4.716000m/h.</desc>
<speed>1.310000</speed>
</trkpt>
<trkpt lat="56.015263" lon="26.555960">
<ele>-49.847198</ele>
<time>2010-08-29T10:12:03Z</time>
<desc>lat.=56.015263, lon.=26.555960, Alt.=-49.847198m. Speed=5.220000m/h.</desc>
<speed>1.450000</speed>
</trkpt>
<trkpt lat="56.015263" lon="26.555927">
<ele>-49.555206</ele>
<time>2010-08-29T10:12:04Z</time>
<desc>lat.=56.015263, lon.=26.555927, Alt.=-49.555206m. Speed=4.752000m/h.</desc>
<speed>1.320000</speed>
</trkpt>
<trkpt lat="56.015305" lon="26.555897">
<ele>-49.230011</ele>
<time>2010-08-29T10:12:05Z</time>
<desc>lat.=56.015305, lon.=26.555897, Alt.=-49.230011m. Speed=4.860000m/h.</desc>
<speed>1.350000</speed>
</trkpt>
<trkpt lat="56.015331" lon="26.555876">
<ele>-48.870636</ele>
<time>2010-08-29T10:12:06Z</time>
<desc>lat.=56.015331, lon.=26.555876, Alt.=-48.870636m. Speed=4.680000m/h.</desc>
<speed>1.300000</speed>
</trkpt>
<trkpt lat="56.015354" lon="26.555859">
<ele>-48.653839</ele>
<time>2010-08-29T10:12:07Z</time>
<desc>lat.=56.015354, lon.=26.555859, Alt.=-48.653839m. Speed=4.572000m/h.</desc>
<speed>1.270000</speed>
</trkpt>
<trkpt lat="56.015377" lon="26.555857">
<ele>-48.708527</ele>
<time>2010-08-29T10:12:08Z</time>
<desc>lat.=56.015377, lon.=26.555857, Alt.=-48.708527m. Speed=4.176000m/h.</desc>
<speed>1.160000</speed>
</trkpt>
<trkpt lat="56.015388" lon="26.555851">
<ele>-48.791534</ele>
<time>2010-08-29T10:12:09Z</time>
<desc>lat.=56.015388, lon.=26.555851, Alt.=-48.791534m. Speed=3.708000m/h.</desc>
<speed>1.030000</speed>
</trkpt>
<trkpt lat="56.015408" lon="26.555845">
<ele>-48.800323</ele>
<time>2010-08-29T10:12:10Z</time>
<desc>lat.=56.015408, lon.=26.555845, Alt.=-48.800323m. Speed=3.996000m/h.</desc>
<speed>1.110000</speed>
</trkpt>
<trkpt lat="56.015430" lon="26.555838">
<ele>-48.890167</ele>
<time>2010-08-29T10:12:11Z</time>
<desc>lat.=56.015430, lon.=26.555838, Alt.=-48.890167m. Speed=4.248000m/h.</desc>
<speed>1.180000</speed>
</trkpt>
<trkpt lat="56.015438" lon="26.555820">
<ele>-48.966339</ele>
<time>2010-08-29T10:12:12Z</time>
<desc>lat.=56.015438, lon.=26.555820, Alt.=-48.966339m. Speed=4.068000m/h.</desc>
<speed>1.130000</speed>
</trkpt>
<trkpt lat="56.015453" lon="26.555807">
<ele>-49.113800</ele>
<time>2010-08-29T10:12:13Z</time>
<desc>lat.=56.015453, lon.=26.555807, Alt.=-49.113800m. Speed=4.284000m/h.</desc>
<speed>1.190000</speed>
</trkpt>
<trkpt lat="56.015453" lon="26.555794">
<ele>-49.163605</ele>
<time>2010-08-29T10:12:14Z</time>
<desc>lat.=56.015453, lon.=26.555794, Alt.=-49.163605m. Speed=3.600000m/h.</desc>
<speed>1.000000</speed>
</trkpt>
<trkpt lat="56.015472" lon="26.555738">
<ele>-49.363800</ele>
<time>2010-08-29T10:12:15Z</time>
<desc>lat.=56.015472, lon.=26.555738, Alt.=-49.363800m. Speed=3.888000m/h.</desc>
<speed>1.080000</speed>
</trkpt>
<trkpt lat="56.015480" lon="26.555714">
<ele>-49.488800</ele>
<time>2010-08-29T10:12:16Z</time>
<desc>lat.=56.015480, lon.=26.555714, Alt.=-49.488800m. Speed=3.672000m/h.</desc>
<speed>1.020000</speed>
</trkpt>
<trkpt lat="56.015499" lon="26.555695">
<ele>-49.531769</ele>
<time>2010-08-29T10:12:17Z</time>
<desc>lat.=56.015499, lon.=26.555695, Alt.=-49.531769m. Speed=3.852000m/h.</desc>
<speed>1.070000</speed>
</trkpt>
<trkpt lat="56.015514" lon="26.555672">
<ele>-49.455597</ele>
<time>2010-08-29T10:12:18Z</time>
<desc>lat.=56.015514, lon.=26.555672, Alt.=-49.455597m. Speed=3.708000m/h.</desc>
<speed>1.030000</speed>
</trkpt>
<trkpt lat="56.015526" lon="26.555655">
<ele>-49.504425</ele>
<time>2010-08-29T10:12:19Z</time>
<desc>lat.=56.015526, lon.=26.555655, Alt.=-49.504425m. Speed=3.312000m/h.</desc>
<speed>0.920000</speed>
</trkpt>
<trkpt lat="56.015545" lon="26.555635">
<ele>-49.554230</ele>
<time>2010-08-29T10:12:20Z</time>
<desc>lat.=56.015545, lon.=26.555635, Alt.=-49.554230m. Speed=3.024000m/h.</desc>
<speed>0.840000</speed>
</trkpt>
<trkpt lat="56.015553" lon="26.555626">
<ele>-49.610870</ele>
<time>2010-08-29T10:12:21Z</time>
<desc>lat.=56.015553, lon.=26.555626, Alt.=-49.610870m. Speed=2.736000m/h.</desc>
<speed>0.760000</speed>
</trkpt>
<trkpt lat="56.015564" lon="26.555605">
<ele>-49.396027</ele>
<time>2010-08-29T10:12:22Z</time>
<desc>lat.=56.015564, lon.=26.555605, Alt.=-49.396027m. Speed=2.160000m/h.</desc>
<speed>0.600000</speed>
</trkpt>
<trkpt lat="56.015579" lon="26.555588">
<ele>-49.444855</ele>
<time>2010-08-29T10:12:23Z</time>
<desc>lat.=56.015579, lon.=26.555588, Alt.=-49.444855m. Speed=2.556000m/h.</desc>
<speed>0.710000</speed>
</trkpt>
<trkpt lat="56.015602" lon="26.555571">
<ele>-49.250519</ele>
<time>2010-08-29T10:12:24Z</time>
<desc>lat.=56.015602, lon.=26.555571, Alt.=-49.250519m. Speed=2.412000m/h.</desc>
<speed>0.670000</speed>
</trkpt>
<trkpt lat="56.015610" lon="26.555571">
<ele>-49.339386</ele>
<time>2010-08-29T10:12:25Z</time>
<desc>lat.=56.015610, lon.=26.555571, Alt.=-49.339386m. Speed=1.836000m/h.</desc>
<speed>0.510000</speed>
</trkpt>
<trkpt lat="56.015621" lon="26.555565">
<ele>-49.315948</ele>
<time>2010-08-29T10:12:26Z</time>
<desc>lat.=56.015621, lon.=26.555565, Alt.=-49.315948m. Speed=1.188000m/h.</desc>
<speed>0.330000</speed>
</trkpt>
<trkpt lat="56.015617" lon="26.555552">
<ele>-49.484894</ele>
<time>2010-08-29T10:12:27Z</time>
<desc>lat.=56.015617, lon.=26.555552, Alt.=-49.484894m. Speed=1.188000m/h.</desc>
<speed>0.330000</speed>
</trkpt>
<trkpt lat="56.015633" lon="26.555534">
<ele>-49.409698</ele>
<time>2010-08-29T10:12:28Z</time>
<desc>lat.=56.015633, lon.=26.555534, Alt.=-49.409698m. Speed=1.620000m/h.</desc>
<speed>0.450000</speed>
</trkpt>
<trkpt lat="56.015636" lon="26.555529">
<ele>-49.639191</ele>
<time>2010-08-29T10:12:29Z</time>
<desc>lat.=56.015636, lon.=26.555529, Alt.=-49.639191m. Speed=1.872000m/h.</desc>
<speed>0.520000</speed>
</trkpt>
<trkpt lat="56.015652" lon="26.555529">
<ele>-49.669464</ele>
<time>2010-08-29T10:12:30Z</time>
<desc>lat.=56.015652, lon.=26.555529, Alt.=-49.669464m. Speed=2.268000m/h.</desc>
<speed>0.630000</speed>
</trkpt>
<trkpt lat="56.015663" lon="26.555517">
<ele>-49.868683</ele>
<time>2010-08-29T10:12:31Z</time>
<desc>lat.=56.015663, lon.=26.555517, Alt.=-49.868683m. Speed=2.520000m/h.</desc>
<speed>0.700000</speed>
</trkpt>
<trkpt lat="56.015675" lon="26.555498">
<ele>-50.114777</ele>
<time>2010-08-29T10:12:32Z</time>
<desc>lat.=56.015675, lon.=26.555498, Alt.=-50.114777m. Speed=3.276000m/h.</desc>
<speed>0.910000</speed>
</trkpt>
<trkpt lat="56.015686" lon="26.555481">
<ele>-50.293488</ele>
<time>2010-08-29T10:12:33Z</time>
<desc>lat.=56.015686, lon.=26.555481, Alt.=-50.293488m. Speed=3.348000m/h.</desc>
<speed>0.930000</speed>
</trkpt>
<trkpt lat="56.015697" lon="26.555468">
<ele>-50.456573</ele>
<time>2010-08-29T10:12:34Z</time>
<desc>lat.=56.015697, lon.=26.555468, Alt.=-50.456573m. Speed=3.708000m/h.</desc>
<speed>1.030000</speed>
</trkpt>
<trkpt lat="56.015709" lon="26.555450">
<ele>-50.629425</ele>
<time>2010-08-29T10:12:35Z</time>
<desc>lat.=56.015709, lon.=26.555450, Alt.=-50.629425m. Speed=4.032000m/h.</desc>
<speed>1.120000</speed>
</trkpt>
<trkpt lat="56.015728" lon="26.555416">
<ele>-50.827667</ele>
<time>2010-08-29T10:12:36Z</time>
<desc>lat.=56.015728, lon.=26.555416, Alt.=-50.827667m. Speed=5.220000m/h.</desc>
<speed>1.450000</speed>
</trkpt>
<trkpt lat="56.015739" lon="26.555397">
<ele>-51.035675</ele>
<time>2010-08-29T10:12:37Z</time>
<desc>lat.=56.015739, lon.=26.555397, Alt.=-51.035675m. Speed=5.364000m/h.</desc>
<speed>1.490000</speed>
</trkpt>
<trkpt lat="56.015759" lon="26.555378">
<ele>-51.211456</ele>
<time>2010-08-29T10:12:38Z</time>
<desc>lat.=56.015759, lon.=26.555378, Alt.=-51.211456m. Speed=6.444000m/h.</desc>
<speed>1.790000</speed>
</trkpt>
<trkpt lat="56.015785" lon="26.555368">
<ele>-51.351105</ele>
<time>2010-08-29T10:12:39Z</time>
<desc>lat.=56.015785, lon.=26.555368, Alt.=-51.351105m. Speed=8.568000m/h.</desc>
<speed>2.380000</speed>
</trkpt>
<trkpt lat="56.015812" lon="26.555336">
<ele>-51.535675</ele>
<time>2010-08-29T10:12:40Z</time>
<desc>lat.=56.015812, lon.=26.555336, Alt.=-51.535675m. Speed=9.540000m/h.</desc>
<speed>2.650000</speed>
</trkpt>
<trkpt lat="56.015831" lon="26.555307">
<ele>-51.689972</ele>
<time>2010-08-29T10:12:41Z</time>
<desc>lat.=56.015831, lon.=26.555307, Alt.=-51.689972m. Speed=7.416000m/h.</desc>
<speed>2.060000</speed>
</trkpt>
<trkpt lat="56.015842" lon="26.555290">
<ele>-51.866730</ele>
<time>2010-08-29T10:12:42Z</time>
<desc>lat.=56.015842, lon.=26.555290, Alt.=-51.866730m. Speed=5.184000m/h.</desc>
<speed>1.440000</speed>
</trkpt>
<trkpt lat="56.015858" lon="26.555262">
<ele>-52.028839</ele>
<time>2010-08-29T10:12:43Z</time>
<desc>lat.=56.015858, lon.=26.555262, Alt.=-52.028839m. Speed=5.796000m/h.</desc>
<speed>1.610000</speed>
</trkpt>
<trkpt lat="56.015869" lon="26.555241">
<ele>-52.165558</ele>
<time>2010-08-29T10:12:44Z</time>
<desc>lat.=56.015869, lon.=26.555241, Alt.=-52.165558m. Speed=5.544000m/h.</desc>
<speed>1.540000</speed>
</trkpt>
<trkpt lat="56.015877" lon="26.555225">
<ele>-52.306183</ele>
<time>2010-08-29T10:12:45Z</time>
<desc>lat.=56.015877, lon.=26.555225, Alt.=-52.306183m. Speed=3.492000m/h.</desc>
<speed>0.970000</speed>
</trkpt>
<trkpt lat="56.015884" lon="26.555202">
<ele>-52.372589</ele>
<time>2010-08-29T10:12:46Z</time>
<desc>lat.=56.015884, lon.=26.555202, Alt.=-52.372589m. Speed=3.600000m/h.</desc>
<speed>1.000000</speed>
</trkpt>
<trkpt lat="56.015896" lon="26.555189">
<ele>-52.448761</ele>
<time>2010-08-29T10:12:47Z</time>
<desc>lat.=56.015896, lon.=26.555189, Alt.=-52.448761m. Speed=5.220000m/h.</desc>
<speed>1.450000</speed>
</trkpt>
<trkpt lat="56.015903" lon="26.555170">
<ele>-52.569855</ele>
<time>2010-08-29T10:12:48Z</time>
<desc>lat.=56.015903, lon.=26.555170, Alt.=-52.569855m. Speed=4.788000m/h.</desc>
<speed>1.330000</speed>
</trkpt>
<trkpt lat="56.015911" lon="26.555155">
<ele>-52.681183</ele>
<time>2010-08-29T10:12:49Z</time>
<desc>lat.=56.015911, lon.=26.555155, Alt.=-52.681183m. Speed=3.204000m/h.</desc>
<speed>0.890000</speed>
</trkpt>
<trkpt lat="56.015911" lon="26.555147">
<ele>-52.797394</ele>
<time>2010-08-29T10:12:50Z</time>
<desc>lat.=56.015911, lon.=26.555147, Alt.=-52.797394m. Speed=1.440000m/h.</desc>
<speed>0.400000</speed>
</trkpt>
<trkpt lat="56.015923" lon="26.555138">
<ele>-52.901886</ele>
<time>2010-08-29T10:12:51Z</time>
<desc>lat.=56.015923, lon.=26.555138, Alt.=-52.901886m. Speed=3.312000m/h.</desc>
<speed>0.920000</speed>
</trkpt>
<trkpt lat="56.015930" lon="26.555124">
<ele>-53.001495</ele>
<time>2010-08-29T10:12:52Z</time>
<desc>lat.=56.015930, lon.=26.555124, Alt.=-53.001495m. Speed=3.744000m/h.</desc>
<speed>1.040000</speed>
</trkpt>
<trkpt lat="56.016125" lon="26.555038">
<ele>-52.848175</ele>
<time>2010-08-29T10:12:56Z</time>
<desc>lat.=56.016125, lon.=26.555038, Alt.=-52.848175m. Speed=3.096000m/h.</desc>
<speed>0.860000</speed>
</trkpt>
<trkpt lat="56.016144" lon="26.554985">
<ele>-53.042511</ele>
<time>2010-08-29T10:12:57Z</time>
<desc>lat.=56.016144, lon.=26.554985, Alt.=-53.042511m. Speed=3.456000m/h.</desc>
<speed>0.960000</speed>
</trkpt>
<trkpt lat="56.016155" lon="26.554949">
<ele>-53.366730</ele>
<time>2010-08-29T10:12:58Z</time>
<desc>lat.=56.016155, lon.=26.554949, Alt.=-53.366730m. Speed=4.140000m/h.</desc>
<speed>1.150000</speed>
</trkpt>
<trkpt lat="56.016193" lon="26.554903">
<ele>-53.772980</ele>
<time>2010-08-29T10:12:59Z</time>
<desc>lat.=56.016193, lon.=26.554903, Alt.=-53.772980m. Speed=5.652000m/h.</desc>
<speed>1.570000</speed>
</trkpt>
<trkpt lat="56.016212" lon="26.554884">
<ele>-53.855011</ele>
<time>2010-08-29T10:13:00Z</time>
<desc>lat.=56.016212, lon.=26.554884, Alt.=-53.855011m. Speed=5.148000m/h.</desc>
<speed>1.430000</speed>
</trkpt>
<trkpt lat="56.016228" lon="26.554855">
<ele>-54.014191</ele>
<time>2010-08-29T10:13:01Z</time>
<desc>lat.=56.016228, lon.=26.554855, Alt.=-54.014191m. Speed=7.308000m/h.</desc>
<speed>2.030000</speed>
</trkpt>
<trkpt lat="56.016262" lon="26.554838">
<ele>-54.167511</ele>
<time>2010-08-29T10:13:02Z</time>
<desc>lat.=56.016262, lon.=26.554838, Alt.=-54.167511m. Speed=6.660000m/h.</desc>
<speed>1.850000</speed>
</trkpt>
<trkpt lat="56.016293" lon="26.554817">
<ele>-54.358917</ele>
<time>2010-08-29T10:13:03Z</time>
<desc>lat.=56.016293, lon.=26.554817, Alt.=-54.358917m. Speed=6.876000m/h.</desc>
<speed>1.910000</speed>
</trkpt>
<trkpt lat="56.016315" lon="26.554796">
<ele>-54.625519</ele>
<time>2010-08-29T10:13:04Z</time>
<desc>lat.=56.016315, lon.=26.554796, Alt.=-54.625519m. Speed=4.896000m/h.</desc>
<speed>1.360000</speed>
</trkpt>
<trkpt lat="56.016338" lon="26.554775">
<ele>-54.775909</ele>
<time>2010-08-29T10:13:05Z</time>
<desc>lat.=56.016338, lon.=26.554775, Alt.=-54.775909m. Speed=6.192000m/h.</desc>
<speed>1.720000</speed>
</trkpt>
<trkpt lat="56.016365" lon="26.554735">
<ele>-55.062042</ele>
<time>2010-08-29T10:13:06Z</time>
<desc>lat.=56.016365, lon.=26.554735, Alt.=-55.062042m. Speed=5.904000m/h.</desc>
<speed>1.640000</speed>
</trkpt>
<trkpt lat="56.016388" lon="26.554678">
<ele>-55.153839</ele>
<time>2010-08-29T10:13:07Z</time>
<desc>lat.=56.016388, lon.=26.554678, Alt.=-55.153839m. Speed=5.400000m/h.</desc>
<speed>1.500000</speed>
</trkpt>
<trkpt lat="56.016403" lon="26.554649">
<ele>-55.361847</ele>
<time>2010-08-29T10:13:08Z</time>
<desc>lat.=56.016403, lon.=26.554649, Alt.=-55.361847m. Speed=6.480000m/h.</desc>
<speed>1.800000</speed>
</trkpt>
<trkpt lat="56.016422" lon="26.554617">
<ele>-55.547394</ele>
<time>2010-08-29T10:13:09Z</time>
<desc>lat.=56.016422, lon.=26.554617, Alt.=-55.547394m. Speed=6.192000m/h.</desc>
<speed>1.720000</speed>
</trkpt>
<trkpt lat="56.016449" lon="26.554604">
<ele>-55.730011</ele>
<time>2010-08-29T10:13:10Z</time>
<desc>lat.=56.016449, lon.=26.554604, Alt.=-55.730011m. Speed=8.100000m/h.</desc>
<speed>2.250000</speed>
</trkpt>
<trkpt lat="56.016468" lon="26.554583">
<ele>-55.848175</ele>
<time>2010-08-29T10:13:11Z</time>
<desc>lat.=56.016468, lon.=26.554583, Alt.=-55.848175m. Speed=7.848000m/h.</desc>
<speed>2.180000</speed>
</trkpt>
<trkpt lat="56.016487" lon="26.554554">
<ele>-55.923370</ele>
<time>2010-08-29T10:13:12Z</time>
<desc>lat.=56.016487, lon.=26.554554, Alt.=-55.923370m. Speed=5.976000m/h.</desc>
<speed>1.660000</speed>
</trkpt>
<trkpt lat="56.016514" lon="26.554541">
<ele>-56.103058</ele>
<time>2010-08-29T10:13:13Z</time>
<desc>lat.=56.016514, lon.=26.554541, Alt.=-56.103058m. Speed=6.084000m/h.</desc>
<speed>1.690000</speed>
</trkpt>
<trkpt lat="56.016533" lon="26.554516">
<ele>-56.121613</ele>
<time>2010-08-29T10:13:14Z</time>
<desc>lat.=56.016533, lon.=26.554516, Alt.=-56.121613m. Speed=5.256000m/h.</desc>
<speed>1.460000</speed>
</trkpt>
<trkpt lat="56.016560" lon="26.554495">
<ele>-56.107941</ele>
<time>2010-08-29T10:13:15Z</time>
<desc>lat.=56.016560, lon.=26.554495, Alt.=-56.107941m. Speed=5.220000m/h.</desc>
<speed>1.450000</speed>
</trkpt>
<trkpt lat="56.016582" lon="26.554474">
<ele>-56.176300</ele>
<time>2010-08-29T10:13:16Z</time>
<desc>lat.=56.016582, lon.=26.554474, Alt.=-56.176300m. Speed=5.292000m/h.</desc>
<speed>1.470000</speed>
</trkpt>
<trkpt lat="56.016605" lon="26.554453">
<ele>-56.202667</ele>
<time>2010-08-29T10:13:17Z</time>
<desc>lat.=56.016605, lon.=26.554453, Alt.=-56.202667m. Speed=4.608000m/h.</desc>
<speed>1.280000</speed>
</trkpt>
<trkpt lat="56.016628" lon="26.554430">
<ele>-56.249542</ele>
<time>2010-08-29T10:13:18Z</time>
<desc>lat.=56.016628, lon.=26.554430, Alt.=-56.249542m. Speed=5.832000m/h.</desc>
<speed>1.620000</speed>
</trkpt>
<trkpt lat="56.016644" lon="26.554407">
<ele>-56.427277</ele>
<time>2010-08-29T10:13:19Z</time>
<desc>lat.=56.016644, lon.=26.554407, Alt.=-56.427277m. Speed=5.400000m/h.</desc>
<speed>1.500000</speed>
</trkpt>
<trkpt lat="56.016655" lon="26.554390">
<ele>-56.438995</ele>
<time>2010-08-29T10:13:20Z</time>
<desc>lat.=56.016655, lon.=26.554390, Alt.=-56.438995m. Speed=2.232000m/h.</desc>
<speed>0.620000</speed>
</trkpt>
<trkpt lat="56.016663" lon="26.554379">
<ele>-56.608917</ele>
<time>2010-08-29T10:13:21Z</time>
<desc>lat.=56.016663, lon.=26.554379, Alt.=-56.608917m. Speed=1.800000m/h.</desc>
<speed>0.500000</speed>
</trkpt>
<trkpt lat="56.016678" lon="26.554363">
<ele>-56.699738</ele>
<time>2010-08-29T10:13:22Z</time>
<desc>lat.=56.016678, lon.=26.554363, Alt.=-56.699738m. Speed=2.016000m/h.</desc>
<speed>0.560000</speed>
</trkpt>
<trkpt lat="56.016708" lon="26.554344">
<ele>-56.783722</ele>
<time>2010-08-29T10:13:23Z</time>
<desc>lat.=56.016708, lon.=26.554344, Alt.=-56.783722m. Speed=3.600000m/h.</desc>
<speed>1.000000</speed>
</trkpt>
<trkpt lat="56.016735" lon="26.554348">
<ele>-56.922394</ele>
<time>2010-08-29T10:13:24Z</time>
<desc>lat.=56.016735, lon.=26.554348, Alt.=-56.922394m. Speed=4.248000m/h.</desc>
<speed>1.180000</speed>
</trkpt>
<trkpt lat="56.016800" lon="26.554298">
<ele>-56.922394</ele>
<time>2010-08-29T10:13:26Z</time>
<desc>lat.=56.016800, lon.=26.554298, Alt.=-56.922394m. Speed=4.500000m/h.</desc>
<speed>1.250000</speed>
</trkpt>
<trkpt lat="56.016819" lon="26.554285">
<ele>-56.921417</ele>
<time>2010-08-29T10:13:27Z</time>
<desc>lat.=56.016819, lon.=26.554285, Alt.=-56.921417m. Speed=4.644000m/h.</desc>
<speed>1.290000</speed>
</trkpt>
<trkpt lat="56.016842" lon="26.554272">
<ele>-56.912628</ele>
<time>2010-08-29T10:13:28Z</time>
<desc>lat.=56.016842, lon.=26.554272, Alt.=-56.912628m. Speed=4.968000m/h.</desc>
<speed>1.380000</speed>
</trkpt>
<trkpt lat="56.016869" lon="26.554266">
<ele>-56.967316</ele>
<time>2010-08-29T10:13:29Z</time>
<desc>lat.=56.016869, lon.=26.554266, Alt.=-56.967316m. Speed=5.112000m/h.</desc>
<speed>1.420000</speed>
</trkpt>
<trkpt lat="56.017059" lon="26.554195">
<ele>-56.472198</ele>
<time>2010-08-29T10:13:33Z</time>
<desc>lat.=56.017059, lon.=26.554195, Alt.=-56.472198m. Speed=5.112000m/h.</desc>
<speed>1.420000</speed>
</trkpt>
<trkpt lat="56.017193" lon="26.554152">
<ele>-56.113800</ele>
<time>2010-08-29T10:13:35Z</time>
<desc>lat.=56.017193, lon.=26.554152, Alt.=-56.113800m. Speed=4.788000m/h.</desc>
<speed>1.330000</speed>
</trkpt>
<trkpt lat="56.017204" lon="26.554138">
<ele>-56.114777</ele>
<time>2010-08-29T10:13:36Z</time>
<desc>lat.=56.017204, lon.=26.554138, Alt.=-56.114777m. Speed=4.140000m/h.</desc>
<speed>1.150000</speed>
</trkpt>
<trkpt lat="56.017239" lon="26.554070">
<ele>-56.168488</ele>
<time>2010-08-29T10:13:37Z</time>
<desc>lat.=56.017239, lon.=26.554070, Alt.=-56.168488m. Speed=5.148000m/h.</desc>
<speed>1.430000</speed>
</trkpt>
<trkpt lat="56.017269" lon="26.554018">
<ele>-56.218292</ele>
<time>2010-08-29T10:13:38Z</time>
<desc>lat.=56.017269, lon.=26.554018, Alt.=-56.218292m. Speed=5.364000m/h.</desc>
<speed>1.490000</speed>
</trkpt>
<trkpt lat="56.017273" lon="26.554010">
<ele>-56.387238</ele>
<time>2010-08-29T10:13:39Z</time>
<desc>lat.=56.017273, lon.=26.554010, Alt.=-56.387238m. Speed=7.092000m/h.</desc>
<speed>1.970000</speed>
</trkpt>
<trkpt lat="56.017323" lon="26.554014">
<ele>-56.238800</ele>
<time>2010-08-29T10:13:40Z</time>
<desc>lat.=56.017323, lon.=26.554014, Alt.=-56.238800m. Speed=6.408000m/h.</desc>
<speed>1.780000</speed>
</trkpt>
<trkpt lat="56.017345" lon="26.554014">
<ele>-56.129425</ele>
<time>2010-08-29T10:13:41Z</time>
<desc>lat.=56.017345, lon.=26.554014, Alt.=-56.129425m. Speed=3.960000m/h.</desc>
<speed>1.100000</speed>
</trkpt>
<trkpt lat="56.017361" lon="26.554010">
<ele>-55.988800</ele>
<time>2010-08-29T10:13:42Z</time>
<desc>lat.=56.017361, lon.=26.554010, Alt.=-55.988800m. Speed=2.376000m/h.</desc>
<speed>0.660000</speed>
</trkpt>
<trkpt lat="56.017384" lon="26.553991">
<ele>-55.921417</ele>
<time>2010-08-29T10:13:43Z</time>
<desc>lat.=56.017384, lon.=26.553991, Alt.=-55.921417m. Speed=2.232000m/h.</desc>
<speed>0.620000</speed>
</trkpt>
<trkpt lat="56.017414" lon="26.553984">
<ele>-55.861847</ele>
<time>2010-08-29T10:13:44Z</time>
<desc>lat.=56.017414, lon.=26.553984, Alt.=-55.861847m. Speed=2.268000m/h.</desc>
<speed>0.630000</speed>
</trkpt>
<trkpt lat="56.017437" lon="26.553953">
<ele>-55.557159</ele>
<time>2010-08-29T10:13:45Z</time>
<desc>lat.=56.017437, lon.=26.553953, Alt.=-55.557159m. Speed=3.024000m/h.</desc>
<speed>0.840000</speed>
</trkpt>
<trkpt lat="56.017471" lon="26.553925">
<ele>-55.484894</ele>
<time>2010-08-29T10:13:46Z</time>
<desc>lat.=56.017471, lon.=26.553925, Alt.=-55.484894m. Speed=3.312000m/h.</desc>
<speed>0.920000</speed>
</trkpt>
<trkpt lat="56.017498" lon="26.553875">
<ele>-55.192902</ele>
<time>2010-08-29T10:13:47Z</time>
<desc>lat.=56.017498, lon.=26.553875, Alt.=-55.192902m. Speed=5.616000m/h.</desc>
<speed>1.560000</speed>
</trkpt>
<trkpt lat="56.017517" lon="26.553846">
<ele>-55.067902</ele>
<time>2010-08-29T10:13:48Z</time>
<desc>lat.=56.017517, lon.=26.553846, Alt.=-55.067902m. Speed=1.764000m/h.</desc>
<speed>0.490000</speed>
</trkpt>
<trkpt lat="56.017559" lon="26.553818">
<ele>-55.097198</ele>
<time>2010-08-29T10:13:49Z</time>
<desc>lat.=56.017559, lon.=26.553818, Alt.=-55.097198m. Speed=4.500000m/h.</desc>
<speed>1.250000</speed>
</trkpt>
<trkpt lat="56.017578" lon="26.553814">
<ele>-55.024933</ele>
<time>2010-08-29T10:13:50Z</time>
<desc>lat.=56.017578, lon.=26.553814, Alt.=-55.024933m. Speed=5.760000m/h.</desc>
<speed>1.600000</speed>
</trkpt>
<trkpt lat="56.017597" lon="26.553793">
<ele>-54.935089</ele>
<time>2010-08-29T10:13:51Z</time>
<desc>lat.=56.017597, lon.=26.553793, Alt.=-54.935089m. Speed=6.876000m/h.</desc>
<speed>1.910000</speed>
</trkpt>
<trkpt lat="56.017620" lon="26.553768">
<ele>-54.739777</ele>
<time>2010-08-29T10:13:52Z</time>
<desc>lat.=56.017620, lon.=26.553768, Alt.=-54.739777m. Speed=6.336000m/h.</desc>
<speed>1.760000</speed>
</trkpt>
<trkpt lat="56.017643" lon="26.553762">
<ele>-54.664581</ele>
<time>2010-08-29T10:13:53Z</time>
<desc>lat.=56.017643, lon.=26.553762, Alt.=-54.664581m. Speed=3.528000m/h.</desc>
<speed>0.980000</speed>
</trkpt>
<trkpt lat="56.017872" lon="26.553612">
<ele>-53.572784</ele>
<time>2010-08-29T10:13:58Z</time>
<desc>lat.=56.017872, lon.=26.553612, Alt.=-53.572784m. Speed=10.908000m/h.</desc>
<speed>3.030000</speed>
</trkpt>
<trkpt lat="56.017895" lon="26.553596">
<ele>-53.362823</ele>
<time>2010-08-29T10:13:59Z</time>
<desc>lat.=56.017895, lon.=26.553596, Alt.=-53.362823m. Speed=10.836000m/h.</desc>
<speed>3.010000</speed>
</trkpt>
<trkpt lat="56.017944" lon="26.553556">
<ele>-53.161652</ele>
<time>2010-08-29T10:14:00Z</time>
<desc>lat.=56.017944, lon.=26.553556, Alt.=-53.161652m. Speed=11.556000m/h.</desc>
<speed>3.210000</speed>
</trkpt>
<trkpt lat="56.017971" lon="26.553532">
<ele>-52.941925</ele>
<time>2010-08-29T10:14:01Z</time>
<desc>lat.=56.017971, lon.=26.553532, Alt.=-52.941925m. Speed=11.664000m/h.</desc>
<speed>3.240000</speed>
</trkpt>
<trkpt lat="56.018017" lon="26.553493">
<ele>-52.641144</ele>
<time>2010-08-29T10:14:02Z</time>
<desc>lat.=56.018017, lon.=26.553493, Alt.=-52.641144m. Speed=10.692000m/h.</desc>
<speed>2.970000</speed>
</trkpt>
<trkpt lat="56.018040" lon="26.553471">
<ele>-52.404816</ele>
<time>2010-08-29T10:14:03Z</time>
<desc>lat.=56.018040, lon.=26.553471, Alt.=-52.404816m. Speed=11.592000m/h.</desc>
<speed>3.220000</speed>
</trkpt>
<trkpt lat="56.018112" lon="26.553425">
<ele>-51.559113</ele>
<time>2010-08-29T10:14:04Z</time>
<desc>lat.=56.018112, lon.=26.553425, Alt.=-51.559113m. Speed=10.260000m/h.</desc>
<speed>2.850000</speed>
</trkpt>
<trkpt lat="56.018150" lon="26.553394">
<ele>-51.101105</ele>
<time>2010-08-29T10:14:05Z</time>
<desc>lat.=56.018150, lon.=26.553394, Alt.=-51.101105m. Speed=7.848000m/h.</desc>
<speed>2.180000</speed>
</trkpt>
<trkpt lat="56.018173" lon="26.553366">
<ele>-50.730988</ele>
<time>2010-08-29T10:14:06Z</time>
<desc>lat.=56.018173, lon.=26.553366, Alt.=-50.730988m. Speed=9.756000m/h.</desc>
<speed>2.710000</speed>
</trkpt>
<trkpt lat="56.018215" lon="26.553324">
<ele>-50.029816</ele>
<time>2010-08-29T10:14:07Z</time>
<desc>lat.=56.018215, lon.=26.553324, Alt.=-50.029816m. Speed=8.568000m/h.</desc>
<speed>2.380000</speed>
</trkpt>
<trkpt lat="56.018230" lon="26.553308">
<ele>-49.864777</ele>
<time>2010-08-29T10:14:08Z</time>
<desc>lat.=56.018230, lon.=26.553308, Alt.=-49.864777m. Speed=6.372000m/h.</desc>
<speed>1.770000</speed>
</trkpt>
<trkpt lat="56.018238" lon="26.553293">
<ele>-49.613800</ele>
<time>2010-08-29T10:14:09Z</time>
<desc>lat.=56.018238, lon.=26.553293, Alt.=-49.613800m. Speed=4.896000m/h.</desc>
<speed>1.360000</speed>
</trkpt>
<trkpt lat="56.018257" lon="26.553272">
<ele>-49.378448</ele>
<time>2010-08-29T10:14:10Z</time>
<desc>lat.=56.018257, lon.=26.553272, Alt.=-49.378448m. Speed=6.948000m/h.</desc>
<speed>1.930000</speed>
</trkpt>
<trkpt lat="56.018284" lon="26.553259">
<ele>-49.230988</ele>
<time>2010-08-29T10:14:11Z</time>
<desc>lat.=56.018284, lon.=26.553259, Alt.=-49.230988m. Speed=6.408000m/h.</desc>
<speed>1.780000</speed>
</trkpt>
<trkpt lat="56.018299" lon="26.553234">
<ele>-49.121613</ele>
<time>2010-08-29T10:14:12Z</time>
<desc>lat.=56.018299, lon.=26.553234, Alt.=-49.121613m. Speed=6.120000m/h.</desc>
<speed>1.700000</speed>
</trkpt>
<trkpt lat="56.018314" lon="26.553213">
<ele>-48.985870</ele>
<time>2010-08-29T10:14:13Z</time>
<desc>lat.=56.018314, lon.=26.553213, Alt.=-48.985870m. Speed=6.552000m/h.</desc>
<speed>1.820000</speed>
</trkpt>
<trkpt lat="56.018345" lon="26.553181">
<ele>-48.687042</ele>
<time>2010-08-29T10:14:14Z</time>
<desc>lat.=56.018345, lon.=26.553181, Alt.=-48.687042m. Speed=5.976000m/h.</desc>
<speed>1.660000</speed>
</trkpt>
<trkpt lat="56.018375" lon="26.553148">
<ele>-48.463409</ele>
<time>2010-08-29T10:14:15Z</time>
<desc>lat.=56.018375, lon.=26.553148, Alt.=-48.463409m. Speed=5.112000m/h.</desc>
<speed>1.420000</speed>
</trkpt>
<trkpt lat="56.018394" lon="26.553129">
<ele>-48.346222</ele>
<time>2010-08-29T10:14:16Z</time>
<desc>lat.=56.018394, lon.=26.553129, Alt.=-48.346222m. Speed=5.148000m/h.</desc>
<speed>1.430000</speed>
</trkpt>
<trkpt lat="56.018421" lon="26.553106">
<ele>-48.351105</ele>
<time>2010-08-29T10:14:17Z</time>
<desc>lat.=56.018421, lon.=26.553106, Alt.=-48.351105m. Speed=5.544000m/h.</desc>
<speed>1.540000</speed>
</trkpt>
<trkpt lat="56.018456" lon="26.553064">
<ele>-48.556183</ele>
<time>2010-08-29T10:14:18Z</time>
<desc>lat.=56.018456, lon.=26.553064, Alt.=-48.556183m. Speed=6.048000m/h.</desc>
<speed>1.680000</speed>
</trkpt>
<trkpt lat="56.018475" lon="26.553015">
<ele>-48.397980</ele>
<time>2010-08-29T10:14:19Z</time>
<desc>lat.=56.018475, lon.=26.553015, Alt.=-48.397980m. Speed=6.912000m/h.</desc>
<speed>1.920000</speed>
</trkpt>
<trkpt lat="56.018490" lon="26.552986">
<ele>-48.363800</ele>
<time>2010-08-29T10:14:20Z</time>
<desc>lat.=56.018490, lon.=26.552986, Alt.=-48.363800m. Speed=4.644000m/h.</desc>
<speed>1.290000</speed>
</trkpt>
<trkpt lat="56.018520" lon="26.552931">
<ele>-48.335480</ele>
<time>2010-08-29T10:14:21Z</time>
<desc>lat.=56.018520, lon.=26.552931, Alt.=-48.335480m. Speed=5.940000m/h.</desc>
<speed>1.650000</speed>
</trkpt>
<trkpt lat="56.018570" lon="26.552843">
<ele>-47.927277</ele>
<time>2010-08-29T10:14:22Z</time>
<desc>lat.=56.018570, lon.=26.552843, Alt.=-47.927277m. Speed=6.408000m/h.</desc>
<speed>1.780000</speed>
</trkpt>
<trkpt lat="56.018600" lon="26.552807">
<ele>-47.851105</ele>
<time>2010-08-29T10:14:23Z</time>
<desc>lat.=56.018600, lon.=26.552807, Alt.=-47.851105m. Speed=4.500000m/h.</desc>
<speed>1.250000</speed>
</trkpt>
<trkpt lat="56.018623" lon="26.552778">
<ele>-47.873566</ele>
<time>2010-08-29T10:14:24Z</time>
<desc>lat.=56.018623, lon.=26.552778, Alt.=-47.873566m. Speed=2.952000m/h.</desc>
<speed>0.820000</speed>
</trkpt>
<trkpt lat="56.018654" lon="26.552763">
<ele>-47.611847</ele>
<time>2010-08-29T10:14:25Z</time>
<desc>lat.=56.018654, lon.=26.552763, Alt.=-47.611847m. Speed=3.132000m/h.</desc>
<speed>0.870000</speed>
</trkpt>
<trkpt lat="56.018734" lon="26.552708">
<ele>-46.992706</ele>
<time>2010-08-29T10:14:26Z</time>
<desc>lat.=56.018734, lon.=26.552708, Alt.=-46.992706m. Speed=3.924000m/h.</desc>
<speed>1.090000</speed>
</trkpt>
<trkpt lat="56.018742" lon="26.552694">
<ele>-46.829620</ele>
<time>2010-08-29T10:14:27Z</time>
<desc>lat.=56.018742, lon.=26.552694, Alt.=-46.829620m. Speed=3.312000m/h.</desc>
<speed>0.920000</speed>
</trkpt>
<trkpt lat="56.018707" lon="26.552649">
<ele>-46.578644</ele>
<time>2010-08-29T10:14:28Z</time>
<desc>lat.=56.018707, lon.=26.552649, Alt.=-46.578644m. Speed=3.168000m/h.</desc>
<speed>0.880000</speed>
</trkpt>
<trkpt lat="56.018715" lon="26.552629">
<ele>-46.400909</ele>
<time>2010-08-29T10:14:29Z</time>
<desc>lat.=56.018715, lon.=26.552629, Alt.=-46.400909m. Speed=4.212000m/h.</desc>
<speed>1.170000</speed>
</trkpt>
<trkpt lat="56.018719" lon="26.552622">
<ele>-46.402863</ele>
<time>2010-08-29T10:14:30Z</time>
<desc>lat.=56.018719, lon.=26.552622, Alt.=-46.402863m. Speed=2.664000m/h.</desc>
<speed>0.740000</speed>
</trkpt>
<trkpt lat="56.018726" lon="26.552612">
<ele>-46.416534</ele>
<time>2010-08-29T10:14:31Z</time>
<desc>lat.=56.018726, lon.=26.552612, Alt.=-46.416534m. Speed=3.096000m/h.</desc>
<speed>0.860000</speed>
</trkpt>
<trkpt lat="56.018719" lon="26.552526">
<ele>-46.182159</ele>
<time>2010-08-29T10:14:32Z</time>
<desc>lat.=56.018719, lon.=26.552526, Alt.=-46.182159m. Speed=5.184000m/h.</desc>
<speed>1.440000</speed>
</trkpt>
<trkpt lat="56.018753" lon="26.552464">
<ele>-46.334503</ele>
<time>2010-08-29T10:14:33Z</time>
<desc>lat.=56.018753, lon.=26.552464, Alt.=-46.334503m. Speed=5.436000m/h.</desc>
<speed>1.510000</speed>
</trkpt>
<trkpt lat="56.018761" lon="26.552435">
<ele>-46.270050</ele>
<time>2010-08-29T10:14:34Z</time>
<desc>lat.=56.018761, lon.=26.552435, Alt.=-46.270050m. Speed=5.040000m/h.</desc>
<speed>1.400000</speed>
</trkpt>
<trkpt lat="56.018768" lon="26.552378">
<ele>-46.019073</ele>
<time>2010-08-29T10:14:35Z</time>
<desc>lat.=56.018768, lon.=26.552378, Alt.=-46.019073m. Speed=6.912000m/h.</desc>
<speed>1.920000</speed>
</trkpt>
<trkpt lat="56.018757" lon="26.552340">
<ele>-45.793488</ele>
<time>2010-08-29T10:14:36Z</time>
<desc>lat.=56.018757, lon.=26.552340, Alt.=-45.793488m. Speed=5.976000m/h.</desc>
<speed>1.660000</speed>
</trkpt>
<trkpt lat="56.018757" lon="26.552311">
<ele>-45.543488</ele>
<time>2010-08-29T10:14:37Z</time>
<desc>lat.=56.018757, lon.=26.552311, Alt.=-45.543488m. Speed=3.888000m/h.</desc>
<speed>1.080000</speed>
</trkpt>
<trkpt lat="56.018768" lon="26.552261">
<ele>-45.264191</ele>
<time>2010-08-29T10:14:38Z</time>
<desc>lat.=56.018768, lon.=26.552261, Alt.=-45.264191m. Speed=4.068000m/h.</desc>
<speed>1.130000</speed>
</trkpt>
<trkpt lat="56.018780" lon="26.552235">
<ele>-44.980011</ele>
<time>2010-08-29T10:14:39Z</time>
<desc>lat.=56.018780, lon.=26.552235, Alt.=-44.980011m. Speed=3.816000m/h.</desc>
<speed>1.060000</speed>
</trkpt>
<trkpt lat="56.018787" lon="26.552206">
<ele>-44.648956</ele>
<time>2010-08-29T10:14:40Z</time>
<desc>lat.=56.018787, lon.=26.552206, Alt.=-44.648956m. Speed=3.528000m/h.</desc>
<speed>0.980000</speed>
</trkpt>
<trkpt lat="56.018791" lon="26.552195">
<ele>-44.313995</ele>
<time>2010-08-29T10:14:41Z</time>
<desc>lat.=56.018791, lon.=26.552195, Alt.=-44.313995m. Speed=0.900000m/h.</desc>
<speed>0.250000</speed>
</trkpt>
<trkpt lat="56.018799" lon="26.552185">
<ele>-44.225128</ele>
<time>2010-08-29T10:14:42Z</time>
<desc>lat.=56.018799, lon.=26.552185, Alt.=-44.225128m. Speed=4.464000m/h.</desc>
<speed>1.240000</speed>
</trkpt>
<trkpt lat="56.018810" lon="26.552168">
<ele>-44.050323</ele>
<time>2010-08-29T10:14:43Z</time>
<desc>lat.=56.018810, lon.=26.552168, Alt.=-44.050323m. Speed=2.916000m/h.</desc>
<speed>0.810000</speed>
</trkpt>
<trkpt lat="56.018822" lon="26.552145">
<ele>-44.002472</ele>
<time>2010-08-29T10:14:44Z</time>
<desc>lat.=56.018822, lon.=26.552145, Alt.=-44.002472m. Speed=4.320000m/h.</desc>
<speed>1.200000</speed>
</trkpt>
<trkpt lat="56.018833" lon="26.552122">
<ele>-43.902863</ele>
<time>2010-08-29T10:14:45Z</time>
<desc>lat.=56.018833, lon.=26.552122, Alt.=-43.902863m. Speed=2.124000m/h.</desc>
<speed>0.590000</speed>
</trkpt>
<trkpt lat="56.018829" lon="26.552103">
<ele>-43.739777</ele>
<time>2010-08-29T10:14:46Z</time>
<desc>lat.=56.018829, lon.=26.552103, Alt.=-43.739777m. Speed=3.636000m/h.</desc>
<speed>1.010000</speed>
</trkpt>
<trkpt lat="56.018837" lon="26.552080">
<ele>-43.561066</ele>
<time>2010-08-29T10:14:47Z</time>
<desc>lat.=56.018837, lon.=26.552080, Alt.=-43.561066m. Speed=3.204000m/h.</desc>
<speed>0.890000</speed>
</trkpt>
<trkpt lat="56.018837" lon="26.552055">
<ele>-43.543488</ele>
<time>2010-08-29T10:14:48Z</time>
<desc>lat.=56.018837, lon.=26.552055, Alt.=-43.543488m. Speed=3.492000m/h.</desc>
<speed>0.970000</speed>
</trkpt>
<trkpt lat="56.018841" lon="26.552029">
<ele>-43.523956</ele>
<time>2010-08-29T10:14:49Z</time>
<desc>lat.=56.018841, lon.=26.552029, Alt.=-43.523956m. Speed=3.996000m/h.</desc>
<speed>1.110000</speed>
</trkpt>
<trkpt lat="56.018845" lon="26.552000">
<ele>-43.432159</ele>
<time>2010-08-29T10:14:50Z</time>
<desc>lat.=56.018845, lon.=26.552000, Alt.=-43.432159m. Speed=4.356000m/h.</desc>
<speed>1.210000</speed>
</trkpt>
<trkpt lat="56.018852" lon="26.551945">
<ele>-43.307159</ele>
<time>2010-08-29T10:14:51Z</time>
<desc>lat.=56.018852, lon.=26.551945, Alt.=-43.307159m. Speed=5.400000m/h.</desc>
<speed>1.500000</speed>
</trkpt>
<trkpt lat="56.018860" lon="26.551916">
<ele>-43.231964</ele>
<time>2010-08-29T10:14:52Z</time>
<desc>lat.=56.018860, lon.=26.551916, Alt.=-43.231964m. Speed=5.508000m/h.</desc>
<speed>1.530000</speed>
</trkpt>
<trkpt lat="56.018867" lon="26.551882">
<ele>-43.110870</ele>
<time>2010-08-29T10:14:53Z</time>
<desc>lat.=56.018867, lon.=26.551882, Alt.=-43.110870m. Speed=7.200000m/h.</desc>
<speed>2.000000</speed>
</trkpt>
<trkpt lat="56.018898" lon="26.551832">
<ele>-43.291534</ele>
<time>2010-08-29T10:14:54Z</time>
<desc>lat.=56.018898, lon.=26.551832, Alt.=-43.291534m. Speed=6.588000m/h.</desc>
<speed>1.830000</speed>
</trkpt>
<trkpt lat="56.018906" lon="26.551796">
<ele>-43.257355</ele>
<time>2010-08-29T10:14:55Z</time>
<desc>lat.=56.018906, lon.=26.551796, Alt.=-43.257355m. Speed=6.156000m/h.</desc>
<speed>1.710000</speed>
</trkpt>
<trkpt lat="56.018921" lon="26.551762">
<ele>-43.268097</ele>
<time>2010-08-29T10:14:56Z</time>
<desc>lat.=56.018921, lon.=26.551762, Alt.=-43.268097m. Speed=5.148000m/h.</desc>
<speed>1.430000</speed>
</trkpt>
<trkpt lat="56.018932" lon="26.551731">
<ele>-43.214386</ele>
<time>2010-08-29T10:14:57Z</time>
<desc>lat.=56.018932, lon.=26.551731, Alt.=-43.214386m. Speed=5.256000m/h.</desc>
<speed>1.460000</speed>
</trkpt>
<trkpt lat="56.018940" lon="26.551706">
<ele>-43.112823</ele>
<time>2010-08-29T10:14:58Z</time>
<desc>lat.=56.018940, lon.=26.551706, Alt.=-43.112823m. Speed=3.744000m/h.</desc>
<speed>1.040000</speed>
</trkpt>
<trkpt lat="56.018959" lon="26.551674">
<ele>-43.036652</ele>
<time>2010-08-29T10:14:59Z</time>
<desc>lat.=56.018959, lon.=26.551674, Alt.=-43.036652m. Speed=3.456000m/h.</desc>
<speed>0.960000</speed>
</trkpt>
<trkpt lat="56.018967" lon="26.551643">
<ele>-42.947784</ele>
<time>2010-08-29T10:15:00Z</time>
<desc>lat.=56.018967, lon.=26.551643, Alt.=-42.947784m. Speed=4.644000m/h.</desc>
<speed>1.290000</speed>
</trkpt>
<trkpt lat="56.018990" lon="26.551527">
<ele>-42.480988</ele>
<time>2010-08-29T10:15:01Z</time>
<desc>lat.=56.018990, lon.=26.551527, Alt.=-42.480988m. Speed=4.896000m/h.</desc>
<speed>1.360000</speed>
</trkpt>
<trkpt lat="56.019001" lon="26.551500">
<ele>-42.224152</ele>
<time>2010-08-29T10:15:02Z</time>
<desc>lat.=56.019001, lon.=26.551500, Alt.=-42.224152m. Speed=5.760000m/h.</desc>
<speed>1.600000</speed>
</trkpt>
<trkpt lat="56.019024" lon="26.551466">
<ele>-41.939972</ele>
<time>2010-08-29T10:15:03Z</time>
<desc>lat.=56.019024, lon.=26.551466, Alt.=-41.939972m. Speed=7.848000m/h.</desc>
<speed>2.180000</speed>
</trkpt>
<trkpt lat="56.019039" lon="26.551430">
<ele>-41.774933</ele>
<time>2010-08-29T10:15:04Z</time>
<desc>lat.=56.019039, lon.=26.551430, Alt.=-41.774933m. Speed=6.336000m/h.</desc>
<speed>1.760000</speed>
</trkpt>
<trkpt lat="56.019054" lon="26.551407">
<ele>-41.508331</ele>
<time>2010-08-29T10:15:05Z</time>
<desc>lat.=56.019054, lon.=26.551407, Alt.=-41.508331m. Speed=5.688000m/h.</desc>
<speed>1.580000</speed>
</trkpt>
<trkpt lat="56.019089" lon="26.551373">
<ele>-41.577667</ele>
<time>2010-08-29T10:15:06Z</time>
<desc>lat.=56.019089, lon.=26.551373, Alt.=-41.577667m. Speed=5.292000m/h.</desc>
<speed>1.470000</speed>
</trkpt>
<trkpt lat="56.019108" lon="26.551327">
<ele>-41.550323</ele>
<time>2010-08-29T10:15:07Z</time>
<desc>lat.=56.019108, lon.=26.551327, Alt.=-41.550323m. Speed=5.544000m/h.</desc>
<speed>1.540000</speed>
</trkpt>
<trkpt lat="56.019119" lon="26.551287">
<ele>-41.276886</ele>
<time>2010-08-29T10:15:08Z</time>
<desc>lat.=56.019119, lon.=26.551287, Alt.=-41.276886m. Speed=4.392000m/h.</desc>
<speed>1.220000</speed>
</trkpt>
<trkpt lat="56.019131" lon="26.551252">
<ele>-41.161652</ele>
<time>2010-08-29T10:15:09Z</time>
<desc>lat.=56.019131, lon.=26.551252, Alt.=-41.161652m. Speed=3.888000m/h.</desc>
<speed>1.080000</speed>
</trkpt>
<trkpt lat="56.019154" lon="26.551104">
<ele>-40.788605</ele>
<time>2010-08-29T10:15:10Z</time>
<desc>lat.=56.019154, lon.=26.551104, Alt.=-40.788605m. Speed=3.420000m/h.</desc>
<speed>0.950000</speed>
</trkpt>
<trkpt lat="56.019077" lon="26.550922">
<ele>-40.578644</ele>
<time>2010-08-29T10:15:11Z</time>
<desc>lat.=56.019077, lon.=26.550922, Alt.=-40.578644m. Speed=4.968000m/h.</desc>
<speed>1.380000</speed>
</trkpt>
<trkpt lat="56.019093" lon="26.550842">
<ele>-40.197784</ele>
<time>2010-08-29T10:15:12Z</time>
<desc>lat.=56.019093, lon.=26.550842, Alt.=-40.197784m. Speed=6.840000m/h.</desc>
<speed>1.900000</speed>
</trkpt>
<trkpt lat="56.019100" lon="26.550798">
<ele>-39.915558</ele>
<time>2010-08-29T10:15:13Z</time>
<desc>lat.=56.019100, lon.=26.550798, Alt.=-39.915558m. Speed=4.356000m/h.</desc>
<speed>1.210000</speed>
</trkpt>
<trkpt lat="56.019093" lon="26.550762">
<ele>-39.819855</ele>
<time>2010-08-29T10:15:14Z</time>
<desc>lat.=56.019093, lon.=26.550762, Alt.=-39.819855m. Speed=5.796000m/h.</desc>
<speed>1.610000</speed>
</trkpt>
<trkpt lat="56.019089" lon="26.550707">
<ele>-39.789581</ele>
<time>2010-08-29T10:15:15Z</time>
<desc>lat.=56.019089, lon.=26.550707, Alt.=-39.789581m. Speed=5.508000m/h.</desc>
<speed>1.530000</speed>
</trkpt>
<trkpt lat="56.019100" lon="26.550663">
<ele>-39.466339</ele>
<time>2010-08-29T10:15:16Z</time>
<desc>lat.=56.019100, lon.=26.550663, Alt.=-39.466339m. Speed=4.644000m/h.</desc>
<speed>1.290000</speed>
</trkpt>
<trkpt lat="56.019138" lon="26.550615">
<ele>-39.360870</ele>
<time>2010-08-29T10:15:17Z</time>
<desc>lat.=56.019138, lon.=26.550615, Alt.=-39.360870m. Speed=2.916000m/h.</desc>
<speed>0.810000</speed>
</trkpt>
<trkpt lat="56.019142" lon="26.550587">
<ele>-39.055206</ele>
<time>2010-08-29T10:15:18Z</time>
<desc>lat.=56.019142, lon.=26.550587, Alt.=-39.055206m. Speed=3.384000m/h.</desc>
<speed>0.940000</speed>
</trkpt>
<trkpt lat="56.019176" lon="26.550549">
<ele>-38.910675</ele>
<time>2010-08-29T10:15:19Z</time>
<desc>lat.=56.019176, lon.=26.550549, Alt.=-38.910675m. Speed=3.852000m/h.</desc>
<speed>1.070000</speed>
</trkpt>
<trkpt lat="56.019176" lon="26.550510">
<ele>-38.596222</ele>
<time>2010-08-29T10:15:20Z</time>
<desc>lat.=56.019176, lon.=26.550510, Alt.=-38.596222m. Speed=4.320000m/h.</desc>
<speed>1.200000</speed>
</trkpt>
<trkpt lat="56.019184" lon="26.550480">
<ele>-38.375519</ele>
<time>2010-08-29T10:15:21Z</time>
<desc>lat.=56.019184, lon.=26.550480, Alt.=-38.375519m. Speed=3.744000m/h.</desc>
<speed>1.040000</speed>
</trkpt>
<trkpt lat="56.019203" lon="26.550451">
<ele>-38.134308</ele>
<time>2010-08-29T10:15:22Z</time>
<desc>lat.=56.019203, lon.=26.550451, Alt.=-38.134308m. Speed=3.924000m/h.</desc>
<speed>1.090000</speed>
</trkpt>
<trkpt lat="56.019215" lon="26.550421">
<ele>-37.969269</ele>
<time>2010-08-29T10:15:23Z</time>
<desc>lat.=56.019215, lon.=26.550421, Alt.=-37.969269m. Speed=4.068000m/h.</desc>
<speed>1.130000</speed>
</trkpt>
<trkpt lat="56.019234" lon="26.550379">
<ele>-38.010284</ele>
<time>2010-08-29T10:15:24Z</time>
<desc>lat.=56.019234, lon.=26.550379, Alt.=-38.010284m. Speed=6.516000m/h.</desc>
<speed>1.810000</speed>
</trkpt>
<trkpt lat="56.019245" lon="26.550358">
<ele>-37.918488</ele>
<time>2010-08-29T10:15:25Z</time>
<desc>lat.=56.019245, lon.=26.550358, Alt.=-37.918488m. Speed=4.752000m/h.</desc>
<speed>1.320000</speed>
</trkpt>
<trkpt lat="56.019253" lon="26.550339">
<ele>-37.672394</ele>
<time>2010-08-29T10:15:26Z</time>
<desc>lat.=56.019253, lon.=26.550339, Alt.=-37.672394m. Speed=4.464000m/h.</desc>
<speed>1.240000</speed>
</trkpt>
<trkpt lat="56.019257" lon="26.550301">
<ele>-37.527863</ele>
<time>2010-08-29T10:15:27Z</time>
<desc>lat.=56.019257, lon.=26.550301, Alt.=-37.527863m. Speed=5.616000m/h.</desc>
<speed>1.560000</speed>
</trkpt>
<trkpt lat="56.019268" lon="26.550259">
<ele>-37.219269</ele>
<time>2010-08-29T10:15:28Z</time>
<desc>lat.=56.019268, lon.=26.550259, Alt.=-37.219269m. Speed=6.516000m/h.</desc>
<speed>1.810000</speed>
</trkpt>
<trkpt lat="56.019283" lon="26.550213">
<ele>-37.004425</ele>
<time>2010-08-29T10:15:29Z</time>
<desc>lat.=56.019283, lon.=26.550213, Alt.=-37.004425m. Speed=6.048000m/h.</desc>
<speed>1.680000</speed>
</trkpt>
<trkpt lat="56.019295" lon="26.550175">
<ele>-37.005402</ele>
<time>2010-08-29T10:15:30Z</time>
<desc>lat.=56.019295, lon.=26.550175, Alt.=-37.005402m. Speed=4.536000m/h.</desc>
<speed>1.260000</speed>
</trkpt>
<trkpt lat="56.019299" lon="26.550152">
<ele>-36.928253</ele>
<time>2010-08-29T10:15:31Z</time>
<desc>lat.=56.019299, lon.=26.550152, Alt.=-36.928253m. Speed=4.572000m/h.</desc>
<speed>1.270000</speed>
</trkpt>
<trkpt lat="56.019318" lon="26.550135">
<ele>-36.553253</ele>
<time>2010-08-29T10:15:32Z</time>
<desc>lat.=56.019318, lon.=26.550135, Alt.=-36.553253m. Speed=4.284000m/h.</desc>
<speed>1.190000</speed>
</trkpt>
<trkpt lat="56.019337" lon="26.550112">
<ele>-36.355988</ele>
<time>2010-08-29T10:15:33Z</time>
<desc>lat.=56.019337, lon.=26.550112, Alt.=-36.355988m. Speed=4.608000m/h.</desc>
<speed>1.280000</speed>
</trkpt>
<trkpt lat="56.019352" lon="26.550081">
<ele>-36.379425</ele>
<time>2010-08-29T10:15:34Z</time>
<desc>lat.=56.019352, lon.=26.550081, Alt.=-36.379425m. Speed=3.636000m/h.</desc>
<speed>1.010000</speed>
</trkpt>
<trkpt lat="56.019367" lon="26.550041">
<ele>-36.199738</ele>
<time>2010-08-29T10:15:35Z</time>
<desc>lat.=56.019367, lon.=26.550041, Alt.=-36.199738m. Speed=4.680000m/h.</desc>
<speed>1.300000</speed>
</trkpt>
<trkpt lat="56.019394" lon="26.550009">
<ele>-36.104034</ele>
<time>2010-08-29T10:15:36Z</time>
<desc>lat.=56.019394, lon.=26.550009, Alt.=-36.104034m. Speed=6.264000m/h.</desc>
<speed>1.740000</speed>
</trkpt>
<trkpt lat="56.019417" lon="26.549976">
<ele>-35.952667</ele>
<time>2010-08-29T10:15:37Z</time>
<desc>lat.=56.019417, lon.=26.549976, Alt.=-35.952667m. Speed=6.804000m/h.</desc>
<speed>1.890000</speed>
</trkpt>
<trkpt lat="56.019436" lon="26.549952">
<ele>-35.765167</ele>
<time>2010-08-29T10:15:38Z</time>
<desc>lat.=56.019436, lon.=26.549952, Alt.=-35.765167m. Speed=5.148000m/h.</desc>
<speed>1.430000</speed>
</trkpt>
<trkpt lat="56.019451" lon="26.549925">
<ele>-35.576691</ele>
<time>2010-08-29T10:15:39Z</time>
<desc>lat.=56.019451, lon.=26.549925, Alt.=-35.576691m. Speed=5.256000m/h.</desc>
<speed>1.460000</speed>
</trkpt>
<trkpt lat="56.019463" lon="26.549892">
<ele>-35.375519</ele>
<time>2010-08-29T10:15:40Z</time>
<desc>lat.=56.019463, lon.=26.549892, Alt.=-35.375519m. Speed=5.832000m/h.</desc>
<speed>1.620000</speed>
</trkpt>
<trkpt lat="56.019459" lon="26.549864">
<ele>-35.168488</ele>
<time>2010-08-29T10:15:41Z</time>
<desc>lat.=56.019459, lon.=26.549864, Alt.=-35.168488m. Speed=5.976000m/h.</desc>
<speed>1.660000</speed>
</trkpt>
<trkpt lat="56.019478" lon="26.549816">
<ele>-35.099152</ele>
<time>2010-08-29T10:15:42Z</time>
<desc>lat.=56.019478, lon.=26.549816, Alt.=-35.099152m. Speed=6.552000m/h.</desc>
<speed>1.820000</speed>
</trkpt>
<trkpt lat="56.019524" lon="26.549721">
<ele>-34.951691</ele>
<time>2010-08-29T10:15:43Z</time>
<desc>lat.=56.019524, lon.=26.549721, Alt.=-34.951691m. Speed=6.732000m/h.</desc>
<speed>1.870000</speed>
</trkpt>
<trkpt lat="56.019531" lon="26.549694">
<ele>-34.697784</ele>
<time>2010-08-29T10:15:44Z</time>
<desc>lat.=56.019531, lon.=26.549694, Alt.=-34.697784m. Speed=8.316000m/h.</desc>
<speed>2.310000</speed>
</trkpt>
<trkpt lat="56.019566" lon="26.549501">
<ele>-34.742706</ele>
<time>2010-08-29T10:15:45Z</time>
<desc>lat.=56.019566, lon.=26.549501, Alt.=-34.742706m. Speed=5.328000m/h.</desc>
<speed>1.480000</speed>
</trkpt>
<trkpt lat="56.019569" lon="26.549479">
<ele>-34.504425</ele>
<time>2010-08-29T10:15:46Z</time>
<desc>lat.=56.019569, lon.=26.549479, Alt.=-34.504425m. Speed=3.240000m/h.</desc>
<speed>0.900000</speed>
</trkpt>
<trkpt lat="56.019573" lon="26.549467">
<ele>-34.244659</ele>
<time>2010-08-29T10:15:47Z</time>
<desc>lat.=56.019573, lon.=26.549467, Alt.=-34.244659m. Speed=2.088000m/h.</desc>
<speed>0.580000</speed>
</trkpt>
<trkpt lat="56.019573" lon="26.549458">
<ele>-33.982941</ele>
<time>2010-08-29T10:15:48Z</time>
<desc>lat.=56.019573, lon.=26.549458, Alt.=-33.982941m. Speed=1.800000m/h.</desc>
<speed>0.500000</speed>
</trkpt>
<trkpt lat="56.019581" lon="26.549450">
<ele>-33.782745</ele>
<time>2010-08-29T10:15:49Z</time>
<desc>lat.=56.019581, lon.=26.549450, Alt.=-33.782745m. Speed=1.296000m/h.</desc>
<speed>0.360000</speed>
</trkpt>
<trkpt lat="56.019592" lon="26.549438">
<ele>-33.507355</ele>
<time>2010-08-29T10:15:50Z</time>
<desc>lat.=56.019592, lon.=26.549438, Alt.=-33.507355m. Speed=1.116000m/h.</desc>
<speed>0.310000</speed>
</trkpt>
<trkpt lat="56.019608" lon="26.549421">
<ele>-33.256378</ele>
<time>2010-08-29T10:15:51Z</time>
<desc>lat.=56.019608, lon.=26.549421, Alt.=-33.256378m. Speed=0.576000m/h.</desc>
<speed>0.160000</speed>
</trkpt>
<trkpt lat="56.019611" lon="26.549416">
<ele>-33.501495</ele>
<time>2010-08-29T10:15:52Z</time>
<desc>lat.=56.019611, lon.=26.549416, Alt.=-33.501495m. Speed=0.684000m/h.</desc>
<speed>0.190000</speed>
</trkpt>
<trkpt lat="56.019627" lon="26.549408">
<ele>-33.316925</ele>
<time>2010-08-29T10:15:53Z</time>
<desc>lat.=56.019627, lon.=26.549408, Alt.=-33.316925m. Speed=0.828000m/h.</desc>
<speed>0.230000</speed>
</trkpt>
<trkpt lat="56.019638" lon="26.549393">
<ele>-33.162628</ele>
<time>2010-08-29T10:15:54Z</time>
<desc>lat.=56.019638, lon.=26.549393, Alt.=-33.162628m. Speed=1.008000m/h.</desc>
<speed>0.280000</speed>
</trkpt>
<trkpt lat="56.019638" lon="26.549389">
<ele>-33.040558</ele>
<time>2010-08-29T10:15:55Z</time>
<desc>lat.=56.019638, lon.=26.549389, Alt.=-33.040558m. Speed=0.828000m/h.</desc>
<speed>0.230000</speed>
</trkpt>
<trkpt lat="56.019638" lon="26.549385">
<ele>-32.942902</ele>
<time>2010-08-29T10:15:56Z</time>
<desc>lat.=56.019638, lon.=26.549385, Alt.=-32.942902m. Speed=0.828000m/h.</desc>
<speed>0.230000</speed>
</trkpt>
<trkpt lat="56.019642" lon="26.549381">
<ele>-32.857941</ele>
<time>2010-08-29T10:15:57Z</time>
<desc>lat.=56.019642, lon.=26.549381, Alt.=-32.857941m. Speed=0.864000m/h.</desc>
<speed>0.240000</speed>
</trkpt>
<trkpt lat="56.019642" lon="26.549377">
<ele>-32.788605</ele>
<time>2010-08-29T10:15:58Z</time>
<desc>lat.=56.019642, lon.=26.549377, Alt.=-32.788605m. Speed=0.864000m/h.</desc>
<speed>0.240000</speed>
</trkpt>
<trkpt lat="56.019646" lon="26.549376">
<ele>-32.730988</ele>
<time>2010-08-29T10:15:59Z</time>
<desc>lat.=56.019646, lon.=26.549376, Alt.=-32.730988m. Speed=1.116000m/h.</desc>
<speed>0.310000</speed>
</trkpt>
<trkpt lat="56.019669" lon="26.549356">
<ele>-32.530792</ele>
<time>2010-08-29T10:16:00Z</time>
<desc>lat.=56.019669, lon.=26.549356, Alt.=-32.530792m. Speed=1.188000m/h.</desc>
<speed>0.330000</speed>
</trkpt>
<trkpt lat="56.019684" lon="26.549360">
<ele>-32.302277</ele>
<time>2010-08-29T10:16:01Z</time>
<desc>lat.=56.019684, lon.=26.549360, Alt.=-32.302277m. Speed=1.296000m/h.</desc>
<speed>0.360000</speed>
</trkpt>
<trkpt lat="56.019703" lon="26.549345">
<ele>-32.060089</ele>
<time>2010-08-29T10:16:02Z</time>
<desc>lat.=56.019703, lon.=26.549345, Alt.=-32.060089m. Speed=1.332000m/h.</desc>
<speed>0.370000</speed>
</trkpt>
<trkpt lat="56.019703" lon="26.549337">
<ele>-31.937759</ele>
<time>2010-08-29T10:16:03Z</time>
<desc>lat.=56.019703, lon.=26.549337, Alt.=-31.937759m. Speed=1.296000m/h.</desc>
<speed>0.360000</speed>
</trkpt>
<trkpt lat="56.019672" lon="26.549328">
<ele>-31.922134</ele>
<time>2010-08-29T10:16:04Z</time>
<desc>lat.=56.019672, lon.=26.549328, Alt.=-31.922134m. Speed=1.080000m/h.</desc>
<speed>0.300000</speed>
</trkpt>
<trkpt lat="56.019669" lon="26.549316">
<ele>-31.857193</ele>
<time>2010-08-29T10:16:05Z</time>
<desc>lat.=56.019669, lon.=26.549316, Alt.=-31.857193m. Speed=1.188000m/h.</desc>
<speed>0.330000</speed>
</trkpt>
<trkpt lat="56.019665" lon="26.549309">
<ele>-31.806412</ele>
<time>2010-08-29T10:16:06Z</time>
<desc>lat.=56.019665, lon.=26.549309, Alt.=-31.806412m. Speed=1.152000m/h.</desc>
<speed>0.320000</speed>
</trkpt>
<trkpt lat="56.019657" lon="26.549305">
<ele>-31.766861</ele>
<time>2010-08-29T10:16:07Z</time>
<desc>lat.=56.019657, lon.=26.549305, Alt.=-31.766861m. Speed=1.044000m/h.</desc>
<speed>0.290000</speed>
</trkpt>
<trkpt lat="56.019646" lon="26.549305">
<ele>-31.858170</ele>
<time>2010-08-29T10:16:08Z</time>
<desc>lat.=56.019646, lon.=26.549305, Alt.=-31.858170m. Speed=0.972000m/h.</desc>
<speed>0.270000</speed>
</trkpt>
<trkpt lat="56.019634" lon="26.549303">
<ele>-31.873795</ele>
<time>2010-08-29T10:16:09Z</time>
<desc>lat.=56.019634, lon.=26.549303, Alt.=-31.873795m. Speed=0.828000m/h.</desc>
<speed>0.230000</speed>
</trkpt>
<trkpt lat="56.019627" lon="26.549292">
<ele>-31.965103</ele>
<time>2010-08-29T10:16:10Z</time>
<desc>lat.=56.019627, lon.=26.549292, Alt.=-31.965103m. Speed=0.900000m/h.</desc>
<speed>0.250000</speed>
</trkpt>
<trkpt lat="56.019627" lon="26.549290">
<ele>-31.928970</ele>
<time>2010-08-29T10:16:11Z</time>
<desc>lat.=56.019627, lon.=26.549290, Alt.=-31.928970m. Speed=0.540000m/h.</desc>
<speed>0.150000</speed>
</trkpt>
<trkpt lat="56.019627" lon="26.549288">
<ele>-31.897720</ele>
<time>2010-08-29T10:16:12Z</time>
<desc>lat.=56.019627, lon.=26.549288, Alt.=-31.897720m. Speed=0.648000m/h.</desc>
<speed>0.180000</speed>
</trkpt>
<trkpt lat="56.019627" lon="26.549284">
<ele>-31.862564</ele>
<time>2010-08-29T10:16:13Z</time>
<desc>lat.=56.019627, lon.=26.549284, Alt.=-31.862564m. Speed=0.396000m/h.</desc>
<speed>0.110000</speed>
</trkpt>
<trkpt lat="56.019627" lon="26.549282">
<ele>-31.832291</ele>
<time>2010-08-29T10:16:14Z</time>
<desc>lat.=56.019627, lon.=26.549282, Alt.=-31.832291m. Speed=0.576000m/h.</desc>
<speed>0.160000</speed>
</trkpt>
<trkpt lat="56.019627" lon="26.549280">
<ele>-31.813248</ele>
<time>2010-08-29T10:16:15Z</time>
<desc>lat.=56.019627, lon.=26.549280, Alt.=-31.813248m. Speed=0.612000m/h.</desc>
<speed>0.170000</speed>
</trkpt>
<trkpt lat="56.019627" lon="26.549276">
<ele>-31.798111</ele>
<time>2010-08-29T10:16:16Z</time>
<desc>lat.=56.019627, lon.=26.549276, Alt.=-31.798111m. Speed=0.432000m/h.</desc>
<speed>0.120000</speed>
</trkpt>
<trkpt lat="56.019627" lon="26.549274">
<ele>-31.783951</ele>
<time>2010-08-29T10:16:17Z</time>
<desc>lat.=56.019627, lon.=26.549274, Alt.=-31.783951m. Speed=0.540000m/h.</desc>
<speed>0.150000</speed>
</trkpt>
<trkpt lat="56.019630" lon="26.549273">
<ele>-31.761978</ele>
<time>2010-08-29T10:16:18Z</time>
<desc>lat.=56.019630, lon.=26.549273, Alt.=-31.761978m. Speed=0.396000m/h.</desc>
<speed>0.110000</speed>
</trkpt>
<trkpt lat="56.019630" lon="26.549271">
<ele>-31.745377</ele>
<time>2010-08-29T10:16:19Z</time>
<desc>lat.=56.019630, lon.=26.549271, Alt.=-31.745377m. Speed=0.324000m/h.</desc>
<speed>0.090000</speed>
</trkpt>
<trkpt lat="56.019630" lon="26.549269">
<ele>-31.731216</ele>
<time>2010-08-29T10:16:20Z</time>
<desc>lat.=56.019630, lon.=26.549269, Alt.=-31.731216m. Speed=0.396000m/h.</desc>
<speed>0.110000</speed>
</trkpt>
<trkpt lat="56.019630" lon="26.549267">
<ele>-31.719498</ele>
<time>2010-08-29T10:16:21Z</time>
<desc>lat.=56.019630, lon.=26.549267, Alt.=-31.719498m. Speed=0.396000m/h.</desc>
<speed>0.110000</speed>
</trkpt>
<trkpt lat="56.019634" lon="26.549267">
<ele>-31.707291</ele>
<time>2010-08-29T10:16:22Z</time>
<desc>lat.=56.019634, lon.=26.549267, Alt.=-31.707291m. Speed=0.396000m/h.</desc>
<speed>0.110000</speed>
</trkpt>
<trkpt lat="56.019634" lon="26.549265">
<ele>-31.699478</ele>
<time>2010-08-29T10:16:23Z</time>
<desc>lat.=56.019634, lon.=26.549265, Alt.=-31.699478m. Speed=0.252000m/h.</desc>
<speed>0.070000</speed>
</trkpt>
<trkpt lat="56.019634" lon="26.549265">
<ele>-31.695084</ele>
<time>2010-08-29T10:16:24Z</time>
<desc>lat.=56.019634, lon.=26.549265, Alt.=-31.695084m. Speed=0.180000m/h.</desc>
<speed>0.050000</speed>
</trkpt>
<trkpt lat="56.019634" lon="26.549263">
<ele>-31.692642</ele>
<time>2010-08-29T10:16:25Z</time>
<desc>lat.=56.019634, lon.=26.549263, Alt.=-31.692642m. Speed=0.324000m/h.</desc>
<speed>0.090000</speed>
</trkpt>
<trkpt lat="56.019638" lon="26.549263">
<ele>-31.689713</ele>
<time>2010-08-29T10:16:26Z</time>
<desc>lat.=56.019638, lon.=26.549263, Alt.=-31.689713m. Speed=0.036000m/h.</desc>
<speed>0.010000</speed>
</trkpt>
<trkpt lat="56.019650" lon="26.549259">
<ele>-31.534927</ele>
<time>2010-08-29T10:16:27Z</time>
<desc>lat.=56.019650, lon.=26.549259, Alt.=-31.534927m. Speed=0.108000m/h.</desc>
<speed>0.030000</speed>
</trkpt>
<trkpt lat="56.019650" lon="26.549259">
<ele>-31.536880</ele>
<time>2010-08-29T10:16:28Z</time>
<desc>lat.=56.019650, lon.=26.549259, Alt.=-31.536880m. Speed=0.252000m/h.</desc>
<speed>0.070000</speed>
</trkpt>
<trkpt lat="56.019650" lon="26.549257">
<ele>-31.538834</ele>
<time>2010-08-29T10:16:29Z</time>
<desc>lat.=56.019650, lon.=26.549257, Alt.=-31.538834m. Speed=0.180000m/h.</desc>
<speed>0.050000</speed>
</trkpt>
<trkpt lat="56.019653" lon="26.549259">
<ele>-31.540787</ele>
<time>2010-08-29T10:16:30Z</time>
<desc>lat.=56.019653, lon.=26.549259, Alt.=-31.540787m. Speed=0.324000m/h.</desc>
<speed>0.090000</speed>
</trkpt>
<trkpt lat="56.019653" lon="26.549259">
<ele>-31.546158</ele>
<time>2010-08-29T10:16:31Z</time>
<desc>lat.=56.019653, lon.=26.549259, Alt.=-31.546158m. Speed=0.684000m/h.</desc>
<speed>0.190000</speed>
</trkpt>
<trkpt lat="56.019653" lon="26.549259">
<ele>-31.555435</ele>
<time>2010-08-29T10:16:32Z</time>
<desc>lat.=56.019653, lon.=26.549259, Alt.=-31.555435m. Speed=0.792000m/h.</desc>
<speed>0.220000</speed>
</trkpt>
<trkpt lat="56.019657" lon="26.549261">
<ele>-31.563248</ele>
<time>2010-08-29T10:16:33Z</time>
<desc>lat.=56.019657, lon.=26.549261, Alt.=-31.563248m. Speed=0.720000m/h.</desc>
<speed>0.200000</speed>
</trkpt>
<trkpt lat="56.019657" lon="26.549263">
<ele>-31.568619</ele>
<time>2010-08-29T10:16:34Z</time>
<desc>lat.=56.019657, lon.=26.549263, Alt.=-31.568619m. Speed=0.540000m/h.</desc>
<speed>0.150000</speed>
</trkpt>
<trkpt lat="56.019661" lon="26.549265">
<ele>-31.573990</ele>
<time>2010-08-29T10:16:35Z</time>
<desc>lat.=56.019661, lon.=26.549265, Alt.=-31.573990m. Speed=0.828000m/h.</desc>
<speed>0.230000</speed>
</trkpt>
<trkpt lat="56.019661" lon="26.549269">
<ele>-31.578384</ele>
<time>2010-08-29T10:16:36Z</time>
<desc>lat.=56.019661, lon.=26.549269, Alt.=-31.578384m. Speed=0.504000m/h.</desc>
<speed>0.140000</speed>
</trkpt>
<trkpt lat="56.019665" lon="26.549269">
<ele>-31.584732</ele>
<time>2010-08-29T10:16:37Z</time>
<desc>lat.=56.019665, lon.=26.549269, Alt.=-31.584732m. Speed=1.044000m/h.</desc>
<speed>0.290000</speed>
</trkpt>
<trkpt lat="56.019669" lon="26.549271">
<ele>-31.592056</ele>
<time>2010-08-29T10:16:38Z</time>
<desc>lat.=56.019669, lon.=26.549271, Alt.=-31.592056m. Speed=1.440000m/h.</desc>
<speed>0.400000</speed>
</trkpt>
<trkpt lat="56.019691" lon="26.549274">
<ele>-31.543228</ele>
<time>2010-08-29T10:16:39Z</time>
<desc>lat.=56.019691, lon.=26.549274, Alt.=-31.543228m. Speed=1.728000m/h.</desc>
<speed>0.480000</speed>
</trkpt>
<trkpt lat="56.019711" lon="26.549294">
<ele>-31.537857</ele>
<time>2010-08-29T10:16:40Z</time>
<desc>lat.=56.019711, lon.=26.549294, Alt.=-31.537857m. Speed=1.188000m/h.</desc>
<speed>0.330000</speed>
</trkpt>
<trkpt lat="56.019745" lon="26.549318">
<ele>-31.507584</ele>
<time>2010-08-29T10:16:41Z</time>
<desc>lat.=56.019745, lon.=26.549318, Alt.=-31.507584m. Speed=1.404000m/h.</desc>
<speed>0.390000</speed>
</trkpt>
<trkpt lat="56.019760" lon="26.549324">
<ele>-31.575455</ele>
<time>2010-08-29T10:16:42Z</time>
<desc>lat.=56.019760, lon.=26.549324, Alt.=-31.575455m. Speed=1.404000m/h.</desc>
<speed>0.390000</speed>
</trkpt>
<trkpt lat="56.019775" lon="26.549330">
<ele>-31.656021</ele>
<time>2010-08-29T10:16:43Z</time>
<desc>lat.=56.019775, lon.=26.549330, Alt.=-31.656021m. Speed=1.872000m/h.</desc>
<speed>0.520000</speed>
</trkpt>
<trkpt lat="56.019783" lon="26.549335">
<ele>-31.727310</ele>
<time>2010-08-29T10:16:44Z</time>
<desc>lat.=56.019783, lon.=26.549335, Alt.=-31.727310m. Speed=1.476000m/h.</desc>
<speed>0.410000</speed>
</trkpt>
<trkpt lat="56.019794" lon="26.549343">
<ele>-31.844986</ele>
<time>2010-08-29T10:16:45Z</time>
<desc>lat.=56.019794, lon.=26.549343, Alt.=-31.844986m. Speed=1.404000m/h.</desc>
<speed>0.390000</speed>
</trkpt>
<trkpt lat="56.019806" lon="26.549345">
<ele>-31.916763</ele>
<time>2010-08-29T10:16:46Z</time>
<desc>lat.=56.019806, lon.=26.549345, Alt.=-31.916763m. Speed=1.512000m/h.</desc>
<speed>0.420000</speed>
</trkpt>
<trkpt lat="56.019814" lon="26.549343">
<ele>-31.975357</ele>
<time>2010-08-29T10:16:47Z</time>
<desc>lat.=56.019814, lon.=26.549343, Alt.=-31.975357m. Speed=1.584000m/h.</desc>
<speed>0.440000</speed>
</trkpt>
<trkpt lat="56.019829" lon="26.549343">
<ele>-32.121613</ele>
<time>2010-08-29T10:16:48Z</time>
<desc>lat.=56.019829, lon.=26.549343, Alt.=-32.121613m. Speed=1.368000m/h.</desc>
<speed>0.380000</speed>
</trkpt>
<trkpt lat="56.019829" lon="26.549334">
<ele>-32.230988</ele>
<time>2010-08-29T10:16:49Z</time>
<desc>lat.=56.019829, lon.=26.549334, Alt.=-32.230988m. Speed=1.152000m/h.</desc>
<speed>0.320000</speed>
</trkpt>
<trkpt lat="56.019840" lon="26.549322">
<ele>-32.367706</ele>
<time>2010-08-29T10:16:50Z</time>
<desc>lat.=56.019840, lon.=26.549322, Alt.=-32.367706m. Speed=1.332000m/h.</desc>
<speed>0.370000</speed>
</trkpt>
<trkpt lat="56.019852" lon="26.549314">
<ele>-32.467316</ele>
<time>2010-08-29T10:16:51Z</time>
<desc>lat.=56.019852, lon.=26.549314, Alt.=-32.467316m. Speed=1.332000m/h.</desc>
<speed>0.370000</speed>
</trkpt>
<trkpt lat="56.019855" lon="26.549309">
<ele>-32.529816</ele>
<time>2010-08-29T10:16:52Z</time>
<desc>lat.=56.019855, lon.=26.549309, Alt.=-32.529816m. Speed=1.188000m/h.</desc>
<speed>0.330000</speed>
</trkpt>
<trkpt lat="56.019863" lon="26.549305">
<ele>-32.545441</ele>
<time>2010-08-29T10:16:53Z</time>
<desc>lat.=56.019863, lon.=26.549305, Alt.=-32.545441m. Speed=1.296000m/h.</desc>
<speed>0.360000</speed>
</trkpt>
<trkpt lat="56.019867" lon="26.549303">
<ele>-32.579620</ele>
<time>2010-08-29T10:16:54Z</time>
<desc>lat.=56.019867, lon.=26.549303, Alt.=-32.579620m. Speed=0.828000m/h.</desc>
<speed>0.230000</speed>
</trkpt>
<trkpt lat="56.019882" lon="26.549297">
<ele>-32.520050</ele>
<time>2010-08-29T10:16:55Z</time>
<desc>lat.=56.019882, lon.=26.549297, Alt.=-32.520050m. Speed=0.612000m/h.</desc>
<speed>0.170000</speed>
</trkpt>
<trkpt lat="56.019897" lon="26.549292">
<ele>-32.457550</ele>
<time>2010-08-29T10:16:56Z</time>
<desc>lat.=56.019897, lon.=26.549292, Alt.=-32.457550m. Speed=0.828000m/h.</desc>
<speed>0.230000</speed>
</trkpt>
<trkpt lat="56.019917" lon="26.549282">
<ele>-32.395050</ele>
<time>2010-08-29T10:16:57Z</time>
<desc>lat.=56.019917, lon.=26.549282, Alt.=-32.395050m. Speed=1.116000m/h.</desc>
<speed>0.310000</speed>
</trkpt>
<trkpt lat="56.019920" lon="26.549280">
<ele>-32.405792</ele>
<time>2010-08-29T10:16:58Z</time>
<desc>lat.=56.019920, lon.=26.549280, Alt.=-32.405792m. Speed=1.008000m/h.</desc>
<speed>0.280000</speed>
</trkpt>
<trkpt lat="56.019932" lon="26.549282">
<ele>-32.117706</ele>
<time>2010-08-29T10:16:59Z</time>
<desc>lat.=56.019932, lon.=26.549282, Alt.=-32.117706m. Speed=1.008000m/h.</desc>
<speed>0.280000</speed>
</trkpt>
<trkpt lat="56.019936" lon="26.549280">
<ele>-32.126495</ele>
<time>2010-08-29T10:17:00Z</time>
<desc>lat.=56.019936, lon.=26.549280, Alt.=-32.126495m. Speed=1.656000m/h.</desc>
<speed>0.460000</speed>
</trkpt>
<trkpt lat="56.019939" lon="26.549278">
<ele>-32.133331</ele>
<time>2010-08-29T10:17:01Z</time>
<desc>lat.=56.019939, lon.=26.549278, Alt.=-32.133331m. Speed=1.980000m/h.</desc>
<speed>0.550000</speed>
</trkpt>
<trkpt lat="56.020744" lon="26.548828">
<ele>-31.352798</ele>
<time>2010-08-29T10:17:02Z</time>
<desc>lat.=56.020744, lon.=26.548828, Alt.=-31.352798m. Speed=1.044000m/h.</desc>
<speed>0.290000</speed>
</trkpt>
<trkpt lat="56.020748" lon="26.548828">
<ele>-31.358170</ele>
<time>2010-08-29T10:17:03Z</time>
<desc>lat.=56.020748, lon.=26.548828, Alt.=-31.358170m. Speed=0.468000m/h.</desc>
<speed>0.130000</speed>
</trkpt>
<trkpt lat="56.020748" lon="26.548828">
<ele>-31.360611</ele>
<time>2010-08-29T10:17:04Z</time>
<desc>lat.=56.020748, lon.=26.548828, Alt.=-31.360611m. Speed=0.468000m/h.</desc>
<speed>0.130000</speed>
</trkpt>
<trkpt lat="56.020763" lon="26.548830">
<ele>-31.119888</ele>
<time>2010-08-29T10:17:05Z</time>
<desc>lat.=56.020763, lon.=26.548830, Alt.=-31.119888m. Speed=0.792000m/h.</desc>
<speed>0.220000</speed>
</trkpt>
<trkpt lat="56.020767" lon="26.548832">
<ele>-31.120865</ele>
<time>2010-08-29T10:17:06Z</time>
<desc>lat.=56.020767, lon.=26.548832, Alt.=-31.120865m. Speed=0.612000m/h.</desc>
<speed>0.170000</speed>
</trkpt>
<trkpt lat="56.020767" lon="26.548832">
<ele>-31.123306</ele>
<time>2010-08-29T10:17:07Z</time>
<desc>lat.=56.020767, lon.=26.548832, Alt.=-31.123306m. Speed=0.360000m/h.</desc>
<speed>0.100000</speed>
</trkpt>
<trkpt lat="56.020767" lon="26.548832">
<ele>-31.125259</ele>
<time>2010-08-29T10:17:08Z</time>
<desc>lat.=56.020767, lon.=26.548832, Alt.=-31.125259m. Speed=0.324000m/h.</desc>
<speed>0.090000</speed>
</trkpt>
<trkpt lat="56.020771" lon="26.548832">
<ele>-31.123306</ele>
<time>2010-08-29T10:17:09Z</time>
<desc>lat.=56.020771, lon.=26.548832, Alt.=-31.123306m. Speed=0.540000m/h.</desc>
<speed>0.150000</speed>
</trkpt>
<trkpt lat="56.020771" lon="26.548830">
<ele>-31.123306</ele>
<time>2010-08-29T10:17:10Z</time>
<desc>lat.=56.020771, lon.=26.548830, Alt.=-31.123306m. Speed=0.684000m/h.</desc>
<speed>0.190000</speed>
</trkpt>
<trkpt lat="56.020771" lon="26.548828">
<ele>-31.122818</ele>
<time>2010-08-29T10:17:11Z</time>
<desc>lat.=56.020771, lon.=26.548828, Alt.=-31.122818m. Speed=0.576000m/h.</desc>
<speed>0.160000</speed>
</trkpt>
<trkpt lat="56.020775" lon="26.548824">
<ele>-31.124283</ele>
<time>2010-08-29T10:17:12Z</time>
<desc>lat.=56.020775, lon.=26.548824, Alt.=-31.124283m. Speed=0.216000m/h.</desc>
<speed>0.060000</speed>
</trkpt>
<trkpt lat="56.020775" lon="26.548824">
<ele>-31.124771</ele>
<time>2010-08-29T10:17:13Z</time>
<desc>lat.=56.020775, lon.=26.548824, Alt.=-31.124771m. Speed=0.288000m/h.</desc>
<speed>0.080000</speed>
</trkpt>
<trkpt lat="56.020775" lon="26.548822">
<ele>-31.122330</ele>
<time>2010-08-29T10:17:14Z</time>
<desc>lat.=56.020775, lon.=26.548822, Alt.=-31.122330m. Speed=0.252000m/h.</desc>
<speed>0.070000</speed>
</trkpt>
<trkpt lat="56.020775" lon="26.548822">
<ele>-31.120865</ele>
<time>2010-08-29T10:17:15Z</time>
<desc>lat.=56.020775, lon.=26.548822, Alt.=-31.120865m. Speed=0.612000m/h.</desc>
<speed>0.170000</speed>
</trkpt>
<trkpt lat="56.020779" lon="26.548820">
<ele>-31.115982</ele>
<time>2010-08-29T10:17:16Z</time>
<desc>lat.=56.020779, lon.=26.548820, Alt.=-31.115982m. Speed=1.116000m/h.</desc>
<speed>0.310000</speed>
</trkpt>
<trkpt lat="56.020782" lon="26.548794">
<ele>-30.569595</ele>
<time>2010-08-29T10:17:17Z</time>
<desc>lat.=56.020782, lon.=26.548794, Alt.=-30.569595m. Speed=0.900000m/h.</desc>
<speed>0.250000</speed>
</trkpt>
<trkpt lat="56.020782" lon="26.548769">
<ele>-29.964127</ele>
<time>2010-08-29T10:17:18Z</time>
<desc>lat.=56.020782, lon.=26.548769, Alt.=-29.964127m. Speed=0.396000m/h.</desc>
<speed>0.110000</speed>
</trkpt>
<trkpt lat="56.020790" lon="26.548754">
<ele>-29.588638</ele>
<time>2010-08-29T10:17:19Z</time>
<desc>lat.=56.020790, lon.=26.548754, Alt.=-29.588638m. Speed=0.684000m/h.</desc>
<speed>0.190000</speed>
</trkpt>
<trkpt lat="56.020798" lon="26.548744">
<ele>-29.336685</ele>
<time>2010-08-29T10:17:20Z</time>
<desc>lat.=56.020798, lon.=26.548744, Alt.=-29.336685m. Speed=0.180000m/h.</desc>
<speed>0.050000</speed>
</trkpt>
<trkpt lat="56.020798" lon="26.548744">
<ele>-29.327896</ele>
<time>2010-08-29T10:17:21Z</time>
<desc>lat.=56.020798, lon.=26.548744, Alt.=-29.327896m. Speed=0.504000m/h.</desc>
<speed>0.140000</speed>
</trkpt>
<trkpt lat="56.020798" lon="26.548746">
<ele>-29.319107</ele>
<time>2010-08-29T10:17:22Z</time>
<desc>lat.=56.020798, lon.=26.548746, Alt.=-29.319107m. Speed=0.612000m/h.</desc>
<speed>0.170000</speed>
</trkpt>
<trkpt lat="56.020798" lon="26.548748">
<ele>-29.313248</ele>
<time>2010-08-29T10:17:23Z</time>
<desc>lat.=56.020798, lon.=26.548748, Alt.=-29.313248m. Speed=0.108000m/h.</desc>
<speed>0.030000</speed>
</trkpt>
<trkpt lat="56.020798" lon="26.548748">
<ele>-29.308853</ele>
<time>2010-08-29T10:17:24Z</time>
<desc>lat.=56.020798, lon.=26.548748, Alt.=-29.308853m. Speed=0.396000m/h.</desc>
<speed>0.110000</speed>
</trkpt>
<trkpt lat="56.020798" lon="26.548748">
<ele>-29.303970</ele>
<time>2010-08-29T10:17:25Z</time>
<desc>lat.=56.020798, lon.=26.548748, Alt.=-29.303970m. Speed=0.360000m/h.</desc>
<speed>0.100000</speed>
</trkpt>
<trkpt lat="56.020794" lon="26.548748">
<ele>-29.298599</ele>
<time>2010-08-29T10:17:26Z</time>
<desc>lat.=56.020794, lon.=26.548748, Alt.=-29.298599m. Speed=0.396000m/h.</desc>
<speed>0.110000</speed>
</trkpt>
<trkpt lat="56.020794" lon="26.548750">
<ele>-29.292252</ele>
<time>2010-08-29T10:17:27Z</time>
<desc>lat.=56.020794, lon.=26.548750, Alt.=-29.292252m. Speed=0.504000m/h.</desc>
<speed>0.140000</speed>
</trkpt>
<trkpt lat="56.020794" lon="26.548752">
<ele>-29.267349</ele>
<time>2010-08-29T10:17:28Z</time>
<desc>lat.=56.020794, lon.=26.548752, Alt.=-29.267349m. Speed=0.684000m/h.</desc>
<speed>0.190000</speed>
</trkpt>
<trkpt lat="56.020798" lon="26.548756">
<ele>-29.259048</ele>
<time>2010-08-29T10:17:29Z</time>
<desc>lat.=56.020798, lon.=26.548756, Alt.=-29.259048m. Speed=0.540000m/h.</desc>
<speed>0.150000</speed>
</trkpt>
<trkpt lat="56.020798" lon="26.548758">
<ele>-29.252213</ele>
<time>2010-08-29T10:17:30Z</time>
<desc>lat.=56.020798, lon.=26.548758, Alt.=-29.252213m. Speed=0.072000m/h.</desc>
<speed>0.020000</speed>
</trkpt>
<trkpt lat="56.020798" lon="26.548758">
<ele>-29.217056</ele>
<time>2010-08-29T10:17:31Z</time>
<desc>lat.=56.020798, lon.=26.548758, Alt.=-29.217056m. Speed=0.288000m/h.</desc>
<speed>0.080000</speed>
</trkpt>
<trkpt lat="56.020794" lon="26.548756">
<ele>-29.185806</ele>
<time>2010-08-29T10:17:32Z</time>
<desc>lat.=56.020794, lon.=26.548756, Alt.=-29.185806m. Speed=0.432000m/h.</desc>
<speed>0.120000</speed>
</trkpt>
<trkpt lat="56.020794" lon="26.548754">
<ele>-29.151627</ele>
<time>2010-08-29T10:17:33Z</time>
<desc>lat.=56.020794, lon.=26.548754, Alt.=-29.151627m. Speed=0.576000m/h.</desc>
<speed>0.160000</speed>
</trkpt>
<trkpt lat="56.020794" lon="26.548752">
<ele>-29.122330</ele>
<time>2010-08-29T10:17:34Z</time>
<desc>lat.=56.020794, lon.=26.548752, Alt.=-29.122330m. Speed=0.432000m/h.</desc>
<speed>0.120000</speed>
</trkpt>
<trkpt lat="56.020798" lon="26.548752">
<ele>-29.087173</ele>
<time>2010-08-29T10:17:35Z</time>
<desc>lat.=56.020798, lon.=26.548752, Alt.=-29.087173m. Speed=0.540000m/h.</desc>
<speed>0.150000</speed>
</trkpt>
<trkpt lat="56.020798" lon="26.548754">
<ele>-29.053970</ele>
<time>2010-08-29T10:17:36Z</time>
<desc>lat.=56.020798, lon.=26.548754, Alt.=-29.053970m. Speed=0.828000m/h.</desc>
<speed>0.230000</speed>
</trkpt>
<trkpt lat="56.020798" lon="26.548758">
<ele>-29.024185</ele>
<time>2010-08-29T10:17:37Z</time>
<desc>lat.=56.020798, lon.=26.548758, Alt.=-29.024185m. Speed=0.756000m/h.</desc>
<speed>0.210000</speed>
</trkpt>
<trkpt lat="56.020802" lon="26.548759">
<ele>-28.997330</ele>
<time>2010-08-29T10:17:38Z</time>
<desc>lat.=56.020802, lon.=26.548759, Alt.=-28.997330m. Speed=0.684000m/h.</desc>
<speed>0.190000</speed>
</trkpt>
<trkpt lat="56.020802" lon="26.548761">
<ele>-28.972916</ele>
<time>2010-08-29T10:17:39Z</time>
<desc>lat.=56.020802, lon.=26.548761, Alt.=-28.972916m. Speed=0.756000m/h.</desc>
<speed>0.210000</speed>
</trkpt>
<trkpt lat="56.020805" lon="26.548763">
<ele>-28.956802</ele>
<time>2010-08-29T10:17:40Z</time>
<desc>lat.=56.020805, lon.=26.548763, Alt.=-28.956802m. Speed=0.576000m/h.</desc>
<speed>0.160000</speed>
</trkpt>
<trkpt lat="56.020805" lon="26.548765">
<ele>-28.940201</ele>
<time>2010-08-29T10:17:41Z</time>
<desc>lat.=56.020805, lon.=26.548765, Alt.=-28.940201m. Speed=0.252000m/h.</desc>
<speed>0.070000</speed>
</trkpt>
<trkpt lat="56.020805" lon="26.548765">
<ele>-28.911880</ele>
<time>2010-08-29T10:17:42Z</time>
<desc>lat.=56.020805, lon.=26.548765, Alt.=-28.911880m. Speed=0.396000m/h.</desc>
<speed>0.110000</speed>
</trkpt>
<trkpt lat="56.020805" lon="26.548767">
<ele>-28.890396</ele>
<time>2010-08-29T10:17:43Z</time>
<desc>lat.=56.020805, lon.=26.548767, Alt.=-28.890396m. Speed=0.396000m/h.</desc>
<speed>0.110000</speed>
</trkpt>
<trkpt lat="56.020809" lon="26.548767">
<ele>-28.867447</ele>
<time>2010-08-29T10:17:44Z</time>
<desc>lat.=56.020809, lon.=26.548767, Alt.=-28.867447m. Speed=0.576000m/h.</desc>
<speed>0.160000</speed>
</trkpt>
<trkpt lat="56.020809" lon="26.548769">
<ele>-28.841568</ele>
<time>2010-08-29T10:17:45Z</time>
<desc>lat.=56.020809, lon.=26.548769, Alt.=-28.841568m. Speed=0.324000m/h.</desc>
<speed>0.090000</speed>
</trkpt>
<trkpt lat="56.020809" lon="26.548771">
<ele>-28.811295</ele>
<time>2010-08-29T10:17:46Z</time>
<desc>lat.=56.020809, lon.=26.548771, Alt.=-28.811295m. Speed=0.432000m/h.</desc>
<speed>0.120000</speed>
</trkpt>
<trkpt lat="56.020809" lon="26.548771">
<ele>-28.787857</ele>
<time>2010-08-29T10:17:47Z</time>
<desc>lat.=56.020809, lon.=26.548771, Alt.=-28.787857m. Speed=0.576000m/h.</desc>
<speed>0.160000</speed>
</trkpt>
<trkpt lat="56.020813" lon="26.548773">
<ele>-28.764908</ele>
<time>2010-08-29T10:17:48Z</time>
<desc>lat.=56.020813, lon.=26.548773, Alt.=-28.764908m. Speed=0.180000m/h.</desc>
<speed>0.050000</speed>
</trkpt>
<trkpt lat="56.020813" lon="26.548775">
<ele>-28.746353</ele>
<time>2010-08-29T10:17:49Z</time>
<desc>lat.=56.020813, lon.=26.548775, Alt.=-28.746353m. Speed=0.540000m/h.</desc>
<speed>0.150000</speed>
</trkpt>
<trkpt lat="56.020813" lon="26.548775">
<ele>-28.723404</ele>
<time>2010-08-29T10:17:50Z</time>
<desc>lat.=56.020813, lon.=26.548775, Alt.=-28.723404m. Speed=0.396000m/h.</desc>
<speed>0.110000</speed>
</trkpt>
<trkpt lat="56.020813" lon="26.548777">
<ele>-28.697037</ele>
<time>2010-08-29T10:17:51Z</time>
<desc>lat.=56.020813, lon.=26.548777, Alt.=-28.697037m. Speed=0.324000m/h.</desc>
<speed>0.090000</speed>
</trkpt>
<trkpt lat="56.020813" lon="26.548777">
<ele>-28.660416</ele>
<time>2010-08-29T10:17:52Z</time>
<desc>lat.=56.020813, lon.=26.548777, Alt.=-28.660416m. Speed=0.180000m/h.</desc>
<speed>0.050000</speed>
</trkpt>
<trkpt lat="56.020813" lon="26.548779">
<ele>-28.606705</ele>
<time>2010-08-29T10:17:53Z</time>
<desc>lat.=56.020813, lon.=26.548779, Alt.=-28.606705m. Speed=0.324000m/h.</desc>
<speed>0.090000</speed>
</trkpt>
<trkpt lat="56.020813" lon="26.548779">
<ele>-28.565201</ele>
<time>2010-08-29T10:17:54Z</time>
<desc>lat.=56.020813, lon.=26.548779, Alt.=-28.565201m. Speed=0.144000m/h.</desc>
<speed>0.040000</speed>
</trkpt>
<trkpt lat="56.020813" lon="26.548779">
<ele>-28.524673</ele>
<time>2010-08-29T10:17:55Z</time>
<desc>lat.=56.020813, lon.=26.548779, Alt.=-28.524673m. Speed=0.252000m/h.</desc>
<speed>0.070000</speed>
</trkpt>
<trkpt lat="56.020813" lon="26.548780">
<ele>-28.490494</ele>
<time>2010-08-29T10:17:56Z</time>
<desc>lat.=56.020813, lon.=26.548780, Alt.=-28.490494m. Speed=0.540000m/h.</desc>
<speed>0.150000</speed>
</trkpt>
<trkpt lat="56.020817" lon="26.548779">
<ele>-28.455826</ele>
<time>2010-08-29T10:17:57Z</time>
<desc>lat.=56.020817, lon.=26.548779, Alt.=-28.455826m. Speed=0.396000m/h.</desc>
<speed>0.110000</speed>
</trkpt>
<trkpt lat="56.020817" lon="26.548777">
<ele>-28.427017</ele>
<time>2010-08-29T10:17:58Z</time>
<desc>lat.=56.020817, lon.=26.548777, Alt.=-28.427017m. Speed=0.216000m/h.</desc>
<speed>0.060000</speed>
</trkpt>
<trkpt lat="56.020817" lon="26.548779">
<ele>-28.401138</ele>
<time>2010-08-29T10:17:59Z</time>
<desc>lat.=56.020817, lon.=26.548779, Alt.=-28.401138m. Speed=0.504000m/h.</desc>
<speed>0.140000</speed>
</trkpt>
<trkpt lat="56.020817" lon="26.548780">
<ele>-28.375259</ele>
<time>2010-08-29T10:18:00Z</time>
<desc>lat.=56.020817, lon.=26.548780, Alt.=-28.375259m. Speed=0.252000m/h.</desc>
<speed>0.070000</speed>
</trkpt>
<trkpt lat="56.020817" lon="26.548782">
<ele>-28.356705</ele>
<time>2010-08-29T10:18:01Z</time>
<desc>lat.=56.020817, lon.=26.548782, Alt.=-28.356705m. Speed=0.324000m/h.</desc>
<speed>0.090000</speed>
</trkpt>
<trkpt lat="56.020817" lon="26.548782">
<ele>-28.328384</ele>
<time>2010-08-29T10:18:02Z</time>
<desc>lat.=56.020817, lon.=26.548782, Alt.=-28.328384m. Speed=0.324000m/h.</desc>
<speed>0.090000</speed>
</trkpt>
<trkpt lat="56.020817" lon="26.548784">
<ele>-28.291763</ele>
<time>2010-08-29T10:18:03Z</time>
<desc>lat.=56.020817, lon.=26.548784, Alt.=-28.291763m. Speed=0.396000m/h.</desc>
<speed>0.110000</speed>
</trkpt>
<trkpt lat="56.020817" lon="26.548786">
<ele>-28.255142</ele>
<time>2010-08-29T10:18:04Z</time>
<desc>lat.=56.020817, lon.=26.548786, Alt.=-28.255142m. Speed=0.504000m/h.</desc>
<speed>0.140000</speed>
</trkpt>
<trkpt lat="56.020817" lon="26.548790">
<ele>-28.234634</ele>
<time>2010-08-29T10:18:05Z</time>
<desc>lat.=56.020817, lon.=26.548790, Alt.=-28.234634m. Speed=0.720000m/h.</desc>
<speed>0.200000</speed>
</trkpt>
<trkpt lat="56.020821" lon="26.548792">
<ele>-28.210220</ele>
<time>2010-08-29T10:18:06Z</time>
<desc>lat.=56.020821, lon.=26.548792, Alt.=-28.210220m. Speed=0.144000m/h.</desc>
<speed>0.040000</speed>
</trkpt>
<trkpt lat="56.020821" lon="26.548794">
<ele>-28.179459</ele>
<time>2010-08-29T10:18:07Z</time>
<desc>lat.=56.020821, lon.=26.548794, Alt.=-28.179459m. Speed=0.396000m/h.</desc>
<speed>0.110000</speed>
</trkpt>
<trkpt lat="56.020821" lon="26.548794">
<ele>-28.165298</ele>
<time>2010-08-29T10:18:08Z</time>
<desc>lat.=56.020821, lon.=26.548794, Alt.=-28.165298m. Speed=0.684000m/h.</desc>
<speed>0.190000</speed>
</trkpt>
<trkpt lat="56.020821" lon="26.548798">
<ele>-28.140884</ele>
<time>2010-08-29T10:18:09Z</time>
<desc>lat.=56.020821, lon.=26.548798, Alt.=-28.140884m. Speed=0.900000m/h.</desc>
<speed>0.250000</speed>
</trkpt>
<trkpt lat="56.020824" lon="26.548800">
<ele>-28.134048</ele>
<time>2010-08-29T10:18:10Z</time>
<desc>lat.=56.020824, lon.=26.548800, Alt.=-28.134048m. Speed=0.576000m/h.</desc>
<speed>0.160000</speed>
</trkpt>
<trkpt lat="56.020824" lon="26.548801">
<ele>-28.098892</ele>
<time>2010-08-29T10:18:11Z</time>
<desc>lat.=56.020824, lon.=26.548801, Alt.=-28.098892m. Speed=1.044000m/h.</desc>
<speed>0.290000</speed>
</trkpt>
<trkpt lat="56.020824" lon="26.548805">
<ele>-28.081314</ele>
<time>2010-08-29T10:18:12Z</time>
<desc>lat.=56.020824, lon.=26.548805, Alt.=-28.081314m. Speed=0.756000m/h.</desc>
<speed>0.210000</speed>
</trkpt>
<trkpt lat="56.020828" lon="26.548809">
<ele>-28.065201</ele>
<time>2010-08-29T10:18:13Z</time>
<desc>lat.=56.020828, lon.=26.548809, Alt.=-28.065201m. Speed=0.324000m/h.</desc>
<speed>0.090000</speed>
</trkpt>
<trkpt lat="56.020828" lon="26.548809">
<ele>-28.026138</ele>
<time>2010-08-29T10:18:14Z</time>
<desc>lat.=56.020828, lon.=26.548809, Alt.=-28.026138m. Speed=0.540000m/h.</desc>
<speed>0.150000</speed>
</trkpt>
<trkpt lat="56.020824" lon="26.548811">
<ele>-28.009537</ele>
<time>2010-08-29T10:18:15Z</time>
<desc>lat.=56.020824, lon.=26.548811, Alt.=-28.009537m. Speed=0.576000m/h.</desc>
<speed>0.160000</speed>
</trkpt>
<trkpt lat="56.020824" lon="26.548813">
<ele>-27.979263</ele>
<time>2010-08-29T10:18:16Z</time>
<desc>lat.=56.020824, lon.=26.548813, Alt.=-27.979263m. Speed=0.468000m/h.</desc>
<speed>0.130000</speed>
</trkpt>
<trkpt lat="56.020824" lon="26.548813">
<ele>-27.935318</ele>
<time>2010-08-29T10:18:17Z</time>
<desc>lat.=56.020824, lon.=26.548813, Alt.=-27.935318m. Speed=0.180000m/h.</desc>
<speed>0.050000</speed>
</trkpt>
<trkpt lat="56.020824" lon="26.548815">
<ele>-27.875748</ele>
<time>2010-08-29T10:18:18Z</time>
<desc>lat.=56.020824, lon.=26.548815, Alt.=-27.875748m. Speed=0.648000m/h.</desc>
<speed>0.180000</speed>
</trkpt>
<trkpt lat="56.020824" lon="26.548817">
<ele>-27.860611</ele>
<time>2010-08-29T10:18:19Z</time>
<desc>lat.=56.020824, lon.=26.548817, Alt.=-27.860611m. Speed=0.684000m/h.</desc>
<speed>0.190000</speed>
</trkpt>
<trkpt lat="56.020824" lon="26.548820">
<ele>-27.787369</ele>
<time>2010-08-29T10:18:20Z</time>
<desc>lat.=56.020824, lon.=26.548820, Alt.=-27.787369m. Speed=0.792000m/h.</desc>
<speed>0.220000</speed>
</trkpt>
<trkpt lat="56.020824" lon="26.548826">
<ele>-27.768326</ele>
<time>2010-08-29T10:18:21Z</time>
<desc>lat.=56.020824, lon.=26.548826, Alt.=-27.768326m. Speed=1.008000m/h.</desc>
<speed>0.280000</speed>
</trkpt>
<trkpt lat="56.020824" lon="26.548830">
<ele>-27.748795</ele>
<time>2010-08-29T10:18:22Z</time>
<desc>lat.=56.020824, lon.=26.548830, Alt.=-27.748795m. Speed=0.540000m/h.</desc>
<speed>0.150000</speed>
</trkpt>
<trkpt lat="56.020824" lon="26.548834">
<ele>-27.727310</ele>
<time>2010-08-29T10:18:23Z</time>
<desc>lat.=56.020824, lon.=26.548834, Alt.=-27.727310m. Speed=0.288000m/h.</desc>
<speed>0.080000</speed>
</trkpt>
<trkpt lat="56.020824" lon="26.548836">
<ele>-27.713150</ele>
<time>2010-08-29T10:18:24Z</time>
<desc>lat.=56.020824, lon.=26.548836, Alt.=-27.713150m. Speed=0.864000m/h.</desc>
<speed>0.240000</speed>
</trkpt>
<trkpt lat="56.020824" lon="26.548840">
<ele>-27.703384</ele>
<time>2010-08-29T10:18:25Z</time>
<desc>lat.=56.020824, lon.=26.548840, Alt.=-27.703384m. Speed=0.864000m/h.</desc>
<speed>0.240000</speed>
</trkpt>
<trkpt lat="56.020828" lon="26.548843">
<ele>-27.676041</ele>
<time>2010-08-29T10:18:26Z</time>
<desc>lat.=56.020828, lon.=26.548843, Alt.=-27.676041m. Speed=0.828000m/h.</desc>
<speed>0.230000</speed>
</trkpt>
<trkpt lat="56.020828" lon="26.548847">
<ele>-27.665298</ele>
<time>2010-08-29T10:18:27Z</time>
<desc>lat.=56.020828, lon.=26.548847, Alt.=-27.665298m. Speed=0.432000m/h.</desc>
<speed>0.120000</speed>
</trkpt>
<trkpt lat="56.020828" lon="26.548847">
<ele>-27.663834</ele>
<time>2010-08-29T10:18:28Z</time>
<desc>lat.=56.020828, lon.=26.548847, Alt.=-27.663834m. Speed=0.072000m/h.</desc>
<speed>0.020000</speed>
</trkpt>
<trkpt lat="56.020832" lon="26.548851">
<ele>-27.657486</ele>
<time>2010-08-29T10:18:29Z</time>
<desc>lat.=56.020832, lon.=26.548851, Alt.=-27.657486m. Speed=0.864000m/h.</desc>
<speed>0.240000</speed>
</trkpt>
<trkpt lat="56.020832" lon="26.548853">
<ele>-27.632584</ele>
<time>2010-08-29T10:18:30Z</time>
<desc>lat.=56.020832, lon.=26.548853, Alt.=-27.632584m. Speed=0.792000m/h.</desc>
<speed>0.220000</speed>
</trkpt>
<trkpt lat="56.020832" lon="26.548857">
<ele>-27.609634</ele>
<time>2010-08-29T10:18:31Z</time>
<desc>lat.=56.020832, lon.=26.548857, Alt.=-27.609634m. Speed=0.900000m/h.</desc>
<speed>0.250000</speed>
</trkpt>
<trkpt lat="56.020832" lon="26.548861">
<ele>-27.586197</ele>
<time>2010-08-29T10:18:32Z</time>
<desc>lat.=56.020832, lon.=26.548861, Alt.=-27.586197m. Speed=1.044000m/h.</desc>
<speed>0.290000</speed>
</trkpt>
<trkpt lat="56.020832" lon="26.548864">
<ele>-27.569595</ele>
<time>2010-08-29T10:18:33Z</time>
<desc>lat.=56.020832, lon.=26.548864, Alt.=-27.569595m. Speed=1.008000m/h.</desc>
<speed>0.280000</speed>
</trkpt>
<trkpt lat="56.020836" lon="26.548868">
<ele>-27.543716</ele>
<time>2010-08-29T10:18:34Z</time>
<desc>lat.=56.020836, lon.=26.548868, Alt.=-27.543716m. Speed=1.080000m/h.</desc>
<speed>0.300000</speed>
</trkpt>
<trkpt lat="56.020828" lon="26.548876">
<ele>-27.360123</ele>
<time>2010-08-29T10:18:35Z</time>
<desc>lat.=56.020828, lon.=26.548876, Alt.=-27.360123m. Speed=1.296000m/h.</desc>
<speed>0.360000</speed>
</trkpt>
<trkpt lat="56.020805" lon="26.548897">
<ele>-26.753677</ele>
<time>2010-08-29T10:18:36Z</time>
<desc>lat.=56.020805, lon.=26.548897, Alt.=-26.753677m. Speed=1.692000m/h.</desc>
<speed>0.470000</speed>
</trkpt>
<trkpt lat="56.020782" lon="26.548914">
<ele>-26.256607</ele>
<time>2010-08-29T10:18:37Z</time>
<desc>lat.=56.020782, lon.=26.548914, Alt.=-26.256607m. Speed=1.764000m/h.</desc>
<speed>0.490000</speed>
</trkpt>
<trkpt lat="56.020775" lon="26.548937">
<ele>-25.779556</ele>
<time>2010-08-29T10:18:38Z</time>
<desc>lat.=56.020775, lon.=26.548937, Alt.=-25.779556m. Speed=1.584000m/h.</desc>
<speed>0.440000</speed>
</trkpt>
<trkpt lat="56.020775" lon="26.548944">
<ele>-25.793716</ele>
<time>2010-08-29T10:18:39Z</time>
<desc>lat.=56.020775, lon.=26.548944, Alt.=-25.793716m. Speed=2.052000m/h.</desc>
<speed>0.570000</speed>
</trkpt>
<trkpt lat="56.020775" lon="26.548962">
<ele>-25.697525</ele>
<time>2010-08-29T10:18:40Z</time>
<desc>lat.=56.020775, lon.=26.548962, Alt.=-25.697525m. Speed=2.340000m/h.</desc>
<speed>0.650000</speed>
</trkpt>
<trkpt lat="56.020779" lon="26.548981">
<ele>-25.571060</ele>
<time>2010-08-29T10:18:41Z</time>
<desc>lat.=56.020779, lon.=26.548981, Alt.=-25.571060m. Speed=2.736000m/h.</desc>
<speed>0.760000</speed>
</trkpt>
<trkpt lat="56.020779" lon="26.548990">
<ele>-25.488541</ele>
<time>2010-08-29T10:18:42Z</time>
<desc>lat.=56.020779, lon.=26.548990, Alt.=-25.488541m. Speed=2.448000m/h.</desc>
<speed>0.680000</speed>
</trkpt>
<trkpt lat="56.020779" lon="26.549013">
<ele>-25.135025</ele>
<time>2010-08-29T10:18:43Z</time>
<desc>lat.=56.020779, lon.=26.549013, Alt.=-25.135025m. Speed=3.312000m/h.</desc>
<speed>0.920000</speed>
</trkpt>
<trkpt lat="56.020779" lon="26.549034">
<ele>-24.821060</ele>
<time>2010-08-29T10:18:44Z</time>
<desc>lat.=56.020779, lon.=26.549034, Alt.=-24.821060m. Speed=3.168000m/h.</desc>
<speed>0.880000</speed>
</trkpt>
<trkpt lat="56.020786" lon="26.549057">
<ele>-24.465591</ele>
<time>2010-08-29T10:18:45Z</time>
<desc>lat.=56.020786, lon.=26.549057, Alt.=-24.465591m. Speed=3.276000m/h.</desc>
<speed>0.910000</speed>
</trkpt>
<trkpt lat="56.020821" lon="26.549053">
<ele>-23.468521</ele>
<time>2010-08-29T10:18:46Z</time>
<desc>lat.=56.020821, lon.=26.549053, Alt.=-23.468521m. Speed=2.772000m/h.</desc>
<speed>0.770000</speed>
</trkpt>
<trkpt lat="56.020836" lon="26.549055">
<ele>-23.052994</ele>
<time>2010-08-29T10:18:47Z</time>
<desc>lat.=56.020836, lon.=26.549055, Alt.=-23.052994m. Speed=2.880000m/h.</desc>
<speed>0.800000</speed>
</trkpt>
<trkpt lat="56.020863" lon="26.549061">
<ele>-22.385025</ele>
<time>2010-08-29T10:18:48Z</time>
<desc>lat.=56.020863, lon.=26.549061, Alt.=-22.385025m. Speed=3.204000m/h.</desc>
<speed>0.890000</speed>
</trkpt>
<trkpt lat="56.020889" lon="26.549061">
<ele>-21.792252</ele>
<time>2010-08-29T10:18:49Z</time>
<desc>lat.=56.020889, lon.=26.549061, Alt.=-21.792252m. Speed=3.132000m/h.</desc>
<speed>0.870000</speed>
</trkpt>
<trkpt lat="56.020889" lon="26.549068">
<ele>-21.366959</ele>
<time>2010-08-29T10:18:50Z</time>
<desc>lat.=56.020889, lon.=26.549068, Alt.=-21.366959m. Speed=3.168000m/h.</desc>
<speed>0.880000</speed>
</trkpt>
<trkpt lat="56.020935" lon="26.549059">
<ele>-20.344009</ele>
<time>2010-08-29T10:18:51Z</time>
<desc>lat.=56.020935, lon.=26.549059, Alt.=-20.344009m. Speed=2.808000m/h.</desc>
<speed>0.780000</speed>
</trkpt>
<trkpt lat="56.020947" lon="26.549049">
<ele>-20.004166</ele>
<time>2010-08-29T10:18:52Z</time>
<desc>lat.=56.020947, lon.=26.549049, Alt.=-20.004166m. Speed=2.808000m/h.</desc>
<speed>0.780000</speed>
</trkpt>
<trkpt lat="56.020950" lon="26.549059">
<ele>-19.650162</ele>
<time>2010-08-29T10:18:53Z</time>
<desc>lat.=56.020950, lon.=26.549059, Alt.=-19.650162m. Speed=2.592000m/h.</desc>
<speed>0.720000</speed>
</trkpt>
<trkpt lat="56.020958" lon="26.549076">
<ele>-19.300064</ele>
<time>2010-08-29T10:18:54Z</time>
<desc>lat.=56.020958, lon.=26.549076, Alt.=-19.300064m. Speed=2.448000m/h.</desc>
<speed>0.680000</speed>
</trkpt>
<trkpt lat="56.020966" lon="26.549095">
<ele>-18.994888</ele>
<time>2010-08-29T10:18:55Z</time>
<desc>lat.=56.020966, lon.=26.549095, Alt.=-18.994888m. Speed=2.628000m/h.</desc>
<speed>0.730000</speed>
</trkpt>
<trkpt lat="56.020969" lon="26.549105">
<ele>-18.807388</ele>
<time>2010-08-29T10:18:56Z</time>
<desc>lat.=56.020969, lon.=26.549105, Alt.=-18.807388m. Speed=2.952000m/h.</desc>
<speed>0.820000</speed>
</trkpt>
<trkpt lat="56.020973" lon="26.549099">
<ele>-18.659927</ele>
<time>2010-08-29T10:18:57Z</time>
<desc>lat.=56.020973, lon.=26.549099, Alt.=-18.659927m. Speed=2.340000m/h.</desc>
<speed>0.650000</speed>
</trkpt>
<trkpt lat="56.020977" lon="26.549103">
<ele>-18.515884</ele>
<time>2010-08-29T10:18:58Z</time>
<desc>lat.=56.020977, lon.=26.549103, Alt.=-18.515884m. Speed=1.980000m/h.</desc>
<speed>0.550000</speed>
</trkpt>
<trkpt lat="56.020988" lon="26.549120">
<ele>-18.288345</ele>
<time>2010-08-29T10:18:59Z</time>
<desc>lat.=56.020988, lon.=26.549120, Alt.=-18.288345m. Speed=2.340000m/h.</desc>
<speed>0.650000</speed>
</trkpt>
<trkpt lat="56.020996" lon="26.549109">
<ele>-18.196548</ele>
<time>2010-08-29T10:19:00Z</time>
<desc>lat.=56.020996, lon.=26.549109, Alt.=-18.196548m. Speed=2.160000m/h.</desc>
<speed>0.600000</speed>
</trkpt>
<trkpt lat="56.020996" lon="26.549095">
<ele>-18.233658</ele>
<time>2010-08-29T10:19:01Z</time>
<desc>lat.=56.020996, lon.=26.549095, Alt.=-18.233658m. Speed=1.584000m/h.</desc>
<speed>0.440000</speed>
</trkpt>
<trkpt lat="56.020988" lon="26.549059">
<ele>-17.867447</ele>
<time>2010-08-29T10:19:02Z</time>
<desc>lat.=56.020988, lon.=26.549059, Alt.=-17.867447m. Speed=1.476000m/h.</desc>
<speed>0.410000</speed>
</trkpt>
<trkpt lat="56.020977" lon="26.549036">
<ele>-17.418716</ele>
<time>2010-08-29T10:19:03Z</time>
<desc>lat.=56.020977, lon.=26.549036, Alt.=-17.418716m. Speed=1.548000m/h.</desc>
<speed>0.430000</speed>
</trkpt>
<trkpt lat="56.020973" lon="26.549032">
<ele>-17.225845</ele>
<time>2010-08-29T10:19:04Z</time>
<desc>lat.=56.020973, lon.=26.549032, Alt.=-17.225845m. Speed=1.584000m/h.</desc>
<speed>0.440000</speed>
</trkpt>
<trkpt lat="56.020996" lon="26.549036">
<ele>-16.531021</ele>
<time>2010-08-29T10:19:05Z</time>
<desc>lat.=56.020996, lon.=26.549036, Alt.=-16.531021m. Speed=1.548000m/h.</desc>
<speed>0.430000</speed>
</trkpt>
<trkpt lat="56.020988" lon="26.549034">
<ele>-16.069107</ele>
<time>2010-08-29T10:19:06Z</time>
<desc>lat.=56.020988, lon.=26.549034, Alt.=-16.069107m. Speed=1.656000m/h.</desc>
<speed>0.460000</speed>
</trkpt>
<trkpt lat="56.020992" lon="26.549028">
<ele>-15.745735</ele>
<time>2010-08-29T10:19:07Z</time>
<desc>lat.=56.020992, lon.=26.549028, Alt.=-15.745735m. Speed=1.728000m/h.</desc>
<speed>0.480000</speed>
</trkpt>
<trkpt lat="56.020988" lon="26.549009">
<ele>-15.237190</ele>
<time>2010-08-29T10:19:08Z</time>
<desc>lat.=56.020988, lon.=26.549009, Alt.=-15.237190m. Speed=1.224000m/h.</desc>
<speed>0.340000</speed>
</trkpt>
<trkpt lat="56.020992" lon="26.549000">
<ele>-14.855354</ele>
<time>2010-08-29T10:19:09Z</time>
<desc>lat.=56.020992, lon.=26.549000, Alt.=-14.855354m. Speed=1.116000m/h.</desc>
<speed>0.310000</speed>
</trkpt>
<trkpt lat="56.020992" lon="26.548988">
<ele>-14.857552</ele>
<time>2010-08-29T10:19:10Z</time>
<desc>lat.=56.020992, lon.=26.548988, Alt.=-14.857552m. Speed=0.864000m/h.</desc>
<speed>0.240000</speed>
</trkpt>
<trkpt lat="56.020992" lon="26.548977">
<ele>-14.240852</ele>
<time>2010-08-29T10:19:11Z</time>
<desc>lat.=56.020992, lon.=26.548977, Alt.=-14.240852m. Speed=0.972000m/h.</desc>
<speed>0.270000</speed>
</trkpt>
<trkpt lat="56.020992" lon="26.548971">
<ele>-13.908089</ele>
<time>2010-08-29T10:19:12Z</time>
<desc>lat.=56.020992, lon.=26.548971, Alt.=-13.908089m. Speed=1.512000m/h.</desc>
<speed>0.420000</speed>
</trkpt>
<trkpt lat="56.020988" lon="26.548950">
<ele>-13.287483</ele>
<time>2010-08-29T10:19:13Z</time>
<desc>lat.=56.020988, lon.=26.548950, Alt.=-13.287483m. Speed=1.548000m/h.</desc>
<speed>0.430000</speed>
</trkpt>
<trkpt lat="56.020981" lon="26.548901">
<ele>-12.912727</ele>
<time>2010-08-29T10:19:14Z</time>
<desc>lat.=56.020981, lon.=26.548901, Alt.=-12.912727m. Speed=2.484000m/h.</desc>
<speed>0.690000</speed>
</trkpt>
<trkpt lat="56.020988" lon="26.548883">
<ele>-12.571419</ele>
<time>2010-08-29T10:19:15Z</time>
<desc>lat.=56.020988, lon.=26.548883, Alt.=-12.571419m. Speed=3.456000m/h.</desc>
<speed>0.960000</speed>
</trkpt>
<trkpt lat="56.020973" lon="26.548832">
<ele>-11.943733</ele>
<time>2010-08-29T10:19:16Z</time>
<desc>lat.=56.020973, lon.=26.548832, Alt.=-11.943733m. Speed=3.672000m/h.</desc>
<speed>1.020000</speed>
</trkpt>
<trkpt lat="56.020977" lon="26.548803">
<ele>-11.422981</ele>
<time>2010-08-29T10:19:17Z</time>
<desc>lat.=56.020977, lon.=26.548803, Alt.=-11.422981m. Speed=4.284000m/h.</desc>
<speed>1.190000</speed>
</trkpt>
<trkpt lat="56.020958" lon="26.548725">
<ele>-10.262337</ele>
<time>2010-08-29T10:19:18Z</time>
<desc>lat.=56.020958, lon.=26.548725, Alt.=-10.262337m. Speed=6.300000m/h.</desc>
<speed>1.750000</speed>
</trkpt>
<trkpt lat="56.020939" lon="26.548693">
<ele>-10.017952</ele>
<time>2010-08-29T10:19:19Z</time>
<desc>lat.=56.020939, lon.=26.548693, Alt.=-10.017952m. Speed=9.324000m/h.</desc>
<speed>2.590000</speed>
</trkpt>
<trkpt lat="56.020912" lon="26.548672">
<ele>-9.531624</ele>
<time>2010-08-29T10:19:20Z</time>
<desc>lat.=56.020912, lon.=26.548672, Alt.=-9.531624m. Speed=7.380000m/h.</desc>
<speed>2.050000</speed>
</trkpt>
<trkpt lat="56.020908" lon="26.548639">
<ele>-9.754280</ele>
<time>2010-08-29T10:19:21Z</time>
<desc>lat.=56.020908, lon.=26.548639, Alt.=-9.754280m. Speed=6.336000m/h.</desc>
<speed>1.760000</speed>
</trkpt>
<trkpt lat="56.020897" lon="26.548601">
<ele>-7.428654</ele>
<time>2010-08-29T10:19:22Z</time>
<desc>lat.=56.020897, lon.=26.548601, Alt.=-7.428654m. Speed=6.984000m/h.</desc>
<speed>1.940000</speed>
</trkpt>
<trkpt lat="56.020893" lon="26.548569">
<ele>-6.966251</ele>
<time>2010-08-29T10:19:23Z</time>
<desc>lat.=56.020893, lon.=26.548569, Alt.=-6.966251m. Speed=6.264000m/h.</desc>
<speed>1.740000</speed>
</trkpt>
<trkpt lat="56.020889" lon="26.548532">
<ele>-6.395451</ele>
<time>2010-08-29T10:19:24Z</time>
<desc>lat.=56.020889, lon.=26.548532, Alt.=-6.395451m. Speed=3.996000m/h.</desc>
<speed>1.110000</speed>
</trkpt>
<trkpt lat="56.020905" lon="26.548494">
<ele>-5.454655</ele>
<time>2010-08-29T10:19:25Z</time>
<desc>lat.=56.020905, lon.=26.548494, Alt.=-5.454655m. Speed=5.544000m/h.</desc>
<speed>1.540000</speed>
</trkpt>
<trkpt lat="56.020901" lon="26.548475">
<ele>-5.065983</ele>
<time>2010-08-29T10:19:26Z</time>
<desc>lat.=56.020901, lon.=26.548475, Alt.=-5.065983m. Speed=3.924000m/h.</desc>
<speed>1.090000</speed>
</trkpt>
<trkpt lat="56.020897" lon="26.548464">
<ele>-4.944889</ele>
<time>2010-08-29T10:19:27Z</time>
<desc>lat.=56.020897, lon.=26.548464, Alt.=-4.944889m. Speed=3.636000m/h.</desc>
<speed>1.010000</speed>
</trkpt>
<trkpt lat="56.020897" lon="26.548449">
<ele>-4.512760</ele>
<time>2010-08-29T10:19:28Z</time>
<desc>lat.=56.020897, lon.=26.548449, Alt.=-4.512760m. Speed=1.980000m/h.</desc>
<speed>0.550000</speed>
</trkpt>
<trkpt lat="56.020905" lon="26.548428">
<ele>-3.725130</ele>
<time>2010-08-29T10:19:29Z</time>
<desc>lat.=56.020905, lon.=26.548428, Alt.=-3.725130m. Speed=1.944000m/h.</desc>
<speed>0.540000</speed>
</trkpt>
<trkpt lat="56.020924" lon="26.548382">
<ele>-0.620385</ele>
<time>2010-08-29T10:19:30Z</time>
<desc>lat.=56.020924, lon.=26.548382, Alt.=-0.620385m. Speed=2.304000m/h.</desc>
<speed>0.640000</speed>
</trkpt>
<trkpt lat="56.020912" lon="26.548374">
<ele>-0.504372</ele>
<time>2010-08-29T10:19:31Z</time>
<desc>lat.=56.020912, lon.=26.548374, Alt.=-0.504372m. Speed=2.340000m/h.</desc>
<speed>0.650000</speed>
</trkpt>
<trkpt lat="56.020954" lon="26.548264">
<ele>5.019108</ele>
<time>2010-08-29T10:19:32Z</time>
<desc>lat.=56.020954, lon.=26.548264, Alt.=5.019108m. Speed=3.816000m/h.</desc>
<speed>1.060000</speed>
</trkpt>
<trkpt lat="56.020931" lon="26.548223">
<ele>5.339054</ele>
<time>2010-08-29T10:19:33Z</time>
<desc>lat.=56.020931, lon.=26.548223, Alt.=5.339054m. Speed=4.968000m/h.</desc>
<speed>1.380000</speed>
</trkpt>
<trkpt lat="56.020977" lon="26.548124">
<ele>10.690315</ele>
<time>2010-08-29T10:19:34Z</time>
<desc>lat.=56.020977, lon.=26.548124, Alt.=10.690315m. Speed=4.572000m/h.</desc>
<speed>1.270000</speed>
</trkpt>
<trkpt lat="56.020981" lon="26.548052">
<ele>12.870003</ele>
<time>2010-08-29T10:19:35Z</time>
<desc>lat.=56.020981, lon.=26.548052, Alt.=12.870003m. Speed=4.716000m/h.</desc>
<speed>1.310000</speed>
</trkpt>
<trkpt lat="56.020992" lon="26.548018">
<ele>14.887581</ele>
<time>2010-08-29T10:19:36Z</time>
<desc>lat.=56.020992, lon.=26.548018, Alt.=14.887581m. Speed=3.312000m/h.</desc>
<speed>0.920000</speed>
</trkpt>
<trkpt lat="56.020988" lon="26.547987">
<ele>15.421272</ele>
<time>2010-08-29T10:19:37Z</time>
<desc>lat.=56.020988, lon.=26.547987, Alt.=15.421272m. Speed=3.744000m/h.</desc>
<speed>1.040000</speed>
</trkpt>
<trkpt lat="56.021023" lon="26.547928">
<ele>18.048111</ele>
<time>2010-08-29T10:19:38Z</time>
<desc>lat.=56.021023, lon.=26.547928, Alt.=18.048111m. Speed=4.284000m/h.</desc>
<speed>1.190000</speed>
</trkpt>
<trkpt lat="56.021027" lon="26.547895">
<ele>18.236099</ele>
<time>2010-08-29T10:19:39Z</time>
<desc>lat.=56.021027, lon.=26.547895, Alt.=18.236099m. Speed=5.004000m/h.</desc>
<speed>1.390000</speed>
</trkpt>
<trkpt lat="56.021038" lon="26.547859">
<ele>19.820084</ele>
<time>2010-08-29T10:19:40Z</time>
<desc>lat.=56.021038, lon.=26.547859, Alt.=19.820084m. Speed=3.780000m/h.</desc>
<speed>1.050000</speed>
</trkpt>
<trkpt lat="56.021057" lon="26.547810">
<ele>21.292740</ele>
<time>2010-08-29T10:19:41Z</time>
<desc>lat.=56.021057, lon.=26.547810, Alt.=21.292740m. Speed=4.968000m/h.</desc>
<speed>1.380000</speed>
</trkpt>
<trkpt lat="56.021065" lon="26.547773">
<ele>21.753189</ele>
<time>2010-08-29T10:19:42Z</time>
<desc>lat.=56.021065, lon.=26.547773, Alt.=21.753189m. Speed=3.888000m/h.</desc>
<speed>1.080000</speed>
</trkpt>
<trkpt lat="56.021069" lon="26.547729">
<ele>23.593521</ele>
<time>2010-08-29T10:19:43Z</time>
<desc>lat.=56.021069, lon.=26.547729, Alt.=23.593521m. Speed=4.068000m/h.</desc>
<speed>1.130000</speed>
</trkpt>
<trkpt lat="56.021065" lon="26.547653">
<ele>25.295181</ele>
<time>2010-08-29T10:19:44Z</time>
<desc>lat.=56.021065, lon.=26.547653, Alt.=25.295181m. Speed=7.596000m/h.</desc>
<speed>2.110000</speed>
</trkpt>
<trkpt lat="56.021076" lon="26.547600">
<ele>26.511978</ele>
<time>2010-08-29T10:19:45Z</time>
<desc>lat.=56.021076, lon.=26.547600, Alt.=26.511978m. Speed=7.668000m/h.</desc>
<speed>2.130000</speed>
</trkpt>
<trkpt lat="56.021080" lon="26.547531">
<ele>27.771255</ele>
<time>2010-08-29T10:19:46Z</time>
<desc>lat.=56.021080, lon.=26.547531, Alt.=27.771255m. Speed=9.000000m/h.</desc>
<speed>2.500000</speed>
</trkpt>
<trkpt lat="56.021080" lon="26.547466">
<ele>29.075455</ele>
<time>2010-08-29T10:19:47Z</time>
<desc>lat.=56.021080, lon.=26.547466, Alt.=29.075455m. Speed=9.144000m/h.</desc>
<speed>2.540000</speed>
</trkpt>
<trkpt lat="56.021084" lon="26.547415">
<ele>29.645767</ele>
<time>2010-08-29T10:19:48Z</time>
<desc>lat.=56.021084, lon.=26.547415, Alt.=29.645767m. Speed=5.760000m/h.</desc>
<speed>1.600000</speed>
</trkpt>
<trkpt lat="56.021088" lon="26.547382">
<ele>30.498795</ele>
<time>2010-08-29T10:19:49Z</time>
<desc>lat.=56.021088, lon.=26.547382, Alt.=30.498795m. Speed=5.652000m/h.</desc>
<speed>1.570000</speed>
</trkpt>
<trkpt lat="56.021084" lon="26.547340">
<ele>31.184341</ele>
<time>2010-08-29T10:19:50Z</time>
<desc>lat.=56.021084, lon.=26.547340, Alt.=31.184341m. Speed=4.068000m/h.</desc>
<speed>1.130000</speed>
</trkpt>
<trkpt lat="56.021091" lon="26.547306">
<ele>32.859894</ele>
<time>2010-08-29T10:19:51Z</time>
<desc>lat.=56.021091, lon.=26.547306, Alt.=32.859894m. Speed=1.692000m/h.</desc>
<speed>0.470000</speed>
</trkpt>
<trkpt lat="56.021103" lon="26.547276">
<ele>34.230988</ele>
<time>2010-08-29T10:19:52Z</time>
<desc>lat.=56.021103, lon.=26.547276, Alt.=34.230988m. Speed=3.168000m/h.</desc>
<speed>0.880000</speed>
</trkpt>
<trkpt lat="56.021103" lon="26.547239">
<ele>35.119659</ele>
<time>2010-08-29T10:19:53Z</time>
<desc>lat.=56.021103, lon.=26.547239, Alt.=35.119659m. Speed=3.780000m/h.</desc>
<speed>1.050000</speed>
</trkpt>
<trkpt lat="56.021114" lon="26.547213">
<ele>36.030792</ele>
<time>2010-08-29T10:19:54Z</time>
<desc>lat.=56.021114, lon.=26.547213, Alt.=36.030792m. Speed=3.384000m/h.</desc>
<speed>0.940000</speed>
</trkpt>
<trkpt lat="56.021141" lon="26.547146">
<ele>37.228058</ele>
<time>2010-08-29T10:19:55Z</time>
<desc>lat.=56.021141, lon.=26.547146, Alt.=37.228058m. Speed=8.064000m/h.</desc>
<speed>2.240000</speed>
</trkpt>
<trkpt lat="56.021141" lon="26.547104">
<ele>38.301300</ele>
<time>2010-08-29T10:19:56Z</time>
<desc>lat.=56.021141, lon.=26.547104, Alt.=38.301300m. Speed=6.804000m/h.</desc>
<speed>1.890000</speed>
</trkpt>
<trkpt lat="56.021149" lon="26.547066">
<ele>39.344269</ele>
<time>2010-08-29T10:19:57Z</time>
<desc>lat.=56.021149, lon.=26.547066, Alt.=39.344269m. Speed=6.264000m/h.</desc>
<speed>1.740000</speed>
</trkpt>
<trkpt lat="56.021152" lon="26.547039">
<ele>39.589386</ele>
<time>2010-08-29T10:19:58Z</time>
<desc>lat.=56.021152, lon.=26.547039, Alt.=39.589386m. Speed=4.752000m/h.</desc>
<speed>1.320000</speed>
</trkpt>
<trkpt lat="56.021152" lon="26.547007">
<ele>41.029816</ele>
<time>2010-08-29T10:19:59Z</time>
<desc>lat.=56.021152, lon.=26.547007, Alt.=41.029816m. Speed=3.780000m/h.</desc>
<speed>1.050000</speed>
</trkpt>
<trkpt lat="56.021152" lon="26.546982">
<ele>41.541534</ele>
<time>2010-08-29T10:20:00Z</time>
<desc>lat.=56.021152, lon.=26.546982, Alt.=41.541534m. Speed=3.132000m/h.</desc>
<speed>0.870000</speed>
</trkpt>
<trkpt lat="56.021164" lon="26.546949">
<ele>42.294464</ele>
<time>2010-08-29T10:20:01Z</time>
<desc>lat.=56.021164, lon.=26.546949, Alt.=42.294464m. Speed=2.772000m/h.</desc>
<speed>0.770000</speed>
</trkpt>
<trkpt lat="56.021164" lon="26.546921">
<ele>42.816925</ele>
<time>2010-08-29T10:20:02Z</time>
<desc>lat.=56.021164, lon.=26.546921, Alt.=42.816925m. Speed=4.896000m/h.</desc>
<speed>1.360000</speed>
</trkpt>
<trkpt lat="56.021160" lon="26.546888">
<ele>43.680206</ele>
<time>2010-08-29T10:20:03Z</time>
<desc>lat.=56.021160, lon.=26.546888, Alt.=43.680206m. Speed=3.708000m/h.</desc>
<speed>1.030000</speed>
</trkpt>
<trkpt lat="56.021156" lon="26.546865">
<ele>43.932159</ele>
<time>2010-08-29T10:20:04Z</time>
<desc>lat.=56.021156, lon.=26.546865, Alt.=43.932159m. Speed=3.240000m/h.</desc>
<speed>0.900000</speed>
</trkpt>
<trkpt lat="56.021156" lon="26.546858">
<ele>43.832550</ele>
<time>2010-08-29T10:20:05Z</time>
<desc>lat.=56.021156, lon.=26.546858, Alt.=43.832550m. Speed=1.332000m/h.</desc>
<speed>0.370000</speed>
</trkpt>
<trkpt lat="56.021168" lon="26.546827">
<ele>45.575714</ele>
<time>2010-08-29T10:20:06Z</time>
<desc>lat.=56.021168, lon.=26.546827, Alt.=45.575714m. Speed=1.944000m/h.</desc>
<speed>0.540000</speed>
</trkpt>
<trkpt lat="56.021175" lon="26.546787">
<ele>45.740753</ele>
<time>2010-08-29T10:20:07Z</time>
<desc>lat.=56.021175, lon.=26.546787, Alt.=45.740753m. Speed=3.384000m/h.</desc>
<speed>0.940000</speed>
</trkpt>
<trkpt lat="56.021175" lon="26.546757">
<ele>46.216339</ele>
<time>2010-08-29T10:20:08Z</time>
<desc>lat.=56.021175, lon.=26.546757, Alt.=46.216339m. Speed=3.780000m/h.</desc>
<speed>1.050000</speed>
</trkpt>
<trkpt lat="56.021183" lon="26.546738">
<ele>47.168488</ele>
<time>2010-08-29T10:20:09Z</time>
<desc>lat.=56.021183, lon.=26.546738, Alt.=47.168488m. Speed=3.240000m/h.</desc>
<speed>0.900000</speed>
</trkpt>
<trkpt lat="56.021191" lon="26.546698">
<ele>47.962433</ele>
<time>2010-08-29T10:20:10Z</time>
<desc>lat.=56.021191, lon.=26.546698, Alt.=47.962433m. Speed=3.564000m/h.</desc>
<speed>0.990000</speed>
</trkpt>
<trkpt lat="56.021191" lon="26.546667">
<ele>48.280792</ele>
<time>2010-08-29T10:20:11Z</time>
<desc>lat.=56.021191, lon.=26.546667, Alt.=48.280792m. Speed=3.780000m/h.</desc>
<speed>1.050000</speed>
</trkpt>
<trkpt lat="56.021191" lon="26.546635">
<ele>48.890167</ele>
<time>2010-08-29T10:20:12Z</time>
<desc>lat.=56.021191, lon.=26.546635, Alt.=48.890167m. Speed=3.744000m/h.</desc>
<speed>1.040000</speed>
</trkpt>
<trkpt lat="56.021187" lon="26.546595">
<ele>48.878448</ele>
<time>2010-08-29T10:20:13Z</time>
<desc>lat.=56.021187, lon.=26.546595, Alt.=48.878448m. Speed=4.032000m/h.</desc>
<speed>1.120000</speed>
</trkpt>
<trkpt lat="56.021191" lon="26.546528">
<ele>49.006378</ele>
<time>2010-08-29T10:20:14Z</time>
<desc>lat.=56.021191, lon.=26.546528, Alt.=49.006378m. Speed=4.572000m/h.</desc>
<speed>1.270000</speed>
</trkpt>
<trkpt lat="56.021202" lon="26.546495">
<ele>50.108917</ele>
<time>2010-08-29T10:20:15Z</time>
<desc>lat.=56.021202, lon.=26.546495, Alt.=50.108917m. Speed=4.176000m/h.</desc>
<speed>1.160000</speed>
</trkpt>
<trkpt lat="56.021206" lon="26.546465">
<ele>50.632355</ele>
<time>2010-08-29T10:20:16Z</time>
<desc>lat.=56.021206, lon.=26.546465, Alt.=50.632355m. Speed=4.104000m/h.</desc>
<speed>1.140000</speed>
</trkpt>
<trkpt lat="56.021206" lon="26.546421">
<ele>50.824738</ele>
<time>2010-08-29T10:20:17Z</time>
<desc>lat.=56.021206, lon.=26.546421, Alt.=50.824738m. Speed=3.600000m/h.</desc>
<speed>1.000000</speed>
</trkpt>
<trkpt lat="56.021206" lon="26.546385">
<ele>51.253448</ele>
<time>2010-08-29T10:20:18Z</time>
<desc>lat.=56.021206, lon.=26.546385, Alt.=51.253448m. Speed=3.492000m/h.</desc>
<speed>0.970000</speed>
</trkpt>
<trkpt lat="56.021206" lon="26.546371">
<ele>51.385284</ele>
<time>2010-08-29T10:20:19Z</time>
<desc>lat.=56.021206, lon.=26.546371, Alt.=51.385284m. Speed=2.808000m/h.</desc>
<speed>0.780000</speed>
</trkpt>
<trkpt lat="56.021206" lon="26.546352">
<ele>51.383331</ele>
<time>2010-08-29T10:20:20Z</time>
<desc>lat.=56.021206, lon.=26.546352, Alt.=51.383331m. Speed=2.772000m/h.</desc>
<speed>0.770000</speed>
</trkpt>
<trkpt lat="56.021198" lon="26.546320">
<ele>51.397980</ele>
<time>2010-08-29T10:20:21Z</time>
<desc>lat.=56.021198, lon.=26.546320, Alt.=51.397980m. Speed=3.240000m/h.</desc>
<speed>0.900000</speed>
</trkpt>
<trkpt lat="56.021198" lon="26.546295">
<ele>51.423370</ele>
<time>2010-08-29T10:20:22Z</time>
<desc>lat.=56.021198, lon.=26.546295, Alt.=51.423370m. Speed=3.672000m/h.</desc>
<speed>1.020000</speed>
</trkpt>
<trkpt lat="56.021194" lon="26.546261">
<ele>51.605011</ele>
<time>2010-08-29T10:20:23Z</time>
<desc>lat.=56.021194, lon.=26.546261, Alt.=51.605011m. Speed=4.140000m/h.</desc>
<speed>1.150000</speed>
</trkpt>
<trkpt lat="56.021198" lon="26.546236">
<ele>51.395050</ele>
<time>2010-08-29T10:20:24Z</time>
<desc>lat.=56.021198, lon.=26.546236, Alt.=51.395050m. Speed=4.248000m/h.</desc>
<speed>1.180000</speed>
</trkpt>
<trkpt lat="56.021191" lon="26.546211">
<ele>51.284698</ele>
<time>2010-08-29T10:20:25Z</time>
<desc>lat.=56.021191, lon.=26.546211, Alt.=51.284698m. Speed=4.140000m/h.</desc>
<speed>1.150000</speed>
</trkpt>
<trkpt lat="56.021194" lon="26.546179">
<ele>51.824738</ele>
<time>2010-08-29T10:20:26Z</time>
<desc>lat.=56.021194, lon.=26.546179, Alt.=51.824738m. Speed=3.744000m/h.</desc>
<speed>1.040000</speed>
</trkpt>
<trkpt lat="56.021198" lon="26.546124">
<ele>51.952667</ele>
<time>2010-08-29T10:20:27Z</time>
<desc>lat.=56.021198, lon.=26.546124, Alt.=51.952667m. Speed=3.744000m/h.</desc>
<speed>1.040000</speed>
</trkpt>
<trkpt lat="56.021206" lon="26.546101">
<ele>53.147003</ele>
<time>2010-08-29T10:20:28Z</time>
<desc>lat.=56.021206, lon.=26.546101, Alt.=53.147003m. Speed=3.384000m/h.</desc>
<speed>0.940000</speed>
</trkpt>
<trkpt lat="56.021210" lon="26.546051">
<ele>53.332550</ele>
<time>2010-08-29T10:20:29Z</time>
<desc>lat.=56.021210, lon.=26.546051, Alt.=53.332550m. Speed=3.852000m/h.</desc>
<speed>1.070000</speed>
</trkpt>
<trkpt lat="56.021217" lon="26.545996">
<ele>53.626495</ele>
<time>2010-08-29T10:20:30Z</time>
<desc>lat.=56.021217, lon.=26.545996, Alt.=53.626495m. Speed=5.040000m/h.</desc>
<speed>1.400000</speed>
</trkpt>
<trkpt lat="56.021210" lon="26.545965">
<ele>53.424347</ele>
<time>2010-08-29T10:20:31Z</time>
<desc>lat.=56.021210, lon.=26.545965, Alt.=53.424347m. Speed=4.284000m/h.</desc>
<speed>1.190000</speed>
</trkpt>
<trkpt lat="56.021210" lon="26.545938">
<ele>53.272003</ele>
<time>2010-08-29T10:20:32Z</time>
<desc>lat.=56.021210, lon.=26.545938, Alt.=53.272003m. Speed=4.212000m/h.</desc>
<speed>1.170000</speed>
</trkpt>
<trkpt lat="56.021210" lon="26.545906">
<ele>53.137238</ele>
<time>2010-08-29T10:20:33Z</time>
<desc>lat.=56.021210, lon.=26.545906, Alt.=53.137238m. Speed=4.500000m/h.</desc>
<speed>1.250000</speed>
</trkpt>
<trkpt lat="56.021206" lon="26.545872">
<ele>52.965363</ele>
<time>2010-08-29T10:20:34Z</time>
<desc>lat.=56.021206, lon.=26.545872, Alt.=52.965363m. Speed=4.896000m/h.</desc>
<speed>1.360000</speed>
</trkpt>
<trkpt lat="56.021206" lon="26.545843">
<ele>52.709503</ele>
<time>2010-08-29T10:20:35Z</time>
<desc>lat.=56.021206, lon.=26.545843, Alt.=52.709503m. Speed=4.572000m/h.</desc>
<speed>1.270000</speed>
</trkpt>
<trkpt lat="56.021206" lon="26.545799">
<ele>52.603058</ele>
<time>2010-08-29T10:20:36Z</time>
<desc>lat.=56.021206, lon.=26.545799, Alt.=52.603058m. Speed=5.328000m/h.</desc>
<speed>1.480000</speed>
</trkpt>
<trkpt lat="56.021210" lon="26.545765">
<ele>52.549347</ele>
<time>2010-08-29T10:20:37Z</time>
<desc>lat.=56.021210, lon.=26.545765, Alt.=52.549347m. Speed=5.328000m/h.</desc>
<speed>1.480000</speed>
</trkpt>
<trkpt lat="56.021217" lon="26.545708">
<ele>52.543488</ele>
<time>2010-08-29T10:20:38Z</time>
<desc>lat.=56.021217, lon.=26.545708, Alt.=52.543488m. Speed=6.084000m/h.</desc>
<speed>1.690000</speed>
</trkpt>
<trkpt lat="56.021236" lon="26.545652">
<ele>52.367706</ele>
<time>2010-08-29T10:20:39Z</time>
<desc>lat.=56.021236, lon.=26.545652, Alt.=52.367706m. Speed=5.400000m/h.</desc>
<speed>1.500000</speed>
</trkpt>
<trkpt lat="56.021252" lon="26.545603">
<ele>52.855988</ele>
<time>2010-08-29T10:20:40Z</time>
<desc>lat.=56.021252, lon.=26.545603, Alt.=52.855988m. Speed=4.932000m/h.</desc>
<speed>1.370000</speed>
</trkpt>
<trkpt lat="56.021263" lon="26.545555">
<ele>53.235870</ele>
<time>2010-08-29T10:20:41Z</time>
<desc>lat.=56.021263, lon.=26.545555, Alt.=53.235870m. Speed=5.040000m/h.</desc>
<speed>1.400000</speed>
</trkpt>
<trkpt lat="56.021275" lon="26.545502">
<ele>53.375519</ele>
<time>2010-08-29T10:20:42Z</time>
<desc>lat.=56.021275, lon.=26.545502, Alt.=53.375519m. Speed=7.956000m/h.</desc>
<speed>2.210000</speed>
</trkpt>
<trkpt lat="56.021278" lon="26.545441">
<ele>53.437042</ele>
<time>2010-08-29T10:20:43Z</time>
<desc>lat.=56.021278, lon.=26.545441, Alt.=53.437042m. Speed=8.100000m/h.</desc>
<speed>2.250000</speed>
</trkpt>
<trkpt lat="56.021278" lon="26.545372">
<ele>53.719269</ele>
<time>2010-08-29T10:20:44Z</time>
<desc>lat.=56.021278, lon.=26.545372, Alt.=53.719269m. Speed=6.192000m/h.</desc>
<speed>1.720000</speed>
</trkpt>
<trkpt lat="56.021282" lon="26.545313">
<ele>54.317902</ele>
<time>2010-08-29T10:20:45Z</time>
<desc>lat.=56.021282, lon.=26.545313, Alt.=54.317902m. Speed=3.924000m/h.</desc>
<speed>1.090000</speed>
</trkpt>
<trkpt lat="56.021278" lon="26.545273">
<ele>54.465363</ele>
<time>2010-08-29T10:20:46Z</time>
<desc>lat.=56.021278, lon.=26.545273, Alt.=54.465363m. Speed=4.860000m/h.</desc>
<speed>1.350000</speed>
</trkpt>
<trkpt lat="56.021278" lon="26.545233">
<ele>54.396027</ele>
<time>2010-08-29T10:20:47Z</time>
<desc>lat.=56.021278, lon.=26.545233, Alt.=54.396027m. Speed=4.572000m/h.</desc>
<speed>1.270000</speed>
</trkpt>
<trkpt lat="56.021275" lon="26.545202">
<ele>54.104034</ele>
<time>2010-08-29T10:20:48Z</time>
<desc>lat.=56.021275, lon.=26.545202, Alt.=54.104034m. Speed=3.780000m/h.</desc>
<speed>1.050000</speed>
</trkpt>
<trkpt lat="56.021267" lon="26.545158">
<ele>53.897980</ele>
<time>2010-08-29T10:20:49Z</time>
<desc>lat.=56.021267, lon.=26.545158, Alt.=53.897980m. Speed=5.760000m/h.</desc>
<speed>1.600000</speed>
</trkpt>
<trkpt lat="56.021248" lon="26.545103">
<ele>53.700714</ele>
<time>2010-08-29T10:20:50Z</time>
<desc>lat.=56.021248, lon.=26.545103, Alt.=53.700714m. Speed=9.108000m/h.</desc>
<speed>2.530000</speed>
</trkpt>
<trkpt lat="56.021225" lon="26.545057">
<ele>53.373566</ele>
<time>2010-08-29T10:20:51Z</time>
<desc>lat.=56.021225, lon.=26.545057, Alt.=53.373566m. Speed=8.208000m/h.</desc>
<speed>2.280000</speed>
</trkpt>
<trkpt lat="56.021221" lon="26.545004">
<ele>53.072784</ele>
<time>2010-08-29T10:20:52Z</time>
<desc>lat.=56.021221, lon.=26.545004, Alt.=53.072784m. Speed=7.308000m/h.</desc>
<speed>2.030000</speed>
</trkpt>
<trkpt lat="56.021217" lon="26.544939">
<ele>52.702667</ele>
<time>2010-08-29T10:20:53Z</time>
<desc>lat.=56.021217, lon.=26.544939, Alt.=52.702667m. Speed=8.028000m/h.</desc>
<speed>2.230000</speed>
</trkpt>
<trkpt lat="56.021217" lon="26.544891">
<ele>52.268097</ele>
<time>2010-08-29T10:20:54Z</time>
<desc>lat.=56.021217, lon.=26.544891, Alt.=52.268097m. Speed=6.264000m/h.</desc>
<speed>1.740000</speed>
</trkpt>
<trkpt lat="56.021217" lon="26.544849">
<ele>51.912628</ele>
<time>2010-08-29T10:20:55Z</time>
<desc>lat.=56.021217, lon.=26.544849, Alt.=51.912628m. Speed=4.716000m/h.</desc>
<speed>1.310000</speed>
</trkpt>
<trkpt lat="56.021210" lon="26.544792">
<ele>51.568878</ele>
<time>2010-08-29T10:20:56Z</time>
<desc>lat.=56.021210, lon.=26.544792, Alt.=51.568878m. Speed=5.616000m/h.</desc>
<speed>1.560000</speed>
</trkpt>
<trkpt lat="56.021206" lon="26.544760">
<ele>51.069855</ele>
<time>2010-08-29T10:20:57Z</time>
<desc>lat.=56.021206, lon.=26.544760, Alt.=51.069855m. Speed=3.420000m/h.</desc>
<speed>0.950000</speed>
</trkpt>
<trkpt lat="56.021206" lon="26.544731">
<ele>50.490753</ele>
<time>2010-08-29T10:20:58Z</time>
<desc>lat.=56.021206, lon.=26.544731, Alt.=50.490753m. Speed=3.744000m/h.</desc>
<speed>1.040000</speed>
</trkpt>
<trkpt lat="56.021202" lon="26.544672">
<ele>50.009308</ele>
<time>2010-08-29T10:20:59Z</time>
<desc>lat.=56.021202, lon.=26.544672, Alt.=50.009308m. Speed=8.532000m/h.</desc>
<speed>2.370000</speed>
</trkpt>
<trkpt lat="56.021194" lon="26.544632">
<ele>49.141144</ele>
<time>2010-08-29T10:21:00Z</time>
<desc>lat.=56.021194, lon.=26.544632, Alt.=49.141144m. Speed=5.724000m/h.</desc>
<speed>1.590000</speed>
</trkpt>
<trkpt lat="56.021191" lon="26.544586">
<ele>48.477081</ele>
<time>2010-08-29T10:21:01Z</time>
<desc>lat.=56.021191, lon.=26.544586, Alt.=48.477081m. Speed=7.992000m/h.</desc>
<speed>2.220000</speed>
</trkpt>
<trkpt lat="56.021194" lon="26.544538">
<ele>47.803253</ele>
<time>2010-08-29T10:21:02Z</time>
<desc>lat.=56.021194, lon.=26.544538, Alt.=47.803253m. Speed=5.400000m/h.</desc>
<speed>1.500000</speed>
</trkpt>
<trkpt lat="56.021194" lon="26.544510">
<ele>47.091339</ele>
<time>2010-08-29T10:21:03Z</time>
<desc>lat.=56.021194, lon.=26.544510, Alt.=47.091339m. Speed=5.652000m/h.</desc>
<speed>1.570000</speed>
</trkpt>
<trkpt lat="56.021198" lon="26.544470">
<ele>46.326691</ele>
<time>2010-08-29T10:21:04Z</time>
<desc>lat.=56.021198, lon.=26.544470, Alt.=46.326691m. Speed=6.552000m/h.</desc>
<speed>1.820000</speed>
</trkpt>
<trkpt lat="56.021198" lon="26.544422">
<ele>45.563995</ele>
<time>2010-08-29T10:21:05Z</time>
<desc>lat.=56.021198, lon.=26.544422, Alt.=45.563995m. Speed=6.264000m/h.</desc>
<speed>1.740000</speed>
</trkpt>
<trkpt lat="56.021202" lon="26.544382">
<ele>44.948761</ele>
<time>2010-08-29T10:21:06Z</time>
<desc>lat.=56.021202, lon.=26.544382, Alt.=44.948761m. Speed=5.112000m/h.</desc>
<speed>1.420000</speed>
</trkpt>
<trkpt lat="56.021210" lon="26.544342">
<ele>44.402863</ele>
<time>2010-08-29T10:21:07Z</time>
<desc>lat.=56.021210, lon.=26.544342, Alt.=44.402863m. Speed=4.176000m/h.</desc>
<speed>1.160000</speed>
</trkpt>
<trkpt lat="56.021236" lon="26.544327">
<ele>43.669464</ele>
<time>2010-08-29T10:21:08Z</time>
<desc>lat.=56.021236, lon.=26.544327, Alt.=43.669464m. Speed=5.328000m/h.</desc>
<speed>1.480000</speed>
</trkpt>
<trkpt lat="56.021252" lon="26.544308">
<ele>42.924347</ele>
<time>2010-08-29T10:21:09Z</time>
<desc>lat.=56.021252, lon.=26.544308, Alt.=42.924347m. Speed=2.916000m/h.</desc>
<speed>0.810000</speed>
</trkpt>
<trkpt lat="56.021267" lon="26.544283">
<ele>42.076691</ele>
<time>2010-08-29T10:21:10Z</time>
<desc>lat.=56.021267, lon.=26.544283, Alt.=42.076691m. Speed=3.960000m/h.</desc>
<speed>1.100000</speed>
</trkpt>
<trkpt lat="56.021275" lon="26.544262">
<ele>41.462433</ele>
<time>2010-08-29T10:21:11Z</time>
<desc>lat.=56.021275, lon.=26.544262, Alt.=41.462433m. Speed=4.428000m/h.</desc>
<speed>1.230000</speed>
</trkpt>
<trkpt lat="56.021286" lon="26.544239">
<ele>40.881378</ele>
<time>2010-08-29T10:21:12Z</time>
<desc>lat.=56.021286, lon.=26.544239, Alt.=40.881378m. Speed=4.176000m/h.</desc>
<speed>1.160000</speed>
</trkpt>
<trkpt lat="56.021305" lon="26.544199">
<ele>40.024933</ele>
<time>2010-08-29T10:21:13Z</time>
<desc>lat.=56.021305, lon.=26.544199, Alt.=40.024933m. Speed=6.480000m/h.</desc>
<speed>1.800000</speed>
</trkpt>
<trkpt lat="56.021309" lon="26.544117">
<ele>39.569855</ele>
<time>2010-08-29T10:21:14Z</time>
<desc>lat.=56.021309, lon.=26.544117, Alt.=39.569855m. Speed=5.652000m/h.</desc>
<speed>1.570000</speed>
</trkpt>
<trkpt lat="56.021320" lon="26.544094">
<ele>38.905792</ele>
<time>2010-08-29T10:21:15Z</time>
<desc>lat.=56.021320, lon.=26.544094, Alt.=38.905792m. Speed=5.616000m/h.</desc>
<speed>1.560000</speed>
</trkpt>
<trkpt lat="56.021343" lon="26.544071">
<ele>38.214386</ele>
<time>2010-08-29T10:21:16Z</time>
<desc>lat.=56.021343, lon.=26.544071, Alt.=38.214386m. Speed=5.616000m/h.</desc>
<speed>1.560000</speed>
</trkpt>
<trkpt lat="56.021362" lon="26.544054">
<ele>37.419464</ele>
<time>2010-08-29T10:21:17Z</time>
<desc>lat.=56.021362, lon.=26.544054, Alt.=37.419464m. Speed=5.508000m/h.</desc>
<speed>1.530000</speed>
</trkpt>
<trkpt lat="56.021370" lon="26.544041">
<ele>36.644073</ele>
<time>2010-08-29T10:21:18Z</time>
<desc>lat.=56.021370, lon.=26.544041, Alt.=36.644073m. Speed=1.548000m/h.</desc>
<speed>0.430000</speed>
</trkpt>
<trkpt lat="56.021366" lon="26.544018">
<ele>35.912628</ele>
<time>2010-08-29T10:21:19Z</time>
<desc>lat.=56.021366, lon.=26.544018, Alt.=35.912628m. Speed=3.240000m/h.</desc>
<speed>0.900000</speed>
</trkpt>
<trkpt lat="56.021370" lon="26.544035">
<ele>36.629425</ele>
<time>2010-08-29T10:21:20Z</time>
<desc>lat.=56.021370, lon.=26.544035, Alt.=36.629425m. Speed=2.124000m/h.</desc>
<speed>0.590000</speed>
</trkpt>
<trkpt lat="56.021378" lon="26.544027">
<ele>36.313995</ele>
<time>2010-08-29T10:21:21Z</time>
<desc>lat.=56.021378, lon.=26.544027, Alt.=36.313995m. Speed=1.584000m/h.</desc>
<speed>0.440000</speed>
</trkpt>
<trkpt lat="56.021385" lon="26.544014">
<ele>36.711456</ele>
<time>2010-08-29T10:21:22Z</time>
<desc>lat.=56.021385, lon.=26.544014, Alt.=36.711456m. Speed=1.692000m/h.</desc>
<speed>0.470000</speed>
</trkpt>
<trkpt lat="56.021389" lon="26.544003">
<ele>36.238800</ele>
<time>2010-08-29T10:21:23Z</time>
<desc>lat.=56.021389, lon.=26.544003, Alt.=36.238800m. Speed=1.908000m/h.</desc>
<speed>0.530000</speed>
</trkpt>
<trkpt lat="56.021389" lon="26.543974">
<ele>35.969269</ele>
<time>2010-08-29T10:21:24Z</time>
<desc>lat.=56.021389, lon.=26.543974, Alt.=35.969269m. Speed=2.592000m/h.</desc>
<speed>0.720000</speed>
</trkpt>
<trkpt lat="56.021393" lon="26.543949">
<ele>36.198761</ele>
<time>2010-08-29T10:21:25Z</time>
<desc>lat.=56.021393, lon.=26.543949, Alt.=36.198761m. Speed=2.988000m/h.</desc>
<speed>0.830000</speed>
</trkpt>
<trkpt lat="56.021397" lon="26.543934">
<ele>35.874542</ele>
<time>2010-08-29T10:21:26Z</time>
<desc>lat.=56.021397, lon.=26.543934, Alt.=35.874542m. Speed=2.988000m/h.</desc>
<speed>0.830000</speed>
</trkpt>
<trkpt lat="56.021412" lon="26.543924">
<ele>35.499542</ele>
<time>2010-08-29T10:21:27Z</time>
<desc>lat.=56.021412, lon.=26.543924, Alt.=35.499542m. Speed=3.564000m/h.</desc>
<speed>0.990000</speed>
</trkpt>
<trkpt lat="56.021420" lon="26.543915">
<ele>35.221222</ele>
<time>2010-08-29T10:21:28Z</time>
<desc>lat.=56.021420, lon.=26.543915, Alt.=35.221222m. Speed=3.528000m/h.</desc>
<speed>0.980000</speed>
</trkpt>
<trkpt lat="56.021416" lon="26.543806">
<ele>35.544464</ele>
<time>2010-08-29T10:21:29Z</time>
<desc>lat.=56.021416, lon.=26.543806, Alt.=35.544464m. Speed=3.708000m/h.</desc>
<speed>1.030000</speed>
</trkpt>
<trkpt lat="56.021431" lon="26.543779">
<ele>35.313019</ele>
<time>2010-08-29T10:21:30Z</time>
<desc>lat.=56.021431, lon.=26.543779, Alt.=35.313019m. Speed=4.896000m/h.</desc>
<speed>1.360000</speed>
</trkpt>
<trkpt lat="56.021439" lon="26.543747">
<ele>35.151886</ele>
<time>2010-08-29T10:21:31Z</time>
<desc>lat.=56.021439, lon.=26.543747, Alt.=35.151886m. Speed=5.148000m/h.</desc>
<speed>1.430000</speed>
</trkpt>
<trkpt lat="56.021446" lon="26.543699">
<ele>34.889191</ele>
<time>2010-08-29T10:21:32Z</time>
<desc>lat.=56.021446, lon.=26.543699, Alt.=34.889191m. Speed=5.580000m/h.</desc>
<speed>1.550000</speed>
</trkpt>
<trkpt lat="56.021458" lon="26.543680">
<ele>34.562042</ele>
<time>2010-08-29T10:21:33Z</time>
<desc>lat.=56.021458, lon.=26.543680, Alt.=34.562042m. Speed=3.852000m/h.</desc>
<speed>1.070000</speed>
</trkpt>
<trkpt lat="56.021465" lon="26.543652">
<ele>34.398956</ele>
<time>2010-08-29T10:21:34Z</time>
<desc>lat.=56.021465, lon.=26.543652, Alt.=34.398956m. Speed=5.328000m/h.</desc>
<speed>1.480000</speed>
</trkpt>
<trkpt lat="56.021469" lon="26.543625">
<ele>34.147003</ele>
<time>2010-08-29T10:21:35Z</time>
<desc>lat.=56.021469, lon.=26.543625, Alt.=34.147003m. Speed=4.500000m/h.</desc>
<speed>1.250000</speed>
</trkpt>
<trkpt lat="56.021473" lon="26.543602">
<ele>34.033722</ele>
<time>2010-08-29T10:21:36Z</time>
<desc>lat.=56.021473, lon.=26.543602, Alt.=34.033722m. Speed=6.156000m/h.</desc>
<speed>1.710000</speed>
</trkpt>
<trkpt lat="56.021481" lon="26.543575">
<ele>33.941925</ele>
<time>2010-08-29T10:21:37Z</time>
<desc>lat.=56.021481, lon.=26.543575, Alt.=33.941925m. Speed=5.868000m/h.</desc>
<speed>1.630000</speed>
</trkpt>
<trkpt lat="56.021488" lon="26.543547">
<ele>33.535675</ele>
<time>2010-08-29T10:21:38Z</time>
<desc>lat.=56.021488, lon.=26.543547, Alt.=33.535675m. Speed=5.112000m/h.</desc>
<speed>1.420000</speed>
</trkpt>
<trkpt lat="56.021507" lon="26.543537">
<ele>33.061066</ele>
<time>2010-08-29T10:21:39Z</time>
<desc>lat.=56.021507, lon.=26.543537, Alt.=33.061066m. Speed=3.060000m/h.</desc>
<speed>0.850000</speed>
</trkpt>
<trkpt lat="56.021523" lon="26.543474">
<ele>33.369659</ele>
<time>2010-08-29T10:21:40Z</time>
<desc>lat.=56.021523, lon.=26.543474, Alt.=33.369659m. Speed=5.508000m/h.</desc>
<speed>1.530000</speed>
</trkpt>
<trkpt lat="56.021564" lon="26.543427">
<ele>32.924347</ele>
<time>2010-08-29T10:21:41Z</time>
<desc>lat.=56.021564, lon.=26.543427, Alt.=32.924347m. Speed=5.832000m/h.</desc>
<speed>1.620000</speed>
</trkpt>
<trkpt lat="56.021610" lon="26.543348">
<ele>32.533722</ele>
<time>2010-08-29T10:21:42Z</time>
<desc>lat.=56.021610, lon.=26.543348, Alt.=32.533722m. Speed=3.852000m/h.</desc>
<speed>1.070000</speed>
</trkpt>
<trkpt lat="56.021641" lon="26.543297">
<ele>32.027863</ele>
<time>2010-08-29T10:21:43Z</time>
<desc>lat.=56.021641, lon.=26.543297, Alt.=32.027863m. Speed=3.168000m/h.</desc>
<speed>0.880000</speed>
</trkpt>
<trkpt lat="56.021667" lon="26.543245">
<ele>31.757095</ele>
<time>2010-08-29T10:21:44Z</time>
<desc>lat.=56.021667, lon.=26.543245, Alt.=31.757095m. Speed=5.508000m/h.</desc>
<speed>1.530000</speed>
</trkpt>
<trkpt lat="56.021675" lon="26.543022">
<ele>32.101105</ele>
<time>2010-08-29T10:21:45Z</time>
<desc>lat.=56.021675, lon.=26.543022, Alt.=32.101105m. Speed=6.444000m/h.</desc>
<speed>1.790000</speed>
</trkpt>
<trkpt lat="56.021694" lon="26.542992">
<ele>31.863541</ele>
<time>2010-08-29T10:21:46Z</time>
<desc>lat.=56.021694, lon.=26.542992, Alt.=31.863541m. Speed=5.220000m/h.</desc>
<speed>1.450000</speed>
</trkpt>
<trkpt lat="56.021717" lon="26.542942">
<ele>31.438736</ele>
<time>2010-08-29T10:21:47Z</time>
<desc>lat.=56.021717, lon.=26.542942, Alt.=31.438736m. Speed=6.192000m/h.</desc>
<speed>1.720000</speed>
</trkpt>
<trkpt lat="56.021732" lon="26.542917">
<ele>31.081802</ele>
<time>2010-08-29T10:21:48Z</time>
<desc>lat.=56.021732, lon.=26.542917, Alt.=31.081802m. Speed=3.276000m/h.</desc>
<speed>0.910000</speed>
</trkpt>
<trkpt lat="56.021744" lon="26.542885">
<ele>30.736588</ele>
<time>2010-08-29T10:21:49Z</time>
<desc>lat.=56.021744, lon.=26.542885, Alt.=30.736588m. Speed=5.184000m/h.</desc>
<speed>1.440000</speed>
</trkpt>
<trkpt lat="56.021755" lon="26.542858">
<ele>30.317642</ele>
<time>2010-08-29T10:21:50Z</time>
<desc>lat.=56.021755, lon.=26.542858, Alt.=30.317642m. Speed=3.240000m/h.</desc>
<speed>0.900000</speed>
</trkpt>
<trkpt lat="56.021767" lon="26.542793">
<ele>29.728287</ele>
<time>2010-08-29T10:21:51Z</time>
<desc>lat.=56.021767, lon.=26.542793, Alt.=29.728287m. Speed=5.688000m/h.</desc>
<speed>1.580000</speed>
</trkpt>
<trkpt lat="56.021778" lon="26.542751">
<ele>29.334244</ele>
<time>2010-08-29T10:21:52Z</time>
<desc>lat.=56.021778, lon.=26.542751, Alt.=29.334244m. Speed=6.300000m/h.</desc>
<speed>1.750000</speed>
</trkpt>
<trkpt lat="56.021793" lon="26.542721">
<ele>28.818130</ele>
<time>2010-08-29T10:21:53Z</time>
<desc>lat.=56.021793, lon.=26.542721, Alt.=28.818130m. Speed=5.004000m/h.</desc>
<speed>1.390000</speed>
</trkpt>
<trkpt lat="56.021797" lon="26.542686">
<ele>28.394791</ele>
<time>2010-08-29T10:21:54Z</time>
<desc>lat.=56.021797, lon.=26.542686, Alt.=28.394791m. Speed=3.816000m/h.</desc>
<speed>1.060000</speed>
</trkpt>
<trkpt lat="56.021801" lon="26.542660">
<ele>27.845474</ele>
<time>2010-08-29T10:21:55Z</time>
<desc>lat.=56.021801, lon.=26.542660, Alt.=27.845474m. Speed=3.600000m/h.</desc>
<speed>1.000000</speed>
</trkpt>
<trkpt lat="56.021812" lon="26.542624">
<ele>27.418228</ele>
<time>2010-08-29T10:21:56Z</time>
<desc>lat.=56.021812, lon.=26.542624, Alt.=27.418228m. Speed=6.336000m/h.</desc>
<speed>1.760000</speed>
</trkpt>
<trkpt lat="56.021820" lon="26.542587">
<ele>26.969009</ele>
<time>2010-08-29T10:21:57Z</time>
<desc>lat.=56.021820, lon.=26.542587, Alt.=26.969009m. Speed=4.860000m/h.</desc>
<speed>1.350000</speed>
</trkpt>
<trkpt lat="56.021832" lon="26.542566">
<ele>26.430435</ele>
<time>2010-08-29T10:21:58Z</time>
<desc>lat.=56.021832, lon.=26.542566, Alt.=26.430435m. Speed=4.644000m/h.</desc>
<speed>1.290000</speed>
</trkpt>
<trkpt lat="56.021835" lon="26.542524">
<ele>25.992935</ele>
<time>2010-08-29T10:21:59Z</time>
<desc>lat.=56.021835, lon.=26.542524, Alt.=25.992935m. Speed=7.308000m/h.</desc>
<speed>2.030000</speed>
</trkpt>
<trkpt lat="56.021835" lon="26.542494">
<ele>25.564713</ele>
<time>2010-08-29T10:22:00Z</time>
<desc>lat.=56.021835, lon.=26.542494, Alt.=25.564713m. Speed=5.940000m/h.</desc>
<speed>1.650000</speed>
</trkpt>
<trkpt lat="56.021847" lon="26.542477">
<ele>25.221451</ele>
<time>2010-08-29T10:22:01Z</time>
<desc>lat.=56.021847, lon.=26.542477, Alt.=25.221451m. Speed=4.068000m/h.</desc>
<speed>1.130000</speed>
</trkpt>
<trkpt lat="56.021854" lon="26.542440">
<ele>24.846451</ele>
<time>2010-08-29T10:22:02Z</time>
<desc>lat.=56.021854, lon.=26.542440, Alt.=24.846451m. Speed=7.632000m/h.</desc>
<speed>2.120000</speed>
</trkpt>
<trkpt lat="56.021824" lon="26.542154">
<ele>25.851822</ele>
<time>2010-08-29T10:22:03Z</time>
<desc>lat.=56.021824, lon.=26.542154, Alt.=25.851822m. Speed=6.840000m/h.</desc>
<speed>1.900000</speed>
</trkpt>
<trkpt lat="56.021824" lon="26.542124">
<ele>25.047623</ele>
<time>2010-08-29T10:22:04Z</time>
<desc>lat.=56.021824, lon.=26.542124, Alt.=25.047623m. Speed=7.452000m/h.</desc>
<speed>2.070000</speed>
</trkpt>
<trkpt lat="56.021839" lon="26.542067">
<ele>24.607193</ele>
<time>2010-08-29T10:22:05Z</time>
<desc>lat.=56.021839, lon.=26.542067, Alt.=24.607193m. Speed=7.488000m/h.</desc>
<speed>2.080000</speed>
</trkpt>
<trkpt lat="56.021858" lon="26.542025">
<ele>23.883560</ele>
<time>2010-08-29T10:22:06Z</time>
<desc>lat.=56.021858, lon.=26.542025, Alt.=23.883560m. Speed=8.244000m/h.</desc>
<speed>2.290000</speed>
</trkpt>
<trkpt lat="56.021885" lon="26.541977">
<ele>23.062271</ele>
<time>2010-08-29T10:22:07Z</time>
<desc>lat.=56.021885, lon.=26.541977, Alt.=23.062271m. Speed=7.272000m/h.</desc>
<speed>2.020000</speed>
</trkpt>
<trkpt lat="56.021908" lon="26.541939">
<ele>22.377701</ele>
<time>2010-08-29T10:22:08Z</time>
<desc>lat.=56.021908, lon.=26.541939, Alt.=22.377701m. Speed=5.760000m/h.</desc>
<speed>1.600000</speed>
</trkpt>
<trkpt lat="56.021912" lon="26.541815">
<ele>22.261978</ele>
<time>2010-08-29T10:22:09Z</time>
<desc>lat.=56.021912, lon.=26.541815, Alt.=22.261978m. Speed=6.840000m/h.</desc>
<speed>1.900000</speed>
</trkpt>
<trkpt lat="56.021923" lon="26.541697">
<ele>21.834732</ele>
<time>2010-08-29T10:22:10Z</time>
<desc>lat.=56.021923, lon.=26.541697, Alt.=21.834732m. Speed=5.400000m/h.</desc>
<speed>1.500000</speed>
</trkpt>
<trkpt lat="56.021931" lon="26.541605">
<ele>21.353287</ele>
<time>2010-08-29T10:22:11Z</time>
<desc>lat.=56.021931, lon.=26.541605, Alt.=21.353287m. Speed=4.032000m/h.</desc>
<speed>1.120000</speed>
</trkpt>
<trkpt lat="56.021946" lon="26.541502">
<ele>20.751724</ele>
<time>2010-08-29T10:22:12Z</time>
<desc>lat.=56.021946, lon.=26.541502, Alt.=20.751724m. Speed=5.976000m/h.</desc>
<speed>1.660000</speed>
</trkpt>
<trkpt lat="56.021965" lon="26.541460">
<ele>19.814224</ele>
<time>2010-08-29T10:22:13Z</time>
<desc>lat.=56.021965, lon.=26.541460, Alt.=19.814224m. Speed=6.624000m/h.</desc>
<speed>1.840000</speed>
</trkpt>
<trkpt lat="56.021976" lon="26.541420">
<ele>19.067154</ele>
<time>2010-08-29T10:22:14Z</time>
<desc>lat.=56.021976, lon.=26.541420, Alt.=19.067154m. Speed=6.480000m/h.</desc>
<speed>1.800000</speed>
</trkpt>
<trkpt lat="56.021988" lon="26.541328">
<ele>18.837173</ele>
<time>2010-08-29T10:22:15Z</time>
<desc>lat.=56.021988, lon.=26.541328, Alt.=18.837173m. Speed=4.356000m/h.</desc>
<speed>1.210000</speed>
</trkpt>
<trkpt lat="56.021999" lon="26.541229">
<ele>18.289322</ele>
<time>2010-08-29T10:22:16Z</time>
<desc>lat.=56.021999, lon.=26.541229, Alt.=18.289322m. Speed=5.580000m/h.</desc>
<speed>1.550000</speed>
</trkpt>
<trkpt lat="56.022015" lon="26.541161">
<ele>17.517838</ele>
<time>2010-08-29T10:22:17Z</time>
<desc>lat.=56.022015, lon.=26.541161, Alt.=17.517838m. Speed=4.680000m/h.</desc>
<speed>1.300000</speed>
</trkpt>
<trkpt lat="56.022015" lon="26.541071">
<ele>17.853775</ele>
<time>2010-08-29T10:22:18Z</time>
<desc>lat.=56.022015, lon.=26.541071, Alt.=17.853775m. Speed=9.396000m/h.</desc>
<speed>2.610000</speed>
</trkpt>
<trkpt lat="56.022026" lon="26.540979">
<ele>17.189713</ele>
<time>2010-08-29T10:22:19Z</time>
<desc>lat.=56.022026, lon.=26.540979, Alt.=17.189713m. Speed=5.040000m/h.</desc>
<speed>1.400000</speed>
</trkpt>
<trkpt lat="56.022045" lon="26.540916">
<ele>16.941177</ele>
<time>2010-08-29T10:22:20Z</time>
<desc>lat.=56.022045, lon.=26.540916, Alt.=16.941177m. Speed=4.824000m/h.</desc>
<speed>1.340000</speed>
</trkpt>
<trkpt lat="56.022053" lon="26.540867">
<ele>16.710220</ele>
<time>2010-08-29T10:22:21Z</time>
<desc>lat.=56.022053, lon.=26.540867, Alt.=16.710220m. Speed=2.196000m/h.</desc>
<speed>0.610000</speed>
</trkpt>
<trkpt lat="56.022053" lon="26.540812">
<ele>16.636002</ele>
<time>2010-08-29T10:22:22Z</time>
<desc>lat.=56.022053, lon.=26.540812, Alt.=16.636002m. Speed=5.544000m/h.</desc>
<speed>1.540000</speed>
</trkpt>
<trkpt lat="56.022045" lon="26.540749">
<ele>16.526138</ele>
<time>2010-08-29T10:22:23Z</time>
<desc>lat.=56.022045, lon.=26.540749, Alt.=16.526138m. Speed=7.560000m/h.</desc>
<speed>2.100000</speed>
</trkpt>
<trkpt lat="56.022038" lon="26.540657">
<ele>16.696548</ele>
<time>2010-08-29T10:22:24Z</time>
<desc>lat.=56.022038, lon.=26.540657, Alt.=16.696548m. Speed=6.336000m/h.</desc>
<speed>1.760000</speed>
</trkpt>
<trkpt lat="56.022045" lon="26.540630">
<ele>16.560318</ele>
<time>2010-08-29T10:22:25Z</time>
<desc>lat.=56.022045, lon.=26.540630, Alt.=16.560318m. Speed=5.220000m/h.</desc>
<speed>1.450000</speed>
</trkpt>
<trkpt lat="56.022053" lon="26.540609">
<ele>16.533463</ele>
<time>2010-08-29T10:22:26Z</time>
<desc>lat.=56.022053, lon.=26.540609, Alt.=16.533463m. Speed=4.752000m/h.</desc>
<speed>1.320000</speed>
</trkpt>
<trkpt lat="56.022079" lon="26.540524">
<ele>17.259537</ele>
<time>2010-08-29T10:22:27Z</time>
<desc>lat.=56.022079, lon.=26.540524, Alt.=17.259537m. Speed=4.752000m/h.</desc>
<speed>1.320000</speed>
</trkpt>
<trkpt lat="56.022110" lon="26.540426">
<ele>17.353775</ele>
<time>2010-08-29T10:22:28Z</time>
<desc>lat.=56.022110, lon.=26.540426, Alt.=17.353775m. Speed=6.768000m/h.</desc>
<speed>1.880000</speed>
</trkpt>
<trkpt lat="56.022133" lon="26.540287">
<ele>17.955338</ele>
<time>2010-08-29T10:22:29Z</time>
<desc>lat.=56.022133, lon.=26.540287, Alt.=17.955338m. Speed=9.684000m/h.</desc>
<speed>2.690000</speed>
</trkpt>
<trkpt lat="56.022167" lon="26.540230">
<ele>17.555923</ele>
<time>2010-08-29T10:22:30Z</time>
<desc>lat.=56.022167, lon.=26.540230, Alt.=17.555923m. Speed=9.468000m/h.</desc>
<speed>2.630000</speed>
</trkpt>
<trkpt lat="56.022198" lon="26.540176">
<ele>17.207291</ele>
<time>2010-08-29T10:22:31Z</time>
<desc>lat.=56.022198, lon.=26.540176, Alt.=17.207291m. Speed=8.856000m/h.</desc>
<speed>2.460000</speed>
</trkpt>
<trkpt lat="56.022263" lon="26.540140">
<ele>17.297623</ele>
<time>2010-08-29T10:22:32Z</time>
<desc>lat.=56.022263, lon.=26.540140, Alt.=17.297623m. Speed=8.172000m/h.</desc>
<speed>2.270000</speed>
</trkpt>
<trkpt lat="56.022282" lon="26.540075">
<ele>16.962662</ele>
<time>2010-08-29T10:22:33Z</time>
<desc>lat.=56.022282, lon.=26.540075, Alt.=16.962662m. Speed=8.676000m/h.</desc>
<speed>2.410000</speed>
</trkpt>
<trkpt lat="56.022305" lon="26.540030">
<ele>16.501236</ele>
<time>2010-08-29T10:22:34Z</time>
<desc>lat.=56.022305, lon.=26.540030, Alt.=16.501236m. Speed=6.624000m/h.</desc>
<speed>1.840000</speed>
</trkpt>
<trkpt lat="56.022335" lon="26.539968">
<ele>15.964241</ele>
<time>2010-08-29T10:22:35Z</time>
<desc>lat.=56.022335, lon.=26.539968, Alt.=15.964241m. Speed=6.984000m/h.</desc>
<speed>1.940000</speed>
</trkpt>
<trkpt lat="56.022358" lon="26.539925">
<ele>15.612923</ele>
<time>2010-08-29T10:22:36Z</time>
<desc>lat.=56.022358, lon.=26.539925, Alt.=15.612923m. Speed=7.200000m/h.</desc>
<speed>2.000000</speed>
</trkpt>
<trkpt lat="56.022404" lon="26.539841">
<ele>15.002571</ele>
<time>2010-08-29T10:22:37Z</time>
<desc>lat.=56.022404, lon.=26.539841, Alt.=15.002571m. Speed=8.532000m/h.</desc>
<speed>2.370000</speed>
</trkpt>
<trkpt lat="56.022430" lon="26.539776">
<ele>14.449593</ele>
<time>2010-08-29T10:22:38Z</time>
<desc>lat.=56.022430, lon.=26.539776, Alt.=14.449593m. Speed=7.812000m/h.</desc>
<speed>2.170000</speed>
</trkpt>
<trkpt lat="56.022438" lon="26.539749">
<ele>14.220589</ele>
<time>2010-08-29T10:22:39Z</time>
<desc>lat.=56.022438, lon.=26.539749, Alt.=14.220589m. Speed=6.732000m/h.</desc>
<speed>1.870000</speed>
</trkpt>
<trkpt lat="56.022446" lon="26.539730">
<ele>14.000862</ele>
<time>2010-08-29T10:22:40Z</time>
<desc>lat.=56.022446, lon.=26.539730, Alt.=14.000862m. Speed=5.256000m/h.</desc>
<speed>1.460000</speed>
</trkpt>
<trkpt lat="56.022484" lon="26.539671">
<ele>13.533821</ele>
<time>2010-08-29T10:22:41Z</time>
<desc>lat.=56.022484, lon.=26.539671, Alt.=13.533821m. Speed=4.896000m/h.</desc>
<speed>1.360000</speed>
</trkpt>
<trkpt lat="56.022514" lon="26.539616">
<ele>12.963020</ele>
<time>2010-08-29T10:22:42Z</time>
<desc>lat.=56.022514, lon.=26.539616, Alt.=12.963020m. Speed=4.644000m/h.</desc>
<speed>1.290000</speed>
</trkpt>
<trkpt lat="56.022552" lon="26.539495">
<ele>12.887825</ele>
<time>2010-08-29T10:22:43Z</time>
<desc>lat.=56.022552, lon.=26.539495, Alt.=12.887825m. Speed=7.920000m/h.</desc>
<speed>2.200000</speed>
</trkpt>
<trkpt lat="56.022583" lon="26.539423">
<ele>12.159798</ele>
<time>2010-08-29T10:22:44Z</time>
<desc>lat.=56.022583, lon.=26.539423, Alt.=12.159798m. Speed=4.284000m/h.</desc>
<speed>1.190000</speed>
</trkpt>
<trkpt lat="56.022587" lon="26.539337">
<ele>12.672737</ele>
<time>2010-08-29T10:22:45Z</time>
<desc>lat.=56.022587, lon.=26.539337, Alt.=12.672737m. Speed=5.040000m/h.</desc>
<speed>1.400000</speed>
</trkpt>
<trkpt lat="56.022606" lon="26.539291">
<ele>12.488899</ele>
<time>2010-08-29T10:22:46Z</time>
<desc>lat.=56.022606, lon.=26.539291, Alt.=12.488899m. Speed=4.212000m/h.</desc>
<speed>1.170000</speed>
</trkpt>
<trkpt lat="56.022621" lon="26.539259">
<ele>12.651253</ele>
<time>2010-08-29T10:22:47Z</time>
<desc>lat.=56.022621, lon.=26.539259, Alt.=12.651253m. Speed=5.256000m/h.</desc>
<speed>1.460000</speed>
</trkpt>
<trkpt lat="56.022644" lon="26.539219">
<ele>12.408577</ele>
<time>2010-08-29T10:22:48Z</time>
<desc>lat.=56.022644, lon.=26.539219, Alt.=12.408577m. Speed=4.824000m/h.</desc>
<speed>1.340000</speed>
</trkpt>
<trkpt lat="56.022678" lon="26.539213">
<ele>12.831673</ele>
<time>2010-08-29T10:22:49Z</time>
<desc>lat.=56.022678, lon.=26.539213, Alt.=12.831673m. Speed=3.132000m/h.</desc>
<speed>0.870000</speed>
</trkpt>
<trkpt lat="56.022694" lon="26.539183">
<ele>13.766243</ele>
<time>2010-08-29T10:22:50Z</time>
<desc>lat.=56.022694, lon.=26.539183, Alt.=13.766243m. Speed=0.648000m/h.</desc>
<speed>0.180000</speed>
</trkpt>
<trkpt lat="56.022697" lon="26.539169">
<ele>14.316292</ele>
<time>2010-08-29T10:22:51Z</time>
<desc>lat.=56.022697, lon.=26.539169, Alt.=14.316292m. Speed=0.936000m/h.</desc>
<speed>0.260000</speed>
</trkpt>
<trkpt lat="56.022697" lon="26.539152">
<ele>15.055305</ele>
<time>2010-08-29T10:22:52Z</time>
<desc>lat.=56.022697, lon.=26.539152, Alt.=15.055305m. Speed=1.224000m/h.</desc>
<speed>0.340000</speed>
</trkpt>
<trkpt lat="56.022701" lon="26.539162">
<ele>15.757210</ele>
<time>2010-08-29T10:22:53Z</time>
<desc>lat.=56.022701, lon.=26.539162, Alt.=15.757210m. Speed=1.836000m/h.</desc>
<speed>0.510000</speed>
</trkpt>
<trkpt lat="56.022705" lon="26.539160">
<ele>16.162857</ele>
<time>2010-08-29T10:22:54Z</time>
<desc>lat.=56.022705, lon.=26.539160, Alt.=16.162857m. Speed=1.476000m/h.</desc>
<speed>0.410000</speed>
</trkpt>
<trkpt lat="56.022713" lon="26.539169">
<ele>16.600845</ele>
<time>2010-08-29T10:22:55Z</time>
<desc>lat.=56.022713, lon.=26.539169, Alt.=16.600845m. Speed=1.512000m/h.</desc>
<speed>0.420000</speed>
</trkpt>
<trkpt lat="56.022717" lon="26.539156">
<ele>16.990982</ele>
<time>2010-08-29T10:22:56Z</time>
<desc>lat.=56.022717, lon.=26.539156, Alt.=16.990982m. Speed=1.332000m/h.</desc>
<speed>0.370000</speed>
</trkpt>
<trkpt lat="56.022713" lon="26.539158">
<ele>17.480240</ele>
<time>2010-08-29T10:22:57Z</time>
<desc>lat.=56.022713, lon.=26.539158, Alt.=17.480240m. Speed=1.260000m/h.</desc>
<speed>0.350000</speed>
</trkpt>
<trkpt lat="56.022717" lon="26.539164">
<ele>17.924576</ele>
<time>2010-08-29T10:22:58Z</time>
<desc>lat.=56.022717, lon.=26.539164, Alt.=17.924576m. Speed=1.260000m/h.</desc>
<speed>0.350000</speed>
</trkpt>
<trkpt lat="56.022720" lon="26.539162">
<ele>18.323013</ele>
<time>2010-08-29T10:22:59Z</time>
<desc>lat.=56.022720, lon.=26.539162, Alt.=18.323013m. Speed=1.260000m/h.</desc>
<speed>0.350000</speed>
</trkpt>
<trkpt lat="56.022732" lon="26.539179">
<ele>19.587173</ele>
<time>2010-08-29T10:23:00Z</time>
<desc>lat.=56.022732, lon.=26.539179, Alt.=19.587173m. Speed=1.728000m/h.</desc>
<speed>0.480000</speed>
</trkpt>
<trkpt lat="56.022732" lon="26.539194">
<ele>20.357193</ele>
<time>2010-08-29T10:23:01Z</time>
<desc>lat.=56.022732, lon.=26.539194, Alt.=20.357193m. Speed=1.872000m/h.</desc>
<speed>0.520000</speed>
</trkpt>
<trkpt lat="56.022736" lon="26.539202">
<ele>20.319595</ele>
<time>2010-08-29T10:23:02Z</time>
<desc>lat.=56.022736, lon.=26.539202, Alt.=20.319595m. Speed=1.872000m/h.</desc>
<speed>0.520000</speed>
</trkpt>
<trkpt lat="56.022728" lon="26.539143">
<ele>21.775162</ele>
<time>2010-08-29T10:23:03Z</time>
<desc>lat.=56.022728, lon.=26.539143, Alt.=21.775162m. Speed=1.548000m/h.</desc>
<speed>0.430000</speed>
</trkpt>
<trkpt lat="56.022728" lon="26.539148">
<ele>21.566177</ele>
<time>2010-08-29T10:23:04Z</time>
<desc>lat.=56.022728, lon.=26.539148, Alt.=21.566177m. Speed=0.936000m/h.</desc>
<speed>0.260000</speed>
</trkpt>
<trkpt lat="56.022739" lon="26.538998">
<ele>21.816666</ele>
<time>2010-08-29T10:23:05Z</time>
<desc>lat.=56.022739, lon.=26.538998, Alt.=21.816666m. Speed=0.792000m/h.</desc>
<speed>0.220000</speed>
</trkpt>
<trkpt lat="56.022732" lon="26.538980">
<ele>21.384537</ele>
<time>2010-08-29T10:23:06Z</time>
<desc>lat.=56.022732, lon.=26.538980, Alt.=21.384537m. Speed=0.828000m/h.</desc>
<speed>0.230000</speed>
</trkpt>
<trkpt lat="56.022728" lon="26.538961">
<ele>21.116470</ele>
<time>2010-08-29T10:23:07Z</time>
<desc>lat.=56.022728, lon.=26.538961, Alt.=21.116470m. Speed=0.792000m/h.</desc>
<speed>0.220000</speed>
</trkpt>
<trkpt lat="56.022724" lon="26.538965">
<ele>20.980240</ele>
<time>2010-08-29T10:23:08Z</time>
<desc>lat.=56.022724, lon.=26.538965, Alt.=20.980240m. Speed=0.468000m/h.</desc>
<speed>0.130000</speed>
</trkpt>
<trkpt lat="56.022724" lon="26.538963">
<ele>20.885513</ele>
<time>2010-08-29T10:23:09Z</time>
<desc>lat.=56.022724, lon.=26.538963, Alt.=20.885513m. Speed=0.720000m/h.</desc>
<speed>0.200000</speed>
</trkpt>
<trkpt lat="56.022724" lon="26.538963">
<ele>20.812759</ele>
<time>2010-08-29T10:23:10Z</time>
<desc>lat.=56.022724, lon.=26.538963, Alt.=20.812759m. Speed=0.756000m/h.</desc>
<speed>0.210000</speed>
</trkpt>
<trkpt lat="56.022720" lon="26.538967">
<ele>20.739517</ele>
<time>2010-08-29T10:23:11Z</time>
<desc>lat.=56.022720, lon.=26.538967, Alt.=20.739517m. Speed=0.792000m/h.</desc>
<speed>0.220000</speed>
</trkpt>
<trkpt lat="56.022720" lon="26.538969">
<ele>20.697525</ele>
<time>2010-08-29T10:23:12Z</time>
<desc>lat.=56.022720, lon.=26.538969, Alt.=20.697525m. Speed=0.720000m/h.</desc>
<speed>0.200000</speed>
</trkpt>
<trkpt lat="56.022724" lon="26.538973">
<ele>20.625748</ele>
<time>2010-08-29T10:23:13Z</time>
<desc>lat.=56.022724, lon.=26.538973, Alt.=20.625748m. Speed=0.432000m/h.</desc>
<speed>0.120000</speed>
</trkpt>
<trkpt lat="56.022724" lon="26.538973">
<ele>20.563736</ele>
<time>2010-08-29T10:23:14Z</time>
<desc>lat.=56.022724, lon.=26.538973, Alt.=20.563736m. Speed=0.000000m/h.</desc>
<speed>0.000000</speed>
</trkpt>
<trkpt lat="56.022724" lon="26.538973">
<ele>20.511002</ele>
<time>2010-08-29T10:23:15Z</time>
<desc>lat.=56.022724, lon.=26.538973, Alt.=20.511002m. Speed=0.612000m/h.</desc>
<speed>0.170000</speed>
</trkpt>
<trkpt lat="56.022724" lon="26.538973">
<ele>20.482681</ele>
<time>2010-08-29T10:23:16Z</time>
<desc>lat.=56.022724, lon.=26.538973, Alt.=20.482681m. Speed=0.396000m/h.</desc>
<speed>0.110000</speed>
</trkpt>
<trkpt lat="56.022724" lon="26.538975">
<ele>20.449478</ele>
<time>2010-08-29T10:23:17Z</time>
<desc>lat.=56.022724, lon.=26.538975, Alt.=20.449478m. Speed=0.144000m/h.</desc>
<speed>0.040000</speed>
</trkpt>
<trkpt lat="56.022724" lon="26.538977">
<ele>20.423111</ele>
<time>2010-08-29T10:23:18Z</time>
<desc>lat.=56.022724, lon.=26.538977, Alt.=20.423111m. Speed=0.216000m/h.</desc>
<speed>0.060000</speed>
</trkpt>
<trkpt lat="56.022724" lon="26.538977">
<ele>20.411880</ele>
<time>2010-08-29T10:23:19Z</time>
<desc>lat.=56.022724, lon.=26.538977, Alt.=20.411880m. Speed=0.144000m/h.</desc>
<speed>0.040000</speed>
</trkpt>
<trkpt lat="56.022724" lon="26.538977">
<ele>20.412857</ele>
<time>2010-08-29T10:23:20Z</time>
<desc>lat.=56.022724, lon.=26.538977, Alt.=20.412857m. Speed=0.072000m/h.</desc>
<speed>0.020000</speed>
</trkpt>
<trkpt lat="56.022724" lon="26.538977">
<ele>20.403580</ele>
<time>2010-08-29T10:23:21Z</time>
<desc>lat.=56.022724, lon.=26.538977, Alt.=20.403580m. Speed=0.360000m/h.</desc>
<speed>0.100000</speed>
</trkpt>
<trkpt lat="56.022724" lon="26.538977">
<ele>20.390396</ele>
<time>2010-08-29T10:23:22Z</time>
<desc>lat.=56.022724, lon.=26.538977, Alt.=20.390396m. Speed=0.324000m/h.</desc>
<speed>0.090000</speed>
</trkpt>
<trkpt lat="56.022724" lon="26.538979">
<ele>20.380142</ele>
<time>2010-08-29T10:23:23Z</time>
<desc>lat.=56.022724, lon.=26.538979, Alt.=20.380142m. Speed=0.180000m/h.</desc>
<speed>0.050000</speed>
</trkpt>
<trkpt lat="56.022724" lon="26.538979">
<ele>20.385025</ele>
<time>2010-08-29T10:23:24Z</time>
<desc>lat.=56.022724, lon.=26.538979, Alt.=20.385025m. Speed=0.216000m/h.</desc>
<speed>0.060000</speed>
</trkpt>
<trkpt lat="56.022724" lon="26.538977">
<ele>20.393814</ele>
<time>2010-08-29T10:23:25Z</time>
<desc>lat.=56.022724, lon.=26.538977, Alt.=20.393814m. Speed=0.216000m/h.</desc>
<speed>0.060000</speed>
</trkpt>
<trkpt lat="56.022724" lon="26.538975">
<ele>20.411880</ele>
<time>2010-08-29T10:23:26Z</time>
<desc>lat.=56.022724, lon.=26.538975, Alt.=20.411880m. Speed=0.144000m/h.</desc>
<speed>0.040000</speed>
</trkpt>
<trkpt lat="56.022724" lon="26.538975">
<ele>20.420670</ele>
<time>2010-08-29T10:23:27Z</time>
<desc>lat.=56.022724, lon.=26.538975, Alt.=20.420670m. Speed=0.072000m/h.</desc>
<speed>0.020000</speed>
</trkpt>
<trkpt lat="56.022724" lon="26.538973">
<ele>20.435806</ele>
<time>2010-08-29T10:23:28Z</time>
<desc>lat.=56.022724, lon.=26.538973, Alt.=20.435806m. Speed=0.252000m/h.</desc>
<speed>0.070000</speed>
</trkpt>
<trkpt lat="56.022724" lon="26.538975">
<ele>20.454849</ele>
<time>2010-08-29T10:23:29Z</time>
<desc>lat.=56.022724, lon.=26.538975, Alt.=20.454849m. Speed=0.216000m/h.</desc>
<speed>0.060000</speed>
</trkpt>
<trkpt lat="56.022724" lon="26.538973">
<ele>20.502701</ele>
<time>2010-08-29T10:23:30Z</time>
<desc>lat.=56.022724, lon.=26.538973, Alt.=20.502701m. Speed=0.180000m/h.</desc>
<speed>0.050000</speed>
</trkpt>
<trkpt lat="56.022724" lon="26.538973">
<ele>20.515396</ele>
<time>2010-08-29T10:23:31Z</time>
<desc>lat.=56.022724, lon.=26.538973, Alt.=20.515396m. Speed=0.324000m/h.</desc>
<speed>0.090000</speed>
</trkpt>
<trkpt lat="56.022724" lon="26.538969">
<ele>20.578384</ele>
<time>2010-08-29T10:23:32Z</time>
<desc>lat.=56.022724, lon.=26.538969, Alt.=20.578384m. Speed=0.324000m/h.</desc>
<speed>0.090000</speed>
</trkpt>
<trkpt lat="56.022724" lon="26.538967">
<ele>20.637955</ele>
<time>2010-08-29T10:23:33Z</time>
<desc>lat.=56.022724, lon.=26.538967, Alt.=20.637955m. Speed=0.144000m/h.</desc>
<speed>0.040000</speed>
</trkpt>
<trkpt lat="56.022724" lon="26.538965">
<ele>20.661880</ele>
<time>2010-08-29T10:23:34Z</time>
<desc>lat.=56.022724, lon.=26.538965, Alt.=20.661880m. Speed=0.144000m/h.</desc>
<speed>0.040000</speed>
</trkpt>
<trkpt lat="56.022724" lon="26.538965">
<ele>20.695572</ele>
<time>2010-08-29T10:23:35Z</time>
<desc>lat.=56.022724, lon.=26.538965, Alt.=20.695572m. Speed=0.072000m/h.</desc>
<speed>0.020000</speed>
</trkpt>
<trkpt lat="56.022724" lon="26.538965">
<ele>20.722916</ele>
<time>2010-08-29T10:23:36Z</time>
<desc>lat.=56.022724, lon.=26.538965, Alt.=20.722916m. Speed=0.108000m/h.</desc>
<speed>0.030000</speed>
</trkpt>
<trkpt lat="56.022724" lon="26.538965">
<ele>20.766373</ele>
<time>2010-08-29T10:23:37Z</time>
<desc>lat.=56.022724, lon.=26.538965, Alt.=20.766373m. Speed=0.612000m/h.</desc>
<speed>0.170000</speed>
</trkpt>
<trkpt lat="56.022724" lon="26.538963">
<ele>20.794693</ele>
<time>2010-08-29T10:23:38Z</time>
<desc>lat.=56.022724, lon.=26.538963, Alt.=20.794693m. Speed=0.720000m/h.</desc>
<speed>0.200000</speed>
</trkpt>
<trkpt lat="56.022728" lon="26.538961">
<ele>20.818130</ele>
<time>2010-08-29T10:23:39Z</time>
<desc>lat.=56.022728, lon.=26.538961, Alt.=20.818130m. Speed=1.224000m/h.</desc>
<speed>0.340000</speed>
</trkpt>
<trkpt lat="56.022724" lon="26.538933">
<ele>21.546158</ele>
<time>2010-08-29T10:23:40Z</time>
<desc>lat.=56.022724, lon.=26.538933, Alt.=21.546158m. Speed=1.188000m/h.</desc>
<speed>0.330000</speed>
</trkpt>
<trkpt lat="56.022724" lon="26.538912">
<ele>22.058365</ele>
<time>2010-08-29T10:23:41Z</time>
<desc>lat.=56.022724, lon.=26.538912, Alt.=22.058365m. Speed=1.044000m/h.</desc>
<speed>0.290000</speed>
</trkpt>
<trkpt lat="56.022724" lon="26.538910">
<ele>22.091080</ele>
<time>2010-08-29T10:23:42Z</time>
<desc>lat.=56.022724, lon.=26.538910, Alt.=22.091080m. Speed=1.368000m/h.</desc>
<speed>0.380000</speed>
</trkpt>
<trkpt lat="56.022728" lon="26.538904">
<ele>22.122818</ele>
<time>2010-08-29T10:23:43Z</time>
<desc>lat.=56.022728, lon.=26.538904, Alt.=22.122818m. Speed=1.044000m/h.</desc>
<speed>0.290000</speed>
</trkpt>
<trkpt lat="56.022743" lon="26.538834">
<ele>22.135025</ele>
<time>2010-08-29T10:23:44Z</time>
<desc>lat.=56.022743, lon.=26.538834, Alt.=22.135025m. Speed=0.900000m/h.</desc>
<speed>0.250000</speed>
</trkpt>
<trkpt lat="56.022743" lon="26.538828">
<ele>22.166763</ele>
<time>2010-08-29T10:23:45Z</time>
<desc>lat.=56.022743, lon.=26.538828, Alt.=22.166763m. Speed=1.908000m/h.</desc>
<speed>0.530000</speed>
</trkpt>
<trkpt lat="56.022720" lon="26.538544">
<ele>23.090591</ele>
<time>2010-08-29T10:23:46Z</time>
<desc>lat.=56.022720, lon.=26.538544, Alt.=23.090591m. Speed=2.232000m/h.</desc>
<speed>0.620000</speed>
</trkpt>
<trkpt lat="56.022694" lon="26.538385">
<ele>23.782974</ele>
<time>2010-08-29T10:23:47Z</time>
<desc>lat.=56.022694, lon.=26.538385, Alt.=23.782974m. Speed=1.620000m/h.</desc>
<speed>0.450000</speed>
</trkpt>
<trkpt lat="56.022694" lon="26.538380">
<ele>23.816666</ele>
<time>2010-08-29T10:23:48Z</time>
<desc>lat.=56.022694, lon.=26.538380, Alt.=23.816666m. Speed=1.224000m/h.</desc>
<speed>0.340000</speed>
</trkpt>
<trkpt lat="56.022675" lon="26.538300">
<ele>24.294693</ele>
<time>2010-08-29T10:23:49Z</time>
<desc>lat.=56.022675, lon.=26.538300, Alt.=24.294693m. Speed=1.044000m/h.</desc>
<speed>0.290000</speed>
</trkpt>
<trkpt lat="56.022667" lon="26.538273">
<ele>24.016373</ele>
<time>2010-08-29T10:23:50Z</time>
<desc>lat.=56.022667, lon.=26.538273, Alt.=24.016373m. Speed=1.044000m/h.</desc>
<speed>0.290000</speed>
</trkpt>
<trkpt lat="56.022655" lon="26.538248">
<ele>23.480240</ele>
<time>2010-08-29T10:23:51Z</time>
<desc>lat.=56.022655, lon.=26.538248, Alt.=23.480240m. Speed=1.044000m/h.</desc>
<speed>0.290000</speed>
</trkpt>
<trkpt lat="56.022648" lon="26.538221">
<ele>23.076431</ele>
<time>2010-08-29T10:23:52Z</time>
<desc>lat.=56.022648, lon.=26.538221, Alt.=23.076431m. Speed=0.972000m/h.</desc>
<speed>0.270000</speed>
</trkpt>
<trkpt lat="56.022648" lon="26.538218">
<ele>23.129166</ele>
<time>2010-08-29T10:23:53Z</time>
<desc>lat.=56.022648, lon.=26.538218, Alt.=23.129166m. Speed=1.044000m/h.</desc>
<speed>0.290000</speed>
</trkpt>
<trkpt lat="56.022648" lon="26.538212">
<ele>23.188736</ele>
<time>2010-08-29T10:23:54Z</time>
<desc>lat.=56.022648, lon.=26.538212, Alt.=23.188736m. Speed=0.900000m/h.</desc>
<speed>0.250000</speed>
</trkpt>
<trkpt lat="56.022644" lon="26.538208">
<ele>23.245865</ele>
<time>2010-08-29T10:23:55Z</time>
<desc>lat.=56.022644, lon.=26.538208, Alt.=23.245865m. Speed=0.756000m/h.</desc>
<speed>0.210000</speed>
</trkpt>
<trkpt lat="56.022644" lon="26.538204">
<ele>23.306900</ele>
<time>2010-08-29T10:23:56Z</time>
<desc>lat.=56.022644, lon.=26.538204, Alt.=23.306900m. Speed=0.720000m/h.</desc>
<speed>0.200000</speed>
</trkpt>
<trkpt lat="56.022644" lon="26.538198">
<ele>23.369400</ele>
<time>2010-08-29T10:23:57Z</time>
<desc>lat.=56.022644, lon.=26.538198, Alt.=23.369400m. Speed=1.188000m/h.</desc>
<speed>0.330000</speed>
</trkpt>
<trkpt lat="56.022621" lon="26.538025">
<ele>25.012466</ele>
<time>2010-08-29T10:23:58Z</time>
<desc>lat.=56.022621, lon.=26.538025, Alt.=25.012466m. Speed=2.232000m/h.</desc>
<speed>0.620000</speed>
</trkpt>
<trkpt lat="56.022633" lon="26.538010">
<ele>25.269302</ele>
<time>2010-08-29T10:23:59Z</time>
<desc>lat.=56.022633, lon.=26.538010, Alt.=25.269302m. Speed=2.880000m/h.</desc>
<speed>0.800000</speed>
</trkpt>
<trkpt lat="56.022648" lon="26.538012">
<ele>25.592545</ele>
<time>2010-08-29T10:24:00Z</time>
<desc>lat.=56.022648, lon.=26.538012, Alt.=25.592545m. Speed=2.844000m/h.</desc>
<speed>0.790000</speed>
</trkpt>
<trkpt lat="56.022648" lon="26.537973">
<ele>25.918228</ele>
<time>2010-08-29T10:24:01Z</time>
<desc>lat.=56.022648, lon.=26.537973, Alt.=25.918228m. Speed=3.312000m/h.</desc>
<speed>0.920000</speed>
</trkpt>
<trkpt lat="56.022652" lon="26.537939">
<ele>26.241959</ele>
<time>2010-08-29T10:24:02Z</time>
<desc>lat.=56.022652, lon.=26.537939, Alt.=26.241959m. Speed=4.680000m/h.</desc>
<speed>1.300000</speed>
</trkpt>
<trkpt lat="56.022655" lon="26.537889">
<ele>26.552017</ele>
<time>2010-08-29T10:24:03Z</time>
<desc>lat.=56.022655, lon.=26.537889, Alt.=26.552017m. Speed=6.048000m/h.</desc>
<speed>1.680000</speed>
</trkpt>
<trkpt lat="56.022659" lon="26.537832">
<ele>26.895279</ele>
<time>2010-08-29T10:24:04Z</time>
<desc>lat.=56.022659, lon.=26.537832, Alt.=26.895279m. Speed=9.180000m/h.</desc>
<speed>2.550000</speed>
</trkpt>
<trkpt lat="56.022663" lon="26.537781">
<ele>27.292252</ele>
<time>2010-08-29T10:24:05Z</time>
<desc>lat.=56.022663, lon.=26.537781, Alt.=27.292252m. Speed=9.540000m/h.</desc>
<speed>2.650000</speed>
</trkpt>
<trkpt lat="56.022663" lon="26.537733">
<ele>27.983170</ele>
<time>2010-08-29T10:24:06Z</time>
<desc>lat.=56.022663, lon.=26.537733, Alt.=27.983170m. Speed=8.388000m/h.</desc>
<speed>2.330000</speed>
</trkpt>
<trkpt lat="56.022659" lon="26.537670">
<ele>28.707779</ele>
<time>2010-08-29T10:24:07Z</time>
<desc>lat.=56.022659, lon.=26.537670, Alt.=28.707779m. Speed=8.784000m/h.</desc>
<speed>2.440000</speed>
</trkpt>
<trkpt lat="56.022667" lon="26.537636">
<ele>29.371841</ele>
<time>2010-08-29T10:24:08Z</time>
<desc>lat.=56.022667, lon.=26.537636, Alt.=29.371841m. Speed=8.028000m/h.</desc>
<speed>2.230000</speed>
</trkpt>
<trkpt lat="56.022663" lon="26.537584">
<ele>30.033463</ele>
<time>2010-08-29T10:24:09Z</time>
<desc>lat.=56.022663, lon.=26.537584, Alt.=30.033463m. Speed=6.768000m/h.</desc>
<speed>1.880000</speed>
</trkpt>
<trkpt lat="56.022655" lon="26.537523">
<ele>31.119400</ele>
<time>2010-08-29T10:24:10Z</time>
<desc>lat.=56.022655, lon.=26.537523, Alt.=31.119400m. Speed=8.748000m/h.</desc>
<speed>2.430000</speed>
</trkpt>
<trkpt lat="56.022655" lon="26.537453">
<ele>31.988541</ele>
<time>2010-08-29T10:24:11Z</time>
<desc>lat.=56.022655, lon.=26.537453, Alt.=31.988541m. Speed=11.304000m/h.</desc>
<speed>3.140000</speed>
</trkpt>
<trkpt lat="56.022652" lon="26.537394">
<ele>33.169464</ele>
<time>2010-08-29T10:24:12Z</time>
<desc>lat.=56.022652, lon.=26.537394, Alt.=33.169464m. Speed=11.556000m/h.</desc>
<speed>3.210000</speed>
</trkpt>
<trkpt lat="56.022667" lon="26.537333">
<ele>34.745636</ele>
<time>2010-08-29T10:24:13Z</time>
<desc>lat.=56.022667, lon.=26.537333, Alt.=34.745636m. Speed=12.816000m/h.</desc>
<speed>3.560000</speed>
</trkpt>
<trkpt lat="56.022667" lon="26.537275">
<ele>35.081573</ele>
<time>2010-08-29T10:24:14Z</time>
<desc>lat.=56.022667, lon.=26.537275, Alt.=35.081573m. Speed=11.340000m/h.</desc>
<speed>3.150000</speed>
</trkpt>
<trkpt lat="56.022655" lon="26.537174">
<ele>35.933136</ele>
<time>2010-08-29T10:24:15Z</time>
<desc>lat.=56.022655, lon.=26.537174, Alt.=35.933136m. Speed=8.280000m/h.</desc>
<speed>2.300000</speed>
</trkpt>
<trkpt lat="56.022648" lon="26.537081">
<ele>36.243683</ele>
<time>2010-08-29T10:24:16Z</time>
<desc>lat.=56.022648, lon.=26.537081, Alt.=36.243683m. Speed=10.800000m/h.</desc>
<speed>3.000000</speed>
</trkpt>
<trkpt lat="56.022648" lon="26.537031">
<ele>36.464386</ele>
<time>2010-08-29T10:24:17Z</time>
<desc>lat.=56.022648, lon.=26.537031, Alt.=36.464386m. Speed=10.836000m/h.</desc>
<speed>3.010000</speed>
</trkpt>
<trkpt lat="56.022644" lon="26.536983">
<ele>37.642120</ele>
<time>2010-08-29T10:24:18Z</time>
<desc>lat.=56.022644, lon.=26.536983, Alt.=37.642120m. Speed=11.196000m/h.</desc>
<speed>3.110000</speed>
</trkpt>
<trkpt lat="56.022633" lon="26.536905">
<ele>37.785675</ele>
<time>2010-08-29T10:24:19Z</time>
<desc>lat.=56.022633, lon.=26.536905, Alt.=37.785675m. Speed=10.332000m/h.</desc>
<speed>2.870000</speed>
</trkpt>
<trkpt lat="56.022617" lon="26.536816">
<ele>38.943878</ele>
<time>2010-08-29T10:24:20Z</time>
<desc>lat.=56.022617, lon.=26.536816, Alt.=38.943878m. Speed=10.980000m/h.</desc>
<speed>3.050000</speed>
</trkpt>
<trkpt lat="56.022606" lon="26.536749">
<ele>39.295441</ele>
<time>2010-08-29T10:24:21Z</time>
<desc>lat.=56.022606, lon.=26.536749, Alt.=39.295441m. Speed=12.240000m/h.</desc>
<speed>3.400000</speed>
</trkpt>
<trkpt lat="56.022591" lon="26.536669">
<ele>40.248566</ele>
<time>2010-08-29T10:24:22Z</time>
<desc>lat.=56.022591, lon.=26.536669, Alt.=40.248566m. Speed=10.548000m/h.</desc>
<speed>2.930000</speed>
</trkpt>
<trkpt lat="56.022587" lon="26.536623">
<ele>40.522980</ele>
<time>2010-08-29T10:24:23Z</time>
<desc>lat.=56.022587, lon.=26.536623, Alt.=40.522980m. Speed=12.060000m/h.</desc>
<speed>3.350000</speed>
</trkpt>
<trkpt lat="56.022541" lon="26.536362">
<ele>48.017120</ele>
<time>2010-08-29T10:24:24Z</time>
<desc>lat.=56.022541, lon.=26.536362, Alt.=48.017120m. Speed=13.212000m/h.</desc>
<speed>3.670000</speed>
</trkpt>
<trkpt lat="56.022514" lon="26.536190">
<ele>50.712433</ele>
<time>2010-08-29T10:24:25Z</time>
<desc>lat.=56.022514, lon.=26.536190, Alt.=50.712433m. Speed=15.408000m/h.</desc>
<speed>4.280000</speed>
</trkpt>
<trkpt lat="56.022495" lon="26.536077">
<ele>52.757355</ele>
<time>2010-08-29T10:24:26Z</time>
<desc>lat.=56.022495, lon.=26.536077, Alt.=52.757355m. Speed=16.920000m/h.</desc>
<speed>4.700000</speed>
</trkpt>
<trkpt lat="56.022461" lon="26.535799">
<ele>60.694855</ele>
<time>2010-08-29T10:24:27Z</time>
<desc>lat.=56.022461, lon.=26.535799, Alt.=60.694855m. Speed=16.308001m/h.</desc>
<speed>4.530000</speed>
</trkpt>
<trkpt lat="56.022449" lon="26.535707">
<ele>61.874542</ele>
<time>2010-08-29T10:24:28Z</time>
<desc>lat.=56.022449, lon.=26.535707, Alt.=61.874542m. Speed=18.216000m/h.</desc>
<speed>5.060000</speed>
</trkpt>
<trkpt lat="56.022419" lon="26.535587">
<ele>66.004944</ele>
<time>2010-08-29T10:24:29Z</time>
<desc>lat.=56.022419, lon.=26.535587, Alt.=66.004944m. Speed=19.115999m/h.</desc>
<speed>5.310000</speed>
</trkpt>
<trkpt lat="56.022373" lon="26.535433">
<ele>69.022522</ele>
<time>2010-08-29T10:24:30Z</time>
<desc>lat.=56.022373, lon.=26.535433, Alt.=69.022522m. Speed=21.024000m/h.</desc>
<speed>5.840000</speed>
</trkpt>
<trkpt lat="56.022343" lon="26.535339">
<ele>72.254944</ele>
<time>2010-08-29T10:24:31Z</time>
<desc>lat.=56.022343, lon.=26.535339, Alt.=72.254944m. Speed=20.700001m/h.</desc>
<speed>5.750000</speed>
</trkpt>
<trkpt lat="56.022320" lon="26.535248">
<ele>74.874084</ele>
<time>2010-08-29T10:24:32Z</time>
<desc>lat.=56.022320, lon.=26.535248, Alt.=74.874084m. Speed=18.900000m/h.</desc>
<speed>5.250000</speed>
</trkpt>
<trkpt lat="56.022312" lon="26.535156">
<ele>76.010803</ele>
<time>2010-08-29T10:24:33Z</time>
<desc>lat.=56.022312, lon.=26.535156, Alt.=76.010803m. Speed=17.532000m/h.</desc>
<speed>4.870000</speed>
</trkpt>
<trkpt lat="56.022297" lon="26.535070">
<ele>76.829163</ele>
<time>2010-08-29T10:24:34Z</time>
<desc>lat.=56.022297, lon.=26.535070, Alt.=76.829163m. Speed=20.232000m/h.</desc>
<speed>5.620000</speed>
</trkpt>
<trkpt lat="56.022266" lon="26.534986">
<ele>78.608459</ele>
<time>2010-08-29T10:24:35Z</time>
<desc>lat.=56.022266, lon.=26.534986, Alt.=78.608459m. Speed=18.719999m/h.</desc>
<speed>5.200000</speed>
</trkpt>
<trkpt lat="56.022236" lon="26.534904">
<ele>80.713928</ele>
<time>2010-08-29T10:24:36Z</time>
<desc>lat.=56.022236, lon.=26.534904, Alt.=80.713928m. Speed=18.576000m/h.</desc>
<speed>5.160000</speed>
</trkpt>
<trkpt lat="56.022205" lon="26.534828">
<ele>82.172913</ele>
<time>2010-08-29T10:24:37Z</time>
<desc>lat.=56.022205, lon.=26.534828, Alt.=82.172913m. Speed=16.308001m/h.</desc>
<speed>4.530000</speed>
</trkpt>
<trkpt lat="56.022175" lon="26.534750">
<ele>83.696350</ele>
<time>2010-08-29T10:24:38Z</time>
<desc>lat.=56.022175, lon.=26.534750, Alt.=83.696350m. Speed=13.392000m/h.</desc>
<speed>3.720000</speed>
</trkpt>
<trkpt lat="56.022152" lon="26.534683">
<ele>85.958069</ele>
<time>2010-08-29T10:24:39Z</time>
<desc>lat.=56.022152, lon.=26.534683, Alt.=85.958069m. Speed=11.736000m/h.</desc>
<speed>3.260000</speed>
</trkpt>
<trkpt lat="56.022133" lon="26.534618">
<ele>87.708069</ele>
<time>2010-08-29T10:24:40Z</time>
<desc>lat.=56.022133, lon.=26.534618, Alt.=87.708069m. Speed=10.152000m/h.</desc>
<speed>2.820000</speed>
</trkpt>
<trkpt lat="56.022118" lon="26.534573">
<ele>89.227600</ele>
<time>2010-08-29T10:24:41Z</time>
<desc>lat.=56.022118, lon.=26.534573, Alt.=89.227600m. Speed=8.496000m/h.</desc>
<speed>2.360000</speed>
</trkpt>
<trkpt lat="56.022095" lon="26.534483">
<ele>92.290100</ele>
<time>2010-08-29T10:24:42Z</time>
<desc>lat.=56.022095, lon.=26.534483, Alt.=92.290100m. Speed=9.684000m/h.</desc>
<speed>2.690000</speed>
</trkpt>
<trkpt lat="56.022076" lon="26.534424">
<ele>93.600647</ele>
<time>2010-08-29T10:24:43Z</time>
<desc>lat.=56.022076, lon.=26.534424, Alt.=93.600647m. Speed=11.592000m/h.</desc>
<speed>3.220000</speed>
</trkpt>
<trkpt lat="56.022053" lon="26.534355">
<ele>96.231506</ele>
<time>2010-08-29T10:24:44Z</time>
<desc>lat.=56.022053, lon.=26.534355, Alt.=96.231506m. Speed=11.412000m/h.</desc>
<speed>3.170000</speed>
</trkpt>
<trkpt lat="56.022026" lon="26.534298">
<ele>96.958069</ele>
<time>2010-08-29T10:24:45Z</time>
<desc>lat.=56.022026, lon.=26.534298, Alt.=96.958069m. Speed=14.040000m/h.</desc>
<speed>3.900000</speed>
</trkpt>
<trkpt lat="56.021992" lon="26.534227">
<ele>97.637756</ele>
<time>2010-08-29T10:24:46Z</time>
<desc>lat.=56.021992, lon.=26.534227, Alt.=97.637756m. Speed=14.760000m/h.</desc>
<speed>4.100000</speed>
</trkpt>
<trkpt lat="56.021969" lon="26.534166">
<ele>99.104553</ele>
<time>2010-08-29T10:24:47Z</time>
<desc>lat.=56.021969, lon.=26.534166, Alt.=99.104553m. Speed=13.464000m/h.</desc>
<speed>3.740000</speed>
</trkpt>
<trkpt lat="56.021946" lon="26.534109">
<ele>100.403381</ele>
<time>2010-08-29T10:24:48Z</time>
<desc>lat.=56.021946, lon.=26.534109, Alt.=100.403381m. Speed=13.140000m/h.</desc>
<speed>3.650000</speed>
</trkpt>
<trkpt lat="56.021923" lon="26.534046">
<ele>101.403381</ele>
<time>2010-08-29T10:24:49Z</time>
<desc>lat.=56.021923, lon.=26.534046, Alt.=101.403381m. Speed=13.536000m/h.</desc>
<speed>3.760000</speed>
</trkpt>
<trkpt lat="56.021893" lon="26.533972">
<ele>102.473694</ele>
<time>2010-08-29T10:24:50Z</time>
<desc>lat.=56.021893, lon.=26.533972, Alt.=102.473694m. Speed=14.940000m/h.</desc>
<speed>4.150000</speed>
</trkpt>
<trkpt lat="56.021873" lon="26.533907">
<ele>103.946350</ele>
<time>2010-08-29T10:24:51Z</time>
<desc>lat.=56.021873, lon.=26.533907, Alt.=103.946350m. Speed=13.572000m/h.</desc>
<speed>3.770000</speed>
</trkpt>
<trkpt lat="56.021866" lon="26.533854">
<ele>106.506897</ele>
<time>2010-08-29T10:24:52Z</time>
<desc>lat.=56.021866, lon.=26.533854, Alt.=106.506897m. Speed=9.648000m/h.</desc>
<speed>2.680000</speed>
</trkpt>
<trkpt lat="56.021862" lon="26.533808">
<ele>109.874084</ele>
<time>2010-08-29T10:24:53Z</time>
<desc>lat.=56.021862, lon.=26.533808, Alt.=109.874084m. Speed=6.264000m/h.</desc>
<speed>1.740000</speed>
</trkpt>
<trkpt lat="56.021843" lon="26.533804">
<ele>109.891663</ele>
<time>2010-08-29T10:24:54Z</time>
<desc>lat.=56.021843, lon.=26.533804, Alt.=109.891663m. Speed=6.840000m/h.</desc>
<speed>1.900000</speed>
</trkpt>
<trkpt lat="56.021816" lon="26.533745">
<ele>110.981506</ele>
<time>2010-08-29T10:24:55Z</time>
<desc>lat.=56.021816, lon.=26.533745, Alt.=110.981506m. Speed=12.276000m/h.</desc>
<speed>3.410000</speed>
</trkpt>
<trkpt lat="56.021797" lon="26.533667">
<ele>114.010803</ele>
<time>2010-08-29T10:24:56Z</time>
<desc>lat.=56.021797, lon.=26.533667, Alt.=114.010803m. Speed=13.032000m/h.</desc>
<speed>3.620000</speed>
</trkpt>
<trkpt lat="56.021782" lon="26.533585">
<ele>116.686584</ele>
<time>2010-08-29T10:24:57Z</time>
<desc>lat.=56.021782, lon.=26.533585, Alt.=116.686584m. Speed=12.204000m/h.</desc>
<speed>3.390000</speed>
</trkpt>
<trkpt lat="56.021774" lon="26.533527">
<ele>119.245178</ele>
<time>2010-08-29T10:24:58Z</time>
<desc>lat.=56.021774, lon.=26.533527, Alt.=119.245178m. Speed=9.648000m/h.</desc>
<speed>2.680000</speed>
</trkpt>
<trkpt lat="56.021755" lon="26.533466">
<ele>121.756897</ele>
<time>2010-08-29T10:24:59Z</time>
<desc>lat.=56.021755, lon.=26.533466, Alt.=121.756897m. Speed=10.764000m/h.</desc>
<speed>2.990000</speed>
</trkpt>
<trkpt lat="56.021732" lon="26.533419">
<ele>124.688538</ele>
<time>2010-08-29T10:25:00Z</time>
<desc>lat.=56.021732, lon.=26.533419, Alt.=124.688538m. Speed=10.332000m/h.</desc>
<speed>2.870000</speed>
</trkpt>
<trkpt lat="56.021721" lon="26.533356">
<ele>127.663147</ele>
<time>2010-08-29T10:25:01Z</time>
<desc>lat.=56.021721, lon.=26.533356, Alt.=127.663147m. Speed=10.404000m/h.</desc>
<speed>2.890000</speed>
</trkpt>
<trkpt lat="56.021702" lon="26.533323">
<ele>129.627075</ele>
<time>2010-08-29T10:25:02Z</time>
<desc>lat.=56.021702, lon.=26.533323, Alt.=129.627075m. Speed=6.336000m/h.</desc>
<speed>1.760000</speed>
</trkpt>
<trkpt lat="56.021667" lon="26.533306">
<ele>127.917053</ele>
<time>2010-08-29T10:25:03Z</time>
<desc>lat.=56.021667, lon.=26.533306, Alt.=127.917053m. Speed=9.684000m/h.</desc>
<speed>2.690000</speed>
</trkpt>
<trkpt lat="56.021648" lon="26.533276">
<ele>129.361450</ele>
<time>2010-08-29T10:25:04Z</time>
<desc>lat.=56.021648, lon.=26.533276, Alt.=129.361450m. Speed=9.252000m/h.</desc>
<speed>2.570000</speed>
</trkpt>
<trkpt lat="56.021629" lon="26.533245">
<ele>130.607544</ele>
<time>2010-08-29T10:25:05Z</time>
<desc>lat.=56.021629, lon.=26.533245, Alt.=130.607544m. Speed=8.028000m/h.</desc>
<speed>2.230000</speed>
</trkpt>
<trkpt lat="56.021614" lon="26.533216">
<ele>132.349731</ele>
<time>2010-08-29T10:25:06Z</time>
<desc>lat.=56.021614, lon.=26.533216, Alt.=132.349731m. Speed=6.588000m/h.</desc>
<speed>1.830000</speed>
</trkpt>
<trkpt lat="56.021603" lon="26.533188">
<ele>134.255981</ele>
<time>2010-08-29T10:25:07Z</time>
<desc>lat.=56.021603, lon.=26.533188, Alt.=134.255981m. Speed=4.716000m/h.</desc>
<speed>1.310000</speed>
</trkpt>
<trkpt lat="56.021591" lon="26.533176">
<ele>134.201294</ele>
<time>2010-08-29T10:25:08Z</time>
<desc>lat.=56.021591, lon.=26.533176, Alt.=134.201294m. Speed=3.204000m/h.</desc>
<speed>0.890000</speed>
</trkpt>
<trkpt lat="56.021584" lon="26.533150">
<ele>135.486450</ele>
<time>2010-08-29T10:25:09Z</time>
<desc>lat.=56.021584, lon.=26.533150, Alt.=135.486450m. Speed=5.400000m/h.</desc>
<speed>1.500000</speed>
</trkpt>
<trkpt lat="56.021564" lon="26.533112">
<ele>135.666138</ele>
<time>2010-08-29T10:25:10Z</time>
<desc>lat.=56.021564, lon.=26.533112, Alt.=135.666138m. Speed=6.912000m/h.</desc>
<speed>1.920000</speed>
</trkpt>
<trkpt lat="56.021545" lon="26.533070">
<ele>136.849731</ele>
<time>2010-08-29T10:25:11Z</time>
<desc>lat.=56.021545, lon.=26.533070, Alt.=136.849731m. Speed=6.984000m/h.</desc>
<speed>1.940000</speed>
</trkpt>
<trkpt lat="56.021534" lon="26.533026">
<ele>137.947388</ele>
<time>2010-08-29T10:25:12Z</time>
<desc>lat.=56.021534, lon.=26.533026, Alt.=137.947388m. Speed=7.884000m/h.</desc>
<speed>2.190000</speed>
</trkpt>
<trkpt lat="56.021519" lon="26.532980">
<ele>139.115356</ele>
<time>2010-08-29T10:25:13Z</time>
<desc>lat.=56.021519, lon.=26.532980, Alt.=139.115356m. Speed=11.880000m/h.</desc>
<speed>3.300000</speed>
</trkpt>
<trkpt lat="56.021496" lon="26.532938">
<ele>140.611450</ele>
<time>2010-08-29T10:25:14Z</time>
<desc>lat.=56.021496, lon.=26.532938, Alt.=140.611450m. Speed=10.944000m/h.</desc>
<speed>3.040000</speed>
</trkpt>
<trkpt lat="56.021473" lon="26.532896">
<ele>142.240356</ele>
<time>2010-08-29T10:25:15Z</time>
<desc>lat.=56.021473, lon.=26.532896, Alt.=142.240356m. Speed=8.352000m/h.</desc>
<speed>2.320000</speed>
</trkpt>
<trkpt lat="56.021450" lon="26.532864">
<ele>143.716919</ele>
<time>2010-08-29T10:25:16Z</time>
<desc>lat.=56.021450, lon.=26.532864, Alt.=143.716919m. Speed=6.408000m/h.</desc>
<speed>1.780000</speed>
</trkpt>
<trkpt lat="56.021431" lon="26.532825">
<ele>143.361450</ele>
<time>2010-08-29T10:25:17Z</time>
<desc>lat.=56.021431, lon.=26.532825, Alt.=143.361450m. Speed=6.444000m/h.</desc>
<speed>1.790000</speed>
</trkpt>
<trkpt lat="56.021397" lon="26.532795">
<ele>145.088013</ele>
<time>2010-08-29T10:25:18Z</time>
<desc>lat.=56.021397, lon.=26.532795, Alt.=145.088013m. Speed=6.984000m/h.</desc>
<speed>1.940000</speed>
</trkpt>
<trkpt lat="56.021370" lon="26.532778">
<ele>146.150513</ele>
<time>2010-08-29T10:25:19Z</time>
<desc>lat.=56.021370, lon.=26.532778, Alt.=146.150513m. Speed=8.496000m/h.</desc>
<speed>2.360000</speed>
</trkpt>
<trkpt lat="56.021351" lon="26.532755">
<ele>147.298950</ele>
<time>2010-08-29T10:25:20Z</time>
<desc>lat.=56.021351, lon.=26.532755, Alt.=147.298950m. Speed=5.292000m/h.</desc>
<speed>1.470000</speed>
</trkpt>
<trkpt lat="56.021328" lon="26.532732">
<ele>148.130981</ele>
<time>2010-08-29T10:25:21Z</time>
<desc>lat.=56.021328, lon.=26.532732, Alt.=148.130981m. Speed=8.568000m/h.</desc>
<speed>2.380000</speed>
</trkpt>
<trkpt lat="56.021301" lon="26.532703">
<ele>148.830200</ele>
<time>2010-08-29T10:25:22Z</time>
<desc>lat.=56.021301, lon.=26.532703, Alt.=148.830200m. Speed=8.532000m/h.</desc>
<speed>2.370000</speed>
</trkpt>
<trkpt lat="56.021278" lon="26.532671">
<ele>149.509888</ele>
<time>2010-08-29T10:25:23Z</time>
<desc>lat.=56.021278, lon.=26.532671, Alt.=149.509888m. Speed=8.712000m/h.</desc>
<speed>2.420000</speed>
</trkpt>
<trkpt lat="56.021252" lon="26.532646">
<ele>150.037231</ele>
<time>2010-08-29T10:25:24Z</time>
<desc>lat.=56.021252, lon.=26.532646, Alt.=150.037231m. Speed=7.488000m/h.</desc>
<speed>2.080000</speed>
</trkpt>
<trkpt lat="56.021206" lon="26.532608">
<ele>149.783325</ele>
<time>2010-08-29T10:25:25Z</time>
<desc>lat.=56.021206, lon.=26.532608, Alt.=149.783325m. Speed=10.728000m/h.</desc>
<speed>2.980000</speed>
</trkpt>
<trkpt lat="56.021156" lon="26.532576">
<ele>150.232544</ele>
<time>2010-08-29T10:25:26Z</time>
<desc>lat.=56.021156, lon.=26.532576, Alt.=150.232544m. Speed=13.248000m/h.</desc>
<speed>3.680000</speed>
</trkpt>
<trkpt lat="56.021103" lon="26.532532">
<ele>150.482544</ele>
<time>2010-08-29T10:25:27Z</time>
<desc>lat.=56.021103, lon.=26.532532, Alt.=150.482544m. Speed=12.420000m/h.</desc>
<speed>3.450000</speed>
</trkpt>
<trkpt lat="56.021049" lon="26.532492">
<ele>150.607544</ele>
<time>2010-08-29T10:25:28Z</time>
<desc>lat.=56.021049, lon.=26.532492, Alt.=150.607544m. Speed=12.924000m/h.</desc>
<speed>3.590000</speed>
</trkpt>
<trkpt lat="56.021023" lon="26.532469">
<ele>151.564575</ele>
<time>2010-08-29T10:25:29Z</time>
<desc>lat.=56.021023, lon.=26.532469, Alt.=151.564575m. Speed=13.716000m/h.</desc>
<speed>3.810000</speed>
</trkpt>
<trkpt lat="56.020962" lon="26.532442">
<ele>152.392700</ele>
<time>2010-08-29T10:25:30Z</time>
<desc>lat.=56.020962, lon.=26.532442, Alt.=152.392700m. Speed=16.667999m/h.</desc>
<speed>4.630000</speed>
</trkpt>
<trkpt lat="56.020912" lon="26.532410">
<ele>153.138794</ele>
<time>2010-08-29T10:25:31Z</time>
<desc>lat.=56.020912, lon.=26.532410, Alt.=153.138794m. Speed=16.308001m/h.</desc>
<speed>4.530000</speed>
</trkpt>
<trkpt lat="56.020855" lon="26.532385">
<ele>154.048950</ele>
<time>2010-08-29T10:25:32Z</time>
<desc>lat.=56.020855, lon.=26.532385, Alt.=154.048950m. Speed=16.164000m/h.</desc>
<speed>4.490000</speed>
</trkpt>
<trkpt lat="56.020817" lon="26.532373">
<ele>154.908325</ele>
<time>2010-08-29T10:25:33Z</time>
<desc>lat.=56.020817, lon.=26.532373, Alt.=154.908325m. Speed=13.392000m/h.</desc>
<speed>3.720000</speed>
</trkpt>
<trkpt lat="56.020771" lon="26.532347">
<ele>155.275513</ele>
<time>2010-08-29T10:25:34Z</time>
<desc>lat.=56.020771, lon.=26.532347, Alt.=155.275513m. Speed=11.052000m/h.</desc>
<speed>3.070000</speed>
</trkpt>
<trkpt lat="56.020718" lon="26.532320">
<ele>156.525513</ele>
<time>2010-08-29T10:25:35Z</time>
<desc>lat.=56.020718, lon.=26.532320, Alt.=156.525513m. Speed=10.548000m/h.</desc>
<speed>2.930000</speed>
</trkpt>
<trkpt lat="56.020691" lon="26.532312">
<ele>157.478638</ele>
<time>2010-08-29T10:25:36Z</time>
<desc>lat.=56.020691, lon.=26.532312, Alt.=157.478638m. Speed=10.944000m/h.</desc>
<speed>3.040000</speed>
</trkpt>
<trkpt lat="56.020664" lon="26.532301">
<ele>158.478638</ele>
<time>2010-08-29T10:25:37Z</time>
<desc>lat.=56.020664, lon.=26.532301, Alt.=158.478638m. Speed=11.052000m/h.</desc>
<speed>3.070000</speed>
</trkpt>
<trkpt lat="56.020615" lon="26.532248">
<ele>159.580200</ele>
<time>2010-08-29T10:25:38Z</time>
<desc>lat.=56.020615, lon.=26.532248, Alt.=159.580200m. Speed=12.636000m/h.</desc>
<speed>3.510000</speed>
</trkpt>
<trkpt lat="56.020580" lon="26.532194">
<ele>160.541138</ele>
<time>2010-08-29T10:25:39Z</time>
<desc>lat.=56.020580, lon.=26.532194, Alt.=160.541138m. Speed=12.456000m/h.</desc>
<speed>3.460000</speed>
</trkpt>
<trkpt lat="56.020550" lon="26.532143">
<ele>161.912231</ele>
<time>2010-08-29T10:25:40Z</time>
<desc>lat.=56.020550, lon.=26.532143, Alt.=161.912231m. Speed=10.728000m/h.</desc>
<speed>2.980000</speed>
</trkpt>
<trkpt lat="56.020519" lon="26.532080">
<ele>162.572388</ele>
<time>2010-08-29T10:25:41Z</time>
<desc>lat.=56.020519, lon.=26.532080, Alt.=162.572388m. Speed=13.320000m/h.</desc>
<speed>3.700000</speed>
</trkpt>
<trkpt lat="56.020493" lon="26.532024">
<ele>162.615356</ele>
<time>2010-08-29T10:25:42Z</time>
<desc>lat.=56.020493, lon.=26.532024, Alt.=162.615356m. Speed=12.492000m/h.</desc>
<speed>3.470000</speed>
</trkpt>
<trkpt lat="56.020462" lon="26.531960">
<ele>163.013794</ele>
<time>2010-08-29T10:25:43Z</time>
<desc>lat.=56.020462, lon.=26.531960, Alt.=163.013794m. Speed=16.236000m/h.</desc>
<speed>4.510000</speed>
</trkpt>
<trkpt lat="56.020439" lon="26.531898">
<ele>163.580200</ele>
<time>2010-08-29T10:25:44Z</time>
<desc>lat.=56.020439, lon.=26.531898, Alt.=163.580200m. Speed=14.400000m/h.</desc>
<speed>4.000000</speed>
</trkpt>
<trkpt lat="56.020409" lon="26.531843">
<ele>165.037231</ele>
<time>2010-08-29T10:25:45Z</time>
<desc>lat.=56.020409, lon.=26.531843, Alt.=165.037231m. Speed=10.800000m/h.</desc>
<speed>3.000000</speed>
</trkpt>
<trkpt lat="56.020390" lon="26.531796">
<ele>166.314575</ele>
<time>2010-08-29T10:25:46Z</time>
<desc>lat.=56.020390, lon.=26.531796, Alt.=166.314575m. Speed=7.668000m/h.</desc>
<speed>2.130000</speed>
</trkpt>
<trkpt lat="56.020382" lon="26.531765">
<ele>166.466919</ele>
<time>2010-08-29T10:25:47Z</time>
<desc>lat.=56.020382, lon.=26.531765, Alt.=166.466919m. Speed=9.108000m/h.</desc>
<speed>2.530000</speed>
</trkpt>
<trkpt lat="56.020370" lon="26.531754">
<ele>164.400513</ele>
<time>2010-08-29T10:25:48Z</time>
<desc>lat.=56.020370, lon.=26.531754, Alt.=164.400513m. Speed=5.940000m/h.</desc>
<speed>1.650000</speed>
</trkpt>
<trkpt lat="56.020363" lon="26.531734">
<ele>165.173950</ele>
<time>2010-08-29T10:25:49Z</time>
<desc>lat.=56.020363, lon.=26.531734, Alt.=165.173950m. Speed=5.868000m/h.</desc>
<speed>1.630000</speed>
</trkpt>
<trkpt lat="56.020363" lon="26.531712">
<ele>166.380981</ele>
<time>2010-08-29T10:25:50Z</time>
<desc>lat.=56.020363, lon.=26.531712, Alt.=166.380981m. Speed=4.176000m/h.</desc>
<speed>1.160000</speed>
</trkpt>
<trkpt lat="56.020359" lon="26.531675">
<ele>166.759888</ele>
<time>2010-08-29T10:25:51Z</time>
<desc>lat.=56.020359, lon.=26.531675, Alt.=166.759888m. Speed=5.904000m/h.</desc>
<speed>1.640000</speed>
</trkpt>
<trkpt lat="56.020348" lon="26.531641">
<ele>166.591919</ele>
<time>2010-08-29T10:25:52Z</time>
<desc>lat.=56.020348, lon.=26.531641, Alt.=166.591919m. Speed=4.932000m/h.</desc>
<speed>1.370000</speed>
</trkpt>
<trkpt lat="56.020325" lon="26.531595">
<ele>165.603638</ele>
<time>2010-08-29T10:25:53Z</time>
<desc>lat.=56.020325, lon.=26.531595, Alt.=165.603638m. Speed=4.392000m/h.</desc>
<speed>1.220000</speed>
</trkpt>
<trkpt lat="56.020317" lon="26.531567">
<ele>165.705200</ele>
<time>2010-08-29T10:25:54Z</time>
<desc>lat.=56.020317, lon.=26.531567, Alt.=165.705200m. Speed=2.664000m/h.</desc>
<speed>0.740000</speed>
</trkpt>
<trkpt lat="56.020309" lon="26.531540">
<ele>165.798950</ele>
<time>2010-08-29T10:25:55Z</time>
<desc>lat.=56.020309, lon.=26.531540, Alt.=165.798950m. Speed=2.808000m/h.</desc>
<speed>0.780000</speed>
</trkpt>
<trkpt lat="56.020298" lon="26.531506">
<ele>166.052856</ele>
<time>2010-08-29T10:25:56Z</time>
<desc>lat.=56.020298, lon.=26.531506, Alt.=166.052856m. Speed=3.780000m/h.</desc>
<speed>1.050000</speed>
</trkpt>
<trkpt lat="56.020256" lon="26.531437">
<ele>164.884888</ele>
<time>2010-08-29T10:25:57Z</time>
<desc>lat.=56.020256, lon.=26.531437, Alt.=164.884888m. Speed=4.680000m/h.</desc>
<speed>1.300000</speed>
</trkpt>
<trkpt lat="56.020248" lon="26.531393">
<ele>164.377075</ele>
<time>2010-08-29T10:25:58Z</time>
<desc>lat.=56.020248, lon.=26.531393, Alt.=164.377075m. Speed=5.436000m/h.</desc>
<speed>1.510000</speed>
</trkpt>
<trkpt lat="56.020245" lon="26.531370">
<ele>164.685669</ele>
<time>2010-08-29T10:25:59Z</time>
<desc>lat.=56.020245, lon.=26.531370, Alt.=164.685669m. Speed=4.680000m/h.</desc>
<speed>1.300000</speed>
</trkpt>
<trkpt lat="56.020245" lon="26.531351">
<ele>165.002075</ele>
<time>2010-08-29T10:26:00Z</time>
<desc>lat.=56.020245, lon.=26.531351, Alt.=165.002075m. Speed=3.852000m/h.</desc>
<speed>1.070000</speed>
</trkpt>
<trkpt lat="56.020241" lon="26.531326">
<ele>165.373169</ele>
<time>2010-08-29T10:26:01Z</time>
<desc>lat.=56.020241, lon.=26.531326, Alt.=165.373169m. Speed=5.868000m/h.</desc>
<speed>1.630000</speed>
</trkpt>
<trkpt lat="56.020229" lon="26.531298">
<ele>165.873169</ele>
<time>2010-08-29T10:26:02Z</time>
<desc>lat.=56.020229, lon.=26.531298, Alt.=165.873169m. Speed=4.104000m/h.</desc>
<speed>1.140000</speed>
</trkpt>
<trkpt lat="56.020222" lon="26.531273">
<ele>166.181763</ele>
<time>2010-08-29T10:26:03Z</time>
<desc>lat.=56.020222, lon.=26.531273, Alt.=166.181763m. Speed=5.040000m/h.</desc>
<speed>1.400000</speed>
</trkpt>
<trkpt lat="56.020214" lon="26.531246">
<ele>166.599731</ele>
<time>2010-08-29T10:26:04Z</time>
<desc>lat.=56.020214, lon.=26.531246, Alt.=166.599731m. Speed=5.940000m/h.</desc>
<speed>1.650000</speed>
</trkpt>
<trkpt lat="56.020206" lon="26.531216">
<ele>166.935669</ele>
<time>2010-08-29T10:26:05Z</time>
<desc>lat.=56.020206, lon.=26.531216, Alt.=166.935669m. Speed=5.112000m/h.</desc>
<speed>1.420000</speed>
</trkpt>
<trkpt lat="56.020203" lon="26.531179">
<ele>166.959106</ele>
<time>2010-08-29T10:26:06Z</time>
<desc>lat.=56.020203, lon.=26.531179, Alt.=166.959106m. Speed=6.084000m/h.</desc>
<speed>1.690000</speed>
</trkpt>
<trkpt lat="56.020199" lon="26.531149">
<ele>167.291138</ele>
<time>2010-08-29T10:26:07Z</time>
<desc>lat.=56.020199, lon.=26.531149, Alt.=167.291138m. Speed=7.092000m/h.</desc>
<speed>1.970000</speed>
</trkpt>
<trkpt lat="56.020191" lon="26.531113">
<ele>167.759888</ele>
<time>2010-08-29T10:26:08Z</time>
<desc>lat.=56.020191, lon.=26.531113, Alt.=167.759888m. Speed=7.776000m/h.</desc>
<speed>2.160000</speed>
</trkpt>
<trkpt lat="56.020180" lon="26.531054">
<ele>168.048950</ele>
<time>2010-08-29T10:26:09Z</time>
<desc>lat.=56.020180, lon.=26.531054, Alt.=168.048950m. Speed=9.180000m/h.</desc>
<speed>2.550000</speed>
</trkpt>
<trkpt lat="56.020172" lon="26.531010">
<ele>168.779419</ele>
<time>2010-08-29T10:26:10Z</time>
<desc>lat.=56.020172, lon.=26.531010, Alt.=168.779419m. Speed=10.188000m/h.</desc>
<speed>2.830000</speed>
</trkpt>
<trkpt lat="56.020161" lon="26.530931">
<ele>168.939575</ele>
<time>2010-08-29T10:26:11Z</time>
<desc>lat.=56.020161, lon.=26.530931, Alt.=168.939575m. Speed=10.440000m/h.</desc>
<speed>2.900000</speed>
</trkpt>
<trkpt lat="56.020149" lon="26.530859">
<ele>169.048950</ele>
<time>2010-08-29T10:26:12Z</time>
<desc>lat.=56.020149, lon.=26.530859, Alt.=169.048950m. Speed=14.544000m/h.</desc>
<speed>4.040000</speed>
</trkpt>
<trkpt lat="56.020149" lon="26.530693">
<ele>166.322388</ele>
<time>2010-08-29T10:26:13Z</time>
<desc>lat.=56.020149, lon.=26.530693, Alt.=166.322388m. Speed=14.508000m/h.</desc>
<speed>4.030000</speed>
</trkpt>
<trkpt lat="56.020153" lon="26.530628">
<ele>167.134888</ele>
<time>2010-08-29T10:26:14Z</time>
<desc>lat.=56.020153, lon.=26.530628, Alt.=167.134888m. Speed=13.680000m/h.</desc>
<speed>3.800000</speed>
</trkpt>
<trkpt lat="56.020157" lon="26.530567">
<ele>168.072388</ele>
<time>2010-08-29T10:26:15Z</time>
<desc>lat.=56.020157, lon.=26.530567, Alt.=168.072388m. Speed=13.284000m/h.</desc>
<speed>3.690000</speed>
</trkpt>
<trkpt lat="56.020050" lon="26.530296">
<ele>172.974731</ele>
<time>2010-08-29T10:26:16Z</time>
<desc>lat.=56.020050, lon.=26.530296, Alt.=172.974731m. Speed=13.932000m/h.</desc>
<speed>3.870000</speed>
</trkpt>
<trkpt lat="56.020046" lon="26.530233">
<ele>173.666138</ele>
<time>2010-08-29T10:26:17Z</time>
<desc>lat.=56.020046, lon.=26.530233, Alt.=173.666138m. Speed=14.364000m/h.</desc>
<speed>3.990000</speed>
</trkpt>
<trkpt lat="56.020050" lon="26.530170">
<ele>174.423950</ele>
<time>2010-08-29T10:26:18Z</time>
<desc>lat.=56.020050, lon.=26.530170, Alt.=174.423950m. Speed=13.644000m/h.</desc>
<speed>3.790000</speed>
</trkpt>
<trkpt lat="56.020058" lon="26.530111">
<ele>175.216919</ele>
<time>2010-08-29T10:26:19Z</time>
<desc>lat.=56.020058, lon.=26.530111, Alt.=175.216919m. Speed=12.348000m/h.</desc>
<speed>3.430000</speed>
</trkpt>
<trkpt lat="56.020065" lon="26.530058">
<ele>176.005981</ele>
<time>2010-08-29T10:26:20Z</time>
<desc>lat.=56.020065, lon.=26.530058, Alt.=176.005981m. Speed=11.772000m/h.</desc>
<speed>3.270000</speed>
</trkpt>
<trkpt lat="56.020073" lon="26.529974">
<ele>177.244263</ele>
<time>2010-08-29T10:26:21Z</time>
<desc>lat.=56.020073, lon.=26.529974, Alt.=177.244263m. Speed=10.944000m/h.</desc>
<speed>3.040000</speed>
</trkpt>
<trkpt lat="56.020073" lon="26.529894">
<ele>179.107544</ele>
<time>2010-08-29T10:26:22Z</time>
<desc>lat.=56.020073, lon.=26.529894, Alt.=179.107544m. Speed=10.692000m/h.</desc>
<speed>2.970000</speed>
</trkpt>
<trkpt lat="56.020073" lon="26.529829">
<ele>179.103638</ele>
<time>2010-08-29T10:26:23Z</time>
<desc>lat.=56.020073, lon.=26.529829, Alt.=179.103638m. Speed=10.260000m/h.</desc>
<speed>2.850000</speed>
</trkpt>
<trkpt lat="56.019997" lon="26.529650">
<ele>166.869263</ele>
<time>2010-08-29T10:26:24Z</time>
<desc>lat.=56.019997, lon.=26.529650, Alt.=166.869263m. Speed=10.764000m/h.</desc>
<speed>2.990000</speed>
</trkpt>
<trkpt lat="56.019993" lon="26.529579">
<ele>166.736450</ele>
<time>2010-08-29T10:26:25Z</time>
<desc>lat.=56.019993, lon.=26.529579, Alt.=166.736450m. Speed=11.340000m/h.</desc>
<speed>3.150000</speed>
</trkpt>
<trkpt lat="56.019985" lon="26.529514">
<ele>167.916138</ele>
<time>2010-08-29T10:26:26Z</time>
<desc>lat.=56.019985, lon.=26.529514, Alt.=167.916138m. Speed=10.332000m/h.</desc>
<speed>2.870000</speed>
</trkpt>
<trkpt lat="56.019981" lon="26.529461">
<ele>167.841919</ele>
<time>2010-08-29T10:26:27Z</time>
<desc>lat.=56.019981, lon.=26.529461, Alt.=167.841919m. Speed=9.072000m/h.</desc>
<speed>2.520000</speed>
</trkpt>
<trkpt lat="56.019966" lon="26.529392">
<ele>166.002075</ele>
<time>2010-08-29T10:26:28Z</time>
<desc>lat.=56.019966, lon.=26.529392, Alt.=166.002075m. Speed=7.812000m/h.</desc>
<speed>2.170000</speed>
</trkpt>
<trkpt lat="56.019962" lon="26.529345">
<ele>165.681763</ele>
<time>2010-08-29T10:26:29Z</time>
<desc>lat.=56.019962, lon.=26.529345, Alt.=165.681763m. Speed=7.452000m/h.</desc>
<speed>2.070000</speed>
</trkpt>
<trkpt lat="56.019962" lon="26.529308">
<ele>166.576294</ele>
<time>2010-08-29T10:26:30Z</time>
<desc>lat.=56.019962, lon.=26.529308, Alt.=166.576294m. Speed=7.200000m/h.</desc>
<speed>2.000000</speed>
</trkpt>
<trkpt lat="56.019958" lon="26.529272">
<ele>166.681763</ele>
<time>2010-08-29T10:26:31Z</time>
<desc>lat.=56.019958, lon.=26.529272, Alt.=166.681763m. Speed=6.480000m/h.</desc>
<speed>1.800000</speed>
</trkpt>
<trkpt lat="56.019955" lon="26.529221">
<ele>165.408325</ele>
<time>2010-08-29T10:26:32Z</time>
<desc>lat.=56.019955, lon.=26.529221, Alt.=165.408325m. Speed=8.496000m/h.</desc>
<speed>2.360000</speed>
</trkpt>
<trkpt lat="56.019955" lon="26.529173">
<ele>164.689575</ele>
<time>2010-08-29T10:26:33Z</time>
<desc>lat.=56.019955, lon.=26.529173, Alt.=164.689575m. Speed=8.892000m/h.</desc>
<speed>2.470000</speed>
</trkpt>
<trkpt lat="56.019852" lon="26.528984">
<ele>144.908325</ele>
<time>2010-08-29T10:26:34Z</time>
<desc>lat.=56.019852, lon.=26.528984, Alt.=144.908325m. Speed=10.224000m/h.</desc>
<speed>2.840000</speed>
</trkpt>
<trkpt lat="56.019836" lon="26.528904">
<ele>139.912231</ele>
<time>2010-08-29T10:26:35Z</time>
<desc>lat.=56.019836, lon.=26.528904, Alt.=139.912231m. Speed=10.224000m/h.</desc>
<speed>2.840000</speed>
</trkpt>
<trkpt lat="56.019806" lon="26.528812">
<ele>134.193481</ele>
<time>2010-08-29T10:26:36Z</time>
<desc>lat.=56.019806, lon.=26.528812, Alt.=134.193481m. Speed=9.900000m/h.</desc>
<speed>2.750000</speed>
</trkpt>
<trkpt lat="56.019798" lon="26.528749">
<ele>130.834106</ele>
<time>2010-08-29T10:26:37Z</time>
<desc>lat.=56.019798, lon.=26.528749, Alt.=130.834106m. Speed=9.000000m/h.</desc>
<speed>2.500000</speed>
</trkpt>
<trkpt lat="56.019794" lon="26.528700">
<ele>130.189575</ele>
<time>2010-08-29T10:26:38Z</time>
<desc>lat.=56.019794, lon.=26.528700, Alt.=130.189575m. Speed=8.172000m/h.</desc>
<speed>2.270000</speed>
</trkpt>
<trkpt lat="56.019794" lon="26.528658">
<ele>130.408325</ele>
<time>2010-08-29T10:26:39Z</time>
<desc>lat.=56.019794, lon.=26.528658, Alt.=130.408325m. Speed=6.120000m/h.</desc>
<speed>1.700000</speed>
</trkpt>
<trkpt lat="56.019791" lon="26.528624">
<ele>130.752075</ele>
<time>2010-08-29T10:26:40Z</time>
<desc>lat.=56.019791, lon.=26.528624, Alt.=130.752075m. Speed=7.272000m/h.</desc>
<speed>2.020000</speed>
</trkpt>
<trkpt lat="56.019783" lon="26.528561">
<ele>130.459106</ele>
<time>2010-08-29T10:26:41Z</time>
<desc>lat.=56.019783, lon.=26.528561, Alt.=130.459106m. Speed=8.568000m/h.</desc>
<speed>2.380000</speed>
</trkpt>
<trkpt lat="56.019787" lon="26.528505">
<ele>129.099731</ele>
<time>2010-08-29T10:26:42Z</time>
<desc>lat.=56.019787, lon.=26.528505, Alt.=129.099731m. Speed=11.196000m/h.</desc>
<speed>3.110000</speed>
</trkpt>
<trkpt lat="56.019768" lon="26.528439">
<ele>126.844788</ele>
<time>2010-08-29T10:26:43Z</time>
<desc>lat.=56.019768, lon.=26.528439, Alt.=126.844788m. Speed=12.204000m/h.</desc>
<speed>3.390000</speed>
</trkpt>
<trkpt lat="56.019760" lon="26.528366">
<ele>125.641663</ele>
<time>2010-08-29T10:26:44Z</time>
<desc>lat.=56.019760, lon.=26.528366, Alt.=125.641663m. Speed=12.240000m/h.</desc>
<speed>3.400000</speed>
</trkpt>
<trkpt lat="56.019760" lon="26.528299">
<ele>125.126038</ele>
<time>2010-08-29T10:26:45Z</time>
<desc>lat.=56.019760, lon.=26.528299, Alt.=125.126038m. Speed=12.240000m/h.</desc>
<speed>3.400000</speed>
</trkpt>
<trkpt lat="56.019753" lon="26.528229">
<ele>121.760803</ele>
<time>2010-08-29T10:26:46Z</time>
<desc>lat.=56.019753, lon.=26.528229, Alt.=121.760803m. Speed=13.932000m/h.</desc>
<speed>3.870000</speed>
</trkpt>
<trkpt lat="56.019756" lon="26.528164">
<ele>121.614319</ele>
<time>2010-08-29T10:26:47Z</time>
<desc>lat.=56.019756, lon.=26.528164, Alt.=121.614319m. Speed=14.364000m/h.</desc>
<speed>3.990000</speed>
</trkpt>
<trkpt lat="56.019756" lon="26.528090">
<ele>121.698303</ele>
<time>2010-08-29T10:26:48Z</time>
<desc>lat.=56.019756, lon.=26.528090, Alt.=121.698303m. Speed=15.696000m/h.</desc>
<speed>4.360000</speed>
</trkpt>
<trkpt lat="56.019749" lon="26.528017">
<ele>119.364319</ele>
<time>2010-08-29T10:26:49Z</time>
<desc>lat.=56.019749, lon.=26.528017, Alt.=119.364319m. Speed=14.904000m/h.</desc>
<speed>4.140000</speed>
</trkpt>
<trkpt lat="56.019749" lon="26.527950">
<ele>118.348694</ele>
<time>2010-08-29T10:26:50Z</time>
<desc>lat.=56.019749, lon.=26.527950, Alt.=118.348694m. Speed=13.968000m/h.</desc>
<speed>3.880000</speed>
</trkpt>
<trkpt lat="56.019745" lon="26.527885">
<ele>116.461975</ele>
<time>2010-08-29T10:26:51Z</time>
<desc>lat.=56.019745, lon.=26.527885, Alt.=116.461975m. Speed=12.996000m/h.</desc>
<speed>3.610000</speed>
</trkpt>
<trkpt lat="56.019753" lon="26.527834">
<ele>114.852600</ele>
<time>2010-08-29T10:26:52Z</time>
<desc>lat.=56.019753, lon.=26.527834, Alt.=114.852600m. Speed=11.340000m/h.</desc>
<speed>3.150000</speed>
</trkpt>
<trkpt lat="56.019764" lon="26.527800">
<ele>115.411194</ele>
<time>2010-08-29T10:26:53Z</time>
<desc>lat.=56.019764, lon.=26.527800, Alt.=115.411194m. Speed=7.164000m/h.</desc>
<speed>1.990000</speed>
</trkpt>
<trkpt lat="56.019779" lon="26.527788">
<ele>115.596741</ele>
<time>2010-08-29T10:26:54Z</time>
<desc>lat.=56.019779, lon.=26.527788, Alt.=115.596741m. Speed=5.904000m/h.</desc>
<speed>1.640000</speed>
</trkpt>
<trkpt lat="56.019791" lon="26.527781">
<ele>115.799866</ele>
<time>2010-08-29T10:26:55Z</time>
<desc>lat.=56.019791, lon.=26.527781, Alt.=115.799866m. Speed=5.040000m/h.</desc>
<speed>1.400000</speed>
</trkpt>
<trkpt lat="56.019802" lon="26.527784">
<ele>115.741272</ele>
<time>2010-08-29T10:26:56Z</time>
<desc>lat.=56.019802, lon.=26.527784, Alt.=115.741272m. Speed=4.464000m/h.</desc>
<speed>1.240000</speed>
</trkpt>
<trkpt lat="56.019817" lon="26.527796">
<ele>115.165100</ele>
<time>2010-08-29T10:26:57Z</time>
<desc>lat.=56.019817, lon.=26.527796, Alt.=115.165100m. Speed=6.408000m/h.</desc>
<speed>1.780000</speed>
</trkpt>
<trkpt lat="56.019836" lon="26.527815">
<ele>114.942444</ele>
<time>2010-08-29T10:26:58Z</time>
<desc>lat.=56.019836, lon.=26.527815, Alt.=114.942444m. Speed=6.696000m/h.</desc>
<speed>1.860000</speed>
</trkpt>
<trkpt lat="56.019852" lon="26.527836">
<ele>114.245178</ele>
<time>2010-08-29T10:26:59Z</time>
<desc>lat.=56.019852, lon.=26.527836, Alt.=114.245178m. Speed=9.072000m/h.</desc>
<speed>2.520000</speed>
</trkpt>
<trkpt lat="56.019867" lon="26.527863">
<ele>114.100647</ele>
<time>2010-08-29T10:27:00Z</time>
<desc>lat.=56.019867, lon.=26.527863, Alt.=114.100647m. Speed=7.956000m/h.</desc>
<speed>2.210000</speed>
</trkpt>
<trkpt lat="56.019886" lon="26.527891">
<ele>113.967834</ele>
<time>2010-08-29T10:27:01Z</time>
<desc>lat.=56.019886, lon.=26.527891, Alt.=113.967834m. Speed=9.648000m/h.</desc>
<speed>2.680000</speed>
</trkpt>
<trkpt lat="56.019905" lon="26.527924">
<ele>113.381897</ele>
<time>2010-08-29T10:27:02Z</time>
<desc>lat.=56.019905, lon.=26.527924, Alt.=113.381897m. Speed=9.504000m/h.</desc>
<speed>2.640000</speed>
</trkpt>
<trkpt lat="56.019928" lon="26.527948">
<ele>112.876038</ele>
<time>2010-08-29T10:27:03Z</time>
<desc>lat.=56.019928, lon.=26.527948, Alt.=112.876038m. Speed=11.880000m/h.</desc>
<speed>3.300000</speed>
</trkpt>
<trkpt lat="56.019955" lon="26.527977">
<ele>112.096741</ele>
<time>2010-08-29T10:27:04Z</time>
<desc>lat.=56.019955, lon.=26.527977, Alt.=112.096741m. Speed=13.176000m/h.</desc>
<speed>3.660000</speed>
</trkpt>
<trkpt lat="56.019981" lon="26.528006">
<ele>111.835022</ele>
<time>2010-08-29T10:27:05Z</time>
<desc>lat.=56.019981, lon.=26.528006, Alt.=111.835022m. Speed=14.076000m/h.</desc>
<speed>3.910000</speed>
</trkpt>
<trkpt lat="56.020012" lon="26.528036">
<ele>111.907288</ele>
<time>2010-08-29T10:27:06Z</time>
<desc>lat.=56.020012, lon.=26.528036, Alt.=111.907288m. Speed=14.616000m/h.</desc>
<speed>4.060000</speed>
</trkpt>
<trkpt lat="56.020039" lon="26.528063">
<ele>111.588928</ele>
<time>2010-08-29T10:27:07Z</time>
<desc>lat.=56.020039, lon.=26.528063, Alt.=111.588928m. Speed=13.356000m/h.</desc>
<speed>3.710000</speed>
</trkpt>
<trkpt lat="56.020065" lon="26.528091">
<ele>111.688538</ele>
<time>2010-08-29T10:27:08Z</time>
<desc>lat.=56.020065, lon.=26.528091, Alt.=111.688538m. Speed=12.672000m/h.</desc>
<speed>3.520000</speed>
</trkpt>
<trkpt lat="56.020100" lon="26.528120">
<ele>111.899475</ele>
<time>2010-08-29T10:27:09Z</time>
<desc>lat.=56.020100, lon.=26.528120, Alt.=111.899475m. Speed=12.204000m/h.</desc>
<speed>3.390000</speed>
</trkpt>
<trkpt lat="56.020126" lon="26.528143">
<ele>112.167053</ele>
<time>2010-08-29T10:27:10Z</time>
<desc>lat.=56.020126, lon.=26.528143, Alt.=112.167053m. Speed=10.152000m/h.</desc>
<speed>2.820000</speed>
</trkpt>
<trkpt lat="56.020149" lon="26.528158">
<ele>111.952209</ele>
<time>2010-08-29T10:27:11Z</time>
<desc>lat.=56.020149, lon.=26.528158, Alt.=111.952209m. Speed=9.468000m/h.</desc>
<speed>2.630000</speed>
</trkpt>
<trkpt lat="56.020168" lon="26.528181">
<ele>111.448303</ele>
<time>2010-08-29T10:27:12Z</time>
<desc>lat.=56.020168, lon.=26.528181, Alt.=111.448303m. Speed=8.928000m/h.</desc>
<speed>2.480000</speed>
</trkpt>
<trkpt lat="56.020191" lon="26.528204">
<ele>111.477600</ele>
<time>2010-08-29T10:27:13Z</time>
<desc>lat.=56.020191, lon.=26.528204, Alt.=111.477600m. Speed=8.784000m/h.</desc>
<speed>2.440000</speed>
</trkpt>
<trkpt lat="56.020210" lon="26.528227">
<ele>111.741272</ele>
<time>2010-08-29T10:27:14Z</time>
<desc>lat.=56.020210, lon.=26.528227, Alt.=111.741272m. Speed=9.828000m/h.</desc>
<speed>2.730000</speed>
</trkpt>
<trkpt lat="56.020229" lon="26.528248">
<ele>111.428772</ele>
<time>2010-08-29T10:27:15Z</time>
<desc>lat.=56.020229, lon.=26.528248, Alt.=111.428772m. Speed=10.476000m/h.</desc>
<speed>2.910000</speed>
</trkpt>
<trkpt lat="56.020260" lon="26.528271">
<ele>109.001038</ele>
<time>2010-08-29T10:27:16Z</time>
<desc>lat.=56.020260, lon.=26.528271, Alt.=109.001038m. Speed=10.800000m/h.</desc>
<speed>3.000000</speed>
</trkpt>
<trkpt lat="56.020287" lon="26.528288">
<ele>109.186584</ele>
<time>2010-08-29T10:27:17Z</time>
<desc>lat.=56.020287, lon.=26.528288, Alt.=109.186584m. Speed=11.160000m/h.</desc>
<speed>3.100000</speed>
</trkpt>
<trkpt lat="56.020313" lon="26.528297">
<ele>108.930725</ele>
<time>2010-08-29T10:27:18Z</time>
<desc>lat.=56.020313, lon.=26.528297, Alt.=108.930725m. Speed=10.080000m/h.</desc>
<speed>2.800000</speed>
</trkpt>
<trkpt lat="56.020336" lon="26.528309">
<ele>108.934631</ele>
<time>2010-08-29T10:27:19Z</time>
<desc>lat.=56.020336, lon.=26.528309, Alt.=108.934631m. Speed=12.240000m/h.</desc>
<speed>3.400000</speed>
</trkpt>
<trkpt lat="56.020367" lon="26.528326">
<ele>109.012756</ele>
<time>2010-08-29T10:27:20Z</time>
<desc>lat.=56.020367, lon.=26.528326, Alt.=109.012756m. Speed=12.096000m/h.</desc>
<speed>3.360000</speed>
</trkpt>
<trkpt lat="56.020390" lon="26.528343">
<ele>109.006897</ele>
<time>2010-08-29T10:27:21Z</time>
<desc>lat.=56.020390, lon.=26.528343, Alt.=109.006897m. Speed=8.424000m/h.</desc>
<speed>2.340000</speed>
</trkpt>
<trkpt lat="56.020412" lon="26.528349">
<ele>109.075256</ele>
<time>2010-08-29T10:27:22Z</time>
<desc>lat.=56.020412, lon.=26.528349, Alt.=109.075256m. Speed=7.632000m/h.</desc>
<speed>2.120000</speed>
</trkpt>
<trkpt lat="56.020432" lon="26.528349">
<ele>108.446350</ele>
<time>2010-08-29T10:27:23Z</time>
<desc>lat.=56.020432, lon.=26.528349, Alt.=108.446350m. Speed=7.668000m/h.</desc>
<speed>2.130000</speed>
</trkpt>
<trkpt lat="56.020451" lon="26.528357">
<ele>108.657288</ele>
<time>2010-08-29T10:27:24Z</time>
<desc>lat.=56.020451, lon.=26.528357, Alt.=108.657288m. Speed=6.732000m/h.</desc>
<speed>1.870000</speed>
</trkpt>
<trkpt lat="56.020466" lon="26.528362">
<ele>109.192444</ele>
<time>2010-08-29T10:27:25Z</time>
<desc>lat.=56.020466, lon.=26.528362, Alt.=109.192444m. Speed=6.228000m/h.</desc>
<speed>1.730000</speed>
</trkpt>
<trkpt lat="56.020489" lon="26.528358">
<ele>108.407288</ele>
<time>2010-08-29T10:27:26Z</time>
<desc>lat.=56.020489, lon.=26.528358, Alt.=108.407288m. Speed=6.480000m/h.</desc>
<speed>1.800000</speed>
</trkpt>
<trkpt lat="56.020500" lon="26.528362">
<ele>107.795959</ele>
<time>2010-08-29T10:27:27Z</time>
<desc>lat.=56.020500, lon.=26.528362, Alt.=107.795959m. Speed=4.824000m/h.</desc>
<speed>1.340000</speed>
</trkpt>
<trkpt lat="56.020519" lon="26.528362">
<ele>107.938538</ele>
<time>2010-08-29T10:27:28Z</time>
<desc>lat.=56.020519, lon.=26.528362, Alt.=107.938538m. Speed=7.380000m/h.</desc>
<speed>2.050000</speed>
</trkpt>
<trkpt lat="56.020538" lon="26.528357">
<ele>107.600647</ele>
<time>2010-08-29T10:27:29Z</time>
<desc>lat.=56.020538, lon.=26.528357, Alt.=107.600647m. Speed=7.128000m/h.</desc>
<speed>1.980000</speed>
</trkpt>
<trkpt lat="56.020561" lon="26.528349">
<ele>108.290100</ele>
<time>2010-08-29T10:27:30Z</time>
<desc>lat.=56.020561, lon.=26.528349, Alt.=108.290100m. Speed=9.936000m/h.</desc>
<speed>2.760000</speed>
</trkpt>
<trkpt lat="56.020588" lon="26.528347">
<ele>107.688538</ele>
<time>2010-08-29T10:27:31Z</time>
<desc>lat.=56.020588, lon.=26.528347, Alt.=107.688538m. Speed=9.900000m/h.</desc>
<speed>2.750000</speed>
</trkpt>
<trkpt lat="56.020622" lon="26.528341">
<ele>108.608459</ele>
<time>2010-08-29T10:27:32Z</time>
<desc>lat.=56.020622, lon.=26.528341, Alt.=108.608459m. Speed=12.528000m/h.</desc>
<speed>3.480000</speed>
</trkpt>
<trkpt lat="56.020657" lon="26.528345">
<ele>109.075256</ele>
<time>2010-08-29T10:27:33Z</time>
<desc>lat.=56.020657, lon.=26.528345, Alt.=109.075256m. Speed=11.808000m/h.</desc>
<speed>3.280000</speed>
</trkpt>
<trkpt lat="56.020687" lon="26.528349">
<ele>109.565491</ele>
<time>2010-08-29T10:27:34Z</time>
<desc>lat.=56.020687, lon.=26.528349, Alt.=109.565491m. Speed=11.736000m/h.</desc>
<speed>3.260000</speed>
</trkpt>
<trkpt lat="56.020718" lon="26.528349">
<ele>109.590881</ele>
<time>2010-08-29T10:27:35Z</time>
<desc>lat.=56.020718, lon.=26.528349, Alt.=109.590881m. Speed=14.184000m/h.</desc>
<speed>3.940000</speed>
</trkpt>
<trkpt lat="56.020756" lon="26.528353">
<ele>109.442444</ele>
<time>2010-08-29T10:27:36Z</time>
<desc>lat.=56.020756, lon.=26.528353, Alt.=109.442444m. Speed=13.104000m/h.</desc>
<speed>3.640000</speed>
</trkpt>
<trkpt lat="56.020794" lon="26.528353">
<ele>110.045959</ele>
<time>2010-08-29T10:27:37Z</time>
<desc>lat.=56.020794, lon.=26.528353, Alt.=110.045959m. Speed=15.120000m/h.</desc>
<speed>4.200000</speed>
</trkpt>
<trkpt lat="56.020836" lon="26.528349">
<ele>110.157288</ele>
<time>2010-08-29T10:27:38Z</time>
<desc>lat.=56.020836, lon.=26.528349, Alt.=110.157288m. Speed=14.544000m/h.</desc>
<speed>4.040000</speed>
</trkpt>
<trkpt lat="56.020870" lon="26.528347">
<ele>109.555725</ele>
<time>2010-08-29T10:27:39Z</time>
<desc>lat.=56.020870, lon.=26.528347, Alt.=109.555725m. Speed=15.624000m/h.</desc>
<speed>4.340000</speed>
</trkpt>
<trkpt lat="56.020908" lon="26.528351">
<ele>108.805725</ele>
<time>2010-08-29T10:27:40Z</time>
<desc>lat.=56.020908, lon.=26.528351, Alt.=108.805725m. Speed=14.220000m/h.</desc>
<speed>3.950000</speed>
</trkpt>
<trkpt lat="56.020947" lon="26.528353">
<ele>108.774475</ele>
<time>2010-08-29T10:27:41Z</time>
<desc>lat.=56.020947, lon.=26.528353, Alt.=108.774475m. Speed=13.788000m/h.</desc>
<speed>3.830000</speed>
</trkpt>
<trkpt lat="56.020992" lon="26.528355">
<ele>109.170959</ele>
<time>2010-08-29T10:27:42Z</time>
<desc>lat.=56.020992, lon.=26.528355, Alt.=109.170959m. Speed=15.984000m/h.</desc>
<speed>4.440000</speed>
</trkpt>
<trkpt lat="56.021030" lon="26.528351">
<ele>109.737366</ele>
<time>2010-08-29T10:27:43Z</time>
<desc>lat.=56.021030, lon.=26.528351, Alt.=109.737366m. Speed=16.128000m/h.</desc>
<speed>4.480000</speed>
</trkpt>
<trkpt lat="56.021072" lon="26.528349">
<ele>110.821350</ele>
<time>2010-08-29T10:27:44Z</time>
<desc>lat.=56.021072, lon.=26.528349, Alt.=110.821350m. Speed=16.812000m/h.</desc>
<speed>4.670000</speed>
</trkpt>
<trkpt lat="56.021111" lon="26.528341">
<ele>111.372131</ele>
<time>2010-08-29T10:27:45Z</time>
<desc>lat.=56.021111, lon.=26.528341, Alt.=111.372131m. Speed=15.012000m/h.</desc>
<speed>4.170000</speed>
</trkpt>
<trkpt lat="56.021149" lon="26.528334">
<ele>111.895569</ele>
<time>2010-08-29T10:27:46Z</time>
<desc>lat.=56.021149, lon.=26.528334, Alt.=111.895569m. Speed=14.004000m/h.</desc>
<speed>3.890000</speed>
</trkpt>
<trkpt lat="56.021194" lon="26.528324">
<ele>112.528381</ele>
<time>2010-08-29T10:27:47Z</time>
<desc>lat.=56.021194, lon.=26.528324, Alt.=112.528381m. Speed=15.012000m/h.</desc>
<speed>4.170000</speed>
</trkpt>
<trkpt lat="56.021240" lon="26.528309">
<ele>112.528381</ele>
<time>2010-08-29T10:27:48Z</time>
<desc>lat.=56.021240, lon.=26.528309, Alt.=112.528381m. Speed=15.480000m/h.</desc>
<speed>4.300000</speed>
</trkpt>
<trkpt lat="56.021282" lon="26.528290">
<ele>113.655334</ele>
<time>2010-08-29T10:27:49Z</time>
<desc>lat.=56.021282, lon.=26.528290, Alt.=113.655334m. Speed=14.688000m/h.</desc>
<speed>4.080000</speed>
</trkpt>
<trkpt lat="56.021320" lon="26.528273">
<ele>113.786194</ele>
<time>2010-08-29T10:27:50Z</time>
<desc>lat.=56.021320, lon.=26.528273, Alt.=113.786194m. Speed=15.732000m/h.</desc>
<speed>4.370000</speed>
</trkpt>
<trkpt lat="56.021358" lon="26.528248">
<ele>113.735413</ele>
<time>2010-08-29T10:27:51Z</time>
<desc>lat.=56.021358, lon.=26.528248, Alt.=113.735413m. Speed=15.012000m/h.</desc>
<speed>4.170000</speed>
</trkpt>
<trkpt lat="56.021393" lon="26.528231">
<ele>113.274475</ele>
<time>2010-08-29T10:27:52Z</time>
<desc>lat.=56.021393, lon.=26.528231, Alt.=113.274475m. Speed=15.408000m/h.</desc>
<speed>4.280000</speed>
</trkpt>
<trkpt lat="56.021431" lon="26.528208">
<ele>113.419006</ele>
<time>2010-08-29T10:27:53Z</time>
<desc>lat.=56.021431, lon.=26.528208, Alt.=113.419006m. Speed=15.012000m/h.</desc>
<speed>4.170000</speed>
</trkpt>
<trkpt lat="56.021469" lon="26.528187">
<ele>114.194397</ele>
<time>2010-08-29T10:27:54Z</time>
<desc>lat.=56.021469, lon.=26.528187, Alt.=114.194397m. Speed=16.236000m/h.</desc>
<speed>4.510000</speed>
</trkpt>
<trkpt lat="56.021511" lon="26.528160">
<ele>114.233459</ele>
<time>2010-08-29T10:27:55Z</time>
<desc>lat.=56.021511, lon.=26.528160, Alt.=114.233459m. Speed=18.612000m/h.</desc>
<speed>5.170000</speed>
</trkpt>
<trkpt lat="56.021549" lon="26.528133">
<ele>114.004944</ele>
<time>2010-08-29T10:27:56Z</time>
<desc>lat.=56.021549, lon.=26.528133, Alt.=114.004944m. Speed=16.559999m/h.</desc>
<speed>4.600000</speed>
</trkpt>
<trkpt lat="56.021587" lon="26.528112">
<ele>113.862366</ele>
<time>2010-08-29T10:27:57Z</time>
<desc>lat.=56.021587, lon.=26.528112, Alt.=113.862366m. Speed=15.624000m/h.</desc>
<speed>4.340000</speed>
</trkpt>
<trkpt lat="56.021629" lon="26.528091">
<ele>114.047913</ele>
<time>2010-08-29T10:27:58Z</time>
<desc>lat.=56.021629, lon.=26.528091, Alt.=114.047913m. Speed=14.364000m/h.</desc>
<speed>3.990000</speed>
</trkpt>
<trkpt lat="56.021660" lon="26.528063">
<ele>114.348694</ele>
<time>2010-08-29T10:27:59Z</time>
<desc>lat.=56.021660, lon.=26.528063, Alt.=114.348694m. Speed=12.528000m/h.</desc>
<speed>3.480000</speed>
</trkpt>
<trkpt lat="56.021687" lon="26.528038">
<ele>114.602600</ele>
<time>2010-08-29T10:28:00Z</time>
<desc>lat.=56.021687, lon.=26.528038, Alt.=114.602600m. Speed=11.232000m/h.</desc>
<speed>3.120000</speed>
</trkpt>
<trkpt lat="56.021713" lon="26.528015">
<ele>115.124084</ele>
<time>2010-08-29T10:28:01Z</time>
<desc>lat.=56.021713, lon.=26.528015, Alt.=115.124084m. Speed=10.764000m/h.</desc>
<speed>2.990000</speed>
</trkpt>
<trkpt lat="56.021736" lon="26.527994">
<ele>115.827209</ele>
<time>2010-08-29T10:28:02Z</time>
<desc>lat.=56.021736, lon.=26.527994, Alt.=115.827209m. Speed=9.648000m/h.</desc>
<speed>2.680000</speed>
</trkpt>
<trkpt lat="56.021755" lon="26.527983">
<ele>115.911194</ele>
<time>2010-08-29T10:28:03Z</time>
<desc>lat.=56.021755, lon.=26.527983, Alt.=115.911194m. Speed=10.116000m/h.</desc>
<speed>2.810000</speed>
</trkpt>
<trkpt lat="56.021774" lon="26.527964">
<ele>117.045959</ele>
<time>2010-08-29T10:28:04Z</time>
<desc>lat.=56.021774, lon.=26.527964, Alt.=117.045959m. Speed=10.296000m/h.</desc>
<speed>2.860000</speed>
</trkpt>
<trkpt lat="56.021797" lon="26.527948">
<ele>117.307678</ele>
<time>2010-08-29T10:28:05Z</time>
<desc>lat.=56.021797, lon.=26.527948, Alt.=117.307678m. Speed=10.584000m/h.</desc>
<speed>2.940000</speed>
</trkpt>
<trkpt lat="56.021816" lon="26.527939">
<ele>117.213928</ele>
<time>2010-08-29T10:28:06Z</time>
<desc>lat.=56.021816, lon.=26.527939, Alt.=117.213928m. Speed=11.556000m/h.</desc>
<speed>3.210000</speed>
</trkpt>
<trkpt lat="56.021847" lon="26.527922">
<ele>117.510803</ele>
<time>2010-08-29T10:28:07Z</time>
<desc>lat.=56.021847, lon.=26.527922, Alt.=117.510803m. Speed=12.564000m/h.</desc>
<speed>3.490000</speed>
</trkpt>
<trkpt lat="56.021873" lon="26.527908">
<ele>117.754944</ele>
<time>2010-08-29T10:28:08Z</time>
<desc>lat.=56.021873, lon.=26.527908, Alt.=117.754944m. Speed=11.700000m/h.</desc>
<speed>3.250000</speed>
</trkpt>
<trkpt lat="56.021904" lon="26.527899">
<ele>117.504944</ele>
<time>2010-08-29T10:28:09Z</time>
<desc>lat.=56.021904, lon.=26.527899, Alt.=117.504944m. Speed=13.248000m/h.</desc>
<speed>3.680000</speed>
</trkpt>
<trkpt lat="56.021942" lon="26.527882">
<ele>117.139709</ele>
<time>2010-08-29T10:28:10Z</time>
<desc>lat.=56.021942, lon.=26.527882, Alt.=117.139709m. Speed=14.616000m/h.</desc>
<speed>4.060000</speed>
</trkpt>
<trkpt lat="56.021976" lon="26.527863">
<ele>116.340881</ele>
<time>2010-08-29T10:28:11Z</time>
<desc>lat.=56.021976, lon.=26.527863, Alt.=116.340881m. Speed=15.552000m/h.</desc>
<speed>4.320000</speed>
</trkpt>
<trkpt lat="56.022018" lon="26.527843">
<ele>116.200256</ele>
<time>2010-08-29T10:28:12Z</time>
<desc>lat.=56.022018, lon.=26.527843, Alt.=116.200256m. Speed=17.639999m/h.</desc>
<speed>4.900000</speed>
</trkpt>
<trkpt lat="56.022064" lon="26.527824">
<ele>115.680725</ele>
<time>2010-08-29T10:28:13Z</time>
<desc>lat.=56.022064, lon.=26.527824, Alt.=115.680725m. Speed=17.424000m/h.</desc>
<speed>4.840000</speed>
</trkpt>
<trkpt lat="56.022099" lon="26.527813">
<ele>115.473694</ele>
<time>2010-08-29T10:28:14Z</time>
<desc>lat.=56.022099, lon.=26.527813, Alt.=115.473694m. Speed=16.992001m/h.</desc>
<speed>4.720000</speed>
</trkpt>
<trkpt lat="56.022137" lon="26.527790">
<ele>115.196350</ele>
<time>2010-08-29T10:28:15Z</time>
<desc>lat.=56.022137, lon.=26.527790, Alt.=115.196350m. Speed=15.840000m/h.</desc>
<speed>4.400000</speed>
</trkpt>
<trkpt lat="56.022175" lon="26.527773">
<ele>115.016663</ele>
<time>2010-08-29T10:28:16Z</time>
<desc>lat.=56.022175, lon.=26.527773, Alt.=115.016663m. Speed=14.832000m/h.</desc>
<speed>4.120000</speed>
</trkpt>
<trkpt lat="56.022209" lon="26.527756">
<ele>114.809631</ele>
<time>2010-08-29T10:28:17Z</time>
<desc>lat.=56.022209, lon.=26.527756, Alt.=114.809631m. Speed=13.248000m/h.</desc>
<speed>3.680000</speed>
</trkpt>
<trkpt lat="56.022240" lon="26.527737">
<ele>115.276428</ele>
<time>2010-08-29T10:28:18Z</time>
<desc>lat.=56.022240, lon.=26.527737, Alt.=115.276428m. Speed=12.024000m/h.</desc>
<speed>3.340000</speed>
</trkpt>
<trkpt lat="56.022274" lon="26.527725">
<ele>114.428772</ele>
<time>2010-08-29T10:28:19Z</time>
<desc>lat.=56.022274, lon.=26.527725, Alt.=114.428772m. Speed=12.492000m/h.</desc>
<speed>3.470000</speed>
</trkpt>
<trkpt lat="56.022301" lon="26.527718">
<ele>114.186584</ele>
<time>2010-08-29T10:28:20Z</time>
<desc>lat.=56.022301, lon.=26.527718, Alt.=114.186584m. Speed=12.132000m/h.</desc>
<speed>3.370000</speed>
</trkpt>
<trkpt lat="56.022339" lon="26.527700">
<ele>114.655334</ele>
<time>2010-08-29T10:28:21Z</time>
<desc>lat.=56.022339, lon.=26.527700, Alt.=114.655334m. Speed=13.536000m/h.</desc>
<speed>3.760000</speed>
</trkpt>
<trkpt lat="56.022373" lon="26.527693">
<ele>114.919006</ele>
<time>2010-08-29T10:28:22Z</time>
<desc>lat.=56.022373, lon.=26.527693, Alt.=114.919006m. Speed=13.428000m/h.</desc>
<speed>3.730000</speed>
</trkpt>
<trkpt lat="56.022408" lon="26.527681">
<ele>115.040100</ele>
<time>2010-08-29T10:28:23Z</time>
<desc>lat.=56.022408, lon.=26.527681, Alt.=115.040100m. Speed=12.600000m/h.</desc>
<speed>3.500000</speed>
</trkpt>
<trkpt lat="56.022442" lon="26.527664">
<ele>114.305725</ele>
<time>2010-08-29T10:28:24Z</time>
<desc>lat.=56.022442, lon.=26.527664, Alt.=114.305725m. Speed=14.148000m/h.</desc>
<speed>3.930000</speed>
</trkpt>
<trkpt lat="56.022484" lon="26.527649">
<ele>114.081116</ele>
<time>2010-08-29T10:28:25Z</time>
<desc>lat.=56.022484, lon.=26.527649, Alt.=114.081116m. Speed=13.896000m/h.</desc>
<speed>3.860000</speed>
</trkpt>
<trkpt lat="56.022518" lon="26.527639">
<ele>113.936584</ele>
<time>2010-08-29T10:28:26Z</time>
<desc>lat.=56.022518, lon.=26.527639, Alt.=113.936584m. Speed=13.752000m/h.</desc>
<speed>3.820000</speed>
</trkpt>
<trkpt lat="56.022552" lon="26.527630">
<ele>114.379944</ele>
<time>2010-08-29T10:28:27Z</time>
<desc>lat.=56.022552, lon.=26.527630, Alt.=114.379944m. Speed=15.264000m/h.</desc>
<speed>4.240000</speed>
</trkpt>
<trkpt lat="56.022591" lon="26.527626">
<ele>114.559631</ele>
<time>2010-08-29T10:28:28Z</time>
<desc>lat.=56.022591, lon.=26.527626, Alt.=114.559631m. Speed=15.912000m/h.</desc>
<speed>4.420000</speed>
</trkpt>
<trkpt lat="56.022633" lon="26.527613">
<ele>114.774475</ele>
<time>2010-08-29T10:28:29Z</time>
<desc>lat.=56.022633, lon.=26.527613, Alt.=114.774475m. Speed=16.344000m/h.</desc>
<speed>4.540000</speed>
</trkpt>
<trkpt lat="56.022675" lon="26.527605">
<ele>115.395569</ele>
<time>2010-08-29T10:28:30Z</time>
<desc>lat.=56.022675, lon.=26.527605, Alt.=115.395569m. Speed=14.796000m/h.</desc>
<speed>4.110000</speed>
</trkpt>
<trkpt lat="56.022709" lon="26.527601">
<ele>115.653381</ele>
<time>2010-08-29T10:28:31Z</time>
<desc>lat.=56.022709, lon.=26.527601, Alt.=115.653381m. Speed=13.680000m/h.</desc>
<speed>3.800000</speed>
</trkpt>
<trkpt lat="56.022743" lon="26.527597">
<ele>116.303772</ele>
<time>2010-08-29T10:28:32Z</time>
<desc>lat.=56.022743, lon.=26.527597, Alt.=116.303772m. Speed=12.492000m/h.</desc>
<speed>3.470000</speed>
</trkpt>
<trkpt lat="56.022774" lon="26.527601">
<ele>116.358459</ele>
<time>2010-08-29T10:28:33Z</time>
<desc>lat.=56.022774, lon.=26.527601, Alt.=116.358459m. Speed=12.924000m/h.</desc>
<speed>3.590000</speed>
</trkpt>
<trkpt lat="56.022812" lon="26.527605">
<ele>116.083069</ele>
<time>2010-08-29T10:28:34Z</time>
<desc>lat.=56.022812, lon.=26.527605, Alt.=116.083069m. Speed=14.400000m/h.</desc>
<speed>4.000000</speed>
</trkpt>
<trkpt lat="56.022854" lon="26.527613">
<ele>115.866272</ele>
<time>2010-08-29T10:28:35Z</time>
<desc>lat.=56.022854, lon.=26.527613, Alt.=115.866272m. Speed=14.076000m/h.</desc>
<speed>3.910000</speed>
</trkpt>
<trkpt lat="56.022892" lon="26.527615">
<ele>115.911194</ele>
<time>2010-08-29T10:28:36Z</time>
<desc>lat.=56.022892, lon.=26.527615, Alt.=115.911194m. Speed=15.660000m/h.</desc>
<speed>4.350000</speed>
</trkpt>
<trkpt lat="56.022934" lon="26.527620">
<ele>115.405334</ele>
<time>2010-08-29T10:28:37Z</time>
<desc>lat.=56.022934, lon.=26.527620, Alt.=115.405334m. Speed=17.747999m/h.</desc>
<speed>4.930000</speed>
</trkpt>
<trkpt lat="56.022980" lon="26.527630">
<ele>114.997131</ele>
<time>2010-08-29T10:28:38Z</time>
<desc>lat.=56.022980, lon.=26.527630, Alt.=114.997131m. Speed=18.180000m/h.</desc>
<speed>5.050000</speed>
</trkpt>
<trkpt lat="56.023037" lon="26.527641">
<ele>114.282288</ele>
<time>2010-08-29T10:28:39Z</time>
<desc>lat.=56.023037, lon.=26.527641, Alt.=114.282288m. Speed=17.927999m/h.</desc>
<speed>4.980000</speed>
</trkpt>
<trkpt lat="56.023083" lon="26.527655">
<ele>113.713928</ele>
<time>2010-08-29T10:28:40Z</time>
<desc>lat.=56.023083, lon.=26.527655, Alt.=113.713928m. Speed=17.784000m/h.</desc>
<speed>4.940000</speed>
</trkpt>
<trkpt lat="56.023129" lon="26.527666">
<ele>113.180725</ele>
<time>2010-08-29T10:28:41Z</time>
<desc>lat.=56.023129, lon.=26.527666, Alt.=113.180725m. Speed=17.604000m/h.</desc>
<speed>4.890000</speed>
</trkpt>
<trkpt lat="56.023174" lon="26.527679">
<ele>112.772522</ele>
<time>2010-08-29T10:28:42Z</time>
<desc>lat.=56.023174, lon.=26.527679, Alt.=112.772522m. Speed=17.712000m/h.</desc>
<speed>4.920000</speed>
</trkpt>
<trkpt lat="56.023216" lon="26.527691">
<ele>112.924866</ele>
<time>2010-08-29T10:28:43Z</time>
<desc>lat.=56.023216, lon.=26.527691, Alt.=112.924866m. Speed=16.884001m/h.</desc>
<speed>4.690000</speed>
</trkpt>
<trkpt lat="56.023258" lon="26.527695">
<ele>113.713928</ele>
<time>2010-08-29T10:28:44Z</time>
<desc>lat.=56.023258, lon.=26.527695, Alt.=113.713928m. Speed=16.992001m/h.</desc>
<speed>4.720000</speed>
</trkpt>
<trkpt lat="56.023296" lon="26.527697">
<ele>114.393616</ele>
<time>2010-08-29T10:28:45Z</time>
<desc>lat.=56.023296, lon.=26.527697, Alt.=114.393616m. Speed=15.048000m/h.</desc>
<speed>4.180000</speed>
</trkpt>
<trkpt lat="56.023331" lon="26.527697">
<ele>114.557678</ele>
<time>2010-08-29T10:28:46Z</time>
<desc>lat.=56.023331, lon.=26.527697, Alt.=114.557678m. Speed=13.068000m/h.</desc>
<speed>3.630000</speed>
</trkpt>
<trkpt lat="56.023369" lon="26.527693">
<ele>114.661194</ele>
<time>2010-08-29T10:28:47Z</time>
<desc>lat.=56.023369, lon.=26.527693, Alt.=114.661194m. Speed=13.104000m/h.</desc>
<speed>3.640000</speed>
</trkpt>
<trkpt lat="56.023403" lon="26.527691">
<ele>114.450256</ele>
<time>2010-08-29T10:28:48Z</time>
<desc>lat.=56.023403, lon.=26.527691, Alt.=114.450256m. Speed=13.788000m/h.</desc>
<speed>3.830000</speed>
</trkpt>
<trkpt lat="56.023434" lon="26.527685">
<ele>114.135803</ele>
<time>2010-08-29T10:28:49Z</time>
<desc>lat.=56.023434, lon.=26.527685, Alt.=114.135803m. Speed=11.376000m/h.</desc>
<speed>3.160000</speed>
</trkpt>
<trkpt lat="56.023457" lon="26.527681">
<ele>114.235413</ele>
<time>2010-08-29T10:28:50Z</time>
<desc>lat.=56.023457, lon.=26.527681, Alt.=114.235413m. Speed=11.160000m/h.</desc>
<speed>3.100000</speed>
</trkpt>
<trkpt lat="56.023491" lon="26.527670">
<ele>113.713928</ele>
<time>2010-08-29T10:28:51Z</time>
<desc>lat.=56.023491, lon.=26.527670, Alt.=113.713928m. Speed=11.628000m/h.</desc>
<speed>3.230000</speed>
</trkpt>
<trkpt lat="56.023525" lon="26.527662">
<ele>113.633850</ele>
<time>2010-08-29T10:28:52Z</time>
<desc>lat.=56.023525, lon.=26.527662, Alt.=113.633850m. Speed=12.816000m/h.</desc>
<speed>3.560000</speed>
</trkpt>
<trkpt lat="56.023571" lon="26.527655">
<ele>112.014709</ele>
<time>2010-08-29T10:28:53Z</time>
<desc>lat.=56.023571, lon.=26.527655, Alt.=112.014709m. Speed=15.120000m/h.</desc>
<speed>4.200000</speed>
</trkpt>
<trkpt lat="56.023617" lon="26.527645">
<ele>112.045959</ele>
<time>2010-08-29T10:28:54Z</time>
<desc>lat.=56.023617, lon.=26.527645, Alt.=112.045959m. Speed=16.128000m/h.</desc>
<speed>4.480000</speed>
</trkpt>
<trkpt lat="56.023663" lon="26.527639">
<ele>111.590881</ele>
<time>2010-08-29T10:28:55Z</time>
<desc>lat.=56.023663, lon.=26.527639, Alt.=111.590881m. Speed=18.972000m/h.</desc>
<speed>5.270000</speed>
</trkpt>
<trkpt lat="56.023712" lon="26.527645">
<ele>111.278381</ele>
<time>2010-08-29T10:28:56Z</time>
<desc>lat.=56.023712, lon.=26.527645, Alt.=111.278381m. Speed=20.304001m/h.</desc>
<speed>5.640000</speed>
</trkpt>
<trkpt lat="56.023777" lon="26.527647">
<ele>110.930725</ele>
<time>2010-08-29T10:28:57Z</time>
<desc>lat.=56.023777, lon.=26.527647, Alt.=110.930725m. Speed=21.708000m/h.</desc>
<speed>6.030000</speed>
</trkpt>
<trkpt lat="56.023830" lon="26.527655">
<ele>110.456116</ele>
<time>2010-08-29T10:28:58Z</time>
<desc>lat.=56.023830, lon.=26.527655, Alt.=110.456116m. Speed=21.563999m/h.</desc>
<speed>5.990000</speed>
</trkpt>
<trkpt lat="56.023888" lon="26.527670">
<ele>109.860413</ele>
<time>2010-08-29T10:28:59Z</time>
<desc>lat.=56.023888, lon.=26.527670, Alt.=109.860413m. Speed=22.104000m/h.</desc>
<speed>6.140000</speed>
</trkpt>
<trkpt lat="56.023945" lon="26.527687">
<ele>109.227600</ele>
<time>2010-08-29T10:29:00Z</time>
<desc>lat.=56.023945, lon.=26.527687, Alt.=109.227600m. Speed=22.247999m/h.</desc>
<speed>6.180000</speed>
</trkpt>
<trkpt lat="56.024006" lon="26.527716">
<ele>108.286194</ele>
<time>2010-08-29T10:29:01Z</time>
<desc>lat.=56.024006, lon.=26.527716, Alt.=108.286194m. Speed=21.420000m/h.</desc>
<speed>5.950000</speed>
</trkpt>
<trkpt lat="56.024063" lon="26.527746">
<ele>107.667053</ele>
<time>2010-08-29T10:29:02Z</time>
<desc>lat.=56.024063, lon.=26.527746, Alt.=107.667053m. Speed=21.708000m/h.</desc>
<speed>6.030000</speed>
</trkpt>
<trkpt lat="56.024109" lon="26.527784">
<ele>107.204163</ele>
<time>2010-08-29T10:29:03Z</time>
<desc>lat.=56.024109, lon.=26.527784, Alt.=107.204163m. Speed=20.052000m/h.</desc>
<speed>5.570000</speed>
</trkpt>
<trkpt lat="56.024158" lon="26.527817">
<ele>107.157288</ele>
<time>2010-08-29T10:29:04Z</time>
<desc>lat.=56.024158, lon.=26.527817, Alt.=107.157288m. Speed=18.431999m/h.</desc>
<speed>5.120000</speed>
</trkpt>
<trkpt lat="56.024197" lon="26.527849">
<ele>106.889709</ele>
<time>2010-08-29T10:29:05Z</time>
<desc>lat.=56.024197, lon.=26.527849, Alt.=106.889709m. Speed=17.063999m/h.</desc>
<speed>4.740000</speed>
</trkpt>
<trkpt lat="56.024235" lon="26.527878">
<ele>106.952209</ele>
<time>2010-08-29T10:29:06Z</time>
<desc>lat.=56.024235, lon.=26.527878, Alt.=106.952209m. Speed=15.372000m/h.</desc>
<speed>4.270000</speed>
</trkpt>
<trkpt lat="56.024269" lon="26.527922">
<ele>106.489319</ele>
<time>2010-08-29T10:29:07Z</time>
<desc>lat.=56.024269, lon.=26.527922, Alt.=106.489319m. Speed=16.344000m/h.</desc>
<speed>4.540000</speed>
</trkpt>
<trkpt lat="56.024300" lon="26.527966">
<ele>105.934631</ele>
<time>2010-08-29T10:29:08Z</time>
<desc>lat.=56.024300, lon.=26.527966, Alt.=105.934631m. Speed=15.516000m/h.</desc>
<speed>4.310000</speed>
</trkpt>
<trkpt lat="56.024330" lon="26.528011">
<ele>105.362366</ele>
<time>2010-08-29T10:29:09Z</time>
<desc>lat.=56.024330, lon.=26.528011, Alt.=105.362366m. Speed=15.228000m/h.</desc>
<speed>4.230000</speed>
</trkpt>
<trkpt lat="56.024361" lon="26.528057">
<ele>104.305725</ele>
<time>2010-08-29T10:29:10Z</time>
<desc>lat.=56.024361, lon.=26.528057, Alt.=104.305725m. Speed=14.580000m/h.</desc>
<speed>4.050000</speed>
</trkpt>
<trkpt lat="56.024395" lon="26.528101">
<ele>103.169006</ele>
<time>2010-08-29T10:29:11Z</time>
<desc>lat.=56.024395, lon.=26.528101, Alt.=103.169006m. Speed=14.832000m/h.</desc>
<speed>4.120000</speed>
</trkpt>
<trkpt lat="56.024422" lon="26.528145">
<ele>102.901428</ele>
<time>2010-08-29T10:29:12Z</time>
<desc>lat.=56.024422, lon.=26.528145, Alt.=102.901428m. Speed=15.048000m/h.</desc>
<speed>4.180000</speed>
</trkpt>
<trkpt lat="56.024452" lon="26.528194">
<ele>102.432678</ele>
<time>2010-08-29T10:29:13Z</time>
<desc>lat.=56.024452, lon.=26.528194, Alt.=102.432678m. Speed=14.796000m/h.</desc>
<speed>4.110000</speed>
</trkpt>
<trkpt lat="56.024479" lon="26.528248">
<ele>101.856506</ele>
<time>2010-08-29T10:29:14Z</time>
<desc>lat.=56.024479, lon.=26.528248, Alt.=101.856506m. Speed=14.364000m/h.</desc>
<speed>3.990000</speed>
</trkpt>
<trkpt lat="56.024498" lon="26.528286">
<ele>101.932678</ele>
<time>2010-08-29T10:29:15Z</time>
<desc>lat.=56.024498, lon.=26.528286, Alt.=101.932678m. Speed=11.664000m/h.</desc>
<speed>3.240000</speed>
</trkpt>
<trkpt lat="56.024525" lon="26.528316">
<ele>100.979553</ele>
<time>2010-08-29T10:29:16Z</time>
<desc>lat.=56.024525, lon.=26.528316, Alt.=100.979553m. Speed=10.656000m/h.</desc>
<speed>2.960000</speed>
</trkpt>
<trkpt lat="56.024548" lon="26.528339">
<ele>101.262756</ele>
<time>2010-08-29T10:29:17Z</time>
<desc>lat.=56.024548, lon.=26.528339, Alt.=101.262756m. Speed=10.620000m/h.</desc>
<speed>2.950000</speed>
</trkpt>
<trkpt lat="56.024570" lon="26.528364">
<ele>101.493225</ele>
<time>2010-08-29T10:29:18Z</time>
<desc>lat.=56.024570, lon.=26.528364, Alt.=101.493225m. Speed=9.468000m/h.</desc>
<speed>2.630000</speed>
</trkpt>
<trkpt lat="56.024590" lon="26.528395">
<ele>101.799866</ele>
<time>2010-08-29T10:29:19Z</time>
<desc>lat.=56.024590, lon.=26.528395, Alt.=101.799866m. Speed=10.476000m/h.</desc>
<speed>2.910000</speed>
</trkpt>
<trkpt lat="56.024612" lon="26.528431">
<ele>101.924866</ele>
<time>2010-08-29T10:29:20Z</time>
<desc>lat.=56.024612, lon.=26.528431, Alt.=101.924866m. Speed=11.952000m/h.</desc>
<speed>3.320000</speed>
</trkpt>
<trkpt lat="56.024643" lon="26.528469">
<ele>101.456116</ele>
<time>2010-08-29T10:29:21Z</time>
<desc>lat.=56.024643, lon.=26.528469, Alt.=101.456116m. Speed=12.384000m/h.</desc>
<speed>3.440000</speed>
</trkpt>
<trkpt lat="56.024670" lon="26.528517">
<ele>101.655334</ele>
<time>2010-08-29T10:29:22Z</time>
<desc>lat.=56.024670, lon.=26.528517, Alt.=101.655334m. Speed=13.500000m/h.</desc>
<speed>3.750000</speed>
</trkpt>
<trkpt lat="56.024700" lon="26.528557">
<ele>101.016663</ele>
<time>2010-08-29T10:29:23Z</time>
<desc>lat.=56.024700, lon.=26.528557, Alt.=101.016663m. Speed=14.688000m/h.</desc>
<speed>4.080000</speed>
</trkpt>
<trkpt lat="56.024731" lon="26.528599">
<ele>101.698303</ele>
<time>2010-08-29T10:29:24Z</time>
<desc>lat.=56.024731, lon.=26.528599, Alt.=101.698303m. Speed=16.308001m/h.</desc>
<speed>4.530000</speed>
</trkpt>
<trkpt lat="56.024765" lon="26.528643">
<ele>102.221741</ele>
<time>2010-08-29T10:29:25Z</time>
<desc>lat.=56.024765, lon.=26.528643, Alt.=102.221741m. Speed=14.832000m/h.</desc>
<speed>4.120000</speed>
</trkpt>
<trkpt lat="56.024803" lon="26.528694">
<ele>102.456116</ele>
<time>2010-08-29T10:29:26Z</time>
<desc>lat.=56.024803, lon.=26.528694, Alt.=102.456116m. Speed=16.848000m/h.</desc>
<speed>4.680000</speed>
</trkpt>
<trkpt lat="56.024830" lon="26.528748">
<ele>102.711975</ele>
<time>2010-08-29T10:29:27Z</time>
<desc>lat.=56.024830, lon.=26.528748, Alt.=102.711975m. Speed=16.200001m/h.</desc>
<speed>4.500000</speed>
</trkpt>
<trkpt lat="56.024860" lon="26.528797">
<ele>103.131897</ele>
<time>2010-08-29T10:29:28Z</time>
<desc>lat.=56.024860, lon.=26.528797, Alt.=103.131897m. Speed=16.308001m/h.</desc>
<speed>4.530000</speed>
</trkpt>
<trkpt lat="56.024891" lon="26.528847">
<ele>103.102600</ele>
<time>2010-08-29T10:29:29Z</time>
<desc>lat.=56.024891, lon.=26.528847, Alt.=103.102600m. Speed=14.688000m/h.</desc>
<speed>4.080000</speed>
</trkpt>
<trkpt lat="56.024918" lon="26.528893">
<ele>102.653381</ele>
<time>2010-08-29T10:29:30Z</time>
<desc>lat.=56.024918, lon.=26.528893, Alt.=102.653381m. Speed=15.084000m/h.</desc>
<speed>4.190000</speed>
</trkpt>
<trkpt lat="56.024948" lon="26.528940">
<ele>102.647522</ele>
<time>2010-08-29T10:29:31Z</time>
<desc>lat.=56.024948, lon.=26.528940, Alt.=102.647522m. Speed=15.300000m/h.</desc>
<speed>4.250000</speed>
</trkpt>
<trkpt lat="56.024975" lon="26.528992">
<ele>103.126038</ele>
<time>2010-08-29T10:29:32Z</time>
<desc>lat.=56.024975, lon.=26.528992, Alt.=103.126038m. Speed=14.076000m/h.</desc>
<speed>3.910000</speed>
</trkpt>
<trkpt lat="56.025002" lon="26.529037">
<ele>103.292053</ele>
<time>2010-08-29T10:29:33Z</time>
<desc>lat.=56.025002, lon.=26.529037, Alt.=103.292053m. Speed=15.552000m/h.</desc>
<speed>4.320000</speed>
</trkpt>
<trkpt lat="56.025028" lon="26.529079">
<ele>103.473694</ele>
<time>2010-08-29T10:29:34Z</time>
<desc>lat.=56.025028, lon.=26.529079, Alt.=103.473694m. Speed=13.680000m/h.</desc>
<speed>3.800000</speed>
</trkpt>
<trkpt lat="56.025047" lon="26.529116">
<ele>104.122131</ele>
<time>2010-08-29T10:29:35Z</time>
<desc>lat.=56.025047, lon.=26.529116, Alt.=104.122131m. Speed=10.980000m/h.</desc>
<speed>3.050000</speed>
</trkpt>
<trkpt lat="56.025063" lon="26.529135">
<ele>104.196350</ele>
<time>2010-08-29T10:29:36Z</time>
<desc>lat.=56.025063, lon.=26.529135, Alt.=104.196350m. Speed=6.444000m/h.</desc>
<speed>1.790000</speed>
</trkpt>
<trkpt lat="56.025074" lon="26.529146">
<ele>104.120178</ele>
<time>2010-08-29T10:29:37Z</time>
<desc>lat.=56.025074, lon.=26.529146, Alt.=104.120178m. Speed=2.880000m/h.</desc>
<speed>0.800000</speed>
</trkpt>
<trkpt lat="56.025074" lon="26.529158">
<ele>103.598694</ele>
<time>2010-08-29T10:29:38Z</time>
<desc>lat.=56.025074, lon.=26.529158, Alt.=103.598694m. Speed=1.656000m/h.</desc>
<speed>0.460000</speed>
</trkpt>
<trkpt lat="56.025074" lon="26.529161">
<ele>103.417053</ele>
<time>2010-08-29T10:29:39Z</time>
<desc>lat.=56.025074, lon.=26.529161, Alt.=103.417053m. Speed=0.972000m/h.</desc>
<speed>0.270000</speed>
</trkpt>
<trkpt lat="56.025074" lon="26.529158">
<ele>103.436584</ele>
<time>2010-08-29T10:29:40Z</time>
<desc>lat.=56.025074, lon.=26.529158, Alt.=103.436584m. Speed=0.252000m/h.</desc>
<speed>0.070000</speed>
</trkpt>
<trkpt lat="56.025074" lon="26.529158">
<ele>103.477600</ele>
<time>2010-08-29T10:29:41Z</time>
<desc>lat.=56.025074, lon.=26.529158, Alt.=103.477600m. Speed=0.144000m/h.</desc>
<speed>0.040000</speed>
</trkpt>
<trkpt lat="56.025074" lon="26.529158">
<ele>103.506897</ele>
<time>2010-08-29T10:29:42Z</time>
<desc>lat.=56.025074, lon.=26.529158, Alt.=103.506897m. Speed=0.612000m/h.</desc>
<speed>0.170000</speed>
</trkpt>
<trkpt lat="56.025070" lon="26.529156">
<ele>103.530334</ele>
<time>2010-08-29T10:29:43Z</time>
<desc>lat.=56.025070, lon.=26.529156, Alt.=103.530334m. Speed=0.576000m/h.</desc>
<speed>0.160000</speed>
</trkpt>
<trkpt lat="56.025070" lon="26.529156">
<ele>103.545959</ele>
<time>2010-08-29T10:29:44Z</time>
<desc>lat.=56.025070, lon.=26.529156, Alt.=103.545959m. Speed=0.144000m/h.</desc>
<speed>0.040000</speed>
</trkpt>
<trkpt lat="56.025070" lon="26.529156">
<ele>103.561584</ele>
<time>2010-08-29T10:29:45Z</time>
<desc>lat.=56.025070, lon.=26.529156, Alt.=103.561584m. Speed=0.468000m/h.</desc>
<speed>0.130000</speed>
</trkpt>
<trkpt lat="56.025070" lon="26.529154">
<ele>103.563538</ele>
<time>2010-08-29T10:29:46Z</time>
<desc>lat.=56.025070, lon.=26.529154, Alt.=103.563538m. Speed=0.396000m/h.</desc>
<speed>0.110000</speed>
</trkpt>
<trkpt lat="56.025070" lon="26.529152">
<ele>103.571350</ele>
<time>2010-08-29T10:29:47Z</time>
<desc>lat.=56.025070, lon.=26.529152, Alt.=103.571350m. Speed=0.072000m/h.</desc>
<speed>0.020000</speed>
</trkpt>
<trkpt lat="56.025066" lon="26.529152">
<ele>103.583069</ele>
<time>2010-08-29T10:29:48Z</time>
<desc>lat.=56.025066, lon.=26.529152, Alt.=103.583069m. Speed=0.324000m/h.</desc>
<speed>0.090000</speed>
</trkpt>
<trkpt lat="56.025066" lon="26.529152">
<ele>103.588928</ele>
<time>2010-08-29T10:29:49Z</time>
<desc>lat.=56.025066, lon.=26.529152, Alt.=103.588928m. Speed=0.144000m/h.</desc>
<speed>0.040000</speed>
</trkpt>
<trkpt lat="56.025066" lon="26.529152">
<ele>103.594788</ele>
<time>2010-08-29T10:29:50Z</time>
<desc>lat.=56.025066, lon.=26.529152, Alt.=103.594788m. Speed=0.000000m/h.</desc>
<speed>0.000000</speed>
</trkpt>
<trkpt lat="56.025066" lon="26.529150">
<ele>103.600647</ele>
<time>2010-08-29T10:29:51Z</time>
<desc>lat.=56.025066, lon.=26.529150, Alt.=103.600647m. Speed=0.036000m/h.</desc>
<speed>0.010000</speed>
</trkpt>
<trkpt lat="56.025066" lon="26.529150">
<ele>103.610413</ele>
<time>2010-08-29T10:29:52Z</time>
<desc>lat.=56.025066, lon.=26.529150, Alt.=103.610413m. Speed=0.324000m/h.</desc>
<speed>0.090000</speed>
</trkpt>
<trkpt lat="56.025066" lon="26.529150">
<ele>103.618225</ele>
<time>2010-08-29T10:29:53Z</time>
<desc>lat.=56.025066, lon.=26.529150, Alt.=103.618225m. Speed=0.396000m/h.</desc>
<speed>0.110000</speed>
</trkpt>
<trkpt lat="56.025066" lon="26.529148">
<ele>103.622131</ele>
<time>2010-08-29T10:29:54Z</time>
<desc>lat.=56.025066, lon.=26.529148, Alt.=103.622131m. Speed=0.216000m/h.</desc>
<speed>0.060000</speed>
</trkpt>
<trkpt lat="56.025066" lon="26.529148">
<ele>103.626038</ele>
<time>2010-08-29T10:29:55Z</time>
<desc>lat.=56.025066, lon.=26.529148, Alt.=103.626038m. Speed=0.216000m/h.</desc>
<speed>0.060000</speed>
</trkpt>
<trkpt lat="56.025066" lon="26.529148">
<ele>103.633850</ele>
<time>2010-08-29T10:29:56Z</time>
<desc>lat.=56.025066, lon.=26.529148, Alt.=103.633850m. Speed=0.000000m/h.</desc>
<speed>0.000000</speed>
</trkpt>
<trkpt lat="56.025066" lon="26.529148">
<ele>103.639709</ele>
<time>2010-08-29T10:29:57Z</time>
<desc>lat.=56.025066, lon.=26.529148, Alt.=103.639709m. Speed=0.108000m/h.</desc>
<speed>0.030000</speed>
</trkpt>
<trkpt lat="56.025066" lon="26.529148">
<ele>103.633850</ele>
<time>2010-08-29T10:29:58Z</time>
<desc>lat.=56.025066, lon.=26.529148, Alt.=103.633850m. Speed=0.000000m/h.</desc>
<speed>0.000000</speed>
</trkpt>
<trkpt lat="56.025066" lon="26.529148">
<ele>103.624084</ele>
<time>2010-08-29T10:29:59Z</time>
<desc>lat.=56.025066, lon.=26.529148, Alt.=103.624084m. Speed=0.072000m/h.</desc>
<speed>0.020000</speed>
</trkpt>
<trkpt lat="56.025066" lon="26.529148">
<ele>103.620178</ele>
<time>2010-08-29T10:30:00Z</time>
<desc>lat.=56.025066, lon.=26.529148, Alt.=103.620178m. Speed=0.036000m/h.</desc>
<speed>0.010000</speed>
</trkpt>
<trkpt lat="56.025066" lon="26.529148">
<ele>103.626038</ele>
<time>2010-08-29T10:30:01Z</time>
<desc>lat.=56.025066, lon.=26.529148, Alt.=103.626038m. Speed=0.000000m/h.</desc>
<speed>0.000000</speed>
</trkpt>
<trkpt lat="56.025066" lon="26.529148">
<ele>103.622131</ele>
<time>2010-08-29T10:30:02Z</time>
<desc>lat.=56.025066, lon.=26.529148, Alt.=103.622131m. Speed=0.072000m/h.</desc>
<speed>0.020000</speed>
</trkpt>
<trkpt lat="56.025066" lon="26.529148">
<ele>103.622131</ele>
<time>2010-08-29T10:30:03Z</time>
<desc>lat.=56.025066, lon.=26.529148, Alt.=103.622131m. Speed=0.000000m/h.</desc>
<speed>0.000000</speed>
</trkpt>
<trkpt lat="56.025066" lon="26.529148">
<ele>103.622131</ele>
<time>2010-08-29T10:30:04Z</time>
<desc>lat.=56.025066, lon.=26.529148, Alt.=103.622131m. Speed=0.036000m/h.</desc>
<speed>0.010000</speed>
</trkpt>
<trkpt lat="56.025066" lon="26.529148">
<ele>103.620178</ele>
<time>2010-08-29T10:30:05Z</time>
<desc>lat.=56.025066, lon.=26.529148, Alt.=103.620178m. Speed=0.180000m/h.</desc>
<speed>0.050000</speed>
</trkpt>
<trkpt lat="56.025066" lon="26.529148">
<ele>103.618225</ele>
<time>2010-08-29T10:30:06Z</time>
<desc>lat.=56.025066, lon.=26.529148, Alt.=103.618225m. Speed=0.072000m/h.</desc>
<speed>0.020000</speed>
</trkpt>
<trkpt lat="56.025066" lon="26.529148">
<ele>103.616272</ele>
<time>2010-08-29T10:30:07Z</time>
<desc>lat.=56.025066, lon.=26.529148, Alt.=103.616272m. Speed=0.180000m/h.</desc>
<speed>0.050000</speed>
</trkpt>
<trkpt lat="56.025066" lon="26.529150">
<ele>103.616272</ele>
<time>2010-08-29T10:30:08Z</time>
<desc>lat.=56.025066, lon.=26.529150, Alt.=103.616272m. Speed=0.000000m/h.</desc>
<speed>0.000000</speed>
</trkpt>
<trkpt lat="56.025066" lon="26.529150">
<ele>103.614319</ele>
<time>2010-08-29T10:30:09Z</time>
<desc>lat.=56.025066, lon.=26.529150, Alt.=103.614319m. Speed=0.108000m/h.</desc>
<speed>0.030000</speed>
</trkpt>
<trkpt lat="56.025066" lon="26.529150">
<ele>103.608459</ele>
<time>2010-08-29T10:30:10Z</time>
<desc>lat.=56.025066, lon.=26.529150, Alt.=103.608459m. Speed=0.036000m/h.</desc>
<speed>0.010000</speed>
</trkpt>
<trkpt lat="56.025066" lon="26.529150">
<ele>103.598694</ele>
<time>2010-08-29T10:30:11Z</time>
<desc>lat.=56.025066, lon.=26.529150, Alt.=103.598694m. Speed=0.180000m/h.</desc>
<speed>0.050000</speed>
</trkpt>
<trkpt lat="56.025066" lon="26.529150">
<ele>103.590881</ele>
<time>2010-08-29T10:30:12Z</time>
<desc>lat.=56.025066, lon.=26.529150, Alt.=103.590881m. Speed=0.000000m/h.</desc>
<speed>0.000000</speed>
</trkpt>
<trkpt lat="56.025066" lon="26.529150">
<ele>103.590881</ele>
<time>2010-08-29T10:30:13Z</time>
<desc>lat.=56.025066, lon.=26.529150, Alt.=103.590881m. Speed=0.108000m/h.</desc>
<speed>0.030000</speed>
</trkpt>
<trkpt lat="56.025066" lon="26.529150">
<ele>103.586975</ele>
<time>2010-08-29T10:30:14Z</time>
<desc>lat.=56.025066, lon.=26.529150, Alt.=103.586975m. Speed=0.000000m/h.</desc>
<speed>0.000000</speed>
</trkpt>
<trkpt lat="56.025066" lon="26.529150">
<ele>103.585022</ele>
<time>2010-08-29T10:30:15Z</time>
<desc>lat.=56.025066, lon.=26.529150, Alt.=103.585022m. Speed=0.180000m/h.</desc>
<speed>0.050000</speed>
</trkpt>
<trkpt lat="56.025066" lon="26.529150">
<ele>103.585022</ele>
<time>2010-08-29T10:30:16Z</time>
<desc>lat.=56.025066, lon.=26.529150, Alt.=103.585022m. Speed=0.072000m/h.</desc>
<speed>0.020000</speed>
</trkpt>
<trkpt lat="56.025066" lon="26.529150">
<ele>103.583069</ele>
<time>2010-08-29T10:30:17Z</time>
<desc>lat.=56.025066, lon.=26.529150, Alt.=103.583069m. Speed=0.000000m/h.</desc>
<speed>0.000000</speed>
</trkpt>
<trkpt lat="56.025066" lon="26.529150">
<ele>103.585022</ele>
<time>2010-08-29T10:30:18Z</time>
<desc>lat.=56.025066, lon.=26.529150, Alt.=103.585022m. Speed=0.000000m/h.</desc>
<speed>0.000000</speed>
</trkpt>
<trkpt lat="56.025066" lon="26.529150">
<ele>103.585022</ele>
<time>2010-08-29T10:30:19Z</time>
<desc>lat.=56.025066, lon.=26.529150, Alt.=103.585022m. Speed=0.072000m/h.</desc>
<speed>0.020000</speed>
</trkpt>
<trkpt lat="56.025066" lon="26.529150">
<ele>103.581116</ele>
<time>2010-08-29T10:30:20Z</time>
<desc>lat.=56.025066, lon.=26.529150, Alt.=103.581116m. Speed=0.144000m/h.</desc>
<speed>0.040000</speed>
</trkpt>
<trkpt lat="56.025066" lon="26.529150">
<ele>103.581116</ele>
<time>2010-08-29T10:30:21Z</time>
<desc>lat.=56.025066, lon.=26.529150, Alt.=103.581116m. Speed=0.036000m/h.</desc>
<speed>0.010000</speed>
</trkpt>
<trkpt lat="56.025066" lon="26.529150">
<ele>103.579163</ele>
<time>2010-08-29T10:30:22Z</time>
<desc>lat.=56.025066, lon.=26.529150, Alt.=103.579163m. Speed=0.036000m/h.</desc>
<speed>0.010000</speed>
</trkpt>
<trkpt lat="56.025066" lon="26.529150">
<ele>103.577209</ele>
<time>2010-08-29T10:30:23Z</time>
<desc>lat.=56.025066, lon.=26.529150, Alt.=103.577209m. Speed=0.036000m/h.</desc>
<speed>0.010000</speed>
</trkpt>
<trkpt lat="56.025066" lon="26.529150">
<ele>103.577209</ele>
<time>2010-08-29T10:30:24Z</time>
<desc>lat.=56.025066, lon.=26.529150, Alt.=103.577209m. Speed=0.036000m/h.</desc>
<speed>0.010000</speed>
</trkpt>
<trkpt lat="56.025066" lon="26.529150">
<ele>103.577209</ele>
<time>2010-08-29T10:30:25Z</time>
<desc>lat.=56.025066, lon.=26.529150, Alt.=103.577209m. Speed=0.000000m/h.</desc>
<speed>0.000000</speed>
</trkpt>
<trkpt lat="56.025066" lon="26.529150">
<ele>103.577209</ele>
<time>2010-08-29T10:30:26Z</time>
<desc>lat.=56.025066, lon.=26.529150, Alt.=103.577209m. Speed=0.108000m/h.</desc>
<speed>0.030000</speed>
</trkpt>
<trkpt lat="56.025066" lon="26.529150">
<ele>103.573303</ele>
<time>2010-08-29T10:30:27Z</time>
<desc>lat.=56.025066, lon.=26.529150, Alt.=103.573303m. Speed=0.180000m/h.</desc>
<speed>0.050000</speed>
</trkpt>
<trkpt lat="56.025066" lon="26.529152">
<ele>103.571350</ele>
<time>2010-08-29T10:30:28Z</time>
<desc>lat.=56.025066, lon.=26.529152, Alt.=103.571350m. Speed=0.396000m/h.</desc>
<speed>0.110000</speed>
</trkpt>
<trkpt lat="56.025066" lon="26.529152">
<ele>103.563538</ele>
<time>2010-08-29T10:30:29Z</time>
<desc>lat.=56.025066, lon.=26.529152, Alt.=103.563538m. Speed=0.576000m/h.</desc>
<speed>0.160000</speed>
</trkpt>
<trkpt lat="56.025066" lon="26.529152">
<ele>103.557678</ele>
<time>2010-08-29T10:30:30Z</time>
<desc>lat.=56.025066, lon.=26.529152, Alt.=103.557678m. Speed=0.720000m/h.</desc>
<speed>0.200000</speed>
</trkpt>
<trkpt lat="56.025066" lon="26.529156">
<ele>103.545959</ele>
<time>2010-08-29T10:30:31Z</time>
<desc>lat.=56.025066, lon.=26.529156, Alt.=103.545959m. Speed=1.188000m/h.</desc>
<speed>0.330000</speed>
</trkpt>
<trkpt lat="56.025070" lon="26.529160">
<ele>103.530334</ele>
<time>2010-08-29T10:30:32Z</time>
<desc>lat.=56.025070, lon.=26.529160, Alt.=103.530334m. Speed=3.996000m/h.</desc>
<speed>1.110000</speed>
</trkpt>
<trkpt lat="56.025093" lon="26.529202">
<ele>103.622131</ele>
<time>2010-08-29T10:30:33Z</time>
<desc>lat.=56.025093, lon.=26.529202, Alt.=103.622131m. Speed=12.096000m/h.</desc>
<speed>3.360000</speed>
</trkpt>
<trkpt lat="56.025116" lon="26.529253">
<ele>103.381897</ele>
<time>2010-08-29T10:30:34Z</time>
<desc>lat.=56.025116, lon.=26.529253, Alt.=103.381897m. Speed=13.824000m/h.</desc>
<speed>3.840000</speed>
</trkpt>
<trkpt lat="56.025146" lon="26.529308">
<ele>103.465881</ele>
<time>2010-08-29T10:30:35Z</time>
<desc>lat.=56.025146, lon.=26.529308, Alt.=103.465881m. Speed=14.904000m/h.</desc>
<speed>4.140000</speed>
</trkpt>
<trkpt lat="56.025177" lon="26.529358">
<ele>103.428772</ele>
<time>2010-08-29T10:30:36Z</time>
<desc>lat.=56.025177, lon.=26.529358, Alt.=103.428772m. Speed=14.004000m/h.</desc>
<speed>3.890000</speed>
</trkpt>
<trkpt lat="56.025204" lon="26.529408">
<ele>103.438538</ele>
<time>2010-08-29T10:30:37Z</time>
<desc>lat.=56.025204, lon.=26.529408, Alt.=103.438538m. Speed=13.932000m/h.</desc>
<speed>3.870000</speed>
</trkpt>
<trkpt lat="56.025230" lon="26.529459">
<ele>103.159241</ele>
<time>2010-08-29T10:30:38Z</time>
<desc>lat.=56.025230, lon.=26.529459, Alt.=103.159241m. Speed=15.372000m/h.</desc>
<speed>4.270000</speed>
</trkpt>
<trkpt lat="56.025261" lon="26.529514">
<ele>102.991272</ele>
<time>2010-08-29T10:30:39Z</time>
<desc>lat.=56.025261, lon.=26.529514, Alt.=102.991272m. Speed=15.444000m/h.</desc>
<speed>4.290000</speed>
</trkpt>
<trkpt lat="56.025288" lon="26.529579">
<ele>102.936584</ele>
<time>2010-08-29T10:30:40Z</time>
<desc>lat.=56.025288, lon.=26.529579, Alt.=102.936584m. Speed=14.976000m/h.</desc>
<speed>4.160000</speed>
</trkpt>
<trkpt lat="56.025322" lon="26.529631">
<ele>102.692444</ele>
<time>2010-08-29T10:30:41Z</time>
<desc>lat.=56.025322, lon.=26.529631, Alt.=102.692444m. Speed=15.660000m/h.</desc>
<speed>4.350000</speed>
</trkpt>
<trkpt lat="56.025352" lon="26.529688">
<ele>102.717834</ele>
<time>2010-08-29T10:30:42Z</time>
<desc>lat.=56.025352, lon.=26.529688, Alt.=102.717834m. Speed=14.796000m/h.</desc>
<speed>4.110000</speed>
</trkpt>
<trkpt lat="56.025379" lon="26.529751">
<ele>102.692444</ele>
<time>2010-08-29T10:30:43Z</time>
<desc>lat.=56.025379, lon.=26.529751, Alt.=102.692444m. Speed=15.084000m/h.</desc>
<speed>4.190000</speed>
</trkpt>
<trkpt lat="56.025398" lon="26.529816">
<ele>102.864319</ele>
<time>2010-08-29T10:30:44Z</time>
<desc>lat.=56.025398, lon.=26.529816, Alt.=102.864319m. Speed=15.336000m/h.</desc>
<speed>4.260000</speed>
</trkpt>
<trkpt lat="56.025429" lon="26.529894">
<ele>102.502991</ele>
<time>2010-08-29T10:30:45Z</time>
<desc>lat.=56.025429, lon.=26.529894, Alt.=102.502991m. Speed=16.848000m/h.</desc>
<speed>4.680000</speed>
</trkpt>
<trkpt lat="56.025455" lon="26.529982">
<ele>102.081116</ele>
<time>2010-08-29T10:30:46Z</time>
<desc>lat.=56.025455, lon.=26.529982, Alt.=102.081116m. Speed=16.236000m/h.</desc>
<speed>4.510000</speed>
</trkpt>
<trkpt lat="56.025478" lon="26.530056">
<ele>100.819397</ele>
<time>2010-08-29T10:30:47Z</time>
<desc>lat.=56.025478, lon.=26.530056, Alt.=100.819397m. Speed=15.768000m/h.</desc>
<speed>4.380000</speed>
</trkpt>
<trkpt lat="56.025501" lon="26.530117">
<ele>100.053772</ele>
<time>2010-08-29T10:30:48Z</time>
<desc>lat.=56.025501, lon.=26.530117, Alt.=100.053772m. Speed=14.112000m/h.</desc>
<speed>3.920000</speed>
</trkpt>
<trkpt lat="56.025520" lon="26.530169">
<ele>98.739319</ele>
<time>2010-08-29T10:30:49Z</time>
<desc>lat.=56.025520, lon.=26.530169, Alt.=98.739319m. Speed=12.888000m/h.</desc>
<speed>3.580000</speed>
</trkpt>
<trkpt lat="56.025551" lon="26.530216">
<ele>98.040100</ele>
<time>2010-08-29T10:30:50Z</time>
<desc>lat.=56.025551, lon.=26.530216, Alt.=98.040100m. Speed=12.924000m/h.</desc>
<speed>3.590000</speed>
</trkpt>
<trkpt lat="56.025570" lon="26.530256">
<ele>97.840881</ele>
<time>2010-08-29T10:30:51Z</time>
<desc>lat.=56.025570, lon.=26.530256, Alt.=97.840881m. Speed=12.024000m/h.</desc>
<speed>3.340000</speed>
</trkpt>
<trkpt lat="56.025589" lon="26.530293">
<ele>97.247131</ele>
<time>2010-08-29T10:30:52Z</time>
<desc>lat.=56.025589, lon.=26.530293, Alt.=97.247131m. Speed=9.792000m/h.</desc>
<speed>2.720000</speed>
</trkpt>
<trkpt lat="56.025604" lon="26.530334">
<ele>96.944397</ele>
<time>2010-08-29T10:30:53Z</time>
<desc>lat.=56.025604, lon.=26.530334, Alt.=96.944397m. Speed=11.412000m/h.</desc>
<speed>3.170000</speed>
</trkpt>
<trkpt lat="56.025620" lon="26.530380">
<ele>96.524475</ele>
<time>2010-08-29T10:30:54Z</time>
<desc>lat.=56.025620, lon.=26.530380, Alt.=96.524475m. Speed=12.024000m/h.</desc>
<speed>3.340000</speed>
</trkpt>
<trkpt lat="56.025639" lon="26.530436">
<ele>95.840881</ele>
<time>2010-08-29T10:30:55Z</time>
<desc>lat.=56.025639, lon.=26.530436, Alt.=95.840881m. Speed=11.664000m/h.</desc>
<speed>3.240000</speed>
</trkpt>
<trkpt lat="56.025654" lon="26.530500">
<ele>95.221741</ele>
<time>2010-08-29T10:30:56Z</time>
<desc>lat.=56.025654, lon.=26.530500, Alt.=95.221741m. Speed=12.456000m/h.</desc>
<speed>3.460000</speed>
</trkpt>
<trkpt lat="56.025665" lon="26.530548">
<ele>94.975647</ele>
<time>2010-08-29T10:30:57Z</time>
<desc>lat.=56.025665, lon.=26.530548, Alt.=94.975647m. Speed=9.432000m/h.</desc>
<speed>2.620000</speed>
</trkpt>
<trkpt lat="56.025688" lon="26.530600">
<ele>95.485413</ele>
<time>2010-08-29T10:30:58Z</time>
<desc>lat.=56.025688, lon.=26.530600, Alt.=95.485413m. Speed=10.152000m/h.</desc>
<speed>2.820000</speed>
</trkpt>
<trkpt lat="56.025719" lon="26.530642">
<ele>95.938538</ele>
<time>2010-08-29T10:30:59Z</time>
<desc>lat.=56.025719, lon.=26.530642, Alt.=95.938538m. Speed=12.276000m/h.</desc>
<speed>3.410000</speed>
</trkpt>
<trkpt lat="56.025749" lon="26.530701">
<ele>96.069397</ele>
<time>2010-08-29T10:31:00Z</time>
<desc>lat.=56.025749, lon.=26.530701, Alt.=96.069397m. Speed=12.492000m/h.</desc>
<speed>3.470000</speed>
</trkpt>
<trkpt lat="56.025772" lon="26.530773">
<ele>96.014709</ele>
<time>2010-08-29T10:31:01Z</time>
<desc>lat.=56.025772, lon.=26.530773, Alt.=96.014709m. Speed=13.140000m/h.</desc>
<speed>3.650000</speed>
</trkpt>
<trkpt lat="56.025795" lon="26.530836">
<ele>96.159241</ele>
<time>2010-08-29T10:31:02Z</time>
<desc>lat.=56.025795, lon.=26.530836, Alt.=96.159241m. Speed=11.916000m/h.</desc>
<speed>3.310000</speed>
</trkpt>
<trkpt lat="56.025814" lon="26.530897">
<ele>96.301819</ele>
<time>2010-08-29T10:31:03Z</time>
<desc>lat.=56.025814, lon.=26.530897, Alt.=96.301819m. Speed=12.744000m/h.</desc>
<speed>3.540000</speed>
</trkpt>
<trkpt lat="56.025829" lon="26.530964">
<ele>96.569397</ele>
<time>2010-08-29T10:31:04Z</time>
<desc>lat.=56.025829, lon.=26.530964, Alt.=96.569397m. Speed=12.024000m/h.</desc>
<speed>3.340000</speed>
</trkpt>
<trkpt lat="56.025845" lon="26.531031">
<ele>96.762756</ele>
<time>2010-08-29T10:31:05Z</time>
<desc>lat.=56.025845, lon.=26.531031, Alt.=96.762756m. Speed=12.600000m/h.</desc>
<speed>3.500000</speed>
</trkpt>
<trkpt lat="56.025856" lon="26.531096">
<ele>96.819397</ele>
<time>2010-08-29T10:31:06Z</time>
<desc>lat.=56.025856, lon.=26.531096, Alt.=96.819397m. Speed=11.772000m/h.</desc>
<speed>3.270000</speed>
</trkpt>
<trkpt lat="56.025860" lon="26.531149">
<ele>96.901428</ele>
<time>2010-08-29T10:31:07Z</time>
<desc>lat.=56.025860, lon.=26.531149, Alt.=96.901428m. Speed=9.468000m/h.</desc>
<speed>2.630000</speed>
</trkpt>
<trkpt lat="56.025875" lon="26.531204">
<ele>97.124084</ele>
<time>2010-08-29T10:31:08Z</time>
<desc>lat.=56.025875, lon.=26.531204, Alt.=97.124084m. Speed=10.980000m/h.</desc>
<speed>3.050000</speed>
</trkpt>
<trkpt lat="56.025883" lon="26.531265">
<ele>97.186584</ele>
<time>2010-08-29T10:31:09Z</time>
<desc>lat.=56.025883, lon.=26.531265, Alt.=97.186584m. Speed=11.124000m/h.</desc>
<speed>3.090000</speed>
</trkpt>
<trkpt lat="56.025890" lon="26.531301">
<ele>97.135803</ele>
<time>2010-08-29T10:31:10Z</time>
<desc>lat.=56.025890, lon.=26.531301, Alt.=97.135803m. Speed=9.828000m/h.</desc>
<speed>2.730000</speed>
</trkpt>
<trkpt lat="56.025906" lon="26.531338">
<ele>97.045959</ele>
<time>2010-08-29T10:31:11Z</time>
<desc>lat.=56.025906, lon.=26.531338, Alt.=97.045959m. Speed=8.820000m/h.</desc>
<speed>2.450000</speed>
</trkpt>
<trkpt lat="56.025898" lon="26.531359">
<ele>98.672913</ele>
<time>2010-08-29T10:31:12Z</time>
<desc>lat.=56.025898, lon.=26.531359, Alt.=98.672913m. Speed=2.592000m/h.</desc>
<speed>0.720000</speed>
</trkpt>
<trkpt lat="56.025898" lon="26.531366">
<ele>99.116272</ele>
<time>2010-08-29T10:31:13Z</time>
<desc>lat.=56.025898, lon.=26.531366, Alt.=99.116272m. Speed=0.576000m/h.</desc>
<speed>0.160000</speed>
</trkpt>
<trkpt lat="56.025894" lon="26.531364">
<ele>99.370178</ele>
<time>2010-08-29T10:31:14Z</time>
<desc>lat.=56.025894, lon.=26.531364, Alt.=99.370178m. Speed=0.540000m/h.</desc>
<speed>0.150000</speed>
</trkpt>
<trkpt lat="56.025890" lon="26.531364">
<ele>99.655334</ele>
<time>2010-08-29T10:31:15Z</time>
<desc>lat.=56.025890, lon.=26.531364, Alt.=99.655334m. Speed=0.360000m/h.</desc>
<speed>0.100000</speed>
</trkpt>
<trkpt lat="56.025890" lon="26.531366">
<ele>99.659241</ele>
<time>2010-08-29T10:31:16Z</time>
<desc>lat.=56.025890, lon.=26.531366, Alt.=99.659241m. Speed=0.396000m/h.</desc>
<speed>0.110000</speed>
</trkpt>
<trkpt lat="56.025890" lon="26.531366">
<ele>99.659241</ele>
<time>2010-08-29T10:31:17Z</time>
<desc>lat.=56.025890, lon.=26.531366, Alt.=99.659241m. Speed=0.288000m/h.</desc>
<speed>0.080000</speed>
</trkpt>
<trkpt lat="56.025890" lon="26.531368">
<ele>99.669006</ele>
<time>2010-08-29T10:31:18Z</time>
<desc>lat.=56.025890, lon.=26.531368, Alt.=99.669006m. Speed=0.576000m/h.</desc>
<speed>0.160000</speed>
</trkpt>
<trkpt lat="56.025890" lon="26.531372">
<ele>99.672913</ele>
<time>2010-08-29T10:31:19Z</time>
<desc>lat.=56.025890, lon.=26.531372, Alt.=99.672913m. Speed=0.648000m/h.</desc>
<speed>0.180000</speed>
</trkpt>
<trkpt lat="56.025890" lon="26.531374">
<ele>99.676819</ele>
<time>2010-08-29T10:31:20Z</time>
<desc>lat.=56.025890, lon.=26.531374, Alt.=99.676819m. Speed=0.540000m/h.</desc>
<speed>0.150000</speed>
</trkpt>
<trkpt lat="56.025890" lon="26.531378">
<ele>99.684631</ele>
<time>2010-08-29T10:31:21Z</time>
<desc>lat.=56.025890, lon.=26.531378, Alt.=99.684631m. Speed=0.684000m/h.</desc>
<speed>0.190000</speed>
</trkpt>
<trkpt lat="56.025890" lon="26.531380">
<ele>99.688538</ele>
<time>2010-08-29T10:31:22Z</time>
<desc>lat.=56.025890, lon.=26.531380, Alt.=99.688538m. Speed=0.756000m/h.</desc>
<speed>0.210000</speed>
</trkpt>
<trkpt lat="56.025890" lon="26.531384">
<ele>99.692444</ele>
<time>2010-08-29T10:31:23Z</time>
<desc>lat.=56.025890, lon.=26.531384, Alt.=99.692444m. Speed=0.684000m/h.</desc>
<speed>0.190000</speed>
</trkpt>
<trkpt lat="56.025890" lon="26.531387">
<ele>99.694397</ele>
<time>2010-08-29T10:31:24Z</time>
<desc>lat.=56.025890, lon.=26.531387, Alt.=99.694397m. Speed=0.720000m/h.</desc>
<speed>0.200000</speed>
</trkpt>
<trkpt lat="56.025890" lon="26.531389">
<ele>99.696350</ele>
<time>2010-08-29T10:31:25Z</time>
<desc>lat.=56.025890, lon.=26.531389, Alt.=99.696350m. Speed=1.476000m/h.</desc>
<speed>0.410000</speed>
</trkpt>
<trkpt lat="56.025890" lon="26.531397">
<ele>99.694397</ele>
<time>2010-08-29T10:31:26Z</time>
<desc>lat.=56.025890, lon.=26.531397, Alt.=99.694397m. Speed=1.260000m/h.</desc>
<speed>0.350000</speed>
</trkpt>
<trkpt lat="56.025890" lon="26.531403">
<ele>99.696350</ele>
<time>2010-08-29T10:31:27Z</time>
<desc>lat.=56.025890, lon.=26.531403, Alt.=99.696350m. Speed=0.864000m/h.</desc>
<speed>0.240000</speed>
</trkpt>
<trkpt lat="56.025890" lon="26.531406">
<ele>99.696350</ele>
<time>2010-08-29T10:31:28Z</time>
<desc>lat.=56.025890, lon.=26.531406, Alt.=99.696350m. Speed=0.864000m/h.</desc>
<speed>0.240000</speed>
</trkpt>
<trkpt lat="56.025890" lon="26.531410">
<ele>99.696350</ele>
<time>2010-08-29T10:31:29Z</time>
<desc>lat.=56.025890, lon.=26.531410, Alt.=99.696350m. Speed=0.720000m/h.</desc>
<speed>0.200000</speed>
</trkpt>
<trkpt lat="56.025890" lon="26.531412">
<ele>99.700256</ele>
<time>2010-08-29T10:31:30Z</time>
<desc>lat.=56.025890, lon.=26.531412, Alt.=99.700256m. Speed=0.864000m/h.</desc>
<speed>0.240000</speed>
</trkpt>
<trkpt lat="56.025890" lon="26.531416">
<ele>99.704163</ele>
<time>2010-08-29T10:31:31Z</time>
<desc>lat.=56.025890, lon.=26.531416, Alt.=99.704163m. Speed=0.576000m/h.</desc>
<speed>0.160000</speed>
</trkpt>
<trkpt lat="56.025890" lon="26.531420">
<ele>99.708069</ele>
<time>2010-08-29T10:31:32Z</time>
<desc>lat.=56.025890, lon.=26.531420, Alt.=99.708069m. Speed=0.504000m/h.</desc>
<speed>0.140000</speed>
</trkpt>
<trkpt lat="56.025890" lon="26.531422">
<ele>99.713928</ele>
<time>2010-08-29T10:31:33Z</time>
<desc>lat.=56.025890, lon.=26.531422, Alt.=99.713928m. Speed=0.252000m/h.</desc>
<speed>0.070000</speed>
</trkpt>
<trkpt lat="56.025890" lon="26.531424">
<ele>99.715881</ele>
<time>2010-08-29T10:31:34Z</time>
<desc>lat.=56.025890, lon.=26.531424, Alt.=99.715881m. Speed=0.216000m/h.</desc>
<speed>0.060000</speed>
</trkpt>
<trkpt lat="56.025890" lon="26.531424">
<ele>99.711975</ele>
<time>2010-08-29T10:31:35Z</time>
<desc>lat.=56.025890, lon.=26.531424, Alt.=99.711975m. Speed=0.504000m/h.</desc>
<speed>0.140000</speed>
</trkpt>
<trkpt lat="56.025890" lon="26.531425">
<ele>99.710022</ele>
<time>2010-08-29T10:31:36Z</time>
<desc>lat.=56.025890, lon.=26.531425, Alt.=99.710022m. Speed=0.180000m/h.</desc>
<speed>0.050000</speed>
</trkpt>
<trkpt lat="56.025890" lon="26.531425">
<ele>99.708069</ele>
<time>2010-08-29T10:31:37Z</time>
<desc>lat.=56.025890, lon.=26.531425, Alt.=99.708069m. Speed=0.144000m/h.</desc>
<speed>0.040000</speed>
</trkpt>
<trkpt lat="56.025890" lon="26.531427">
<ele>99.708069</ele>
<time>2010-08-29T10:31:38Z</time>
<desc>lat.=56.025890, lon.=26.531427, Alt.=99.708069m. Speed=0.072000m/h.</desc>
<speed>0.020000</speed>
</trkpt>
<trkpt lat="56.025890" lon="26.531427">
<ele>99.708069</ele>
<time>2010-08-29T10:31:39Z</time>
<desc>lat.=56.025890, lon.=26.531427, Alt.=99.708069m. Speed=0.324000m/h.</desc>
<speed>0.090000</speed>
</trkpt>
<trkpt lat="56.025890" lon="26.531429">
<ele>99.715881</ele>
<time>2010-08-29T10:31:40Z</time>
<desc>lat.=56.025890, lon.=26.531429, Alt.=99.715881m. Speed=0.432000m/h.</desc>
<speed>0.120000</speed>
</trkpt>
<trkpt lat="56.025894" lon="26.531429">
<ele>99.719788</ele>
<time>2010-08-29T10:31:41Z</time>
<desc>lat.=56.025894, lon.=26.531429, Alt.=99.719788m. Speed=0.792000m/h.</desc>
<speed>0.220000</speed>
</trkpt>
<trkpt lat="56.025890" lon="26.531433">
<ele>99.725647</ele>
<time>2010-08-29T10:31:42Z</time>
<desc>lat.=56.025890, lon.=26.531433, Alt.=99.725647m. Speed=0.504000m/h.</desc>
<speed>0.140000</speed>
</trkpt>
<trkpt lat="56.025890" lon="26.531433">
<ele>99.727600</ele>
<time>2010-08-29T10:31:43Z</time>
<desc>lat.=56.025890, lon.=26.531433, Alt.=99.727600m. Speed=0.720000m/h.</desc>
<speed>0.200000</speed>
</trkpt>
<trkpt lat="56.025890" lon="26.531435">
<ele>99.731506</ele>
<time>2010-08-29T10:31:44Z</time>
<desc>lat.=56.025890, lon.=26.531435, Alt.=99.731506m. Speed=0.360000m/h.</desc>
<speed>0.100000</speed>
</trkpt>
<trkpt lat="56.025890" lon="26.531433">
<ele>99.733459</ele>
<time>2010-08-29T10:31:45Z</time>
<desc>lat.=56.025890, lon.=26.531433, Alt.=99.733459m. Speed=0.540000m/h.</desc>
<speed>0.150000</speed>
</trkpt>
<trkpt lat="56.025890" lon="26.531431">
<ele>99.735413</ele>
<time>2010-08-29T10:31:46Z</time>
<desc>lat.=56.025890, lon.=26.531431, Alt.=99.735413m. Speed=0.792000m/h.</desc>
<speed>0.220000</speed>
</trkpt>
<trkpt lat="56.025890" lon="26.531429">
<ele>99.733459</ele>
<time>2010-08-29T10:31:47Z</time>
<desc>lat.=56.025890, lon.=26.531429, Alt.=99.733459m. Speed=0.972000m/h.</desc>
<speed>0.270000</speed>
</trkpt>
<trkpt lat="56.025894" lon="26.531427">
<ele>99.733459</ele>
<time>2010-08-29T10:31:48Z</time>
<desc>lat.=56.025894, lon.=26.531427, Alt.=99.733459m. Speed=0.432000m/h.</desc>
<speed>0.120000</speed>
</trkpt>
<trkpt lat="56.025894" lon="26.531427">
<ele>99.737366</ele>
<time>2010-08-29T10:31:49Z</time>
<desc>lat.=56.025894, lon.=26.531427, Alt.=99.737366m. Speed=0.648000m/h.</desc>
<speed>0.180000</speed>
</trkpt>
<trkpt lat="56.025898" lon="26.531425">
<ele>99.735413</ele>
<time>2010-08-29T10:31:50Z</time>
<desc>lat.=56.025898, lon.=26.531425, Alt.=99.735413m. Speed=1.800000m/h.</desc>
<speed>0.500000</speed>
</trkpt>
<trkpt lat="56.025894" lon="26.531418">
<ele>99.739319</ele>
<time>2010-08-29T10:31:51Z</time>
<desc>lat.=56.025894, lon.=26.531418, Alt.=99.739319m. Speed=2.052000m/h.</desc>
<speed>0.570000</speed>
</trkpt>
<trkpt lat="56.025894" lon="26.531408">
<ele>99.737366</ele>
<time>2010-08-29T10:31:52Z</time>
<desc>lat.=56.025894, lon.=26.531408, Alt.=99.737366m. Speed=2.268000m/h.</desc>
<speed>0.630000</speed>
</trkpt>
<trkpt lat="56.025894" lon="26.531397">
<ele>99.741272</ele>
<time>2010-08-29T10:31:53Z</time>
<desc>lat.=56.025894, lon.=26.531397, Alt.=99.741272m. Speed=2.736000m/h.</desc>
<speed>0.760000</speed>
</trkpt>
<trkpt lat="56.025894" lon="26.531385">
<ele>99.745178</ele>
<time>2010-08-29T10:31:54Z</time>
<desc>lat.=56.025894, lon.=26.531385, Alt.=99.745178m. Speed=3.672000m/h.</desc>
<speed>1.020000</speed>
</trkpt>
<trkpt lat="56.025898" lon="26.531372">
<ele>99.463928</ele>
<time>2010-08-29T10:31:55Z</time>
<desc>lat.=56.025898, lon.=26.531372, Alt.=99.463928m. Speed=3.744000m/h.</desc>
<speed>1.040000</speed>
</trkpt>
<trkpt lat="56.025902" lon="26.531326">
<ele>99.272522</ele>
<time>2010-08-29T10:31:56Z</time>
<desc>lat.=56.025902, lon.=26.531326, Alt.=99.272522m. Speed=4.896000m/h.</desc>
<speed>1.360000</speed>
</trkpt>
<trkpt lat="56.025902" lon="26.531307">
<ele>99.387756</ele>
<time>2010-08-29T10:31:57Z</time>
<desc>lat.=56.025902, lon.=26.531307, Alt.=99.387756m. Speed=4.572000m/h.</desc>
<speed>1.270000</speed>
</trkpt>
<trkpt lat="56.025898" lon="26.531284">
<ele>99.452209</ele>
<time>2010-08-29T10:31:58Z</time>
<desc>lat.=56.025898, lon.=26.531284, Alt.=99.452209m. Speed=5.796000m/h.</desc>
<speed>1.610000</speed>
</trkpt>
<trkpt lat="56.025898" lon="26.531256">
<ele>99.491272</ele>
<time>2010-08-29T10:31:59Z</time>
<desc>lat.=56.025898, lon.=26.531256, Alt.=99.491272m. Speed=6.444000m/h.</desc>
<speed>1.790000</speed>
</trkpt>
<trkpt lat="56.025890" lon="26.531223">
<ele>99.446350</ele>
<time>2010-08-29T10:32:00Z</time>
<desc>lat.=56.025890, lon.=26.531223, Alt.=99.446350m. Speed=7.812000m/h.</desc>
<speed>2.170000</speed>
</trkpt>
<trkpt lat="56.025887" lon="26.531187">
<ele>99.333069</ele>
<time>2010-08-29T10:32:01Z</time>
<desc>lat.=56.025887, lon.=26.531187, Alt.=99.333069m. Speed=6.660000m/h.</desc>
<speed>1.850000</speed>
</trkpt>
<trkpt lat="56.025887" lon="26.531130">
<ele>99.127991</ele>
<time>2010-08-29T10:32:02Z</time>
<desc>lat.=56.025887, lon.=26.531130, Alt.=99.127991m. Speed=5.904000m/h.</desc>
<speed>1.640000</speed>
</trkpt>
<trkpt lat="56.025890" lon="26.531101">
<ele>98.696350</ele>
<time>2010-08-29T10:32:03Z</time>
<desc>lat.=56.025890, lon.=26.531101, Alt.=98.696350m. Speed=6.696000m/h.</desc>
<speed>1.860000</speed>
</trkpt>
<trkpt lat="56.025887" lon="26.531067">
<ele>98.829163</ele>
<time>2010-08-29T10:32:04Z</time>
<desc>lat.=56.025887, lon.=26.531067, Alt.=98.829163m. Speed=8.352000m/h.</desc>
<speed>2.320000</speed>
</trkpt>
<trkpt lat="56.025883" lon="26.531027">
<ele>98.872131</ele>
<time>2010-08-29T10:32:05Z</time>
<desc>lat.=56.025883, lon.=26.531027, Alt.=98.872131m. Speed=9.828000m/h.</desc>
<speed>2.730000</speed>
</trkpt>
<trkpt lat="56.025875" lon="26.530983">
<ele>99.026428</ele>
<time>2010-08-29T10:32:06Z</time>
<desc>lat.=56.025875, lon.=26.530983, Alt.=99.026428m. Speed=9.324000m/h.</desc>
<speed>2.590000</speed>
</trkpt>
<trkpt lat="56.025867" lon="26.530943">
<ele>99.497131</ele>
<time>2010-08-29T10:32:07Z</time>
<desc>lat.=56.025867, lon.=26.530943, Alt.=99.497131m. Speed=10.188000m/h.</desc>
<speed>2.830000</speed>
</trkpt>
<trkpt lat="56.025864" lon="26.530899">
<ele>100.127991</ele>
<time>2010-08-29T10:32:08Z</time>
<desc>lat.=56.025864, lon.=26.530899, Alt.=100.127991m. Speed=7.632000m/h.</desc>
<speed>2.120000</speed>
</trkpt>
<trkpt lat="56.025852" lon="26.530872">
<ele>101.188538</ele>
<time>2010-08-29T10:32:09Z</time>
<desc>lat.=56.025852, lon.=26.530872, Alt.=101.188538m. Speed=6.912000m/h.</desc>
<speed>1.920000</speed>
</trkpt>
<trkpt lat="56.025837" lon="26.530842">
<ele>101.467834</ele>
<time>2010-08-29T10:32:10Z</time>
<desc>lat.=56.025837, lon.=26.530842, Alt.=101.467834m. Speed=7.992000m/h.</desc>
<speed>2.220000</speed>
</trkpt>
<trkpt lat="56.025822" lon="26.530813">
<ele>101.563538</ele>
<time>2010-08-29T10:32:11Z</time>
<desc>lat.=56.025822, lon.=26.530813, Alt.=101.563538m. Speed=8.244000m/h.</desc>
<speed>2.290000</speed>
</trkpt>
<trkpt lat="56.025803" lon="26.530773">
<ele>101.926819</ele>
<time>2010-08-29T10:32:12Z</time>
<desc>lat.=56.025803, lon.=26.530773, Alt.=101.926819m. Speed=10.692000m/h.</desc>
<speed>2.970000</speed>
</trkpt>
<trkpt lat="56.025787" lon="26.530714">
<ele>101.932678</ele>
<time>2010-08-29T10:32:13Z</time>
<desc>lat.=56.025787, lon.=26.530714, Alt.=101.932678m. Speed=10.836000m/h.</desc>
<speed>3.010000</speed>
</trkpt>
<trkpt lat="56.025776" lon="26.530668">
<ele>102.249084</ele>
<time>2010-08-29T10:32:14Z</time>
<desc>lat.=56.025776, lon.=26.530668, Alt.=102.249084m. Speed=10.836000m/h.</desc>
<speed>3.010000</speed>
</trkpt>
<trkpt lat="56.025757" lon="26.530638">
<ele>102.602600</ele>
<time>2010-08-29T10:32:15Z</time>
<desc>lat.=56.025757, lon.=26.530638, Alt.=102.602600m. Speed=8.136000m/h.</desc>
<speed>2.260000</speed>
</trkpt>
<trkpt lat="56.025749" lon="26.530615">
<ele>103.002991</ele>
<time>2010-08-29T10:32:16Z</time>
<desc>lat.=56.025749, lon.=26.530615, Alt.=103.002991m. Speed=7.236000m/h.</desc>
<speed>2.010000</speed>
</trkpt>
<trkpt lat="56.025730" lon="26.530575">
<ele>103.569397</ele>
<time>2010-08-29T10:32:17Z</time>
<desc>lat.=56.025730, lon.=26.530575, Alt.=103.569397m. Speed=9.684000m/h.</desc>
<speed>2.690000</speed>
</trkpt>
<trkpt lat="56.025711" lon="26.530540">
<ele>103.797913</ele>
<time>2010-08-29T10:32:18Z</time>
<desc>lat.=56.025711, lon.=26.530540, Alt.=103.797913m. Speed=10.476000m/h.</desc>
<speed>2.910000</speed>
</trkpt>
<trkpt lat="56.025688" lon="26.530504">
<ele>103.502991</ele>
<time>2010-08-29T10:32:19Z</time>
<desc>lat.=56.025688, lon.=26.530504, Alt.=103.502991m. Speed=11.880000m/h.</desc>
<speed>3.300000</speed>
</trkpt>
<trkpt lat="56.025665" lon="26.530474">
<ele>103.711975</ele>
<time>2010-08-29T10:32:20Z</time>
<desc>lat.=56.025665, lon.=26.530474, Alt.=103.711975m. Speed=10.368000m/h.</desc>
<speed>2.880000</speed>
</trkpt>
<trkpt lat="56.025650" lon="26.530437">
<ele>104.106506</ele>
<time>2010-08-29T10:32:21Z</time>
<desc>lat.=56.025650, lon.=26.530437, Alt.=104.106506m. Speed=9.216000m/h.</desc>
<speed>2.560000</speed>
</trkpt>
<trkpt lat="56.025631" lon="26.530392">
<ele>104.397522</ele>
<time>2010-08-29T10:32:22Z</time>
<desc>lat.=56.025631, lon.=26.530392, Alt.=104.397522m. Speed=8.892000m/h.</desc>
<speed>2.470000</speed>
</trkpt>
<trkpt lat="56.025612" lon="26.530350">
<ele>105.038147</ele>
<time>2010-08-29T10:32:23Z</time>
<desc>lat.=56.025612, lon.=26.530350, Alt.=105.038147m. Speed=6.516000m/h.</desc>
<speed>1.810000</speed>
</trkpt>
<trkpt lat="56.025589" lon="26.530277">
<ele>104.627991</ele>
<time>2010-08-29T10:32:24Z</time>
<desc>lat.=56.025589, lon.=26.530277, Alt.=104.627991m. Speed=7.956000m/h.</desc>
<speed>2.210000</speed>
</trkpt>
<trkpt lat="56.025574" lon="26.530247">
<ele>105.077209</ele>
<time>2010-08-29T10:32:25Z</time>
<desc>lat.=56.025574, lon.=26.530247, Alt.=105.077209m. Speed=6.444000m/h.</desc>
<speed>1.790000</speed>
</trkpt>
<trkpt lat="56.025562" lon="26.530209">
<ele>105.286194</ele>
<time>2010-08-29T10:32:26Z</time>
<desc>lat.=56.025562, lon.=26.530209, Alt.=105.286194m. Speed=5.796000m/h.</desc>
<speed>1.610000</speed>
</trkpt>
<trkpt lat="56.025558" lon="26.530176">
<ele>105.663147</ele>
<time>2010-08-29T10:32:27Z</time>
<desc>lat.=56.025558, lon.=26.530176, Alt.=105.663147m. Speed=4.752000m/h.</desc>
<speed>1.320000</speed>
</trkpt>
<trkpt lat="56.025555" lon="26.530149">
<ele>106.231506</ele>
<time>2010-08-29T10:32:28Z</time>
<desc>lat.=56.025555, lon.=26.530149, Alt.=106.231506m. Speed=3.672000m/h.</desc>
<speed>1.020000</speed>
</trkpt>
<trkpt lat="56.025551" lon="26.530132">
<ele>106.432678</ele>
<time>2010-08-29T10:32:29Z</time>
<desc>lat.=56.025551, lon.=26.530132, Alt.=106.432678m. Speed=3.564000m/h.</desc>
<speed>0.990000</speed>
</trkpt>
<trkpt lat="56.025543" lon="26.530100">
<ele>106.540100</ele>
<time>2010-08-29T10:32:30Z</time>
<desc>lat.=56.025543, lon.=26.530100, Alt.=106.540100m. Speed=8.028000m/h.</desc>
<speed>2.230000</speed>
</trkpt>
<trkpt lat="56.025524" lon="26.530058">
<ele>107.169006</ele>
<time>2010-08-29T10:32:31Z</time>
<desc>lat.=56.025524, lon.=26.530058, Alt.=107.169006m. Speed=9.828000m/h.</desc>
<speed>2.730000</speed>
</trkpt>
<trkpt lat="56.025513" lon="26.530014">
<ele>107.085022</ele>
<time>2010-08-29T10:32:32Z</time>
<desc>lat.=56.025513, lon.=26.530014, Alt.=107.085022m. Speed=11.196000m/h.</desc>
<speed>3.110000</speed>
</trkpt>
<trkpt lat="56.025497" lon="26.529959">
<ele>106.489319</ele>
<time>2010-08-29T10:32:33Z</time>
<desc>lat.=56.025497, lon.=26.529959, Alt.=106.489319m. Speed=11.268000m/h.</desc>
<speed>3.130000</speed>
</trkpt>
<trkpt lat="56.025478" lon="26.529913">
<ele>106.788147</ele>
<time>2010-08-29T10:32:34Z</time>
<desc>lat.=56.025478, lon.=26.529913, Alt.=106.788147m. Speed=11.448000m/h.</desc>
<speed>3.180000</speed>
</trkpt>
<trkpt lat="56.025463" lon="26.529865">
<ele>106.856506</ele>
<time>2010-08-29T10:32:35Z</time>
<desc>lat.=56.025463, lon.=26.529865, Alt.=106.856506m. Speed=12.636000m/h.</desc>
<speed>3.510000</speed>
</trkpt>
<trkpt lat="56.025436" lon="26.529808">
<ele>107.038147</ele>
<time>2010-08-29T10:32:36Z</time>
<desc>lat.=56.025436, lon.=26.529808, Alt.=107.038147m. Speed=12.780000m/h.</desc>
<speed>3.550000</speed>
</trkpt>
<trkpt lat="56.025406" lon="26.529757">
<ele>106.477600</ele>
<time>2010-08-29T10:32:37Z</time>
<desc>lat.=56.025406, lon.=26.529757, Alt.=106.477600m. Speed=12.996000m/h.</desc>
<speed>3.610000</speed>
</trkpt>
<trkpt lat="56.025379" lon="26.529715">
<ele>105.561584</ele>
<time>2010-08-29T10:32:38Z</time>
<desc>lat.=56.025379, lon.=26.529715, Alt.=105.561584m. Speed=12.888000m/h.</desc>
<speed>3.580000</speed>
</trkpt>
<trkpt lat="56.025352" lon="26.529665">
<ele>105.536194</ele>
<time>2010-08-29T10:32:39Z</time>
<desc>lat.=56.025352, lon.=26.529665, Alt.=105.536194m. Speed=12.888000m/h.</desc>
<speed>3.580000</speed>
</trkpt>
<trkpt lat="56.025326" lon="26.529621">
<ele>105.204163</ele>
<time>2010-08-29T10:32:40Z</time>
<desc>lat.=56.025326, lon.=26.529621, Alt.=105.204163m. Speed=13.068000m/h.</desc>
<speed>3.630000</speed>
</trkpt>
<trkpt lat="56.025299" lon="26.529581">
<ele>105.122131</ele>
<time>2010-08-29T10:32:41Z</time>
<desc>lat.=56.025299, lon.=26.529581, Alt.=105.122131m. Speed=12.924000m/h.</desc>
<speed>3.590000</speed>
</trkpt>
<trkpt lat="56.025276" lon="26.529545">
<ele>105.184631</ele>
<time>2010-08-29T10:32:42Z</time>
<desc>lat.=56.025276, lon.=26.529545, Alt.=105.184631m. Speed=13.680000m/h.</desc>
<speed>3.800000</speed>
</trkpt>
<trkpt lat="56.025253" lon="26.529505">
<ele>104.295959</ele>
<time>2010-08-29T10:32:43Z</time>
<desc>lat.=56.025253, lon.=26.529505, Alt.=104.295959m. Speed=13.428000m/h.</desc>
<speed>3.730000</speed>
</trkpt>
<trkpt lat="56.025227" lon="26.529465">
<ele>103.534241</ele>
<time>2010-08-29T10:32:44Z</time>
<desc>lat.=56.025227, lon.=26.529465, Alt.=103.534241m. Speed=13.140000m/h.</desc>
<speed>3.650000</speed>
</trkpt>
<trkpt lat="56.025200" lon="26.529417">
<ele>103.227600</ele>
<time>2010-08-29T10:32:45Z</time>
<desc>lat.=56.025200, lon.=26.529417, Alt.=103.227600m. Speed=13.608000m/h.</desc>
<speed>3.780000</speed>
</trkpt>
<trkpt lat="56.025173" lon="26.529375">
<ele>102.995178</ele>
<time>2010-08-29T10:32:46Z</time>
<desc>lat.=56.025173, lon.=26.529375, Alt.=102.995178m. Speed=14.436000m/h.</desc>
<speed>4.010000</speed>
</trkpt>
<trkpt lat="56.025146" lon="26.529329">
<ele>102.801819</ele>
<time>2010-08-29T10:32:47Z</time>
<desc>lat.=56.025146, lon.=26.529329, Alt.=102.801819m. Speed=13.788000m/h.</desc>
<speed>3.830000</speed>
</trkpt>
<trkpt lat="56.025124" lon="26.529291">
<ele>102.446350</ele>
<time>2010-08-29T10:32:48Z</time>
<desc>lat.=56.025124, lon.=26.529291, Alt.=102.446350m. Speed=13.572000m/h.</desc>
<speed>3.770000</speed>
</trkpt>
<trkpt lat="56.025101" lon="26.529249">
<ele>101.948303</ele>
<time>2010-08-29T10:32:49Z</time>
<desc>lat.=56.025101, lon.=26.529249, Alt.=101.948303m. Speed=12.276000m/h.</desc>
<speed>3.410000</speed>
</trkpt>
<trkpt lat="56.025078" lon="26.529215">
<ele>101.645569</ele>
<time>2010-08-29T10:32:50Z</time>
<desc>lat.=56.025078, lon.=26.529215, Alt.=101.645569m. Speed=13.320000m/h.</desc>
<speed>3.700000</speed>
</trkpt>
<trkpt lat="56.025051" lon="26.529171">
<ele>101.508850</ele>
<time>2010-08-29T10:32:51Z</time>
<desc>lat.=56.025051, lon.=26.529171, Alt.=101.508850m. Speed=13.896000m/h.</desc>
<speed>3.860000</speed>
</trkpt>
<trkpt lat="56.025024" lon="26.529118">
<ele>101.751038</ele>
<time>2010-08-29T10:32:52Z</time>
<desc>lat.=56.025024, lon.=26.529118, Alt.=101.751038m. Speed=13.284000m/h.</desc>
<speed>3.690000</speed>
</trkpt>
<trkpt lat="56.025002" lon="26.529076">
<ele>101.917053</ele>
<time>2010-08-29T10:32:53Z</time>
<desc>lat.=56.025002, lon.=26.529076, Alt.=101.917053m. Speed=13.860000m/h.</desc>
<speed>3.850000</speed>
</trkpt>
<trkpt lat="56.024979" lon="26.529039">
<ele>101.999084</ele>
<time>2010-08-29T10:32:54Z</time>
<desc>lat.=56.024979, lon.=26.529039, Alt.=101.999084m. Speed=13.644000m/h.</desc>
<speed>3.790000</speed>
</trkpt>
<trkpt lat="56.024960" lon="26.528997">
<ele>101.946350</ele>
<time>2010-08-29T10:32:55Z</time>
<desc>lat.=56.024960, lon.=26.528997, Alt.=101.946350m. Speed=12.960000m/h.</desc>
<speed>3.600000</speed>
</trkpt>
<trkpt lat="56.024929" lon="26.528950">
<ele>101.862366</ele>
<time>2010-08-29T10:32:56Z</time>
<desc>lat.=56.024929, lon.=26.528950, Alt.=101.862366m. Speed=14.976000m/h.</desc>
<speed>4.160000</speed>
</trkpt>
<trkpt lat="56.024899" lon="26.528904">
<ele>101.985413</ele>
<time>2010-08-29T10:32:57Z</time>
<desc>lat.=56.024899, lon.=26.528904, Alt.=101.985413m. Speed=15.228000m/h.</desc>
<speed>4.230000</speed>
</trkpt>
<trkpt lat="56.024872" lon="26.528858">
<ele>101.981506</ele>
<time>2010-08-29T10:32:58Z</time>
<desc>lat.=56.024872, lon.=26.528858, Alt.=101.981506m. Speed=15.624000m/h.</desc>
<speed>4.340000</speed>
</trkpt>
<trkpt lat="56.024845" lon="26.528814">
<ele>102.368225</ele>
<time>2010-08-29T10:32:59Z</time>
<desc>lat.=56.024845, lon.=26.528814, Alt.=102.368225m. Speed=15.408000m/h.</desc>
<speed>4.280000</speed>
</trkpt>
<trkpt lat="56.024818" lon="26.528772">
<ele>101.895569</ele>
<time>2010-08-29T10:33:00Z</time>
<desc>lat.=56.024818, lon.=26.528772, Alt.=101.895569m. Speed=15.588000m/h.</desc>
<speed>4.330000</speed>
</trkpt>
<trkpt lat="56.024792" lon="26.528727">
<ele>101.915100</ele>
<time>2010-08-29T10:33:01Z</time>
<desc>lat.=56.024792, lon.=26.528727, Alt.=101.915100m. Speed=14.544000m/h.</desc>
<speed>4.040000</speed>
</trkpt>
<trkpt lat="56.024765" lon="26.528683">
<ele>102.217834</ele>
<time>2010-08-29T10:33:02Z</time>
<desc>lat.=56.024765, lon.=26.528683, Alt.=102.217834m. Speed=14.400000m/h.</desc>
<speed>4.000000</speed>
</trkpt>
<trkpt lat="56.024738" lon="26.528641">
<ele>102.729553</ele>
<time>2010-08-29T10:33:03Z</time>
<desc>lat.=56.024738, lon.=26.528641, Alt.=102.729553m. Speed=13.536000m/h.</desc>
<speed>3.760000</speed>
</trkpt>
<trkpt lat="56.024708" lon="26.528603">
<ele>102.588928</ele>
<time>2010-08-29T10:33:04Z</time>
<desc>lat.=56.024708, lon.=26.528603, Alt.=102.588928m. Speed=13.788000m/h.</desc>
<speed>3.830000</speed>
</trkpt>
<trkpt lat="56.024681" lon="26.528566">
<ele>102.524475</ele>
<time>2010-08-29T10:33:05Z</time>
<desc>lat.=56.024681, lon.=26.528566, Alt.=102.524475m. Speed=12.744000m/h.</desc>
<speed>3.540000</speed>
</trkpt>
<trkpt lat="56.024658" lon="26.528524">
<ele>102.594788</ele>
<time>2010-08-29T10:33:06Z</time>
<desc>lat.=56.024658, lon.=26.528524, Alt.=102.594788m. Speed=12.420000m/h.</desc>
<speed>3.450000</speed>
</trkpt>
<trkpt lat="56.024628" lon="26.528481">
<ele>102.782288</ele>
<time>2010-08-29T10:33:07Z</time>
<desc>lat.=56.024628, lon.=26.528481, Alt.=102.782288m. Speed=13.212000m/h.</desc>
<speed>3.670000</speed>
</trkpt>
<trkpt lat="56.024597" lon="26.528431">
<ele>102.987366</ele>
<time>2010-08-29T10:33:08Z</time>
<desc>lat.=56.024597, lon.=26.528431, Alt.=102.987366m. Speed=13.284000m/h.</desc>
<speed>3.690000</speed>
</trkpt>
<trkpt lat="56.024578" lon="26.528395">
<ele>103.040100</ele>
<time>2010-08-29T10:33:09Z</time>
<desc>lat.=56.024578, lon.=26.528395, Alt.=103.040100m. Speed=13.320000m/h.</desc>
<speed>3.700000</speed>
</trkpt>
<trkpt lat="56.024544" lon="26.528347">
<ele>102.610413</ele>
<time>2010-08-29T10:33:10Z</time>
<desc>lat.=56.024544, lon.=26.528347, Alt.=102.610413m. Speed=14.472000m/h.</desc>
<speed>4.020000</speed>
</trkpt>
<trkpt lat="56.024509" lon="26.528303">
<ele>101.920959</ele>
<time>2010-08-29T10:33:11Z</time>
<desc>lat.=56.024509, lon.=26.528303, Alt.=101.920959m. Speed=15.732000m/h.</desc>
<speed>4.370000</speed>
</trkpt>
<trkpt lat="56.024479" lon="26.528250">
<ele>101.831116</ele>
<time>2010-08-29T10:33:12Z</time>
<desc>lat.=56.024479, lon.=26.528250, Alt.=101.831116m. Speed=16.308001m/h.</desc>
<speed>4.530000</speed>
</trkpt>
<trkpt lat="56.024448" lon="26.528198">
<ele>101.477600</ele>
<time>2010-08-29T10:33:13Z</time>
<desc>lat.=56.024448, lon.=26.528198, Alt.=101.477600m. Speed=16.452000m/h.</desc>
<speed>4.570000</speed>
</trkpt>
<trkpt lat="56.024418" lon="26.528139">
<ele>101.633850</ele>
<time>2010-08-29T10:33:14Z</time>
<desc>lat.=56.024418, lon.=26.528139, Alt.=101.633850m. Speed=15.768000m/h.</desc>
<speed>4.380000</speed>
</trkpt>
<trkpt lat="56.024391" lon="26.528093">
<ele>101.641663</ele>
<time>2010-08-29T10:33:15Z</time>
<desc>lat.=56.024391, lon.=26.528093, Alt.=101.641663m. Speed=14.904000m/h.</desc>
<speed>4.140000</speed>
</trkpt>
<trkpt lat="56.024364" lon="26.528048">
<ele>101.075256</ele>
<time>2010-08-29T10:33:16Z</time>
<desc>lat.=56.024364, lon.=26.528048, Alt.=101.075256m. Speed=14.868000m/h.</desc>
<speed>4.130000</speed>
</trkpt>
<trkpt lat="56.024334" lon="26.528006">
<ele>100.952209</ele>
<time>2010-08-29T10:33:17Z</time>
<desc>lat.=56.024334, lon.=26.528006, Alt.=100.952209m. Speed=16.236000m/h.</desc>
<speed>4.510000</speed>
</trkpt>
<trkpt lat="56.024307" lon="26.527960">
<ele>100.842834</ele>
<time>2010-08-29T10:33:18Z</time>
<desc>lat.=56.024307, lon.=26.527960, Alt.=100.842834m. Speed=14.652000m/h.</desc>
<speed>4.070000</speed>
</trkpt>
<trkpt lat="56.024284" lon="26.527918">
<ele>100.922913</ele>
<time>2010-08-29T10:33:19Z</time>
<desc>lat.=56.024284, lon.=26.527918, Alt.=100.922913m. Speed=14.004000m/h.</desc>
<speed>3.890000</speed>
</trkpt>
<trkpt lat="56.024258" lon="26.527882">
<ele>100.758850</ele>
<time>2010-08-29T10:33:20Z</time>
<desc>lat.=56.024258, lon.=26.527882, Alt.=100.758850m. Speed=14.004000m/h.</desc>
<speed>3.890000</speed>
</trkpt>
<trkpt lat="56.024231" lon="26.527849">
<ele>100.885803</ele>
<time>2010-08-29T10:33:21Z</time>
<desc>lat.=56.024231, lon.=26.527849, Alt.=100.885803m. Speed=13.860000m/h.</desc>
<speed>3.850000</speed>
</trkpt>
<trkpt lat="56.024204" lon="26.527821">
<ele>100.463928</ele>
<time>2010-08-29T10:33:22Z</time>
<desc>lat.=56.024204, lon.=26.527821, Alt.=100.463928m. Speed=12.600000m/h.</desc>
<speed>3.500000</speed>
</trkpt>
<trkpt lat="56.024174" lon="26.527792">
<ele>100.602600</ele>
<time>2010-08-29T10:33:23Z</time>
<desc>lat.=56.024174, lon.=26.527792, Alt.=100.602600m. Speed=13.608000m/h.</desc>
<speed>3.780000</speed>
</trkpt>
<trkpt lat="56.024139" lon="26.527756">
<ele>100.782288</ele>
<time>2010-08-29T10:33:24Z</time>
<desc>lat.=56.024139, lon.=26.527756, Alt.=100.782288m. Speed=14.544000m/h.</desc>
<speed>4.040000</speed>
</trkpt>
<trkpt lat="56.024105" lon="26.527733">
<ele>100.463928</ele>
<time>2010-08-29T10:33:25Z</time>
<desc>lat.=56.024105, lon.=26.527733, Alt.=100.463928m. Speed=13.572000m/h.</desc>
<speed>3.770000</speed>
</trkpt>
<trkpt lat="56.024075" lon="26.527714">
<ele>100.170959</ele>
<time>2010-08-29T10:33:26Z</time>
<desc>lat.=56.024075, lon.=26.527714, Alt.=100.170959m. Speed=12.060000m/h.</desc>
<speed>3.350000</speed>
</trkpt>
<trkpt lat="56.024036" lon="26.527702">
<ele>99.926819</ele>
<time>2010-08-29T10:33:27Z</time>
<desc>lat.=56.024036, lon.=26.527702, Alt.=99.926819m. Speed=13.536000m/h.</desc>
<speed>3.760000</speed>
</trkpt>
<trkpt lat="56.024002" lon="26.527691">
<ele>99.835022</ele>
<time>2010-08-29T10:33:28Z</time>
<desc>lat.=56.024002, lon.=26.527691, Alt.=99.835022m. Speed=13.896000m/h.</desc>
<speed>3.860000</speed>
</trkpt>
<trkpt lat="56.023972" lon="26.527676">
<ele>100.260803</ele>
<time>2010-08-29T10:33:29Z</time>
<desc>lat.=56.023972, lon.=26.527676, Alt.=100.260803m. Speed=13.392000m/h.</desc>
<speed>3.720000</speed>
</trkpt>
<trkpt lat="56.023933" lon="26.527658">
<ele>100.350647</ele>
<time>2010-08-29T10:33:30Z</time>
<desc>lat.=56.023933, lon.=26.527658, Alt.=100.350647m. Speed=16.632000m/h.</desc>
<speed>4.620000</speed>
</trkpt>
<trkpt lat="56.023891" lon="26.527637">
<ele>100.243225</ele>
<time>2010-08-29T10:33:31Z</time>
<desc>lat.=56.023891, lon.=26.527637, Alt.=100.243225m. Speed=14.616000m/h.</desc>
<speed>4.060000</speed>
</trkpt>
<trkpt lat="56.023846" lon="26.527624">
<ele>101.241272</ele>
<time>2010-08-29T10:33:32Z</time>
<desc>lat.=56.023846, lon.=26.527624, Alt.=101.241272m. Speed=12.816000m/h.</desc>
<speed>3.560000</speed>
</trkpt>
<trkpt lat="56.023811" lon="26.527617">
<ele>101.501038</ele>
<time>2010-08-29T10:33:33Z</time>
<desc>lat.=56.023811, lon.=26.527617, Alt.=101.501038m. Speed=12.312000m/h.</desc>
<speed>3.420000</speed>
</trkpt>
<trkpt lat="56.023785" lon="26.527615">
<ele>101.360413</ele>
<time>2010-08-29T10:33:34Z</time>
<desc>lat.=56.023785, lon.=26.527615, Alt.=101.360413m. Speed=11.520000m/h.</desc>
<speed>3.200000</speed>
</trkpt>
<trkpt lat="56.023762" lon="26.527609">
<ele>101.596741</ele>
<time>2010-08-29T10:33:35Z</time>
<desc>lat.=56.023762, lon.=26.527609, Alt.=101.596741m. Speed=10.656000m/h.</desc>
<speed>2.960000</speed>
</trkpt>
<trkpt lat="56.023739" lon="26.527617">
<ele>101.963928</ele>
<time>2010-08-29T10:33:36Z</time>
<desc>lat.=56.023739, lon.=26.527617, Alt.=101.963928m. Speed=8.676000m/h.</desc>
<speed>2.410000</speed>
</trkpt>
<trkpt lat="56.023720" lon="26.527615">
<ele>101.932678</ele>
<time>2010-08-29T10:33:37Z</time>
<desc>lat.=56.023720, lon.=26.527615, Alt.=101.932678m. Speed=8.604000m/h.</desc>
<speed>2.390000</speed>
</trkpt>
<trkpt lat="56.023705" lon="26.527613">
<ele>102.083069</ele>
<time>2010-08-29T10:33:38Z</time>
<desc>lat.=56.023705, lon.=26.527613, Alt.=102.083069m. Speed=6.444000m/h.</desc>
<speed>1.790000</speed>
</trkpt>
<trkpt lat="56.023689" lon="26.527617">
<ele>102.241272</ele>
<time>2010-08-29T10:33:39Z</time>
<desc>lat.=56.023689, lon.=26.527617, Alt.=102.241272m. Speed=6.264000m/h.</desc>
<speed>1.740000</speed>
</trkpt>
<trkpt lat="56.023670" lon="26.527622">
<ele>102.538147</ele>
<time>2010-08-29T10:33:40Z</time>
<desc>lat.=56.023670, lon.=26.527622, Alt.=102.538147m. Speed=7.524000m/h.</desc>
<speed>2.090000</speed>
</trkpt>
<trkpt lat="56.023659" lon="26.527632">
<ele>102.887756</ele>
<time>2010-08-29T10:33:41Z</time>
<desc>lat.=56.023659, lon.=26.527632, Alt.=102.887756m. Speed=5.400000m/h.</desc>
<speed>1.500000</speed>
</trkpt>
<trkpt lat="56.023640" lon="26.527636">
<ele>103.143616</ele>
<time>2010-08-29T10:33:42Z</time>
<desc>lat.=56.023640, lon.=26.527636, Alt.=103.143616m. Speed=8.316000m/h.</desc>
<speed>2.310000</speed>
</trkpt>
<trkpt lat="56.023613" lon="26.527639">
<ele>103.211975</ele>
<time>2010-08-29T10:33:43Z</time>
<desc>lat.=56.023613, lon.=26.527639, Alt.=103.211975m. Speed=7.092000m/h.</desc>
<speed>1.970000</speed>
</trkpt>
<trkpt lat="56.023590" lon="26.527645">
<ele>103.225647</ele>
<time>2010-08-29T10:33:44Z</time>
<desc>lat.=56.023590, lon.=26.527645, Alt.=103.225647m. Speed=7.452000m/h.</desc>
<speed>2.070000</speed>
</trkpt>
<trkpt lat="56.023567" lon="26.527653">
<ele>103.438538</ele>
<time>2010-08-29T10:33:45Z</time>
<desc>lat.=56.023567, lon.=26.527653, Alt.=103.438538m. Speed=7.812000m/h.</desc>
<speed>2.170000</speed>
</trkpt>
<trkpt lat="56.023548" lon="26.527660">
<ele>103.569397</ele>
<time>2010-08-29T10:33:46Z</time>
<desc>lat.=56.023548, lon.=26.527660, Alt.=103.569397m. Speed=5.508000m/h.</desc>
<speed>1.530000</speed>
</trkpt>
<trkpt lat="56.023533" lon="26.527664">
<ele>104.870178</ele>
<time>2010-08-29T10:33:47Z</time>
<desc>lat.=56.023533, lon.=26.527664, Alt.=104.870178m. Speed=6.552000m/h.</desc>
<speed>1.820000</speed>
</trkpt>
<trkpt lat="56.023514" lon="26.527666">
<ele>105.557678</ele>
<time>2010-08-29T10:33:48Z</time>
<desc>lat.=56.023514, lon.=26.527666, Alt.=105.557678m. Speed=6.840000m/h.</desc>
<speed>1.900000</speed>
</trkpt>
<trkpt lat="56.023495" lon="26.527670">
<ele>105.819397</ele>
<time>2010-08-29T10:33:49Z</time>
<desc>lat.=56.023495, lon.=26.527670, Alt.=105.819397m. Speed=7.164000m/h.</desc>
<speed>1.990000</speed>
</trkpt>
<trkpt lat="56.023464" lon="26.527672">
<ele>106.067444</ele>
<time>2010-08-29T10:33:50Z</time>
<desc>lat.=56.023464, lon.=26.527672, Alt.=106.067444m. Speed=10.836000m/h.</desc>
<speed>3.010000</speed>
</trkpt>
<trkpt lat="56.023422" lon="26.527668">
<ele>106.311584</ele>
<time>2010-08-29T10:33:51Z</time>
<desc>lat.=56.023422, lon.=26.527668, Alt.=106.311584m. Speed=10.368000m/h.</desc>
<speed>2.880000</speed>
</trkpt>
<trkpt lat="56.023392" lon="26.527670">
<ele>106.870178</ele>
<time>2010-08-29T10:33:52Z</time>
<desc>lat.=56.023392, lon.=26.527670, Alt.=106.870178m. Speed=10.944000m/h.</desc>
<speed>3.040000</speed>
</trkpt>
<trkpt lat="56.023357" lon="26.527668">
<ele>107.251038</ele>
<time>2010-08-29T10:33:53Z</time>
<desc>lat.=56.023357, lon.=26.527668, Alt.=107.251038m. Speed=11.988000m/h.</desc>
<speed>3.330000</speed>
</trkpt>
<trkpt lat="56.023323" lon="26.527674">
<ele>107.555725</ele>
<time>2010-08-29T10:33:54Z</time>
<desc>lat.=56.023323, lon.=26.527674, Alt.=107.555725m. Speed=11.844000m/h.</desc>
<speed>3.290000</speed>
</trkpt>
<trkpt lat="56.023296" lon="26.527674">
<ele>107.446350</ele>
<time>2010-08-29T10:33:55Z</time>
<desc>lat.=56.023296, lon.=26.527674, Alt.=107.446350m. Speed=11.628000m/h.</desc>
<speed>3.230000</speed>
</trkpt>
<trkpt lat="56.023262" lon="26.527670">
<ele>107.034241</ele>
<time>2010-08-29T10:33:56Z</time>
<desc>lat.=56.023262, lon.=26.527670, Alt.=107.034241m. Speed=13.032000m/h.</desc>
<speed>3.620000</speed>
</trkpt>
<trkpt lat="56.023232" lon="26.527668">
<ele>107.544006</ele>
<time>2010-08-29T10:33:57Z</time>
<desc>lat.=56.023232, lon.=26.527668, Alt.=107.544006m. Speed=14.400000m/h.</desc>
<speed>4.000000</speed>
</trkpt>
<trkpt lat="56.023197" lon="26.527657">
<ele>107.542053</ele>
<time>2010-08-29T10:33:58Z</time>
<desc>lat.=56.023197, lon.=26.527657, Alt.=107.542053m. Speed=14.796000m/h.</desc>
<speed>4.110000</speed>
</trkpt>
<trkpt lat="56.023155" lon="26.527651">
<ele>107.178772</ele>
<time>2010-08-29T10:33:59Z</time>
<desc>lat.=56.023155, lon.=26.527651, Alt.=107.178772m. Speed=14.328000m/h.</desc>
<speed>3.980000</speed>
</trkpt>
<trkpt lat="56.023117" lon="26.527636">
<ele>107.688538</ele>
<time>2010-08-29T10:34:00Z</time>
<desc>lat.=56.023117, lon.=26.527636, Alt.=107.688538m. Speed=13.176000m/h.</desc>
<speed>3.660000</speed>
</trkpt>
<trkpt lat="56.023079" lon="26.527632">
<ele>107.407288</ele>
<time>2010-08-29T10:34:01Z</time>
<desc>lat.=56.023079, lon.=26.527632, Alt.=107.407288m. Speed=14.148000m/h.</desc>
<speed>3.930000</speed>
</trkpt>
<trkpt lat="56.023045" lon="26.527636">
<ele>107.374084</ele>
<time>2010-08-29T10:34:02Z</time>
<desc>lat.=56.023045, lon.=26.527636, Alt.=107.374084m. Speed=14.544000m/h.</desc>
<speed>4.040000</speed>
</trkpt>
<trkpt lat="56.023010" lon="26.527630">
<ele>107.563538</ele>
<time>2010-08-29T10:34:03Z</time>
<desc>lat.=56.023010, lon.=26.527630, Alt.=107.563538m. Speed=14.760000m/h.</desc>
<speed>4.100000</speed>
</trkpt>
<trkpt lat="56.022976" lon="26.527628">
<ele>107.899475</ele>
<time>2010-08-29T10:34:04Z</time>
<desc>lat.=56.022976, lon.=26.527628, Alt.=107.899475m. Speed=13.140000m/h.</desc>
<speed>3.650000</speed>
</trkpt>
<trkpt lat="56.022942" lon="26.527624">
<ele>107.862366</ele>
<time>2010-08-29T10:34:05Z</time>
<desc>lat.=56.022942, lon.=26.527624, Alt.=107.862366m. Speed=14.076000m/h.</desc>
<speed>3.910000</speed>
</trkpt>
<trkpt lat="56.022907" lon="26.527624">
<ele>107.795959</ele>
<time>2010-08-29T10:34:06Z</time>
<desc>lat.=56.022907, lon.=26.527624, Alt.=107.795959m. Speed=14.328000m/h.</desc>
<speed>3.980000</speed>
</trkpt>
<trkpt lat="56.022873" lon="26.527624">
<ele>107.461975</ele>
<time>2010-08-29T10:34:07Z</time>
<desc>lat.=56.022873, lon.=26.527624, Alt.=107.461975m. Speed=14.220000m/h.</desc>
<speed>3.950000</speed>
</trkpt>
<trkpt lat="56.022835" lon="26.527622">
<ele>107.204163</ele>
<time>2010-08-29T10:34:08Z</time>
<desc>lat.=56.022835, lon.=26.527622, Alt.=107.204163m. Speed=15.120000m/h.</desc>
<speed>4.200000</speed>
</trkpt>
<trkpt lat="56.022797" lon="26.527624">
<ele>106.719788</ele>
<time>2010-08-29T10:34:09Z</time>
<desc>lat.=56.022797, lon.=26.527624, Alt.=106.719788m. Speed=16.308001m/h.</desc>
<speed>4.530000</speed>
</trkpt>
<trkpt lat="56.022758" lon="26.527634">
<ele>106.626038</ele>
<time>2010-08-29T10:34:10Z</time>
<desc>lat.=56.022758, lon.=26.527634, Alt.=106.626038m. Speed=16.524000m/h.</desc>
<speed>4.590000</speed>
</trkpt>
<trkpt lat="56.022717" lon="26.527649">
<ele>106.684631</ele>
<time>2010-08-29T10:34:11Z</time>
<desc>lat.=56.022717, lon.=26.527649, Alt.=106.684631m. Speed=15.768000m/h.</desc>
<speed>4.380000</speed>
</trkpt>
<trkpt lat="56.022678" lon="26.527660">
<ele>106.971741</ele>
<time>2010-08-29T10:34:12Z</time>
<desc>lat.=56.022678, lon.=26.527660, Alt.=106.971741m. Speed=16.164000m/h.</desc>
<speed>4.490000</speed>
</trkpt>
<trkpt lat="56.022636" lon="26.527674">
<ele>107.229553</ele>
<time>2010-08-29T10:34:13Z</time>
<desc>lat.=56.022636, lon.=26.527674, Alt.=107.229553m. Speed=15.408000m/h.</desc>
<speed>4.280000</speed>
</trkpt>
<trkpt lat="56.022591" lon="26.527689">
<ele>107.577209</ele>
<time>2010-08-29T10:34:14Z</time>
<desc>lat.=56.022591, lon.=26.527689, Alt.=107.577209m. Speed=17.316000m/h.</desc>
<speed>4.810000</speed>
</trkpt>
<trkpt lat="56.022537" lon="26.527699">
<ele>107.420959</ele>
<time>2010-08-29T10:34:15Z</time>
<desc>lat.=56.022537, lon.=26.527699, Alt.=107.420959m. Speed=17.280001m/h.</desc>
<speed>4.800000</speed>
</trkpt>
<trkpt lat="56.022491" lon="26.527712">
<ele>107.299866</ele>
<time>2010-08-29T10:34:16Z</time>
<desc>lat.=56.022491, lon.=26.527712, Alt.=107.299866m. Speed=17.063999m/h.</desc>
<speed>4.740000</speed>
</trkpt>
<trkpt lat="56.022453" lon="26.527727">
<ele>107.313538</ele>
<time>2010-08-29T10:34:17Z</time>
<desc>lat.=56.022453, lon.=26.527727, Alt.=107.313538m. Speed=13.932000m/h.</desc>
<speed>3.870000</speed>
</trkpt>
<trkpt lat="56.022415" lon="26.527746">
<ele>106.686584</ele>
<time>2010-08-29T10:34:18Z</time>
<desc>lat.=56.022415, lon.=26.527746, Alt.=106.686584m. Speed=14.148000m/h.</desc>
<speed>3.930000</speed>
</trkpt>
<trkpt lat="56.022381" lon="26.527758">
<ele>107.157288</ele>
<time>2010-08-29T10:34:19Z</time>
<desc>lat.=56.022381, lon.=26.527758, Alt.=107.157288m. Speed=14.652000m/h.</desc>
<speed>4.070000</speed>
</trkpt>
<trkpt lat="56.022346" lon="26.527779">
<ele>106.922913</ele>
<time>2010-08-29T10:34:20Z</time>
<desc>lat.=56.022346, lon.=26.527779, Alt.=106.922913m. Speed=13.752000m/h.</desc>
<speed>3.820000</speed>
</trkpt>
<trkpt lat="56.022305" lon="26.527800">
<ele>106.776428</ele>
<time>2010-08-29T10:34:21Z</time>
<desc>lat.=56.022305, lon.=26.527800, Alt.=106.776428m. Speed=13.680000m/h.</desc>
<speed>3.800000</speed>
</trkpt>
<trkpt lat="56.022270" lon="26.527807">
<ele>106.698303</ele>
<time>2010-08-29T10:34:22Z</time>
<desc>lat.=56.022270, lon.=26.527807, Alt.=106.698303m. Speed=13.176000m/h.</desc>
<speed>3.660000</speed>
</trkpt>
<trkpt lat="56.022236" lon="26.527813">
<ele>106.274475</ele>
<time>2010-08-29T10:34:23Z</time>
<desc>lat.=56.022236, lon.=26.527813, Alt.=106.274475m. Speed=10.260000m/h.</desc>
<speed>2.850000</speed>
</trkpt>
<trkpt lat="56.022209" lon="26.527821">
<ele>106.413147</ele>
<time>2010-08-29T10:34:24Z</time>
<desc>lat.=56.022209, lon.=26.527821, Alt.=106.413147m. Speed=11.232000m/h.</desc>
<speed>3.120000</speed>
</trkpt>
<trkpt lat="56.022179" lon="26.527826">
<ele>106.772522</ele>
<time>2010-08-29T10:34:25Z</time>
<desc>lat.=56.022179, lon.=26.527826, Alt.=106.772522m. Speed=9.468000m/h.</desc>
<speed>2.630000</speed>
</trkpt>
<trkpt lat="56.022156" lon="26.527836">
<ele>106.946350</ele>
<time>2010-08-29T10:34:26Z</time>
<desc>lat.=56.022156, lon.=26.527836, Alt.=106.946350m. Speed=9.180000m/h.</desc>
<speed>2.550000</speed>
</trkpt>
<trkpt lat="56.022137" lon="26.527847">
<ele>107.204163</ele>
<time>2010-08-29T10:34:27Z</time>
<desc>lat.=56.022137, lon.=26.527847, Alt.=107.204163m. Speed=8.784000m/h.</desc>
<speed>2.440000</speed>
</trkpt>
<trkpt lat="56.022118" lon="26.527859">
<ele>106.960022</ele>
<time>2010-08-29T10:34:28Z</time>
<desc>lat.=56.022118, lon.=26.527859, Alt.=106.960022m. Speed=6.804000m/h.</desc>
<speed>1.890000</speed>
</trkpt>
<trkpt lat="56.022106" lon="26.527863">
<ele>106.696350</ele>
<time>2010-08-29T10:34:29Z</time>
<desc>lat.=56.022106, lon.=26.527863, Alt.=106.696350m. Speed=4.680000m/h.</desc>
<speed>1.300000</speed>
</trkpt>
<trkpt lat="56.022095" lon="26.527863">
<ele>106.202209</ele>
<time>2010-08-29T10:34:30Z</time>
<desc>lat.=56.022095, lon.=26.527863, Alt.=106.202209m. Speed=3.240000m/h.</desc>
<speed>0.900000</speed>
</trkpt>
<trkpt lat="56.022095" lon="26.527861">
<ele>106.370178</ele>
<time>2010-08-29T10:34:31Z</time>
<desc>lat.=56.022095, lon.=26.527861, Alt.=106.370178m. Speed=0.288000m/h.</desc>
<speed>0.080000</speed>
</trkpt>
<trkpt lat="56.022091" lon="26.527857">
<ele>106.663147</ele>
<time>2010-08-29T10:34:32Z</time>
<desc>lat.=56.022091, lon.=26.527857, Alt.=106.663147m. Speed=0.252000m/h.</desc>
<speed>0.070000</speed>
</trkpt>
<trkpt lat="56.022091" lon="26.527857">
<ele>106.690491</ele>
<time>2010-08-29T10:34:33Z</time>
<desc>lat.=56.022091, lon.=26.527857, Alt.=106.690491m. Speed=0.504000m/h.</desc>
<speed>0.140000</speed>
</trkpt>
<trkpt lat="56.022091" lon="26.527857">
<ele>106.696350</ele>
<time>2010-08-29T10:34:34Z</time>
<desc>lat.=56.022091, lon.=26.527857, Alt.=106.696350m. Speed=0.360000m/h.</desc>
<speed>0.100000</speed>
</trkpt>
<trkpt lat="56.022091" lon="26.527857">
<ele>106.704163</ele>
<time>2010-08-29T10:34:35Z</time>
<desc>lat.=56.022091, lon.=26.527857, Alt.=106.704163m. Speed=0.036000m/h.</desc>
<speed>0.010000</speed>
</trkpt>
<trkpt lat="56.022091" lon="26.527857">
<ele>106.711975</ele>
<time>2010-08-29T10:34:36Z</time>
<desc>lat.=56.022091, lon.=26.527857, Alt.=106.711975m. Speed=0.180000m/h.</desc>
<speed>0.050000</speed>
</trkpt>
<trkpt lat="56.022091" lon="26.527859">
<ele>106.721741</ele>
<time>2010-08-29T10:34:37Z</time>
<desc>lat.=56.022091, lon.=26.527859, Alt.=106.721741m. Speed=0.108000m/h.</desc>
<speed>0.030000</speed>
</trkpt>
<trkpt lat="56.022091" lon="26.527859">
<ele>106.729553</ele>
<time>2010-08-29T10:34:38Z</time>
<desc>lat.=56.022091, lon.=26.527859, Alt.=106.729553m. Speed=0.288000m/h.</desc>
<speed>0.080000</speed>
</trkpt>
<trkpt lat="56.022091" lon="26.527859">
<ele>106.735413</ele>
<time>2010-08-29T10:34:39Z</time>
<desc>lat.=56.022091, lon.=26.527859, Alt.=106.735413m. Speed=0.324000m/h.</desc>
<speed>0.090000</speed>
</trkpt>
<trkpt lat="56.022091" lon="26.527861">
<ele>106.745178</ele>
<time>2010-08-29T10:34:40Z</time>
<desc>lat.=56.022091, lon.=26.527861, Alt.=106.745178m. Speed=0.252000m/h.</desc>
<speed>0.070000</speed>
</trkpt>
<trkpt lat="56.022091" lon="26.527861">
<ele>106.772522</ele>
<time>2010-08-29T10:34:41Z</time>
<desc>lat.=56.022091, lon.=26.527861, Alt.=106.772522m. Speed=0.216000m/h.</desc>
<speed>0.060000</speed>
</trkpt>
<trkpt lat="56.022091" lon="26.527861">
<ele>106.795959</ele>
<time>2010-08-29T10:34:42Z</time>
<desc>lat.=56.022091, lon.=26.527861, Alt.=106.795959m. Speed=0.144000m/h.</desc>
<speed>0.040000</speed>
</trkpt>
<trkpt lat="56.022091" lon="26.527859">
<ele>106.815491</ele>
<time>2010-08-29T10:34:43Z</time>
<desc>lat.=56.022091, lon.=26.527859, Alt.=106.815491m. Speed=0.252000m/h.</desc>
<speed>0.070000</speed>
</trkpt>
<trkpt lat="56.022091" lon="26.527859">
<ele>106.829163</ele>
<time>2010-08-29T10:34:44Z</time>
<desc>lat.=56.022091, lon.=26.527859, Alt.=106.829163m. Speed=0.000000m/h.</desc>
<speed>0.000000</speed>
</trkpt>
<trkpt lat="56.022091" lon="26.527859">
<ele>106.846741</ele>
<time>2010-08-29T10:34:45Z</time>
<desc>lat.=56.022091, lon.=26.527859, Alt.=106.846741m. Speed=0.036000m/h.</desc>
<speed>0.010000</speed>
</trkpt>
<trkpt lat="56.022091" lon="26.527859">
<ele>106.864319</ele>
<time>2010-08-29T10:34:46Z</time>
<desc>lat.=56.022091, lon.=26.527859, Alt.=106.864319m. Speed=0.072000m/h.</desc>
<speed>0.020000</speed>
</trkpt>
<trkpt lat="56.022091" lon="26.527859">
<ele>106.881897</ele>
<time>2010-08-29T10:34:47Z</time>
<desc>lat.=56.022091, lon.=26.527859, Alt.=106.881897m. Speed=0.360000m/h.</desc>
<speed>0.100000</speed>
</trkpt>
<trkpt lat="56.022091" lon="26.527859">
<ele>106.877991</ele>
<time>2010-08-29T10:34:48Z</time>
<desc>lat.=56.022091, lon.=26.527859, Alt.=106.877991m. Speed=0.144000m/h.</desc>
<speed>0.040000</speed>
</trkpt>
<trkpt lat="56.022091" lon="26.527859">
<ele>106.885803</ele>
<time>2010-08-29T10:34:49Z</time>
<desc>lat.=56.022091, lon.=26.527859, Alt.=106.885803m. Speed=0.180000m/h.</desc>
<speed>0.050000</speed>
</trkpt>
<trkpt lat="56.022095" lon="26.527859">
<ele>106.881897</ele>
<time>2010-08-29T10:34:50Z</time>
<desc>lat.=56.022095, lon.=26.527859, Alt.=106.881897m. Speed=0.180000m/h.</desc>
<speed>0.050000</speed>
</trkpt>
<trkpt lat="56.022095" lon="26.527861">
<ele>106.881897</ele>
<time>2010-08-29T10:34:51Z</time>
<desc>lat.=56.022095, lon.=26.527861, Alt.=106.881897m. Speed=0.216000m/h.</desc>
<speed>0.060000</speed>
</trkpt>
<trkpt lat="56.022091" lon="26.527861">
<ele>106.887756</ele>
<time>2010-08-29T10:34:52Z</time>
<desc>lat.=56.022091, lon.=26.527861, Alt.=106.887756m. Speed=0.144000m/h.</desc>
<speed>0.040000</speed>
</trkpt>
<trkpt lat="56.022091" lon="26.527863">
<ele>106.893616</ele>
<time>2010-08-29T10:34:53Z</time>
<desc>lat.=56.022091, lon.=26.527863, Alt.=106.893616m. Speed=0.180000m/h.</desc>
<speed>0.050000</speed>
</trkpt>
<trkpt lat="56.022091" lon="26.527863">
<ele>106.897522</ele>
<time>2010-08-29T10:34:54Z</time>
<desc>lat.=56.022091, lon.=26.527863, Alt.=106.897522m. Speed=0.144000m/h.</desc>
<speed>0.040000</speed>
</trkpt>
<trkpt lat="56.022091" lon="26.527861">
<ele>106.905334</ele>
<time>2010-08-29T10:34:55Z</time>
<desc>lat.=56.022091, lon.=26.527861, Alt.=106.905334m. Speed=0.324000m/h.</desc>
<speed>0.090000</speed>
</trkpt>
<trkpt lat="56.022091" lon="26.527861">
<ele>106.922913</ele>
<time>2010-08-29T10:34:56Z</time>
<desc>lat.=56.022091, lon.=26.527861, Alt.=106.922913m. Speed=0.216000m/h.</desc>
<speed>0.060000</speed>
</trkpt>
<trkpt lat="56.022091" lon="26.527863">
<ele>106.942444</ele>
<time>2010-08-29T10:34:57Z</time>
<desc>lat.=56.022091, lon.=26.527863, Alt.=106.942444m. Speed=0.108000m/h.</desc>
<speed>0.030000</speed>
</trkpt>
<trkpt lat="56.022091" lon="26.527863">
<ele>106.961975</ele>
<time>2010-08-29T10:34:58Z</time>
<desc>lat.=56.022091, lon.=26.527863, Alt.=106.961975m. Speed=0.072000m/h.</desc>
<speed>0.020000</speed>
</trkpt>
<trkpt lat="56.022091" lon="26.527863">
<ele>106.967834</ele>
<time>2010-08-29T10:34:59Z</time>
<desc>lat.=56.022091, lon.=26.527863, Alt.=106.967834m. Speed=0.144000m/h.</desc>
<speed>0.040000</speed>
</trkpt>
<trkpt lat="56.022091" lon="26.527863">
<ele>106.973694</ele>
<time>2010-08-29T10:35:00Z</time>
<desc>lat.=56.022091, lon.=26.527863, Alt.=106.973694m. Speed=0.360000m/h.</desc>
<speed>0.100000</speed>
</trkpt>
<trkpt lat="56.022091" lon="26.527863">
<ele>106.983459</ele>
<time>2010-08-29T10:35:01Z</time>
<desc>lat.=56.022091, lon.=26.527863, Alt.=106.983459m. Speed=0.108000m/h.</desc>
<speed>0.030000</speed>
</trkpt>
<trkpt lat="56.022091" lon="26.527863">
<ele>106.989319</ele>
<time>2010-08-29T10:35:02Z</time>
<desc>lat.=56.022091, lon.=26.527863, Alt.=106.989319m. Speed=0.180000m/h.</desc>
<speed>0.050000</speed>
</trkpt>
<trkpt lat="56.022091" lon="26.527861">
<ele>107.001038</ele>
<time>2010-08-29T10:35:03Z</time>
<desc>lat.=56.022091, lon.=26.527861, Alt.=107.001038m. Speed=0.144000m/h.</desc>
<speed>0.040000</speed>
</trkpt>
<trkpt lat="56.022091" lon="26.527861">
<ele>107.010803</ele>
<time>2010-08-29T10:35:04Z</time>
<desc>lat.=56.022091, lon.=26.527861, Alt.=107.010803m. Speed=0.144000m/h.</desc>
<speed>0.040000</speed>
</trkpt>
<trkpt lat="56.022091" lon="26.527861">
<ele>107.024475</ele>
<time>2010-08-29T10:35:05Z</time>
<desc>lat.=56.022091, lon.=26.527861, Alt.=107.024475m. Speed=0.252000m/h.</desc>
<speed>0.070000</speed>
</trkpt>
<trkpt lat="56.022095" lon="26.527863">
<ele>107.032288</ele>
<time>2010-08-29T10:35:06Z</time>
<desc>lat.=56.022095, lon.=26.527863, Alt.=107.032288m. Speed=0.288000m/h.</desc>
<speed>0.080000</speed>
</trkpt>
<trkpt lat="56.022095" lon="26.527863">
<ele>107.036194</ele>
<time>2010-08-29T10:35:07Z</time>
<desc>lat.=56.022095, lon.=26.527863, Alt.=107.036194m. Speed=0.144000m/h.</desc>
<speed>0.040000</speed>
</trkpt>
<trkpt lat="56.022095" lon="26.527863">
<ele>107.042053</ele>
<time>2010-08-29T10:35:08Z</time>
<desc>lat.=56.022095, lon.=26.527863, Alt.=107.042053m. Speed=0.072000m/h.</desc>
<speed>0.020000</speed>
</trkpt>
<trkpt lat="56.022095" lon="26.527863">
<ele>107.040100</ele>
<time>2010-08-29T10:35:09Z</time>
<desc>lat.=56.022095, lon.=26.527863, Alt.=107.040100m. Speed=0.288000m/h.</desc>
<speed>0.080000</speed>
</trkpt>
<trkpt lat="56.022095" lon="26.527861">
<ele>107.042053</ele>
<time>2010-08-29T10:35:10Z</time>
<desc>lat.=56.022095, lon.=26.527861, Alt.=107.042053m. Speed=0.180000m/h.</desc>
<speed>0.050000</speed>
</trkpt>
<trkpt lat="56.022095" lon="26.527861">
<ele>107.051819</ele>
<time>2010-08-29T10:35:11Z</time>
<desc>lat.=56.022095, lon.=26.527861, Alt.=107.051819m. Speed=0.036000m/h.</desc>
<speed>0.010000</speed>
</trkpt>
<trkpt lat="56.022095" lon="26.527861">
<ele>107.055725</ele>
<time>2010-08-29T10:35:12Z</time>
<desc>lat.=56.022095, lon.=26.527861, Alt.=107.055725m. Speed=0.072000m/h.</desc>
<speed>0.020000</speed>
</trkpt>
<trkpt lat="56.022095" lon="26.527861">
<ele>107.059631</ele>
<time>2010-08-29T10:35:13Z</time>
<desc>lat.=56.022095, lon.=26.527861, Alt.=107.059631m. Speed=0.432000m/h.</desc>
<speed>0.120000</speed>
</trkpt>
<trkpt lat="56.022095" lon="26.527859">
<ele>107.065491</ele>
<time>2010-08-29T10:35:14Z</time>
<desc>lat.=56.022095, lon.=26.527859, Alt.=107.065491m. Speed=0.396000m/h.</desc>
<speed>0.110000</speed>
</trkpt>
<trkpt lat="56.022095" lon="26.527859">
<ele>107.069397</ele>
<time>2010-08-29T10:35:15Z</time>
<desc>lat.=56.022095, lon.=26.527859, Alt.=107.069397m. Speed=0.468000m/h.</desc>
<speed>0.130000</speed>
</trkpt>
<trkpt lat="56.022095" lon="26.527859">
<ele>107.071350</ele>
<time>2010-08-29T10:35:16Z</time>
<desc>lat.=56.022095, lon.=26.527859, Alt.=107.071350m. Speed=0.180000m/h.</desc>
<speed>0.050000</speed>
</trkpt>
<trkpt lat="56.022099" lon="26.527859">
<ele>107.071350</ele>
<time>2010-08-29T10:35:17Z</time>
<desc>lat.=56.022099, lon.=26.527859, Alt.=107.071350m. Speed=0.144000m/h.</desc>
<speed>0.040000</speed>
</trkpt>
<trkpt lat="56.022099" lon="26.527859">
<ele>107.067444</ele>
<time>2010-08-29T10:35:18Z</time>
<desc>lat.=56.022099, lon.=26.527859, Alt.=107.067444m. Speed=0.144000m/h.</desc>
<speed>0.040000</speed>
</trkpt>
<trkpt lat="56.022095" lon="26.527861">
<ele>107.067444</ele>
<time>2010-08-29T10:35:19Z</time>
<desc>lat.=56.022095, lon.=26.527861, Alt.=107.067444m. Speed=0.072000m/h.</desc>
<speed>0.020000</speed>
</trkpt>
<trkpt lat="56.022095" lon="26.527859">
<ele>107.067444</ele>
<time>2010-08-29T10:35:20Z</time>
<desc>lat.=56.022095, lon.=26.527859, Alt.=107.067444m. Speed=0.288000m/h.</desc>
<speed>0.080000</speed>
</trkpt>
<trkpt lat="56.022095" lon="26.527861">
<ele>107.067444</ele>
<time>2010-08-29T10:35:21Z</time>
<desc>lat.=56.022095, lon.=26.527861, Alt.=107.067444m. Speed=0.288000m/h.</desc>
<speed>0.080000</speed>
</trkpt>
<trkpt lat="56.022095" lon="26.527861">
<ele>107.071350</ele>
<time>2010-08-29T10:35:22Z</time>
<desc>lat.=56.022095, lon.=26.527861, Alt.=107.071350m. Speed=0.108000m/h.</desc>
<speed>0.030000</speed>
</trkpt>
<trkpt lat="56.022095" lon="26.527861">
<ele>107.071350</ele>
<time>2010-08-29T10:35:23Z</time>
<desc>lat.=56.022095, lon.=26.527861, Alt.=107.071350m. Speed=0.360000m/h.</desc>
<speed>0.100000</speed>
</trkpt>
<trkpt lat="56.022095" lon="26.527861">
<ele>107.075256</ele>
<time>2010-08-29T10:35:24Z</time>
<desc>lat.=56.022095, lon.=26.527861, Alt.=107.075256m. Speed=0.252000m/h.</desc>
<speed>0.070000</speed>
</trkpt>
<trkpt lat="56.022095" lon="26.527863">
<ele>107.073303</ele>
<time>2010-08-29T10:35:25Z</time>
<desc>lat.=56.022095, lon.=26.527863, Alt.=107.073303m. Speed=0.360000m/h.</desc>
<speed>0.100000</speed>
</trkpt>
<trkpt lat="56.022091" lon="26.527863">
<ele>107.077209</ele>
<time>2010-08-29T10:35:26Z</time>
<desc>lat.=56.022091, lon.=26.527863, Alt.=107.077209m. Speed=0.252000m/h.</desc>
<speed>0.070000</speed>
</trkpt>
<trkpt lat="56.022091" lon="26.527863">
<ele>107.079163</ele>
<time>2010-08-29T10:35:27Z</time>
<desc>lat.=56.022091, lon.=26.527863, Alt.=107.079163m. Speed=0.108000m/h.</desc>
<speed>0.030000</speed>
</trkpt>
<trkpt lat="56.022091" lon="26.527863">
<ele>107.083069</ele>
<time>2010-08-29T10:35:28Z</time>
<desc>lat.=56.022091, lon.=26.527863, Alt.=107.083069m. Speed=0.072000m/h.</desc>
<speed>0.020000</speed>
</trkpt>
<trkpt lat="56.022091" lon="26.527863">
<ele>107.083069</ele>
<time>2010-08-29T10:35:29Z</time>
<desc>lat.=56.022091, lon.=26.527863, Alt.=107.083069m. Speed=0.360000m/h.</desc>
<speed>0.100000</speed>
</trkpt>
<trkpt lat="56.022091" lon="26.527863">
<ele>107.085022</ele>
<time>2010-08-29T10:35:30Z</time>
<desc>lat.=56.022091, lon.=26.527863, Alt.=107.085022m. Speed=0.108000m/h.</desc>
<speed>0.030000</speed>
</trkpt>
<trkpt lat="56.022091" lon="26.527863">
<ele>107.090881</ele>
<time>2010-08-29T10:35:31Z</time>
<desc>lat.=56.022091, lon.=26.527863, Alt.=107.090881m. Speed=0.180000m/h.</desc>
<speed>0.050000</speed>
</trkpt>
<trkpt lat="56.022091" lon="26.527863">
<ele>107.090881</ele>
<time>2010-08-29T10:35:32Z</time>
<desc>lat.=56.022091, lon.=26.527863, Alt.=107.090881m. Speed=0.072000m/h.</desc>
<speed>0.020000</speed>
</trkpt>
<trkpt lat="56.022091" lon="26.527863">
<ele>107.088928</ele>
<time>2010-08-29T10:35:33Z</time>
<desc>lat.=56.022091, lon.=26.527863, Alt.=107.088928m. Speed=0.144000m/h.</desc>
<speed>0.040000</speed>
</trkpt>
<trkpt lat="56.022091" lon="26.527863">
<ele>107.090881</ele>
<time>2010-08-29T10:35:34Z</time>
<desc>lat.=56.022091, lon.=26.527863, Alt.=107.090881m. Speed=0.072000m/h.</desc>
<speed>0.020000</speed>
</trkpt>
<trkpt lat="56.022091" lon="26.527863">
<ele>107.088928</ele>
<time>2010-08-29T10:35:35Z</time>
<desc>lat.=56.022091, lon.=26.527863, Alt.=107.088928m. Speed=0.792000m/h.</desc>
<speed>0.220000</speed>
</trkpt>
<trkpt lat="56.022091" lon="26.527863">
<ele>107.088928</ele>
<time>2010-08-29T10:35:36Z</time>
<desc>lat.=56.022091, lon.=26.527863, Alt.=107.088928m. Speed=1.152000m/h.</desc>
<speed>0.320000</speed>
</trkpt>
<trkpt lat="56.022087" lon="26.527863">
<ele>107.083069</ele>
<time>2010-08-29T10:35:37Z</time>
<desc>lat.=56.022087, lon.=26.527863, Alt.=107.083069m. Speed=3.204000m/h.</desc>
<speed>0.890000</speed>
</trkpt>
<trkpt lat="56.022079" lon="26.527866">
<ele>107.098694</ele>
<time>2010-08-29T10:35:38Z</time>
<desc>lat.=56.022079, lon.=26.527866, Alt.=107.098694m. Speed=5.508000m/h.</desc>
<speed>1.530000</speed>
</trkpt>
<trkpt lat="56.022053" lon="26.527874">
<ele>107.549866</ele>
<time>2010-08-29T10:35:39Z</time>
<desc>lat.=56.022053, lon.=26.527874, Alt.=107.549866m. Speed=8.136000m/h.</desc>
<speed>2.260000</speed>
</trkpt>
<trkpt lat="56.022022" lon="26.527889">
<ele>107.762756</ele>
<time>2010-08-29T10:35:40Z</time>
<desc>lat.=56.022022, lon.=26.527889, Alt.=107.762756m. Speed=9.612000m/h.</desc>
<speed>2.670000</speed>
</trkpt>
<trkpt lat="56.021988" lon="26.527903">
<ele>107.653381</ele>
<time>2010-08-29T10:35:41Z</time>
<desc>lat.=56.021988, lon.=26.527903, Alt.=107.653381m. Speed=10.944000m/h.</desc>
<speed>3.040000</speed>
</trkpt>
<trkpt lat="56.021954" lon="26.527918">
<ele>107.528381</ele>
<time>2010-08-29T10:35:42Z</time>
<desc>lat.=56.021954, lon.=26.527918, Alt.=107.528381m. Speed=11.628000m/h.</desc>
<speed>3.230000</speed>
</trkpt>
<trkpt lat="56.021923" lon="26.527935">
<ele>107.579163</ele>
<time>2010-08-29T10:35:43Z</time>
<desc>lat.=56.021923, lon.=26.527935, Alt.=107.579163m. Speed=12.312000m/h.</desc>
<speed>3.420000</speed>
</trkpt>
<trkpt lat="56.021893" lon="26.527954">
<ele>107.401428</ele>
<time>2010-08-29T10:35:44Z</time>
<desc>lat.=56.021893, lon.=26.527954, Alt.=107.401428m. Speed=12.708000m/h.</desc>
<speed>3.530000</speed>
</trkpt>
<trkpt lat="56.021858" lon="26.527971">
<ele>107.600647</ele>
<time>2010-08-29T10:35:45Z</time>
<desc>lat.=56.021858, lon.=26.527971, Alt.=107.600647m. Speed=13.284000m/h.</desc>
<speed>3.690000</speed>
</trkpt>
<trkpt lat="56.021816" lon="26.527987">
<ele>107.366272</ele>
<time>2010-08-29T10:35:46Z</time>
<desc>lat.=56.021816, lon.=26.527987, Alt.=107.366272m. Speed=13.392000m/h.</desc>
<speed>3.720000</speed>
</trkpt>
<trkpt lat="56.021782" lon="26.528004">
<ele>107.126038</ele>
<time>2010-08-29T10:35:47Z</time>
<desc>lat.=56.021782, lon.=26.528004, Alt.=107.126038m. Speed=13.824000m/h.</desc>
<speed>3.840000</speed>
</trkpt>
<trkpt lat="56.021748" lon="26.528021">
<ele>107.024475</ele>
<time>2010-08-29T10:35:48Z</time>
<desc>lat.=56.021748, lon.=26.528021, Alt.=107.024475m. Speed=12.636000m/h.</desc>
<speed>3.510000</speed>
</trkpt>
<trkpt lat="56.021717" lon="26.528038">
<ele>106.702209</ele>
<time>2010-08-29T10:35:49Z</time>
<desc>lat.=56.021717, lon.=26.528038, Alt.=106.702209m. Speed=13.032000m/h.</desc>
<speed>3.620000</speed>
</trkpt>
<trkpt lat="56.021687" lon="26.528053">
<ele>106.532288</ele>
<time>2010-08-29T10:35:50Z</time>
<desc>lat.=56.021687, lon.=26.528053, Alt.=106.532288m. Speed=13.248000m/h.</desc>
<speed>3.680000</speed>
</trkpt>
<trkpt lat="56.021652" lon="26.528072">
<ele>106.198303</ele>
<time>2010-08-29T10:35:51Z</time>
<desc>lat.=56.021652, lon.=26.528072, Alt.=106.198303m. Speed=13.104000m/h.</desc>
<speed>3.640000</speed>
</trkpt>
<trkpt lat="56.021622" lon="26.528099">
<ele>105.838928</ele>
<time>2010-08-29T10:35:52Z</time>
<desc>lat.=56.021622, lon.=26.528099, Alt.=105.838928m. Speed=12.636000m/h.</desc>
<speed>3.510000</speed>
</trkpt>
<trkpt lat="56.021591" lon="26.528120">
<ele>105.747131</ele>
<time>2010-08-29T10:35:53Z</time>
<desc>lat.=56.021591, lon.=26.528120, Alt.=105.747131m. Speed=12.276000m/h.</desc>
<speed>3.410000</speed>
</trkpt>
<trkpt lat="56.021564" lon="26.528139">
<ele>105.708069</ele>
<time>2010-08-29T10:35:54Z</time>
<desc>lat.=56.021564, lon.=26.528139, Alt.=105.708069m. Speed=10.944000m/h.</desc>
<speed>3.040000</speed>
</trkpt>
<trkpt lat="56.021538" lon="26.528162">
<ele>105.803772</ele>
<time>2010-08-29T10:35:55Z</time>
<desc>lat.=56.021538, lon.=26.528162, Alt.=105.803772m. Speed=11.844000m/h.</desc>
<speed>3.290000</speed>
</trkpt>
<trkpt lat="56.021507" lon="26.528183">
<ele>105.999084</ele>
<time>2010-08-29T10:35:56Z</time>
<desc>lat.=56.021507, lon.=26.528183, Alt.=105.999084m. Speed=11.520000m/h.</desc>
<speed>3.200000</speed>
</trkpt>
<trkpt lat="56.021477" lon="26.528196">
<ele>106.608459</ele>
<time>2010-08-29T10:35:57Z</time>
<desc>lat.=56.021477, lon.=26.528196, Alt.=106.608459m. Speed=12.708000m/h.</desc>
<speed>3.530000</speed>
</trkpt>
<trkpt lat="56.021446" lon="26.528208">
<ele>107.366272</ele>
<time>2010-08-29T10:35:58Z</time>
<desc>lat.=56.021446, lon.=26.528208, Alt.=107.366272m. Speed=12.384000m/h.</desc>
<speed>3.440000</speed>
</trkpt>
<trkpt lat="56.021420" lon="26.528206">
<ele>108.010803</ele>
<time>2010-08-29T10:35:59Z</time>
<desc>lat.=56.021420, lon.=26.528206, Alt.=108.010803m. Speed=11.052000m/h.</desc>
<speed>3.070000</speed>
</trkpt>
<trkpt lat="56.021385" lon="26.528225">
<ele>108.137756</ele>
<time>2010-08-29T10:36:00Z</time>
<desc>lat.=56.021385, lon.=26.528225, Alt.=108.137756m. Speed=13.716000m/h.</desc>
<speed>3.810000</speed>
</trkpt>
<trkpt lat="56.021355" lon="26.528242">
<ele>108.081116</ele>
<time>2010-08-29T10:36:01Z</time>
<desc>lat.=56.021355, lon.=26.528242, Alt.=108.081116m. Speed=13.752000m/h.</desc>
<speed>3.820000</speed>
</trkpt>
<trkpt lat="56.021324" lon="26.528271">
<ele>109.184631</ele>
<time>2010-08-29T10:36:02Z</time>
<desc>lat.=56.021324, lon.=26.528271, Alt.=109.184631m. Speed=12.420000m/h.</desc>
<speed>3.450000</speed>
</trkpt>
<trkpt lat="56.021290" lon="26.528290">
<ele>108.745178</ele>
<time>2010-08-29T10:36:03Z</time>
<desc>lat.=56.021290, lon.=26.528290, Alt.=108.745178m. Speed=12.456000m/h.</desc>
<speed>3.460000</speed>
</trkpt>
<trkpt lat="56.021255" lon="26.528297">
<ele>108.090881</ele>
<time>2010-08-29T10:36:04Z</time>
<desc>lat.=56.021255, lon.=26.528297, Alt.=108.090881m. Speed=12.924000m/h.</desc>
<speed>3.590000</speed>
</trkpt>
<trkpt lat="56.021221" lon="26.528311">
<ele>107.792053</ele>
<time>2010-08-29T10:36:05Z</time>
<desc>lat.=56.021221, lon.=26.528311, Alt.=107.792053m. Speed=14.004000m/h.</desc>
<speed>3.890000</speed>
</trkpt>
<trkpt lat="56.021187" lon="26.528324">
<ele>107.823303</ele>
<time>2010-08-29T10:36:06Z</time>
<desc>lat.=56.021187, lon.=26.528324, Alt.=107.823303m. Speed=13.932000m/h.</desc>
<speed>3.870000</speed>
</trkpt>
<trkpt lat="56.021149" lon="26.528328">
<ele>107.903381</ele>
<time>2010-08-29T10:36:07Z</time>
<desc>lat.=56.021149, lon.=26.528328, Alt.=107.903381m. Speed=14.832000m/h.</desc>
<speed>4.120000</speed>
</trkpt>
<trkpt lat="56.021111" lon="26.528336">
<ele>107.333069</ele>
<time>2010-08-29T10:36:08Z</time>
<desc>lat.=56.021111, lon.=26.528336, Alt.=107.333069m. Speed=14.904000m/h.</desc>
<speed>4.140000</speed>
</trkpt>
<trkpt lat="56.021076" lon="26.528337">
<ele>107.971741</ele>
<time>2010-08-29T10:36:09Z</time>
<desc>lat.=56.021076, lon.=26.528337, Alt.=107.971741m. Speed=14.292000m/h.</desc>
<speed>3.970000</speed>
</trkpt>
<trkpt lat="56.021038" lon="26.528343">
<ele>107.352600</ele>
<time>2010-08-29T10:36:10Z</time>
<desc>lat.=56.021038, lon.=26.528343, Alt.=107.352600m. Speed=15.948000m/h.</desc>
<speed>4.430000</speed>
</trkpt>
<trkpt lat="56.021004" lon="26.528341">
<ele>107.213928</ele>
<time>2010-08-29T10:36:11Z</time>
<desc>lat.=56.021004, lon.=26.528341, Alt.=107.213928m. Speed=15.120000m/h.</desc>
<speed>4.200000</speed>
</trkpt>
<trkpt lat="56.020966" lon="26.528349">
<ele>105.961975</ele>
<time>2010-08-29T10:36:12Z</time>
<desc>lat.=56.020966, lon.=26.528349, Alt.=105.961975m. Speed=16.020000m/h.</desc>
<speed>4.450000</speed>
</trkpt>
<trkpt lat="56.020920" lon="26.528347">
<ele>105.747131</ele>
<time>2010-08-29T10:36:13Z</time>
<desc>lat.=56.020920, lon.=26.528347, Alt.=105.747131m. Speed=15.516000m/h.</desc>
<speed>4.310000</speed>
</trkpt>
<trkpt lat="56.020874" lon="26.528343">
<ele>105.620178</ele>
<time>2010-08-29T10:36:14Z</time>
<desc>lat.=56.020874, lon.=26.528343, Alt.=105.620178m. Speed=16.020000m/h.</desc>
<speed>4.450000</speed>
</trkpt>
<trkpt lat="56.020824" lon="26.528337">
<ele>105.985413</ele>
<time>2010-08-29T10:36:15Z</time>
<desc>lat.=56.020824, lon.=26.528337, Alt.=105.985413m. Speed=16.559999m/h.</desc>
<speed>4.600000</speed>
</trkpt>
<trkpt lat="56.020775" lon="26.528328">
<ele>105.848694</ele>
<time>2010-08-29T10:36:16Z</time>
<desc>lat.=56.020775, lon.=26.528328, Alt.=105.848694m. Speed=16.812000m/h.</desc>
<speed>4.670000</speed>
</trkpt>
<trkpt lat="56.020733" lon="26.528332">
<ele>105.606506</ele>
<time>2010-08-29T10:36:17Z</time>
<desc>lat.=56.020733, lon.=26.528332, Alt.=105.606506m. Speed=16.596001m/h.</desc>
<speed>4.610000</speed>
</trkpt>
<trkpt lat="56.020695" lon="26.528332">
<ele>105.782288</ele>
<time>2010-08-29T10:36:18Z</time>
<desc>lat.=56.020695, lon.=26.528332, Alt.=105.782288m. Speed=14.652000m/h.</desc>
<speed>4.070000</speed>
</trkpt>
<trkpt lat="56.020660" lon="26.528336">
<ele>105.805725</ele>
<time>2010-08-29T10:36:19Z</time>
<desc>lat.=56.020660, lon.=26.528336, Alt.=105.805725m. Speed=14.292000m/h.</desc>
<speed>3.970000</speed>
</trkpt>
<trkpt lat="56.020622" lon="26.528332">
<ele>106.124084</ele>
<time>2010-08-29T10:36:20Z</time>
<desc>lat.=56.020622, lon.=26.528332, Alt.=106.124084m. Speed=13.104000m/h.</desc>
<speed>3.640000</speed>
</trkpt>
<trkpt lat="56.020592" lon="26.528336">
<ele>106.286194</ele>
<time>2010-08-29T10:36:21Z</time>
<desc>lat.=56.020592, lon.=26.528336, Alt.=106.286194m. Speed=11.808000m/h.</desc>
<speed>3.280000</speed>
</trkpt>
<trkpt lat="56.020561" lon="26.528336">
<ele>106.813538</ele>
<time>2010-08-29T10:36:22Z</time>
<desc>lat.=56.020561, lon.=26.528336, Alt.=106.813538m. Speed=9.936000m/h.</desc>
<speed>2.760000</speed>
</trkpt>
<trkpt lat="56.020538" lon="26.528339">
<ele>106.870178</ele>
<time>2010-08-29T10:36:23Z</time>
<desc>lat.=56.020538, lon.=26.528339, Alt.=106.870178m. Speed=8.172000m/h.</desc>
<speed>2.270000</speed>
</trkpt>
<trkpt lat="56.020515" lon="26.528341">
<ele>106.903381</ele>
<time>2010-08-29T10:36:24Z</time>
<desc>lat.=56.020515, lon.=26.528341, Alt.=106.903381m. Speed=10.440000m/h.</desc>
<speed>2.900000</speed>
</trkpt>
<trkpt lat="56.020496" lon="26.528345">
<ele>106.973694</ele>
<time>2010-08-29T10:36:25Z</time>
<desc>lat.=56.020496, lon.=26.528345, Alt.=106.973694m. Speed=9.036000m/h.</desc>
<speed>2.510000</speed>
</trkpt>
<trkpt lat="56.020466" lon="26.528341">
<ele>106.540100</ele>
<time>2010-08-29T10:36:26Z</time>
<desc>lat.=56.020466, lon.=26.528341, Alt.=106.540100m. Speed=12.168000m/h.</desc>
<speed>3.380000</speed>
</trkpt>
<trkpt lat="56.020432" lon="26.528336">
<ele>105.752991</ele>
<time>2010-08-29T10:36:27Z</time>
<desc>lat.=56.020432, lon.=26.528336, Alt.=105.752991m. Speed=10.800000m/h.</desc>
<speed>3.000000</speed>
</trkpt>
<trkpt lat="56.020401" lon="26.528326">
<ele>105.231506</ele>
<time>2010-08-29T10:36:28Z</time>
<desc>lat.=56.020401, lon.=26.528326, Alt.=105.231506m. Speed=11.448000m/h.</desc>
<speed>3.180000</speed>
</trkpt>
<trkpt lat="56.020367" lon="26.528313">
<ele>104.190491</ele>
<time>2010-08-29T10:36:29Z</time>
<desc>lat.=56.020367, lon.=26.528313, Alt.=104.190491m. Speed=13.068000m/h.</desc>
<speed>3.630000</speed>
</trkpt>
<trkpt lat="56.020336" lon="26.528292">
<ele>104.655334</ele>
<time>2010-08-29T10:36:30Z</time>
<desc>lat.=56.020336, lon.=26.528292, Alt.=104.655334m. Speed=12.168000m/h.</desc>
<speed>3.380000</speed>
</trkpt>
<trkpt lat="56.020298" lon="26.528271">
<ele>104.432678</ele>
<time>2010-08-29T10:36:31Z</time>
<desc>lat.=56.020298, lon.=26.528271, Alt.=104.432678m. Speed=13.248000m/h.</desc>
<speed>3.680000</speed>
</trkpt>
<trkpt lat="56.020260" lon="26.528254">
<ele>104.751038</ele>
<time>2010-08-29T10:36:32Z</time>
<desc>lat.=56.020260, lon.=26.528254, Alt.=104.751038m. Speed=13.680000m/h.</desc>
<speed>3.800000</speed>
</trkpt>
<trkpt lat="56.020222" lon="26.528227">
<ele>105.133850</ele>
<time>2010-08-29T10:36:33Z</time>
<desc>lat.=56.020222, lon.=26.528227, Alt.=105.133850m. Speed=16.308001m/h.</desc>
<speed>4.530000</speed>
</trkpt>
<trkpt lat="56.020180" lon="26.528198">
<ele>105.202209</ele>
<time>2010-08-29T10:36:34Z</time>
<desc>lat.=56.020180, lon.=26.528198, Alt.=105.202209m. Speed=16.488001m/h.</desc>
<speed>4.580000</speed>
</trkpt>
<trkpt lat="56.020138" lon="26.528160">
<ele>105.627991</ele>
<time>2010-08-29T10:36:35Z</time>
<desc>lat.=56.020138, lon.=26.528160, Alt.=105.627991m. Speed=16.992001m/h.</desc>
<speed>4.720000</speed>
</trkpt>
<trkpt lat="56.020092" lon="26.528122">
<ele>106.192444</ele>
<time>2010-08-29T10:36:36Z</time>
<desc>lat.=56.020092, lon.=26.528122, Alt.=106.192444m. Speed=18.216000m/h.</desc>
<speed>5.060000</speed>
</trkpt>
<trkpt lat="56.020054" lon="26.528086">
<ele>106.879944</ele>
<time>2010-08-29T10:36:37Z</time>
<desc>lat.=56.020054, lon.=26.528086, Alt.=106.879944m. Speed=16.271999m/h.</desc>
<speed>4.520000</speed>
</trkpt>
<trkpt lat="56.020016" lon="26.528044">
<ele>106.645569</ele>
<time>2010-08-29T10:36:38Z</time>
<desc>lat.=56.020016, lon.=26.528044, Alt.=106.645569m. Speed=17.100000m/h.</desc>
<speed>4.750000</speed>
</trkpt>
<trkpt lat="56.019970" lon="26.527994">
<ele>106.399475</ele>
<time>2010-08-29T10:36:39Z</time>
<desc>lat.=56.019970, lon.=26.527994, Alt.=106.399475m. Speed=16.524000m/h.</desc>
<speed>4.590000</speed>
</trkpt>
<trkpt lat="56.019932" lon="26.527943">
<ele>106.045959</ele>
<time>2010-08-29T10:36:40Z</time>
<desc>lat.=56.019932, lon.=26.527943, Alt.=106.045959m. Speed=16.416000m/h.</desc>
<speed>4.560000</speed>
</trkpt>
<trkpt lat="56.019897" lon="26.527897">
<ele>105.305725</ele>
<time>2010-08-29T10:36:41Z</time>
<desc>lat.=56.019897, lon.=26.527897, Alt.=105.305725m. Speed=16.416000m/h.</desc>
<speed>4.560000</speed>
</trkpt>
<trkpt lat="56.019863" lon="26.527853">
<ele>105.461975</ele>
<time>2010-08-29T10:36:42Z</time>
<desc>lat.=56.019863, lon.=26.527853, Alt.=105.461975m. Speed=17.100000m/h.</desc>
<speed>4.750000</speed>
</trkpt>
<trkpt lat="56.019825" lon="26.527809">
<ele>105.295959</ele>
<time>2010-08-29T10:36:43Z</time>
<desc>lat.=56.019825, lon.=26.527809, Alt.=105.295959m. Speed=16.164000m/h.</desc>
<speed>4.490000</speed>
</trkpt>
<trkpt lat="56.019798" lon="26.527754">
<ele>105.032288</ele>
<time>2010-08-29T10:36:44Z</time>
<desc>lat.=56.019798, lon.=26.527754, Alt.=105.032288m. Speed=15.264000m/h.</desc>
<speed>4.240000</speed>
</trkpt>
<trkpt lat="56.019772" lon="26.527693">
<ele>104.727600</ele>
<time>2010-08-29T10:36:45Z</time>
<desc>lat.=56.019772, lon.=26.527693, Alt.=104.727600m. Speed=14.184000m/h.</desc>
<speed>3.940000</speed>
</trkpt>
<trkpt lat="56.019760" lon="26.527637">
<ele>104.741272</ele>
<time>2010-08-29T10:36:46Z</time>
<desc>lat.=56.019760, lon.=26.527637, Alt.=104.741272m. Speed=12.672000m/h.</desc>
<speed>3.520000</speed>
</trkpt>
<trkpt lat="56.019753" lon="26.527582">
<ele>104.499084</ele>
<time>2010-08-29T10:36:47Z</time>
<desc>lat.=56.019753, lon.=26.527582, Alt.=104.499084m. Speed=12.096000m/h.</desc>
<speed>3.360000</speed>
</trkpt>
<trkpt lat="56.019749" lon="26.527529">
<ele>104.747131</ele>
<time>2010-08-29T10:36:48Z</time>
<desc>lat.=56.019749, lon.=26.527529, Alt.=104.747131m. Speed=11.520000m/h.</desc>
<speed>3.200000</speed>
</trkpt>
<trkpt lat="56.019745" lon="26.527477">
<ele>104.958069</ele>
<time>2010-08-29T10:36:49Z</time>
<desc>lat.=56.019745, lon.=26.527477, Alt.=104.958069m. Speed=12.564000m/h.</desc>
<speed>3.490000</speed>
</trkpt>
<trkpt lat="56.019741" lon="26.527414">
<ele>105.286194</ele>
<time>2010-08-29T10:36:50Z</time>
<desc>lat.=56.019741, lon.=26.527414, Alt.=105.286194m. Speed=12.924000m/h.</desc>
<speed>3.590000</speed>
</trkpt>
<trkpt lat="56.019745" lon="26.527351">
<ele>105.713928</ele>
<time>2010-08-29T10:36:51Z</time>
<desc>lat.=56.019745, lon.=26.527351, Alt.=105.713928m. Speed=12.456000m/h.</desc>
<speed>3.460000</speed>
</trkpt>
<trkpt lat="56.019749" lon="26.527300">
<ele>106.456116</ele>
<time>2010-08-29T10:36:52Z</time>
<desc>lat.=56.019749, lon.=26.527300, Alt.=106.456116m. Speed=11.808000m/h.</desc>
<speed>3.280000</speed>
</trkpt>
<trkpt lat="56.019753" lon="26.527246">
<ele>106.797913</ele>
<time>2010-08-29T10:36:53Z</time>
<desc>lat.=56.019753, lon.=26.527246, Alt.=106.797913m. Speed=11.484000m/h.</desc>
<speed>3.190000</speed>
</trkpt>
<trkpt lat="56.019764" lon="26.527201">
<ele>107.040100</ele>
<time>2010-08-29T10:36:54Z</time>
<desc>lat.=56.019764, lon.=26.527201, Alt.=107.040100m. Speed=11.016000m/h.</desc>
<speed>3.060000</speed>
</trkpt>
<trkpt lat="56.019772" lon="26.527155">
<ele>106.977600</ele>
<time>2010-08-29T10:36:55Z</time>
<desc>lat.=56.019772, lon.=26.527155, Alt.=106.977600m. Speed=10.620000m/h.</desc>
<speed>2.950000</speed>
</trkpt>
<trkpt lat="56.019775" lon="26.527111">
<ele>107.522522</ele>
<time>2010-08-29T10:36:56Z</time>
<desc>lat.=56.019775, lon.=26.527111, Alt.=107.522522m. Speed=9.612000m/h.</desc>
<speed>2.670000</speed>
</trkpt>
<trkpt lat="56.019775" lon="26.527067">
<ele>108.114319</ele>
<time>2010-08-29T10:36:57Z</time>
<desc>lat.=56.019775, lon.=26.527067, Alt.=108.114319m. Speed=10.296000m/h.</desc>
<speed>2.860000</speed>
</trkpt>
<trkpt lat="56.019775" lon="26.527021">
<ele>108.301819</ele>
<time>2010-08-29T10:36:58Z</time>
<desc>lat.=56.019775, lon.=26.527021, Alt.=108.301819m. Speed=10.692000m/h.</desc>
<speed>2.970000</speed>
</trkpt>
<trkpt lat="56.019779" lon="26.526968">
<ele>108.210022</ele>
<time>2010-08-29T10:36:59Z</time>
<desc>lat.=56.019779, lon.=26.526968, Alt.=108.210022m. Speed=11.052000m/h.</desc>
<speed>3.070000</speed>
</trkpt>
<trkpt lat="56.019783" lon="26.526911">
<ele>108.323303</ele>
<time>2010-08-29T10:37:00Z</time>
<desc>lat.=56.019783, lon.=26.526911, Alt.=108.323303m. Speed=11.088000m/h.</desc>
<speed>3.080000</speed>
</trkpt>
<trkpt lat="56.019787" lon="26.526861">
<ele>109.008850</ele>
<time>2010-08-29T10:37:01Z</time>
<desc>lat.=56.019787, lon.=26.526861, Alt.=109.008850m. Speed=10.332000m/h.</desc>
<speed>2.870000</speed>
</trkpt>
<trkpt lat="56.019783" lon="26.526808">
<ele>109.157288</ele>
<time>2010-08-29T10:37:02Z</time>
<desc>lat.=56.019783, lon.=26.526808, Alt.=109.157288m. Speed=10.368000m/h.</desc>
<speed>2.880000</speed>
</trkpt>
<trkpt lat="56.019783" lon="26.526758">
<ele>109.075256</ele>
<time>2010-08-29T10:37:03Z</time>
<desc>lat.=56.019783, lon.=26.526758, Alt.=109.075256m. Speed=11.052000m/h.</desc>
<speed>3.070000</speed>
</trkpt>
<trkpt lat="56.019783" lon="26.526707">
<ele>108.655334</ele>
<time>2010-08-29T10:37:04Z</time>
<desc>lat.=56.019783, lon.=26.526707, Alt.=108.655334m. Speed=10.872000m/h.</desc>
<speed>3.020000</speed>
</trkpt>
<trkpt lat="56.019783" lon="26.526655">
<ele>108.479553</ele>
<time>2010-08-29T10:37:05Z</time>
<desc>lat.=56.019783, lon.=26.526655, Alt.=108.479553m. Speed=11.196000m/h.</desc>
<speed>3.110000</speed>
</trkpt>
<trkpt lat="56.019787" lon="26.526594">
<ele>108.788147</ele>
<time>2010-08-29T10:37:06Z</time>
<desc>lat.=56.019787, lon.=26.526594, Alt.=108.788147m. Speed=11.664000m/h.</desc>
<speed>3.240000</speed>
</trkpt>
<trkpt lat="56.019791" lon="26.526543">
<ele>108.838928</ele>
<time>2010-08-29T10:37:07Z</time>
<desc>lat.=56.019791, lon.=26.526543, Alt.=108.838928m. Speed=11.016000m/h.</desc>
<speed>3.060000</speed>
</trkpt>
<trkpt lat="56.019791" lon="26.526493">
<ele>108.348694</ele>
<time>2010-08-29T10:37:08Z</time>
<desc>lat.=56.019791, lon.=26.526493, Alt.=108.348694m. Speed=11.520000m/h.</desc>
<speed>3.200000</speed>
</trkpt>
<trkpt lat="56.019798" lon="26.526449">
<ele>108.081116</ele>
<time>2010-08-29T10:37:09Z</time>
<desc>lat.=56.019798, lon.=26.526449, Alt.=108.081116m. Speed=10.908000m/h.</desc>
<speed>3.030000</speed>
</trkpt>
<trkpt lat="56.019798" lon="26.526400">
<ele>107.420959</ele>
<time>2010-08-29T10:37:10Z</time>
<desc>lat.=56.019798, lon.=26.526400, Alt.=107.420959m. Speed=11.448000m/h.</desc>
<speed>3.180000</speed>
</trkpt>
<trkpt lat="56.019802" lon="26.526348">
<ele>107.426819</ele>
<time>2010-08-29T10:37:11Z</time>
<desc>lat.=56.019802, lon.=26.526348, Alt.=107.426819m. Speed=11.916000m/h.</desc>
<speed>3.310000</speed>
</trkpt>
<trkpt lat="56.019814" lon="26.526281">
<ele>106.567444</ele>
<time>2010-08-29T10:37:12Z</time>
<desc>lat.=56.019814, lon.=26.526281, Alt.=106.567444m. Speed=11.952000m/h.</desc>
<speed>3.320000</speed>
</trkpt>
<trkpt lat="56.019821" lon="26.526222">
<ele>106.165100</ele>
<time>2010-08-29T10:37:13Z</time>
<desc>lat.=56.019821, lon.=26.526222, Alt.=106.165100m. Speed=11.880000m/h.</desc>
<speed>3.300000</speed>
</trkpt>
<trkpt lat="56.019833" lon="26.526173">
<ele>106.020569</ele>
<time>2010-08-29T10:37:14Z</time>
<desc>lat.=56.019833, lon.=26.526173, Alt.=106.020569m. Speed=10.044000m/h.</desc>
<speed>2.790000</speed>
</trkpt>
<trkpt lat="56.019840" lon="26.526119">
<ele>106.034241</ele>
<time>2010-08-29T10:37:15Z</time>
<desc>lat.=56.019840, lon.=26.526119, Alt.=106.034241m. Speed=10.980000m/h.</desc>
<speed>3.050000</speed>
</trkpt>
<trkpt lat="56.019836" lon="26.526054">
<ele>106.118225</ele>
<time>2010-08-29T10:37:16Z</time>
<desc>lat.=56.019836, lon.=26.526054, Alt.=106.118225m. Speed=12.420000m/h.</desc>
<speed>3.450000</speed>
</trkpt>
<trkpt lat="56.019836" lon="26.525997">
<ele>106.069397</ele>
<time>2010-08-29T10:37:17Z</time>
<desc>lat.=56.019836, lon.=26.525997, Alt.=106.069397m. Speed=12.132000m/h.</desc>
<speed>3.370000</speed>
</trkpt>
<trkpt lat="56.019840" lon="26.525944">
<ele>106.258850</ele>
<time>2010-08-29T10:37:18Z</time>
<desc>lat.=56.019840, lon.=26.525944, Alt.=106.258850m. Speed=12.816000m/h.</desc>
<speed>3.560000</speed>
</trkpt>
<trkpt lat="56.019844" lon="26.525883">
<ele>105.940491</ele>
<time>2010-08-29T10:37:19Z</time>
<desc>lat.=56.019844, lon.=26.525883, Alt.=105.940491m. Speed=12.924000m/h.</desc>
<speed>3.590000</speed>
</trkpt>
<trkpt lat="56.019848" lon="26.525822">
<ele>105.567444</ele>
<time>2010-08-29T10:37:20Z</time>
<desc>lat.=56.019848, lon.=26.525822, Alt.=105.567444m. Speed=11.952000m/h.</desc>
<speed>3.320000</speed>
</trkpt>
<trkpt lat="56.019848" lon="26.525770">
<ele>105.432678</ele>
<time>2010-08-29T10:37:21Z</time>
<desc>lat.=56.019848, lon.=26.525770, Alt.=105.432678m. Speed=12.204000m/h.</desc>
<speed>3.390000</speed>
</trkpt>
<trkpt lat="56.019848" lon="26.525717">
<ele>105.284241</ele>
<time>2010-08-29T10:37:22Z</time>
<desc>lat.=56.019848, lon.=26.525717, Alt.=105.284241m. Speed=11.304000m/h.</desc>
<speed>3.140000</speed>
</trkpt>
<trkpt lat="56.019852" lon="26.525665">
<ele>105.338928</ele>
<time>2010-08-29T10:37:23Z</time>
<desc>lat.=56.019852, lon.=26.525665, Alt.=105.338928m. Speed=11.412000m/h.</desc>
<speed>3.170000</speed>
</trkpt>
<trkpt lat="56.019859" lon="26.525616">
<ele>104.817444</ele>
<time>2010-08-29T10:37:24Z</time>
<desc>lat.=56.019859, lon.=26.525616, Alt.=104.817444m. Speed=12.348000m/h.</desc>
<speed>3.430000</speed>
</trkpt>
<trkpt lat="56.019859" lon="26.525560">
<ele>104.422913</ele>
<time>2010-08-29T10:37:25Z</time>
<desc>lat.=56.019859, lon.=26.525560, Alt.=104.422913m. Speed=13.464000m/h.</desc>
<speed>3.740000</speed>
</trkpt>
<trkpt lat="56.019863" lon="26.525505">
<ele>104.211975</ele>
<time>2010-08-29T10:37:26Z</time>
<desc>lat.=56.019863, lon.=26.525505, Alt.=104.211975m. Speed=13.320000m/h.</desc>
<speed>3.700000</speed>
</trkpt>
<trkpt lat="56.019867" lon="26.525457">
<ele>104.335022</ele>
<time>2010-08-29T10:37:27Z</time>
<desc>lat.=56.019867, lon.=26.525457, Alt.=104.335022m. Speed=12.420000m/h.</desc>
<speed>3.450000</speed>
</trkpt>
<trkpt lat="56.019875" lon="26.525391">
<ele>104.020569</ele>
<time>2010-08-29T10:37:28Z</time>
<desc>lat.=56.019875, lon.=26.525391, Alt.=104.020569m. Speed=13.284000m/h.</desc>
<speed>3.690000</speed>
</trkpt>
<trkpt lat="56.019875" lon="26.525330">
<ele>103.559631</ele>
<time>2010-08-29T10:37:29Z</time>
<desc>lat.=56.019875, lon.=26.525330, Alt.=103.559631m. Speed=13.284000m/h.</desc>
<speed>3.690000</speed>
</trkpt>
<trkpt lat="56.019882" lon="26.525272">
<ele>103.460022</ele>
<time>2010-08-29T10:37:30Z</time>
<desc>lat.=56.019882, lon.=26.525272, Alt.=103.460022m. Speed=12.492000m/h.</desc>
<speed>3.470000</speed>
</trkpt>
<trkpt lat="56.019886" lon="26.525213">
<ele>103.479553</ele>
<time>2010-08-29T10:37:31Z</time>
<desc>lat.=56.019886, lon.=26.525213, Alt.=103.479553m. Speed=11.952000m/h.</desc>
<speed>3.320000</speed>
</trkpt>
<trkpt lat="56.019890" lon="26.525154">
<ele>103.217834</ele>
<time>2010-08-29T10:37:32Z</time>
<desc>lat.=56.019890, lon.=26.525154, Alt.=103.217834m. Speed=11.952000m/h.</desc>
<speed>3.320000</speed>
</trkpt>
<trkpt lat="56.019894" lon="26.525101">
<ele>103.305725</ele>
<time>2010-08-29T10:37:33Z</time>
<desc>lat.=56.019894, lon.=26.525101, Alt.=103.305725m. Speed=11.700000m/h.</desc>
<speed>3.250000</speed>
</trkpt>
<trkpt lat="56.019901" lon="26.525045">
<ele>102.926819</ele>
<time>2010-08-29T10:37:34Z</time>
<desc>lat.=56.019901, lon.=26.525045, Alt.=102.926819m. Speed=11.448000m/h.</desc>
<speed>3.180000</speed>
</trkpt>
<trkpt lat="56.019901" lon="26.524988">
<ele>103.049866</ele>
<time>2010-08-29T10:37:35Z</time>
<desc>lat.=56.019901, lon.=26.524988, Alt.=103.049866m. Speed=12.384000m/h.</desc>
<speed>3.440000</speed>
</trkpt>
<trkpt lat="56.019901" lon="26.524937">
<ele>102.924866</ele>
<time>2010-08-29T10:37:36Z</time>
<desc>lat.=56.019901, lon.=26.524937, Alt.=102.924866m. Speed=10.584000m/h.</desc>
<speed>2.940000</speed>
</trkpt>
<trkpt lat="56.019905" lon="26.524881">
<ele>103.278381</ele>
<time>2010-08-29T10:37:37Z</time>
<desc>lat.=56.019905, lon.=26.524881, Alt.=103.278381m. Speed=12.024000m/h.</desc>
<speed>3.340000</speed>
</trkpt>
<trkpt lat="56.019909" lon="26.524828">
<ele>103.362366</ele>
<time>2010-08-29T10:37:38Z</time>
<desc>lat.=56.019909, lon.=26.524828, Alt.=103.362366m. Speed=12.996000m/h.</desc>
<speed>3.610000</speed>
</trkpt>
<trkpt lat="56.019913" lon="26.524771">
<ele>103.397522</ele>
<time>2010-08-29T10:37:39Z</time>
<desc>lat.=56.019913, lon.=26.524771, Alt.=103.397522m. Speed=12.024000m/h.</desc>
<speed>3.340000</speed>
</trkpt>
<trkpt lat="56.019924" lon="26.524712">
<ele>103.309631</ele>
<time>2010-08-29T10:37:40Z</time>
<desc>lat.=56.019924, lon.=26.524712, Alt.=103.309631m. Speed=13.356000m/h.</desc>
<speed>3.710000</speed>
</trkpt>
<trkpt lat="56.019936" lon="26.524641">
<ele>103.083069</ele>
<time>2010-08-29T10:37:41Z</time>
<desc>lat.=56.019936, lon.=26.524641, Alt.=103.083069m. Speed=14.940000m/h.</desc>
<speed>4.150000</speed>
</trkpt>
<trkpt lat="56.019932" lon="26.524565">
<ele>102.790100</ele>
<time>2010-08-29T10:37:42Z</time>
<desc>lat.=56.019932, lon.=26.524565, Alt.=102.790100m. Speed=14.364000m/h.</desc>
<speed>3.990000</speed>
</trkpt>
<trkpt lat="56.019932" lon="26.524481">
<ele>103.047913</ele>
<time>2010-08-29T10:37:43Z</time>
<desc>lat.=56.019932, lon.=26.524481, Alt.=103.047913m. Speed=14.436000m/h.</desc>
<speed>4.010000</speed>
</trkpt>
<trkpt lat="56.019943" lon="26.524412">
<ele>102.678772</ele>
<time>2010-08-29T10:37:44Z</time>
<desc>lat.=56.019943, lon.=26.524412, Alt.=102.678772m. Speed=13.716000m/h.</desc>
<speed>3.810000</speed>
</trkpt>
<trkpt lat="56.019943" lon="26.524357">
<ele>102.188538</ele>
<time>2010-08-29T10:37:45Z</time>
<desc>lat.=56.019943, lon.=26.524357, Alt.=102.188538m. Speed=10.836000m/h.</desc>
<speed>3.010000</speed>
</trkpt>
<trkpt lat="56.019947" lon="26.524307">
<ele>101.971741</ele>
<time>2010-08-29T10:37:46Z</time>
<desc>lat.=56.019947, lon.=26.524307, Alt.=101.971741m. Speed=10.080000m/h.</desc>
<speed>2.800000</speed>
</trkpt>
<trkpt lat="56.019951" lon="26.524256">
<ele>101.821350</ele>
<time>2010-08-29T10:37:47Z</time>
<desc>lat.=56.019951, lon.=26.524256, Alt.=101.821350m. Speed=9.648000m/h.</desc>
<speed>2.680000</speed>
</trkpt>
<trkpt lat="56.019955" lon="26.524199">
<ele>101.335022</ele>
<time>2010-08-29T10:37:48Z</time>
<desc>lat.=56.019955, lon.=26.524199, Alt.=101.335022m. Speed=10.116000m/h.</desc>
<speed>2.810000</speed>
</trkpt>
<trkpt lat="56.019974" lon="26.524145">
<ele>100.710022</ele>
<time>2010-08-29T10:37:49Z</time>
<desc>lat.=56.019974, lon.=26.524145, Alt.=100.710022m. Speed=8.928000m/h.</desc>
<speed>2.480000</speed>
</trkpt>
<trkpt lat="56.020000" lon="26.524090">
<ele>99.928772</ele>
<time>2010-08-29T10:37:50Z</time>
<desc>lat.=56.020000, lon.=26.524090, Alt.=99.928772m. Speed=9.108000m/h.</desc>
<speed>2.530000</speed>
</trkpt>
<trkpt lat="56.020016" lon="26.524044">
<ele>99.561584</ele>
<time>2010-08-29T10:37:51Z</time>
<desc>lat.=56.020016, lon.=26.524044, Alt.=99.561584m. Speed=8.460000m/h.</desc>
<speed>2.350000</speed>
</trkpt>
<trkpt lat="56.020035" lon="26.523996">
<ele>99.840881</ele>
<time>2010-08-29T10:37:52Z</time>
<desc>lat.=56.020035, lon.=26.523996, Alt.=99.840881m. Speed=8.928000m/h.</desc>
<speed>2.480000</speed>
</trkpt>
<trkpt lat="56.020054" lon="26.523951">
<ele>99.647522</ele>
<time>2010-08-29T10:37:53Z</time>
<desc>lat.=56.020054, lon.=26.523951, Alt.=99.647522m. Speed=8.964000m/h.</desc>
<speed>2.490000</speed>
</trkpt>
<trkpt lat="56.020069" lon="26.523905">
<ele>99.512756</ele>
<time>2010-08-29T10:37:54Z</time>
<desc>lat.=56.020069, lon.=26.523905, Alt.=99.512756m. Speed=9.756000m/h.</desc>
<speed>2.710000</speed>
</trkpt>
<trkpt lat="56.020073" lon="26.523842">
<ele>99.374084</ele>
<time>2010-08-29T10:37:55Z</time>
<desc>lat.=56.020073, lon.=26.523842, Alt.=99.374084m. Speed=10.008000m/h.</desc>
<speed>2.780000</speed>
</trkpt>
<trkpt lat="56.020077" lon="26.523767">
<ele>98.758850</ele>
<time>2010-08-29T10:37:56Z</time>
<desc>lat.=56.020077, lon.=26.523767, Alt.=98.758850m. Speed=10.044000m/h.</desc>
<speed>2.790000</speed>
</trkpt>
<trkpt lat="56.020077" lon="26.523691">
<ele>98.467834</ele>
<time>2010-08-29T10:37:57Z</time>
<desc>lat.=56.020077, lon.=26.523691, Alt.=98.467834m. Speed=11.700000m/h.</desc>
<speed>3.250000</speed>
</trkpt>
<trkpt lat="56.020088" lon="26.523634">
<ele>98.233459</ele>
<time>2010-08-29T10:37:58Z</time>
<desc>lat.=56.020088, lon.=26.523634, Alt.=98.233459m. Speed=10.368000m/h.</desc>
<speed>2.880000</speed>
</trkpt>
<trkpt lat="56.020096" lon="26.523569">
<ele>97.858459</ele>
<time>2010-08-29T10:37:59Z</time>
<desc>lat.=56.020096, lon.=26.523569, Alt.=97.858459m. Speed=10.620000m/h.</desc>
<speed>2.950000</speed>
</trkpt>
<trkpt lat="56.020100" lon="26.523510">
<ele>97.762756</ele>
<time>2010-08-29T10:38:00Z</time>
<desc>lat.=56.020100, lon.=26.523510, Alt.=97.762756m. Speed=10.908000m/h.</desc>
<speed>3.030000</speed>
</trkpt>
<trkpt lat="56.020107" lon="26.523457">
<ele>97.872131</ele>
<time>2010-08-29T10:38:01Z</time>
<desc>lat.=56.020107, lon.=26.523457, Alt.=97.872131m. Speed=10.980000m/h.</desc>
<speed>3.050000</speed>
</trkpt>
<trkpt lat="56.020119" lon="26.523409">
<ele>98.112366</ele>
<time>2010-08-29T10:38:02Z</time>
<desc>lat.=56.020119, lon.=26.523409, Alt.=98.112366m. Speed=10.872000m/h.</desc>
<speed>3.020000</speed>
</trkpt>
<trkpt lat="56.020130" lon="26.523355">
<ele>98.297913</ele>
<time>2010-08-29T10:38:03Z</time>
<desc>lat.=56.020130, lon.=26.523355, Alt.=98.297913m. Speed=10.908000m/h.</desc>
<speed>3.030000</speed>
</trkpt>
<trkpt lat="56.020142" lon="26.523300">
<ele>98.504944</ele>
<time>2010-08-29T10:38:04Z</time>
<desc>lat.=56.020142, lon.=26.523300, Alt.=98.504944m. Speed=10.620000m/h.</desc>
<speed>2.950000</speed>
</trkpt>
<trkpt lat="56.020145" lon="26.523245">
<ele>98.438538</ele>
<time>2010-08-29T10:38:05Z</time>
<desc>lat.=56.020145, lon.=26.523245, Alt.=98.438538m. Speed=9.756000m/h.</desc>
<speed>2.710000</speed>
</trkpt>
<trkpt lat="56.020153" lon="26.523211">
<ele>98.690491</ele>
<time>2010-08-29T10:38:06Z</time>
<desc>lat.=56.020153, lon.=26.523211, Alt.=98.690491m. Speed=8.460000m/h.</desc>
<speed>2.350000</speed>
</trkpt>
<trkpt lat="56.020157" lon="26.523170">
<ele>98.883850</ele>
<time>2010-08-29T10:38:07Z</time>
<desc>lat.=56.020157, lon.=26.523170, Alt.=98.883850m. Speed=9.432000m/h.</desc>
<speed>2.620000</speed>
</trkpt>
<trkpt lat="56.020172" lon="26.523121">
<ele>99.430725</ele>
<time>2010-08-29T10:38:08Z</time>
<desc>lat.=56.020172, lon.=26.523121, Alt.=99.430725m. Speed=11.880000m/h.</desc>
<speed>3.300000</speed>
</trkpt>
<trkpt lat="56.020187" lon="26.523064">
<ele>99.417053</ele>
<time>2010-08-29T10:38:09Z</time>
<desc>lat.=56.020187, lon.=26.523064, Alt.=99.417053m. Speed=11.880000m/h.</desc>
<speed>3.300000</speed>
</trkpt>
<trkpt lat="56.020206" lon="26.523014">
<ele>99.528381</ele>
<time>2010-08-29T10:38:10Z</time>
<desc>lat.=56.020206, lon.=26.523014, Alt.=99.528381m. Speed=10.332000m/h.</desc>
<speed>2.870000</speed>
</trkpt>
<trkpt lat="56.020222" lon="26.522968">
<ele>99.485413</ele>
<time>2010-08-29T10:38:11Z</time>
<desc>lat.=56.020222, lon.=26.522968, Alt.=99.485413m. Speed=9.072000m/h.</desc>
<speed>2.520000</speed>
</trkpt>
<trkpt lat="56.020229" lon="26.522921">
<ele>99.571350</ele>
<time>2010-08-29T10:38:12Z</time>
<desc>lat.=56.020229, lon.=26.522921, Alt.=99.571350m. Speed=10.368000m/h.</desc>
<speed>2.880000</speed>
</trkpt>
<trkpt lat="56.020245" lon="26.522869">
<ele>99.526428</ele>
<time>2010-08-29T10:38:13Z</time>
<desc>lat.=56.020245, lon.=26.522869, Alt.=99.526428m. Speed=9.396000m/h.</desc>
<speed>2.610000</speed>
</trkpt>
<trkpt lat="56.020256" lon="26.522829">
<ele>99.917053</ele>
<time>2010-08-29T10:38:14Z</time>
<desc>lat.=56.020256, lon.=26.522829, Alt.=99.917053m. Speed=10.476000m/h.</desc>
<speed>2.910000</speed>
</trkpt>
<trkpt lat="56.020271" lon="26.522770">
<ele>100.385803</ele>
<time>2010-08-29T10:38:15Z</time>
<desc>lat.=56.020271, lon.=26.522770, Alt.=100.385803m. Speed=12.816000m/h.</desc>
<speed>3.560000</speed>
</trkpt>
<trkpt lat="56.020283" lon="26.522717">
<ele>100.743225</ele>
<time>2010-08-29T10:38:16Z</time>
<desc>lat.=56.020283, lon.=26.522717, Alt.=100.743225m. Speed=12.024000m/h.</desc>
<speed>3.340000</speed>
</trkpt>
<trkpt lat="56.020294" lon="26.522654">
<ele>100.661194</ele>
<time>2010-08-29T10:38:17Z</time>
<desc>lat.=56.020294, lon.=26.522654, Alt.=100.661194m. Speed=13.428000m/h.</desc>
<speed>3.730000</speed>
</trkpt>
<trkpt lat="56.020313" lon="26.522596">
<ele>100.711975</ele>
<time>2010-08-29T10:38:18Z</time>
<desc>lat.=56.020313, lon.=26.522596, Alt.=100.711975m. Speed=12.744000m/h.</desc>
<speed>3.540000</speed>
</trkpt>
<trkpt lat="56.020332" lon="26.522547">
<ele>100.934631</ele>
<time>2010-08-29T10:38:19Z</time>
<desc>lat.=56.020332, lon.=26.522547, Alt.=100.934631m. Speed=12.672000m/h.</desc>
<speed>3.520000</speed>
</trkpt>
<trkpt lat="56.020355" lon="26.522486">
<ele>101.700256</ele>
<time>2010-08-29T10:38:20Z</time>
<desc>lat.=56.020355, lon.=26.522486, Alt.=101.700256m. Speed=12.672000m/h.</desc>
<speed>3.520000</speed>
</trkpt>
<trkpt lat="56.020367" lon="26.522423">
<ele>101.928772</ele>
<time>2010-08-29T10:38:21Z</time>
<desc>lat.=56.020367, lon.=26.522423, Alt.=101.928772m. Speed=12.024000m/h.</desc>
<speed>3.340000</speed>
</trkpt>
<trkpt lat="56.020374" lon="26.522360">
<ele>101.866272</ele>
<time>2010-08-29T10:38:22Z</time>
<desc>lat.=56.020374, lon.=26.522360, Alt.=101.866272m. Speed=11.916000m/h.</desc>
<speed>3.310000</speed>
</trkpt>
<trkpt lat="56.020386" lon="26.522308">
<ele>101.544006</ele>
<time>2010-08-29T10:38:23Z</time>
<desc>lat.=56.020386, lon.=26.522308, Alt.=101.544006m. Speed=9.792000m/h.</desc>
<speed>2.720000</speed>
</trkpt>
<trkpt lat="56.020390" lon="26.522251">
<ele>101.077209</ele>
<time>2010-08-29T10:38:24Z</time>
<desc>lat.=56.020390, lon.=26.522251, Alt.=101.077209m. Speed=10.044000m/h.</desc>
<speed>2.790000</speed>
</trkpt>
<trkpt lat="56.020397" lon="26.522203">
<ele>100.895569</ele>
<time>2010-08-29T10:38:25Z</time>
<desc>lat.=56.020397, lon.=26.522203, Alt.=100.895569m. Speed=10.152000m/h.</desc>
<speed>2.820000</speed>
</trkpt>
<trkpt lat="56.020393" lon="26.522137">
<ele>100.415100</ele>
<time>2010-08-29T10:38:26Z</time>
<desc>lat.=56.020393, lon.=26.522137, Alt.=100.415100m. Speed=11.844000m/h.</desc>
<speed>3.290000</speed>
</trkpt>
<trkpt lat="56.020397" lon="26.522055">
<ele>99.610413</ele>
<time>2010-08-29T10:38:27Z</time>
<desc>lat.=56.020397, lon.=26.522055, Alt.=99.610413m. Speed=13.392000m/h.</desc>
<speed>3.720000</speed>
</trkpt>
<trkpt lat="56.020409" lon="26.521976">
<ele>98.799866</ele>
<time>2010-08-29T10:38:28Z</time>
<desc>lat.=56.020409, lon.=26.521976, Alt.=98.799866m. Speed=12.564000m/h.</desc>
<speed>3.490000</speed>
</trkpt>
<trkpt lat="56.020424" lon="26.521917">
<ele>98.770569</ele>
<time>2010-08-29T10:38:29Z</time>
<desc>lat.=56.020424, lon.=26.521917, Alt.=98.770569m. Speed=11.916000m/h.</desc>
<speed>3.310000</speed>
</trkpt>
<trkpt lat="56.020432" lon="26.521849">
<ele>98.258850</ele>
<time>2010-08-29T10:38:30Z</time>
<desc>lat.=56.020432, lon.=26.521849, Alt.=98.258850m. Speed=13.212000m/h.</desc>
<speed>3.670000</speed>
</trkpt>
<trkpt lat="56.020439" lon="26.521795">
<ele>98.549866</ele>
<time>2010-08-29T10:38:31Z</time>
<desc>lat.=56.020439, lon.=26.521795, Alt.=98.549866m. Speed=10.512000m/h.</desc>
<speed>2.920000</speed>
</trkpt>
<trkpt lat="56.020447" lon="26.521746">
<ele>98.432678</ele>
<time>2010-08-29T10:38:32Z</time>
<desc>lat.=56.020447, lon.=26.521746, Alt.=98.432678m. Speed=10.512000m/h.</desc>
<speed>2.920000</speed>
</trkpt>
<trkpt lat="56.020454" lon="26.521688">
<ele>98.194397</ele>
<time>2010-08-29T10:38:33Z</time>
<desc>lat.=56.020454, lon.=26.521688, Alt.=98.194397m. Speed=11.052000m/h.</desc>
<speed>3.070000</speed>
</trkpt>
<trkpt lat="56.020462" lon="26.521629">
<ele>98.251038</ele>
<time>2010-08-29T10:38:34Z</time>
<desc>lat.=56.020462, lon.=26.521629, Alt.=98.251038m. Speed=11.988000m/h.</desc>
<speed>3.330000</speed>
</trkpt>
<trkpt lat="56.020466" lon="26.521572">
<ele>98.735413</ele>
<time>2010-08-29T10:38:35Z</time>
<desc>lat.=56.020466, lon.=26.521572, Alt.=98.735413m. Speed=11.232000m/h.</desc>
<speed>3.120000</speed>
</trkpt>
<trkpt lat="56.020470" lon="26.521515">
<ele>98.176819</ele>
<time>2010-08-29T10:38:36Z</time>
<desc>lat.=56.020470, lon.=26.521515, Alt.=98.176819m. Speed=11.952000m/h.</desc>
<speed>3.320000</speed>
</trkpt>
<trkpt lat="56.020470" lon="26.521452">
<ele>98.151428</ele>
<time>2010-08-29T10:38:37Z</time>
<desc>lat.=56.020470, lon.=26.521452, Alt.=98.151428m. Speed=12.420000m/h.</desc>
<speed>3.450000</speed>
</trkpt>
<trkpt lat="56.020470" lon="26.521385">
<ele>98.075256</ele>
<time>2010-08-29T10:38:38Z</time>
<desc>lat.=56.020470, lon.=26.521385, Alt.=98.075256m. Speed=12.528000m/h.</desc>
<speed>3.480000</speed>
</trkpt>
<trkpt lat="56.020477" lon="26.521326">
<ele>97.852600</ele>
<time>2010-08-29T10:38:39Z</time>
<desc>lat.=56.020477, lon.=26.521326, Alt.=97.852600m. Speed=12.420000m/h.</desc>
<speed>3.450000</speed>
</trkpt>
<trkpt lat="56.020489" lon="26.521278">
<ele>97.885803</ele>
<time>2010-08-29T10:38:40Z</time>
<desc>lat.=56.020489, lon.=26.521278, Alt.=97.885803m. Speed=10.872000m/h.</desc>
<speed>3.020000</speed>
</trkpt>
<trkpt lat="56.020504" lon="26.521223">
<ele>97.747131</ele>
<time>2010-08-29T10:38:41Z</time>
<desc>lat.=56.020504, lon.=26.521223, Alt.=97.747131m. Speed=11.268000m/h.</desc>
<speed>3.130000</speed>
</trkpt>
<trkpt lat="56.020515" lon="26.521172">
<ele>97.442444</ele>
<time>2010-08-29T10:38:42Z</time>
<desc>lat.=56.020515, lon.=26.521172, Alt.=97.442444m. Speed=12.168000m/h.</desc>
<speed>3.380000</speed>
</trkpt>
<trkpt lat="56.020527" lon="26.521126">
<ele>96.969788</ele>
<time>2010-08-29T10:38:43Z</time>
<desc>lat.=56.020527, lon.=26.521126, Alt.=96.969788m. Speed=10.188000m/h.</desc>
<speed>2.830000</speed>
</trkpt>
<trkpt lat="56.020538" lon="26.521080">
<ele>96.473694</ele>
<time>2010-08-29T10:38:44Z</time>
<desc>lat.=56.020538, lon.=26.521080, Alt.=96.473694m. Speed=11.808000m/h.</desc>
<speed>3.280000</speed>
</trkpt>
<trkpt lat="56.020546" lon="26.521030">
<ele>95.967834</ele>
<time>2010-08-29T10:38:45Z</time>
<desc>lat.=56.020546, lon.=26.521030, Alt.=95.967834m. Speed=11.592000m/h.</desc>
<speed>3.220000</speed>
</trkpt>
<trkpt lat="56.020561" lon="26.520979">
<ele>95.731506</ele>
<time>2010-08-29T10:38:46Z</time>
<desc>lat.=56.020561, lon.=26.520979, Alt.=95.731506m. Speed=10.728000m/h.</desc>
<speed>2.980000</speed>
</trkpt>
<trkpt lat="56.020573" lon="26.520931">
<ele>95.321350</ele>
<time>2010-08-29T10:38:47Z</time>
<desc>lat.=56.020573, lon.=26.520931, Alt.=95.321350m. Speed=10.980000m/h.</desc>
<speed>3.050000</speed>
</trkpt>
<trkpt lat="56.020584" lon="26.520878">
<ele>94.952209</ele>
<time>2010-08-29T10:38:48Z</time>
<desc>lat.=56.020584, lon.=26.520878, Alt.=94.952209m. Speed=11.448000m/h.</desc>
<speed>3.180000</speed>
</trkpt>
<trkpt lat="56.020599" lon="26.520832">
<ele>94.581116</ele>
<time>2010-08-29T10:38:49Z</time>
<desc>lat.=56.020599, lon.=26.520832, Alt.=94.581116m. Speed=11.592000m/h.</desc>
<speed>3.220000</speed>
</trkpt>
<trkpt lat="56.020611" lon="26.520784">
<ele>94.428772</ele>
<time>2010-08-29T10:38:50Z</time>
<desc>lat.=56.020611, lon.=26.520784, Alt.=94.428772m. Speed=12.312000m/h.</desc>
<speed>3.420000</speed>
</trkpt>
<trkpt lat="56.020630" lon="26.520733">
<ele>94.208069</ele>
<time>2010-08-29T10:38:51Z</time>
<desc>lat.=56.020630, lon.=26.520733, Alt.=94.208069m. Speed=11.556000m/h.</desc>
<speed>3.210000</speed>
</trkpt>
<trkpt lat="56.020645" lon="26.520689">
<ele>94.053772</ele>
<time>2010-08-29T10:38:52Z</time>
<desc>lat.=56.020645, lon.=26.520689, Alt.=94.053772m. Speed=10.368000m/h.</desc>
<speed>2.880000</speed>
</trkpt>
<trkpt lat="56.020660" lon="26.520643">
<ele>94.274475</ele>
<time>2010-08-29T10:38:53Z</time>
<desc>lat.=56.020660, lon.=26.520643, Alt.=94.274475m. Speed=11.700000m/h.</desc>
<speed>3.250000</speed>
</trkpt>
<trkpt lat="56.020676" lon="26.520594">
<ele>94.797913</ele>
<time>2010-08-29T10:38:54Z</time>
<desc>lat.=56.020676, lon.=26.520594, Alt.=94.797913m. Speed=10.656000m/h.</desc>
<speed>2.960000</speed>
</trkpt>
<trkpt lat="56.020691" lon="26.520548">
<ele>95.169006</ele>
<time>2010-08-29T10:38:55Z</time>
<desc>lat.=56.020691, lon.=26.520548, Alt.=95.169006m. Speed=9.180000m/h.</desc>
<speed>2.550000</speed>
</trkpt>
<trkpt lat="56.020718" lon="26.520506">
<ele>95.563538</ele>
<time>2010-08-29T10:38:56Z</time>
<desc>lat.=56.020718, lon.=26.520506, Alt.=95.563538m. Speed=9.576000m/h.</desc>
<speed>2.660000</speed>
</trkpt>
<trkpt lat="56.020737" lon="26.520464">
<ele>95.885803</ele>
<time>2010-08-29T10:38:57Z</time>
<desc>lat.=56.020737, lon.=26.520464, Alt.=95.885803m. Speed=9.108000m/h.</desc>
<speed>2.530000</speed>
</trkpt>
<trkpt lat="56.020760" lon="26.520426">
<ele>96.559631</ele>
<time>2010-08-29T10:38:58Z</time>
<desc>lat.=56.020760, lon.=26.520426, Alt.=96.559631m. Speed=9.396000m/h.</desc>
<speed>2.610000</speed>
</trkpt>
<trkpt lat="56.020782" lon="26.520382">
<ele>96.737366</ele>
<time>2010-08-29T10:38:59Z</time>
<desc>lat.=56.020782, lon.=26.520382, Alt.=96.737366m. Speed=10.476000m/h.</desc>
<speed>2.910000</speed>
</trkpt>
<trkpt lat="56.020802" lon="26.520351">
<ele>96.340881</ele>
<time>2010-08-29T10:39:00Z</time>
<desc>lat.=56.020802, lon.=26.520351, Alt.=96.340881m. Speed=9.108000m/h.</desc>
<speed>2.530000</speed>
</trkpt>
<trkpt lat="56.020821" lon="26.520319">
<ele>96.217834</ele>
<time>2010-08-29T10:39:01Z</time>
<desc>lat.=56.020821, lon.=26.520319, Alt.=96.217834m. Speed=9.792000m/h.</desc>
<speed>2.720000</speed>
</trkpt>
<trkpt lat="56.020832" lon="26.520281">
<ele>96.280334</ele>
<time>2010-08-29T10:39:02Z</time>
<desc>lat.=56.020832, lon.=26.520281, Alt.=96.280334m. Speed=11.232000m/h.</desc>
<speed>3.120000</speed>
</trkpt>
<trkpt lat="56.020844" lon="26.520233">
<ele>96.194397</ele>
<time>2010-08-29T10:39:03Z</time>
<desc>lat.=56.020844, lon.=26.520233, Alt.=96.194397m. Speed=12.132000m/h.</desc>
<speed>3.370000</speed>
</trkpt>
<trkpt lat="56.020859" lon="26.520191">
<ele>96.075256</ele>
<time>2010-08-29T10:39:04Z</time>
<desc>lat.=56.020859, lon.=26.520191, Alt.=96.075256m. Speed=11.664000m/h.</desc>
<speed>3.240000</speed>
</trkpt>
<trkpt lat="56.020878" lon="26.520140">
<ele>95.477600</ele>
<time>2010-08-29T10:39:05Z</time>
<desc>lat.=56.020878, lon.=26.520140, Alt.=95.477600m. Speed=12.708000m/h.</desc>
<speed>3.530000</speed>
</trkpt>
<trkpt lat="56.020893" lon="26.520086">
<ele>94.649475</ele>
<time>2010-08-29T10:39:06Z</time>
<desc>lat.=56.020893, lon.=26.520086, Alt.=94.649475m. Speed=11.124000m/h.</desc>
<speed>3.090000</speed>
</trkpt>
<trkpt lat="56.020905" lon="26.520033">
<ele>94.309631</ele>
<time>2010-08-29T10:39:07Z</time>
<desc>lat.=56.020905, lon.=26.520033, Alt.=94.309631m. Speed=12.276000m/h.</desc>
<speed>3.410000</speed>
</trkpt>
<trkpt lat="56.020920" lon="26.519983">
<ele>93.821350</ele>
<time>2010-08-29T10:39:08Z</time>
<desc>lat.=56.020920, lon.=26.519983, Alt.=93.821350m. Speed=12.276000m/h.</desc>
<speed>3.410000</speed>
</trkpt>
<trkpt lat="56.020935" lon="26.519934">
<ele>93.385803</ele>
<time>2010-08-29T10:39:09Z</time>
<desc>lat.=56.020935, lon.=26.519934, Alt.=93.385803m. Speed=11.916000m/h.</desc>
<speed>3.310000</speed>
</trkpt>
<trkpt lat="56.020954" lon="26.519880">
<ele>92.727600</ele>
<time>2010-08-29T10:39:10Z</time>
<desc>lat.=56.020954, lon.=26.519880, Alt.=92.727600m. Speed=13.428000m/h.</desc>
<speed>3.730000</speed>
</trkpt>
<trkpt lat="56.020969" lon="26.519833">
<ele>92.014709</ele>
<time>2010-08-29T10:39:11Z</time>
<desc>lat.=56.020969, lon.=26.519833, Alt.=92.014709m. Speed=12.060000m/h.</desc>
<speed>3.350000</speed>
</trkpt>
<trkpt lat="56.020985" lon="26.519781">
<ele>91.356506</ele>
<time>2010-08-29T10:39:12Z</time>
<desc>lat.=56.020985, lon.=26.519781, Alt.=91.356506m. Speed=12.996000m/h.</desc>
<speed>3.610000</speed>
</trkpt>
<trkpt lat="56.021004" lon="26.519730">
<ele>90.944397</ele>
<time>2010-08-29T10:39:13Z</time>
<desc>lat.=56.021004, lon.=26.519730, Alt.=90.944397m. Speed=12.024000m/h.</desc>
<speed>3.340000</speed>
</trkpt>
<trkpt lat="56.021015" lon="26.519680">
<ele>90.862366</ele>
<time>2010-08-29T10:39:14Z</time>
<desc>lat.=56.021015, lon.=26.519680, Alt.=90.862366m. Speed=12.132000m/h.</desc>
<speed>3.370000</speed>
</trkpt>
<trkpt lat="56.021034" lon="26.519638">
<ele>90.794006</ele>
<time>2010-08-29T10:39:15Z</time>
<desc>lat.=56.021034, lon.=26.519638, Alt.=90.794006m. Speed=11.340000m/h.</desc>
<speed>3.150000</speed>
</trkpt>
<trkpt lat="56.021049" lon="26.519598">
<ele>90.891663</ele>
<time>2010-08-29T10:39:16Z</time>
<desc>lat.=56.021049, lon.=26.519598, Alt.=90.891663m. Speed=10.620000m/h.</desc>
<speed>2.950000</speed>
</trkpt>
<trkpt lat="56.021069" lon="26.519558">
<ele>90.739319</ele>
<time>2010-08-29T10:39:17Z</time>
<desc>lat.=56.021069, lon.=26.519558, Alt.=90.739319m. Speed=11.808000m/h.</desc>
<speed>3.280000</speed>
</trkpt>
<trkpt lat="56.021088" lon="26.519499">
<ele>91.301819</ele>
<time>2010-08-29T10:39:18Z</time>
<desc>lat.=56.021088, lon.=26.519499, Alt.=91.301819m. Speed=12.240000m/h.</desc>
<speed>3.400000</speed>
</trkpt>
<trkpt lat="56.021107" lon="26.519455">
<ele>91.016663</ele>
<time>2010-08-29T10:39:19Z</time>
<desc>lat.=56.021107, lon.=26.519455, Alt.=91.016663m. Speed=11.952000m/h.</desc>
<speed>3.320000</speed>
</trkpt>
<trkpt lat="56.021130" lon="26.519402">
<ele>91.704163</ele>
<time>2010-08-29T10:39:20Z</time>
<desc>lat.=56.021130, lon.=26.519402, Alt.=91.704163m. Speed=11.700000m/h.</desc>
<speed>3.250000</speed>
</trkpt>
<trkpt lat="56.021149" lon="26.519348">
<ele>92.202209</ele>
<time>2010-08-29T10:39:21Z</time>
<desc>lat.=56.021149, lon.=26.519348, Alt.=92.202209m. Speed=11.952000m/h.</desc>
<speed>3.320000</speed>
</trkpt>
<trkpt lat="56.021172" lon="26.519304">
<ele>92.243225</ele>
<time>2010-08-29T10:39:22Z</time>
<desc>lat.=56.021172, lon.=26.519304, Alt.=92.243225m. Speed=12.492000m/h.</desc>
<speed>3.470000</speed>
</trkpt>
<trkpt lat="56.021202" lon="26.519268">
<ele>92.374084</ele>
<time>2010-08-29T10:39:23Z</time>
<desc>lat.=56.021202, lon.=26.519268, Alt.=92.374084m. Speed=12.780000m/h.</desc>
<speed>3.550000</speed>
</trkpt>
<trkpt lat="56.021229" lon="26.519232">
<ele>92.450256</ele>
<time>2010-08-29T10:39:24Z</time>
<desc>lat.=56.021229, lon.=26.519232, Alt.=92.450256m. Speed=12.708000m/h.</desc>
<speed>3.530000</speed>
</trkpt>
<trkpt lat="56.021259" lon="26.519188">
<ele>92.370178</ele>
<time>2010-08-29T10:39:25Z</time>
<desc>lat.=56.021259, lon.=26.519188, Alt.=92.370178m. Speed=12.420000m/h.</desc>
<speed>3.450000</speed>
</trkpt>
<trkpt lat="56.021286" lon="26.519154">
<ele>92.524475</ele>
<time>2010-08-29T10:39:26Z</time>
<desc>lat.=56.021286, lon.=26.519154, Alt.=92.524475m. Speed=11.484000m/h.</desc>
<speed>3.190000</speed>
</trkpt>
<trkpt lat="56.021309" lon="26.519119">
<ele>92.604553</ele>
<time>2010-08-29T10:39:27Z</time>
<desc>lat.=56.021309, lon.=26.519119, Alt.=92.604553m. Speed=9.504000m/h.</desc>
<speed>2.640000</speed>
</trkpt>
<trkpt lat="56.021336" lon="26.519089">
<ele>92.299866</ele>
<time>2010-08-29T10:39:28Z</time>
<desc>lat.=56.021336, lon.=26.519089, Alt.=92.299866m. Speed=10.656000m/h.</desc>
<speed>2.960000</speed>
</trkpt>
<trkpt lat="56.021362" lon="26.519064">
<ele>92.745178</ele>
<time>2010-08-29T10:39:29Z</time>
<desc>lat.=56.021362, lon.=26.519064, Alt.=92.745178m. Speed=12.672000m/h.</desc>
<speed>3.520000</speed>
</trkpt>
<trkpt lat="56.021385" lon="26.519047">
<ele>94.075256</ele>
<time>2010-08-29T10:39:30Z</time>
<desc>lat.=56.021385, lon.=26.519047, Alt.=94.075256m. Speed=12.744000m/h.</desc>
<speed>3.540000</speed>
</trkpt>
<trkpt lat="56.021416" lon="26.519026">
<ele>94.170959</ele>
<time>2010-08-29T10:39:31Z</time>
<desc>lat.=56.021416, lon.=26.519026, Alt.=94.170959m. Speed=13.320000m/h.</desc>
<speed>3.700000</speed>
</trkpt>
<trkpt lat="56.021446" lon="26.519007">
<ele>93.877991</ele>
<time>2010-08-29T10:39:32Z</time>
<desc>lat.=56.021446, lon.=26.519007, Alt.=93.877991m. Speed=12.060000m/h.</desc>
<speed>3.350000</speed>
</trkpt>
<trkpt lat="56.021477" lon="26.518993">
<ele>93.782288</ele>
<time>2010-08-29T10:39:33Z</time>
<desc>lat.=56.021477, lon.=26.518993, Alt.=93.782288m. Speed=12.204000m/h.</desc>
<speed>3.390000</speed>
</trkpt>
<trkpt lat="56.021511" lon="26.518974">
<ele>93.696350</ele>
<time>2010-08-29T10:39:34Z</time>
<desc>lat.=56.021511, lon.=26.518974, Alt.=93.696350m. Speed=12.204000m/h.</desc>
<speed>3.390000</speed>
</trkpt>
<trkpt lat="56.021545" lon="26.518957">
<ele>93.838928</ele>
<time>2010-08-29T10:39:35Z</time>
<desc>lat.=56.021545, lon.=26.518957, Alt.=93.838928m. Speed=12.492000m/h.</desc>
<speed>3.470000</speed>
</trkpt>
<trkpt lat="56.021576" lon="26.518946">
<ele>92.991272</ele>
<time>2010-08-29T10:39:36Z</time>
<desc>lat.=56.021576, lon.=26.518946, Alt.=92.991272m. Speed=13.176000m/h.</desc>
<speed>3.660000</speed>
</trkpt>
<trkpt lat="56.021610" lon="26.518929">
<ele>91.983459</ele>
<time>2010-08-29T10:39:37Z</time>
<desc>lat.=56.021610, lon.=26.518929, Alt.=91.983459m. Speed=13.896000m/h.</desc>
<speed>3.860000</speed>
</trkpt>
<trkpt lat="56.021645" lon="26.518913">
<ele>91.635803</ele>
<time>2010-08-29T10:39:38Z</time>
<desc>lat.=56.021645, lon.=26.518913, Alt.=91.635803m. Speed=14.256000m/h.</desc>
<speed>3.960000</speed>
</trkpt>
<trkpt lat="56.021679" lon="26.518890">
<ele>91.848694</ele>
<time>2010-08-29T10:39:39Z</time>
<desc>lat.=56.021679, lon.=26.518890, Alt.=91.848694m. Speed=14.976000m/h.</desc>
<speed>4.160000</speed>
</trkpt>
<trkpt lat="56.021717" lon="26.518869">
<ele>91.534241</ele>
<time>2010-08-29T10:39:40Z</time>
<desc>lat.=56.021717, lon.=26.518869, Alt.=91.534241m. Speed=13.788000m/h.</desc>
<speed>3.830000</speed>
</trkpt>
<trkpt lat="56.021748" lon="26.518860">
<ele>91.362366</ele>
<time>2010-08-29T10:39:41Z</time>
<desc>lat.=56.021748, lon.=26.518860, Alt.=91.362366m. Speed=13.284000m/h.</desc>
<speed>3.690000</speed>
</trkpt>
<trkpt lat="56.021778" lon="26.518854">
<ele>90.805725</ele>
<time>2010-08-29T10:39:42Z</time>
<desc>lat.=56.021778, lon.=26.518854, Alt.=90.805725m. Speed=13.356000m/h.</desc>
<speed>3.710000</speed>
</trkpt>
<trkpt lat="56.021809" lon="26.518848">
<ele>90.690491</ele>
<time>2010-08-29T10:39:43Z</time>
<desc>lat.=56.021809, lon.=26.518848, Alt.=90.690491m. Speed=12.348000m/h.</desc>
<speed>3.430000</speed>
</trkpt>
<trkpt lat="56.021839" lon="26.518835">
<ele>90.510803</ele>
<time>2010-08-29T10:39:44Z</time>
<desc>lat.=56.021839, lon.=26.518835, Alt.=90.510803m. Speed=13.392000m/h.</desc>
<speed>3.720000</speed>
</trkpt>
<trkpt lat="56.021870" lon="26.518827">
<ele>90.706116</ele>
<time>2010-08-29T10:39:45Z</time>
<desc>lat.=56.021870, lon.=26.518827, Alt.=90.706116m. Speed=13.788000m/h.</desc>
<speed>3.830000</speed>
</trkpt>
<trkpt lat="56.021908" lon="26.518827">
<ele>90.989319</ele>
<time>2010-08-29T10:39:46Z</time>
<desc>lat.=56.021908, lon.=26.518827, Alt.=90.989319m. Speed=13.572000m/h.</desc>
<speed>3.770000</speed>
</trkpt>
<trkpt lat="56.021942" lon="26.518818">
<ele>90.815491</ele>
<time>2010-08-29T10:39:47Z</time>
<desc>lat.=56.021942, lon.=26.518818, Alt.=90.815491m. Speed=14.184000m/h.</desc>
<speed>3.940000</speed>
</trkpt>
<trkpt lat="56.021976" lon="26.518806">
<ele>90.504944</ele>
<time>2010-08-29T10:39:48Z</time>
<desc>lat.=56.021976, lon.=26.518806, Alt.=90.504944m. Speed=14.040000m/h.</desc>
<speed>3.900000</speed>
</trkpt>
<trkpt lat="56.022011" lon="26.518799">
<ele>89.651428</ele>
<time>2010-08-29T10:39:49Z</time>
<desc>lat.=56.022011, lon.=26.518799, Alt.=89.651428m. Speed=12.924000m/h.</desc>
<speed>3.590000</speed>
</trkpt>
<trkpt lat="56.022041" lon="26.518789">
<ele>89.210022</ele>
<time>2010-08-29T10:39:50Z</time>
<desc>lat.=56.022041, lon.=26.518789, Alt.=89.210022m. Speed=12.492000m/h.</desc>
<speed>3.470000</speed>
</trkpt>
<trkpt lat="56.022076" lon="26.518784">
<ele>89.284241</ele>
<time>2010-08-29T10:39:51Z</time>
<desc>lat.=56.022076, lon.=26.518784, Alt.=89.284241m. Speed=12.780000m/h.</desc>
<speed>3.550000</speed>
</trkpt>
<trkpt lat="56.022106" lon="26.518778">
<ele>90.463928</ele>
<time>2010-08-29T10:39:52Z</time>
<desc>lat.=56.022106, lon.=26.518778, Alt.=90.463928m. Speed=12.996000m/h.</desc>
<speed>3.610000</speed>
</trkpt>
<trkpt lat="56.022137" lon="26.518768">
<ele>89.995178</ele>
<time>2010-08-29T10:39:53Z</time>
<desc>lat.=56.022137, lon.=26.518768, Alt.=89.995178m. Speed=13.716000m/h.</desc>
<speed>3.810000</speed>
</trkpt>
<trkpt lat="56.022171" lon="26.518757">
<ele>89.176819</ele>
<time>2010-08-29T10:39:54Z</time>
<desc>lat.=56.022171, lon.=26.518757, Alt.=89.176819m. Speed=13.824000m/h.</desc>
<speed>3.840000</speed>
</trkpt>
<trkpt lat="56.022205" lon="26.518740">
<ele>89.364319</ele>
<time>2010-08-29T10:39:55Z</time>
<desc>lat.=56.022205, lon.=26.518740, Alt.=89.364319m. Speed=14.220000m/h.</desc>
<speed>3.950000</speed>
</trkpt>
<trkpt lat="56.022243" lon="26.518732">
<ele>89.596741</ele>
<time>2010-08-29T10:39:56Z</time>
<desc>lat.=56.022243, lon.=26.518732, Alt.=89.596741m. Speed=14.112000m/h.</desc>
<speed>3.920000</speed>
</trkpt>
<trkpt lat="56.022278" lon="26.518723">
<ele>88.608459</ele>
<time>2010-08-29T10:39:57Z</time>
<desc>lat.=56.022278, lon.=26.518723, Alt.=88.608459m. Speed=12.816000m/h.</desc>
<speed>3.560000</speed>
</trkpt>
<trkpt lat="56.022308" lon="26.518715">
<ele>87.557678</ele>
<time>2010-08-29T10:39:58Z</time>
<desc>lat.=56.022308, lon.=26.518715, Alt.=87.557678m. Speed=11.844000m/h.</desc>
<speed>3.290000</speed>
</trkpt>
<trkpt lat="56.022335" lon="26.518709">
<ele>88.251038</ele>
<time>2010-08-29T10:39:59Z</time>
<desc>lat.=56.022335, lon.=26.518709, Alt.=88.251038m. Speed=10.836000m/h.</desc>
<speed>3.010000</speed>
</trkpt>
<trkpt lat="56.022362" lon="26.518700">
<ele>88.544006</ele>
<time>2010-08-29T10:40:00Z</time>
<desc>lat.=56.022362, lon.=26.518700, Alt.=88.544006m. Speed=10.440000m/h.</desc>
<speed>2.900000</speed>
</trkpt>
<trkpt lat="56.022388" lon="26.518686">
<ele>88.667053</ele>
<time>2010-08-29T10:40:01Z</time>
<desc>lat.=56.022388, lon.=26.518686, Alt.=88.667053m. Speed=11.052000m/h.</desc>
<speed>3.070000</speed>
</trkpt>
<trkpt lat="56.022415" lon="26.518681">
<ele>88.499084</ele>
<time>2010-08-29T10:40:02Z</time>
<desc>lat.=56.022415, lon.=26.518681, Alt.=88.499084m. Speed=10.692000m/h.</desc>
<speed>2.970000</speed>
</trkpt>
<trkpt lat="56.022442" lon="26.518673">
<ele>88.926819</ele>
<time>2010-08-29T10:40:03Z</time>
<desc>lat.=56.022442, lon.=26.518673, Alt.=88.926819m. Speed=11.304000m/h.</desc>
<speed>3.140000</speed>
</trkpt>
<trkpt lat="56.022469" lon="26.518667">
<ele>88.965881</ele>
<time>2010-08-29T10:40:04Z</time>
<desc>lat.=56.022469, lon.=26.518667, Alt.=88.965881m. Speed=11.520000m/h.</desc>
<speed>3.200000</speed>
</trkpt>
<trkpt lat="56.022495" lon="26.518650">
<ele>89.520569</ele>
<time>2010-08-29T10:40:05Z</time>
<desc>lat.=56.022495, lon.=26.518650, Alt.=89.520569m. Speed=12.168000m/h.</desc>
<speed>3.380000</speed>
</trkpt>
<trkpt lat="56.022526" lon="26.518642">
<ele>90.145569</ele>
<time>2010-08-29T10:40:06Z</time>
<desc>lat.=56.022526, lon.=26.518642, Alt.=90.145569m. Speed=12.348000m/h.</desc>
<speed>3.430000</speed>
</trkpt>
<trkpt lat="56.022556" lon="26.518633">
<ele>90.407288</ele>
<time>2010-08-29T10:40:07Z</time>
<desc>lat.=56.022556, lon.=26.518633, Alt.=90.407288m. Speed=12.708000m/h.</desc>
<speed>3.530000</speed>
</trkpt>
<trkpt lat="56.022583" lon="26.518620">
<ele>89.876038</ele>
<time>2010-08-29T10:40:08Z</time>
<desc>lat.=56.022583, lon.=26.518620, Alt.=89.876038m. Speed=12.456000m/h.</desc>
<speed>3.460000</speed>
</trkpt>
<trkpt lat="56.022614" lon="26.518606">
<ele>89.903381</ele>
<time>2010-08-29T10:40:09Z</time>
<desc>lat.=56.022614, lon.=26.518606, Alt.=89.903381m. Speed=12.096000m/h.</desc>
<speed>3.360000</speed>
</trkpt>
<trkpt lat="56.022640" lon="26.518587">
<ele>89.961975</ele>
<time>2010-08-29T10:40:10Z</time>
<desc>lat.=56.022640, lon.=26.518587, Alt.=89.961975m. Speed=11.772000m/h.</desc>
<speed>3.270000</speed>
</trkpt>
<trkpt lat="56.022667" lon="26.518566">
<ele>90.137756</ele>
<time>2010-08-29T10:40:11Z</time>
<desc>lat.=56.022667, lon.=26.518566, Alt.=90.137756m. Speed=12.456000m/h.</desc>
<speed>3.460000</speed>
</trkpt>
<trkpt lat="56.022697" lon="26.518551">
<ele>89.864319</ele>
<time>2010-08-29T10:40:12Z</time>
<desc>lat.=56.022697, lon.=26.518551, Alt.=89.864319m. Speed=12.564000m/h.</desc>
<speed>3.490000</speed>
</trkpt>
<trkpt lat="56.022728" lon="26.518528">
<ele>89.637756</ele>
<time>2010-08-29T10:40:13Z</time>
<desc>lat.=56.022728, lon.=26.518528, Alt.=89.637756m. Speed=13.536000m/h.</desc>
<speed>3.760000</speed>
</trkpt>
<trkpt lat="56.022758" lon="26.518503">
<ele>89.710022</ele>
<time>2010-08-29T10:40:14Z</time>
<desc>lat.=56.022758, lon.=26.518503, Alt.=89.710022m. Speed=13.320000m/h.</desc>
<speed>3.700000</speed>
</trkpt>
<trkpt lat="56.022785" lon="26.518490">
<ele>89.479553</ele>
<time>2010-08-29T10:40:15Z</time>
<desc>lat.=56.022785, lon.=26.518490, Alt.=89.479553m. Speed=11.844000m/h.</desc>
<speed>3.290000</speed>
</trkpt>
<trkpt lat="56.022816" lon="26.518467">
<ele>89.694397</ele>
<time>2010-08-29T10:40:16Z</time>
<desc>lat.=56.022816, lon.=26.518467, Alt.=89.694397m. Speed=12.528000m/h.</desc>
<speed>3.480000</speed>
</trkpt>
<trkpt lat="56.022842" lon="26.518442">
<ele>89.499084</ele>
<time>2010-08-29T10:40:17Z</time>
<desc>lat.=56.022842, lon.=26.518442, Alt.=89.499084m. Speed=11.700000m/h.</desc>
<speed>3.250000</speed>
</trkpt>
<trkpt lat="56.022869" lon="26.518425">
<ele>89.758850</ele>
<time>2010-08-29T10:40:18Z</time>
<desc>lat.=56.022869, lon.=26.518425, Alt.=89.758850m. Speed=12.204000m/h.</desc>
<speed>3.390000</speed>
</trkpt>
<trkpt lat="56.022900" lon="26.518402">
<ele>89.446350</ele>
<time>2010-08-29T10:40:19Z</time>
<desc>lat.=56.022900, lon.=26.518402, Alt.=89.446350m. Speed=13.284000m/h.</desc>
<speed>3.690000</speed>
</trkpt>
<trkpt lat="56.022926" lon="26.518379">
<ele>89.866272</ele>
<time>2010-08-29T10:40:20Z</time>
<desc>lat.=56.022926, lon.=26.518379, Alt.=89.866272m. Speed=13.032000m/h.</desc>
<speed>3.620000</speed>
</trkpt>
<trkpt lat="56.022957" lon="26.518354">
<ele>90.211975</ele>
<time>2010-08-29T10:40:21Z</time>
<desc>lat.=56.022957, lon.=26.518354, Alt.=90.211975m. Speed=13.464000m/h.</desc>
<speed>3.740000</speed>
</trkpt>
<trkpt lat="56.022976" lon="26.518333">
<ele>94.544006</ele>
<time>2010-08-29T10:40:22Z</time>
<desc>lat.=56.022976, lon.=26.518333, Alt.=94.544006m. Speed=12.924000m/h.</desc>
<speed>3.590000</speed>
</trkpt>
<trkpt lat="56.023003" lon="26.518307">
<ele>97.161194</ele>
<time>2010-08-29T10:40:23Z</time>
<desc>lat.=56.023003, lon.=26.518307, Alt.=97.161194m. Speed=13.716000m/h.</desc>
<speed>3.810000</speed>
</trkpt>
<trkpt lat="56.023029" lon="26.518280">
<ele>98.999084</ele>
<time>2010-08-29T10:40:24Z</time>
<desc>lat.=56.023029, lon.=26.518280, Alt.=98.999084m. Speed=13.752000m/h.</desc>
<speed>3.820000</speed>
</trkpt>
<trkpt lat="56.023056" lon="26.518255">
<ele>100.836975</ele>
<time>2010-08-29T10:40:25Z</time>
<desc>lat.=56.023056, lon.=26.518255, Alt.=100.836975m. Speed=12.528000m/h.</desc>
<speed>3.480000</speed>
</trkpt>
<trkpt lat="56.023083" lon="26.518227">
<ele>101.313538</ele>
<time>2010-08-29T10:40:26Z</time>
<desc>lat.=56.023083, lon.=26.518227, Alt.=101.313538m. Speed=11.628000m/h.</desc>
<speed>3.230000</speed>
</trkpt>
<trkpt lat="56.023109" lon="26.518194">
<ele>101.627991</ele>
<time>2010-08-29T10:40:27Z</time>
<desc>lat.=56.023109, lon.=26.518194, Alt.=101.627991m. Speed=10.620000m/h.</desc>
<speed>2.950000</speed>
</trkpt>
<trkpt lat="56.023132" lon="26.518156">
<ele>102.008850</ele>
<time>2010-08-29T10:40:28Z</time>
<desc>lat.=56.023132, lon.=26.518156, Alt.=102.008850m. Speed=12.888000m/h.</desc>
<speed>3.580000</speed>
</trkpt>
<trkpt lat="56.023155" lon="26.518114">
<ele>102.030334</ele>
<time>2010-08-29T10:40:29Z</time>
<desc>lat.=56.023155, lon.=26.518114, Alt.=102.030334m. Speed=13.500000m/h.</desc>
<speed>3.750000</speed>
</trkpt>
<trkpt lat="56.023182" lon="26.518085">
<ele>102.165100</ele>
<time>2010-08-29T10:40:30Z</time>
<desc>lat.=56.023182, lon.=26.518085, Alt.=102.165100m. Speed=11.952000m/h.</desc>
<speed>3.320000</speed>
</trkpt>
<trkpt lat="56.023201" lon="26.518059">
<ele>102.784241</ele>
<time>2010-08-29T10:40:31Z</time>
<desc>lat.=56.023201, lon.=26.518059, Alt.=102.784241m. Speed=8.604000m/h.</desc>
<speed>2.390000</speed>
</trkpt>
<trkpt lat="56.023212" lon="26.518034">
<ele>103.108459</ele>
<time>2010-08-29T10:40:32Z</time>
<desc>lat.=56.023212, lon.=26.518034, Alt.=103.108459m. Speed=8.208000m/h.</desc>
<speed>2.280000</speed>
</trkpt>
<trkpt lat="56.023228" lon="26.518007">
<ele>103.782288</ele>
<time>2010-08-29T10:40:33Z</time>
<desc>lat.=56.023228, lon.=26.518007, Alt.=103.782288m. Speed=9.252000m/h.</desc>
<speed>2.570000</speed>
</trkpt>
<trkpt lat="56.023247" lon="26.517973">
<ele>103.590881</ele>
<time>2010-08-29T10:40:34Z</time>
<desc>lat.=56.023247, lon.=26.517973, Alt.=103.590881m. Speed=9.972000m/h.</desc>
<speed>2.770000</speed>
</trkpt>
<trkpt lat="56.023270" lon="26.517939">
<ele>102.858459</ele>
<time>2010-08-29T10:40:35Z</time>
<desc>lat.=56.023270, lon.=26.517939, Alt.=102.858459m. Speed=10.476000m/h.</desc>
<speed>2.910000</speed>
</trkpt>
<trkpt lat="56.023293" lon="26.517912">
<ele>103.102600</ele>
<time>2010-08-29T10:40:36Z</time>
<desc>lat.=56.023293, lon.=26.517912, Alt.=103.102600m. Speed=11.052000m/h.</desc>
<speed>3.070000</speed>
</trkpt>
<trkpt lat="56.023315" lon="26.517885">
<ele>102.786194</ele>
<time>2010-08-29T10:40:37Z</time>
<desc>lat.=56.023315, lon.=26.517885, Alt.=102.786194m. Speed=11.484000m/h.</desc>
<speed>3.190000</speed>
</trkpt>
<trkpt lat="56.023342" lon="26.517855">
<ele>102.499084</ele>
<time>2010-08-29T10:40:38Z</time>
<desc>lat.=56.023342, lon.=26.517855, Alt.=102.499084m. Speed=11.736000m/h.</desc>
<speed>3.260000</speed>
</trkpt>
<trkpt lat="56.023365" lon="26.517828">
<ele>103.075256</ele>
<time>2010-08-29T10:40:39Z</time>
<desc>lat.=56.023365, lon.=26.517828, Alt.=103.075256m. Speed=11.160000m/h.</desc>
<speed>3.100000</speed>
</trkpt>
<trkpt lat="56.023388" lon="26.517799">
<ele>103.442444</ele>
<time>2010-08-29T10:40:40Z</time>
<desc>lat.=56.023388, lon.=26.517799, Alt.=103.442444m. Speed=11.124000m/h.</desc>
<speed>3.090000</speed>
</trkpt>
<trkpt lat="56.023415" lon="26.517767">
<ele>103.036194</ele>
<time>2010-08-29T10:40:41Z</time>
<desc>lat.=56.023415, lon.=26.517767, Alt.=103.036194m. Speed=11.844000m/h.</desc>
<speed>3.290000</speed>
</trkpt>
<trkpt lat="56.023434" lon="26.517736">
<ele>103.090881</ele>
<time>2010-08-29T10:40:42Z</time>
<desc>lat.=56.023434, lon.=26.517736, Alt.=103.090881m. Speed=11.520000m/h.</desc>
<speed>3.200000</speed>
</trkpt>
<trkpt lat="56.023460" lon="26.517710">
<ele>103.094788</ele>
<time>2010-08-29T10:40:43Z</time>
<desc>lat.=56.023460, lon.=26.517710, Alt.=103.094788m. Speed=11.052000m/h.</desc>
<speed>3.070000</speed>
</trkpt>
<trkpt lat="56.023487" lon="26.517685">
<ele>103.180725</ele>
<time>2010-08-29T10:40:44Z</time>
<desc>lat.=56.023487, lon.=26.517685, Alt.=103.180725m. Speed=11.196000m/h.</desc>
<speed>3.110000</speed>
</trkpt>
<trkpt lat="56.023510" lon="26.517658">
<ele>103.137756</ele>
<time>2010-08-29T10:40:45Z</time>
<desc>lat.=56.023510, lon.=26.517658, Alt.=103.137756m. Speed=11.376000m/h.</desc>
<speed>3.160000</speed>
</trkpt>
<trkpt lat="56.023533" lon="26.517630">
<ele>103.346741</ele>
<time>2010-08-29T10:40:46Z</time>
<desc>lat.=56.023533, lon.=26.517630, Alt.=103.346741m. Speed=11.304000m/h.</desc>
<speed>3.140000</speed>
</trkpt>
<trkpt lat="56.023556" lon="26.517595">
<ele>103.069397</ele>
<time>2010-08-29T10:40:47Z</time>
<desc>lat.=56.023556, lon.=26.517595, Alt.=103.069397m. Speed=11.376000m/h.</desc>
<speed>3.160000</speed>
</trkpt>
<trkpt lat="56.023579" lon="26.517557">
<ele>103.051819</ele>
<time>2010-08-29T10:40:48Z</time>
<desc>lat.=56.023579, lon.=26.517557, Alt.=103.051819m. Speed=11.268000m/h.</desc>
<speed>3.130000</speed>
</trkpt>
<trkpt lat="56.023598" lon="26.517525">
<ele>102.899475</ele>
<time>2010-08-29T10:40:49Z</time>
<desc>lat.=56.023598, lon.=26.517525, Alt.=102.899475m. Speed=11.340000m/h.</desc>
<speed>3.150000</speed>
</trkpt>
<trkpt lat="56.023621" lon="26.517492">
<ele>102.836975</ele>
<time>2010-08-29T10:40:50Z</time>
<desc>lat.=56.023621, lon.=26.517492, Alt.=102.836975m. Speed=11.016000m/h.</desc>
<speed>3.060000</speed>
</trkpt>
<trkpt lat="56.023643" lon="26.517462">
<ele>102.977600</ele>
<time>2010-08-29T10:40:51Z</time>
<desc>lat.=56.023643, lon.=26.517462, Alt.=102.977600m. Speed=11.016000m/h.</desc>
<speed>3.060000</speed>
</trkpt>
<trkpt lat="56.023670" lon="26.517431">
<ele>102.811584</ele>
<time>2010-08-29T10:40:52Z</time>
<desc>lat.=56.023670, lon.=26.517431, Alt.=102.811584m. Speed=13.608000m/h.</desc>
<speed>3.780000</speed>
</trkpt>
<trkpt lat="56.023697" lon="26.517399">
<ele>102.618225</ele>
<time>2010-08-29T10:40:53Z</time>
<desc>lat.=56.023697, lon.=26.517399, Alt.=102.618225m. Speed=10.512000m/h.</desc>
<speed>2.920000</speed>
</trkpt>
<trkpt lat="56.023716" lon="26.517365">
<ele>102.389709</ele>
<time>2010-08-29T10:40:54Z</time>
<desc>lat.=56.023716, lon.=26.517365, Alt.=102.389709m. Speed=10.404000m/h.</desc>
<speed>2.890000</speed>
</trkpt>
<trkpt lat="56.023735" lon="26.517334">
<ele>102.147522</ele>
<time>2010-08-29T10:40:55Z</time>
<desc>lat.=56.023735, lon.=26.517334, Alt.=102.147522m. Speed=9.864000m/h.</desc>
<speed>2.740000</speed>
</trkpt>
<trkpt lat="56.023750" lon="26.517307">
<ele>101.669006</ele>
<time>2010-08-29T10:40:56Z</time>
<desc>lat.=56.023750, lon.=26.517307, Alt.=101.669006m. Speed=9.720000m/h.</desc>
<speed>2.700000</speed>
</trkpt>
<trkpt lat="56.023777" lon="26.517284">
<ele>101.876038</ele>
<time>2010-08-29T10:40:57Z</time>
<desc>lat.=56.023777, lon.=26.517284, Alt.=101.876038m. Speed=9.360000m/h.</desc>
<speed>2.600000</speed>
</trkpt>
<trkpt lat="56.023792" lon="26.517256">
<ele>102.022522</ele>
<time>2010-08-29T10:40:58Z</time>
<desc>lat.=56.023792, lon.=26.517256, Alt.=102.022522m. Speed=8.496000m/h.</desc>
<speed>2.360000</speed>
</trkpt>
<trkpt lat="56.023811" lon="26.517233">
<ele>102.264709</ele>
<time>2010-08-29T10:40:59Z</time>
<desc>lat.=56.023811, lon.=26.517233, Alt.=102.264709m. Speed=7.812000m/h.</desc>
<speed>2.170000</speed>
</trkpt>
<trkpt lat="56.023827" lon="26.517210">
<ele>102.649475</ele>
<time>2010-08-29T10:41:00Z</time>
<desc>lat.=56.023827, lon.=26.517210, Alt.=102.649475m. Speed=9.252000m/h.</desc>
<speed>2.570000</speed>
</trkpt>
<trkpt lat="56.023846" lon="26.517179">
<ele>102.612366</ele>
<time>2010-08-29T10:41:01Z</time>
<desc>lat.=56.023846, lon.=26.517179, Alt.=102.612366m. Speed=11.160000m/h.</desc>
<speed>3.100000</speed>
</trkpt>
<trkpt lat="56.023865" lon="26.517143">
<ele>102.573303</ele>
<time>2010-08-29T10:41:02Z</time>
<desc>lat.=56.023865, lon.=26.517143, Alt.=102.573303m. Speed=11.412000m/h.</desc>
<speed>3.170000</speed>
</trkpt>
<trkpt lat="56.023884" lon="26.517101">
<ele>102.680725</ele>
<time>2010-08-29T10:41:03Z</time>
<desc>lat.=56.023884, lon.=26.517101, Alt.=102.680725m. Speed=12.384000m/h.</desc>
<speed>3.440000</speed>
</trkpt>
<trkpt lat="56.023907" lon="26.517061">
<ele>102.563538</ele>
<time>2010-08-29T10:41:04Z</time>
<desc>lat.=56.023907, lon.=26.517061, Alt.=102.563538m. Speed=12.816000m/h.</desc>
<speed>3.560000</speed>
</trkpt>
<trkpt lat="56.023930" lon="26.517027">
<ele>102.600647</ele>
<time>2010-08-29T10:41:05Z</time>
<desc>lat.=56.023930, lon.=26.517027, Alt.=102.600647m. Speed=10.332000m/h.</desc>
<speed>2.870000</speed>
</trkpt>
<trkpt lat="56.023956" lon="26.516987">
<ele>103.073303</ele>
<time>2010-08-29T10:41:06Z</time>
<desc>lat.=56.023956, lon.=26.516987, Alt.=103.073303m. Speed=14.868000m/h.</desc>
<speed>4.130000</speed>
</trkpt>
<trkpt lat="56.023987" lon="26.516947">
<ele>103.225647</ele>
<time>2010-08-29T10:41:07Z</time>
<desc>lat.=56.023987, lon.=26.516947, Alt.=103.225647m. Speed=15.120000m/h.</desc>
<speed>4.200000</speed>
</trkpt>
<trkpt lat="56.024017" lon="26.516907">
<ele>103.196350</ele>
<time>2010-08-29T10:41:08Z</time>
<desc>lat.=56.024017, lon.=26.516907, Alt.=103.196350m. Speed=14.868000m/h.</desc>
<speed>4.130000</speed>
</trkpt>
<trkpt lat="56.024048" lon="26.516855">
<ele>103.178772</ele>
<time>2010-08-29T10:41:09Z</time>
<desc>lat.=56.024048, lon.=26.516855, Alt.=103.178772m. Speed=15.228000m/h.</desc>
<speed>4.230000</speed>
</trkpt>
<trkpt lat="56.024078" lon="26.516802">
<ele>103.153381</ele>
<time>2010-08-29T10:41:10Z</time>
<desc>lat.=56.024078, lon.=26.516802, Alt.=103.153381m. Speed=15.480000m/h.</desc>
<speed>4.300000</speed>
</trkpt>
<trkpt lat="56.024105" lon="26.516754">
<ele>103.151428</ele>
<time>2010-08-29T10:41:11Z</time>
<desc>lat.=56.024105, lon.=26.516754, Alt.=103.151428m. Speed=15.444000m/h.</desc>
<speed>4.290000</speed>
</trkpt>
<trkpt lat="56.024139" lon="26.516710">
<ele>103.186584</ele>
<time>2010-08-29T10:41:12Z</time>
<desc>lat.=56.024139, lon.=26.516710, Alt.=103.186584m. Speed=16.128000m/h.</desc>
<speed>4.480000</speed>
</trkpt>
<trkpt lat="56.024174" lon="26.516661">
<ele>103.538147</ele>
<time>2010-08-29T10:41:13Z</time>
<desc>lat.=56.024174, lon.=26.516661, Alt.=103.538147m. Speed=16.056000m/h.</desc>
<speed>4.460000</speed>
</trkpt>
<trkpt lat="56.024204" lon="26.516615">
<ele>104.001038</ele>
<time>2010-08-29T10:41:14Z</time>
<desc>lat.=56.024204, lon.=26.516615, Alt.=104.001038m. Speed=15.516000m/h.</desc>
<speed>4.310000</speed>
</trkpt>
<trkpt lat="56.024235" lon="26.516569">
<ele>103.903381</ele>
<time>2010-08-29T10:41:15Z</time>
<desc>lat.=56.024235, lon.=26.516569, Alt.=103.903381m. Speed=14.796000m/h.</desc>
<speed>4.110000</speed>
</trkpt>
<trkpt lat="56.024261" lon="26.516525">
<ele>103.967834</ele>
<time>2010-08-29T10:41:16Z</time>
<desc>lat.=56.024261, lon.=26.516525, Alt.=103.967834m. Speed=13.860000m/h.</desc>
<speed>3.850000</speed>
</trkpt>
<trkpt lat="56.024284" lon="26.516481">
<ele>103.850647</ele>
<time>2010-08-29T10:41:17Z</time>
<desc>lat.=56.024284, lon.=26.516481, Alt.=103.850647m. Speed=12.708000m/h.</desc>
<speed>3.530000</speed>
</trkpt>
<trkpt lat="56.024311" lon="26.516443">
<ele>103.688538</ele>
<time>2010-08-29T10:41:18Z</time>
<desc>lat.=56.024311, lon.=26.516443, Alt.=103.688538m. Speed=11.988000m/h.</desc>
<speed>3.330000</speed>
</trkpt>
<trkpt lat="56.024330" lon="26.516409">
<ele>103.794006</ele>
<time>2010-08-29T10:41:19Z</time>
<desc>lat.=56.024330, lon.=26.516409, Alt.=103.794006m. Speed=11.088000m/h.</desc>
<speed>3.080000</speed>
</trkpt>
<trkpt lat="56.024349" lon="26.516380">
<ele>103.745178</ele>
<time>2010-08-29T10:41:20Z</time>
<desc>lat.=56.024349, lon.=26.516380, Alt.=103.745178m. Speed=10.008000m/h.</desc>
<speed>2.780000</speed>
</trkpt>
<trkpt lat="56.024368" lon="26.516348">
<ele>103.741272</ele>
<time>2010-08-29T10:41:21Z</time>
<desc>lat.=56.024368, lon.=26.516348, Alt.=103.741272m. Speed=9.036000m/h.</desc>
<speed>2.510000</speed>
</trkpt>
<trkpt lat="56.024380" lon="26.516317">
<ele>103.868225</ele>
<time>2010-08-29T10:41:22Z</time>
<desc>lat.=56.024380, lon.=26.516317, Alt.=103.868225m. Speed=7.956000m/h.</desc>
<speed>2.210000</speed>
</trkpt>
<trkpt lat="56.024395" lon="26.516289">
<ele>104.186584</ele>
<time>2010-08-29T10:41:23Z</time>
<desc>lat.=56.024395, lon.=26.516289, Alt.=104.186584m. Speed=7.776000m/h.</desc>
<speed>2.160000</speed>
</trkpt>
<trkpt lat="56.024406" lon="26.516262">
<ele>104.508850</ele>
<time>2010-08-29T10:41:24Z</time>
<desc>lat.=56.024406, lon.=26.516262, Alt.=104.508850m. Speed=8.604000m/h.</desc>
<speed>2.390000</speed>
</trkpt>
<trkpt lat="56.024418" lon="26.516239">
<ele>103.747131</ele>
<time>2010-08-29T10:41:25Z</time>
<desc>lat.=56.024418, lon.=26.516239, Alt.=103.747131m. Speed=9.540000m/h.</desc>
<speed>2.650000</speed>
</trkpt>
<trkpt lat="56.024441" lon="26.516214">
<ele>104.149475</ele>
<time>2010-08-29T10:41:26Z</time>
<desc>lat.=56.024441, lon.=26.516214, Alt.=104.149475m. Speed=10.656000m/h.</desc>
<speed>2.960000</speed>
</trkpt>
<trkpt lat="56.024460" lon="26.516188">
<ele>103.848694</ele>
<time>2010-08-29T10:41:27Z</time>
<desc>lat.=56.024460, lon.=26.516188, Alt.=103.848694m. Speed=10.656000m/h.</desc>
<speed>2.960000</speed>
</trkpt>
<trkpt lat="56.024483" lon="26.516144">
<ele>104.879944</ele>
<time>2010-08-29T10:41:28Z</time>
<desc>lat.=56.024483, lon.=26.516144, Alt.=104.879944m. Speed=11.808000m/h.</desc>
<speed>3.280000</speed>
</trkpt>
<trkpt lat="56.024506" lon="26.516104">
<ele>105.094788</ele>
<time>2010-08-29T10:41:29Z</time>
<desc>lat.=56.024506, lon.=26.516104, Alt.=105.094788m. Speed=13.428000m/h.</desc>
<speed>3.730000</speed>
</trkpt>
<trkpt lat="56.024532" lon="26.516062">
<ele>105.278381</ele>
<time>2010-08-29T10:41:30Z</time>
<desc>lat.=56.024532, lon.=26.516062, Alt.=105.278381m. Speed=13.824000m/h.</desc>
<speed>3.840000</speed>
</trkpt>
<trkpt lat="56.024559" lon="26.516027">
<ele>105.700256</ele>
<time>2010-08-29T10:41:31Z</time>
<desc>lat.=56.024559, lon.=26.516027, Alt.=105.700256m. Speed=13.032000m/h.</desc>
<speed>3.620000</speed>
</trkpt>
<trkpt lat="56.024590" lon="26.515985">
<ele>106.301819</ele>
<time>2010-08-29T10:41:32Z</time>
<desc>lat.=56.024590, lon.=26.515985, Alt.=106.301819m. Speed=13.392000m/h.</desc>
<speed>3.720000</speed>
</trkpt>
<trkpt lat="56.024620" lon="26.515945">
<ele>106.848694</ele>
<time>2010-08-29T10:41:33Z</time>
<desc>lat.=56.024620, lon.=26.515945, Alt.=106.848694m. Speed=13.896000m/h.</desc>
<speed>3.860000</speed>
</trkpt>
<trkpt lat="56.024647" lon="26.515905">
<ele>106.805725</ele>
<time>2010-08-29T10:41:34Z</time>
<desc>lat.=56.024647, lon.=26.515905, Alt.=106.805725m. Speed=14.220000m/h.</desc>
<speed>3.950000</speed>
</trkpt>
<trkpt lat="56.024673" lon="26.515860">
<ele>107.127991</ele>
<time>2010-08-29T10:41:35Z</time>
<desc>lat.=56.024673, lon.=26.515860, Alt.=107.127991m. Speed=14.400000m/h.</desc>
<speed>4.000000</speed>
</trkpt>
<trkpt lat="56.024700" lon="26.515812">
<ele>107.319397</ele>
<time>2010-08-29T10:41:36Z</time>
<desc>lat.=56.024700, lon.=26.515812, Alt.=107.319397m. Speed=14.904000m/h.</desc>
<speed>4.140000</speed>
</trkpt>
<trkpt lat="56.024727" lon="26.515768">
<ele>107.399475</ele>
<time>2010-08-29T10:41:37Z</time>
<desc>lat.=56.024727, lon.=26.515768, Alt.=107.399475m. Speed=14.904000m/h.</desc>
<speed>4.140000</speed>
</trkpt>
<trkpt lat="56.024757" lon="26.515728">
<ele>107.473694</ele>
<time>2010-08-29T10:41:38Z</time>
<desc>lat.=56.024757, lon.=26.515728, Alt.=107.473694m. Speed=15.264000m/h.</desc>
<speed>4.240000</speed>
</trkpt>
<trkpt lat="56.024784" lon="26.515680">
<ele>107.463928</ele>
<time>2010-08-29T10:41:39Z</time>
<desc>lat.=56.024784, lon.=26.515680, Alt.=107.463928m. Speed=15.336000m/h.</desc>
<speed>4.260000</speed>
</trkpt>
<trkpt lat="56.024815" lon="26.515633">
<ele>107.850647</ele>
<time>2010-08-29T10:41:40Z</time>
<desc>lat.=56.024815, lon.=26.515633, Alt.=107.850647m. Speed=15.300000m/h.</desc>
<speed>4.250000</speed>
</trkpt>
<trkpt lat="56.024845" lon="26.515585">
<ele>107.651428</ele>
<time>2010-08-29T10:41:41Z</time>
<desc>lat.=56.024845, lon.=26.515585, Alt.=107.651428m. Speed=16.020000m/h.</desc>
<speed>4.450000</speed>
</trkpt>
<trkpt lat="56.024872" lon="26.515533">
<ele>107.895569</ele>
<time>2010-08-29T10:41:42Z</time>
<desc>lat.=56.024872, lon.=26.515533, Alt.=107.895569m. Speed=15.876000m/h.</desc>
<speed>4.410000</speed>
</trkpt>
<trkpt lat="56.024891" lon="26.515476">
<ele>107.579163</ele>
<time>2010-08-29T10:41:43Z</time>
<desc>lat.=56.024891, lon.=26.515476, Alt.=107.579163m. Speed=15.084000m/h.</desc>
<speed>4.190000</speed>
</trkpt>
<trkpt lat="56.024914" lon="26.515415">
<ele>108.356506</ele>
<time>2010-08-29T10:41:44Z</time>
<desc>lat.=56.024914, lon.=26.515415, Alt.=108.356506m. Speed=14.688000m/h.</desc>
<speed>4.080000</speed>
</trkpt>
<trkpt lat="56.024929" lon="26.515366">
<ele>108.489319</ele>
<time>2010-08-29T10:41:45Z</time>
<desc>lat.=56.024929, lon.=26.515366, Alt.=108.489319m. Speed=12.060000m/h.</desc>
<speed>3.350000</speed>
</trkpt>
<trkpt lat="56.024948" lon="26.515318">
<ele>108.932678</ele>
<time>2010-08-29T10:41:46Z</time>
<desc>lat.=56.024948, lon.=26.515318, Alt.=108.932678m. Speed=11.844000m/h.</desc>
<speed>3.290000</speed>
</trkpt>
<trkpt lat="56.024967" lon="26.515270">
<ele>109.321350</ele>
<time>2010-08-29T10:41:47Z</time>
<desc>lat.=56.024967, lon.=26.515270, Alt.=109.321350m. Speed=12.780000m/h.</desc>
<speed>3.550000</speed>
</trkpt>
<trkpt lat="56.024982" lon="26.515226">
<ele>109.456116</ele>
<time>2010-08-29T10:41:48Z</time>
<desc>lat.=56.024982, lon.=26.515226, Alt.=109.456116m. Speed=10.908000m/h.</desc>
<speed>3.030000</speed>
</trkpt>
<trkpt lat="56.025002" lon="26.515192">
<ele>109.739319</ele>
<time>2010-08-29T10:41:49Z</time>
<desc>lat.=56.025002, lon.=26.515192, Alt.=109.739319m. Speed=9.108000m/h.</desc>
<speed>2.530000</speed>
</trkpt>
<trkpt lat="56.025017" lon="26.515160">
<ele>110.090881</ele>
<time>2010-08-29T10:41:50Z</time>
<desc>lat.=56.025017, lon.=26.515160, Alt.=110.090881m. Speed=9.576000m/h.</desc>
<speed>2.660000</speed>
</trkpt>
<trkpt lat="56.025036" lon="26.515129">
<ele>110.196350</ele>
<time>2010-08-29T10:41:51Z</time>
<desc>lat.=56.025036, lon.=26.515129, Alt.=110.196350m. Speed=10.296000m/h.</desc>
<speed>2.860000</speed>
</trkpt>
<trkpt lat="56.025055" lon="26.515102">
<ele>110.165100</ele>
<time>2010-08-29T10:41:52Z</time>
<desc>lat.=56.025055, lon.=26.515102, Alt.=110.165100m. Speed=9.360000m/h.</desc>
<speed>2.600000</speed>
</trkpt>
<trkpt lat="56.025066" lon="26.515079">
<ele>109.909241</ele>
<time>2010-08-29T10:41:53Z</time>
<desc>lat.=56.025066, lon.=26.515079, Alt.=109.909241m. Speed=6.444000m/h.</desc>
<speed>1.790000</speed>
</trkpt>
<trkpt lat="56.025078" lon="26.515064">
<ele>109.844788</ele>
<time>2010-08-29T10:41:54Z</time>
<desc>lat.=56.025078, lon.=26.515064, Alt.=109.844788m. Speed=5.328000m/h.</desc>
<speed>1.480000</speed>
</trkpt>
<trkpt lat="56.025082" lon="26.515062">
<ele>109.737366</ele>
<time>2010-08-29T10:41:55Z</time>
<desc>lat.=56.025082, lon.=26.515062, Alt.=109.737366m. Speed=1.332000m/h.</desc>
<speed>0.370000</speed>
</trkpt>
<trkpt lat="56.025085" lon="26.515062">
<ele>109.600647</ele>
<time>2010-08-29T10:41:56Z</time>
<desc>lat.=56.025085, lon.=26.515062, Alt.=109.600647m. Speed=1.260000m/h.</desc>
<speed>0.350000</speed>
</trkpt>
<trkpt lat="56.025093" lon="26.515064">
<ele>109.458069</ele>
<time>2010-08-29T10:41:57Z</time>
<desc>lat.=56.025093, lon.=26.515064, Alt.=109.458069m. Speed=1.800000m/h.</desc>
<speed>0.500000</speed>
</trkpt>
<trkpt lat="56.025097" lon="26.515059">
<ele>109.598694</ele>
<time>2010-08-29T10:41:58Z</time>
<desc>lat.=56.025097, lon.=26.515059, Alt.=109.598694m. Speed=1.296000m/h.</desc>
<speed>0.360000</speed>
</trkpt>
<trkpt lat="56.025101" lon="26.515057">
<ele>109.624084</ele>
<time>2010-08-29T10:41:59Z</time>
<desc>lat.=56.025101, lon.=26.515057, Alt.=109.624084m. Speed=1.152000m/h.</desc>
<speed>0.320000</speed>
</trkpt>
<trkpt lat="56.025101" lon="26.515055">
<ele>109.653381</ele>
<time>2010-08-29T10:42:00Z</time>
<desc>lat.=56.025101, lon.=26.515055, Alt.=109.653381m. Speed=1.116000m/h.</desc>
<speed>0.310000</speed>
</trkpt>
<trkpt lat="56.025105" lon="26.515051">
<ele>109.688538</ele>
<time>2010-08-29T10:42:01Z</time>
<desc>lat.=56.025105, lon.=26.515051, Alt.=109.688538m. Speed=0.864000m/h.</desc>
<speed>0.240000</speed>
</trkpt>
<trkpt lat="56.025105" lon="26.515049">
<ele>109.721741</ele>
<time>2010-08-29T10:42:02Z</time>
<desc>lat.=56.025105, lon.=26.515049, Alt.=109.721741m. Speed=0.936000m/h.</desc>
<speed>0.260000</speed>
</trkpt>
<trkpt lat="56.025108" lon="26.515045">
<ele>109.747131</ele>
<time>2010-08-29T10:42:03Z</time>
<desc>lat.=56.025108, lon.=26.515045, Alt.=109.747131m. Speed=0.936000m/h.</desc>
<speed>0.260000</speed>
</trkpt>
<trkpt lat="56.025108" lon="26.515041">
<ele>109.768616</ele>
<time>2010-08-29T10:42:04Z</time>
<desc>lat.=56.025108, lon.=26.515041, Alt.=109.768616m. Speed=1.512000m/h.</desc>
<speed>0.420000</speed>
</trkpt>
<trkpt lat="56.025112" lon="26.515036">
<ele>109.786194</ele>
<time>2010-08-29T10:42:05Z</time>
<desc>lat.=56.025112, lon.=26.515036, Alt.=109.786194m. Speed=1.512000m/h.</desc>
<speed>0.420000</speed>
</trkpt>
<trkpt lat="56.025116" lon="26.515030">
<ele>109.797913</ele>
<time>2010-08-29T10:42:06Z</time>
<desc>lat.=56.025116, lon.=26.515030, Alt.=109.797913m. Speed=1.152000m/h.</desc>
<speed>0.320000</speed>
</trkpt>
<trkpt lat="56.025116" lon="26.515026">
<ele>109.811584</ele>
<time>2010-08-29T10:42:07Z</time>
<desc>lat.=56.025116, lon.=26.515026, Alt.=109.811584m. Speed=0.612000m/h.</desc>
<speed>0.170000</speed>
</trkpt>
<trkpt lat="56.025116" lon="26.515024">
<ele>109.823303</ele>
<time>2010-08-29T10:42:08Z</time>
<desc>lat.=56.025116, lon.=26.515024, Alt.=109.823303m. Speed=0.828000m/h.</desc>
<speed>0.230000</speed>
</trkpt>
<trkpt lat="56.025116" lon="26.515020">
<ele>109.833069</ele>
<time>2010-08-29T10:42:09Z</time>
<desc>lat.=56.025116, lon.=26.515020, Alt.=109.833069m. Speed=0.504000m/h.</desc>
<speed>0.140000</speed>
</trkpt>
<trkpt lat="56.025116" lon="26.515018">
<ele>109.840881</ele>
<time>2010-08-29T10:42:10Z</time>
<desc>lat.=56.025116, lon.=26.515018, Alt.=109.840881m. Speed=0.288000m/h.</desc>
<speed>0.080000</speed>
</trkpt>
<trkpt lat="56.025120" lon="26.515017">
<ele>109.846741</ele>
<time>2010-08-29T10:42:11Z</time>
<desc>lat.=56.025120, lon.=26.515017, Alt.=109.846741m. Speed=0.360000m/h.</desc>
<speed>0.100000</speed>
</trkpt>
<trkpt lat="56.025120" lon="26.515017">
<ele>109.858459</ele>
<time>2010-08-29T10:42:12Z</time>
<desc>lat.=56.025120, lon.=26.515017, Alt.=109.858459m. Speed=0.396000m/h.</desc>
<speed>0.110000</speed>
</trkpt>
<trkpt lat="56.025120" lon="26.515015">
<ele>109.862366</ele>
<time>2010-08-29T10:42:13Z</time>
<desc>lat.=56.025120, lon.=26.515015, Alt.=109.862366m. Speed=0.468000m/h.</desc>
<speed>0.130000</speed>
</trkpt>
<trkpt lat="56.025120" lon="26.515011">
<ele>109.866272</ele>
<time>2010-08-29T10:42:14Z</time>
<desc>lat.=56.025120, lon.=26.515011, Alt.=109.866272m. Speed=0.864000m/h.</desc>
<speed>0.240000</speed>
</trkpt>
<trkpt lat="56.025120" lon="26.515007">
<ele>109.874084</ele>
<time>2010-08-29T10:42:15Z</time>
<desc>lat.=56.025120, lon.=26.515007, Alt.=109.874084m. Speed=1.404000m/h.</desc>
<speed>0.390000</speed>
</trkpt>
<trkpt lat="56.025124" lon="26.515001">
<ele>109.879944</ele>
<time>2010-08-29T10:42:16Z</time>
<desc>lat.=56.025124, lon.=26.515001, Alt.=109.879944m. Speed=1.440000m/h.</desc>
<speed>0.400000</speed>
</trkpt>
<trkpt lat="56.025124" lon="26.514996">
<ele>109.883850</ele>
<time>2010-08-29T10:42:17Z</time>
<desc>lat.=56.025124, lon.=26.514996, Alt.=109.883850m. Speed=1.440000m/h.</desc>
<speed>0.400000</speed>
</trkpt>
<trkpt lat="56.025127" lon="26.514990">
<ele>109.885803</ele>
<time>2010-08-29T10:42:18Z</time>
<desc>lat.=56.025127, lon.=26.514990, Alt.=109.885803m. Speed=1.188000m/h.</desc>
<speed>0.330000</speed>
</trkpt>
<trkpt lat="56.025127" lon="26.514988">
<ele>109.885803</ele>
<time>2010-08-29T10:42:19Z</time>
<desc>lat.=56.025127, lon.=26.514988, Alt.=109.885803m. Speed=1.080000m/h.</desc>
<speed>0.300000</speed>
</trkpt>
<trkpt lat="56.025131" lon="26.514984">
<ele>109.887756</ele>
<time>2010-08-29T10:42:20Z</time>
<desc>lat.=56.025131, lon.=26.514984, Alt.=109.887756m. Speed=1.476000m/h.</desc>
<speed>0.410000</speed>
</trkpt>
<trkpt lat="56.025135" lon="26.514978">
<ele>109.889709</ele>
<time>2010-08-29T10:42:21Z</time>
<desc>lat.=56.025135, lon.=26.514978, Alt.=109.889709m. Speed=1.980000m/h.</desc>
<speed>0.550000</speed>
</trkpt>
<trkpt lat="56.025139" lon="26.514975">
<ele>109.889709</ele>
<time>2010-08-29T10:42:22Z</time>
<desc>lat.=56.025139, lon.=26.514975, Alt.=109.889709m. Speed=2.268000m/h.</desc>
<speed>0.630000</speed>
</trkpt>
<trkpt lat="56.025143" lon="26.514971">
<ele>109.891663</ele>
<time>2010-08-29T10:42:23Z</time>
<desc>lat.=56.025143, lon.=26.514971, Alt.=109.891663m. Speed=2.196000m/h.</desc>
<speed>0.610000</speed>
</trkpt>
<trkpt lat="56.025146" lon="26.514965">
<ele>109.895569</ele>
<time>2010-08-29T10:42:24Z</time>
<desc>lat.=56.025146, lon.=26.514965, Alt.=109.895569m. Speed=1.620000m/h.</desc>
<speed>0.450000</speed>
</trkpt>
<trkpt lat="56.025150" lon="26.514961">
<ele>109.897522</ele>
<time>2010-08-29T10:42:25Z</time>
<desc>lat.=56.025150, lon.=26.514961, Alt.=109.897522m. Speed=1.368000m/h.</desc>
<speed>0.380000</speed>
</trkpt>
<trkpt lat="56.025154" lon="26.514957">
<ele>109.901428</ele>
<time>2010-08-29T10:42:26Z</time>
<desc>lat.=56.025154, lon.=26.514957, Alt.=109.901428m. Speed=1.296000m/h.</desc>
<speed>0.360000</speed>
</trkpt>
<trkpt lat="56.025158" lon="26.514954">
<ele>109.907288</ele>
<time>2010-08-29T10:42:27Z</time>
<desc>lat.=56.025158, lon.=26.514954, Alt.=109.907288m. Speed=1.368000m/h.</desc>
<speed>0.380000</speed>
</trkpt>
<trkpt lat="56.025158" lon="26.514950">
<ele>109.913147</ele>
<time>2010-08-29T10:42:28Z</time>
<desc>lat.=56.025158, lon.=26.514950, Alt.=109.913147m. Speed=1.296000m/h.</desc>
<speed>0.360000</speed>
</trkpt>
<trkpt lat="56.025162" lon="26.514946">
<ele>109.917053</ele>
<time>2010-08-29T10:42:29Z</time>
<desc>lat.=56.025162, lon.=26.514946, Alt.=109.917053m. Speed=1.260000m/h.</desc>
<speed>0.350000</speed>
</trkpt>
<trkpt lat="56.025166" lon="26.514944">
<ele>109.920959</ele>
<time>2010-08-29T10:42:30Z</time>
<desc>lat.=56.025166, lon.=26.514944, Alt.=109.920959m. Speed=1.152000m/h.</desc>
<speed>0.320000</speed>
</trkpt>
<trkpt lat="56.025169" lon="26.514940">
<ele>109.926819</ele>
<time>2010-08-29T10:42:31Z</time>
<desc>lat.=56.025169, lon.=26.514940, Alt.=109.926819m. Speed=1.044000m/h.</desc>
<speed>0.290000</speed>
</trkpt>
<trkpt lat="56.025169" lon="26.514936">
<ele>109.932678</ele>
<time>2010-08-29T10:42:32Z</time>
<desc>lat.=56.025169, lon.=26.514936, Alt.=109.932678m. Speed=1.116000m/h.</desc>
<speed>0.310000</speed>
</trkpt>
<trkpt lat="56.025173" lon="26.514935">
<ele>109.938538</ele>
<time>2010-08-29T10:42:33Z</time>
<desc>lat.=56.025173, lon.=26.514935, Alt.=109.938538m. Speed=0.972000m/h.</desc>
<speed>0.270000</speed>
</trkpt>
<trkpt lat="56.025173" lon="26.514931">
<ele>109.946350</ele>
<time>2010-08-29T10:42:34Z</time>
<desc>lat.=56.025173, lon.=26.514931, Alt.=109.946350m. Speed=1.152000m/h.</desc>
<speed>0.320000</speed>
</trkpt>
<trkpt lat="56.025177" lon="26.514927">
<ele>109.956116</ele>
<time>2010-08-29T10:42:35Z</time>
<desc>lat.=56.025177, lon.=26.514927, Alt.=109.956116m. Speed=1.116000m/h.</desc>
<speed>0.310000</speed>
</trkpt>
<trkpt lat="56.025177" lon="26.514921">
<ele>109.961975</ele>
<time>2010-08-29T10:42:36Z</time>
<desc>lat.=56.025177, lon.=26.514921, Alt.=109.961975m. Speed=1.332000m/h.</desc>
<speed>0.370000</speed>
</trkpt>
<trkpt lat="56.025181" lon="26.514917">
<ele>109.975647</ele>
<time>2010-08-29T10:42:37Z</time>
<desc>lat.=56.025181, lon.=26.514917, Alt.=109.975647m. Speed=1.332000m/h.</desc>
<speed>0.370000</speed>
</trkpt>
<trkpt lat="56.025185" lon="26.514914">
<ele>109.985413</ele>
<time>2010-08-29T10:42:38Z</time>
<desc>lat.=56.025185, lon.=26.514914, Alt.=109.985413m. Speed=1.188000m/h.</desc>
<speed>0.330000</speed>
</trkpt>
<trkpt lat="56.025185" lon="26.514910">
<ele>109.993225</ele>
<time>2010-08-29T10:42:39Z</time>
<desc>lat.=56.025185, lon.=26.514910, Alt.=109.993225m. Speed=1.296000m/h.</desc>
<speed>0.360000</speed>
</trkpt>
<trkpt lat="56.025188" lon="26.514906">
<ele>110.006897</ele>
<time>2010-08-29T10:42:40Z</time>
<desc>lat.=56.025188, lon.=26.514906, Alt.=110.006897m. Speed=0.936000m/h.</desc>
<speed>0.260000</speed>
</trkpt>
<trkpt lat="56.025188" lon="26.514902">
<ele>110.020569</ele>
<time>2010-08-29T10:42:41Z</time>
<desc>lat.=56.025188, lon.=26.514902, Alt.=110.020569m. Speed=1.044000m/h.</desc>
<speed>0.290000</speed>
</trkpt>
<trkpt lat="56.025192" lon="26.514900">
<ele>110.034241</ele>
<time>2010-08-29T10:42:42Z</time>
<desc>lat.=56.025192, lon.=26.514900, Alt.=110.034241m. Speed=0.900000m/h.</desc>
<speed>0.250000</speed>
</trkpt>
<trkpt lat="56.025192" lon="26.514898">
<ele>110.047913</ele>
<time>2010-08-29T10:42:43Z</time>
<desc>lat.=56.025192, lon.=26.514898, Alt.=110.047913m. Speed=1.116000m/h.</desc>
<speed>0.310000</speed>
</trkpt>
<trkpt lat="56.025196" lon="26.514894">
<ele>110.061584</ele>
<time>2010-08-29T10:42:44Z</time>
<desc>lat.=56.025196, lon.=26.514894, Alt.=110.061584m. Speed=1.188000m/h.</desc>
<speed>0.330000</speed>
</trkpt>
<trkpt lat="56.025196" lon="26.514891">
<ele>110.075256</ele>
<time>2010-08-29T10:42:45Z</time>
<desc>lat.=56.025196, lon.=26.514891, Alt.=110.075256m. Speed=1.512000m/h.</desc>
<speed>0.420000</speed>
</trkpt>
<trkpt lat="56.025200" lon="26.514885">
<ele>110.086975</ele>
<time>2010-08-29T10:42:46Z</time>
<desc>lat.=56.025200, lon.=26.514885, Alt.=110.086975m. Speed=1.404000m/h.</desc>
<speed>0.390000</speed>
</trkpt>
<trkpt lat="56.025204" lon="26.514881">
<ele>110.100647</ele>
<time>2010-08-29T10:42:47Z</time>
<desc>lat.=56.025204, lon.=26.514881, Alt.=110.100647m. Speed=1.728000m/h.</desc>
<speed>0.480000</speed>
</trkpt>
<trkpt lat="56.025204" lon="26.514875">
<ele>110.116272</ele>
<time>2010-08-29T10:42:48Z</time>
<desc>lat.=56.025204, lon.=26.514875, Alt.=110.116272m. Speed=1.764000m/h.</desc>
<speed>0.490000</speed>
</trkpt>
<trkpt lat="56.025208" lon="26.514872">
<ele>110.133850</ele>
<time>2010-08-29T10:42:49Z</time>
<desc>lat.=56.025208, lon.=26.514872, Alt.=110.133850m. Speed=1.404000m/h.</desc>
<speed>0.390000</speed>
</trkpt>
<trkpt lat="56.025211" lon="26.514868">
<ele>110.153381</ele>
<time>2010-08-29T10:42:50Z</time>
<desc>lat.=56.025211, lon.=26.514868, Alt.=110.153381m. Speed=0.864000m/h.</desc>
<speed>0.240000</speed>
</trkpt>
<trkpt lat="56.025215" lon="26.514864">
<ele>110.174866</ele>
<time>2010-08-29T10:42:51Z</time>
<desc>lat.=56.025215, lon.=26.514864, Alt.=110.174866m. Speed=0.720000m/h.</desc>
<speed>0.200000</speed>
</trkpt>
<trkpt lat="56.025215" lon="26.514862">
<ele>110.196350</ele>
<time>2010-08-29T10:42:52Z</time>
<desc>lat.=56.025215, lon.=26.514862, Alt.=110.196350m. Speed=0.432000m/h.</desc>
<speed>0.120000</speed>
</trkpt>
<trkpt lat="56.025215" lon="26.514860">
<ele>110.215881</ele>
<time>2010-08-29T10:42:53Z</time>
<desc>lat.=56.025215, lon.=26.514860, Alt.=110.215881m. Speed=0.540000m/h.</desc>
<speed>0.150000</speed>
</trkpt>
<trkpt lat="56.025215" lon="26.514860">
<ele>110.231506</ele>
<time>2010-08-29T10:42:54Z</time>
<desc>lat.=56.025215, lon.=26.514860, Alt.=110.231506m. Speed=0.468000m/h.</desc>
<speed>0.130000</speed>
</trkpt>
<trkpt lat="56.025219" lon="26.514860">
<ele>110.245178</ele>
<time>2010-08-29T10:42:55Z</time>
<desc>lat.=56.025219, lon.=26.514860, Alt.=110.245178m. Speed=0.144000m/h.</desc>
<speed>0.040000</speed>
</trkpt>
<trkpt lat="56.025219" lon="26.514862">
<ele>110.258850</ele>
<time>2010-08-29T10:42:56Z</time>
<desc>lat.=56.025219, lon.=26.514862, Alt.=110.258850m. Speed=0.144000m/h.</desc>
<speed>0.040000</speed>
</trkpt>
<trkpt lat="56.025219" lon="26.514862">
<ele>110.272522</ele>
<time>2010-08-29T10:42:57Z</time>
<desc>lat.=56.025219, lon.=26.514862, Alt.=110.272522m. Speed=0.324000m/h.</desc>
<speed>0.090000</speed>
</trkpt>
<trkpt lat="56.025219" lon="26.514864">
<ele>110.284241</ele>
<time>2010-08-29T10:42:58Z</time>
<desc>lat.=56.025219, lon.=26.514864, Alt.=110.284241m. Speed=0.504000m/h.</desc>
<speed>0.140000</speed>
</trkpt>
<trkpt lat="56.025215" lon="26.514866">
<ele>110.294006</ele>
<time>2010-08-29T10:42:59Z</time>
<desc>lat.=56.025215, lon.=26.514866, Alt.=110.294006m. Speed=0.720000m/h.</desc>
<speed>0.200000</speed>
</trkpt>
<trkpt lat="56.025219" lon="26.514870">
<ele>110.303772</ele>
<time>2010-08-29T10:43:00Z</time>
<desc>lat.=56.025219, lon.=26.514870, Alt.=110.303772m. Speed=0.684000m/h.</desc>
<speed>0.190000</speed>
</trkpt>
<trkpt lat="56.025219" lon="26.514872">
<ele>110.303772</ele>
<time>2010-08-29T10:43:01Z</time>
<desc>lat.=56.025219, lon.=26.514872, Alt.=110.303772m. Speed=0.684000m/h.</desc>
<speed>0.190000</speed>
</trkpt>
<trkpt lat="56.025215" lon="26.514874">
<ele>110.307678</ele>
<time>2010-08-29T10:43:02Z</time>
<desc>lat.=56.025215, lon.=26.514874, Alt.=110.307678m. Speed=0.684000m/h.</desc>
<speed>0.190000</speed>
</trkpt>
<trkpt lat="56.025215" lon="26.514874">
<ele>110.317444</ele>
<time>2010-08-29T10:43:03Z</time>
<desc>lat.=56.025215, lon.=26.514874, Alt.=110.317444m. Speed=0.576000m/h.</desc>
<speed>0.160000</speed>
</trkpt>
<trkpt lat="56.025215" lon="26.514875">
<ele>110.321350</ele>
<time>2010-08-29T10:43:04Z</time>
<desc>lat.=56.025215, lon.=26.514875, Alt.=110.321350m. Speed=0.468000m/h.</desc>
<speed>0.130000</speed>
</trkpt>
<trkpt lat="56.025215" lon="26.514877">
<ele>110.329163</ele>
<time>2010-08-29T10:43:05Z</time>
<desc>lat.=56.025215, lon.=26.514877, Alt.=110.329163m. Speed=0.144000m/h.</desc>
<speed>0.040000</speed>
</trkpt>
<trkpt lat="56.025215" lon="26.514877">
<ele>110.336975</ele>
<time>2010-08-29T10:43:06Z</time>
<desc>lat.=56.025215, lon.=26.514877, Alt.=110.336975m. Speed=0.180000m/h.</desc>
<speed>0.050000</speed>
</trkpt>
<trkpt lat="56.025215" lon="26.514877">
<ele>110.340881</ele>
<time>2010-08-29T10:43:07Z</time>
<desc>lat.=56.025215, lon.=26.514877, Alt.=110.340881m. Speed=0.468000m/h.</desc>
<speed>0.130000</speed>
</trkpt>
<trkpt lat="56.025215" lon="26.514877">
<ele>110.346741</ele>
<time>2010-08-29T10:43:08Z</time>
<desc>lat.=56.025215, lon.=26.514877, Alt.=110.346741m. Speed=0.252000m/h.</desc>
<speed>0.070000</speed>
</trkpt>
<trkpt lat="56.025215" lon="26.514875">
<ele>110.350647</ele>
<time>2010-08-29T10:43:09Z</time>
<desc>lat.=56.025215, lon.=26.514875, Alt.=110.350647m. Speed=0.216000m/h.</desc>
<speed>0.060000</speed>
</trkpt>
<trkpt lat="56.025215" lon="26.514875">
<ele>110.350647</ele>
<time>2010-08-29T10:43:10Z</time>
<desc>lat.=56.025215, lon.=26.514875, Alt.=110.350647m. Speed=0.360000m/h.</desc>
<speed>0.100000</speed>
</trkpt>
<trkpt lat="56.025215" lon="26.514874">
<ele>110.350647</ele>
<time>2010-08-29T10:43:11Z</time>
<desc>lat.=56.025215, lon.=26.514874, Alt.=110.350647m. Speed=0.504000m/h.</desc>
<speed>0.140000</speed>
</trkpt>
<trkpt lat="56.025219" lon="26.514874">
<ele>110.354553</ele>
<time>2010-08-29T10:43:12Z</time>
<desc>lat.=56.025219, lon.=26.514874, Alt.=110.354553m. Speed=0.720000m/h.</desc>
<speed>0.200000</speed>
</trkpt>
<trkpt lat="56.025219" lon="26.514874">
<ele>110.354553</ele>
<time>2010-08-29T10:43:13Z</time>
<desc>lat.=56.025219, lon.=26.514874, Alt.=110.354553m. Speed=0.828000m/h.</desc>
<speed>0.230000</speed>
</trkpt>
<trkpt lat="56.025223" lon="26.514872">
<ele>110.362366</ele>
<time>2010-08-29T10:43:14Z</time>
<desc>lat.=56.025223, lon.=26.514872, Alt.=110.362366m. Speed=0.972000m/h.</desc>
<speed>0.270000</speed>
</trkpt>
<trkpt lat="56.025223" lon="26.514870">
<ele>110.381897</ele>
<time>2010-08-29T10:43:15Z</time>
<desc>lat.=56.025223, lon.=26.514870, Alt.=110.381897m. Speed=1.008000m/h.</desc>
<speed>0.280000</speed>
</trkpt>
<trkpt lat="56.025227" lon="26.514868">
<ele>110.391663</ele>
<time>2010-08-29T10:43:16Z</time>
<desc>lat.=56.025227, lon.=26.514868, Alt.=110.391663m. Speed=1.224000m/h.</desc>
<speed>0.340000</speed>
</trkpt>
<trkpt lat="56.025230" lon="26.514870">
<ele>110.399475</ele>
<time>2010-08-29T10:43:17Z</time>
<desc>lat.=56.025230, lon.=26.514870, Alt.=110.399475m. Speed=1.404000m/h.</desc>
<speed>0.390000</speed>
</trkpt>
<trkpt lat="56.025234" lon="26.514868">
<ele>110.405334</ele>
<time>2010-08-29T10:43:18Z</time>
<desc>lat.=56.025234, lon.=26.514868, Alt.=110.405334m. Speed=1.260000m/h.</desc>
<speed>0.350000</speed>
</trkpt>
<trkpt lat="56.025238" lon="26.514868">
<ele>110.407288</ele>
<time>2010-08-29T10:43:19Z</time>
<desc>lat.=56.025238, lon.=26.514868, Alt.=110.407288m. Speed=0.900000m/h.</desc>
<speed>0.250000</speed>
</trkpt>
<trkpt lat="56.025238" lon="26.514866">
<ele>110.411194</ele>
<time>2010-08-29T10:43:20Z</time>
<desc>lat.=56.025238, lon.=26.514866, Alt.=110.411194m. Speed=0.972000m/h.</desc>
<speed>0.270000</speed>
</trkpt>
<trkpt lat="56.025242" lon="26.514864">
<ele>110.415100</ele>
<time>2010-08-29T10:43:21Z</time>
<desc>lat.=56.025242, lon.=26.514864, Alt.=110.415100m. Speed=0.864000m/h.</desc>
<speed>0.240000</speed>
</trkpt>
<trkpt lat="56.025242" lon="26.514860">
<ele>110.419006</ele>
<time>2010-08-29T10:43:22Z</time>
<desc>lat.=56.025242, lon.=26.514860, Alt.=110.419006m. Speed=1.224000m/h.</desc>
<speed>0.340000</speed>
</trkpt>
<trkpt lat="56.025246" lon="26.514858">
<ele>110.424866</ele>
<time>2010-08-29T10:43:23Z</time>
<desc>lat.=56.025246, lon.=26.514858, Alt.=110.424866m. Speed=0.684000m/h.</desc>
<speed>0.190000</speed>
</trkpt>
<trkpt lat="56.025249" lon="26.514858">
<ele>110.430725</ele>
<time>2010-08-29T10:43:24Z</time>
<desc>lat.=56.025249, lon.=26.514858, Alt.=110.430725m. Speed=0.900000m/h.</desc>
<speed>0.250000</speed>
</trkpt>
<trkpt lat="56.025249" lon="26.514856">
<ele>110.438538</ele>
<time>2010-08-29T10:43:25Z</time>
<desc>lat.=56.025249, lon.=26.514856, Alt.=110.438538m. Speed=0.792000m/h.</desc>
<speed>0.220000</speed>
</trkpt>
<trkpt lat="56.025253" lon="26.514854">
<ele>110.448303</ele>
<time>2010-08-29T10:43:26Z</time>
<desc>lat.=56.025253, lon.=26.514854, Alt.=110.448303m. Speed=0.756000m/h.</desc>
<speed>0.210000</speed>
</trkpt>
<trkpt lat="56.025253" lon="26.514853">
<ele>110.458069</ele>
<time>2010-08-29T10:43:27Z</time>
<desc>lat.=56.025253, lon.=26.514853, Alt.=110.458069m. Speed=0.720000m/h.</desc>
<speed>0.200000</speed>
</trkpt>
<trkpt lat="56.025253" lon="26.514851">
<ele>110.467834</ele>
<time>2010-08-29T10:43:28Z</time>
<desc>lat.=56.025253, lon.=26.514851, Alt.=110.467834m. Speed=0.036000m/h.</desc>
<speed>0.010000</speed>
</trkpt>
<trkpt lat="56.025253" lon="26.514851">
<ele>110.475647</ele>
<time>2010-08-29T10:43:29Z</time>
<desc>lat.=56.025253, lon.=26.514851, Alt.=110.475647m. Speed=0.324000m/h.</desc>
<speed>0.090000</speed>
</trkpt>
<trkpt lat="56.025253" lon="26.514851">
<ele>110.483459</ele>
<time>2010-08-29T10:43:30Z</time>
<desc>lat.=56.025253, lon.=26.514851, Alt.=110.483459m. Speed=0.324000m/h.</desc>
<speed>0.090000</speed>
</trkpt>
<trkpt lat="56.025253" lon="26.514853">
<ele>110.487366</ele>
<time>2010-08-29T10:43:31Z</time>
<desc>lat.=56.025253, lon.=26.514853, Alt.=110.487366m. Speed=0.648000m/h.</desc>
<speed>0.180000</speed>
</trkpt>
<trkpt lat="56.025253" lon="26.514854">
<ele>110.493225</ele>
<time>2010-08-29T10:43:32Z</time>
<desc>lat.=56.025253, lon.=26.514854, Alt.=110.493225m. Speed=0.396000m/h.</desc>
<speed>0.110000</speed>
</trkpt>
<trkpt lat="56.025249" lon="26.514856">
<ele>110.497131</ele>
<time>2010-08-29T10:43:33Z</time>
<desc>lat.=56.025249, lon.=26.514856, Alt.=110.497131m. Speed=0.828000m/h.</desc>
<speed>0.230000</speed>
</trkpt>
<trkpt lat="56.025249" lon="26.514856">
<ele>110.501038</ele>
<time>2010-08-29T10:43:34Z</time>
<desc>lat.=56.025249, lon.=26.514856, Alt.=110.501038m. Speed=0.720000m/h.</desc>
<speed>0.200000</speed>
</trkpt>
<trkpt lat="56.025246" lon="26.514856">
<ele>110.504944</ele>
<time>2010-08-29T10:43:35Z</time>
<desc>lat.=56.025246, lon.=26.514856, Alt.=110.504944m. Speed=0.576000m/h.</desc>
<speed>0.160000</speed>
</trkpt>
<trkpt lat="56.025246" lon="26.514854">
<ele>110.510803</ele>
<time>2010-08-29T10:43:36Z</time>
<desc>lat.=56.025246, lon.=26.514854, Alt.=110.510803m. Speed=0.468000m/h.</desc>
<speed>0.130000</speed>
</trkpt>
<trkpt lat="56.025246" lon="26.514854">
<ele>110.516663</ele>
<time>2010-08-29T10:43:37Z</time>
<desc>lat.=56.025246, lon.=26.514854, Alt.=110.516663m. Speed=0.252000m/h.</desc>
<speed>0.070000</speed>
</trkpt>
<trkpt lat="56.025246" lon="26.514853">
<ele>110.520569</ele>
<time>2010-08-29T10:43:38Z</time>
<desc>lat.=56.025246, lon.=26.514853, Alt.=110.520569m. Speed=0.324000m/h.</desc>
<speed>0.090000</speed>
</trkpt>
<trkpt lat="56.025246" lon="26.514851">
<ele>110.522522</ele>
<time>2010-08-29T10:43:39Z</time>
<desc>lat.=56.025246, lon.=26.514851, Alt.=110.522522m. Speed=0.072000m/h.</desc>
<speed>0.020000</speed>
</trkpt>
<trkpt lat="56.025246" lon="26.514851">
<ele>110.524475</ele>
<time>2010-08-29T10:43:40Z</time>
<desc>lat.=56.025246, lon.=26.514851, Alt.=110.524475m. Speed=0.252000m/h.</desc>
<speed>0.070000</speed>
</trkpt>
<trkpt lat="56.025246" lon="26.514853">
<ele>110.526428</ele>
<time>2010-08-29T10:43:41Z</time>
<desc>lat.=56.025246, lon.=26.514853, Alt.=110.526428m. Speed=0.216000m/h.</desc>
<speed>0.060000</speed>
</trkpt>
<trkpt lat="56.025246" lon="26.514853">
<ele>110.528381</ele>
<time>2010-08-29T10:43:42Z</time>
<desc>lat.=56.025246, lon.=26.514853, Alt.=110.528381m. Speed=0.432000m/h.</desc>
<speed>0.120000</speed>
</trkpt>
<trkpt lat="56.025246" lon="26.514851">
<ele>110.528381</ele>
<time>2010-08-29T10:43:43Z</time>
<desc>lat.=56.025246, lon.=26.514851, Alt.=110.528381m. Speed=0.504000m/h.</desc>
<speed>0.140000</speed>
</trkpt>
<trkpt lat="56.025242" lon="26.514849">
<ele>110.528381</ele>
<time>2010-08-29T10:43:44Z</time>
<desc>lat.=56.025242, lon.=26.514849, Alt.=110.528381m. Speed=0.432000m/h.</desc>
<speed>0.120000</speed>
</trkpt>
<trkpt lat="56.025242" lon="26.514849">
<ele>110.528381</ele>
<time>2010-08-29T10:43:45Z</time>
<desc>lat.=56.025242, lon.=26.514849, Alt.=110.528381m. Speed=0.180000m/h.</desc>
<speed>0.050000</speed>
</trkpt>
<trkpt lat="56.025242" lon="26.514849">
<ele>110.526428</ele>
<time>2010-08-29T10:43:46Z</time>
<desc>lat.=56.025242, lon.=26.514849, Alt.=110.526428m. Speed=0.072000m/h.</desc>
<speed>0.020000</speed>
</trkpt>
<trkpt lat="56.025242" lon="26.514849">
<ele>110.526428</ele>
<time>2010-08-29T10:43:47Z</time>
<desc>lat.=56.025242, lon.=26.514849, Alt.=110.526428m. Speed=0.252000m/h.</desc>
<speed>0.070000</speed>
</trkpt>
<trkpt lat="56.025242" lon="26.514851">
<ele>110.524475</ele>
<time>2010-08-29T10:43:48Z</time>
<desc>lat.=56.025242, lon.=26.514851, Alt.=110.524475m. Speed=0.288000m/h.</desc>
<speed>0.080000</speed>
</trkpt>
<trkpt lat="56.025242" lon="26.514851">
<ele>110.528381</ele>
<time>2010-08-29T10:43:49Z</time>
<desc>lat.=56.025242, lon.=26.514851, Alt.=110.528381m. Speed=0.216000m/h.</desc>
<speed>0.060000</speed>
</trkpt>
<trkpt lat="56.025242" lon="26.514853">
<ele>110.532288</ele>
<time>2010-08-29T10:43:50Z</time>
<desc>lat.=56.025242, lon.=26.514853, Alt.=110.532288m. Speed=0.072000m/h.</desc>
<speed>0.020000</speed>
</trkpt>
<trkpt lat="56.025242" lon="26.514853">
<ele>110.540100</ele>
<time>2010-08-29T10:43:51Z</time>
<desc>lat.=56.025242, lon.=26.514853, Alt.=110.540100m. Speed=0.468000m/h.</desc>
<speed>0.130000</speed>
</trkpt>
<trkpt lat="56.025242" lon="26.514853">
<ele>110.549866</ele>
<time>2010-08-29T10:43:52Z</time>
<desc>lat.=56.025242, lon.=26.514853, Alt.=110.549866m. Speed=0.216000m/h.</desc>
<speed>0.060000</speed>
</trkpt>
<trkpt lat="56.025242" lon="26.514853">
<ele>110.563538</ele>
<time>2010-08-29T10:43:53Z</time>
<desc>lat.=56.025242, lon.=26.514853, Alt.=110.563538m. Speed=0.036000m/h.</desc>
<speed>0.010000</speed>
</trkpt>
<trkpt lat="56.025242" lon="26.514853">
<ele>110.573303</ele>
<time>2010-08-29T10:43:54Z</time>
<desc>lat.=56.025242, lon.=26.514853, Alt.=110.573303m. Speed=0.288000m/h.</desc>
<speed>0.080000</speed>
</trkpt>
<trkpt lat="56.025242" lon="26.514851">
<ele>110.588928</ele>
<time>2010-08-29T10:43:55Z</time>
<desc>lat.=56.025242, lon.=26.514851, Alt.=110.588928m. Speed=0.360000m/h.</desc>
<speed>0.100000</speed>
</trkpt>
<trkpt lat="56.025242" lon="26.514851">
<ele>110.604553</ele>
<time>2010-08-29T10:43:56Z</time>
<desc>lat.=56.025242, lon.=26.514851, Alt.=110.604553m. Speed=0.432000m/h.</desc>
<speed>0.120000</speed>
</trkpt>
<trkpt lat="56.025242" lon="26.514849">
<ele>110.620178</ele>
<time>2010-08-29T10:43:57Z</time>
<desc>lat.=56.025242, lon.=26.514849, Alt.=110.620178m. Speed=1.152000m/h.</desc>
<speed>0.320000</speed>
</trkpt>
<trkpt lat="56.025246" lon="26.514845">
<ele>110.635803</ele>
<time>2010-08-29T10:43:58Z</time>
<desc>lat.=56.025246, lon.=26.514845, Alt.=110.635803m. Speed=1.476000m/h.</desc>
<speed>0.410000</speed>
</trkpt>
<trkpt lat="56.025249" lon="26.514847">
<ele>110.649475</ele>
<time>2010-08-29T10:43:59Z</time>
<desc>lat.=56.025249, lon.=26.514847, Alt.=110.649475m. Speed=1.296000m/h.</desc>
<speed>0.360000</speed>
</trkpt>
<trkpt lat="56.025249" lon="26.514849">
<ele>110.667053</ele>
<time>2010-08-29T10:44:00Z</time>
<desc>lat.=56.025249, lon.=26.514849, Alt.=110.667053m. Speed=1.080000m/h.</desc>
<speed>0.300000</speed>
</trkpt>
<trkpt lat="56.025253" lon="26.514851">
<ele>110.682678</ele>
<time>2010-08-29T10:44:01Z</time>
<desc>lat.=56.025253, lon.=26.514851, Alt.=110.682678m. Speed=0.864000m/h.</desc>
<speed>0.240000</speed>
</trkpt>
<trkpt lat="56.025253" lon="26.514853">
<ele>110.700256</ele>
<time>2010-08-29T10:44:02Z</time>
<desc>lat.=56.025253, lon.=26.514853, Alt.=110.700256m. Speed=0.828000m/h.</desc>
<speed>0.230000</speed>
</trkpt>
<trkpt lat="56.025257" lon="26.514856">
<ele>110.710022</ele>
<time>2010-08-29T10:44:03Z</time>
<desc>lat.=56.025257, lon.=26.514856, Alt.=110.710022m. Speed=1.008000m/h.</desc>
<speed>0.280000</speed>
</trkpt>
<trkpt lat="56.025257" lon="26.514858">
<ele>110.719788</ele>
<time>2010-08-29T10:44:04Z</time>
<desc>lat.=56.025257, lon.=26.514858, Alt.=110.719788m. Speed=0.828000m/h.</desc>
<speed>0.230000</speed>
</trkpt>
<trkpt lat="56.025261" lon="26.514860">
<ele>110.727600</ele>
<time>2010-08-29T10:44:05Z</time>
<desc>lat.=56.025261, lon.=26.514860, Alt.=110.727600m. Speed=0.720000m/h.</desc>
<speed>0.200000</speed>
</trkpt>
<trkpt lat="56.025261" lon="26.514862">
<ele>110.737366</ele>
<time>2010-08-29T10:44:06Z</time>
<desc>lat.=56.025261, lon.=26.514862, Alt.=110.737366m. Speed=1.188000m/h.</desc>
<speed>0.330000</speed>
</trkpt>
<trkpt lat="56.025265" lon="26.514864">
<ele>110.741272</ele>
<time>2010-08-29T10:44:07Z</time>
<desc>lat.=56.025265, lon.=26.514864, Alt.=110.741272m. Speed=1.044000m/h.</desc>
<speed>0.290000</speed>
</trkpt>
<trkpt lat="56.025269" lon="26.514866">
<ele>110.747131</ele>
<time>2010-08-29T10:44:08Z</time>
<desc>lat.=56.025269, lon.=26.514866, Alt.=110.747131m. Speed=1.512000m/h.</desc>
<speed>0.420000</speed>
</trkpt>
<trkpt lat="56.025272" lon="26.514866">
<ele>110.754944</ele>
<time>2010-08-29T10:44:09Z</time>
<desc>lat.=56.025272, lon.=26.514866, Alt.=110.754944m. Speed=1.080000m/h.</desc>
<speed>0.300000</speed>
</trkpt>
<trkpt lat="56.025276" lon="26.514866">
<ele>110.772522</ele>
<time>2010-08-29T10:44:10Z</time>
<desc>lat.=56.025276, lon.=26.514866, Alt.=110.772522m. Speed=1.332000m/h.</desc>
<speed>0.370000</speed>
</trkpt>
<trkpt lat="56.025276" lon="26.514862">
<ele>110.784241</ele>
<time>2010-08-29T10:44:11Z</time>
<desc>lat.=56.025276, lon.=26.514862, Alt.=110.784241m. Speed=1.764000m/h.</desc>
<speed>0.490000</speed>
</trkpt>
<trkpt lat="56.025280" lon="26.514854">
<ele>110.792053</ele>
<time>2010-08-29T10:44:12Z</time>
<desc>lat.=56.025280, lon.=26.514854, Alt.=110.792053m. Speed=2.736000m/h.</desc>
<speed>0.760000</speed>
</trkpt>
<trkpt lat="56.025276" lon="26.514841">
<ele>110.827209</ele>
<time>2010-08-29T10:44:13Z</time>
<desc>lat.=56.025276, lon.=26.514841, Alt.=110.827209m. Speed=4.176000m/h.</desc>
<speed>1.160000</speed>
</trkpt>
<trkpt lat="56.025261" lon="26.514830">
<ele>110.731506</ele>
<time>2010-08-29T10:44:14Z</time>
<desc>lat.=56.025261, lon.=26.514830, Alt.=110.731506m. Speed=3.960000m/h.</desc>
<speed>1.100000</speed>
</trkpt>
<trkpt lat="56.025257" lon="26.514809">
<ele>111.094788</ele>
<time>2010-08-29T10:44:15Z</time>
<desc>lat.=56.025257, lon.=26.514809, Alt.=111.094788m. Speed=4.464000m/h.</desc>
<speed>1.240000</speed>
</trkpt>
<trkpt lat="56.025257" lon="26.514784">
<ele>111.276428</ele>
<time>2010-08-29T10:44:16Z</time>
<desc>lat.=56.025257, lon.=26.514784, Alt.=111.276428m. Speed=7.272000m/h.</desc>
<speed>2.020000</speed>
</trkpt>
<trkpt lat="56.025257" lon="26.514736">
<ele>112.501038</ele>
<time>2010-08-29T10:44:17Z</time>
<desc>lat.=56.025257, lon.=26.514736, Alt.=112.501038m. Speed=7.200000m/h.</desc>
<speed>2.000000</speed>
</trkpt>
<trkpt lat="56.025253" lon="26.514708">
<ele>112.536194</ele>
<time>2010-08-29T10:44:18Z</time>
<desc>lat.=56.025253, lon.=26.514708, Alt.=112.536194m. Speed=6.156000m/h.</desc>
<speed>1.710000</speed>
</trkpt>
<trkpt lat="56.025253" lon="26.514683">
<ele>112.715881</ele>
<time>2010-08-29T10:44:19Z</time>
<desc>lat.=56.025253, lon.=26.514683, Alt.=112.715881m. Speed=7.128000m/h.</desc>
<speed>1.980000</speed>
</trkpt>
<trkpt lat="56.025257" lon="26.514656">
<ele>112.805725</ele>
<time>2010-08-29T10:44:20Z</time>
<desc>lat.=56.025257, lon.=26.514656, Alt.=112.805725m. Speed=5.868000m/h.</desc>
<speed>1.630000</speed>
</trkpt>
<trkpt lat="56.025265" lon="26.514647">
<ele>112.876038</ele>
<time>2010-08-29T10:44:21Z</time>
<desc>lat.=56.025265, lon.=26.514647, Alt.=112.876038m. Speed=8.100000m/h.</desc>
<speed>2.250000</speed>
</trkpt>
<trkpt lat="56.025272" lon="26.514647">
<ele>112.784241</ele>
<time>2010-08-29T10:44:22Z</time>
<desc>lat.=56.025272, lon.=26.514647, Alt.=112.784241m. Speed=7.596000m/h.</desc>
<speed>2.110000</speed>
</trkpt>
<trkpt lat="56.025276" lon="26.514654">
<ele>112.274475</ele>
<time>2010-08-29T10:44:23Z</time>
<desc>lat.=56.025276, lon.=26.514654, Alt.=112.274475m. Speed=7.488000m/h.</desc>
<speed>2.080000</speed>
</trkpt>
<trkpt lat="56.025284" lon="26.514669">
<ele>112.055725</ele>
<time>2010-08-29T10:44:24Z</time>
<desc>lat.=56.025284, lon.=26.514669, Alt.=112.055725m. Speed=6.084000m/h.</desc>
<speed>1.690000</speed>
</trkpt>
<trkpt lat="56.025295" lon="26.514666">
<ele>111.969788</ele>
<time>2010-08-29T10:44:25Z</time>
<desc>lat.=56.025295, lon.=26.514666, Alt.=111.969788m. Speed=4.104000m/h.</desc>
<speed>1.140000</speed>
</trkpt>
<trkpt lat="56.025303" lon="26.514660">
<ele>112.008850</ele>
<time>2010-08-29T10:44:26Z</time>
<desc>lat.=56.025303, lon.=26.514660, Alt.=112.008850m. Speed=3.888000m/h.</desc>
<speed>1.080000</speed>
</trkpt>
<trkpt lat="56.025311" lon="26.514660">
<ele>112.169006</ele>
<time>2010-08-29T10:44:27Z</time>
<desc>lat.=56.025311, lon.=26.514660, Alt.=112.169006m. Speed=2.952000m/h.</desc>
<speed>0.820000</speed>
</trkpt>
<trkpt lat="56.025322" lon="26.514660">
<ele>112.151428</ele>
<time>2010-08-29T10:44:28Z</time>
<desc>lat.=56.025322, lon.=26.514660, Alt.=112.151428m. Speed=3.204000m/h.</desc>
<speed>0.890000</speed>
</trkpt>
<trkpt lat="56.025322" lon="26.514658">
<ele>111.866272</ele>
<time>2010-08-29T10:44:29Z</time>
<desc>lat.=56.025322, lon.=26.514658, Alt.=111.866272m. Speed=2.736000m/h.</desc>
<speed>0.760000</speed>
</trkpt>
<trkpt lat="56.025326" lon="26.514645">
<ele>111.952209</ele>
<time>2010-08-29T10:44:30Z</time>
<desc>lat.=56.025326, lon.=26.514645, Alt.=111.952209m. Speed=2.952000m/h.</desc>
<speed>0.820000</speed>
</trkpt>
<trkpt lat="56.025333" lon="26.514639">
<ele>111.981506</ele>
<time>2010-08-29T10:44:31Z</time>
<desc>lat.=56.025333, lon.=26.514639, Alt.=111.981506m. Speed=2.916000m/h.</desc>
<speed>0.810000</speed>
</trkpt>
<trkpt lat="56.025337" lon="26.514639">
<ele>113.364319</ele>
<time>2010-08-29T10:44:32Z</time>
<desc>lat.=56.025337, lon.=26.514639, Alt.=113.364319m. Speed=6.192000m/h.</desc>
<speed>1.720000</speed>
</trkpt>
<trkpt lat="56.025356" lon="26.514645">
<ele>113.381897</ele>
<time>2010-08-29T10:44:33Z</time>
<desc>lat.=56.025356, lon.=26.514645, Alt.=113.381897m. Speed=5.328000m/h.</desc>
<speed>1.480000</speed>
</trkpt>
<trkpt lat="56.025372" lon="26.514654">
<ele>113.206116</ele>
<time>2010-08-29T10:44:34Z</time>
<desc>lat.=56.025372, lon.=26.514654, Alt.=113.206116m. Speed=7.740000m/h.</desc>
<speed>2.150000</speed>
</trkpt>
<trkpt lat="56.025391" lon="26.514669">
<ele>113.481506</ele>
<time>2010-08-29T10:44:35Z</time>
<desc>lat.=56.025391, lon.=26.514669, Alt.=113.481506m. Speed=8.928000m/h.</desc>
<speed>2.480000</speed>
</trkpt>
<trkpt lat="56.025410" lon="26.514679">
<ele>113.946350</ele>
<time>2010-08-29T10:44:36Z</time>
<desc>lat.=56.025410, lon.=26.514679, Alt.=113.946350m. Speed=10.116000m/h.</desc>
<speed>2.810000</speed>
</trkpt>
<trkpt lat="56.025429" lon="26.514687">
<ele>114.280334</ele>
<time>2010-08-29T10:44:37Z</time>
<desc>lat.=56.025429, lon.=26.514687, Alt.=114.280334m. Speed=6.948000m/h.</desc>
<speed>1.930000</speed>
</trkpt>
<trkpt lat="56.025440" lon="26.514694">
<ele>114.710022</ele>
<time>2010-08-29T10:44:38Z</time>
<desc>lat.=56.025440, lon.=26.514694, Alt.=114.710022m. Speed=5.616000m/h.</desc>
<speed>1.560000</speed>
</trkpt>
<trkpt lat="56.025452" lon="26.514700">
<ele>114.860413</ele>
<time>2010-08-29T10:44:39Z</time>
<desc>lat.=56.025452, lon.=26.514700, Alt.=114.860413m. Speed=2.736000m/h.</desc>
<speed>0.760000</speed>
</trkpt>
<trkpt lat="56.025459" lon="26.514700">
<ele>115.061584</ele>
<time>2010-08-29T10:44:40Z</time>
<desc>lat.=56.025459, lon.=26.514700, Alt.=115.061584m. Speed=3.852000m/h.</desc>
<speed>1.070000</speed>
</trkpt>
<trkpt lat="56.025471" lon="26.514709">
<ele>115.036194</ele>
<time>2010-08-29T10:44:41Z</time>
<desc>lat.=56.025471, lon.=26.514709, Alt.=115.036194m. Speed=5.364000m/h.</desc>
<speed>1.490000</speed>
</trkpt>
<trkpt lat="56.025482" lon="26.514723">
<ele>115.635803</ele>
<time>2010-08-29T10:44:42Z</time>
<desc>lat.=56.025482, lon.=26.514723, Alt.=115.635803m. Speed=4.356000m/h.</desc>
<speed>1.210000</speed>
</trkpt>
<trkpt lat="56.025501" lon="26.514734">
<ele>115.924866</ele>
<time>2010-08-29T10:44:43Z</time>
<desc>lat.=56.025501, lon.=26.514734, Alt.=115.924866m. Speed=8.208000m/h.</desc>
<speed>2.280000</speed>
</trkpt>
<trkpt lat="56.025517" lon="26.514744">
<ele>115.893616</ele>
<time>2010-08-29T10:44:44Z</time>
<desc>lat.=56.025517, lon.=26.514744, Alt.=115.893616m. Speed=6.804000m/h.</desc>
<speed>1.890000</speed>
</trkpt>
<trkpt lat="56.025536" lon="26.514759">
<ele>116.092834</ele>
<time>2010-08-29T10:44:45Z</time>
<desc>lat.=56.025536, lon.=26.514759, Alt.=116.092834m. Speed=7.884000m/h.</desc>
<speed>2.190000</speed>
</trkpt>
<trkpt lat="56.025566" lon="26.514778">
<ele>116.268616</ele>
<time>2010-08-29T10:44:46Z</time>
<desc>lat.=56.025566, lon.=26.514778, Alt.=116.268616m. Speed=6.804000m/h.</desc>
<speed>1.890000</speed>
</trkpt>
<trkpt lat="56.025585" lon="26.514786">
<ele>116.321350</ele>
<time>2010-08-29T10:44:47Z</time>
<desc>lat.=56.025585, lon.=26.514786, Alt.=116.321350m. Speed=8.712000m/h.</desc>
<speed>2.420000</speed>
</trkpt>
<trkpt lat="56.025608" lon="26.514799">
<ele>116.604553</ele>
<time>2010-08-29T10:44:48Z</time>
<desc>lat.=56.025608, lon.=26.514799, Alt.=116.604553m. Speed=8.820000m/h.</desc>
<speed>2.450000</speed>
</trkpt>
<trkpt lat="56.025669" lon="26.514843">
<ele>117.403381</ele>
<time>2010-08-29T10:44:49Z</time>
<desc>lat.=56.025669, lon.=26.514843, Alt.=117.403381m. Speed=7.056000m/h.</desc>
<speed>1.960000</speed>
</trkpt>
<trkpt lat="56.025703" lon="26.514841">
<ele>117.122131</ele>
<time>2010-08-29T10:44:50Z</time>
<desc>lat.=56.025703, lon.=26.514841, Alt.=117.122131m. Speed=9.684000m/h.</desc>
<speed>2.690000</speed>
</trkpt>
<trkpt lat="56.025745" lon="26.514864">
<ele>117.678772</ele>
<time>2010-08-29T10:44:51Z</time>
<desc>lat.=56.025745, lon.=26.514864, Alt.=117.678772m. Speed=10.224000m/h.</desc>
<speed>2.840000</speed>
</trkpt>
<trkpt lat="56.025784" lon="26.514875">
<ele>117.172913</ele>
<time>2010-08-29T10:44:52Z</time>
<desc>lat.=56.025784, lon.=26.514875, Alt.=117.172913m. Speed=8.964000m/h.</desc>
<speed>2.490000</speed>
</trkpt>
<trkpt lat="56.025814" lon="26.514898">
<ele>117.196350</ele>
<time>2010-08-29T10:44:53Z</time>
<desc>lat.=56.025814, lon.=26.514898, Alt.=117.196350m. Speed=10.620000m/h.</desc>
<speed>2.950000</speed>
</trkpt>
<trkpt lat="56.025852" lon="26.514908">
<ele>116.139709</ele>
<time>2010-08-29T10:44:54Z</time>
<desc>lat.=56.025852, lon.=26.514908, Alt.=116.139709m. Speed=9.036000m/h.</desc>
<speed>2.510000</speed>
</trkpt>
<trkpt lat="56.025883" lon="26.514917">
<ele>115.708069</ele>
<time>2010-08-29T10:44:55Z</time>
<desc>lat.=56.025883, lon.=26.514917, Alt.=115.708069m. Speed=9.036000m/h.</desc>
<speed>2.510000</speed>
</trkpt>
<trkpt lat="56.025913" lon="26.514923">
<ele>114.694397</ele>
<time>2010-08-29T10:44:56Z</time>
<desc>lat.=56.025913, lon.=26.514923, Alt.=114.694397m. Speed=9.216000m/h.</desc>
<speed>2.560000</speed>
</trkpt>
<trkpt lat="56.025955" lon="26.514931">
<ele>114.475647</ele>
<time>2010-08-29T10:44:57Z</time>
<desc>lat.=56.025955, lon.=26.514931, Alt.=114.475647m. Speed=13.428000m/h.</desc>
<speed>3.730000</speed>
</trkpt>
<trkpt lat="56.025993" lon="26.514931">
<ele>113.545959</ele>
<time>2010-08-29T10:44:58Z</time>
<desc>lat.=56.025993, lon.=26.514931, Alt.=113.545959m. Speed=10.800000m/h.</desc>
<speed>3.000000</speed>
</trkpt>
<trkpt lat="56.026039" lon="26.514940">
<ele>113.391663</ele>
<time>2010-08-29T10:44:59Z</time>
<desc>lat.=56.026039, lon.=26.514940, Alt.=113.391663m. Speed=11.988000m/h.</desc>
<speed>3.330000</speed>
</trkpt>
<trkpt lat="56.026081" lon="26.514961">
<ele>113.344788</ele>
<time>2010-08-29T10:45:00Z</time>
<desc>lat.=56.026081, lon.=26.514961, Alt.=113.344788m. Speed=10.044000m/h.</desc>
<speed>2.790000</speed>
</trkpt>
<trkpt lat="56.026115" lon="26.514975">
<ele>111.940491</ele>
<time>2010-08-29T10:45:01Z</time>
<desc>lat.=56.026115, lon.=26.514975, Alt.=111.940491m. Speed=11.556000m/h.</desc>
<speed>3.210000</speed>
</trkpt>
<trkpt lat="56.026150" lon="26.514988">
<ele>110.577209</ele>
<time>2010-08-29T10:45:02Z</time>
<desc>lat.=56.026150, lon.=26.514988, Alt.=110.577209m. Speed=11.376000m/h.</desc>
<speed>3.160000</speed>
</trkpt>
<trkpt lat="56.026176" lon="26.515003">
<ele>109.733459</ele>
<time>2010-08-29T10:45:03Z</time>
<desc>lat.=56.026176, lon.=26.515003, Alt.=109.733459m. Speed=10.116000m/h.</desc>
<speed>2.810000</speed>
</trkpt>
<trkpt lat="56.026211" lon="26.515015">
<ele>108.809631</ele>
<time>2010-08-29T10:45:04Z</time>
<desc>lat.=56.026211, lon.=26.515015, Alt.=108.809631m. Speed=10.584000m/h.</desc>
<speed>2.940000</speed>
</trkpt>
<trkpt lat="56.026245" lon="26.515026">
<ele>107.917053</ele>
<time>2010-08-29T10:45:05Z</time>
<desc>lat.=56.026245, lon.=26.515026, Alt.=107.917053m. Speed=11.016000m/h.</desc>
<speed>3.060000</speed>
</trkpt>
<trkpt lat="56.026276" lon="26.515038">
<ele>107.139709</ele>
<time>2010-08-29T10:45:06Z</time>
<desc>lat.=56.026276, lon.=26.515038, Alt.=107.139709m. Speed=9.648000m/h.</desc>
<speed>2.680000</speed>
</trkpt>
<trkpt lat="56.026310" lon="26.515045">
<ele>107.024475</ele>
<time>2010-08-29T10:45:07Z</time>
<desc>lat.=56.026310, lon.=26.515045, Alt.=107.024475m. Speed=9.324000m/h.</desc>
<speed>2.590000</speed>
</trkpt>
<trkpt lat="56.026344" lon="26.515059">
<ele>106.393616</ele>
<time>2010-08-29T10:45:08Z</time>
<desc>lat.=56.026344, lon.=26.515059, Alt.=106.393616m. Speed=9.396000m/h.</desc>
<speed>2.610000</speed>
</trkpt>
<trkpt lat="56.026367" lon="26.515062">
<ele>105.284241</ele>
<time>2010-08-29T10:45:09Z</time>
<desc>lat.=56.026367, lon.=26.515062, Alt.=105.284241m. Speed=8.172000m/h.</desc>
<speed>2.270000</speed>
</trkpt>
<trkpt lat="56.026398" lon="26.515074">
<ele>106.360413</ele>
<time>2010-08-29T10:45:10Z</time>
<desc>lat.=56.026398, lon.=26.515074, Alt.=106.360413m. Speed=8.244000m/h.</desc>
<speed>2.290000</speed>
</trkpt>
<trkpt lat="56.026424" lon="26.515093">
<ele>107.415100</ele>
<time>2010-08-29T10:45:11Z</time>
<desc>lat.=56.026424, lon.=26.515093, Alt.=107.415100m. Speed=8.676000m/h.</desc>
<speed>2.410000</speed>
</trkpt>
<trkpt lat="56.026459" lon="26.515125">
<ele>108.446350</ele>
<time>2010-08-29T10:45:12Z</time>
<desc>lat.=56.026459, lon.=26.515125, Alt.=108.446350m. Speed=9.828000m/h.</desc>
<speed>2.730000</speed>
</trkpt>
<trkpt lat="56.026489" lon="26.515150">
<ele>109.204163</ele>
<time>2010-08-29T10:45:13Z</time>
<desc>lat.=56.026489, lon.=26.515150, Alt.=109.204163m. Speed=9.504000m/h.</desc>
<speed>2.640000</speed>
</trkpt>
<trkpt lat="56.026520" lon="26.515165">
<ele>110.086975</ele>
<time>2010-08-29T10:45:14Z</time>
<desc>lat.=56.026520, lon.=26.515165, Alt.=110.086975m. Speed=10.008000m/h.</desc>
<speed>2.780000</speed>
</trkpt>
<trkpt lat="56.026543" lon="26.515175">
<ele>109.971741</ele>
<time>2010-08-29T10:45:15Z</time>
<desc>lat.=56.026543, lon.=26.515175, Alt.=109.971741m. Speed=9.576000m/h.</desc>
<speed>2.660000</speed>
</trkpt>
<trkpt lat="56.026562" lon="26.515179">
<ele>109.544006</ele>
<time>2010-08-29T10:45:16Z</time>
<desc>lat.=56.026562, lon.=26.515179, Alt.=109.544006m. Speed=9.468000m/h.</desc>
<speed>2.630000</speed>
</trkpt>
<trkpt lat="56.026588" lon="26.515188">
<ele>109.409241</ele>
<time>2010-08-29T10:45:17Z</time>
<desc>lat.=56.026588, lon.=26.515188, Alt.=109.409241m. Speed=9.216000m/h.</desc>
<speed>2.560000</speed>
</trkpt>
<trkpt lat="56.026611" lon="26.515196">
<ele>108.981506</ele>
<time>2010-08-29T10:45:18Z</time>
<desc>lat.=56.026611, lon.=26.515196, Alt.=108.981506m. Speed=9.540000m/h.</desc>
<speed>2.650000</speed>
</trkpt>
<trkpt lat="56.026638" lon="26.515202">
<ele>109.069397</ele>
<time>2010-08-29T10:45:19Z</time>
<desc>lat.=56.026638, lon.=26.515202, Alt.=109.069397m. Speed=9.108000m/h.</desc>
<speed>2.530000</speed>
</trkpt>
<trkpt lat="56.026669" lon="26.515209">
<ele>108.491272</ele>
<time>2010-08-29T10:45:20Z</time>
<desc>lat.=56.026669, lon.=26.515209, Alt.=108.491272m. Speed=14.616000m/h.</desc>
<speed>4.060000</speed>
</trkpt>
<trkpt lat="56.026695" lon="26.515217">
<ele>107.907288</ele>
<time>2010-08-29T10:45:21Z</time>
<desc>lat.=56.026695, lon.=26.515217, Alt.=107.907288m. Speed=9.180000m/h.</desc>
<speed>2.550000</speed>
</trkpt>
<trkpt lat="56.026718" lon="26.515226">
<ele>107.567444</ele>
<time>2010-08-29T10:45:22Z</time>
<desc>lat.=56.026718, lon.=26.515226, Alt.=107.567444m. Speed=10.656000m/h.</desc>
<speed>2.960000</speed>
</trkpt>
<trkpt lat="56.026752" lon="26.515240">
<ele>107.073303</ele>
<time>2010-08-29T10:45:23Z</time>
<desc>lat.=56.026752, lon.=26.515240, Alt.=107.073303m. Speed=11.160000m/h.</desc>
<speed>3.100000</speed>
</trkpt>
<trkpt lat="56.026791" lon="26.515266">
<ele>105.835022</ele>
<time>2010-08-29T10:45:24Z</time>
<desc>lat.=56.026791, lon.=26.515266, Alt.=105.835022m. Speed=11.844000m/h.</desc>
<speed>3.290000</speed>
</trkpt>
<trkpt lat="56.026817" lon="26.515282">
<ele>106.157288</ele>
<time>2010-08-29T10:45:25Z</time>
<desc>lat.=56.026817, lon.=26.515282, Alt.=106.157288m. Speed=12.096000m/h.</desc>
<speed>3.360000</speed>
</trkpt>
<trkpt lat="56.026852" lon="26.515301">
<ele>104.829163</ele>
<time>2010-08-29T10:45:26Z</time>
<desc>lat.=56.026852, lon.=26.515301, Alt.=104.829163m. Speed=11.844000m/h.</desc>
<speed>3.290000</speed>
</trkpt>
<trkpt lat="56.026882" lon="26.515314">
<ele>104.493225</ele>
<time>2010-08-29T10:45:27Z</time>
<desc>lat.=56.026882, lon.=26.515314, Alt.=104.493225m. Speed=13.536000m/h.</desc>
<speed>3.760000</speed>
</trkpt>
<trkpt lat="56.026917" lon="26.515324">
<ele>103.649475</ele>
<time>2010-08-29T10:45:28Z</time>
<desc>lat.=56.026917, lon.=26.515324, Alt.=103.649475m. Speed=13.644000m/h.</desc>
<speed>3.790000</speed>
</trkpt>
<trkpt lat="56.026955" lon="26.515347">
<ele>102.264709</ele>
<time>2010-08-29T10:45:29Z</time>
<desc>lat.=56.026955, lon.=26.515347, Alt.=102.264709m. Speed=14.652000m/h.</desc>
<speed>4.070000</speed>
</trkpt>
<trkpt lat="56.027000" lon="26.515371">
<ele>102.028381</ele>
<time>2010-08-29T10:45:30Z</time>
<desc>lat.=56.027000, lon.=26.515371, Alt.=102.028381m. Speed=16.091999m/h.</desc>
<speed>4.470000</speed>
</trkpt>
<trkpt lat="56.027046" lon="26.515400">
<ele>101.196350</ele>
<time>2010-08-29T10:45:31Z</time>
<desc>lat.=56.027046, lon.=26.515400, Alt.=101.196350m. Speed=17.100000m/h.</desc>
<speed>4.750000</speed>
</trkpt>
<trkpt lat="56.027096" lon="26.515461">
<ele>102.600647</ele>
<time>2010-08-29T10:45:32Z</time>
<desc>lat.=56.027096, lon.=26.515461, Alt.=102.600647m. Speed=18.504000m/h.</desc>
<speed>5.140000</speed>
</trkpt>
<trkpt lat="56.027145" lon="26.515488">
<ele>102.387756</ele>
<time>2010-08-29T10:45:33Z</time>
<desc>lat.=56.027145, lon.=26.515488, Alt.=102.387756m. Speed=19.007999m/h.</desc>
<speed>5.280000</speed>
</trkpt>
<trkpt lat="56.027191" lon="26.515512">
<ele>102.071350</ele>
<time>2010-08-29T10:45:34Z</time>
<desc>lat.=56.027191, lon.=26.515512, Alt.=102.071350m. Speed=19.332001m/h.</desc>
<speed>5.370000</speed>
</trkpt>
<trkpt lat="56.027241" lon="26.515533">
<ele>101.872131</ele>
<time>2010-08-29T10:45:35Z</time>
<desc>lat.=56.027241, lon.=26.515533, Alt.=101.872131m. Speed=19.691999m/h.</desc>
<speed>5.470000</speed>
</trkpt>
<trkpt lat="56.027287" lon="26.515556">
<ele>101.422913</ele>
<time>2010-08-29T10:45:36Z</time>
<desc>lat.=56.027287, lon.=26.515556, Alt.=101.422913m. Speed=19.980000m/h.</desc>
<speed>5.550000</speed>
</trkpt>
<trkpt lat="56.027336" lon="26.515575">
<ele>101.106506</ele>
<time>2010-08-29T10:45:37Z</time>
<desc>lat.=56.027336, lon.=26.515575, Alt.=101.106506m. Speed=20.195999m/h.</desc>
<speed>5.610000</speed>
</trkpt>
<trkpt lat="56.027386" lon="26.515598">
<ele>100.864319</ele>
<time>2010-08-29T10:45:38Z</time>
<desc>lat.=56.027386, lon.=26.515598, Alt.=100.864319m. Speed=20.016001m/h.</desc>
<speed>5.560000</speed>
</trkpt>
<trkpt lat="56.027435" lon="26.515625">
<ele>100.551819</ele>
<time>2010-08-29T10:45:39Z</time>
<desc>lat.=56.027435, lon.=26.515625, Alt.=100.551819m. Speed=20.016001m/h.</desc>
<speed>5.560000</speed>
</trkpt>
<trkpt lat="56.027481" lon="26.515663">
<ele>100.420959</ele>
<time>2010-08-29T10:45:40Z</time>
<desc>lat.=56.027481, lon.=26.515663, Alt.=100.420959m. Speed=19.944000m/h.</desc>
<speed>5.540000</speed>
</trkpt>
<trkpt lat="56.027527" lon="26.515690">
<ele>100.354553</ele>
<time>2010-08-29T10:45:41Z</time>
<desc>lat.=56.027527, lon.=26.515690, Alt.=100.354553m. Speed=20.160000m/h.</desc>
<speed>5.600000</speed>
</trkpt>
<trkpt lat="56.027580" lon="26.515718">
<ele>100.450256</ele>
<time>2010-08-29T10:45:42Z</time>
<desc>lat.=56.027580, lon.=26.515718, Alt.=100.450256m. Speed=22.931999m/h.</desc>
<speed>6.370000</speed>
</trkpt>
<trkpt lat="56.027637" lon="26.515751">
<ele>100.807678</ele>
<time>2010-08-29T10:45:43Z</time>
<desc>lat.=56.027637, lon.=26.515751, Alt.=100.807678m. Speed=25.164000m/h.</desc>
<speed>6.990000</speed>
</trkpt>
<trkpt lat="56.027699" lon="26.515783">
<ele>100.745178</ele>
<time>2010-08-29T10:45:44Z</time>
<desc>lat.=56.027699, lon.=26.515783, Alt.=100.745178m. Speed=26.927999m/h.</desc>
<speed>7.480000</speed>
</trkpt>
<trkpt lat="56.027767" lon="26.515820">
<ele>100.604553</ele>
<time>2010-08-29T10:45:45Z</time>
<desc>lat.=56.027767, lon.=26.515820, Alt.=100.604553m. Speed=26.856001m/h.</desc>
<speed>7.460000</speed>
</trkpt>
<trkpt lat="56.027832" lon="26.515850">
<ele>100.409241</ele>
<time>2010-08-29T10:45:46Z</time>
<desc>lat.=56.027832, lon.=26.515850, Alt.=100.409241m. Speed=27.180000m/h.</desc>
<speed>7.550000</speed>
</trkpt>
<trkpt lat="56.027897" lon="26.515884">
<ele>100.290100</ele>
<time>2010-08-29T10:45:47Z</time>
<desc>lat.=56.027897, lon.=26.515884, Alt.=100.290100m. Speed=27.540001m/h.</desc>
<speed>7.650000</speed>
</trkpt>
<trkpt lat="56.027966" lon="26.515921">
<ele>100.309631</ele>
<time>2010-08-29T10:45:48Z</time>
<desc>lat.=56.027966, lon.=26.515921, Alt.=100.309631m. Speed=29.304001m/h.</desc>
<speed>8.140000</speed>
</trkpt>
<trkpt lat="56.028038" lon="26.515957">
<ele>99.420959</ele>
<time>2010-08-29T10:45:49Z</time>
<desc>lat.=56.028038, lon.=26.515957, Alt.=99.420959m. Speed=29.736000m/h.</desc>
<speed>8.260000</speed>
</trkpt>
<trkpt lat="56.028114" lon="26.515993">
<ele>98.838928</ele>
<time>2010-08-29T10:45:50Z</time>
<desc>lat.=56.028114, lon.=26.515993, Alt.=98.838928m. Speed=30.312000m/h.</desc>
<speed>8.420000</speed>
</trkpt>
<trkpt lat="56.028187" lon="26.516031">
<ele>98.538147</ele>
<time>2010-08-29T10:45:51Z</time>
<desc>lat.=56.028187, lon.=26.516031, Alt.=98.538147m. Speed=31.032000m/h.</desc>
<speed>8.620000</speed>
</trkpt>
<trkpt lat="56.028259" lon="26.516064">
<ele>98.549866</ele>
<time>2010-08-29T10:45:52Z</time>
<desc>lat.=56.028259, lon.=26.516064, Alt.=98.549866m. Speed=29.700001m/h.</desc>
<speed>8.250000</speed>
</trkpt>
<trkpt lat="56.028332" lon="26.516102">
<ele>98.460022</ele>
<time>2010-08-29T10:45:53Z</time>
<desc>lat.=56.028332, lon.=26.516102, Alt.=98.460022m. Speed=29.375999m/h.</desc>
<speed>8.160000</speed>
</trkpt>
<trkpt lat="56.028400" lon="26.516142">
<ele>98.335022</ele>
<time>2010-08-29T10:45:54Z</time>
<desc>lat.=56.028400, lon.=26.516142, Alt.=98.335022m. Speed=28.548000m/h.</desc>
<speed>7.930000</speed>
</trkpt>
<trkpt lat="56.028473" lon="26.516178">
<ele>98.836975</ele>
<time>2010-08-29T10:45:55Z</time>
<desc>lat.=56.028473, lon.=26.516178, Alt.=98.836975m. Speed=30.204000m/h.</desc>
<speed>8.390000</speed>
</trkpt>
<trkpt lat="56.028542" lon="26.516218">
<ele>99.108459</ele>
<time>2010-08-29T10:45:56Z</time>
<desc>lat.=56.028542, lon.=26.516218, Alt.=99.108459m. Speed=29.556000m/h.</desc>
<speed>8.210000</speed>
</trkpt>
<trkpt lat="56.028610" lon="26.516253">
<ele>99.276428</ele>
<time>2010-08-29T10:45:57Z</time>
<desc>lat.=56.028610, lon.=26.516253, Alt.=99.276428m. Speed=29.771999m/h.</desc>
<speed>8.270000</speed>
</trkpt>
<trkpt lat="56.028683" lon="26.516296">
<ele>99.356506</ele>
<time>2010-08-29T10:45:58Z</time>
<desc>lat.=56.028683, lon.=26.516296, Alt.=99.356506m. Speed=30.888000m/h.</desc>
<speed>8.580000</speed>
</trkpt>
<trkpt lat="56.028759" lon="26.516335">
<ele>98.608459</ele>
<time>2010-08-29T10:45:59Z</time>
<desc>lat.=56.028759, lon.=26.516335, Alt.=98.608459m. Speed=30.455999m/h.</desc>
<speed>8.460000</speed>
</trkpt>
<trkpt lat="56.028831" lon="26.516376">
<ele>98.210022</ele>
<time>2010-08-29T10:46:00Z</time>
<desc>lat.=56.028831, lon.=26.516376, Alt.=98.210022m. Speed=30.096001m/h.</desc>
<speed>8.360000</speed>
</trkpt>
<trkpt lat="56.028904" lon="26.516411">
<ele>97.975647</ele>
<time>2010-08-29T10:46:01Z</time>
<desc>lat.=56.028904, lon.=26.516411, Alt.=97.975647m. Speed=29.448000m/h.</desc>
<speed>8.180000</speed>
</trkpt>
<trkpt lat="56.028976" lon="26.516439">
<ele>97.514709</ele>
<time>2010-08-29T10:46:02Z</time>
<desc>lat.=56.028976, lon.=26.516439, Alt.=97.514709m. Speed=28.368000m/h.</desc>
<speed>7.880000</speed>
</trkpt>
<trkpt lat="56.029045" lon="26.516472">
<ele>96.919006</ele>
<time>2010-08-29T10:46:03Z</time>
<desc>lat.=56.029045, lon.=26.516472, Alt.=96.919006m. Speed=27.504000m/h.</desc>
<speed>7.640000</speed>
</trkpt>
<trkpt lat="56.029110" lon="26.516508">
<ele>96.323303</ele>
<time>2010-08-29T10:46:04Z</time>
<desc>lat.=56.029110, lon.=26.516508, Alt.=96.323303m. Speed=27.576000m/h.</desc>
<speed>7.660000</speed>
</trkpt>
<trkpt lat="56.029175" lon="26.516550">
<ele>95.629944</ele>
<time>2010-08-29T10:46:05Z</time>
<desc>lat.=56.029175, lon.=26.516550, Alt.=95.629944m. Speed=28.007999m/h.</desc>
<speed>7.780000</speed>
</trkpt>
<trkpt lat="56.029243" lon="26.516590">
<ele>95.090881</ele>
<time>2010-08-29T10:46:06Z</time>
<desc>lat.=56.029243, lon.=26.516590, Alt.=95.090881m. Speed=27.827999m/h.</desc>
<speed>7.730000</speed>
</trkpt>
<trkpt lat="56.029312" lon="26.516628">
<ele>94.692444</ele>
<time>2010-08-29T10:46:07Z</time>
<desc>lat.=56.029312, lon.=26.516628, Alt.=94.692444m. Speed=28.548000m/h.</desc>
<speed>7.930000</speed>
</trkpt>
<trkpt lat="56.029381" lon="26.516670">
<ele>94.245178</ele>
<time>2010-08-29T10:46:08Z</time>
<desc>lat.=56.029381, lon.=26.516670, Alt.=94.245178m. Speed=29.232000m/h.</desc>
<speed>8.120000</speed>
</trkpt>
<trkpt lat="56.029453" lon="26.516705">
<ele>94.182678</ele>
<time>2010-08-29T10:46:09Z</time>
<desc>lat.=56.029453, lon.=26.516705, Alt.=94.182678m. Speed=29.340000m/h.</desc>
<speed>8.150000</speed>
</trkpt>
<trkpt lat="56.029526" lon="26.516741">
<ele>93.928772</ele>
<time>2010-08-29T10:46:10Z</time>
<desc>lat.=56.029526, lon.=26.516741, Alt.=93.928772m. Speed=29.412001m/h.</desc>
<speed>8.170000</speed>
</trkpt>
<trkpt lat="56.029591" lon="26.516779">
<ele>93.559631</ele>
<time>2010-08-29T10:46:11Z</time>
<desc>lat.=56.029591, lon.=26.516779, Alt.=93.559631m. Speed=28.476000m/h.</desc>
<speed>7.910000</speed>
</trkpt>
<trkpt lat="56.029659" lon="26.516817">
<ele>93.522522</ele>
<time>2010-08-29T10:46:12Z</time>
<desc>lat.=56.029659, lon.=26.516817, Alt.=93.522522m. Speed=30.528000m/h.</desc>
<speed>8.480000</speed>
</trkpt>
<trkpt lat="56.029736" lon="26.516853">
<ele>93.094788</ele>
<time>2010-08-29T10:46:13Z</time>
<desc>lat.=56.029736, lon.=26.516853, Alt.=93.094788m. Speed=29.988001m/h.</desc>
<speed>8.330000</speed>
</trkpt>
<trkpt lat="56.029812" lon="26.516893">
<ele>92.717834</ele>
<time>2010-08-29T10:46:14Z</time>
<desc>lat.=56.029812, lon.=26.516893, Alt.=92.717834m. Speed=30.888000m/h.</desc>
<speed>8.580000</speed>
</trkpt>
<trkpt lat="56.029888" lon="26.516933">
<ele>92.577209</ele>
<time>2010-08-29T10:46:15Z</time>
<desc>lat.=56.029888, lon.=26.516933, Alt.=92.577209m. Speed=32.400002m/h.</desc>
<speed>9.000000</speed>
</trkpt>
<trkpt lat="56.029968" lon="26.516977">
<ele>92.206116</ele>
<time>2010-08-29T10:46:16Z</time>
<desc>lat.=56.029968, lon.=26.516977, Alt.=92.206116m. Speed=32.939999m/h.</desc>
<speed>9.150000</speed>
</trkpt>
<trkpt lat="56.030045" lon="26.517023">
<ele>92.276428</ele>
<time>2010-08-29T10:46:17Z</time>
<desc>lat.=56.030045, lon.=26.517023, Alt.=92.276428m. Speed=32.472000m/h.</desc>
<speed>9.020000</speed>
</trkpt>
<trkpt lat="56.030121" lon="26.517061">
<ele>92.329163</ele>
<time>2010-08-29T10:46:18Z</time>
<desc>lat.=56.030121, lon.=26.517061, Alt.=92.329163m. Speed=32.004002m/h.</desc>
<speed>8.890000</speed>
</trkpt>
<trkpt lat="56.030201" lon="26.517099">
<ele>91.786194</ele>
<time>2010-08-29T10:46:19Z</time>
<desc>lat.=56.030201, lon.=26.517099, Alt.=91.786194m. Speed=30.816000m/h.</desc>
<speed>8.560000</speed>
</trkpt>
<trkpt lat="56.030270" lon="26.517138">
<ele>91.399475</ele>
<time>2010-08-29T10:46:20Z</time>
<desc>lat.=56.030270, lon.=26.517138, Alt.=91.399475m. Speed=29.520000m/h.</desc>
<speed>8.200000</speed>
</trkpt>
<trkpt lat="56.030338" lon="26.517174">
<ele>91.215881</ele>
<time>2010-08-29T10:46:21Z</time>
<desc>lat.=56.030338, lon.=26.517174, Alt.=91.215881m. Speed=28.007999m/h.</desc>
<speed>7.780000</speed>
</trkpt>
<trkpt lat="56.030407" lon="26.517206">
<ele>91.036194</ele>
<time>2010-08-29T10:46:22Z</time>
<desc>lat.=56.030407, lon.=26.517206, Alt.=91.036194m. Speed=28.691999m/h.</desc>
<speed>7.970000</speed>
</trkpt>
<trkpt lat="56.030476" lon="26.517242">
<ele>91.288147</ele>
<time>2010-08-29T10:46:23Z</time>
<desc>lat.=56.030476, lon.=26.517242, Alt.=91.288147m. Speed=29.556000m/h.</desc>
<speed>8.210000</speed>
</trkpt>
<trkpt lat="56.030548" lon="26.517281">
<ele>91.272522</ele>
<time>2010-08-29T10:46:24Z</time>
<desc>lat.=56.030548, lon.=26.517281, Alt.=91.272522m. Speed=28.836000m/h.</desc>
<speed>8.010000</speed>
</trkpt>
<trkpt lat="56.030617" lon="26.517317">
<ele>91.194397</ele>
<time>2010-08-29T10:46:25Z</time>
<desc>lat.=56.030617, lon.=26.517317, Alt.=91.194397m. Speed=30.059999m/h.</desc>
<speed>8.350000</speed>
</trkpt>
<trkpt lat="56.030685" lon="26.517347">
<ele>91.260803</ele>
<time>2010-08-29T10:46:26Z</time>
<desc>lat.=56.030685, lon.=26.517347, Alt.=91.260803m. Speed=27.288000m/h.</desc>
<speed>7.580000</speed>
</trkpt>
<trkpt lat="56.030746" lon="26.517380">
<ele>91.049866</ele>
<time>2010-08-29T10:46:27Z</time>
<desc>lat.=56.030746, lon.=26.517380, Alt.=91.049866m. Speed=26.964001m/h.</desc>
<speed>7.490000</speed>
</trkpt>
<trkpt lat="56.030811" lon="26.517414">
<ele>91.145569</ele>
<time>2010-08-29T10:46:28Z</time>
<desc>lat.=56.030811, lon.=26.517414, Alt.=91.145569m. Speed=26.927999m/h.</desc>
<speed>7.480000</speed>
</trkpt>
<trkpt lat="56.030876" lon="26.517443">
<ele>91.094788</ele>
<time>2010-08-29T10:46:29Z</time>
<desc>lat.=56.030876, lon.=26.517443, Alt.=91.094788m. Speed=25.128000m/h.</desc>
<speed>6.980000</speed>
</trkpt>
<trkpt lat="56.030933" lon="26.517471">
<ele>91.272522</ele>
<time>2010-08-29T10:46:30Z</time>
<desc>lat.=56.030933, lon.=26.517471, Alt.=91.272522m. Speed=24.191999m/h.</desc>
<speed>6.720000</speed>
</trkpt>
<trkpt lat="56.030991" lon="26.517502">
<ele>91.254944</ele>
<time>2010-08-29T10:46:31Z</time>
<desc>lat.=56.030991, lon.=26.517502, Alt.=91.254944m. Speed=24.552000m/h.</desc>
<speed>6.820000</speed>
</trkpt>
<trkpt lat="56.031044" lon="26.517530">
<ele>91.127991</ele>
<time>2010-08-29T10:46:32Z</time>
<desc>lat.=56.031044, lon.=26.517530, Alt.=91.127991m. Speed=24.156000m/h.</desc>
<speed>6.710000</speed>
</trkpt>
<trkpt lat="56.031097" lon="26.517553">
<ele>91.034241</ele>
<time>2010-08-29T10:46:33Z</time>
<desc>lat.=56.031097, lon.=26.517553, Alt.=91.034241m. Speed=23.580000m/h.</desc>
<speed>6.550000</speed>
</trkpt>
<trkpt lat="56.031151" lon="26.517582">
<ele>90.973694</ele>
<time>2010-08-29T10:46:34Z</time>
<desc>lat.=56.031151, lon.=26.517582, Alt.=90.973694m. Speed=21.167999m/h.</desc>
<speed>5.880000</speed>
</trkpt>
<trkpt lat="56.031197" lon="26.517605">
<ele>91.174866</ele>
<time>2010-08-29T10:46:35Z</time>
<desc>lat.=56.031197, lon.=26.517605, Alt.=91.174866m. Speed=19.440001m/h.</desc>
<speed>5.400000</speed>
</trkpt>
<trkpt lat="56.031242" lon="26.517630">
<ele>91.516663</ele>
<time>2010-08-29T10:46:36Z</time>
<desc>lat.=56.031242, lon.=26.517630, Alt.=91.516663m. Speed=19.548000m/h.</desc>
<speed>5.430000</speed>
</trkpt>
<trkpt lat="56.031292" lon="26.517656">
<ele>92.239319</ele>
<time>2010-08-29T10:46:37Z</time>
<desc>lat.=56.031292, lon.=26.517656, Alt.=92.239319m. Speed=20.340000m/h.</desc>
<speed>5.650000</speed>
</trkpt>
<trkpt lat="56.031334" lon="26.517679">
<ele>92.420959</ele>
<time>2010-08-29T10:46:38Z</time>
<desc>lat.=56.031334, lon.=26.517679, Alt.=92.420959m. Speed=19.260000m/h.</desc>
<speed>5.350000</speed>
</trkpt>
<trkpt lat="56.031384" lon="26.517700">
<ele>93.014709</ele>
<time>2010-08-29T10:46:39Z</time>
<desc>lat.=56.031384, lon.=26.517700, Alt.=93.014709m. Speed=19.368000m/h.</desc>
<speed>5.380000</speed>
</trkpt>
<trkpt lat="56.031433" lon="26.517727">
<ele>93.495178</ele>
<time>2010-08-29T10:46:40Z</time>
<desc>lat.=56.031433, lon.=26.517727, Alt.=93.495178m. Speed=19.007999m/h.</desc>
<speed>5.280000</speed>
</trkpt>
<trkpt lat="56.031475" lon="26.517748">
<ele>94.536194</ele>
<time>2010-08-29T10:46:41Z</time>
<desc>lat.=56.031475, lon.=26.517748, Alt.=94.536194m. Speed=16.884001m/h.</desc>
<speed>4.690000</speed>
</trkpt>
<trkpt lat="56.031517" lon="26.517771">
<ele>95.430725</ele>
<time>2010-08-29T10:46:42Z</time>
<desc>lat.=56.031517, lon.=26.517771, Alt.=95.430725m. Speed=15.156000m/h.</desc>
<speed>4.210000</speed>
</trkpt>
<trkpt lat="56.031548" lon="26.517790">
<ele>95.704163</ele>
<time>2010-08-29T10:46:43Z</time>
<desc>lat.=56.031548, lon.=26.517790, Alt.=95.704163m. Speed=13.644000m/h.</desc>
<speed>3.790000</speed>
</trkpt>
<trkpt lat="56.031578" lon="26.517811">
<ele>96.389709</ele>
<time>2010-08-29T10:46:44Z</time>
<desc>lat.=56.031578, lon.=26.517811, Alt.=96.389709m. Speed=13.608000m/h.</desc>
<speed>3.780000</speed>
</trkpt>
<trkpt lat="56.031616" lon="26.517832">
<ele>96.844788</ele>
<time>2010-08-29T10:46:45Z</time>
<desc>lat.=56.031616, lon.=26.517832, Alt.=96.844788m. Speed=13.824000m/h.</desc>
<speed>3.840000</speed>
</trkpt>
<trkpt lat="56.031654" lon="26.517851">
<ele>97.219788</ele>
<time>2010-08-29T10:46:46Z</time>
<desc>lat.=56.031654, lon.=26.517851, Alt.=97.219788m. Speed=15.624000m/h.</desc>
<speed>4.340000</speed>
</trkpt>
<trkpt lat="56.031700" lon="26.517874">
<ele>97.682678</ele>
<time>2010-08-29T10:46:47Z</time>
<desc>lat.=56.031700, lon.=26.517874, Alt.=97.682678m. Speed=17.028000m/h.</desc>
<speed>4.730000</speed>
</trkpt>
<trkpt lat="56.031746" lon="26.517900">
<ele>97.973694</ele>
<time>2010-08-29T10:46:48Z</time>
<desc>lat.=56.031746, lon.=26.517900, Alt.=97.973694m. Speed=20.771999m/h.</desc>
<speed>5.770000</speed>
</trkpt>
<trkpt lat="56.031796" lon="26.517925">
<ele>97.928772</ele>
<time>2010-08-29T10:46:49Z</time>
<desc>lat.=56.031796, lon.=26.517925, Alt.=97.928772m. Speed=20.556000m/h.</desc>
<speed>5.710000</speed>
</trkpt>
<trkpt lat="56.031845" lon="26.517944">
<ele>97.778381</ele>
<time>2010-08-29T10:46:50Z</time>
<desc>lat.=56.031845, lon.=26.517944, Alt.=97.778381m. Speed=19.115999m/h.</desc>
<speed>5.310000</speed>
</trkpt>
<trkpt lat="56.031895" lon="26.517975">
<ele>98.051819</ele>
<time>2010-08-29T10:46:51Z</time>
<desc>lat.=56.031895, lon.=26.517975, Alt.=98.051819m. Speed=21.167999m/h.</desc>
<speed>5.880000</speed>
</trkpt>
<trkpt lat="56.031952" lon="26.518013">
<ele>98.204163</ele>
<time>2010-08-29T10:46:52Z</time>
<desc>lat.=56.031952, lon.=26.518013, Alt.=98.204163m. Speed=19.620001m/h.</desc>
<speed>5.450000</speed>
</trkpt>
<trkpt lat="56.032001" lon="26.518040">
<ele>98.481506</ele>
<time>2010-08-29T10:46:53Z</time>
<desc>lat.=56.032001, lon.=26.518040, Alt.=98.481506m. Speed=18.216000m/h.</desc>
<speed>5.060000</speed>
</trkpt>
<trkpt lat="56.032043" lon="26.518064">
<ele>98.053772</ele>
<time>2010-08-29T10:46:54Z</time>
<desc>lat.=56.032043, lon.=26.518064, Alt.=98.053772m. Speed=17.856001m/h.</desc>
<speed>4.960000</speed>
</trkpt>
<trkpt lat="56.032085" lon="26.518089">
<ele>98.252991</ele>
<time>2010-08-29T10:46:55Z</time>
<desc>lat.=56.032085, lon.=26.518089, Alt.=98.252991m. Speed=18.180000m/h.</desc>
<speed>5.050000</speed>
</trkpt>
<trkpt lat="56.032127" lon="26.518114">
<ele>98.301819</ele>
<time>2010-08-29T10:46:56Z</time>
<desc>lat.=56.032127, lon.=26.518114, Alt.=98.301819m. Speed=17.459999m/h.</desc>
<speed>4.850000</speed>
</trkpt>
<trkpt lat="56.032173" lon="26.518141">
<ele>98.034241</ele>
<time>2010-08-29T10:46:57Z</time>
<desc>lat.=56.032173, lon.=26.518141, Alt.=98.034241m. Speed=18.792000m/h.</desc>
<speed>5.220000</speed>
</trkpt>
<trkpt lat="56.032223" lon="26.518167">
<ele>98.419006</ele>
<time>2010-08-29T10:46:58Z</time>
<desc>lat.=56.032223, lon.=26.518167, Alt.=98.419006m. Speed=19.799999m/h.</desc>
<speed>5.500000</speed>
</trkpt>
<trkpt lat="56.032272" lon="26.518194">
<ele>98.424866</ele>
<time>2010-08-29T10:46:59Z</time>
<desc>lat.=56.032272, lon.=26.518194, Alt.=98.424866m. Speed=20.736000m/h.</desc>
<speed>5.760000</speed>
</trkpt>
<trkpt lat="56.032326" lon="26.518221">
<ele>98.409241</ele>
<time>2010-08-29T10:47:00Z</time>
<desc>lat.=56.032326, lon.=26.518221, Alt.=98.409241m. Speed=21.204000m/h.</desc>
<speed>5.890000</speed>
</trkpt>
<trkpt lat="56.032375" lon="26.518246">
<ele>98.264709</ele>
<time>2010-08-29T10:47:01Z</time>
<desc>lat.=56.032375, lon.=26.518246, Alt.=98.264709m. Speed=21.132000m/h.</desc>
<speed>5.870000</speed>
</trkpt>
<trkpt lat="56.032429" lon="26.518274">
<ele>98.737366</ele>
<time>2010-08-29T10:47:02Z</time>
<desc>lat.=56.032429, lon.=26.518274, Alt.=98.737366m. Speed=21.816000m/h.</desc>
<speed>6.060000</speed>
</trkpt>
<trkpt lat="56.032478" lon="26.518299">
<ele>98.772522</ele>
<time>2010-08-29T10:47:03Z</time>
<desc>lat.=56.032478, lon.=26.518299, Alt.=98.772522m. Speed=20.628000m/h.</desc>
<speed>5.730000</speed>
</trkpt>
<trkpt lat="56.032528" lon="26.518330">
<ele>98.526428</ele>
<time>2010-08-29T10:47:04Z</time>
<desc>lat.=56.032528, lon.=26.518330, Alt.=98.526428m. Speed=19.872000m/h.</desc>
<speed>5.520000</speed>
</trkpt>
<trkpt lat="56.032570" lon="26.518356">
<ele>98.151428</ele>
<time>2010-08-29T10:47:05Z</time>
<desc>lat.=56.032570, lon.=26.518356, Alt.=98.151428m. Speed=18.396000m/h.</desc>
<speed>5.110000</speed>
</trkpt>
<trkpt lat="56.032616" lon="26.518383">
<ele>98.098694</ele>
<time>2010-08-29T10:47:06Z</time>
<desc>lat.=56.032616, lon.=26.518383, Alt.=98.098694m. Speed=17.351999m/h.</desc>
<speed>4.820000</speed>
</trkpt>
<trkpt lat="56.032658" lon="26.518408">
<ele>98.126038</ele>
<time>2010-08-29T10:47:07Z</time>
<desc>lat.=56.032658, lon.=26.518408, Alt.=98.126038m. Speed=17.712000m/h.</desc>
<speed>4.920000</speed>
</trkpt>
<trkpt lat="56.032707" lon="26.518429">
<ele>97.389709</ele>
<time>2010-08-29T10:47:08Z</time>
<desc>lat.=56.032707, lon.=26.518429, Alt.=97.389709m. Speed=17.927999m/h.</desc>
<speed>4.980000</speed>
</trkpt>
<trkpt lat="56.032749" lon="26.518452">
<ele>96.879944</ele>
<time>2010-08-29T10:47:09Z</time>
<desc>lat.=56.032749, lon.=26.518452, Alt.=96.879944m. Speed=18.540001m/h.</desc>
<speed>5.150000</speed>
</trkpt>
<trkpt lat="56.032795" lon="26.518476">
<ele>96.936584</ele>
<time>2010-08-29T10:47:10Z</time>
<desc>lat.=56.032795, lon.=26.518476, Alt.=96.936584m. Speed=19.548000m/h.</desc>
<speed>5.430000</speed>
</trkpt>
<trkpt lat="56.032837" lon="26.518507">
<ele>97.233459</ele>
<time>2010-08-29T10:47:11Z</time>
<desc>lat.=56.032837, lon.=26.518507, Alt.=97.233459m. Speed=20.483999m/h.</desc>
<speed>5.690000</speed>
</trkpt>
<trkpt lat="56.032887" lon="26.518538">
<ele>97.637756</ele>
<time>2010-08-29T10:47:12Z</time>
<desc>lat.=56.032887, lon.=26.518538, Alt.=97.637756m. Speed=20.952000m/h.</desc>
<speed>5.820000</speed>
</trkpt>
<trkpt lat="56.032936" lon="26.518568">
<ele>97.874084</ele>
<time>2010-08-29T10:47:13Z</time>
<desc>lat.=56.032936, lon.=26.518568, Alt.=97.874084m. Speed=22.572001m/h.</desc>
<speed>6.270000</speed>
</trkpt>
<trkpt lat="56.032986" lon="26.518595">
<ele>98.200256</ele>
<time>2010-08-29T10:47:14Z</time>
<desc>lat.=56.032986, lon.=26.518595, Alt.=98.200256m. Speed=20.736000m/h.</desc>
<speed>5.760000</speed>
</trkpt>
<trkpt lat="56.033043" lon="26.518623">
<ele>97.782288</ele>
<time>2010-08-29T10:47:15Z</time>
<desc>lat.=56.033043, lon.=26.518623, Alt.=97.782288m. Speed=20.340000m/h.</desc>
<speed>5.650000</speed>
</trkpt>
<trkpt lat="56.033092" lon="26.518648">
<ele>97.784241</ele>
<time>2010-08-29T10:47:16Z</time>
<desc>lat.=56.033092, lon.=26.518648, Alt.=97.784241m. Speed=21.384001m/h.</desc>
<speed>5.940000</speed>
</trkpt>
<trkpt lat="56.033146" lon="26.518677">
<ele>97.948303</ele>
<time>2010-08-29T10:47:17Z</time>
<desc>lat.=56.033146, lon.=26.518677, Alt.=97.948303m. Speed=23.076000m/h.</desc>
<speed>6.410000</speed>
</trkpt>
<trkpt lat="56.033203" lon="26.518707">
<ele>98.252991</ele>
<time>2010-08-29T10:47:18Z</time>
<desc>lat.=56.033203, lon.=26.518707, Alt.=98.252991m. Speed=22.931999m/h.</desc>
<speed>6.370000</speed>
</trkpt>
<trkpt lat="56.033257" lon="26.518738">
<ele>98.911194</ele>
<time>2010-08-29T10:47:19Z</time>
<desc>lat.=56.033257, lon.=26.518738, Alt.=98.911194m. Speed=23.327999m/h.</desc>
<speed>6.480000</speed>
</trkpt>
<trkpt lat="56.033310" lon="26.518764">
<ele>98.639709</ele>
<time>2010-08-29T10:47:20Z</time>
<desc>lat.=56.033310, lon.=26.518764, Alt.=98.639709m. Speed=21.743999m/h.</desc>
<speed>6.040000</speed>
</trkpt>
<trkpt lat="56.033360" lon="26.518791">
<ele>98.618225</ele>
<time>2010-08-29T10:47:21Z</time>
<desc>lat.=56.033360, lon.=26.518791, Alt.=98.618225m. Speed=20.771999m/h.</desc>
<speed>5.770000</speed>
</trkpt>
<trkpt lat="56.033409" lon="26.518818">
<ele>98.415100</ele>
<time>2010-08-29T10:47:22Z</time>
<desc>lat.=56.033409, lon.=26.518818, Alt.=98.415100m. Speed=19.440001m/h.</desc>
<speed>5.400000</speed>
</trkpt>
<trkpt lat="56.033451" lon="26.518847">
<ele>98.946350</ele>
<time>2010-08-29T10:47:23Z</time>
<desc>lat.=56.033451, lon.=26.518847, Alt.=98.946350m. Speed=19.440001m/h.</desc>
<speed>5.400000</speed>
</trkpt>
<trkpt lat="56.033493" lon="26.518866">
<ele>99.042053</ele>
<time>2010-08-29T10:47:24Z</time>
<desc>lat.=56.033493, lon.=26.518866, Alt.=99.042053m. Speed=17.676001m/h.</desc>
<speed>4.910000</speed>
</trkpt>
<trkpt lat="56.033535" lon="26.518894">
<ele>98.766663</ele>
<time>2010-08-29T10:47:25Z</time>
<desc>lat.=56.033535, lon.=26.518894, Alt.=98.766663m. Speed=18.504000m/h.</desc>
<speed>5.140000</speed>
</trkpt>
<trkpt lat="56.033581" lon="26.518927">
<ele>98.758850</ele>
<time>2010-08-29T10:47:26Z</time>
<desc>lat.=56.033581, lon.=26.518927, Alt.=98.758850m. Speed=20.052000m/h.</desc>
<speed>5.570000</speed>
</trkpt>
<trkpt lat="56.033630" lon="26.518963">
<ele>98.846741</ele>
<time>2010-08-29T10:47:27Z</time>
<desc>lat.=56.033630, lon.=26.518963, Alt.=98.846741m. Speed=21.024000m/h.</desc>
<speed>5.840000</speed>
</trkpt>
<trkpt lat="56.033680" lon="26.518991">
<ele>99.071350</ele>
<time>2010-08-29T10:47:28Z</time>
<desc>lat.=56.033680, lon.=26.518991, Alt.=99.071350m. Speed=20.483999m/h.</desc>
<speed>5.690000</speed>
</trkpt>
<trkpt lat="56.033730" lon="26.519030">
<ele>99.473694</ele>
<time>2010-08-29T10:47:29Z</time>
<desc>lat.=56.033730, lon.=26.519030, Alt.=99.473694m. Speed=19.584000m/h.</desc>
<speed>5.440000</speed>
</trkpt>
<trkpt lat="56.033775" lon="26.519058">
<ele>99.676819</ele>
<time>2010-08-29T10:47:30Z</time>
<desc>lat.=56.033775, lon.=26.519058, Alt.=99.676819m. Speed=18.468000m/h.</desc>
<speed>5.130000</speed>
</trkpt>
<trkpt lat="56.033821" lon="26.519094">
<ele>99.852600</ele>
<time>2010-08-29T10:47:31Z</time>
<desc>lat.=56.033821, lon.=26.519094, Alt.=99.852600m. Speed=19.872000m/h.</desc>
<speed>5.520000</speed>
</trkpt>
<trkpt lat="56.033867" lon="26.519129">
<ele>100.024475</ele>
<time>2010-08-29T10:47:32Z</time>
<desc>lat.=56.033867, lon.=26.519129, Alt.=100.024475m. Speed=19.980000m/h.</desc>
<speed>5.550000</speed>
</trkpt>
<trkpt lat="56.033913" lon="26.519167">
<ele>100.211975</ele>
<time>2010-08-29T10:47:33Z</time>
<desc>lat.=56.033913, lon.=26.519167, Alt.=100.211975m. Speed=18.648001m/h.</desc>
<speed>5.180000</speed>
</trkpt>
<trkpt lat="56.033955" lon="26.519199">
<ele>100.145569</ele>
<time>2010-08-29T10:47:34Z</time>
<desc>lat.=56.033955, lon.=26.519199, Alt.=100.145569m. Speed=17.532000m/h.</desc>
<speed>4.870000</speed>
</trkpt>
<trkpt lat="56.033997" lon="26.519236">
<ele>100.254944</ele>
<time>2010-08-29T10:47:35Z</time>
<desc>lat.=56.033997, lon.=26.519236, Alt.=100.254944m. Speed=17.747999m/h.</desc>
<speed>4.930000</speed>
</trkpt>
<trkpt lat="56.034039" lon="26.519276">
<ele>99.952209</ele>
<time>2010-08-29T10:47:36Z</time>
<desc>lat.=56.034039, lon.=26.519276, Alt.=99.952209m. Speed=17.316000m/h.</desc>
<speed>4.810000</speed>
</trkpt>
<trkpt lat="56.034077" lon="26.519316">
<ele>99.862366</ele>
<time>2010-08-29T10:47:37Z</time>
<desc>lat.=56.034077, lon.=26.519316, Alt.=99.862366m. Speed=16.344000m/h.</desc>
<speed>4.540000</speed>
</trkpt>
<trkpt lat="56.034111" lon="26.519352">
<ele>99.866272</ele>
<time>2010-08-29T10:47:38Z</time>
<desc>lat.=56.034111, lon.=26.519352, Alt.=99.866272m. Speed=16.020000m/h.</desc>
<speed>4.450000</speed>
</trkpt>
<trkpt lat="56.034145" lon="26.519392">
<ele>99.674866</ele>
<time>2010-08-29T10:47:39Z</time>
<desc>lat.=56.034145, lon.=26.519392, Alt.=99.674866m. Speed=14.904000m/h.</desc>
<speed>4.140000</speed>
</trkpt>
<trkpt lat="56.034176" lon="26.519430">
<ele>99.987366</ele>
<time>2010-08-29T10:47:40Z</time>
<desc>lat.=56.034176, lon.=26.519430, Alt.=99.987366m. Speed=13.896000m/h.</desc>
<speed>3.860000</speed>
</trkpt>
<trkpt lat="56.034206" lon="26.519472">
<ele>100.497131</ele>
<time>2010-08-29T10:47:41Z</time>
<desc>lat.=56.034206, lon.=26.519472, Alt.=100.497131m. Speed=13.752000m/h.</desc>
<speed>3.820000</speed>
</trkpt>
<trkpt lat="56.034233" lon="26.519512">
<ele>100.364319</ele>
<time>2010-08-29T10:47:42Z</time>
<desc>lat.=56.034233, lon.=26.519512, Alt.=100.364319m. Speed=14.184000m/h.</desc>
<speed>3.940000</speed>
</trkpt>
<trkpt lat="56.034264" lon="26.519554">
<ele>100.383850</ele>
<time>2010-08-29T10:47:43Z</time>
<desc>lat.=56.034264, lon.=26.519554, Alt.=100.383850m. Speed=14.436000m/h.</desc>
<speed>4.010000</speed>
</trkpt>
<trkpt lat="56.034290" lon="26.519596">
<ele>100.594788</ele>
<time>2010-08-29T10:47:44Z</time>
<desc>lat.=56.034290, lon.=26.519596, Alt.=100.594788m. Speed=14.148000m/h.</desc>
<speed>3.930000</speed>
</trkpt>
<trkpt lat="56.034325" lon="26.519632">
<ele>100.883850</ele>
<time>2010-08-29T10:47:45Z</time>
<desc>lat.=56.034325, lon.=26.519632, Alt.=100.883850m. Speed=13.968000m/h.</desc>
<speed>3.880000</speed>
</trkpt>
<trkpt lat="56.034355" lon="26.519665">
<ele>100.979553</ele>
<time>2010-08-29T10:47:46Z</time>
<desc>lat.=56.034355, lon.=26.519665, Alt.=100.979553m. Speed=14.580000m/h.</desc>
<speed>4.050000</speed>
</trkpt>
<trkpt lat="56.034386" lon="26.519705">
<ele>101.381897</ele>
<time>2010-08-29T10:47:47Z</time>
<desc>lat.=56.034386, lon.=26.519705, Alt.=101.381897m. Speed=14.544000m/h.</desc>
<speed>4.040000</speed>
</trkpt>
<trkpt lat="56.034412" lon="26.519743">
<ele>101.608459</ele>
<time>2010-08-29T10:47:48Z</time>
<desc>lat.=56.034412, lon.=26.519743, Alt.=101.608459m. Speed=13.248000m/h.</desc>
<speed>3.680000</speed>
</trkpt>
<trkpt lat="56.034435" lon="26.519775">
<ele>101.866272</ele>
<time>2010-08-29T10:47:49Z</time>
<desc>lat.=56.034435, lon.=26.519775, Alt.=101.866272m. Speed=11.664000m/h.</desc>
<speed>3.240000</speed>
</trkpt>
<trkpt lat="56.034454" lon="26.519808">
<ele>102.358459</ele>
<time>2010-08-29T10:47:50Z</time>
<desc>lat.=56.034454, lon.=26.519808, Alt.=102.358459m. Speed=9.072000m/h.</desc>
<speed>2.520000</speed>
</trkpt>
<trkpt lat="56.034466" lon="26.519854">
<ele>102.680725</ele>
<time>2010-08-29T10:47:51Z</time>
<desc>lat.=56.034466, lon.=26.519854, Alt.=102.680725m. Speed=9.864000m/h.</desc>
<speed>2.740000</speed>
</trkpt>
<trkpt lat="56.034481" lon="26.519882">
<ele>103.004944</ele>
<time>2010-08-29T10:47:52Z</time>
<desc>lat.=56.034481, lon.=26.519882, Alt.=103.004944m. Speed=8.208000m/h.</desc>
<speed>2.280000</speed>
</trkpt>
<trkpt lat="56.034492" lon="26.519922">
<ele>103.502991</ele>
<time>2010-08-29T10:47:53Z</time>
<desc>lat.=56.034492, lon.=26.519922, Alt.=103.502991m. Speed=7.848000m/h.</desc>
<speed>2.180000</speed>
</trkpt>
<trkpt lat="56.034508" lon="26.519962">
<ele>101.225647</ele>
<time>2010-08-29T10:47:54Z</time>
<desc>lat.=56.034508, lon.=26.519962, Alt.=101.225647m. Speed=7.128000m/h.</desc>
<speed>1.980000</speed>
</trkpt>
<trkpt lat="56.034523" lon="26.519995">
<ele>100.901428</ele>
<time>2010-08-29T10:47:55Z</time>
<desc>lat.=56.034523, lon.=26.519995, Alt.=100.901428m. Speed=9.144000m/h.</desc>
<speed>2.540000</speed>
</trkpt>
<trkpt lat="56.034542" lon="26.520025">
<ele>102.001038</ele>
<time>2010-08-29T10:47:56Z</time>
<desc>lat.=56.034542, lon.=26.520025, Alt.=102.001038m. Speed=11.016000m/h.</desc>
<speed>3.060000</speed>
</trkpt>
<trkpt lat="56.034565" lon="26.520050">
<ele>102.108459</ele>
<time>2010-08-29T10:47:57Z</time>
<desc>lat.=56.034565, lon.=26.520050, Alt.=102.108459m. Speed=10.656000m/h.</desc>
<speed>2.960000</speed>
</trkpt>
<trkpt lat="56.034588" lon="26.520073">
<ele>102.549866</ele>
<time>2010-08-29T10:47:58Z</time>
<desc>lat.=56.034588, lon.=26.520073, Alt.=102.549866m. Speed=11.880000m/h.</desc>
<speed>3.300000</speed>
</trkpt>
<trkpt lat="56.034615" lon="26.520098">
<ele>102.456116</ele>
<time>2010-08-29T10:47:59Z</time>
<desc>lat.=56.034615, lon.=26.520098, Alt.=102.456116m. Speed=12.996000m/h.</desc>
<speed>3.610000</speed>
</trkpt>
<trkpt lat="56.034637" lon="26.520124">
<ele>102.356506</ele>
<time>2010-08-29T10:48:00Z</time>
<desc>lat.=56.034637, lon.=26.520124, Alt.=102.356506m. Speed=8.892000m/h.</desc>
<speed>2.470000</speed>
</trkpt>
<trkpt lat="56.034657" lon="26.520163">
<ele>102.497131</ele>
<time>2010-08-29T10:48:01Z</time>
<desc>lat.=56.034657, lon.=26.520163, Alt.=102.497131m. Speed=12.636000m/h.</desc>
<speed>3.510000</speed>
</trkpt>
<trkpt lat="56.034691" lon="26.520210">
<ele>101.762756</ele>
<time>2010-08-29T10:48:02Z</time>
<desc>lat.=56.034691, lon.=26.520210, Alt.=101.762756m. Speed=15.012000m/h.</desc>
<speed>4.170000</speed>
</trkpt>
<trkpt lat="56.034725" lon="26.520254">
<ele>100.979553</ele>
<time>2010-08-29T10:48:03Z</time>
<desc>lat.=56.034725, lon.=26.520254, Alt.=100.979553m. Speed=16.091999m/h.</desc>
<speed>4.470000</speed>
</trkpt>
<trkpt lat="56.034760" lon="26.520306">
<ele>100.598694</ele>
<time>2010-08-29T10:48:04Z</time>
<desc>lat.=56.034760, lon.=26.520306, Alt.=100.598694m. Speed=17.496000m/h.</desc>
<speed>4.860000</speed>
</trkpt>
<trkpt lat="56.034798" lon="26.520353">
<ele>100.649475</ele>
<time>2010-08-29T10:48:05Z</time>
<desc>lat.=56.034798, lon.=26.520353, Alt.=100.649475m. Speed=17.964001m/h.</desc>
<speed>4.990000</speed>
</trkpt>
<trkpt lat="56.034836" lon="26.520399">
<ele>100.766663</ele>
<time>2010-08-29T10:48:06Z</time>
<desc>lat.=56.034836, lon.=26.520399, Alt.=100.766663m. Speed=17.676001m/h.</desc>
<speed>4.910000</speed>
</trkpt>
<trkpt lat="56.034874" lon="26.520445">
<ele>100.790100</ele>
<time>2010-08-29T10:48:07Z</time>
<desc>lat.=56.034874, lon.=26.520445, Alt.=100.790100m. Speed=17.243999m/h.</desc>
<speed>4.790000</speed>
</trkpt>
<trkpt lat="56.034908" lon="26.520491">
<ele>100.567444</ele>
<time>2010-08-29T10:48:08Z</time>
<desc>lat.=56.034908, lon.=26.520491, Alt.=100.567444m. Speed=16.955999m/h.</desc>
<speed>4.710000</speed>
</trkpt>
<trkpt lat="56.034946" lon="26.520529">
<ele>100.473694</ele>
<time>2010-08-29T10:48:09Z</time>
<desc>lat.=56.034946, lon.=26.520529, Alt.=100.473694m. Speed=16.704000m/h.</desc>
<speed>4.640000</speed>
</trkpt>
<trkpt lat="56.034981" lon="26.520567">
<ele>100.383850</ele>
<time>2010-08-29T10:48:10Z</time>
<desc>lat.=56.034981, lon.=26.520567, Alt.=100.383850m. Speed=15.840000m/h.</desc>
<speed>4.400000</speed>
</trkpt>
<trkpt lat="56.035011" lon="26.520615">
<ele>100.057678</ele>
<time>2010-08-29T10:48:11Z</time>
<desc>lat.=56.035011, lon.=26.520615, Alt.=100.057678m. Speed=15.336000m/h.</desc>
<speed>4.260000</speed>
</trkpt>
<trkpt lat="56.035042" lon="26.520660">
<ele>100.225647</ele>
<time>2010-08-29T10:48:12Z</time>
<desc>lat.=56.035042, lon.=26.520660, Alt.=100.225647m. Speed=16.596001m/h.</desc>
<speed>4.610000</speed>
</trkpt>
<trkpt lat="56.035076" lon="26.520700">
<ele>100.329163</ele>
<time>2010-08-29T10:48:13Z</time>
<desc>lat.=56.035076, lon.=26.520700, Alt.=100.329163m. Speed=16.416000m/h.</desc>
<speed>4.560000</speed>
</trkpt>
<trkpt lat="56.035110" lon="26.520741">
<ele>100.370178</ele>
<time>2010-08-29T10:48:14Z</time>
<desc>lat.=56.035110, lon.=26.520741, Alt.=100.370178m. Speed=15.696000m/h.</desc>
<speed>4.360000</speed>
</trkpt>
<trkpt lat="56.035137" lon="26.520777">
<ele>100.469788</ele>
<time>2010-08-29T10:48:15Z</time>
<desc>lat.=56.035137, lon.=26.520777, Alt.=100.469788m. Speed=13.572000m/h.</desc>
<speed>3.770000</speed>
</trkpt>
<trkpt lat="56.035164" lon="26.520817">
<ele>100.491272</ele>
<time>2010-08-29T10:48:16Z</time>
<desc>lat.=56.035164, lon.=26.520817, Alt.=100.491272m. Speed=13.932000m/h.</desc>
<speed>3.870000</speed>
</trkpt>
<trkpt lat="56.035191" lon="26.520853">
<ele>100.909241</ele>
<time>2010-08-29T10:48:17Z</time>
<desc>lat.=56.035191, lon.=26.520853, Alt.=100.909241m. Speed=12.816000m/h.</desc>
<speed>3.560000</speed>
</trkpt>
<trkpt lat="56.035221" lon="26.520887">
<ele>100.530334</ele>
<time>2010-08-29T10:48:18Z</time>
<desc>lat.=56.035221, lon.=26.520887, Alt.=100.530334m. Speed=12.960000m/h.</desc>
<speed>3.600000</speed>
</trkpt>
<trkpt lat="56.035248" lon="26.520924">
<ele>100.805725</ele>
<time>2010-08-29T10:48:19Z</time>
<desc>lat.=56.035248, lon.=26.520924, Alt.=100.805725m. Speed=14.220000m/h.</desc>
<speed>3.950000</speed>
</trkpt>
<trkpt lat="56.035282" lon="26.520964">
<ele>100.997131</ele>
<time>2010-08-29T10:48:20Z</time>
<desc>lat.=56.035282, lon.=26.520964, Alt.=100.997131m. Speed=15.444000m/h.</desc>
<speed>4.290000</speed>
</trkpt>
<trkpt lat="56.035316" lon="26.521008">
<ele>100.930725</ele>
<time>2010-08-29T10:48:21Z</time>
<desc>lat.=56.035316, lon.=26.521008, Alt.=100.930725m. Speed=15.912000m/h.</desc>
<speed>4.420000</speed>
</trkpt>
<trkpt lat="56.035351" lon="26.521048">
<ele>101.042053</ele>
<time>2010-08-29T10:48:22Z</time>
<desc>lat.=56.035351, lon.=26.521048, Alt.=101.042053m. Speed=17.459999m/h.</desc>
<speed>4.850000</speed>
</trkpt>
<trkpt lat="56.035389" lon="26.521090">
<ele>100.637756</ele>
<time>2010-08-29T10:48:23Z</time>
<desc>lat.=56.035389, lon.=26.521090, Alt.=100.637756m. Speed=17.280001m/h.</desc>
<speed>4.800000</speed>
</trkpt>
<trkpt lat="56.035423" lon="26.521135">
<ele>100.725647</ele>
<time>2010-08-29T10:48:24Z</time>
<desc>lat.=56.035423, lon.=26.521135, Alt.=100.725647m. Speed=18.288000m/h.</desc>
<speed>5.080000</speed>
</trkpt>
<trkpt lat="56.035458" lon="26.521179">
<ele>101.153381</ele>
<time>2010-08-29T10:48:25Z</time>
<desc>lat.=56.035458, lon.=26.521179, Alt.=101.153381m. Speed=15.768000m/h.</desc>
<speed>4.380000</speed>
</trkpt>
<trkpt lat="56.035488" lon="26.521223">
<ele>101.530334</ele>
<time>2010-08-29T10:48:26Z</time>
<desc>lat.=56.035488, lon.=26.521223, Alt.=101.530334m. Speed=18.072001m/h.</desc>
<speed>5.020000</speed>
</trkpt>
<trkpt lat="56.035526" lon="26.521269">
<ele>101.588928</ele>
<time>2010-08-29T10:48:27Z</time>
<desc>lat.=56.035526, lon.=26.521269, Alt.=101.588928m. Speed=18.684000m/h.</desc>
<speed>5.190000</speed>
</trkpt>
<trkpt lat="56.035564" lon="26.521322">
<ele>101.782288</ele>
<time>2010-08-29T10:48:28Z</time>
<desc>lat.=56.035564, lon.=26.521322, Alt.=101.782288m. Speed=20.052000m/h.</desc>
<speed>5.570000</speed>
</trkpt>
<trkpt lat="56.035610" lon="26.521379">
<ele>100.817444</ele>
<time>2010-08-29T10:48:29Z</time>
<desc>lat.=56.035610, lon.=26.521379, Alt.=100.817444m. Speed=20.879999m/h.</desc>
<speed>5.800000</speed>
</trkpt>
<trkpt lat="56.035652" lon="26.521439">
<ele>100.735413</ele>
<time>2010-08-29T10:48:30Z</time>
<desc>lat.=56.035652, lon.=26.521439, Alt.=100.735413m. Speed=21.455999m/h.</desc>
<speed>5.960000</speed>
</trkpt>
<trkpt lat="56.035698" lon="26.521494">
<ele>100.174866</ele>
<time>2010-08-29T10:48:31Z</time>
<desc>lat.=56.035698, lon.=26.521494, Alt.=100.174866m. Speed=21.743999m/h.</desc>
<speed>6.040000</speed>
</trkpt>
<trkpt lat="56.035744" lon="26.521555">
<ele>99.969788</ele>
<time>2010-08-29T10:48:32Z</time>
<desc>lat.=56.035744, lon.=26.521555, Alt.=99.969788m. Speed=22.643999m/h.</desc>
<speed>6.290000</speed>
</trkpt>
<trkpt lat="56.035793" lon="26.521614">
<ele>99.667053</ele>
<time>2010-08-29T10:48:33Z</time>
<desc>lat.=56.035793, lon.=26.521614, Alt.=99.667053m. Speed=23.327999m/h.</desc>
<speed>6.480000</speed>
</trkpt>
<trkpt lat="56.035843" lon="26.521677">
<ele>99.215881</ele>
<time>2010-08-29T10:48:34Z</time>
<desc>lat.=56.035843, lon.=26.521677, Alt.=99.215881m. Speed=24.084000m/h.</desc>
<speed>6.690000</speed>
</trkpt>
<trkpt lat="56.035892" lon="26.521742">
<ele>98.635803</ele>
<time>2010-08-29T10:48:35Z</time>
<desc>lat.=56.035892, lon.=26.521742, Alt.=98.635803m. Speed=24.408001m/h.</desc>
<speed>6.780000</speed>
</trkpt>
<trkpt lat="56.035946" lon="26.521809">
<ele>98.266663</ele>
<time>2010-08-29T10:48:36Z</time>
<desc>lat.=56.035946, lon.=26.521809, Alt.=98.266663m. Speed=25.955999m/h.</desc>
<speed>7.210000</speed>
</trkpt>
<trkpt lat="56.036003" lon="26.521870">
<ele>97.758850</ele>
<time>2010-08-29T10:48:37Z</time>
<desc>lat.=56.036003, lon.=26.521870, Alt.=97.758850m. Speed=25.955999m/h.</desc>
<speed>7.210000</speed>
</trkpt>
<trkpt lat="56.036060" lon="26.521940">
<ele>97.573303</ele>
<time>2010-08-29T10:48:38Z</time>
<desc>lat.=56.036060, lon.=26.521940, Alt.=97.573303m. Speed=26.136000m/h.</desc>
<speed>7.260000</speed>
</trkpt>
<trkpt lat="56.036114" lon="26.522011">
<ele>97.442444</ele>
<time>2010-08-29T10:48:39Z</time>
<desc>lat.=56.036114, lon.=26.522011, Alt.=97.442444m. Speed=26.280001m/h.</desc>
<speed>7.300000</speed>
</trkpt>
<trkpt lat="56.036167" lon="26.522083">
<ele>97.299866</ele>
<time>2010-08-29T10:48:40Z</time>
<desc>lat.=56.036167, lon.=26.522083, Alt.=97.299866m. Speed=25.740000m/h.</desc>
<speed>7.150000</speed>
</trkpt>
<trkpt lat="56.036217" lon="26.522152">
<ele>97.178772</ele>
<time>2010-08-29T10:48:41Z</time>
<desc>lat.=56.036217, lon.=26.522152, Alt.=97.178772m. Speed=25.200001m/h.</desc>
<speed>7.000000</speed>
</trkpt>
<trkpt lat="56.036266" lon="26.522228">
<ele>97.200256</ele>
<time>2010-08-29T10:48:42Z</time>
<desc>lat.=56.036266, lon.=26.522228, Alt.=97.200256m. Speed=24.732000m/h.</desc>
<speed>6.870000</speed>
</trkpt>
<trkpt lat="56.036316" lon="26.522293">
<ele>97.086975</ele>
<time>2010-08-29T10:48:43Z</time>
<desc>lat.=56.036316, lon.=26.522293, Alt.=97.086975m. Speed=23.940001m/h.</desc>
<speed>6.650000</speed>
</trkpt>
<trkpt lat="56.036362" lon="26.522354">
<ele>97.075256</ele>
<time>2010-08-29T10:48:44Z</time>
<desc>lat.=56.036362, lon.=26.522354, Alt.=97.075256m. Speed=22.896000m/h.</desc>
<speed>6.360000</speed>
</trkpt>
<trkpt lat="56.036411" lon="26.522411">
<ele>96.997131</ele>
<time>2010-08-29T10:48:45Z</time>
<desc>lat.=56.036411, lon.=26.522411, Alt.=96.997131m. Speed=21.888000m/h.</desc>
<speed>6.080000</speed>
</trkpt>
<trkpt lat="56.036453" lon="26.522469">
<ele>96.920959</ele>
<time>2010-08-29T10:48:46Z</time>
<desc>lat.=56.036453, lon.=26.522469, Alt.=96.920959m. Speed=20.591999m/h.</desc>
<speed>5.720000</speed>
</trkpt>
<trkpt lat="56.036495" lon="26.522522">
<ele>97.053772</ele>
<time>2010-08-29T10:48:47Z</time>
<desc>lat.=56.036495, lon.=26.522522, Alt.=97.053772m. Speed=18.900000m/h.</desc>
<speed>5.250000</speed>
</trkpt>
<trkpt lat="56.036530" lon="26.522573">
<ele>97.489319</ele>
<time>2010-08-29T10:48:48Z</time>
<desc>lat.=56.036530, lon.=26.522573, Alt.=97.489319m. Speed=18.648001m/h.</desc>
<speed>5.180000</speed>
</trkpt>
<trkpt lat="56.036568" lon="26.522625">
<ele>97.827209</ele>
<time>2010-08-29T10:48:49Z</time>
<desc>lat.=56.036568, lon.=26.522625, Alt.=97.827209m. Speed=19.799999m/h.</desc>
<speed>5.500000</speed>
</trkpt>
<trkpt lat="56.036606" lon="26.522682">
<ele>97.665100</ele>
<time>2010-08-29T10:48:50Z</time>
<desc>lat.=56.036606, lon.=26.522682, Alt.=97.665100m. Speed=19.799999m/h.</desc>
<speed>5.500000</speed>
</trkpt>
<trkpt lat="56.036648" lon="26.522738">
<ele>97.081116</ele>
<time>2010-08-29T10:48:51Z</time>
<desc>lat.=56.036648, lon.=26.522738, Alt.=97.081116m. Speed=19.908001m/h.</desc>
<speed>5.530000</speed>
</trkpt>
<trkpt lat="56.036690" lon="26.522793">
<ele>96.518616</ele>
<time>2010-08-29T10:48:52Z</time>
<desc>lat.=56.036690, lon.=26.522793, Alt.=96.518616m. Speed=20.268000m/h.</desc>
<speed>5.630000</speed>
</trkpt>
<trkpt lat="56.036732" lon="26.522848">
<ele>96.338928</ele>
<time>2010-08-29T10:48:53Z</time>
<desc>lat.=56.036732, lon.=26.522848, Alt.=96.338928m. Speed=21.024000m/h.</desc>
<speed>5.840000</speed>
</trkpt>
<trkpt lat="56.036777" lon="26.522898">
<ele>96.051819</ele>
<time>2010-08-29T10:48:54Z</time>
<desc>lat.=56.036777, lon.=26.522898, Alt.=96.051819m. Speed=21.275999m/h.</desc>
<speed>5.910000</speed>
</trkpt>
<trkpt lat="56.036823" lon="26.522951">
<ele>96.127991</ele>
<time>2010-08-29T10:48:55Z</time>
<desc>lat.=56.036823, lon.=26.522951, Alt.=96.127991m. Speed=21.384001m/h.</desc>
<speed>5.940000</speed>
</trkpt>
<trkpt lat="56.036869" lon="26.523006">
<ele>96.049866</ele>
<time>2010-08-29T10:48:56Z</time>
<desc>lat.=56.036869, lon.=26.523006, Alt.=96.049866m. Speed=22.104000m/h.</desc>
<speed>6.140000</speed>
</trkpt>
<trkpt lat="56.036915" lon="26.523064">
<ele>96.124084</ele>
<time>2010-08-29T10:48:57Z</time>
<desc>lat.=56.036915, lon.=26.523064, Alt.=96.124084m. Speed=22.464001m/h.</desc>
<speed>6.240000</speed>
</trkpt>
<trkpt lat="56.036961" lon="26.523125">
<ele>95.975647</ele>
<time>2010-08-29T10:48:58Z</time>
<desc>lat.=56.036961, lon.=26.523125, Alt.=95.975647m. Speed=23.076000m/h.</desc>
<speed>6.410000</speed>
</trkpt>
<trkpt lat="56.037003" lon="26.523188">
<ele>96.049866</ele>
<time>2010-08-29T10:48:59Z</time>
<desc>lat.=56.037003, lon.=26.523188, Alt.=96.049866m. Speed=22.643999m/h.</desc>
<speed>6.290000</speed>
</trkpt>
<trkpt lat="56.037045" lon="26.523252">
<ele>96.348694</ele>
<time>2010-08-29T10:49:00Z</time>
<desc>lat.=56.037045, lon.=26.523252, Alt.=96.348694m. Speed=21.816000m/h.</desc>
<speed>6.060000</speed>
</trkpt>
<trkpt lat="56.037090" lon="26.523308">
<ele>96.411194</ele>
<time>2010-08-29T10:49:01Z</time>
<desc>lat.=56.037090, lon.=26.523308, Alt.=96.411194m. Speed=21.059999m/h.</desc>
<speed>5.850000</speed>
</trkpt>
<trkpt lat="56.037128" lon="26.523369">
<ele>96.629944</ele>
<time>2010-08-29T10:49:02Z</time>
<desc>lat.=56.037128, lon.=26.523369, Alt.=96.629944m. Speed=19.980000m/h.</desc>
<speed>5.550000</speed>
</trkpt>
<trkpt lat="56.037170" lon="26.523422">
<ele>96.618225</ele>
<time>2010-08-29T10:49:03Z</time>
<desc>lat.=56.037170, lon.=26.523422, Alt.=96.618225m. Speed=20.483999m/h.</desc>
<speed>5.690000</speed>
</trkpt>
<trkpt lat="56.037209" lon="26.523479">
<ele>96.579163</ele>
<time>2010-08-29T10:49:04Z</time>
<desc>lat.=56.037209, lon.=26.523479, Alt.=96.579163m. Speed=20.375999m/h.</desc>
<speed>5.660000</speed>
</trkpt>
<trkpt lat="56.037251" lon="26.523535">
<ele>96.827209</ele>
<time>2010-08-29T10:49:05Z</time>
<desc>lat.=56.037251, lon.=26.523535, Alt.=96.827209m. Speed=20.520000m/h.</desc>
<speed>5.700000</speed>
</trkpt>
<trkpt lat="56.037292" lon="26.523588">
<ele>96.713928</ele>
<time>2010-08-29T10:49:06Z</time>
<desc>lat.=56.037292, lon.=26.523588, Alt.=96.713928m. Speed=21.167999m/h.</desc>
<speed>5.880000</speed>
</trkpt>
<trkpt lat="56.037338" lon="26.523647">
<ele>96.526428</ele>
<time>2010-08-29T10:49:07Z</time>
<desc>lat.=56.037338, lon.=26.523647, Alt.=96.526428m. Speed=21.888000m/h.</desc>
<speed>6.080000</speed>
</trkpt>
<trkpt lat="56.037384" lon="26.523706">
<ele>96.540100</ele>
<time>2010-08-29T10:49:08Z</time>
<desc>lat.=56.037384, lon.=26.523706, Alt.=96.540100m. Speed=22.104000m/h.</desc>
<speed>6.140000</speed>
</trkpt>
<trkpt lat="56.037430" lon="26.523766">
<ele>96.315491</ele>
<time>2010-08-29T10:49:09Z</time>
<desc>lat.=56.037430, lon.=26.523766, Alt.=96.315491m. Speed=23.148001m/h.</desc>
<speed>6.430000</speed>
</trkpt>
<trkpt lat="56.037476" lon="26.523829">
<ele>95.954163</ele>
<time>2010-08-29T10:49:10Z</time>
<desc>lat.=56.037476, lon.=26.523829, Alt.=95.954163m. Speed=23.688000m/h.</desc>
<speed>6.580000</speed>
</trkpt>
<trkpt lat="56.037525" lon="26.523893">
<ele>95.577209</ele>
<time>2010-08-29T10:49:11Z</time>
<desc>lat.=56.037525, lon.=26.523893, Alt.=95.577209m. Speed=24.444000m/h.</desc>
<speed>6.790000</speed>
</trkpt>
<trkpt lat="56.037571" lon="26.523958">
<ele>95.235413</ele>
<time>2010-08-29T10:49:12Z</time>
<desc>lat.=56.037571, lon.=26.523958, Alt.=95.235413m. Speed=24.660000m/h.</desc>
<speed>6.850000</speed>
</trkpt>
<trkpt lat="56.037624" lon="26.524025">
<ele>94.725647</ele>
<time>2010-08-29T10:49:13Z</time>
<desc>lat.=56.037624, lon.=26.524025, Alt.=94.725647m. Speed=25.164000m/h.</desc>
<speed>6.990000</speed>
</trkpt>
<trkpt lat="56.037678" lon="26.524092">
<ele>94.463928</ele>
<time>2010-08-29T10:49:14Z</time>
<desc>lat.=56.037678, lon.=26.524092, Alt.=94.463928m. Speed=25.559999m/h.</desc>
<speed>7.100000</speed>
</trkpt>
<trkpt lat="56.037727" lon="26.524160">
<ele>94.192444</ele>
<time>2010-08-29T10:49:15Z</time>
<desc>lat.=56.037727, lon.=26.524160, Alt.=94.192444m. Speed=25.920000m/h.</desc>
<speed>7.200000</speed>
</trkpt>
<trkpt lat="56.037781" lon="26.524229">
<ele>93.897522</ele>
<time>2010-08-29T10:49:16Z</time>
<desc>lat.=56.037781, lon.=26.524229, Alt.=93.897522m. Speed=25.740000m/h.</desc>
<speed>7.150000</speed>
</trkpt>
<trkpt lat="56.037830" lon="26.524303">
<ele>93.620178</ele>
<time>2010-08-29T10:49:17Z</time>
<desc>lat.=56.037830, lon.=26.524303, Alt.=93.620178m. Speed=25.559999m/h.</desc>
<speed>7.100000</speed>
</trkpt>
<trkpt lat="56.037880" lon="26.524372">
<ele>93.303772</ele>
<time>2010-08-29T10:49:18Z</time>
<desc>lat.=56.037880, lon.=26.524372, Alt.=93.303772m. Speed=25.271999m/h.</desc>
<speed>7.020000</speed>
</trkpt>
<trkpt lat="56.037930" lon="26.524439">
<ele>92.942444</ele>
<time>2010-08-29T10:49:19Z</time>
<desc>lat.=56.037930, lon.=26.524439, Alt.=92.942444m. Speed=24.372000m/h.</desc>
<speed>6.770000</speed>
</trkpt>
<trkpt lat="56.037979" lon="26.524498">
<ele>92.627991</ele>
<time>2010-08-29T10:49:20Z</time>
<desc>lat.=56.037979, lon.=26.524498, Alt.=92.627991m. Speed=23.219999m/h.</desc>
<speed>6.450000</speed>
</trkpt>
<trkpt lat="56.038021" lon="26.524561">
<ele>92.840881</ele>
<time>2010-08-29T10:49:21Z</time>
<desc>lat.=56.038021, lon.=26.524561, Alt.=92.840881m. Speed=22.068001m/h.</desc>
<speed>6.130000</speed>
</trkpt>
<trkpt lat="56.038067" lon="26.524612">
<ele>92.655334</ele>
<time>2010-08-29T10:49:22Z</time>
<desc>lat.=56.038067, lon.=26.524612, Alt.=92.655334m. Speed=20.844000m/h.</desc>
<speed>5.790000</speed>
</trkpt>
<trkpt lat="56.038109" lon="26.524666">
<ele>92.899475</ele>
<time>2010-08-29T10:49:23Z</time>
<desc>lat.=56.038109, lon.=26.524666, Alt.=92.899475m. Speed=20.124001m/h.</desc>
<speed>5.590000</speed>
</trkpt>
<trkpt lat="56.038151" lon="26.524717">
<ele>93.387756</ele>
<time>2010-08-29T10:49:24Z</time>
<desc>lat.=56.038151, lon.=26.524717, Alt.=93.387756m. Speed=20.195999m/h.</desc>
<speed>5.610000</speed>
</trkpt>
<trkpt lat="56.038189" lon="26.524767">
<ele>93.585022</ele>
<time>2010-08-29T10:49:25Z</time>
<desc>lat.=56.038189, lon.=26.524767, Alt.=93.585022m. Speed=20.124001m/h.</desc>
<speed>5.590000</speed>
</trkpt>
<trkpt lat="56.038231" lon="26.524822">
<ele>93.698303</ele>
<time>2010-08-29T10:49:26Z</time>
<desc>lat.=56.038231, lon.=26.524822, Alt.=93.698303m. Speed=20.916000m/h.</desc>
<speed>5.810000</speed>
</trkpt>
<trkpt lat="56.038273" lon="26.524878">
<ele>93.774475</ele>
<time>2010-08-29T10:49:27Z</time>
<desc>lat.=56.038273, lon.=26.524878, Alt.=93.774475m. Speed=21.924000m/h.</desc>
<speed>6.090000</speed>
</trkpt>
<trkpt lat="56.038322" lon="26.524937">
<ele>93.995178</ele>
<time>2010-08-29T10:49:28Z</time>
<desc>lat.=56.038322, lon.=26.524937, Alt.=93.995178m. Speed=22.284000m/h.</desc>
<speed>6.190000</speed>
</trkpt>
<trkpt lat="56.038368" lon="26.524994">
<ele>94.059631</ele>
<time>2010-08-29T10:49:29Z</time>
<desc>lat.=56.038368, lon.=26.524994, Alt.=94.059631m. Speed=23.292000m/h.</desc>
<speed>6.470000</speed>
</trkpt>
<trkpt lat="56.038410" lon="26.525055">
<ele>94.077209</ele>
<time>2010-08-29T10:49:30Z</time>
<desc>lat.=56.038410, lon.=26.525055, Alt.=94.077209m. Speed=18.864000m/h.</desc>
<speed>5.240000</speed>
</trkpt>
<trkpt lat="56.038452" lon="26.525120">
<ele>94.198303</ele>
<time>2010-08-29T10:49:31Z</time>
<desc>lat.=56.038452, lon.=26.525120, Alt.=94.198303m. Speed=22.823999m/h.</desc>
<speed>6.340000</speed>
</trkpt>
<trkpt lat="56.038498" lon="26.525181">
<ele>94.182678</ele>
<time>2010-08-29T10:49:32Z</time>
<desc>lat.=56.038498, lon.=26.525181, Alt.=94.182678m. Speed=23.076000m/h.</desc>
<speed>6.410000</speed>
</trkpt>
<trkpt lat="56.038548" lon="26.525246">
<ele>94.231506</ele>
<time>2010-08-29T10:49:33Z</time>
<desc>lat.=56.038548, lon.=26.525246, Alt.=94.231506m. Speed=25.020000m/h.</desc>
<speed>6.950000</speed>
</trkpt>
<trkpt lat="56.038597" lon="26.525311">
<ele>94.338928</ele>
<time>2010-08-29T10:49:34Z</time>
<desc>lat.=56.038597, lon.=26.525311, Alt.=94.338928m. Speed=23.688000m/h.</desc>
<speed>6.580000</speed>
</trkpt>
<trkpt lat="56.038643" lon="26.525370">
<ele>94.557678</ele>
<time>2010-08-29T10:49:35Z</time>
<desc>lat.=56.038643, lon.=26.525370, Alt.=94.557678m. Speed=22.032000m/h.</desc>
<speed>6.120000</speed>
</trkpt>
<trkpt lat="56.038692" lon="26.525433">
<ele>94.686584</ele>
<time>2010-08-29T10:49:36Z</time>
<desc>lat.=56.038692, lon.=26.525433, Alt.=94.686584m. Speed=22.788000m/h.</desc>
<speed>6.330000</speed>
</trkpt>
<trkpt lat="56.038738" lon="26.525494">
<ele>94.721741</ele>
<time>2010-08-29T10:49:37Z</time>
<desc>lat.=56.038738, lon.=26.525494, Alt.=94.721741m. Speed=21.563999m/h.</desc>
<speed>5.990000</speed>
</trkpt>
<trkpt lat="56.038784" lon="26.525555">
<ele>94.835022</ele>
<time>2010-08-29T10:49:38Z</time>
<desc>lat.=56.038784, lon.=26.525555, Alt.=94.835022m. Speed=21.924000m/h.</desc>
<speed>6.090000</speed>
</trkpt>
<trkpt lat="56.038837" lon="26.525616">
<ele>94.786194</ele>
<time>2010-08-29T10:49:39Z</time>
<desc>lat.=56.038837, lon.=26.525616, Alt.=94.786194m. Speed=26.676001m/h.</desc>
<speed>7.410000</speed>
</trkpt>
<trkpt lat="56.038887" lon="26.525684">
<ele>94.741272</ele>
<time>2010-08-29T10:49:40Z</time>
<desc>lat.=56.038887, lon.=26.525684, Alt.=94.741272m. Speed=25.308001m/h.</desc>
<speed>7.030000</speed>
</trkpt>
<trkpt lat="56.038937" lon="26.525749">
<ele>94.393616</ele>
<time>2010-08-29T10:49:41Z</time>
<desc>lat.=56.038937, lon.=26.525749, Alt.=94.393616m. Speed=25.056000m/h.</desc>
<speed>6.960000</speed>
</trkpt>
<trkpt lat="56.038986" lon="26.525816">
<ele>94.307678</ele>
<time>2010-08-29T10:49:42Z</time>
<desc>lat.=56.038986, lon.=26.525816, Alt.=94.307678m. Speed=25.344000m/h.</desc>
<speed>7.040000</speed>
</trkpt>
<trkpt lat="56.039036" lon="26.525881">
<ele>94.413147</ele>
<time>2010-08-29T10:49:43Z</time>
<desc>lat.=56.039036, lon.=26.525881, Alt.=94.413147m. Speed=25.164000m/h.</desc>
<speed>6.990000</speed>
</trkpt>
<trkpt lat="56.039089" lon="26.525946">
<ele>93.858459</ele>
<time>2010-08-29T10:49:44Z</time>
<desc>lat.=56.039089, lon.=26.525946, Alt.=93.858459m. Speed=23.796000m/h.</desc>
<speed>6.610000</speed>
</trkpt>
<trkpt lat="56.039154" lon="26.525980">
<ele>92.044006</ele>
<time>2010-08-29T10:49:45Z</time>
<desc>lat.=56.039154, lon.=26.525980, Alt.=92.044006m. Speed=26.747999m/h.</desc>
<speed>7.430000</speed>
</trkpt>
<trkpt lat="56.039200" lon="26.526045">
<ele>91.688538</ele>
<time>2010-08-29T10:49:46Z</time>
<desc>lat.=56.039200, lon.=26.526045, Alt.=91.688538m. Speed=24.372000m/h.</desc>
<speed>6.770000</speed>
</trkpt>
<trkpt lat="56.039246" lon="26.526112">
<ele>91.336975</ele>
<time>2010-08-29T10:49:47Z</time>
<desc>lat.=56.039246, lon.=26.526112, Alt.=91.336975m. Speed=23.184000m/h.</desc>
<speed>6.440000</speed>
</trkpt>
<trkpt lat="56.039299" lon="26.526176">
<ele>90.989319</ele>
<time>2010-08-29T10:49:48Z</time>
<desc>lat.=56.039299, lon.=26.526176, Alt.=90.989319m. Speed=22.392000m/h.</desc>
<speed>6.220000</speed>
</trkpt>
<trkpt lat="56.039345" lon="26.526228">
<ele>90.608459</ele>
<time>2010-08-29T10:49:49Z</time>
<desc>lat.=56.039345, lon.=26.526228, Alt.=90.608459m. Speed=21.924000m/h.</desc>
<speed>6.090000</speed>
</trkpt>
<trkpt lat="56.039398" lon="26.526287">
<ele>90.928772</ele>
<time>2010-08-29T10:49:50Z</time>
<desc>lat.=56.039398, lon.=26.526287, Alt.=90.928772m. Speed=22.968000m/h.</desc>
<speed>6.380000</speed>
</trkpt>
<trkpt lat="56.039448" lon="26.526346">
<ele>90.813538</ele>
<time>2010-08-29T10:49:51Z</time>
<desc>lat.=56.039448, lon.=26.526346, Alt.=90.813538m. Speed=22.212000m/h.</desc>
<speed>6.170000</speed>
</trkpt>
<trkpt lat="56.039494" lon="26.526386">
<ele>90.489319</ele>
<time>2010-08-29T10:49:52Z</time>
<desc>lat.=56.039494, lon.=26.526386, Alt.=90.489319m. Speed=21.275999m/h.</desc>
<speed>5.910000</speed>
</trkpt>
<trkpt lat="56.039547" lon="26.526423">
<ele>90.057678</ele>
<time>2010-08-29T10:49:53Z</time>
<desc>lat.=56.039547, lon.=26.526423, Alt.=90.057678m. Speed=21.312000m/h.</desc>
<speed>5.920000</speed>
</trkpt>
<trkpt lat="56.039597" lon="26.526474">
<ele>90.198303</ele>
<time>2010-08-29T10:49:54Z</time>
<desc>lat.=56.039597, lon.=26.526474, Alt.=90.198303m. Speed=20.591999m/h.</desc>
<speed>5.720000</speed>
</trkpt>
<trkpt lat="56.039642" lon="26.526529">
<ele>90.331116</ele>
<time>2010-08-29T10:49:55Z</time>
<desc>lat.=56.039642, lon.=26.526529, Alt.=90.331116m. Speed=20.664000m/h.</desc>
<speed>5.740000</speed>
</trkpt>
<trkpt lat="56.039680" lon="26.526583">
<ele>90.461975</ele>
<time>2010-08-29T10:49:56Z</time>
<desc>lat.=56.039680, lon.=26.526583, Alt.=90.461975m. Speed=21.240000m/h.</desc>
<speed>5.900000</speed>
</trkpt>
<trkpt lat="56.039722" lon="26.526634">
<ele>90.743225</ele>
<time>2010-08-29T10:49:57Z</time>
<desc>lat.=56.039722, lon.=26.526634, Alt.=90.743225m. Speed=21.059999m/h.</desc>
<speed>5.850000</speed>
</trkpt>
<trkpt lat="56.039772" lon="26.526678">
<ele>90.903381</ele>
<time>2010-08-29T10:49:58Z</time>
<desc>lat.=56.039772, lon.=26.526678, Alt.=90.903381m. Speed=21.240000m/h.</desc>
<speed>5.900000</speed>
</trkpt>
<trkpt lat="56.039818" lon="26.526730">
<ele>91.645569</ele>
<time>2010-08-29T10:49:59Z</time>
<desc>lat.=56.039818, lon.=26.526730, Alt.=91.645569m. Speed=21.600000m/h.</desc>
<speed>6.000000</speed>
</trkpt>
<trkpt lat="56.039867" lon="26.526768">
<ele>91.401428</ele>
<time>2010-08-29T10:50:00Z</time>
<desc>lat.=56.039867, lon.=26.526768, Alt.=91.401428m. Speed=22.212000m/h.</desc>
<speed>6.170000</speed>
</trkpt>
<trkpt lat="56.039925" lon="26.526804">
<ele>91.389709</ele>
<time>2010-08-29T10:50:01Z</time>
<desc>lat.=56.039925, lon.=26.526804, Alt.=91.389709m. Speed=23.327999m/h.</desc>
<speed>6.480000</speed>
</trkpt>
<trkpt lat="56.039989" lon="26.526827">
<ele>90.354553</ele>
<time>2010-08-29T10:50:02Z</time>
<desc>lat.=56.039989, lon.=26.526827, Alt.=90.354553m. Speed=23.688000m/h.</desc>
<speed>6.580000</speed>
</trkpt>
<trkpt lat="56.040047" lon="26.526867">
<ele>91.333069</ele>
<time>2010-08-29T10:50:03Z</time>
<desc>lat.=56.040047, lon.=26.526867, Alt.=91.333069m. Speed=24.732000m/h.</desc>
<speed>6.870000</speed>
</trkpt>
<trkpt lat="56.040108" lon="26.526892">
<ele>91.411194</ele>
<time>2010-08-29T10:50:04Z</time>
<desc>lat.=56.040108, lon.=26.526892, Alt.=91.411194m. Speed=23.580000m/h.</desc>
<speed>6.550000</speed>
</trkpt>
<trkpt lat="56.040161" lon="26.526922">
<ele>91.557678</ele>
<time>2010-08-29T10:50:05Z</time>
<desc>lat.=56.040161, lon.=26.526922, Alt.=91.557678m. Speed=22.427999m/h.</desc>
<speed>6.230000</speed>
</trkpt>
<trkpt lat="56.040215" lon="26.526941">
<ele>91.682678</ele>
<time>2010-08-29T10:50:06Z</time>
<desc>lat.=56.040215, lon.=26.526941, Alt.=91.682678m. Speed=21.348000m/h.</desc>
<speed>5.930000</speed>
</trkpt>
<trkpt lat="56.040264" lon="26.526951">
<ele>91.813538</ele>
<time>2010-08-29T10:50:07Z</time>
<desc>lat.=56.040264, lon.=26.526951, Alt.=91.813538m. Speed=19.908001m/h.</desc>
<speed>5.530000</speed>
</trkpt>
<trkpt lat="56.040310" lon="26.526972">
<ele>92.299866</ele>
<time>2010-08-29T10:50:08Z</time>
<desc>lat.=56.040310, lon.=26.526972, Alt.=92.299866m. Speed=18.900000m/h.</desc>
<speed>5.250000</speed>
</trkpt>
<trkpt lat="56.040352" lon="26.526987">
<ele>93.040100</ele>
<time>2010-08-29T10:50:09Z</time>
<desc>lat.=56.040352, lon.=26.526987, Alt.=93.040100m. Speed=17.496000m/h.</desc>
<speed>4.860000</speed>
</trkpt>
<trkpt lat="56.040390" lon="26.527004">
<ele>93.473694</ele>
<time>2010-08-29T10:50:10Z</time>
<desc>lat.=56.040390, lon.=26.527004, Alt.=93.473694m. Speed=15.624000m/h.</desc>
<speed>4.340000</speed>
</trkpt>
<trkpt lat="56.040428" lon="26.527037">
<ele>94.536194</ele>
<time>2010-08-29T10:50:11Z</time>
<desc>lat.=56.040428, lon.=26.527037, Alt.=94.536194m. Speed=14.760000m/h.</desc>
<speed>4.100000</speed>
</trkpt>
<trkpt lat="56.040462" lon="26.527058">
<ele>94.899475</ele>
<time>2010-08-29T10:50:12Z</time>
<desc>lat.=56.040462, lon.=26.527058, Alt.=94.899475m. Speed=15.480000m/h.</desc>
<speed>4.300000</speed>
</trkpt>
<trkpt lat="56.040493" lon="26.527077">
<ele>95.360413</ele>
<time>2010-08-29T10:50:13Z</time>
<desc>lat.=56.040493, lon.=26.527077, Alt.=95.360413m. Speed=12.924000m/h.</desc>
<speed>3.590000</speed>
</trkpt>
<trkpt lat="56.040524" lon="26.527098">
<ele>95.854553</ele>
<time>2010-08-29T10:50:14Z</time>
<desc>lat.=56.040524, lon.=26.527098, Alt.=95.854553m. Speed=14.832000m/h.</desc>
<speed>4.120000</speed>
</trkpt>
<trkpt lat="56.040558" lon="26.527117">
<ele>96.301819</ele>
<time>2010-08-29T10:50:15Z</time>
<desc>lat.=56.040558, lon.=26.527117, Alt.=96.301819m. Speed=13.284000m/h.</desc>
<speed>3.690000</speed>
</trkpt>
<trkpt lat="56.040581" lon="26.527124">
<ele>96.887756</ele>
<time>2010-08-29T10:50:16Z</time>
<desc>lat.=56.040581, lon.=26.527124, Alt.=96.887756m. Speed=12.852000m/h.</desc>
<speed>3.570000</speed>
</trkpt>
<trkpt lat="56.040619" lon="26.527147">
<ele>98.036194</ele>
<time>2010-08-29T10:50:17Z</time>
<desc>lat.=56.040619, lon.=26.527147, Alt.=98.036194m. Speed=14.652000m/h.</desc>
<speed>4.070000</speed>
</trkpt>
<trkpt lat="56.040661" lon="26.527164">
<ele>98.649475</ele>
<time>2010-08-29T10:50:18Z</time>
<desc>lat.=56.040661, lon.=26.527164, Alt.=98.649475m. Speed=14.652000m/h.</desc>
<speed>4.070000</speed>
</trkpt>
<trkpt lat="56.040703" lon="26.527180">
<ele>99.260803</ele>
<time>2010-08-29T10:50:19Z</time>
<desc>lat.=56.040703, lon.=26.527180, Alt.=99.260803m. Speed=15.660000m/h.</desc>
<speed>4.350000</speed>
</trkpt>
<trkpt lat="56.040741" lon="26.527195">
<ele>99.665100</ele>
<time>2010-08-29T10:50:20Z</time>
<desc>lat.=56.040741, lon.=26.527195, Alt.=99.665100m. Speed=16.271999m/h.</desc>
<speed>4.520000</speed>
</trkpt>
<trkpt lat="56.040779" lon="26.527210">
<ele>99.895569</ele>
<time>2010-08-29T10:50:21Z</time>
<desc>lat.=56.040779, lon.=26.527210, Alt.=99.895569m. Speed=15.912000m/h.</desc>
<speed>4.420000</speed>
</trkpt>
<trkpt lat="56.040825" lon="26.527231">
<ele>100.684631</ele>
<time>2010-08-29T10:50:22Z</time>
<desc>lat.=56.040825, lon.=26.527231, Alt.=100.684631m. Speed=17.532000m/h.</desc>
<speed>4.870000</speed>
</trkpt>
<trkpt lat="56.040871" lon="26.527246">
<ele>100.749084</ele>
<time>2010-08-29T10:50:23Z</time>
<desc>lat.=56.040871, lon.=26.527246, Alt.=100.749084m. Speed=15.876000m/h.</desc>
<speed>4.410000</speed>
</trkpt>
<trkpt lat="56.040909" lon="26.527258">
<ele>100.579163</ele>
<time>2010-08-29T10:50:24Z</time>
<desc>lat.=56.040909, lon.=26.527258, Alt.=100.579163m. Speed=16.667999m/h.</desc>
<speed>4.630000</speed>
</trkpt>
<trkpt lat="56.040955" lon="26.527277">
<ele>101.047913</ele>
<time>2010-08-29T10:50:25Z</time>
<desc>lat.=56.040955, lon.=26.527277, Alt.=101.047913m. Speed=20.412001m/h.</desc>
<speed>5.670000</speed>
</trkpt>
<trkpt lat="56.041008" lon="26.527298">
<ele>101.688538</ele>
<time>2010-08-29T10:50:26Z</time>
<desc>lat.=56.041008, lon.=26.527298, Alt.=101.688538m. Speed=21.348000m/h.</desc>
<speed>5.930000</speed>
</trkpt>
<trkpt lat="56.041065" lon="26.527319">
<ele>101.854553</ele>
<time>2010-08-29T10:50:27Z</time>
<desc>lat.=56.041065, lon.=26.527319, Alt.=101.854553m. Speed=22.823999m/h.</desc>
<speed>6.340000</speed>
</trkpt>
<trkpt lat="56.041119" lon="26.527338">
<ele>101.813538</ele>
<time>2010-08-29T10:50:28Z</time>
<desc>lat.=56.041119, lon.=26.527338, Alt.=101.813538m. Speed=21.348000m/h.</desc>
<speed>5.930000</speed>
</trkpt>
<trkpt lat="56.041168" lon="26.527349">
<ele>101.438538</ele>
<time>2010-08-29T10:50:29Z</time>
<desc>lat.=56.041168, lon.=26.527349, Alt.=101.438538m. Speed=19.836000m/h.</desc>
<speed>5.510000</speed>
</trkpt>
<trkpt lat="56.041214" lon="26.527367">
<ele>102.170959</ele>
<time>2010-08-29T10:50:30Z</time>
<desc>lat.=56.041214, lon.=26.527367, Alt.=102.170959m. Speed=20.700001m/h.</desc>
<speed>5.750000</speed>
</trkpt>
<trkpt lat="56.041264" lon="26.527388">
<ele>103.047913</ele>
<time>2010-08-29T10:50:31Z</time>
<desc>lat.=56.041264, lon.=26.527388, Alt.=103.047913m. Speed=21.851999m/h.</desc>
<speed>6.070000</speed>
</trkpt>
<trkpt lat="56.041317" lon="26.527409">
<ele>102.895569</ele>
<time>2010-08-29T10:50:32Z</time>
<desc>lat.=56.041317, lon.=26.527409, Alt.=102.895569m. Speed=21.780001m/h.</desc>
<speed>6.050000</speed>
</trkpt>
<trkpt lat="56.041370" lon="26.527433">
<ele>103.350647</ele>
<time>2010-08-29T10:50:33Z</time>
<desc>lat.=56.041370, lon.=26.527433, Alt.=103.350647m. Speed=21.888000m/h.</desc>
<speed>6.080000</speed>
</trkpt>
<trkpt lat="56.041428" lon="26.527460">
<ele>103.627991</ele>
<time>2010-08-29T10:50:34Z</time>
<desc>lat.=56.041428, lon.=26.527460, Alt.=103.627991m. Speed=23.436001m/h.</desc>
<speed>6.510000</speed>
</trkpt>
<trkpt lat="56.041485" lon="26.527485">
<ele>102.512756</ele>
<time>2010-08-29T10:50:35Z</time>
<desc>lat.=56.041485, lon.=26.527485, Alt.=102.512756m. Speed=22.680000m/h.</desc>
<speed>6.300000</speed>
</trkpt>
<trkpt lat="56.041542" lon="26.527521">
<ele>102.157288</ele>
<time>2010-08-29T10:50:36Z</time>
<desc>lat.=56.041542, lon.=26.527521, Alt.=102.157288m. Speed=23.256001m/h.</desc>
<speed>6.460000</speed>
</trkpt>
<trkpt lat="56.041603" lon="26.527554">
<ele>101.432678</ele>
<time>2010-08-29T10:50:37Z</time>
<desc>lat.=56.041603, lon.=26.527554, Alt.=101.432678m. Speed=22.392000m/h.</desc>
<speed>6.220000</speed>
</trkpt>
<trkpt lat="56.041656" lon="26.527582">
<ele>101.688538</ele>
<time>2010-08-29T10:50:38Z</time>
<desc>lat.=56.041656, lon.=26.527582, Alt.=101.688538m. Speed=21.275999m/h.</desc>
<speed>5.910000</speed>
</trkpt>
<trkpt lat="56.041706" lon="26.527611">
<ele>102.190491</ele>
<time>2010-08-29T10:50:39Z</time>
<desc>lat.=56.041706, lon.=26.527611, Alt.=102.190491m. Speed=19.872000m/h.</desc>
<speed>5.520000</speed>
</trkpt>
<trkpt lat="56.041752" lon="26.527636">
<ele>102.135803</ele>
<time>2010-08-29T10:50:40Z</time>
<desc>lat.=56.041752, lon.=26.527636, Alt.=102.135803m. Speed=18.719999m/h.</desc>
<speed>5.200000</speed>
</trkpt>
<trkpt lat="56.041794" lon="26.527660">
<ele>101.639709</ele>
<time>2010-08-29T10:50:41Z</time>
<desc>lat.=56.041794, lon.=26.527660, Alt.=101.639709m. Speed=18.288000m/h.</desc>
<speed>5.080000</speed>
</trkpt>
<trkpt lat="56.041832" lon="26.527685">
<ele>100.411194</ele>
<time>2010-08-29T10:50:42Z</time>
<desc>lat.=56.041832, lon.=26.527685, Alt.=100.411194m. Speed=13.788000m/h.</desc>
<speed>3.830000</speed>
</trkpt>
<trkpt lat="56.041870" lon="26.527710">
<ele>99.917053</ele>
<time>2010-08-29T10:50:43Z</time>
<desc>lat.=56.041870, lon.=26.527710, Alt.=99.917053m. Speed=17.820000m/h.</desc>
<speed>4.950000</speed>
</trkpt>
<trkpt lat="56.041916" lon="26.527739">
<ele>99.520569</ele>
<time>2010-08-29T10:50:44Z</time>
<desc>lat.=56.041916, lon.=26.527739, Alt.=99.520569m. Speed=17.459999m/h.</desc>
<speed>4.850000</speed>
</trkpt>
<trkpt lat="56.041958" lon="26.527767">
<ele>99.520569</ele>
<time>2010-08-29T10:50:45Z</time>
<desc>lat.=56.041958, lon.=26.527767, Alt.=99.520569m. Speed=14.184000m/h.</desc>
<speed>3.940000</speed>
</trkpt>
<trkpt lat="56.041992" lon="26.527792">
<ele>99.198303</ele>
<time>2010-08-29T10:50:46Z</time>
<desc>lat.=56.041992, lon.=26.527792, Alt.=99.198303m. Speed=10.764000m/h.</desc>
<speed>2.990000</speed>
</trkpt>
<trkpt lat="56.042027" lon="26.527822">
<ele>99.917053</ele>
<time>2010-08-29T10:50:47Z</time>
<desc>lat.=56.042027, lon.=26.527822, Alt.=99.917053m. Speed=15.588000m/h.</desc>
<speed>4.330000</speed>
</trkpt>
<trkpt lat="56.042061" lon="26.527840">
<ele>99.782288</ele>
<time>2010-08-29T10:50:48Z</time>
<desc>lat.=56.042061, lon.=26.527840, Alt.=99.782288m. Speed=14.400000m/h.</desc>
<speed>4.000000</speed>
</trkpt>
<trkpt lat="56.042095" lon="26.527863">
<ele>99.622131</ele>
<time>2010-08-29T10:50:49Z</time>
<desc>lat.=56.042095, lon.=26.527863, Alt.=99.622131m. Speed=12.816000m/h.</desc>
<speed>3.560000</speed>
</trkpt>
<trkpt lat="56.042126" lon="26.527893">
<ele>98.686584</ele>
<time>2010-08-29T10:50:50Z</time>
<desc>lat.=56.042126, lon.=26.527893, Alt.=98.686584m. Speed=15.192000m/h.</desc>
<speed>4.220000</speed>
</trkpt>
<trkpt lat="56.042160" lon="26.527925">
<ele>98.501038</ele>
<time>2010-08-29T10:50:51Z</time>
<desc>lat.=56.042160, lon.=26.527925, Alt.=98.501038m. Speed=14.940000m/h.</desc>
<speed>4.150000</speed>
</trkpt>
<trkpt lat="56.042198" lon="26.527962">
<ele>96.694397</ele>
<time>2010-08-29T10:50:52Z</time>
<desc>lat.=56.042198, lon.=26.527962, Alt.=96.694397m. Speed=15.516000m/h.</desc>
<speed>4.310000</speed>
</trkpt>
<trkpt lat="56.042229" lon="26.527996">
<ele>96.288147</ele>
<time>2010-08-29T10:50:53Z</time>
<desc>lat.=56.042229, lon.=26.527996, Alt.=96.288147m. Speed=14.616000m/h.</desc>
<speed>4.060000</speed>
</trkpt>
<trkpt lat="56.042259" lon="26.528023">
<ele>95.610413</ele>
<time>2010-08-29T10:50:54Z</time>
<desc>lat.=56.042259, lon.=26.528023, Alt.=95.610413m. Speed=12.672000m/h.</desc>
<speed>3.520000</speed>
</trkpt>
<trkpt lat="56.042297" lon="26.528053">
<ele>94.006897</ele>
<time>2010-08-29T10:50:55Z</time>
<desc>lat.=56.042297, lon.=26.528053, Alt.=94.006897m. Speed=14.076000m/h.</desc>
<speed>3.910000</speed>
</trkpt>
<trkpt lat="56.042332" lon="26.528086">
<ele>93.672913</ele>
<time>2010-08-29T10:50:56Z</time>
<desc>lat.=56.042332, lon.=26.528086, Alt.=93.672913m. Speed=12.744000m/h.</desc>
<speed>3.540000</speed>
</trkpt>
<trkpt lat="56.042366" lon="26.528130">
<ele>93.893616</ele>
<time>2010-08-29T10:50:57Z</time>
<desc>lat.=56.042366, lon.=26.528130, Alt.=93.893616m. Speed=15.912000m/h.</desc>
<speed>4.420000</speed>
</trkpt>
<trkpt lat="56.042400" lon="26.528172">
<ele>93.688538</ele>
<time>2010-08-29T10:50:58Z</time>
<desc>lat.=56.042400, lon.=26.528172, Alt.=93.688538m. Speed=14.832000m/h.</desc>
<speed>4.120000</speed>
</trkpt>
<trkpt lat="56.042439" lon="26.528206">
<ele>93.774475</ele>
<time>2010-08-29T10:50:59Z</time>
<desc>lat.=56.042439, lon.=26.528206, Alt.=93.774475m. Speed=15.300000m/h.</desc>
<speed>4.250000</speed>
</trkpt>
<trkpt lat="56.042477" lon="26.528246">
<ele>93.692444</ele>
<time>2010-08-29T10:51:00Z</time>
<desc>lat.=56.042477, lon.=26.528246, Alt.=93.692444m. Speed=16.848000m/h.</desc>
<speed>4.680000</speed>
</trkpt>
<trkpt lat="56.042519" lon="26.528292">
<ele>92.819397</ele>
<time>2010-08-29T10:51:01Z</time>
<desc>lat.=56.042519, lon.=26.528292, Alt.=92.819397m. Speed=18.900000m/h.</desc>
<speed>5.250000</speed>
</trkpt>
<trkpt lat="56.042564" lon="26.528332">
<ele>92.745178</ele>
<time>2010-08-29T10:51:02Z</time>
<desc>lat.=56.042564, lon.=26.528332, Alt.=92.745178m. Speed=19.368000m/h.</desc>
<speed>5.380000</speed>
</trkpt>
<trkpt lat="56.042614" lon="26.528376">
<ele>92.077209</ele>
<time>2010-08-29T10:51:03Z</time>
<desc>lat.=56.042614, lon.=26.528376, Alt.=92.077209m. Speed=18.360001m/h.</desc>
<speed>5.100000</speed>
</trkpt>
<trkpt lat="56.042660" lon="26.528427">
<ele>92.288147</ele>
<time>2010-08-29T10:51:04Z</time>
<desc>lat.=56.042660, lon.=26.528427, Alt.=92.288147m. Speed=20.664000m/h.</desc>
<speed>5.740000</speed>
</trkpt>
<trkpt lat="56.042709" lon="26.528477">
<ele>91.975647</ele>
<time>2010-08-29T10:51:05Z</time>
<desc>lat.=56.042709, lon.=26.528477, Alt.=91.975647m. Speed=20.448000m/h.</desc>
<speed>5.680000</speed>
</trkpt>
<trkpt lat="56.042759" lon="26.528524">
<ele>91.397522</ele>
<time>2010-08-29T10:51:06Z</time>
<desc>lat.=56.042759, lon.=26.528524, Alt.=91.397522m. Speed=21.024000m/h.</desc>
<speed>5.840000</speed>
</trkpt>
<trkpt lat="56.042812" lon="26.528578">
<ele>92.147522</ele>
<time>2010-08-29T10:51:07Z</time>
<desc>lat.=56.042812, lon.=26.528578, Alt.=92.147522m. Speed=19.872000m/h.</desc>
<speed>5.520000</speed>
</trkpt>
<trkpt lat="56.042858" lon="26.528631">
<ele>92.454163</ele>
<time>2010-08-29T10:51:08Z</time>
<desc>lat.=56.042858, lon.=26.528631, Alt.=92.454163m. Speed=19.224001m/h.</desc>
<speed>5.340000</speed>
</trkpt>
<trkpt lat="56.042915" lon="26.528681">
<ele>93.788147</ele>
<time>2010-08-29T10:51:09Z</time>
<desc>lat.=56.042915, lon.=26.528681, Alt.=93.788147m. Speed=19.476000m/h.</desc>
<speed>5.410000</speed>
</trkpt>
<trkpt lat="56.042973" lon="26.528728">
<ele>95.272522</ele>
<time>2010-08-29T10:51:10Z</time>
<desc>lat.=56.042973, lon.=26.528728, Alt.=95.272522m. Speed=18.323999m/h.</desc>
<speed>5.090000</speed>
</trkpt>
<trkpt lat="56.043022" lon="26.528769">
<ele>96.063538</ele>
<time>2010-08-29T10:51:11Z</time>
<desc>lat.=56.043022, lon.=26.528769, Alt.=96.063538m. Speed=16.812000m/h.</desc>
<speed>4.670000</speed>
</trkpt>
<trkpt lat="56.043060" lon="26.528803">
<ele>97.028381</ele>
<time>2010-08-29T10:51:12Z</time>
<desc>lat.=56.043060, lon.=26.528803, Alt.=97.028381m. Speed=16.200001m/h.</desc>
<speed>4.500000</speed>
</trkpt>
<trkpt lat="56.043114" lon="26.528849">
<ele>99.940491</ele>
<time>2010-08-29T10:51:13Z</time>
<desc>lat.=56.043114, lon.=26.528849, Alt.=99.940491m. Speed=19.044001m/h.</desc>
<speed>5.290000</speed>
</trkpt>
<trkpt lat="56.043159" lon="26.528891">
<ele>100.385803</ele>
<time>2010-08-29T10:51:14Z</time>
<desc>lat.=56.043159, lon.=26.528891, Alt.=100.385803m. Speed=18.756001m/h.</desc>
<speed>5.210000</speed>
</trkpt>
<trkpt lat="56.043201" lon="26.528934">
<ele>101.088928</ele>
<time>2010-08-29T10:51:15Z</time>
<desc>lat.=56.043201, lon.=26.528934, Alt.=101.088928m. Speed=17.496000m/h.</desc>
<speed>4.860000</speed>
</trkpt>
<trkpt lat="56.043247" lon="26.528980">
<ele>101.460022</ele>
<time>2010-08-29T10:51:16Z</time>
<desc>lat.=56.043247, lon.=26.528980, Alt.=101.460022m. Speed=20.700001m/h.</desc>
<speed>5.750000</speed>
</trkpt>
<trkpt lat="56.043297" lon="26.529020">
<ele>102.262756</ele>
<time>2010-08-29T10:51:17Z</time>
<desc>lat.=56.043297, lon.=26.529020, Alt.=102.262756m. Speed=19.224001m/h.</desc>
<speed>5.340000</speed>
</trkpt>
<trkpt lat="56.043346" lon="26.529060">
<ele>102.717834</ele>
<time>2010-08-29T10:51:18Z</time>
<desc>lat.=56.043346, lon.=26.529060, Alt.=102.717834m. Speed=20.232000m/h.</desc>
<speed>5.620000</speed>
</trkpt>
<trkpt lat="56.043388" lon="26.529100">
<ele>101.561584</ele>
<time>2010-08-29T10:51:19Z</time>
<desc>lat.=56.043388, lon.=26.529100, Alt.=101.561584m. Speed=20.160000m/h.</desc>
<speed>5.600000</speed>
</trkpt>
<trkpt lat="56.043434" lon="26.529142">
<ele>100.803772</ele>
<time>2010-08-29T10:51:20Z</time>
<desc>lat.=56.043434, lon.=26.529142, Alt.=100.803772m. Speed=21.204000m/h.</desc>
<speed>5.890000</speed>
</trkpt>
<trkpt lat="56.043484" lon="26.529181">
<ele>100.493225</ele>
<time>2010-08-29T10:51:21Z</time>
<desc>lat.=56.043484, lon.=26.529181, Alt.=100.493225m. Speed=20.844000m/h.</desc>
<speed>5.790000</speed>
</trkpt>
<trkpt lat="56.043537" lon="26.529232">
<ele>100.284241</ele>
<time>2010-08-29T10:51:22Z</time>
<desc>lat.=56.043537, lon.=26.529232, Alt.=100.284241m. Speed=21.708000m/h.</desc>
<speed>6.030000</speed>
</trkpt>
<trkpt lat="56.043583" lon="26.529280">
<ele>100.137756</ele>
<time>2010-08-29T10:51:23Z</time>
<desc>lat.=56.043583, lon.=26.529280, Alt.=100.137756m. Speed=21.996000m/h.</desc>
<speed>6.110000</speed>
</trkpt>
<trkpt lat="56.043633" lon="26.529325">
<ele>99.618225</ele>
<time>2010-08-29T10:51:24Z</time>
<desc>lat.=56.043633, lon.=26.529325, Alt.=99.618225m. Speed=21.959999m/h.</desc>
<speed>6.100000</speed>
</trkpt>
<trkpt lat="56.043682" lon="26.529377">
<ele>99.198303</ele>
<time>2010-08-29T10:51:25Z</time>
<desc>lat.=56.043682, lon.=26.529377, Alt.=99.198303m. Speed=21.888000m/h.</desc>
<speed>6.080000</speed>
</trkpt>
<trkpt lat="56.043728" lon="26.529430">
<ele>96.450256</ele>
<time>2010-08-29T10:51:26Z</time>
<desc>lat.=56.043728, lon.=26.529430, Alt.=96.450256m. Speed=22.535999m/h.</desc>
<speed>6.260000</speed>
</trkpt>
<trkpt lat="56.043777" lon="26.529484">
<ele>95.940491</ele>
<time>2010-08-29T10:51:27Z</time>
<desc>lat.=56.043777, lon.=26.529484, Alt.=95.940491m. Speed=23.292000m/h.</desc>
<speed>6.470000</speed>
</trkpt>
<trkpt lat="56.043831" lon="26.529537">
<ele>93.956116</ele>
<time>2010-08-29T10:51:28Z</time>
<desc>lat.=56.043831, lon.=26.529537, Alt.=93.956116m. Speed=23.903999m/h.</desc>
<speed>6.640000</speed>
</trkpt>
<trkpt lat="56.043892" lon="26.529589">
<ele>95.350647</ele>
<time>2010-08-29T10:51:29Z</time>
<desc>lat.=56.043892, lon.=26.529589, Alt.=95.350647m. Speed=25.344000m/h.</desc>
<speed>7.040000</speed>
</trkpt>
<trkpt lat="56.043945" lon="26.529644">
<ele>95.042053</ele>
<time>2010-08-29T10:51:30Z</time>
<desc>lat.=56.043945, lon.=26.529644, Alt.=95.042053m. Speed=22.968000m/h.</desc>
<speed>6.380000</speed>
</trkpt>
<trkpt lat="56.043999" lon="26.529701">
<ele>95.198303</ele>
<time>2010-08-29T10:51:31Z</time>
<desc>lat.=56.043999, lon.=26.529701, Alt.=95.198303m. Speed=24.912001m/h.</desc>
<speed>6.920000</speed>
</trkpt>
<trkpt lat="56.044056" lon="26.529755">
<ele>94.559631</ele>
<time>2010-08-29T10:51:32Z</time>
<desc>lat.=56.044056, lon.=26.529755, Alt.=94.559631m. Speed=24.840000m/h.</desc>
<speed>6.900000</speed>
</trkpt>
<trkpt lat="56.044109" lon="26.529814">
<ele>94.567444</ele>
<time>2010-08-29T10:51:33Z</time>
<desc>lat.=56.044109, lon.=26.529814, Alt.=94.567444m. Speed=25.920000m/h.</desc>
<speed>7.200000</speed>
</trkpt>
<trkpt lat="56.044170" lon="26.529875">
<ele>94.442444</ele>
<time>2010-08-29T10:51:34Z</time>
<desc>lat.=56.044170, lon.=26.529875, Alt.=94.442444m. Speed=28.152000m/h.</desc>
<speed>7.820000</speed>
</trkpt>
<trkpt lat="56.044239" lon="26.529938">
<ele>95.157288</ele>
<time>2010-08-29T10:51:35Z</time>
<desc>lat.=56.044239, lon.=26.529938, Alt.=95.157288m. Speed=28.584000m/h.</desc>
<speed>7.940000</speed>
</trkpt>
<trkpt lat="56.044304" lon="26.530001">
<ele>94.930725</ele>
<time>2010-08-29T10:51:36Z</time>
<desc>lat.=56.044304, lon.=26.530001, Alt.=94.930725m. Speed=29.016001m/h.</desc>
<speed>8.060000</speed>
</trkpt>
<trkpt lat="56.044369" lon="26.530064">
<ele>94.678772</ele>
<time>2010-08-29T10:51:37Z</time>
<desc>lat.=56.044369, lon.=26.530064, Alt.=94.678772m. Speed=28.980000m/h.</desc>
<speed>8.050000</speed>
</trkpt>
<trkpt lat="56.044430" lon="26.530125">
<ele>94.551819</ele>
<time>2010-08-29T10:51:38Z</time>
<desc>lat.=56.044430, lon.=26.530125, Alt.=94.551819m. Speed=28.511999m/h.</desc>
<speed>7.920000</speed>
</trkpt>
<trkpt lat="56.044495" lon="26.530184">
<ele>94.399475</ele>
<time>2010-08-29T10:51:39Z</time>
<desc>lat.=56.044495, lon.=26.530184, Alt.=94.399475m. Speed=28.080000m/h.</desc>
<speed>7.800000</speed>
</trkpt>
<trkpt lat="56.044559" lon="26.530243">
<ele>94.752991</ele>
<time>2010-08-29T10:51:40Z</time>
<desc>lat.=56.044559, lon.=26.530243, Alt.=94.752991m. Speed=27.035999m/h.</desc>
<speed>7.510000</speed>
</trkpt>
<trkpt lat="56.044621" lon="26.530300">
<ele>94.370178</ele>
<time>2010-08-29T10:51:41Z</time>
<desc>lat.=56.044621, lon.=26.530300, Alt.=94.370178m. Speed=26.136000m/h.</desc>
<speed>7.260000</speed>
</trkpt>
<trkpt lat="56.044678" lon="26.530354">
<ele>93.946350</ele>
<time>2010-08-29T10:51:42Z</time>
<desc>lat.=56.044678, lon.=26.530354, Alt.=93.946350m. Speed=24.732000m/h.</desc>
<speed>6.870000</speed>
</trkpt>
<trkpt lat="56.044727" lon="26.530405">
<ele>93.520569</ele>
<time>2010-08-29T10:51:43Z</time>
<desc>lat.=56.044727, lon.=26.530405, Alt.=93.520569m. Speed=23.688000m/h.</desc>
<speed>6.580000</speed>
</trkpt>
<trkpt lat="56.044781" lon="26.530457">
<ele>93.590881</ele>
<time>2010-08-29T10:51:44Z</time>
<desc>lat.=56.044781, lon.=26.530457, Alt.=93.590881m. Speed=22.535999m/h.</desc>
<speed>6.260000</speed>
</trkpt>
<trkpt lat="56.044838" lon="26.530502">
<ele>93.313538</ele>
<time>2010-08-29T10:51:45Z</time>
<desc>lat.=56.044838, lon.=26.530502, Alt.=93.313538m. Speed=21.528000m/h.</desc>
<speed>5.980000</speed>
</trkpt>
<trkpt lat="56.044884" lon="26.530548">
<ele>93.381897</ele>
<time>2010-08-29T10:51:46Z</time>
<desc>lat.=56.044884, lon.=26.530548, Alt.=93.381897m. Speed=20.483999m/h.</desc>
<speed>5.690000</speed>
</trkpt>
<trkpt lat="56.044930" lon="26.530588">
<ele>93.403381</ele>
<time>2010-08-29T10:51:47Z</time>
<desc>lat.=56.044930, lon.=26.530588, Alt.=93.403381m. Speed=19.440001m/h.</desc>
<speed>5.400000</speed>
</trkpt>
<trkpt lat="56.044971" lon="26.530626">
<ele>93.458069</ele>
<time>2010-08-29T10:51:48Z</time>
<desc>lat.=56.044971, lon.=26.530626, Alt.=93.458069m. Speed=17.856001m/h.</desc>
<speed>4.960000</speed>
</trkpt>
<trkpt lat="56.045006" lon="26.530664">
<ele>93.606506</ele>
<time>2010-08-29T10:51:49Z</time>
<desc>lat.=56.045006, lon.=26.530664, Alt.=93.606506m. Speed=16.091999m/h.</desc>
<speed>4.470000</speed>
</trkpt>
<trkpt lat="56.045040" lon="26.530699">
<ele>93.596741</ele>
<time>2010-08-29T10:51:50Z</time>
<desc>lat.=56.045040, lon.=26.530699, Alt.=93.596741m. Speed=14.292000m/h.</desc>
<speed>3.970000</speed>
</trkpt>
<trkpt lat="56.045071" lon="26.530731">
<ele>93.840881</ele>
<time>2010-08-29T10:51:51Z</time>
<desc>lat.=56.045071, lon.=26.530731, Alt.=93.840881m. Speed=12.456000m/h.</desc>
<speed>3.460000</speed>
</trkpt>
<trkpt lat="56.045097" lon="26.530756">
<ele>94.122131</ele>
<time>2010-08-29T10:51:52Z</time>
<desc>lat.=56.045097, lon.=26.530756, Alt.=94.122131m. Speed=11.880000m/h.</desc>
<speed>3.300000</speed>
</trkpt>
<trkpt lat="56.045120" lon="26.530775">
<ele>94.167053</ele>
<time>2010-08-29T10:51:53Z</time>
<desc>lat.=56.045120, lon.=26.530775, Alt.=94.167053m. Speed=10.908000m/h.</desc>
<speed>3.030000</speed>
</trkpt>
<trkpt lat="56.045147" lon="26.530796">
<ele>94.401428</ele>
<time>2010-08-29T10:51:54Z</time>
<desc>lat.=56.045147, lon.=26.530796, Alt.=94.401428m. Speed=11.304000m/h.</desc>
<speed>3.140000</speed>
</trkpt>
<trkpt lat="56.045170" lon="26.530819">
<ele>94.559631</ele>
<time>2010-08-29T10:51:55Z</time>
<desc>lat.=56.045170, lon.=26.530819, Alt.=94.559631m. Speed=11.016000m/h.</desc>
<speed>3.060000</speed>
</trkpt>
<trkpt lat="56.045197" lon="26.530844">
<ele>95.184631</ele>
<time>2010-08-29T10:51:56Z</time>
<desc>lat.=56.045197, lon.=26.530844, Alt.=95.184631m. Speed=11.664000m/h.</desc>
<speed>3.240000</speed>
</trkpt>
<trkpt lat="56.045219" lon="26.530870">
<ele>95.419006</ele>
<time>2010-08-29T10:51:57Z</time>
<desc>lat.=56.045219, lon.=26.530870, Alt.=95.419006m. Speed=12.060000m/h.</desc>
<speed>3.350000</speed>
</trkpt>
<trkpt lat="56.045246" lon="26.530895">
<ele>95.702209</ele>
<time>2010-08-29T10:51:58Z</time>
<desc>lat.=56.045246, lon.=26.530895, Alt.=95.702209m. Speed=11.520000m/h.</desc>
<speed>3.200000</speed>
</trkpt>
<trkpt lat="56.045273" lon="26.530918">
<ele>95.991272</ele>
<time>2010-08-29T10:51:59Z</time>
<desc>lat.=56.045273, lon.=26.530918, Alt.=95.991272m. Speed=12.060000m/h.</desc>
<speed>3.350000</speed>
</trkpt>
<trkpt lat="56.045300" lon="26.530941">
<ele>96.331116</ele>
<time>2010-08-29T10:52:00Z</time>
<desc>lat.=56.045300, lon.=26.530941, Alt.=96.331116m. Speed=11.592000m/h.</desc>
<speed>3.220000</speed>
</trkpt>
<trkpt lat="56.045326" lon="26.530962">
<ele>96.547913</ele>
<time>2010-08-29T10:52:01Z</time>
<desc>lat.=56.045326, lon.=26.530962, Alt.=96.547913m. Speed=11.556000m/h.</desc>
<speed>3.210000</speed>
</trkpt>
<trkpt lat="56.045353" lon="26.530987">
<ele>96.620178</ele>
<time>2010-08-29T10:52:02Z</time>
<desc>lat.=56.045353, lon.=26.530987, Alt.=96.620178m. Speed=12.312000m/h.</desc>
<speed>3.420000</speed>
</trkpt>
<trkpt lat="56.045376" lon="26.531017">
<ele>96.926819</ele>
<time>2010-08-29T10:52:03Z</time>
<desc>lat.=56.045376, lon.=26.531017, Alt.=96.926819m. Speed=12.024000m/h.</desc>
<speed>3.340000</speed>
</trkpt>
<trkpt lat="56.045403" lon="26.531046">
<ele>97.446350</ele>
<time>2010-08-29T10:52:04Z</time>
<desc>lat.=56.045403, lon.=26.531046, Alt.=97.446350m. Speed=12.888000m/h.</desc>
<speed>3.580000</speed>
</trkpt>
<trkpt lat="56.045433" lon="26.531069">
<ele>97.499084</ele>
<time>2010-08-29T10:52:05Z</time>
<desc>lat.=56.045433, lon.=26.531069, Alt.=97.499084m. Speed=12.384000m/h.</desc>
<speed>3.440000</speed>
</trkpt>
<trkpt lat="56.045460" lon="26.531094">
<ele>97.508850</ele>
<time>2010-08-29T10:52:06Z</time>
<desc>lat.=56.045460, lon.=26.531094, Alt.=97.508850m. Speed=13.248000m/h.</desc>
<speed>3.680000</speed>
</trkpt>
<trkpt lat="56.045490" lon="26.531118">
<ele>97.573303</ele>
<time>2010-08-29T10:52:07Z</time>
<desc>lat.=56.045490, lon.=26.531118, Alt.=97.573303m. Speed=13.464000m/h.</desc>
<speed>3.740000</speed>
</trkpt>
<trkpt lat="56.045517" lon="26.531149">
<ele>97.883850</ele>
<time>2010-08-29T10:52:08Z</time>
<desc>lat.=56.045517, lon.=26.531149, Alt.=97.883850m. Speed=13.392000m/h.</desc>
<speed>3.720000</speed>
</trkpt>
<trkpt lat="56.045547" lon="26.531181">
<ele>98.038147</ele>
<time>2010-08-29T10:52:09Z</time>
<desc>lat.=56.045547, lon.=26.531181, Alt.=98.038147m. Speed=13.644000m/h.</desc>
<speed>3.790000</speed>
</trkpt>
<trkpt lat="56.045574" lon="26.531214">
<ele>98.319397</ele>
<time>2010-08-29T10:52:10Z</time>
<desc>lat.=56.045574, lon.=26.531214, Alt.=98.319397m. Speed=13.968000m/h.</desc>
<speed>3.880000</speed>
</trkpt>
<trkpt lat="56.045605" lon="26.531246">
<ele>98.670959</ele>
<time>2010-08-29T10:52:11Z</time>
<desc>lat.=56.045605, lon.=26.531246, Alt.=98.670959m. Speed=13.860000m/h.</desc>
<speed>3.850000</speed>
</trkpt>
<trkpt lat="56.045635" lon="26.531281">
<ele>99.176819</ele>
<time>2010-08-29T10:52:12Z</time>
<desc>lat.=56.045635, lon.=26.531281, Alt.=99.176819m. Speed=13.320000m/h.</desc>
<speed>3.700000</speed>
</trkpt>
<trkpt lat="56.045662" lon="26.531311">
<ele>99.559631</ele>
<time>2010-08-29T10:52:13Z</time>
<desc>lat.=56.045662, lon.=26.531311, Alt.=99.559631m. Speed=12.924000m/h.</desc>
<speed>3.590000</speed>
</trkpt>
<trkpt lat="56.045692" lon="26.531345">
<ele>99.426819</ele>
<time>2010-08-29T10:52:14Z</time>
<desc>lat.=56.045692, lon.=26.531345, Alt.=99.426819m. Speed=12.240000m/h.</desc>
<speed>3.400000</speed>
</trkpt>
<trkpt lat="56.045719" lon="26.531378">
<ele>99.858459</ele>
<time>2010-08-29T10:52:15Z</time>
<desc>lat.=56.045719, lon.=26.531378, Alt.=99.858459m. Speed=12.456000m/h.</desc>
<speed>3.460000</speed>
</trkpt>
<trkpt lat="56.045746" lon="26.531410">
<ele>99.374084</ele>
<time>2010-08-29T10:52:16Z</time>
<desc>lat.=56.045746, lon.=26.531410, Alt.=99.374084m. Speed=11.628000m/h.</desc>
<speed>3.230000</speed>
</trkpt>
<trkpt lat="56.045769" lon="26.531435">
<ele>99.448303</ele>
<time>2010-08-29T10:52:17Z</time>
<desc>lat.=56.045769, lon.=26.531435, Alt.=99.448303m. Speed=11.664000m/h.</desc>
<speed>3.240000</speed>
</trkpt>
<trkpt lat="56.045795" lon="26.531466">
<ele>99.752991</ele>
<time>2010-08-29T10:52:18Z</time>
<desc>lat.=56.045795, lon.=26.531466, Alt.=99.752991m. Speed=11.808000m/h.</desc>
<speed>3.280000</speed>
</trkpt>
<trkpt lat="56.045818" lon="26.531494">
<ele>99.930725</ele>
<time>2010-08-29T10:52:19Z</time>
<desc>lat.=56.045818, lon.=26.531494, Alt.=99.930725m. Speed=9.504000m/h.</desc>
<speed>2.640000</speed>
</trkpt>
<trkpt lat="56.045834" lon="26.531525">
<ele>100.336975</ele>
<time>2010-08-29T10:52:20Z</time>
<desc>lat.=56.045834, lon.=26.531525, Alt.=100.336975m. Speed=8.316000m/h.</desc>
<speed>2.310000</speed>
</trkpt>
<trkpt lat="56.045849" lon="26.531548">
<ele>100.727600</ele>
<time>2010-08-29T10:52:21Z</time>
<desc>lat.=56.045849, lon.=26.531548, Alt.=100.727600m. Speed=7.020000m/h.</desc>
<speed>1.950000</speed>
</trkpt>
<trkpt lat="56.045868" lon="26.531570">
<ele>100.930725</ele>
<time>2010-08-29T10:52:22Z</time>
<desc>lat.=56.045868, lon.=26.531570, Alt.=100.930725m. Speed=11.520000m/h.</desc>
<speed>3.200000</speed>
</trkpt>
<trkpt lat="56.045895" lon="26.531595">
<ele>101.069397</ele>
<time>2010-08-29T10:52:23Z</time>
<desc>lat.=56.045895, lon.=26.531595, Alt.=101.069397m. Speed=9.648000m/h.</desc>
<speed>2.680000</speed>
</trkpt>
<trkpt lat="56.045921" lon="26.531624">
<ele>101.186584</ele>
<time>2010-08-29T10:52:24Z</time>
<desc>lat.=56.045921, lon.=26.531624, Alt.=101.186584m. Speed=12.996000m/h.</desc>
<speed>3.610000</speed>
</trkpt>
<trkpt lat="56.045952" lon="26.531662">
<ele>101.504944</ele>
<time>2010-08-29T10:52:25Z</time>
<desc>lat.=56.045952, lon.=26.531662, Alt.=101.504944m. Speed=13.860000m/h.</desc>
<speed>3.850000</speed>
</trkpt>
<trkpt lat="56.045990" lon="26.531700">
<ele>101.571350</ele>
<time>2010-08-29T10:52:26Z</time>
<desc>lat.=56.045990, lon.=26.531700, Alt.=101.571350m. Speed=16.091999m/h.</desc>
<speed>4.470000</speed>
</trkpt>
<trkpt lat="56.046032" lon="26.531736">
<ele>101.471741</ele>
<time>2010-08-29T10:52:27Z</time>
<desc>lat.=56.046032, lon.=26.531736, Alt.=101.471741m. Speed=17.388000m/h.</desc>
<speed>4.830000</speed>
</trkpt>
<trkpt lat="56.046078" lon="26.531775">
<ele>101.321350</ele>
<time>2010-08-29T10:52:28Z</time>
<desc>lat.=56.046078, lon.=26.531775, Alt.=101.321350m. Speed=18.143999m/h.</desc>
<speed>5.040000</speed>
</trkpt>
<trkpt lat="56.046124" lon="26.531813">
<ele>101.333069</ele>
<time>2010-08-29T10:52:29Z</time>
<desc>lat.=56.046124, lon.=26.531813, Alt.=101.333069m. Speed=19.188000m/h.</desc>
<speed>5.330000</speed>
</trkpt>
<trkpt lat="56.046169" lon="26.531855">
<ele>101.333069</ele>
<time>2010-08-29T10:52:30Z</time>
<desc>lat.=56.046169, lon.=26.531855, Alt.=101.333069m. Speed=20.160000m/h.</desc>
<speed>5.600000</speed>
</trkpt>
<trkpt lat="56.046215" lon="26.531897">
<ele>101.465881</ele>
<time>2010-08-29T10:52:31Z</time>
<desc>lat.=56.046215, lon.=26.531897, Alt.=101.465881m. Speed=21.348000m/h.</desc>
<speed>5.930000</speed>
</trkpt>
<trkpt lat="56.046261" lon="26.531944">
<ele>101.586975</ele>
<time>2010-08-29T10:52:32Z</time>
<desc>lat.=56.046261, lon.=26.531944, Alt.=101.586975m. Speed=22.068001m/h.</desc>
<speed>6.130000</speed>
</trkpt>
<trkpt lat="56.046310" lon="26.531994">
<ele>101.797913</ele>
<time>2010-08-29T10:52:33Z</time>
<desc>lat.=56.046310, lon.=26.531994, Alt.=101.797913m. Speed=23.004000m/h.</desc>
<speed>6.390000</speed>
</trkpt>
<trkpt lat="56.046368" lon="26.532036">
<ele>101.821350</ele>
<time>2010-08-29T10:52:34Z</time>
<desc>lat.=56.046368, lon.=26.532036, Alt.=101.821350m. Speed=23.364000m/h.</desc>
<speed>6.490000</speed>
</trkpt>
<trkpt lat="56.046425" lon="26.532082">
<ele>101.909241</ele>
<time>2010-08-29T10:52:35Z</time>
<desc>lat.=56.046425, lon.=26.532082, Alt.=101.909241m. Speed=24.156000m/h.</desc>
<speed>6.710000</speed>
</trkpt>
<trkpt lat="56.046478" lon="26.532131">
<ele>102.071350</ele>
<time>2010-08-29T10:52:36Z</time>
<desc>lat.=56.046478, lon.=26.532131, Alt.=102.071350m. Speed=25.056000m/h.</desc>
<speed>6.960000</speed>
</trkpt>
<trkpt lat="56.046535" lon="26.532187">
<ele>102.237366</ele>
<time>2010-08-29T10:52:37Z</time>
<desc>lat.=56.046535, lon.=26.532187, Alt.=102.237366m. Speed=25.559999m/h.</desc>
<speed>7.100000</speed>
</trkpt>
<trkpt lat="56.046593" lon="26.532248">
<ele>102.397522</ele>
<time>2010-08-29T10:52:38Z</time>
<desc>lat.=56.046593, lon.=26.532248, Alt.=102.397522m. Speed=26.351999m/h.</desc>
<speed>7.320000</speed>
</trkpt>
<trkpt lat="56.046654" lon="26.532305">
<ele>102.784241</ele>
<time>2010-08-29T10:52:39Z</time>
<desc>lat.=56.046654, lon.=26.532305, Alt.=102.784241m. Speed=26.496000m/h.</desc>
<speed>7.360000</speed>
</trkpt>
<trkpt lat="56.046715" lon="26.532360">
<ele>103.135803</ele>
<time>2010-08-29T10:52:40Z</time>
<desc>lat.=56.046715, lon.=26.532360, Alt.=103.135803m. Speed=26.964001m/h.</desc>
<speed>7.490000</speed>
</trkpt>
<trkpt lat="56.046776" lon="26.532421">
<ele>103.700256</ele>
<time>2010-08-29T10:52:41Z</time>
<desc>lat.=56.046776, lon.=26.532421, Alt.=103.700256m. Speed=26.459999m/h.</desc>
<speed>7.350000</speed>
</trkpt>
<trkpt lat="56.046837" lon="26.532482">
<ele>103.413147</ele>
<time>2010-08-29T10:52:42Z</time>
<desc>lat.=56.046837, lon.=26.532482, Alt.=103.413147m. Speed=27.072001m/h.</desc>
<speed>7.520000</speed>
</trkpt>
<trkpt lat="56.046898" lon="26.532537">
<ele>103.292053</ele>
<time>2010-08-29T10:52:43Z</time>
<desc>lat.=56.046898, lon.=26.532537, Alt.=103.292053m. Speed=25.236000m/h.</desc>
<speed>7.010000</speed>
</trkpt>
<trkpt lat="56.046967" lon="26.532589">
<ele>103.272522</ele>
<time>2010-08-29T10:52:44Z</time>
<desc>lat.=56.046967, lon.=26.532589, Alt.=103.272522m. Speed=26.172001m/h.</desc>
<speed>7.270000</speed>
</trkpt>
<trkpt lat="56.047031" lon="26.532637">
<ele>103.592834</ele>
<time>2010-08-29T10:52:45Z</time>
<desc>lat.=56.047031, lon.=26.532637, Alt.=103.592834m. Speed=24.444000m/h.</desc>
<speed>6.790000</speed>
</trkpt>
<trkpt lat="56.047085" lon="26.532677">
<ele>103.936584</ele>
<time>2010-08-29T10:52:46Z</time>
<desc>lat.=56.047085, lon.=26.532677, Alt.=103.936584m. Speed=23.544001m/h.</desc>
<speed>6.540000</speed>
</trkpt>
<trkpt lat="56.047138" lon="26.532717">
<ele>104.137756</ele>
<time>2010-08-29T10:52:47Z</time>
<desc>lat.=56.047138, lon.=26.532717, Alt.=104.137756m. Speed=22.860001m/h.</desc>
<speed>6.350000</speed>
</trkpt>
<trkpt lat="56.047188" lon="26.532751">
<ele>103.981506</ele>
<time>2010-08-29T10:52:48Z</time>
<desc>lat.=56.047188, lon.=26.532751, Alt.=103.981506m. Speed=22.212000m/h.</desc>
<speed>6.170000</speed>
</trkpt>
<trkpt lat="56.047241" lon="26.532782">
<ele>104.131897</ele>
<time>2010-08-29T10:52:49Z</time>
<desc>lat.=56.047241, lon.=26.532782, Alt.=104.131897m. Speed=20.916000m/h.</desc>
<speed>5.810000</speed>
</trkpt>
<trkpt lat="56.047287" lon="26.532822">
<ele>104.424866</ele>
<time>2010-08-29T10:52:50Z</time>
<desc>lat.=56.047287, lon.=26.532822, Alt.=104.424866m. Speed=20.591999m/h.</desc>
<speed>5.720000</speed>
</trkpt>
<trkpt lat="56.047337" lon="26.532852">
<ele>104.530334</ele>
<time>2010-08-29T10:52:51Z</time>
<desc>lat.=56.047337, lon.=26.532852, Alt.=104.530334m. Speed=23.219999m/h.</desc>
<speed>6.450000</speed>
</trkpt>
<trkpt lat="56.047394" lon="26.532881">
<ele>104.657288</ele>
<time>2010-08-29T10:52:52Z</time>
<desc>lat.=56.047394, lon.=26.532881, Alt.=104.657288m. Speed=22.427999m/h.</desc>
<speed>6.230000</speed>
</trkpt>
<trkpt lat="56.047451" lon="26.532906">
<ele>104.889709</ele>
<time>2010-08-29T10:52:53Z</time>
<desc>lat.=56.047451, lon.=26.532906, Alt.=104.889709m. Speed=22.284000m/h.</desc>
<speed>6.190000</speed>
</trkpt>
<trkpt lat="56.047504" lon="26.532927">
<ele>105.325256</ele>
<time>2010-08-29T10:52:54Z</time>
<desc>lat.=56.047504, lon.=26.532927, Alt.=105.325256m. Speed=22.032000m/h.</desc>
<speed>6.120000</speed>
</trkpt>
<trkpt lat="56.047562" lon="26.532946">
<ele>105.592834</ele>
<time>2010-08-29T10:52:55Z</time>
<desc>lat.=56.047562, lon.=26.532946, Alt.=105.592834m. Speed=21.959999m/h.</desc>
<speed>6.100000</speed>
</trkpt>
<trkpt lat="56.047626" lon="26.532967">
<ele>106.032288</ele>
<time>2010-08-29T10:52:56Z</time>
<desc>lat.=56.047626, lon.=26.532967, Alt.=106.032288m. Speed=21.959999m/h.</desc>
<speed>6.100000</speed>
</trkpt>
<trkpt lat="56.047684" lon="26.532978">
<ele>105.614319</ele>
<time>2010-08-29T10:52:57Z</time>
<desc>lat.=56.047684, lon.=26.532978, Alt.=105.614319m. Speed=22.788000m/h.</desc>
<speed>6.330000</speed>
</trkpt>
<trkpt lat="56.047749" lon="26.532990">
<ele>105.735413</ele>
<time>2010-08-29T10:52:58Z</time>
<desc>lat.=56.047749, lon.=26.532990, Alt.=105.735413m. Speed=23.544001m/h.</desc>
<speed>6.540000</speed>
</trkpt>
<trkpt lat="56.047821" lon="26.533009">
<ele>105.629944</ele>
<time>2010-08-29T10:52:59Z</time>
<desc>lat.=56.047821, lon.=26.533009, Alt.=105.629944m. Speed=23.256001m/h.</desc>
<speed>6.460000</speed>
</trkpt>
<trkpt lat="56.047886" lon="26.533018">
<ele>105.301819</ele>
<time>2010-08-29T10:53:00Z</time>
<desc>lat.=56.047886, lon.=26.533018, Alt.=105.301819m. Speed=23.688000m/h.</desc>
<speed>6.580000</speed>
</trkpt>
<trkpt lat="56.047943" lon="26.533028">
<ele>105.176819</ele>
<time>2010-08-29T10:53:01Z</time>
<desc>lat.=56.047943, lon.=26.533028, Alt.=105.176819m. Speed=23.292000m/h.</desc>
<speed>6.470000</speed>
</trkpt>
<trkpt lat="56.048000" lon="26.533033">
<ele>105.196350</ele>
<time>2010-08-29T10:53:02Z</time>
<desc>lat.=56.048000, lon.=26.533033, Alt.=105.196350m. Speed=22.464001m/h.</desc>
<speed>6.240000</speed>
</trkpt>
<trkpt lat="56.048061" lon="26.533045">
<ele>104.885803</ele>
<time>2010-08-29T10:53:03Z</time>
<desc>lat.=56.048061, lon.=26.533045, Alt.=104.885803m. Speed=22.823999m/h.</desc>
<speed>6.340000</speed>
</trkpt>
<trkpt lat="56.048119" lon="26.533054">
<ele>103.846741</ele>
<time>2010-08-29T10:53:04Z</time>
<desc>lat.=56.048119, lon.=26.533054, Alt.=103.846741m. Speed=21.708000m/h.</desc>
<speed>6.030000</speed>
</trkpt>
<trkpt lat="56.048183" lon="26.533056">
<ele>103.887756</ele>
<time>2010-08-29T10:53:05Z</time>
<desc>lat.=56.048183, lon.=26.533056, Alt.=103.887756m. Speed=22.392000m/h.</desc>
<speed>6.220000</speed>
</trkpt>
<trkpt lat="56.048244" lon="26.533060">
<ele>104.143616</ele>
<time>2010-08-29T10:53:06Z</time>
<desc>lat.=56.048244, lon.=26.533060, Alt.=104.143616m. Speed=22.968000m/h.</desc>
<speed>6.380000</speed>
</trkpt>
<trkpt lat="56.048302" lon="26.533064">
<ele>103.485413</ele>
<time>2010-08-29T10:53:07Z</time>
<desc>lat.=56.048302, lon.=26.533064, Alt.=103.485413m. Speed=22.104000m/h.</desc>
<speed>6.140000</speed>
</trkpt>
<trkpt lat="56.048359" lon="26.533072">
<ele>103.094788</ele>
<time>2010-08-29T10:53:08Z</time>
<desc>lat.=56.048359, lon.=26.533072, Alt.=103.094788m. Speed=22.752001m/h.</desc>
<speed>6.320000</speed>
</trkpt>
<trkpt lat="56.048420" lon="26.533075">
<ele>103.608459</ele>
<time>2010-08-29T10:53:09Z</time>
<desc>lat.=56.048420, lon.=26.533075, Alt.=103.608459m. Speed=23.832001m/h.</desc>
<speed>6.620000</speed>
</trkpt>
<trkpt lat="56.048481" lon="26.533077">
<ele>102.608459</ele>
<time>2010-08-29T10:53:10Z</time>
<desc>lat.=56.048481, lon.=26.533077, Alt.=102.608459m. Speed=25.596001m/h.</desc>
<speed>7.110000</speed>
</trkpt>
<trkpt lat="56.048546" lon="26.533075">
<ele>102.452209</ele>
<time>2010-08-29T10:53:11Z</time>
<desc>lat.=56.048546, lon.=26.533075, Alt.=102.452209m. Speed=26.351999m/h.</desc>
<speed>7.320000</speed>
</trkpt>
<trkpt lat="56.048615" lon="26.533077">
<ele>102.143616</ele>
<time>2010-08-29T10:53:12Z</time>
<desc>lat.=56.048615, lon.=26.533077, Alt.=102.143616m. Speed=26.351999m/h.</desc>
<speed>7.320000</speed>
</trkpt>
<trkpt lat="56.048679" lon="26.533075">
<ele>101.247131</ele>
<time>2010-08-29T10:53:13Z</time>
<desc>lat.=56.048679, lon.=26.533075, Alt.=101.247131m. Speed=26.172001m/h.</desc>
<speed>7.270000</speed>
</trkpt>
<trkpt lat="56.048744" lon="26.533075">
<ele>100.887756</ele>
<time>2010-08-29T10:53:14Z</time>
<desc>lat.=56.048744, lon.=26.533075, Alt.=100.887756m. Speed=25.704000m/h.</desc>
<speed>7.140000</speed>
</trkpt>
<trkpt lat="56.048809" lon="26.533077">
<ele>101.231506</ele>
<time>2010-08-29T10:53:15Z</time>
<desc>lat.=56.048809, lon.=26.533077, Alt.=101.231506m. Speed=24.983999m/h.</desc>
<speed>6.940000</speed>
</trkpt>
<trkpt lat="56.048870" lon="26.533079">
<ele>101.266663</ele>
<time>2010-08-29T10:53:16Z</time>
<desc>lat.=56.048870, lon.=26.533079, Alt.=101.266663m. Speed=24.875999m/h.</desc>
<speed>6.910000</speed>
</trkpt>
<trkpt lat="56.048931" lon="26.533081">
<ele>100.475647</ele>
<time>2010-08-29T10:53:17Z</time>
<desc>lat.=56.048931, lon.=26.533081, Alt.=100.475647m. Speed=24.840000m/h.</desc>
<speed>6.900000</speed>
</trkpt>
<trkpt lat="56.048992" lon="26.533079">
<ele>99.913147</ele>
<time>2010-08-29T10:53:18Z</time>
<desc>lat.=56.048992, lon.=26.533079, Alt.=99.913147m. Speed=24.336000m/h.</desc>
<speed>6.760000</speed>
</trkpt>
<trkpt lat="56.049053" lon="26.533085">
<ele>99.627991</ele>
<time>2010-08-29T10:53:19Z</time>
<desc>lat.=56.049053, lon.=26.533085, Alt.=99.627991m. Speed=23.507999m/h.</desc>
<speed>6.530000</speed>
</trkpt>
<trkpt lat="56.049114" lon="26.533091">
<ele>99.782288</ele>
<time>2010-08-29T10:53:20Z</time>
<desc>lat.=56.049114, lon.=26.533091, Alt.=99.782288m. Speed=23.400000m/h.</desc>
<speed>6.500000</speed>
</trkpt>
<trkpt lat="56.049175" lon="26.533094">
<ele>98.612366</ele>
<time>2010-08-29T10:53:21Z</time>
<desc>lat.=56.049175, lon.=26.533094, Alt.=98.612366m. Speed=24.048000m/h.</desc>
<speed>6.680000</speed>
</trkpt>
<trkpt lat="56.049236" lon="26.533100">
<ele>98.586975</ele>
<time>2010-08-29T10:53:22Z</time>
<desc>lat.=56.049236, lon.=26.533100, Alt.=98.586975m. Speed=23.507999m/h.</desc>
<speed>6.530000</speed>
</trkpt>
<trkpt lat="56.049301" lon="26.533100">
<ele>98.137756</ele>
<time>2010-08-29T10:53:23Z</time>
<desc>lat.=56.049301, lon.=26.533100, Alt.=98.137756m. Speed=23.796000m/h.</desc>
<speed>6.610000</speed>
</trkpt>
<trkpt lat="56.049362" lon="26.533102">
<ele>98.012756</ele>
<time>2010-08-29T10:53:24Z</time>
<desc>lat.=56.049362, lon.=26.533102, Alt.=98.012756m. Speed=24.480000m/h.</desc>
<speed>6.800000</speed>
</trkpt>
<trkpt lat="56.049423" lon="26.533104">
<ele>97.258850</ele>
<time>2010-08-29T10:53:25Z</time>
<desc>lat.=56.049423, lon.=26.533104, Alt.=97.258850m. Speed=25.524000m/h.</desc>
<speed>7.090000</speed>
</trkpt>
<trkpt lat="56.049496" lon="26.533108">
<ele>96.340881</ele>
<time>2010-08-29T10:53:26Z</time>
<desc>lat.=56.049496, lon.=26.533108, Alt.=96.340881m. Speed=27.540001m/h.</desc>
<speed>7.650000</speed>
</trkpt>
<trkpt lat="56.049564" lon="26.533113">
<ele>95.897522</ele>
<time>2010-08-29T10:53:27Z</time>
<desc>lat.=56.049564, lon.=26.533113, Alt.=95.897522m. Speed=27.936001m/h.</desc>
<speed>7.760000</speed>
</trkpt>
<trkpt lat="56.049637" lon="26.533119">
<ele>95.530334</ele>
<time>2010-08-29T10:53:28Z</time>
<desc>lat.=56.049637, lon.=26.533119, Alt.=95.530334m. Speed=28.584000m/h.</desc>
<speed>7.940000</speed>
</trkpt>
<trkpt lat="56.049713" lon="26.533123">
<ele>95.690491</ele>
<time>2010-08-29T10:53:29Z</time>
<desc>lat.=56.049713, lon.=26.533123, Alt.=95.690491m. Speed=29.195999m/h.</desc>
<speed>8.110000</speed>
</trkpt>
<trkpt lat="56.049786" lon="26.533127">
<ele>95.110413</ele>
<time>2010-08-29T10:53:30Z</time>
<desc>lat.=56.049786, lon.=26.533127, Alt.=95.110413m. Speed=30.455999m/h.</desc>
<speed>8.460000</speed>
</trkpt>
<trkpt lat="56.049862" lon="26.533131">
<ele>94.905334</ele>
<time>2010-08-29T10:53:31Z</time>
<desc>lat.=56.049862, lon.=26.533131, Alt.=94.905334m. Speed=30.384001m/h.</desc>
<speed>8.440000</speed>
</trkpt>
<trkpt lat="56.049938" lon="26.533136">
<ele>94.411194</ele>
<time>2010-08-29T10:53:32Z</time>
<desc>lat.=56.049938, lon.=26.533136, Alt.=94.411194m. Speed=29.700001m/h.</desc>
<speed>8.250000</speed>
</trkpt>
<trkpt lat="56.050011" lon="26.533142">
<ele>94.276428</ele>
<time>2010-08-29T10:53:33Z</time>
<desc>lat.=56.050011, lon.=26.533142, Alt.=94.276428m. Speed=28.332001m/h.</desc>
<speed>7.870000</speed>
</trkpt>
<trkpt lat="56.050087" lon="26.533146">
<ele>94.143616</ele>
<time>2010-08-29T10:53:34Z</time>
<desc>lat.=56.050087, lon.=26.533146, Alt.=94.143616m. Speed=27.864000m/h.</desc>
<speed>7.740000</speed>
</trkpt>
<trkpt lat="56.050148" lon="26.533150">
<ele>92.780334</ele>
<time>2010-08-29T10:53:35Z</time>
<desc>lat.=56.050148, lon.=26.533150, Alt.=92.780334m. Speed=27.035999m/h.</desc>
<speed>7.510000</speed>
</trkpt>
<trkpt lat="56.050217" lon="26.533154">
<ele>92.045959</ele>
<time>2010-08-29T10:53:36Z</time>
<desc>lat.=56.050217, lon.=26.533154, Alt.=92.045959m. Speed=26.280001m/h.</desc>
<speed>7.300000</speed>
</trkpt>
<trkpt lat="56.050282" lon="26.533163">
<ele>92.233459</ele>
<time>2010-08-29T10:53:37Z</time>
<desc>lat.=56.050282, lon.=26.533163, Alt.=92.233459m. Speed=26.459999m/h.</desc>
<speed>7.350000</speed>
</trkpt>
<trkpt lat="56.050346" lon="26.533167">
<ele>91.776428</ele>
<time>2010-08-29T10:53:38Z</time>
<desc>lat.=56.050346, lon.=26.533167, Alt.=91.776428m. Speed=27.000000m/h.</desc>
<speed>7.500000</speed>
</trkpt>
<trkpt lat="56.050415" lon="26.533165">
<ele>91.788147</ele>
<time>2010-08-29T10:53:39Z</time>
<desc>lat.=56.050415, lon.=26.533165, Alt.=91.788147m. Speed=27.756001m/h.</desc>
<speed>7.710000</speed>
</trkpt>
<trkpt lat="56.050488" lon="26.533163">
<ele>91.268616</ele>
<time>2010-08-29T10:53:40Z</time>
<desc>lat.=56.050488, lon.=26.533163, Alt.=91.268616m. Speed=29.087999m/h.</desc>
<speed>8.080000</speed>
</trkpt>
<trkpt lat="56.050556" lon="26.533169">
<ele>90.477600</ele>
<time>2010-08-29T10:53:41Z</time>
<desc>lat.=56.050556, lon.=26.533169, Alt.=90.477600m. Speed=29.520000m/h.</desc>
<speed>8.200000</speed>
</trkpt>
<trkpt lat="56.050636" lon="26.533176">
<ele>90.606506</ele>
<time>2010-08-29T10:53:42Z</time>
<desc>lat.=56.050636, lon.=26.533176, Alt.=90.606506m. Speed=30.563999m/h.</desc>
<speed>8.490000</speed>
</trkpt>
<trkpt lat="56.050716" lon="26.533178">
<ele>91.092834</ele>
<time>2010-08-29T10:53:43Z</time>
<desc>lat.=56.050716, lon.=26.533178, Alt.=91.092834m. Speed=31.320000m/h.</desc>
<speed>8.700000</speed>
</trkpt>
<trkpt lat="56.050797" lon="26.533184">
<ele>90.555725</ele>
<time>2010-08-29T10:53:44Z</time>
<desc>lat.=56.050797, lon.=26.533184, Alt.=90.555725m. Speed=30.708000m/h.</desc>
<speed>8.530000</speed>
</trkpt>
<trkpt lat="56.050877" lon="26.533192">
<ele>90.981506</ele>
<time>2010-08-29T10:53:45Z</time>
<desc>lat.=56.050877, lon.=26.533192, Alt.=90.981506m. Speed=29.879999m/h.</desc>
<speed>8.300000</speed>
</trkpt>
<trkpt lat="56.050949" lon="26.533203">
<ele>91.102600</ele>
<time>2010-08-29T10:53:46Z</time>
<desc>lat.=56.050949, lon.=26.533203, Alt.=91.102600m. Speed=29.628000m/h.</desc>
<speed>8.230000</speed>
</trkpt>
<trkpt lat="56.051022" lon="26.533207">
<ele>91.618225</ele>
<time>2010-08-29T10:53:47Z</time>
<desc>lat.=56.051022, lon.=26.533207, Alt.=91.618225m. Speed=28.080000m/h.</desc>
<speed>7.800000</speed>
</trkpt>
<trkpt lat="56.051094" lon="26.533215">
<ele>92.311584</ele>
<time>2010-08-29T10:53:48Z</time>
<desc>lat.=56.051094, lon.=26.533215, Alt.=92.311584m. Speed=28.152000m/h.</desc>
<speed>7.820000</speed>
</trkpt>
<trkpt lat="56.051167" lon="26.533224">
<ele>92.626038</ele>
<time>2010-08-29T10:53:49Z</time>
<desc>lat.=56.051167, lon.=26.533224, Alt.=92.626038m. Speed=28.908001m/h.</desc>
<speed>8.030000</speed>
</trkpt>
<trkpt lat="56.051239" lon="26.533234">
<ele>92.704163</ele>
<time>2010-08-29T10:53:50Z</time>
<desc>lat.=56.051239, lon.=26.533234, Alt.=92.704163m. Speed=29.412001m/h.</desc>
<speed>8.170000</speed>
</trkpt>
<trkpt lat="56.051311" lon="26.533239">
<ele>93.030334</ele>
<time>2010-08-29T10:53:51Z</time>
<desc>lat.=56.051311, lon.=26.533239, Alt.=93.030334m. Speed=28.728001m/h.</desc>
<speed>7.980000</speed>
</trkpt>
<trkpt lat="56.051388" lon="26.533245">
<ele>93.420959</ele>
<time>2010-08-29T10:53:52Z</time>
<desc>lat.=56.051388, lon.=26.533245, Alt.=93.420959m. Speed=28.403999m/h.</desc>
<speed>7.890000</speed>
</trkpt>
<trkpt lat="56.051460" lon="26.533251">
<ele>94.069397</ele>
<time>2010-08-29T10:53:53Z</time>
<desc>lat.=56.051460, lon.=26.533251, Alt.=94.069397m. Speed=28.728001m/h.</desc>
<speed>7.980000</speed>
</trkpt>
<trkpt lat="56.051533" lon="26.533255">
<ele>94.745178</ele>
<time>2010-08-29T10:53:54Z</time>
<desc>lat.=56.051533, lon.=26.533255, Alt.=94.745178m. Speed=28.980000m/h.</desc>
<speed>8.050000</speed>
</trkpt>
<trkpt lat="56.051609" lon="26.533258">
<ele>94.544006</ele>
<time>2010-08-29T10:53:55Z</time>
<desc>lat.=56.051609, lon.=26.533258, Alt.=94.544006m. Speed=29.844000m/h.</desc>
<speed>8.290000</speed>
</trkpt>
<trkpt lat="56.051685" lon="26.533268">
<ele>94.835022</ele>
<time>2010-08-29T10:53:56Z</time>
<desc>lat.=56.051685, lon.=26.533268, Alt.=94.835022m. Speed=29.736000m/h.</desc>
<speed>8.260000</speed>
</trkpt>
<trkpt lat="56.051762" lon="26.533270">
<ele>95.376038</ele>
<time>2010-08-29T10:53:57Z</time>
<desc>lat.=56.051762, lon.=26.533270, Alt.=95.376038m. Speed=29.916000m/h.</desc>
<speed>8.310000</speed>
</trkpt>
<trkpt lat="56.051838" lon="26.533274">
<ele>95.260803</ele>
<time>2010-08-29T10:53:58Z</time>
<desc>lat.=56.051838, lon.=26.533274, Alt.=95.260803m. Speed=30.240000m/h.</desc>
<speed>8.400000</speed>
</trkpt>
<trkpt lat="56.051910" lon="26.533276">
<ele>95.713928</ele>
<time>2010-08-29T10:53:59Z</time>
<desc>lat.=56.051910, lon.=26.533276, Alt.=95.713928m. Speed=29.412001m/h.</desc>
<speed>8.170000</speed>
</trkpt>
<trkpt lat="56.051979" lon="26.533276">
<ele>94.364319</ele>
<time>2010-08-29T10:54:00Z</time>
<desc>lat.=56.051979, lon.=26.533276, Alt.=94.364319m. Speed=27.288000m/h.</desc>
<speed>7.580000</speed>
</trkpt>
<trkpt lat="56.052044" lon="26.533279">
<ele>93.913147</ele>
<time>2010-08-29T10:54:01Z</time>
<desc>lat.=56.052044, lon.=26.533279, Alt.=93.913147m. Speed=27.000000m/h.</desc>
<speed>7.500000</speed>
</trkpt>
<trkpt lat="56.052113" lon="26.533285">
<ele>93.713928</ele>
<time>2010-08-29T10:54:02Z</time>
<desc>lat.=56.052113, lon.=26.533285, Alt.=93.713928m. Speed=25.416000m/h.</desc>
<speed>7.060000</speed>
</trkpt>
<trkpt lat="56.052174" lon="26.533293">
<ele>94.184631</ele>
<time>2010-08-29T10:54:03Z</time>
<desc>lat.=56.052174, lon.=26.533293, Alt.=94.184631m. Speed=24.912001m/h.</desc>
<speed>6.920000</speed>
</trkpt>
<trkpt lat="56.052231" lon="26.533289">
<ele>94.877991</ele>
<time>2010-08-29T10:54:04Z</time>
<desc>lat.=56.052231, lon.=26.533289, Alt.=94.877991m. Speed=24.840000m/h.</desc>
<speed>6.900000</speed>
</trkpt>
<trkpt lat="56.052296" lon="26.533287">
<ele>96.491272</ele>
<time>2010-08-29T10:54:05Z</time>
<desc>lat.=56.052296, lon.=26.533287, Alt.=96.491272m. Speed=25.740000m/h.</desc>
<speed>7.150000</speed>
</trkpt>
<trkpt lat="56.052364" lon="26.533291">
<ele>97.688538</ele>
<time>2010-08-29T10:54:06Z</time>
<desc>lat.=56.052364, lon.=26.533291, Alt.=97.688538m. Speed=24.983999m/h.</desc>
<speed>6.940000</speed>
</trkpt>
<trkpt lat="56.052422" lon="26.533291">
<ele>98.479553</ele>
<time>2010-08-29T10:54:07Z</time>
<desc>lat.=56.052422, lon.=26.533291, Alt.=98.479553m. Speed=23.292000m/h.</desc>
<speed>6.470000</speed>
</trkpt>
<trkpt lat="56.052475" lon="26.533298">
<ele>98.434631</ele>
<time>2010-08-29T10:54:08Z</time>
<desc>lat.=56.052475, lon.=26.533298, Alt.=98.434631m. Speed=22.068001m/h.</desc>
<speed>6.130000</speed>
</trkpt>
<trkpt lat="56.052532" lon="26.533302">
<ele>99.409241</ele>
<time>2010-08-29T10:54:09Z</time>
<desc>lat.=56.052532, lon.=26.533302, Alt.=99.409241m. Speed=22.139999m/h.</desc>
<speed>6.150000</speed>
</trkpt>
<trkpt lat="56.052586" lon="26.533310">
<ele>100.542053</ele>
<time>2010-08-29T10:54:10Z</time>
<desc>lat.=56.052586, lon.=26.533310, Alt.=100.542053m. Speed=19.440001m/h.</desc>
<speed>5.400000</speed>
</trkpt>
<trkpt lat="56.052631" lon="26.533316">
<ele>100.909241</ele>
<time>2010-08-29T10:54:11Z</time>
<desc>lat.=56.052631, lon.=26.533316, Alt.=100.909241m. Speed=17.747999m/h.</desc>
<speed>4.930000</speed>
</trkpt>
<trkpt lat="56.052677" lon="26.533325">
<ele>101.581116</ele>
<time>2010-08-29T10:54:12Z</time>
<desc>lat.=56.052677, lon.=26.533325, Alt.=101.581116m. Speed=17.747999m/h.</desc>
<speed>4.930000</speed>
</trkpt>
<trkpt lat="56.052723" lon="26.533329">
<ele>101.622131</ele>
<time>2010-08-29T10:54:13Z</time>
<desc>lat.=56.052723, lon.=26.533329, Alt.=101.622131m. Speed=18.864000m/h.</desc>
<speed>5.240000</speed>
</trkpt>
<trkpt lat="56.052773" lon="26.533327">
<ele>101.536194</ele>
<time>2010-08-29T10:54:14Z</time>
<desc>lat.=56.052773, lon.=26.533327, Alt.=101.536194m. Speed=19.115999m/h.</desc>
<speed>5.310000</speed>
</trkpt>
<trkpt lat="56.052822" lon="26.533329">
<ele>102.016663</ele>
<time>2010-08-29T10:54:15Z</time>
<desc>lat.=56.052822, lon.=26.533329, Alt.=102.016663m. Speed=18.252001m/h.</desc>
<speed>5.070000</speed>
</trkpt>
<trkpt lat="56.052872" lon="26.533333">
<ele>102.444397</ele>
<time>2010-08-29T10:54:16Z</time>
<desc>lat.=56.052872, lon.=26.533333, Alt.=102.444397m. Speed=18.504000m/h.</desc>
<speed>5.140000</speed>
</trkpt>
<trkpt lat="56.052914" lon="26.533337">
<ele>102.417053</ele>
<time>2010-08-29T10:54:17Z</time>
<desc>lat.=56.052914, lon.=26.533337, Alt.=102.417053m. Speed=18.108000m/h.</desc>
<speed>5.030000</speed>
</trkpt>
<trkpt lat="56.052956" lon="26.533339">
<ele>102.565491</ele>
<time>2010-08-29T10:54:18Z</time>
<desc>lat.=56.052956, lon.=26.533339, Alt.=102.565491m. Speed=17.568001m/h.</desc>
<speed>4.880000</speed>
</trkpt>
<trkpt lat="56.053001" lon="26.533342">
<ele>102.788147</ele>
<time>2010-08-29T10:54:19Z</time>
<desc>lat.=56.053001, lon.=26.533342, Alt.=102.788147m. Speed=17.568001m/h.</desc>
<speed>4.880000</speed>
</trkpt>
<trkpt lat="56.053040" lon="26.533344">
<ele>102.333069</ele>
<time>2010-08-29T10:54:20Z</time>
<desc>lat.=56.053040, lon.=26.533344, Alt.=102.333069m. Speed=17.136000m/h.</desc>
<speed>4.760000</speed>
</trkpt>
<trkpt lat="56.053082" lon="26.533350">
<ele>102.147522</ele>
<time>2010-08-29T10:54:21Z</time>
<desc>lat.=56.053082, lon.=26.533350, Alt.=102.147522m. Speed=17.136000m/h.</desc>
<speed>4.760000</speed>
</trkpt>
<trkpt lat="56.053116" lon="26.533344">
<ele>100.534241</ele>
<time>2010-08-29T10:54:22Z</time>
<desc>lat.=56.053116, lon.=26.533344, Alt.=100.534241m. Speed=15.120000m/h.</desc>
<speed>4.200000</speed>
</trkpt>
<trkpt lat="56.053162" lon="26.533342">
<ele>99.536194</ele>
<time>2010-08-29T10:54:23Z</time>
<desc>lat.=56.053162, lon.=26.533342, Alt.=99.536194m. Speed=18.756001m/h.</desc>
<speed>5.210000</speed>
</trkpt>
<trkpt lat="56.053207" lon="26.533342">
<ele>99.395569</ele>
<time>2010-08-29T10:54:24Z</time>
<desc>lat.=56.053207, lon.=26.533342, Alt.=99.395569m. Speed=19.188000m/h.</desc>
<speed>5.330000</speed>
</trkpt>
<trkpt lat="56.053261" lon="26.533344">
<ele>99.655334</ele>
<time>2010-08-29T10:54:25Z</time>
<desc>lat.=56.053261, lon.=26.533344, Alt.=99.655334m. Speed=20.556000m/h.</desc>
<speed>5.710000</speed>
</trkpt>
<trkpt lat="56.053310" lon="26.533350">
<ele>99.989319</ele>
<time>2010-08-29T10:54:26Z</time>
<desc>lat.=56.053310, lon.=26.533350, Alt.=99.989319m. Speed=21.059999m/h.</desc>
<speed>5.850000</speed>
</trkpt>
<trkpt lat="56.053364" lon="26.533350">
<ele>99.848694</ele>
<time>2010-08-29T10:54:27Z</time>
<desc>lat.=56.053364, lon.=26.533350, Alt.=99.848694m. Speed=22.931999m/h.</desc>
<speed>6.370000</speed>
</trkpt>
<trkpt lat="56.053425" lon="26.533356">
<ele>99.469788</ele>
<time>2010-08-29T10:54:28Z</time>
<desc>lat.=56.053425, lon.=26.533356, Alt.=99.469788m. Speed=25.740000m/h.</desc>
<speed>7.150000</speed>
</trkpt>
<trkpt lat="56.053486" lon="26.533361">
<ele>99.735413</ele>
<time>2010-08-29T10:54:29Z</time>
<desc>lat.=56.053486, lon.=26.533361, Alt.=99.735413m. Speed=23.292000m/h.</desc>
<speed>6.470000</speed>
</trkpt>
<trkpt lat="56.053547" lon="26.533361">
<ele>99.766663</ele>
<time>2010-08-29T10:54:30Z</time>
<desc>lat.=56.053547, lon.=26.533361, Alt.=99.766663m. Speed=21.851999m/h.</desc>
<speed>6.070000</speed>
</trkpt>
<trkpt lat="56.053600" lon="26.533360">
<ele>99.633850</ele>
<time>2010-08-29T10:54:31Z</time>
<desc>lat.=56.053600, lon.=26.533360, Alt.=99.633850m. Speed=20.016001m/h.</desc>
<speed>5.560000</speed>
</trkpt>
<trkpt lat="56.053650" lon="26.533369">
<ele>99.655334</ele>
<time>2010-08-29T10:54:32Z</time>
<desc>lat.=56.053650, lon.=26.533369, Alt.=99.655334m. Speed=18.936001m/h.</desc>
<speed>5.260000</speed>
</trkpt>
<trkpt lat="56.053699" lon="26.533377">
<ele>99.835022</ele>
<time>2010-08-29T10:54:33Z</time>
<desc>lat.=56.053699, lon.=26.533377, Alt.=99.835022m. Speed=18.972000m/h.</desc>
<speed>5.270000</speed>
</trkpt>
<trkpt lat="56.053745" lon="26.533388">
<ele>99.917053</ele>
<time>2010-08-29T10:54:34Z</time>
<desc>lat.=56.053745, lon.=26.533388, Alt.=99.917053m. Speed=17.208000m/h.</desc>
<speed>4.780000</speed>
</trkpt>
<trkpt lat="56.053791" lon="26.533388">
<ele>99.542053</ele>
<time>2010-08-29T10:54:35Z</time>
<desc>lat.=56.053791, lon.=26.533388, Alt.=99.542053m. Speed=17.496000m/h.</desc>
<speed>4.860000</speed>
</trkpt>
<trkpt lat="56.053833" lon="26.533390">
<ele>99.346741</ele>
<time>2010-08-29T10:54:36Z</time>
<desc>lat.=56.053833, lon.=26.533390, Alt.=99.346741m. Speed=14.976000m/h.</desc>
<speed>4.160000</speed>
</trkpt>
<trkpt lat="56.053871" lon="26.533398">
<ele>99.551819</ele>
<time>2010-08-29T10:54:37Z</time>
<desc>lat.=56.053871, lon.=26.533398, Alt.=99.551819m. Speed=14.040000m/h.</desc>
<speed>3.900000</speed>
</trkpt>
<trkpt lat="56.053913" lon="26.533405">
<ele>99.526428</ele>
<time>2010-08-29T10:54:38Z</time>
<desc>lat.=56.053913, lon.=26.533405, Alt.=99.526428m. Speed=15.192000m/h.</desc>
<speed>4.220000</speed>
</trkpt>
<trkpt lat="56.053951" lon="26.533407">
<ele>99.483459</ele>
<time>2010-08-29T10:54:39Z</time>
<desc>lat.=56.053951, lon.=26.533407, Alt.=99.483459m. Speed=13.140000m/h.</desc>
<speed>3.650000</speed>
</trkpt>
<trkpt lat="56.053982" lon="26.533409">
<ele>99.590881</ele>
<time>2010-08-29T10:54:40Z</time>
<desc>lat.=56.053982, lon.=26.533409, Alt.=99.590881m. Speed=11.880000m/h.</desc>
<speed>3.300000</speed>
</trkpt>
<trkpt lat="56.054008" lon="26.533411">
<ele>99.678772</ele>
<time>2010-08-29T10:54:41Z</time>
<desc>lat.=56.054008, lon.=26.533411, Alt.=99.678772m. Speed=11.124000m/h.</desc>
<speed>3.090000</speed>
</trkpt>
<trkpt lat="56.054035" lon="26.533411">
<ele>100.036194</ele>
<time>2010-08-29T10:54:42Z</time>
<desc>lat.=56.054035, lon.=26.533411, Alt.=100.036194m. Speed=9.072000m/h.</desc>
<speed>2.520000</speed>
</trkpt>
<trkpt lat="56.054054" lon="26.533417">
<ele>100.596741</ele>
<time>2010-08-29T10:54:43Z</time>
<desc>lat.=56.054054, lon.=26.533417, Alt.=100.596741m. Speed=3.888000m/h.</desc>
<speed>1.080000</speed>
</trkpt>
<trkpt lat="56.054062" lon="26.533415">
<ele>99.626038</ele>
<time>2010-08-29T10:54:44Z</time>
<desc>lat.=56.054062, lon.=26.533415, Alt.=99.626038m. Speed=1.512000m/h.</desc>
<speed>0.420000</speed>
</trkpt>
<trkpt lat="56.054062" lon="26.533419">
<ele>99.889709</ele>
<time>2010-08-29T10:54:45Z</time>
<desc>lat.=56.054062, lon.=26.533419, Alt.=99.889709m. Speed=0.576000m/h.</desc>
<speed>0.160000</speed>
</trkpt>
<trkpt lat="56.054062" lon="26.533422">
<ele>99.887756</ele>
<time>2010-08-29T10:54:46Z</time>
<desc>lat.=56.054062, lon.=26.533422, Alt.=99.887756m. Speed=0.144000m/h.</desc>
<speed>0.040000</speed>
</trkpt>
<trkpt lat="56.054066" lon="26.533426">
<ele>99.633850</ele>
<time>2010-08-29T10:54:47Z</time>
<desc>lat.=56.054066, lon.=26.533426, Alt.=99.633850m. Speed=0.216000m/h.</desc>
<speed>0.060000</speed>
</trkpt>
<trkpt lat="56.054066" lon="26.533426">
<ele>99.649475</ele>
<time>2010-08-29T10:54:48Z</time>
<desc>lat.=56.054066, lon.=26.533426, Alt.=99.649475m. Speed=0.396000m/h.</desc>
<speed>0.110000</speed>
</trkpt>
<trkpt lat="56.054066" lon="26.533428">
<ele>99.649475</ele>
<time>2010-08-29T10:54:49Z</time>
<desc>lat.=56.054066, lon.=26.533428, Alt.=99.649475m. Speed=0.072000m/h.</desc>
<speed>0.020000</speed>
</trkpt>
<trkpt lat="56.054066" lon="26.533430">
<ele>99.657288</ele>
<time>2010-08-29T10:54:50Z</time>
<desc>lat.=56.054066, lon.=26.533430, Alt.=99.657288m. Speed=0.396000m/h.</desc>
<speed>0.110000</speed>
</trkpt>
<trkpt lat="56.054062" lon="26.533432">
<ele>99.674866</ele>
<time>2010-08-29T10:54:51Z</time>
<desc>lat.=56.054062, lon.=26.533432, Alt.=99.674866m. Speed=0.108000m/h.</desc>
<speed>0.030000</speed>
</trkpt>
<trkpt lat="56.054062" lon="26.533432">
<ele>99.688538</ele>
<time>2010-08-29T10:54:52Z</time>
<desc>lat.=56.054062, lon.=26.533432, Alt.=99.688538m. Speed=0.324000m/h.</desc>
<speed>0.090000</speed>
</trkpt>
<trkpt lat="56.054062" lon="26.533432">
<ele>99.684631</ele>
<time>2010-08-29T10:54:53Z</time>
<desc>lat.=56.054062, lon.=26.533432, Alt.=99.684631m. Speed=0.468000m/h.</desc>
<speed>0.130000</speed>
</trkpt>
<trkpt lat="56.054062" lon="26.533436">
<ele>99.696350</ele>
<time>2010-08-29T10:54:54Z</time>
<desc>lat.=56.054062, lon.=26.533436, Alt.=99.696350m. Speed=0.108000m/h.</desc>
<speed>0.030000</speed>
</trkpt>
<trkpt lat="56.054062" lon="26.533436">
<ele>99.702209</ele>
<time>2010-08-29T10:54:55Z</time>
<desc>lat.=56.054062, lon.=26.533436, Alt.=99.702209m. Speed=0.216000m/h.</desc>
<speed>0.060000</speed>
</trkpt>
<trkpt lat="56.054062" lon="26.533436">
<ele>99.710022</ele>
<time>2010-08-29T10:54:56Z</time>
<desc>lat.=56.054062, lon.=26.533436, Alt.=99.710022m. Speed=0.360000m/h.</desc>
<speed>0.100000</speed>
</trkpt>
<trkpt lat="56.054062" lon="26.533438">
<ele>99.708069</ele>
<time>2010-08-29T10:54:57Z</time>
<desc>lat.=56.054062, lon.=26.533438, Alt.=99.708069m. Speed=0.432000m/h.</desc>
<speed>0.120000</speed>
</trkpt>
<trkpt lat="56.054062" lon="26.533438">
<ele>99.710022</ele>
<time>2010-08-29T10:54:58Z</time>
<desc>lat.=56.054062, lon.=26.533438, Alt.=99.710022m. Speed=0.432000m/h.</desc>
<speed>0.120000</speed>
</trkpt>
<trkpt lat="56.054058" lon="26.533440">
<ele>99.719788</ele>
<time>2010-08-29T10:54:59Z</time>
<desc>lat.=56.054058, lon.=26.533440, Alt.=99.719788m. Speed=0.216000m/h.</desc>
<speed>0.060000</speed>
</trkpt>
<trkpt lat="56.054058" lon="26.533442">
<ele>99.735413</ele>
<time>2010-08-29T10:55:00Z</time>
<desc>lat.=56.054058, lon.=26.533442, Alt.=99.735413m. Speed=0.036000m/h.</desc>
<speed>0.010000</speed>
</trkpt>
<trkpt lat="56.054058" lon="26.533442">
<ele>99.743225</ele>
<time>2010-08-29T10:55:01Z</time>
<desc>lat.=56.054058, lon.=26.533442, Alt.=99.743225m. Speed=0.324000m/h.</desc>
<speed>0.090000</speed>
</trkpt>
<trkpt lat="56.054058" lon="26.533443">
<ele>99.743225</ele>
<time>2010-08-29T10:55:02Z</time>
<desc>lat.=56.054058, lon.=26.533443, Alt.=99.743225m. Speed=0.252000m/h.</desc>
<speed>0.070000</speed>
</trkpt>
<trkpt lat="56.054058" lon="26.533443">
<ele>99.743225</ele>
<time>2010-08-29T10:55:03Z</time>
<desc>lat.=56.054058, lon.=26.533443, Alt.=99.743225m. Speed=0.396000m/h.</desc>
<speed>0.110000</speed>
</trkpt>
<trkpt lat="56.054058" lon="26.533445">
<ele>99.731506</ele>
<time>2010-08-29T10:55:04Z</time>
<desc>lat.=56.054058, lon.=26.533445, Alt.=99.731506m. Speed=0.252000m/h.</desc>
<speed>0.070000</speed>
</trkpt>
<trkpt lat="56.054058" lon="26.533447">
<ele>99.727600</ele>
<time>2010-08-29T10:55:05Z</time>
<desc>lat.=56.054058, lon.=26.533447, Alt.=99.727600m. Speed=0.396000m/h.</desc>
<speed>0.110000</speed>
</trkpt>
<trkpt lat="56.054058" lon="26.533447">
<ele>99.727600</ele>
<time>2010-08-29T10:55:06Z</time>
<desc>lat.=56.054058, lon.=26.533447, Alt.=99.727600m. Speed=0.504000m/h.</desc>
<speed>0.140000</speed>
</trkpt>
<trkpt lat="56.054058" lon="26.533451">
<ele>99.725647</ele>
<time>2010-08-29T10:55:07Z</time>
<desc>lat.=56.054058, lon.=26.533451, Alt.=99.725647m. Speed=0.504000m/h.</desc>
<speed>0.140000</speed>
</trkpt>
<trkpt lat="56.054058" lon="26.533453">
<ele>99.729553</ele>
<time>2010-08-29T10:55:08Z</time>
<desc>lat.=56.054058, lon.=26.533453, Alt.=99.729553m. Speed=0.252000m/h.</desc>
<speed>0.070000</speed>
</trkpt>
<trkpt lat="56.054058" lon="26.533453">
<ele>99.723694</ele>
<time>2010-08-29T10:55:09Z</time>
<desc>lat.=56.054058, lon.=26.533453, Alt.=99.723694m. Speed=0.216000m/h.</desc>
<speed>0.060000</speed>
</trkpt>
<trkpt lat="56.054058" lon="26.533455">
<ele>99.719788</ele>
<time>2010-08-29T10:55:10Z</time>
<desc>lat.=56.054058, lon.=26.533455, Alt.=99.719788m. Speed=0.108000m/h.</desc>
<speed>0.030000</speed>
</trkpt>
<trkpt lat="56.054058" lon="26.533455">
<ele>99.710022</ele>
<time>2010-08-29T10:55:11Z</time>
<desc>lat.=56.054058, lon.=26.533455, Alt.=99.710022m. Speed=0.180000m/h.</desc>
<speed>0.050000</speed>
</trkpt>
<trkpt lat="56.054058" lon="26.533455">
<ele>99.708069</ele>
<time>2010-08-29T10:55:12Z</time>
<desc>lat.=56.054058, lon.=26.533455, Alt.=99.708069m. Speed=0.504000m/h.</desc>
<speed>0.140000</speed>
</trkpt>
<trkpt lat="56.054058" lon="26.533453">
<ele>99.700256</ele>
<time>2010-08-29T10:55:13Z</time>
<desc>lat.=56.054058, lon.=26.533453, Alt.=99.700256m. Speed=0.360000m/h.</desc>
<speed>0.100000</speed>
</trkpt>
<trkpt lat="56.054058" lon="26.533453">
<ele>99.700256</ele>
<time>2010-08-29T10:55:14Z</time>
<desc>lat.=56.054058, lon.=26.533453, Alt.=99.700256m. Speed=0.360000m/h.</desc>
<speed>0.100000</speed>
</trkpt>
<trkpt lat="56.054058" lon="26.533451">
<ele>99.686584</ele>
<time>2010-08-29T10:55:15Z</time>
<desc>lat.=56.054058, lon.=26.533451, Alt.=99.686584m. Speed=0.360000m/h.</desc>
<speed>0.100000</speed>
</trkpt>
<trkpt lat="56.054058" lon="26.533451">
<ele>99.676819</ele>
<time>2010-08-29T10:55:16Z</time>
<desc>lat.=56.054058, lon.=26.533451, Alt.=99.676819m. Speed=0.072000m/h.</desc>
<speed>0.020000</speed>
</trkpt>
<trkpt lat="56.054058" lon="26.533451">
<ele>99.669006</ele>
<time>2010-08-29T10:55:17Z</time>
<desc>lat.=56.054058, lon.=26.533451, Alt.=99.669006m. Speed=0.036000m/h.</desc>
<speed>0.010000</speed>
</trkpt>
<trkpt lat="56.054058" lon="26.533451">
<ele>99.665100</ele>
<time>2010-08-29T10:55:18Z</time>
<desc>lat.=56.054058, lon.=26.533451, Alt.=99.665100m. Speed=0.180000m/h.</desc>
<speed>0.050000</speed>
</trkpt>
<trkpt lat="56.054058" lon="26.533451">
<ele>99.667053</ele>
<time>2010-08-29T10:55:19Z</time>
<desc>lat.=56.054058, lon.=26.533451, Alt.=99.667053m. Speed=0.252000m/h.</desc>
<speed>0.070000</speed>
</trkpt>
<trkpt lat="56.054058" lon="26.533451">
<ele>99.665100</ele>
<time>2010-08-29T10:55:20Z</time>
<desc>lat.=56.054058, lon.=26.533451, Alt.=99.665100m. Speed=0.396000m/h.</desc>
<speed>0.110000</speed>
</trkpt>
<trkpt lat="56.054058" lon="26.533451">
<ele>99.665100</ele>
<time>2010-08-29T10:55:21Z</time>
<desc>lat.=56.054058, lon.=26.533451, Alt.=99.665100m. Speed=0.288000m/h.</desc>
<speed>0.080000</speed>
</trkpt>
<trkpt lat="56.054062" lon="26.533451">
<ele>99.663147</ele>
<time>2010-08-29T10:55:22Z</time>
<desc>lat.=56.054062, lon.=26.533451, Alt.=99.663147m. Speed=0.468000m/h.</desc>
<speed>0.130000</speed>
</trkpt>
<trkpt lat="56.054062" lon="26.533451">
<ele>99.657288</ele>
<time>2010-08-29T10:55:23Z</time>
<desc>lat.=56.054062, lon.=26.533451, Alt.=99.657288m. Speed=0.108000m/h.</desc>
<speed>0.030000</speed>
</trkpt>
<trkpt lat="56.054062" lon="26.533451">
<ele>99.653381</ele>
<time>2010-08-29T10:55:24Z</time>
<desc>lat.=56.054062, lon.=26.533451, Alt.=99.653381m. Speed=0.072000m/h.</desc>
<speed>0.020000</speed>
</trkpt>
<trkpt lat="56.054062" lon="26.533451">
<ele>99.641663</ele>
<time>2010-08-29T10:55:25Z</time>
<desc>lat.=56.054062, lon.=26.533451, Alt.=99.641663m. Speed=0.288000m/h.</desc>
<speed>0.080000</speed>
</trkpt>
<trkpt lat="56.054062" lon="26.533451">
<ele>99.626038</ele>
<time>2010-08-29T10:55:26Z</time>
<desc>lat.=56.054062, lon.=26.533451, Alt.=99.626038m. Speed=0.288000m/h.</desc>
<speed>0.080000</speed>
</trkpt>
<trkpt lat="56.054066" lon="26.533451">
<ele>99.612366</ele>
<time>2010-08-29T10:55:27Z</time>
<desc>lat.=56.054066, lon.=26.533451, Alt.=99.612366m. Speed=0.288000m/h.</desc>
<speed>0.080000</speed>
</trkpt>
<trkpt lat="56.054066" lon="26.533453">
<ele>99.586975</ele>
<time>2010-08-29T10:55:28Z</time>
<desc>lat.=56.054066, lon.=26.533453, Alt.=99.586975m. Speed=0.144000m/h.</desc>
<speed>0.040000</speed>
</trkpt>
<trkpt lat="56.054066" lon="26.533453">
<ele>99.567444</ele>
<time>2010-08-29T10:55:29Z</time>
<desc>lat.=56.054066, lon.=26.533453, Alt.=99.567444m. Speed=0.324000m/h.</desc>
<speed>0.090000</speed>
</trkpt>
<trkpt lat="56.054066" lon="26.533453">
<ele>99.551819</ele>
<time>2010-08-29T10:55:30Z</time>
<desc>lat.=56.054066, lon.=26.533453, Alt.=99.551819m. Speed=0.216000m/h.</desc>
<speed>0.060000</speed>
</trkpt>
<trkpt lat="56.054066" lon="26.533453">
<ele>99.542053</ele>
<time>2010-08-29T10:55:31Z</time>
<desc>lat.=56.054066, lon.=26.533453, Alt.=99.542053m. Speed=0.216000m/h.</desc>
<speed>0.060000</speed>
</trkpt>
<trkpt lat="56.054066" lon="26.533453">
<ele>99.530334</ele>
<time>2010-08-29T10:55:32Z</time>
<desc>lat.=56.054066, lon.=26.533453, Alt.=99.530334m. Speed=0.180000m/h.</desc>
<speed>0.050000</speed>
</trkpt>
<trkpt lat="56.054070" lon="26.533455">
<ele>99.518616</ele>
<time>2010-08-29T10:55:33Z</time>
<desc>lat.=56.054070, lon.=26.533455, Alt.=99.518616m. Speed=0.396000m/h.</desc>
<speed>0.110000</speed>
</trkpt>
<trkpt lat="56.054070" lon="26.533455">
<ele>99.506897</ele>
<time>2010-08-29T10:55:34Z</time>
<desc>lat.=56.054070, lon.=26.533455, Alt.=99.506897m. Speed=0.144000m/h.</desc>
<speed>0.040000</speed>
</trkpt>
<trkpt lat="56.054070" lon="26.533455">
<ele>99.499084</ele>
<time>2010-08-29T10:55:35Z</time>
<desc>lat.=56.054070, lon.=26.533455, Alt.=99.499084m. Speed=0.360000m/h.</desc>
<speed>0.100000</speed>
</trkpt>
<trkpt lat="56.054070" lon="26.533455">
<ele>99.495178</ele>
<time>2010-08-29T10:55:36Z</time>
<desc>lat.=56.054070, lon.=26.533455, Alt.=99.495178m. Speed=0.432000m/h.</desc>
<speed>0.120000</speed>
</trkpt>
<trkpt lat="56.054070" lon="26.533453">
<ele>99.491272</ele>
<time>2010-08-29T10:55:37Z</time>
<desc>lat.=56.054070, lon.=26.533453, Alt.=99.491272m. Speed=0.504000m/h.</desc>
<speed>0.140000</speed>
</trkpt>
<trkpt lat="56.054073" lon="26.533453">
<ele>99.481506</ele>
<time>2010-08-29T10:55:38Z</time>
<desc>lat.=56.054073, lon.=26.533453, Alt.=99.481506m. Speed=0.432000m/h.</desc>
<speed>0.120000</speed>
</trkpt>
<trkpt lat="56.054073" lon="26.533453">
<ele>99.473694</ele>
<time>2010-08-29T10:55:39Z</time>
<desc>lat.=56.054073, lon.=26.533453, Alt.=99.473694m. Speed=0.396000m/h.</desc>
<speed>0.110000</speed>
</trkpt>
<trkpt lat="56.054073" lon="26.533451">
<ele>99.461975</ele>
<time>2010-08-29T10:55:40Z</time>
<desc>lat.=56.054073, lon.=26.533451, Alt.=99.461975m. Speed=0.324000m/h.</desc>
<speed>0.090000</speed>
</trkpt>
<trkpt lat="56.054077" lon="26.533451">
<ele>99.450256</ele>
<time>2010-08-29T10:55:41Z</time>
<desc>lat.=56.054077, lon.=26.533451, Alt.=99.450256m. Speed=0.252000m/h.</desc>
<speed>0.070000</speed>
</trkpt>
<trkpt lat="56.054077" lon="26.533451">
<ele>99.448303</ele>
<time>2010-08-29T10:55:42Z</time>
<desc>lat.=56.054077, lon.=26.533451, Alt.=99.448303m. Speed=0.108000m/h.</desc>
<speed>0.030000</speed>
</trkpt>
<trkpt lat="56.054077" lon="26.533451">
<ele>99.442444</ele>
<time>2010-08-29T10:55:43Z</time>
<desc>lat.=56.054077, lon.=26.533451, Alt.=99.442444m. Speed=0.252000m/h.</desc>
<speed>0.070000</speed>
</trkpt>
<trkpt lat="56.054077" lon="26.533451">
<ele>99.434631</ele>
<time>2010-08-29T10:55:44Z</time>
<desc>lat.=56.054077, lon.=26.533451, Alt.=99.434631m. Speed=0.144000m/h.</desc>
<speed>0.040000</speed>
</trkpt>
<trkpt lat="56.054077" lon="26.533451">
<ele>99.428772</ele>
<time>2010-08-29T10:55:45Z</time>
<desc>lat.=56.054077, lon.=26.533451, Alt.=99.428772m. Speed=0.180000m/h.</desc>
<speed>0.050000</speed>
</trkpt>
<trkpt lat="56.054073" lon="26.533451">
<ele>99.426819</ele>
<time>2010-08-29T10:55:46Z</time>
<desc>lat.=56.054073, lon.=26.533451, Alt.=99.426819m. Speed=0.180000m/h.</desc>
<speed>0.050000</speed>
</trkpt>
<trkpt lat="56.054073" lon="26.533451">
<ele>99.422913</ele>
<time>2010-08-29T10:55:47Z</time>
<desc>lat.=56.054073, lon.=26.533451, Alt.=99.422913m. Speed=0.468000m/h.</desc>
<speed>0.130000</speed>
</trkpt>
<trkpt lat="56.054073" lon="26.533451">
<ele>99.422913</ele>
<time>2010-08-29T10:55:48Z</time>
<desc>lat.=56.054073, lon.=26.533451, Alt.=99.422913m. Speed=0.252000m/h.</desc>
<speed>0.070000</speed>
</trkpt>
<trkpt lat="56.054073" lon="26.533449">
<ele>99.426819</ele>
<time>2010-08-29T10:55:49Z</time>
<desc>lat.=56.054073, lon.=26.533449, Alt.=99.426819m. Speed=0.432000m/h.</desc>
<speed>0.120000</speed>
</trkpt>
<trkpt lat="56.054073" lon="26.533447">
<ele>99.426819</ele>
<time>2010-08-29T10:55:50Z</time>
<desc>lat.=56.054073, lon.=26.533447, Alt.=99.426819m. Speed=0.396000m/h.</desc>
<speed>0.110000</speed>
</trkpt>
<trkpt lat="56.054070" lon="26.533447">
<ele>99.419006</ele>
<time>2010-08-29T10:55:51Z</time>
<desc>lat.=56.054070, lon.=26.533447, Alt.=99.419006m. Speed=0.144000m/h.</desc>
<speed>0.040000</speed>
</trkpt>
<trkpt lat="56.054070" lon="26.533445">
<ele>99.411194</ele>
<time>2010-08-29T10:55:52Z</time>
<desc>lat.=56.054070, lon.=26.533445, Alt.=99.411194m. Speed=0.144000m/h.</desc>
<speed>0.040000</speed>
</trkpt>
<trkpt lat="56.054070" lon="26.533445">
<ele>99.407288</ele>
<time>2010-08-29T10:55:53Z</time>
<desc>lat.=56.054070, lon.=26.533445, Alt.=99.407288m. Speed=0.360000m/h.</desc>
<speed>0.100000</speed>
</trkpt>
<trkpt lat="56.054073" lon="26.533445">
<ele>99.405334</ele>
<time>2010-08-29T10:55:54Z</time>
<desc>lat.=56.054073, lon.=26.533445, Alt.=99.405334m. Speed=0.252000m/h.</desc>
<speed>0.070000</speed>
</trkpt>
<trkpt lat="56.054073" lon="26.533445">
<ele>99.403381</ele>
<time>2010-08-29T10:55:55Z</time>
<desc>lat.=56.054073, lon.=26.533445, Alt.=99.403381m. Speed=0.072000m/h.</desc>
<speed>0.020000</speed>
</trkpt>
<trkpt lat="56.054073" lon="26.533445">
<ele>99.393616</ele>
<time>2010-08-29T10:55:56Z</time>
<desc>lat.=56.054073, lon.=26.533445, Alt.=99.393616m. Speed=0.180000m/h.</desc>
<speed>0.050000</speed>
</trkpt>
<trkpt lat="56.054073" lon="26.533445">
<ele>99.385803</ele>
<time>2010-08-29T10:55:57Z</time>
<desc>lat.=56.054073, lon.=26.533445, Alt.=99.385803m. Speed=0.072000m/h.</desc>
<speed>0.020000</speed>
</trkpt>
<trkpt lat="56.054073" lon="26.533445">
<ele>99.381897</ele>
<time>2010-08-29T10:55:58Z</time>
<desc>lat.=56.054073, lon.=26.533445, Alt.=99.381897m. Speed=0.072000m/h.</desc>
<speed>0.020000</speed>
</trkpt>
<trkpt lat="56.054073" lon="26.533445">
<ele>99.374084</ele>
<time>2010-08-29T10:55:59Z</time>
<desc>lat.=56.054073, lon.=26.533445, Alt.=99.374084m. Speed=0.072000m/h.</desc>
<speed>0.020000</speed>
</trkpt>
<trkpt lat="56.054073" lon="26.533445">
<ele>99.368225</ele>
<time>2010-08-29T10:56:00Z</time>
<desc>lat.=56.054073, lon.=26.533445, Alt.=99.368225m. Speed=0.072000m/h.</desc>
<speed>0.020000</speed>
</trkpt>
<trkpt lat="56.054073" lon="26.533445">
<ele>99.360413</ele>
<time>2010-08-29T10:56:01Z</time>
<desc>lat.=56.054073, lon.=26.533445, Alt.=99.360413m. Speed=0.072000m/h.</desc>
<speed>0.020000</speed>
</trkpt>
<trkpt lat="56.054070" lon="26.533445">
<ele>99.354553</ele>
<time>2010-08-29T10:56:02Z</time>
<desc>lat.=56.054070, lon.=26.533445, Alt.=99.354553m. Speed=0.144000m/h.</desc>
<speed>0.040000</speed>
</trkpt>
<trkpt lat="56.054070" lon="26.533445">
<ele>99.348694</ele>
<time>2010-08-29T10:56:03Z</time>
<desc>lat.=56.054070, lon.=26.533445, Alt.=99.348694m. Speed=0.144000m/h.</desc>
<speed>0.040000</speed>
</trkpt>
<trkpt lat="56.054070" lon="26.533445">
<ele>99.346741</ele>
<time>2010-08-29T10:56:04Z</time>
<desc>lat.=56.054070, lon.=26.533445, Alt.=99.346741m. Speed=0.000000m/h.</desc>
<speed>0.000000</speed>
</trkpt>
<trkpt lat="56.054070" lon="26.533445">
<ele>99.340881</ele>
<time>2010-08-29T10:56:05Z</time>
<desc>lat.=56.054070, lon.=26.533445, Alt.=99.340881m. Speed=0.108000m/h.</desc>
<speed>0.030000</speed>
</trkpt>
<trkpt lat="56.054070" lon="26.533445">
<ele>99.333069</ele>
<time>2010-08-29T10:56:06Z</time>
<desc>lat.=56.054070, lon.=26.533445, Alt.=99.333069m. Speed=0.000000m/h.</desc>
<speed>0.000000</speed>
</trkpt>
<trkpt lat="56.054070" lon="26.533445">
<ele>99.323303</ele>
<time>2010-08-29T10:56:07Z</time>
<desc>lat.=56.054070, lon.=26.533445, Alt.=99.323303m. Speed=0.036000m/h.</desc>
<speed>0.010000</speed>
</trkpt>
<trkpt lat="56.054070" lon="26.533445">
<ele>99.317444</ele>
<time>2010-08-29T10:56:08Z</time>
<desc>lat.=56.054070, lon.=26.533445, Alt.=99.317444m. Speed=0.000000m/h.</desc>
<speed>0.000000</speed>
</trkpt>
<trkpt lat="56.054070" lon="26.533445">
<ele>99.315491</ele>
<time>2010-08-29T10:56:09Z</time>
<desc>lat.=56.054070, lon.=26.533445, Alt.=99.315491m. Speed=0.036000m/h.</desc>
<speed>0.010000</speed>
</trkpt>
<trkpt lat="56.054070" lon="26.533445">
<ele>99.315491</ele>
<time>2010-08-29T10:56:10Z</time>
<desc>lat.=56.054070, lon.=26.533445, Alt.=99.315491m. Speed=0.036000m/h.</desc>
<speed>0.010000</speed>
</trkpt>
<trkpt lat="56.054070" lon="26.533445">
<ele>99.315491</ele>
<time>2010-08-29T10:56:11Z</time>
<desc>lat.=56.054070, lon.=26.533445, Alt.=99.315491m. Speed=0.000000m/h.</desc>
<speed>0.000000</speed>
</trkpt>
<trkpt lat="56.054070" lon="26.533445">
<ele>99.313538</ele>
<time>2010-08-29T10:56:12Z</time>
<desc>lat.=56.054070, lon.=26.533445, Alt.=99.313538m. Speed=0.036000m/h.</desc>
<speed>0.010000</speed>
</trkpt>
<trkpt lat="56.054070" lon="26.533445">
<ele>99.309631</ele>
<time>2010-08-29T10:56:13Z</time>
<desc>lat.=56.054070, lon.=26.533445, Alt.=99.309631m. Speed=0.144000m/h.</desc>
<speed>0.040000</speed>
</trkpt>
<trkpt lat="56.054070" lon="26.533445">
<ele>99.305725</ele>
<time>2010-08-29T10:56:14Z</time>
<desc>lat.=56.054070, lon.=26.533445, Alt.=99.305725m. Speed=0.000000m/h.</desc>
<speed>0.000000</speed>
</trkpt>
<trkpt lat="56.054070" lon="26.533445">
<ele>99.297913</ele>
<time>2010-08-29T10:56:15Z</time>
<desc>lat.=56.054070, lon.=26.533445, Alt.=99.297913m. Speed=0.000000m/h.</desc>
<speed>0.000000</speed>
</trkpt>
<trkpt lat="56.054070" lon="26.533445">
<ele>99.292053</ele>
<time>2010-08-29T10:56:16Z</time>
<desc>lat.=56.054070, lon.=26.533445, Alt.=99.292053m. Speed=0.036000m/h.</desc>
<speed>0.010000</speed>
</trkpt>
<trkpt lat="56.054070" lon="26.533445">
<ele>99.292053</ele>
<time>2010-08-29T10:56:17Z</time>
<desc>lat.=56.054070, lon.=26.533445, Alt.=99.292053m. Speed=0.000000m/h.</desc>
<speed>0.000000</speed>
</trkpt>
<trkpt lat="56.054070" lon="26.533445">
<ele>99.292053</ele>
<time>2010-08-29T10:56:18Z</time>
<desc>lat.=56.054070, lon.=26.533445, Alt.=99.292053m. Speed=0.036000m/h.</desc>
<speed>0.010000</speed>
</trkpt>
<trkpt lat="56.054070" lon="26.533445">
<ele>99.292053</ele>
<time>2010-08-29T10:56:19Z</time>
<desc>lat.=56.054070, lon.=26.533445, Alt.=99.292053m. Speed=0.036000m/h.</desc>
<speed>0.010000</speed>
</trkpt>
<trkpt lat="56.054070" lon="26.533445">
<ele>99.290100</ele>
<time>2010-08-29T10:56:20Z</time>
<desc>lat.=56.054070, lon.=26.533445, Alt.=99.290100m. Speed=0.000000m/h.</desc>
<speed>0.000000</speed>
</trkpt>
<trkpt lat="56.054070" lon="26.533445">
<ele>99.288147</ele>
<time>2010-08-29T10:56:21Z</time>
<desc>lat.=56.054070, lon.=26.533445, Alt.=99.288147m. Speed=0.036000m/h.</desc>
<speed>0.010000</speed>
</trkpt>
<trkpt lat="56.054070" lon="26.533445">
<ele>99.288147</ele>
<time>2010-08-29T10:56:22Z</time>
<desc>lat.=56.054070, lon.=26.533445, Alt.=99.288147m. Speed=0.000000m/h.</desc>
<speed>0.000000</speed>
</trkpt>
<trkpt lat="56.054070" lon="26.533445">
<ele>99.290100</ele>
<time>2010-08-29T10:56:23Z</time>
<desc>lat.=56.054070, lon.=26.533445, Alt.=99.290100m. Speed=0.036000m/h.</desc>
<speed>0.010000</speed>
</trkpt>
<trkpt lat="56.054070" lon="26.533445">
<ele>99.280334</ele>
<time>2010-08-29T10:56:24Z</time>
<desc>lat.=56.054070, lon.=26.533445, Alt.=99.280334m. Speed=0.036000m/h.</desc>
<speed>0.010000</speed>
</trkpt>
<trkpt lat="56.054070" lon="26.533445">
<ele>99.272522</ele>
<time>2010-08-29T10:56:25Z</time>
<desc>lat.=56.054070, lon.=26.533445, Alt.=99.272522m. Speed=0.036000m/h.</desc>
<speed>0.010000</speed>
</trkpt>
<trkpt lat="56.054070" lon="26.533445">
<ele>99.266663</ele>
<time>2010-08-29T10:56:26Z</time>
<desc>lat.=56.054070, lon.=26.533445, Alt.=99.266663m. Speed=0.072000m/h.</desc>
<speed>0.020000</speed>
</trkpt>
<trkpt lat="56.054070" lon="26.533445">
<ele>99.266663</ele>
<time>2010-08-29T10:56:27Z</time>
<desc>lat.=56.054070, lon.=26.533445, Alt.=99.266663m. Speed=0.036000m/h.</desc>
<speed>0.010000</speed>
</trkpt>
<trkpt lat="56.054070" lon="26.533445">
<ele>99.260803</ele>
<time>2010-08-29T10:56:28Z</time>
<desc>lat.=56.054070, lon.=26.533445, Alt.=99.260803m. Speed=0.036000m/h.</desc>
<speed>0.010000</speed>
</trkpt>
<trkpt lat="56.054070" lon="26.533445">
<ele>99.254944</ele>
<time>2010-08-29T10:56:29Z</time>
<desc>lat.=56.054070, lon.=26.533445, Alt.=99.254944m. Speed=0.036000m/h.</desc>
<speed>0.010000</speed>
</trkpt>
<trkpt lat="56.054070" lon="26.533445">
<ele>99.254944</ele>
<time>2010-08-29T10:56:30Z</time>
<desc>lat.=56.054070, lon.=26.533445, Alt.=99.254944m. Speed=0.036000m/h.</desc>
<speed>0.010000</speed>
</trkpt>
<trkpt lat="56.054070" lon="26.533445">
<ele>99.252991</ele>
<time>2010-08-29T10:56:31Z</time>
<desc>lat.=56.054070, lon.=26.533445, Alt.=99.252991m. Speed=0.036000m/h.</desc>
<speed>0.010000</speed>
</trkpt>
<trkpt lat="56.054070" lon="26.533445">
<ele>99.256897</ele>
<time>2010-08-29T10:56:32Z</time>
<desc>lat.=56.054070, lon.=26.533445, Alt.=99.256897m. Speed=0.000000m/h.</desc>
<speed>0.000000</speed>
</trkpt>
<trkpt lat="56.054070" lon="26.533445">
<ele>99.260803</ele>
<time>2010-08-29T10:56:33Z</time>
<desc>lat.=56.054070, lon.=26.533445, Alt.=99.260803m. Speed=0.000000m/h.</desc>
<speed>0.000000</speed>
</trkpt>
<trkpt lat="56.054070" lon="26.533445">
<ele>99.264709</ele>
<time>2010-08-29T10:56:34Z</time>
<desc>lat.=56.054070, lon.=26.533445, Alt.=99.264709m. Speed=0.000000m/h.</desc>
<speed>0.000000</speed>
</trkpt>
<trkpt lat="56.054070" lon="26.533445">
<ele>99.268616</ele>
<time>2010-08-29T10:56:35Z</time>
<desc>lat.=56.054070, lon.=26.533445, Alt.=99.268616m. Speed=0.000000m/h.</desc>
<speed>0.000000</speed>
</trkpt>
<trkpt lat="56.054070" lon="26.533445">
<ele>99.268616</ele>
<time>2010-08-29T10:56:36Z</time>
<desc>lat.=56.054070, lon.=26.533445, Alt.=99.268616m. Speed=0.036000m/h.</desc>
<speed>0.010000</speed>
</trkpt>
<trkpt lat="56.054070" lon="26.533445">
<ele>99.270569</ele>
<time>2010-08-29T10:56:37Z</time>
<desc>lat.=56.054070, lon.=26.533445, Alt.=99.270569m. Speed=0.072000m/h.</desc>
<speed>0.020000</speed>
</trkpt>
<trkpt lat="56.054070" lon="26.533445">
<ele>99.280334</ele>
<time>2010-08-29T10:56:38Z</time>
<desc>lat.=56.054070, lon.=26.533445, Alt.=99.280334m. Speed=0.036000m/h.</desc>
<speed>0.010000</speed>
</trkpt>
<trkpt lat="56.054070" lon="26.533445">
<ele>99.290100</ele>
<time>2010-08-29T10:56:39Z</time>
<desc>lat.=56.054070, lon.=26.533445, Alt.=99.290100m. Speed=0.072000m/h.</desc>
<speed>0.020000</speed>
</trkpt>
<trkpt lat="56.054070" lon="26.533445">
<ele>99.292053</ele>
<time>2010-08-29T10:56:40Z</time>
<desc>lat.=56.054070, lon.=26.533445, Alt.=99.292053m. Speed=0.036000m/h.</desc>
<speed>0.010000</speed>
</trkpt>
<trkpt lat="56.054070" lon="26.533445">
<ele>99.303772</ele>
<time>2010-08-29T10:56:41Z</time>
<desc>lat.=56.054070, lon.=26.533445, Alt.=99.303772m. Speed=0.000000m/h.</desc>
<speed>0.000000</speed>
</trkpt>
<trkpt lat="56.054070" lon="26.533445">
<ele>99.307678</ele>
<time>2010-08-29T10:56:42Z</time>
<desc>lat.=56.054070, lon.=26.533445, Alt.=99.307678m. Speed=0.072000m/h.</desc>
<speed>0.020000</speed>
</trkpt>
<trkpt lat="56.054070" lon="26.533445">
<ele>99.323303</ele>
<time>2010-08-29T10:56:43Z</time>
<desc>lat.=56.054070, lon.=26.533445, Alt.=99.323303m. Speed=0.036000m/h.</desc>
<speed>0.010000</speed>
</trkpt>
<trkpt lat="56.054070" lon="26.533445">
<ele>99.333069</ele>
<time>2010-08-29T10:56:44Z</time>
<desc>lat.=56.054070, lon.=26.533445, Alt.=99.333069m. Speed=0.036000m/h.</desc>
<speed>0.010000</speed>
</trkpt>
<trkpt lat="56.054070" lon="26.533445">
<ele>99.335022</ele>
<time>2010-08-29T10:56:45Z</time>
<desc>lat.=56.054070, lon.=26.533445, Alt.=99.335022m. Speed=0.000000m/h.</desc>
<speed>0.000000</speed>
</trkpt>
<trkpt lat="56.054070" lon="26.533445">
<ele>99.336975</ele>
<time>2010-08-29T10:56:46Z</time>
<desc>lat.=56.054070, lon.=26.533445, Alt.=99.336975m. Speed=0.072000m/h.</desc>
<speed>0.020000</speed>
</trkpt>
<trkpt lat="56.054070" lon="26.533445">
<ele>99.335022</ele>
<time>2010-08-29T10:56:47Z</time>
<desc>lat.=56.054070, lon.=26.533445, Alt.=99.335022m. Speed=0.036000m/h.</desc>
<speed>0.010000</speed>
</trkpt>
<trkpt lat="56.054070" lon="26.533445">
<ele>99.342834</ele>
<time>2010-08-29T10:56:48Z</time>
<desc>lat.=56.054070, lon.=26.533445, Alt.=99.342834m. Speed=0.036000m/h.</desc>
<speed>0.010000</speed>
</trkpt>
<trkpt lat="56.054070" lon="26.533445">
<ele>99.348694</ele>
<time>2010-08-29T10:56:49Z</time>
<desc>lat.=56.054070, lon.=26.533445, Alt.=99.348694m. Speed=0.036000m/h.</desc>
<speed>0.010000</speed>
</trkpt>
<trkpt lat="56.054070" lon="26.533445">
<ele>99.354553</ele>
<time>2010-08-29T10:56:50Z</time>
<desc>lat.=56.054070, lon.=26.533445, Alt.=99.354553m. Speed=0.036000m/h.</desc>
<speed>0.010000</speed>
</trkpt>
<trkpt lat="56.054070" lon="26.533445">
<ele>99.350647</ele>
<time>2010-08-29T10:56:51Z</time>
<desc>lat.=56.054070, lon.=26.533445, Alt.=99.350647m. Speed=0.036000m/h.</desc>
<speed>0.010000</speed>
</trkpt>
<trkpt lat="56.054070" lon="26.533445">
<ele>99.350647</ele>
<time>2010-08-29T10:56:52Z</time>
<desc>lat.=56.054070, lon.=26.533445, Alt.=99.350647m. Speed=0.036000m/h.</desc>
<speed>0.010000</speed>
</trkpt>
<trkpt lat="56.054070" lon="26.533445">
<ele>99.344788</ele>
<time>2010-08-29T10:56:53Z</time>
<desc>lat.=56.054070, lon.=26.533445, Alt.=99.344788m. Speed=0.072000m/h.</desc>
<speed>0.020000</speed>
</trkpt>
<trkpt lat="56.054070" lon="26.533445">
<ele>99.346741</ele>
<time>2010-08-29T10:56:54Z</time>
<desc>lat.=56.054070, lon.=26.533445, Alt.=99.346741m. Speed=0.000000m/h.</desc>
<speed>0.000000</speed>
</trkpt>
<trkpt lat="56.054070" lon="26.533445">
<ele>99.350647</ele>
<time>2010-08-29T10:56:55Z</time>
<desc>lat.=56.054070, lon.=26.533445, Alt.=99.350647m. Speed=0.000000m/h.</desc>
<speed>0.000000</speed>
</trkpt>
<trkpt lat="56.054070" lon="26.533445">
<ele>99.348694</ele>
<time>2010-08-29T10:56:56Z</time>
<desc>lat.=56.054070, lon.=26.533445, Alt.=99.348694m. Speed=0.036000m/h.</desc>
<speed>0.010000</speed>
</trkpt>
<trkpt lat="56.054070" lon="26.533445">
<ele>99.352600</ele>
<time>2010-08-29T10:56:57Z</time>
<desc>lat.=56.054070, lon.=26.533445, Alt.=99.352600m. Speed=0.036000m/h.</desc>
<speed>0.010000</speed>
</trkpt>
<trkpt lat="56.054070" lon="26.533445">
<ele>99.350647</ele>
<time>2010-08-29T10:56:58Z</time>
<desc>lat.=56.054070, lon.=26.533445, Alt.=99.350647m. Speed=0.072000m/h.</desc>
<speed>0.020000</speed>
</trkpt>
<trkpt lat="56.054070" lon="26.533445">
<ele>99.346741</ele>
<time>2010-08-29T10:56:59Z</time>
<desc>lat.=56.054070, lon.=26.533445, Alt.=99.346741m. Speed=0.000000m/h.</desc>
<speed>0.000000</speed>
</trkpt>
<trkpt lat="56.054070" lon="26.533445">
<ele>99.344788</ele>
<time>2010-08-29T10:57:00Z</time>
<desc>lat.=56.054070, lon.=26.533445, Alt.=99.344788m. Speed=0.036000m/h.</desc>
<speed>0.010000</speed>
</trkpt>
<trkpt lat="56.054070" lon="26.533445">
<ele>99.350647</ele>
<time>2010-08-29T10:57:01Z</time>
<desc>lat.=56.054070, lon.=26.533445, Alt.=99.350647m. Speed=0.000000m/h.</desc>
<speed>0.000000</speed>
</trkpt>
<trkpt lat="56.054070" lon="26.533445">
<ele>99.350647</ele>
<time>2010-08-29T10:57:02Z</time>
<desc>lat.=56.054070, lon.=26.533445, Alt.=99.350647m. Speed=0.036000m/h.</desc>
<speed>0.010000</speed>
</trkpt>
<trkpt lat="56.054070" lon="26.533445">
<ele>99.356506</ele>
<time>2010-08-29T10:57:03Z</time>
<desc>lat.=56.054070, lon.=26.533445, Alt.=99.356506m. Speed=0.036000m/h.</desc>
<speed>0.010000</speed>
</trkpt>
<trkpt lat="56.054070" lon="26.533445">
<ele>99.356506</ele>
<time>2010-08-29T10:57:04Z</time>
<desc>lat.=56.054070, lon.=26.533445, Alt.=99.356506m. Speed=0.036000m/h.</desc>
<speed>0.010000</speed>
</trkpt>
<trkpt lat="56.054070" lon="26.533445">
<ele>99.358459</ele>
<time>2010-08-29T10:57:05Z</time>
<desc>lat.=56.054070, lon.=26.533445, Alt.=99.358459m. Speed=0.036000m/h.</desc>
<speed>0.010000</speed>
</trkpt>
<trkpt lat="56.054070" lon="26.533445">
<ele>99.358459</ele>
<time>2010-08-29T10:57:06Z</time>
<desc>lat.=56.054070, lon.=26.533445, Alt.=99.358459m. Speed=0.072000m/h.</desc>
<speed>0.020000</speed>
</trkpt>
<trkpt lat="56.054070" lon="26.533445">
<ele>99.356506</ele>
<time>2010-08-29T10:57:07Z</time>
<desc>lat.=56.054070, lon.=26.533445, Alt.=99.356506m. Speed=0.036000m/h.</desc>
<speed>0.010000</speed>
</trkpt>
<trkpt lat="56.054070" lon="26.533445">
<ele>99.356506</ele>
<time>2010-08-29T10:57:08Z</time>
<desc>lat.=56.054070, lon.=26.533445, Alt.=99.356506m. Speed=0.000000m/h.</desc>
<speed>0.000000</speed>
</trkpt>
<trkpt lat="56.054070" lon="26.533445">
<ele>99.350647</ele>
<time>2010-08-29T10:57:09Z</time>
<desc>lat.=56.054070, lon.=26.533445, Alt.=99.350647m. Speed=0.036000m/h.</desc>
<speed>0.010000</speed>
</trkpt>
<trkpt lat="56.054070" lon="26.533445">
<ele>99.346741</ele>
<time>2010-08-29T10:57:10Z</time>
<desc>lat.=56.054070, lon.=26.533445, Alt.=99.346741m. Speed=0.036000m/h.</desc>
<speed>0.010000</speed>
</trkpt>
<trkpt lat="56.054070" lon="26.533445">
<ele>99.348694</ele>
<time>2010-08-29T10:57:11Z</time>
<desc>lat.=56.054070, lon.=26.533445, Alt.=99.348694m. Speed=0.000000m/h.</desc>
<speed>0.000000</speed>
</trkpt>
<trkpt lat="56.054070" lon="26.533445">
<ele>99.344788</ele>
<time>2010-08-29T10:57:12Z</time>
<desc>lat.=56.054070, lon.=26.533445, Alt.=99.344788m. Speed=0.036000m/h.</desc>
<speed>0.010000</speed>
</trkpt>
<trkpt lat="56.054070" lon="26.533445">
<ele>99.342834</ele>
<time>2010-08-29T10:57:13Z</time>
<desc>lat.=56.054070, lon.=26.533445, Alt.=99.342834m. Speed=0.036000m/h.</desc>
<speed>0.010000</speed>
</trkpt>
<trkpt lat="56.054070" lon="26.533445">
<ele>99.340881</ele>
<time>2010-08-29T10:57:14Z</time>
<desc>lat.=56.054070, lon.=26.533445, Alt.=99.340881m. Speed=0.036000m/h.</desc>
<speed>0.010000</speed>
</trkpt>
<trkpt lat="56.054070" lon="26.533445">
<ele>99.336975</ele>
<time>2010-08-29T10:57:15Z</time>
<desc>lat.=56.054070, lon.=26.533445, Alt.=99.336975m. Speed=0.036000m/h.</desc>
<speed>0.010000</speed>
</trkpt>
<trkpt lat="56.054070" lon="26.533445">
<ele>99.336975</ele>
<time>2010-08-29T10:57:16Z</time>
<desc>lat.=56.054070, lon.=26.533445, Alt.=99.336975m. Speed=0.000000m/h.</desc>
<speed>0.000000</speed>
</trkpt>
<trkpt lat="56.054070" lon="26.533445">
<ele>99.336975</ele>
<time>2010-08-29T10:57:17Z</time>
<desc>lat.=56.054070, lon.=26.533445, Alt.=99.336975m. Speed=0.036000m/h.</desc>
<speed>0.010000</speed>
</trkpt>
<trkpt lat="56.054070" lon="26.533445">
<ele>99.333069</ele>
<time>2010-08-29T10:57:18Z</time>
<desc>lat.=56.054070, lon.=26.533445, Alt.=99.333069m. Speed=0.000000m/h.</desc>
<speed>0.000000</speed>
</trkpt>
<trkpt lat="56.054070" lon="26.533445">
<ele>99.329163</ele>
<time>2010-08-29T10:57:19Z</time>
<desc>lat.=56.054070, lon.=26.533445, Alt.=99.329163m. Speed=0.036000m/h.</desc>
<speed>0.010000</speed>
</trkpt>
<trkpt lat="56.054070" lon="26.533445">
<ele>99.325256</ele>
<time>2010-08-29T10:57:20Z</time>
<desc>lat.=56.054070, lon.=26.533445, Alt.=99.325256m. Speed=0.036000m/h.</desc>
<speed>0.010000</speed>
</trkpt>
<trkpt lat="56.054070" lon="26.533445">
<ele>99.321350</ele>
<time>2010-08-29T10:57:21Z</time>
<desc>lat.=56.054070, lon.=26.533445, Alt.=99.321350m. Speed=0.000000m/h.</desc>
<speed>0.000000</speed>
</trkpt>
<trkpt lat="56.054070" lon="26.533445">
<ele>99.317444</ele>
<time>2010-08-29T10:57:22Z</time>
<desc>lat.=56.054070, lon.=26.533445, Alt.=99.317444m. Speed=0.036000m/h.</desc>
<speed>0.010000</speed>
</trkpt>
<trkpt lat="56.054070" lon="26.533445">
<ele>99.317444</ele>
<time>2010-08-29T10:57:23Z</time>
<desc>lat.=56.054070, lon.=26.533445, Alt.=99.317444m. Speed=0.036000m/h.</desc>
<speed>0.010000</speed>
</trkpt>
<trkpt lat="56.054070" lon="26.533445">
<ele>99.311584</ele>
<time>2010-08-29T10:57:24Z</time>
<desc>lat.=56.054070, lon.=26.533445, Alt.=99.311584m. Speed=0.000000m/h.</desc>
<speed>0.000000</speed>
</trkpt>
<trkpt lat="56.054070" lon="26.533445">
<ele>99.307678</ele>
<time>2010-08-29T10:57:25Z</time>
<desc>lat.=56.054070, lon.=26.533445, Alt.=99.307678m. Speed=0.000000m/h.</desc>
<speed>0.000000</speed>
</trkpt>
<trkpt lat="56.054070" lon="26.533445">
<ele>99.299866</ele>
<time>2010-08-29T10:57:26Z</time>
<desc>lat.=56.054070, lon.=26.533445, Alt.=99.299866m. Speed=0.036000m/h.</desc>
<speed>0.010000</speed>
</trkpt>
<trkpt lat="56.054070" lon="26.533445">
<ele>99.292053</ele>
<time>2010-08-29T10:57:27Z</time>
<desc>lat.=56.054070, lon.=26.533445, Alt.=99.292053m. Speed=0.036000m/h.</desc>
<speed>0.010000</speed>
</trkpt>
<trkpt lat="56.054070" lon="26.533445">
<ele>99.290100</ele>
<time>2010-08-29T10:57:28Z</time>
<desc>lat.=56.054070, lon.=26.533445, Alt.=99.290100m. Speed=0.036000m/h.</desc>
<speed>0.010000</speed>
</trkpt>
<trkpt lat="56.054070" lon="26.533445">
<ele>99.280334</ele>
<time>2010-08-29T10:57:29Z</time>
<desc>lat.=56.054070, lon.=26.533445, Alt.=99.280334m. Speed=0.036000m/h.</desc>
<speed>0.010000</speed>
</trkpt>
<trkpt lat="56.054070" lon="26.533445">
<ele>99.276428</ele>
<time>2010-08-29T10:57:30Z</time>
<desc>lat.=56.054070, lon.=26.533445, Alt.=99.276428m. Speed=0.036000m/h.</desc>
<speed>0.010000</speed>
</trkpt>
<trkpt lat="56.054070" lon="26.533445">
<ele>99.274475</ele>
<time>2010-08-29T10:57:31Z</time>
<desc>lat.=56.054070, lon.=26.533445, Alt.=99.274475m. Speed=0.000000m/h.</desc>
<speed>0.000000</speed>
</trkpt>
<trkpt lat="56.054070" lon="26.533445">
<ele>99.270569</ele>
<time>2010-08-29T10:57:32Z</time>
<desc>lat.=56.054070, lon.=26.533445, Alt.=99.270569m. Speed=0.000000m/h.</desc>
<speed>0.000000</speed>
</trkpt>
<trkpt lat="56.054070" lon="26.533445">
<ele>99.274475</ele>
<time>2010-08-29T10:57:33Z</time>
<desc>lat.=56.054070, lon.=26.533445, Alt.=99.274475m. Speed=0.036000m/h.</desc>
<speed>0.010000</speed>
</trkpt>
<trkpt lat="56.054070" lon="26.533445">
<ele>99.274475</ele>
<time>2010-08-29T10:57:34Z</time>
<desc>lat.=56.054070, lon.=26.533445, Alt.=99.274475m. Speed=0.036000m/h.</desc>
<speed>0.010000</speed>
</trkpt>
<trkpt lat="56.054070" lon="26.533445">
<ele>99.278381</ele>
<time>2010-08-29T10:57:35Z</time>
<desc>lat.=56.054070, lon.=26.533445, Alt.=99.278381m. Speed=0.036000m/h.</desc>
<speed>0.010000</speed>
</trkpt>
<trkpt lat="56.054070" lon="26.533443">
<ele>99.280334</ele>
<time>2010-08-29T10:57:36Z</time>
<desc>lat.=56.054070, lon.=26.533443, Alt.=99.280334m. Speed=0.000000m/h.</desc>
<speed>0.000000</speed>
</trkpt>
<trkpt lat="56.054070" lon="26.533443">
<ele>99.284241</ele>
<time>2010-08-29T10:57:37Z</time>
<desc>lat.=56.054070, lon.=26.533443, Alt.=99.284241m. Speed=0.036000m/h.</desc>
<speed>0.010000</speed>
</trkpt>
<trkpt lat="56.054070" lon="26.533443">
<ele>99.286194</ele>
<time>2010-08-29T10:57:38Z</time>
<desc>lat.=56.054070, lon.=26.533443, Alt.=99.286194m. Speed=0.036000m/h.</desc>
<speed>0.010000</speed>
</trkpt>
<trkpt lat="56.054070" lon="26.533443">
<ele>99.282288</ele>
<time>2010-08-29T10:57:39Z</time>
<desc>lat.=56.054070, lon.=26.533443, Alt.=99.282288m. Speed=0.072000m/h.</desc>
<speed>0.020000</speed>
</trkpt>
<trkpt lat="56.054070" lon="26.533443">
<ele>99.280334</ele>
<time>2010-08-29T10:57:40Z</time>
<desc>lat.=56.054070, lon.=26.533443, Alt.=99.280334m. Speed=0.036000m/h.</desc>
<speed>0.010000</speed>
</trkpt>
<trkpt lat="56.054070" lon="26.533443">
<ele>99.276428</ele>
<time>2010-08-29T10:57:41Z</time>
<desc>lat.=56.054070, lon.=26.533443, Alt.=99.276428m. Speed=0.036000m/h.</desc>
<speed>0.010000</speed>
</trkpt>
<trkpt lat="56.054070" lon="26.533443">
<ele>99.270569</ele>
<time>2010-08-29T10:57:42Z</time>
<desc>lat.=56.054070, lon.=26.533443, Alt.=99.270569m. Speed=0.072000m/h.</desc>
<speed>0.020000</speed>
</trkpt>
<trkpt lat="56.054070" lon="26.533443">
<ele>99.264709</ele>
<time>2010-08-29T10:57:43Z</time>
<desc>lat.=56.054070, lon.=26.533443, Alt.=99.264709m. Speed=0.072000m/h.</desc>
<speed>0.020000</speed>
</trkpt>
<trkpt lat="56.054070" lon="26.533443">
<ele>99.258850</ele>
<time>2010-08-29T10:57:44Z</time>
<desc>lat.=56.054070, lon.=26.533443, Alt.=99.258850m. Speed=0.036000m/h.</desc>
<speed>0.010000</speed>
</trkpt>
<trkpt lat="56.054070" lon="26.533443">
<ele>99.254944</ele>
<time>2010-08-29T10:57:45Z</time>
<desc>lat.=56.054070, lon.=26.533443, Alt.=99.254944m. Speed=0.036000m/h.</desc>
<speed>0.010000</speed>
</trkpt>
<trkpt lat="56.054070" lon="26.533443">
<ele>99.251038</ele>
<time>2010-08-29T10:57:46Z</time>
<desc>lat.=56.054070, lon.=26.533443, Alt.=99.251038m. Speed=0.036000m/h.</desc>
<speed>0.010000</speed>
</trkpt>
<trkpt lat="56.054070" lon="26.533443">
<ele>99.239319</ele>
<time>2010-08-29T10:57:47Z</time>
<desc>lat.=56.054070, lon.=26.533443, Alt.=99.239319m. Speed=0.108000m/h.</desc>
<speed>0.030000</speed>
</trkpt>
<trkpt lat="56.054070" lon="26.533443">
<ele>99.233459</ele>
<time>2010-08-29T10:57:48Z</time>
<desc>lat.=56.054070, lon.=26.533443, Alt.=99.233459m. Speed=0.036000m/h.</desc>
<speed>0.010000</speed>
</trkpt>
<trkpt lat="56.054070" lon="26.533443">
<ele>99.229553</ele>
<time>2010-08-29T10:57:49Z</time>
<desc>lat.=56.054070, lon.=26.533443, Alt.=99.229553m. Speed=0.000000m/h.</desc>
<speed>0.000000</speed>
</trkpt>
<trkpt lat="56.054070" lon="26.533443">
<ele>99.231506</ele>
<time>2010-08-29T10:57:50Z</time>
<desc>lat.=56.054070, lon.=26.533443, Alt.=99.231506m. Speed=0.036000m/h.</desc>
<speed>0.010000</speed>
</trkpt>
<trkpt lat="56.054070" lon="26.533443">
<ele>99.225647</ele>
<time>2010-08-29T10:57:51Z</time>
<desc>lat.=56.054070, lon.=26.533443, Alt.=99.225647m. Speed=0.000000m/h.</desc>
<speed>0.000000</speed>
</trkpt>
<trkpt lat="56.054070" lon="26.533443">
<ele>99.221741</ele>
<time>2010-08-29T10:57:52Z</time>
<desc>lat.=56.054070, lon.=26.533443, Alt.=99.221741m. Speed=0.000000m/h.</desc>
<speed>0.000000</speed>
</trkpt>
<trkpt lat="56.054070" lon="26.533443">
<ele>99.217834</ele>
<time>2010-08-29T10:57:53Z</time>
<desc>lat.=56.054070, lon.=26.533443, Alt.=99.217834m. Speed=0.036000m/h.</desc>
<speed>0.010000</speed>
</trkpt>
<trkpt lat="56.054070" lon="26.533443">
<ele>99.215881</ele>
<time>2010-08-29T10:57:54Z</time>
<desc>lat.=56.054070, lon.=26.533443, Alt.=99.215881m. Speed=0.000000m/h.</desc>
<speed>0.000000</speed>
</trkpt>
<trkpt lat="56.054070" lon="26.533443">
<ele>99.213928</ele>
<time>2010-08-29T10:57:55Z</time>
<desc>lat.=56.054070, lon.=26.533443, Alt.=99.213928m. Speed=0.036000m/h.</desc>
<speed>0.010000</speed>
</trkpt>
<trkpt lat="56.054070" lon="26.533443">
<ele>99.213928</ele>
<time>2010-08-29T10:57:56Z</time>
<desc>lat.=56.054070, lon.=26.533443, Alt.=99.213928m. Speed=0.072000m/h.</desc>
<speed>0.020000</speed>
</trkpt>
<trkpt lat="56.054070" lon="26.533443">
<ele>99.213928</ele>
<time>2010-08-29T10:57:57Z</time>
<desc>lat.=56.054070, lon.=26.533443, Alt.=99.213928m. Speed=0.036000m/h.</desc>
<speed>0.010000</speed>
</trkpt>
<trkpt lat="56.054070" lon="26.533443">
<ele>99.213928</ele>
<time>2010-08-29T10:57:58Z</time>
<desc>lat.=56.054070, lon.=26.533443, Alt.=99.213928m. Speed=0.000000m/h.</desc>
<speed>0.000000</speed>
</trkpt>
<trkpt lat="56.054070" lon="26.533443">
<ele>99.210022</ele>
<time>2010-08-29T10:57:59Z</time>
<desc>lat.=56.054070, lon.=26.533443, Alt.=99.210022m. Speed=0.036000m/h.</desc>
<speed>0.010000</speed>
</trkpt>
<trkpt lat="56.054070" lon="26.533443">
<ele>99.210022</ele>
<time>2010-08-29T10:58:00Z</time>
<desc>lat.=56.054070, lon.=26.533443, Alt.=99.210022m. Speed=0.072000m/h.</desc>
<speed>0.020000</speed>
</trkpt>
<trkpt lat="56.054070" lon="26.533443">
<ele>99.206116</ele>
<time>2010-08-29T10:58:01Z</time>
<desc>lat.=56.054070, lon.=26.533443, Alt.=99.206116m. Speed=0.036000m/h.</desc>
<speed>0.010000</speed>
</trkpt>
<trkpt lat="56.054070" lon="26.533443">
<ele>99.196350</ele>
<time>2010-08-29T10:58:02Z</time>
<desc>lat.=56.054070, lon.=26.533443, Alt.=99.196350m. Speed=0.000000m/h.</desc>
<speed>0.000000</speed>
</trkpt>
<trkpt lat="56.054070" lon="26.533443">
<ele>99.184631</ele>
<time>2010-08-29T10:58:03Z</time>
<desc>lat.=56.054070, lon.=26.533443, Alt.=99.184631m. Speed=0.036000m/h.</desc>
<speed>0.010000</speed>
</trkpt>
<trkpt lat="56.054070" lon="26.533443">
<ele>99.176819</ele>
<time>2010-08-29T10:58:04Z</time>
<desc>lat.=56.054070, lon.=26.533443, Alt.=99.176819m. Speed=0.000000m/h.</desc>
<speed>0.000000</speed>
</trkpt>
<trkpt lat="56.054070" lon="26.533443">
<ele>99.169006</ele>
<time>2010-08-29T10:58:05Z</time>
<desc>lat.=56.054070, lon.=26.533443, Alt.=99.169006m. Speed=0.072000m/h.</desc>
<speed>0.020000</speed>
</trkpt>
<trkpt lat="56.054070" lon="26.533443">
<ele>99.169006</ele>
<time>2010-08-29T10:58:06Z</time>
<desc>lat.=56.054070, lon.=26.533443, Alt.=99.169006m. Speed=0.036000m/h.</desc>
<speed>0.010000</speed>
</trkpt>
<trkpt lat="56.054070" lon="26.533443">
<ele>99.165100</ele>
<time>2010-08-29T10:58:07Z</time>
<desc>lat.=56.054070, lon.=26.533443, Alt.=99.165100m. Speed=0.072000m/h.</desc>
<speed>0.020000</speed>
</trkpt>
<trkpt lat="56.054070" lon="26.533443">
<ele>99.161194</ele>
<time>2010-08-29T10:58:08Z</time>
<desc>lat.=56.054070, lon.=26.533443, Alt.=99.161194m. Speed=0.108000m/h.</desc>
<speed>0.030000</speed>
</trkpt>
<trkpt lat="56.054070" lon="26.533443">
<ele>99.161194</ele>
<time>2010-08-29T10:58:09Z</time>
<desc>lat.=56.054070, lon.=26.533443, Alt.=99.161194m. Speed=0.036000m/h.</desc>
<speed>0.010000</speed>
</trkpt>
<trkpt lat="56.054070" lon="26.533443">
<ele>99.159241</ele>
<time>2010-08-29T10:58:10Z</time>
<desc>lat.=56.054070, lon.=26.533443, Alt.=99.159241m. Speed=0.036000m/h.</desc>
<speed>0.010000</speed>
</trkpt>
<trkpt lat="56.054070" lon="26.533443">
<ele>99.153381</ele>
<time>2010-08-29T10:58:11Z</time>
<desc>lat.=56.054070, lon.=26.533443, Alt.=99.153381m. Speed=0.036000m/h.</desc>
<speed>0.010000</speed>
</trkpt>
<trkpt lat="56.054070" lon="26.533443">
<ele>99.153381</ele>
<time>2010-08-29T10:58:12Z</time>
<desc>lat.=56.054070, lon.=26.533443, Alt.=99.153381m. Speed=0.000000m/h.</desc>
<speed>0.000000</speed>
</trkpt>
<trkpt lat="56.054070" lon="26.533443">
<ele>99.147522</ele>
<time>2010-08-29T10:58:13Z</time>
<desc>lat.=56.054070, lon.=26.533443, Alt.=99.147522m. Speed=0.000000m/h.</desc>
<speed>0.000000</speed>
</trkpt>
<trkpt lat="56.054070" lon="26.533443">
<ele>99.145569</ele>
<time>2010-08-29T10:58:14Z</time>
<desc>lat.=56.054070, lon.=26.533443, Alt.=99.145569m. Speed=0.036000m/h.</desc>
<speed>0.010000</speed>
</trkpt>
<trkpt lat="56.054070" lon="26.533443">
<ele>99.141663</ele>
<time>2010-08-29T10:58:15Z</time>
<desc>lat.=56.054070, lon.=26.533443, Alt.=99.141663m. Speed=0.036000m/h.</desc>
<speed>0.010000</speed>
</trkpt>
<trkpt lat="56.054070" lon="26.533443">
<ele>99.139709</ele>
<time>2010-08-29T10:58:16Z</time>
<desc>lat.=56.054070, lon.=26.533443, Alt.=99.139709m. Speed=0.108000m/h.</desc>
<speed>0.030000</speed>
</trkpt>
<trkpt lat="56.054070" lon="26.533443">
<ele>99.141663</ele>
<time>2010-08-29T10:58:17Z</time>
<desc>lat.=56.054070, lon.=26.533443, Alt.=99.141663m. Speed=0.036000m/h.</desc>
<speed>0.010000</speed>
</trkpt>
<trkpt lat="56.054070" lon="26.533443">
<ele>99.141663</ele>
<time>2010-08-29T10:58:18Z</time>
<desc>lat.=56.054070, lon.=26.533443, Alt.=99.141663m. Speed=0.036000m/h.</desc>
<speed>0.010000</speed>
</trkpt>
<trkpt lat="56.054070" lon="26.533443">
<ele>99.137756</ele>
<time>2010-08-29T10:58:19Z</time>
<desc>lat.=56.054070, lon.=26.533443, Alt.=99.137756m. Speed=0.000000m/h.</desc>
<speed>0.000000</speed>
</trkpt>
<trkpt lat="56.054070" lon="26.533443">
<ele>99.131897</ele>
<time>2010-08-29T10:58:20Z</time>
<desc>lat.=56.054070, lon.=26.533443, Alt.=99.131897m. Speed=0.036000m/h.</desc>
<speed>0.010000</speed>
</trkpt>
<trkpt lat="56.054070" lon="26.533443">
<ele>99.122131</ele>
<time>2010-08-29T10:58:21Z</time>
<desc>lat.=56.054070, lon.=26.533443, Alt.=99.122131m. Speed=0.000000m/h.</desc>
<speed>0.000000</speed>
</trkpt>
<trkpt lat="56.054070" lon="26.533443">
<ele>99.114319</ele>
<time>2010-08-29T10:58:22Z</time>
<desc>lat.=56.054070, lon.=26.533443, Alt.=99.114319m. Speed=0.000000m/h.</desc>
<speed>0.000000</speed>
</trkpt>
<trkpt lat="56.054070" lon="26.533443">
<ele>99.108459</ele>
<time>2010-08-29T10:58:23Z</time>
<desc>lat.=56.054070, lon.=26.533443, Alt.=99.108459m. Speed=0.108000m/h.</desc>
<speed>0.030000</speed>
</trkpt>
<trkpt lat="56.054070" lon="26.533443">
<ele>99.102600</ele>
<time>2010-08-29T10:58:24Z</time>
<desc>lat.=56.054070, lon.=26.533443, Alt.=99.102600m. Speed=0.072000m/h.</desc>
<speed>0.020000</speed>
</trkpt>
<trkpt lat="56.054070" lon="26.533443">
<ele>99.100647</ele>
<time>2010-08-29T10:58:25Z</time>
<desc>lat.=56.054070, lon.=26.533443, Alt.=99.100647m. Speed=0.036000m/h.</desc>
<speed>0.010000</speed>
</trkpt>
<trkpt lat="56.054070" lon="26.533443">
<ele>99.102600</ele>
<time>2010-08-29T10:58:26Z</time>
<desc>lat.=56.054070, lon.=26.533443, Alt.=99.102600m. Speed=0.036000m/h.</desc>
<speed>0.010000</speed>
</trkpt>
<trkpt lat="56.054070" lon="26.533443">
<ele>99.110413</ele>
<time>2010-08-29T10:58:27Z</time>
<desc>lat.=56.054070, lon.=26.533443, Alt.=99.110413m. Speed=0.000000m/h.</desc>
<speed>0.000000</speed>
</trkpt>
<trkpt lat="56.054070" lon="26.533443">
<ele>99.112366</ele>
<time>2010-08-29T10:58:28Z</time>
<desc>lat.=56.054070, lon.=26.533443, Alt.=99.112366m. Speed=0.072000m/h.</desc>
<speed>0.020000</speed>
</trkpt>
<trkpt lat="56.054070" lon="26.533443">
<ele>99.122131</ele>
<time>2010-08-29T10:58:29Z</time>
<desc>lat.=56.054070, lon.=26.533443, Alt.=99.122131m. Speed=0.000000m/h.</desc>
<speed>0.000000</speed>
</trkpt>
<trkpt lat="56.054070" lon="26.533443">
<ele>99.118225</ele>
<time>2010-08-29T10:58:30Z</time>
<desc>lat.=56.054070, lon.=26.533443, Alt.=99.118225m. Speed=0.108000m/h.</desc>
<speed>0.030000</speed>
</trkpt>
<trkpt lat="56.054070" lon="26.533443">
<ele>99.118225</ele>
<time>2010-08-29T10:58:31Z</time>
<desc>lat.=56.054070, lon.=26.533443, Alt.=99.118225m. Speed=0.036000m/h.</desc>
<speed>0.010000</speed>
</trkpt>
<trkpt lat="56.054070" lon="26.533443">
<ele>99.118225</ele>
<time>2010-08-29T10:58:32Z</time>
<desc>lat.=56.054070, lon.=26.533443, Alt.=99.118225m. Speed=0.036000m/h.</desc>
<speed>0.010000</speed>
</trkpt>
<trkpt lat="56.054070" lon="26.533443">
<ele>99.120178</ele>
<time>2010-08-29T10:58:33Z</time>
<desc>lat.=56.054070, lon.=26.533443, Alt.=99.120178m. Speed=0.108000m/h.</desc>
<speed>0.030000</speed>
</trkpt>
<trkpt lat="56.054070" lon="26.533443">
<ele>99.127991</ele>
<time>2010-08-29T10:58:34Z</time>
<desc>lat.=56.054070, lon.=26.533443, Alt.=99.127991m. Speed=0.180000m/h.</desc>
<speed>0.050000</speed>
</trkpt>
<trkpt lat="56.054070" lon="26.533443">
<ele>99.133850</ele>
<time>2010-08-29T10:58:35Z</time>
<desc>lat.=56.054070, lon.=26.533443, Alt.=99.133850m. Speed=0.036000m/h.</desc>
<speed>0.010000</speed>
</trkpt>
<trkpt lat="56.054070" lon="26.533443">
<ele>99.141663</ele>
<time>2010-08-29T10:58:36Z</time>
<desc>lat.=56.054070, lon.=26.533443, Alt.=99.141663m. Speed=0.072000m/h.</desc>
<speed>0.020000</speed>
</trkpt>
<trkpt lat="56.054070" lon="26.533443">
<ele>99.145569</ele>
<time>2010-08-29T10:58:37Z</time>
<desc>lat.=56.054070, lon.=26.533443, Alt.=99.145569m. Speed=0.036000m/h.</desc>
<speed>0.010000</speed>
</trkpt>
<trkpt lat="56.054070" lon="26.533442">
<ele>99.145569</ele>
<time>2010-08-29T10:58:38Z</time>
<desc>lat.=56.054070, lon.=26.533442, Alt.=99.145569m. Speed=0.036000m/h.</desc>
<speed>0.010000</speed>
</trkpt>
<trkpt lat="56.054070" lon="26.533442">
<ele>99.157288</ele>
<time>2010-08-29T10:58:39Z</time>
<desc>lat.=56.054070, lon.=26.533442, Alt.=99.157288m. Speed=0.036000m/h.</desc>
<speed>0.010000</speed>
</trkpt>
<trkpt lat="56.054070" lon="26.533442">
<ele>99.165100</ele>
<time>2010-08-29T10:58:40Z</time>
<desc>lat.=56.054070, lon.=26.533442, Alt.=99.165100m. Speed=0.000000m/h.</desc>
<speed>0.000000</speed>
</trkpt>
<trkpt lat="56.054070" lon="26.533442">
<ele>99.163147</ele>
<time>2010-08-29T10:58:41Z</time>
<desc>lat.=56.054070, lon.=26.533442, Alt.=99.163147m. Speed=0.036000m/h.</desc>
<speed>0.010000</speed>
</trkpt>
<trkpt lat="56.054070" lon="26.533442">
<ele>99.161194</ele>
<time>2010-08-29T10:58:42Z</time>
<desc>lat.=56.054070, lon.=26.533442, Alt.=99.161194m. Speed=0.036000m/h.</desc>
<speed>0.010000</speed>
</trkpt>
<trkpt lat="56.054070" lon="26.533442">
<ele>99.153381</ele>
<time>2010-08-29T10:58:43Z</time>
<desc>lat.=56.054070, lon.=26.533442, Alt.=99.153381m. Speed=0.036000m/h.</desc>
<speed>0.010000</speed>
</trkpt>
<trkpt lat="56.054070" lon="26.533442">
<ele>99.151428</ele>
<time>2010-08-29T10:58:44Z</time>
<desc>lat.=56.054070, lon.=26.533442, Alt.=99.151428m. Speed=0.036000m/h.</desc>
<speed>0.010000</speed>
</trkpt>
<trkpt lat="56.054070" lon="26.533442">
<ele>99.143616</ele>
<time>2010-08-29T10:58:45Z</time>
<desc>lat.=56.054070, lon.=26.533442, Alt.=99.143616m. Speed=0.072000m/h.</desc>
<speed>0.020000</speed>
</trkpt>
<trkpt lat="56.054070" lon="26.533442">
<ele>99.127991</ele>
<time>2010-08-29T10:58:46Z</time>
<desc>lat.=56.054070, lon.=26.533442, Alt.=99.127991m. Speed=0.036000m/h.</desc>
<speed>0.010000</speed>
</trkpt>
<trkpt lat="56.054070" lon="26.533443">
<ele>99.118225</ele>
<time>2010-08-29T10:58:47Z</time>
<desc>lat.=56.054070, lon.=26.533443, Alt.=99.118225m. Speed=0.000000m/h.</desc>
<speed>0.000000</speed>
</trkpt>
<trkpt lat="56.054070" lon="26.533443">
<ele>99.116272</ele>
<time>2010-08-29T10:58:48Z</time>
<desc>lat.=56.054070, lon.=26.533443, Alt.=99.116272m. Speed=0.108000m/h.</desc>
<speed>0.030000</speed>
</trkpt>
<trkpt lat="56.054070" lon="26.533443">
<ele>99.108459</ele>
<time>2010-08-29T10:58:49Z</time>
<desc>lat.=56.054070, lon.=26.533443, Alt.=99.108459m. Speed=0.000000m/h.</desc>
<speed>0.000000</speed>
</trkpt>
<trkpt lat="56.054070" lon="26.533443">
<ele>99.100647</ele>
<time>2010-08-29T10:58:50Z</time>
<desc>lat.=56.054070, lon.=26.533443, Alt.=99.100647m. Speed=0.000000m/h.</desc>
<speed>0.000000</speed>
</trkpt>
<trkpt lat="56.054070" lon="26.533443">
<ele>99.098694</ele>
<time>2010-08-29T10:58:51Z</time>
<desc>lat.=56.054070, lon.=26.533443, Alt.=99.098694m. Speed=0.036000m/h.</desc>
<speed>0.010000</speed>
</trkpt>
<trkpt lat="56.054070" lon="26.533443">
<ele>99.094788</ele>
<time>2010-08-29T10:58:52Z</time>
<desc>lat.=56.054070, lon.=26.533443, Alt.=99.094788m. Speed=0.072000m/h.</desc>
<speed>0.020000</speed>
</trkpt>
<trkpt lat="56.054070" lon="26.533443">
<ele>99.094788</ele>
<time>2010-08-29T10:58:53Z</time>
<desc>lat.=56.054070, lon.=26.533443, Alt.=99.094788m. Speed=0.036000m/h.</desc>
<speed>0.010000</speed>
</trkpt>
<trkpt lat="56.054070" lon="26.533443">
<ele>99.088928</ele>
<time>2010-08-29T10:58:54Z</time>
<desc>lat.=56.054070, lon.=26.533443, Alt.=99.088928m. Speed=0.000000m/h.</desc>
<speed>0.000000</speed>
</trkpt>
<trkpt lat="56.054070" lon="26.533443">
<ele>99.077209</ele>
<time>2010-08-29T10:58:55Z</time>
<desc>lat.=56.054070, lon.=26.533443, Alt.=99.077209m. Speed=0.000000m/h.</desc>
<speed>0.000000</speed>
</trkpt>
<trkpt lat="56.054070" lon="26.533442">
<ele>99.059631</ele>
<time>2010-08-29T10:58:56Z</time>
<desc>lat.=56.054070, lon.=26.533442, Alt.=99.059631m. Speed=0.036000m/h.</desc>
<speed>0.010000</speed>
</trkpt>
<trkpt lat="56.054070" lon="26.533442">
<ele>99.047913</ele>
<time>2010-08-29T10:58:57Z</time>
<desc>lat.=56.054070, lon.=26.533442, Alt.=99.047913m. Speed=0.072000m/h.</desc>
<speed>0.020000</speed>
</trkpt>
<trkpt lat="56.054070" lon="26.533442">
<ele>99.034241</ele>
<time>2010-08-29T10:58:58Z</time>
<desc>lat.=56.054070, lon.=26.533442, Alt.=99.034241m. Speed=0.036000m/h.</desc>
<speed>0.010000</speed>
</trkpt>
<trkpt lat="56.054070" lon="26.533442">
<ele>99.024475</ele>
<time>2010-08-29T10:58:59Z</time>
<desc>lat.=56.054070, lon.=26.533442, Alt.=99.024475m. Speed=0.000000m/h.</desc>
<speed>0.000000</speed>
</trkpt>
<trkpt lat="56.054070" lon="26.533442">
<ele>99.006897</ele>
<time>2010-08-29T10:59:00Z</time>
<desc>lat.=56.054070, lon.=26.533442, Alt.=99.006897m. Speed=0.000000m/h.</desc>
<speed>0.000000</speed>
</trkpt>
<trkpt lat="56.054070" lon="26.533442">
<ele>99.001038</ele>
<time>2010-08-29T10:59:01Z</time>
<desc>lat.=56.054070, lon.=26.533442, Alt.=99.001038m. Speed=0.072000m/h.</desc>
<speed>0.020000</speed>
</trkpt>
<trkpt lat="56.054070" lon="26.533442">
<ele>98.995178</ele>
<time>2010-08-29T10:59:02Z</time>
<desc>lat.=56.054070, lon.=26.533442, Alt.=98.995178m. Speed=0.072000m/h.</desc>
<speed>0.020000</speed>
</trkpt>
<trkpt lat="56.054070" lon="26.533442">
<ele>98.979553</ele>
<time>2010-08-29T10:59:03Z</time>
<desc>lat.=56.054070, lon.=26.533442, Alt.=98.979553m. Speed=0.072000m/h.</desc>
<speed>0.020000</speed>
</trkpt>
<trkpt lat="56.054070" lon="26.533442">
<ele>98.967834</ele>
<time>2010-08-29T10:59:04Z</time>
<desc>lat.=56.054070, lon.=26.533442, Alt.=98.967834m. Speed=0.000000m/h.</desc>
<speed>0.000000</speed>
</trkpt>
<trkpt lat="56.054070" lon="26.533442">
<ele>98.956116</ele>
<time>2010-08-29T10:59:05Z</time>
<desc>lat.=56.054070, lon.=26.533442, Alt.=98.956116m. Speed=0.072000m/h.</desc>
<speed>0.020000</speed>
</trkpt>
<trkpt lat="56.054070" lon="26.533442">
<ele>98.932678</ele>
<time>2010-08-29T10:59:06Z</time>
<desc>lat.=56.054070, lon.=26.533442, Alt.=98.932678m. Speed=0.180000m/h.</desc>
<speed>0.050000</speed>
</trkpt>
<trkpt lat="56.054070" lon="26.533442">
<ele>98.924866</ele>
<time>2010-08-29T10:59:07Z</time>
<desc>lat.=56.054070, lon.=26.533442, Alt.=98.924866m. Speed=0.144000m/h.</desc>
<speed>0.040000</speed>
</trkpt>
<trkpt lat="56.054070" lon="26.533443">
<ele>98.938538</ele>
<time>2010-08-29T10:59:08Z</time>
<desc>lat.=56.054070, lon.=26.533443, Alt.=98.938538m. Speed=0.000000m/h.</desc>
<speed>0.000000</speed>
</trkpt>
<trkpt lat="56.054070" lon="26.533443">
<ele>98.948303</ele>
<time>2010-08-29T10:59:09Z</time>
<desc>lat.=56.054070, lon.=26.533443, Alt.=98.948303m. Speed=0.036000m/h.</desc>
<speed>0.010000</speed>
</trkpt>
<trkpt lat="56.054070" lon="26.533442">
<ele>98.948303</ele>
<time>2010-08-29T10:59:10Z</time>
<desc>lat.=56.054070, lon.=26.533442, Alt.=98.948303m. Speed=0.108000m/h.</desc>
<speed>0.030000</speed>
</trkpt>
<trkpt lat="56.054070" lon="26.533442">
<ele>98.952209</ele>
<time>2010-08-29T10:59:11Z</time>
<desc>lat.=56.054070, lon.=26.533442, Alt.=98.952209m. Speed=0.108000m/h.</desc>
<speed>0.030000</speed>
</trkpt>
<trkpt lat="56.054070" lon="26.533442">
<ele>98.952209</ele>
<time>2010-08-29T10:59:12Z</time>
<desc>lat.=56.054070, lon.=26.533442, Alt.=98.952209m. Speed=0.252000m/h.</desc>
<speed>0.070000</speed>
</trkpt>
<trkpt lat="56.054070" lon="26.533442">
<ele>98.948303</ele>
<time>2010-08-29T10:59:13Z</time>
<desc>lat.=56.054070, lon.=26.533442, Alt.=98.948303m. Speed=1.620000m/h.</desc>
<speed>0.450000</speed>
</trkpt>
<trkpt lat="56.054081" lon="26.533442">
<ele>99.182678</ele>
<time>2010-08-29T10:59:14Z</time>
<desc>lat.=56.054081, lon.=26.533442, Alt.=99.182678m. Speed=3.708000m/h.</desc>
<speed>1.030000</speed>
</trkpt>
<trkpt lat="56.054096" lon="26.533440">
<ele>99.331116</ele>
<time>2010-08-29T10:59:15Z</time>
<desc>lat.=56.054096, lon.=26.533440, Alt.=99.331116m. Speed=5.328000m/h.</desc>
<speed>1.480000</speed>
</trkpt>
<trkpt lat="56.054108" lon="26.533432">
<ele>99.032288</ele>
<time>2010-08-29T10:59:16Z</time>
<desc>lat.=56.054108, lon.=26.533432, Alt.=99.032288m. Speed=5.580000m/h.</desc>
<speed>1.550000</speed>
</trkpt>
<trkpt lat="56.054123" lon="26.533417">
<ele>98.909241</ele>
<time>2010-08-29T10:59:17Z</time>
<desc>lat.=56.054123, lon.=26.533417, Alt.=98.909241m. Speed=6.336000m/h.</desc>
<speed>1.760000</speed>
</trkpt>
<trkpt lat="56.054134" lon="26.533398">
<ele>98.542053</ele>
<time>2010-08-29T10:59:18Z</time>
<desc>lat.=56.054134, lon.=26.533398, Alt.=98.542053m. Speed=5.580000m/h.</desc>
<speed>1.550000</speed>
</trkpt>
<trkpt lat="56.054146" lon="26.533386">
<ele>98.202209</ele>
<time>2010-08-29T10:59:19Z</time>
<desc>lat.=56.054146, lon.=26.533386, Alt.=98.202209m. Speed=4.608000m/h.</desc>
<speed>1.280000</speed>
</trkpt>
<trkpt lat="56.054157" lon="26.533377">
<ele>97.973694</ele>
<time>2010-08-29T10:59:20Z</time>
<desc>lat.=56.054157, lon.=26.533377, Alt.=97.973694m. Speed=3.600000m/h.</desc>
<speed>1.000000</speed>
</trkpt>
<trkpt lat="56.054165" lon="26.533371">
<ele>97.803772</ele>
<time>2010-08-29T10:59:21Z</time>
<desc>lat.=56.054165, lon.=26.533371, Alt.=97.803772m. Speed=2.376000m/h.</desc>
<speed>0.660000</speed>
</trkpt>
<trkpt lat="56.054173" lon="26.533371">
<ele>98.651428</ele>
<time>2010-08-29T10:59:22Z</time>
<desc>lat.=56.054173, lon.=26.533371, Alt.=98.651428m. Speed=1.224000m/h.</desc>
<speed>0.340000</speed>
</trkpt>
<trkpt lat="56.054184" lon="26.533381">
<ele>99.178772</ele>
<time>2010-08-29T10:59:23Z</time>
<desc>lat.=56.054184, lon.=26.533381, Alt.=99.178772m. Speed=2.160000m/h.</desc>
<speed>0.600000</speed>
</trkpt>
<trkpt lat="56.054199" lon="26.533384">
<ele>99.784241</ele>
<time>2010-08-29T10:59:24Z</time>
<desc>lat.=56.054199, lon.=26.533384, Alt.=99.784241m. Speed=3.420000m/h.</desc>
<speed>0.950000</speed>
</trkpt>
<trkpt lat="56.054211" lon="26.533394">
<ele>99.879944</ele>
<time>2010-08-29T10:59:25Z</time>
<desc>lat.=56.054211, lon.=26.533394, Alt.=99.879944m. Speed=4.320000m/h.</desc>
<speed>1.200000</speed>
</trkpt>
<trkpt lat="56.054230" lon="26.533401">
<ele>99.649475</ele>
<time>2010-08-29T10:59:26Z</time>
<desc>lat.=56.054230, lon.=26.533401, Alt.=99.649475m. Speed=5.184000m/h.</desc>
<speed>1.440000</speed>
</trkpt>
<trkpt lat="56.054249" lon="26.533407">
<ele>99.975647</ele>
<time>2010-08-29T10:59:27Z</time>
<desc>lat.=56.054249, lon.=26.533407, Alt.=99.975647m. Speed=7.272000m/h.</desc>
<speed>2.020000</speed>
</trkpt>
<trkpt lat="56.054268" lon="26.533415">
<ele>99.932678</ele>
<time>2010-08-29T10:59:28Z</time>
<desc>lat.=56.054268, lon.=26.533415, Alt.=99.932678m. Speed=5.724000m/h.</desc>
<speed>1.590000</speed>
</trkpt>
<trkpt lat="56.054283" lon="26.533417">
<ele>99.754944</ele>
<time>2010-08-29T10:59:29Z</time>
<desc>lat.=56.054283, lon.=26.533417, Alt.=99.754944m. Speed=3.888000m/h.</desc>
<speed>1.080000</speed>
</trkpt>
<trkpt lat="56.054287" lon="26.533415">
<ele>99.717834</ele>
<time>2010-08-29T10:59:30Z</time>
<desc>lat.=56.054287, lon.=26.533415, Alt.=99.717834m. Speed=2.232000m/h.</desc>
<speed>0.620000</speed>
</trkpt>
<trkpt lat="56.054291" lon="26.533407">
<ele>99.672913</ele>
<time>2010-08-29T10:59:31Z</time>
<desc>lat.=56.054291, lon.=26.533407, Alt.=99.672913m. Speed=2.700000m/h.</desc>
<speed>0.750000</speed>
</trkpt>
<trkpt lat="56.054291" lon="26.533403">
<ele>99.665100</ele>
<time>2010-08-29T10:59:32Z</time>
<desc>lat.=56.054291, lon.=26.533403, Alt.=99.665100m. Speed=1.512000m/h.</desc>
<speed>0.420000</speed>
</trkpt>
<trkpt lat="56.054291" lon="26.533394">
<ele>100.083069</ele>
<time>2010-08-29T10:59:33Z</time>
<desc>lat.=56.054291, lon.=26.533394, Alt.=100.083069m. Speed=1.260000m/h.</desc>
<speed>0.350000</speed>
</trkpt>
<trkpt lat="56.054279" lon="26.533384">
<ele>101.088928</ele>
<time>2010-08-29T10:59:34Z</time>
<desc>lat.=56.054279, lon.=26.533384, Alt.=101.088928m. Speed=1.584000m/h.</desc>
<speed>0.440000</speed>
</trkpt>
<trkpt lat="56.054272" lon="26.533373">
<ele>101.192444</ele>
<time>2010-08-29T10:59:35Z</time>
<desc>lat.=56.054272, lon.=26.533373, Alt.=101.192444m. Speed=2.448000m/h.</desc>
<speed>0.680000</speed>
</trkpt>
<trkpt lat="56.054264" lon="26.533361">
<ele>101.174866</ele>
<time>2010-08-29T10:59:36Z</time>
<desc>lat.=56.054264, lon.=26.533361, Alt.=101.174866m. Speed=3.024000m/h.</desc>
<speed>0.840000</speed>
</trkpt>
<trkpt lat="56.054260" lon="26.533356">
<ele>101.047913</ele>
<time>2010-08-29T10:59:37Z</time>
<desc>lat.=56.054260, lon.=26.533356, Alt.=101.047913m. Speed=2.412000m/h.</desc>
<speed>0.670000</speed>
</trkpt>
<trkpt lat="56.054256" lon="26.533346">
<ele>101.010803</ele>
<time>2010-08-29T10:59:38Z</time>
<desc>lat.=56.054256, lon.=26.533346, Alt.=101.010803m. Speed=3.204000m/h.</desc>
<speed>0.890000</speed>
</trkpt>
<trkpt lat="56.054249" lon="26.533333">
<ele>100.907288</ele>
<time>2010-08-29T10:59:39Z</time>
<desc>lat.=56.054249, lon.=26.533333, Alt.=100.907288m. Speed=4.572000m/h.</desc>
<speed>1.270000</speed>
</trkpt>
<trkpt lat="56.054241" lon="26.533316">
<ele>100.774475</ele>
<time>2010-08-29T10:59:40Z</time>
<desc>lat.=56.054241, lon.=26.533316, Alt.=100.774475m. Speed=5.652000m/h.</desc>
<speed>1.570000</speed>
</trkpt>
<trkpt lat="56.054230" lon="26.533291">
<ele>100.907288</ele>
<time>2010-08-29T10:59:41Z</time>
<desc>lat.=56.054230, lon.=26.533291, Alt.=100.907288m. Speed=6.912000m/h.</desc>
<speed>1.920000</speed>
</trkpt>
<trkpt lat="56.054222" lon="26.533262">
<ele>101.245178</ele>
<time>2010-08-29T10:59:42Z</time>
<desc>lat.=56.054222, lon.=26.533262, Alt.=101.245178m. Speed=6.264000m/h.</desc>
<speed>1.740000</speed>
</trkpt>
<trkpt lat="56.054218" lon="26.533232">
<ele>101.219788</ele>
<time>2010-08-29T10:59:43Z</time>
<desc>lat.=56.054218, lon.=26.533232, Alt.=101.219788m. Speed=7.344000m/h.</desc>
<speed>2.040000</speed>
</trkpt>
<trkpt lat="56.054214" lon="26.533197">
<ele>101.180725</ele>
<time>2010-08-29T10:59:44Z</time>
<desc>lat.=56.054214, lon.=26.533197, Alt.=101.180725m. Speed=8.064000m/h.</desc>
<speed>2.240000</speed>
</trkpt>
<trkpt lat="56.054214" lon="26.533171">
<ele>101.022522</ele>
<time>2010-08-29T10:59:45Z</time>
<desc>lat.=56.054214, lon.=26.533171, Alt.=101.022522m. Speed=6.336000m/h.</desc>
<speed>1.760000</speed>
</trkpt>
<trkpt lat="56.054218" lon="26.533134">
<ele>101.143616</ele>
<time>2010-08-29T10:59:46Z</time>
<desc>lat.=56.054218, lon.=26.533134, Alt.=101.143616m. Speed=7.848000m/h.</desc>
<speed>2.180000</speed>
</trkpt>
<trkpt lat="56.054226" lon="26.533096">
<ele>101.137756</ele>
<time>2010-08-29T10:59:47Z</time>
<desc>lat.=56.054226, lon.=26.533096, Alt.=101.137756m. Speed=8.784000m/h.</desc>
<speed>2.440000</speed>
</trkpt>
<trkpt lat="56.054230" lon="26.533062">
<ele>101.262756</ele>
<time>2010-08-29T10:59:48Z</time>
<desc>lat.=56.054230, lon.=26.533062, Alt.=101.262756m. Speed=7.524000m/h.</desc>
<speed>2.090000</speed>
</trkpt>
<trkpt lat="56.054237" lon="26.533030">
<ele>101.276428</ele>
<time>2010-08-29T10:59:49Z</time>
<desc>lat.=56.054237, lon.=26.533030, Alt.=101.276428m. Speed=6.948000m/h.</desc>
<speed>1.930000</speed>
</trkpt>
<trkpt lat="56.054241" lon="26.533001">
<ele>101.356506</ele>
<time>2010-08-29T10:59:50Z</time>
<desc>lat.=56.054241, lon.=26.533001, Alt.=101.356506m. Speed=7.200000m/h.</desc>
<speed>2.000000</speed>
</trkpt>
<trkpt lat="56.054249" lon="26.532972">
<ele>101.479553</ele>
<time>2010-08-29T10:59:51Z</time>
<desc>lat.=56.054249, lon.=26.532972, Alt.=101.479553m. Speed=6.588000m/h.</desc>
<speed>1.830000</speed>
</trkpt>
<trkpt lat="56.054256" lon="26.532930">
<ele>101.295959</ele>
<time>2010-08-29T10:59:52Z</time>
<desc>lat.=56.054256, lon.=26.532930, Alt.=101.295959m. Speed=10.260000m/h.</desc>
<speed>2.850000</speed>
</trkpt>
<trkpt lat="56.054268" lon="26.532883">
<ele>101.086975</ele>
<time>2010-08-29T10:59:53Z</time>
<desc>lat.=56.054268, lon.=26.532883, Alt.=101.086975m. Speed=10.872000m/h.</desc>
<speed>3.020000</speed>
</trkpt>
<trkpt lat="56.054279" lon="26.532837">
<ele>101.133850</ele>
<time>2010-08-29T10:59:54Z</time>
<desc>lat.=56.054279, lon.=26.532837, Alt.=101.133850m. Speed=10.728000m/h.</desc>
<speed>2.980000</speed>
</trkpt>
<trkpt lat="56.054291" lon="26.532789">
<ele>100.919006</ele>
<time>2010-08-29T10:59:55Z</time>
<desc>lat.=56.054291, lon.=26.532789, Alt.=100.919006m. Speed=11.448000m/h.</desc>
<speed>3.180000</speed>
</trkpt>
<trkpt lat="56.054298" lon="26.532745">
<ele>101.034241</ele>
<time>2010-08-29T10:59:56Z</time>
<desc>lat.=56.054298, lon.=26.532745, Alt.=101.034241m. Speed=10.908000m/h.</desc>
<speed>3.030000</speed>
</trkpt>
<trkpt lat="56.054306" lon="26.532703">
<ele>101.231506</ele>
<time>2010-08-29T10:59:57Z</time>
<desc>lat.=56.054306, lon.=26.532703, Alt.=101.231506m. Speed=10.152000m/h.</desc>
<speed>2.820000</speed>
</trkpt>
<trkpt lat="56.054314" lon="26.532660">
<ele>101.374084</ele>
<time>2010-08-29T10:59:58Z</time>
<desc>lat.=56.054314, lon.=26.532660, Alt.=101.374084m. Speed=10.440000m/h.</desc>
<speed>2.900000</speed>
</trkpt>
<trkpt lat="56.054321" lon="26.532614">
<ele>101.331116</ele>
<time>2010-08-29T10:59:59Z</time>
<desc>lat.=56.054321, lon.=26.532614, Alt.=101.331116m. Speed=10.656000m/h.</desc>
<speed>2.960000</speed>
</trkpt>
<trkpt lat="56.054337" lon="26.532568">
<ele>101.266663</ele>
<time>2010-08-29T11:00:00Z</time>
<desc>lat.=56.054337, lon.=26.532568, Alt.=101.266663m. Speed=11.556000m/h.</desc>
<speed>3.210000</speed>
</trkpt>
<trkpt lat="56.054348" lon="26.532518">
<ele>101.135803</ele>
<time>2010-08-29T11:00:01Z</time>
<desc>lat.=56.054348, lon.=26.532518, Alt.=101.135803m. Speed=11.556000m/h.</desc>
<speed>3.210000</speed>
</trkpt>
<trkpt lat="56.054359" lon="26.532469">
<ele>101.024475</ele>
<time>2010-08-29T11:00:02Z</time>
<desc>lat.=56.054359, lon.=26.532469, Alt.=101.024475m. Speed=13.032000m/h.</desc>
<speed>3.620000</speed>
</trkpt>
<trkpt lat="56.054371" lon="26.532421">
<ele>101.032288</ele>
<time>2010-08-29T11:00:03Z</time>
<desc>lat.=56.054371, lon.=26.532421, Alt.=101.032288m. Speed=11.448000m/h.</desc>
<speed>3.180000</speed>
</trkpt>
<trkpt lat="56.054379" lon="26.532375">
<ele>101.100647</ele>
<time>2010-08-29T11:00:04Z</time>
<desc>lat.=56.054379, lon.=26.532375, Alt.=101.100647m. Speed=10.872000m/h.</desc>
<speed>3.020000</speed>
</trkpt>
<trkpt lat="56.054390" lon="26.532337">
<ele>101.167053</ele>
<time>2010-08-29T11:00:05Z</time>
<desc>lat.=56.054390, lon.=26.532337, Alt.=101.167053m. Speed=10.872000m/h.</desc>
<speed>3.020000</speed>
</trkpt>
<trkpt lat="56.054405" lon="26.532295">
<ele>101.331116</ele>
<time>2010-08-29T11:00:06Z</time>
<desc>lat.=56.054405, lon.=26.532295, Alt.=101.331116m. Speed=11.088000m/h.</desc>
<speed>3.080000</speed>
</trkpt>
<trkpt lat="56.054417" lon="26.532248">
<ele>101.305725</ele>
<time>2010-08-29T11:00:07Z</time>
<desc>lat.=56.054417, lon.=26.532248, Alt.=101.305725m. Speed=10.620000m/h.</desc>
<speed>2.950000</speed>
</trkpt>
<trkpt lat="56.054428" lon="26.532202">
<ele>101.346741</ele>
<time>2010-08-29T11:00:08Z</time>
<desc>lat.=56.054428, lon.=26.532202, Alt.=101.346741m. Speed=10.800000m/h.</desc>
<speed>3.000000</speed>
</trkpt>
<trkpt lat="56.054436" lon="26.532156">
<ele>101.053772</ele>
<time>2010-08-29T11:00:09Z</time>
<desc>lat.=56.054436, lon.=26.532156, Alt.=101.053772m. Speed=10.440000m/h.</desc>
<speed>2.900000</speed>
</trkpt>
<trkpt lat="56.054443" lon="26.532114">
<ele>101.122131</ele>
<time>2010-08-29T11:00:10Z</time>
<desc>lat.=56.054443, lon.=26.532114, Alt.=101.122131m. Speed=10.692000m/h.</desc>
<speed>2.970000</speed>
</trkpt>
<trkpt lat="56.054455" lon="26.532063">
<ele>101.133850</ele>
<time>2010-08-29T11:00:11Z</time>
<desc>lat.=56.054455, lon.=26.532063, Alt.=101.133850m. Speed=10.692000m/h.</desc>
<speed>2.970000</speed>
</trkpt>
<trkpt lat="56.054462" lon="26.532013">
<ele>101.110413</ele>
<time>2010-08-29T11:00:12Z</time>
<desc>lat.=56.054462, lon.=26.532013, Alt.=101.110413m. Speed=11.412000m/h.</desc>
<speed>3.170000</speed>
</trkpt>
<trkpt lat="56.054474" lon="26.531965">
<ele>101.270569</ele>
<time>2010-08-29T11:00:13Z</time>
<desc>lat.=56.054474, lon.=26.531965, Alt.=101.270569m. Speed=11.556000m/h.</desc>
<speed>3.210000</speed>
</trkpt>
<trkpt lat="56.054478" lon="26.531921">
<ele>101.336975</ele>
<time>2010-08-29T11:00:14Z</time>
<desc>lat.=56.054478, lon.=26.531921, Alt.=101.336975m. Speed=10.908000m/h.</desc>
<speed>3.030000</speed>
</trkpt>
<trkpt lat="56.054482" lon="26.531872">
<ele>101.446350</ele>
<time>2010-08-29T11:00:15Z</time>
<desc>lat.=56.054482, lon.=26.531872, Alt.=101.446350m. Speed=10.044000m/h.</desc>
<speed>2.790000</speed>
</trkpt>
<trkpt lat="56.054489" lon="26.531822">
<ele>101.633850</ele>
<time>2010-08-29T11:00:16Z</time>
<desc>lat.=56.054489, lon.=26.531822, Alt.=101.633850m. Speed=11.772000m/h.</desc>
<speed>3.270000</speed>
</trkpt>
<trkpt lat="56.054497" lon="26.531771">
<ele>101.752991</ele>
<time>2010-08-29T11:00:17Z</time>
<desc>lat.=56.054497, lon.=26.531771, Alt.=101.752991m. Speed=11.340000m/h.</desc>
<speed>3.150000</speed>
</trkpt>
<trkpt lat="56.054501" lon="26.531715">
<ele>101.758850</ele>
<time>2010-08-29T11:00:18Z</time>
<desc>lat.=56.054501, lon.=26.531715, Alt.=101.758850m. Speed=12.384000m/h.</desc>
<speed>3.440000</speed>
</trkpt>
<trkpt lat="56.054508" lon="26.531660">
<ele>101.907288</ele>
<time>2010-08-29T11:00:19Z</time>
<desc>lat.=56.054508, lon.=26.531660, Alt.=101.907288m. Speed=11.916000m/h.</desc>
<speed>3.310000</speed>
</trkpt>
<trkpt lat="56.054512" lon="26.531612">
<ele>101.754944</ele>
<time>2010-08-29T11:00:20Z</time>
<desc>lat.=56.054512, lon.=26.531612, Alt.=101.754944m. Speed=11.268000m/h.</desc>
<speed>3.130000</speed>
</trkpt>
<trkpt lat="56.054520" lon="26.531567">
<ele>101.678772</ele>
<time>2010-08-29T11:00:21Z</time>
<desc>lat.=56.054520, lon.=26.531567, Alt.=101.678772m. Speed=9.540000m/h.</desc>
<speed>2.650000</speed>
</trkpt>
<trkpt lat="56.054523" lon="26.531519">
<ele>101.772522</ele>
<time>2010-08-29T11:00:22Z</time>
<desc>lat.=56.054523, lon.=26.531519, Alt.=101.772522m. Speed=9.936000m/h.</desc>
<speed>2.760000</speed>
</trkpt>
<trkpt lat="56.054527" lon="26.531477">
<ele>101.854553</ele>
<time>2010-08-29T11:00:23Z</time>
<desc>lat.=56.054527, lon.=26.531477, Alt.=101.854553m. Speed=9.108000m/h.</desc>
<speed>2.530000</speed>
</trkpt>
<trkpt lat="56.054527" lon="26.531425">
<ele>101.987366</ele>
<time>2010-08-29T11:00:24Z</time>
<desc>lat.=56.054527, lon.=26.531425, Alt.=101.987366m. Speed=10.512000m/h.</desc>
<speed>2.920000</speed>
</trkpt>
<trkpt lat="56.054535" lon="26.531368">
<ele>101.938538</ele>
<time>2010-08-29T11:00:25Z</time>
<desc>lat.=56.054535, lon.=26.531368, Alt.=101.938538m. Speed=11.484000m/h.</desc>
<speed>3.190000</speed>
</trkpt>
<trkpt lat="56.054543" lon="26.531319">
<ele>101.850647</ele>
<time>2010-08-29T11:00:26Z</time>
<desc>lat.=56.054543, lon.=26.531319, Alt.=101.850647m. Speed=10.764000m/h.</desc>
<speed>2.990000</speed>
</trkpt>
<trkpt lat="56.054546" lon="26.531271">
<ele>101.747131</ele>
<time>2010-08-29T11:00:27Z</time>
<desc>lat.=56.054546, lon.=26.531271, Alt.=101.747131m. Speed=11.160000m/h.</desc>
<speed>3.100000</speed>
</trkpt>
<trkpt lat="56.054554" lon="26.531225">
<ele>101.930725</ele>
<time>2010-08-29T11:00:28Z</time>
<desc>lat.=56.054554, lon.=26.531225, Alt.=101.930725m. Speed=10.872000m/h.</desc>
<speed>3.020000</speed>
</trkpt>
<trkpt lat="56.054558" lon="26.531174">
<ele>102.006897</ele>
<time>2010-08-29T11:00:29Z</time>
<desc>lat.=56.054558, lon.=26.531174, Alt.=102.006897m. Speed=11.160000m/h.</desc>
<speed>3.100000</speed>
</trkpt>
<trkpt lat="56.054573" lon="26.531124">
<ele>101.747131</ele>
<time>2010-08-29T11:00:30Z</time>
<desc>lat.=56.054573, lon.=26.531124, Alt.=101.747131m. Speed=11.952000m/h.</desc>
<speed>3.320000</speed>
</trkpt>
<trkpt lat="56.054581" lon="26.531075">
<ele>101.483459</ele>
<time>2010-08-29T11:00:31Z</time>
<desc>lat.=56.054581, lon.=26.531075, Alt.=101.483459m. Speed=12.276000m/h.</desc>
<speed>3.410000</speed>
</trkpt>
<trkpt lat="56.054596" lon="26.531015">
<ele>101.104553</ele>
<time>2010-08-29T11:00:32Z</time>
<desc>lat.=56.054596, lon.=26.531015, Alt.=101.104553m. Speed=14.436000m/h.</desc>
<speed>4.010000</speed>
</trkpt>
<trkpt lat="56.054607" lon="26.530952">
<ele>100.965881</ele>
<time>2010-08-29T11:00:33Z</time>
<desc>lat.=56.054607, lon.=26.530952, Alt.=100.965881m. Speed=15.336000m/h.</desc>
<speed>4.260000</speed>
</trkpt>
<trkpt lat="56.054623" lon="26.530890">
<ele>101.100647</ele>
<time>2010-08-29T11:00:34Z</time>
<desc>lat.=56.054623, lon.=26.530890, Alt.=101.100647m. Speed=15.300000m/h.</desc>
<speed>4.250000</speed>
</trkpt>
<trkpt lat="56.054638" lon="26.530827">
<ele>100.940491</ele>
<time>2010-08-29T11:00:35Z</time>
<desc>lat.=56.054638, lon.=26.530827, Alt.=100.940491m. Speed=15.012000m/h.</desc>
<speed>4.170000</speed>
</trkpt>
<trkpt lat="56.054653" lon="26.530766">
<ele>100.891663</ele>
<time>2010-08-29T11:00:36Z</time>
<desc>lat.=56.054653, lon.=26.530766, Alt.=100.891663m. Speed=15.696000m/h.</desc>
<speed>4.360000</speed>
</trkpt>
<trkpt lat="56.054676" lon="26.530710">
<ele>100.670959</ele>
<time>2010-08-29T11:00:37Z</time>
<desc>lat.=56.054676, lon.=26.530710, Alt.=100.670959m. Speed=15.444000m/h.</desc>
<speed>4.290000</speed>
</trkpt>
<trkpt lat="56.054691" lon="26.530653">
<ele>100.442444</ele>
<time>2010-08-29T11:00:38Z</time>
<desc>lat.=56.054691, lon.=26.530653, Alt.=100.442444m. Speed=15.336000m/h.</desc>
<speed>4.260000</speed>
</trkpt>
<trkpt lat="56.054707" lon="26.530596">
<ele>100.028381</ele>
<time>2010-08-29T11:00:39Z</time>
<desc>lat.=56.054707, lon.=26.530596, Alt.=100.028381m. Speed=15.948000m/h.</desc>
<speed>4.430000</speed>
</trkpt>
<trkpt lat="56.054729" lon="26.530531">
<ele>99.690491</ele>
<time>2010-08-29T11:00:40Z</time>
<desc>lat.=56.054729, lon.=26.530531, Alt.=99.690491m. Speed=17.856001m/h.</desc>
<speed>4.960000</speed>
</trkpt>
<trkpt lat="56.054752" lon="26.530466">
<ele>99.379944</ele>
<time>2010-08-29T11:00:41Z</time>
<desc>lat.=56.054752, lon.=26.530466, Alt.=99.379944m. Speed=18.288000m/h.</desc>
<speed>5.080000</speed>
</trkpt>
<trkpt lat="56.054775" lon="26.530397">
<ele>99.442444</ele>
<time>2010-08-29T11:00:42Z</time>
<desc>lat.=56.054775, lon.=26.530397, Alt.=99.442444m. Speed=16.848000m/h.</desc>
<speed>4.680000</speed>
</trkpt>
<trkpt lat="56.054802" lon="26.530334">
<ele>98.889709</ele>
<time>2010-08-29T11:00:43Z</time>
<desc>lat.=56.054802, lon.=26.530334, Alt.=98.889709m. Speed=17.243999m/h.</desc>
<speed>4.790000</speed>
</trkpt>
<trkpt lat="56.054821" lon="26.530272">
<ele>98.840881</ele>
<time>2010-08-29T11:00:44Z</time>
<desc>lat.=56.054821, lon.=26.530272, Alt.=98.840881m. Speed=16.955999m/h.</desc>
<speed>4.710000</speed>
</trkpt>
<trkpt lat="56.054844" lon="26.530203">
<ele>99.676819</ele>
<time>2010-08-29T11:00:45Z</time>
<desc>lat.=56.054844, lon.=26.530203, Alt.=99.676819m. Speed=15.876000m/h.</desc>
<speed>4.410000</speed>
</trkpt>
<trkpt lat="56.054874" lon="26.530148">
<ele>100.004944</ele>
<time>2010-08-29T11:00:46Z</time>
<desc>lat.=56.054874, lon.=26.530148, Alt.=100.004944m. Speed=14.868000m/h.</desc>
<speed>4.130000</speed>
</trkpt>
<trkpt lat="56.054905" lon="26.530098">
<ele>100.659241</ele>
<time>2010-08-29T11:00:47Z</time>
<desc>lat.=56.054905, lon.=26.530098, Alt.=100.659241m. Speed=13.824000m/h.</desc>
<speed>3.840000</speed>
</trkpt>
<trkpt lat="56.054928" lon="26.530052">
<ele>100.780334</ele>
<time>2010-08-29T11:00:48Z</time>
<desc>lat.=56.054928, lon.=26.530052, Alt.=100.780334m. Speed=12.852000m/h.</desc>
<speed>3.570000</speed>
</trkpt>
<trkpt lat="56.054951" lon="26.530008">
<ele>101.239319</ele>
<time>2010-08-29T11:00:49Z</time>
<desc>lat.=56.054951, lon.=26.530008, Alt.=101.239319m. Speed=11.988000m/h.</desc>
<speed>3.330000</speed>
</trkpt>
<trkpt lat="56.054970" lon="26.529966">
<ele>100.956116</ele>
<time>2010-08-29T11:00:50Z</time>
<desc>lat.=56.054970, lon.=26.529966, Alt.=100.956116m. Speed=11.628000m/h.</desc>
<speed>3.230000</speed>
</trkpt>
<trkpt lat="56.054993" lon="26.529930">
<ele>101.032288</ele>
<time>2010-08-29T11:00:51Z</time>
<desc>lat.=56.054993, lon.=26.529930, Alt.=101.032288m. Speed=12.780000m/h.</desc>
<speed>3.550000</speed>
</trkpt>
<trkpt lat="56.055016" lon="26.529896">
<ele>101.104553</ele>
<time>2010-08-29T11:00:52Z</time>
<desc>lat.=56.055016, lon.=26.529896, Alt.=101.104553m. Speed=12.564000m/h.</desc>
<speed>3.490000</speed>
</trkpt>
<trkpt lat="56.055046" lon="26.529858">
<ele>101.497131</ele>
<time>2010-08-29T11:00:53Z</time>
<desc>lat.=56.055046, lon.=26.529858, Alt.=101.497131m. Speed=12.456000m/h.</desc>
<speed>3.460000</speed>
</trkpt>
<trkpt lat="56.055073" lon="26.529821">
<ele>102.379944</ele>
<time>2010-08-29T11:00:54Z</time>
<desc>lat.=56.055073, lon.=26.529821, Alt.=102.379944m. Speed=13.284000m/h.</desc>
<speed>3.690000</speed>
</trkpt>
<trkpt lat="56.055107" lon="26.529779">
<ele>102.581116</ele>
<time>2010-08-29T11:00:55Z</time>
<desc>lat.=56.055107, lon.=26.529779, Alt.=102.581116m. Speed=14.436000m/h.</desc>
<speed>4.010000</speed>
</trkpt>
<trkpt lat="56.055134" lon="26.529745">
<ele>102.153381</ele>
<time>2010-08-29T11:00:56Z</time>
<desc>lat.=56.055134, lon.=26.529745, Alt.=102.153381m. Speed=13.392000m/h.</desc>
<speed>3.720000</speed>
</trkpt>
<trkpt lat="56.055157" lon="26.529716">
<ele>101.891663</ele>
<time>2010-08-29T11:00:57Z</time>
<desc>lat.=56.055157, lon.=26.529716, Alt.=101.891663m. Speed=12.816000m/h.</desc>
<speed>3.560000</speed>
</trkpt>
<trkpt lat="56.055183" lon="26.529688">
<ele>101.807678</ele>
<time>2010-08-29T11:00:58Z</time>
<desc>lat.=56.055183, lon.=26.529688, Alt.=101.807678m. Speed=10.692000m/h.</desc>
<speed>2.970000</speed>
</trkpt>
<trkpt lat="56.055202" lon="26.529665">
<ele>101.797913</ele>
<time>2010-08-29T11:00:59Z</time>
<desc>lat.=56.055202, lon.=26.529665, Alt.=101.797913m. Speed=9.684000m/h.</desc>
<speed>2.690000</speed>
</trkpt>
<trkpt lat="56.055225" lon="26.529640">
<ele>101.678772</ele>
<time>2010-08-29T11:01:00Z</time>
<desc>lat.=56.055225, lon.=26.529640, Alt.=101.678772m. Speed=10.404000m/h.</desc>
<speed>2.890000</speed>
</trkpt>
<trkpt lat="56.055248" lon="26.529612">
<ele>101.288147</ele>
<time>2010-08-29T11:01:01Z</time>
<desc>lat.=56.055248, lon.=26.529612, Alt.=101.288147m. Speed=11.448000m/h.</desc>
<speed>3.180000</speed>
</trkpt>
<trkpt lat="56.055271" lon="26.529583">
<ele>100.756897</ele>
<time>2010-08-29T11:01:02Z</time>
<desc>lat.=56.055271, lon.=26.529583, Alt.=100.756897m. Speed=12.024000m/h.</desc>
<speed>3.340000</speed>
</trkpt>
<trkpt lat="56.055302" lon="26.529554">
<ele>100.260803</ele>
<time>2010-08-29T11:01:03Z</time>
<desc>lat.=56.055302, lon.=26.529554, Alt.=100.260803m. Speed=12.708000m/h.</desc>
<speed>3.530000</speed>
</trkpt>
<trkpt lat="56.055325" lon="26.529526">
<ele>99.821350</ele>
<time>2010-08-29T11:01:04Z</time>
<desc>lat.=56.055325, lon.=26.529526, Alt.=99.821350m. Speed=10.944000m/h.</desc>
<speed>3.040000</speed>
</trkpt>
<trkpt lat="56.055355" lon="26.529501">
<ele>100.643616</ele>
<time>2010-08-29T11:01:05Z</time>
<desc>lat.=56.055355, lon.=26.529501, Alt.=100.643616m. Speed=12.996000m/h.</desc>
<speed>3.610000</speed>
</trkpt>
<trkpt lat="56.055382" lon="26.529478">
<ele>100.473694</ele>
<time>2010-08-29T11:01:06Z</time>
<desc>lat.=56.055382, lon.=26.529478, Alt.=100.473694m. Speed=12.132000m/h.</desc>
<speed>3.370000</speed>
</trkpt>
<trkpt lat="56.055416" lon="26.529449">
<ele>100.260803</ele>
<time>2010-08-29T11:01:07Z</time>
<desc>lat.=56.055416, lon.=26.529449, Alt.=100.260803m. Speed=13.500000m/h.</desc>
<speed>3.750000</speed>
</trkpt>
<trkpt lat="56.055447" lon="26.529417">
<ele>99.975647</ele>
<time>2010-08-29T11:01:08Z</time>
<desc>lat.=56.055447, lon.=26.529417, Alt.=99.975647m. Speed=13.716000m/h.</desc>
<speed>3.810000</speed>
</trkpt>
<trkpt lat="56.055477" lon="26.529383">
<ele>98.995178</ele>
<time>2010-08-29T11:01:09Z</time>
<desc>lat.=56.055477, lon.=26.529383, Alt.=98.995178m. Speed=14.760000m/h.</desc>
<speed>4.100000</speed>
</trkpt>
<trkpt lat="56.055508" lon="26.529345">
<ele>98.471741</ele>
<time>2010-08-29T11:01:10Z</time>
<desc>lat.=56.055508, lon.=26.529345, Alt.=98.471741m. Speed=14.328000m/h.</desc>
<speed>3.980000</speed>
</trkpt>
<trkpt lat="56.055542" lon="26.529316">
<ele>98.403381</ele>
<time>2010-08-29T11:01:11Z</time>
<desc>lat.=56.055542, lon.=26.529316, Alt.=98.403381m. Speed=14.184000m/h.</desc>
<speed>3.940000</speed>
</trkpt>
<trkpt lat="56.055580" lon="26.529287">
<ele>99.288147</ele>
<time>2010-08-29T11:01:12Z</time>
<desc>lat.=56.055580, lon.=26.529287, Alt.=99.288147m. Speed=14.904000m/h.</desc>
<speed>4.140000</speed>
</trkpt>
<trkpt lat="56.055614" lon="26.529259">
<ele>99.067444</ele>
<time>2010-08-29T11:01:13Z</time>
<desc>lat.=56.055614, lon.=26.529259, Alt.=99.067444m. Speed=14.760000m/h.</desc>
<speed>4.100000</speed>
</trkpt>
<trkpt lat="56.055641" lon="26.529234">
<ele>98.485413</ele>
<time>2010-08-29T11:01:14Z</time>
<desc>lat.=56.055641, lon.=26.529234, Alt.=98.485413m. Speed=11.160000m/h.</desc>
<speed>3.100000</speed>
</trkpt>
<trkpt lat="56.055672" lon="26.529209">
<ele>97.756897</ele>
<time>2010-08-29T11:01:15Z</time>
<desc>lat.=56.055672, lon.=26.529209, Alt.=97.756897m. Speed=11.808000m/h.</desc>
<speed>3.280000</speed>
</trkpt>
<trkpt lat="56.055702" lon="26.529184">
<ele>97.155334</ele>
<time>2010-08-29T11:01:16Z</time>
<desc>lat.=56.055702, lon.=26.529184, Alt.=97.155334m. Speed=14.328000m/h.</desc>
<speed>3.980000</speed>
</trkpt>
<trkpt lat="56.055737" lon="26.529158">
<ele>96.786194</ele>
<time>2010-08-29T11:01:17Z</time>
<desc>lat.=56.055737, lon.=26.529158, Alt.=96.786194m. Speed=14.544000m/h.</desc>
<speed>4.040000</speed>
</trkpt>
<trkpt lat="56.055771" lon="26.529137">
<ele>96.100647</ele>
<time>2010-08-29T11:01:18Z</time>
<desc>lat.=56.055771, lon.=26.529137, Alt.=96.100647m. Speed=12.096000m/h.</desc>
<speed>3.360000</speed>
</trkpt>
<trkpt lat="56.055794" lon="26.529123">
<ele>95.475647</ele>
<time>2010-08-29T11:01:19Z</time>
<desc>lat.=56.055794, lon.=26.529123, Alt.=95.475647m. Speed=8.892000m/h.</desc>
<speed>2.470000</speed>
</trkpt>
<trkpt lat="56.055817" lon="26.529104">
<ele>94.747131</ele>
<time>2010-08-29T11:01:20Z</time>
<desc>lat.=56.055817, lon.=26.529104, Alt.=94.747131m. Speed=8.604000m/h.</desc>
<speed>2.390000</speed>
</trkpt>
<trkpt lat="56.055836" lon="26.529089">
<ele>93.936584</ele>
<time>2010-08-29T11:01:21Z</time>
<desc>lat.=56.055836, lon.=26.529089, Alt.=93.936584m. Speed=8.424000m/h.</desc>
<speed>2.340000</speed>
</trkpt>
<trkpt lat="56.055859" lon="26.529085">
<ele>93.829163</ele>
<time>2010-08-29T11:01:22Z</time>
<desc>lat.=56.055859, lon.=26.529085, Alt.=93.829163m. Speed=6.192000m/h.</desc>
<speed>1.720000</speed>
</trkpt>
<trkpt lat="56.055885" lon="26.529089">
<ele>95.438538</ele>
<time>2010-08-29T11:01:23Z</time>
<desc>lat.=56.055885, lon.=26.529089, Alt.=95.438538m. Speed=6.480000m/h.</desc>
<speed>1.800000</speed>
</trkpt>
<trkpt lat="56.055908" lon="26.529079">
<ele>97.647522</ele>
<time>2010-08-29T11:01:24Z</time>
<desc>lat.=56.055908, lon.=26.529079, Alt.=97.647522m. Speed=7.164000m/h.</desc>
<speed>1.990000</speed>
</trkpt>
<trkpt lat="56.055927" lon="26.529060">
<ele>97.522522</ele>
<time>2010-08-29T11:01:25Z</time>
<desc>lat.=56.055927, lon.=26.529060, Alt.=97.522522m. Speed=7.524000m/h.</desc>
<speed>2.090000</speed>
</trkpt>
<trkpt lat="56.055943" lon="26.529049">
<ele>97.614319</ele>
<time>2010-08-29T11:01:26Z</time>
<desc>lat.=56.055943, lon.=26.529049, Alt.=97.614319m. Speed=7.236000m/h.</desc>
<speed>2.010000</speed>
</trkpt>
<trkpt lat="56.055962" lon="26.529032">
<ele>97.204163</ele>
<time>2010-08-29T11:01:27Z</time>
<desc>lat.=56.055962, lon.=26.529032, Alt.=97.204163m. Speed=8.460000m/h.</desc>
<speed>2.350000</speed>
</trkpt>
<trkpt lat="56.055984" lon="26.529013">
<ele>96.645569</ele>
<time>2010-08-29T11:01:28Z</time>
<desc>lat.=56.055984, lon.=26.529013, Alt.=96.645569m. Speed=8.784000m/h.</desc>
<speed>2.440000</speed>
</trkpt>
<trkpt lat="56.056011" lon="26.529001">
<ele>96.616272</ele>
<time>2010-08-29T11:01:29Z</time>
<desc>lat.=56.056011, lon.=26.529001, Alt.=96.616272m. Speed=9.648000m/h.</desc>
<speed>2.680000</speed>
</trkpt>
<trkpt lat="56.056034" lon="26.528975">
<ele>96.065491</ele>
<time>2010-08-29T11:01:30Z</time>
<desc>lat.=56.056034, lon.=26.528975, Alt.=96.065491m. Speed=9.864000m/h.</desc>
<speed>2.740000</speed>
</trkpt>
<trkpt lat="56.056053" lon="26.528952">
<ele>95.504944</ele>
<time>2010-08-29T11:01:31Z</time>
<desc>lat.=56.056053, lon.=26.528952, Alt.=95.504944m. Speed=9.648000m/h.</desc>
<speed>2.680000</speed>
</trkpt>
<trkpt lat="56.056076" lon="26.528933">
<ele>95.055725</ele>
<time>2010-08-29T11:01:32Z</time>
<desc>lat.=56.056076, lon.=26.528933, Alt.=95.055725m. Speed=10.980000m/h.</desc>
<speed>3.050000</speed>
</trkpt>
<trkpt lat="56.056099" lon="26.528904">
<ele>94.594788</ele>
<time>2010-08-29T11:01:33Z</time>
<desc>lat.=56.056099, lon.=26.528904, Alt.=94.594788m. Speed=11.952000m/h.</desc>
<speed>3.320000</speed>
</trkpt>
<trkpt lat="56.056114" lon="26.528879">
<ele>94.682678</ele>
<time>2010-08-29T11:01:34Z</time>
<desc>lat.=56.056114, lon.=26.528879, Alt.=94.682678m. Speed=11.736000m/h.</desc>
<speed>3.260000</speed>
</trkpt>
<trkpt lat="56.056137" lon="26.528860">
<ele>93.467834</ele>
<time>2010-08-29T11:01:35Z</time>
<desc>lat.=56.056137, lon.=26.528860, Alt.=93.467834m. Speed=8.172000m/h.</desc>
<speed>2.270000</speed>
</trkpt>
<trkpt lat="56.056160" lon="26.528854">
<ele>92.588928</ele>
<time>2010-08-29T11:01:36Z</time>
<desc>lat.=56.056160, lon.=26.528854, Alt.=92.588928m. Speed=6.912000m/h.</desc>
<speed>1.920000</speed>
</trkpt>
<trkpt lat="56.056183" lon="26.528858">
<ele>92.321350</ele>
<time>2010-08-29T11:01:37Z</time>
<desc>lat.=56.056183, lon.=26.528858, Alt.=92.321350m. Speed=8.460000m/h.</desc>
<speed>2.350000</speed>
</trkpt>
<trkpt lat="56.056210" lon="26.528862">
<ele>91.752991</ele>
<time>2010-08-29T11:01:38Z</time>
<desc>lat.=56.056210, lon.=26.528862, Alt.=91.752991m. Speed=9.648000m/h.</desc>
<speed>2.680000</speed>
</trkpt>
<trkpt lat="56.056236" lon="26.528872">
<ele>91.149475</ele>
<time>2010-08-29T11:01:39Z</time>
<desc>lat.=56.056236, lon.=26.528872, Alt.=91.149475m. Speed=10.152000m/h.</desc>
<speed>2.820000</speed>
</trkpt>
<trkpt lat="56.056263" lon="26.528881">
<ele>90.600647</ele>
<time>2010-08-29T11:01:40Z</time>
<desc>lat.=56.056263, lon.=26.528881, Alt.=90.600647m. Speed=9.108000m/h.</desc>
<speed>2.530000</speed>
</trkpt>
<trkpt lat="56.056282" lon="26.528887">
<ele>89.665100</ele>
<time>2010-08-29T11:01:41Z</time>
<desc>lat.=56.056282, lon.=26.528887, Alt.=89.665100m. Speed=8.280000m/h.</desc>
<speed>2.300000</speed>
</trkpt>
<trkpt lat="56.056305" lon="26.528893">
<ele>88.930725</ele>
<time>2010-08-29T11:01:42Z</time>
<desc>lat.=56.056305, lon.=26.528893, Alt.=88.930725m. Speed=10.332000m/h.</desc>
<speed>2.870000</speed>
</trkpt>
<trkpt lat="56.056332" lon="26.528900">
<ele>88.397522</ele>
<time>2010-08-29T11:01:43Z</time>
<desc>lat.=56.056332, lon.=26.528900, Alt.=88.397522m. Speed=11.556000m/h.</desc>
<speed>3.210000</speed>
</trkpt>
<trkpt lat="56.056362" lon="26.528904">
<ele>87.629944</ele>
<time>2010-08-29T11:01:44Z</time>
<desc>lat.=56.056362, lon.=26.528904, Alt.=87.629944m. Speed=11.052000m/h.</desc>
<speed>3.070000</speed>
</trkpt>
<trkpt lat="56.056389" lon="26.528915">
<ele>86.797913</ele>
<time>2010-08-29T11:01:45Z</time>
<desc>lat.=56.056389, lon.=26.528915, Alt.=86.797913m. Speed=11.196000m/h.</desc>
<speed>3.110000</speed>
</trkpt>
<trkpt lat="56.056419" lon="26.528925">
<ele>86.008850</ele>
<time>2010-08-29T11:01:46Z</time>
<desc>lat.=56.056419, lon.=26.528925, Alt.=86.008850m. Speed=10.512000m/h.</desc>
<speed>2.920000</speed>
</trkpt>
<trkpt lat="56.056446" lon="26.528933">
<ele>85.581116</ele>
<time>2010-08-29T11:01:47Z</time>
<desc>lat.=56.056446, lon.=26.528933, Alt.=85.581116m. Speed=9.936000m/h.</desc>
<speed>2.760000</speed>
</trkpt>
<trkpt lat="56.056473" lon="26.528942">
<ele>85.924866</ele>
<time>2010-08-29T11:01:48Z</time>
<desc>lat.=56.056473, lon.=26.528942, Alt.=85.924866m. Speed=9.972000m/h.</desc>
<speed>2.770000</speed>
</trkpt>
<trkpt lat="56.056499" lon="26.528957">
<ele>86.542053</ele>
<time>2010-08-29T11:01:49Z</time>
<desc>lat.=56.056499, lon.=26.528957, Alt.=86.542053m. Speed=9.036000m/h.</desc>
<speed>2.510000</speed>
</trkpt>
<trkpt lat="56.056519" lon="26.528969">
<ele>85.989319</ele>
<time>2010-08-29T11:01:50Z</time>
<desc>lat.=56.056519, lon.=26.528969, Alt.=85.989319m. Speed=5.904000m/h.</desc>
<speed>1.640000</speed>
</trkpt>
<trkpt lat="56.056534" lon="26.528980">
<ele>84.971741</ele>
<time>2010-08-29T11:01:51Z</time>
<desc>lat.=56.056534, lon.=26.528980, Alt.=84.971741m. Speed=5.760000m/h.</desc>
<speed>1.600000</speed>
</trkpt>
<trkpt lat="56.056549" lon="26.528986">
<ele>85.204163</ele>
<time>2010-08-29T11:01:52Z</time>
<desc>lat.=56.056549, lon.=26.528986, Alt.=85.204163m. Speed=6.012000m/h.</desc>
<speed>1.670000</speed>
</trkpt>
<trkpt lat="56.056564" lon="26.528996">
<ele>84.467834</ele>
<time>2010-08-29T11:01:53Z</time>
<desc>lat.=56.056564, lon.=26.528996, Alt.=84.467834m. Speed=5.832000m/h.</desc>
<speed>1.620000</speed>
</trkpt>
<trkpt lat="56.056580" lon="26.529001">
<ele>84.645569</ele>
<time>2010-08-29T11:01:54Z</time>
<desc>lat.=56.056580, lon.=26.529001, Alt.=84.645569m. Speed=5.976000m/h.</desc>
<speed>1.660000</speed>
</trkpt>
<trkpt lat="56.056587" lon="26.529011">
<ele>84.471741</ele>
<time>2010-08-29T11:01:55Z</time>
<desc>lat.=56.056587, lon.=26.529011, Alt.=84.471741m. Speed=4.824000m/h.</desc>
<speed>1.340000</speed>
</trkpt>
<trkpt lat="56.056599" lon="26.529026">
<ele>84.809631</ele>
<time>2010-08-29T11:01:56Z</time>
<desc>lat.=56.056599, lon.=26.529026, Alt.=84.809631m. Speed=6.948000m/h.</desc>
<speed>1.930000</speed>
</trkpt>
<trkpt lat="56.056618" lon="26.529034">
<ele>84.333069</ele>
<time>2010-08-29T11:01:57Z</time>
<desc>lat.=56.056618, lon.=26.529034, Alt.=84.333069m. Speed=7.308000m/h.</desc>
<speed>2.030000</speed>
</trkpt>
<trkpt lat="56.056637" lon="26.529047">
<ele>84.510803</ele>
<time>2010-08-29T11:01:58Z</time>
<desc>lat.=56.056637, lon.=26.529047, Alt.=84.510803m. Speed=9.576000m/h.</desc>
<speed>2.660000</speed>
</trkpt>
<trkpt lat="56.056656" lon="26.529055">
<ele>84.659241</ele>
<time>2010-08-29T11:01:59Z</time>
<desc>lat.=56.056656, lon.=26.529055, Alt.=84.659241m. Speed=9.432000m/h.</desc>
<speed>2.620000</speed>
</trkpt>
<trkpt lat="56.056679" lon="26.529064">
<ele>85.229553</ele>
<time>2010-08-29T11:02:00Z</time>
<desc>lat.=56.056679, lon.=26.529064, Alt.=85.229553m. Speed=11.700000m/h.</desc>
<speed>3.250000</speed>
</trkpt>
<trkpt lat="56.056709" lon="26.529078">
<ele>85.602600</ele>
<time>2010-08-29T11:02:01Z</time>
<desc>lat.=56.056709, lon.=26.529078, Alt.=85.602600m. Speed=14.076000m/h.</desc>
<speed>3.910000</speed>
</trkpt>
<trkpt lat="56.056744" lon="26.529093">
<ele>85.883850</ele>
<time>2010-08-29T11:02:02Z</time>
<desc>lat.=56.056744, lon.=26.529093, Alt.=85.883850m. Speed=13.644000m/h.</desc>
<speed>3.790000</speed>
</trkpt>
<trkpt lat="56.056770" lon="26.529112">
<ele>86.413147</ele>
<time>2010-08-29T11:02:03Z</time>
<desc>lat.=56.056770, lon.=26.529112, Alt.=86.413147m. Speed=13.608000m/h.</desc>
<speed>3.780000</speed>
</trkpt>
<trkpt lat="56.056801" lon="26.529131">
<ele>86.751038</ele>
<time>2010-08-29T11:02:04Z</time>
<desc>lat.=56.056801, lon.=26.529131, Alt.=86.751038m. Speed=13.212000m/h.</desc>
<speed>3.670000</speed>
</trkpt>
<trkpt lat="56.056835" lon="26.529148">
<ele>87.182678</ele>
<time>2010-08-29T11:02:05Z</time>
<desc>lat.=56.056835, lon.=26.529148, Alt.=87.182678m. Speed=13.320000m/h.</desc>
<speed>3.700000</speed>
</trkpt>
<trkpt lat="56.056862" lon="26.529169">
<ele>89.467834</ele>
<time>2010-08-29T11:02:06Z</time>
<desc>lat.=56.056862, lon.=26.529169, Alt.=89.467834m. Speed=12.492000m/h.</desc>
<speed>3.470000</speed>
</trkpt>
<trkpt lat="56.056889" lon="26.529184">
<ele>88.954163</ele>
<time>2010-08-29T11:02:07Z</time>
<desc>lat.=56.056889, lon.=26.529184, Alt.=88.954163m. Speed=12.168000m/h.</desc>
<speed>3.380000</speed>
</trkpt>
<trkpt lat="56.056919" lon="26.529200">
<ele>88.958069</ele>
<time>2010-08-29T11:02:08Z</time>
<desc>lat.=56.056919, lon.=26.529200, Alt.=88.958069m. Speed=12.348000m/h.</desc>
<speed>3.430000</speed>
</trkpt>
<trkpt lat="56.056950" lon="26.529215">
<ele>89.413147</ele>
<time>2010-08-29T11:02:09Z</time>
<desc>lat.=56.056950, lon.=26.529215, Alt.=89.413147m. Speed=13.860000m/h.</desc>
<speed>3.850000</speed>
</trkpt>
<trkpt lat="56.056980" lon="26.529230">
<ele>89.950256</ele>
<time>2010-08-29T11:02:10Z</time>
<desc>lat.=56.056980, lon.=26.529230, Alt.=89.950256m. Speed=13.824000m/h.</desc>
<speed>3.840000</speed>
</trkpt>
<trkpt lat="56.057014" lon="26.529249">
<ele>90.290100</ele>
<time>2010-08-29T11:02:11Z</time>
<desc>lat.=56.057014, lon.=26.529249, Alt.=90.290100m. Speed=14.148000m/h.</desc>
<speed>3.930000</speed>
</trkpt>
<trkpt lat="56.057045" lon="26.529270">
<ele>90.639709</ele>
<time>2010-08-29T11:02:12Z</time>
<desc>lat.=56.057045, lon.=26.529270, Alt.=90.639709m. Speed=13.788000m/h.</desc>
<speed>3.830000</speed>
</trkpt>
<trkpt lat="56.057079" lon="26.529293">
<ele>90.448303</ele>
<time>2010-08-29T11:02:13Z</time>
<desc>lat.=56.057079, lon.=26.529293, Alt.=90.448303m. Speed=14.040000m/h.</desc>
<speed>3.900000</speed>
</trkpt>
<trkpt lat="56.057110" lon="26.529318">
<ele>90.620178</ele>
<time>2010-08-29T11:02:14Z</time>
<desc>lat.=56.057110, lon.=26.529318, Alt.=90.620178m. Speed=13.608000m/h.</desc>
<speed>3.780000</speed>
</trkpt>
<trkpt lat="56.057144" lon="26.529346">
<ele>91.260803</ele>
<time>2010-08-29T11:02:15Z</time>
<desc>lat.=56.057144, lon.=26.529346, Alt.=91.260803m. Speed=14.292000m/h.</desc>
<speed>3.970000</speed>
</trkpt>
<trkpt lat="56.057178" lon="26.529369">
<ele>91.260803</ele>
<time>2010-08-29T11:02:16Z</time>
<desc>lat.=56.057178, lon.=26.529369, Alt.=91.260803m. Speed=14.256000m/h.</desc>
<speed>3.960000</speed>
</trkpt>
<trkpt lat="56.057209" lon="26.529394">
<ele>91.448303</ele>
<time>2010-08-29T11:02:17Z</time>
<desc>lat.=56.057209, lon.=26.529394, Alt.=91.448303m. Speed=13.644000m/h.</desc>
<speed>3.790000</speed>
</trkpt>
<trkpt lat="56.057240" lon="26.529417">
<ele>91.551819</ele>
<time>2010-08-29T11:02:18Z</time>
<desc>lat.=56.057240, lon.=26.529417, Alt.=91.551819m. Speed=13.356000m/h.</desc>
<speed>3.710000</speed>
</trkpt>
<trkpt lat="56.057274" lon="26.529434">
<ele>91.835022</ele>
<time>2010-08-29T11:02:19Z</time>
<desc>lat.=56.057274, lon.=26.529434, Alt.=91.835022m. Speed=12.564000m/h.</desc>
<speed>3.490000</speed>
</trkpt>
<trkpt lat="56.057304" lon="26.529451">
<ele>91.786194</ele>
<time>2010-08-29T11:02:20Z</time>
<desc>lat.=56.057304, lon.=26.529451, Alt.=91.786194m. Speed=12.888000m/h.</desc>
<speed>3.580000</speed>
</trkpt>
<trkpt lat="56.057335" lon="26.529476">
<ele>91.086975</ele>
<time>2010-08-29T11:02:21Z</time>
<desc>lat.=56.057335, lon.=26.529476, Alt.=91.086975m. Speed=14.040000m/h.</desc>
<speed>3.900000</speed>
</trkpt>
<trkpt lat="56.057373" lon="26.529493">
<ele>90.858459</ele>
<time>2010-08-29T11:02:22Z</time>
<desc>lat.=56.057373, lon.=26.529493, Alt.=90.858459m. Speed=14.832000m/h.</desc>
<speed>4.120000</speed>
</trkpt>
<trkpt lat="56.057407" lon="26.529514">
<ele>90.782288</ele>
<time>2010-08-29T11:02:23Z</time>
<desc>lat.=56.057407, lon.=26.529514, Alt.=90.782288m. Speed=14.760000m/h.</desc>
<speed>4.100000</speed>
</trkpt>
<trkpt lat="56.057442" lon="26.529535">
<ele>90.333069</ele>
<time>2010-08-29T11:02:24Z</time>
<desc>lat.=56.057442, lon.=26.529535, Alt.=90.333069m. Speed=15.120000m/h.</desc>
<speed>4.200000</speed>
</trkpt>
<trkpt lat="56.057480" lon="26.529558">
<ele>90.460022</ele>
<time>2010-08-29T11:02:25Z</time>
<desc>lat.=56.057480, lon.=26.529558, Alt.=90.460022m. Speed=15.660000m/h.</desc>
<speed>4.350000</speed>
</trkpt>
<trkpt lat="56.057514" lon="26.529579">
<ele>90.596741</ele>
<time>2010-08-29T11:02:26Z</time>
<desc>lat.=56.057514, lon.=26.529579, Alt.=90.596741m. Speed=15.804000m/h.</desc>
<speed>4.390000</speed>
</trkpt>
<trkpt lat="56.057556" lon="26.529598">
<ele>90.913147</ele>
<time>2010-08-29T11:02:27Z</time>
<desc>lat.=56.057556, lon.=26.529598, Alt.=90.913147m. Speed=15.480000m/h.</desc>
<speed>4.300000</speed>
</trkpt>
<trkpt lat="56.057594" lon="26.529617">
<ele>91.405334</ele>
<time>2010-08-29T11:02:28Z</time>
<desc>lat.=56.057594, lon.=26.529617, Alt.=91.405334m. Speed=16.164000m/h.</desc>
<speed>4.490000</speed>
</trkpt>
<trkpt lat="56.057632" lon="26.529636">
<ele>91.276428</ele>
<time>2010-08-29T11:02:29Z</time>
<desc>lat.=56.057632, lon.=26.529636, Alt.=91.276428m. Speed=16.164000m/h.</desc>
<speed>4.490000</speed>
</trkpt>
<trkpt lat="56.057674" lon="26.529655">
<ele>91.491272</ele>
<time>2010-08-29T11:02:30Z</time>
<desc>lat.=56.057674, lon.=26.529655, Alt.=91.491272m. Speed=16.200001m/h.</desc>
<speed>4.500000</speed>
</trkpt>
<trkpt lat="56.057713" lon="26.529675">
<ele>91.473694</ele>
<time>2010-08-29T11:02:31Z</time>
<desc>lat.=56.057713, lon.=26.529675, Alt.=91.473694m. Speed=16.164000m/h.</desc>
<speed>4.490000</speed>
</trkpt>
<trkpt lat="56.057751" lon="26.529694">
<ele>91.514709</ele>
<time>2010-08-29T11:02:32Z</time>
<desc>lat.=56.057751, lon.=26.529694, Alt.=91.514709m. Speed=16.524000m/h.</desc>
<speed>4.590000</speed>
</trkpt>
<trkpt lat="56.057793" lon="26.529713">
<ele>91.499084</ele>
<time>2010-08-29T11:02:33Z</time>
<desc>lat.=56.057793, lon.=26.529713, Alt.=91.499084m. Speed=15.696000m/h.</desc>
<speed>4.360000</speed>
</trkpt>
<trkpt lat="56.057835" lon="26.529739">
<ele>91.059631</ele>
<time>2010-08-29T11:02:34Z</time>
<desc>lat.=56.057835, lon.=26.529739, Alt.=91.059631m. Speed=16.667999m/h.</desc>
<speed>4.630000</speed>
</trkpt>
<trkpt lat="56.057873" lon="26.529764">
<ele>91.073303</ele>
<time>2010-08-29T11:02:35Z</time>
<desc>lat.=56.057873, lon.=26.529764, Alt.=91.073303m. Speed=15.768000m/h.</desc>
<speed>4.380000</speed>
</trkpt>
<trkpt lat="56.057907" lon="26.529787">
<ele>91.059631</ele>
<time>2010-08-29T11:02:36Z</time>
<desc>lat.=56.057907, lon.=26.529787, Alt.=91.059631m. Speed=15.588000m/h.</desc>
<speed>4.330000</speed>
</trkpt>
<trkpt lat="56.057945" lon="26.529814">
<ele>91.026428</ele>
<time>2010-08-29T11:02:37Z</time>
<desc>lat.=56.057945, lon.=26.529814, Alt.=91.026428m. Speed=15.552000m/h.</desc>
<speed>4.320000</speed>
</trkpt>
<trkpt lat="56.057983" lon="26.529837">
<ele>91.155334</ele>
<time>2010-08-29T11:02:38Z</time>
<desc>lat.=56.057983, lon.=26.529837, Alt.=91.155334m. Speed=16.200001m/h.</desc>
<speed>4.500000</speed>
</trkpt>
<trkpt lat="56.058022" lon="26.529865">
<ele>91.536194</ele>
<time>2010-08-29T11:02:39Z</time>
<desc>lat.=56.058022, lon.=26.529865, Alt.=91.536194m. Speed=16.091999m/h.</desc>
<speed>4.470000</speed>
</trkpt>
<trkpt lat="56.058060" lon="26.529894">
<ele>91.778381</ele>
<time>2010-08-29T11:02:40Z</time>
<desc>lat.=56.058060, lon.=26.529894, Alt.=91.778381m. Speed=16.308001m/h.</desc>
<speed>4.530000</speed>
</trkpt>
<trkpt lat="56.058098" lon="26.529924">
<ele>91.893616</ele>
<time>2010-08-29T11:02:41Z</time>
<desc>lat.=56.058098, lon.=26.529924, Alt.=91.893616m. Speed=15.192000m/h.</desc>
<speed>4.220000</speed>
</trkpt>
<trkpt lat="56.058136" lon="26.529961">
<ele>92.145569</ele>
<time>2010-08-29T11:02:42Z</time>
<desc>lat.=56.058136, lon.=26.529961, Alt.=92.145569m. Speed=16.452000m/h.</desc>
<speed>4.570000</speed>
</trkpt>
<trkpt lat="56.058167" lon="26.530008">
<ele>91.852600</ele>
<time>2010-08-29T11:02:43Z</time>
<desc>lat.=56.058167, lon.=26.530008, Alt.=91.852600m. Speed=15.696000m/h.</desc>
<speed>4.360000</speed>
</trkpt>
<trkpt lat="56.058201" lon="26.530054">
<ele>91.657288</ele>
<time>2010-08-29T11:02:44Z</time>
<desc>lat.=56.058201, lon.=26.530054, Alt.=91.657288m. Speed=16.128000m/h.</desc>
<speed>4.480000</speed>
</trkpt>
<trkpt lat="56.058235" lon="26.530106">
<ele>91.864319</ele>
<time>2010-08-29T11:02:45Z</time>
<desc>lat.=56.058235, lon.=26.530106, Alt.=91.864319m. Speed=16.308001m/h.</desc>
<speed>4.530000</speed>
</trkpt>
<trkpt lat="56.058262" lon="26.530155">
<ele>91.997131</ele>
<time>2010-08-29T11:02:46Z</time>
<desc>lat.=56.058262, lon.=26.530155, Alt.=91.997131m. Speed=14.328000m/h.</desc>
<speed>3.980000</speed>
</trkpt>
<trkpt lat="56.058273" lon="26.530210">
<ele>92.067444</ele>
<time>2010-08-29T11:02:47Z</time>
<desc>lat.=56.058273, lon.=26.530210, Alt.=92.067444m. Speed=12.024000m/h.</desc>
<speed>3.340000</speed>
</trkpt>
<trkpt lat="56.058285" lon="26.530256">
<ele>92.475647</ele>
<time>2010-08-29T11:02:48Z</time>
<desc>lat.=56.058285, lon.=26.530256, Alt.=92.475647m. Speed=10.584000m/h.</desc>
<speed>2.940000</speed>
</trkpt>
<trkpt lat="56.058296" lon="26.530294">
<ele>92.458069</ele>
<time>2010-08-29T11:02:49Z</time>
<desc>lat.=56.058296, lon.=26.530294, Alt.=92.458069m. Speed=10.476000m/h.</desc>
<speed>2.910000</speed>
</trkpt>
<trkpt lat="56.058308" lon="26.530340">
<ele>92.426819</ele>
<time>2010-08-29T11:02:50Z</time>
<desc>lat.=56.058308, lon.=26.530340, Alt.=92.426819m. Speed=11.304000m/h.</desc>
<speed>3.140000</speed>
</trkpt>
<trkpt lat="56.058311" lon="26.530378">
<ele>92.653381</ele>
<time>2010-08-29T11:02:51Z</time>
<desc>lat.=56.058311, lon.=26.530378, Alt.=92.653381m. Speed=5.688000m/h.</desc>
<speed>1.580000</speed>
</trkpt>
<trkpt lat="56.058315" lon="26.530413">
<ele>92.956116</ele>
<time>2010-08-29T11:02:52Z</time>
<desc>lat.=56.058315, lon.=26.530413, Alt.=92.956116m. Speed=10.332000m/h.</desc>
<speed>2.870000</speed>
</trkpt>
<trkpt lat="56.058323" lon="26.530466">
<ele>93.208069</ele>
<time>2010-08-29T11:02:53Z</time>
<desc>lat.=56.058323, lon.=26.530466, Alt.=93.208069m. Speed=12.384000m/h.</desc>
<speed>3.440000</speed>
</trkpt>
<trkpt lat="56.058323" lon="26.530523">
<ele>93.413147</ele>
<time>2010-08-29T11:02:54Z</time>
<desc>lat.=56.058323, lon.=26.530523, Alt.=93.413147m. Speed=12.348000m/h.</desc>
<speed>3.430000</speed>
</trkpt>
<trkpt lat="56.058315" lon="26.530588">
<ele>93.883850</ele>
<time>2010-08-29T11:02:55Z</time>
<desc>lat.=56.058315, lon.=26.530588, Alt.=93.883850m. Speed=12.960000m/h.</desc>
<speed>3.600000</speed>
</trkpt>
<trkpt lat="56.058319" lon="26.530663">
<ele>93.917053</ele>
<time>2010-08-29T11:02:56Z</time>
<desc>lat.=56.058319, lon.=26.530663, Alt.=93.917053m. Speed=16.632000m/h.</desc>
<speed>4.620000</speed>
</trkpt>
<trkpt lat="56.058319" lon="26.530739">
<ele>94.075256</ele>
<time>2010-08-29T11:02:57Z</time>
<desc>lat.=56.058319, lon.=26.530739, Alt.=94.075256m. Speed=16.848000m/h.</desc>
<speed>4.680000</speed>
</trkpt>
<trkpt lat="56.058319" lon="26.530813">
<ele>94.366272</ele>
<time>2010-08-29T11:02:58Z</time>
<desc>lat.=56.058319, lon.=26.530813, Alt.=94.366272m. Speed=16.452000m/h.</desc>
<speed>4.570000</speed>
</trkpt>
<trkpt lat="56.058323" lon="26.530897">
<ele>94.288147</ele>
<time>2010-08-29T11:02:59Z</time>
<desc>lat.=56.058323, lon.=26.530897, Alt.=94.288147m. Speed=18.431999m/h.</desc>
<speed>5.120000</speed>
</trkpt>
<trkpt lat="56.058323" lon="26.530981">
<ele>94.223694</ele>
<time>2010-08-29T11:03:00Z</time>
<desc>lat.=56.058323, lon.=26.530981, Alt.=94.223694m. Speed=18.540001m/h.</desc>
<speed>5.150000</speed>
</trkpt>
<trkpt lat="56.058331" lon="26.531069">
<ele>94.329163</ele>
<time>2010-08-29T11:03:01Z</time>
<desc>lat.=56.058331, lon.=26.531069, Alt.=94.329163m. Speed=19.188000m/h.</desc>
<speed>5.330000</speed>
</trkpt>
<trkpt lat="56.058334" lon="26.531153">
<ele>94.303772</ele>
<time>2010-08-29T11:03:02Z</time>
<desc>lat.=56.058334, lon.=26.531153, Alt.=94.303772m. Speed=18.143999m/h.</desc>
<speed>5.040000</speed>
</trkpt>
<trkpt lat="56.058338" lon="26.531231">
<ele>94.674866</ele>
<time>2010-08-29T11:03:03Z</time>
<desc>lat.=56.058338, lon.=26.531231, Alt.=94.674866m. Speed=17.747999m/h.</desc>
<speed>4.930000</speed>
</trkpt>
<trkpt lat="56.058350" lon="26.531309">
<ele>95.024475</ele>
<time>2010-08-29T11:03:04Z</time>
<desc>lat.=56.058350, lon.=26.531309, Alt.=95.024475m. Speed=16.812000m/h.</desc>
<speed>4.670000</speed>
</trkpt>
<trkpt lat="56.058365" lon="26.531389">
<ele>95.079163</ele>
<time>2010-08-29T11:03:05Z</time>
<desc>lat.=56.058365, lon.=26.531389, Alt.=95.079163m. Speed=18.072001m/h.</desc>
<speed>5.020000</speed>
</trkpt>
<trkpt lat="56.058380" lon="26.531467">
<ele>95.305725</ele>
<time>2010-08-29T11:03:06Z</time>
<desc>lat.=56.058380, lon.=26.531467, Alt.=95.305725m. Speed=16.271999m/h.</desc>
<speed>4.520000</speed>
</trkpt>
<trkpt lat="56.058388" lon="26.531544">
<ele>95.588928</ele>
<time>2010-08-29T11:03:07Z</time>
<desc>lat.=56.058388, lon.=26.531544, Alt.=95.588928m. Speed=16.704000m/h.</desc>
<speed>4.640000</speed>
</trkpt>
<trkpt lat="56.058403" lon="26.531628">
<ele>95.752991</ele>
<time>2010-08-29T11:03:08Z</time>
<desc>lat.=56.058403, lon.=26.531628, Alt.=95.752991m. Speed=18.143999m/h.</desc>
<speed>5.040000</speed>
</trkpt>
<trkpt lat="56.058418" lon="26.531706">
<ele>95.911194</ele>
<time>2010-08-29T11:03:09Z</time>
<desc>lat.=56.058418, lon.=26.531706, Alt.=95.911194m. Speed=16.596001m/h.</desc>
<speed>4.610000</speed>
</trkpt>
<trkpt lat="56.058430" lon="26.531776">
<ele>96.090881</ele>
<time>2010-08-29T11:03:10Z</time>
<desc>lat.=56.058430, lon.=26.531776, Alt.=96.090881m. Speed=14.760000m/h.</desc>
<speed>4.100000</speed>
</trkpt>
<trkpt lat="56.058437" lon="26.531845">
<ele>96.145569</ele>
<time>2010-08-29T11:03:11Z</time>
<desc>lat.=56.058437, lon.=26.531845, Alt.=96.145569m. Speed=14.220000m/h.</desc>
<speed>3.950000</speed>
</trkpt>
<trkpt lat="56.058445" lon="26.531906">
<ele>96.252991</ele>
<time>2010-08-29T11:03:12Z</time>
<desc>lat.=56.058445, lon.=26.531906, Alt.=96.252991m. Speed=12.672000m/h.</desc>
<speed>3.520000</speed>
</trkpt>
<trkpt lat="56.058453" lon="26.531967">
<ele>95.995178</ele>
<time>2010-08-29T11:03:13Z</time>
<desc>lat.=56.058453, lon.=26.531967, Alt.=95.995178m. Speed=13.356000m/h.</desc>
<speed>3.710000</speed>
</trkpt>
<trkpt lat="56.058456" lon="26.532030">
<ele>95.928772</ele>
<time>2010-08-29T11:03:14Z</time>
<desc>lat.=56.058456, lon.=26.532030, Alt.=95.928772m. Speed=14.184000m/h.</desc>
<speed>3.940000</speed>
</trkpt>
<trkpt lat="56.058460" lon="26.532093">
<ele>95.905334</ele>
<time>2010-08-29T11:03:15Z</time>
<desc>lat.=56.058460, lon.=26.532093, Alt.=95.905334m. Speed=14.076000m/h.</desc>
<speed>3.910000</speed>
</trkpt>
<trkpt lat="56.058460" lon="26.532160">
<ele>96.032288</ele>
<time>2010-08-29T11:03:16Z</time>
<desc>lat.=56.058460, lon.=26.532160, Alt.=96.032288m. Speed=14.508000m/h.</desc>
<speed>4.030000</speed>
</trkpt>
<trkpt lat="56.058460" lon="26.532230">
<ele>96.024475</ele>
<time>2010-08-29T11:03:17Z</time>
<desc>lat.=56.058460, lon.=26.532230, Alt.=96.024475m. Speed=14.760000m/h.</desc>
<speed>4.100000</speed>
</trkpt>
<trkpt lat="56.058464" lon="26.532299">
<ele>96.051819</ele>
<time>2010-08-29T11:03:18Z</time>
<desc>lat.=56.058464, lon.=26.532299, Alt.=96.051819m. Speed=15.084000m/h.</desc>
<speed>4.190000</speed>
</trkpt>
<trkpt lat="56.058460" lon="26.532362">
<ele>95.922913</ele>
<time>2010-08-29T11:03:19Z</time>
<desc>lat.=56.058460, lon.=26.532362, Alt.=95.922913m. Speed=14.616000m/h.</desc>
<speed>4.060000</speed>
</trkpt>
<trkpt lat="56.058468" lon="26.532433">
<ele>95.844788</ele>
<time>2010-08-29T11:03:20Z</time>
<desc>lat.=56.058468, lon.=26.532433, Alt.=95.844788m. Speed=15.660000m/h.</desc>
<speed>4.350000</speed>
</trkpt>
<trkpt lat="56.058468" lon="26.532499">
<ele>95.827209</ele>
<time>2010-08-29T11:03:21Z</time>
<desc>lat.=56.058468, lon.=26.532499, Alt.=95.827209m. Speed=14.400000m/h.</desc>
<speed>4.000000</speed>
</trkpt>
<trkpt lat="56.058475" lon="26.532562">
<ele>95.838928</ele>
<time>2010-08-29T11:03:22Z</time>
<desc>lat.=56.058475, lon.=26.532562, Alt.=95.838928m. Speed=13.824000m/h.</desc>
<speed>3.840000</speed>
</trkpt>
<trkpt lat="56.058483" lon="26.532625">
<ele>95.751038</ele>
<time>2010-08-29T11:03:23Z</time>
<desc>lat.=56.058483, lon.=26.532625, Alt.=95.751038m. Speed=13.176000m/h.</desc>
<speed>3.660000</speed>
</trkpt>
<trkpt lat="56.058483" lon="26.532681">
<ele>95.827209</ele>
<time>2010-08-29T11:03:24Z</time>
<desc>lat.=56.058483, lon.=26.532681, Alt.=95.827209m. Speed=11.808000m/h.</desc>
<speed>3.280000</speed>
</trkpt>
<trkpt lat="56.058487" lon="26.532742">
<ele>95.573303</ele>
<time>2010-08-29T11:03:25Z</time>
<desc>lat.=56.058487, lon.=26.532742, Alt.=95.573303m. Speed=13.608000m/h.</desc>
<speed>3.780000</speed>
</trkpt>
<trkpt lat="56.058495" lon="26.532801">
<ele>95.579163</ele>
<time>2010-08-29T11:03:26Z</time>
<desc>lat.=56.058495, lon.=26.532801, Alt.=95.579163m. Speed=14.004000m/h.</desc>
<speed>3.890000</speed>
</trkpt>
<trkpt lat="56.058495" lon="26.532866">
<ele>95.522522</ele>
<time>2010-08-29T11:03:27Z</time>
<desc>lat.=56.058495, lon.=26.532866, Alt.=95.522522m. Speed=14.652000m/h.</desc>
<speed>4.070000</speed>
</trkpt>
<trkpt lat="56.058498" lon="26.532932">
<ele>95.254944</ele>
<time>2010-08-29T11:03:28Z</time>
<desc>lat.=56.058498, lon.=26.532932, Alt.=95.254944m. Speed=14.652000m/h.</desc>
<speed>4.070000</speed>
</trkpt>
<trkpt lat="56.058502" lon="26.533016">
<ele>93.844788</ele>
<time>2010-08-29T11:03:29Z</time>
<desc>lat.=56.058502, lon.=26.533016, Alt.=93.844788m. Speed=16.200001m/h.</desc>
<speed>4.500000</speed>
</trkpt>
<trkpt lat="56.058502" lon="26.533091">
<ele>93.540100</ele>
<time>2010-08-29T11:03:30Z</time>
<desc>lat.=56.058502, lon.=26.533091, Alt.=93.540100m. Speed=15.300000m/h.</desc>
<speed>4.250000</speed>
</trkpt>
<trkpt lat="56.058502" lon="26.533159">
<ele>93.358459</ele>
<time>2010-08-29T11:03:31Z</time>
<desc>lat.=56.058502, lon.=26.533159, Alt.=93.358459m. Speed=14.796000m/h.</desc>
<speed>4.110000</speed>
</trkpt>
<trkpt lat="56.058517" lon="26.533251">
<ele>93.565491</ele>
<time>2010-08-29T11:03:32Z</time>
<desc>lat.=56.058517, lon.=26.533251, Alt.=93.565491m. Speed=15.552000m/h.</desc>
<speed>4.320000</speed>
</trkpt>
<trkpt lat="56.058514" lon="26.533302">
<ele>92.710022</ele>
<time>2010-08-29T11:03:33Z</time>
<desc>lat.=56.058514, lon.=26.533302, Alt.=92.710022m. Speed=13.644000m/h.</desc>
<speed>3.790000</speed>
</trkpt>
<trkpt lat="56.058514" lon="26.533363">
<ele>92.647522</ele>
<time>2010-08-29T11:03:34Z</time>
<desc>lat.=56.058514, lon.=26.533363, Alt.=92.647522m. Speed=12.564000m/h.</desc>
<speed>3.490000</speed>
</trkpt>
<trkpt lat="56.058514" lon="26.533424">
<ele>92.682678</ele>
<time>2010-08-29T11:03:35Z</time>
<desc>lat.=56.058514, lon.=26.533424, Alt.=92.682678m. Speed=11.844000m/h.</desc>
<speed>3.290000</speed>
</trkpt>
<trkpt lat="56.058517" lon="26.533484">
<ele>92.719788</ele>
<time>2010-08-29T11:03:36Z</time>
<desc>lat.=56.058517, lon.=26.533484, Alt.=92.719788m. Speed=11.340000m/h.</desc>
<speed>3.150000</speed>
</trkpt>
<trkpt lat="56.058533" lon="26.533545">
<ele>92.954163</ele>
<time>2010-08-29T11:03:37Z</time>
<desc>lat.=56.058533, lon.=26.533545, Alt.=92.954163m. Speed=9.828000m/h.</desc>
<speed>2.730000</speed>
</trkpt>
<trkpt lat="56.058540" lon="26.533581">
<ele>93.141663</ele>
<time>2010-08-29T11:03:38Z</time>
<desc>lat.=56.058540, lon.=26.533581, Alt.=93.141663m. Speed=7.596000m/h.</desc>
<speed>2.110000</speed>
</trkpt>
<trkpt lat="56.058548" lon="26.533613">
<ele>93.454163</ele>
<time>2010-08-29T11:03:39Z</time>
<desc>lat.=56.058548, lon.=26.533613, Alt.=93.454163m. Speed=7.740000m/h.</desc>
<speed>2.150000</speed>
</trkpt>
<trkpt lat="56.058556" lon="26.533651">
<ele>93.633850</ele>
<time>2010-08-29T11:03:40Z</time>
<desc>lat.=56.058556, lon.=26.533651, Alt.=93.633850m. Speed=6.912000m/h.</desc>
<speed>1.920000</speed>
</trkpt>
<trkpt lat="56.058567" lon="26.533655">
<ele>93.428772</ele>
<time>2010-08-29T11:03:41Z</time>
<desc>lat.=56.058567, lon.=26.533655, Alt.=93.428772m. Speed=7.920000m/h.</desc>
<speed>2.200000</speed>
</trkpt>
<trkpt lat="56.058582" lon="26.533674">
<ele>93.549866</ele>
<time>2010-08-29T11:03:42Z</time>
<desc>lat.=56.058582, lon.=26.533674, Alt.=93.549866m. Speed=7.272000m/h.</desc>
<speed>2.020000</speed>
</trkpt>
<trkpt lat="56.058601" lon="26.533695">
<ele>94.004944</ele>
<time>2010-08-29T11:03:43Z</time>
<desc>lat.=56.058601, lon.=26.533695, Alt.=94.004944m. Speed=8.712000m/h.</desc>
<speed>2.420000</speed>
</trkpt>
<trkpt lat="56.058628" lon="26.533705">
<ele>93.960022</ele>
<time>2010-08-29T11:03:44Z</time>
<desc>lat.=56.058628, lon.=26.533705, Alt.=93.960022m. Speed=9.540000m/h.</desc>
<speed>2.650000</speed>
</trkpt>
<trkpt lat="56.058655" lon="26.533703">
<ele>93.879944</ele>
<time>2010-08-29T11:03:45Z</time>
<desc>lat.=56.058655, lon.=26.533703, Alt.=93.879944m. Speed=8.316000m/h.</desc>
<speed>2.310000</speed>
</trkpt>
<trkpt lat="56.058678" lon="26.533703">
<ele>94.151428</ele>
<time>2010-08-29T11:03:46Z</time>
<desc>lat.=56.058678, lon.=26.533703, Alt.=94.151428m. Speed=9.792000m/h.</desc>
<speed>2.720000</speed>
</trkpt>
<trkpt lat="56.058704" lon="26.533703">
<ele>94.346741</ele>
<time>2010-08-29T11:03:47Z</time>
<desc>lat.=56.058704, lon.=26.533703, Alt.=94.346741m. Speed=9.612000m/h.</desc>
<speed>2.670000</speed>
</trkpt>
<trkpt lat="56.058731" lon="26.533701">
<ele>94.538147</ele>
<time>2010-08-29T11:03:48Z</time>
<desc>lat.=56.058731, lon.=26.533701, Alt.=94.538147m. Speed=11.952000m/h.</desc>
<speed>3.320000</speed>
</trkpt>
<trkpt lat="56.058758" lon="26.533699">
<ele>94.909241</ele>
<time>2010-08-29T11:03:49Z</time>
<desc>lat.=56.058758, lon.=26.533699, Alt.=94.909241m. Speed=13.032000m/h.</desc>
<speed>3.620000</speed>
</trkpt>
<trkpt lat="56.058784" lon="26.533703">
<ele>95.624084</ele>
<time>2010-08-29T11:03:50Z</time>
<desc>lat.=56.058784, lon.=26.533703, Alt.=95.624084m. Speed=9.792000m/h.</desc>
<speed>2.720000</speed>
</trkpt>
<trkpt lat="56.058815" lon="26.533699">
<ele>95.493225</ele>
<time>2010-08-29T11:03:51Z</time>
<desc>lat.=56.058815, lon.=26.533699, Alt.=95.493225m. Speed=11.196000m/h.</desc>
<speed>3.110000</speed>
</trkpt>
<trkpt lat="56.058846" lon="26.533699">
<ele>95.467834</ele>
<time>2010-08-29T11:03:52Z</time>
<desc>lat.=56.058846, lon.=26.533699, Alt.=95.467834m. Speed=13.320000m/h.</desc>
<speed>3.700000</speed>
</trkpt>
<trkpt lat="56.058880" lon="26.533699">
<ele>95.387756</ele>
<time>2010-08-29T11:03:53Z</time>
<desc>lat.=56.058880, lon.=26.533699, Alt.=95.387756m. Speed=13.608000m/h.</desc>
<speed>3.780000</speed>
</trkpt>
<trkpt lat="56.058914" lon="26.533699">
<ele>95.079163</ele>
<time>2010-08-29T11:03:54Z</time>
<desc>lat.=56.058914, lon.=26.533699, Alt.=95.079163m. Speed=12.924000m/h.</desc>
<speed>3.590000</speed>
</trkpt>
<trkpt lat="56.058945" lon="26.533701">
<ele>94.979553</ele>
<time>2010-08-29T11:03:55Z</time>
<desc>lat.=56.058945, lon.=26.533701, Alt.=94.979553m. Speed=11.808000m/h.</desc>
<speed>3.280000</speed>
</trkpt>
<trkpt lat="56.058975" lon="26.533703">
<ele>95.198303</ele>
<time>2010-08-29T11:03:56Z</time>
<desc>lat.=56.058975, lon.=26.533703, Alt.=95.198303m. Speed=11.808000m/h.</desc>
<speed>3.280000</speed>
</trkpt>
<trkpt lat="56.059010" lon="26.533714">
<ele>97.680725</ele>
<time>2010-08-29T11:03:57Z</time>
<desc>lat.=56.059010, lon.=26.533714, Alt.=97.680725m. Speed=13.644000m/h.</desc>
<speed>3.790000</speed>
</trkpt>
<trkpt lat="56.059036" lon="26.533718">
<ele>97.295959</ele>
<time>2010-08-29T11:03:58Z</time>
<desc>lat.=56.059036, lon.=26.533718, Alt.=97.295959m. Speed=11.520000m/h.</desc>
<speed>3.200000</speed>
</trkpt>
<trkpt lat="56.059063" lon="26.533714">
<ele>97.506897</ele>
<time>2010-08-29T11:03:59Z</time>
<desc>lat.=56.059063, lon.=26.533714, Alt.=97.506897m. Speed=10.296000m/h.</desc>
<speed>2.860000</speed>
</trkpt>
<trkpt lat="56.059090" lon="26.533712">
<ele>97.446350</ele>
<time>2010-08-29T11:04:00Z</time>
<desc>lat.=56.059090, lon.=26.533712, Alt.=97.446350m. Speed=9.900000m/h.</desc>
<speed>2.750000</speed>
</trkpt>
<trkpt lat="56.059109" lon="26.533709">
<ele>97.848694</ele>
<time>2010-08-29T11:04:01Z</time>
<desc>lat.=56.059109, lon.=26.533709, Alt.=97.848694m. Speed=7.776000m/h.</desc>
<speed>2.160000</speed>
</trkpt>
<trkpt lat="56.059128" lon="26.533709">
<ele>97.475647</ele>
<time>2010-08-29T11:04:02Z</time>
<desc>lat.=56.059128, lon.=26.533709, Alt.=97.475647m. Speed=7.020000m/h.</desc>
<speed>1.950000</speed>
</trkpt>
<trkpt lat="56.059147" lon="26.533716">
<ele>96.794006</ele>
<time>2010-08-29T11:04:03Z</time>
<desc>lat.=56.059147, lon.=26.533716, Alt.=96.794006m. Speed=6.120000m/h.</desc>
<speed>1.700000</speed>
</trkpt>
<trkpt lat="56.059162" lon="26.533718">
<ele>96.710022</ele>
<time>2010-08-29T11:04:04Z</time>
<desc>lat.=56.059162, lon.=26.533718, Alt.=96.710022m. Speed=5.904000m/h.</desc>
<speed>1.640000</speed>
</trkpt>
<trkpt lat="56.059181" lon="26.533720">
<ele>99.274475</ele>
<time>2010-08-29T11:04:05Z</time>
<desc>lat.=56.059181, lon.=26.533720, Alt.=99.274475m. Speed=7.020000m/h.</desc>
<speed>1.950000</speed>
</trkpt>
<trkpt lat="56.059196" lon="26.533724">
<ele>99.518616</ele>
<time>2010-08-29T11:04:06Z</time>
<desc>lat.=56.059196, lon.=26.533724, Alt.=99.518616m. Speed=7.056000m/h.</desc>
<speed>1.960000</speed>
</trkpt>
<trkpt lat="56.059223" lon="26.533720">
<ele>99.977600</ele>
<time>2010-08-29T11:04:07Z</time>
<desc>lat.=56.059223, lon.=26.533720, Alt.=99.977600m. Speed=9.144000m/h.</desc>
<speed>2.540000</speed>
</trkpt>
<trkpt lat="56.059246" lon="26.533728">
<ele>99.534241</ele>
<time>2010-08-29T11:04:08Z</time>
<desc>lat.=56.059246, lon.=26.533728, Alt.=99.534241m. Speed=9.432000m/h.</desc>
<speed>2.620000</speed>
</trkpt>
<trkpt lat="56.059269" lon="26.533745">
<ele>99.604553</ele>
<time>2010-08-29T11:04:09Z</time>
<desc>lat.=56.059269, lon.=26.533745, Alt.=99.604553m. Speed=10.044000m/h.</desc>
<speed>2.790000</speed>
</trkpt>
<trkpt lat="56.059292" lon="26.533751">
<ele>100.180725</ele>
<time>2010-08-29T11:04:10Z</time>
<desc>lat.=56.059292, lon.=26.533751, Alt.=100.180725m. Speed=11.844000m/h.</desc>
<speed>3.290000</speed>
</trkpt>
<trkpt lat="56.059326" lon="26.533741">
<ele>99.743225</ele>
<time>2010-08-29T11:04:11Z</time>
<desc>lat.=56.059326, lon.=26.533741, Alt.=99.743225m. Speed=12.132000m/h.</desc>
<speed>3.370000</speed>
</trkpt>
<trkpt lat="56.059353" lon="26.533749">
<ele>99.182678</ele>
<time>2010-08-29T11:04:12Z</time>
<desc>lat.=56.059353, lon.=26.533749, Alt.=99.182678m. Speed=10.980000m/h.</desc>
<speed>3.050000</speed>
</trkpt>
<trkpt lat="56.059383" lon="26.533752">
<ele>98.948303</ele>
<time>2010-08-29T11:04:13Z</time>
<desc>lat.=56.059383, lon.=26.533752, Alt.=98.948303m. Speed=10.764000m/h.</desc>
<speed>2.990000</speed>
</trkpt>
<trkpt lat="56.059414" lon="26.533756">
<ele>98.635803</ele>
<time>2010-08-29T11:04:14Z</time>
<desc>lat.=56.059414, lon.=26.533756, Alt.=98.635803m. Speed=13.032000m/h.</desc>
<speed>3.620000</speed>
</trkpt>
<trkpt lat="56.059448" lon="26.533758">
<ele>98.573303</ele>
<time>2010-08-29T11:04:15Z</time>
<desc>lat.=56.059448, lon.=26.533758, Alt.=98.573303m. Speed=13.068000m/h.</desc>
<speed>3.630000</speed>
</trkpt>
<trkpt lat="56.059483" lon="26.533760">
<ele>98.920959</ele>
<time>2010-08-29T11:04:16Z</time>
<desc>lat.=56.059483, lon.=26.533760, Alt.=98.920959m. Speed=12.852000m/h.</desc>
<speed>3.570000</speed>
</trkpt>
<trkpt lat="56.059521" lon="26.533756">
<ele>99.028381</ele>
<time>2010-08-29T11:04:17Z</time>
<desc>lat.=56.059521, lon.=26.533756, Alt.=99.028381m. Speed=13.968000m/h.</desc>
<speed>3.880000</speed>
</trkpt>
<trkpt lat="56.059559" lon="26.533747">
<ele>99.065491</ele>
<time>2010-08-29T11:04:18Z</time>
<desc>lat.=56.059559, lon.=26.533747, Alt.=99.065491m. Speed=14.580000m/h.</desc>
<speed>4.050000</speed>
</trkpt>
<trkpt lat="56.059597" lon="26.533731">
<ele>99.317444</ele>
<time>2010-08-29T11:04:19Z</time>
<desc>lat.=56.059597, lon.=26.533731, Alt.=99.317444m. Speed=15.480000m/h.</desc>
<speed>4.300000</speed>
</trkpt>
<trkpt lat="56.059639" lon="26.533730">
<ele>99.803772</ele>
<time>2010-08-29T11:04:20Z</time>
<desc>lat.=56.059639, lon.=26.533730, Alt.=99.803772m. Speed=16.452000m/h.</desc>
<speed>4.570000</speed>
</trkpt>
<trkpt lat="56.059681" lon="26.533730">
<ele>99.559631</ele>
<time>2010-08-29T11:04:21Z</time>
<desc>lat.=56.059681, lon.=26.533730, Alt.=99.559631m. Speed=17.028000m/h.</desc>
<speed>4.730000</speed>
</trkpt>
<trkpt lat="56.059731" lon="26.533728">
<ele>98.879944</ele>
<time>2010-08-29T11:04:22Z</time>
<desc>lat.=56.059731, lon.=26.533728, Alt.=98.879944m. Speed=18.072001m/h.</desc>
<speed>5.020000</speed>
</trkpt>
<trkpt lat="56.059780" lon="26.533733">
<ele>99.184631</ele>
<time>2010-08-29T11:04:23Z</time>
<desc>lat.=56.059780, lon.=26.533733, Alt.=99.184631m. Speed=18.035999m/h.</desc>
<speed>5.010000</speed>
</trkpt>
<trkpt lat="56.059826" lon="26.533749">
<ele>97.600647</ele>
<time>2010-08-29T11:04:24Z</time>
<desc>lat.=56.059826, lon.=26.533749, Alt.=97.600647m. Speed=15.984000m/h.</desc>
<speed>4.440000</speed>
</trkpt>
<trkpt lat="56.059864" lon="26.533756">
<ele>97.127991</ele>
<time>2010-08-29T11:04:25Z</time>
<desc>lat.=56.059864, lon.=26.533756, Alt.=97.127991m. Speed=15.696000m/h.</desc>
<speed>4.360000</speed>
</trkpt>
<trkpt lat="56.059902" lon="26.533758">
<ele>96.770569</ele>
<time>2010-08-29T11:04:26Z</time>
<desc>lat.=56.059902, lon.=26.533758, Alt.=96.770569m. Speed=14.652000m/h.</desc>
<speed>4.070000</speed>
</trkpt>
<trkpt lat="56.059940" lon="26.533764">
<ele>96.999084</ele>
<time>2010-08-29T11:04:27Z</time>
<desc>lat.=56.059940, lon.=26.533764, Alt.=96.999084m. Speed=13.428000m/h.</desc>
<speed>3.730000</speed>
</trkpt>
<trkpt lat="56.059971" lon="26.533760">
<ele>96.395569</ele>
<time>2010-08-29T11:04:28Z</time>
<desc>lat.=56.059971, lon.=26.533760, Alt.=96.395569m. Speed=13.896000m/h.</desc>
<speed>3.860000</speed>
</trkpt>
<trkpt lat="56.060005" lon="26.533764">
<ele>96.020569</ele>
<time>2010-08-29T11:04:29Z</time>
<desc>lat.=56.060005, lon.=26.533764, Alt.=96.020569m. Speed=12.924000m/h.</desc>
<speed>3.590000</speed>
</trkpt>
<trkpt lat="56.060040" lon="26.533770">
<ele>96.944397</ele>
<time>2010-08-29T11:04:30Z</time>
<desc>lat.=56.060040, lon.=26.533770, Alt.=96.944397m. Speed=14.580000m/h.</desc>
<speed>4.050000</speed>
</trkpt>
<trkpt lat="56.060081" lon="26.533777">
<ele>97.180725</ele>
<time>2010-08-29T11:04:31Z</time>
<desc>lat.=56.060081, lon.=26.533777, Alt.=97.180725m. Speed=15.156000m/h.</desc>
<speed>4.210000</speed>
</trkpt>
<trkpt lat="56.060112" lon="26.533781">
<ele>96.491272</ele>
<time>2010-08-29T11:04:32Z</time>
<desc>lat.=56.060112, lon.=26.533781, Alt.=96.491272m. Speed=13.608000m/h.</desc>
<speed>3.780000</speed>
</trkpt>
<trkpt lat="56.060154" lon="26.533787">
<ele>96.866272</ele>
<time>2010-08-29T11:04:33Z</time>
<desc>lat.=56.060154, lon.=26.533787, Alt.=96.866272m. Speed=14.256000m/h.</desc>
<speed>3.960000</speed>
</trkpt>
<trkpt lat="56.060192" lon="26.533785">
<ele>97.260803</ele>
<time>2010-08-29T11:04:34Z</time>
<desc>lat.=56.060192, lon.=26.533785, Alt.=97.260803m. Speed=14.868000m/h.</desc>
<speed>4.130000</speed>
</trkpt>
<trkpt lat="56.060230" lon="26.533787">
<ele>97.879944</ele>
<time>2010-08-29T11:04:35Z</time>
<desc>lat.=56.060230, lon.=26.533787, Alt.=97.879944m. Speed=15.516000m/h.</desc>
<speed>4.310000</speed>
</trkpt>
<trkpt lat="56.060272" lon="26.533792">
<ele>97.786194</ele>
<time>2010-08-29T11:04:36Z</time>
<desc>lat.=56.060272, lon.=26.533792, Alt.=97.786194m. Speed=14.292000m/h.</desc>
<speed>3.970000</speed>
</trkpt>
<trkpt lat="56.060307" lon="26.533791">
<ele>96.319397</ele>
<time>2010-08-29T11:04:37Z</time>
<desc>lat.=56.060307, lon.=26.533791, Alt.=96.319397m. Speed=13.752000m/h.</desc>
<speed>3.820000</speed>
</trkpt>
<trkpt lat="56.060337" lon="26.533794">
<ele>96.497131</ele>
<time>2010-08-29T11:04:38Z</time>
<desc>lat.=56.060337, lon.=26.533794, Alt.=96.497131m. Speed=12.780000m/h.</desc>
<speed>3.550000</speed>
</trkpt>
<trkpt lat="56.060379" lon="26.533806">
<ele>96.415100</ele>
<time>2010-08-29T11:04:39Z</time>
<desc>lat.=56.060379, lon.=26.533806, Alt.=96.415100m. Speed=13.608000m/h.</desc>
<speed>3.780000</speed>
</trkpt>
<trkpt lat="56.060413" lon="26.533810">
<ele>98.049866</ele>
<time>2010-08-29T11:04:40Z</time>
<desc>lat.=56.060413, lon.=26.533810, Alt.=98.049866m. Speed=13.104000m/h.</desc>
<speed>3.640000</speed>
</trkpt>
<trkpt lat="56.060444" lon="26.533817">
<ele>99.301819</ele>
<time>2010-08-29T11:04:41Z</time>
<desc>lat.=56.060444, lon.=26.533817, Alt.=99.301819m. Speed=13.068000m/h.</desc>
<speed>3.630000</speed>
</trkpt>
<trkpt lat="56.060478" lon="26.533819">
<ele>100.311584</ele>
<time>2010-08-29T11:04:42Z</time>
<desc>lat.=56.060478, lon.=26.533819, Alt.=100.311584m. Speed=15.048000m/h.</desc>
<speed>4.180000</speed>
</trkpt>
<trkpt lat="56.060520" lon="26.533827">
<ele>102.163147</ele>
<time>2010-08-29T11:04:43Z</time>
<desc>lat.=56.060520, lon.=26.533827, Alt.=102.163147m. Speed=16.775999m/h.</desc>
<speed>4.660000</speed>
</trkpt>
<trkpt lat="56.060562" lon="26.533831">
<ele>103.612366</ele>
<time>2010-08-29T11:04:44Z</time>
<desc>lat.=56.060562, lon.=26.533831, Alt.=103.612366m. Speed=18.288000m/h.</desc>
<speed>5.080000</speed>
</trkpt>
<trkpt lat="56.060612" lon="26.533838">
<ele>105.200256</ele>
<time>2010-08-29T11:04:45Z</time>
<desc>lat.=56.060612, lon.=26.533838, Alt.=105.200256m. Speed=18.612000m/h.</desc>
<speed>5.170000</speed>
</trkpt>
<trkpt lat="56.060658" lon="26.533842">
<ele>105.633850</ele>
<time>2010-08-29T11:04:46Z</time>
<desc>lat.=56.060658, lon.=26.533842, Alt.=105.633850m. Speed=18.827999m/h.</desc>
<speed>5.230000</speed>
</trkpt>
<trkpt lat="56.060703" lon="26.533844">
<ele>105.829163</ele>
<time>2010-08-29T11:04:47Z</time>
<desc>lat.=56.060703, lon.=26.533844, Alt.=105.829163m. Speed=18.072001m/h.</desc>
<speed>5.020000</speed>
</trkpt>
<trkpt lat="56.060749" lon="26.533850">
<ele>106.407288</ele>
<time>2010-08-29T11:04:48Z</time>
<desc>lat.=56.060749, lon.=26.533850, Alt.=106.407288m. Speed=18.108000m/h.</desc>
<speed>5.030000</speed>
</trkpt>
<trkpt lat="56.060795" lon="26.533854">
<ele>104.698303</ele>
<time>2010-08-29T11:04:49Z</time>
<desc>lat.=56.060795, lon.=26.533854, Alt.=104.698303m. Speed=17.712000m/h.</desc>
<speed>4.920000</speed>
</trkpt>
<trkpt lat="56.060841" lon="26.533855">
<ele>103.788147</ele>
<time>2010-08-29T11:04:50Z</time>
<desc>lat.=56.060841, lon.=26.533855, Alt.=103.788147m. Speed=16.955999m/h.</desc>
<speed>4.710000</speed>
</trkpt>
<trkpt lat="56.060886" lon="26.533863">
<ele>103.870178</ele>
<time>2010-08-29T11:04:51Z</time>
<desc>lat.=56.060886, lon.=26.533863, Alt.=103.870178m. Speed=16.488001m/h.</desc>
<speed>4.580000</speed>
</trkpt>
<trkpt lat="56.060928" lon="26.533871">
<ele>103.751038</ele>
<time>2010-08-29T11:04:52Z</time>
<desc>lat.=56.060928, lon.=26.533871, Alt.=103.751038m. Speed=15.840000m/h.</desc>
<speed>4.400000</speed>
</trkpt>
<trkpt lat="56.060966" lon="26.533878">
<ele>104.241272</ele>
<time>2010-08-29T11:04:53Z</time>
<desc>lat.=56.060966, lon.=26.533878, Alt.=104.241272m. Speed=15.444000m/h.</desc>
<speed>4.290000</speed>
</trkpt>
<trkpt lat="56.061005" lon="26.533884">
<ele>104.106506</ele>
<time>2010-08-29T11:04:54Z</time>
<desc>lat.=56.061005, lon.=26.533884, Alt.=104.106506m. Speed=15.012000m/h.</desc>
<speed>4.170000</speed>
</trkpt>
<trkpt lat="56.061043" lon="26.533882">
<ele>103.776428</ele>
<time>2010-08-29T11:04:55Z</time>
<desc>lat.=56.061043, lon.=26.533882, Alt.=103.776428m. Speed=14.616000m/h.</desc>
<speed>4.060000</speed>
</trkpt>
<trkpt lat="56.061081" lon="26.533884">
<ele>104.135803</ele>
<time>2010-08-29T11:04:56Z</time>
<desc>lat.=56.061081, lon.=26.533884, Alt.=104.135803m. Speed=14.112000m/h.</desc>
<speed>3.920000</speed>
</trkpt>
<trkpt lat="56.061115" lon="26.533882">
<ele>104.645569</ele>
<time>2010-08-29T11:04:57Z</time>
<desc>lat.=56.061115, lon.=26.533882, Alt.=104.645569m. Speed=13.932000m/h.</desc>
<speed>3.870000</speed>
</trkpt>
<trkpt lat="56.061150" lon="26.533888">
<ele>104.772522</ele>
<time>2010-08-29T11:04:58Z</time>
<desc>lat.=56.061150, lon.=26.533888, Alt.=104.772522m. Speed=12.708000m/h.</desc>
<speed>3.530000</speed>
</trkpt>
<trkpt lat="56.061180" lon="26.533886">
<ele>104.442444</ele>
<time>2010-08-29T11:04:59Z</time>
<desc>lat.=56.061180, lon.=26.533886, Alt.=104.442444m. Speed=12.924000m/h.</desc>
<speed>3.590000</speed>
</trkpt>
<trkpt lat="56.061211" lon="26.533890">
<ele>104.469788</ele>
<time>2010-08-29T11:05:00Z</time>
<desc>lat.=56.061211, lon.=26.533890, Alt.=104.469788m. Speed=12.492000m/h.</desc>
<speed>3.470000</speed>
</trkpt>
<trkpt lat="56.061241" lon="26.533892">
<ele>104.708069</ele>
<time>2010-08-29T11:05:01Z</time>
<desc>lat.=56.061241, lon.=26.533892, Alt.=104.708069m. Speed=13.032000m/h.</desc>
<speed>3.620000</speed>
</trkpt>
<trkpt lat="56.061275" lon="26.533901">
<ele>105.118225</ele>
<time>2010-08-29T11:05:02Z</time>
<desc>lat.=56.061275, lon.=26.533901, Alt.=105.118225m. Speed=14.940000m/h.</desc>
<speed>4.150000</speed>
</trkpt>
<trkpt lat="56.061314" lon="26.533916">
<ele>105.272522</ele>
<time>2010-08-29T11:05:03Z</time>
<desc>lat.=56.061314, lon.=26.533916, Alt.=105.272522m. Speed=14.868000m/h.</desc>
<speed>4.130000</speed>
</trkpt>
<trkpt lat="56.061348" lon="26.533922">
<ele>105.547913</ele>
<time>2010-08-29T11:05:04Z</time>
<desc>lat.=56.061348, lon.=26.533922, Alt.=105.547913m. Speed=15.768000m/h.</desc>
<speed>4.380000</speed>
</trkpt>
<trkpt lat="56.061386" lon="26.533920">
<ele>105.389709</ele>
<time>2010-08-29T11:05:05Z</time>
<desc>lat.=56.061386, lon.=26.533920, Alt.=105.389709m. Speed=15.660000m/h.</desc>
<speed>4.350000</speed>
</trkpt>
<trkpt lat="56.061428" lon="26.533920">
<ele>105.942444</ele>
<time>2010-08-29T11:05:06Z</time>
<desc>lat.=56.061428, lon.=26.533920, Alt.=105.942444m. Speed=16.379999m/h.</desc>
<speed>4.550000</speed>
</trkpt>
<trkpt lat="56.061470" lon="26.533918">
<ele>106.092834</ele>
<time>2010-08-29T11:05:07Z</time>
<desc>lat.=56.061470, lon.=26.533918, Alt.=106.092834m. Speed=16.559999m/h.</desc>
<speed>4.600000</speed>
</trkpt>
<trkpt lat="56.061512" lon="26.533918">
<ele>106.479553</ele>
<time>2010-08-29T11:05:08Z</time>
<desc>lat.=56.061512, lon.=26.533918, Alt.=106.479553m. Speed=17.172001m/h.</desc>
<speed>4.770000</speed>
</trkpt>
<trkpt lat="56.061554" lon="26.533918">
<ele>106.860413</ele>
<time>2010-08-29T11:05:09Z</time>
<desc>lat.=56.061554, lon.=26.533918, Alt.=106.860413m. Speed=17.388000m/h.</desc>
<speed>4.830000</speed>
</trkpt>
<trkpt lat="56.061604" lon="26.533926">
<ele>107.475647</ele>
<time>2010-08-29T11:05:10Z</time>
<desc>lat.=56.061604, lon.=26.533926, Alt.=107.475647m. Speed=18.035999m/h.</desc>
<speed>5.010000</speed>
</trkpt>
<trkpt lat="56.061649" lon="26.533932">
<ele>108.069397</ele>
<time>2010-08-29T11:05:11Z</time>
<desc>lat.=56.061649, lon.=26.533932, Alt.=108.069397m. Speed=18.431999m/h.</desc>
<speed>5.120000</speed>
</trkpt>
<trkpt lat="56.061695" lon="26.533934">
<ele>108.532288</ele>
<time>2010-08-29T11:05:12Z</time>
<desc>lat.=56.061695, lon.=26.533934, Alt.=108.532288m. Speed=19.115999m/h.</desc>
<speed>5.310000</speed>
</trkpt>
<trkpt lat="56.061749" lon="26.533947">
<ele>109.247131</ele>
<time>2010-08-29T11:05:13Z</time>
<desc>lat.=56.061749, lon.=26.533947, Alt.=109.247131m. Speed=21.059999m/h.</desc>
<speed>5.850000</speed>
</trkpt>
<trkpt lat="56.061806" lon="26.533968">
<ele>112.258850</ele>
<time>2010-08-29T11:05:14Z</time>
<desc>lat.=56.061806, lon.=26.533968, Alt.=112.258850m. Speed=25.884001m/h.</desc>
<speed>7.190000</speed>
</trkpt>
<trkpt lat="56.061871" lon="26.533978">
<ele>113.504944</ele>
<time>2010-08-29T11:05:15Z</time>
<desc>lat.=56.061871, lon.=26.533978, Alt.=113.504944m. Speed=24.516001m/h.</desc>
<speed>6.810000</speed>
</trkpt>
<trkpt lat="56.061932" lon="26.533985">
<ele>114.895569</ele>
<time>2010-08-29T11:05:16Z</time>
<desc>lat.=56.061932, lon.=26.533985, Alt.=114.895569m. Speed=23.400000m/h.</desc>
<speed>6.500000</speed>
</trkpt>
<trkpt lat="56.061993" lon="26.533991">
<ele>116.045959</ele>
<time>2010-08-29T11:05:17Z</time>
<desc>lat.=56.061993, lon.=26.533991, Alt.=116.045959m. Speed=23.615999m/h.</desc>
<speed>6.560000</speed>
</trkpt>
<trkpt lat="56.062054" lon="26.534002">
<ele>116.020569</ele>
<time>2010-08-29T11:05:18Z</time>
<desc>lat.=56.062054, lon.=26.534002, Alt.=116.020569m. Speed=23.436001m/h.</desc>
<speed>6.510000</speed>
</trkpt>
<trkpt lat="56.062115" lon="26.534006">
<ele>115.917053</ele>
<time>2010-08-29T11:05:19Z</time>
<desc>lat.=56.062115, lon.=26.534006, Alt.=115.917053m. Speed=24.624001m/h.</desc>
<speed>6.840000</speed>
</trkpt>
<trkpt lat="56.062172" lon="26.534002">
<ele>115.542053</ele>
<time>2010-08-29T11:05:20Z</time>
<desc>lat.=56.062172, lon.=26.534002, Alt.=115.542053m. Speed=24.912001m/h.</desc>
<speed>6.920000</speed>
</trkpt>
<trkpt lat="56.062237" lon="26.534002">
<ele>113.954163</ele>
<time>2010-08-29T11:05:21Z</time>
<desc>lat.=56.062237, lon.=26.534002, Alt.=113.954163m. Speed=26.063999m/h.</desc>
<speed>7.240000</speed>
</trkpt>
<trkpt lat="56.062302" lon="26.534008">
<ele>113.081116</ele>
<time>2010-08-29T11:05:22Z</time>
<desc>lat.=56.062302, lon.=26.534008, Alt.=113.081116m. Speed=25.524000m/h.</desc>
<speed>7.090000</speed>
</trkpt>
<trkpt lat="56.062363" lon="26.534014">
<ele>112.647522</ele>
<time>2010-08-29T11:05:23Z</time>
<desc>lat.=56.062363, lon.=26.534014, Alt.=112.647522m. Speed=24.804001m/h.</desc>
<speed>6.890000</speed>
</trkpt>
<trkpt lat="56.062424" lon="26.534025">
<ele>111.616272</ele>
<time>2010-08-29T11:05:24Z</time>
<desc>lat.=56.062424, lon.=26.534025, Alt.=111.616272m. Speed=24.624001m/h.</desc>
<speed>6.840000</speed>
</trkpt>
<trkpt lat="56.062485" lon="26.534029">
<ele>110.737366</ele>
<time>2010-08-29T11:05:25Z</time>
<desc>lat.=56.062485, lon.=26.534029, Alt.=110.737366m. Speed=23.580000m/h.</desc>
<speed>6.550000</speed>
</trkpt>
<trkpt lat="56.062542" lon="26.534035">
<ele>111.065491</ele>
<time>2010-08-29T11:05:26Z</time>
<desc>lat.=56.062542, lon.=26.534035, Alt.=111.065491m. Speed=22.896000m/h.</desc>
<speed>6.360000</speed>
</trkpt>
<trkpt lat="56.062595" lon="26.534040">
<ele>110.879944</ele>
<time>2010-08-29T11:05:27Z</time>
<desc>lat.=56.062595, lon.=26.534040, Alt.=110.879944m. Speed=21.312000m/h.</desc>
<speed>5.920000</speed>
</trkpt>
<trkpt lat="56.062649" lon="26.534042">
<ele>110.491272</ele>
<time>2010-08-29T11:05:28Z</time>
<desc>lat.=56.062649, lon.=26.534042, Alt.=110.491272m. Speed=23.219999m/h.</desc>
<speed>6.450000</speed>
</trkpt>
<trkpt lat="56.062702" lon="26.534042">
<ele>110.348694</ele>
<time>2010-08-29T11:05:29Z</time>
<desc>lat.=56.062702, lon.=26.534042, Alt.=110.348694m. Speed=21.851999m/h.</desc>
<speed>6.070000</speed>
</trkpt>
<trkpt lat="56.062759" lon="26.534054">
<ele>110.637756</ele>
<time>2010-08-29T11:05:30Z</time>
<desc>lat.=56.062759, lon.=26.534054, Alt.=110.637756m. Speed=23.436001m/h.</desc>
<speed>6.510000</speed>
</trkpt>
<trkpt lat="56.062813" lon="26.534075">
<ele>110.844788</ele>
<time>2010-08-29T11:05:31Z</time>
<desc>lat.=56.062813, lon.=26.534075, Alt.=110.844788m. Speed=23.076000m/h.</desc>
<speed>6.410000</speed>
</trkpt>
<trkpt lat="56.062870" lon="26.534086">
<ele>110.100647</ele>
<time>2010-08-29T11:05:32Z</time>
<desc>lat.=56.062870, lon.=26.534086, Alt.=110.100647m. Speed=22.716000m/h.</desc>
<speed>6.310000</speed>
</trkpt>
<trkpt lat="56.062923" lon="26.534100">
<ele>109.920959</ele>
<time>2010-08-29T11:05:33Z</time>
<desc>lat.=56.062923, lon.=26.534100, Alt.=109.920959m. Speed=22.680000m/h.</desc>
<speed>6.300000</speed>
</trkpt>
<trkpt lat="56.062981" lon="26.534105">
<ele>109.018616</ele>
<time>2010-08-29T11:05:34Z</time>
<desc>lat.=56.062981, lon.=26.534105, Alt.=109.018616m. Speed=21.959999m/h.</desc>
<speed>6.100000</speed>
</trkpt>
<trkpt lat="56.063034" lon="26.534107">
<ele>109.444397</ele>
<time>2010-08-29T11:05:35Z</time>
<desc>lat.=56.063034, lon.=26.534107, Alt.=109.444397m. Speed=20.736000m/h.</desc>
<speed>5.760000</speed>
</trkpt>
<trkpt lat="56.063087" lon="26.534115">
<ele>109.665100</ele>
<time>2010-08-29T11:05:36Z</time>
<desc>lat.=56.063087, lon.=26.534115, Alt.=109.665100m. Speed=20.808001m/h.</desc>
<speed>5.780000</speed>
</trkpt>
<trkpt lat="56.063141" lon="26.534124">
<ele>109.919006</ele>
<time>2010-08-29T11:05:37Z</time>
<desc>lat.=56.063141, lon.=26.534124, Alt.=109.919006m. Speed=21.204000m/h.</desc>
<speed>5.890000</speed>
</trkpt>
<trkpt lat="56.063198" lon="26.534130">
<ele>110.268616</ele>
<time>2010-08-29T11:05:38Z</time>
<desc>lat.=56.063198, lon.=26.534130, Alt.=110.268616m. Speed=22.247999m/h.</desc>
<speed>6.180000</speed>
</trkpt>
<trkpt lat="56.063259" lon="26.534134">
<ele>109.676819</ele>
<time>2010-08-29T11:05:39Z</time>
<desc>lat.=56.063259, lon.=26.534134, Alt.=109.676819m. Speed=23.472000m/h.</desc>
<speed>6.520000</speed>
</trkpt>
<trkpt lat="56.063328" lon="26.534138">
<ele>110.002991</ele>
<time>2010-08-29T11:05:40Z</time>
<desc>lat.=56.063328, lon.=26.534138, Alt.=110.002991m. Speed=25.848000m/h.</desc>
<speed>7.180000</speed>
</trkpt>
<trkpt lat="56.063393" lon="26.534147">
<ele>109.752991</ele>
<time>2010-08-29T11:05:41Z</time>
<desc>lat.=56.063393, lon.=26.534147, Alt.=109.752991m. Speed=24.840000m/h.</desc>
<speed>6.900000</speed>
</trkpt>
<trkpt lat="56.063450" lon="26.534149">
<ele>108.436584</ele>
<time>2010-08-29T11:05:42Z</time>
<desc>lat.=56.063450, lon.=26.534149, Alt.=108.436584m. Speed=24.624001m/h.</desc>
<speed>6.840000</speed>
</trkpt>
<trkpt lat="56.063515" lon="26.534143">
<ele>108.073303</ele>
<time>2010-08-29T11:05:43Z</time>
<desc>lat.=56.063515, lon.=26.534143, Alt.=108.073303m. Speed=23.580000m/h.</desc>
<speed>6.550000</speed>
</trkpt>
<trkpt lat="56.063572" lon="26.534134">
<ele>108.210022</ele>
<time>2010-08-29T11:05:44Z</time>
<desc>lat.=56.063572, lon.=26.534134, Alt.=108.210022m. Speed=22.247999m/h.</desc>
<speed>6.180000</speed>
</trkpt>
<trkpt lat="56.063629" lon="26.534130">
<ele>108.690491</ele>
<time>2010-08-29T11:05:45Z</time>
<desc>lat.=56.063629, lon.=26.534130, Alt.=108.690491m. Speed=23.868000m/h.</desc>
<speed>6.630000</speed>
</trkpt>
<trkpt lat="56.063690" lon="26.534140">
<ele>109.374084</ele>
<time>2010-08-29T11:05:46Z</time>
<desc>lat.=56.063690, lon.=26.534140, Alt.=109.374084m. Speed=23.364000m/h.</desc>
<speed>6.490000</speed>
</trkpt>
<trkpt lat="56.063747" lon="26.534145">
<ele>110.569397</ele>
<time>2010-08-29T11:05:47Z</time>
<desc>lat.=56.063747, lon.=26.534145, Alt.=110.569397m. Speed=22.068001m/h.</desc>
<speed>6.130000</speed>
</trkpt>
<trkpt lat="56.063797" lon="26.534143">
<ele>110.665100</ele>
<time>2010-08-29T11:05:48Z</time>
<desc>lat.=56.063797, lon.=26.534143, Alt.=110.665100m. Speed=19.044001m/h.</desc>
<speed>5.290000</speed>
</trkpt>
<trkpt lat="56.063843" lon="26.534138">
<ele>110.780334</ele>
<time>2010-08-29T11:05:49Z</time>
<desc>lat.=56.063843, lon.=26.534138, Alt.=110.780334m. Speed=18.108000m/h.</desc>
<speed>5.030000</speed>
</trkpt>
<trkpt lat="56.063892" lon="26.534138">
<ele>110.629944</ele>
<time>2010-08-29T11:05:50Z</time>
<desc>lat.=56.063892, lon.=26.534138, Alt.=110.629944m. Speed=19.691999m/h.</desc>
<speed>5.470000</speed>
</trkpt>
<trkpt lat="56.063938" lon="26.534143">
<ele>110.866272</ele>
<time>2010-08-29T11:05:51Z</time>
<desc>lat.=56.063938, lon.=26.534143, Alt.=110.866272m. Speed=18.468000m/h.</desc>
<speed>5.130000</speed>
</trkpt>
<trkpt lat="56.063984" lon="26.534151">
<ele>110.756897</ele>
<time>2010-08-29T11:05:52Z</time>
<desc>lat.=56.063984, lon.=26.534151, Alt.=110.756897m. Speed=16.632000m/h.</desc>
<speed>4.620000</speed>
</trkpt>
<trkpt lat="56.064022" lon="26.534157">
<ele>108.135803</ele>
<time>2010-08-29T11:05:53Z</time>
<desc>lat.=56.064022, lon.=26.534157, Alt.=108.135803m. Speed=15.876000m/h.</desc>
<speed>4.410000</speed>
</trkpt>
<trkpt lat="56.064053" lon="26.534163">
<ele>106.747131</ele>
<time>2010-08-29T11:05:54Z</time>
<desc>lat.=56.064053, lon.=26.534163, Alt.=106.747131m. Speed=12.960000m/h.</desc>
<speed>3.600000</speed>
</trkpt>
<trkpt lat="56.064083" lon="26.534159">
<ele>106.141663</ele>
<time>2010-08-29T11:05:55Z</time>
<desc>lat.=56.064083, lon.=26.534159, Alt.=106.141663m. Speed=10.296000m/h.</desc>
<speed>2.860000</speed>
</trkpt>
<trkpt lat="56.064102" lon="26.534155">
<ele>105.727600</ele>
<time>2010-08-29T11:05:56Z</time>
<desc>lat.=56.064102, lon.=26.534155, Alt.=105.727600m. Speed=8.316000m/h.</desc>
<speed>2.310000</speed>
</trkpt>
<trkpt lat="56.064125" lon="26.534155">
<ele>104.540100</ele>
<time>2010-08-29T11:05:57Z</time>
<desc>lat.=56.064125, lon.=26.534155, Alt.=104.540100m. Speed=6.768000m/h.</desc>
<speed>1.880000</speed>
</trkpt>
<trkpt lat="56.064144" lon="26.534149">
<ele>102.799866</ele>
<time>2010-08-29T11:05:58Z</time>
<desc>lat.=56.064144, lon.=26.534149, Alt.=102.799866m. Speed=8.712000m/h.</desc>
<speed>2.420000</speed>
</trkpt>
<trkpt lat="56.064167" lon="26.534142">
<ele>101.594788</ele>
<time>2010-08-29T11:05:59Z</time>
<desc>lat.=56.064167, lon.=26.534142, Alt.=101.594788m. Speed=7.272000m/h.</desc>
<speed>2.020000</speed>
</trkpt>
<trkpt lat="56.064190" lon="26.534132">
<ele>101.842834</ele>
<time>2010-08-29T11:06:00Z</time>
<desc>lat.=56.064190, lon.=26.534132, Alt.=101.842834m. Speed=6.696000m/h.</desc>
<speed>1.860000</speed>
</trkpt>
<trkpt lat="56.064205" lon="26.534130">
<ele>102.106506</ele>
<time>2010-08-29T11:06:01Z</time>
<desc>lat.=56.064205, lon.=26.534130, Alt.=102.106506m. Speed=3.960000m/h.</desc>
<speed>1.100000</speed>
</trkpt>
<trkpt lat="56.064236" lon="26.534130">
<ele>104.075256</ele>
<time>2010-08-29T11:06:02Z</time>
<desc>lat.=56.064236, lon.=26.534130, Alt.=104.075256m. Speed=4.788000m/h.</desc>
<speed>1.330000</speed>
</trkpt>
<trkpt lat="56.064251" lon="26.534122">
<ele>103.817444</ele>
<time>2010-08-29T11:06:03Z</time>
<desc>lat.=56.064251, lon.=26.534122, Alt.=103.817444m. Speed=4.860000m/h.</desc>
<speed>1.350000</speed>
</trkpt>
<trkpt lat="56.064259" lon="26.534115">
<ele>103.032288</ele>
<time>2010-08-29T11:06:04Z</time>
<desc>lat.=56.064259, lon.=26.534115, Alt.=103.032288m. Speed=3.672000m/h.</desc>
<speed>1.020000</speed>
</trkpt>
<trkpt lat="56.064266" lon="26.534101">
<ele>102.401428</ele>
<time>2010-08-29T11:06:05Z</time>
<desc>lat.=56.064266, lon.=26.534101, Alt.=102.401428m. Speed=4.356000m/h.</desc>
<speed>1.210000</speed>
</trkpt>
<trkpt lat="56.064266" lon="26.534086">
<ele>101.710022</ele>
<time>2010-08-29T11:06:06Z</time>
<desc>lat.=56.064266, lon.=26.534086, Alt.=101.710022m. Speed=3.708000m/h.</desc>
<speed>1.030000</speed>
</trkpt>
<trkpt lat="56.064266" lon="26.534067">
<ele>100.803772</ele>
<time>2010-08-29T11:06:07Z</time>
<desc>lat.=56.064266, lon.=26.534067, Alt.=100.803772m. Speed=4.968000m/h.</desc>
<speed>1.380000</speed>
</trkpt>
<trkpt lat="56.064266" lon="26.534056">
<ele>101.151428</ele>
<time>2010-08-29T11:06:08Z</time>
<desc>lat.=56.064266, lon.=26.534056, Alt.=101.151428m. Speed=2.772000m/h.</desc>
<speed>0.770000</speed>
</trkpt>
<trkpt lat="56.064266" lon="26.534046">
<ele>101.014709</ele>
<time>2010-08-29T11:06:09Z</time>
<desc>lat.=56.064266, lon.=26.534046, Alt.=101.014709m. Speed=0.576000m/h.</desc>
<speed>0.160000</speed>
</trkpt>
<trkpt lat="56.064266" lon="26.534037">
<ele>101.329163</ele>
<time>2010-08-29T11:06:10Z</time>
<desc>lat.=56.064266, lon.=26.534037, Alt.=101.329163m. Speed=0.432000m/h.</desc>
<speed>0.120000</speed>
</trkpt>
<trkpt lat="56.064259" lon="26.534029">
<ele>101.717834</ele>
<time>2010-08-29T11:06:11Z</time>
<desc>lat.=56.064259, lon.=26.534029, Alt.=101.717834m. Speed=0.396000m/h.</desc>
<speed>0.110000</speed>
</trkpt>
<trkpt lat="56.064259" lon="26.534029">
<ele>101.657288</ele>
<time>2010-08-29T11:06:12Z</time>
<desc>lat.=56.064259, lon.=26.534029, Alt.=101.657288m. Speed=0.072000m/h.</desc>
<speed>0.020000</speed>
</trkpt>
<trkpt lat="56.064259" lon="26.534029">
<ele>101.659241</ele>
<time>2010-08-29T11:06:13Z</time>
<desc>lat.=56.064259, lon.=26.534029, Alt.=101.659241m. Speed=0.072000m/h.</desc>
<speed>0.020000</speed>
</trkpt>
<trkpt lat="56.064259" lon="26.534027">
<ele>101.665100</ele>
<time>2010-08-29T11:06:14Z</time>
<desc>lat.=56.064259, lon.=26.534027, Alt.=101.665100m. Speed=0.072000m/h.</desc>
<speed>0.020000</speed>
</trkpt>
<trkpt lat="56.064259" lon="26.534027">
<ele>101.680725</ele>
<time>2010-08-29T11:06:15Z</time>
<desc>lat.=56.064259, lon.=26.534027, Alt.=101.680725m. Speed=0.000000m/h.</desc>
<speed>0.000000</speed>
</trkpt>
<trkpt lat="56.064259" lon="26.534027">
<ele>101.702209</ele>
<time>2010-08-29T11:06:16Z</time>
<desc>lat.=56.064259, lon.=26.534027, Alt.=101.702209m. Speed=0.036000m/h.</desc>
<speed>0.010000</speed>
</trkpt>
<trkpt lat="56.064259" lon="26.534027">
<ele>101.676819</ele>
<time>2010-08-29T11:06:17Z</time>
<desc>lat.=56.064259, lon.=26.534027, Alt.=101.676819m. Speed=0.180000m/h.</desc>
<speed>0.050000</speed>
</trkpt>
<trkpt lat="56.064259" lon="26.534029">
<ele>101.686584</ele>
<time>2010-08-29T11:06:18Z</time>
<desc>lat.=56.064259, lon.=26.534029, Alt.=101.686584m. Speed=0.108000m/h.</desc>
<speed>0.030000</speed>
</trkpt>
<trkpt lat="56.064259" lon="26.534027">
<ele>101.661194</ele>
<time>2010-08-29T11:06:19Z</time>
<desc>lat.=56.064259, lon.=26.534027, Alt.=101.661194m. Speed=0.288000m/h.</desc>
<speed>0.080000</speed>
</trkpt>
<trkpt lat="56.064259" lon="26.534027">
<ele>101.651428</ele>
<time>2010-08-29T11:06:20Z</time>
<desc>lat.=56.064259, lon.=26.534027, Alt.=101.651428m. Speed=0.144000m/h.</desc>
<speed>0.040000</speed>
</trkpt>
<trkpt lat="56.064259" lon="26.534027">
<ele>101.633850</ele>
<time>2010-08-29T11:06:21Z</time>
<desc>lat.=56.064259, lon.=26.534027, Alt.=101.633850m. Speed=0.180000m/h.</desc>
<speed>0.050000</speed>
</trkpt>
<trkpt lat="56.064259" lon="26.534027">
<ele>101.622131</ele>
<time>2010-08-29T11:06:22Z</time>
<desc>lat.=56.064259, lon.=26.534027, Alt.=101.622131m. Speed=0.252000m/h.</desc>
<speed>0.070000</speed>
</trkpt>
<trkpt lat="56.064262" lon="26.534027">
<ele>101.616272</ele>
<time>2010-08-29T11:06:23Z</time>
<desc>lat.=56.064262, lon.=26.534027, Alt.=101.616272m. Speed=0.072000m/h.</desc>
<speed>0.020000</speed>
</trkpt>
<trkpt lat="56.064262" lon="26.534027">
<ele>101.610413</ele>
<time>2010-08-29T11:06:24Z</time>
<desc>lat.=56.064262, lon.=26.534027, Alt.=101.610413m. Speed=0.972000m/h.</desc>
<speed>0.270000</speed>
</trkpt>
<trkpt lat="56.064262" lon="26.534023">
<ele>101.604553</ele>
<time>2010-08-29T11:06:25Z</time>
<desc>lat.=56.064262, lon.=26.534023, Alt.=101.604553m. Speed=2.700000m/h.</desc>
<speed>0.750000</speed>
</trkpt>
<trkpt lat="56.064262" lon="26.534012">
<ele>101.592834</ele>
<time>2010-08-29T11:06:26Z</time>
<desc>lat.=56.064262, lon.=26.534012, Alt.=101.592834m. Speed=3.996000m/h.</desc>
<speed>1.110000</speed>
</trkpt>
<trkpt lat="56.064274" lon="26.533991">
<ele>101.479553</ele>
<time>2010-08-29T11:06:27Z</time>
<desc>lat.=56.064274, lon.=26.533991, Alt.=101.479553m. Speed=4.680000m/h.</desc>
<speed>1.300000</speed>
</trkpt>
<trkpt lat="56.064289" lon="26.533966">
<ele>101.458069</ele>
<time>2010-08-29T11:06:28Z</time>
<desc>lat.=56.064289, lon.=26.533966, Alt.=101.458069m. Speed=5.832000m/h.</desc>
<speed>1.620000</speed>
</trkpt>
<trkpt lat="56.064304" lon="26.533943">
<ele>101.358459</ele>
<time>2010-08-29T11:06:29Z</time>
<desc>lat.=56.064304, lon.=26.533943, Alt.=101.358459m. Speed=9.900000m/h.</desc>
<speed>2.750000</speed>
</trkpt>
<trkpt lat="56.064323" lon="26.533909">
<ele>101.239319</ele>
<time>2010-08-29T11:06:30Z</time>
<desc>lat.=56.064323, lon.=26.533909, Alt.=101.239319m. Speed=11.484000m/h.</desc>
<speed>3.190000</speed>
</trkpt>
<trkpt lat="56.064346" lon="26.533878">
<ele>101.239319</ele>
<time>2010-08-29T11:06:31Z</time>
<desc>lat.=56.064346, lon.=26.533878, Alt.=101.239319m. Speed=9.324000m/h.</desc>
<speed>2.590000</speed>
</trkpt>
<trkpt lat="56.064365" lon="26.533842">
<ele>101.022522</ele>
<time>2010-08-29T11:06:32Z</time>
<desc>lat.=56.064365, lon.=26.533842, Alt.=101.022522m. Speed=10.620000m/h.</desc>
<speed>2.950000</speed>
</trkpt>
<trkpt lat="56.064381" lon="26.533812">
<ele>100.995178</ele>
<time>2010-08-29T11:06:33Z</time>
<desc>lat.=56.064381, lon.=26.533812, Alt.=100.995178m. Speed=8.748000m/h.</desc>
<speed>2.430000</speed>
</trkpt>
<trkpt lat="56.064396" lon="26.533785">
<ele>100.909241</ele>
<time>2010-08-29T11:06:34Z</time>
<desc>lat.=56.064396, lon.=26.533785, Alt.=100.909241m. Speed=7.596000m/h.</desc>
<speed>2.110000</speed>
</trkpt>
<trkpt lat="56.064415" lon="26.533764">
<ele>100.772522</ele>
<time>2010-08-29T11:06:35Z</time>
<desc>lat.=56.064415, lon.=26.533764, Alt.=100.772522m. Speed=7.164000m/h.</desc>
<speed>1.990000</speed>
</trkpt>
<trkpt lat="56.064430" lon="26.533747">
<ele>100.715881</ele>
<time>2010-08-29T11:06:36Z</time>
<desc>lat.=56.064430, lon.=26.533747, Alt.=100.715881m. Speed=6.300000m/h.</desc>
<speed>1.750000</speed>
</trkpt>
<trkpt lat="56.064442" lon="26.533730">
<ele>100.702209</ele>
<time>2010-08-29T11:06:37Z</time>
<desc>lat.=56.064442, lon.=26.533730, Alt.=100.702209m. Speed=5.076000m/h.</desc>
<speed>1.410000</speed>
</trkpt>
<trkpt lat="56.064457" lon="26.533703">
<ele>100.764709</ele>
<time>2010-08-29T11:06:38Z</time>
<desc>lat.=56.064457, lon.=26.533703, Alt.=100.764709m. Speed=6.912000m/h.</desc>
<speed>1.920000</speed>
</trkpt>
<trkpt lat="56.064484" lon="26.533667">
<ele>100.706116</ele>
<time>2010-08-29T11:06:39Z</time>
<desc>lat.=56.064484, lon.=26.533667, Alt.=100.706116m. Speed=7.920000m/h.</desc>
<speed>2.200000</speed>
</trkpt>
<trkpt lat="56.064503" lon="26.533648">
<ele>100.848694</ele>
<time>2010-08-29T11:06:40Z</time>
<desc>lat.=56.064503, lon.=26.533648, Alt.=100.848694m. Speed=6.588000m/h.</desc>
<speed>1.830000</speed>
</trkpt>
<trkpt lat="56.064526" lon="26.533627">
<ele>100.876038</ele>
<time>2010-08-29T11:06:41Z</time>
<desc>lat.=56.064526, lon.=26.533627, Alt.=100.876038m. Speed=7.704000m/h.</desc>
<speed>2.140000</speed>
</trkpt>
<trkpt lat="56.064545" lon="26.533600">
<ele>100.897522</ele>
<time>2010-08-29T11:06:42Z</time>
<desc>lat.=56.064545, lon.=26.533600, Alt.=100.897522m. Speed=6.984000m/h.</desc>
<speed>1.940000</speed>
</trkpt>
<trkpt lat="56.064560" lon="26.533579">
<ele>100.903381</ele>
<time>2010-08-29T11:06:43Z</time>
<desc>lat.=56.064560, lon.=26.533579, Alt.=100.903381m. Speed=7.020000m/h.</desc>
<speed>1.950000</speed>
</trkpt>
<trkpt lat="56.064583" lon="26.533556">
<ele>100.803772</ele>
<time>2010-08-29T11:06:44Z</time>
<desc>lat.=56.064583, lon.=26.533556, Alt.=100.803772m. Speed=6.444000m/h.</desc>
<speed>1.790000</speed>
</trkpt>
<trkpt lat="56.064610" lon="26.533524">
<ele>100.731506</ele>
<time>2010-08-29T11:06:45Z</time>
<desc>lat.=56.064610, lon.=26.533524, Alt.=100.731506m. Speed=4.356000m/h.</desc>
<speed>1.210000</speed>
</trkpt>
<trkpt lat="56.064621" lon="26.533510">
<ele>100.713928</ele>
<time>2010-08-29T11:06:46Z</time>
<desc>lat.=56.064621, lon.=26.533510, Alt.=100.713928m. Speed=3.924000m/h.</desc>
<speed>1.090000</speed>
</trkpt>
<trkpt lat="56.064636" lon="26.533495">
<ele>100.764709</ele>
<time>2010-08-29T11:06:47Z</time>
<desc>lat.=56.064636, lon.=26.533495, Alt.=100.764709m. Speed=4.752000m/h.</desc>
<speed>1.320000</speed>
</trkpt>
<trkpt lat="56.064655" lon="26.533472">
<ele>100.899475</ele>
<time>2010-08-29T11:06:48Z</time>
<desc>lat.=56.064655, lon.=26.533472, Alt.=100.899475m. Speed=6.120000m/h.</desc>
<speed>1.700000</speed>
</trkpt>
<trkpt lat="56.064682" lon="26.533428">
<ele>100.661194</ele>
<time>2010-08-29T11:06:49Z</time>
<desc>lat.=56.064682, lon.=26.533428, Alt.=100.661194m. Speed=6.768000m/h.</desc>
<speed>1.880000</speed>
</trkpt>
<trkpt lat="56.064709" lon="26.533413">
<ele>100.553772</ele>
<time>2010-08-29T11:06:50Z</time>
<desc>lat.=56.064709, lon.=26.533413, Alt.=100.553772m. Speed=8.892000m/h.</desc>
<speed>2.470000</speed>
</trkpt>
<trkpt lat="56.064739" lon="26.533400">
<ele>100.368225</ele>
<time>2010-08-29T11:06:51Z</time>
<desc>lat.=56.064739, lon.=26.533400, Alt.=100.368225m. Speed=8.568000m/h.</desc>
<speed>2.380000</speed>
</trkpt>
<trkpt lat="56.064754" lon="26.533384">
<ele>100.278381</ele>
<time>2010-08-29T11:06:52Z</time>
<desc>lat.=56.064754, lon.=26.533384, Alt.=100.278381m. Speed=6.444000m/h.</desc>
<speed>1.790000</speed>
</trkpt>
<trkpt lat="56.064766" lon="26.533363">
<ele>100.270569</ele>
<time>2010-08-29T11:06:53Z</time>
<desc>lat.=56.064766, lon.=26.533363, Alt.=100.270569m. Speed=5.508000m/h.</desc>
<speed>1.530000</speed>
</trkpt>
<trkpt lat="56.064781" lon="26.533340">
<ele>100.315491</ele>
<time>2010-08-29T11:06:54Z</time>
<desc>lat.=56.064781, lon.=26.533340, Alt.=100.315491m. Speed=7.020000m/h.</desc>
<speed>1.950000</speed>
</trkpt>
<trkpt lat="56.064796" lon="26.533319">
<ele>100.477600</ele>
<time>2010-08-29T11:06:55Z</time>
<desc>lat.=56.064796, lon.=26.533319, Alt.=100.477600m. Speed=5.940000m/h.</desc>
<speed>1.650000</speed>
</trkpt>
<trkpt lat="56.064808" lon="26.533302">
<ele>100.563538</ele>
<time>2010-08-29T11:06:56Z</time>
<desc>lat.=56.064808, lon.=26.533302, Alt.=100.563538m. Speed=4.932000m/h.</desc>
<speed>1.370000</speed>
</trkpt>
<trkpt lat="56.064827" lon="26.533287">
<ele>100.649475</ele>
<time>2010-08-29T11:06:57Z</time>
<desc>lat.=56.064827, lon.=26.533287, Alt.=100.649475m. Speed=5.580000m/h.</desc>
<speed>1.550000</speed>
</trkpt>
<trkpt lat="56.064835" lon="26.533260">
<ele>100.815491</ele>
<time>2010-08-29T11:06:58Z</time>
<desc>lat.=56.064835, lon.=26.533260, Alt.=100.815491m. Speed=4.788000m/h.</desc>
<speed>1.330000</speed>
</trkpt>
<trkpt lat="56.064842" lon="26.533226">
<ele>100.774475</ele>
<time>2010-08-29T11:06:59Z</time>
<desc>lat.=56.064842, lon.=26.533226, Alt.=100.774475m. Speed=5.256000m/h.</desc>
<speed>1.460000</speed>
</trkpt>
<trkpt lat="56.064857" lon="26.533186">
<ele>100.842834</ele>
<time>2010-08-29T11:07:00Z</time>
<desc>lat.=56.064857, lon.=26.533186, Alt.=100.842834m. Speed=8.028000m/h.</desc>
<speed>2.230000</speed>
</trkpt>
<trkpt lat="56.064873" lon="26.533154">
<ele>100.940491</ele>
<time>2010-08-29T11:07:01Z</time>
<desc>lat.=56.064873, lon.=26.533154, Alt.=100.940491m. Speed=6.300000m/h.</desc>
<speed>1.750000</speed>
</trkpt>
<trkpt lat="56.064888" lon="26.533129">
<ele>100.907288</ele>
<time>2010-08-29T11:07:02Z</time>
<desc>lat.=56.064888, lon.=26.533129, Alt.=100.907288m. Speed=4.968000m/h.</desc>
<speed>1.380000</speed>
</trkpt>
<trkpt lat="56.064899" lon="26.533106">
<ele>100.840881</ele>
<time>2010-08-29T11:07:03Z</time>
<desc>lat.=56.064899, lon.=26.533106, Alt.=100.840881m. Speed=4.752000m/h.</desc>
<speed>1.320000</speed>
</trkpt>
<trkpt lat="56.064915" lon="26.533089">
<ele>100.823303</ele>
<time>2010-08-29T11:07:04Z</time>
<desc>lat.=56.064915, lon.=26.533089, Alt.=100.823303m. Speed=5.112000m/h.</desc>
<speed>1.420000</speed>
</trkpt>
<trkpt lat="56.064934" lon="26.533075">
<ele>100.877991</ele>
<time>2010-08-29T11:07:05Z</time>
<desc>lat.=56.064934, lon.=26.533075, Alt.=100.877991m. Speed=4.716000m/h.</desc>
<speed>1.310000</speed>
</trkpt>
<trkpt lat="56.064953" lon="26.533066">
<ele>100.956116</ele>
<time>2010-08-29T11:07:06Z</time>
<desc>lat.=56.064953, lon.=26.533066, Alt.=100.956116m. Speed=4.500000m/h.</desc>
<speed>1.250000</speed>
</trkpt>
<trkpt lat="56.064976" lon="26.533043">
<ele>101.190491</ele>
<time>2010-08-29T11:07:07Z</time>
<desc>lat.=56.064976, lon.=26.533043, Alt.=101.190491m. Speed=5.688000m/h.</desc>
<speed>1.580000</speed>
</trkpt>
<trkpt lat="56.064999" lon="26.533018">
<ele>101.518616</ele>
<time>2010-08-29T11:07:08Z</time>
<desc>lat.=56.064999, lon.=26.533018, Alt.=101.518616m. Speed=4.716000m/h.</desc>
<speed>1.310000</speed>
</trkpt>
<trkpt lat="56.065014" lon="26.532990">
<ele>101.627991</ele>
<time>2010-08-29T11:07:09Z</time>
<desc>lat.=56.065014, lon.=26.532990, Alt.=101.627991m. Speed=4.464000m/h.</desc>
<speed>1.240000</speed>
</trkpt>
<trkpt lat="56.065022" lon="26.532967">
<ele>101.807678</ele>
<time>2010-08-29T11:07:10Z</time>
<desc>lat.=56.065022, lon.=26.532967, Alt.=101.807678m. Speed=3.420000m/h.</desc>
<speed>0.950000</speed>
</trkpt>
<trkpt lat="56.065033" lon="26.532936">
<ele>101.954163</ele>
<time>2010-08-29T11:07:11Z</time>
<desc>lat.=56.065033, lon.=26.532936, Alt.=101.954163m. Speed=4.140000m/h.</desc>
<speed>1.150000</speed>
</trkpt>
<trkpt lat="56.065044" lon="26.532900">
<ele>102.167053</ele>
<time>2010-08-29T11:07:12Z</time>
<desc>lat.=56.065044, lon.=26.532900, Alt.=102.167053m. Speed=6.444000m/h.</desc>
<speed>1.790000</speed>
</trkpt>
<trkpt lat="56.065067" lon="26.532866">
<ele>102.370178</ele>
<time>2010-08-29T11:07:13Z</time>
<desc>lat.=56.065067, lon.=26.532866, Alt.=102.370178m. Speed=6.984000m/h.</desc>
<speed>1.940000</speed>
</trkpt>
<trkpt lat="56.065098" lon="26.532825">
<ele>102.534241</ele>
<time>2010-08-29T11:07:14Z</time>
<desc>lat.=56.065098, lon.=26.532825, Alt.=102.534241m. Speed=9.432000m/h.</desc>
<speed>2.620000</speed>
</trkpt>
<trkpt lat="56.065121" lon="26.532787">
<ele>102.710022</ele>
<time>2010-08-29T11:07:15Z</time>
<desc>lat.=56.065121, lon.=26.532787, Alt.=102.710022m. Speed=8.496000m/h.</desc>
<speed>2.360000</speed>
</trkpt>
<trkpt lat="56.065144" lon="26.532743">
<ele>102.700256</ele>
<time>2010-08-29T11:07:16Z</time>
<desc>lat.=56.065144, lon.=26.532743, Alt.=102.700256m. Speed=8.820000m/h.</desc>
<speed>2.450000</speed>
</trkpt>
<trkpt lat="56.065178" lon="26.532692">
<ele>103.018616</ele>
<time>2010-08-29T11:07:17Z</time>
<desc>lat.=56.065178, lon.=26.532692, Alt.=103.018616m. Speed=10.656000m/h.</desc>
<speed>2.960000</speed>
</trkpt>
<trkpt lat="56.065220" lon="26.532648">
<ele>103.256897</ele>
<time>2010-08-29T11:07:18Z</time>
<desc>lat.=56.065220, lon.=26.532648, Alt.=103.256897m. Speed=11.520000m/h.</desc>
<speed>3.200000</speed>
</trkpt>
<trkpt lat="56.065250" lon="26.532589">
<ele>103.295959</ele>
<time>2010-08-29T11:07:19Z</time>
<desc>lat.=56.065250, lon.=26.532589, Alt.=103.295959m. Speed=10.260000m/h.</desc>
<speed>2.850000</speed>
</trkpt>
<trkpt lat="56.065289" lon="26.532515">
<ele>103.274475</ele>
<time>2010-08-29T11:07:20Z</time>
<desc>lat.=56.065289, lon.=26.532515, Alt.=103.274475m. Speed=10.332000m/h.</desc>
<speed>2.870000</speed>
</trkpt>
<trkpt lat="56.065342" lon="26.532442">
<ele>103.241272</ele>
<time>2010-08-29T11:07:21Z</time>
<desc>lat.=56.065342, lon.=26.532442, Alt.=103.241272m. Speed=17.243999m/h.</desc>
<speed>4.790000</speed>
</trkpt>
<trkpt lat="56.065384" lon="26.532408">
<ele>103.649475</ele>
<time>2010-08-29T11:07:22Z</time>
<desc>lat.=56.065384, lon.=26.532408, Alt.=103.649475m. Speed=8.892000m/h.</desc>
<speed>2.470000</speed>
</trkpt>
<trkpt lat="56.065418" lon="26.532381">
<ele>103.967834</ele>
<time>2010-08-29T11:07:23Z</time>
<desc>lat.=56.065418, lon.=26.532381, Alt.=103.967834m. Speed=6.696000m/h.</desc>
<speed>1.860000</speed>
</trkpt>
<trkpt lat="56.065437" lon="26.532345">
<ele>104.006897</ele>
<time>2010-08-29T11:07:24Z</time>
<desc>lat.=56.065437, lon.=26.532345, Alt.=104.006897m. Speed=5.868000m/h.</desc>
<speed>1.630000</speed>
</trkpt>
<trkpt lat="56.065445" lon="26.532322">
<ele>104.110413</ele>
<time>2010-08-29T11:07:25Z</time>
<desc>lat.=56.065445, lon.=26.532322, Alt.=104.110413m. Speed=10.872000m/h.</desc>
<speed>3.020000</speed>
</trkpt>
<trkpt lat="56.065460" lon="26.532276">
<ele>104.315491</ele>
<time>2010-08-29T11:07:26Z</time>
<desc>lat.=56.065460, lon.=26.532276, Alt.=104.315491m. Speed=6.912000m/h.</desc>
<speed>1.920000</speed>
</trkpt>
<trkpt lat="56.065475" lon="26.532249">
<ele>104.504944</ele>
<time>2010-08-29T11:07:27Z</time>
<desc>lat.=56.065475, lon.=26.532249, Alt.=104.504944m. Speed=4.392000m/h.</desc>
<speed>1.220000</speed>
</trkpt>
<trkpt lat="56.065517" lon="26.532230">
<ele>105.022522</ele>
<time>2010-08-29T11:07:28Z</time>
<desc>lat.=56.065517, lon.=26.532230, Alt.=105.022522m. Speed=5.616000m/h.</desc>
<speed>1.560000</speed>
</trkpt>
<trkpt lat="56.065548" lon="26.532194">
<ele>105.491272</ele>
<time>2010-08-29T11:07:29Z</time>
<desc>lat.=56.065548, lon.=26.532194, Alt.=105.491272m. Speed=6.984000m/h.</desc>
<speed>1.940000</speed>
</trkpt>
<trkpt lat="56.065582" lon="26.532156">
<ele>105.749084</ele>
<time>2010-08-29T11:07:30Z</time>
<desc>lat.=56.065582, lon.=26.532156, Alt.=105.749084m. Speed=6.336000m/h.</desc>
<speed>1.760000</speed>
</trkpt>
<trkpt lat="56.065613" lon="26.532124">
<ele>106.098694</ele>
<time>2010-08-29T11:07:31Z</time>
<desc>lat.=56.065613, lon.=26.532124, Alt.=106.098694m. Speed=7.308000m/h.</desc>
<speed>2.030000</speed>
</trkpt>
<trkpt lat="56.065624" lon="26.532099">
<ele>106.126038</ele>
<time>2010-08-29T11:07:32Z</time>
<desc>lat.=56.065624, lon.=26.532099, Alt.=106.126038m. Speed=12.024000m/h.</desc>
<speed>3.340000</speed>
</trkpt>
<trkpt lat="56.065651" lon="26.532032">
<ele>106.442444</ele>
<time>2010-08-29T11:07:33Z</time>
<desc>lat.=56.065651, lon.=26.532032, Alt.=106.442444m. Speed=10.692000m/h.</desc>
<speed>2.970000</speed>
</trkpt>
<trkpt lat="56.065685" lon="26.531982">
<ele>107.004944</ele>
<time>2010-08-29T11:07:34Z</time>
<desc>lat.=56.065685, lon.=26.531982, Alt.=107.004944m. Speed=11.664000m/h.</desc>
<speed>3.240000</speed>
</trkpt>
<trkpt lat="56.065723" lon="26.531914">
<ele>107.475647</ele>
<time>2010-08-29T11:07:35Z</time>
<desc>lat.=56.065723, lon.=26.531914, Alt.=107.475647m. Speed=11.628000m/h.</desc>
<speed>3.230000</speed>
</trkpt>
<trkpt lat="56.065762" lon="26.531843">
<ele>107.907288</ele>
<time>2010-08-29T11:07:36Z</time>
<desc>lat.=56.065762, lon.=26.531843, Alt.=107.907288m. Speed=12.636000m/h.</desc>
<speed>3.510000</speed>
</trkpt>
<trkpt lat="56.065788" lon="26.531790">
<ele>108.491272</ele>
<time>2010-08-29T11:07:37Z</time>
<desc>lat.=56.065788, lon.=26.531790, Alt.=108.491272m. Speed=11.412000m/h.</desc>
<speed>3.170000</speed>
</trkpt>
<trkpt lat="56.065811" lon="26.531748">
<ele>109.202209</ele>
<time>2010-08-29T11:07:38Z</time>
<desc>lat.=56.065811, lon.=26.531748, Alt.=109.202209m. Speed=10.944000m/h.</desc>
<speed>3.040000</speed>
</trkpt>
<trkpt lat="56.065826" lon="26.531698">
<ele>109.770569</ele>
<time>2010-08-29T11:07:39Z</time>
<desc>lat.=56.065826, lon.=26.531698, Alt.=109.770569m. Speed=10.620000m/h.</desc>
<speed>2.950000</speed>
</trkpt>
<trkpt lat="56.065849" lon="26.531649">
<ele>110.305725</ele>
<time>2010-08-29T11:07:40Z</time>
<desc>lat.=56.065849, lon.=26.531649, Alt.=110.305725m. Speed=12.492000m/h.</desc>
<speed>3.470000</speed>
</trkpt>
<trkpt lat="56.065922" lon="26.531534">
<ele>109.731506</ele>
<time>2010-08-29T11:07:41Z</time>
<desc>lat.=56.065922, lon.=26.531534, Alt.=109.731506m. Speed=14.364000m/h.</desc>
<speed>3.990000</speed>
</trkpt>
<trkpt lat="56.065945" lon="26.531492">
<ele>110.139709</ele>
<time>2010-08-29T11:07:42Z</time>
<desc>lat.=56.065945, lon.=26.531492, Alt.=110.139709m. Speed=9.864000m/h.</desc>
<speed>2.740000</speed>
</trkpt>
<trkpt lat="56.065990" lon="26.531466">
<ele>110.346741</ele>
<time>2010-08-29T11:07:43Z</time>
<desc>lat.=56.065990, lon.=26.531466, Alt.=110.346741m. Speed=10.836000m/h.</desc>
<speed>3.010000</speed>
</trkpt>
<trkpt lat="56.066021" lon="26.531425">
<ele>110.747131</ele>
<time>2010-08-29T11:07:44Z</time>
<desc>lat.=56.066021, lon.=26.531425, Alt.=110.747131m. Speed=9.216000m/h.</desc>
<speed>2.560000</speed>
</trkpt>
<trkpt lat="56.066036" lon="26.531395">
<ele>111.022522</ele>
<time>2010-08-29T11:07:45Z</time>
<desc>lat.=56.066036, lon.=26.531395, Alt.=111.022522m. Speed=5.904000m/h.</desc>
<speed>1.640000</speed>
</trkpt>
<trkpt lat="56.066048" lon="26.531366">
<ele>111.280334</ele>
<time>2010-08-29T11:07:46Z</time>
<desc>lat.=56.066048, lon.=26.531366, Alt.=111.280334m. Speed=6.228000m/h.</desc>
<speed>1.730000</speed>
</trkpt>
<trkpt lat="56.066067" lon="26.531332">
<ele>111.426819</ele>
<time>2010-08-29T11:07:47Z</time>
<desc>lat.=56.066067, lon.=26.531332, Alt.=111.426819m. Speed=8.064000m/h.</desc>
<speed>2.240000</speed>
</trkpt>
<trkpt lat="56.066090" lon="26.531296">
<ele>111.602600</ele>
<time>2010-08-29T11:07:48Z</time>
<desc>lat.=56.066090, lon.=26.531296, Alt.=111.602600m. Speed=10.440000m/h.</desc>
<speed>2.900000</speed>
</trkpt>
<trkpt lat="56.066113" lon="26.531250">
<ele>112.006897</ele>
<time>2010-08-29T11:07:49Z</time>
<desc>lat.=56.066113, lon.=26.531250, Alt.=112.006897m. Speed=12.924000m/h.</desc>
<speed>3.590000</speed>
</trkpt>
<trkpt lat="56.066132" lon="26.531204">
<ele>112.504944</ele>
<time>2010-08-29T11:07:50Z</time>
<desc>lat.=56.066132, lon.=26.531204, Alt.=112.504944m. Speed=10.800000m/h.</desc>
<speed>3.000000</speed>
</trkpt>
<trkpt lat="56.066166" lon="26.531160">
<ele>112.676819</ele>
<time>2010-08-29T11:07:51Z</time>
<desc>lat.=56.066166, lon.=26.531160, Alt.=112.676819m. Speed=11.916000m/h.</desc>
<speed>3.310000</speed>
</trkpt>
<trkpt lat="56.066200" lon="26.531115">
<ele>112.876038</ele>
<time>2010-08-29T11:07:52Z</time>
<desc>lat.=56.066200, lon.=26.531115, Alt.=112.876038m. Speed=12.636000m/h.</desc>
<speed>3.510000</speed>
</trkpt>
<trkpt lat="56.066235" lon="26.531050">
<ele>112.967834</ele>
<time>2010-08-29T11:07:53Z</time>
<desc>lat.=56.066235, lon.=26.531050, Alt.=112.967834m. Speed=9.684000m/h.</desc>
<speed>2.690000</speed>
</trkpt>
<trkpt lat="56.066261" lon="26.531006">
<ele>113.038147</ele>
<time>2010-08-29T11:07:54Z</time>
<desc>lat.=56.066261, lon.=26.531006, Alt.=113.038147m. Speed=10.152000m/h.</desc>
<speed>2.820000</speed>
</trkpt>
<trkpt lat="56.066296" lon="26.530947">
<ele>113.016663</ele>
<time>2010-08-29T11:07:55Z</time>
<desc>lat.=56.066296, lon.=26.530947, Alt.=113.016663m. Speed=10.476000m/h.</desc>
<speed>2.910000</speed>
</trkpt>
<trkpt lat="56.066326" lon="26.530903">
<ele>113.045959</ele>
<time>2010-08-29T11:07:56Z</time>
<desc>lat.=56.066326, lon.=26.530903, Alt.=113.045959m. Speed=7.632000m/h.</desc>
<speed>2.120000</speed>
</trkpt>
<trkpt lat="56.066345" lon="26.530865">
<ele>113.045959</ele>
<time>2010-08-29T11:07:57Z</time>
<desc>lat.=56.066345, lon.=26.530865, Alt.=113.045959m. Speed=7.812000m/h.</desc>
<speed>2.170000</speed>
</trkpt>
<trkpt lat="56.066345" lon="26.530806">
<ele>114.411194</ele>
<time>2010-08-29T11:07:58Z</time>
<desc>lat.=56.066345, lon.=26.530806, Alt.=114.411194m. Speed=10.764000m/h.</desc>
<speed>2.990000</speed>
</trkpt>
<trkpt lat="56.066372" lon="26.530746">
<ele>114.606506</ele>
<time>2010-08-29T11:07:59Z</time>
<desc>lat.=56.066372, lon.=26.530746, Alt.=114.606506m. Speed=10.152000m/h.</desc>
<speed>2.820000</speed>
</trkpt>
<trkpt lat="56.066406" lon="26.530691">
<ele>114.213928</ele>
<time>2010-08-29T11:08:00Z</time>
<desc>lat.=56.066406, lon.=26.530691, Alt.=114.213928m. Speed=10.908000m/h.</desc>
<speed>3.030000</speed>
</trkpt>
<trkpt lat="56.066422" lon="26.530649">
<ele>114.170959</ele>
<time>2010-08-29T11:08:01Z</time>
<desc>lat.=56.066422, lon.=26.530649, Alt.=114.170959m. Speed=11.088000m/h.</desc>
<speed>3.080000</speed>
</trkpt>
<trkpt lat="56.066433" lon="26.530603">
<ele>114.108459</ele>
<time>2010-08-29T11:08:02Z</time>
<desc>lat.=56.066433, lon.=26.530603, Alt.=114.108459m. Speed=12.492000m/h.</desc>
<speed>3.470000</speed>
</trkpt>
<trkpt lat="56.066441" lon="26.530550">
<ele>113.993225</ele>
<time>2010-08-29T11:08:03Z</time>
<desc>lat.=56.066441, lon.=26.530550, Alt.=113.993225m. Speed=10.908000m/h.</desc>
<speed>3.030000</speed>
</trkpt>
<trkpt lat="56.066463" lon="26.530474">
<ele>113.651428</ele>
<time>2010-08-29T11:08:04Z</time>
<desc>lat.=56.066463, lon.=26.530474, Alt.=113.651428m. Speed=8.820000m/h.</desc>
<speed>2.450000</speed>
</trkpt>
<trkpt lat="56.066505" lon="26.530371">
<ele>112.526428</ele>
<time>2010-08-29T11:08:05Z</time>
<desc>lat.=56.066505, lon.=26.530371, Alt.=112.526428m. Speed=8.964000m/h.</desc>
<speed>2.490000</speed>
</trkpt>
<trkpt lat="56.066525" lon="26.530327">
<ele>112.292053</ele>
<time>2010-08-29T11:08:06Z</time>
<desc>lat.=56.066525, lon.=26.530327, Alt.=112.292053m. Speed=6.912000m/h.</desc>
<speed>1.920000</speed>
</trkpt>
<trkpt lat="56.066544" lon="26.530252">
<ele>111.049866</ele>
<time>2010-08-29T11:08:07Z</time>
<desc>lat.=56.066544, lon.=26.530252, Alt.=111.049866m. Speed=4.680000m/h.</desc>
<speed>1.300000</speed>
</trkpt>
<trkpt lat="56.066574" lon="26.530142">
<ele>113.799866</ele>
<time>2010-08-29T11:08:08Z</time>
<desc>lat.=56.066574, lon.=26.530142, Alt.=113.799866m. Speed=6.732000m/h.</desc>
<speed>1.870000</speed>
</trkpt>
<trkpt lat="56.066612" lon="26.530088">
<ele>114.536194</ele>
<time>2010-08-29T11:08:09Z</time>
<desc>lat.=56.066612, lon.=26.530088, Alt.=114.536194m. Speed=4.896000m/h.</desc>
<speed>1.360000</speed>
</trkpt>
<trkpt lat="56.066662" lon="26.530024">
<ele>113.889709</ele>
<time>2010-08-29T11:08:10Z</time>
<desc>lat.=56.066662, lon.=26.530024, Alt.=113.889709m. Speed=5.076000m/h.</desc>
<speed>1.410000</speed>
</trkpt>
<trkpt lat="56.066689" lon="26.529989">
<ele>114.295959</ele>
<time>2010-08-29T11:08:11Z</time>
<desc>lat.=56.066689, lon.=26.529989, Alt.=114.295959m. Speed=4.572000m/h.</desc>
<speed>1.270000</speed>
</trkpt>
<trkpt lat="56.066727" lon="26.529938">
<ele>114.987366</ele>
<time>2010-08-29T11:08:12Z</time>
<desc>lat.=56.066727, lon.=26.529938, Alt.=114.987366m. Speed=5.256000m/h.</desc>
<speed>1.460000</speed>
</trkpt>
<trkpt lat="56.066742" lon="26.529898">
<ele>114.838928</ele>
<time>2010-08-29T11:08:13Z</time>
<desc>lat.=56.066742, lon.=26.529898, Alt.=114.838928m. Speed=4.392000m/h.</desc>
<speed>1.220000</speed>
</trkpt>
<trkpt lat="56.066761" lon="26.529856">
<ele>115.366272</ele>
<time>2010-08-29T11:08:14Z</time>
<desc>lat.=56.066761, lon.=26.529856, Alt.=115.366272m. Speed=5.364000m/h.</desc>
<speed>1.490000</speed>
</trkpt>
<trkpt lat="56.066772" lon="26.529799">
<ele>114.874084</ele>
<time>2010-08-29T11:08:15Z</time>
<desc>lat.=56.066772, lon.=26.529799, Alt.=114.874084m. Speed=6.084000m/h.</desc>
<speed>1.690000</speed>
</trkpt>
<trkpt lat="56.066803" lon="26.529743">
<ele>115.460022</ele>
<time>2010-08-29T11:08:16Z</time>
<desc>lat.=56.066803, lon.=26.529743, Alt.=115.460022m. Speed=8.028000m/h.</desc>
<speed>2.230000</speed>
</trkpt>
<trkpt lat="56.066818" lon="26.529701">
<ele>116.370178</ele>
<time>2010-08-29T11:08:17Z</time>
<desc>lat.=56.066818, lon.=26.529701, Alt.=116.370178m. Speed=9.144000m/h.</desc>
<speed>2.540000</speed>
</trkpt>
<trkpt lat="56.066849" lon="26.529638">
<ele>117.653381</ele>
<time>2010-08-29T11:08:18Z</time>
<desc>lat.=56.066849, lon.=26.529638, Alt.=117.653381m. Speed=10.728000m/h.</desc>
<speed>2.980000</speed>
</trkpt>
<trkpt lat="56.066879" lon="26.529577">
<ele>118.618225</ele>
<time>2010-08-29T11:08:19Z</time>
<desc>lat.=56.066879, lon.=26.529577, Alt.=118.618225m. Speed=10.584000m/h.</desc>
<speed>2.940000</speed>
</trkpt>
<trkpt lat="56.066902" lon="26.529530">
<ele>118.659241</ele>
<time>2010-08-29T11:08:20Z</time>
<desc>lat.=56.066902, lon.=26.529530, Alt.=118.659241m. Speed=8.208000m/h.</desc>
<speed>2.280000</speed>
</trkpt>
<trkpt lat="56.066914" lon="26.529497">
<ele>118.420959</ele>
<time>2010-08-29T11:08:21Z</time>
<desc>lat.=56.066914, lon.=26.529497, Alt.=118.420959m. Speed=6.696000m/h.</desc>
<speed>1.860000</speed>
</trkpt>
<trkpt lat="56.066933" lon="26.529467">
<ele>117.835022</ele>
<time>2010-08-29T11:08:22Z</time>
<desc>lat.=56.066933, lon.=26.529467, Alt.=117.835022m. Speed=8.028000m/h.</desc>
<speed>2.230000</speed>
</trkpt>
<trkpt lat="56.066963" lon="26.529434">
<ele>117.870178</ele>
<time>2010-08-29T11:08:23Z</time>
<desc>lat.=56.066963, lon.=26.529434, Alt.=117.870178m. Speed=9.972000m/h.</desc>
<speed>2.770000</speed>
</trkpt>
<trkpt lat="56.066998" lon="26.529366">
<ele>118.563538</ele>
<time>2010-08-29T11:08:24Z</time>
<desc>lat.=56.066998, lon.=26.529366, Alt.=118.563538m. Speed=10.836000m/h.</desc>
<speed>3.010000</speed>
</trkpt>
<trkpt lat="56.067017" lon="26.529325">
<ele>118.708069</ele>
<time>2010-08-29T11:08:25Z</time>
<desc>lat.=56.067017, lon.=26.529325, Alt.=118.708069m. Speed=9.216000m/h.</desc>
<speed>2.560000</speed>
</trkpt>
<trkpt lat="56.067036" lon="26.529285">
<ele>118.581116</ele>
<time>2010-08-29T11:08:26Z</time>
<desc>lat.=56.067036, lon.=26.529285, Alt.=118.581116m. Speed=9.900000m/h.</desc>
<speed>2.750000</speed>
</trkpt>
<trkpt lat="56.067051" lon="26.529234">
<ele>118.377991</ele>
<time>2010-08-29T11:08:27Z</time>
<desc>lat.=56.067051, lon.=26.529234, Alt.=118.377991m. Speed=10.908000m/h.</desc>
<speed>3.030000</speed>
</trkpt>
<trkpt lat="56.067078" lon="26.529184">
<ele>118.174866</ele>
<time>2010-08-29T11:08:28Z</time>
<desc>lat.=56.067078, lon.=26.529184, Alt.=118.174866m. Speed=11.556000m/h.</desc>
<speed>3.210000</speed>
</trkpt>
<trkpt lat="56.067093" lon="26.529144">
<ele>118.149475</ele>
<time>2010-08-29T11:08:29Z</time>
<desc>lat.=56.067093, lon.=26.529144, Alt.=118.149475m. Speed=10.908000m/h.</desc>
<speed>3.030000</speed>
</trkpt>
<trkpt lat="56.067116" lon="26.529091">
<ele>117.997131</ele>
<time>2010-08-29T11:08:30Z</time>
<desc>lat.=56.067116, lon.=26.529091, Alt.=117.997131m. Speed=12.348000m/h.</desc>
<speed>3.430000</speed>
</trkpt>
<trkpt lat="56.067135" lon="26.529039">
<ele>117.885803</ele>
<time>2010-08-29T11:08:31Z</time>
<desc>lat.=56.067135, lon.=26.529039, Alt.=117.885803m. Speed=11.880000m/h.</desc>
<speed>3.300000</speed>
</trkpt>
<trkpt lat="56.067162" lon="26.528986">
<ele>117.776428</ele>
<time>2010-08-29T11:08:32Z</time>
<desc>lat.=56.067162, lon.=26.528986, Alt.=117.776428m. Speed=10.512000m/h.</desc>
<speed>2.920000</speed>
</trkpt>
<trkpt lat="56.067181" lon="26.528954">
<ele>117.631897</ele>
<time>2010-08-29T11:08:33Z</time>
<desc>lat.=56.067181, lon.=26.528954, Alt.=117.631897m. Speed=8.100000m/h.</desc>
<speed>2.250000</speed>
</trkpt>
<trkpt lat="56.067192" lon="26.528925">
<ele>117.723694</ele>
<time>2010-08-29T11:08:34Z</time>
<desc>lat.=56.067192, lon.=26.528925, Alt.=117.723694m. Speed=6.264000m/h.</desc>
<speed>1.740000</speed>
</trkpt>
<trkpt lat="56.067196" lon="26.528883">
<ele>117.475647</ele>
<time>2010-08-29T11:08:35Z</time>
<desc>lat.=56.067196, lon.=26.528883, Alt.=117.475647m. Speed=5.652000m/h.</desc>
<speed>1.570000</speed>
</trkpt>
<trkpt lat="56.067211" lon="26.528851">
<ele>117.993225</ele>
<time>2010-08-29T11:08:36Z</time>
<desc>lat.=56.067211, lon.=26.528851, Alt.=117.993225m. Speed=7.596000m/h.</desc>
<speed>2.110000</speed>
</trkpt>
<trkpt lat="56.067242" lon="26.528811">
<ele>118.196350</ele>
<time>2010-08-29T11:08:37Z</time>
<desc>lat.=56.067242, lon.=26.528811, Alt.=118.196350m. Speed=8.604000m/h.</desc>
<speed>2.390000</speed>
</trkpt>
<trkpt lat="56.067261" lon="26.528772">
<ele>118.417053</ele>
<time>2010-08-29T11:08:38Z</time>
<desc>lat.=56.067261, lon.=26.528772, Alt.=118.417053m. Speed=8.496000m/h.</desc>
<speed>2.360000</speed>
</trkpt>
<trkpt lat="56.067276" lon="26.528736">
<ele>118.362366</ele>
<time>2010-08-29T11:08:39Z</time>
<desc>lat.=56.067276, lon.=26.528736, Alt.=118.362366m. Speed=8.532000m/h.</desc>
<speed>2.370000</speed>
</trkpt>
<trkpt lat="56.067299" lon="26.528688">
<ele>117.647522</ele>
<time>2010-08-29T11:08:40Z</time>
<desc>lat.=56.067299, lon.=26.528688, Alt.=117.647522m. Speed=10.116000m/h.</desc>
<speed>2.810000</speed>
</trkpt>
<trkpt lat="56.067322" lon="26.528645">
<ele>117.340881</ele>
<time>2010-08-29T11:08:41Z</time>
<desc>lat.=56.067322, lon.=26.528645, Alt.=117.340881m. Speed=8.820000m/h.</desc>
<speed>2.450000</speed>
</trkpt>
<trkpt lat="56.067352" lon="26.528584">
<ele>117.184631</ele>
<time>2010-08-29T11:08:42Z</time>
<desc>lat.=56.067352, lon.=26.528584, Alt.=117.184631m. Speed=10.116000m/h.</desc>
<speed>2.810000</speed>
</trkpt>
<trkpt lat="56.067368" lon="26.528545">
<ele>116.981506</ele>
<time>2010-08-29T11:08:43Z</time>
<desc>lat.=56.067368, lon.=26.528545, Alt.=116.981506m. Speed=6.624000m/h.</desc>
<speed>1.840000</speed>
</trkpt>
<trkpt lat="56.067387" lon="26.528521">
<ele>117.155334</ele>
<time>2010-08-29T11:08:44Z</time>
<desc>lat.=56.067387, lon.=26.528521, Alt.=117.155334m. Speed=6.048000m/h.</desc>
<speed>1.680000</speed>
</trkpt>
<trkpt lat="56.067402" lon="26.528496">
<ele>116.913147</ele>
<time>2010-08-29T11:08:45Z</time>
<desc>lat.=56.067402, lon.=26.528496, Alt.=116.913147m. Speed=7.200000m/h.</desc>
<speed>2.000000</speed>
</trkpt>
<trkpt lat="56.067410" lon="26.528442">
<ele>114.368225</ele>
<time>2010-08-29T11:08:46Z</time>
<desc>lat.=56.067410, lon.=26.528442, Alt.=114.368225m. Speed=9.108000m/h.</desc>
<speed>2.530000</speed>
</trkpt>
<trkpt lat="56.067432" lon="26.528400">
<ele>113.725647</ele>
<time>2010-08-29T11:08:47Z</time>
<desc>lat.=56.067432, lon.=26.528400, Alt.=113.725647m. Speed=10.152000m/h.</desc>
<speed>2.820000</speed>
</trkpt>
<trkpt lat="56.067451" lon="26.528345">
<ele>112.877991</ele>
<time>2010-08-29T11:08:48Z</time>
<desc>lat.=56.067451, lon.=26.528345, Alt.=112.877991m. Speed=11.772000m/h.</desc>
<speed>3.270000</speed>
</trkpt>
<trkpt lat="56.067474" lon="26.528276">
<ele>112.319397</ele>
<time>2010-08-29T11:08:49Z</time>
<desc>lat.=56.067474, lon.=26.528276, Alt.=112.319397m. Speed=12.384000m/h.</desc>
<speed>3.440000</speed>
</trkpt>
<trkpt lat="56.067493" lon="26.528227">
<ele>112.098694</ele>
<time>2010-08-29T11:08:50Z</time>
<desc>lat.=56.067493, lon.=26.528227, Alt.=112.098694m. Speed=11.556000m/h.</desc>
<speed>3.210000</speed>
</trkpt>
<trkpt lat="56.067524" lon="26.528168">
<ele>112.407288</ele>
<time>2010-08-29T11:08:51Z</time>
<desc>lat.=56.067524, lon.=26.528168, Alt.=112.407288m. Speed=12.384000m/h.</desc>
<speed>3.440000</speed>
</trkpt>
<trkpt lat="56.067558" lon="26.528107">
<ele>112.905334</ele>
<time>2010-08-29T11:08:52Z</time>
<desc>lat.=56.067558, lon.=26.528107, Alt.=112.905334m. Speed=11.448000m/h.</desc>
<speed>3.180000</speed>
</trkpt>
<trkpt lat="56.067581" lon="26.528061">
<ele>112.778381</ele>
<time>2010-08-29T11:08:53Z</time>
<desc>lat.=56.067581, lon.=26.528061, Alt.=112.778381m. Speed=11.556000m/h.</desc>
<speed>3.210000</speed>
</trkpt>
<trkpt lat="56.067600" lon="26.528021">
<ele>112.169006</ele>
<time>2010-08-29T11:08:54Z</time>
<desc>lat.=56.067600, lon.=26.528021, Alt.=112.169006m. Speed=10.260000m/h.</desc>
<speed>2.850000</speed>
</trkpt>
<trkpt lat="56.067619" lon="26.527975">
<ele>111.321350</ele>
<time>2010-08-29T11:08:55Z</time>
<desc>lat.=56.067619, lon.=26.527975, Alt.=111.321350m. Speed=10.116000m/h.</desc>
<speed>2.810000</speed>
</trkpt>
<trkpt lat="56.067638" lon="26.527931">
<ele>110.374084</ele>
<time>2010-08-29T11:08:56Z</time>
<desc>lat.=56.067638, lon.=26.527931, Alt.=110.374084m. Speed=9.900000m/h.</desc>
<speed>2.750000</speed>
</trkpt>
<trkpt lat="56.067657" lon="26.527895">
<ele>109.938538</ele>
<time>2010-08-29T11:08:57Z</time>
<desc>lat.=56.067657, lon.=26.527895, Alt.=109.938538m. Speed=9.252000m/h.</desc>
<speed>2.570000</speed>
</trkpt>
<trkpt lat="56.067688" lon="26.527842">
<ele>110.049866</ele>
<time>2010-08-29T11:08:58Z</time>
<desc>lat.=56.067688, lon.=26.527842, Alt.=110.049866m. Speed=10.908000m/h.</desc>
<speed>3.030000</speed>
</trkpt>
<trkpt lat="56.067719" lon="26.527788">
<ele>109.876038</ele>
<time>2010-08-29T11:08:59Z</time>
<desc>lat.=56.067719, lon.=26.527788, Alt.=109.876038m. Speed=11.520000m/h.</desc>
<speed>3.200000</speed>
</trkpt>
<trkpt lat="56.067738" lon="26.527752">
<ele>109.489319</ele>
<time>2010-08-29T11:09:00Z</time>
<desc>lat.=56.067738, lon.=26.527752, Alt.=109.489319m. Speed=10.512000m/h.</desc>
<speed>2.920000</speed>
</trkpt>
<trkpt lat="56.067749" lon="26.527704">
<ele>108.026428</ele>
<time>2010-08-29T11:09:01Z</time>
<desc>lat.=56.067749, lon.=26.527704, Alt.=108.026428m. Speed=10.692000m/h.</desc>
<speed>2.970000</speed>
</trkpt>
<trkpt lat="56.067768" lon="26.527670">
<ele>107.428772</ele>
<time>2010-08-29T11:09:02Z</time>
<desc>lat.=56.067768, lon.=26.527670, Alt.=107.428772m. Speed=9.792000m/h.</desc>
<speed>2.720000</speed>
</trkpt>
<trkpt lat="56.067780" lon="26.527622">
<ele>105.626038</ele>
<time>2010-08-29T11:09:03Z</time>
<desc>lat.=56.067780, lon.=26.527622, Alt.=105.626038m. Speed=9.576000m/h.</desc>
<speed>2.660000</speed>
</trkpt>
<trkpt lat="56.067799" lon="26.527590">
<ele>104.723694</ele>
<time>2010-08-29T11:09:04Z</time>
<desc>lat.=56.067799, lon.=26.527590, Alt.=104.723694m. Speed=9.396000m/h.</desc>
<speed>2.610000</speed>
</trkpt>
<trkpt lat="56.067825" lon="26.527555">
<ele>103.913147</ele>
<time>2010-08-29T11:09:05Z</time>
<desc>lat.=56.067825, lon.=26.527555, Alt.=103.913147m. Speed=10.440000m/h.</desc>
<speed>2.900000</speed>
</trkpt>
<trkpt lat="56.067863" lon="26.527508">
<ele>103.534241</ele>
<time>2010-08-29T11:09:06Z</time>
<desc>lat.=56.067863, lon.=26.527508, Alt.=103.534241m. Speed=13.104000m/h.</desc>
<speed>3.640000</speed>
</trkpt>
<trkpt lat="56.067909" lon="26.527460">
<ele>102.924866</ele>
<time>2010-08-29T11:09:07Z</time>
<desc>lat.=56.067909, lon.=26.527460, Alt.=102.924866m. Speed=13.212000m/h.</desc>
<speed>3.670000</speed>
</trkpt>
<trkpt lat="56.067955" lon="26.527409">
<ele>102.169006</ele>
<time>2010-08-29T11:09:08Z</time>
<desc>lat.=56.067955, lon.=26.527409, Alt.=102.169006m. Speed=15.480000m/h.</desc>
<speed>4.300000</speed>
</trkpt>
<trkpt lat="56.068008" lon="26.527355">
<ele>102.794006</ele>
<time>2010-08-29T11:09:09Z</time>
<desc>lat.=56.068008, lon.=26.527355, Alt.=102.794006m. Speed=15.876000m/h.</desc>
<speed>4.410000</speed>
</trkpt>
<trkpt lat="56.068054" lon="26.527304">
<ele>102.188538</ele>
<time>2010-08-29T11:09:10Z</time>
<desc>lat.=56.068054, lon.=26.527304, Alt.=102.188538m. Speed=15.372000m/h.</desc>
<speed>4.270000</speed>
</trkpt>
<trkpt lat="56.068096" lon="26.527285">
<ele>102.549866</ele>
<time>2010-08-29T11:09:11Z</time>
<desc>lat.=56.068096, lon.=26.527285, Alt.=102.549866m. Speed=14.796000m/h.</desc>
<speed>4.110000</speed>
</trkpt>
<trkpt lat="56.068127" lon="26.527245">
<ele>101.252991</ele>
<time>2010-08-29T11:09:12Z</time>
<desc>lat.=56.068127, lon.=26.527245, Alt.=101.252991m. Speed=12.852000m/h.</desc>
<speed>3.570000</speed>
</trkpt>
<trkpt lat="56.068161" lon="26.527224">
<ele>100.495178</ele>
<time>2010-08-29T11:09:13Z</time>
<desc>lat.=56.068161, lon.=26.527224, Alt.=100.495178m. Speed=12.492000m/h.</desc>
<speed>3.470000</speed>
</trkpt>
<trkpt lat="56.068203" lon="26.527187">
<ele>100.180725</ele>
<time>2010-08-29T11:09:14Z</time>
<desc>lat.=56.068203, lon.=26.527187, Alt.=100.180725m. Speed=15.408000m/h.</desc>
<speed>4.280000</speed>
</trkpt>
<trkpt lat="56.068249" lon="26.527149">
<ele>101.008850</ele>
<time>2010-08-29T11:09:15Z</time>
<desc>lat.=56.068249, lon.=26.527149, Alt.=101.008850m. Speed=13.104000m/h.</desc>
<speed>3.640000</speed>
</trkpt>
<trkpt lat="56.068283" lon="26.527124">
<ele>100.772522</ele>
<time>2010-08-29T11:09:16Z</time>
<desc>lat.=56.068283, lon.=26.527124, Alt.=100.772522m. Speed=13.428000m/h.</desc>
<speed>3.730000</speed>
</trkpt>
<trkpt lat="56.068321" lon="26.527098">
<ele>100.817444</ele>
<time>2010-08-29T11:09:17Z</time>
<desc>lat.=56.068321, lon.=26.527098, Alt.=100.817444m. Speed=13.752000m/h.</desc>
<speed>3.820000</speed>
</trkpt>
<trkpt lat="56.068363" lon="26.527065">
<ele>100.471741</ele>
<time>2010-08-29T11:09:18Z</time>
<desc>lat.=56.068363, lon.=26.527065, Alt.=100.471741m. Speed=17.388000m/h.</desc>
<speed>4.830000</speed>
</trkpt>
<trkpt lat="56.068405" lon="26.527033">
<ele>99.903381</ele>
<time>2010-08-29T11:09:19Z</time>
<desc>lat.=56.068405, lon.=26.527033, Alt.=99.903381m. Speed=17.208000m/h.</desc>
<speed>4.780000</speed>
</trkpt>
<trkpt lat="56.068451" lon="26.526997">
<ele>98.979553</ele>
<time>2010-08-29T11:09:20Z</time>
<desc>lat.=56.068451, lon.=26.526997, Alt.=98.979553m. Speed=16.992001m/h.</desc>
<speed>4.720000</speed>
</trkpt>
<trkpt lat="56.068493" lon="26.526964">
<ele>98.210022</ele>
<time>2010-08-29T11:09:21Z</time>
<desc>lat.=56.068493, lon.=26.526964, Alt.=98.210022m. Speed=16.632000m/h.</desc>
<speed>4.620000</speed>
</trkpt>
<trkpt lat="56.068531" lon="26.526936">
<ele>97.256897</ele>
<time>2010-08-29T11:09:22Z</time>
<desc>lat.=56.068531, lon.=26.526936, Alt.=97.256897m. Speed=15.300000m/h.</desc>
<speed>4.250000</speed>
</trkpt>
<trkpt lat="56.068565" lon="26.526920">
<ele>96.245178</ele>
<time>2010-08-29T11:09:23Z</time>
<desc>lat.=56.068565, lon.=26.526920, Alt.=96.245178m. Speed=13.680000m/h.</desc>
<speed>3.800000</speed>
</trkpt>
<trkpt lat="56.068600" lon="26.526901">
<ele>95.381897</ele>
<time>2010-08-29T11:09:24Z</time>
<desc>lat.=56.068600, lon.=26.526901, Alt.=95.381897m. Speed=12.672000m/h.</desc>
<speed>3.520000</speed>
</trkpt>
<trkpt lat="56.068634" lon="26.526878">
<ele>94.372131</ele>
<time>2010-08-29T11:09:25Z</time>
<desc>lat.=56.068634, lon.=26.526878, Alt.=94.372131m. Speed=12.420000m/h.</desc>
<speed>3.450000</speed>
</trkpt>
<trkpt lat="56.068668" lon="26.526855">
<ele>93.967834</ele>
<time>2010-08-29T11:09:26Z</time>
<desc>lat.=56.068668, lon.=26.526855, Alt.=93.967834m. Speed=12.888000m/h.</desc>
<speed>3.580000</speed>
</trkpt>
<trkpt lat="56.068707" lon="26.526838">
<ele>95.047913</ele>
<time>2010-08-29T11:09:27Z</time>
<desc>lat.=56.068707, lon.=26.526838, Alt.=95.047913m. Speed=12.852000m/h.</desc>
<speed>3.570000</speed>
</trkpt>
<trkpt lat="56.068748" lon="26.526831">
<ele>96.647522</ele>
<time>2010-08-29T11:09:28Z</time>
<desc>lat.=56.068748, lon.=26.526831, Alt.=96.647522m. Speed=13.824000m/h.</desc>
<speed>3.840000</speed>
</trkpt>
<trkpt lat="56.068783" lon="26.526808">
<ele>96.917053</ele>
<time>2010-08-29T11:09:29Z</time>
<desc>lat.=56.068783, lon.=26.526808, Alt.=96.917053m. Speed=13.140000m/h.</desc>
<speed>3.650000</speed>
</trkpt>
<trkpt lat="56.068821" lon="26.526789">
<ele>97.801819</ele>
<time>2010-08-29T11:09:30Z</time>
<desc>lat.=56.068821, lon.=26.526789, Alt.=97.801819m. Speed=13.680000m/h.</desc>
<speed>3.800000</speed>
</trkpt>
<trkpt lat="56.068855" lon="26.526773">
<ele>97.518616</ele>
<time>2010-08-29T11:09:31Z</time>
<desc>lat.=56.068855, lon.=26.526773, Alt.=97.518616m. Speed=14.436000m/h.</desc>
<speed>4.010000</speed>
</trkpt>
<trkpt lat="56.068890" lon="26.526752">
<ele>96.661194</ele>
<time>2010-08-29T11:09:32Z</time>
<desc>lat.=56.068890, lon.=26.526752, Alt.=96.661194m. Speed=14.688000m/h.</desc>
<speed>4.080000</speed>
</trkpt>
<trkpt lat="56.068943" lon="26.526743">
<ele>101.688538</ele>
<time>2010-08-29T11:09:33Z</time>
<desc>lat.=56.068943, lon.=26.526743, Alt.=101.688538m. Speed=16.164000m/h.</desc>
<speed>4.490000</speed>
</trkpt>
<trkpt lat="56.068977" lon="26.526703">
<ele>100.973694</ele>
<time>2010-08-29T11:09:34Z</time>
<desc>lat.=56.068977, lon.=26.526703, Alt.=100.973694m. Speed=16.379999m/h.</desc>
<speed>4.550000</speed>
</trkpt>
<trkpt lat="56.069012" lon="26.526667">
<ele>100.553772</ele>
<time>2010-08-29T11:09:35Z</time>
<desc>lat.=56.069012, lon.=26.526667, Alt.=100.553772m. Speed=16.308001m/h.</desc>
<speed>4.530000</speed>
</trkpt>
<trkpt lat="56.069046" lon="26.526627">
<ele>100.288147</ele>
<time>2010-08-29T11:09:36Z</time>
<desc>lat.=56.069046, lon.=26.526627, Alt.=100.288147m. Speed=16.271999m/h.</desc>
<speed>4.520000</speed>
</trkpt>
<trkpt lat="56.069080" lon="26.526583">
<ele>99.469788</ele>
<time>2010-08-29T11:09:37Z</time>
<desc>lat.=56.069080, lon.=26.526583, Alt.=99.469788m. Speed=16.452000m/h.</desc>
<speed>4.570000</speed>
</trkpt>
<trkpt lat="56.069115" lon="26.526545">
<ele>98.811584</ele>
<time>2010-08-29T11:09:38Z</time>
<desc>lat.=56.069115, lon.=26.526545, Alt.=98.811584m. Speed=15.264000m/h.</desc>
<speed>4.240000</speed>
</trkpt>
<trkpt lat="56.069149" lon="26.526512">
<ele>98.676819</ele>
<time>2010-08-29T11:09:39Z</time>
<desc>lat.=56.069149, lon.=26.526512, Alt.=98.676819m. Speed=14.292000m/h.</desc>
<speed>3.970000</speed>
</trkpt>
<trkpt lat="56.069176" lon="26.526487">
<ele>97.501038</ele>
<time>2010-08-29T11:09:40Z</time>
<desc>lat.=56.069176, lon.=26.526487, Alt.=97.501038m. Speed=12.600000m/h.</desc>
<speed>3.500000</speed>
</trkpt>
<trkpt lat="56.069206" lon="26.526466">
<ele>96.860413</ele>
<time>2010-08-29T11:09:41Z</time>
<desc>lat.=56.069206, lon.=26.526466, Alt.=96.860413m. Speed=11.772000m/h.</desc>
<speed>3.270000</speed>
</trkpt>
<trkpt lat="56.069233" lon="26.526447">
<ele>96.354553</ele>
<time>2010-08-29T11:09:42Z</time>
<desc>lat.=56.069233, lon.=26.526447, Alt.=96.354553m. Speed=11.952000m/h.</desc>
<speed>3.320000</speed>
</trkpt>
<trkpt lat="56.069263" lon="26.526438">
<ele>95.352600</ele>
<time>2010-08-29T11:09:43Z</time>
<desc>lat.=56.069263, lon.=26.526438, Alt.=95.352600m. Speed=12.888000m/h.</desc>
<speed>3.580000</speed>
</trkpt>
<trkpt lat="56.069298" lon="26.526419">
<ele>94.815491</ele>
<time>2010-08-29T11:09:44Z</time>
<desc>lat.=56.069298, lon.=26.526419, Alt.=94.815491m. Speed=13.932000m/h.</desc>
<speed>3.870000</speed>
</trkpt>
<trkpt lat="56.069332" lon="26.526402">
<ele>94.626038</ele>
<time>2010-08-29T11:09:45Z</time>
<desc>lat.=56.069332, lon.=26.526402, Alt.=94.626038m. Speed=13.824000m/h.</desc>
<speed>3.840000</speed>
</trkpt>
<trkpt lat="56.069370" lon="26.526394">
<ele>94.667053</ele>
<time>2010-08-29T11:09:46Z</time>
<desc>lat.=56.069370, lon.=26.526394, Alt.=94.667053m. Speed=13.140000m/h.</desc>
<speed>3.650000</speed>
</trkpt>
<trkpt lat="56.069397" lon="26.526377">
<ele>92.786194</ele>
<time>2010-08-29T11:09:47Z</time>
<desc>lat.=56.069397, lon.=26.526377, Alt.=92.786194m. Speed=12.096000m/h.</desc>
<speed>3.360000</speed>
</trkpt>
<trkpt lat="56.069427" lon="26.526361">
<ele>92.684631</ele>
<time>2010-08-29T11:09:48Z</time>
<desc>lat.=56.069427, lon.=26.526361, Alt.=92.684631m. Speed=11.052000m/h.</desc>
<speed>3.070000</speed>
</trkpt>
<trkpt lat="56.069454" lon="26.526350">
<ele>92.151428</ele>
<time>2010-08-29T11:09:49Z</time>
<desc>lat.=56.069454, lon.=26.526350, Alt.=92.151428m. Speed=9.720000m/h.</desc>
<speed>2.700000</speed>
</trkpt>
<trkpt lat="56.069481" lon="26.526337">
<ele>91.536194</ele>
<time>2010-08-29T11:09:50Z</time>
<desc>lat.=56.069481, lon.=26.526337, Alt.=91.536194m. Speed=11.124000m/h.</desc>
<speed>3.090000</speed>
</trkpt>
<trkpt lat="56.069511" lon="26.526323">
<ele>91.754944</ele>
<time>2010-08-29T11:09:51Z</time>
<desc>lat.=56.069511, lon.=26.526323, Alt.=91.754944m. Speed=11.448000m/h.</desc>
<speed>3.180000</speed>
</trkpt>
<trkpt lat="56.069542" lon="26.526314">
<ele>92.190491</ele>
<time>2010-08-29T11:09:52Z</time>
<desc>lat.=56.069542, lon.=26.526314, Alt.=92.190491m. Speed=10.764000m/h.</desc>
<speed>2.990000</speed>
</trkpt>
<trkpt lat="56.069569" lon="26.526297">
<ele>91.604553</ele>
<time>2010-08-29T11:09:53Z</time>
<desc>lat.=56.069569, lon.=26.526297, Alt.=91.604553m. Speed=10.404000m/h.</desc>
<speed>2.890000</speed>
</trkpt>
<trkpt lat="56.069592" lon="26.526278">
<ele>90.794006</ele>
<time>2010-08-29T11:09:54Z</time>
<desc>lat.=56.069592, lon.=26.526278, Alt.=90.794006m. Speed=10.224000m/h.</desc>
<speed>2.840000</speed>
</trkpt>
<trkpt lat="56.069622" lon="26.526260">
<ele>90.643616</ele>
<time>2010-08-29T11:09:55Z</time>
<desc>lat.=56.069622, lon.=26.526260, Alt.=90.643616m. Speed=11.268000m/h.</desc>
<speed>3.130000</speed>
</trkpt>
<trkpt lat="56.069645" lon="26.526247">
<ele>89.936584</ele>
<time>2010-08-29T11:09:56Z</time>
<desc>lat.=56.069645, lon.=26.526247, Alt.=89.936584m. Speed=11.052000m/h.</desc>
<speed>3.070000</speed>
</trkpt>
<trkpt lat="56.069668" lon="26.526224">
<ele>89.098694</ele>
<time>2010-08-29T11:09:57Z</time>
<desc>lat.=56.069668, lon.=26.526224, Alt.=89.098694m. Speed=11.340000m/h.</desc>
<speed>3.150000</speed>
</trkpt>
<trkpt lat="56.069691" lon="26.526199">
<ele>88.272522</ele>
<time>2010-08-29T11:09:58Z</time>
<desc>lat.=56.069691, lon.=26.526199, Alt.=88.272522m. Speed=10.656000m/h.</desc>
<speed>2.960000</speed>
</trkpt>
<trkpt lat="56.069706" lon="26.526171">
<ele>87.108459</ele>
<time>2010-08-29T11:09:59Z</time>
<desc>lat.=56.069706, lon.=26.526171, Alt.=87.108459m. Speed=7.884000m/h.</desc>
<speed>2.190000</speed>
</trkpt>
<trkpt lat="56.069714" lon="26.526148">
<ele>86.268616</ele>
<time>2010-08-29T11:10:00Z</time>
<desc>lat.=56.069714, lon.=26.526148, Alt.=86.268616m. Speed=6.912000m/h.</desc>
<speed>1.920000</speed>
</trkpt>
<trkpt lat="56.069736" lon="26.526121">
<ele>86.786194</ele>
<time>2010-08-29T11:10:01Z</time>
<desc>lat.=56.069736, lon.=26.526121, Alt.=86.786194m. Speed=11.556000m/h.</desc>
<speed>3.210000</speed>
</trkpt>
<trkpt lat="56.069752" lon="26.526094">
<ele>86.065491</ele>
<time>2010-08-29T11:10:02Z</time>
<desc>lat.=56.069752, lon.=26.526094, Alt.=86.065491m. Speed=10.332000m/h.</desc>
<speed>2.870000</speed>
</trkpt>
<trkpt lat="56.069771" lon="26.526066">
<ele>85.286194</ele>
<time>2010-08-29T11:10:03Z</time>
<desc>lat.=56.069771, lon.=26.526066, Alt.=85.286194m. Speed=9.000000m/h.</desc>
<speed>2.500000</speed>
</trkpt>
<trkpt lat="56.069790" lon="26.526031">
<ele>84.286194</ele>
<time>2010-08-29T11:10:04Z</time>
<desc>lat.=56.069790, lon.=26.526031, Alt.=84.286194m. Speed=11.556000m/h.</desc>
<speed>3.210000</speed>
</trkpt>
<trkpt lat="56.069813" lon="26.526005">
<ele>83.538147</ele>
<time>2010-08-29T11:10:05Z</time>
<desc>lat.=56.069813, lon.=26.526005, Alt.=83.538147m. Speed=10.908000m/h.</desc>
<speed>3.030000</speed>
</trkpt>
<trkpt lat="56.069828" lon="26.525988">
<ele>82.829163</ele>
<time>2010-08-29T11:10:06Z</time>
<desc>lat.=56.069828, lon.=26.525988, Alt.=82.829163m. Speed=7.524000m/h.</desc>
<speed>2.090000</speed>
</trkpt>
<trkpt lat="56.069843" lon="26.525972">
<ele>82.157288</ele>
<time>2010-08-29T11:10:07Z</time>
<desc>lat.=56.069843, lon.=26.525972, Alt.=82.157288m. Speed=7.452000m/h.</desc>
<speed>2.070000</speed>
</trkpt>
<trkpt lat="56.069866" lon="26.525948">
<ele>80.956116</ele>
<time>2010-08-29T11:10:08Z</time>
<desc>lat.=56.069866, lon.=26.525948, Alt.=80.956116m. Speed=9.900000m/h.</desc>
<speed>2.750000</speed>
</trkpt>
<trkpt lat="56.069889" lon="26.525928">
<ele>80.001038</ele>
<time>2010-08-29T11:10:09Z</time>
<desc>lat.=56.069889, lon.=26.525928, Alt.=80.001038m. Speed=9.000000m/h.</desc>
<speed>2.500000</speed>
</trkpt>
<trkpt lat="56.069908" lon="26.525908">
<ele>79.717834</ele>
<time>2010-08-29T11:10:10Z</time>
<desc>lat.=56.069908, lon.=26.525908, Alt.=79.717834m. Speed=7.992000m/h.</desc>
<speed>2.220000</speed>
</trkpt>
<trkpt lat="56.069931" lon="26.525881">
<ele>79.585022</ele>
<time>2010-08-29T11:10:11Z</time>
<desc>lat.=56.069931, lon.=26.525881, Alt.=79.585022m. Speed=9.900000m/h.</desc>
<speed>2.750000</speed>
</trkpt>
<trkpt lat="56.069965" lon="26.525862">
<ele>79.926819</ele>
<time>2010-08-29T11:10:12Z</time>
<desc>lat.=56.069965, lon.=26.525862, Alt.=79.926819m. Speed=10.440000m/h.</desc>
<speed>2.900000</speed>
</trkpt>
<trkpt lat="56.069992" lon="26.525837">
<ele>80.081116</ele>
<time>2010-08-29T11:10:13Z</time>
<desc>lat.=56.069992, lon.=26.525837, Alt.=80.081116m. Speed=9.756000m/h.</desc>
<speed>2.710000</speed>
</trkpt>
<trkpt lat="56.070023" lon="26.525816">
<ele>79.674866</ele>
<time>2010-08-29T11:10:14Z</time>
<desc>lat.=56.070023, lon.=26.525816, Alt.=79.674866m. Speed=10.440000m/h.</desc>
<speed>2.900000</speed>
</trkpt>
<trkpt lat="56.070053" lon="26.525791">
<ele>79.708069</ele>
<time>2010-08-29T11:10:15Z</time>
<desc>lat.=56.070053, lon.=26.525791, Alt.=79.708069m. Speed=11.016000m/h.</desc>
<speed>3.060000</speed>
</trkpt>
<trkpt lat="56.070080" lon="26.525763">
<ele>79.567444</ele>
<time>2010-08-29T11:10:16Z</time>
<desc>lat.=56.070080, lon.=26.525763, Alt.=79.567444m. Speed=11.340000m/h.</desc>
<speed>3.150000</speed>
</trkpt>
<trkpt lat="56.070107" lon="26.525738">
<ele>78.870178</ele>
<time>2010-08-29T11:10:17Z</time>
<desc>lat.=56.070107, lon.=26.525738, Alt.=78.870178m. Speed=10.872000m/h.</desc>
<speed>3.020000</speed>
</trkpt>
<trkpt lat="56.070133" lon="26.525728">
<ele>78.819397</ele>
<time>2010-08-29T11:10:18Z</time>
<desc>lat.=56.070133, lon.=26.525728, Alt.=78.819397m. Speed=6.480000m/h.</desc>
<speed>1.800000</speed>
</trkpt>
<trkpt lat="56.070152" lon="26.525723">
<ele>79.311584</ele>
<time>2010-08-29T11:10:19Z</time>
<desc>lat.=56.070152, lon.=26.525723, Alt.=79.311584m. Speed=2.160000m/h.</desc>
<speed>0.600000</speed>
</trkpt>
<trkpt lat="56.070152" lon="26.525721">
<ele>78.354553</ele>
<time>2010-08-29T11:10:20Z</time>
<desc>lat.=56.070152, lon.=26.525721, Alt.=78.354553m. Speed=1.584000m/h.</desc>
<speed>0.440000</speed>
</trkpt>
<trkpt lat="56.070152" lon="26.525723">
<ele>78.329163</ele>
<time>2010-08-29T11:10:21Z</time>
<desc>lat.=56.070152, lon.=26.525723, Alt.=78.329163m. Speed=1.656000m/h.</desc>
<speed>0.460000</speed>
</trkpt>
<trkpt lat="56.070152" lon="26.525728">
<ele>78.409241</ele>
<time>2010-08-29T11:10:22Z</time>
<desc>lat.=56.070152, lon.=26.525728, Alt.=78.409241m. Speed=1.008000m/h.</desc>
<speed>0.280000</speed>
</trkpt>
<trkpt lat="56.070152" lon="26.525726">
<ele>77.866272</ele>
<time>2010-08-29T11:10:23Z</time>
<desc>lat.=56.070152, lon.=26.525726, Alt.=77.866272m. Speed=0.900000m/h.</desc>
<speed>0.250000</speed>
</trkpt>
<trkpt lat="56.070152" lon="26.525724">
<ele>77.475647</ele>
<time>2010-08-29T11:10:24Z</time>
<desc>lat.=56.070152, lon.=26.525724, Alt.=77.475647m. Speed=0.504000m/h.</desc>
<speed>0.140000</speed>
</trkpt>
<trkpt lat="56.070148" lon="26.525723">
<ele>77.186584</ele>
<time>2010-08-29T11:10:25Z</time>
<desc>lat.=56.070148, lon.=26.525723, Alt.=77.186584m. Speed=0.936000m/h.</desc>
<speed>0.260000</speed>
</trkpt>
<trkpt lat="56.070148" lon="26.525719">
<ele>76.977600</ele>
<time>2010-08-29T11:10:26Z</time>
<desc>lat.=56.070148, lon.=26.525719, Alt.=76.977600m. Speed=0.468000m/h.</desc>
<speed>0.130000</speed>
</trkpt>
<trkpt lat="56.070148" lon="26.525719">
<ele>76.801819</ele>
<time>2010-08-29T11:10:27Z</time>
<desc>lat.=56.070148, lon.=26.525719, Alt.=76.801819m. Speed=0.396000m/h.</desc>
<speed>0.110000</speed>
</trkpt>
<trkpt lat="56.070148" lon="26.525717">
<ele>76.651428</ele>
<time>2010-08-29T11:10:28Z</time>
<desc>lat.=56.070148, lon.=26.525717, Alt.=76.651428m. Speed=0.360000m/h.</desc>
<speed>0.100000</speed>
</trkpt>
<trkpt lat="56.070145" lon="26.525717">
<ele>76.520569</ele>
<time>2010-08-29T11:10:29Z</time>
<desc>lat.=56.070145, lon.=26.525717, Alt.=76.520569m. Speed=0.252000m/h.</desc>
<speed>0.070000</speed>
</trkpt>
<trkpt lat="56.070145" lon="26.525717">
<ele>76.428772</ele>
<time>2010-08-29T11:10:30Z</time>
<desc>lat.=56.070145, lon.=26.525717, Alt.=76.428772m. Speed=0.216000m/h.</desc>
<speed>0.060000</speed>
</trkpt>
<trkpt lat="56.070145" lon="26.525717">
<ele>76.368225</ele>
<time>2010-08-29T11:10:31Z</time>
<desc>lat.=56.070145, lon.=26.525717, Alt.=76.368225m. Speed=0.252000m/h.</desc>
<speed>0.070000</speed>
</trkpt>
<trkpt lat="56.070145" lon="26.525717">
<ele>76.288147</ele>
<time>2010-08-29T11:10:32Z</time>
<desc>lat.=56.070145, lon.=26.525717, Alt.=76.288147m. Speed=0.288000m/h.</desc>
<speed>0.080000</speed>
</trkpt>
<trkpt lat="56.070145" lon="26.525717">
<ele>76.202209</ele>
<time>2010-08-29T11:10:33Z</time>
<desc>lat.=56.070145, lon.=26.525717, Alt.=76.202209m. Speed=0.252000m/h.</desc>
<speed>0.070000</speed>
</trkpt>
<trkpt lat="56.070145" lon="26.525715">
<ele>76.139709</ele>
<time>2010-08-29T11:10:34Z</time>
<desc>lat.=56.070145, lon.=26.525715, Alt.=76.139709m. Speed=0.288000m/h.</desc>
<speed>0.080000</speed>
</trkpt>
<trkpt lat="56.070145" lon="26.525717">
<ele>76.077209</ele>
<time>2010-08-29T11:10:35Z</time>
<desc>lat.=56.070145, lon.=26.525717, Alt.=76.077209m. Speed=3.276000m/h.</desc>
<speed>0.910000</speed>
</trkpt>
<trkpt lat="56.070152" lon="26.525711">
<ele>76.110413</ele>
<time>2010-08-29T11:10:36Z</time>
<desc>lat.=56.070152, lon.=26.525711, Alt.=76.110413m. Speed=3.492000m/h.</desc>
<speed>0.970000</speed>
</trkpt>
<trkpt lat="56.070164" lon="26.525707">
<ele>75.999084</ele>
<time>2010-08-29T11:10:37Z</time>
<desc>lat.=56.070164, lon.=26.525707, Alt.=75.999084m. Speed=4.788000m/h.</desc>
<speed>1.330000</speed>
</trkpt>
<trkpt lat="56.070187" lon="26.525698">
<ele>76.618225</ele>
<time>2010-08-29T11:10:38Z</time>
<desc>lat.=56.070187, lon.=26.525698, Alt.=76.618225m. Speed=6.408000m/h.</desc>
<speed>1.780000</speed>
</trkpt>
<trkpt lat="56.070221" lon="26.525679">
<ele>77.053772</ele>
<time>2010-08-29T11:10:39Z</time>
<desc>lat.=56.070221, lon.=26.525679, Alt.=77.053772m. Speed=7.056000m/h.</desc>
<speed>1.960000</speed>
</trkpt>
<trkpt lat="56.070244" lon="26.525681">
<ele>77.581116</ele>
<time>2010-08-29T11:10:40Z</time>
<desc>lat.=56.070244, lon.=26.525681, Alt.=77.581116m. Speed=6.444000m/h.</desc>
<speed>1.790000</speed>
</trkpt>
<trkpt lat="56.070282" lon="26.525665">
<ele>79.426819</ele>
<time>2010-08-29T11:10:41Z</time>
<desc>lat.=56.070282, lon.=26.525665, Alt.=79.426819m. Speed=9.252000m/h.</desc>
<speed>2.570000</speed>
</trkpt>
<trkpt lat="56.070316" lon="26.525663">
<ele>81.727600</ele>
<time>2010-08-29T11:10:42Z</time>
<desc>lat.=56.070316, lon.=26.525663, Alt.=81.727600m. Speed=8.388000m/h.</desc>
<speed>2.330000</speed>
</trkpt>
<trkpt lat="56.070343" lon="26.525679">
<ele>82.184631</ele>
<time>2010-08-29T11:10:43Z</time>
<desc>lat.=56.070343, lon.=26.525679, Alt.=82.184631m. Speed=8.460000m/h.</desc>
<speed>2.350000</speed>
</trkpt>
<trkpt lat="56.070374" lon="26.525688">
<ele>85.502991</ele>
<time>2010-08-29T11:10:44Z</time>
<desc>lat.=56.070374, lon.=26.525688, Alt.=85.502991m. Speed=9.360000m/h.</desc>
<speed>2.600000</speed>
</trkpt>
<trkpt lat="56.070404" lon="26.525684">
<ele>86.501038</ele>
<time>2010-08-29T11:10:45Z</time>
<desc>lat.=56.070404, lon.=26.525684, Alt.=86.501038m. Speed=8.208000m/h.</desc>
<speed>2.280000</speed>
</trkpt>
<trkpt lat="56.070427" lon="26.525684">
<ele>86.227600</ele>
<time>2010-08-29T11:10:46Z</time>
<desc>lat.=56.070427, lon.=26.525684, Alt.=86.227600m. Speed=6.516000m/h.</desc>
<speed>1.810000</speed>
</trkpt>
<trkpt lat="56.070450" lon="26.525692">
<ele>88.524475</ele>
<time>2010-08-29T11:10:47Z</time>
<desc>lat.=56.070450, lon.=26.525692, Alt.=88.524475m. Speed=6.660000m/h.</desc>
<speed>1.850000</speed>
</trkpt>
<trkpt lat="56.070457" lon="26.525696">
<ele>88.866272</ele>
<time>2010-08-29T11:10:48Z</time>
<desc>lat.=56.070457, lon.=26.525696, Alt.=88.866272m. Speed=1.440000m/h.</desc>
<speed>0.400000</speed>
</trkpt>
<trkpt lat="56.070457" lon="26.525696">
<ele>89.524475</ele>
<time>2010-08-29T11:10:49Z</time>
<desc>lat.=56.070457, lon.=26.525696, Alt.=89.524475m. Speed=0.540000m/h.</desc>
<speed>0.150000</speed>
</trkpt>
<trkpt lat="56.070457" lon="26.525698">
<ele>89.788147</ele>
<time>2010-08-29T11:10:50Z</time>
<desc>lat.=56.070457, lon.=26.525698, Alt.=89.788147m. Speed=0.396000m/h.</desc>
<speed>0.110000</speed>
</trkpt>
<trkpt lat="56.070457" lon="26.525700">
<ele>90.440491</ele>
<time>2010-08-29T11:10:51Z</time>
<desc>lat.=56.070457, lon.=26.525700, Alt.=90.440491m. Speed=0.360000m/h.</desc>
<speed>0.100000</speed>
</trkpt>
<trkpt lat="56.070457" lon="26.525702">
<ele>90.471741</ele>
<time>2010-08-29T11:10:52Z</time>
<desc>lat.=56.070457, lon.=26.525702, Alt.=90.471741m. Speed=0.216000m/h.</desc>
<speed>0.060000</speed>
</trkpt>
<trkpt lat="56.070454" lon="26.525702">
<ele>90.391663</ele>
<time>2010-08-29T11:10:53Z</time>
<desc>lat.=56.070454, lon.=26.525702, Alt.=90.391663m. Speed=0.180000m/h.</desc>
<speed>0.050000</speed>
</trkpt>
<trkpt lat="56.070454" lon="26.525700">
<ele>90.311584</ele>
<time>2010-08-29T11:10:54Z</time>
<desc>lat.=56.070454, lon.=26.525700, Alt.=90.311584m. Speed=0.216000m/h.</desc>
<speed>0.060000</speed>
</trkpt>
<trkpt lat="56.070454" lon="26.525700">
<ele>90.235413</ele>
<time>2010-08-29T11:10:55Z</time>
<desc>lat.=56.070454, lon.=26.525700, Alt.=90.235413m. Speed=0.180000m/h.</desc>
<speed>0.050000</speed>
</trkpt>
<trkpt lat="56.070454" lon="26.525700">
<ele>90.161194</ele>
<time>2010-08-29T11:10:56Z</time>
<desc>lat.=56.070454, lon.=26.525700, Alt.=90.161194m. Speed=0.396000m/h.</desc>
<speed>0.110000</speed>
</trkpt>
<trkpt lat="56.070454" lon="26.525698">
<ele>90.077209</ele>
<time>2010-08-29T11:10:57Z</time>
<desc>lat.=56.070454, lon.=26.525698, Alt.=90.077209m. Speed=0.432000m/h.</desc>
<speed>0.120000</speed>
</trkpt>
<trkpt lat="56.070457" lon="26.525698">
<ele>89.991272</ele>
<time>2010-08-29T11:10:58Z</time>
<desc>lat.=56.070457, lon.=26.525698, Alt.=89.991272m. Speed=1.512000m/h.</desc>
<speed>0.420000</speed>
</trkpt>
<trkpt lat="56.070461" lon="26.525696">
<ele>89.846741</ele>
<time>2010-08-29T11:10:59Z</time>
<desc>lat.=56.070461, lon.=26.525696, Alt.=89.846741m. Speed=1.728000m/h.</desc>
<speed>0.480000</speed>
</trkpt>
<trkpt lat="56.070473" lon="26.525696">
<ele>89.889709</ele>
<time>2010-08-29T11:11:00Z</time>
<desc>lat.=56.070473, lon.=26.525696, Alt.=89.889709m. Speed=2.340000m/h.</desc>
<speed>0.650000</speed>
</trkpt>
<trkpt lat="56.070480" lon="26.525696">
<ele>89.829163</ele>
<time>2010-08-29T11:11:01Z</time>
<desc>lat.=56.070480, lon.=26.525696, Alt.=89.829163m. Speed=6.228000m/h.</desc>
<speed>1.730000</speed>
</trkpt>
<trkpt lat="56.070499" lon="26.525688">
<ele>89.690491</ele>
<time>2010-08-29T11:11:02Z</time>
<desc>lat.=56.070499, lon.=26.525688, Alt.=89.690491m. Speed=6.876000m/h.</desc>
<speed>1.910000</speed>
</trkpt>
<trkpt lat="56.070522" lon="26.525667">
<ele>89.432678</ele>
<time>2010-08-29T11:11:03Z</time>
<desc>lat.=56.070522, lon.=26.525667, Alt.=89.432678m. Speed=9.576000m/h.</desc>
<speed>2.660000</speed>
</trkpt>
<trkpt lat="56.070553" lon="26.525648">
<ele>89.497131</ele>
<time>2010-08-29T11:11:04Z</time>
<desc>lat.=56.070553, lon.=26.525648, Alt.=89.497131m. Speed=9.180000m/h.</desc>
<speed>2.550000</speed>
</trkpt>
<trkpt lat="56.070576" lon="26.525637">
<ele>89.170959</ele>
<time>2010-08-29T11:11:05Z</time>
<desc>lat.=56.070576, lon.=26.525637, Alt.=89.170959m. Speed=7.704000m/h.</desc>
<speed>2.140000</speed>
</trkpt>
<trkpt lat="56.070602" lon="26.525631">
<ele>89.153381</ele>
<time>2010-08-29T11:11:06Z</time>
<desc>lat.=56.070602, lon.=26.525631, Alt.=89.153381m. Speed=9.000000m/h.</desc>
<speed>2.500000</speed>
</trkpt>
<trkpt lat="56.070641" lon="26.525627">
<ele>89.694397</ele>
<time>2010-08-29T11:11:07Z</time>
<desc>lat.=56.070641, lon.=26.525627, Alt.=89.694397m. Speed=10.152000m/h.</desc>
<speed>2.820000</speed>
</trkpt>
<trkpt lat="56.070675" lon="26.525620">
<ele>90.049866</ele>
<time>2010-08-29T11:11:08Z</time>
<desc>lat.=56.070675, lon.=26.525620, Alt.=90.049866m. Speed=9.792000m/h.</desc>
<speed>2.720000</speed>
</trkpt>
<trkpt lat="56.070702" lon="26.525610">
<ele>89.909241</ele>
<time>2010-08-29T11:11:09Z</time>
<desc>lat.=56.070702, lon.=26.525610, Alt.=89.909241m. Speed=8.244000m/h.</desc>
<speed>2.290000</speed>
</trkpt>
<trkpt lat="56.070724" lon="26.525610">
<ele>89.809631</ele>
<time>2010-08-29T11:11:10Z</time>
<desc>lat.=56.070724, lon.=26.525610, Alt.=89.809631m. Speed=8.568000m/h.</desc>
<speed>2.380000</speed>
</trkpt>
<trkpt lat="56.070751" lon="26.525604">
<ele>89.475647</ele>
<time>2010-08-29T11:11:11Z</time>
<desc>lat.=56.070751, lon.=26.525604, Alt.=89.475647m. Speed=9.972000m/h.</desc>
<speed>2.770000</speed>
</trkpt>
<trkpt lat="56.070778" lon="26.525579">
<ele>89.059631</ele>
<time>2010-08-29T11:11:12Z</time>
<desc>lat.=56.070778, lon.=26.525579, Alt.=89.059631m. Speed=11.088000m/h.</desc>
<speed>3.080000</speed>
</trkpt>
<trkpt lat="56.070808" lon="26.525562">
<ele>88.665100</ele>
<time>2010-08-29T11:11:13Z</time>
<desc>lat.=56.070808, lon.=26.525562, Alt.=88.665100m. Speed=11.592000m/h.</desc>
<speed>3.220000</speed>
</trkpt>
<trkpt lat="56.070835" lon="26.525539">
<ele>88.860413</ele>
<time>2010-08-29T11:11:14Z</time>
<desc>lat.=56.070835, lon.=26.525539, Alt.=88.860413m. Speed=11.232000m/h.</desc>
<speed>3.120000</speed>
</trkpt>
<trkpt lat="56.070862" lon="26.525513">
<ele>88.651428</ele>
<time>2010-08-29T11:11:15Z</time>
<desc>lat.=56.070862, lon.=26.525513, Alt.=88.651428m. Speed=11.700000m/h.</desc>
<speed>3.250000</speed>
</trkpt>
<trkpt lat="56.070889" lon="26.525494">
<ele>88.243225</ele>
<time>2010-08-29T11:11:16Z</time>
<desc>lat.=56.070889, lon.=26.525494, Alt.=88.243225m. Speed=9.900000m/h.</desc>
<speed>2.750000</speed>
</trkpt>
<trkpt lat="56.070911" lon="26.525478">
<ele>88.545959</ele>
<time>2010-08-29T11:11:17Z</time>
<desc>lat.=56.070911, lon.=26.525478, Alt.=88.545959m. Speed=8.964000m/h.</desc>
<speed>2.490000</speed>
</trkpt>
<trkpt lat="56.070930" lon="26.525455">
<ele>88.719788</ele>
<time>2010-08-29T11:11:18Z</time>
<desc>lat.=56.070930, lon.=26.525455, Alt.=88.719788m. Speed=9.324000m/h.</desc>
<speed>2.590000</speed>
</trkpt>
<trkpt lat="56.070950" lon="26.525427">
<ele>88.575256</ele>
<time>2010-08-29T11:11:19Z</time>
<desc>lat.=56.070950, lon.=26.525427, Alt.=88.575256m. Speed=10.080000m/h.</desc>
<speed>2.800000</speed>
</trkpt>
<trkpt lat="56.070965" lon="26.525389">
<ele>88.430725</ele>
<time>2010-08-29T11:11:20Z</time>
<desc>lat.=56.070965, lon.=26.525389, Alt.=88.430725m. Speed=10.656000m/h.</desc>
<speed>2.960000</speed>
</trkpt>
<trkpt lat="56.070988" lon="26.525351">
<ele>88.131897</ele>
<time>2010-08-29T11:11:21Z</time>
<desc>lat.=56.070988, lon.=26.525351, Alt.=88.131897m. Speed=11.520000m/h.</desc>
<speed>3.200000</speed>
</trkpt>
<trkpt lat="56.071011" lon="26.525328">
<ele>88.085022</ele>
<time>2010-08-29T11:11:22Z</time>
<desc>lat.=56.071011, lon.=26.525328, Alt.=88.085022m. Speed=9.684000m/h.</desc>
<speed>2.690000</speed>
</trkpt>
<trkpt lat="56.071033" lon="26.525295">
<ele>87.674866</ele>
<time>2010-08-29T11:11:23Z</time>
<desc>lat.=56.071033, lon.=26.525295, Alt.=87.674866m. Speed=9.648000m/h.</desc>
<speed>2.680000</speed>
</trkpt>
<trkpt lat="56.071056" lon="26.525269">
<ele>87.071350</ele>
<time>2010-08-29T11:11:24Z</time>
<desc>lat.=56.071056, lon.=26.525269, Alt.=87.071350m. Speed=10.332000m/h.</desc>
<speed>2.870000</speed>
</trkpt>
<trkpt lat="56.071079" lon="26.525246">
<ele>86.788147</ele>
<time>2010-08-29T11:11:25Z</time>
<desc>lat.=56.071079, lon.=26.525246, Alt.=86.788147m. Speed=10.296000m/h.</desc>
<speed>2.860000</speed>
</trkpt>
<trkpt lat="56.071106" lon="26.525225">
<ele>87.022522</ele>
<time>2010-08-29T11:11:26Z</time>
<desc>lat.=56.071106, lon.=26.525225, Alt.=87.022522m. Speed=9.540000m/h.</desc>
<speed>2.650000</speed>
</trkpt>
<trkpt lat="56.071129" lon="26.525206">
<ele>87.143616</ele>
<time>2010-08-29T11:11:27Z</time>
<desc>lat.=56.071129, lon.=26.525206, Alt.=87.143616m. Speed=8.640000m/h.</desc>
<speed>2.400000</speed>
</trkpt>
<trkpt lat="56.071144" lon="26.525198">
<ele>86.881897</ele>
<time>2010-08-29T11:11:28Z</time>
<desc>lat.=56.071144, lon.=26.525198, Alt.=86.881897m. Speed=5.940000m/h.</desc>
<speed>1.650000</speed>
</trkpt>
<trkpt lat="56.071156" lon="26.525185">
<ele>86.702209</ele>
<time>2010-08-29T11:11:29Z</time>
<desc>lat.=56.071156, lon.=26.525185, Alt.=86.702209m. Speed=3.816000m/h.</desc>
<speed>1.060000</speed>
</trkpt>
<trkpt lat="56.071171" lon="26.525179">
<ele>88.038147</ele>
<time>2010-08-29T11:11:30Z</time>
<desc>lat.=56.071171, lon.=26.525179, Alt.=88.038147m. Speed=1.764000m/h.</desc>
<speed>0.490000</speed>
</trkpt>
<trkpt lat="56.071171" lon="26.525177">
<ele>87.868225</ele>
<time>2010-08-29T11:11:31Z</time>
<desc>lat.=56.071171, lon.=26.525177, Alt.=87.868225m. Speed=1.224000m/h.</desc>
<speed>0.340000</speed>
</trkpt>
<trkpt lat="56.071175" lon="26.525175">
<ele>88.211975</ele>
<time>2010-08-29T11:11:32Z</time>
<desc>lat.=56.071175, lon.=26.525175, Alt.=88.211975m. Speed=1.008000m/h.</desc>
<speed>0.280000</speed>
</trkpt>
<trkpt lat="56.071186" lon="26.525166">
<ele>88.342834</ele>
<time>2010-08-29T11:11:33Z</time>
<desc>lat.=56.071186, lon.=26.525166, Alt.=88.342834m. Speed=2.376000m/h.</desc>
<speed>0.660000</speed>
</trkpt>
<trkpt lat="56.071201" lon="26.525164">
<ele>88.629944</ele>
<time>2010-08-29T11:11:34Z</time>
<desc>lat.=56.071201, lon.=26.525164, Alt.=88.629944m. Speed=2.808000m/h.</desc>
<speed>0.780000</speed>
</trkpt>
<trkpt lat="56.071205" lon="26.525154">
<ele>88.786194</ele>
<time>2010-08-29T11:11:35Z</time>
<desc>lat.=56.071205, lon.=26.525154, Alt.=88.786194m. Speed=2.628000m/h.</desc>
<speed>0.730000</speed>
</trkpt>
<trkpt lat="56.071209" lon="26.525143">
<ele>88.579163</ele>
<time>2010-08-29T11:11:36Z</time>
<desc>lat.=56.071209, lon.=26.525143, Alt.=88.579163m. Speed=2.448000m/h.</desc>
<speed>0.680000</speed>
</trkpt>
<trkpt lat="56.071217" lon="26.525139">
<ele>88.432678</ele>
<time>2010-08-29T11:11:37Z</time>
<desc>lat.=56.071217, lon.=26.525139, Alt.=88.432678m. Speed=2.592000m/h.</desc>
<speed>0.720000</speed>
</trkpt>
<trkpt lat="56.071224" lon="26.525133">
<ele>88.256897</ele>
<time>2010-08-29T11:11:38Z</time>
<desc>lat.=56.071224, lon.=26.525133, Alt.=88.256897m. Speed=2.664000m/h.</desc>
<speed>0.740000</speed>
</trkpt>
<trkpt lat="56.071232" lon="26.525129">
<ele>88.057678</ele>
<time>2010-08-29T11:11:39Z</time>
<desc>lat.=56.071232, lon.=26.525129, Alt.=88.057678m. Speed=2.628000m/h.</desc>
<speed>0.730000</speed>
</trkpt>
<trkpt lat="56.071243" lon="26.525133">
<ele>87.907288</ele>
<time>2010-08-29T11:11:40Z</time>
<desc>lat.=56.071243, lon.=26.525133, Alt.=87.907288m. Speed=2.664000m/h.</desc>
<speed>0.740000</speed>
</trkpt>
<trkpt lat="56.071251" lon="26.525133">
<ele>87.848694</ele>
<time>2010-08-29T11:11:41Z</time>
<desc>lat.=56.071251, lon.=26.525133, Alt.=87.848694m. Speed=2.088000m/h.</desc>
<speed>0.580000</speed>
</trkpt>
<trkpt lat="56.071259" lon="26.525137">
<ele>87.557678</ele>
<time>2010-08-29T11:11:42Z</time>
<desc>lat.=56.071259, lon.=26.525137, Alt.=87.557678m. Speed=2.484000m/h.</desc>
<speed>0.690000</speed>
</trkpt>
<trkpt lat="56.071270" lon="26.525127">
<ele>87.073303</ele>
<time>2010-08-29T11:11:43Z</time>
<desc>lat.=56.071270, lon.=26.525127, Alt.=87.073303m. Speed=3.564000m/h.</desc>
<speed>0.990000</speed>
</trkpt>
<trkpt lat="56.071285" lon="26.525116">
<ele>86.741272</ele>
<time>2010-08-29T11:11:44Z</time>
<desc>lat.=56.071285, lon.=26.525116, Alt.=86.741272m. Speed=5.724000m/h.</desc>
<speed>1.590000</speed>
</trkpt>
<trkpt lat="56.071297" lon="26.525108">
<ele>85.920959</ele>
<time>2010-08-29T11:11:45Z</time>
<desc>lat.=56.071297, lon.=26.525108, Alt.=85.920959m. Speed=8.676000m/h.</desc>
<speed>2.410000</speed>
</trkpt>
<trkpt lat="56.071320" lon="26.525095">
<ele>85.385803</ele>
<time>2010-08-29T11:11:46Z</time>
<desc>lat.=56.071320, lon.=26.525095, Alt.=85.385803m. Speed=9.576000m/h.</desc>
<speed>2.660000</speed>
</trkpt>
<trkpt lat="56.071354" lon="26.525085">
<ele>85.133850</ele>
<time>2010-08-29T11:11:47Z</time>
<desc>lat.=56.071354, lon.=26.525085, Alt.=85.133850m. Speed=10.512000m/h.</desc>
<speed>2.920000</speed>
</trkpt>
<trkpt lat="56.071384" lon="26.525068">
<ele>85.336975</ele>
<time>2010-08-29T11:11:48Z</time>
<desc>lat.=56.071384, lon.=26.525068, Alt.=85.336975m. Speed=11.556000m/h.</desc>
<speed>3.210000</speed>
</trkpt>
<trkpt lat="56.071411" lon="26.525047">
<ele>84.942444</ele>
<time>2010-08-29T11:11:49Z</time>
<desc>lat.=56.071411, lon.=26.525047, Alt.=84.942444m. Speed=11.304000m/h.</desc>
<speed>3.140000</speed>
</trkpt>
<trkpt lat="56.071430" lon="26.525026">
<ele>84.377991</ele>
<time>2010-08-29T11:11:50Z</time>
<desc>lat.=56.071430, lon.=26.525026, Alt.=84.377991m. Speed=7.848000m/h.</desc>
<speed>2.180000</speed>
</trkpt>
<trkpt lat="56.071445" lon="26.525005">
<ele>83.981506</ele>
<time>2010-08-29T11:11:51Z</time>
<desc>lat.=56.071445, lon.=26.525005, Alt.=83.981506m. Speed=7.776000m/h.</desc>
<speed>2.160000</speed>
</trkpt>
<trkpt lat="56.071465" lon="26.524977">
<ele>83.454163</ele>
<time>2010-08-29T11:11:52Z</time>
<desc>lat.=56.071465, lon.=26.524977, Alt.=83.454163m. Speed=9.900000m/h.</desc>
<speed>2.750000</speed>
</trkpt>
<trkpt lat="56.071480" lon="26.524937">
<ele>82.858459</ele>
<time>2010-08-29T11:11:53Z</time>
<desc>lat.=56.071480, lon.=26.524937, Alt.=82.858459m. Speed=10.872000m/h.</desc>
<speed>3.020000</speed>
</trkpt>
<trkpt lat="56.071487" lon="26.524887">
<ele>82.506897</ele>
<time>2010-08-29T11:11:54Z</time>
<desc>lat.=56.071487, lon.=26.524887, Alt.=82.506897m. Speed=12.024000m/h.</desc>
<speed>3.340000</speed>
</trkpt>
<trkpt lat="56.071499" lon="26.524832">
<ele>81.965881</ele>
<time>2010-08-29T11:11:55Z</time>
<desc>lat.=56.071499, lon.=26.524832, Alt.=81.965881m. Speed=13.464000m/h.</desc>
<speed>3.740000</speed>
</trkpt>
<trkpt lat="56.071499" lon="26.524767">
<ele>81.379944</ele>
<time>2010-08-29T11:11:56Z</time>
<desc>lat.=56.071499, lon.=26.524767, Alt.=81.379944m. Speed=14.076000m/h.</desc>
<speed>3.910000</speed>
</trkpt>
<trkpt lat="56.071503" lon="26.524700">
<ele>80.989319</ele>
<time>2010-08-29T11:11:57Z</time>
<desc>lat.=56.071503, lon.=26.524700, Alt.=80.989319m. Speed=14.256000m/h.</desc>
<speed>3.960000</speed>
</trkpt>
<trkpt lat="56.071499" lon="26.524635">
<ele>80.579163</ele>
<time>2010-08-29T11:11:58Z</time>
<desc>lat.=56.071499, lon.=26.524635, Alt.=80.579163m. Speed=15.408000m/h.</desc>
<speed>4.280000</speed>
</trkpt>
<trkpt lat="56.071487" lon="26.524569">
<ele>80.169006</ele>
<time>2010-08-29T11:11:59Z</time>
<desc>lat.=56.071487, lon.=26.524569, Alt.=80.169006m. Speed=15.192000m/h.</desc>
<speed>4.220000</speed>
</trkpt>
<trkpt lat="56.071487" lon="26.524504">
<ele>79.745178</ele>
<time>2010-08-29T11:12:00Z</time>
<desc>lat.=56.071487, lon.=26.524504, Alt.=79.745178m. Speed=13.644000m/h.</desc>
<speed>3.790000</speed>
</trkpt>
<trkpt lat="56.071491" lon="26.524441">
<ele>79.215881</ele>
<time>2010-08-29T11:12:01Z</time>
<desc>lat.=56.071491, lon.=26.524441, Alt.=79.215881m. Speed=13.932000m/h.</desc>
<speed>3.870000</speed>
</trkpt>
<trkpt lat="56.071499" lon="26.524376">
<ele>78.854553</ele>
<time>2010-08-29T11:12:02Z</time>
<desc>lat.=56.071499, lon.=26.524376, Alt.=78.854553m. Speed=13.212000m/h.</desc>
<speed>3.670000</speed>
</trkpt>
<trkpt lat="56.071510" lon="26.524313">
<ele>78.504944</ele>
<time>2010-08-29T11:12:03Z</time>
<desc>lat.=56.071510, lon.=26.524313, Alt.=78.504944m. Speed=12.888000m/h.</desc>
<speed>3.580000</speed>
</trkpt>
<trkpt lat="56.071526" lon="26.524254">
<ele>78.088928</ele>
<time>2010-08-29T11:12:04Z</time>
<desc>lat.=56.071526, lon.=26.524254, Alt.=78.088928m. Speed=12.924000m/h.</desc>
<speed>3.590000</speed>
</trkpt>
<trkpt lat="56.071541" lon="26.524200">
<ele>78.213928</ele>
<time>2010-08-29T11:12:05Z</time>
<desc>lat.=56.071541, lon.=26.524200, Alt.=78.213928m. Speed=12.096000m/h.</desc>
<speed>3.360000</speed>
</trkpt>
<trkpt lat="56.071537" lon="26.524153">
<ele>78.368225</ele>
<time>2010-08-29T11:12:06Z</time>
<desc>lat.=56.071537, lon.=26.524153, Alt.=78.368225m. Speed=12.744000m/h.</desc>
<speed>3.540000</speed>
</trkpt>
<trkpt lat="56.071548" lon="26.524111">
<ele>78.799866</ele>
<time>2010-08-29T11:12:07Z</time>
<desc>lat.=56.071548, lon.=26.524111, Alt.=78.799866m. Speed=12.924000m/h.</desc>
<speed>3.590000</speed>
</trkpt>
<trkpt lat="56.071571" lon="26.524065">
<ele>78.723694</ele>
<time>2010-08-29T11:12:08Z</time>
<desc>lat.=56.071571, lon.=26.524065, Alt.=78.723694m. Speed=14.040000m/h.</desc>
<speed>3.900000</speed>
</trkpt>
<trkpt lat="56.071629" lon="26.524021">
<ele>79.483459</ele>
<time>2010-08-29T11:12:09Z</time>
<desc>lat.=56.071629, lon.=26.524021, Alt.=79.483459m. Speed=14.940000m/h.</desc>
<speed>4.150000</speed>
</trkpt>
<trkpt lat="56.071682" lon="26.524002">
<ele>80.456116</ele>
<time>2010-08-29T11:12:10Z</time>
<desc>lat.=56.071682, lon.=26.524002, Alt.=80.456116m. Speed=13.860000m/h.</desc>
<speed>3.850000</speed>
</trkpt>
<trkpt lat="56.071720" lon="26.524000">
<ele>80.528381</ele>
<time>2010-08-29T11:12:11Z</time>
<desc>lat.=56.071720, lon.=26.524000, Alt.=80.528381m. Speed=13.608000m/h.</desc>
<speed>3.780000</speed>
</trkpt>
<trkpt lat="56.071762" lon="26.523998">
<ele>80.665100</ele>
<time>2010-08-29T11:12:12Z</time>
<desc>lat.=56.071762, lon.=26.523998, Alt.=80.665100m. Speed=15.048000m/h.</desc>
<speed>4.180000</speed>
</trkpt>
<trkpt lat="56.071796" lon="26.524010">
<ele>80.801819</ele>
<time>2010-08-29T11:12:13Z</time>
<desc>lat.=56.071796, lon.=26.524010, Alt.=80.801819m. Speed=14.652000m/h.</desc>
<speed>4.070000</speed>
</trkpt>
<trkpt lat="56.071835" lon="26.524023">
<ele>80.891663</ele>
<time>2010-08-29T11:12:14Z</time>
<desc>lat.=56.071835, lon.=26.524023, Alt.=80.891663m. Speed=14.652000m/h.</desc>
<speed>4.070000</speed>
</trkpt>
<trkpt lat="56.071877" lon="26.524036">
<ele>81.549866</ele>
<time>2010-08-29T11:12:15Z</time>
<desc>lat.=56.071877, lon.=26.524036, Alt.=81.549866m. Speed=13.788000m/h.</desc>
<speed>3.830000</speed>
</trkpt>
<trkpt lat="56.071907" lon="26.524050">
<ele>81.510803</ele>
<time>2010-08-29T11:12:16Z</time>
<desc>lat.=56.071907, lon.=26.524050, Alt.=81.510803m. Speed=11.124000m/h.</desc>
<speed>3.090000</speed>
</trkpt>
<trkpt lat="56.071941" lon="26.524061">
<ele>82.176819</ele>
<time>2010-08-29T11:12:17Z</time>
<desc>lat.=56.071941, lon.=26.524061, Alt.=82.176819m. Speed=11.628000m/h.</desc>
<speed>3.230000</speed>
</trkpt>
<trkpt lat="56.071976" lon="26.524073">
<ele>82.409241</ele>
<time>2010-08-29T11:12:18Z</time>
<desc>lat.=56.071976, lon.=26.524073, Alt.=82.409241m. Speed=12.888000m/h.</desc>
<speed>3.580000</speed>
</trkpt>
<trkpt lat="56.072006" lon="26.524084">
<ele>82.264709</ele>
<time>2010-08-29T11:12:19Z</time>
<desc>lat.=56.072006, lon.=26.524084, Alt.=82.264709m. Speed=12.168000m/h.</desc>
<speed>3.380000</speed>
</trkpt>
<trkpt lat="56.072037" lon="26.524090">
<ele>82.227600</ele>
<time>2010-08-29T11:12:20Z</time>
<desc>lat.=56.072037, lon.=26.524090, Alt.=82.227600m. Speed=10.116000m/h.</desc>
<speed>2.810000</speed>
</trkpt>
<trkpt lat="56.072063" lon="26.524103">
<ele>82.704163</ele>
<time>2010-08-29T11:12:21Z</time>
<desc>lat.=56.072063, lon.=26.524103, Alt.=82.704163m. Speed=10.512000m/h.</desc>
<speed>2.920000</speed>
</trkpt>
<trkpt lat="56.072090" lon="26.524082">
<ele>82.258850</ele>
<time>2010-08-29T11:12:22Z</time>
<desc>lat.=56.072090, lon.=26.524082, Alt.=82.258850m. Speed=10.008000m/h.</desc>
<speed>2.780000</speed>
</trkpt>
<trkpt lat="56.072113" lon="26.524054">
<ele>82.292053</ele>
<time>2010-08-29T11:12:23Z</time>
<desc>lat.=56.072113, lon.=26.524054, Alt.=82.292053m. Speed=9.324000m/h.</desc>
<speed>2.590000</speed>
</trkpt>
<trkpt lat="56.072128" lon="26.524023">
<ele>82.245178</ele>
<time>2010-08-29T11:12:24Z</time>
<desc>lat.=56.072128, lon.=26.524023, Alt.=82.245178m. Speed=9.360000m/h.</desc>
<speed>2.600000</speed>
</trkpt>
<trkpt lat="56.072144" lon="26.523993">
<ele>82.452209</ele>
<time>2010-08-29T11:12:25Z</time>
<desc>lat.=56.072144, lon.=26.523993, Alt.=82.452209m. Speed=8.532000m/h.</desc>
<speed>2.370000</speed>
</trkpt>
<trkpt lat="56.072151" lon="26.523958">
<ele>82.335022</ele>
<time>2010-08-29T11:12:26Z</time>
<desc>lat.=56.072151, lon.=26.523958, Alt.=82.335022m. Speed=7.848000m/h.</desc>
<speed>2.180000</speed>
</trkpt>
<trkpt lat="56.072159" lon="26.523928">
<ele>81.967834</ele>
<time>2010-08-29T11:12:27Z</time>
<desc>lat.=56.072159, lon.=26.523928, Alt.=81.967834m. Speed=6.840000m/h.</desc>
<speed>1.900000</speed>
</trkpt>
<trkpt lat="56.072163" lon="26.523899">
<ele>82.403381</ele>
<time>2010-08-29T11:12:28Z</time>
<desc>lat.=56.072163, lon.=26.523899, Alt.=82.403381m. Speed=7.164000m/h.</desc>
<speed>1.990000</speed>
</trkpt>
<trkpt lat="56.072163" lon="26.523869">
<ele>83.184631</ele>
<time>2010-08-29T11:12:29Z</time>
<desc>lat.=56.072163, lon.=26.523869, Alt.=83.184631m. Speed=8.460000m/h.</desc>
<speed>2.350000</speed>
</trkpt>
<trkpt lat="56.072159" lon="26.523838">
<ele>83.766663</ele>
<time>2010-08-29T11:12:30Z</time>
<desc>lat.=56.072159, lon.=26.523838, Alt.=83.766663m. Speed=7.236000m/h.</desc>
<speed>2.010000</speed>
</trkpt>
<trkpt lat="56.072166" lon="26.523809">
<ele>86.803772</ele>
<time>2010-08-29T11:12:31Z</time>
<desc>lat.=56.072166, lon.=26.523809, Alt.=86.803772m. Speed=6.300000m/h.</desc>
<speed>1.750000</speed>
</trkpt>
<trkpt lat="56.072166" lon="26.523781">
<ele>87.008850</ele>
<time>2010-08-29T11:12:32Z</time>
<desc>lat.=56.072166, lon.=26.523781, Alt.=87.008850m. Speed=5.472000m/h.</desc>
<speed>1.520000</speed>
</trkpt>
<trkpt lat="56.072163" lon="26.523752">
<ele>87.172913</ele>
<time>2010-08-29T11:12:33Z</time>
<desc>lat.=56.072163, lon.=26.523752, Alt.=87.172913m. Speed=5.364000m/h.</desc>
<speed>1.490000</speed>
</trkpt>
<trkpt lat="56.072159" lon="26.523726">
<ele>87.784241</ele>
<time>2010-08-29T11:12:34Z</time>
<desc>lat.=56.072159, lon.=26.523726, Alt.=87.784241m. Speed=6.084000m/h.</desc>
<speed>1.690000</speed>
</trkpt>
<trkpt lat="56.072155" lon="26.523695">
<ele>88.002991</ele>
<time>2010-08-29T11:12:35Z</time>
<desc>lat.=56.072155, lon.=26.523695, Alt.=88.002991m. Speed=8.532000m/h.</desc>
<speed>2.370000</speed>
</trkpt>
<trkpt lat="56.072144" lon="26.523661">
<ele>88.252991</ele>
<time>2010-08-29T11:12:36Z</time>
<desc>lat.=56.072144, lon.=26.523661, Alt.=88.252991m. Speed=9.396000m/h.</desc>
<speed>2.610000</speed>
</trkpt>
<trkpt lat="56.072132" lon="26.523624">
<ele>88.485413</ele>
<time>2010-08-29T11:12:37Z</time>
<desc>lat.=56.072132, lon.=26.523624, Alt.=88.485413m. Speed=9.972000m/h.</desc>
<speed>2.770000</speed>
</trkpt>
<trkpt lat="56.072117" lon="26.523586">
<ele>88.583069</ele>
<time>2010-08-29T11:12:38Z</time>
<desc>lat.=56.072117, lon.=26.523586, Alt.=88.583069m. Speed=10.296000m/h.</desc>
<speed>2.860000</speed>
</trkpt>
<trkpt lat="56.072098" lon="26.523546">
<ele>88.872131</ele>
<time>2010-08-29T11:12:39Z</time>
<desc>lat.=56.072098, lon.=26.523546, Alt.=88.872131m. Speed=11.124000m/h.</desc>
<speed>3.090000</speed>
</trkpt>
<trkpt lat="56.072079" lon="26.523508">
<ele>89.301819</ele>
<time>2010-08-29T11:12:40Z</time>
<desc>lat.=56.072079, lon.=26.523508, Alt.=89.301819m. Speed=11.592000m/h.</desc>
<speed>3.220000</speed>
</trkpt>
<trkpt lat="56.072060" lon="26.523468">
<ele>89.422913</ele>
<time>2010-08-29T11:12:41Z</time>
<desc>lat.=56.072060, lon.=26.523468, Alt.=89.422913m. Speed=11.628000m/h.</desc>
<speed>3.230000</speed>
</trkpt>
<trkpt lat="56.072041" lon="26.523428">
<ele>89.561584</ele>
<time>2010-08-29T11:12:42Z</time>
<desc>lat.=56.072041, lon.=26.523428, Alt.=89.561584m. Speed=12.060000m/h.</desc>
<speed>3.350000</speed>
</trkpt>
<trkpt lat="56.072021" lon="26.523384">
<ele>89.715881</ele>
<time>2010-08-29T11:12:43Z</time>
<desc>lat.=56.072021, lon.=26.523384, Alt.=89.715881m. Speed=12.744000m/h.</desc>
<speed>3.540000</speed>
</trkpt>
<trkpt lat="56.072002" lon="26.523338">
<ele>89.821350</ele>
<time>2010-08-29T11:12:44Z</time>
<desc>lat.=56.072002, lon.=26.523338, Alt.=89.821350m. Speed=12.744000m/h.</desc>
<speed>3.540000</speed>
</trkpt>
<trkpt lat="56.071983" lon="26.523291">
<ele>89.932678</ele>
<time>2010-08-29T11:12:45Z</time>
<desc>lat.=56.071983, lon.=26.523291, Alt.=89.932678m. Speed=11.952000m/h.</desc>
<speed>3.320000</speed>
</trkpt>
<trkpt lat="56.071968" lon="26.523243">
<ele>90.061584</ele>
<time>2010-08-29T11:12:46Z</time>
<desc>lat.=56.071968, lon.=26.523243, Alt.=90.061584m. Speed=12.600000m/h.</desc>
<speed>3.500000</speed>
</trkpt>
<trkpt lat="56.071949" lon="26.523186">
<ele>90.844788</ele>
<time>2010-08-29T11:12:47Z</time>
<desc>lat.=56.071949, lon.=26.523186, Alt.=90.844788m. Speed=12.888000m/h.</desc>
<speed>3.580000</speed>
</trkpt>
<trkpt lat="56.071930" lon="26.523140">
<ele>91.026428</ele>
<time>2010-08-29T11:12:48Z</time>
<desc>lat.=56.071930, lon.=26.523140, Alt.=91.026428m. Speed=12.744000m/h.</desc>
<speed>3.540000</speed>
</trkpt>
<trkpt lat="56.071911" lon="26.523092">
<ele>91.051819</ele>
<time>2010-08-29T11:12:49Z</time>
<desc>lat.=56.071911, lon.=26.523092, Alt.=91.051819m. Speed=12.600000m/h.</desc>
<speed>3.500000</speed>
</trkpt>
<trkpt lat="56.071892" lon="26.523050">
<ele>91.333069</ele>
<time>2010-08-29T11:12:50Z</time>
<desc>lat.=56.071892, lon.=26.523050, Alt.=91.333069m. Speed=12.960000m/h.</desc>
<speed>3.600000</speed>
</trkpt>
<trkpt lat="56.071873" lon="26.523001">
<ele>91.846741</ele>
<time>2010-08-29T11:12:51Z</time>
<desc>lat.=56.071873, lon.=26.523001, Alt.=91.846741m. Speed=12.852000m/h.</desc>
<speed>3.570000</speed>
</trkpt>
<trkpt lat="56.071850" lon="26.522949">
<ele>92.264709</ele>
<time>2010-08-29T11:12:52Z</time>
<desc>lat.=56.071850, lon.=26.522949, Alt.=92.264709m. Speed=12.780000m/h.</desc>
<speed>3.550000</speed>
</trkpt>
<trkpt lat="56.071831" lon="26.522907">
<ele>92.483459</ele>
<time>2010-08-29T11:12:53Z</time>
<desc>lat.=56.071831, lon.=26.522907, Alt.=92.483459m. Speed=12.348000m/h.</desc>
<speed>3.430000</speed>
</trkpt>
<trkpt lat="56.071812" lon="26.522861">
<ele>92.747131</ele>
<time>2010-08-29T11:12:54Z</time>
<desc>lat.=56.071812, lon.=26.522861, Alt.=92.747131m. Speed=12.816000m/h.</desc>
<speed>3.560000</speed>
</trkpt>
<trkpt lat="56.071796" lon="26.522812">
<ele>92.821350</ele>
<time>2010-08-29T11:12:55Z</time>
<desc>lat.=56.071796, lon.=26.522812, Alt.=92.821350m. Speed=12.600000m/h.</desc>
<speed>3.500000</speed>
</trkpt>
<trkpt lat="56.071777" lon="26.522768">
<ele>93.042053</ele>
<time>2010-08-29T11:12:56Z</time>
<desc>lat.=56.071777, lon.=26.522768, Alt.=93.042053m. Speed=12.960000m/h.</desc>
<speed>3.600000</speed>
</trkpt>
<trkpt lat="56.071758" lon="26.522718">
<ele>93.221741</ele>
<time>2010-08-29T11:12:57Z</time>
<desc>lat.=56.071758, lon.=26.522718, Alt.=93.221741m. Speed=13.608000m/h.</desc>
<speed>3.780000</speed>
</trkpt>
<trkpt lat="56.071739" lon="26.522673">
<ele>93.325256</ele>
<time>2010-08-29T11:12:58Z</time>
<desc>lat.=56.071739, lon.=26.522673, Alt.=93.325256m. Speed=13.392000m/h.</desc>
<speed>3.720000</speed>
</trkpt>
<trkpt lat="56.071720" lon="26.522625">
<ele>93.483459</ele>
<time>2010-08-29T11:12:59Z</time>
<desc>lat.=56.071720, lon.=26.522625, Alt.=93.483459m. Speed=13.788000m/h.</desc>
<speed>3.830000</speed>
</trkpt>
<trkpt lat="56.071701" lon="26.522573">
<ele>93.672913</ele>
<time>2010-08-29T11:13:00Z</time>
<desc>lat.=56.071701, lon.=26.522573, Alt.=93.672913m. Speed=15.192000m/h.</desc>
<speed>4.220000</speed>
</trkpt>
<trkpt lat="56.071678" lon="26.522516">
<ele>94.272522</ele>
<time>2010-08-29T11:13:01Z</time>
<desc>lat.=56.071678, lon.=26.522516, Alt.=94.272522m. Speed=16.379999m/h.</desc>
<speed>4.550000</speed>
</trkpt>
<trkpt lat="56.071659" lon="26.522457">
<ele>94.551819</ele>
<time>2010-08-29T11:13:02Z</time>
<desc>lat.=56.071659, lon.=26.522457, Alt.=94.551819m. Speed=16.559999m/h.</desc>
<speed>4.600000</speed>
</trkpt>
<trkpt lat="56.071632" lon="26.522400">
<ele>94.665100</ele>
<time>2010-08-29T11:13:03Z</time>
<desc>lat.=56.071632, lon.=26.522400, Alt.=94.665100m. Speed=15.840000m/h.</desc>
<speed>4.400000</speed>
</trkpt>
<trkpt lat="56.071606" lon="26.522343">
<ele>95.026428</ele>
<time>2010-08-29T11:13:04Z</time>
<desc>lat.=56.071606, lon.=26.522343, Alt.=95.026428m. Speed=14.400000m/h.</desc>
<speed>4.000000</speed>
</trkpt>
<trkpt lat="56.071587" lon="26.522287">
<ele>95.504944</ele>
<time>2010-08-29T11:13:05Z</time>
<desc>lat.=56.071587, lon.=26.522287, Alt.=95.504944m. Speed=13.500000m/h.</desc>
<speed>3.750000</speed>
</trkpt>
<trkpt lat="56.071571" lon="26.522242">
<ele>95.856506</ele>
<time>2010-08-29T11:13:06Z</time>
<desc>lat.=56.071571, lon.=26.522242, Alt.=95.856506m. Speed=11.700000m/h.</desc>
<speed>3.250000</speed>
</trkpt>
<trkpt lat="56.071556" lon="26.522200">
<ele>96.536194</ele>
<time>2010-08-29T11:13:07Z</time>
<desc>lat.=56.071556, lon.=26.522200, Alt.=96.536194m. Speed=11.016000m/h.</desc>
<speed>3.060000</speed>
</trkpt>
<trkpt lat="56.071541" lon="26.522154">
<ele>96.963928</ele>
<time>2010-08-29T11:13:08Z</time>
<desc>lat.=56.071541, lon.=26.522154, Alt.=96.963928m. Speed=11.448000m/h.</desc>
<speed>3.180000</speed>
</trkpt>
<trkpt lat="56.071526" lon="26.522112">
<ele>97.264709</ele>
<time>2010-08-29T11:13:09Z</time>
<desc>lat.=56.071526, lon.=26.522112, Alt.=97.264709m. Speed=11.952000m/h.</desc>
<speed>3.320000</speed>
</trkpt>
<trkpt lat="56.071510" lon="26.522064">
<ele>97.637756</ele>
<time>2010-08-29T11:13:10Z</time>
<desc>lat.=56.071510, lon.=26.522064, Alt.=97.637756m. Speed=11.988000m/h.</desc>
<speed>3.330000</speed>
</trkpt>
<trkpt lat="56.071499" lon="26.522020">
<ele>98.004944</ele>
<time>2010-08-29T11:13:11Z</time>
<desc>lat.=56.071499, lon.=26.522020, Alt.=98.004944m. Speed=11.916000m/h.</desc>
<speed>3.310000</speed>
</trkpt>
<trkpt lat="56.071487" lon="26.521982">
<ele>98.366272</ele>
<time>2010-08-29T11:13:12Z</time>
<desc>lat.=56.071487, lon.=26.521982, Alt.=98.366272m. Speed=9.072000m/h.</desc>
<speed>2.520000</speed>
</trkpt>
<trkpt lat="56.071472" lon="26.521948">
<ele>98.794006</ele>
<time>2010-08-29T11:13:13Z</time>
<desc>lat.=56.071472, lon.=26.521948, Alt.=98.794006m. Speed=9.756000m/h.</desc>
<speed>2.710000</speed>
</trkpt>
<trkpt lat="56.071461" lon="26.521914">
<ele>99.411194</ele>
<time>2010-08-29T11:13:14Z</time>
<desc>lat.=56.071461, lon.=26.521914, Alt.=99.411194m. Speed=9.252000m/h.</desc>
<speed>2.570000</speed>
</trkpt>
<trkpt lat="56.071449" lon="26.521883">
<ele>99.784241</ele>
<time>2010-08-29T11:13:15Z</time>
<desc>lat.=56.071449, lon.=26.521883, Alt.=99.784241m. Speed=7.812000m/h.</desc>
<speed>2.170000</speed>
</trkpt>
<trkpt lat="56.071438" lon="26.521860">
<ele>100.639709</ele>
<time>2010-08-29T11:13:16Z</time>
<desc>lat.=56.071438, lon.=26.521860, Alt.=100.639709m. Speed=7.992000m/h.</desc>
<speed>2.220000</speed>
</trkpt>
<trkpt lat="56.071426" lon="26.521832">
<ele>101.612366</ele>
<time>2010-08-29T11:13:17Z</time>
<desc>lat.=56.071426, lon.=26.521832, Alt.=101.612366m. Speed=10.404000m/h.</desc>
<speed>2.890000</speed>
</trkpt>
<trkpt lat="56.071411" lon="26.521791">
<ele>102.020569</ele>
<time>2010-08-29T11:13:18Z</time>
<desc>lat.=56.071411, lon.=26.521791, Alt.=102.020569m. Speed=10.872000m/h.</desc>
<speed>3.020000</speed>
</trkpt>
<trkpt lat="56.071388" lon="26.521746">
<ele>102.862366</ele>
<time>2010-08-29T11:13:19Z</time>
<desc>lat.=56.071388, lon.=26.521746, Alt.=102.862366m. Speed=11.916000m/h.</desc>
<speed>3.310000</speed>
</trkpt>
<trkpt lat="56.071373" lon="26.521704">
<ele>103.659241</ele>
<time>2010-08-29T11:13:20Z</time>
<desc>lat.=56.071373, lon.=26.521704, Alt.=103.659241m. Speed=11.196000m/h.</desc>
<speed>3.110000</speed>
</trkpt>
<trkpt lat="56.071354" lon="26.521660">
<ele>104.381897</ele>
<time>2010-08-29T11:13:21Z</time>
<desc>lat.=56.071354, lon.=26.521660, Alt.=104.381897m. Speed=11.340000m/h.</desc>
<speed>3.150000</speed>
</trkpt>
<trkpt lat="56.071339" lon="26.521612">
<ele>105.161194</ele>
<time>2010-08-29T11:13:22Z</time>
<desc>lat.=56.071339, lon.=26.521612, Alt.=105.161194m. Speed=11.916000m/h.</desc>
<speed>3.310000</speed>
</trkpt>
<trkpt lat="56.071323" lon="26.521564">
<ele>105.522522</ele>
<time>2010-08-29T11:13:23Z</time>
<desc>lat.=56.071323, lon.=26.521564, Alt.=105.522522m. Speed=12.456000m/h.</desc>
<speed>3.460000</speed>
</trkpt>
<trkpt lat="56.071304" lon="26.521519">
<ele>106.262756</ele>
<time>2010-08-29T11:13:24Z</time>
<desc>lat.=56.071304, lon.=26.521519, Alt.=106.262756m. Speed=12.384000m/h.</desc>
<speed>3.440000</speed>
</trkpt>
<trkpt lat="56.071281" lon="26.521475">
<ele>106.354553</ele>
<time>2010-08-29T11:13:25Z</time>
<desc>lat.=56.071281, lon.=26.521475, Alt.=106.354553m. Speed=11.952000m/h.</desc>
<speed>3.320000</speed>
</trkpt>
<trkpt lat="56.071270" lon="26.521433">
<ele>106.877991</ele>
<time>2010-08-29T11:13:26Z</time>
<desc>lat.=56.071270, lon.=26.521433, Alt.=106.877991m. Speed=11.448000m/h.</desc>
<speed>3.180000</speed>
</trkpt>
<trkpt lat="56.071251" lon="26.521385">
<ele>107.379944</ele>
<time>2010-08-29T11:13:27Z</time>
<desc>lat.=56.071251, lon.=26.521385, Alt.=107.379944m. Speed=12.312000m/h.</desc>
<speed>3.420000</speed>
</trkpt>
<trkpt lat="56.071239" lon="26.521336">
<ele>107.733459</ele>
<time>2010-08-29T11:13:28Z</time>
<desc>lat.=56.071239, lon.=26.521336, Alt.=107.733459m. Speed=11.628000m/h.</desc>
<speed>3.230000</speed>
</trkpt>
<trkpt lat="56.071224" lon="26.521288">
<ele>107.922913</ele>
<time>2010-08-29T11:13:29Z</time>
<desc>lat.=56.071224, lon.=26.521288, Alt.=107.922913m. Speed=11.700000m/h.</desc>
<speed>3.250000</speed>
</trkpt>
<trkpt lat="56.071209" lon="26.521244">
<ele>108.362366</ele>
<time>2010-08-29T11:13:30Z</time>
<desc>lat.=56.071209, lon.=26.521244, Alt.=108.362366m. Speed=12.420000m/h.</desc>
<speed>3.450000</speed>
</trkpt>
<trkpt lat="56.071190" lon="26.521194">
<ele>108.534241</ele>
<time>2010-08-29T11:13:31Z</time>
<desc>lat.=56.071190, lon.=26.521194, Alt.=108.534241m. Speed=12.564000m/h.</desc>
<speed>3.490000</speed>
</trkpt>
<trkpt lat="56.071178" lon="26.521149">
<ele>108.715881</ele>
<time>2010-08-29T11:13:32Z</time>
<desc>lat.=56.071178, lon.=26.521149, Alt.=108.715881m. Speed=13.860000m/h.</desc>
<speed>3.850000</speed>
</trkpt>
<trkpt lat="56.071159" lon="26.521095">
<ele>109.313538</ele>
<time>2010-08-29T11:13:33Z</time>
<desc>lat.=56.071159, lon.=26.521095, Alt.=109.313538m. Speed=13.428000m/h.</desc>
<speed>3.730000</speed>
</trkpt>
<trkpt lat="56.071144" lon="26.521042">
<ele>109.821350</ele>
<time>2010-08-29T11:13:34Z</time>
<desc>lat.=56.071144, lon.=26.521042, Alt.=109.821350m. Speed=12.924000m/h.</desc>
<speed>3.590000</speed>
</trkpt>
<trkpt lat="56.071133" lon="26.520992">
<ele>110.221741</ele>
<time>2010-08-29T11:13:35Z</time>
<desc>lat.=56.071133, lon.=26.520992, Alt.=110.221741m. Speed=12.636000m/h.</desc>
<speed>3.510000</speed>
</trkpt>
<trkpt lat="56.071117" lon="26.520945">
<ele>110.735413</ele>
<time>2010-08-29T11:13:36Z</time>
<desc>lat.=56.071117, lon.=26.520945, Alt.=110.735413m. Speed=11.556000m/h.</desc>
<speed>3.210000</speed>
</trkpt>
<trkpt lat="56.071106" lon="26.520901">
<ele>111.012756</ele>
<time>2010-08-29T11:13:37Z</time>
<desc>lat.=56.071106, lon.=26.520901, Alt.=111.012756m. Speed=9.828000m/h.</desc>
<speed>2.730000</speed>
</trkpt>
<trkpt lat="56.071091" lon="26.520855">
<ele>111.618225</ele>
<time>2010-08-29T11:13:38Z</time>
<desc>lat.=56.071091, lon.=26.520855, Alt.=111.618225m. Speed=9.972000m/h.</desc>
<speed>2.770000</speed>
</trkpt>
<trkpt lat="56.071079" lon="26.520821">
<ele>112.249084</ele>
<time>2010-08-29T11:13:39Z</time>
<desc>lat.=56.071079, lon.=26.520821, Alt.=112.249084m. Speed=8.892000m/h.</desc>
<speed>2.470000</speed>
</trkpt>
<trkpt lat="56.071068" lon="26.520782">
<ele>112.840881</ele>
<time>2010-08-29T11:13:40Z</time>
<desc>lat.=56.071068, lon.=26.520782, Alt.=112.840881m. Speed=9.504000m/h.</desc>
<speed>2.640000</speed>
</trkpt>
<trkpt lat="56.071056" lon="26.520752">
<ele>113.569397</ele>
<time>2010-08-29T11:13:41Z</time>
<desc>lat.=56.071056, lon.=26.520752, Alt.=113.569397m. Speed=8.352000m/h.</desc>
<speed>2.320000</speed>
</trkpt>
<trkpt lat="56.071037" lon="26.520725">
<ele>114.092834</ele>
<time>2010-08-29T11:13:42Z</time>
<desc>lat.=56.071037, lon.=26.520725, Alt.=114.092834m. Speed=9.396000m/h.</desc>
<speed>2.610000</speed>
</trkpt>
<trkpt lat="56.071014" lon="26.520691">
<ele>113.813538</ele>
<time>2010-08-29T11:13:43Z</time>
<desc>lat.=56.071014, lon.=26.520691, Alt.=113.813538m. Speed=10.152000m/h.</desc>
<speed>2.820000</speed>
</trkpt>
<trkpt lat="56.070999" lon="26.520655">
<ele>114.493225</ele>
<time>2010-08-29T11:13:44Z</time>
<desc>lat.=56.070999, lon.=26.520655, Alt.=114.493225m. Speed=10.008000m/h.</desc>
<speed>2.780000</speed>
</trkpt>
<trkpt lat="56.070976" lon="26.520607">
<ele>116.047913</ele>
<time>2010-08-29T11:13:45Z</time>
<desc>lat.=56.070976, lon.=26.520607, Alt.=116.047913m. Speed=13.176000m/h.</desc>
<speed>3.660000</speed>
</trkpt>
<trkpt lat="56.070957" lon="26.520559">
<ele>116.620178</ele>
<time>2010-08-29T11:13:46Z</time>
<desc>lat.=56.070957, lon.=26.520559, Alt.=116.620178m. Speed=12.780000m/h.</desc>
<speed>3.550000</speed>
</trkpt>
<trkpt lat="56.070930" lon="26.520512">
<ele>115.424866</ele>
<time>2010-08-29T11:13:47Z</time>
<desc>lat.=56.070930, lon.=26.520512, Alt.=115.424866m. Speed=12.600000m/h.</desc>
<speed>3.500000</speed>
</trkpt>
<trkpt lat="56.070915" lon="26.520462">
<ele>115.674866</ele>
<time>2010-08-29T11:13:48Z</time>
<desc>lat.=56.070915, lon.=26.520462, Alt.=115.674866m. Speed=11.628000m/h.</desc>
<speed>3.230000</speed>
</trkpt>
<trkpt lat="56.070900" lon="26.520418">
<ele>116.669006</ele>
<time>2010-08-29T11:13:49Z</time>
<desc>lat.=56.070900, lon.=26.520418, Alt.=116.669006m. Speed=10.980000m/h.</desc>
<speed>3.050000</speed>
</trkpt>
<trkpt lat="56.070885" lon="26.520370">
<ele>117.165100</ele>
<time>2010-08-29T11:13:50Z</time>
<desc>lat.=56.070885, lon.=26.520370, Alt.=117.165100m. Speed=12.600000m/h.</desc>
<speed>3.500000</speed>
</trkpt>
<trkpt lat="56.070869" lon="26.520325">
<ele>117.516663</ele>
<time>2010-08-29T11:13:51Z</time>
<desc>lat.=56.070869, lon.=26.520325, Alt.=117.516663m. Speed=12.528000m/h.</desc>
<speed>3.480000</speed>
</trkpt>
<trkpt lat="56.070850" lon="26.520275">
<ele>118.059631</ele>
<time>2010-08-29T11:13:52Z</time>
<desc>lat.=56.070850, lon.=26.520275, Alt.=118.059631m. Speed=13.068000m/h.</desc>
<speed>3.630000</speed>
</trkpt>
<trkpt lat="56.070827" lon="26.520229">
<ele>118.465881</ele>
<time>2010-08-29T11:13:53Z</time>
<desc>lat.=56.070827, lon.=26.520229, Alt.=118.465881m. Speed=14.436000m/h.</desc>
<speed>4.010000</speed>
</trkpt>
<trkpt lat="56.070805" lon="26.520170">
<ele>119.303772</ele>
<time>2010-08-29T11:13:54Z</time>
<desc>lat.=56.070805, lon.=26.520170, Alt.=119.303772m. Speed=15.372000m/h.</desc>
<speed>4.270000</speed>
</trkpt>
<trkpt lat="56.070782" lon="26.520109">
<ele>119.985413</ele>
<time>2010-08-29T11:13:55Z</time>
<desc>lat.=56.070782, lon.=26.520109, Alt.=119.985413m. Speed=15.336000m/h.</desc>
<speed>4.260000</speed>
</trkpt>
<trkpt lat="56.070759" lon="26.520048">
<ele>120.764709</ele>
<time>2010-08-29T11:13:56Z</time>
<desc>lat.=56.070759, lon.=26.520048, Alt.=120.764709m. Speed=15.732000m/h.</desc>
<speed>4.370000</speed>
</trkpt>
<trkpt lat="56.070736" lon="26.519987">
<ele>121.653381</ele>
<time>2010-08-29T11:13:57Z</time>
<desc>lat.=56.070736, lon.=26.519987, Alt.=121.653381m. Speed=15.084000m/h.</desc>
<speed>4.190000</speed>
</trkpt>
<trkpt lat="56.070709" lon="26.519934">
<ele>122.206116</ele>
<time>2010-08-29T11:13:58Z</time>
<desc>lat.=56.070709, lon.=26.519934, Alt.=122.206116m. Speed=14.328000m/h.</desc>
<speed>3.980000</speed>
</trkpt>
<trkpt lat="56.070690" lon="26.519875">
<ele>122.616272</ele>
<time>2010-08-29T11:13:59Z</time>
<desc>lat.=56.070690, lon.=26.519875, Alt.=122.616272m. Speed=14.400000m/h.</desc>
<speed>4.000000</speed>
</trkpt>
<trkpt lat="56.070667" lon="26.519817">
<ele>123.208069</ele>
<time>2010-08-29T11:14:00Z</time>
<desc>lat.=56.070667, lon.=26.519817, Alt.=123.208069m. Speed=14.652000m/h.</desc>
<speed>4.070000</speed>
</trkpt>
<trkpt lat="56.070648" lon="26.519760">
<ele>123.651428</ele>
<time>2010-08-29T11:14:01Z</time>
<desc>lat.=56.070648, lon.=26.519760, Alt.=123.651428m. Speed=14.364000m/h.</desc>
<speed>3.990000</speed>
</trkpt>
<trkpt lat="56.070629" lon="26.519712">
<ele>124.042053</ele>
<time>2010-08-29T11:14:02Z</time>
<desc>lat.=56.070629, lon.=26.519712, Alt.=124.042053m. Speed=13.176000m/h.</desc>
<speed>3.660000</speed>
</trkpt>
<trkpt lat="56.070606" lon="26.519665">
<ele>123.909241</ele>
<time>2010-08-29T11:14:03Z</time>
<desc>lat.=56.070606, lon.=26.519665, Alt.=123.909241m. Speed=12.564000m/h.</desc>
<speed>3.490000</speed>
</trkpt>
<trkpt lat="56.070591" lon="26.519617">
<ele>124.454163</ele>
<time>2010-08-29T11:14:04Z</time>
<desc>lat.=56.070591, lon.=26.519617, Alt.=124.454163m. Speed=13.932000m/h.</desc>
<speed>3.870000</speed>
</trkpt>
<trkpt lat="56.070572" lon="26.519564">
<ele>124.852600</ele>
<time>2010-08-29T11:14:05Z</time>
<desc>lat.=56.070572, lon.=26.519564, Alt.=124.852600m. Speed=14.580000m/h.</desc>
<speed>4.050000</speed>
</trkpt>
<trkpt lat="56.070553" lon="26.519512">
<ele>125.465881</ele>
<time>2010-08-29T11:14:06Z</time>
<desc>lat.=56.070553, lon.=26.519512, Alt.=125.465881m. Speed=16.091999m/h.</desc>
<speed>4.470000</speed>
</trkpt>
<trkpt lat="56.070530" lon="26.519463">
<ele>125.881897</ele>
<time>2010-08-29T11:14:07Z</time>
<desc>lat.=56.070530, lon.=26.519463, Alt.=125.881897m. Speed=15.084000m/h.</desc>
<speed>4.190000</speed>
</trkpt>
<trkpt lat="56.070507" lon="26.519402">
<ele>126.393616</ele>
<time>2010-08-29T11:14:08Z</time>
<desc>lat.=56.070507, lon.=26.519402, Alt.=126.393616m. Speed=16.812000m/h.</desc>
<speed>4.670000</speed>
</trkpt>
<trkpt lat="56.070484" lon="26.519333">
<ele>126.842834</ele>
<time>2010-08-29T11:14:09Z</time>
<desc>lat.=56.070484, lon.=26.519333, Alt.=126.842834m. Speed=17.459999m/h.</desc>
<speed>4.850000</speed>
</trkpt>
<trkpt lat="56.070465" lon="26.519260">
<ele>127.754944</ele>
<time>2010-08-29T11:14:10Z</time>
<desc>lat.=56.070465, lon.=26.519260, Alt.=127.754944m. Speed=17.424000m/h.</desc>
<speed>4.840000</speed>
</trkpt>
<trkpt lat="56.070431" lon="26.519188">
<ele>127.940491</ele>
<time>2010-08-29T11:14:11Z</time>
<desc>lat.=56.070431, lon.=26.519188, Alt.=127.940491m. Speed=17.208000m/h.</desc>
<speed>4.780000</speed>
</trkpt>
<trkpt lat="56.070400" lon="26.519115">
<ele>128.045044</ele>
<time>2010-08-29T11:14:12Z</time>
<desc>lat.=56.070400, lon.=26.519115, Alt.=128.045044m. Speed=17.208000m/h.</desc>
<speed>4.780000</speed>
</trkpt>
<trkpt lat="56.070377" lon="26.519049">
<ele>128.513794</ele>
<time>2010-08-29T11:14:13Z</time>
<desc>lat.=56.070377, lon.=26.519049, Alt.=128.513794m. Speed=16.379999m/h.</desc>
<speed>4.550000</speed>
</trkpt>
<trkpt lat="56.070343" lon="26.518986">
<ele>127.600647</ele>
<time>2010-08-29T11:14:14Z</time>
<desc>lat.=56.070343, lon.=26.518986, Alt.=127.600647m. Speed=15.516000m/h.</desc>
<speed>4.310000</speed>
</trkpt>
<trkpt lat="56.070320" lon="26.518930">
<ele>127.993225</ele>
<time>2010-08-29T11:14:15Z</time>
<desc>lat.=56.070320, lon.=26.518930, Alt.=127.993225m. Speed=14.688000m/h.</desc>
<speed>4.080000</speed>
</trkpt>
<trkpt lat="56.070297" lon="26.518875">
<ele>128.158325</ele>
<time>2010-08-29T11:14:16Z</time>
<desc>lat.=56.070297, lon.=26.518875, Alt.=128.158325m. Speed=14.076000m/h.</desc>
<speed>3.910000</speed>
</trkpt>
<trkpt lat="56.070274" lon="26.518805">
<ele>126.958069</ele>
<time>2010-08-29T11:14:17Z</time>
<desc>lat.=56.070274, lon.=26.518805, Alt.=126.958069m. Speed=13.752000m/h.</desc>
<speed>3.820000</speed>
</trkpt>
<trkpt lat="56.070244" lon="26.518745">
<ele>125.288147</ele>
<time>2010-08-29T11:14:18Z</time>
<desc>lat.=56.070244, lon.=26.518745, Alt.=125.288147m. Speed=13.032000m/h.</desc>
<speed>3.620000</speed>
</trkpt>
<trkpt lat="56.070221" lon="26.518700">
<ele>125.612366</ele>
<time>2010-08-29T11:14:19Z</time>
<desc>lat.=56.070221, lon.=26.518700, Alt.=125.612366m. Speed=14.292000m/h.</desc>
<speed>3.970000</speed>
</trkpt>
<trkpt lat="56.070194" lon="26.518646">
<ele>125.428772</ele>
<time>2010-08-29T11:14:20Z</time>
<desc>lat.=56.070194, lon.=26.518646, Alt.=125.428772m. Speed=14.400000m/h.</desc>
<speed>4.000000</speed>
</trkpt>
<trkpt lat="56.070160" lon="26.518581">
<ele>124.836975</ele>
<time>2010-08-29T11:14:21Z</time>
<desc>lat.=56.070160, lon.=26.518581, Alt.=124.836975m. Speed=16.920000m/h.</desc>
<speed>4.700000</speed>
</trkpt>
<trkpt lat="56.070133" lon="26.518522">
<ele>125.397522</ele>
<time>2010-08-29T11:14:22Z</time>
<desc>lat.=56.070133, lon.=26.518522, Alt.=125.397522m. Speed=16.379999m/h.</desc>
<speed>4.550000</speed>
</trkpt>
<trkpt lat="56.070110" lon="26.518465">
<ele>125.819397</ele>
<time>2010-08-29T11:14:23Z</time>
<desc>lat.=56.070110, lon.=26.518465, Alt.=125.819397m. Speed=16.164000m/h.</desc>
<speed>4.490000</speed>
</trkpt>
<trkpt lat="56.070080" lon="26.518394">
<ele>124.864319</ele>
<time>2010-08-29T11:14:24Z</time>
<desc>lat.=56.070080, lon.=26.518394, Alt.=124.864319m. Speed=15.768000m/h.</desc>
<speed>4.380000</speed>
</trkpt>
<trkpt lat="56.070057" lon="26.518335">
<ele>124.766663</ele>
<time>2010-08-29T11:14:25Z</time>
<desc>lat.=56.070057, lon.=26.518335, Alt.=124.766663m. Speed=14.940000m/h.</desc>
<speed>4.150000</speed>
</trkpt>
<trkpt lat="56.070034" lon="26.518282">
<ele>124.684631</ele>
<time>2010-08-29T11:14:26Z</time>
<desc>lat.=56.070034, lon.=26.518282, Alt.=124.684631m. Speed=14.256000m/h.</desc>
<speed>3.960000</speed>
</trkpt>
<trkpt lat="56.070007" lon="26.518227">
<ele>124.799866</ele>
<time>2010-08-29T11:14:27Z</time>
<desc>lat.=56.070007, lon.=26.518227, Alt.=124.799866m. Speed=13.932000m/h.</desc>
<speed>3.870000</speed>
</trkpt>
<trkpt lat="56.069984" lon="26.518173">
<ele>124.135803</ele>
<time>2010-08-29T11:14:28Z</time>
<desc>lat.=56.069984, lon.=26.518173, Alt.=124.135803m. Speed=12.456000m/h.</desc>
<speed>3.460000</speed>
</trkpt>
<trkpt lat="56.069962" lon="26.518129">
<ele>123.590881</ele>
<time>2010-08-29T11:14:29Z</time>
<desc>lat.=56.069962, lon.=26.518129, Alt.=123.590881m. Speed=12.456000m/h.</desc>
<speed>3.460000</speed>
</trkpt>
<trkpt lat="56.069939" lon="26.518082">
<ele>123.116272</ele>
<time>2010-08-29T11:14:30Z</time>
<desc>lat.=56.069939, lon.=26.518082, Alt.=123.116272m. Speed=12.348000m/h.</desc>
<speed>3.430000</speed>
</trkpt>
<trkpt lat="56.069912" lon="26.518032">
<ele>122.008850</ele>
<time>2010-08-29T11:14:31Z</time>
<desc>lat.=56.069912, lon.=26.518032, Alt.=122.008850m. Speed=12.744000m/h.</desc>
<speed>3.540000</speed>
</trkpt>
<trkpt lat="56.069885" lon="26.517973">
<ele>121.491272</ele>
<time>2010-08-29T11:14:32Z</time>
<desc>lat.=56.069885, lon.=26.517973, Alt.=121.491272m. Speed=13.464000m/h.</desc>
<speed>3.740000</speed>
</trkpt>
<trkpt lat="56.069862" lon="26.517914">
<ele>121.131897</ele>
<time>2010-08-29T11:14:33Z</time>
<desc>lat.=56.069862, lon.=26.517914, Alt.=121.131897m. Speed=14.076000m/h.</desc>
<speed>3.910000</speed>
</trkpt>
<trkpt lat="56.069836" lon="26.517862">
<ele>121.229553</ele>
<time>2010-08-29T11:14:34Z</time>
<desc>lat.=56.069836, lon.=26.517862, Alt.=121.229553m. Speed=14.292000m/h.</desc>
<speed>3.970000</speed>
</trkpt>
<trkpt lat="56.069805" lon="26.517815">
<ele>120.891663</ele>
<time>2010-08-29T11:14:35Z</time>
<desc>lat.=56.069805, lon.=26.517815, Alt.=120.891663m. Speed=15.192000m/h.</desc>
<speed>4.220000</speed>
</trkpt>
<trkpt lat="56.069775" lon="26.517765">
<ele>120.157288</ele>
<time>2010-08-29T11:14:36Z</time>
<desc>lat.=56.069775, lon.=26.517765, Alt.=120.157288m. Speed=14.616000m/h.</desc>
<speed>4.060000</speed>
</trkpt>
<trkpt lat="56.069748" lon="26.517715">
<ele>119.295959</ele>
<time>2010-08-29T11:14:37Z</time>
<desc>lat.=56.069748, lon.=26.517715, Alt.=119.295959m. Speed=14.508000m/h.</desc>
<speed>4.030000</speed>
</trkpt>
<trkpt lat="56.069714" lon="26.517666">
<ele>117.729553</ele>
<time>2010-08-29T11:14:38Z</time>
<desc>lat.=56.069714, lon.=26.517666, Alt.=117.729553m. Speed=13.752000m/h.</desc>
<speed>3.820000</speed>
</trkpt>
<trkpt lat="56.069687" lon="26.517620">
<ele>117.034241</ele>
<time>2010-08-29T11:14:39Z</time>
<desc>lat.=56.069687, lon.=26.517620, Alt.=117.034241m. Speed=13.428000m/h.</desc>
<speed>3.730000</speed>
</trkpt>
<trkpt lat="56.069668" lon="26.517570">
<ele>117.006897</ele>
<time>2010-08-29T11:14:40Z</time>
<desc>lat.=56.069668, lon.=26.517570, Alt.=117.006897m. Speed=12.564000m/h.</desc>
<speed>3.490000</speed>
</trkpt>
<trkpt lat="56.069649" lon="26.517529">
<ele>116.713928</ele>
<time>2010-08-29T11:14:41Z</time>
<desc>lat.=56.069649, lon.=26.517529, Alt.=116.713928m. Speed=10.800000m/h.</desc>
<speed>3.000000</speed>
</trkpt>
<trkpt lat="56.069633" lon="26.517494">
<ele>117.114319</ele>
<time>2010-08-29T11:14:42Z</time>
<desc>lat.=56.069633, lon.=26.517494, Alt.=117.114319m. Speed=8.208000m/h.</desc>
<speed>2.280000</speed>
</trkpt>
<trkpt lat="56.069622" lon="26.517471">
<ele>117.827209</ele>
<time>2010-08-29T11:14:43Z</time>
<desc>lat.=56.069622, lon.=26.517471, Alt.=117.827209m. Speed=5.328000m/h.</desc>
<speed>1.480000</speed>
</trkpt>
<trkpt lat="56.069607" lon="26.517456">
<ele>117.647522</ele>
<time>2010-08-29T11:14:44Z</time>
<desc>lat.=56.069607, lon.=26.517456, Alt.=117.647522m. Speed=5.400000m/h.</desc>
<speed>1.500000</speed>
</trkpt>
<trkpt lat="56.069592" lon="26.517441">
<ele>117.692444</ele>
<time>2010-08-29T11:14:45Z</time>
<desc>lat.=56.069592, lon.=26.517441, Alt.=117.692444m. Speed=2.628000m/h.</desc>
<speed>0.730000</speed>
</trkpt>
<trkpt lat="56.069588" lon="26.517435">
<ele>118.151428</ele>
<time>2010-08-29T11:14:46Z</time>
<desc>lat.=56.069588, lon.=26.517435, Alt.=118.151428m. Speed=0.936000m/h.</desc>
<speed>0.260000</speed>
</trkpt>
<trkpt lat="56.069588" lon="26.517433">
<ele>117.799866</ele>
<time>2010-08-29T11:14:47Z</time>
<desc>lat.=56.069588, lon.=26.517433, Alt.=117.799866m. Speed=0.036000m/h.</desc>
<speed>0.010000</speed>
</trkpt>
<trkpt lat="56.069588" lon="26.517429">
<ele>117.049866</ele>
<time>2010-08-29T11:14:48Z</time>
<desc>lat.=56.069588, lon.=26.517429, Alt.=117.049866m. Speed=1.116000m/h.</desc>
<speed>0.310000</speed>
</trkpt>
<trkpt lat="56.069588" lon="26.517427">
<ele>117.321350</ele>
<time>2010-08-29T11:14:49Z</time>
<desc>lat.=56.069588, lon.=26.517427, Alt.=117.321350m. Speed=0.540000m/h.</desc>
<speed>0.150000</speed>
</trkpt>
<trkpt lat="56.069592" lon="26.517426">
<ele>117.586975</ele>
<time>2010-08-29T11:14:50Z</time>
<desc>lat.=56.069592, lon.=26.517426, Alt.=117.586975m. Speed=0.540000m/h.</desc>
<speed>0.150000</speed>
</trkpt>
<trkpt lat="56.069592" lon="26.517426">
<ele>117.637756</ele>
<time>2010-08-29T11:14:51Z</time>
<desc>lat.=56.069592, lon.=26.517426, Alt.=117.637756m. Speed=0.108000m/h.</desc>
<speed>0.030000</speed>
</trkpt>
<trkpt lat="56.069592" lon="26.517426">
<ele>117.762756</ele>
<time>2010-08-29T11:14:52Z</time>
<desc>lat.=56.069592, lon.=26.517426, Alt.=117.762756m. Speed=0.432000m/h.</desc>
<speed>0.120000</speed>
</trkpt>
<trkpt lat="56.069592" lon="26.517424">
<ele>117.835022</ele>
<time>2010-08-29T11:14:53Z</time>
<desc>lat.=56.069592, lon.=26.517424, Alt.=117.835022m. Speed=0.432000m/h.</desc>
<speed>0.120000</speed>
</trkpt>
<trkpt lat="56.069592" lon="26.517426">
<ele>117.854553</ele>
<time>2010-08-29T11:14:54Z</time>
<desc>lat.=56.069592, lon.=26.517426, Alt.=117.854553m. Speed=0.432000m/h.</desc>
<speed>0.120000</speed>
</trkpt>
<trkpt lat="56.069592" lon="26.517427">
<ele>117.879944</ele>
<time>2010-08-29T11:14:55Z</time>
<desc>lat.=56.069592, lon.=26.517427, Alt.=117.879944m. Speed=0.504000m/h.</desc>
<speed>0.140000</speed>
</trkpt>
<trkpt lat="56.069592" lon="26.517427">
<ele>117.889709</ele>
<time>2010-08-29T11:14:56Z</time>
<desc>lat.=56.069592, lon.=26.517427, Alt.=117.889709m. Speed=0.252000m/h.</desc>
<speed>0.070000</speed>
</trkpt>
<trkpt lat="56.069592" lon="26.517427">
<ele>117.932678</ele>
<time>2010-08-29T11:14:57Z</time>
<desc>lat.=56.069592, lon.=26.517427, Alt.=117.932678m. Speed=0.072000m/h.</desc>
<speed>0.020000</speed>
</trkpt>
<trkpt lat="56.069592" lon="26.517427">
<ele>117.961975</ele>
<time>2010-08-29T11:14:58Z</time>
<desc>lat.=56.069592, lon.=26.517427, Alt.=117.961975m. Speed=0.072000m/h.</desc>
<speed>0.020000</speed>
</trkpt>
<trkpt lat="56.069592" lon="26.517427">
<ele>117.969788</ele>
<time>2010-08-29T11:14:59Z</time>
<desc>lat.=56.069592, lon.=26.517427, Alt.=117.969788m. Speed=0.072000m/h.</desc>
<speed>0.020000</speed>
</trkpt>
<trkpt lat="56.069592" lon="26.517427">
<ele>117.971741</ele>
<time>2010-08-29T11:15:00Z</time>
<desc>lat.=56.069592, lon.=26.517427, Alt.=117.971741m. Speed=0.000000m/h.</desc>
<speed>0.000000</speed>
</trkpt>
<trkpt lat="56.069592" lon="26.517427">
<ele>117.950256</ele>
<time>2010-08-29T11:15:01Z</time>
<desc>lat.=56.069592, lon.=26.517427, Alt.=117.950256m. Speed=0.036000m/h.</desc>
<speed>0.010000</speed>
</trkpt>
<trkpt lat="56.069592" lon="26.517427">
<ele>117.960022</ele>
<time>2010-08-29T11:15:02Z</time>
<desc>lat.=56.069592, lon.=26.517427, Alt.=117.960022m. Speed=0.000000m/h.</desc>
<speed>0.000000</speed>
</trkpt>
<trkpt lat="56.069592" lon="26.517427">
<ele>117.958069</ele>
<time>2010-08-29T11:15:03Z</time>
<desc>lat.=56.069592, lon.=26.517427, Alt.=117.958069m. Speed=0.216000m/h.</desc>
<speed>0.060000</speed>
</trkpt>
<trkpt lat="56.069592" lon="26.517427">
<ele>117.895569</ele>
<time>2010-08-29T11:15:04Z</time>
<desc>lat.=56.069592, lon.=26.517427, Alt.=117.895569m. Speed=0.360000m/h.</desc>
<speed>0.100000</speed>
</trkpt>
<trkpt lat="56.069592" lon="26.517427">
<ele>117.915100</ele>
<time>2010-08-29T11:15:05Z</time>
<desc>lat.=56.069592, lon.=26.517427, Alt.=117.915100m. Speed=0.144000m/h.</desc>
<speed>0.040000</speed>
</trkpt>
<trkpt lat="56.069592" lon="26.517426">
<ele>117.917053</ele>
<time>2010-08-29T11:15:06Z</time>
<desc>lat.=56.069592, lon.=26.517426, Alt.=117.917053m. Speed=0.072000m/h.</desc>
<speed>0.020000</speed>
</trkpt>
<trkpt lat="56.069588" lon="26.517426">
<ele>117.975647</ele>
<time>2010-08-29T11:15:07Z</time>
<desc>lat.=56.069588, lon.=26.517426, Alt.=117.975647m. Speed=0.324000m/h.</desc>
<speed>0.090000</speed>
</trkpt>
<trkpt lat="56.069588" lon="26.517426">
<ele>118.061584</ele>
<time>2010-08-29T11:15:08Z</time>
<desc>lat.=56.069588, lon.=26.517426, Alt.=118.061584m. Speed=0.180000m/h.</desc>
<speed>0.050000</speed>
</trkpt>
<trkpt lat="56.069588" lon="26.517426">
<ele>118.137756</ele>
<time>2010-08-29T11:15:09Z</time>
<desc>lat.=56.069588, lon.=26.517426, Alt.=118.137756m. Speed=0.180000m/h.</desc>
<speed>0.050000</speed>
</trkpt>
<trkpt lat="56.069588" lon="26.517426">
<ele>118.211975</ele>
<time>2010-08-29T11:15:10Z</time>
<desc>lat.=56.069588, lon.=26.517426, Alt.=118.211975m. Speed=0.108000m/h.</desc>
<speed>0.030000</speed>
</trkpt>
<trkpt lat="56.069588" lon="26.517426">
<ele>118.274475</ele>
<time>2010-08-29T11:15:11Z</time>
<desc>lat.=56.069588, lon.=26.517426, Alt.=118.274475m. Speed=0.072000m/h.</desc>
<speed>0.020000</speed>
</trkpt>
<trkpt lat="56.069588" lon="26.517426">
<ele>118.329163</ele>
<time>2010-08-29T11:15:12Z</time>
<desc>lat.=56.069588, lon.=26.517426, Alt.=118.329163m. Speed=0.036000m/h.</desc>
<speed>0.010000</speed>
</trkpt>
<trkpt lat="56.069588" lon="26.517426">
<ele>118.376038</ele>
<time>2010-08-29T11:15:13Z</time>
<desc>lat.=56.069588, lon.=26.517426, Alt.=118.376038m. Speed=0.396000m/h.</desc>
<speed>0.110000</speed>
</trkpt>
<trkpt lat="56.069588" lon="26.517426">
<ele>118.422913</ele>
<time>2010-08-29T11:15:14Z</time>
<desc>lat.=56.069588, lon.=26.517426, Alt.=118.422913m. Speed=0.360000m/h.</desc>
<speed>0.100000</speed>
</trkpt>
<trkpt lat="56.069592" lon="26.517426">
<ele>118.463928</ele>
<time>2010-08-29T11:15:15Z</time>
<desc>lat.=56.069592, lon.=26.517426, Alt.=118.463928m. Speed=0.432000m/h.</desc>
<speed>0.120000</speed>
</trkpt>
<trkpt lat="56.069592" lon="26.517426">
<ele>118.506897</ele>
<time>2010-08-29T11:15:16Z</time>
<desc>lat.=56.069592, lon.=26.517426, Alt.=118.506897m. Speed=0.504000m/h.</desc>
<speed>0.140000</speed>
</trkpt>
<trkpt lat="56.069592" lon="26.517426">
<ele>118.551819</ele>
<time>2010-08-29T11:15:17Z</time>
<desc>lat.=56.069592, lon.=26.517426, Alt.=118.551819m. Speed=0.324000m/h.</desc>
<speed>0.090000</speed>
</trkpt>
<trkpt lat="56.069592" lon="26.517426">
<ele>118.598694</ele>
<time>2010-08-29T11:15:18Z</time>
<desc>lat.=56.069592, lon.=26.517426, Alt.=118.598694m. Speed=0.576000m/h.</desc>
<speed>0.160000</speed>
</trkpt>
<trkpt lat="56.069595" lon="26.517427">
<ele>118.649475</ele>
<time>2010-08-29T11:15:19Z</time>
<desc>lat.=56.069595, lon.=26.517427, Alt.=118.649475m. Speed=0.036000m/h.</desc>
<speed>0.010000</speed>
</trkpt>
<trkpt lat="56.069595" lon="26.517427">
<ele>118.686584</ele>
<time>2010-08-29T11:15:20Z</time>
<desc>lat.=56.069595, lon.=26.517427, Alt.=118.686584m. Speed=0.000000m/h.</desc>
<speed>0.000000</speed>
</trkpt>
<trkpt lat="56.069595" lon="26.517427">
<ele>118.715881</ele>
<time>2010-08-29T11:15:21Z</time>
<desc>lat.=56.069595, lon.=26.517427, Alt.=118.715881m. Speed=0.252000m/h.</desc>
<speed>0.070000</speed>
</trkpt>
<trkpt lat="56.069595" lon="26.517426">
<ele>118.737366</ele>
<time>2010-08-29T11:15:22Z</time>
<desc>lat.=56.069595, lon.=26.517426, Alt.=118.737366m. Speed=0.288000m/h.</desc>
<speed>0.080000</speed>
</trkpt>
<trkpt lat="56.069592" lon="26.517426">
<ele>118.754944</ele>
<time>2010-08-29T11:15:23Z</time>
<desc>lat.=56.069592, lon.=26.517426, Alt.=118.754944m. Speed=0.252000m/h.</desc>
<speed>0.070000</speed>
</trkpt>
<trkpt lat="56.069592" lon="26.517424">
<ele>118.770569</ele>
<time>2010-08-29T11:15:24Z</time>
<desc>lat.=56.069592, lon.=26.517424, Alt.=118.770569m. Speed=0.324000m/h.</desc>
<speed>0.090000</speed>
</trkpt>
<trkpt lat="56.069592" lon="26.517422">
<ele>118.780334</ele>
<time>2010-08-29T11:15:25Z</time>
<desc>lat.=56.069592, lon.=26.517422, Alt.=118.780334m. Speed=0.396000m/h.</desc>
<speed>0.110000</speed>
</trkpt>
<trkpt lat="56.069592" lon="26.517420">
<ele>118.794006</ele>
<time>2010-08-29T11:15:26Z</time>
<desc>lat.=56.069592, lon.=26.517420, Alt.=118.794006m. Speed=0.324000m/h.</desc>
<speed>0.090000</speed>
</trkpt>
<trkpt lat="56.069592" lon="26.517418">
<ele>118.803772</ele>
<time>2010-08-29T11:15:27Z</time>
<desc>lat.=56.069592, lon.=26.517418, Alt.=118.803772m. Speed=0.324000m/h.</desc>
<speed>0.090000</speed>
</trkpt>
<trkpt lat="56.069592" lon="26.517416">
<ele>118.813538</ele>
<time>2010-08-29T11:15:28Z</time>
<desc>lat.=56.069592, lon.=26.517416, Alt.=118.813538m. Speed=0.540000m/h.</desc>
<speed>0.150000</speed>
</trkpt>
<trkpt lat="56.069595" lon="26.517416">
<ele>118.823303</ele>
<time>2010-08-29T11:15:29Z</time>
<desc>lat.=56.069595, lon.=26.517416, Alt.=118.823303m. Speed=0.828000m/h.</desc>
<speed>0.230000</speed>
</trkpt>
<trkpt lat="56.069595" lon="26.517414">
<ele>118.831116</ele>
<time>2010-08-29T11:15:30Z</time>
<desc>lat.=56.069595, lon.=26.517414, Alt.=118.831116m. Speed=0.612000m/h.</desc>
<speed>0.170000</speed>
</trkpt>
<trkpt lat="56.069599" lon="26.517414">
<ele>118.838928</ele>
<time>2010-08-29T11:15:31Z</time>
<desc>lat.=56.069599, lon.=26.517414, Alt.=118.838928m. Speed=0.720000m/h.</desc>
<speed>0.200000</speed>
</trkpt>
<trkpt lat="56.069599" lon="26.517414">
<ele>118.850647</ele>
<time>2010-08-29T11:15:32Z</time>
<desc>lat.=56.069599, lon.=26.517414, Alt.=118.850647m. Speed=0.720000m/h.</desc>
<speed>0.200000</speed>
</trkpt>
<trkpt lat="56.069599" lon="26.517416">
<ele>118.862366</ele>
<time>2010-08-29T11:15:33Z</time>
<desc>lat.=56.069599, lon.=26.517416, Alt.=118.862366m. Speed=0.828000m/h.</desc>
<speed>0.230000</speed>
</trkpt>
<trkpt lat="56.069603" lon="26.517416">
<ele>118.872131</ele>
<time>2010-08-29T11:15:34Z</time>
<desc>lat.=56.069603, lon.=26.517416, Alt.=118.872131m. Speed=0.900000m/h.</desc>
<speed>0.250000</speed>
</trkpt>
<trkpt lat="56.069607" lon="26.517416">
<ele>118.883850</ele>
<time>2010-08-29T11:15:35Z</time>
<desc>lat.=56.069607, lon.=26.517416, Alt.=118.883850m. Speed=0.900000m/h.</desc>
<speed>0.250000</speed>
</trkpt>
<trkpt lat="56.069607" lon="26.517414">
<ele>118.899475</ele>
<time>2010-08-29T11:15:36Z</time>
<desc>lat.=56.069607, lon.=26.517414, Alt.=118.899475m. Speed=1.152000m/h.</desc>
<speed>0.320000</speed>
</trkpt>
<trkpt lat="56.069611" lon="26.517412">
<ele>118.913147</ele>
<time>2010-08-29T11:15:37Z</time>
<desc>lat.=56.069611, lon.=26.517412, Alt.=118.913147m. Speed=1.260000m/h.</desc>
<speed>0.350000</speed>
</trkpt>
<trkpt lat="56.069614" lon="26.517410">
<ele>118.926819</ele>
<time>2010-08-29T11:15:38Z</time>
<desc>lat.=56.069614, lon.=26.517410, Alt.=118.926819m. Speed=1.080000m/h.</desc>
<speed>0.300000</speed>
</trkpt>
<trkpt lat="56.069614" lon="26.517408">
<ele>118.942444</ele>
<time>2010-08-29T11:15:39Z</time>
<desc>lat.=56.069614, lon.=26.517408, Alt.=118.942444m. Speed=1.116000m/h.</desc>
<speed>0.310000</speed>
</trkpt>
<trkpt lat="56.069618" lon="26.517406">
<ele>118.958069</ele>
<time>2010-08-29T11:15:40Z</time>
<desc>lat.=56.069618, lon.=26.517406, Alt.=118.958069m. Speed=1.044000m/h.</desc>
<speed>0.290000</speed>
</trkpt>
<trkpt lat="56.069622" lon="26.517406">
<ele>118.977600</ele>
<time>2010-08-29T11:15:41Z</time>
<desc>lat.=56.069622, lon.=26.517406, Alt.=118.977600m. Speed=1.152000m/h.</desc>
<speed>0.320000</speed>
</trkpt>
<trkpt lat="56.069622" lon="26.517405">
<ele>118.999084</ele>
<time>2010-08-29T11:15:42Z</time>
<desc>lat.=56.069622, lon.=26.517405, Alt.=118.999084m. Speed=1.296000m/h.</desc>
<speed>0.360000</speed>
</trkpt>
<trkpt lat="56.069626" lon="26.517405">
<ele>119.024475</ele>
<time>2010-08-29T11:15:43Z</time>
<desc>lat.=56.069626, lon.=26.517405, Alt.=119.024475m. Speed=1.656000m/h.</desc>
<speed>0.460000</speed>
</trkpt>
<trkpt lat="56.069630" lon="26.517399">
<ele>119.055725</ele>
<time>2010-08-29T11:15:44Z</time>
<desc>lat.=56.069630, lon.=26.517399, Alt.=119.055725m. Speed=1.548000m/h.</desc>
<speed>0.430000</speed>
</trkpt>
<trkpt lat="56.069633" lon="26.517397">
<ele>119.090881</ele>
<time>2010-08-29T11:15:45Z</time>
<desc>lat.=56.069633, lon.=26.517397, Alt.=119.090881m. Speed=1.584000m/h.</desc>
<speed>0.440000</speed>
</trkpt>
<trkpt lat="56.069637" lon="26.517391">
<ele>119.127991</ele>
<time>2010-08-29T11:15:46Z</time>
<desc>lat.=56.069637, lon.=26.517391, Alt.=119.127991m. Speed=1.440000m/h.</desc>
<speed>0.400000</speed>
</trkpt>
<trkpt lat="56.069637" lon="26.517389">
<ele>119.167053</ele>
<time>2010-08-29T11:15:47Z</time>
<desc>lat.=56.069637, lon.=26.517389, Alt.=119.167053m. Speed=1.476000m/h.</desc>
<speed>0.410000</speed>
</trkpt>
<trkpt lat="56.069641" lon="26.517387">
<ele>119.210022</ele>
<time>2010-08-29T11:15:48Z</time>
<desc>lat.=56.069641, lon.=26.517387, Alt.=119.210022m. Speed=1.404000m/h.</desc>
<speed>0.390000</speed>
</trkpt>
<trkpt lat="56.069645" lon="26.517385">
<ele>119.254944</ele>
<time>2010-08-29T11:15:49Z</time>
<desc>lat.=56.069645, lon.=26.517385, Alt.=119.254944m. Speed=1.188000m/h.</desc>
<speed>0.330000</speed>
</trkpt>
<trkpt lat="56.069649" lon="26.517385">
<ele>119.299866</ele>
<time>2010-08-29T11:15:50Z</time>
<desc>lat.=56.069649, lon.=26.517385, Alt.=119.299866m. Speed=0.468000m/h.</desc>
<speed>0.130000</speed>
</trkpt>
<trkpt lat="56.069649" lon="26.517385">
<ele>119.350647</ele>
<time>2010-08-29T11:15:51Z</time>
<desc>lat.=56.069649, lon.=26.517385, Alt.=119.350647m. Speed=0.252000m/h.</desc>
<speed>0.070000</speed>
</trkpt>
<trkpt lat="56.069649" lon="26.517387">
<ele>119.391663</ele>
<time>2010-08-29T11:15:52Z</time>
<desc>lat.=56.069649, lon.=26.517387, Alt.=119.391663m. Speed=0.540000m/h.</desc>
<speed>0.150000</speed>
</trkpt>
<trkpt lat="56.069649" lon="26.517389">
<ele>119.426819</ele>
<time>2010-08-29T11:15:53Z</time>
<desc>lat.=56.069649, lon.=26.517389, Alt.=119.426819m. Speed=0.396000m/h.</desc>
<speed>0.110000</speed>
</trkpt>
<trkpt lat="56.069649" lon="26.517391">
<ele>119.454163</ele>
<time>2010-08-29T11:15:54Z</time>
<desc>lat.=56.069649, lon.=26.517391, Alt.=119.454163m. Speed=0.396000m/h.</desc>
<speed>0.110000</speed>
</trkpt>
<trkpt lat="56.069649" lon="26.517393">
<ele>119.475647</ele>
<time>2010-08-29T11:15:55Z</time>
<desc>lat.=56.069649, lon.=26.517393, Alt.=119.475647m. Speed=0.216000m/h.</desc>
<speed>0.060000</speed>
</trkpt>
<trkpt lat="56.069649" lon="26.517393">
<ele>119.493225</ele>
<time>2010-08-29T11:15:56Z</time>
<desc>lat.=56.069649, lon.=26.517393, Alt.=119.493225m. Speed=0.900000m/h.</desc>
<speed>0.250000</speed>
</trkpt>
<trkpt lat="56.069649" lon="26.517397">
<ele>119.512756</ele>
<time>2010-08-29T11:15:57Z</time>
<desc>lat.=56.069649, lon.=26.517397, Alt.=119.512756m. Speed=1.440000m/h.</desc>
<speed>0.400000</speed>
</trkpt>
<trkpt lat="56.069653" lon="26.517403">
<ele>119.528381</ele>
<time>2010-08-29T11:15:58Z</time>
<desc>lat.=56.069653, lon.=26.517403, Alt.=119.528381m. Speed=1.080000m/h.</desc>
<speed>0.300000</speed>
</trkpt>
<trkpt lat="56.069653" lon="26.517406">
<ele>119.549866</ele>
<time>2010-08-29T11:15:59Z</time>
<desc>lat.=56.069653, lon.=26.517406, Alt.=119.549866m. Speed=1.800000m/h.</desc>
<speed>0.500000</speed>
</trkpt>
<trkpt lat="56.069649" lon="26.517399">
<ele>119.581116</ele>
<time>2010-08-29T11:16:00Z</time>
<desc>lat.=56.069649, lon.=26.517399, Alt.=119.581116m. Speed=3.600000m/h.</desc>
<speed>1.000000</speed>
</trkpt>
<trkpt lat="56.069618" lon="26.517382">
<ele>119.641663</ele>
<time>2010-08-29T11:16:01Z</time>
<desc>lat.=56.069618, lon.=26.517382, Alt.=119.641663m. Speed=4.572000m/h.</desc>
<speed>1.270000</speed>
</trkpt>
<trkpt lat="56.069599" lon="26.517366">
<ele>119.700256</ele>
<time>2010-08-29T11:16:02Z</time>
<desc>lat.=56.069599, lon.=26.517366, Alt.=119.700256m. Speed=6.552000m/h.</desc>
<speed>1.820000</speed>
</trkpt>
<trkpt lat="56.069569" lon="26.517372">
<ele>119.454163</ele>
<time>2010-08-29T11:16:03Z</time>
<desc>lat.=56.069569, lon.=26.517372, Alt.=119.454163m. Speed=5.796000m/h.</desc>
<speed>1.610000</speed>
</trkpt>
<trkpt lat="56.069550" lon="26.517365">
<ele>119.377991</ele>
<time>2010-08-29T11:16:04Z</time>
<desc>lat.=56.069550, lon.=26.517365, Alt.=119.377991m. Speed=6.012000m/h.</desc>
<speed>1.670000</speed>
</trkpt>
<trkpt lat="56.069534" lon="26.517340">
<ele>119.370178</ele>
<time>2010-08-29T11:16:05Z</time>
<desc>lat.=56.069534, lon.=26.517340, Alt.=119.370178m. Speed=7.416000m/h.</desc>
<speed>2.060000</speed>
</trkpt>
<trkpt lat="56.069515" lon="26.517303">
<ele>119.461975</ele>
<time>2010-08-29T11:16:06Z</time>
<desc>lat.=56.069515, lon.=26.517303, Alt.=119.461975m. Speed=8.064000m/h.</desc>
<speed>2.240000</speed>
</trkpt>
<trkpt lat="56.069496" lon="26.517277">
<ele>119.581116</ele>
<time>2010-08-29T11:16:07Z</time>
<desc>lat.=56.069496, lon.=26.517277, Alt.=119.581116m. Speed=9.288000m/h.</desc>
<speed>2.580000</speed>
</trkpt>
<trkpt lat="56.069477" lon="26.517241">
<ele>119.778381</ele>
<time>2010-08-29T11:16:08Z</time>
<desc>lat.=56.069477, lon.=26.517241, Alt.=119.778381m. Speed=8.892000m/h.</desc>
<speed>2.470000</speed>
</trkpt>
<trkpt lat="56.069462" lon="26.517210">
<ele>119.907288</ele>
<time>2010-08-29T11:16:09Z</time>
<desc>lat.=56.069462, lon.=26.517210, Alt.=119.907288m. Speed=8.784000m/h.</desc>
<speed>2.440000</speed>
</trkpt>
<trkpt lat="56.069447" lon="26.517185">
<ele>120.108459</ele>
<time>2010-08-29T11:16:10Z</time>
<desc>lat.=56.069447, lon.=26.517185, Alt.=120.108459m. Speed=7.560000m/h.</desc>
<speed>2.100000</speed>
</trkpt>
<trkpt lat="56.069435" lon="26.517151">
<ele>120.331116</ele>
<time>2010-08-29T11:16:11Z</time>
<desc>lat.=56.069435, lon.=26.517151, Alt.=120.331116m. Speed=8.136000m/h.</desc>
<speed>2.260000</speed>
</trkpt>
<trkpt lat="56.069420" lon="26.517115">
<ele>120.403381</ele>
<time>2010-08-29T11:16:12Z</time>
<desc>lat.=56.069420, lon.=26.517115, Alt.=120.403381m. Speed=7.596000m/h.</desc>
<speed>2.110000</speed>
</trkpt>
<trkpt lat="56.069408" lon="26.517088">
<ele>120.586975</ele>
<time>2010-08-29T11:16:13Z</time>
<desc>lat.=56.069408, lon.=26.517088, Alt.=120.586975m. Speed=5.436000m/h.</desc>
<speed>1.510000</speed>
</trkpt>
<trkpt lat="56.069393" lon="26.517069">
<ele>120.780334</ele>
<time>2010-08-29T11:16:14Z</time>
<desc>lat.=56.069393, lon.=26.517069, Alt.=120.780334m. Speed=5.292000m/h.</desc>
<speed>1.470000</speed>
</trkpt>
<trkpt lat="56.069386" lon="26.517050">
<ele>121.045959</ele>
<time>2010-08-29T11:16:15Z</time>
<desc>lat.=56.069386, lon.=26.517050, Alt.=121.045959m. Speed=5.364000m/h.</desc>
<speed>1.490000</speed>
</trkpt>
<trkpt lat="56.069370" lon="26.517021">
<ele>121.323303</ele>
<time>2010-08-29T11:16:16Z</time>
<desc>lat.=56.069370, lon.=26.517021, Alt.=121.323303m. Speed=5.580000m/h.</desc>
<speed>1.550000</speed>
</trkpt>
<trkpt lat="56.069355" lon="26.516996">
<ele>121.635803</ele>
<time>2010-08-29T11:16:17Z</time>
<desc>lat.=56.069355, lon.=26.516996, Alt.=121.635803m. Speed=7.812000m/h.</desc>
<speed>2.170000</speed>
</trkpt>
<trkpt lat="56.069340" lon="26.516964">
<ele>122.002991</ele>
<time>2010-08-29T11:16:18Z</time>
<desc>lat.=56.069340, lon.=26.516964, Alt.=122.002991m. Speed=6.804000m/h.</desc>
<speed>1.890000</speed>
</trkpt>
<trkpt lat="56.069324" lon="26.516932">
<ele>122.419006</ele>
<time>2010-08-29T11:16:19Z</time>
<desc>lat.=56.069324, lon.=26.516932, Alt.=122.419006m. Speed=7.560000m/h.</desc>
<speed>2.100000</speed>
</trkpt>
<trkpt lat="56.069305" lon="26.516901">
<ele>122.690491</ele>
<time>2010-08-29T11:16:20Z</time>
<desc>lat.=56.069305, lon.=26.516901, Alt.=122.690491m. Speed=10.800000m/h.</desc>
<speed>3.000000</speed>
</trkpt>
<trkpt lat="56.069283" lon="26.516872">
<ele>123.001038</ele>
<time>2010-08-29T11:16:21Z</time>
<desc>lat.=56.069283, lon.=26.516872, Alt.=123.001038m. Speed=9.648000m/h.</desc>
<speed>2.680000</speed>
</trkpt>
<trkpt lat="56.069263" lon="26.516842">
<ele>123.229553</ele>
<time>2010-08-29T11:16:22Z</time>
<desc>lat.=56.069263, lon.=26.516842, Alt.=123.229553m. Speed=11.124000m/h.</desc>
<speed>3.090000</speed>
</trkpt>
<trkpt lat="56.069241" lon="26.516808">
<ele>123.577209</ele>
<time>2010-08-29T11:16:23Z</time>
<desc>lat.=56.069241, lon.=26.516808, Alt.=123.577209m. Speed=11.268000m/h.</desc>
<speed>3.130000</speed>
</trkpt>
<trkpt lat="56.069214" lon="26.516766">
<ele>123.965881</ele>
<time>2010-08-29T11:16:24Z</time>
<desc>lat.=56.069214, lon.=26.516766, Alt.=123.965881m. Speed=11.880000m/h.</desc>
<speed>3.300000</speed>
</trkpt>
<trkpt lat="56.069187" lon="26.516731">
<ele>124.344788</ele>
<time>2010-08-29T11:16:25Z</time>
<desc>lat.=56.069187, lon.=26.516731, Alt.=124.344788m. Speed=12.672000m/h.</desc>
<speed>3.520000</speed>
</trkpt>
<trkpt lat="56.069164" lon="26.516701">
<ele>124.944397</ele>
<time>2010-08-29T11:16:26Z</time>
<desc>lat.=56.069164, lon.=26.516701, Alt.=124.944397m. Speed=12.312000m/h.</desc>
<speed>3.420000</speed>
</trkpt>
<trkpt lat="56.069130" lon="26.516659">
<ele>125.881897</ele>
<time>2010-08-29T11:16:27Z</time>
<desc>lat.=56.069130, lon.=26.516659, Alt.=125.881897m. Speed=13.068000m/h.</desc>
<speed>3.630000</speed>
</trkpt>
<trkpt lat="56.069103" lon="26.516617">
<ele>126.745178</ele>
<time>2010-08-29T11:16:28Z</time>
<desc>lat.=56.069103, lon.=26.516617, Alt.=126.745178m. Speed=13.356000m/h.</desc>
<speed>3.710000</speed>
</trkpt>
<trkpt lat="56.069077" lon="26.516575">
<ele>127.563538</ele>
<time>2010-08-29T11:16:29Z</time>
<desc>lat.=56.069077, lon.=26.516575, Alt.=127.563538m. Speed=12.636000m/h.</desc>
<speed>3.510000</speed>
</trkpt>
<trkpt lat="56.069050" lon="26.516527">
<ele>127.848694</ele>
<time>2010-08-29T11:16:30Z</time>
<desc>lat.=56.069050, lon.=26.516527, Alt.=127.848694m. Speed=13.104000m/h.</desc>
<speed>3.640000</speed>
</trkpt>
<trkpt lat="56.069019" lon="26.516485">
<ele>128.662231</ele>
<time>2010-08-29T11:16:31Z</time>
<desc>lat.=56.069019, lon.=26.516485, Alt.=128.662231m. Speed=13.464000m/h.</desc>
<speed>3.740000</speed>
</trkpt>
<trkpt lat="56.068993" lon="26.516441">
<ele>129.173950</ele>
<time>2010-08-29T11:16:32Z</time>
<desc>lat.=56.068993, lon.=26.516441, Alt.=129.173950m. Speed=13.824000m/h.</desc>
<speed>3.840000</speed>
</trkpt>
<trkpt lat="56.068954" lon="26.516390">
<ele>129.455200</ele>
<time>2010-08-29T11:16:33Z</time>
<desc>lat.=56.068954, lon.=26.516390, Alt.=129.455200m. Speed=14.328000m/h.</desc>
<speed>3.980000</speed>
</trkpt>
<trkpt lat="56.068924" lon="26.516354">
<ele>130.197388</ele>
<time>2010-08-29T11:16:34Z</time>
<desc>lat.=56.068924, lon.=26.516354, Alt.=130.197388m. Speed=13.032000m/h.</desc>
<speed>3.620000</speed>
</trkpt>
<trkpt lat="56.068897" lon="26.516321">
<ele>130.658325</ele>
<time>2010-08-29T11:16:35Z</time>
<desc>lat.=56.068897, lon.=26.516321, Alt.=130.658325m. Speed=13.428000m/h.</desc>
<speed>3.730000</speed>
</trkpt>
<trkpt lat="56.068867" lon="26.516285">
<ele>131.314575</ele>
<time>2010-08-29T11:16:36Z</time>
<desc>lat.=56.068867, lon.=26.516285, Alt.=131.314575m. Speed=13.356000m/h.</desc>
<speed>3.710000</speed>
</trkpt>
<trkpt lat="56.068840" lon="26.516245">
<ele>131.873169</ele>
<time>2010-08-29T11:16:37Z</time>
<desc>lat.=56.068840, lon.=26.516245, Alt.=131.873169m. Speed=13.932000m/h.</desc>
<speed>3.870000</speed>
</trkpt>
<trkpt lat="56.068806" lon="26.516220">
<ele>132.650513</ele>
<time>2010-08-29T11:16:38Z</time>
<desc>lat.=56.068806, lon.=26.516220, Alt.=132.650513m. Speed=12.780000m/h.</desc>
<speed>3.550000</speed>
</trkpt>
<trkpt lat="56.068779" lon="26.516191">
<ele>133.455200</ele>
<time>2010-08-29T11:16:39Z</time>
<desc>lat.=56.068779, lon.=26.516191, Alt.=133.455200m. Speed=10.152000m/h.</desc>
<speed>2.820000</speed>
</trkpt>
<trkpt lat="56.068745" lon="26.516163">
<ele>133.795044</ele>
<time>2010-08-29T11:16:40Z</time>
<desc>lat.=56.068745, lon.=26.516163, Alt.=133.795044m. Speed=12.132000m/h.</desc>
<speed>3.370000</speed>
</trkpt>
<trkpt lat="56.068707" lon="26.516119">
<ele>133.900513</ele>
<time>2010-08-29T11:16:41Z</time>
<desc>lat.=56.068707, lon.=26.516119, Alt.=133.900513m. Speed=13.680000m/h.</desc>
<speed>3.800000</speed>
</trkpt>
<trkpt lat="56.068668" lon="26.516083">
<ele>134.830200</ele>
<time>2010-08-29T11:16:42Z</time>
<desc>lat.=56.068668, lon.=26.516083, Alt.=134.830200m. Speed=15.084000m/h.</desc>
<speed>4.190000</speed>
</trkpt>
<trkpt lat="56.068634" lon="26.516043">
<ele>135.736450</ele>
<time>2010-08-29T11:16:43Z</time>
<desc>lat.=56.068634, lon.=26.516043, Alt.=135.736450m. Speed=12.708000m/h.</desc>
<speed>3.530000</speed>
</trkpt>
<trkpt lat="56.068607" lon="26.516012">
<ele>136.400513</ele>
<time>2010-08-29T11:16:44Z</time>
<desc>lat.=56.068607, lon.=26.516012, Alt.=136.400513m. Speed=12.600000m/h.</desc>
<speed>3.500000</speed>
</trkpt>
<trkpt lat="56.068577" lon="26.515982">
<ele>137.045044</ele>
<time>2010-08-29T11:16:45Z</time>
<desc>lat.=56.068577, lon.=26.515982, Alt.=137.045044m. Speed=13.104000m/h.</desc>
<speed>3.640000</speed>
</trkpt>
<trkpt lat="56.068546" lon="26.515945">
<ele>137.791138</ele>
<time>2010-08-29T11:16:46Z</time>
<desc>lat.=56.068546, lon.=26.515945, Alt.=137.791138m. Speed=15.012000m/h.</desc>
<speed>4.170000</speed>
</trkpt>
<trkpt lat="56.068504" lon="26.515905">
<ele>138.095825</ele>
<time>2010-08-29T11:16:47Z</time>
<desc>lat.=56.068504, lon.=26.515905, Alt.=138.095825m. Speed=17.964001m/h.</desc>
<speed>4.990000</speed>
</trkpt>
<trkpt lat="56.068455" lon="26.515860">
<ele>138.963013</ele>
<time>2010-08-29T11:16:48Z</time>
<desc>lat.=56.068455, lon.=26.515860, Alt.=138.963013m. Speed=18.540001m/h.</desc>
<speed>5.150000</speed>
</trkpt>
<trkpt lat="56.068405" lon="26.515806">
<ele>138.193481</ele>
<time>2010-08-29T11:16:49Z</time>
<desc>lat.=56.068405, lon.=26.515806, Alt.=138.193481m. Speed=20.628000m/h.</desc>
<speed>5.730000</speed>
</trkpt>
<trkpt lat="56.068356" lon="26.515738">
<ele>136.615356</ele>
<time>2010-08-29T11:16:50Z</time>
<desc>lat.=56.068356, lon.=26.515738, Alt.=136.615356m. Speed=22.139999m/h.</desc>
<speed>6.150000</speed>
</trkpt>
<trkpt lat="56.068314" lon="26.515680">
<ele>136.439575</ele>
<time>2010-08-29T11:16:51Z</time>
<desc>lat.=56.068314, lon.=26.515680, Alt.=136.439575m. Speed=20.340000m/h.</desc>
<speed>5.650000</speed>
</trkpt>
<trkpt lat="56.068264" lon="26.515631">
<ele>135.646606</ele>
<time>2010-08-29T11:16:52Z</time>
<desc>lat.=56.068264, lon.=26.515631, Alt.=135.646606m. Speed=19.620001m/h.</desc>
<speed>5.450000</speed>
</trkpt>
<trkpt lat="56.068222" lon="26.515591">
<ele>136.412231</ele>
<time>2010-08-29T11:16:53Z</time>
<desc>lat.=56.068222, lon.=26.515591, Alt.=136.412231m. Speed=17.820000m/h.</desc>
<speed>4.950000</speed>
</trkpt>
<trkpt lat="56.068184" lon="26.515553">
<ele>136.490356</ele>
<time>2010-08-29T11:16:54Z</time>
<desc>lat.=56.068184, lon.=26.515553, Alt.=136.490356m. Speed=16.812000m/h.</desc>
<speed>4.670000</speed>
</trkpt>
<trkpt lat="56.068150" lon="26.515507">
<ele>137.107544</ele>
<time>2010-08-29T11:16:55Z</time>
<desc>lat.=56.068150, lon.=26.515507, Alt.=137.107544m. Speed=14.760000m/h.</desc>
<speed>4.100000</speed>
</trkpt>
<trkpt lat="56.068115" lon="26.515467">
<ele>137.455200</ele>
<time>2010-08-29T11:16:56Z</time>
<desc>lat.=56.068115, lon.=26.515467, Alt.=137.455200m. Speed=13.464000m/h.</desc>
<speed>3.740000</speed>
</trkpt>
<trkpt lat="56.068081" lon="26.515421">
<ele>137.763794</ele>
<time>2010-08-29T11:16:57Z</time>
<desc>lat.=56.068081, lon.=26.515421, Alt.=137.763794m. Speed=14.184000m/h.</desc>
<speed>3.940000</speed>
</trkpt>
<trkpt lat="56.068047" lon="26.515377">
<ele>138.255981</ele>
<time>2010-08-29T11:16:58Z</time>
<desc>lat.=56.068047, lon.=26.515377, Alt.=138.255981m. Speed=15.192000m/h.</desc>
<speed>4.220000</speed>
</trkpt>
<trkpt lat="56.068016" lon="26.515335">
<ele>138.943481</ele>
<time>2010-08-29T11:16:59Z</time>
<desc>lat.=56.068016, lon.=26.515335, Alt.=138.943481m. Speed=15.516000m/h.</desc>
<speed>4.310000</speed>
</trkpt>
<trkpt lat="56.067982" lon="26.515287">
<ele>139.365356</ele>
<time>2010-08-29T11:17:00Z</time>
<desc>lat.=56.067982, lon.=26.515287, Alt.=139.365356m. Speed=14.508000m/h.</desc>
<speed>4.030000</speed>
</trkpt>
<trkpt lat="56.067951" lon="26.515249">
<ele>139.970825</ele>
<time>2010-08-29T11:17:01Z</time>
<desc>lat.=56.067951, lon.=26.515249, Alt.=139.970825m. Speed=15.048000m/h.</desc>
<speed>4.180000</speed>
</trkpt>
<trkpt lat="56.067921" lon="26.515203">
<ele>140.463013</ele>
<time>2010-08-29T11:17:02Z</time>
<desc>lat.=56.067921, lon.=26.515203, Alt.=140.463013m. Speed=13.896000m/h.</desc>
<speed>3.860000</speed>
</trkpt>
<trkpt lat="56.067894" lon="26.515158">
<ele>140.998169</ele>
<time>2010-08-29T11:17:03Z</time>
<desc>lat.=56.067894, lon.=26.515158, Alt.=140.998169m. Speed=14.544000m/h.</desc>
<speed>4.040000</speed>
</trkpt>
<trkpt lat="56.067863" lon="26.515114">
<ele>141.478638</ele>
<time>2010-08-29T11:17:04Z</time>
<desc>lat.=56.067863, lon.=26.515114, Alt.=141.478638m. Speed=14.472000m/h.</desc>
<speed>4.020000</speed>
</trkpt>
<trkpt lat="56.067825" lon="26.515066">
<ele>142.119263</ele>
<time>2010-08-29T11:17:05Z</time>
<desc>lat.=56.067825, lon.=26.515066, Alt.=142.119263m. Speed=16.344000m/h.</desc>
<speed>4.540000</speed>
</trkpt>
<trkpt lat="56.067787" lon="26.515024">
<ele>142.775513</ele>
<time>2010-08-29T11:17:06Z</time>
<desc>lat.=56.067787, lon.=26.515024, Alt.=142.775513m. Speed=16.379999m/h.</desc>
<speed>4.550000</speed>
</trkpt>
<trkpt lat="56.067753" lon="26.514977">
<ele>141.947388</ele>
<time>2010-08-29T11:17:07Z</time>
<desc>lat.=56.067753, lon.=26.514977, Alt.=141.947388m. Speed=15.876000m/h.</desc>
<speed>4.410000</speed>
</trkpt>
<trkpt lat="56.067719" lon="26.514925">
<ele>141.943481</ele>
<time>2010-08-29T11:17:08Z</time>
<desc>lat.=56.067719, lon.=26.514925, Alt.=141.943481m. Speed=15.480000m/h.</desc>
<speed>4.300000</speed>
</trkpt>
<trkpt lat="56.067684" lon="26.514879">
<ele>142.060669</ele>
<time>2010-08-29T11:17:09Z</time>
<desc>lat.=56.067684, lon.=26.514879, Alt.=142.060669m. Speed=15.156000m/h.</desc>
<speed>4.210000</speed>
</trkpt>
<trkpt lat="56.067650" lon="26.514835">
<ele>142.033325</ele>
<time>2010-08-29T11:17:10Z</time>
<desc>lat.=56.067650, lon.=26.514835, Alt.=142.033325m. Speed=15.624000m/h.</desc>
<speed>4.340000</speed>
</trkpt>
<trkpt lat="56.067608" lon="26.514784">
<ele>141.814575</ele>
<time>2010-08-29T11:17:11Z</time>
<desc>lat.=56.067608, lon.=26.514784, Alt.=141.814575m. Speed=15.264000m/h.</desc>
<speed>4.240000</speed>
</trkpt>
<trkpt lat="56.067566" lon="26.514740">
<ele>141.673950</ele>
<time>2010-08-29T11:17:12Z</time>
<desc>lat.=56.067566, lon.=26.514740, Alt.=141.673950m. Speed=15.984000m/h.</desc>
<speed>4.440000</speed>
</trkpt>
<trkpt lat="56.067535" lon="26.514708">
<ele>141.576294</ele>
<time>2010-08-29T11:17:13Z</time>
<desc>lat.=56.067535, lon.=26.514708, Alt.=141.576294m. Speed=13.284000m/h.</desc>
<speed>3.690000</speed>
</trkpt>
<trkpt lat="56.067505" lon="26.514664">
<ele>141.720825</ele>
<time>2010-08-29T11:17:14Z</time>
<desc>lat.=56.067505, lon.=26.514664, Alt.=141.720825m. Speed=15.336000m/h.</desc>
<speed>4.260000</speed>
</trkpt>
<trkpt lat="56.067467" lon="26.514614">
<ele>141.318481</ele>
<time>2010-08-29T11:17:15Z</time>
<desc>lat.=56.067467, lon.=26.514614, Alt.=141.318481m. Speed=14.796000m/h.</desc>
<speed>4.110000</speed>
</trkpt>
<trkpt lat="56.067429" lon="26.514574">
<ele>140.892700</ele>
<time>2010-08-29T11:17:16Z</time>
<desc>lat.=56.067429, lon.=26.514574, Alt.=140.892700m. Speed=18.143999m/h.</desc>
<speed>5.040000</speed>
</trkpt>
<trkpt lat="56.067390" lon="26.514530">
<ele>140.732544</ele>
<time>2010-08-29T11:17:17Z</time>
<desc>lat.=56.067390, lon.=26.514530, Alt.=140.732544m. Speed=17.208000m/h.</desc>
<speed>4.780000</speed>
</trkpt>
<trkpt lat="56.067345" lon="26.514486">
<ele>140.634888</ele>
<time>2010-08-29T11:17:18Z</time>
<desc>lat.=56.067345, lon.=26.514486, Alt.=140.634888m. Speed=18.756001m/h.</desc>
<speed>5.210000</speed>
</trkpt>
<trkpt lat="56.067303" lon="26.514444">
<ele>140.556763</ele>
<time>2010-08-29T11:17:19Z</time>
<desc>lat.=56.067303, lon.=26.514444, Alt.=140.556763m. Speed=16.920000m/h.</desc>
<speed>4.700000</speed>
</trkpt>
<trkpt lat="56.067265" lon="26.514402">
<ele>140.537231</ele>
<time>2010-08-29T11:17:20Z</time>
<desc>lat.=56.067265, lon.=26.514402, Alt.=140.537231m. Speed=17.208000m/h.</desc>
<speed>4.780000</speed>
</trkpt>
<trkpt lat="56.067226" lon="26.514360">
<ele>140.607544</ele>
<time>2010-08-29T11:17:21Z</time>
<desc>lat.=56.067226, lon.=26.514360, Alt.=140.607544m. Speed=17.712000m/h.</desc>
<speed>4.920000</speed>
</trkpt>
<trkpt lat="56.067184" lon="26.514318">
<ele>140.880981</ele>
<time>2010-08-29T11:17:22Z</time>
<desc>lat.=56.067184, lon.=26.514318, Alt.=140.880981m. Speed=17.604000m/h.</desc>
<speed>4.890000</speed>
</trkpt>
<trkpt lat="56.067135" lon="26.514273">
<ele>141.064575</ele>
<time>2010-08-29T11:17:23Z</time>
<desc>lat.=56.067135, lon.=26.514273, Alt.=141.064575m. Speed=18.684000m/h.</desc>
<speed>5.190000</speed>
</trkpt>
<trkpt lat="56.067089" lon="26.514242">
<ele>140.740356</ele>
<time>2010-08-29T11:17:24Z</time>
<desc>lat.=56.067089, lon.=26.514242, Alt.=140.740356m. Speed=16.488001m/h.</desc>
<speed>4.580000</speed>
</trkpt>
<trkpt lat="56.067043" lon="26.514206">
<ele>140.744263</ele>
<time>2010-08-29T11:17:25Z</time>
<desc>lat.=56.067043, lon.=26.514206, Alt.=140.744263m. Speed=17.496000m/h.</desc>
<speed>4.860000</speed>
</trkpt>
<trkpt lat="56.067001" lon="26.514174">
<ele>140.728638</ele>
<time>2010-08-29T11:17:26Z</time>
<desc>lat.=56.067001, lon.=26.514174, Alt.=140.728638m. Speed=17.351999m/h.</desc>
<speed>4.820000</speed>
</trkpt>
<trkpt lat="56.066956" lon="26.514139">
<ele>140.201294</ele>
<time>2010-08-29T11:17:27Z</time>
<desc>lat.=56.066956, lon.=26.514139, Alt.=140.201294m. Speed=16.559999m/h.</desc>
<speed>4.600000</speed>
</trkpt>
<trkpt lat="56.066921" lon="26.514099">
<ele>140.357544</ele>
<time>2010-08-29T11:17:28Z</time>
<desc>lat.=56.066921, lon.=26.514099, Alt.=140.357544m. Speed=16.271999m/h.</desc>
<speed>4.520000</speed>
</trkpt>
<trkpt lat="56.066887" lon="26.514061">
<ele>140.552856</ele>
<time>2010-08-29T11:17:29Z</time>
<desc>lat.=56.066887, lon.=26.514061, Alt.=140.552856m. Speed=15.264000m/h.</desc>
<speed>4.240000</speed>
</trkpt>
<trkpt lat="56.066845" lon="26.514021">
<ele>140.634888</ele>
<time>2010-08-29T11:17:30Z</time>
<desc>lat.=56.066845, lon.=26.514021, Alt.=140.634888m. Speed=17.496000m/h.</desc>
<speed>4.860000</speed>
</trkpt>
<trkpt lat="56.066799" lon="26.513983">
<ele>140.564575</ele>
<time>2010-08-29T11:17:31Z</time>
<desc>lat.=56.066799, lon.=26.513983, Alt.=140.564575m. Speed=17.639999m/h.</desc>
<speed>4.900000</speed>
</trkpt>
<trkpt lat="56.066753" lon="26.513939">
<ele>140.681763</ele>
<time>2010-08-29T11:17:32Z</time>
<desc>lat.=56.066753, lon.=26.513939, Alt.=140.681763m. Speed=19.188000m/h.</desc>
<speed>5.330000</speed>
</trkpt>
<trkpt lat="56.066700" lon="26.513897">
<ele>140.775513</ele>
<time>2010-08-29T11:17:33Z</time>
<desc>lat.=56.066700, lon.=26.513897, Alt.=140.775513m. Speed=20.664000m/h.</desc>
<speed>5.740000</speed>
</trkpt>
<trkpt lat="56.066658" lon="26.513847">
<ele>141.029419</ele>
<time>2010-08-29T11:17:34Z</time>
<desc>lat.=56.066658, lon.=26.513847, Alt.=141.029419m. Speed=20.664000m/h.</desc>
<speed>5.740000</speed>
</trkpt>
<trkpt lat="56.066608" lon="26.513798">
<ele>141.213013</ele>
<time>2010-08-29T11:17:35Z</time>
<desc>lat.=56.066608, lon.=26.513798, Alt.=141.213013m. Speed=18.972000m/h.</desc>
<speed>5.270000</speed>
</trkpt>
<trkpt lat="56.066563" lon="26.513760">
<ele>140.838013</ele>
<time>2010-08-29T11:17:36Z</time>
<desc>lat.=56.066563, lon.=26.513760, Alt.=140.838013m. Speed=19.908001m/h.</desc>
<speed>5.530000</speed>
</trkpt>
<trkpt lat="56.066521" lon="26.513710">
<ele>141.013794</ele>
<time>2010-08-29T11:17:37Z</time>
<desc>lat.=56.066521, lon.=26.513710, Alt.=141.013794m. Speed=19.080000m/h.</desc>
<speed>5.300000</speed>
</trkpt>
<trkpt lat="56.066475" lon="26.513662">
<ele>141.045044</ele>
<time>2010-08-29T11:17:38Z</time>
<desc>lat.=56.066475, lon.=26.513662, Alt.=141.045044m. Speed=18.648001m/h.</desc>
<speed>5.180000</speed>
</trkpt>
<trkpt lat="56.066418" lon="26.513626">
<ele>140.502075</ele>
<time>2010-08-29T11:17:39Z</time>
<desc>lat.=56.066418, lon.=26.513626, Alt.=140.502075m. Speed=19.188000m/h.</desc>
<speed>5.330000</speed>
</trkpt>
<trkpt lat="56.066368" lon="26.513578">
<ele>140.380981</ele>
<time>2010-08-29T11:17:40Z</time>
<desc>lat.=56.066368, lon.=26.513578, Alt.=140.380981m. Speed=18.612000m/h.</desc>
<speed>5.170000</speed>
</trkpt>
<trkpt lat="56.066322" lon="26.513533">
<ele>140.220825</ele>
<time>2010-08-29T11:17:41Z</time>
<desc>lat.=56.066322, lon.=26.513533, Alt.=140.220825m. Speed=17.568001m/h.</desc>
<speed>4.880000</speed>
</trkpt>
<trkpt lat="56.066284" lon="26.513498">
<ele>140.091919</ele>
<time>2010-08-29T11:17:42Z</time>
<desc>lat.=56.066284, lon.=26.513498, Alt.=140.091919m. Speed=16.704000m/h.</desc>
<speed>4.640000</speed>
</trkpt>
<trkpt lat="56.066238" lon="26.513464">
<ele>138.845825</ele>
<time>2010-08-29T11:17:43Z</time>
<desc>lat.=56.066238, lon.=26.513464, Alt.=138.845825m. Speed=16.091999m/h.</desc>
<speed>4.470000</speed>
</trkpt>
<trkpt lat="56.066204" lon="26.513420">
<ele>138.763794</ele>
<time>2010-08-29T11:17:44Z</time>
<desc>lat.=56.066204, lon.=26.513420, Alt.=138.763794m. Speed=15.912000m/h.</desc>
<speed>4.420000</speed>
</trkpt>
<trkpt lat="56.066170" lon="26.513380">
<ele>138.865356</ele>
<time>2010-08-29T11:17:45Z</time>
<desc>lat.=56.066170, lon.=26.513380, Alt.=138.865356m. Speed=14.976000m/h.</desc>
<speed>4.160000</speed>
</trkpt>
<trkpt lat="56.066132" lon="26.513350">
<ele>138.349731</ele>
<time>2010-08-29T11:17:46Z</time>
<desc>lat.=56.066132, lon.=26.513350, Alt.=138.349731m. Speed=14.580000m/h.</desc>
<speed>4.050000</speed>
</trkpt>
<trkpt lat="56.066101" lon="26.513317">
<ele>138.740356</ele>
<time>2010-08-29T11:17:47Z</time>
<desc>lat.=56.066101, lon.=26.513317, Alt.=138.740356m. Speed=14.364000m/h.</desc>
<speed>3.990000</speed>
</trkpt>
<trkpt lat="56.066074" lon="26.513283">
<ele>139.236450</ele>
<time>2010-08-29T11:17:48Z</time>
<desc>lat.=56.066074, lon.=26.513283, Alt.=139.236450m. Speed=13.716000m/h.</desc>
<speed>3.810000</speed>
</trkpt>
<trkpt lat="56.066040" lon="26.513248">
<ele>139.623169</ele>
<time>2010-08-29T11:17:49Z</time>
<desc>lat.=56.066040, lon.=26.513248, Alt.=139.623169m. Speed=15.084000m/h.</desc>
<speed>4.190000</speed>
</trkpt>
<trkpt lat="56.066010" lon="26.513205">
<ele>140.088013</ele>
<time>2010-08-29T11:17:50Z</time>
<desc>lat.=56.066010, lon.=26.513205, Alt.=140.088013m. Speed=15.048000m/h.</desc>
<speed>4.180000</speed>
</trkpt>
<trkpt lat="56.065979" lon="26.513161">
<ele>140.361450</ele>
<time>2010-08-29T11:17:51Z</time>
<desc>lat.=56.065979, lon.=26.513161, Alt.=140.361450m. Speed=13.932000m/h.</desc>
<speed>3.870000</speed>
</trkpt>
<trkpt lat="56.065952" lon="26.513119">
<ele>140.423950</ele>
<time>2010-08-29T11:17:52Z</time>
<desc>lat.=56.065952, lon.=26.513119, Alt.=140.423950m. Speed=13.824000m/h.</desc>
<speed>3.840000</speed>
</trkpt>
<trkpt lat="56.065929" lon="26.513084">
<ele>140.314575</ele>
<time>2010-08-29T11:17:53Z</time>
<desc>lat.=56.065929, lon.=26.513084, Alt.=140.314575m. Speed=12.960000m/h.</desc>
<speed>3.600000</speed>
</trkpt>
<trkpt lat="56.065907" lon="26.513050">
<ele>140.572388</ele>
<time>2010-08-29T11:17:54Z</time>
<desc>lat.=56.065907, lon.=26.513050, Alt.=140.572388m. Speed=11.556000m/h.</desc>
<speed>3.210000</speed>
</trkpt>
<trkpt lat="56.065876" lon="26.513014">
<ele>139.666138</ele>
<time>2010-08-29T11:17:55Z</time>
<desc>lat.=56.065876, lon.=26.513014, Alt.=139.666138m. Speed=11.088000m/h.</desc>
<speed>3.080000</speed>
</trkpt>
<trkpt lat="56.065845" lon="26.512976">
<ele>138.463013</ele>
<time>2010-08-29T11:17:56Z</time>
<desc>lat.=56.065845, lon.=26.512976, Alt.=138.463013m. Speed=10.548000m/h.</desc>
<speed>2.930000</speed>
</trkpt>
<trkpt lat="56.065823" lon="26.512939">
<ele>137.529419</ele>
<time>2010-08-29T11:17:57Z</time>
<desc>lat.=56.065823, lon.=26.512939, Alt.=137.529419m. Speed=8.028000m/h.</desc>
<speed>2.230000</speed>
</trkpt>
<trkpt lat="56.065792" lon="26.512905">
<ele>136.670044</ele>
<time>2010-08-29T11:17:58Z</time>
<desc>lat.=56.065792, lon.=26.512905, Alt.=136.670044m. Speed=8.100000m/h.</desc>
<speed>2.250000</speed>
</trkpt>
<trkpt lat="56.065762" lon="26.512880">
<ele>134.923950</ele>
<time>2010-08-29T11:17:59Z</time>
<desc>lat.=56.065762, lon.=26.512880, Alt.=134.923950m. Speed=7.848000m/h.</desc>
<speed>2.180000</speed>
</trkpt>
<trkpt lat="56.065746" lon="26.512861">
<ele>134.752075</ele>
<time>2010-08-29T11:18:00Z</time>
<desc>lat.=56.065746, lon.=26.512861, Alt.=134.752075m. Speed=2.916000m/h.</desc>
<speed>0.810000</speed>
</trkpt>
<trkpt lat="56.065742" lon="26.512857">
<ele>134.263794</ele>
<time>2010-08-29T11:18:01Z</time>
<desc>lat.=56.065742, lon.=26.512857, Alt.=134.263794m. Speed=0.720000m/h.</desc>
<speed>0.200000</speed>
</trkpt>
<trkpt lat="56.065742" lon="26.512857">
<ele>133.392700</ele>
<time>2010-08-29T11:18:02Z</time>
<desc>lat.=56.065742, lon.=26.512857, Alt.=133.392700m. Speed=0.216000m/h.</desc>
<speed>0.060000</speed>
</trkpt>
<trkpt lat="56.065742" lon="26.512859">
<ele>132.541138</ele>
<time>2010-08-29T11:18:03Z</time>
<desc>lat.=56.065742, lon.=26.512859, Alt.=132.541138m. Speed=0.324000m/h.</desc>
<speed>0.090000</speed>
</trkpt>
<trkpt lat="56.065742" lon="26.512859">
<ele>132.720825</ele>
<time>2010-08-29T11:18:04Z</time>
<desc>lat.=56.065742, lon.=26.512859, Alt.=132.720825m. Speed=0.540000m/h.</desc>
<speed>0.150000</speed>
</trkpt>
<trkpt lat="56.065746" lon="26.512859">
<ele>132.853638</ele>
<time>2010-08-29T11:18:05Z</time>
<desc>lat.=56.065746, lon.=26.512859, Alt.=132.853638m. Speed=0.324000m/h.</desc>
<speed>0.090000</speed>
</trkpt>
<trkpt lat="56.065746" lon="26.512859">
<ele>132.955200</ele>
<time>2010-08-29T11:18:06Z</time>
<desc>lat.=56.065746, lon.=26.512859, Alt.=132.955200m. Speed=0.180000m/h.</desc>
<speed>0.050000</speed>
</trkpt>
<trkpt lat="56.065746" lon="26.512857">
<ele>133.009888</ele>
<time>2010-08-29T11:18:07Z</time>
<desc>lat.=56.065746, lon.=26.512857, Alt.=133.009888m. Speed=0.576000m/h.</desc>
<speed>0.160000</speed>
</trkpt>
<trkpt lat="56.065746" lon="26.512859">
<ele>133.048950</ele>
<time>2010-08-29T11:18:08Z</time>
<desc>lat.=56.065746, lon.=26.512859, Alt.=133.048950m. Speed=0.252000m/h.</desc>
<speed>0.070000</speed>
</trkpt>
<trkpt lat="56.065746" lon="26.512859">
<ele>133.080200</ele>
<time>2010-08-29T11:18:09Z</time>
<desc>lat.=56.065746, lon.=26.512859, Alt.=133.080200m. Speed=0.324000m/h.</desc>
<speed>0.090000</speed>
</trkpt>
<trkpt lat="56.065746" lon="26.512857">
<ele>133.115356</ele>
<time>2010-08-29T11:18:10Z</time>
<desc>lat.=56.065746, lon.=26.512857, Alt.=133.115356m. Speed=0.360000m/h.</desc>
<speed>0.100000</speed>
</trkpt>
<trkpt lat="56.065746" lon="26.512857">
<ele>133.142700</ele>
<time>2010-08-29T11:18:11Z</time>
<desc>lat.=56.065746, lon.=26.512857, Alt.=133.142700m. Speed=1.332000m/h.</desc>
<speed>0.370000</speed>
</trkpt>
<trkpt lat="56.065746" lon="26.512850">
<ele>133.170044</ele>
<time>2010-08-29T11:18:12Z</time>
<desc>lat.=56.065746, lon.=26.512850, Alt.=133.170044m. Speed=1.944000m/h.</desc>
<speed>0.540000</speed>
</trkpt>
<trkpt lat="56.065746" lon="26.512842">
<ele>133.201294</ele>
<time>2010-08-29T11:18:13Z</time>
<desc>lat.=56.065746, lon.=26.512842, Alt.=133.201294m. Speed=2.628000m/h.</desc>
<speed>0.730000</speed>
</trkpt>
<trkpt lat="56.065746" lon="26.512831">
<ele>133.236450</ele>
<time>2010-08-29T11:18:14Z</time>
<desc>lat.=56.065746, lon.=26.512831, Alt.=133.236450m. Speed=2.880000m/h.</desc>
<speed>0.800000</speed>
</trkpt>
<trkpt lat="56.065750" lon="26.512819">
<ele>133.271606</ele>
<time>2010-08-29T11:18:15Z</time>
<desc>lat.=56.065750, lon.=26.512819, Alt.=133.271606m. Speed=4.212000m/h.</desc>
<speed>1.170000</speed>
</trkpt>
<trkpt lat="56.065762" lon="26.512787">
<ele>133.170044</ele>
<time>2010-08-29T11:18:16Z</time>
<desc>lat.=56.065762, lon.=26.512787, Alt.=133.170044m. Speed=11.160000m/h.</desc>
<speed>3.100000</speed>
</trkpt>
<trkpt lat="56.065765" lon="26.512747">
<ele>133.002075</ele>
<time>2010-08-29T11:18:17Z</time>
<desc>lat.=56.065765, lon.=26.512747, Alt.=133.002075m. Speed=8.604000m/h.</desc>
<speed>2.390000</speed>
</trkpt>
<trkpt lat="56.065769" lon="26.512701">
<ele>132.795044</ele>
<time>2010-08-29T11:18:18Z</time>
<desc>lat.=56.065769, lon.=26.512701, Alt.=132.795044m. Speed=11.700000m/h.</desc>
<speed>3.250000</speed>
</trkpt>
<trkpt lat="56.065769" lon="26.512650">
<ele>132.279419</ele>
<time>2010-08-29T11:18:19Z</time>
<desc>lat.=56.065769, lon.=26.512650, Alt.=132.279419m. Speed=12.708000m/h.</desc>
<speed>3.530000</speed>
</trkpt>
<trkpt lat="56.065769" lon="26.512590">
<ele>132.291138</ele>
<time>2010-08-29T11:18:20Z</time>
<desc>lat.=56.065769, lon.=26.512590, Alt.=132.291138m. Speed=13.896000m/h.</desc>
<speed>3.860000</speed>
</trkpt>
<trkpt lat="56.065777" lon="26.512520">
<ele>132.115356</ele>
<time>2010-08-29T11:18:21Z</time>
<desc>lat.=56.065777, lon.=26.512520, Alt.=132.115356m. Speed=17.243999m/h.</desc>
<speed>4.790000</speed>
</trkpt>
<trkpt lat="56.065777" lon="26.512434">
<ele>131.892700</ele>
<time>2010-08-29T11:18:22Z</time>
<desc>lat.=56.065777, lon.=26.512434, Alt.=131.892700m. Speed=18.396000m/h.</desc>
<speed>5.110000</speed>
</trkpt>
<trkpt lat="56.065781" lon="26.512352">
<ele>131.697388</ele>
<time>2010-08-29T11:18:23Z</time>
<desc>lat.=56.065781, lon.=26.512352, Alt.=131.697388m. Speed=18.864000m/h.</desc>
<speed>5.240000</speed>
</trkpt>
<trkpt lat="56.065788" lon="26.512278">
<ele>131.693481</ele>
<time>2010-08-29T11:18:24Z</time>
<desc>lat.=56.065788, lon.=26.512278, Alt.=131.693481m. Speed=15.480000m/h.</desc>
<speed>4.300000</speed>
</trkpt>
<trkpt lat="56.065796" lon="26.512205">
<ele>131.939575</ele>
<time>2010-08-29T11:18:25Z</time>
<desc>lat.=56.065796, lon.=26.512205, Alt.=131.939575m. Speed=15.444000m/h.</desc>
<speed>4.290000</speed>
</trkpt>
<trkpt lat="56.065804" lon="26.512144">
<ele>131.638794</ele>
<time>2010-08-29T11:18:26Z</time>
<desc>lat.=56.065804, lon.=26.512144, Alt.=131.638794m. Speed=13.500000m/h.</desc>
<speed>3.750000</speed>
</trkpt>
<trkpt lat="56.065804" lon="26.512074">
<ele>130.943481</ele>
<time>2010-08-29T11:18:27Z</time>
<desc>lat.=56.065804, lon.=26.512074, Alt.=130.943481m. Speed=13.140000m/h.</desc>
<speed>3.650000</speed>
</trkpt>
<trkpt lat="56.065811" lon="26.512007">
<ele>130.045044</ele>
<time>2010-08-29T11:18:28Z</time>
<desc>lat.=56.065811, lon.=26.512007, Alt.=130.045044m. Speed=13.536000m/h.</desc>
<speed>3.760000</speed>
</trkpt>
<trkpt lat="56.065819" lon="26.511951">
<ele>129.529419</ele>
<time>2010-08-29T11:18:29Z</time>
<desc>lat.=56.065819, lon.=26.511951, Alt.=129.529419m. Speed=10.872000m/h.</desc>
<speed>3.020000</speed>
</trkpt>
<trkpt lat="56.065823" lon="26.511890">
<ele>128.041138</ele>
<time>2010-08-29T11:18:30Z</time>
<desc>lat.=56.065823, lon.=26.511890, Alt.=128.041138m. Speed=10.116000m/h.</desc>
<speed>2.810000</speed>
</trkpt>
<trkpt lat="56.065823" lon="26.511841">
<ele>125.926819</ele>
<time>2010-08-29T11:18:31Z</time>
<desc>lat.=56.065823, lon.=26.511841, Alt.=125.926819m. Speed=8.784000m/h.</desc>
<speed>2.440000</speed>
</trkpt>
<trkpt lat="56.065815" lon="26.511795">
<ele>122.323303</ele>
<time>2010-08-29T11:18:32Z</time>
<desc>lat.=56.065815, lon.=26.511795, Alt.=122.323303m. Speed=7.704000m/h.</desc>
<speed>2.140000</speed>
</trkpt>
<trkpt lat="56.065811" lon="26.511757">
<ele>119.655334</ele>
<time>2010-08-29T11:18:33Z</time>
<desc>lat.=56.065811, lon.=26.511757, Alt.=119.655334m. Speed=6.192000m/h.</desc>
<speed>1.720000</speed>
</trkpt>
<trkpt lat="56.065815" lon="26.511728">
<ele>119.663147</ele>
<time>2010-08-29T11:18:34Z</time>
<desc>lat.=56.065815, lon.=26.511728, Alt.=119.663147m. Speed=5.868000m/h.</desc>
<speed>1.630000</speed>
</trkpt>
<trkpt lat="56.065815" lon="26.511698">
<ele>119.747131</ele>
<time>2010-08-29T11:18:35Z</time>
<desc>lat.=56.065815, lon.=26.511698, Alt.=119.747131m. Speed=6.624000m/h.</desc>
<speed>1.840000</speed>
</trkpt>
<trkpt lat="56.065815" lon="26.511667">
<ele>119.567444</ele>
<time>2010-08-29T11:18:36Z</time>
<desc>lat.=56.065815, lon.=26.511667, Alt.=119.567444m. Speed=6.156000m/h.</desc>
<speed>1.710000</speed>
</trkpt>
<trkpt lat="56.065807" lon="26.511637">
<ele>119.141663</ele>
<time>2010-08-29T11:18:37Z</time>
<desc>lat.=56.065807, lon.=26.511637, Alt.=119.141663m. Speed=7.164000m/h.</desc>
<speed>1.990000</speed>
</trkpt>
<trkpt lat="56.065807" lon="26.511608">
<ele>119.520569</ele>
<time>2010-08-29T11:18:38Z</time>
<desc>lat.=56.065807, lon.=26.511608, Alt.=119.520569m. Speed=6.480000m/h.</desc>
<speed>1.800000</speed>
</trkpt>
<trkpt lat="56.065807" lon="26.511580">
<ele>119.803772</ele>
<time>2010-08-29T11:18:39Z</time>
<desc>lat.=56.065807, lon.=26.511580, Alt.=119.803772m. Speed=6.588000m/h.</desc>
<speed>1.830000</speed>
</trkpt>
<trkpt lat="56.065815" lon="26.511547">
<ele>119.850647</ele>
<time>2010-08-29T11:18:40Z</time>
<desc>lat.=56.065815, lon.=26.511547, Alt.=119.850647m. Speed=8.244000m/h.</desc>
<speed>2.290000</speed>
</trkpt>
<trkpt lat="56.065823" lon="26.511515">
<ele>119.917053</ele>
<time>2010-08-29T11:18:41Z</time>
<desc>lat.=56.065823, lon.=26.511515, Alt.=119.917053m. Speed=6.480000m/h.</desc>
<speed>1.800000</speed>
</trkpt>
<trkpt lat="56.065826" lon="26.511499">
<ele>120.186584</ele>
<time>2010-08-29T11:18:42Z</time>
<desc>lat.=56.065826, lon.=26.511499, Alt.=120.186584m. Speed=2.844000m/h.</desc>
<speed>0.790000</speed>
</trkpt>
<trkpt lat="56.065826" lon="26.511482">
<ele>120.571350</ele>
<time>2010-08-29T11:18:43Z</time>
<desc>lat.=56.065826, lon.=26.511482, Alt.=120.571350m. Speed=7.452000m/h.</desc>
<speed>2.070000</speed>
</trkpt>
<trkpt lat="56.065830" lon="26.511452">
<ele>120.669006</ele>
<time>2010-08-29T11:18:44Z</time>
<desc>lat.=56.065830, lon.=26.511452, Alt.=120.669006m. Speed=5.904000m/h.</desc>
<speed>1.640000</speed>
</trkpt>
<trkpt lat="56.065830" lon="26.511423">
<ele>120.854553</ele>
<time>2010-08-29T11:18:45Z</time>
<desc>lat.=56.065830, lon.=26.511423, Alt.=120.854553m. Speed=8.136000m/h.</desc>
<speed>2.260000</speed>
</trkpt>
<trkpt lat="56.065826" lon="26.511381">
<ele>121.118225</ele>
<time>2010-08-29T11:18:46Z</time>
<desc>lat.=56.065826, lon.=26.511381, Alt.=121.118225m. Speed=9.144000m/h.</desc>
<speed>2.540000</speed>
</trkpt>
<trkpt lat="56.065823" lon="26.511328">
<ele>121.372131</ele>
<time>2010-08-29T11:18:47Z</time>
<desc>lat.=56.065823, lon.=26.511328, Alt.=121.372131m. Speed=11.808000m/h.</desc>
<speed>3.280000</speed>
</trkpt>
<trkpt lat="56.065815" lon="26.511269">
<ele>121.616272</ele>
<time>2010-08-29T11:18:48Z</time>
<desc>lat.=56.065815, lon.=26.511269, Alt.=121.616272m. Speed=10.872000m/h.</desc>
<speed>3.020000</speed>
</trkpt>
<trkpt lat="56.065811" lon="26.511211">
<ele>121.377991</ele>
<time>2010-08-29T11:18:49Z</time>
<desc>lat.=56.065811, lon.=26.511211, Alt.=121.377991m. Speed=10.044000m/h.</desc>
<speed>2.790000</speed>
</trkpt>
<trkpt lat="56.065807" lon="26.511152">
<ele>121.020569</ele>
<time>2010-08-29T11:18:50Z</time>
<desc>lat.=56.065807, lon.=26.511152, Alt.=121.020569m. Speed=11.592000m/h.</desc>
<speed>3.220000</speed>
</trkpt>
<trkpt lat="56.065807" lon="26.511087">
<ele>120.104553</ele>
<time>2010-08-29T11:18:51Z</time>
<desc>lat.=56.065807, lon.=26.511087, Alt.=120.104553m. Speed=12.924000m/h.</desc>
<speed>3.590000</speed>
</trkpt>
<trkpt lat="56.065807" lon="26.511026">
<ele>119.938538</ele>
<time>2010-08-29T11:18:52Z</time>
<desc>lat.=56.065807, lon.=26.511026, Alt.=119.938538m. Speed=12.600000m/h.</desc>
<speed>3.500000</speed>
</trkpt>
<trkpt lat="56.065804" lon="26.510967">
<ele>119.794006</ele>
<time>2010-08-29T11:18:53Z</time>
<desc>lat.=56.065804, lon.=26.510967, Alt.=119.794006m. Speed=13.464000m/h.</desc>
<speed>3.740000</speed>
</trkpt>
<trkpt lat="56.065811" lon="26.510902">
<ele>120.835022</ele>
<time>2010-08-29T11:18:54Z</time>
<desc>lat.=56.065811, lon.=26.510902, Alt.=120.835022m. Speed=13.788000m/h.</desc>
<speed>3.830000</speed>
</trkpt>
<trkpt lat="56.065807" lon="26.510834">
<ele>121.020569</ele>
<time>2010-08-29T11:18:55Z</time>
<desc>lat.=56.065807, lon.=26.510834, Alt.=121.020569m. Speed=14.400000m/h.</desc>
<speed>4.000000</speed>
</trkpt>
<trkpt lat="56.065804" lon="26.510771">
<ele>120.799866</ele>
<time>2010-08-29T11:18:56Z</time>
<desc>lat.=56.065804, lon.=26.510771, Alt.=120.799866m. Speed=13.284000m/h.</desc>
<speed>3.690000</speed>
</trkpt>
<trkpt lat="56.065796" lon="26.510710">
<ele>120.358459</ele>
<time>2010-08-29T11:18:57Z</time>
<desc>lat.=56.065796, lon.=26.510710, Alt.=120.358459m. Speed=12.960000m/h.</desc>
<speed>3.600000</speed>
</trkpt>
<trkpt lat="56.065792" lon="26.510645">
<ele>120.325256</ele>
<time>2010-08-29T11:18:58Z</time>
<desc>lat.=56.065792, lon.=26.510645, Alt.=120.325256m. Speed=13.032000m/h.</desc>
<speed>3.620000</speed>
</trkpt>
<trkpt lat="56.065788" lon="26.510586">
<ele>119.547913</ele>
<time>2010-08-29T11:18:59Z</time>
<desc>lat.=56.065788, lon.=26.510586, Alt.=119.547913m. Speed=11.664000m/h.</desc>
<speed>3.240000</speed>
</trkpt>
<trkpt lat="56.065788" lon="26.510534">
<ele>119.153381</ele>
<time>2010-08-29T11:19:00Z</time>
<desc>lat.=56.065788, lon.=26.510534, Alt.=119.153381m. Speed=11.160000m/h.</desc>
<speed>3.100000</speed>
</trkpt>
<trkpt lat="56.065781" lon="26.510479">
<ele>117.360413</ele>
<time>2010-08-29T11:19:01Z</time>
<desc>lat.=56.065781, lon.=26.510479, Alt.=117.360413m. Speed=12.528000m/h.</desc>
<speed>3.480000</speed>
</trkpt>
<trkpt lat="56.065788" lon="26.510420">
<ele>117.469788</ele>
<time>2010-08-29T11:19:02Z</time>
<desc>lat.=56.065788, lon.=26.510420, Alt.=117.469788m. Speed=14.112000m/h.</desc>
<speed>3.920000</speed>
</trkpt>
<trkpt lat="56.065796" lon="26.510353">
<ele>116.797913</ele>
<time>2010-08-29T11:19:03Z</time>
<desc>lat.=56.065796, lon.=26.510353, Alt.=116.797913m. Speed=14.832000m/h.</desc>
<speed>4.120000</speed>
</trkpt>
<trkpt lat="56.065800" lon="26.510290">
<ele>116.452209</ele>
<time>2010-08-29T11:19:04Z</time>
<desc>lat.=56.065800, lon.=26.510290, Alt.=116.452209m. Speed=14.904000m/h.</desc>
<speed>4.140000</speed>
</trkpt>
<trkpt lat="56.065804" lon="26.510225">
<ele>116.151428</ele>
<time>2010-08-29T11:19:05Z</time>
<desc>lat.=56.065804, lon.=26.510225, Alt.=116.151428m. Speed=14.616000m/h.</desc>
<speed>4.060000</speed>
</trkpt>
<trkpt lat="56.065819" lon="26.510164">
<ele>115.721741</ele>
<time>2010-08-29T11:19:06Z</time>
<desc>lat.=56.065819, lon.=26.510164, Alt.=115.721741m. Speed=13.860000m/h.</desc>
<speed>3.850000</speed>
</trkpt>
<trkpt lat="56.065834" lon="26.510107">
<ele>115.178772</ele>
<time>2010-08-29T11:19:07Z</time>
<desc>lat.=56.065834, lon.=26.510107, Alt.=115.178772m. Speed=14.652000m/h.</desc>
<speed>4.070000</speed>
</trkpt>
<trkpt lat="56.065853" lon="26.510056">
<ele>114.854553</ele>
<time>2010-08-29T11:19:08Z</time>
<desc>lat.=56.065853, lon.=26.510056, Alt.=114.854553m. Speed=15.480000m/h.</desc>
<speed>4.300000</speed>
</trkpt>
<trkpt lat="56.065872" lon="26.509995">
<ele>114.196350</ele>
<time>2010-08-29T11:19:09Z</time>
<desc>lat.=56.065872, lon.=26.509995, Alt.=114.196350m. Speed=15.516000m/h.</desc>
<speed>4.310000</speed>
</trkpt>
<trkpt lat="56.065891" lon="26.509937">
<ele>113.676819</ele>
<time>2010-08-29T11:19:10Z</time>
<desc>lat.=56.065891, lon.=26.509937, Alt.=113.676819m. Speed=14.580000m/h.</desc>
<speed>4.050000</speed>
</trkpt>
<trkpt lat="56.065910" lon="26.509882">
<ele>113.268616</ele>
<time>2010-08-29T11:19:11Z</time>
<desc>lat.=56.065910, lon.=26.509882, Alt.=113.268616m. Speed=14.796000m/h.</desc>
<speed>4.110000</speed>
</trkpt>
<trkpt lat="56.065926" lon="26.509823">
<ele>113.026428</ele>
<time>2010-08-29T11:19:12Z</time>
<desc>lat.=56.065926, lon.=26.509823, Alt.=113.026428m. Speed=15.552000m/h.</desc>
<speed>4.320000</speed>
</trkpt>
<trkpt lat="56.065941" lon="26.509754">
<ele>111.901428</ele>
<time>2010-08-29T11:19:13Z</time>
<desc>lat.=56.065941, lon.=26.509754, Alt.=111.901428m. Speed=15.768000m/h.</desc>
<speed>4.380000</speed>
</trkpt>
<trkpt lat="56.065948" lon="26.509686">
<ele>111.251038</ele>
<time>2010-08-29T11:19:14Z</time>
<desc>lat.=56.065948, lon.=26.509686, Alt.=111.251038m. Speed=16.091999m/h.</desc>
<speed>4.470000</speed>
</trkpt>
<trkpt lat="56.065960" lon="26.509604">
<ele>109.581116</ele>
<time>2010-08-29T11:19:15Z</time>
<desc>lat.=56.065960, lon.=26.509604, Alt.=109.581116m. Speed=15.876000m/h.</desc>
<speed>4.410000</speed>
</trkpt>
<trkpt lat="56.065971" lon="26.509535">
<ele>108.885803</ele>
<time>2010-08-29T11:19:16Z</time>
<desc>lat.=56.065971, lon.=26.509535, Alt.=108.885803m. Speed=15.804000m/h.</desc>
<speed>4.390000</speed>
</trkpt>
<trkpt lat="56.065987" lon="26.509470">
<ele>108.516663</ele>
<time>2010-08-29T11:19:17Z</time>
<desc>lat.=56.065987, lon.=26.509470, Alt.=108.516663m. Speed=15.372000m/h.</desc>
<speed>4.270000</speed>
</trkpt>
<trkpt lat="56.066029" lon="26.509424">
<ele>112.034241</ele>
<time>2010-08-29T11:19:18Z</time>
<desc>lat.=56.066029, lon.=26.509424, Alt.=112.034241m. Speed=15.156000m/h.</desc>
<speed>4.210000</speed>
</trkpt>
<trkpt lat="56.066048" lon="26.509367">
<ele>112.461975</ele>
<time>2010-08-29T11:19:19Z</time>
<desc>lat.=56.066048, lon.=26.509367, Alt.=112.461975m. Speed=15.696000m/h.</desc>
<speed>4.360000</speed>
</trkpt>
<trkpt lat="56.066067" lon="26.509296">
<ele>111.885803</ele>
<time>2010-08-29T11:19:20Z</time>
<desc>lat.=56.066067, lon.=26.509296, Alt.=111.885803m. Speed=15.948000m/h.</desc>
<speed>4.430000</speed>
</trkpt>
<trkpt lat="56.066074" lon="26.509230">
<ele>110.768616</ele>
<time>2010-08-29T11:19:21Z</time>
<desc>lat.=56.066074, lon.=26.509230, Alt.=110.768616m. Speed=15.372000m/h.</desc>
<speed>4.270000</speed>
</trkpt>
<trkpt lat="56.066093" lon="26.509167">
<ele>110.272522</ele>
<time>2010-08-29T11:19:22Z</time>
<desc>lat.=56.066093, lon.=26.509167, Alt.=110.272522m. Speed=15.516000m/h.</desc>
<speed>4.310000</speed>
</trkpt>
<trkpt lat="56.066113" lon="26.509109">
<ele>110.483459</ele>
<time>2010-08-29T11:19:23Z</time>
<desc>lat.=56.066113, lon.=26.509109, Alt.=110.483459m. Speed=15.480000m/h.</desc>
<speed>4.300000</speed>
</trkpt>
<trkpt lat="56.066135" lon="26.509048">
<ele>110.766663</ele>
<time>2010-08-29T11:19:24Z</time>
<desc>lat.=56.066135, lon.=26.509048, Alt.=110.766663m. Speed=14.868000m/h.</desc>
<speed>4.130000</speed>
</trkpt>
<trkpt lat="56.066151" lon="26.508987">
<ele>110.702209</ele>
<time>2010-08-29T11:19:25Z</time>
<desc>lat.=56.066151, lon.=26.508987, Alt.=110.702209m. Speed=14.688000m/h.</desc>
<speed>4.080000</speed>
</trkpt>
<trkpt lat="56.066162" lon="26.508926">
<ele>110.225647</ele>
<time>2010-08-29T11:19:26Z</time>
<desc>lat.=56.066162, lon.=26.508926, Alt.=110.225647m. Speed=15.264000m/h.</desc>
<speed>4.240000</speed>
</trkpt>
<trkpt lat="56.066177" lon="26.508873">
<ele>109.961975</ele>
<time>2010-08-29T11:19:27Z</time>
<desc>lat.=56.066177, lon.=26.508873, Alt.=109.961975m. Speed=11.916000m/h.</desc>
<speed>3.310000</speed>
</trkpt>
<trkpt lat="56.066193" lon="26.508831">
<ele>109.874084</ele>
<time>2010-08-29T11:19:28Z</time>
<desc>lat.=56.066193, lon.=26.508831, Alt.=109.874084m. Speed=10.872000m/h.</desc>
<speed>3.020000</speed>
</trkpt>
<trkpt lat="56.066212" lon="26.508793">
<ele>109.460022</ele>
<time>2010-08-29T11:19:29Z</time>
<desc>lat.=56.066212, lon.=26.508793, Alt.=109.460022m. Speed=9.252000m/h.</desc>
<speed>2.570000</speed>
</trkpt>
<trkpt lat="56.066223" lon="26.508751">
<ele>108.721741</ele>
<time>2010-08-29T11:19:30Z</time>
<desc>lat.=56.066223, lon.=26.508751, Alt.=108.721741m. Speed=9.216000m/h.</desc>
<speed>2.560000</speed>
</trkpt>
<trkpt lat="56.066235" lon="26.508709">
<ele>108.036194</ele>
<time>2010-08-29T11:19:31Z</time>
<desc>lat.=56.066235, lon.=26.508709, Alt.=108.036194m. Speed=9.180000m/h.</desc>
<speed>2.550000</speed>
</trkpt>
<trkpt lat="56.066242" lon="26.508675">
<ele>107.512756</ele>
<time>2010-08-29T11:19:32Z</time>
<desc>lat.=56.066242, lon.=26.508675, Alt.=107.512756m. Speed=8.064000m/h.</desc>
<speed>2.240000</speed>
</trkpt>
<trkpt lat="56.066250" lon="26.508648">
<ele>106.930725</ele>
<time>2010-08-29T11:19:33Z</time>
<desc>lat.=56.066250, lon.=26.508648, Alt.=106.930725m. Speed=6.012000m/h.</desc>
<speed>1.670000</speed>
</trkpt>
<trkpt lat="56.066257" lon="26.508625">
<ele>106.344788</ele>
<time>2010-08-29T11:19:34Z</time>
<desc>lat.=56.066257, lon.=26.508625, Alt.=106.344788m. Speed=3.708000m/h.</desc>
<speed>1.030000</speed>
</trkpt>
<trkpt lat="56.066257" lon="26.508604">
<ele>105.930725</ele>
<time>2010-08-29T11:19:35Z</time>
<desc>lat.=56.066257, lon.=26.508604, Alt.=105.930725m. Speed=6.300000m/h.</desc>
<speed>1.750000</speed>
</trkpt>
<trkpt lat="56.066265" lon="26.508572">
<ele>105.547913</ele>
<time>2010-08-29T11:19:36Z</time>
<desc>lat.=56.066265, lon.=26.508572, Alt.=105.547913m. Speed=9.144000m/h.</desc>
<speed>2.540000</speed>
</trkpt>
<trkpt lat="56.066273" lon="26.508541">
<ele>104.940491</ele>
<time>2010-08-29T11:19:37Z</time>
<desc>lat.=56.066273, lon.=26.508541, Alt.=104.940491m. Speed=6.048000m/h.</desc>
<speed>1.680000</speed>
</trkpt>
<trkpt lat="56.066273" lon="26.508512">
<ele>104.489319</ele>
<time>2010-08-29T11:19:38Z</time>
<desc>lat.=56.066273, lon.=26.508512, Alt.=104.489319m. Speed=6.552000m/h.</desc>
<speed>1.820000</speed>
</trkpt>
<trkpt lat="56.066273" lon="26.508480">
<ele>103.989319</ele>
<time>2010-08-29T11:19:39Z</time>
<desc>lat.=56.066273, lon.=26.508480, Alt.=103.989319m. Speed=6.624000m/h.</desc>
<speed>1.840000</speed>
</trkpt>
<trkpt lat="56.066269" lon="26.508453">
<ele>103.594788</ele>
<time>2010-08-29T11:19:40Z</time>
<desc>lat.=56.066269, lon.=26.508453, Alt.=103.594788m. Speed=6.120000m/h.</desc>
<speed>1.700000</speed>
</trkpt>
<trkpt lat="56.066273" lon="26.508430">
<ele>103.247131</ele>
<time>2010-08-29T11:19:41Z</time>
<desc>lat.=56.066273, lon.=26.508430, Alt.=103.247131m. Speed=5.544000m/h.</desc>
<speed>1.540000</speed>
</trkpt>
<trkpt lat="56.066280" lon="26.508413">
<ele>102.815491</ele>
<time>2010-08-29T11:19:42Z</time>
<desc>lat.=56.066280, lon.=26.508413, Alt.=102.815491m. Speed=5.688000m/h.</desc>
<speed>1.580000</speed>
</trkpt>
<trkpt lat="56.066288" lon="26.508396">
<ele>102.932678</ele>
<time>2010-08-29T11:19:43Z</time>
<desc>lat.=56.066288, lon.=26.508396, Alt.=102.932678m. Speed=3.780000m/h.</desc>
<speed>1.050000</speed>
</trkpt>
<trkpt lat="56.066288" lon="26.508379">
<ele>102.444397</ele>
<time>2010-08-29T11:19:44Z</time>
<desc>lat.=56.066288, lon.=26.508379, Alt.=102.444397m. Speed=5.040000m/h.</desc>
<speed>1.400000</speed>
</trkpt>
<trkpt lat="56.066299" lon="26.508348">
<ele>102.073303</ele>
<time>2010-08-29T11:19:45Z</time>
<desc>lat.=56.066299, lon.=26.508348, Alt.=102.073303m. Speed=8.244000m/h.</desc>
<speed>2.290000</speed>
</trkpt>
<trkpt lat="56.066307" lon="26.508310">
<ele>101.350647</ele>
<time>2010-08-29T11:19:46Z</time>
<desc>lat.=56.066307, lon.=26.508310, Alt.=101.350647m. Speed=8.460000m/h.</desc>
<speed>2.350000</speed>
</trkpt>
<trkpt lat="56.066311" lon="26.508278">
<ele>100.752991</ele>
<time>2010-08-29T11:19:47Z</time>
<desc>lat.=56.066311, lon.=26.508278, Alt.=100.752991m. Speed=7.164000m/h.</desc>
<speed>1.990000</speed>
</trkpt>
<trkpt lat="56.066319" lon="26.508259">
<ele>100.477600</ele>
<time>2010-08-29T11:19:48Z</time>
<desc>lat.=56.066319, lon.=26.508259, Alt.=100.477600m. Speed=6.228000m/h.</desc>
<speed>1.730000</speed>
</trkpt>
<trkpt lat="56.066326" lon="26.508238">
<ele>100.452209</ele>
<time>2010-08-29T11:19:49Z</time>
<desc>lat.=56.066326, lon.=26.508238, Alt.=100.452209m. Speed=5.508000m/h.</desc>
<speed>1.530000</speed>
</trkpt>
<trkpt lat="56.066341" lon="26.508230">
<ele>101.782288</ele>
<time>2010-08-29T11:19:50Z</time>
<desc>lat.=56.066341, lon.=26.508230, Alt.=101.782288m. Speed=3.888000m/h.</desc>
<speed>1.080000</speed>
</trkpt>
<trkpt lat="56.066349" lon="26.508219">
<ele>102.211975</ele>
<time>2010-08-29T11:19:51Z</time>
<desc>lat.=56.066349, lon.=26.508219, Alt.=102.211975m. Speed=4.212000m/h.</desc>
<speed>1.170000</speed>
</trkpt>
<trkpt lat="56.066357" lon="26.508196">
<ele>102.149475</ele>
<time>2010-08-29T11:19:52Z</time>
<desc>lat.=56.066357, lon.=26.508196, Alt.=102.149475m. Speed=5.688000m/h.</desc>
<speed>1.580000</speed>
</trkpt>
<trkpt lat="56.066364" lon="26.508173">
<ele>102.190491</ele>
<time>2010-08-29T11:19:53Z</time>
<desc>lat.=56.066364, lon.=26.508173, Alt.=102.190491m. Speed=5.580000m/h.</desc>
<speed>1.550000</speed>
</trkpt>
<trkpt lat="56.066368" lon="26.508150">
<ele>101.868225</ele>
<time>2010-08-29T11:19:54Z</time>
<desc>lat.=56.066368, lon.=26.508150, Alt.=101.868225m. Speed=4.752000m/h.</desc>
<speed>1.320000</speed>
</trkpt>
<trkpt lat="56.066376" lon="26.508129">
<ele>101.577209</ele>
<time>2010-08-29T11:19:55Z</time>
<desc>lat.=56.066376, lon.=26.508129, Alt.=101.577209m. Speed=4.968000m/h.</desc>
<speed>1.380000</speed>
</trkpt>
<trkpt lat="56.066380" lon="26.508108">
<ele>101.124084</ele>
<time>2010-08-29T11:19:56Z</time>
<desc>lat.=56.066380, lon.=26.508108, Alt.=101.124084m. Speed=4.896000m/h.</desc>
<speed>1.360000</speed>
</trkpt>
<trkpt lat="56.066383" lon="26.508089">
<ele>100.745178</ele>
<time>2010-08-29T11:19:57Z</time>
<desc>lat.=56.066383, lon.=26.508089, Alt.=100.745178m. Speed=3.960000m/h.</desc>
<speed>1.100000</speed>
</trkpt>
<trkpt lat="56.066383" lon="26.508076">
<ele>100.430725</ele>
<time>2010-08-29T11:19:58Z</time>
<desc>lat.=56.066383, lon.=26.508076, Alt.=100.430725m. Speed=2.844000m/h.</desc>
<speed>0.790000</speed>
</trkpt>
<trkpt lat="56.066387" lon="26.508060">
<ele>100.336975</ele>
<time>2010-08-29T11:19:59Z</time>
<desc>lat.=56.066387, lon.=26.508060, Alt.=100.336975m. Speed=5.436000m/h.</desc>
<speed>1.510000</speed>
</trkpt>
<trkpt lat="56.066387" lon="26.508041">
<ele>100.106506</ele>
<time>2010-08-29T11:20:00Z</time>
<desc>lat.=56.066387, lon.=26.508041, Alt.=100.106506m. Speed=5.220000m/h.</desc>
<speed>1.450000</speed>
</trkpt>
<trkpt lat="56.066391" lon="26.508018">
<ele>99.952209</ele>
<time>2010-08-29T11:20:01Z</time>
<desc>lat.=56.066391, lon.=26.508018, Alt.=99.952209m. Speed=5.724000m/h.</desc>
<speed>1.590000</speed>
</trkpt>
<trkpt lat="56.066399" lon="26.507992">
<ele>99.706116</ele>
<time>2010-08-29T11:20:02Z</time>
<desc>lat.=56.066399, lon.=26.507992, Alt.=99.706116m. Speed=5.580000m/h.</desc>
<speed>1.550000</speed>
</trkpt>
<trkpt lat="56.066399" lon="26.507971">
<ele>99.247131</ele>
<time>2010-08-29T11:20:03Z</time>
<desc>lat.=56.066399, lon.=26.507971, Alt.=99.247131m. Speed=6.084000m/h.</desc>
<speed>1.690000</speed>
</trkpt>
<trkpt lat="56.066410" lon="26.507948">
<ele>99.389709</ele>
<time>2010-08-29T11:20:04Z</time>
<desc>lat.=56.066410, lon.=26.507948, Alt.=99.389709m. Speed=6.192000m/h.</desc>
<speed>1.720000</speed>
</trkpt>
<trkpt lat="56.066414" lon="26.507923">
<ele>99.079163</ele>
<time>2010-08-29T11:20:05Z</time>
<desc>lat.=56.066414, lon.=26.507923, Alt.=99.079163m. Speed=5.544000m/h.</desc>
<speed>1.540000</speed>
</trkpt>
<trkpt lat="56.066422" lon="26.507900">
<ele>98.866272</ele>
<time>2010-08-29T11:20:06Z</time>
<desc>lat.=56.066422, lon.=26.507900, Alt.=98.866272m. Speed=5.544000m/h.</desc>
<speed>1.540000</speed>
</trkpt>
<trkpt lat="56.066429" lon="26.507879">
<ele>98.555725</ele>
<time>2010-08-29T11:20:07Z</time>
<desc>lat.=56.066429, lon.=26.507879, Alt.=98.555725m. Speed=6.336000m/h.</desc>
<speed>1.760000</speed>
</trkpt>
<trkpt lat="56.066441" lon="26.507860">
<ele>98.721741</ele>
<time>2010-08-29T11:20:08Z</time>
<desc>lat.=56.066441, lon.=26.507860, Alt.=98.721741m. Speed=5.940000m/h.</desc>
<speed>1.650000</speed>
</trkpt>
<trkpt lat="56.066448" lon="26.507841">
<ele>98.518616</ele>
<time>2010-08-29T11:20:09Z</time>
<desc>lat.=56.066448, lon.=26.507841, Alt.=98.518616m. Speed=4.932000m/h.</desc>
<speed>1.370000</speed>
</trkpt>
<trkpt lat="56.066456" lon="26.507814">
<ele>98.020569</ele>
<time>2010-08-29T11:20:10Z</time>
<desc>lat.=56.066456, lon.=26.507814, Alt.=98.020569m. Speed=7.200000m/h.</desc>
<speed>2.000000</speed>
</trkpt>
<trkpt lat="56.066463" lon="26.507795">
<ele>97.973694</ele>
<time>2010-08-29T11:20:11Z</time>
<desc>lat.=56.066463, lon.=26.507795, Alt.=97.973694m. Speed=3.132000m/h.</desc>
<speed>0.870000</speed>
</trkpt>
<trkpt lat="56.066463" lon="26.507780">
<ele>97.549866</ele>
<time>2010-08-29T11:20:12Z</time>
<desc>lat.=56.066463, lon.=26.507780, Alt.=97.549866m. Speed=3.852000m/h.</desc>
<speed>1.070000</speed>
</trkpt>
<trkpt lat="56.066471" lon="26.507763">
<ele>97.594788</ele>
<time>2010-08-29T11:20:13Z</time>
<desc>lat.=56.066471, lon.=26.507763, Alt.=97.594788m. Speed=4.968000m/h.</desc>
<speed>1.380000</speed>
</trkpt>
<trkpt lat="56.066475" lon="26.507742">
<ele>97.448303</ele>
<time>2010-08-29T11:20:14Z</time>
<desc>lat.=56.066475, lon.=26.507742, Alt.=97.448303m. Speed=5.076000m/h.</desc>
<speed>1.410000</speed>
</trkpt>
<trkpt lat="56.066483" lon="26.507723">
<ele>97.161194</ele>
<time>2010-08-29T11:20:15Z</time>
<desc>lat.=56.066483, lon.=26.507723, Alt.=97.161194m. Speed=4.500000m/h.</desc>
<speed>1.250000</speed>
</trkpt>
<trkpt lat="56.066486" lon="26.507710">
<ele>97.094788</ele>
<time>2010-08-29T11:20:16Z</time>
<desc>lat.=56.066486, lon.=26.507710, Alt.=97.094788m. Speed=3.456000m/h.</desc>
<speed>0.960000</speed>
</trkpt>
<trkpt lat="56.066494" lon="26.507704">
<ele>97.540100</ele>
<time>2010-08-29T11:20:17Z</time>
<desc>lat.=56.066494, lon.=26.507704, Alt.=97.540100m. Speed=2.196000m/h.</desc>
<speed>0.610000</speed>
</trkpt>
<trkpt lat="56.066494" lon="26.507704">
<ele>97.600647</ele>
<time>2010-08-29T11:20:18Z</time>
<desc>lat.=56.066494, lon.=26.507704, Alt.=97.600647m. Speed=1.080000m/h.</desc>
<speed>0.300000</speed>
</trkpt>
<trkpt lat="56.066490" lon="26.507710">
<ele>97.559631</ele>
<time>2010-08-29T11:20:19Z</time>
<desc>lat.=56.066490, lon.=26.507710, Alt.=97.559631m. Speed=0.828000m/h.</desc>
<speed>0.230000</speed>
</trkpt>
<trkpt lat="56.066490" lon="26.507710">
<ele>97.090881</ele>
<time>2010-08-29T11:20:20Z</time>
<desc>lat.=56.066490, lon.=26.507710, Alt.=97.090881m. Speed=1.404000m/h.</desc>
<speed>0.390000</speed>
</trkpt>
<trkpt lat="56.066486" lon="26.507708">
<ele>96.790100</ele>
<time>2010-08-29T11:20:21Z</time>
<desc>lat.=56.066486, lon.=26.507708, Alt.=96.790100m. Speed=0.936000m/h.</desc>
<speed>0.260000</speed>
</trkpt>
<trkpt lat="56.066486" lon="26.507711">
<ele>96.485413</ele>
<time>2010-08-29T11:20:22Z</time>
<desc>lat.=56.066486, lon.=26.507711, Alt.=96.485413m. Speed=0.324000m/h.</desc>
<speed>0.090000</speed>
</trkpt>
<trkpt lat="56.066486" lon="26.507710">
<ele>96.215881</ele>
<time>2010-08-29T11:20:23Z</time>
<desc>lat.=56.066486, lon.=26.507710, Alt.=96.215881m. Speed=2.196000m/h.</desc>
<speed>0.610000</speed>
</trkpt>
<trkpt lat="56.066483" lon="26.507708">
<ele>96.127991</ele>
<time>2010-08-29T11:20:24Z</time>
<desc>lat.=56.066483, lon.=26.507708, Alt.=96.127991m. Speed=1.044000m/h.</desc>
<speed>0.290000</speed>
</trkpt>
<trkpt lat="56.066479" lon="26.507706">
<ele>96.022522</ele>
<time>2010-08-29T11:20:25Z</time>
<desc>lat.=56.066479, lon.=26.507706, Alt.=96.022522m. Speed=0.504000m/h.</desc>
<speed>0.140000</speed>
</trkpt>
<trkpt lat="56.066479" lon="26.507704">
<ele>95.915100</ele>
<time>2010-08-29T11:20:26Z</time>
<desc>lat.=56.066479, lon.=26.507704, Alt.=95.915100m. Speed=0.756000m/h.</desc>
<speed>0.210000</speed>
</trkpt>
<trkpt lat="56.066479" lon="26.507702">
<ele>95.844788</ele>
<time>2010-08-29T11:20:27Z</time>
<desc>lat.=56.066479, lon.=26.507702, Alt.=95.844788m. Speed=0.072000m/h.</desc>
<speed>0.020000</speed>
</trkpt>
<trkpt lat="56.066479" lon="26.507702">
<ele>95.817444</ele>
<time>2010-08-29T11:20:28Z</time>
<desc>lat.=56.066479, lon.=26.507702, Alt.=95.817444m. Speed=0.108000m/h.</desc>
<speed>0.030000</speed>
</trkpt>
<trkpt lat="56.066479" lon="26.507702">
<ele>95.795959</ele>
<time>2010-08-29T11:20:29Z</time>
<desc>lat.=56.066479, lon.=26.507702, Alt.=95.795959m. Speed=0.036000m/h.</desc>
<speed>0.010000</speed>
</trkpt>
<trkpt lat="56.066479" lon="26.507702">
<ele>95.790100</ele>
<time>2010-08-29T11:20:30Z</time>
<desc>lat.=56.066479, lon.=26.507702, Alt.=95.790100m. Speed=0.072000m/h.</desc>
<speed>0.020000</speed>
</trkpt>
<trkpt lat="56.066479" lon="26.507702">
<ele>95.786194</ele>
<time>2010-08-29T11:20:31Z</time>
<desc>lat.=56.066479, lon.=26.507702, Alt.=95.786194m. Speed=0.036000m/h.</desc>
<speed>0.010000</speed>
</trkpt>
<trkpt lat="56.066479" lon="26.507702">
<ele>95.784241</ele>
<time>2010-08-29T11:20:32Z</time>
<desc>lat.=56.066479, lon.=26.507702, Alt.=95.784241m. Speed=0.036000m/h.</desc>
<speed>0.010000</speed>
</trkpt>
<trkpt lat="56.066479" lon="26.507702">
<ele>95.782288</ele>
<time>2010-08-29T11:20:33Z</time>
<desc>lat.=56.066479, lon.=26.507702, Alt.=95.782288m. Speed=0.036000m/h.</desc>
<speed>0.010000</speed>
</trkpt>
<trkpt lat="56.066479" lon="26.507702">
<ele>95.754944</ele>
<time>2010-08-29T11:20:34Z</time>
<desc>lat.=56.066479, lon.=26.507702, Alt.=95.754944m. Speed=0.072000m/h.</desc>
<speed>0.020000</speed>
</trkpt>
<trkpt lat="56.066479" lon="26.507702">
<ele>95.729553</ele>
<time>2010-08-29T11:20:35Z</time>
<desc>lat.=56.066479, lon.=26.507702, Alt.=95.729553m. Speed=0.036000m/h.</desc>
<speed>0.010000</speed>
</trkpt>
<trkpt lat="56.066479" lon="26.507702">
<ele>95.739319</ele>
<time>2010-08-29T11:20:36Z</time>
<desc>lat.=56.066479, lon.=26.507702, Alt.=95.739319m. Speed=0.036000m/h.</desc>
<speed>0.010000</speed>
</trkpt>
<trkpt lat="56.066479" lon="26.507702">
<ele>95.731506</ele>
<time>2010-08-29T11:20:37Z</time>
<desc>lat.=56.066479, lon.=26.507702, Alt.=95.731506m. Speed=0.108000m/h.</desc>
<speed>0.030000</speed>
</trkpt>
<trkpt lat="56.066479" lon="26.507704">
<ele>95.729553</ele>
<time>2010-08-29T11:20:38Z</time>
<desc>lat.=56.066479, lon.=26.507704, Alt.=95.729553m. Speed=0.072000m/h.</desc>
<speed>0.020000</speed>
</trkpt>
<trkpt lat="56.066479" lon="26.507702">
<ele>95.713928</ele>
<time>2010-08-29T11:20:39Z</time>
<desc>lat.=56.066479, lon.=26.507702, Alt.=95.713928m. Speed=0.000000m/h.</desc>
<speed>0.000000</speed>
</trkpt>
<trkpt lat="56.066479" lon="26.507702">
<ele>95.713928</ele>
<time>2010-08-29T11:20:40Z</time>
<desc>lat.=56.066479, lon.=26.507702, Alt.=95.713928m. Speed=0.144000m/h.</desc>
<speed>0.040000</speed>
</trkpt>
<trkpt lat="56.066479" lon="26.507702">
<ele>95.686584</ele>
<time>2010-08-29T11:20:41Z</time>
<desc>lat.=56.066479, lon.=26.507702, Alt.=95.686584m. Speed=0.144000m/h.</desc>
<speed>0.040000</speed>
</trkpt>
<trkpt lat="56.066479" lon="26.507702">
<ele>95.659241</ele>
<time>2010-08-29T11:20:42Z</time>
<desc>lat.=56.066479, lon.=26.507702, Alt.=95.659241m. Speed=0.144000m/h.</desc>
<speed>0.040000</speed>
</trkpt>
<trkpt lat="56.066479" lon="26.507702">
<ele>95.626038</ele>
<time>2010-08-29T11:20:43Z</time>
<desc>lat.=56.066479, lon.=26.507702, Alt.=95.626038m. Speed=0.036000m/h.</desc>
<speed>0.010000</speed>
</trkpt>
<trkpt lat="56.066479" lon="26.507702">
<ele>95.579163</ele>
<time>2010-08-29T11:20:44Z</time>
<desc>lat.=56.066479, lon.=26.507702, Alt.=95.579163m. Speed=0.036000m/h.</desc>
<speed>0.010000</speed>
</trkpt>
<trkpt lat="56.066479" lon="26.507702">
<ele>95.534241</ele>
<time>2010-08-29T11:20:45Z</time>
<desc>lat.=56.066479, lon.=26.507702, Alt.=95.534241m. Speed=0.036000m/h.</desc>
<speed>0.010000</speed>
</trkpt>
<trkpt lat="56.066479" lon="26.507702">
<ele>95.502991</ele>
<time>2010-08-29T11:20:46Z</time>
<desc>lat.=56.066479, lon.=26.507702, Alt.=95.502991m. Speed=0.072000m/h.</desc>
<speed>0.020000</speed>
</trkpt>
<trkpt lat="56.066479" lon="26.507702">
<ele>95.461975</ele>
<time>2010-08-29T11:20:47Z</time>
<desc>lat.=56.066479, lon.=26.507702, Alt.=95.461975m. Speed=0.108000m/h.</desc>
<speed>0.030000</speed>
</trkpt>
<trkpt lat="56.066479" lon="26.507700">
<ele>95.422913</ele>
<time>2010-08-29T11:20:48Z</time>
<desc>lat.=56.066479, lon.=26.507700, Alt.=95.422913m. Speed=0.036000m/h.</desc>
<speed>0.010000</speed>
</trkpt>
<trkpt lat="56.066479" lon="26.507700">
<ele>95.409241</ele>
<time>2010-08-29T11:20:49Z</time>
<desc>lat.=56.066479, lon.=26.507700, Alt.=95.409241m. Speed=0.036000m/h.</desc>
<speed>0.010000</speed>
</trkpt>
<trkpt lat="56.066479" lon="26.507700">
<ele>95.391663</ele>
<time>2010-08-29T11:20:50Z</time>
<desc>lat.=56.066479, lon.=26.507700, Alt.=95.391663m. Speed=0.000000m/h.</desc>
<speed>0.000000</speed>
</trkpt>
<trkpt lat="56.066479" lon="26.507700">
<ele>95.385803</ele>
<time>2010-08-29T11:20:51Z</time>
<desc>lat.=56.066479, lon.=26.507700, Alt.=95.385803m. Speed=0.072000m/h.</desc>
<speed>0.020000</speed>
</trkpt>
<trkpt lat="56.066479" lon="26.507700">
<ele>95.372131</ele>
<time>2010-08-29T11:20:52Z</time>
<desc>lat.=56.066479, lon.=26.507700, Alt.=95.372131m. Speed=0.072000m/h.</desc>
<speed>0.020000</speed>
</trkpt>
<trkpt lat="56.066479" lon="26.507700">
<ele>95.350647</ele>
<time>2010-08-29T11:20:53Z</time>
<desc>lat.=56.066479, lon.=26.507700, Alt.=95.350647m. Speed=0.072000m/h.</desc>
<speed>0.020000</speed>
</trkpt>
<trkpt lat="56.066479" lon="26.507700">
<ele>95.311584</ele>
<time>2010-08-29T11:20:54Z</time>
<desc>lat.=56.066479, lon.=26.507700, Alt.=95.311584m. Speed=0.036000m/h.</desc>
<speed>0.010000</speed>
</trkpt>
<trkpt lat="56.066479" lon="26.507700">
<ele>95.288147</ele>
<time>2010-08-29T11:20:55Z</time>
<desc>lat.=56.066479, lon.=26.507700, Alt.=95.288147m. Speed=0.108000m/h.</desc>
<speed>0.030000</speed>
</trkpt>
<trkpt lat="56.066479" lon="26.507700">
<ele>95.260803</ele>
<time>2010-08-29T11:20:56Z</time>
<desc>lat.=56.066479, lon.=26.507700, Alt.=95.260803m. Speed=0.036000m/h.</desc>
<speed>0.010000</speed>
</trkpt>
<trkpt lat="56.066479" lon="26.507700">
<ele>95.243225</ele>
<time>2010-08-29T11:20:57Z</time>
<desc>lat.=56.066479, lon.=26.507700, Alt.=95.243225m. Speed=0.072000m/h.</desc>
<speed>0.020000</speed>
</trkpt>
<trkpt lat="56.066479" lon="26.507700">
<ele>95.251038</ele>
<time>2010-08-29T11:20:58Z</time>
<desc>lat.=56.066479, lon.=26.507700, Alt.=95.251038m. Speed=0.036000m/h.</desc>
<speed>0.010000</speed>
</trkpt>
<trkpt lat="56.066479" lon="26.507700">
<ele>95.221741</ele>
<time>2010-08-29T11:20:59Z</time>
<desc>lat.=56.066479, lon.=26.507700, Alt.=95.221741m. Speed=0.000000m/h.</desc>
<speed>0.000000</speed>
</trkpt>
<trkpt lat="56.066479" lon="26.507700">
<ele>95.198303</ele>
<time>2010-08-29T11:21:00Z</time>
<desc>lat.=56.066479, lon.=26.507700, Alt.=95.198303m. Speed=0.036000m/h.</desc>
<speed>0.010000</speed>
</trkpt>
<trkpt lat="56.066479" lon="26.507700">
<ele>95.184631</ele>
<time>2010-08-29T11:21:01Z</time>
<desc>lat.=56.066479, lon.=26.507700, Alt.=95.184631m. Speed=0.072000m/h.</desc>
<speed>0.020000</speed>
</trkpt>
<trkpt lat="56.066479" lon="26.507700">
<ele>95.182678</ele>
<time>2010-08-29T11:21:02Z</time>
<desc>lat.=56.066479, lon.=26.507700, Alt.=95.182678m. Speed=0.036000m/h.</desc>
<speed>0.010000</speed>
</trkpt>
<trkpt lat="56.066479" lon="26.507700">
<ele>95.190491</ele>
<time>2010-08-29T11:21:03Z</time>
<desc>lat.=56.066479, lon.=26.507700, Alt.=95.190491m. Speed=0.180000m/h.</desc>
<speed>0.050000</speed>
</trkpt>
<trkpt lat="56.066479" lon="26.507700">
<ele>95.198303</ele>
<time>2010-08-29T11:21:04Z</time>
<desc>lat.=56.066479, lon.=26.507700, Alt.=95.198303m. Speed=0.144000m/h.</desc>
<speed>0.040000</speed>
</trkpt>
<trkpt lat="56.066479" lon="26.507700">
<ele>95.204163</ele>
<time>2010-08-29T11:21:05Z</time>
<desc>lat.=56.066479, lon.=26.507700, Alt.=95.204163m. Speed=0.036000m/h.</desc>
<speed>0.010000</speed>
</trkpt>
<trkpt lat="56.066479" lon="26.507700">
<ele>95.208069</ele>
<time>2010-08-29T11:21:06Z</time>
<desc>lat.=56.066479, lon.=26.507700, Alt.=95.208069m. Speed=0.072000m/h.</desc>
<speed>0.020000</speed>
</trkpt>
<trkpt lat="56.066479" lon="26.507700">
<ele>95.206116</ele>
<time>2010-08-29T11:21:07Z</time>
<desc>lat.=56.066479, lon.=26.507700, Alt.=95.206116m. Speed=0.000000m/h.</desc>
<speed>0.000000</speed>
</trkpt>
<trkpt lat="56.066479" lon="26.507700">
<ele>95.204163</ele>
<time>2010-08-29T11:21:08Z</time>
<desc>lat.=56.066479, lon.=26.507700, Alt.=95.204163m. Speed=0.288000m/h.</desc>
<speed>0.080000</speed>
</trkpt>
<trkpt lat="56.066479" lon="26.507700">
<ele>95.202209</ele>
<time>2010-08-29T11:21:09Z</time>
<desc>lat.=56.066479, lon.=26.507700, Alt.=95.202209m. Speed=0.108000m/h.</desc>
<speed>0.030000</speed>
</trkpt>
<trkpt lat="56.066479" lon="26.507700">
<ele>95.206116</ele>
<time>2010-08-29T11:21:10Z</time>
<desc>lat.=56.066479, lon.=26.507700, Alt.=95.206116m. Speed=0.072000m/h.</desc>
<speed>0.020000</speed>
</trkpt>
<trkpt lat="56.066479" lon="26.507700">
<ele>95.211975</ele>
<time>2010-08-29T11:21:11Z</time>
<desc>lat.=56.066479, lon.=26.507700, Alt.=95.211975m. Speed=0.036000m/h.</desc>
<speed>0.010000</speed>
</trkpt>
<trkpt lat="56.066479" lon="26.507700">
<ele>95.215881</ele>
<time>2010-08-29T11:21:12Z</time>
<desc>lat.=56.066479, lon.=26.507700, Alt.=95.215881m. Speed=1.188000m/h.</desc>
<speed>0.330000</speed>
</trkpt>
<trkpt lat="56.066479" lon="26.507704">
<ele>95.237366</ele>
<time>2010-08-29T11:21:13Z</time>
<desc>lat.=56.066479, lon.=26.507704, Alt.=95.237366m. Speed=1.692000m/h.</desc>
<speed>0.470000</speed>
</trkpt>
<trkpt lat="56.066475" lon="26.507708">
<ele>95.629944</ele>
<time>2010-08-29T11:21:14Z</time>
<desc>lat.=56.066475, lon.=26.507708, Alt.=95.629944m. Speed=1.152000m/h.</desc>
<speed>0.320000</speed>
</trkpt>
<trkpt lat="56.066471" lon="26.507711">
<ele>95.999084</ele>
<time>2010-08-29T11:21:15Z</time>
<desc>lat.=56.066471, lon.=26.507711, Alt.=95.999084m. Speed=3.420000m/h.</desc>
<speed>0.950000</speed>
</trkpt>
<trkpt lat="56.066475" lon="26.507725">
<ele>96.208069</ele>
<time>2010-08-29T11:21:16Z</time>
<desc>lat.=56.066475, lon.=26.507725, Alt.=96.208069m. Speed=5.148000m/h.</desc>
<speed>1.430000</speed>
</trkpt>
<trkpt lat="56.066467" lon="26.507738">
<ele>96.426819</ele>
<time>2010-08-29T11:21:17Z</time>
<desc>lat.=56.066467, lon.=26.507738, Alt.=96.426819m. Speed=5.580000m/h.</desc>
<speed>1.550000</speed>
</trkpt>
<trkpt lat="56.066456" lon="26.507757">
<ele>96.520569</ele>
<time>2010-08-29T11:21:18Z</time>
<desc>lat.=56.066456, lon.=26.507757, Alt.=96.520569m. Speed=4.752000m/h.</desc>
<speed>1.320000</speed>
</trkpt>
<trkpt lat="56.066448" lon="26.507774">
<ele>96.489319</ele>
<time>2010-08-29T11:21:19Z</time>
<desc>lat.=56.066448, lon.=26.507774, Alt.=96.489319m. Speed=4.248000m/h.</desc>
<speed>1.180000</speed>
</trkpt>
<trkpt lat="56.066441" lon="26.507788">
<ele>96.561584</ele>
<time>2010-08-29T11:21:20Z</time>
<desc>lat.=56.066441, lon.=26.507788, Alt.=96.561584m. Speed=3.744000m/h.</desc>
<speed>1.040000</speed>
</trkpt>
<trkpt lat="56.066429" lon="26.507795">
<ele>96.631897</ele>
<time>2010-08-29T11:21:21Z</time>
<desc>lat.=56.066429, lon.=26.507795, Alt.=96.631897m. Speed=3.204000m/h.</desc>
<speed>0.890000</speed>
</trkpt>
<trkpt lat="56.066418" lon="26.507801">
<ele>96.610413</ele>
<time>2010-08-29T11:21:22Z</time>
<desc>lat.=56.066418, lon.=26.507801, Alt.=96.610413m. Speed=3.312000m/h.</desc>
<speed>0.920000</speed>
</trkpt>
<trkpt lat="56.066410" lon="26.507805">
<ele>96.585022</ele>
<time>2010-08-29T11:21:23Z</time>
<desc>lat.=56.066410, lon.=26.507805, Alt.=96.585022m. Speed=2.916000m/h.</desc>
<speed>0.810000</speed>
</trkpt>
<trkpt lat="56.066399" lon="26.507811">
<ele>96.639709</ele>
<time>2010-08-29T11:21:24Z</time>
<desc>lat.=56.066399, lon.=26.507811, Alt.=96.639709m. Speed=1.404000m/h.</desc>
<speed>0.390000</speed>
</trkpt>
<trkpt lat="56.066399" lon="26.507814">
<ele>96.702209</ele>
<time>2010-08-29T11:21:25Z</time>
<desc>lat.=56.066399, lon.=26.507814, Alt.=96.702209m. Speed=0.684000m/h.</desc>
<speed>0.190000</speed>
</trkpt>
<trkpt lat="56.066399" lon="26.507816">
<ele>96.735413</ele>
<time>2010-08-29T11:21:26Z</time>
<desc>lat.=56.066399, lon.=26.507816, Alt.=96.735413m. Speed=0.972000m/h.</desc>
<speed>0.270000</speed>
</trkpt>
<trkpt lat="56.066395" lon="26.507824">
<ele>96.801819</ele>
<time>2010-08-29T11:21:27Z</time>
<desc>lat.=56.066395, lon.=26.507824, Alt.=96.801819m. Speed=2.376000m/h.</desc>
<speed>0.660000</speed>
</trkpt>
<trkpt lat="56.066387" lon="26.507833">
<ele>96.905334</ele>
<time>2010-08-29T11:21:28Z</time>
<desc>lat.=56.066387, lon.=26.507833, Alt.=96.905334m. Speed=2.880000m/h.</desc>
<speed>0.800000</speed>
</trkpt>
<trkpt lat="56.066383" lon="26.507837">
<ele>96.979553</ele>
<time>2010-08-29T11:21:29Z</time>
<desc>lat.=56.066383, lon.=26.507837, Alt.=96.979553m. Speed=2.844000m/h.</desc>
<speed>0.790000</speed>
</trkpt>
<trkpt lat="56.066372" lon="26.507851">
<ele>97.014709</ele>
<time>2010-08-29T11:21:30Z</time>
<desc>lat.=56.066372, lon.=26.507851, Alt.=97.014709m. Speed=3.888000m/h.</desc>
<speed>1.080000</speed>
</trkpt>
<trkpt lat="56.066368" lon="26.507881">
<ele>96.965881</ele>
<time>2010-08-29T11:21:31Z</time>
<desc>lat.=56.066368, lon.=26.507881, Alt.=96.965881m. Speed=4.968000m/h.</desc>
<speed>1.380000</speed>
</trkpt>
<trkpt lat="56.066360" lon="26.507906">
<ele>97.006897</ele>
<time>2010-08-29T11:21:32Z</time>
<desc>lat.=56.066360, lon.=26.507906, Alt.=97.006897m. Speed=5.832000m/h.</desc>
<speed>1.620000</speed>
</trkpt>
<trkpt lat="56.066349" lon="26.507931">
<ele>97.112366</ele>
<time>2010-08-29T11:21:33Z</time>
<desc>lat.=56.066349, lon.=26.507931, Alt.=97.112366m. Speed=6.516000m/h.</desc>
<speed>1.810000</speed>
</trkpt>
<trkpt lat="56.066341" lon="26.507950">
<ele>97.165100</ele>
<time>2010-08-29T11:21:34Z</time>
<desc>lat.=56.066341, lon.=26.507950, Alt.=97.165100m. Speed=4.680000m/h.</desc>
<speed>1.300000</speed>
</trkpt>
<trkpt lat="56.066338" lon="26.507982">
<ele>97.008850</ele>
<time>2010-08-29T11:21:35Z</time>
<desc>lat.=56.066338, lon.=26.507982, Alt.=97.008850m. Speed=6.372000m/h.</desc>
<speed>1.770000</speed>
</trkpt>
<trkpt lat="56.066330" lon="26.508009">
<ele>96.737366</ele>
<time>2010-08-29T11:21:36Z</time>
<desc>lat.=56.066330, lon.=26.508009, Alt.=96.737366m. Speed=5.832000m/h.</desc>
<speed>1.620000</speed>
</trkpt>
<trkpt lat="56.066326" lon="26.508036">
<ele>96.532288</ele>
<time>2010-08-29T11:21:37Z</time>
<desc>lat.=56.066326, lon.=26.508036, Alt.=96.532288m. Speed=4.644000m/h.</desc>
<speed>1.290000</speed>
</trkpt>
<trkpt lat="56.066330" lon="26.508055">
<ele>96.489319</ele>
<time>2010-08-29T11:21:38Z</time>
<desc>lat.=56.066330, lon.=26.508055, Alt.=96.489319m. Speed=3.744000m/h.</desc>
<speed>1.040000</speed>
</trkpt>
<trkpt lat="56.066334" lon="26.508099">
<ele>96.516663</ele>
<time>2010-08-29T11:21:39Z</time>
<desc>lat.=56.066334, lon.=26.508099, Alt.=96.516663m. Speed=2.448000m/h.</desc>
<speed>0.680000</speed>
</trkpt>
<trkpt lat="56.066322" lon="26.508120">
<ele>96.352600</ele>
<time>2010-08-29T11:21:40Z</time>
<desc>lat.=56.066322, lon.=26.508120, Alt.=96.352600m. Speed=2.808000m/h.</desc>
<speed>0.780000</speed>
</trkpt>
<trkpt lat="56.066319" lon="26.508148">
<ele>97.836975</ele>
<time>2010-08-29T11:21:41Z</time>
<desc>lat.=56.066319, lon.=26.508148, Alt.=97.836975m. Speed=3.888000m/h.</desc>
<speed>1.080000</speed>
</trkpt>
<trkpt lat="56.066311" lon="26.508162">
<ele>97.592834</ele>
<time>2010-08-29T11:21:42Z</time>
<desc>lat.=56.066311, lon.=26.508162, Alt.=97.592834m. Speed=3.564000m/h.</desc>
<speed>0.990000</speed>
</trkpt>
<trkpt lat="56.066315" lon="26.508167">
<ele>97.358459</ele>
<time>2010-08-29T11:21:43Z</time>
<desc>lat.=56.066315, lon.=26.508167, Alt.=97.358459m. Speed=2.700000m/h.</desc>
<speed>0.750000</speed>
</trkpt>
<trkpt lat="56.066307" lon="26.508171">
<ele>96.977600</ele>
<time>2010-08-29T11:21:44Z</time>
<desc>lat.=56.066307, lon.=26.508171, Alt.=96.977600m. Speed=3.132000m/h.</desc>
<speed>0.870000</speed>
</trkpt>
<trkpt lat="56.066303" lon="26.508177">
<ele>96.907288</ele>
<time>2010-08-29T11:21:45Z</time>
<desc>lat.=56.066303, lon.=26.508177, Alt.=96.907288m. Speed=1.656000m/h.</desc>
<speed>0.460000</speed>
</trkpt>
<trkpt lat="56.066303" lon="26.508177">
<ele>96.766663</ele>
<time>2010-08-29T11:21:46Z</time>
<desc>lat.=56.066303, lon.=26.508177, Alt.=96.766663m. Speed=0.684000m/h.</desc>
<speed>0.190000</speed>
</trkpt>
<trkpt lat="56.066307" lon="26.508175">
<ele>96.756897</ele>
<time>2010-08-29T11:21:47Z</time>
<desc>lat.=56.066307, lon.=26.508175, Alt.=96.756897m. Speed=0.396000m/h.</desc>
<speed>0.110000</speed>
</trkpt>
<trkpt lat="56.066307" lon="26.508173">
<ele>96.792053</ele>
<time>2010-08-29T11:21:48Z</time>
<desc>lat.=56.066307, lon.=26.508173, Alt.=96.792053m. Speed=0.324000m/h.</desc>
<speed>0.090000</speed>
</trkpt>
<trkpt lat="56.066303" lon="26.508169">
<ele>96.963928</ele>
<time>2010-08-29T11:21:49Z</time>
<desc>lat.=56.066303, lon.=26.508169, Alt.=96.963928m. Speed=0.396000m/h.</desc>
<speed>0.110000</speed>
</trkpt>
<trkpt lat="56.066303" lon="26.508167">
<ele>96.815491</ele>
<time>2010-08-29T11:21:50Z</time>
<desc>lat.=56.066303, lon.=26.508167, Alt.=96.815491m. Speed=0.144000m/h.</desc>
<speed>0.040000</speed>
</trkpt>
<trkpt lat="56.066303" lon="26.508165">
<ele>96.692444</ele>
<time>2010-08-29T11:21:51Z</time>
<desc>lat.=56.066303, lon.=26.508165, Alt.=96.692444m. Speed=0.072000m/h.</desc>
<speed>0.020000</speed>
</trkpt>
<trkpt lat="56.066303" lon="26.508165">
<ele>96.594788</ele>
<time>2010-08-29T11:21:52Z</time>
<desc>lat.=56.066303, lon.=26.508165, Alt.=96.594788m. Speed=0.108000m/h.</desc>
<speed>0.030000</speed>
</trkpt>
<trkpt lat="56.066303" lon="26.508165">
<ele>96.508850</ele>
<time>2010-08-29T11:21:53Z</time>
<desc>lat.=56.066303, lon.=26.508165, Alt.=96.508850m. Speed=0.072000m/h.</desc>
<speed>0.020000</speed>
</trkpt>
<trkpt lat="56.066303" lon="26.508165">
<ele>96.436584</ele>
<time>2010-08-29T11:21:54Z</time>
<desc>lat.=56.066303, lon.=26.508165, Alt.=96.436584m. Speed=0.072000m/h.</desc>
<speed>0.020000</speed>
</trkpt>
<trkpt lat="56.066303" lon="26.508165">
<ele>96.372131</ele>
<time>2010-08-29T11:21:55Z</time>
<desc>lat.=56.066303, lon.=26.508165, Alt.=96.372131m. Speed=0.072000m/h.</desc>
<speed>0.020000</speed>
</trkpt>
<trkpt lat="56.066303" lon="26.508165">
<ele>96.317444</ele>
<time>2010-08-29T11:21:56Z</time>
<desc>lat.=56.066303, lon.=26.508165, Alt.=96.317444m. Speed=0.036000m/h.</desc>
<speed>0.010000</speed>
</trkpt>
<trkpt lat="56.066303" lon="26.508165">
<ele>96.274475</ele>
<time>2010-08-29T11:21:57Z</time>
<desc>lat.=56.066303, lon.=26.508165, Alt.=96.274475m. Speed=0.036000m/h.</desc>
<speed>0.010000</speed>
</trkpt>
<trkpt lat="56.066303" lon="26.508165">
<ele>96.223694</ele>
<time>2010-08-29T11:21:58Z</time>
<desc>lat.=56.066303, lon.=26.508165, Alt.=96.223694m. Speed=0.036000m/h.</desc>
<speed>0.010000</speed>
</trkpt>
<trkpt lat="56.066303" lon="26.508165">
<ele>96.182678</ele>
<time>2010-08-29T11:21:59Z</time>
<desc>lat.=56.066303, lon.=26.508165, Alt.=96.182678m. Speed=0.000000m/h.</desc>
<speed>0.000000</speed>
</trkpt>
<trkpt lat="56.066303" lon="26.508165">
<ele>96.153381</ele>
<time>2010-08-29T11:22:00Z</time>
<desc>lat.=56.066303, lon.=26.508165, Alt.=96.153381m. Speed=0.036000m/h.</desc>
<speed>0.010000</speed>
</trkpt>
<trkpt lat="56.066303" lon="26.508165">
<ele>96.118225</ele>
<time>2010-08-29T11:22:01Z</time>
<desc>lat.=56.066303, lon.=26.508165, Alt.=96.118225m. Speed=0.000000m/h.</desc>
<speed>0.000000</speed>
</trkpt>
<trkpt lat="56.066303" lon="26.508165">
<ele>96.096741</ele>
<time>2010-08-29T11:22:02Z</time>
<desc>lat.=56.066303, lon.=26.508165, Alt.=96.096741m. Speed=0.036000m/h.</desc>
<speed>0.010000</speed>
</trkpt>
<trkpt lat="56.066303" lon="26.508165">
<ele>96.092834</ele>
<time>2010-08-29T11:22:03Z</time>
<desc>lat.=56.066303, lon.=26.508165, Alt.=96.092834m. Speed=0.036000m/h.</desc>
<speed>0.010000</speed>
</trkpt>
<trkpt lat="56.066303" lon="26.508165">
<ele>96.092834</ele>
<time>2010-08-29T11:22:04Z</time>
<desc>lat.=56.066303, lon.=26.508165, Alt.=96.092834m. Speed=0.000000m/h.</desc>
<speed>0.000000</speed>
</trkpt>
<trkpt lat="56.066303" lon="26.508165">
<ele>96.094788</ele>
<time>2010-08-29T11:22:05Z</time>
<desc>lat.=56.066303, lon.=26.508165, Alt.=96.094788m. Speed=0.036000m/h.</desc>
<speed>0.010000</speed>
</trkpt>
<trkpt lat="56.066303" lon="26.508165">
<ele>96.092834</ele>
<time>2010-08-29T11:22:06Z</time>
<desc>lat.=56.066303, lon.=26.508165, Alt.=96.092834m. Speed=0.000000m/h.</desc>
<speed>0.000000</speed>
</trkpt>
<trkpt lat="56.066303" lon="26.508165">
<ele>96.092834</ele>
<time>2010-08-29T11:22:07Z</time>
<desc>lat.=56.066303, lon.=26.508165, Alt.=96.092834m. Speed=0.036000m/h.</desc>
<speed>0.010000</speed>
</trkpt>
<trkpt lat="56.066303" lon="26.508165">
<ele>96.090881</ele>
<time>2010-08-29T11:22:08Z</time>
<desc>lat.=56.066303, lon.=26.508165, Alt.=96.090881m. Speed=0.036000m/h.</desc>
<speed>0.010000</speed>
</trkpt>
<trkpt lat="56.066303" lon="26.508165">
<ele>96.088928</ele>
<time>2010-08-29T11:22:09Z</time>
<desc>lat.=56.066303, lon.=26.508165, Alt.=96.088928m. Speed=0.000000m/h.</desc>
<speed>0.000000</speed>
</trkpt>
<trkpt lat="56.066303" lon="26.508165">
<ele>96.088928</ele>
<time>2010-08-29T11:22:10Z</time>
<desc>lat.=56.066303, lon.=26.508165, Alt.=96.088928m. Speed=0.000000m/h.</desc>
<speed>0.000000</speed>
</trkpt>
<trkpt lat="56.066303" lon="26.508165">
<ele>96.088928</ele>
<time>2010-08-29T11:22:11Z</time>
<desc>lat.=56.066303, lon.=26.508165, Alt.=96.088928m. Speed=0.000000m/h.</desc>
<speed>0.000000</speed>
</trkpt>
<trkpt lat="56.066303" lon="26.508165">
<ele>96.088928</ele>
<time>2010-08-29T11:22:12Z</time>
<desc>lat.=56.066303, lon.=26.508165, Alt.=96.088928m. Speed=0.000000m/h.</desc>
<speed>0.000000</speed>
</trkpt>
<trkpt lat="56.066303" lon="26.508165">
<ele>96.088928</ele>
<time>2010-08-29T11:22:13Z</time>
<desc>lat.=56.066303, lon.=26.508165, Alt.=96.088928m. Speed=0.036000m/h.</desc>
<speed>0.010000</speed>
</trkpt>
<trkpt lat="56.066303" lon="26.508165">
<ele>96.083069</ele>
<time>2010-08-29T11:22:14Z</time>
<desc>lat.=56.066303, lon.=26.508165, Alt.=96.083069m. Speed=0.036000m/h.</desc>
<speed>0.010000</speed>
</trkpt>
<trkpt lat="56.066303" lon="26.508165">
<ele>96.083069</ele>
<time>2010-08-29T11:22:15Z</time>
<desc>lat.=56.066303, lon.=26.508165, Alt.=96.083069m. Speed=0.000000m/h.</desc>
<speed>0.000000</speed>
</trkpt>
<trkpt lat="56.066303" lon="26.508165">
<ele>96.083069</ele>
<time>2010-08-29T11:22:16Z</time>
<desc>lat.=56.066303, lon.=26.508165, Alt.=96.083069m. Speed=0.000000m/h.</desc>
<speed>0.000000</speed>
</trkpt>
<trkpt lat="56.066303" lon="26.508165">
<ele>96.085022</ele>
<time>2010-08-29T11:22:17Z</time>
<desc>lat.=56.066303, lon.=26.508165, Alt.=96.085022m. Speed=0.036000m/h.</desc>
<speed>0.010000</speed>
</trkpt>
<trkpt lat="56.066303" lon="26.508165">
<ele>96.092834</ele>
<time>2010-08-29T11:22:18Z</time>
<desc>lat.=56.066303, lon.=26.508165, Alt.=96.092834m. Speed=0.036000m/h.</desc>
<speed>0.010000</speed>
</trkpt>
<trkpt lat="56.066303" lon="26.508165">
<ele>96.102600</ele>
<time>2010-08-29T11:22:19Z</time>
<desc>lat.=56.066303, lon.=26.508165, Alt.=96.102600m. Speed=0.000000m/h.</desc>
<speed>0.000000</speed>
</trkpt>
<trkpt lat="56.066303" lon="26.508165">
<ele>96.102600</ele>
<time>2010-08-29T11:22:20Z</time>
<desc>lat.=56.066303, lon.=26.508165, Alt.=96.102600m. Speed=0.036000m/h.</desc>
<speed>0.010000</speed>
</trkpt>
<trkpt lat="56.066303" lon="26.508165">
<ele>96.102600</ele>
<time>2010-08-29T11:22:21Z</time>
<desc>lat.=56.066303, lon.=26.508165, Alt.=96.102600m. Speed=0.000000m/h.</desc>
<speed>0.000000</speed>
</trkpt>
<trkpt lat="56.066303" lon="26.508165">
<ele>96.102600</ele>
<time>2010-08-29T11:22:22Z</time>
<desc>lat.=56.066303, lon.=26.508165, Alt.=96.102600m. Speed=0.000000m/h.</desc>
<speed>0.000000</speed>
</trkpt>
<trkpt lat="56.066303" lon="26.508165">
<ele>96.104553</ele>
<time>2010-08-29T11:22:23Z</time>
<desc>lat.=56.066303, lon.=26.508165, Alt.=96.104553m. Speed=0.000000m/h.</desc>
<speed>0.000000</speed>
</trkpt>
<trkpt lat="56.066303" lon="26.508165">
<ele>96.106506</ele>
<time>2010-08-29T11:22:24Z</time>
<desc>lat.=56.066303, lon.=26.508165, Alt.=96.106506m. Speed=0.000000m/h.</desc>
<speed>0.000000</speed>
</trkpt>
<trkpt lat="56.066303" lon="26.508165">
<ele>96.106506</ele>
<time>2010-08-29T11:22:25Z</time>
<desc>lat.=56.066303, lon.=26.508165, Alt.=96.106506m. Speed=0.000000m/h.</desc>
<speed>0.000000</speed>
</trkpt>
<trkpt lat="56.066303" lon="26.508165">
<ele>96.104553</ele>
<time>2010-08-29T11:22:26Z</time>
<desc>lat.=56.066303, lon.=26.508165, Alt.=96.104553m. Speed=0.000000m/h.</desc>
<speed>0.000000</speed>
</trkpt>
<trkpt lat="56.066303" lon="26.508165">
<ele>96.102600</ele>
<time>2010-08-29T11:22:27Z</time>
<desc>lat.=56.066303, lon.=26.508165, Alt.=96.102600m. Speed=0.000000m/h.</desc>
<speed>0.000000</speed>
</trkpt>
<trkpt lat="56.066303" lon="26.508165">
<ele>96.104553</ele>
<time>2010-08-29T11:22:28Z</time>
<desc>lat.=56.066303, lon.=26.508165, Alt.=96.104553m. Speed=0.000000m/h.</desc>
<speed>0.000000</speed>
</trkpt>
<trkpt lat="56.066303" lon="26.508165">
<ele>96.102600</ele>
<time>2010-08-29T11:22:29Z</time>
<desc>lat.=56.066303, lon.=26.508165, Alt.=96.102600m. Speed=0.000000m/h.</desc>
<speed>0.000000</speed>
</trkpt>
<trkpt lat="56.066303" lon="26.508165">
<ele>96.100647</ele>
<time>2010-08-29T11:22:30Z</time>
<desc>lat.=56.066303, lon.=26.508165, Alt.=96.100647m. Speed=0.000000m/h.</desc>
<speed>0.000000</speed>
</trkpt>
<trkpt lat="56.066303" lon="26.508165">
<ele>96.098694</ele>
<time>2010-08-29T11:22:31Z</time>
<desc>lat.=56.066303, lon.=26.508165, Alt.=96.098694m. Speed=0.000000m/h.</desc>
<speed>0.000000</speed>
</trkpt>
<trkpt lat="56.066303" lon="26.508165">
<ele>96.092834</ele>
<time>2010-08-29T11:22:32Z</time>
<desc>lat.=56.066303, lon.=26.508165, Alt.=96.092834m. Speed=0.000000m/h.</desc>
<speed>0.000000</speed>
</trkpt>
<trkpt lat="56.066303" lon="26.508163">
<ele>96.086975</ele>
<time>2010-08-29T11:22:33Z</time>
<desc>lat.=56.066303, lon.=26.508163, Alt.=96.086975m. Speed=0.000000m/h.</desc>
<speed>0.000000</speed>
</trkpt>
<trkpt lat="56.066303" lon="26.508163">
<ele>96.085022</ele>
<time>2010-08-29T11:22:34Z</time>
<desc>lat.=56.066303, lon.=26.508163, Alt.=96.085022m. Speed=0.000000m/h.</desc>
<speed>0.000000</speed>
</trkpt>
<trkpt lat="56.066303" lon="26.508163">
<ele>96.085022</ele>
<time>2010-08-29T11:22:35Z</time>
<desc>lat.=56.066303, lon.=26.508163, Alt.=96.085022m. Speed=0.000000m/h.</desc>
<speed>0.000000</speed>
</trkpt>
<trkpt lat="56.066303" lon="26.508163">
<ele>96.085022</ele>
<time>2010-08-29T11:22:36Z</time>
<desc>lat.=56.066303, lon.=26.508163, Alt.=96.085022m. Speed=0.000000m/h.</desc>
<speed>0.000000</speed>
</trkpt>
<trkpt lat="56.066303" lon="26.508163">
<ele>96.083069</ele>
<time>2010-08-29T11:22:37Z</time>
<desc>lat.=56.066303, lon.=26.508163, Alt.=96.083069m. Speed=0.000000m/h.</desc>
<speed>0.000000</speed>
</trkpt>
<trkpt lat="56.066303" lon="26.508163">
<ele>96.079163</ele>
<time>2010-08-29T11:22:38Z</time>
<desc>lat.=56.066303, lon.=26.508163, Alt.=96.079163m. Speed=0.000000m/h.</desc>
<speed>0.000000</speed>
</trkpt>
<trkpt lat="56.066303" lon="26.508163">
<ele>96.077209</ele>
<time>2010-08-29T11:22:39Z</time>
<desc>lat.=56.066303, lon.=26.508163, Alt.=96.077209m. Speed=0.000000m/h.</desc>
<speed>0.000000</speed>
</trkpt>
<trkpt lat="56.066303" lon="26.508163">
<ele>96.075256</ele>
<time>2010-08-29T11:22:40Z</time>
<desc>lat.=56.066303, lon.=26.508163, Alt.=96.075256m. Speed=0.000000m/h.</desc>
<speed>0.000000</speed>
</trkpt>
<trkpt lat="56.066303" lon="26.508163">
<ele>96.073303</ele>
<time>2010-08-29T11:22:41Z</time>
<desc>lat.=56.066303, lon.=26.508163, Alt.=96.073303m. Speed=0.000000m/h.</desc>
<speed>0.000000</speed>
</trkpt>
<trkpt lat="56.066303" lon="26.508163">
<ele>96.071350</ele>
<time>2010-08-29T11:22:42Z</time>
<desc>lat.=56.066303, lon.=26.508163, Alt.=96.071350m. Speed=0.000000m/h.</desc>
<speed>0.000000</speed>
</trkpt>
<trkpt lat="56.066303" lon="26.508163">
<ele>96.071350</ele>
<time>2010-08-29T11:22:43Z</time>
<desc>lat.=56.066303, lon.=26.508163, Alt.=96.071350m. Speed=0.000000m/h.</desc>
<speed>0.000000</speed>
</trkpt>
<trkpt lat="56.066303" lon="26.508163">
<ele>96.073303</ele>
<time>2010-08-29T11:22:44Z</time>
<desc>lat.=56.066303, lon.=26.508163, Alt.=96.073303m. Speed=0.000000m/h.</desc>
<speed>0.000000</speed>
</trkpt>
<trkpt lat="56.066303" lon="26.508163">
<ele>96.073303</ele>
<time>2010-08-29T11:22:45Z</time>
<desc>lat.=56.066303, lon.=26.508163, Alt.=96.073303m. Speed=0.000000m/h.</desc>
<speed>0.000000</speed>
</trkpt>
<trkpt lat="56.066303" lon="26.508163">
<ele>96.077209</ele>
<time>2010-08-29T11:22:46Z</time>
<desc>lat.=56.066303, lon.=26.508163, Alt.=96.077209m. Speed=0.000000m/h.</desc>
<speed>0.000000</speed>
</trkpt>
<trkpt lat="56.066303" lon="26.508163">
<ele>96.077209</ele>
<time>2010-08-29T11:22:47Z</time>
<desc>lat.=56.066303, lon.=26.508163, Alt.=96.077209m. Speed=0.000000m/h.</desc>
<speed>0.000000</speed>
</trkpt>
<trkpt lat="56.066303" lon="26.508163">
<ele>96.077209</ele>
<time>2010-08-29T11:22:48Z</time>
<desc>lat.=56.066303, lon.=26.508163, Alt.=96.077209m. Speed=0.000000m/h.</desc>
<speed>0.000000</speed>
</trkpt>
<trkpt lat="56.066303" lon="26.508163">
<ele>96.079163</ele>
<time>2010-08-29T11:22:49Z</time>
<desc>lat.=56.066303, lon.=26.508163, Alt.=96.079163m. Speed=0.000000m/h.</desc>
<speed>0.000000</speed>
</trkpt>
<trkpt lat="56.066303" lon="26.508163">
<ele>96.081116</ele>
<time>2010-08-29T11:22:50Z</time>
<desc>lat.=56.066303, lon.=26.508163, Alt.=96.081116m. Speed=0.000000m/h.</desc>
<speed>0.000000</speed>
</trkpt>
<trkpt lat="56.066303" lon="26.508163">
<ele>96.081116</ele>
<time>2010-08-29T11:22:51Z</time>
<desc>lat.=56.066303, lon.=26.508163, Alt.=96.081116m. Speed=0.000000m/h.</desc>
<speed>0.000000</speed>
</trkpt>
<trkpt lat="56.066303" lon="26.508163">
<ele>96.081116</ele>
<time>2010-08-29T11:22:52Z</time>
<desc>lat.=56.066303, lon.=26.508163, Alt.=96.081116m. Speed=0.000000m/h.</desc>
<speed>0.000000</speed>
</trkpt>
<trkpt lat="56.066303" lon="26.508163">
<ele>96.079163</ele>
<time>2010-08-29T11:22:53Z</time>
<desc>lat.=56.066303, lon.=26.508163, Alt.=96.079163m. Speed=0.000000m/h.</desc>
<speed>0.000000</speed>
</trkpt>
<trkpt lat="56.066303" lon="26.508163">
<ele>96.077209</ele>
<time>2010-08-29T11:22:54Z</time>
<desc>lat.=56.066303, lon.=26.508163, Alt.=96.077209m. Speed=0.000000m/h.</desc>
<speed>0.000000</speed>
</trkpt>
<trkpt lat="56.066303" lon="26.508163">
<ele>96.079163</ele>
<time>2010-08-29T11:22:55Z</time>
<desc>lat.=56.066303, lon.=26.508163, Alt.=96.079163m. Speed=0.000000m/h.</desc>
<speed>0.000000</speed>
</trkpt>
<trkpt lat="56.066303" lon="26.508163">
<ele>96.079163</ele>
<time>2010-08-29T11:22:56Z</time>
<desc>lat.=56.066303, lon.=26.508163, Alt.=96.079163m. Speed=0.000000m/h.</desc>
<speed>0.000000</speed>
</trkpt>
<trkpt lat="56.066303" lon="26.508163">
<ele>96.083069</ele>
<time>2010-08-29T11:22:57Z</time>
<desc>lat.=56.066303, lon.=26.508163, Alt.=96.083069m. Speed=0.000000m/h.</desc>
<speed>0.000000</speed>
</trkpt>
<trkpt lat="56.066303" lon="26.508163">
<ele>96.083069</ele>
<time>2010-08-29T11:22:58Z</time>
<desc>lat.=56.066303, lon.=26.508163, Alt.=96.083069m. Speed=0.000000m/h.</desc>
<speed>0.000000</speed>
</trkpt>
<trkpt lat="56.066303" lon="26.508163">
<ele>96.088928</ele>
<time>2010-08-29T11:22:59Z</time>
<desc>lat.=56.066303, lon.=26.508163, Alt.=96.088928m. Speed=0.000000m/h.</desc>
<speed>0.000000</speed>
</trkpt>
<trkpt lat="56.066303" lon="26.508163">
<ele>96.088928</ele>
<time>2010-08-29T11:23:00Z</time>
<desc>lat.=56.066303, lon.=26.508163, Alt.=96.088928m. Speed=0.000000m/h.</desc>
<speed>0.000000</speed>
</trkpt>
<trkpt lat="56.066303" lon="26.508163">
<ele>96.090881</ele>
<time>2010-08-29T11:23:01Z</time>
<desc>lat.=56.066303, lon.=26.508163, Alt.=96.090881m. Speed=0.000000m/h.</desc>
<speed>0.000000</speed>
</trkpt>
<trkpt lat="56.066303" lon="26.508163">
<ele>96.090881</ele>
<time>2010-08-29T11:23:02Z</time>
<desc>lat.=56.066303, lon.=26.508163, Alt.=96.090881m. Speed=0.000000m/h.</desc>
<speed>0.000000</speed>
</trkpt>
<trkpt lat="56.066303" lon="26.508163">
<ele>96.090881</ele>
<time>2010-08-29T11:23:03Z</time>
<desc>lat.=56.066303, lon.=26.508163, Alt.=96.090881m. Speed=0.000000m/h.</desc>
<speed>0.000000</speed>
</trkpt>
<trkpt lat="56.066303" lon="26.508163">
<ele>96.092834</ele>
<time>2010-08-29T11:23:04Z</time>
<desc>lat.=56.066303, lon.=26.508163, Alt.=96.092834m. Speed=0.000000m/h.</desc>
<speed>0.000000</speed>
</trkpt>
<trkpt lat="56.066303" lon="26.508163">
<ele>96.092834</ele>
<time>2010-08-29T11:23:05Z</time>
<desc>lat.=56.066303, lon.=26.508163, Alt.=96.092834m. Speed=0.000000m/h.</desc>
<speed>0.000000</speed>
</trkpt>
<trkpt lat="56.066303" lon="26.508163">
<ele>96.092834</ele>
<time>2010-08-29T11:23:06Z</time>
<desc>lat.=56.066303, lon.=26.508163, Alt.=96.092834m. Speed=0.000000m/h.</desc>
<speed>0.000000</speed>
</trkpt>
<trkpt lat="56.066303" lon="26.508163">
<ele>96.092834</ele>
<time>2010-08-29T11:23:07Z</time>
<desc>lat.=56.066303, lon.=26.508163, Alt.=96.092834m. Speed=0.000000m/h.</desc>
<speed>0.000000</speed>
</trkpt>
<trkpt lat="56.066303" lon="26.508163">
<ele>96.090881</ele>
<time>2010-08-29T11:23:08Z</time>
<desc>lat.=56.066303, lon.=26.508163, Alt.=96.090881m. Speed=0.000000m/h.</desc>
<speed>0.000000</speed>
</trkpt>
<trkpt lat="56.066303" lon="26.508163">
<ele>96.085022</ele>
<time>2010-08-29T11:23:09Z</time>
<desc>lat.=56.066303, lon.=26.508163, Alt.=96.085022m. Speed=0.000000m/h.</desc>
<speed>0.000000</speed>
</trkpt>
<trkpt lat="56.066303" lon="26.508163">
<ele>96.083069</ele>
<time>2010-08-29T11:23:10Z</time>
<desc>lat.=56.066303, lon.=26.508163, Alt.=96.083069m. Speed=0.000000m/h.</desc>
<speed>0.000000</speed>
</trkpt>
<trkpt lat="56.066303" lon="26.508162">
<ele>96.077209</ele>
<time>2010-08-29T11:23:11Z</time>
<desc>lat.=56.066303, lon.=26.508162, Alt.=96.077209m. Speed=0.000000m/h.</desc>
<speed>0.000000</speed>
</trkpt>
<trkpt lat="56.066303" lon="26.508162">
<ele>96.071350</ele>
<time>2010-08-29T11:23:12Z</time>
<desc>lat.=56.066303, lon.=26.508162, Alt.=96.071350m. Speed=0.000000m/h.</desc>
<speed>0.000000</speed>
</trkpt>
<trkpt lat="56.066303" lon="26.508162">
<ele>96.065491</ele>
<time>2010-08-29T11:23:13Z</time>
<desc>lat.=56.066303, lon.=26.508162, Alt.=96.065491m. Speed=0.000000m/h.</desc>
<speed>0.000000</speed>
</trkpt>
<trkpt lat="56.066303" lon="26.508162">
<ele>96.057678</ele>
<time>2010-08-29T11:23:14Z</time>
<desc>lat.=56.066303, lon.=26.508162, Alt.=96.057678m. Speed=0.000000m/h.</desc>
<speed>0.000000</speed>
</trkpt>
<trkpt lat="56.066303" lon="26.508162">
<ele>96.051819</ele>
<time>2010-08-29T11:23:15Z</time>
<desc>lat.=56.066303, lon.=26.508162, Alt.=96.051819m. Speed=0.000000m/h.</desc>
<speed>0.000000</speed>
</trkpt>
<trkpt lat="56.066303" lon="26.508162">
<ele>96.044006</ele>
<time>2010-08-29T11:23:16Z</time>
<desc>lat.=56.066303, lon.=26.508162, Alt.=96.044006m. Speed=0.000000m/h.</desc>
<speed>0.000000</speed>
</trkpt>
<trkpt lat="56.066303" lon="26.508162">
<ele>96.036194</ele>
<time>2010-08-29T11:23:17Z</time>
<desc>lat.=56.066303, lon.=26.508162, Alt.=96.036194m. Speed=0.000000m/h.</desc>
<speed>0.000000</speed>
</trkpt>
<trkpt lat="56.066303" lon="26.508162">
<ele>96.034241</ele>
<time>2010-08-29T11:23:18Z</time>
<desc>lat.=56.066303, lon.=26.508162, Alt.=96.034241m. Speed=0.000000m/h.</desc>
<speed>0.000000</speed>
</trkpt>
<trkpt lat="56.066303" lon="26.508162">
<ele>96.032288</ele>
<time>2010-08-29T11:23:19Z</time>
<desc>lat.=56.066303, lon.=26.508162, Alt.=96.032288m. Speed=0.000000m/h.</desc>
<speed>0.000000</speed>
</trkpt>
<trkpt lat="56.066303" lon="26.508162">
<ele>96.028381</ele>
<time>2010-08-29T11:23:20Z</time>
<desc>lat.=56.066303, lon.=26.508162, Alt.=96.028381m. Speed=0.000000m/h.</desc>
<speed>0.000000</speed>
</trkpt>
<trkpt lat="56.066303" lon="26.508162">
<ele>96.028381</ele>
<time>2010-08-29T11:23:21Z</time>
<desc>lat.=56.066303, lon.=26.508162, Alt.=96.028381m. Speed=0.000000m/h.</desc>
<speed>0.000000</speed>
</trkpt>
<trkpt lat="56.066303" lon="26.508162">
<ele>96.028381</ele>
<time>2010-08-29T11:23:22Z</time>
<desc>lat.=56.066303, lon.=26.508162, Alt.=96.028381m. Speed=0.000000m/h.</desc>
<speed>0.000000</speed>
</trkpt>
<trkpt lat="56.066303" lon="26.508162">
<ele>96.028381</ele>
<time>2010-08-29T11:23:23Z</time>
<desc>lat.=56.066303, lon.=26.508162, Alt.=96.028381m. Speed=0.000000m/h.</desc>
<speed>0.000000</speed>
</trkpt>
<trkpt lat="56.066303" lon="26.508162">
<ele>96.028381</ele>
<time>2010-08-29T11:23:24Z</time>
<desc>lat.=56.066303, lon.=26.508162, Alt.=96.028381m. Speed=0.000000m/h.</desc>
<speed>0.000000</speed>
</trkpt>
<trkpt lat="56.066303" lon="26.508162">
<ele>96.026428</ele>
<time>2010-08-29T11:23:25Z</time>
<desc>lat.=56.066303, lon.=26.508162, Alt.=96.026428m. Speed=0.000000m/h.</desc>
<speed>0.000000</speed>
</trkpt>
<trkpt lat="56.066303" lon="26.508162">
<ele>96.026428</ele>
<time>2010-08-29T11:23:26Z</time>
<desc>lat.=56.066303, lon.=26.508162, Alt.=96.026428m. Speed=0.000000m/h.</desc>
<speed>0.000000</speed>
</trkpt>
<trkpt lat="56.066303" lon="26.508162">
<ele>96.026428</ele>
<time>2010-08-29T11:23:27Z</time>
<desc>lat.=56.066303, lon.=26.508162, Alt.=96.026428m. Speed=0.000000m/h.</desc>
<speed>0.000000</speed>
</trkpt>
<trkpt lat="56.066303" lon="26.508162">
<ele>96.026428</ele>
<time>2010-08-29T11:23:28Z</time>
<desc>lat.=56.066303, lon.=26.508162, Alt.=96.026428m. Speed=0.000000m/h.</desc>
<speed>0.000000</speed>
</trkpt>
<trkpt lat="56.066303" lon="26.508162">
<ele>96.022522</ele>
<time>2010-08-29T11:23:29Z</time>
<desc>lat.=56.066303, lon.=26.508162, Alt.=96.022522m. Speed=0.000000m/h.</desc>
<speed>0.000000</speed>
</trkpt>
<trkpt lat="56.066303" lon="26.508162">
<ele>96.020569</ele>
<time>2010-08-29T11:23:30Z</time>
<desc>lat.=56.066303, lon.=26.508162, Alt.=96.020569m. Speed=0.000000m/h.</desc>
<speed>0.000000</speed>
</trkpt>
<trkpt lat="56.066303" lon="26.508162">
<ele>96.018616</ele>
<time>2010-08-29T11:23:31Z</time>
<desc>lat.=56.066303, lon.=26.508162, Alt.=96.018616m. Speed=0.000000m/h.</desc>
<speed>0.000000</speed>
</trkpt>
<trkpt lat="56.066303" lon="26.508162">
<ele>96.018616</ele>
<time>2010-08-29T11:23:32Z</time>
<desc>lat.=56.066303, lon.=26.508162, Alt.=96.018616m. Speed=0.000000m/h.</desc>
<speed>0.000000</speed>
</trkpt>
<trkpt lat="56.066303" lon="26.508162">
<ele>96.016663</ele>
<time>2010-08-29T11:23:33Z</time>
<desc>lat.=56.066303, lon.=26.508162, Alt.=96.016663m. Speed=0.000000m/h.</desc>
<speed>0.000000</speed>
</trkpt>
<trkpt lat="56.066303" lon="26.508162">
<ele>96.016663</ele>
<time>2010-08-29T11:23:34Z</time>
<desc>lat.=56.066303, lon.=26.508162, Alt.=96.016663m. Speed=0.000000m/h.</desc>
<speed>0.000000</speed>
</trkpt>
<trkpt lat="56.066303" lon="26.508162">
<ele>96.016663</ele>
<time>2010-08-29T11:23:35Z</time>
<desc>lat.=56.066303, lon.=26.508162, Alt.=96.016663m. Speed=0.000000m/h.</desc>
<speed>0.000000</speed>
</trkpt>
<trkpt lat="56.066303" lon="26.508162">
<ele>96.016663</ele>
<time>2010-08-29T11:23:36Z</time>
<desc>lat.=56.066303, lon.=26.508162, Alt.=96.016663m. Speed=0.000000m/h.</desc>
<speed>0.000000</speed>
</trkpt>
<trkpt lat="56.066303" lon="26.508162">
<ele>96.014709</ele>
<time>2010-08-29T11:23:37Z</time>
<desc>lat.=56.066303, lon.=26.508162, Alt.=96.014709m. Speed=0.000000m/h.</desc>
<speed>0.000000</speed>
</trkpt>
<trkpt lat="56.066303" lon="26.508162">
<ele>96.016663</ele>
<time>2010-08-29T11:23:38Z</time>
<desc>lat.=56.066303, lon.=26.508162, Alt.=96.016663m. Speed=0.000000m/h.</desc>
<speed>0.000000</speed>
</trkpt>
<trkpt lat="56.066303" lon="26.508162">
<ele>96.014709</ele>
<time>2010-08-29T11:23:39Z</time>
<desc>lat.=56.066303, lon.=26.508162, Alt.=96.014709m. Speed=0.000000m/h.</desc>
<speed>0.000000</speed>
</trkpt>
<trkpt lat="56.066303" lon="26.508162">
<ele>96.012756</ele>
<time>2010-08-29T11:23:40Z</time>
<desc>lat.=56.066303, lon.=26.508162, Alt.=96.012756m. Speed=0.000000m/h.</desc>
<speed>0.000000</speed>
</trkpt>
<trkpt lat="56.066303" lon="26.508162">
<ele>96.010803</ele>
<time>2010-08-29T11:23:41Z</time>
<desc>lat.=56.066303, lon.=26.508162, Alt.=96.010803m. Speed=0.000000m/h.</desc>
<speed>0.000000</speed>
</trkpt>
<trkpt lat="56.066303" lon="26.508162">
<ele>96.010803</ele>
<time>2010-08-29T11:23:42Z</time>
<desc>lat.=56.066303, lon.=26.508162, Alt.=96.010803m. Speed=0.000000m/h.</desc>
<speed>0.000000</speed>
</trkpt>
<trkpt lat="56.066303" lon="26.508162">
<ele>96.010803</ele>
<time>2010-08-29T11:23:43Z</time>
<desc>lat.=56.066303, lon.=26.508162, Alt.=96.010803m. Speed=0.000000m/h.</desc>
<speed>0.000000</speed>
</trkpt>
<trkpt lat="56.066303" lon="26.508162">
<ele>96.008850</ele>
<time>2010-08-29T11:23:44Z</time>
<desc>lat.=56.066303, lon.=26.508162, Alt.=96.008850m. Speed=0.000000m/h.</desc>
<speed>0.000000</speed>
</trkpt>
<trkpt lat="56.066303" lon="26.508162">
<ele>96.008850</ele>
<time>2010-08-29T11:23:45Z</time>
<desc>lat.=56.066303, lon.=26.508162, Alt.=96.008850m. Speed=0.000000m/h.</desc>
<speed>0.000000</speed>
</trkpt>
<trkpt lat="56.066303" lon="26.508162">
<ele>96.010803</ele>
<time>2010-08-29T11:23:46Z</time>
<desc>lat.=56.066303, lon.=26.508162, Alt.=96.010803m. Speed=0.000000m/h.</desc>
<speed>0.000000</speed>
</trkpt>
<trkpt lat="56.066303" lon="26.508162">
<ele>96.010803</ele>
<time>2010-08-29T11:23:47Z</time>
<desc>lat.=56.066303, lon.=26.508162, Alt.=96.010803m. Speed=0.000000m/h.</desc>
<speed>0.000000</speed>
</trkpt>
<trkpt lat="56.066303" lon="26.508162">
<ele>96.010803</ele>
<time>2010-08-29T11:23:48Z</time>
<desc>lat.=56.066303, lon.=26.508162, Alt.=96.010803m. Speed=0.000000m/h.</desc>
<speed>0.000000</speed>
</trkpt>
<trkpt lat="56.066303" lon="26.508162">
<ele>96.010803</ele>
<time>2010-08-29T11:23:49Z</time>
<desc>lat.=56.066303, lon.=26.508162, Alt.=96.010803m. Speed=0.000000m/h.</desc>
<speed>0.000000</speed>
</trkpt>
<trkpt lat="56.066303" lon="26.508162">
<ele>96.010803</ele>
<time>2010-08-29T11:23:50Z</time>
<desc>lat.=56.066303, lon.=26.508162, Alt.=96.010803m. Speed=0.000000m/h.</desc>
<speed>0.000000</speed>
</trkpt>
<trkpt lat="56.066303" lon="26.508162">
<ele>96.010803</ele>
<time>2010-08-29T11:23:51Z</time>
<desc>lat.=56.066303, lon.=26.508162, Alt.=96.010803m. Speed=0.000000m/h.</desc>
<speed>0.000000</speed>
</trkpt>
<trkpt lat="56.066303" lon="26.508162">
<ele>96.010803</ele>
<time>2010-08-29T11:23:52Z</time>
<desc>lat.=56.066303, lon.=26.508162, Alt.=96.010803m. Speed=0.000000m/h.</desc>
<speed>0.000000</speed>
</trkpt>
<trkpt lat="56.066303" lon="26.508162">
<ele>96.012756</ele>
<time>2010-08-29T11:23:53Z</time>
<desc>lat.=56.066303, lon.=26.508162, Alt.=96.012756m. Speed=0.000000m/h.</desc>
<speed>0.000000</speed>
</trkpt>
<trkpt lat="56.066303" lon="26.508162">
<ele>96.014709</ele>
<time>2010-08-29T11:23:54Z</time>
<desc>lat.=56.066303, lon.=26.508162, Alt.=96.014709m. Speed=0.000000m/h.</desc>
<speed>0.000000</speed>
</trkpt>
<trkpt lat="56.066303" lon="26.508162">
<ele>96.014709</ele>
<time>2010-08-29T11:23:55Z</time>
<desc>lat.=56.066303, lon.=26.508162, Alt.=96.014709m. Speed=0.000000m/h.</desc>
<speed>0.000000</speed>
</trkpt>
<trkpt lat="56.066303" lon="26.508162">
<ele>96.014709</ele>
<time>2010-08-29T11:23:56Z</time>
<desc>lat.=56.066303, lon.=26.508162, Alt.=96.014709m. Speed=0.000000m/h.</desc>
<speed>0.000000</speed>
</trkpt>
<trkpt lat="56.066303" lon="26.508162">
<ele>96.014709</ele>
<time>2010-08-29T11:23:57Z</time>
<desc>lat.=56.066303, lon.=26.508162, Alt.=96.014709m. Speed=0.000000m/h.</desc>
<speed>0.000000</speed>
</trkpt>
<trkpt lat="56.066303" lon="26.508162">
<ele>96.016663</ele>
<time>2010-08-29T11:23:58Z</time>
<desc>lat.=56.066303, lon.=26.508162, Alt.=96.016663m. Speed=0.000000m/h.</desc>
<speed>0.000000</speed>
</trkpt>
<trkpt lat="56.066303" lon="26.508162">
<ele>96.016663</ele>
<time>2010-08-29T11:23:59Z</time>
<desc>lat.=56.066303, lon.=26.508162, Alt.=96.016663m. Speed=0.000000m/h.</desc>
<speed>0.000000</speed>
</trkpt>
<trkpt lat="56.066303" lon="26.508162">
<ele>96.018616</ele>
<time>2010-08-29T11:24:00Z</time>
<desc>lat.=56.066303, lon.=26.508162, Alt.=96.018616m. Speed=0.000000m/h.</desc>
<speed>0.000000</speed>
</trkpt>
<trkpt lat="56.066303" lon="26.508162">
<ele>96.020569</ele>
<time>2010-08-29T11:24:01Z</time>
<desc>lat.=56.066303, lon.=26.508162, Alt.=96.020569m. Speed=0.000000m/h.</desc>
<speed>0.000000</speed>
</trkpt>
<trkpt lat="56.066303" lon="26.508162">
<ele>96.022522</ele>
<time>2010-08-29T11:24:02Z</time>
<desc>lat.=56.066303, lon.=26.508162, Alt.=96.022522m. Speed=0.000000m/h.</desc>
<speed>0.000000</speed>
</trkpt>
<trkpt lat="56.066303" lon="26.508162">
<ele>96.024475</ele>
<time>2010-08-29T11:24:03Z</time>
<desc>lat.=56.066303, lon.=26.508162, Alt.=96.024475m. Speed=0.000000m/h.</desc>
<speed>0.000000</speed>
</trkpt>
<trkpt lat="56.066303" lon="26.508162">
<ele>96.024475</ele>
<time>2010-08-29T11:24:04Z</time>
<desc>lat.=56.066303, lon.=26.508162, Alt.=96.024475m. Speed=0.000000m/h.</desc>
<speed>0.000000</speed>
</trkpt>
<trkpt lat="56.066303" lon="26.508162">
<ele>96.026428</ele>
<time>2010-08-29T11:24:05Z</time>
<desc>lat.=56.066303, lon.=26.508162, Alt.=96.026428m. Speed=0.000000m/h.</desc>
<speed>0.000000</speed>
</trkpt>
<trkpt lat="56.066303" lon="26.508162">
<ele>96.028381</ele>
<time>2010-08-29T11:24:06Z</time>
<desc>lat.=56.066303, lon.=26.508162, Alt.=96.028381m. Speed=0.000000m/h.</desc>
<speed>0.000000</speed>
</trkpt>
<trkpt lat="56.066303" lon="26.508162">
<ele>96.028381</ele>
<time>2010-08-29T11:24:07Z</time>
<desc>lat.=56.066303, lon.=26.508162, Alt.=96.028381m. Speed=0.000000m/h.</desc>
<speed>0.000000</speed>
</trkpt>
<trkpt lat="56.066303" lon="26.508162">
<ele>96.032288</ele>
<time>2010-08-29T11:24:08Z</time>
<desc>lat.=56.066303, lon.=26.508162, Alt.=96.032288m. Speed=0.000000m/h.</desc>
<speed>0.000000</speed>
</trkpt>
<trkpt lat="56.066303" lon="26.508162">
<ele>96.034241</ele>
<time>2010-08-29T11:24:09Z</time>
<desc>lat.=56.066303, lon.=26.508162, Alt.=96.034241m. Speed=0.000000m/h.</desc>
<speed>0.000000</speed>
</trkpt>
<trkpt lat="56.066303" lon="26.508162">
<ele>96.034241</ele>
<time>2010-08-29T11:24:10Z</time>
<desc>lat.=56.066303, lon.=26.508162, Alt.=96.034241m. Speed=0.000000m/h.</desc>
<speed>0.000000</speed>
</trkpt>
<trkpt lat="56.066303" lon="26.508162">
<ele>96.034241</ele>
<time>2010-08-29T11:24:11Z</time>
<desc>lat.=56.066303, lon.=26.508162, Alt.=96.034241m. Speed=0.000000m/h.</desc>
<speed>0.000000</speed>
</trkpt>
<trkpt lat="56.066303" lon="26.508162">
<ele>96.036194</ele>
<time>2010-08-29T11:24:12Z</time>
<desc>lat.=56.066303, lon.=26.508162, Alt.=96.036194m. Speed=0.000000m/h.</desc>
<speed>0.000000</speed>
</trkpt>
<trkpt lat="56.066303" lon="26.508162">
<ele>96.036194</ele>
<time>2010-08-29T11:24:13Z</time>
<desc>lat.=56.066303, lon.=26.508162, Alt.=96.036194m. Speed=0.000000m/h.</desc>
<speed>0.000000</speed>
</trkpt>
<trkpt lat="56.066303" lon="26.508162">
<ele>96.036194</ele>
<time>2010-08-29T11:24:14Z</time>
<desc>lat.=56.066303, lon.=26.508162, Alt.=96.036194m. Speed=0.000000m/h.</desc>
<speed>0.000000</speed>
</trkpt>
<trkpt lat="56.066303" lon="26.508162">
<ele>96.036194</ele>
<time>2010-08-29T11:24:15Z</time>
<desc>lat.=56.066303, lon.=26.508162, Alt.=96.036194m. Speed=0.000000m/h.</desc>
<speed>0.000000</speed>
</trkpt>
<trkpt lat="56.066303" lon="26.508162">
<ele>96.036194</ele>
<time>2010-08-29T11:24:16Z</time>
<desc>lat.=56.066303, lon.=26.508162, Alt.=96.036194m. Speed=0.000000m/h.</desc>
<speed>0.000000</speed>
</trkpt>
<trkpt lat="56.066303" lon="26.508162">
<ele>96.038147</ele>
<time>2010-08-29T11:24:17Z</time>
<desc>lat.=56.066303, lon.=26.508162, Alt.=96.038147m. Speed=0.000000m/h.</desc>
<speed>0.000000</speed>
</trkpt>
<trkpt lat="56.066303" lon="26.508162">
<ele>96.040100</ele>
<time>2010-08-29T11:24:18Z</time>
<desc>lat.=56.066303, lon.=26.508162, Alt.=96.040100m. Speed=0.000000m/h.</desc>
<speed>0.000000</speed>
</trkpt>
<trkpt lat="56.066303" lon="26.508162">
<ele>96.040100</ele>
<time>2010-08-29T11:24:19Z</time>
<desc>lat.=56.066303, lon.=26.508162, Alt.=96.040100m. Speed=0.000000m/h.</desc>
<speed>0.000000</speed>
</trkpt>
<trkpt lat="56.066303" lon="26.508162">
<ele>96.042053</ele>
<time>2010-08-29T11:24:20Z</time>
<desc>lat.=56.066303, lon.=26.508162, Alt.=96.042053m. Speed=0.000000m/h.</desc>
<speed>0.000000</speed>
</trkpt>
<trkpt lat="56.066303" lon="26.508162">
<ele>96.042053</ele>
<time>2010-08-29T11:24:21Z</time>
<desc>lat.=56.066303, lon.=26.508162, Alt.=96.042053m. Speed=0.000000m/h.</desc>
<speed>0.000000</speed>
</trkpt>
<trkpt lat="56.066303" lon="26.508160">
<ele>96.042053</ele>
<time>2010-08-29T11:24:22Z</time>
<desc>lat.=56.066303, lon.=26.508160, Alt.=96.042053m. Speed=0.000000m/h.</desc>
<speed>0.000000</speed>
</trkpt>
<trkpt lat="56.066303" lon="26.508160">
<ele>96.044006</ele>
<time>2010-08-29T11:24:23Z</time>
<desc>lat.=56.066303, lon.=26.508160, Alt.=96.044006m. Speed=0.000000m/h.</desc>
<speed>0.000000</speed>
</trkpt>
<trkpt lat="56.066303" lon="26.508160">
<ele>96.045959</ele>
<time>2010-08-29T11:24:24Z</time>
<desc>lat.=56.066303, lon.=26.508160, Alt.=96.045959m. Speed=0.000000m/h.</desc>
<speed>0.000000</speed>
</trkpt>
<trkpt lat="56.066303" lon="26.508160">
<ele>96.045959</ele>
<time>2010-08-29T11:24:25Z</time>
<desc>lat.=56.066303, lon.=26.508160, Alt.=96.045959m. Speed=0.000000m/h.</desc>
<speed>0.000000</speed>
</trkpt>
<trkpt lat="56.066303" lon="26.508160">
<ele>96.047913</ele>
<time>2010-08-29T11:24:26Z</time>
<desc>lat.=56.066303, lon.=26.508160, Alt.=96.047913m. Speed=0.000000m/h.</desc>
<speed>0.000000</speed>
</trkpt>
<trkpt lat="56.066303" lon="26.508160">
<ele>96.047913</ele>
<time>2010-08-29T11:24:27Z</time>
<desc>lat.=56.066303, lon.=26.508160, Alt.=96.047913m. Speed=0.000000m/h.</desc>
<speed>0.000000</speed>
</trkpt>
<trkpt lat="56.066303" lon="26.508160">
<ele>96.049866</ele>
<time>2010-08-29T11:24:28Z</time>
<desc>lat.=56.066303, lon.=26.508160, Alt.=96.049866m. Speed=0.000000m/h.</desc>
<speed>0.000000</speed>
</trkpt>
<trkpt lat="56.066303" lon="26.508160">
<ele>96.051819</ele>
<time>2010-08-29T11:24:29Z</time>
<desc>lat.=56.066303, lon.=26.508160, Alt.=96.051819m. Speed=0.000000m/h.</desc>
<speed>0.000000</speed>
</trkpt>
<trkpt lat="56.066303" lon="26.508160">
<ele>96.053772</ele>
<time>2010-08-29T11:24:30Z</time>
<desc>lat.=56.066303, lon.=26.508160, Alt.=96.053772m. Speed=0.000000m/h.</desc>
<speed>0.000000</speed>
</trkpt>
<trkpt lat="56.066303" lon="26.508160">
<ele>96.053772</ele>
<time>2010-08-29T11:24:31Z</time>
<desc>lat.=56.066303, lon.=26.508160, Alt.=96.053772m. Speed=0.000000m/h.</desc>
<speed>0.000000</speed>
</trkpt>
<trkpt lat="56.066303" lon="26.508160">
<ele>96.053772</ele>
<time>2010-08-29T11:24:32Z</time>
<desc>lat.=56.066303, lon.=26.508160, Alt.=96.053772m. Speed=0.000000m/h.</desc>
<speed>0.000000</speed>
</trkpt>
<trkpt lat="56.066307" lon="26.508160">
<ele>96.053772</ele>
<time>2010-08-29T11:24:33Z</time>
<desc>lat.=56.066307, lon.=26.508160, Alt.=96.053772m. Speed=0.000000m/h.</desc>
<speed>0.000000</speed>
</trkpt>
<trkpt lat="56.066307" lon="26.508160">
<ele>96.055725</ele>
<time>2010-08-29T11:24:34Z</time>
<desc>lat.=56.066307, lon.=26.508160, Alt.=96.055725m. Speed=0.000000m/h.</desc>
<speed>0.000000</speed>
</trkpt>
<trkpt lat="56.066307" lon="26.508160">
<ele>96.055725</ele>
<time>2010-08-29T11:24:35Z</time>
<desc>lat.=56.066307, lon.=26.508160, Alt.=96.055725m. Speed=0.000000m/h.</desc>
<speed>0.000000</speed>
</trkpt>
<trkpt lat="56.066307" lon="26.508160">
<ele>96.057678</ele>
<time>2010-08-29T11:24:36Z</time>
<desc>lat.=56.066307, lon.=26.508160, Alt.=96.057678m. Speed=0.000000m/h.</desc>
<speed>0.000000</speed>
</trkpt>
<trkpt lat="56.066307" lon="26.508160">
<ele>96.059631</ele>
<time>2010-08-29T11:24:37Z</time>
<desc>lat.=56.066307, lon.=26.508160, Alt.=96.059631m. Speed=0.000000m/h.</desc>
<speed>0.000000</speed>
</trkpt>
<trkpt lat="56.066307" lon="26.508160">
<ele>96.057678</ele>
<time>2010-08-29T11:24:38Z</time>
<desc>lat.=56.066307, lon.=26.508160, Alt.=96.057678m. Speed=0.000000m/h.</desc>
<speed>0.000000</speed>
</trkpt>
<trkpt lat="56.066307" lon="26.508160">
<ele>96.057678</ele>
<time>2010-08-29T11:24:39Z</time>
<desc>lat.=56.066307, lon.=26.508160, Alt.=96.057678m. Speed=0.000000m/h.</desc>
<speed>0.000000</speed>
</trkpt>
<trkpt lat="56.066307" lon="26.508160">
<ele>96.057678</ele>
<time>2010-08-29T11:24:40Z</time>
<desc>lat.=56.066307, lon.=26.508160, Alt.=96.057678m. Speed=0.000000m/h.</desc>
<speed>0.000000</speed>
</trkpt>
<trkpt lat="56.066307" lon="26.508160">
<ele>96.059631</ele>
<time>2010-08-29T11:24:41Z</time>
<desc>lat.=56.066307, lon.=26.508160, Alt.=96.059631m. Speed=0.000000m/h.</desc>
<speed>0.000000</speed>
</trkpt>
<trkpt lat="56.066307" lon="26.508160">
<ele>96.059631</ele>
<time>2010-08-29T11:24:42Z</time>
<desc>lat.=56.066307, lon.=26.508160, Alt.=96.059631m. Speed=0.036000m/h.</desc>
<speed>0.010000</speed>
</trkpt>
<trkpt lat="56.066307" lon="26.508160">
<ele>96.059631</ele>
<time>2010-08-29T11:24:43Z</time>
<desc>lat.=56.066307, lon.=26.508160, Alt.=96.059631m. Speed=0.000000m/h.</desc>
<speed>0.000000</speed>
</trkpt>
<trkpt lat="56.066307" lon="26.508160">
<ele>96.059631</ele>
<time>2010-08-29T11:24:44Z</time>
<desc>lat.=56.066307, lon.=26.508160, Alt.=96.059631m. Speed=0.000000m/h.</desc>
<speed>0.000000</speed>
</trkpt>
<trkpt lat="56.066307" lon="26.508160">
<ele>96.059631</ele>
<time>2010-08-29T11:24:45Z</time>
<desc>lat.=56.066307, lon.=26.508160, Alt.=96.059631m. Speed=0.000000m/h.</desc>
<speed>0.000000</speed>
</trkpt>
<trkpt lat="56.066307" lon="26.508160">
<ele>96.059631</ele>
<time>2010-08-29T11:24:46Z</time>
<desc>lat.=56.066307, lon.=26.508160, Alt.=96.059631m. Speed=0.000000m/h.</desc>
<speed>0.000000</speed>
</trkpt>
<trkpt lat="56.066307" lon="26.508160">
<ele>96.059631</ele>
<time>2010-08-29T11:24:47Z</time>
<desc>lat.=56.066307, lon.=26.508160, Alt.=96.059631m. Speed=0.000000m/h.</desc>
<speed>0.000000</speed>
</trkpt>
<trkpt lat="56.066307" lon="26.508160">
<ele>96.061584</ele>
<time>2010-08-29T11:24:48Z</time>
<desc>lat.=56.066307, lon.=26.508160, Alt.=96.061584m. Speed=0.000000m/h.</desc>
<speed>0.000000</speed>
</trkpt>
<trkpt lat="56.066307" lon="26.508160">
<ele>96.063538</ele>
<time>2010-08-29T11:24:49Z</time>
<desc>lat.=56.066307, lon.=26.508160, Alt.=96.063538m. Speed=0.000000m/h.</desc>
<speed>0.000000</speed>
</trkpt>
<trkpt lat="56.066307" lon="26.508160">
<ele>96.063538</ele>
<time>2010-08-29T11:24:50Z</time>
<desc>lat.=56.066307, lon.=26.508160, Alt.=96.063538m. Speed=0.000000m/h.</desc>
<speed>0.000000</speed>
</trkpt>
<trkpt lat="56.066307" lon="26.508160">
<ele>96.065491</ele>
<time>2010-08-29T11:24:51Z</time>
<desc>lat.=56.066307, lon.=26.508160, Alt.=96.065491m. Speed=0.000000m/h.</desc>
<speed>0.000000</speed>
</trkpt>
<trkpt lat="56.066307" lon="26.508160">
<ele>96.065491</ele>
<time>2010-08-29T11:24:52Z</time>
<desc>lat.=56.066307, lon.=26.508160, Alt.=96.065491m. Speed=0.000000m/h.</desc>
<speed>0.000000</speed>
</trkpt>
<trkpt lat="56.066307" lon="26.508160">
<ele>96.065491</ele>
<time>2010-08-29T11:24:53Z</time>
<desc>lat.=56.066307, lon.=26.508160, Alt.=96.065491m. Speed=0.000000m/h.</desc>
<speed>0.000000</speed>
</trkpt>
<trkpt lat="56.066307" lon="26.508160">
<ele>96.065491</ele>
<time>2010-08-29T11:24:54Z</time>
<desc>lat.=56.066307, lon.=26.508160, Alt.=96.065491m. Speed=0.000000m/h.</desc>
<speed>0.000000</speed>
</trkpt>
<trkpt lat="56.066307" lon="26.508160">
<ele>96.065491</ele>
<time>2010-08-29T11:24:55Z</time>
<desc>lat.=56.066307, lon.=26.508160, Alt.=96.065491m. Speed=0.000000m/h.</desc>
<speed>0.000000</speed>
</trkpt>
<trkpt lat="56.066307" lon="26.508160">
<ele>96.065491</ele>
<time>2010-08-29T11:24:56Z</time>
<desc>lat.=56.066307, lon.=26.508160, Alt.=96.065491m. Speed=0.000000m/h.</desc>
<speed>0.000000</speed>
</trkpt>
<trkpt lat="56.066307" lon="26.508160">
<ele>96.067444</ele>
<time>2010-08-29T11:24:57Z</time>
<desc>lat.=56.066307, lon.=26.508160, Alt.=96.067444m. Speed=0.000000m/h.</desc>
<speed>0.000000</speed>
</trkpt>
<trkpt lat="56.066307" lon="26.508160">
<ele>96.069397</ele>
<time>2010-08-29T11:24:58Z</time>
<desc>lat.=56.066307, lon.=26.508160, Alt.=96.069397m. Speed=0.000000m/h.</desc>
<speed>0.000000</speed>
</trkpt>
<trkpt lat="56.066307" lon="26.508160">
<ele>96.069397</ele>
<time>2010-08-29T11:24:59Z</time>
<desc>lat.=56.066307, lon.=26.508160, Alt.=96.069397m. Speed=0.000000m/h.</desc>
<speed>0.000000</speed>
</trkpt>
<trkpt lat="56.066307" lon="26.508160">
<ele>96.071350</ele>
<time>2010-08-29T11:25:00Z</time>
<desc>lat.=56.066307, lon.=26.508160, Alt.=96.071350m. Speed=0.000000m/h.</desc>
<speed>0.000000</speed>
</trkpt>
<trkpt lat="56.066307" lon="26.508160">
<ele>96.073303</ele>
<time>2010-08-29T11:25:01Z</time>
<desc>lat.=56.066307, lon.=26.508160, Alt.=96.073303m. Speed=0.000000m/h.</desc>
<speed>0.000000</speed>
</trkpt>
<trkpt lat="56.066307" lon="26.508160">
<ele>96.071350</ele>
<time>2010-08-29T11:25:02Z</time>
<desc>lat.=56.066307, lon.=26.508160, Alt.=96.071350m. Speed=0.000000m/h.</desc>
<speed>0.000000</speed>
</trkpt>
<trkpt lat="56.066307" lon="26.508160">
<ele>96.073303</ele>
<time>2010-08-29T11:25:03Z</time>
<desc>lat.=56.066307, lon.=26.508160, Alt.=96.073303m. Speed=0.036000m/h.</desc>
<speed>0.010000</speed>
</trkpt>
<trkpt lat="56.066307" lon="26.508160">
<ele>96.073303</ele>
<time>2010-08-29T11:25:04Z</time>
<desc>lat.=56.066307, lon.=26.508160, Alt.=96.073303m. Speed=0.036000m/h.</desc>
<speed>0.010000</speed>
</trkpt>
<trkpt lat="56.066307" lon="26.508160">
<ele>96.075256</ele>
<time>2010-08-29T11:25:05Z</time>
<desc>lat.=56.066307, lon.=26.508160, Alt.=96.075256m. Speed=0.000000m/h.</desc>
<speed>0.000000</speed>
</trkpt>
<trkpt lat="56.066307" lon="26.508160">
<ele>96.077209</ele>
<time>2010-08-29T11:25:06Z</time>
<desc>lat.=56.066307, lon.=26.508160, Alt.=96.077209m. Speed=0.000000m/h.</desc>
<speed>0.000000</speed>
</trkpt>
<trkpt lat="56.066307" lon="26.508160">
<ele>96.077209</ele>
<time>2010-08-29T11:25:07Z</time>
<desc>lat.=56.066307, lon.=26.508160, Alt.=96.077209m. Speed=0.000000m/h.</desc>
<speed>0.000000</speed>
</trkpt>
<trkpt lat="56.066307" lon="26.508160">
<ele>96.077209</ele>
<time>2010-08-29T11:25:08Z</time>
<desc>lat.=56.066307, lon.=26.508160, Alt.=96.077209m. Speed=0.000000m/h.</desc>
<speed>0.000000</speed>
</trkpt>
<trkpt lat="56.066307" lon="26.508160">
<ele>96.079163</ele>
<time>2010-08-29T11:25:09Z</time>
<desc>lat.=56.066307, lon.=26.508160, Alt.=96.079163m. Speed=0.000000m/h.</desc>
<speed>0.000000</speed>
</trkpt>
<trkpt lat="56.066307" lon="26.508160">
<ele>96.081116</ele>
<time>2010-08-29T11:25:10Z</time>
<desc>lat.=56.066307, lon.=26.508160, Alt.=96.081116m. Speed=0.000000m/h.</desc>
<speed>0.000000</speed>
</trkpt>
<trkpt lat="56.066307" lon="26.508160">
<ele>96.083069</ele>
<time>2010-08-29T11:25:11Z</time>
<desc>lat.=56.066307, lon.=26.508160, Alt.=96.083069m. Speed=0.000000m/h.</desc>
<speed>0.000000</speed>
</trkpt>
<trkpt lat="56.066307" lon="26.508160">
<ele>96.085022</ele>
<time>2010-08-29T11:25:12Z</time>
<desc>lat.=56.066307, lon.=26.508160, Alt.=96.085022m. Speed=0.000000m/h.</desc>
<speed>0.000000</speed>
</trkpt>
<trkpt lat="56.066307" lon="26.508160">
<ele>96.086975</ele>
<time>2010-08-29T11:25:13Z</time>
<desc>lat.=56.066307, lon.=26.508160, Alt.=96.086975m. Speed=0.000000m/h.</desc>
<speed>0.000000</speed>
</trkpt>
<trkpt lat="56.066307" lon="26.508160">
<ele>96.088928</ele>
<time>2010-08-29T11:25:14Z</time>
<desc>lat.=56.066307, lon.=26.508160, Alt.=96.088928m. Speed=0.000000m/h.</desc>
<speed>0.000000</speed>
</trkpt>
<trkpt lat="56.066307" lon="26.508160">
<ele>96.090881</ele>
<time>2010-08-29T11:25:15Z</time>
<desc>lat.=56.066307, lon.=26.508160, Alt.=96.090881m. Speed=0.000000m/h.</desc>
<speed>0.000000</speed>
</trkpt>
<trkpt lat="56.066307" lon="26.508160">
<ele>96.090881</ele>
<time>2010-08-29T11:25:16Z</time>
<desc>lat.=56.066307, lon.=26.508160, Alt.=96.090881m. Speed=0.000000m/h.</desc>
<speed>0.000000</speed>
</trkpt>
<trkpt lat="56.066307" lon="26.508160">
<ele>96.092834</ele>
<time>2010-08-29T11:25:17Z</time>
<desc>lat.=56.066307, lon.=26.508160, Alt.=96.092834m. Speed=0.000000m/h.</desc>
<speed>0.000000</speed>
</trkpt>
<trkpt lat="56.066307" lon="26.508160">
<ele>96.092834</ele>
<time>2010-08-29T11:25:18Z</time>
<desc>lat.=56.066307, lon.=26.508160, Alt.=96.092834m. Speed=0.000000m/h.</desc>
<speed>0.000000</speed>
</trkpt>
<trkpt lat="56.066307" lon="26.508160">
<ele>96.092834</ele>
<time>2010-08-29T11:25:19Z</time>
<desc>lat.=56.066307, lon.=26.508160, Alt.=96.092834m. Speed=0.000000m/h.</desc>
<speed>0.000000</speed>
</trkpt>
<trkpt lat="56.066307" lon="26.508160">
<ele>96.092834</ele>
<time>2010-08-29T11:25:20Z</time>
<desc>lat.=56.066307, lon.=26.508160, Alt.=96.092834m. Speed=0.000000m/h.</desc>
<speed>0.000000</speed>
</trkpt>
<trkpt lat="56.066307" lon="26.508160">
<ele>96.094788</ele>
<time>2010-08-29T11:25:21Z</time>
<desc>lat.=56.066307, lon.=26.508160, Alt.=96.094788m. Speed=0.000000m/h.</desc>
<speed>0.000000</speed>
</trkpt>
<trkpt lat="56.066307" lon="26.508160">
<ele>96.096741</ele>
<time>2010-08-29T11:25:22Z</time>
<desc>lat.=56.066307, lon.=26.508160, Alt.=96.096741m. Speed=0.000000m/h.</desc>
<speed>0.000000</speed>
</trkpt>
<trkpt lat="56.066307" lon="26.508160">
<ele>96.096741</ele>
<time>2010-08-29T11:25:23Z</time>
<desc>lat.=56.066307, lon.=26.508160, Alt.=96.096741m. Speed=0.000000m/h.</desc>
<speed>0.000000</speed>
</trkpt>
<trkpt lat="56.066307" lon="26.508160">
<ele>96.096741</ele>
<time>2010-08-29T11:25:24Z</time>
<desc>lat.=56.066307, lon.=26.508160, Alt.=96.096741m. Speed=0.000000m/h.</desc>
<speed>0.000000</speed>
</trkpt>
<trkpt lat="56.066307" lon="26.508160">
<ele>96.096741</ele>
<time>2010-08-29T11:25:25Z</time>
<desc>lat.=56.066307, lon.=26.508160, Alt.=96.096741m. Speed=0.000000m/h.</desc>
<speed>0.000000</speed>
</trkpt>
<trkpt lat="56.066307" lon="26.508160">
<ele>96.100647</ele>
<time>2010-08-29T11:25:26Z</time>
<desc>lat.=56.066307, lon.=26.508160, Alt.=96.100647m. Speed=0.000000m/h.</desc>
<speed>0.000000</speed>
</trkpt>
<trkpt lat="56.066307" lon="26.508160">
<ele>96.102600</ele>
<time>2010-08-29T11:25:27Z</time>
<desc>lat.=56.066307, lon.=26.508160, Alt.=96.102600m. Speed=0.000000m/h.</desc>
<speed>0.000000</speed>
</trkpt>
<trkpt lat="56.066307" lon="26.508160">
<ele>96.102600</ele>
<time>2010-08-29T11:25:28Z</time>
<desc>lat.=56.066307, lon.=26.508160, Alt.=96.102600m. Speed=0.000000m/h.</desc>
<speed>0.000000</speed>
</trkpt>
<trkpt lat="56.066307" lon="26.508160">
<ele>96.104553</ele>
<time>2010-08-29T11:25:29Z</time>
<desc>lat.=56.066307, lon.=26.508160, Alt.=96.104553m. Speed=0.000000m/h.</desc>
<speed>0.000000</speed>
</trkpt>
<trkpt lat="56.066307" lon="26.508160">
<ele>96.104553</ele>
<time>2010-08-29T11:25:30Z</time>
<desc>lat.=56.066307, lon.=26.508160, Alt.=96.104553m. Speed=0.000000m/h.</desc>
<speed>0.000000</speed>
</trkpt>
<trkpt lat="56.066307" lon="26.508160">
<ele>96.104553</ele>
<time>2010-08-29T11:25:31Z</time>
<desc>lat.=56.066307, lon.=26.508160, Alt.=96.104553m. Speed=0.036000m/h.</desc>
<speed>0.010000</speed>
</trkpt>
<trkpt lat="56.066307" lon="26.508160">
<ele>96.104553</ele>
<time>2010-08-29T11:25:32Z</time>
<desc>lat.=56.066307, lon.=26.508160, Alt.=96.104553m. Speed=0.000000m/h.</desc>
<speed>0.000000</speed>
</trkpt>
<trkpt lat="56.066307" lon="26.508160">
<ele>96.104553</ele>
<time>2010-08-29T11:25:33Z</time>
<desc>lat.=56.066307, lon.=26.508160, Alt.=96.104553m. Speed=0.000000m/h.</desc>
<speed>0.000000</speed>
</trkpt>
<trkpt lat="56.066307" lon="26.508160">
<ele>96.106506</ele>
<time>2010-08-29T11:25:34Z</time>
<desc>lat.=56.066307, lon.=26.508160, Alt.=96.106506m. Speed=0.000000m/h.</desc>
<speed>0.000000</speed>
</trkpt>
<trkpt lat="56.066307" lon="26.508160">
<ele>96.108459</ele>
<time>2010-08-29T11:25:35Z</time>
<desc>lat.=56.066307, lon.=26.508160, Alt.=96.108459m. Speed=0.000000m/h.</desc>
<speed>0.000000</speed>
</trkpt>
<trkpt lat="56.066307" lon="26.508160">
<ele>96.106506</ele>
<time>2010-08-29T11:25:36Z</time>
<desc>lat.=56.066307, lon.=26.508160, Alt.=96.106506m. Speed=0.000000m/h.</desc>
<speed>0.000000</speed>
</trkpt>
<trkpt lat="56.066307" lon="26.508160">
<ele>96.108459</ele>
<time>2010-08-29T11:25:37Z</time>
<desc>lat.=56.066307, lon.=26.508160, Alt.=96.108459m. Speed=0.000000m/h.</desc>
<speed>0.000000</speed>
</trkpt>
<trkpt lat="56.066307" lon="26.508160">
<ele>96.108459</ele>
<time>2010-08-29T11:25:38Z</time>
<desc>lat.=56.066307, lon.=26.508160, Alt.=96.108459m. Speed=0.000000m/h.</desc>
<speed>0.000000</speed>
</trkpt>
<trkpt lat="56.066307" lon="26.508160">
<ele>96.110413</ele>
<time>2010-08-29T11:25:39Z</time>
<desc>lat.=56.066307, lon.=26.508160, Alt.=96.110413m. Speed=0.000000m/h.</desc>
<speed>0.000000</speed>
</trkpt>
<trkpt lat="56.066307" lon="26.508160">
<ele>96.110413</ele>
<time>2010-08-29T11:25:40Z</time>
<desc>lat.=56.066307, lon.=26.508160, Alt.=96.110413m. Speed=0.000000m/h.</desc>
<speed>0.000000</speed>
</trkpt>
<trkpt lat="56.066307" lon="26.508160">
<ele>96.112366</ele>
<time>2010-08-29T11:25:41Z</time>
<desc>lat.=56.066307, lon.=26.508160, Alt.=96.112366m. Speed=0.000000m/h.</desc>
<speed>0.000000</speed>
</trkpt>
<trkpt lat="56.066307" lon="26.508160">
<ele>96.114319</ele>
<time>2010-08-29T11:25:42Z</time>
<desc>lat.=56.066307, lon.=26.508160, Alt.=96.114319m. Speed=0.000000m/h.</desc>
<speed>0.000000</speed>
</trkpt>
<trkpt lat="56.066307" lon="26.508160">
<ele>96.116272</ele>
<time>2010-08-29T11:25:43Z</time>
<desc>lat.=56.066307, lon.=26.508160, Alt.=96.116272m. Speed=0.000000m/h.</desc>
<speed>0.000000</speed>
</trkpt>
<trkpt lat="56.066307" lon="26.508160">
<ele>96.112366</ele>
<time>2010-08-29T11:25:44Z</time>
<desc>lat.=56.066307, lon.=26.508160, Alt.=96.112366m. Speed=0.000000m/h.</desc>
<speed>0.000000</speed>
</trkpt>
<trkpt lat="56.066307" lon="26.508160">
<ele>96.114319</ele>
<time>2010-08-29T11:25:45Z</time>
<desc>lat.=56.066307, lon.=26.508160, Alt.=96.114319m. Speed=0.000000m/h.</desc>
<speed>0.000000</speed>
</trkpt>
<trkpt lat="56.066307" lon="26.508160">
<ele>96.116272</ele>
<time>2010-08-29T11:25:46Z</time>
<desc>lat.=56.066307, lon.=26.508160, Alt.=96.116272m. Speed=0.000000m/h.</desc>
<speed>0.000000</speed>
</trkpt>
<trkpt lat="56.066307" lon="26.508160">
<ele>96.118225</ele>
<time>2010-08-29T11:25:47Z</time>
<desc>lat.=56.066307, lon.=26.508160, Alt.=96.118225m. Speed=0.000000m/h.</desc>
<speed>0.000000</speed>
</trkpt>
<trkpt lat="56.066307" lon="26.508160">
<ele>96.122131</ele>
<time>2010-08-29T11:25:48Z</time>
<desc>lat.=56.066307, lon.=26.508160, Alt.=96.122131m. Speed=0.000000m/h.</desc>
<speed>0.000000</speed>
</trkpt>
<trkpt lat="56.066307" lon="26.508160">
<ele>96.124084</ele>
<time>2010-08-29T11:25:49Z</time>
<desc>lat.=56.066307, lon.=26.508160, Alt.=96.124084m. Speed=0.000000m/h.</desc>
<speed>0.000000</speed>
</trkpt>
<trkpt lat="56.066307" lon="26.508160">
<ele>96.124084</ele>
<time>2010-08-29T11:25:50Z</time>
<desc>lat.=56.066307, lon.=26.508160, Alt.=96.124084m. Speed=0.000000m/h.</desc>
<speed>0.000000</speed>
</trkpt>
<trkpt lat="56.066307" lon="26.508160">
<ele>96.122131</ele>
<time>2010-08-29T11:25:51Z</time>
<desc>lat.=56.066307, lon.=26.508160, Alt.=96.122131m. Speed=0.000000m/h.</desc>
<speed>0.000000</speed>
</trkpt>
<trkpt lat="56.066307" lon="26.508160">
<ele>96.124084</ele>
<time>2010-08-29T11:25:52Z</time>
<desc>lat.=56.066307, lon.=26.508160, Alt.=96.124084m. Speed=0.000000m/h.</desc>
<speed>0.000000</speed>
</trkpt>
<trkpt lat="56.066307" lon="26.508160">
<ele>96.124084</ele>
<time>2010-08-29T11:25:53Z</time>
<desc>lat.=56.066307, lon.=26.508160, Alt.=96.124084m. Speed=0.000000m/h.</desc>
<speed>0.000000</speed>
</trkpt>
<trkpt lat="56.066307" lon="26.508160">
<ele>96.126038</ele>
<time>2010-08-29T11:25:54Z</time>
<desc>lat.=56.066307, lon.=26.508160, Alt.=96.126038m. Speed=0.000000m/h.</desc>
<speed>0.000000</speed>
</trkpt>
<trkpt lat="56.066307" lon="26.508160">
<ele>96.127991</ele>
<time>2010-08-29T11:25:55Z</time>
<desc>lat.=56.066307, lon.=26.508160, Alt.=96.127991m. Speed=0.000000m/h.</desc>
<speed>0.000000</speed>
</trkpt>
<trkpt lat="56.066307" lon="26.508160">
<ele>96.133850</ele>
<time>2010-08-29T11:25:56Z</time>
<desc>lat.=56.066307, lon.=26.508160, Alt.=96.133850m. Speed=0.000000m/h.</desc>
<speed>0.000000</speed>
</trkpt>
<trkpt lat="56.066307" lon="26.508160">
<ele>96.129944</ele>
<time>2010-08-29T11:25:57Z</time>
<desc>lat.=56.066307, lon.=26.508160, Alt.=96.129944m. Speed=0.000000m/h.</desc>
<speed>0.000000</speed>
</trkpt>
<trkpt lat="56.066307" lon="26.508160">
<ele>96.131897</ele>
<time>2010-08-29T11:25:58Z</time>
<desc>lat.=56.066307, lon.=26.508160, Alt.=96.131897m. Speed=0.000000m/h.</desc>
<speed>0.000000</speed>
</trkpt>
<trkpt lat="56.066307" lon="26.508160">
<ele>96.133850</ele>
<time>2010-08-29T11:25:59Z</time>
<desc>lat.=56.066307, lon.=26.508160, Alt.=96.133850m. Speed=0.000000m/h.</desc>
<speed>0.000000</speed>
</trkpt>
<trkpt lat="56.066307" lon="26.508160">
<ele>96.135803</ele>
<time>2010-08-29T11:26:00Z</time>
<desc>lat.=56.066307, lon.=26.508160, Alt.=96.135803m. Speed=0.000000m/h.</desc>
<speed>0.000000</speed>
</trkpt>
<trkpt lat="56.066307" lon="26.508160">
<ele>96.139709</ele>
<time>2010-08-29T11:26:01Z</time>
<desc>lat.=56.066307, lon.=26.508160, Alt.=96.139709m. Speed=0.000000m/h.</desc>
<speed>0.000000</speed>
</trkpt>
<trkpt lat="56.066307" lon="26.508160">
<ele>96.141663</ele>
<time>2010-08-29T11:26:02Z</time>
<desc>lat.=56.066307, lon.=26.508160, Alt.=96.141663m. Speed=0.000000m/h.</desc>
<speed>0.000000</speed>
</trkpt>
<trkpt lat="56.066307" lon="26.508160">
<ele>96.137756</ele>
<time>2010-08-29T11:26:03Z</time>
<desc>lat.=56.066307, lon.=26.508160, Alt.=96.137756m. Speed=0.000000m/h.</desc>
<speed>0.000000</speed>
</trkpt>
<trkpt lat="56.066307" lon="26.508160">
<ele>96.139709</ele>
<time>2010-08-29T11:26:04Z</time>
<desc>lat.=56.066307, lon.=26.508160, Alt.=96.139709m. Speed=0.000000m/h.</desc>
<speed>0.000000</speed>
</trkpt>
<trkpt lat="56.066307" lon="26.508160">
<ele>96.139709</ele>
<time>2010-08-29T11:26:05Z</time>
<desc>lat.=56.066307, lon.=26.508160, Alt.=96.139709m. Speed=0.000000m/h.</desc>
<speed>0.000000</speed>
</trkpt>
<trkpt lat="56.066307" lon="26.508160">
<ele>96.137756</ele>
<time>2010-08-29T11:26:06Z</time>
<desc>lat.=56.066307, lon.=26.508160, Alt.=96.137756m. Speed=0.000000m/h.</desc>
<speed>0.000000</speed>
</trkpt>
<trkpt lat="56.066307" lon="26.508160">
<ele>96.139709</ele>
<time>2010-08-29T11:26:07Z</time>
<desc>lat.=56.066307, lon.=26.508160, Alt.=96.139709m. Speed=0.000000m/h.</desc>
<speed>0.000000</speed>
</trkpt>
<trkpt lat="56.066307" lon="26.508160">
<ele>96.139709</ele>
<time>2010-08-29T11:26:08Z</time>
<desc>lat.=56.066307, lon.=26.508160, Alt.=96.139709m. Speed=0.000000m/h.</desc>
<speed>0.000000</speed>
</trkpt>
<trkpt lat="56.066307" lon="26.508160">
<ele>96.137756</ele>
<time>2010-08-29T11:26:09Z</time>
<desc>lat.=56.066307, lon.=26.508160, Alt.=96.137756m. Speed=0.000000m/h.</desc>
<speed>0.000000</speed>
</trkpt>
<trkpt lat="56.066307" lon="26.508160">
<ele>96.139709</ele>
<time>2010-08-29T11:26:10Z</time>
<desc>lat.=56.066307, lon.=26.508160, Alt.=96.139709m. Speed=0.000000m/h.</desc>
<speed>0.000000</speed>
</trkpt>
<trkpt lat="56.066307" lon="26.508160">
<ele>96.139709</ele>
<time>2010-08-29T11:26:11Z</time>
<desc>lat.=56.066307, lon.=26.508160, Alt.=96.139709m. Speed=0.000000m/h.</desc>
<speed>0.000000</speed>
</trkpt>
<trkpt lat="56.066307" lon="26.508160">
<ele>96.141663</ele>
<time>2010-08-29T11:26:12Z</time>
<desc>lat.=56.066307, lon.=26.508160, Alt.=96.141663m. Speed=0.000000m/h.</desc>
<speed>0.000000</speed>
</trkpt>
<trkpt lat="56.066307" lon="26.508160">
<ele>96.141663</ele>
<time>2010-08-29T11:26:13Z</time>
<desc>lat.=56.066307, lon.=26.508160, Alt.=96.141663m. Speed=0.000000m/h.</desc>
<speed>0.000000</speed>
</trkpt>
<trkpt lat="56.066307" lon="26.508160">
<ele>96.143616</ele>
<time>2010-08-29T11:26:14Z</time>
<desc>lat.=56.066307, lon.=26.508160, Alt.=96.143616m. Speed=0.000000m/h.</desc>
<speed>0.000000</speed>
</trkpt>
<trkpt lat="56.066307" lon="26.508160">
<ele>96.149475</ele>
<time>2010-08-29T11:26:15Z</time>
<desc>lat.=56.066307, lon.=26.508160, Alt.=96.149475m. Speed=0.000000m/h.</desc>
<speed>0.000000</speed>
</trkpt>
<trkpt lat="56.066307" lon="26.508160">
<ele>96.149475</ele>
<time>2010-08-29T11:26:16Z</time>
<desc>lat.=56.066307, lon.=26.508160, Alt.=96.149475m. Speed=0.000000m/h.</desc>
<speed>0.000000</speed>
</trkpt>
<trkpt lat="56.066307" lon="26.508160">
<ele>96.153381</ele>
<time>2010-08-29T11:26:17Z</time>
<desc>lat.=56.066307, lon.=26.508160, Alt.=96.153381m. Speed=0.000000m/h.</desc>
<speed>0.000000</speed>
</trkpt>
<trkpt lat="56.066307" lon="26.508160">
<ele>96.153381</ele>
<time>2010-08-29T11:26:18Z</time>
<desc>lat.=56.066307, lon.=26.508160, Alt.=96.153381m. Speed=0.000000m/h.</desc>
<speed>0.000000</speed>
</trkpt>
<trkpt lat="56.066307" lon="26.508160">
<ele>96.157288</ele>
<time>2010-08-29T11:26:19Z</time>
<desc>lat.=56.066307, lon.=26.508160, Alt.=96.157288m. Speed=0.000000m/h.</desc>
<speed>0.000000</speed>
</trkpt>
<trkpt lat="56.066307" lon="26.508160">
<ele>96.159241</ele>
<time>2010-08-29T11:26:20Z</time>
<desc>lat.=56.066307, lon.=26.508160, Alt.=96.159241m. Speed=0.000000m/h.</desc>
<speed>0.000000</speed>
</trkpt>
<trkpt lat="56.066307" lon="26.508160">
<ele>96.165100</ele>
<time>2010-08-29T11:26:21Z</time>
<desc>lat.=56.066307, lon.=26.508160, Alt.=96.165100m. Speed=0.000000m/h.</desc>
<speed>0.000000</speed>
</trkpt>
<trkpt lat="56.066307" lon="26.508160">
<ele>96.163147</ele>
<time>2010-08-29T11:26:22Z</time>
<desc>lat.=56.066307, lon.=26.508160, Alt.=96.163147m. Speed=0.000000m/h.</desc>
<speed>0.000000</speed>
</trkpt>
<trkpt lat="56.066307" lon="26.508160">
<ele>96.165100</ele>
<time>2010-08-29T11:26:23Z</time>
<desc>lat.=56.066307, lon.=26.508160, Alt.=96.165100m. Speed=0.000000m/h.</desc>
<speed>0.000000</speed>
</trkpt>
<trkpt lat="56.066307" lon="26.508160">
<ele>96.165100</ele>
<time>2010-08-29T11:26:24Z</time>
<desc>lat.=56.066307, lon.=26.508160, Alt.=96.165100m. Speed=0.000000m/h.</desc>
<speed>0.000000</speed>
</trkpt>
<trkpt lat="56.066307" lon="26.508160">
<ele>96.169006</ele>
<time>2010-08-29T11:26:25Z</time>
<desc>lat.=56.066307, lon.=26.508160, Alt.=96.169006m. Speed=0.000000m/h.</desc>
<speed>0.000000</speed>
</trkpt>
<trkpt lat="56.066307" lon="26.508160">
<ele>96.170959</ele>
<time>2010-08-29T11:26:26Z</time>
<desc>lat.=56.066307, lon.=26.508160, Alt.=96.170959m. Speed=0.000000m/h.</desc>
<speed>0.000000</speed>
</trkpt>
<trkpt lat="56.066307" lon="26.508160">
<ele>96.174866</ele>
<time>2010-08-29T11:26:27Z</time>
<desc>lat.=56.066307, lon.=26.508160, Alt.=96.174866m. Speed=0.000000m/h.</desc>
<speed>0.000000</speed>
</trkpt>
<trkpt lat="56.066307" lon="26.508160">
<ele>96.176819</ele>
<time>2010-08-29T11:26:28Z</time>
<desc>lat.=56.066307, lon.=26.508160, Alt.=96.176819m. Speed=0.000000m/h.</desc>
<speed>0.000000</speed>
</trkpt>
<trkpt lat="56.066307" lon="26.508160">
<ele>96.178772</ele>
<time>2010-08-29T11:26:29Z</time>
<desc>lat.=56.066307, lon.=26.508160, Alt.=96.178772m. Speed=0.000000m/h.</desc>
<speed>0.000000</speed>
</trkpt>
<trkpt lat="56.066307" lon="26.508160">
<ele>96.174866</ele>
<time>2010-08-29T11:26:30Z</time>
<desc>lat.=56.066307, lon.=26.508160, Alt.=96.174866m. Speed=0.180000m/h.</desc>
<speed>0.050000</speed>
</trkpt>
<trkpt lat="56.066307" lon="26.508160">
<ele>96.172913</ele>
<time>2010-08-29T11:26:31Z</time>
<desc>lat.=56.066307, lon.=26.508160, Alt.=96.172913m. Speed=0.000000m/h.</desc>
<speed>0.000000</speed>
</trkpt>
<trkpt lat="56.066307" lon="26.508160">
<ele>96.174866</ele>
<time>2010-08-29T11:26:32Z</time>
<desc>lat.=56.066307, lon.=26.508160, Alt.=96.174866m. Speed=0.000000m/h.</desc>
<speed>0.000000</speed>
</trkpt>
<trkpt lat="56.066307" lon="26.508160">
<ele>96.174866</ele>
<time>2010-08-29T11:26:33Z</time>
<desc>lat.=56.066307, lon.=26.508160, Alt.=96.174866m. Speed=0.000000m/h.</desc>
<speed>0.000000</speed>
</trkpt>
<trkpt lat="56.066307" lon="26.508160">
<ele>96.178772</ele>
<time>2010-08-29T11:26:34Z</time>
<desc>lat.=56.066307, lon.=26.508160, Alt.=96.178772m. Speed=0.000000m/h.</desc>
<speed>0.000000</speed>
</trkpt>
<trkpt lat="56.066307" lon="26.508160">
<ele>96.178772</ele>
<time>2010-08-29T11:26:35Z</time>
<desc>lat.=56.066307, lon.=26.508160, Alt.=96.178772m. Speed=0.000000m/h.</desc>
<speed>0.000000</speed>
</trkpt>
<trkpt lat="56.066307" lon="26.508160">
<ele>96.178772</ele>
<time>2010-08-29T11:26:36Z</time>
<desc>lat.=56.066307, lon.=26.508160, Alt.=96.178772m. Speed=0.000000m/h.</desc>
<speed>0.000000</speed>
</trkpt>
<trkpt lat="56.066307" lon="26.508160">
<ele>96.180725</ele>
<time>2010-08-29T11:26:37Z</time>
<desc>lat.=56.066307, lon.=26.508160, Alt.=96.180725m. Speed=0.000000m/h.</desc>
<speed>0.000000</speed>
</trkpt>
<trkpt lat="56.066307" lon="26.508160">
<ele>96.178772</ele>
<time>2010-08-29T11:26:38Z</time>
<desc>lat.=56.066307, lon.=26.508160, Alt.=96.178772m. Speed=0.000000m/h.</desc>
<speed>0.000000</speed>
</trkpt>
<trkpt lat="56.066307" lon="26.508160">
<ele>96.178772</ele>
<time>2010-08-29T11:26:39Z</time>
<desc>lat.=56.066307, lon.=26.508160, Alt.=96.178772m. Speed=0.000000m/h.</desc>
<speed>0.000000</speed>
</trkpt>
<trkpt lat="56.066307" lon="26.508160">
<ele>96.180725</ele>
<time>2010-08-29T11:26:40Z</time>
<desc>lat.=56.066307, lon.=26.508160, Alt.=96.180725m. Speed=0.000000m/h.</desc>
<speed>0.000000</speed>
</trkpt>
<trkpt lat="56.066307" lon="26.508160">
<ele>96.180725</ele>
<time>2010-08-29T11:26:41Z</time>
<desc>lat.=56.066307, lon.=26.508160, Alt.=96.180725m. Speed=0.000000m/h.</desc>
<speed>0.000000</speed>
</trkpt>
<trkpt lat="56.066307" lon="26.508160">
<ele>96.182678</ele>
<time>2010-08-29T11:26:42Z</time>
<desc>lat.=56.066307, lon.=26.508160, Alt.=96.182678m. Speed=0.000000m/h.</desc>
<speed>0.000000</speed>
</trkpt>
<trkpt lat="56.066307" lon="26.508160">
<ele>96.186584</ele>
<time>2010-08-29T11:26:43Z</time>
<desc>lat.=56.066307, lon.=26.508160, Alt.=96.186584m. Speed=0.000000m/h.</desc>
<speed>0.000000</speed>
</trkpt>
<trkpt lat="56.066307" lon="26.508160">
<ele>96.188538</ele>
<time>2010-08-29T11:26:44Z</time>
<desc>lat.=56.066307, lon.=26.508160, Alt.=96.188538m. Speed=0.036000m/h.</desc>
<speed>0.010000</speed>
</trkpt>
<trkpt lat="56.066307" lon="26.508160">
<ele>96.186584</ele>
<time>2010-08-29T11:26:45Z</time>
<desc>lat.=56.066307, lon.=26.508160, Alt.=96.186584m. Speed=0.000000m/h.</desc>
<speed>0.000000</speed>
</trkpt>
<trkpt lat="56.066307" lon="26.508160">
<ele>96.186584</ele>
<time>2010-08-29T11:26:46Z</time>
<desc>lat.=56.066307, lon.=26.508160, Alt.=96.186584m. Speed=0.000000m/h.</desc>
<speed>0.000000</speed>
</trkpt>
<trkpt lat="56.066307" lon="26.508160">
<ele>96.186584</ele>
<time>2010-08-29T11:26:47Z</time>
<desc>lat.=56.066307, lon.=26.508160, Alt.=96.186584m. Speed=0.000000m/h.</desc>
<speed>0.000000</speed>
</trkpt>
<trkpt lat="56.066307" lon="26.508160">
<ele>96.186584</ele>
<time>2010-08-29T11:26:48Z</time>
<desc>lat.=56.066307, lon.=26.508160, Alt.=96.186584m. Speed=0.000000m/h.</desc>
<speed>0.000000</speed>
</trkpt>
<trkpt lat="56.066307" lon="26.508160">
<ele>96.190491</ele>
<time>2010-08-29T11:26:49Z</time>
<desc>lat.=56.066307, lon.=26.508160, Alt.=96.190491m. Speed=0.000000m/h.</desc>
<speed>0.000000</speed>
</trkpt>
<trkpt lat="56.066307" lon="26.508160">
<ele>96.190491</ele>
<time>2010-08-29T11:26:50Z</time>
<desc>lat.=56.066307, lon.=26.508160, Alt.=96.190491m. Speed=0.000000m/h.</desc>
<speed>0.000000</speed>
</trkpt>
<trkpt lat="56.066307" lon="26.508160">
<ele>96.192444</ele>
<time>2010-08-29T11:26:51Z</time>
<desc>lat.=56.066307, lon.=26.508160, Alt.=96.192444m. Speed=0.000000m/h.</desc>
<speed>0.000000</speed>
</trkpt>
<trkpt lat="56.066307" lon="26.508160">
<ele>96.188538</ele>
<time>2010-08-29T11:26:52Z</time>
<desc>lat.=56.066307, lon.=26.508160, Alt.=96.188538m. Speed=0.000000m/h.</desc>
<speed>0.000000</speed>
</trkpt>
<trkpt lat="56.066307" lon="26.508160">
<ele>96.188538</ele>
<time>2010-08-29T11:26:53Z</time>
<desc>lat.=56.066307, lon.=26.508160, Alt.=96.188538m. Speed=0.000000m/h.</desc>
<speed>0.000000</speed>
</trkpt>
<trkpt lat="56.066307" lon="26.508160">
<ele>96.188538</ele>
<time>2010-08-29T11:26:54Z</time>
<desc>lat.=56.066307, lon.=26.508160, Alt.=96.188538m. Speed=0.000000m/h.</desc>
<speed>0.000000</speed>
</trkpt>
<trkpt lat="56.066307" lon="26.508160">
<ele>96.190491</ele>
<time>2010-08-29T11:26:55Z</time>
<desc>lat.=56.066307, lon.=26.508160, Alt.=96.190491m. Speed=0.000000m/h.</desc>
<speed>0.000000</speed>
</trkpt>
<trkpt lat="56.066307" lon="26.508160">
<ele>96.190491</ele>
<time>2010-08-29T11:26:56Z</time>
<desc>lat.=56.066307, lon.=26.508160, Alt.=96.190491m. Speed=0.000000m/h.</desc>
<speed>0.000000</speed>
</trkpt>
<trkpt lat="56.066307" lon="26.508160">
<ele>96.192444</ele>
<time>2010-08-29T11:26:57Z</time>
<desc>lat.=56.066307, lon.=26.508160, Alt.=96.192444m. Speed=0.000000m/h.</desc>
<speed>0.000000</speed>
</trkpt>
<trkpt lat="56.066307" lon="26.508160">
<ele>96.192444</ele>
<time>2010-08-29T11:26:58Z</time>
<desc>lat.=56.066307, lon.=26.508160, Alt.=96.192444m. Speed=0.000000m/h.</desc>
<speed>0.000000</speed>
</trkpt>
<trkpt lat="56.066307" lon="26.508162">
<ele>96.190491</ele>
<time>2010-08-29T11:26:59Z</time>
<desc>lat.=56.066307, lon.=26.508162, Alt.=96.190491m. Speed=0.000000m/h.</desc>
<speed>0.000000</speed>
</trkpt>
<trkpt lat="56.066307" lon="26.508162">
<ele>96.190491</ele>
<time>2010-08-29T11:27:00Z</time>
<desc>lat.=56.066307, lon.=26.508162, Alt.=96.190491m. Speed=0.000000m/h.</desc>
<speed>0.000000</speed>
</trkpt>
<trkpt lat="56.066307" lon="26.508162">
<ele>96.194397</ele>
<time>2010-08-29T11:27:01Z</time>
<desc>lat.=56.066307, lon.=26.508162, Alt.=96.194397m. Speed=0.000000m/h.</desc>
<speed>0.000000</speed>
</trkpt>
<trkpt lat="56.066307" lon="26.508162">
<ele>96.194397</ele>
<time>2010-08-29T11:27:02Z</time>
<desc>lat.=56.066307, lon.=26.508162, Alt.=96.194397m. Speed=0.000000m/h.</desc>
<speed>0.000000</speed>
</trkpt>
<trkpt lat="56.066307" lon="26.508162">
<ele>96.194397</ele>
<time>2010-08-29T11:27:03Z</time>
<desc>lat.=56.066307, lon.=26.508162, Alt.=96.194397m. Speed=0.000000m/h.</desc>
<speed>0.000000</speed>
</trkpt>
<trkpt lat="56.066307" lon="26.508162">
<ele>96.194397</ele>
<time>2010-08-29T11:27:04Z</time>
<desc>lat.=56.066307, lon.=26.508162, Alt.=96.194397m. Speed=0.000000m/h.</desc>
<speed>0.000000</speed>
</trkpt>
<trkpt lat="56.066307" lon="26.508162">
<ele>96.194397</ele>
<time>2010-08-29T11:27:05Z</time>
<desc>lat.=56.066307, lon.=26.508162, Alt.=96.194397m. Speed=0.000000m/h.</desc>
<speed>0.000000</speed>
</trkpt>
<trkpt lat="56.066307" lon="26.508162">
<ele>96.192444</ele>
<time>2010-08-29T11:27:06Z</time>
<desc>lat.=56.066307, lon.=26.508162, Alt.=96.192444m. Speed=0.000000m/h.</desc>
<speed>0.000000</speed>
</trkpt>
<trkpt lat="56.066307" lon="26.508162">
<ele>96.190491</ele>
<time>2010-08-29T11:27:07Z</time>
<desc>lat.=56.066307, lon.=26.508162, Alt.=96.190491m. Speed=0.000000m/h.</desc>
<speed>0.000000</speed>
</trkpt>
<trkpt lat="56.066307" lon="26.508162">
<ele>96.192444</ele>
<time>2010-08-29T11:27:08Z</time>
<desc>lat.=56.066307, lon.=26.508162, Alt.=96.192444m. Speed=0.000000m/h.</desc>
<speed>0.000000</speed>
</trkpt>
<trkpt lat="56.066307" lon="26.508162">
<ele>96.194397</ele>
<time>2010-08-29T11:27:09Z</time>
<desc>lat.=56.066307, lon.=26.508162, Alt.=96.194397m. Speed=0.000000m/h.</desc>
<speed>0.000000</speed>
</trkpt>
<trkpt lat="56.066307" lon="26.508162">
<ele>96.194397</ele>
<time>2010-08-29T11:27:10Z</time>
<desc>lat.=56.066307, lon.=26.508162, Alt.=96.194397m. Speed=0.000000m/h.</desc>
<speed>0.000000</speed>
</trkpt>
<trkpt lat="56.066307" lon="26.508162">
<ele>96.196350</ele>
<time>2010-08-29T11:27:11Z</time>
<desc>lat.=56.066307, lon.=26.508162, Alt.=96.196350m. Speed=0.000000m/h.</desc>
<speed>0.000000</speed>
</trkpt>
<trkpt lat="56.066307" lon="26.508162">
<ele>96.198303</ele>
<time>2010-08-29T11:27:12Z</time>
<desc>lat.=56.066307, lon.=26.508162, Alt.=96.198303m. Speed=0.000000m/h.</desc>
<speed>0.000000</speed>
</trkpt>
<trkpt lat="56.066307" lon="26.508162">
<ele>96.198303</ele>
<time>2010-08-29T11:27:13Z</time>
<desc>lat.=56.066307, lon.=26.508162, Alt.=96.198303m. Speed=0.000000m/h.</desc>
<speed>0.000000</speed>
</trkpt>
<trkpt lat="56.066307" lon="26.508162">
<ele>96.200256</ele>
<time>2010-08-29T11:27:14Z</time>
<desc>lat.=56.066307, lon.=26.508162, Alt.=96.200256m. Speed=0.000000m/h.</desc>
<speed>0.000000</speed>
</trkpt>
<trkpt lat="56.066307" lon="26.508162">
<ele>96.200256</ele>
<time>2010-08-29T11:27:15Z</time>
<desc>lat.=56.066307, lon.=26.508162, Alt.=96.200256m. Speed=0.000000m/h.</desc>
<speed>0.000000</speed>
</trkpt>
<trkpt lat="56.066307" lon="26.508162">
<ele>96.202209</ele>
<time>2010-08-29T11:27:16Z</time>
<desc>lat.=56.066307, lon.=26.508162, Alt.=96.202209m. Speed=0.000000m/h.</desc>
<speed>0.000000</speed>
</trkpt>
<trkpt lat="56.066307" lon="26.508162">
<ele>96.202209</ele>
<time>2010-08-29T11:27:17Z</time>
<desc>lat.=56.066307, lon.=26.508162, Alt.=96.202209m. Speed=0.036000m/h.</desc>
<speed>0.010000</speed>
</trkpt>
<trkpt lat="56.066307" lon="26.508162">
<ele>96.204163</ele>
<time>2010-08-29T11:27:18Z</time>
<desc>lat.=56.066307, lon.=26.508162, Alt.=96.204163m. Speed=0.000000m/h.</desc>
<speed>0.000000</speed>
</trkpt>
<trkpt lat="56.066307" lon="26.508162">
<ele>96.204163</ele>
<time>2010-08-29T11:27:19Z</time>
<desc>lat.=56.066307, lon.=26.508162, Alt.=96.204163m. Speed=0.000000m/h.</desc>
<speed>0.000000</speed>
</trkpt>
<trkpt lat="56.066307" lon="26.508162">
<ele>96.204163</ele>
<time>2010-08-29T11:27:20Z</time>
<desc>lat.=56.066307, lon.=26.508162, Alt.=96.204163m. Speed=0.000000m/h.</desc>
<speed>0.000000</speed>
</trkpt>
<trkpt lat="56.066307" lon="26.508162">
<ele>96.204163</ele>
<time>2010-08-29T11:27:21Z</time>
<desc>lat.=56.066307, lon.=26.508162, Alt.=96.204163m. Speed=0.000000m/h.</desc>
<speed>0.000000</speed>
</trkpt>
<trkpt lat="56.066307" lon="26.508162">
<ele>96.204163</ele>
<time>2010-08-29T11:27:22Z</time>
<desc>lat.=56.066307, lon.=26.508162, Alt.=96.204163m. Speed=0.000000m/h.</desc>
<speed>0.000000</speed>
</trkpt>
<trkpt lat="56.066307" lon="26.508162">
<ele>96.204163</ele>
<time>2010-08-29T11:27:23Z</time>
<desc>lat.=56.066307, lon.=26.508162, Alt.=96.204163m. Speed=0.000000m/h.</desc>
<speed>0.000000</speed>
</trkpt>
<trkpt lat="56.066307" lon="26.508162">
<ele>96.206116</ele>
<time>2010-08-29T11:27:24Z</time>
<desc>lat.=56.066307, lon.=26.508162, Alt.=96.206116m. Speed=0.000000m/h.</desc>
<speed>0.000000</speed>
</trkpt>
<trkpt lat="56.066307" lon="26.508162">
<ele>96.206116</ele>
<time>2010-08-29T11:27:25Z</time>
<desc>lat.=56.066307, lon.=26.508162, Alt.=96.206116m. Speed=0.000000m/h.</desc>
<speed>0.000000</speed>
</trkpt>
<trkpt lat="56.066307" lon="26.508162">
<ele>96.208069</ele>
<time>2010-08-29T11:27:26Z</time>
<desc>lat.=56.066307, lon.=26.508162, Alt.=96.208069m. Speed=0.000000m/h.</desc>
<speed>0.000000</speed>
</trkpt>
<trkpt lat="56.066307" lon="26.508162">
<ele>96.210022</ele>
<time>2010-08-29T11:27:27Z</time>
<desc>lat.=56.066307, lon.=26.508162, Alt.=96.210022m. Speed=0.000000m/h.</desc>
<speed>0.000000</speed>
</trkpt>
<trkpt lat="56.066307" lon="26.508162">
<ele>96.210022</ele>
<time>2010-08-29T11:27:28Z</time>
<desc>lat.=56.066307, lon.=26.508162, Alt.=96.210022m. Speed=0.000000m/h.</desc>
<speed>0.000000</speed>
</trkpt>
<trkpt lat="56.066307" lon="26.508162">
<ele>96.211975</ele>
<time>2010-08-29T11:27:29Z</time>
<desc>lat.=56.066307, lon.=26.508162, Alt.=96.211975m. Speed=0.000000m/h.</desc>
<speed>0.000000</speed>
</trkpt>
<trkpt lat="56.066307" lon="26.508162">
<ele>96.211975</ele>
<time>2010-08-29T11:27:30Z</time>
<desc>lat.=56.066307, lon.=26.508162, Alt.=96.211975m. Speed=0.000000m/h.</desc>
<speed>0.000000</speed>
</trkpt>
<trkpt lat="56.066307" lon="26.508162">
<ele>96.211975</ele>
<time>2010-08-29T11:27:31Z</time>
<desc>lat.=56.066307, lon.=26.508162, Alt.=96.211975m. Speed=0.000000m/h.</desc>
<speed>0.000000</speed>
</trkpt>
<trkpt lat="56.066307" lon="26.508162">
<ele>96.211975</ele>
<time>2010-08-29T11:27:32Z</time>
<desc>lat.=56.066307, lon.=26.508162, Alt.=96.211975m. Speed=0.000000m/h.</desc>
<speed>0.000000</speed>
</trkpt>
<trkpt lat="56.066307" lon="26.508162">
<ele>96.213928</ele>
<time>2010-08-29T11:27:33Z</time>
<desc>lat.=56.066307, lon.=26.508162, Alt.=96.213928m. Speed=0.000000m/h.</desc>
<speed>0.000000</speed>
</trkpt>
<trkpt lat="56.066307" lon="26.508162">
<ele>96.213928</ele>
<time>2010-08-29T11:27:34Z</time>
<desc>lat.=56.066307, lon.=26.508162, Alt.=96.213928m. Speed=0.000000m/h.</desc>
<speed>0.000000</speed>
</trkpt>
<trkpt lat="56.066307" lon="26.508162">
<ele>96.215881</ele>
<time>2010-08-29T11:27:35Z</time>
<desc>lat.=56.066307, lon.=26.508162, Alt.=96.215881m. Speed=0.000000m/h.</desc>
<speed>0.000000</speed>
</trkpt>
<trkpt lat="56.066307" lon="26.508162">
<ele>96.213928</ele>
<time>2010-08-29T11:27:36Z</time>
<desc>lat.=56.066307, lon.=26.508162, Alt.=96.213928m. Speed=0.000000m/h.</desc>
<speed>0.000000</speed>
</trkpt>
<trkpt lat="56.066307" lon="26.508162">
<ele>96.213928</ele>
<time>2010-08-29T11:27:37Z</time>
<desc>lat.=56.066307, lon.=26.508162, Alt.=96.213928m. Speed=0.036000m/h.</desc>
<speed>0.010000</speed>
</trkpt>
<trkpt lat="56.066307" lon="26.508162">
<ele>96.215881</ele>
<time>2010-08-29T11:27:38Z</time>
<desc>lat.=56.066307, lon.=26.508162, Alt.=96.215881m. Speed=0.000000m/h.</desc>
<speed>0.000000</speed>
</trkpt>
<trkpt lat="56.066307" lon="26.508162">
<ele>96.215881</ele>
<time>2010-08-29T11:27:39Z</time>
<desc>lat.=56.066307, lon.=26.508162, Alt.=96.215881m. Speed=0.000000m/h.</desc>
<speed>0.000000</speed>
</trkpt>
<trkpt lat="56.066307" lon="26.508162">
<ele>96.217834</ele>
<time>2010-08-29T11:27:40Z</time>
<desc>lat.=56.066307, lon.=26.508162, Alt.=96.217834m. Speed=0.000000m/h.</desc>
<speed>0.000000</speed>
</trkpt>
<trkpt lat="56.066307" lon="26.508162">
<ele>96.217834</ele>
<time>2010-08-29T11:27:41Z</time>
<desc>lat.=56.066307, lon.=26.508162, Alt.=96.217834m. Speed=0.000000m/h.</desc>
<speed>0.000000</speed>
</trkpt>
<trkpt lat="56.066307" lon="26.508162">
<ele>96.219788</ele>
<time>2010-08-29T11:27:42Z</time>
<desc>lat.=56.066307, lon.=26.508162, Alt.=96.219788m. Speed=0.000000m/h.</desc>
<speed>0.000000</speed>
</trkpt>
<trkpt lat="56.066307" lon="26.508162">
<ele>96.221741</ele>
<time>2010-08-29T11:27:43Z</time>
<desc>lat.=56.066307, lon.=26.508162, Alt.=96.221741m. Speed=0.000000m/h.</desc>
<speed>0.000000</speed>
</trkpt>
<trkpt lat="56.066311" lon="26.508162">
<ele>96.221741</ele>
<time>2010-08-29T11:27:44Z</time>
<desc>lat.=56.066311, lon.=26.508162, Alt.=96.221741m. Speed=0.000000m/h.</desc>
<speed>0.000000</speed>
</trkpt>
<trkpt lat="56.066311" lon="26.508162">
<ele>96.223694</ele>
<time>2010-08-29T11:27:45Z</time>
<desc>lat.=56.066311, lon.=26.508162, Alt.=96.223694m. Speed=0.000000m/h.</desc>
<speed>0.000000</speed>
</trkpt>
<trkpt lat="56.066311" lon="26.508162">
<ele>96.223694</ele>
<time>2010-08-29T11:27:46Z</time>
<desc>lat.=56.066311, lon.=26.508162, Alt.=96.223694m. Speed=0.000000m/h.</desc>
<speed>0.000000</speed>
</trkpt>
<trkpt lat="56.066311" lon="26.508162">
<ele>96.223694</ele>
<time>2010-08-29T11:27:47Z</time>
<desc>lat.=56.066311, lon.=26.508162, Alt.=96.223694m. Speed=0.000000m/h.</desc>
<speed>0.000000</speed>
</trkpt>
<trkpt lat="56.066311" lon="26.508162">
<ele>96.223694</ele>
<time>2010-08-29T11:27:48Z</time>
<desc>lat.=56.066311, lon.=26.508162, Alt.=96.223694m. Speed=0.000000m/h.</desc>
<speed>0.000000</speed>
</trkpt>
<trkpt lat="56.066311" lon="26.508162">
<ele>96.225647</ele>
<time>2010-08-29T11:27:49Z</time>
<desc>lat.=56.066311, lon.=26.508162, Alt.=96.225647m. Speed=0.000000m/h.</desc>
<speed>0.000000</speed>
</trkpt>
<trkpt lat="56.066311" lon="26.508162">
<ele>96.225647</ele>
<time>2010-08-29T11:27:50Z</time>
<desc>lat.=56.066311, lon.=26.508162, Alt.=96.225647m. Speed=0.000000m/h.</desc>
<speed>0.000000</speed>
</trkpt>
<trkpt lat="56.066311" lon="26.508162">
<ele>96.225647</ele>
<time>2010-08-29T11:27:51Z</time>
<desc>lat.=56.066311, lon.=26.508162, Alt.=96.225647m. Speed=0.000000m/h.</desc>
<speed>0.000000</speed>
</trkpt>
<trkpt lat="56.066311" lon="26.508162">
<ele>96.225647</ele>
<time>2010-08-29T11:27:52Z</time>
<desc>lat.=56.066311, lon.=26.508162, Alt.=96.225647m. Speed=0.000000m/h.</desc>
<speed>0.000000</speed>
</trkpt>
<trkpt lat="56.066311" lon="26.508162">
<ele>96.225647</ele>
<time>2010-08-29T11:27:53Z</time>
<desc>lat.=56.066311, lon.=26.508162, Alt.=96.225647m. Speed=0.000000m/h.</desc>
<speed>0.000000</speed>
</trkpt>
<trkpt lat="56.066311" lon="26.508162">
<ele>96.225647</ele>
<time>2010-08-29T11:27:54Z</time>
<desc>lat.=56.066311, lon.=26.508162, Alt.=96.225647m. Speed=0.000000m/h.</desc>
<speed>0.000000</speed>
</trkpt>
<trkpt lat="56.066311" lon="26.508162">
<ele>96.223694</ele>
<time>2010-08-29T11:27:55Z</time>
<desc>lat.=56.066311, lon.=26.508162, Alt.=96.223694m. Speed=0.000000m/h.</desc>
<speed>0.000000</speed>
</trkpt>
<trkpt lat="56.066311" lon="26.508162">
<ele>96.223694</ele>
<time>2010-08-29T11:27:56Z</time>
<desc>lat.=56.066311, lon.=26.508162, Alt.=96.223694m. Speed=0.000000m/h.</desc>
<speed>0.000000</speed>
</trkpt>
<trkpt lat="56.066311" lon="26.508162">
<ele>96.223694</ele>
<time>2010-08-29T11:27:57Z</time>
<desc>lat.=56.066311, lon.=26.508162, Alt.=96.223694m. Speed=0.000000m/h.</desc>
<speed>0.000000</speed>
</trkpt>
<trkpt lat="56.066311" lon="26.508162">
<ele>96.221741</ele>
<time>2010-08-29T11:27:58Z</time>
<desc>lat.=56.066311, lon.=26.508162, Alt.=96.221741m. Speed=0.000000m/h.</desc>
<speed>0.000000</speed>
</trkpt>
<trkpt lat="56.066311" lon="26.508162">
<ele>96.221741</ele>
<time>2010-08-29T11:27:59Z</time>
<desc>lat.=56.066311, lon.=26.508162, Alt.=96.221741m. Speed=0.000000m/h.</desc>
<speed>0.000000</speed>
</trkpt>
<trkpt lat="56.066311" lon="26.508162">
<ele>96.223694</ele>
<time>2010-08-29T11:28:00Z</time>
<desc>lat.=56.066311, lon.=26.508162, Alt.=96.223694m. Speed=0.000000m/h.</desc>
<speed>0.000000</speed>
</trkpt>
<trkpt lat="56.066311" lon="26.508162">
<ele>96.211975</ele>
<time>2010-08-29T11:28:01Z</time>
<desc>lat.=56.066311, lon.=26.508162, Alt.=96.211975m. Speed=0.432000m/h.</desc>
<speed>0.120000</speed>
</trkpt>
<trkpt lat="56.066311" lon="26.508162">
<ele>96.204163</ele>
<time>2010-08-29T11:28:02Z</time>
<desc>lat.=56.066311, lon.=26.508162, Alt.=96.204163m. Speed=0.000000m/h.</desc>
<speed>0.000000</speed>
</trkpt>
<trkpt lat="56.066311" lon="26.508162">
<ele>96.200256</ele>
<time>2010-08-29T11:28:03Z</time>
<desc>lat.=56.066311, lon.=26.508162, Alt.=96.200256m. Speed=0.000000m/h.</desc>
<speed>0.000000</speed>
</trkpt>
<trkpt lat="56.066311" lon="26.508162">
<ele>96.200256</ele>
<time>2010-08-29T11:28:04Z</time>
<desc>lat.=56.066311, lon.=26.508162, Alt.=96.200256m. Speed=0.000000m/h.</desc>
<speed>0.000000</speed>
</trkpt>
<trkpt lat="56.066311" lon="26.508162">
<ele>96.198303</ele>
<time>2010-08-29T11:28:05Z</time>
<desc>lat.=56.066311, lon.=26.508162, Alt.=96.198303m. Speed=0.000000m/h.</desc>
<speed>0.000000</speed>
</trkpt>
<trkpt lat="56.066311" lon="26.508162">
<ele>96.198303</ele>
<time>2010-08-29T11:28:06Z</time>
<desc>lat.=56.066311, lon.=26.508162, Alt.=96.198303m. Speed=0.000000m/h.</desc>
<speed>0.000000</speed>
</trkpt>
<trkpt lat="56.066311" lon="26.508162">
<ele>96.196350</ele>
<time>2010-08-29T11:28:07Z</time>
<desc>lat.=56.066311, lon.=26.508162, Alt.=96.196350m. Speed=0.000000m/h.</desc>
<speed>0.000000</speed>
</trkpt>
<trkpt lat="56.066311" lon="26.508162">
<ele>96.194397</ele>
<time>2010-08-29T11:28:08Z</time>
<desc>lat.=56.066311, lon.=26.508162, Alt.=96.194397m. Speed=0.000000m/h.</desc>
<speed>0.000000</speed>
</trkpt>
<trkpt lat="56.066311" lon="26.508162">
<ele>96.192444</ele>
<time>2010-08-29T11:28:09Z</time>
<desc>lat.=56.066311, lon.=26.508162, Alt.=96.192444m. Speed=0.000000m/h.</desc>
<speed>0.000000</speed>
</trkpt>
<trkpt lat="56.066311" lon="26.508162">
<ele>96.190491</ele>
<time>2010-08-29T11:28:10Z</time>
<desc>lat.=56.066311, lon.=26.508162, Alt.=96.190491m. Speed=0.000000m/h.</desc>
<speed>0.000000</speed>
</trkpt>
<trkpt lat="56.066311" lon="26.508162">
<ele>96.188538</ele>
<time>2010-08-29T11:28:11Z</time>
<desc>lat.=56.066311, lon.=26.508162, Alt.=96.188538m. Speed=0.000000m/h.</desc>
<speed>0.000000</speed>
</trkpt>
<trkpt lat="56.066311" lon="26.508162">
<ele>96.188538</ele>
<time>2010-08-29T11:28:12Z</time>
<desc>lat.=56.066311, lon.=26.508162, Alt.=96.188538m. Speed=0.000000m/h.</desc>
<speed>0.000000</speed>
</trkpt>
<trkpt lat="56.066311" lon="26.508162">
<ele>96.188538</ele>
<time>2010-08-29T11:28:13Z</time>
<desc>lat.=56.066311, lon.=26.508162, Alt.=96.188538m. Speed=0.000000m/h.</desc>
<speed>0.000000</speed>
</trkpt>
<trkpt lat="56.066311" lon="26.508162">
<ele>96.186584</ele>
<time>2010-08-29T11:28:14Z</time>
<desc>lat.=56.066311, lon.=26.508162, Alt.=96.186584m. Speed=0.000000m/h.</desc>
<speed>0.000000</speed>
</trkpt>
<trkpt lat="56.066311" lon="26.508162">
<ele>96.184631</ele>
<time>2010-08-29T11:28:15Z</time>
<desc>lat.=56.066311, lon.=26.508162, Alt.=96.184631m. Speed=0.000000m/h.</desc>
<speed>0.000000</speed>
</trkpt>
<trkpt lat="56.066311" lon="26.508162">
<ele>96.182678</ele>
<time>2010-08-29T11:28:16Z</time>
<desc>lat.=56.066311, lon.=26.508162, Alt.=96.182678m. Speed=0.000000m/h.</desc>
<speed>0.000000</speed>
</trkpt>
<trkpt lat="56.066311" lon="26.508162">
<ele>96.180725</ele>
<time>2010-08-29T11:28:17Z</time>
<desc>lat.=56.066311, lon.=26.508162, Alt.=96.180725m. Speed=0.000000m/h.</desc>
<speed>0.000000</speed>
</trkpt>
<trkpt lat="56.066311" lon="26.508162">
<ele>96.178772</ele>
<time>2010-08-29T11:28:18Z</time>
<desc>lat.=56.066311, lon.=26.508162, Alt.=96.178772m. Speed=0.000000m/h.</desc>
<speed>0.000000</speed>
</trkpt>
<trkpt lat="56.066311" lon="26.508162">
<ele>96.176819</ele>
<time>2010-08-29T11:28:19Z</time>
<desc>lat.=56.066311, lon.=26.508162, Alt.=96.176819m. Speed=0.000000m/h.</desc>
<speed>0.000000</speed>
</trkpt>
<trkpt lat="56.066311" lon="26.508162">
<ele>96.174866</ele>
<time>2010-08-29T11:28:20Z</time>
<desc>lat.=56.066311, lon.=26.508162, Alt.=96.174866m. Speed=0.000000m/h.</desc>
<speed>0.000000</speed>
</trkpt>
<trkpt lat="56.066311" lon="26.508162">
<ele>96.174866</ele>
<time>2010-08-29T11:28:21Z</time>
<desc>lat.=56.066311, lon.=26.508162, Alt.=96.174866m. Speed=0.000000m/h.</desc>
<speed>0.000000</speed>
</trkpt>
<trkpt lat="56.066311" lon="26.508162">
<ele>96.172913</ele>
<time>2010-08-29T11:28:22Z</time>
<desc>lat.=56.066311, lon.=26.508162, Alt.=96.172913m. Speed=0.000000m/h.</desc>
<speed>0.000000</speed>
</trkpt>
<trkpt lat="56.066311" lon="26.508162">
<ele>96.170959</ele>
<time>2010-08-29T11:28:23Z</time>
<desc>lat.=56.066311, lon.=26.508162, Alt.=96.170959m. Speed=0.000000m/h.</desc>
<speed>0.000000</speed>
</trkpt>
<trkpt lat="56.066311" lon="26.508162">
<ele>96.172913</ele>
<time>2010-08-29T11:28:24Z</time>
<desc>lat.=56.066311, lon.=26.508162, Alt.=96.172913m. Speed=0.000000m/h.</desc>
<speed>0.000000</speed>
</trkpt>
<trkpt lat="56.066311" lon="26.508162">
<ele>96.170959</ele>
<time>2010-08-29T11:28:25Z</time>
<desc>lat.=56.066311, lon.=26.508162, Alt.=96.170959m. Speed=0.000000m/h.</desc>
<speed>0.000000</speed>
</trkpt>
<trkpt lat="56.066311" lon="26.508162">
<ele>96.167053</ele>
<time>2010-08-29T11:28:26Z</time>
<desc>lat.=56.066311, lon.=26.508162, Alt.=96.167053m. Speed=0.000000m/h.</desc>
<speed>0.000000</speed>
</trkpt>
<trkpt lat="56.066311" lon="26.508162">
<ele>96.165100</ele>
<time>2010-08-29T11:28:27Z</time>
<desc>lat.=56.066311, lon.=26.508162, Alt.=96.165100m. Speed=0.000000m/h.</desc>
<speed>0.000000</speed>
</trkpt>
<trkpt lat="56.066311" lon="26.508162">
<ele>96.163147</ele>
<time>2010-08-29T11:28:28Z</time>
<desc>lat.=56.066311, lon.=26.508162, Alt.=96.163147m. Speed=0.000000m/h.</desc>
<speed>0.000000</speed>
</trkpt>
<trkpt lat="56.066311" lon="26.508162">
<ele>96.163147</ele>
<time>2010-08-29T11:28:29Z</time>
<desc>lat.=56.066311, lon.=26.508162, Alt.=96.163147m. Speed=0.000000m/h.</desc>
<speed>0.000000</speed>
</trkpt>
<trkpt lat="56.066311" lon="26.508162">
<ele>96.163147</ele>
<time>2010-08-29T11:28:30Z</time>
<desc>lat.=56.066311, lon.=26.508162, Alt.=96.163147m. Speed=0.000000m/h.</desc>
<speed>0.000000</speed>
</trkpt>
<trkpt lat="56.066311" lon="26.508162">
<ele>96.161194</ele>
<time>2010-08-29T11:28:31Z</time>
<desc>lat.=56.066311, lon.=26.508162, Alt.=96.161194m. Speed=0.000000m/h.</desc>
<speed>0.000000</speed>
</trkpt>
<trkpt lat="56.066311" lon="26.508162">
<ele>96.159241</ele>
<time>2010-08-29T11:28:32Z</time>
<desc>lat.=56.066311, lon.=26.508162, Alt.=96.159241m. Speed=0.000000m/h.</desc>
<speed>0.000000</speed>
</trkpt>
<trkpt lat="56.066311" lon="26.508162">
<ele>96.157288</ele>
<time>2010-08-29T11:28:33Z</time>
<desc>lat.=56.066311, lon.=26.508162, Alt.=96.157288m. Speed=0.036000m/h.</desc>
<speed>0.010000</speed>
</trkpt>
<trkpt lat="56.066311" lon="26.508162">
<ele>96.153381</ele>
<time>2010-08-29T11:28:34Z</time>
<desc>lat.=56.066311, lon.=26.508162, Alt.=96.153381m. Speed=0.000000m/h.</desc>
<speed>0.000000</speed>
</trkpt>
<trkpt lat="56.066311" lon="26.508162">
<ele>96.153381</ele>
<time>2010-08-29T11:28:35Z</time>
<desc>lat.=56.066311, lon.=26.508162, Alt.=96.153381m. Speed=0.000000m/h.</desc>
<speed>0.000000</speed>
</trkpt>
<trkpt lat="56.066311" lon="26.508162">
<ele>96.149475</ele>
<time>2010-08-29T11:28:36Z</time>
<desc>lat.=56.066311, lon.=26.508162, Alt.=96.149475m. Speed=0.000000m/h.</desc>
<speed>0.000000</speed>
</trkpt>
<trkpt lat="56.066311" lon="26.508162">
<ele>96.147522</ele>
<time>2010-08-29T11:28:37Z</time>
<desc>lat.=56.066311, lon.=26.508162, Alt.=96.147522m. Speed=0.000000m/h.</desc>
<speed>0.000000</speed>
</trkpt>
<trkpt lat="56.066311" lon="26.508163">
<ele>96.143616</ele>
<time>2010-08-29T11:28:38Z</time>
<desc>lat.=56.066311, lon.=26.508163, Alt.=96.143616m. Speed=0.000000m/h.</desc>
<speed>0.000000</speed>
</trkpt>
<trkpt lat="56.066311" lon="26.508163">
<ele>96.143616</ele>
<time>2010-08-29T11:28:39Z</time>
<desc>lat.=56.066311, lon.=26.508163, Alt.=96.143616m. Speed=0.000000m/h.</desc>
<speed>0.000000</speed>
</trkpt>
<trkpt lat="56.066311" lon="26.508163">
<ele>96.139709</ele>
<time>2010-08-29T11:28:40Z</time>
<desc>lat.=56.066311, lon.=26.508163, Alt.=96.139709m. Speed=0.000000m/h.</desc>
<speed>0.000000</speed>
</trkpt>
<trkpt lat="56.066311" lon="26.508163">
<ele>96.139709</ele>
<time>2010-08-29T11:28:41Z</time>
<desc>lat.=56.066311, lon.=26.508163, Alt.=96.139709m. Speed=0.000000m/h.</desc>
<speed>0.000000</speed>
</trkpt>
<trkpt lat="56.066311" lon="26.508163">
<ele>96.135803</ele>
<time>2010-08-29T11:28:42Z</time>
<desc>lat.=56.066311, lon.=26.508163, Alt.=96.135803m. Speed=0.000000m/h.</desc>
<speed>0.000000</speed>
</trkpt>
<trkpt lat="56.066311" lon="26.508163">
<ele>96.133850</ele>
<time>2010-08-29T11:28:43Z</time>
<desc>lat.=56.066311, lon.=26.508163, Alt.=96.133850m. Speed=0.000000m/h.</desc>
<speed>0.000000</speed>
</trkpt>
<trkpt lat="56.066311" lon="26.508163">
<ele>96.131897</ele>
<time>2010-08-29T11:28:44Z</time>
<desc>lat.=56.066311, lon.=26.508163, Alt.=96.131897m. Speed=0.000000m/h.</desc>
<speed>0.000000</speed>
</trkpt>
<trkpt lat="56.066311" lon="26.508163">
<ele>96.129944</ele>
<time>2010-08-29T11:28:45Z</time>
<desc>lat.=56.066311, lon.=26.508163, Alt.=96.129944m. Speed=0.000000m/h.</desc>
<speed>0.000000</speed>
</trkpt>
<trkpt lat="56.066311" lon="26.508163">
<ele>96.127991</ele>
<time>2010-08-29T11:28:46Z</time>
<desc>lat.=56.066311, lon.=26.508163, Alt.=96.127991m. Speed=0.000000m/h.</desc>
<speed>0.000000</speed>
</trkpt>
<trkpt lat="56.066311" lon="26.508163">
<ele>96.124084</ele>
<time>2010-08-29T11:28:47Z</time>
<desc>lat.=56.066311, lon.=26.508163, Alt.=96.124084m. Speed=0.000000m/h.</desc>
<speed>0.000000</speed>
</trkpt>
<trkpt lat="56.066311" lon="26.508163">
<ele>96.122131</ele>
<time>2010-08-29T11:28:48Z</time>
<desc>lat.=56.066311, lon.=26.508163, Alt.=96.122131m. Speed=0.000000m/h.</desc>
<speed>0.000000</speed>
</trkpt>
<trkpt lat="56.066311" lon="26.508163">
<ele>96.118225</ele>
<time>2010-08-29T11:28:49Z</time>
<desc>lat.=56.066311, lon.=26.508163, Alt.=96.118225m. Speed=0.000000m/h.</desc>
<speed>0.000000</speed>
</trkpt>
<trkpt lat="56.066311" lon="26.508163">
<ele>96.114319</ele>
<time>2010-08-29T11:28:50Z</time>
<desc>lat.=56.066311, lon.=26.508163, Alt.=96.114319m. Speed=0.000000m/h.</desc>
<speed>0.000000</speed>
</trkpt>
<trkpt lat="56.066311" lon="26.508163">
<ele>96.112366</ele>
<time>2010-08-29T11:28:51Z</time>
<desc>lat.=56.066311, lon.=26.508163, Alt.=96.112366m. Speed=0.108000m/h.</desc>
<speed>0.030000</speed>
</trkpt>
<trkpt lat="56.066311" lon="26.508163">
<ele>96.110413</ele>
<time>2010-08-29T11:28:52Z</time>
<desc>lat.=56.066311, lon.=26.508163, Alt.=96.110413m. Speed=0.612000m/h.</desc>
<speed>0.170000</speed>
</trkpt>
<trkpt lat="56.066311" lon="26.508163">
<ele>96.108459</ele>
<time>2010-08-29T11:28:53Z</time>
<desc>lat.=56.066311, lon.=26.508163, Alt.=96.108459m. Speed=0.216000m/h.</desc>
<speed>0.060000</speed>
</trkpt>
<trkpt lat="56.066311" lon="26.508163">
<ele>96.026428</ele>
<time>2010-08-29T11:28:54Z</time>
<desc>lat.=56.066311, lon.=26.508163, Alt.=96.026428m. Speed=0.288000m/h.</desc>
<speed>0.080000</speed>
</trkpt>
<trkpt lat="56.066311" lon="26.508163">
<ele>96.018616</ele>
<time>2010-08-29T11:28:55Z</time>
<desc>lat.=56.066311, lon.=26.508163, Alt.=96.018616m. Speed=0.000000m/h.</desc>
<speed>0.000000</speed>
</trkpt>
<trkpt lat="56.066311" lon="26.508163">
<ele>96.014709</ele>
<time>2010-08-29T11:28:56Z</time>
<desc>lat.=56.066311, lon.=26.508163, Alt.=96.014709m. Speed=0.000000m/h.</desc>
<speed>0.000000</speed>
</trkpt>
<trkpt lat="56.066311" lon="26.508163">
<ele>96.012756</ele>
<time>2010-08-29T11:28:57Z</time>
<desc>lat.=56.066311, lon.=26.508163, Alt.=96.012756m. Speed=0.000000m/h.</desc>
<speed>0.000000</speed>
</trkpt>
<trkpt lat="56.066311" lon="26.508163">
<ele>96.008850</ele>
<time>2010-08-29T11:28:58Z</time>
<desc>lat.=56.066311, lon.=26.508163, Alt.=96.008850m. Speed=0.000000m/h.</desc>
<speed>0.000000</speed>
</trkpt>
<trkpt lat="56.066311" lon="26.508163">
<ele>96.008850</ele>
<time>2010-08-29T11:28:59Z</time>
<desc>lat.=56.066311, lon.=26.508163, Alt.=96.008850m. Speed=0.000000m/h.</desc>
<speed>0.000000</speed>
</trkpt>
<trkpt lat="56.066311" lon="26.508163">
<ele>96.004944</ele>
<time>2010-08-29T11:29:00Z</time>
<desc>lat.=56.066311, lon.=26.508163, Alt.=96.004944m. Speed=0.000000m/h.</desc>
<speed>0.000000</speed>
</trkpt>
<trkpt lat="56.066311" lon="26.508163">
<ele>96.002991</ele>
<time>2010-08-29T11:29:01Z</time>
<desc>lat.=56.066311, lon.=26.508163, Alt.=96.002991m. Speed=0.000000m/h.</desc>
<speed>0.000000</speed>
</trkpt>
<trkpt lat="56.066311" lon="26.508163">
<ele>95.999084</ele>
<time>2010-08-29T11:29:02Z</time>
<desc>lat.=56.066311, lon.=26.508163, Alt.=95.999084m. Speed=0.000000m/h.</desc>
<speed>0.000000</speed>
</trkpt>
<trkpt lat="56.066311" lon="26.508163">
<ele>95.995178</ele>
<time>2010-08-29T11:29:03Z</time>
<desc>lat.=56.066311, lon.=26.508163, Alt.=95.995178m. Speed=0.000000m/h.</desc>
<speed>0.000000</speed>
</trkpt>
<trkpt lat="56.066311" lon="26.508163">
<ele>95.995178</ele>
<time>2010-08-29T11:29:04Z</time>
<desc>lat.=56.066311, lon.=26.508163, Alt.=95.995178m. Speed=0.468000m/h.</desc>
<speed>0.130000</speed>
</trkpt>
<trkpt lat="56.066311" lon="26.508163">
<ele>95.995178</ele>
<time>2010-08-29T11:29:05Z</time>
<desc>lat.=56.066311, lon.=26.508163, Alt.=95.995178m. Speed=0.360000m/h.</desc>
<speed>0.100000</speed>
</trkpt>
<trkpt lat="56.066315" lon="26.508165">
<ele>95.913147</ele>
<time>2010-08-29T11:29:06Z</time>
<desc>lat.=56.066315, lon.=26.508165, Alt.=95.913147m. Speed=0.252000m/h.</desc>
<speed>0.070000</speed>
</trkpt>
<trkpt lat="56.066315" lon="26.508165">
<ele>95.903381</ele>
<time>2010-08-29T11:29:07Z</time>
<desc>lat.=56.066315, lon.=26.508165, Alt.=95.903381m. Speed=0.036000m/h.</desc>
<speed>0.010000</speed>
</trkpt>
<trkpt lat="56.066315" lon="26.508165">
<ele>95.897522</ele>
<time>2010-08-29T11:29:08Z</time>
<desc>lat.=56.066315, lon.=26.508165, Alt.=95.897522m. Speed=0.000000m/h.</desc>
<speed>0.000000</speed>
</trkpt>
<trkpt lat="56.066315" lon="26.508165">
<ele>95.897522</ele>
<time>2010-08-29T11:29:09Z</time>
<desc>lat.=56.066315, lon.=26.508165, Alt.=95.897522m. Speed=0.000000m/h.</desc>
<speed>0.000000</speed>
</trkpt>
<trkpt lat="56.066315" lon="26.508165">
<ele>95.897522</ele>
<time>2010-08-29T11:29:10Z</time>
<desc>lat.=56.066315, lon.=26.508165, Alt.=95.897522m. Speed=0.000000m/h.</desc>
<speed>0.000000</speed>
</trkpt>
<trkpt lat="56.066315" lon="26.508165">
<ele>95.895569</ele>
<time>2010-08-29T11:29:11Z</time>
<desc>lat.=56.066315, lon.=26.508165, Alt.=95.895569m. Speed=0.000000m/h.</desc>
<speed>0.000000</speed>
</trkpt>
<trkpt lat="56.066315" lon="26.508165">
<ele>95.893616</ele>
<time>2010-08-29T11:29:12Z</time>
<desc>lat.=56.066315, lon.=26.508165, Alt.=95.893616m. Speed=0.000000m/h.</desc>
<speed>0.000000</speed>
</trkpt>
<trkpt lat="56.066315" lon="26.508165">
<ele>95.889709</ele>
<time>2010-08-29T11:29:13Z</time>
<desc>lat.=56.066315, lon.=26.508165, Alt.=95.889709m. Speed=0.000000m/h.</desc>
<speed>0.000000</speed>
</trkpt>
<trkpt lat="56.066315" lon="26.508165">
<ele>95.885803</ele>
<time>2010-08-29T11:29:14Z</time>
<desc>lat.=56.066315, lon.=26.508165, Alt.=95.885803m. Speed=0.000000m/h.</desc>
<speed>0.000000</speed>
</trkpt>
<trkpt lat="56.066315" lon="26.508165">
<ele>95.885803</ele>
<time>2010-08-29T11:29:15Z</time>
<desc>lat.=56.066315, lon.=26.508165, Alt.=95.885803m. Speed=0.000000m/h.</desc>
<speed>0.000000</speed>
</trkpt>
<trkpt lat="56.066315" lon="26.508165">
<ele>95.883850</ele>
<time>2010-08-29T11:29:16Z</time>
<desc>lat.=56.066315, lon.=26.508165, Alt.=95.883850m. Speed=0.000000m/h.</desc>
<speed>0.000000</speed>
</trkpt>
<trkpt lat="56.066315" lon="26.508165">
<ele>95.877991</ele>
<time>2010-08-29T11:29:17Z</time>
<desc>lat.=56.066315, lon.=26.508165, Alt.=95.877991m. Speed=0.108000m/h.</desc>
<speed>0.030000</speed>
</trkpt>
<trkpt lat="56.066315" lon="26.508165">
<ele>95.872131</ele>
<time>2010-08-29T11:29:18Z</time>
<desc>lat.=56.066315, lon.=26.508165, Alt.=95.872131m. Speed=0.000000m/h.</desc>
<speed>0.000000</speed>
</trkpt>
<trkpt lat="56.066315" lon="26.508165">
<ele>95.870178</ele>
<time>2010-08-29T11:29:19Z</time>
<desc>lat.=56.066315, lon.=26.508165, Alt.=95.870178m. Speed=0.000000m/h.</desc>
<speed>0.000000</speed>
</trkpt>
<trkpt lat="56.066315" lon="26.508165">
<ele>95.868225</ele>
<time>2010-08-29T11:29:20Z</time>
<desc>lat.=56.066315, lon.=26.508165, Alt.=95.868225m. Speed=0.000000m/h.</desc>
<speed>0.000000</speed>
</trkpt>
<trkpt lat="56.066315" lon="26.508165">
<ele>95.864319</ele>
<time>2010-08-29T11:29:21Z</time>
<desc>lat.=56.066315, lon.=26.508165, Alt.=95.864319m. Speed=0.000000m/h.</desc>
<speed>0.000000</speed>
</trkpt>
<trkpt lat="56.066315" lon="26.508165">
<ele>95.862366</ele>
<time>2010-08-29T11:29:22Z</time>
<desc>lat.=56.066315, lon.=26.508165, Alt.=95.862366m. Speed=0.000000m/h.</desc>
<speed>0.000000</speed>
</trkpt>
<trkpt lat="56.066315" lon="26.508165">
<ele>95.858459</ele>
<time>2010-08-29T11:29:23Z</time>
<desc>lat.=56.066315, lon.=26.508165, Alt.=95.858459m. Speed=0.000000m/h.</desc>
<speed>0.000000</speed>
</trkpt>
<trkpt lat="56.066315" lon="26.508165">
<ele>95.858459</ele>
<time>2010-08-29T11:29:24Z</time>
<desc>lat.=56.066315, lon.=26.508165, Alt.=95.858459m. Speed=0.000000m/h.</desc>
<speed>0.000000</speed>
</trkpt>
<trkpt lat="56.066315" lon="26.508165">
<ele>95.858459</ele>
<time>2010-08-29T11:29:25Z</time>
<desc>lat.=56.066315, lon.=26.508165, Alt.=95.858459m. Speed=0.000000m/h.</desc>
<speed>0.000000</speed>
</trkpt>
<trkpt lat="56.066315" lon="26.508165">
<ele>95.858459</ele>
<time>2010-08-29T11:29:26Z</time>
<desc>lat.=56.066315, lon.=26.508165, Alt.=95.858459m. Speed=0.000000m/h.</desc>
<speed>0.000000</speed>
</trkpt>
<trkpt lat="56.066315" lon="26.508165">
<ele>95.854553</ele>
<time>2010-08-29T11:29:27Z</time>
<desc>lat.=56.066315, lon.=26.508165, Alt.=95.854553m. Speed=0.000000m/h.</desc>
<speed>0.000000</speed>
</trkpt>
<trkpt lat="56.066315" lon="26.508165">
<ele>95.854553</ele>
<time>2010-08-29T11:29:28Z</time>
<desc>lat.=56.066315, lon.=26.508165, Alt.=95.854553m. Speed=0.000000m/h.</desc>
<speed>0.000000</speed>
</trkpt>
<trkpt lat="56.066315" lon="26.508167">
<ele>95.852600</ele>
<time>2010-08-29T11:29:29Z</time>
<desc>lat.=56.066315, lon.=26.508167, Alt.=95.852600m. Speed=0.072000m/h.</desc>
<speed>0.020000</speed>
</trkpt>
<trkpt lat="56.066315" lon="26.508167">
<ele>95.850647</ele>
<time>2010-08-29T11:29:30Z</time>
<desc>lat.=56.066315, lon.=26.508167, Alt.=95.850647m. Speed=0.000000m/h.</desc>
<speed>0.000000</speed>
</trkpt>
<trkpt lat="56.066315" lon="26.508167">
<ele>95.848694</ele>
<time>2010-08-29T11:29:31Z</time>
<desc>lat.=56.066315, lon.=26.508167, Alt.=95.848694m. Speed=0.036000m/h.</desc>
<speed>0.010000</speed>
</trkpt>
<trkpt lat="56.066315" lon="26.508167">
<ele>95.844788</ele>
<time>2010-08-29T11:29:32Z</time>
<desc>lat.=56.066315, lon.=26.508167, Alt.=95.844788m. Speed=0.000000m/h.</desc>
<speed>0.000000</speed>
</trkpt>
<trkpt lat="56.066315" lon="26.508167">
<ele>95.844788</ele>
<time>2010-08-29T11:29:33Z</time>
<desc>lat.=56.066315, lon.=26.508167, Alt.=95.844788m. Speed=0.036000m/h.</desc>
<speed>0.010000</speed>
</trkpt>
<trkpt lat="56.066315" lon="26.508167">
<ele>95.840881</ele>
<time>2010-08-29T11:29:34Z</time>
<desc>lat.=56.066315, lon.=26.508167, Alt.=95.840881m. Speed=0.000000m/h.</desc>
<speed>0.000000</speed>
</trkpt>
<trkpt lat="56.066315" lon="26.508167">
<ele>95.840881</ele>
<time>2010-08-29T11:29:35Z</time>
<desc>lat.=56.066315, lon.=26.508167, Alt.=95.840881m. Speed=0.000000m/h.</desc>
<speed>0.000000</speed>
</trkpt>
<trkpt lat="56.066315" lon="26.508167">
<ele>95.840881</ele>
<time>2010-08-29T11:29:36Z</time>
<desc>lat.=56.066315, lon.=26.508167, Alt.=95.840881m. Speed=0.036000m/h.</desc>
<speed>0.010000</speed>
</trkpt>
<trkpt lat="56.066315" lon="26.508167">
<ele>95.838928</ele>
<time>2010-08-29T11:29:37Z</time>
<desc>lat.=56.066315, lon.=26.508167, Alt.=95.838928m. Speed=0.000000m/h.</desc>
<speed>0.000000</speed>
</trkpt>
<trkpt lat="56.066315" lon="26.508167">
<ele>95.838928</ele>
<time>2010-08-29T11:29:38Z</time>
<desc>lat.=56.066315, lon.=26.508167, Alt.=95.838928m. Speed=0.000000m/h.</desc>
<speed>0.000000</speed>
</trkpt>
<trkpt lat="56.066315" lon="26.508167">
<ele>95.836975</ele>
<time>2010-08-29T11:29:39Z</time>
<desc>lat.=56.066315, lon.=26.508167, Alt.=95.836975m. Speed=0.000000m/h.</desc>
<speed>0.000000</speed>
</trkpt>
<trkpt lat="56.066315" lon="26.508167">
<ele>95.836975</ele>
<time>2010-08-29T11:29:40Z</time>
<desc>lat.=56.066315, lon.=26.508167, Alt.=95.836975m. Speed=0.000000m/h.</desc>
<speed>0.000000</speed>
</trkpt>
<trkpt lat="56.066315" lon="26.508167">
<ele>95.836975</ele>
<time>2010-08-29T11:29:41Z</time>
<desc>lat.=56.066315, lon.=26.508167, Alt.=95.836975m. Speed=0.000000m/h.</desc>
<speed>0.000000</speed>
</trkpt>
<trkpt lat="56.066315" lon="26.508167">
<ele>95.836975</ele>
<time>2010-08-29T11:29:42Z</time>
<desc>lat.=56.066315, lon.=26.508167, Alt.=95.836975m. Speed=0.000000m/h.</desc>
<speed>0.000000</speed>
</trkpt>
<trkpt lat="56.066315" lon="26.508167">
<ele>95.836975</ele>
<time>2010-08-29T11:29:43Z</time>
<desc>lat.=56.066315, lon.=26.508167, Alt.=95.836975m. Speed=0.396000m/h.</desc>
<speed>0.110000</speed>
</trkpt>
<trkpt lat="56.066315" lon="26.508167">
<ele>95.836975</ele>
<time>2010-08-29T11:29:44Z</time>
<desc>lat.=56.066315, lon.=26.508167, Alt.=95.836975m. Speed=0.180000m/h.</desc>
<speed>0.050000</speed>
</trkpt>
<trkpt lat="56.066315" lon="26.508167">
<ele>95.780334</ele>
<time>2010-08-29T11:29:45Z</time>
<desc>lat.=56.066315, lon.=26.508167, Alt.=95.780334m. Speed=0.144000m/h.</desc>
<speed>0.040000</speed>
</trkpt>
<trkpt lat="56.066315" lon="26.508167">
<ele>95.776428</ele>
<time>2010-08-29T11:29:46Z</time>
<desc>lat.=56.066315, lon.=26.508167, Alt.=95.776428m. Speed=0.072000m/h.</desc>
<speed>0.020000</speed>
</trkpt>
<trkpt lat="56.066315" lon="26.508167">
<ele>95.774475</ele>
<time>2010-08-29T11:29:47Z</time>
<desc>lat.=56.066315, lon.=26.508167, Alt.=95.774475m. Speed=0.000000m/h.</desc>
<speed>0.000000</speed>
</trkpt>
<trkpt lat="56.066315" lon="26.508167">
<ele>95.772522</ele>
<time>2010-08-29T11:29:48Z</time>
<desc>lat.=56.066315, lon.=26.508167, Alt.=95.772522m. Speed=0.000000m/h.</desc>
<speed>0.000000</speed>
</trkpt>
<trkpt lat="56.066315" lon="26.508167">
<ele>95.770569</ele>
<time>2010-08-29T11:29:49Z</time>
<desc>lat.=56.066315, lon.=26.508167, Alt.=95.770569m. Speed=0.000000m/h.</desc>
<speed>0.000000</speed>
</trkpt>
<trkpt lat="56.066315" lon="26.508167">
<ele>95.768616</ele>
<time>2010-08-29T11:29:50Z</time>
<desc>lat.=56.066315, lon.=26.508167, Alt.=95.768616m. Speed=0.000000m/h.</desc>
<speed>0.000000</speed>
</trkpt>
<trkpt lat="56.066315" lon="26.508167">
<ele>95.766663</ele>
<time>2010-08-29T11:29:51Z</time>
<desc>lat.=56.066315, lon.=26.508167, Alt.=95.766663m. Speed=0.000000m/h.</desc>
<speed>0.000000</speed>
</trkpt>
<trkpt lat="56.066315" lon="26.508167">
<ele>95.764709</ele>
<time>2010-08-29T11:29:52Z</time>
<desc>lat.=56.066315, lon.=26.508167, Alt.=95.764709m. Speed=0.000000m/h.</desc>
<speed>0.000000</speed>
</trkpt>
<trkpt lat="56.066315" lon="26.508169">
<ele>95.762756</ele>
<time>2010-08-29T11:29:53Z</time>
<desc>lat.=56.066315, lon.=26.508169, Alt.=95.762756m. Speed=0.000000m/h.</desc>
<speed>0.000000</speed>
</trkpt>
<trkpt lat="56.066315" lon="26.508169">
<ele>95.760803</ele>
<time>2010-08-29T11:29:54Z</time>
<desc>lat.=56.066315, lon.=26.508169, Alt.=95.760803m. Speed=0.000000m/h.</desc>
<speed>0.000000</speed>
</trkpt>
<trkpt lat="56.066315" lon="26.508169">
<ele>95.762756</ele>
<time>2010-08-29T11:29:55Z</time>
<desc>lat.=56.066315, lon.=26.508169, Alt.=95.762756m. Speed=0.360000m/h.</desc>
<speed>0.100000</speed>
</trkpt>
<trkpt lat="56.066315" lon="26.508169">
<ele>95.764709</ele>
<time>2010-08-29T11:29:56Z</time>
<desc>lat.=56.066315, lon.=26.508169, Alt.=95.764709m. Speed=0.072000m/h.</desc>
<speed>0.020000</speed>
</trkpt>
<trkpt lat="56.066315" lon="26.508169">
<ele>95.764709</ele>
<time>2010-08-29T11:29:57Z</time>
<desc>lat.=56.066315, lon.=26.508169, Alt.=95.764709m. Speed=0.000000m/h.</desc>
<speed>0.000000</speed>
</trkpt>
<trkpt lat="56.066315" lon="26.508169">
<ele>95.764709</ele>
<time>2010-08-29T11:29:58Z</time>
<desc>lat.=56.066315, lon.=26.508169, Alt.=95.764709m. Speed=0.000000m/h.</desc>
<speed>0.000000</speed>
</trkpt>
<trkpt lat="56.066315" lon="26.508169">
<ele>95.764709</ele>
<time>2010-08-29T11:29:59Z</time>
<desc>lat.=56.066315, lon.=26.508169, Alt.=95.764709m. Speed=0.252000m/h.</desc>
<speed>0.070000</speed>
</trkpt>
<trkpt lat="56.066315" lon="26.508169">
<ele>95.766663</ele>
<time>2010-08-29T11:30:00Z</time>
<desc>lat.=56.066315, lon.=26.508169, Alt.=95.766663m. Speed=0.792000m/h.</desc>
<speed>0.220000</speed>
</trkpt>
<trkpt lat="56.066315" lon="26.508169">
<ele>95.766663</ele>
<time>2010-08-29T11:30:01Z</time>
<desc>lat.=56.066315, lon.=26.508169, Alt.=95.766663m. Speed=0.216000m/h.</desc>
<speed>0.060000</speed>
</trkpt>
<trkpt lat="56.066315" lon="26.508167">
<ele>95.836975</ele>
<time>2010-08-29T11:30:02Z</time>
<desc>lat.=56.066315, lon.=26.508167, Alt.=95.836975m. Speed=0.540000m/h.</desc>
<speed>0.150000</speed>
</trkpt>
<trkpt lat="56.066315" lon="26.508167">
<ele>95.842834</ele>
<time>2010-08-29T11:30:03Z</time>
<desc>lat.=56.066315, lon.=26.508167, Alt.=95.842834m. Speed=0.612000m/h.</desc>
<speed>0.170000</speed>
</trkpt>
<trkpt lat="56.066315" lon="26.508167">
<ele>95.840881</ele>
<time>2010-08-29T11:30:04Z</time>
<desc>lat.=56.066315, lon.=26.508167, Alt.=95.840881m. Speed=0.216000m/h.</desc>
<speed>0.060000</speed>
</trkpt>
<trkpt lat="56.066315" lon="26.508167">
<ele>95.840881</ele>
<time>2010-08-29T11:30:05Z</time>
<desc>lat.=56.066315, lon.=26.508167, Alt.=95.840881m. Speed=0.144000m/h.</desc>
<speed>0.040000</speed>
</trkpt>
<trkpt lat="56.066315" lon="26.508167">
<ele>95.842834</ele>
<time>2010-08-29T11:30:06Z</time>
<desc>lat.=56.066315, lon.=26.508167, Alt.=95.842834m. Speed=0.144000m/h.</desc>
<speed>0.040000</speed>
</trkpt>
<trkpt lat="56.066315" lon="26.508167">
<ele>95.844788</ele>
<time>2010-08-29T11:30:07Z</time>
<desc>lat.=56.066315, lon.=26.508167, Alt.=95.844788m. Speed=0.000000m/h.</desc>
<speed>0.000000</speed>
</trkpt>
<trkpt lat="56.066315" lon="26.508167">
<ele>95.846741</ele>
<time>2010-08-29T11:30:08Z</time>
<desc>lat.=56.066315, lon.=26.508167, Alt.=95.846741m. Speed=0.072000m/h.</desc>
<speed>0.020000</speed>
</trkpt>
<trkpt lat="56.066315" lon="26.508167">
<ele>95.846741</ele>
<time>2010-08-29T11:30:09Z</time>
<desc>lat.=56.066315, lon.=26.508167, Alt.=95.846741m. Speed=0.000000m/h.</desc>
<speed>0.000000</speed>
</trkpt>
<trkpt lat="56.066315" lon="26.508167">
<ele>95.846741</ele>
<time>2010-08-29T11:30:10Z</time>
<desc>lat.=56.066315, lon.=26.508167, Alt.=95.846741m. Speed=0.252000m/h.</desc>
<speed>0.070000</speed>
</trkpt>
<trkpt lat="56.066315" lon="26.508167">
<ele>95.846741</ele>
<time>2010-08-29T11:30:11Z</time>
<desc>lat.=56.066315, lon.=26.508167, Alt.=95.846741m. Speed=0.036000m/h.</desc>
<speed>0.010000</speed>
</trkpt>
<trkpt lat="56.066315" lon="26.508167">
<ele>95.846741</ele>
<time>2010-08-29T11:30:12Z</time>
<desc>lat.=56.066315, lon.=26.508167, Alt.=95.846741m. Speed=0.036000m/h.</desc>
<speed>0.010000</speed>
</trkpt>
<trkpt lat="56.066315" lon="26.508167">
<ele>95.846741</ele>
<time>2010-08-29T11:30:13Z</time>
<desc>lat.=56.066315, lon.=26.508167, Alt.=95.846741m. Speed=0.108000m/h.</desc>
<speed>0.030000</speed>
</trkpt>
<trkpt lat="56.066315" lon="26.508167">
<ele>95.844788</ele>
<time>2010-08-29T11:30:14Z</time>
<desc>lat.=56.066315, lon.=26.508167, Alt.=95.844788m. Speed=0.036000m/h.</desc>
<speed>0.010000</speed>
</trkpt>
<trkpt lat="56.066315" lon="26.508167">
<ele>95.846741</ele>
<time>2010-08-29T11:30:15Z</time>
<desc>lat.=56.066315, lon.=26.508167, Alt.=95.846741m. Speed=0.324000m/h.</desc>
<speed>0.090000</speed>
</trkpt>
<trkpt lat="56.066315" lon="26.508167">
<ele>95.846741</ele>
<time>2010-08-29T11:30:16Z</time>
<desc>lat.=56.066315, lon.=26.508167, Alt.=95.846741m. Speed=0.540000m/h.</desc>
<speed>0.150000</speed>
</trkpt>
<trkpt lat="56.066315" lon="26.508165">
<ele>95.850647</ele>
<time>2010-08-29T11:30:17Z</time>
<desc>lat.=56.066315, lon.=26.508165, Alt.=95.850647m. Speed=2.772000m/h.</desc>
<speed>0.770000</speed>
</trkpt>
<trkpt lat="56.066319" lon="26.508152">
<ele>95.868225</ele>
<time>2010-08-29T11:30:18Z</time>
<desc>lat.=56.066319, lon.=26.508152, Alt.=95.868225m. Speed=4.104000m/h.</desc>
<speed>1.140000</speed>
</trkpt>
<trkpt lat="56.066326" lon="26.508127">
<ele>96.163147</ele>
<time>2010-08-29T11:30:19Z</time>
<desc>lat.=56.066326, lon.=26.508127, Alt.=96.163147m. Speed=6.192000m/h.</desc>
<speed>1.720000</speed>
</trkpt>
<trkpt lat="56.066330" lon="26.508102">
<ele>96.491272</ele>
<time>2010-08-29T11:30:20Z</time>
<desc>lat.=56.066330, lon.=26.508102, Alt.=96.491272m. Speed=4.824000m/h.</desc>
<speed>1.340000</speed>
</trkpt>
<trkpt lat="56.066338" lon="26.508081">
<ele>96.678772</ele>
<time>2010-08-29T11:30:21Z</time>
<desc>lat.=56.066338, lon.=26.508081, Alt.=96.678772m. Speed=5.544000m/h.</desc>
<speed>1.540000</speed>
</trkpt>
<trkpt lat="56.066345" lon="26.508057">
<ele>96.952209</ele>
<time>2010-08-29T11:30:22Z</time>
<desc>lat.=56.066345, lon.=26.508057, Alt.=96.952209m. Speed=8.820000m/h.</desc>
<speed>2.450000</speed>
</trkpt>
<trkpt lat="56.066368" lon="26.508026">
<ele>97.956116</ele>
<time>2010-08-29T11:30:23Z</time>
<desc>lat.=56.066368, lon.=26.508026, Alt.=97.956116m. Speed=9.000000m/h.</desc>
<speed>2.500000</speed>
</trkpt>
<trkpt lat="56.066383" lon="26.507994">
<ele>98.436584</ele>
<time>2010-08-29T11:30:24Z</time>
<desc>lat.=56.066383, lon.=26.507994, Alt.=98.436584m. Speed=9.288000m/h.</desc>
<speed>2.580000</speed>
</trkpt>
<trkpt lat="56.066399" lon="26.507954">
<ele>98.583069</ele>
<time>2010-08-29T11:30:25Z</time>
<desc>lat.=56.066399, lon.=26.507954, Alt.=98.583069m. Speed=11.304000m/h.</desc>
<speed>3.140000</speed>
</trkpt>
<trkpt lat="56.066418" lon="26.507908">
<ele>98.717834</ele>
<time>2010-08-29T11:30:26Z</time>
<desc>lat.=56.066418, lon.=26.507908, Alt.=98.717834m. Speed=12.132000m/h.</desc>
<speed>3.370000</speed>
</trkpt>
<trkpt lat="56.066441" lon="26.507870">
<ele>98.905334</ele>
<time>2010-08-29T11:30:27Z</time>
<desc>lat.=56.066441, lon.=26.507870, Alt.=98.905334m. Speed=11.376000m/h.</desc>
<speed>3.160000</speed>
</trkpt>
<trkpt lat="56.066463" lon="26.507847">
<ele>99.282288</ele>
<time>2010-08-29T11:30:28Z</time>
<desc>lat.=56.066463, lon.=26.507847, Alt.=99.282288m. Speed=10.872000m/h.</desc>
<speed>3.020000</speed>
</trkpt>
<trkpt lat="56.066486" lon="26.507807">
<ele>99.569397</ele>
<time>2010-08-29T11:30:29Z</time>
<desc>lat.=56.066486, lon.=26.507807, Alt.=99.569397m. Speed=12.456000m/h.</desc>
<speed>3.460000</speed>
</trkpt>
<trkpt lat="56.066505" lon="26.507765">
<ele>99.729553</ele>
<time>2010-08-29T11:30:30Z</time>
<desc>lat.=56.066505, lon.=26.507765, Alt.=99.729553m. Speed=11.196000m/h.</desc>
<speed>3.110000</speed>
</trkpt>
<trkpt lat="56.066528" lon="26.507730">
<ele>99.907288</ele>
<time>2010-08-29T11:30:31Z</time>
<desc>lat.=56.066528, lon.=26.507730, Alt.=99.907288m. Speed=10.404000m/h.</desc>
<speed>2.890000</speed>
</trkpt>
<trkpt lat="56.066544" lon="26.507696">
<ele>100.053772</ele>
<time>2010-08-29T11:30:32Z</time>
<desc>lat.=56.066544, lon.=26.507696, Alt.=100.053772m. Speed=9.252000m/h.</desc>
<speed>2.570000</speed>
</trkpt>
<trkpt lat="56.066555" lon="26.507662">
<ele>99.803772</ele>
<time>2010-08-29T11:30:33Z</time>
<desc>lat.=56.066555, lon.=26.507662, Alt.=99.803772m. Speed=9.216000m/h.</desc>
<speed>2.560000</speed>
</trkpt>
<trkpt lat="56.066574" lon="26.507631">
<ele>99.969788</ele>
<time>2010-08-29T11:30:34Z</time>
<desc>lat.=56.066574, lon.=26.507631, Alt.=99.969788m. Speed=9.756000m/h.</desc>
<speed>2.710000</speed>
</trkpt>
<trkpt lat="56.066593" lon="26.507603">
<ele>100.409241</ele>
<time>2010-08-29T11:30:35Z</time>
<desc>lat.=56.066593, lon.=26.507603, Alt.=100.409241m. Speed=9.864000m/h.</desc>
<speed>2.740000</speed>
</trkpt>
<trkpt lat="56.066608" lon="26.507572">
<ele>100.833069</ele>
<time>2010-08-29T11:30:36Z</time>
<desc>lat.=56.066608, lon.=26.507572, Alt.=100.833069m. Speed=10.152000m/h.</desc>
<speed>2.820000</speed>
</trkpt>
<trkpt lat="56.066628" lon="26.507542">
<ele>100.981506</ele>
<time>2010-08-29T11:30:37Z</time>
<desc>lat.=56.066628, lon.=26.507542, Alt.=100.981506m. Speed=9.360000m/h.</desc>
<speed>2.600000</speed>
</trkpt>
<trkpt lat="56.066643" lon="26.507515">
<ele>101.358459</ele>
<time>2010-08-29T11:30:38Z</time>
<desc>lat.=56.066643, lon.=26.507515, Alt.=101.358459m. Speed=8.568000m/h.</desc>
<speed>2.380000</speed>
</trkpt>
<trkpt lat="56.066666" lon="26.507492">
<ele>101.907288</ele>
<time>2010-08-29T11:30:39Z</time>
<desc>lat.=56.066666, lon.=26.507492, Alt.=101.907288m. Speed=8.928000m/h.</desc>
<speed>2.480000</speed>
</trkpt>
<trkpt lat="56.066681" lon="26.507465">
<ele>102.032288</ele>
<time>2010-08-29T11:30:40Z</time>
<desc>lat.=56.066681, lon.=26.507465, Alt.=102.032288m. Speed=8.856000m/h.</desc>
<speed>2.460000</speed>
</trkpt>
<trkpt lat="56.066696" lon="26.507437">
<ele>102.213928</ele>
<time>2010-08-29T11:30:41Z</time>
<desc>lat.=56.066696, lon.=26.507437, Alt.=102.213928m. Speed=9.504000m/h.</desc>
<speed>2.640000</speed>
</trkpt>
<trkpt lat="56.066711" lon="26.507406">
<ele>102.442444</ele>
<time>2010-08-29T11:30:42Z</time>
<desc>lat.=56.066711, lon.=26.507406, Alt.=102.442444m. Speed=9.216000m/h.</desc>
<speed>2.560000</speed>
</trkpt>
<trkpt lat="56.066727" lon="26.507372">
<ele>102.565491</ele>
<time>2010-08-29T11:30:43Z</time>
<desc>lat.=56.066727, lon.=26.507372, Alt.=102.565491m. Speed=8.856000m/h.</desc>
<speed>2.460000</speed>
</trkpt>
<trkpt lat="56.066738" lon="26.507341">
<ele>102.575256</ele>
<time>2010-08-29T11:30:44Z</time>
<desc>lat.=56.066738, lon.=26.507341, Alt.=102.575256m. Speed=8.388000m/h.</desc>
<speed>2.330000</speed>
</trkpt>
<trkpt lat="56.066746" lon="26.507317">
<ele>102.770569</ele>
<time>2010-08-29T11:30:45Z</time>
<desc>lat.=56.066746, lon.=26.507317, Alt.=102.770569m. Speed=6.840000m/h.</desc>
<speed>1.900000</speed>
</trkpt>
<trkpt lat="56.066761" lon="26.507292">
<ele>103.313538</ele>
<time>2010-08-29T11:30:46Z</time>
<desc>lat.=56.066761, lon.=26.507292, Alt.=103.313538m. Speed=6.156000m/h.</desc>
<speed>1.710000</speed>
</trkpt>
<trkpt lat="56.066776" lon="26.507267">
<ele>103.870178</ele>
<time>2010-08-29T11:30:47Z</time>
<desc>lat.=56.066776, lon.=26.507267, Alt.=103.870178m. Speed=7.164000m/h.</desc>
<speed>1.990000</speed>
</trkpt>
<trkpt lat="56.066784" lon="26.507229">
<ele>104.200256</ele>
<time>2010-08-29T11:30:48Z</time>
<desc>lat.=56.066784, lon.=26.507229, Alt.=104.200256m. Speed=8.928000m/h.</desc>
<speed>2.480000</speed>
</trkpt>
<trkpt lat="56.066788" lon="26.507187">
<ele>104.208069</ele>
<time>2010-08-29T11:30:49Z</time>
<desc>lat.=56.066788, lon.=26.507187, Alt.=104.208069m. Speed=10.296000m/h.</desc>
<speed>2.860000</speed>
</trkpt>
<trkpt lat="56.066795" lon="26.507139">
<ele>104.297913</ele>
<time>2010-08-29T11:30:50Z</time>
<desc>lat.=56.066795, lon.=26.507139, Alt.=104.297913m. Speed=9.936000m/h.</desc>
<speed>2.760000</speed>
</trkpt>
<trkpt lat="56.066795" lon="26.507092">
<ele>104.327209</ele>
<time>2010-08-29T11:30:51Z</time>
<desc>lat.=56.066795, lon.=26.507092, Alt.=104.327209m. Speed=10.296000m/h.</desc>
<speed>2.860000</speed>
</trkpt>
<trkpt lat="56.066795" lon="26.507044">
<ele>104.307678</ele>
<time>2010-08-29T11:30:52Z</time>
<desc>lat.=56.066795, lon.=26.507044, Alt.=104.307678m. Speed=10.800000m/h.</desc>
<speed>3.000000</speed>
</trkpt>
<trkpt lat="56.066792" lon="26.506996">
<ele>104.458069</ele>
<time>2010-08-29T11:30:53Z</time>
<desc>lat.=56.066792, lon.=26.506996, Alt.=104.458069m. Speed=10.080000m/h.</desc>
<speed>2.800000</speed>
</trkpt>
<trkpt lat="56.066788" lon="26.506956">
<ele>104.684631</ele>
<time>2010-08-29T11:30:54Z</time>
<desc>lat.=56.066788, lon.=26.506956, Alt.=104.684631m. Speed=8.748000m/h.</desc>
<speed>2.430000</speed>
</trkpt>
<trkpt lat="56.066780" lon="26.506918">
<ele>104.743225</ele>
<time>2010-08-29T11:30:55Z</time>
<desc>lat.=56.066780, lon.=26.506918, Alt.=104.743225m. Speed=9.828000m/h.</desc>
<speed>2.730000</speed>
</trkpt>
<trkpt lat="56.066772" lon="26.506878">
<ele>104.659241</ele>
<time>2010-08-29T11:30:56Z</time>
<desc>lat.=56.066772, lon.=26.506878, Alt.=104.659241m. Speed=9.936000m/h.</desc>
<speed>2.760000</speed>
</trkpt>
<trkpt lat="56.066761" lon="26.506836">
<ele>104.565491</ele>
<time>2010-08-29T11:30:57Z</time>
<desc>lat.=56.066761, lon.=26.506836, Alt.=104.565491m. Speed=10.188000m/h.</desc>
<speed>2.830000</speed>
</trkpt>
<trkpt lat="56.066742" lon="26.506800">
<ele>104.514709</ele>
<time>2010-08-29T11:30:58Z</time>
<desc>lat.=56.066742, lon.=26.506800, Alt.=104.514709m. Speed=11.124000m/h.</desc>
<speed>3.090000</speed>
</trkpt>
<trkpt lat="56.066719" lon="26.506767">
<ele>104.633850</ele>
<time>2010-08-29T11:30:59Z</time>
<desc>lat.=56.066719, lon.=26.506767, Alt.=104.633850m. Speed=10.764000m/h.</desc>
<speed>2.990000</speed>
</trkpt>
<trkpt lat="56.066696" lon="26.506737">
<ele>104.717834</ele>
<time>2010-08-29T11:31:00Z</time>
<desc>lat.=56.066696, lon.=26.506737, Alt.=104.717834m. Speed=10.512000m/h.</desc>
<speed>2.920000</speed>
</trkpt>
<trkpt lat="56.066677" lon="26.506704">
<ele>104.807678</ele>
<time>2010-08-29T11:31:01Z</time>
<desc>lat.=56.066677, lon.=26.506704, Alt.=104.807678m. Speed=10.548000m/h.</desc>
<speed>2.930000</speed>
</trkpt>
<trkpt lat="56.066658" lon="26.506672">
<ele>104.848694</ele>
<time>2010-08-29T11:31:02Z</time>
<desc>lat.=56.066658, lon.=26.506672, Alt.=104.848694m. Speed=10.440000m/h.</desc>
<speed>2.900000</speed>
</trkpt>
<trkpt lat="56.066643" lon="26.506641">
<ele>104.780334</ele>
<time>2010-08-29T11:31:03Z</time>
<desc>lat.=56.066643, lon.=26.506641, Alt.=104.780334m. Speed=11.016000m/h.</desc>
<speed>3.060000</speed>
</trkpt>
<trkpt lat="56.066624" lon="26.506599">
<ele>104.575256</ele>
<time>2010-08-29T11:31:04Z</time>
<desc>lat.=56.066624, lon.=26.506599, Alt.=104.575256m. Speed=9.144000m/h.</desc>
<speed>2.540000</speed>
</trkpt>
<trkpt lat="56.066605" lon="26.506563">
<ele>104.626038</ele>
<time>2010-08-29T11:31:05Z</time>
<desc>lat.=56.066605, lon.=26.506563, Alt.=104.626038m. Speed=10.152000m/h.</desc>
<speed>2.820000</speed>
</trkpt>
<trkpt lat="56.066589" lon="26.506521">
<ele>104.645569</ele>
<time>2010-08-29T11:31:06Z</time>
<desc>lat.=56.066589, lon.=26.506521, Alt.=104.645569m. Speed=10.152000m/h.</desc>
<speed>2.820000</speed>
</trkpt>
<trkpt lat="56.066570" lon="26.506487">
<ele>104.850647</ele>
<time>2010-08-29T11:31:07Z</time>
<desc>lat.=56.066570, lon.=26.506487, Alt.=104.850647m. Speed=10.872000m/h.</desc>
<speed>3.020000</speed>
</trkpt>
<trkpt lat="56.066551" lon="26.506454">
<ele>104.999084</ele>
<time>2010-08-29T11:31:08Z</time>
<desc>lat.=56.066551, lon.=26.506454, Alt.=104.999084m. Speed=9.792000m/h.</desc>
<speed>2.720000</speed>
</trkpt>
<trkpt lat="56.066536" lon="26.506418">
<ele>105.204163</ele>
<time>2010-08-29T11:31:09Z</time>
<desc>lat.=56.066536, lon.=26.506418, Alt.=105.204163m. Speed=8.964000m/h.</desc>
<speed>2.490000</speed>
</trkpt>
<trkpt lat="56.066525" lon="26.506384">
<ele>105.391663</ele>
<time>2010-08-29T11:31:10Z</time>
<desc>lat.=56.066525, lon.=26.506384, Alt.=105.391663m. Speed=9.576000m/h.</desc>
<speed>2.660000</speed>
</trkpt>
<trkpt lat="56.066505" lon="26.506351">
<ele>105.682678</ele>
<time>2010-08-29T11:31:11Z</time>
<desc>lat.=56.066505, lon.=26.506351, Alt.=105.682678m. Speed=9.612000m/h.</desc>
<speed>2.670000</speed>
</trkpt>
<trkpt lat="56.066490" lon="26.506311">
<ele>106.063538</ele>
<time>2010-08-29T11:31:12Z</time>
<desc>lat.=56.066490, lon.=26.506311, Alt.=106.063538m. Speed=10.440000m/h.</desc>
<speed>2.900000</speed>
</trkpt>
<trkpt lat="56.066475" lon="26.506275">
<ele>105.960022</ele>
<time>2010-08-29T11:31:13Z</time>
<desc>lat.=56.066475, lon.=26.506275, Alt.=105.960022m. Speed=8.532000m/h.</desc>
<speed>2.370000</speed>
</trkpt>
<trkpt lat="56.066463" lon="26.506245">
<ele>106.169006</ele>
<time>2010-08-29T11:31:14Z</time>
<desc>lat.=56.066463, lon.=26.506245, Alt.=106.169006m. Speed=8.352000m/h.</desc>
<speed>2.320000</speed>
</trkpt>
<trkpt lat="56.066452" lon="26.506214">
<ele>105.997131</ele>
<time>2010-08-29T11:31:15Z</time>
<desc>lat.=56.066452, lon.=26.506214, Alt.=105.997131m. Speed=9.108000m/h.</desc>
<speed>2.530000</speed>
</trkpt>
<trkpt lat="56.066433" lon="26.506180">
<ele>106.219788</ele>
<time>2010-08-29T11:31:16Z</time>
<desc>lat.=56.066433, lon.=26.506180, Alt.=106.219788m. Speed=10.152000m/h.</desc>
<speed>2.820000</speed>
</trkpt>
<trkpt lat="56.066414" lon="26.506144">
<ele>105.977600</ele>
<time>2010-08-29T11:31:17Z</time>
<desc>lat.=56.066414, lon.=26.506144, Alt.=105.977600m. Speed=10.692000m/h.</desc>
<speed>2.970000</speed>
</trkpt>
<trkpt lat="56.066399" lon="26.506107">
<ele>105.774475</ele>
<time>2010-08-29T11:31:18Z</time>
<desc>lat.=56.066399, lon.=26.506107, Alt.=105.774475m. Speed=11.376000m/h.</desc>
<speed>3.160000</speed>
</trkpt>
<trkpt lat="56.066380" lon="26.506069">
<ele>105.622131</ele>
<time>2010-08-29T11:31:19Z</time>
<desc>lat.=56.066380, lon.=26.506069, Alt.=105.622131m. Speed=11.772000m/h.</desc>
<speed>3.270000</speed>
</trkpt>
<trkpt lat="56.066360" lon="26.506027">
<ele>105.446350</ele>
<time>2010-08-29T11:31:20Z</time>
<desc>lat.=56.066360, lon.=26.506027, Alt.=105.446350m. Speed=11.916000m/h.</desc>
<speed>3.310000</speed>
</trkpt>
<trkpt lat="56.066341" lon="26.505991">
<ele>105.315491</ele>
<time>2010-08-29T11:31:21Z</time>
<desc>lat.=56.066341, lon.=26.505991, Alt.=105.315491m. Speed=11.736000m/h.</desc>
<speed>3.260000</speed>
</trkpt>
<trkpt lat="56.066326" lon="26.505949">
<ele>105.260803</ele>
<time>2010-08-29T11:31:22Z</time>
<desc>lat.=56.066326, lon.=26.505949, Alt.=105.260803m. Speed=11.988000m/h.</desc>
<speed>3.330000</speed>
</trkpt>
<trkpt lat="56.066307" lon="26.505905">
<ele>105.254944</ele>
<time>2010-08-29T11:31:23Z</time>
<desc>lat.=56.066307, lon.=26.505905, Alt.=105.254944m. Speed=12.636000m/h.</desc>
<speed>3.510000</speed>
</trkpt>
<trkpt lat="56.066288" lon="26.505865">
<ele>105.254944</ele>
<time>2010-08-29T11:31:24Z</time>
<desc>lat.=56.066288, lon.=26.505865, Alt.=105.254944m. Speed=11.844000m/h.</desc>
<speed>3.290000</speed>
</trkpt>
<trkpt lat="56.066273" lon="26.505829">
<ele>105.129944</ele>
<time>2010-08-29T11:31:25Z</time>
<desc>lat.=56.066273, lon.=26.505829, Alt.=105.129944m. Speed=11.520000m/h.</desc>
<speed>3.200000</speed>
</trkpt>
<trkpt lat="56.066257" lon="26.505789">
<ele>105.204163</ele>
<time>2010-08-29T11:31:26Z</time>
<desc>lat.=56.066257, lon.=26.505789, Alt.=105.204163m. Speed=10.872000m/h.</desc>
<speed>3.020000</speed>
</trkpt>
<trkpt lat="56.066242" lon="26.505751">
<ele>105.133850</ele>
<time>2010-08-29T11:31:27Z</time>
<desc>lat.=56.066242, lon.=26.505751, Alt.=105.133850m. Speed=9.504000m/h.</desc>
<speed>2.640000</speed>
</trkpt>
<trkpt lat="56.066235" lon="26.505718">
<ele>104.794006</ele>
<time>2010-08-29T11:31:28Z</time>
<desc>lat.=56.066235, lon.=26.505718, Alt.=104.794006m. Speed=8.208000m/h.</desc>
<speed>2.280000</speed>
</trkpt>
<trkpt lat="56.066231" lon="26.505680">
<ele>104.629944</ele>
<time>2010-08-29T11:31:29Z</time>
<desc>lat.=56.066231, lon.=26.505680, Alt.=104.629944m. Speed=10.260000m/h.</desc>
<speed>2.850000</speed>
</trkpt>
<trkpt lat="56.066219" lon="26.505619">
<ele>104.122131</ele>
<time>2010-08-29T11:31:30Z</time>
<desc>lat.=56.066219, lon.=26.505619, Alt.=104.122131m. Speed=16.524000m/h.</desc>
<speed>4.590000</speed>
</trkpt>
<trkpt lat="56.066208" lon="26.505564">
<ele>103.795959</ele>
<time>2010-08-29T11:31:31Z</time>
<desc>lat.=56.066208, lon.=26.505564, Alt.=103.795959m. Speed=10.260000m/h.</desc>
<speed>2.850000</speed>
</trkpt>
<trkpt lat="56.066193" lon="26.505529">
<ele>103.612366</ele>
<time>2010-08-29T11:31:32Z</time>
<desc>lat.=56.066193, lon.=26.505529, Alt.=103.612366m. Speed=10.008000m/h.</desc>
<speed>2.780000</speed>
</trkpt>
<trkpt lat="56.066181" lon="26.505493">
<ele>103.620178</ele>
<time>2010-08-29T11:31:33Z</time>
<desc>lat.=56.066181, lon.=26.505493, Alt.=103.620178m. Speed=10.188000m/h.</desc>
<speed>2.830000</speed>
</trkpt>
<trkpt lat="56.066166" lon="26.505451">
<ele>103.756897</ele>
<time>2010-08-29T11:31:34Z</time>
<desc>lat.=56.066166, lon.=26.505451, Alt.=103.756897m. Speed=10.476000m/h.</desc>
<speed>2.910000</speed>
</trkpt>
<trkpt lat="56.066154" lon="26.505405">
<ele>103.745178</ele>
<time>2010-08-29T11:31:35Z</time>
<desc>lat.=56.066154, lon.=26.505405, Alt.=103.745178m. Speed=11.268000m/h.</desc>
<speed>3.130000</speed>
</trkpt>
<trkpt lat="56.066143" lon="26.505358">
<ele>103.616272</ele>
<time>2010-08-29T11:31:36Z</time>
<desc>lat.=56.066143, lon.=26.505358, Alt.=103.616272m. Speed=11.556000m/h.</desc>
<speed>3.210000</speed>
</trkpt>
<trkpt lat="56.066128" lon="26.505310">
<ele>103.692444</ele>
<time>2010-08-29T11:31:37Z</time>
<desc>lat.=56.066128, lon.=26.505310, Alt.=103.692444m. Speed=12.708000m/h.</desc>
<speed>3.530000</speed>
</trkpt>
<trkpt lat="56.066116" lon="26.505257">
<ele>103.637756</ele>
<time>2010-08-29T11:31:38Z</time>
<desc>lat.=56.066116, lon.=26.505257, Alt.=103.637756m. Speed=13.968000m/h.</desc>
<speed>3.880000</speed>
</trkpt>
<trkpt lat="56.066097" lon="26.505199">
<ele>103.661194</ele>
<time>2010-08-29T11:31:39Z</time>
<desc>lat.=56.066097, lon.=26.505199, Alt.=103.661194m. Speed=14.796000m/h.</desc>
<speed>4.110000</speed>
</trkpt>
<trkpt lat="56.066082" lon="26.505144">
<ele>103.534241</ele>
<time>2010-08-29T11:31:40Z</time>
<desc>lat.=56.066082, lon.=26.505144, Alt.=103.534241m. Speed=14.652000m/h.</desc>
<speed>4.070000</speed>
</trkpt>
<trkpt lat="56.066063" lon="26.505087">
<ele>103.444397</ele>
<time>2010-08-29T11:31:41Z</time>
<desc>lat.=56.066063, lon.=26.505087, Alt.=103.444397m. Speed=14.472000m/h.</desc>
<speed>4.020000</speed>
</trkpt>
<trkpt lat="56.066048" lon="26.505032">
<ele>103.501038</ele>
<time>2010-08-29T11:31:42Z</time>
<desc>lat.=56.066048, lon.=26.505032, Alt.=103.501038m. Speed=14.004000m/h.</desc>
<speed>3.890000</speed>
</trkpt>
<trkpt lat="56.066036" lon="26.504982">
<ele>103.608459</ele>
<time>2010-08-29T11:31:43Z</time>
<desc>lat.=56.066036, lon.=26.504982, Alt.=103.608459m. Speed=13.860000m/h.</desc>
<speed>3.850000</speed>
</trkpt>
<trkpt lat="56.066021" lon="26.504930">
<ele>103.586975</ele>
<time>2010-08-29T11:31:44Z</time>
<desc>lat.=56.066021, lon.=26.504930, Alt.=103.586975m. Speed=13.356000m/h.</desc>
<speed>3.710000</speed>
</trkpt>
<trkpt lat="56.066010" lon="26.504885">
<ele>103.903381</ele>
<time>2010-08-29T11:31:45Z</time>
<desc>lat.=56.066010, lon.=26.504885, Alt.=103.903381m. Speed=12.312000m/h.</desc>
<speed>3.420000</speed>
</trkpt>
<trkpt lat="56.065998" lon="26.504837">
<ele>104.159241</ele>
<time>2010-08-29T11:31:46Z</time>
<desc>lat.=56.065998, lon.=26.504837, Alt.=104.159241m. Speed=11.628000m/h.</desc>
<speed>3.230000</speed>
</trkpt>
<trkpt lat="56.065987" lon="26.504791">
<ele>104.239319</ele>
<time>2010-08-29T11:31:47Z</time>
<desc>lat.=56.065987, lon.=26.504791, Alt.=104.239319m. Speed=11.484000m/h.</desc>
<speed>3.190000</speed>
</trkpt>
<trkpt lat="56.065975" lon="26.504753">
<ele>104.247131</ele>
<time>2010-08-29T11:31:48Z</time>
<desc>lat.=56.065975, lon.=26.504753, Alt.=104.247131m. Speed=10.260000m/h.</desc>
<speed>2.850000</speed>
</trkpt>
<trkpt lat="56.065964" lon="26.504717">
<ele>104.575256</ele>
<time>2010-08-29T11:31:49Z</time>
<desc>lat.=56.065964, lon.=26.504717, Alt.=104.575256m. Speed=9.072000m/h.</desc>
<speed>2.520000</speed>
</trkpt>
<trkpt lat="56.065948" lon="26.504683">
<ele>104.870178</ele>
<time>2010-08-29T11:31:50Z</time>
<desc>lat.=56.065948, lon.=26.504683, Alt.=104.870178m. Speed=11.124000m/h.</desc>
<speed>3.090000</speed>
</trkpt>
<trkpt lat="56.065937" lon="26.504641">
<ele>105.057678</ele>
<time>2010-08-29T11:31:51Z</time>
<desc>lat.=56.065937, lon.=26.504641, Alt.=105.057678m. Speed=11.088000m/h.</desc>
<speed>3.080000</speed>
</trkpt>
<trkpt lat="56.065918" lon="26.504599">
<ele>105.309631</ele>
<time>2010-08-29T11:31:52Z</time>
<desc>lat.=56.065918, lon.=26.504599, Alt.=105.309631m. Speed=11.844000m/h.</desc>
<speed>3.290000</speed>
</trkpt>
<trkpt lat="56.065895" lon="26.504547">
<ele>105.032288</ele>
<time>2010-08-29T11:31:53Z</time>
<desc>lat.=56.065895, lon.=26.504547, Alt.=105.032288m. Speed=12.276000m/h.</desc>
<speed>3.410000</speed>
</trkpt>
<trkpt lat="56.065872" lon="26.504503">
<ele>105.092834</ele>
<time>2010-08-29T11:31:54Z</time>
<desc>lat.=56.065872, lon.=26.504503, Alt.=105.092834m. Speed=12.960000m/h.</desc>
<speed>3.600000</speed>
</trkpt>
<trkpt lat="56.065845" lon="26.504457">
<ele>104.819397</ele>
<time>2010-08-29T11:31:55Z</time>
<desc>lat.=56.065845, lon.=26.504457, Alt.=104.819397m. Speed=13.068000m/h.</desc>
<speed>3.630000</speed>
</trkpt>
<trkpt lat="56.065819" lon="26.504425">
<ele>105.129944</ele>
<time>2010-08-29T11:31:56Z</time>
<desc>lat.=56.065819, lon.=26.504425, Alt.=105.129944m. Speed=13.464000m/h.</desc>
<speed>3.740000</speed>
</trkpt>
<trkpt lat="56.065788" lon="26.504400">
<ele>105.538147</ele>
<time>2010-08-29T11:31:57Z</time>
<desc>lat.=56.065788, lon.=26.504400, Alt.=105.538147m. Speed=11.412000m/h.</desc>
<speed>3.170000</speed>
</trkpt>
<trkpt lat="56.065769" lon="26.504375">
<ele>106.018616</ele>
<time>2010-08-29T11:31:58Z</time>
<desc>lat.=56.065769, lon.=26.504375, Alt.=106.018616m. Speed=5.328000m/h.</desc>
<speed>1.480000</speed>
</trkpt>
<trkpt lat="56.065754" lon="26.504356">
<ele>106.346741</ele>
<time>2010-08-29T11:31:59Z</time>
<desc>lat.=56.065754, lon.=26.504356, Alt.=106.346741m. Speed=10.584000m/h.</desc>
<speed>2.940000</speed>
</trkpt>
<trkpt lat="56.065731" lon="26.504339">
<ele>106.680725</ele>
<time>2010-08-29T11:32:00Z</time>
<desc>lat.=56.065731, lon.=26.504339, Alt.=106.680725m. Speed=8.460000m/h.</desc>
<speed>2.350000</speed>
</trkpt>
<trkpt lat="56.065708" lon="26.504314">
<ele>107.030334</ele>
<time>2010-08-29T11:32:01Z</time>
<desc>lat.=56.065708, lon.=26.504314, Alt.=107.030334m. Speed=10.980000m/h.</desc>
<speed>3.050000</speed>
</trkpt>
<trkpt lat="56.065681" lon="26.504290">
<ele>107.655334</ele>
<time>2010-08-29T11:32:02Z</time>
<desc>lat.=56.065681, lon.=26.504290, Alt.=107.655334m. Speed=11.196000m/h.</desc>
<speed>3.110000</speed>
</trkpt>
<trkpt lat="56.065659" lon="26.504265">
<ele>108.102600</ele>
<time>2010-08-29T11:32:03Z</time>
<desc>lat.=56.065659, lon.=26.504265, Alt.=108.102600m. Speed=9.324000m/h.</desc>
<speed>2.590000</speed>
</trkpt>
<trkpt lat="56.065636" lon="26.504246">
<ele>108.524475</ele>
<time>2010-08-29T11:32:04Z</time>
<desc>lat.=56.065636, lon.=26.504246, Alt.=108.524475m. Speed=8.712000m/h.</desc>
<speed>2.420000</speed>
</trkpt>
<trkpt lat="56.065620" lon="26.504219">
<ele>107.985413</ele>
<time>2010-08-29T11:32:05Z</time>
<desc>lat.=56.065620, lon.=26.504219, Alt.=107.985413m. Speed=8.136000m/h.</desc>
<speed>2.260000</speed>
</trkpt>
<trkpt lat="56.065601" lon="26.504196">
<ele>107.780334</ele>
<time>2010-08-29T11:32:06Z</time>
<desc>lat.=56.065601, lon.=26.504196, Alt.=107.780334m. Speed=7.344000m/h.</desc>
<speed>2.040000</speed>
</trkpt>
<trkpt lat="56.065586" lon="26.504179">
<ele>107.799866</ele>
<time>2010-08-29T11:32:07Z</time>
<desc>lat.=56.065586, lon.=26.504179, Alt.=107.799866m. Speed=6.264000m/h.</desc>
<speed>1.740000</speed>
</trkpt>
<trkpt lat="56.065575" lon="26.504164">
<ele>107.747131</ele>
<time>2010-08-29T11:32:08Z</time>
<desc>lat.=56.065575, lon.=26.504164, Alt.=107.747131m. Speed=4.212000m/h.</desc>
<speed>1.170000</speed>
</trkpt>
<trkpt lat="56.065563" lon="26.504154">
<ele>107.669006</ele>
<time>2010-08-29T11:32:09Z</time>
<desc>lat.=56.065563, lon.=26.504154, Alt.=107.669006m. Speed=4.500000m/h.</desc>
<speed>1.250000</speed>
</trkpt>
<trkpt lat="56.065556" lon="26.504145">
<ele>107.838928</ele>
<time>2010-08-29T11:32:10Z</time>
<desc>lat.=56.065556, lon.=26.504145, Alt.=107.838928m. Speed=4.320000m/h.</desc>
<speed>1.200000</speed>
</trkpt>
<trkpt lat="56.065540" lon="26.504126">
<ele>108.120178</ele>
<time>2010-08-29T11:32:11Z</time>
<desc>lat.=56.065540, lon.=26.504126, Alt.=108.120178m. Speed=6.516000m/h.</desc>
<speed>1.810000</speed>
</trkpt>
<trkpt lat="56.065521" lon="26.504107">
<ele>108.292053</ele>
<time>2010-08-29T11:32:12Z</time>
<desc>lat.=56.065521, lon.=26.504107, Alt.=108.292053m. Speed=8.028000m/h.</desc>
<speed>2.230000</speed>
</trkpt>
<trkpt lat="56.065502" lon="26.504086">
<ele>108.227600</ele>
<time>2010-08-29T11:32:13Z</time>
<desc>lat.=56.065502, lon.=26.504086, Alt.=108.227600m. Speed=9.108000m/h.</desc>
<speed>2.530000</speed>
</trkpt>
<trkpt lat="56.065479" lon="26.504059">
<ele>108.297913</ele>
<time>2010-08-29T11:32:14Z</time>
<desc>lat.=56.065479, lon.=26.504059, Alt.=108.297913m. Speed=8.748000m/h.</desc>
<speed>2.430000</speed>
</trkpt>
<trkpt lat="56.065460" lon="26.504034">
<ele>108.057678</ele>
<time>2010-08-29T11:32:15Z</time>
<desc>lat.=56.065460, lon.=26.504034, Alt.=108.057678m. Speed=8.712000m/h.</desc>
<speed>2.420000</speed>
</trkpt>
<trkpt lat="56.065434" lon="26.504011">
<ele>107.792053</ele>
<time>2010-08-29T11:32:16Z</time>
<desc>lat.=56.065434, lon.=26.504011, Alt.=107.792053m. Speed=9.648000m/h.</desc>
<speed>2.680000</speed>
</trkpt>
<trkpt lat="56.065411" lon="26.503990">
<ele>107.493225</ele>
<time>2010-08-29T11:32:17Z</time>
<desc>lat.=56.065411, lon.=26.503990, Alt.=107.493225m. Speed=9.468000m/h.</desc>
<speed>2.630000</speed>
</trkpt>
<trkpt lat="56.065384" lon="26.503962">
<ele>106.999084</ele>
<time>2010-08-29T11:32:18Z</time>
<desc>lat.=56.065384, lon.=26.503962, Alt.=106.999084m. Speed=9.900000m/h.</desc>
<speed>2.750000</speed>
</trkpt>
<trkpt lat="56.065369" lon="26.503929">
<ele>106.604553</ele>
<time>2010-08-29T11:32:19Z</time>
<desc>lat.=56.065369, lon.=26.503929, Alt.=106.604553m. Speed=9.720000m/h.</desc>
<speed>2.700000</speed>
</trkpt>
<trkpt lat="56.065353" lon="26.503893">
<ele>106.602600</ele>
<time>2010-08-29T11:32:20Z</time>
<desc>lat.=56.065353, lon.=26.503893, Alt.=106.602600m. Speed=9.216000m/h.</desc>
<speed>2.560000</speed>
</trkpt>
<trkpt lat="56.065342" lon="26.503866">
<ele>106.547913</ele>
<time>2010-08-29T11:32:21Z</time>
<desc>lat.=56.065342, lon.=26.503866, Alt.=106.547913m. Speed=6.840000m/h.</desc>
<speed>1.900000</speed>
</trkpt>
<trkpt lat="56.065323" lon="26.503845">
<ele>106.463928</ele>
<time>2010-08-29T11:32:22Z</time>
<desc>lat.=56.065323, lon.=26.503845, Alt.=106.463928m. Speed=8.820000m/h.</desc>
<speed>2.450000</speed>
</trkpt>
<trkpt lat="56.065304" lon="26.503824">
<ele>106.467834</ele>
<time>2010-08-29T11:32:23Z</time>
<desc>lat.=56.065304, lon.=26.503824, Alt.=106.467834m. Speed=9.468000m/h.</desc>
<speed>2.630000</speed>
</trkpt>
<trkpt lat="56.065281" lon="26.503801">
<ele>106.663147</ele>
<time>2010-08-29T11:32:24Z</time>
<desc>lat.=56.065281, lon.=26.503801, Alt.=106.663147m. Speed=9.144000m/h.</desc>
<speed>2.540000</speed>
</trkpt>
<trkpt lat="56.065266" lon="26.503777">
<ele>106.717834</ele>
<time>2010-08-29T11:32:25Z</time>
<desc>lat.=56.065266, lon.=26.503777, Alt.=106.717834m. Speed=8.136000m/h.</desc>
<speed>2.260000</speed>
</trkpt>
<trkpt lat="56.065254" lon="26.503746">
<ele>106.502991</ele>
<time>2010-08-29T11:32:26Z</time>
<desc>lat.=56.065254, lon.=26.503746, Alt.=106.502991m. Speed=7.848000m/h.</desc>
<speed>2.180000</speed>
</trkpt>
<trkpt lat="56.065239" lon="26.503719">
<ele>106.315491</ele>
<time>2010-08-29T11:32:27Z</time>
<desc>lat.=56.065239, lon.=26.503719, Alt.=106.315491m. Speed=7.668000m/h.</desc>
<speed>2.130000</speed>
</trkpt>
<trkpt lat="56.065224" lon="26.503695">
<ele>106.340881</ele>
<time>2010-08-29T11:32:28Z</time>
<desc>lat.=56.065224, lon.=26.503695, Alt.=106.340881m. Speed=8.496000m/h.</desc>
<speed>2.360000</speed>
</trkpt>
<trkpt lat="56.065208" lon="26.503668">
<ele>106.467834</ele>
<time>2010-08-29T11:32:29Z</time>
<desc>lat.=56.065208, lon.=26.503668, Alt.=106.467834m. Speed=9.540000m/h.</desc>
<speed>2.650000</speed>
</trkpt>
<trkpt lat="56.065186" lon="26.503637">
<ele>106.409241</ele>
<time>2010-08-29T11:32:30Z</time>
<desc>lat.=56.065186, lon.=26.503637, Alt.=106.409241m. Speed=11.376000m/h.</desc>
<speed>3.160000</speed>
</trkpt>
<trkpt lat="56.065163" lon="26.503609">
<ele>106.254944</ele>
<time>2010-08-29T11:32:31Z</time>
<desc>lat.=56.065163, lon.=26.503609, Alt.=106.254944m. Speed=11.484000m/h.</desc>
<speed>3.190000</speed>
</trkpt>
<trkpt lat="56.065140" lon="26.503580">
<ele>106.274475</ele>
<time>2010-08-29T11:32:32Z</time>
<desc>lat.=56.065140, lon.=26.503580, Alt.=106.274475m. Speed=11.484000m/h.</desc>
<speed>3.190000</speed>
</trkpt>
<trkpt lat="56.065117" lon="26.503553">
<ele>106.260803</ele>
<time>2010-08-29T11:32:33Z</time>
<desc>lat.=56.065117, lon.=26.503553, Alt.=106.260803m. Speed=10.224000m/h.</desc>
<speed>2.840000</speed>
</trkpt>
<trkpt lat="56.065098" lon="26.503527">
<ele>106.286194</ele>
<time>2010-08-29T11:32:34Z</time>
<desc>lat.=56.065098, lon.=26.503527, Alt.=106.286194m. Speed=9.612000m/h.</desc>
<speed>2.670000</speed>
</trkpt>
<trkpt lat="56.065079" lon="26.503496">
<ele>106.292053</ele>
<time>2010-08-29T11:32:35Z</time>
<desc>lat.=56.065079, lon.=26.503496, Alt.=106.292053m. Speed=9.504000m/h.</desc>
<speed>2.640000</speed>
</trkpt>
<trkpt lat="56.065063" lon="26.503462">
<ele>106.266663</ele>
<time>2010-08-29T11:32:36Z</time>
<desc>lat.=56.065063, lon.=26.503462, Alt.=106.266663m. Speed=10.008000m/h.</desc>
<speed>2.780000</speed>
</trkpt>
<trkpt lat="56.065048" lon="26.503429">
<ele>106.243225</ele>
<time>2010-08-29T11:32:37Z</time>
<desc>lat.=56.065048, lon.=26.503429, Alt.=106.243225m. Speed=8.784000m/h.</desc>
<speed>2.440000</speed>
</trkpt>
<trkpt lat="56.065033" lon="26.503399">
<ele>106.262756</ele>
<time>2010-08-29T11:32:38Z</time>
<desc>lat.=56.065033, lon.=26.503399, Alt.=106.262756m. Speed=8.748000m/h.</desc>
<speed>2.430000</speed>
</trkpt>
<trkpt lat="56.065022" lon="26.503368">
<ele>106.252991</ele>
<time>2010-08-29T11:32:39Z</time>
<desc>lat.=56.065022, lon.=26.503368, Alt.=106.252991m. Speed=8.208000m/h.</desc>
<speed>2.280000</speed>
</trkpt>
<trkpt lat="56.065014" lon="26.503338">
<ele>106.317444</ele>
<time>2010-08-29T11:32:40Z</time>
<desc>lat.=56.065014, lon.=26.503338, Alt.=106.317444m. Speed=7.236000m/h.</desc>
<speed>2.010000</speed>
</trkpt>
<trkpt lat="56.065010" lon="26.503311">
<ele>106.379944</ele>
<time>2010-08-29T11:32:41Z</time>
<desc>lat.=56.065010, lon.=26.503311, Alt.=106.379944m. Speed=6.696000m/h.</desc>
<speed>1.860000</speed>
</trkpt>
<trkpt lat="56.065010" lon="26.503284">
<ele>106.581116</ele>
<time>2010-08-29T11:32:42Z</time>
<desc>lat.=56.065010, lon.=26.503284, Alt.=106.581116m. Speed=5.724000m/h.</desc>
<speed>1.590000</speed>
</trkpt>
<trkpt lat="56.065010" lon="26.503262">
<ele>106.567444</ele>
<time>2010-08-29T11:32:43Z</time>
<desc>lat.=56.065010, lon.=26.503262, Alt.=106.567444m. Speed=4.464000m/h.</desc>
<speed>1.240000</speed>
</trkpt>
<trkpt lat="56.065006" lon="26.503242">
<ele>106.547913</ele>
<time>2010-08-29T11:32:44Z</time>
<desc>lat.=56.065006, lon.=26.503242, Alt.=106.547913m. Speed=4.968000m/h.</desc>
<speed>1.380000</speed>
</trkpt>
<trkpt lat="56.064999" lon="26.503218">
<ele>106.565491</ele>
<time>2010-08-29T11:32:45Z</time>
<desc>lat.=56.064999, lon.=26.503218, Alt.=106.565491m. Speed=7.020000m/h.</desc>
<speed>1.950000</speed>
</trkpt>
<trkpt lat="56.064983" lon="26.503191">
<ele>106.715881</ele>
<time>2010-08-29T11:32:46Z</time>
<desc>lat.=56.064983, lon.=26.503191, Alt.=106.715881m. Speed=8.640000m/h.</desc>
<speed>2.400000</speed>
</trkpt>
<trkpt lat="56.064968" lon="26.503166">
<ele>106.743225</ele>
<time>2010-08-29T11:32:47Z</time>
<desc>lat.=56.064968, lon.=26.503166, Alt.=106.743225m. Speed=8.676000m/h.</desc>
<speed>2.410000</speed>
</trkpt>
<trkpt lat="56.064953" lon="26.503136">
<ele>106.889709</ele>
<time>2010-08-29T11:32:48Z</time>
<desc>lat.=56.064953, lon.=26.503136, Alt.=106.889709m. Speed=9.468000m/h.</desc>
<speed>2.630000</speed>
</trkpt>
<trkpt lat="56.064934" lon="26.503101">
<ele>106.864319</ele>
<time>2010-08-29T11:32:49Z</time>
<desc>lat.=56.064934, lon.=26.503101, Alt.=106.864319m. Speed=10.908000m/h.</desc>
<speed>3.030000</speed>
</trkpt>
<trkpt lat="56.064915" lon="26.503061">
<ele>106.965881</ele>
<time>2010-08-29T11:32:50Z</time>
<desc>lat.=56.064915, lon.=26.503061, Alt.=106.965881m. Speed=11.628000m/h.</desc>
<speed>3.230000</speed>
</trkpt>
<trkpt lat="56.064892" lon="26.503023">
<ele>106.915100</ele>
<time>2010-08-29T11:32:51Z</time>
<desc>lat.=56.064892, lon.=26.503023, Alt.=106.915100m. Speed=13.068000m/h.</desc>
<speed>3.630000</speed>
</trkpt>
<trkpt lat="56.064865" lon="26.502989">
<ele>106.862366</ele>
<time>2010-08-29T11:32:52Z</time>
<desc>lat.=56.064865, lon.=26.502989, Alt.=106.862366m. Speed=12.996000m/h.</desc>
<speed>3.610000</speed>
</trkpt>
<trkpt lat="56.064838" lon="26.502956">
<ele>106.840881</ele>
<time>2010-08-29T11:32:53Z</time>
<desc>lat.=56.064838, lon.=26.502956, Alt.=106.840881m. Speed=12.348000m/h.</desc>
<speed>3.430000</speed>
</trkpt>
<trkpt lat="56.064816" lon="26.502926">
<ele>106.815491</ele>
<time>2010-08-29T11:32:54Z</time>
<desc>lat.=56.064816, lon.=26.502926, Alt.=106.815491m. Speed=11.088000m/h.</desc>
<speed>3.080000</speed>
</trkpt>
<trkpt lat="56.064793" lon="26.502892">
<ele>106.854553</ele>
<time>2010-08-29T11:32:55Z</time>
<desc>lat.=56.064793, lon.=26.502892, Alt.=106.854553m. Speed=10.188000m/h.</desc>
<speed>2.830000</speed>
</trkpt>
<trkpt lat="56.064777" lon="26.502863">
<ele>106.844788</ele>
<time>2010-08-29T11:32:56Z</time>
<desc>lat.=56.064777, lon.=26.502863, Alt.=106.844788m. Speed=8.820000m/h.</desc>
<speed>2.450000</speed>
</trkpt>
<trkpt lat="56.064766" lon="26.502829">
<ele>106.963928</ele>
<time>2010-08-29T11:32:57Z</time>
<desc>lat.=56.064766, lon.=26.502829, Alt.=106.963928m. Speed=8.352000m/h.</desc>
<speed>2.320000</speed>
</trkpt>
<trkpt lat="56.064751" lon="26.502798">
<ele>106.969788</ele>
<time>2010-08-29T11:32:58Z</time>
<desc>lat.=56.064751, lon.=26.502798, Alt.=106.969788m. Speed=9.180000m/h.</desc>
<speed>2.550000</speed>
</trkpt>
<trkpt lat="56.064739" lon="26.502766">
<ele>107.145569</ele>
<time>2010-08-29T11:32:59Z</time>
<desc>lat.=56.064739, lon.=26.502766, Alt.=107.145569m. Speed=9.540000m/h.</desc>
<speed>2.650000</speed>
</trkpt>
<trkpt lat="56.064728" lon="26.502726">
<ele>107.303772</ele>
<time>2010-08-29T11:33:00Z</time>
<desc>lat.=56.064728, lon.=26.502726, Alt.=107.303772m. Speed=9.396000m/h.</desc>
<speed>2.610000</speed>
</trkpt>
<trkpt lat="56.064720" lon="26.502691">
<ele>107.333069</ele>
<time>2010-08-29T11:33:01Z</time>
<desc>lat.=56.064720, lon.=26.502691, Alt.=107.333069m. Speed=9.144000m/h.</desc>
<speed>2.540000</speed>
</trkpt>
<trkpt lat="56.064709" lon="26.502649">
<ele>107.366272</ele>
<time>2010-08-29T11:33:02Z</time>
<desc>lat.=56.064709, lon.=26.502649, Alt.=107.366272m. Speed=8.784000m/h.</desc>
<speed>2.440000</speed>
</trkpt>
<trkpt lat="56.064701" lon="26.502605">
<ele>107.348694</ele>
<time>2010-08-29T11:33:03Z</time>
<desc>lat.=56.064701, lon.=26.502605, Alt.=107.348694m. Speed=11.520000m/h.</desc>
<speed>3.200000</speed>
</trkpt>
<trkpt lat="56.064686" lon="26.502562">
<ele>107.116272</ele>
<time>2010-08-29T11:33:04Z</time>
<desc>lat.=56.064686, lon.=26.502562, Alt.=107.116272m. Speed=11.736000m/h.</desc>
<speed>3.260000</speed>
</trkpt>
<trkpt lat="56.064671" lon="26.502518">
<ele>107.145569</ele>
<time>2010-08-29T11:33:05Z</time>
<desc>lat.=56.064671, lon.=26.502518, Alt.=107.145569m. Speed=11.376000m/h.</desc>
<speed>3.160000</speed>
</trkpt>
<trkpt lat="56.064651" lon="26.502478">
<ele>106.963928</ele>
<time>2010-08-29T11:33:06Z</time>
<desc>lat.=56.064651, lon.=26.502478, Alt.=106.963928m. Speed=10.512000m/h.</desc>
<speed>2.920000</speed>
</trkpt>
<trkpt lat="56.064636" lon="26.502436">
<ele>106.862366</ele>
<time>2010-08-29T11:33:07Z</time>
<desc>lat.=56.064636, lon.=26.502436, Alt.=106.862366m. Speed=11.232000m/h.</desc>
<speed>3.120000</speed>
</trkpt>
<trkpt lat="56.064621" lon="26.502392">
<ele>106.903381</ele>
<time>2010-08-29T11:33:08Z</time>
<desc>lat.=56.064621, lon.=26.502392, Alt.=106.903381m. Speed=11.268000m/h.</desc>
<speed>3.130000</speed>
</trkpt>
<trkpt lat="56.064602" lon="26.502346">
<ele>107.110413</ele>
<time>2010-08-29T11:33:09Z</time>
<desc>lat.=56.064602, lon.=26.502346, Alt.=107.110413m. Speed=12.276000m/h.</desc>
<speed>3.410000</speed>
</trkpt>
<trkpt lat="56.064587" lon="26.502296">
<ele>107.243225</ele>
<time>2010-08-29T11:33:10Z</time>
<desc>lat.=56.064587, lon.=26.502296, Alt.=107.243225m. Speed=11.664000m/h.</desc>
<speed>3.240000</speed>
</trkpt>
<trkpt lat="56.064571" lon="26.502249">
<ele>107.213928</ele>
<time>2010-08-29T11:33:11Z</time>
<desc>lat.=56.064571, lon.=26.502249, Alt.=107.213928m. Speed=12.204000m/h.</desc>
<speed>3.390000</speed>
</trkpt>
<trkpt lat="56.064560" lon="26.502201">
<ele>107.256897</ele>
<time>2010-08-29T11:33:12Z</time>
<desc>lat.=56.064560, lon.=26.502201, Alt.=107.256897m. Speed=10.980000m/h.</desc>
<speed>3.050000</speed>
</trkpt>
<trkpt lat="56.064548" lon="26.502157">
<ele>107.215881</ele>
<time>2010-08-29T11:33:13Z</time>
<desc>lat.=56.064548, lon.=26.502157, Alt.=107.215881m. Speed=9.684000m/h.</desc>
<speed>2.690000</speed>
</trkpt>
<trkpt lat="56.064533" lon="26.502123">
<ele>107.129944</ele>
<time>2010-08-29T11:33:14Z</time>
<desc>lat.=56.064533, lon.=26.502123, Alt.=107.129944m. Speed=7.524000m/h.</desc>
<speed>2.090000</speed>
</trkpt>
<trkpt lat="56.064529" lon="26.502094">
<ele>106.915100</ele>
<time>2010-08-29T11:33:15Z</time>
<desc>lat.=56.064529, lon.=26.502094, Alt.=106.915100m. Speed=6.588000m/h.</desc>
<speed>1.830000</speed>
</trkpt>
<trkpt lat="56.064518" lon="26.502066">
<ele>107.069397</ele>
<time>2010-08-29T11:33:16Z</time>
<desc>lat.=56.064518, lon.=26.502066, Alt.=107.069397m. Speed=7.632000m/h.</desc>
<speed>2.120000</speed>
</trkpt>
<trkpt lat="56.064510" lon="26.502029">
<ele>107.083069</ele>
<time>2010-08-29T11:33:17Z</time>
<desc>lat.=56.064510, lon.=26.502029, Alt.=107.083069m. Speed=7.128000m/h.</desc>
<speed>1.980000</speed>
</trkpt>
<trkpt lat="56.064503" lon="26.502007">
<ele>107.028381</ele>
<time>2010-08-29T11:33:18Z</time>
<desc>lat.=56.064503, lon.=26.502007, Alt.=107.028381m. Speed=5.508000m/h.</desc>
<speed>1.530000</speed>
</trkpt>
<trkpt lat="56.064491" lon="26.501984">
<ele>106.971741</ele>
<time>2010-08-29T11:33:19Z</time>
<desc>lat.=56.064491, lon.=26.501984, Alt.=106.971741m. Speed=8.316000m/h.</desc>
<speed>2.310000</speed>
</trkpt>
<trkpt lat="56.064472" lon="26.501947">
<ele>107.163147</ele>
<time>2010-08-29T11:33:20Z</time>
<desc>lat.=56.064472, lon.=26.501947, Alt.=107.163147m. Speed=11.628000m/h.</desc>
<speed>3.230000</speed>
</trkpt>
<trkpt lat="56.064457" lon="26.501904">
<ele>106.993225</ele>
<time>2010-08-29T11:33:21Z</time>
<desc>lat.=56.064457, lon.=26.501904, Alt.=106.993225m. Speed=12.600000m/h.</desc>
<speed>3.500000</speed>
</trkpt>
<trkpt lat="56.064442" lon="26.501850">
<ele>106.928772</ele>
<time>2010-08-29T11:33:22Z</time>
<desc>lat.=56.064442, lon.=26.501850, Alt.=106.928772m. Speed=13.104000m/h.</desc>
<speed>3.640000</speed>
</trkpt>
<trkpt lat="56.064423" lon="26.501799">
<ele>106.973694</ele>
<time>2010-08-29T11:33:23Z</time>
<desc>lat.=56.064423, lon.=26.501799, Alt.=106.973694m. Speed=12.924000m/h.</desc>
<speed>3.590000</speed>
</trkpt>
<trkpt lat="56.064407" lon="26.501751">
<ele>106.946350</ele>
<time>2010-08-29T11:33:24Z</time>
<desc>lat.=56.064407, lon.=26.501751, Alt.=106.946350m. Speed=13.032000m/h.</desc>
<speed>3.620000</speed>
</trkpt>
<trkpt lat="56.064388" lon="26.501701">
<ele>106.838928</ele>
<time>2010-08-29T11:33:25Z</time>
<desc>lat.=56.064388, lon.=26.501701, Alt.=106.838928m. Speed=13.104000m/h.</desc>
<speed>3.640000</speed>
</trkpt>
<trkpt lat="56.064365" lon="26.501650">
<ele>107.114319</ele>
<time>2010-08-29T11:33:26Z</time>
<desc>lat.=56.064365, lon.=26.501650, Alt.=107.114319m. Speed=13.788000m/h.</desc>
<speed>3.830000</speed>
</trkpt>
<trkpt lat="56.064346" lon="26.501602">
<ele>107.016663</ele>
<time>2010-08-29T11:33:27Z</time>
<desc>lat.=56.064346, lon.=26.501602, Alt.=107.016663m. Speed=13.860000m/h.</desc>
<speed>3.850000</speed>
</trkpt>
<trkpt lat="56.064320" lon="26.501549">
<ele>107.383850</ele>
<time>2010-08-29T11:33:28Z</time>
<desc>lat.=56.064320, lon.=26.501549, Alt.=107.383850m. Speed=15.372000m/h.</desc>
<speed>4.270000</speed>
</trkpt>
<trkpt lat="56.064297" lon="26.501486">
<ele>107.344788</ele>
<time>2010-08-29T11:33:29Z</time>
<desc>lat.=56.064297, lon.=26.501486, Alt.=107.344788m. Speed=17.856001m/h.</desc>
<speed>4.960000</speed>
</trkpt>
<trkpt lat="56.064270" lon="26.501421">
<ele>107.401428</ele>
<time>2010-08-29T11:33:30Z</time>
<desc>lat.=56.064270, lon.=26.501421, Alt.=107.401428m. Speed=18.072001m/h.</desc>
<speed>5.020000</speed>
</trkpt>
<trkpt lat="56.064243" lon="26.501356">
<ele>107.376038</ele>
<time>2010-08-29T11:33:31Z</time>
<desc>lat.=56.064243, lon.=26.501356, Alt.=107.376038m. Speed=18.288000m/h.</desc>
<speed>5.080000</speed>
</trkpt>
<trkpt lat="56.064213" lon="26.501291">
<ele>107.211975</ele>
<time>2010-08-29T11:33:32Z</time>
<desc>lat.=56.064213, lon.=26.501291, Alt.=107.211975m. Speed=18.252001m/h.</desc>
<speed>5.070000</speed>
</trkpt>
<trkpt lat="56.064186" lon="26.501230">
<ele>107.016663</ele>
<time>2010-08-29T11:33:33Z</time>
<desc>lat.=56.064186, lon.=26.501230, Alt.=107.016663m. Speed=18.360001m/h.</desc>
<speed>5.100000</speed>
</trkpt>
<trkpt lat="56.064156" lon="26.501167">
<ele>106.790100</ele>
<time>2010-08-29T11:33:34Z</time>
<desc>lat.=56.064156, lon.=26.501167, Alt.=106.790100m. Speed=18.576000m/h.</desc>
<speed>5.160000</speed>
</trkpt>
<trkpt lat="56.064121" lon="26.501097">
<ele>106.807678</ele>
<time>2010-08-29T11:33:35Z</time>
<desc>lat.=56.064121, lon.=26.501097, Alt.=106.807678m. Speed=19.044001m/h.</desc>
<speed>5.290000</speed>
</trkpt>
<trkpt lat="56.064091" lon="26.501028">
<ele>106.922913</ele>
<time>2010-08-29T11:33:36Z</time>
<desc>lat.=56.064091, lon.=26.501028, Alt.=106.922913m. Speed=19.403999m/h.</desc>
<speed>5.390000</speed>
</trkpt>
<trkpt lat="56.064056" lon="26.500957">
<ele>106.585022</ele>
<time>2010-08-29T11:33:37Z</time>
<desc>lat.=56.064056, lon.=26.500957, Alt.=106.585022m. Speed=20.160000m/h.</desc>
<speed>5.600000</speed>
</trkpt>
<trkpt lat="56.064022" lon="26.500885">
<ele>106.684631</ele>
<time>2010-08-29T11:33:38Z</time>
<desc>lat.=56.064022, lon.=26.500885, Alt.=106.684631m. Speed=20.700001m/h.</desc>
<speed>5.750000</speed>
</trkpt>
<trkpt lat="56.063988" lon="26.500818">
<ele>106.633850</ele>
<time>2010-08-29T11:33:39Z</time>
<desc>lat.=56.063988, lon.=26.500818, Alt.=106.633850m. Speed=20.483999m/h.</desc>
<speed>5.690000</speed>
</trkpt>
<trkpt lat="56.063953" lon="26.500755">
<ele>106.608459</ele>
<time>2010-08-29T11:33:40Z</time>
<desc>lat.=56.063953, lon.=26.500755, Alt.=106.608459m. Speed=19.403999m/h.</desc>
<speed>5.390000</speed>
</trkpt>
<trkpt lat="56.063923" lon="26.500696">
<ele>106.512756</ele>
<time>2010-08-29T11:33:41Z</time>
<desc>lat.=56.063923, lon.=26.500696, Alt.=106.512756m. Speed=19.260000m/h.</desc>
<speed>5.350000</speed>
</trkpt>
<trkpt lat="56.063892" lon="26.500635">
<ele>106.409241</ele>
<time>2010-08-29T11:33:42Z</time>
<desc>lat.=56.063892, lon.=26.500635, Alt.=106.409241m. Speed=18.468000m/h.</desc>
<speed>5.130000</speed>
</trkpt>
<trkpt lat="56.063862" lon="26.500574">
<ele>106.313538</ele>
<time>2010-08-29T11:33:43Z</time>
<desc>lat.=56.063862, lon.=26.500574, Alt.=106.313538m. Speed=18.143999m/h.</desc>
<speed>5.040000</speed>
</trkpt>
<trkpt lat="56.063831" lon="26.500513">
<ele>106.170959</ele>
<time>2010-08-29T11:33:44Z</time>
<desc>lat.=56.063831, lon.=26.500513, Alt.=106.170959m. Speed=18.180000m/h.</desc>
<speed>5.050000</speed>
</trkpt>
<trkpt lat="56.063805" lon="26.500452">
<ele>106.071350</ele>
<time>2010-08-29T11:33:45Z</time>
<desc>lat.=56.063805, lon.=26.500452, Alt.=106.071350m. Speed=18.180000m/h.</desc>
<speed>5.050000</speed>
</trkpt>
<trkpt lat="56.063778" lon="26.500393">
<ele>105.827209</ele>
<time>2010-08-29T11:33:46Z</time>
<desc>lat.=56.063778, lon.=26.500393, Alt.=105.827209m. Speed=17.927999m/h.</desc>
<speed>4.980000</speed>
</trkpt>
<trkpt lat="56.063747" lon="26.500332">
<ele>105.571350</ele>
<time>2010-08-29T11:33:47Z</time>
<desc>lat.=56.063747, lon.=26.500332, Alt.=105.571350m. Speed=18.576000m/h.</desc>
<speed>5.160000</speed>
</trkpt>
<trkpt lat="56.063717" lon="26.500265">
<ele>105.278381</ele>
<time>2010-08-29T11:33:48Z</time>
<desc>lat.=56.063717, lon.=26.500265, Alt.=105.278381m. Speed=19.368000m/h.</desc>
<speed>5.380000</speed>
</trkpt>
<trkpt lat="56.063686" lon="26.500198">
<ele>104.969788</ele>
<time>2010-08-29T11:33:49Z</time>
<desc>lat.=56.063686, lon.=26.500198, Alt.=104.969788m. Speed=20.195999m/h.</desc>
<speed>5.610000</speed>
</trkpt>
<trkpt lat="56.063656" lon="26.500128">
<ele>104.592834</ele>
<time>2010-08-29T11:33:50Z</time>
<desc>lat.=56.063656, lon.=26.500128, Alt.=104.592834m. Speed=20.988001m/h.</desc>
<speed>5.830000</speed>
</trkpt>
<trkpt lat="56.063622" lon="26.500053">
<ele>104.258850</ele>
<time>2010-08-29T11:33:51Z</time>
<desc>lat.=56.063622, lon.=26.500053, Alt.=104.258850m. Speed=21.780001m/h.</desc>
<speed>6.050000</speed>
</trkpt>
<trkpt lat="56.063587" lon="26.499975">
<ele>103.862366</ele>
<time>2010-08-29T11:33:52Z</time>
<desc>lat.=56.063587, lon.=26.499975, Alt.=103.862366m. Speed=22.716000m/h.</desc>
<speed>6.310000</speed>
</trkpt>
<trkpt lat="56.063549" lon="26.499897">
<ele>103.557678</ele>
<time>2010-08-29T11:33:53Z</time>
<desc>lat.=56.063549, lon.=26.499897, Alt.=103.557678m. Speed=22.427999m/h.</desc>
<speed>6.230000</speed>
</trkpt>
<trkpt lat="56.063515" lon="26.499819">
<ele>103.368225</ele>
<time>2010-08-29T11:33:54Z</time>
<desc>lat.=56.063515, lon.=26.499819, Alt.=103.368225m. Speed=22.284000m/h.</desc>
<speed>6.190000</speed>
</trkpt>
<trkpt lat="56.063480" lon="26.499739">
<ele>103.237366</ele>
<time>2010-08-29T11:33:55Z</time>
<desc>lat.=56.063480, lon.=26.499739, Alt.=103.237366m. Speed=22.535999m/h.</desc>
<speed>6.260000</speed>
</trkpt>
<trkpt lat="56.063446" lon="26.499659">
<ele>103.069397</ele>
<time>2010-08-29T11:33:56Z</time>
<desc>lat.=56.063446, lon.=26.499659, Alt.=103.069397m. Speed=22.392000m/h.</desc>
<speed>6.220000</speed>
</trkpt>
<trkpt lat="56.063412" lon="26.499584">
<ele>102.844788</ele>
<time>2010-08-29T11:33:57Z</time>
<desc>lat.=56.063412, lon.=26.499584, Alt.=102.844788m. Speed=22.032000m/h.</desc>
<speed>6.120000</speed>
</trkpt>
<trkpt lat="56.063377" lon="26.499508">
<ele>102.795959</ele>
<time>2010-08-29T11:33:58Z</time>
<desc>lat.=56.063377, lon.=26.499508, Alt.=102.795959m. Speed=21.132000m/h.</desc>
<speed>5.870000</speed>
</trkpt>
<trkpt lat="56.063351" lon="26.499430">
<ele>102.669006</ele>
<time>2010-08-29T11:33:59Z</time>
<desc>lat.=56.063351, lon.=26.499430, Alt.=102.669006m. Speed=20.412001m/h.</desc>
<speed>5.670000</speed>
</trkpt>
<trkpt lat="56.063324" lon="26.499352">
<ele>102.616272</ele>
<time>2010-08-29T11:34:00Z</time>
<desc>lat.=56.063324, lon.=26.499352, Alt.=102.616272m. Speed=20.124001m/h.</desc>
<speed>5.590000</speed>
</trkpt>
<trkpt lat="56.063305" lon="26.499273">
<ele>102.598694</ele>
<time>2010-08-29T11:34:01Z</time>
<desc>lat.=56.063305, lon.=26.499273, Alt.=102.598694m. Speed=19.044001m/h.</desc>
<speed>5.290000</speed>
</trkpt>
<trkpt lat="56.063293" lon="26.499195">
<ele>102.809631</ele>
<time>2010-08-29T11:34:02Z</time>
<desc>lat.=56.063293, lon.=26.499195, Alt.=102.809631m. Speed=17.784000m/h.</desc>
<speed>4.940000</speed>
</trkpt>
<trkpt lat="56.063278" lon="26.499126">
<ele>102.895569</ele>
<time>2010-08-29T11:34:03Z</time>
<desc>lat.=56.063278, lon.=26.499126, Alt.=102.895569m. Speed=15.696000m/h.</desc>
<speed>4.360000</speed>
</trkpt>
<trkpt lat="56.063263" lon="26.499067">
<ele>102.989319</ele>
<time>2010-08-29T11:34:04Z</time>
<desc>lat.=56.063263, lon.=26.499067, Alt.=102.989319m. Speed=13.320000m/h.</desc>
<speed>3.700000</speed>
</trkpt>
<trkpt lat="56.063251" lon="26.499016">
<ele>102.907288</ele>
<time>2010-08-29T11:34:05Z</time>
<desc>lat.=56.063251, lon.=26.499016, Alt.=102.907288m. Speed=11.628000m/h.</desc>
<speed>3.230000</speed>
</trkpt>
<trkpt lat="56.063240" lon="26.498964">
<ele>102.911194</ele>
<time>2010-08-29T11:34:06Z</time>
<desc>lat.=56.063240, lon.=26.498964, Alt.=102.911194m. Speed=10.944000m/h.</desc>
<speed>3.040000</speed>
</trkpt>
<trkpt lat="56.063232" lon="26.498920">
<ele>102.823303</ele>
<time>2010-08-29T11:34:07Z</time>
<desc>lat.=56.063232, lon.=26.498920, Alt.=102.823303m. Speed=8.820000m/h.</desc>
<speed>2.450000</speed>
</trkpt>
<trkpt lat="56.063232" lon="26.498901">
<ele>102.745178</ele>
<time>2010-08-29T11:34:08Z</time>
<desc>lat.=56.063232, lon.=26.498901, Alt.=102.745178m. Speed=1.404000m/h.</desc>
<speed>0.390000</speed>
</trkpt>
<trkpt lat="56.063229" lon="26.498901">
<ele>102.659241</ele>
<time>2010-08-29T11:34:09Z</time>
<desc>lat.=56.063229, lon.=26.498901, Alt.=102.659241m. Speed=0.252000m/h.</desc>
<speed>0.070000</speed>
</trkpt>
<trkpt lat="56.063232" lon="26.498901">
<ele>103.071350</ele>
<time>2010-08-29T11:34:10Z</time>
<desc>lat.=56.063232, lon.=26.498901, Alt.=103.071350m. Speed=0.288000m/h.</desc>
<speed>0.080000</speed>
</trkpt>
<trkpt lat="56.063229" lon="26.498899">
<ele>102.907288</ele>
<time>2010-08-29T11:34:11Z</time>
<desc>lat.=56.063229, lon.=26.498899, Alt.=102.907288m. Speed=0.072000m/h.</desc>
<speed>0.020000</speed>
</trkpt>
<trkpt lat="56.063229" lon="26.498901">
<ele>102.881897</ele>
<time>2010-08-29T11:34:12Z</time>
<desc>lat.=56.063229, lon.=26.498901, Alt.=102.881897m. Speed=0.036000m/h.</desc>
<speed>0.010000</speed>
</trkpt>
<trkpt lat="56.063229" lon="26.498901">
<ele>102.876038</ele>
<time>2010-08-29T11:34:13Z</time>
<desc>lat.=56.063229, lon.=26.498901, Alt.=102.876038m. Speed=0.216000m/h.</desc>
<speed>0.060000</speed>
</trkpt>
<trkpt lat="56.063229" lon="26.498901">
<ele>102.850647</ele>
<time>2010-08-29T11:34:14Z</time>
<desc>lat.=56.063229, lon.=26.498901, Alt.=102.850647m. Speed=0.036000m/h.</desc>
<speed>0.010000</speed>
</trkpt>
<trkpt lat="56.063229" lon="26.498901">
<ele>102.819397</ele>
<time>2010-08-29T11:34:15Z</time>
<desc>lat.=56.063229, lon.=26.498901, Alt.=102.819397m. Speed=0.144000m/h.</desc>
<speed>0.040000</speed>
</trkpt>
<trkpt lat="56.063229" lon="26.498901">
<ele>102.797913</ele>
<time>2010-08-29T11:34:16Z</time>
<desc>lat.=56.063229, lon.=26.498901, Alt.=102.797913m. Speed=0.180000m/h.</desc>
<speed>0.050000</speed>
</trkpt>
<trkpt lat="56.063229" lon="26.498901">
<ele>102.776428</ele>
<time>2010-08-29T11:34:17Z</time>
<desc>lat.=56.063229, lon.=26.498901, Alt.=102.776428m. Speed=0.000000m/h.</desc>
<speed>0.000000</speed>
</trkpt>
<trkpt lat="56.063229" lon="26.498901">
<ele>102.770569</ele>
<time>2010-08-29T11:34:18Z</time>
<desc>lat.=56.063229, lon.=26.498901, Alt.=102.770569m. Speed=0.108000m/h.</desc>
<speed>0.030000</speed>
</trkpt>
<trkpt lat="56.063229" lon="26.498901">
<ele>102.778381</ele>
<time>2010-08-29T11:34:19Z</time>
<desc>lat.=56.063229, lon.=26.498901, Alt.=102.778381m. Speed=0.108000m/h.</desc>
<speed>0.030000</speed>
</trkpt>
<trkpt lat="56.063229" lon="26.498901">
<ele>102.780334</ele>
<time>2010-08-29T11:34:20Z</time>
<desc>lat.=56.063229, lon.=26.498901, Alt.=102.780334m. Speed=0.036000m/h.</desc>
<speed>0.010000</speed>
</trkpt>
<trkpt lat="56.063229" lon="26.498901">
<ele>102.756897</ele>
<time>2010-08-29T11:34:21Z</time>
<desc>lat.=56.063229, lon.=26.498901, Alt.=102.756897m. Speed=0.108000m/h.</desc>
<speed>0.030000</speed>
</trkpt>
<trkpt lat="56.063229" lon="26.498901">
<ele>102.752991</ele>
<time>2010-08-29T11:34:22Z</time>
<desc>lat.=56.063229, lon.=26.498901, Alt.=102.752991m. Speed=0.288000m/h.</desc>
<speed>0.080000</speed>
</trkpt>
<trkpt lat="56.063232" lon="26.498899">
<ele>102.749084</ele>
<time>2010-08-29T11:34:23Z</time>
<desc>lat.=56.063232, lon.=26.498899, Alt.=102.749084m. Speed=0.216000m/h.</desc>
<speed>0.060000</speed>
</trkpt>
<trkpt lat="56.063232" lon="26.498899">
<ele>102.743225</ele>
<time>2010-08-29T11:34:24Z</time>
<desc>lat.=56.063232, lon.=26.498899, Alt.=102.743225m. Speed=0.648000m/h.</desc>
<speed>0.180000</speed>
</trkpt>
<trkpt lat="56.063232" lon="26.498898">
<ele>102.741272</ele>
<time>2010-08-29T11:34:25Z</time>
<desc>lat.=56.063232, lon.=26.498898, Alt.=102.741272m. Speed=1.800000m/h.</desc>
<speed>0.500000</speed>
</trkpt>
<trkpt lat="56.063229" lon="26.498890">
<ele>102.741272</ele>
<time>2010-08-29T11:34:26Z</time>
<desc>lat.=56.063229, lon.=26.498890, Alt.=102.741272m. Speed=3.384000m/h.</desc>
<speed>0.940000</speed>
</trkpt>
<trkpt lat="56.063225" lon="26.498877">
<ele>102.745178</ele>
<time>2010-08-29T11:34:27Z</time>
<desc>lat.=56.063225, lon.=26.498877, Alt.=102.745178m. Speed=3.924000m/h.</desc>
<speed>1.090000</speed>
</trkpt>
<trkpt lat="56.063217" lon="26.498861">
<ele>102.676819</ele>
<time>2010-08-29T11:34:28Z</time>
<desc>lat.=56.063217, lon.=26.498861, Alt.=102.676819m. Speed=5.220000m/h.</desc>
<speed>1.450000</speed>
</trkpt>
<trkpt lat="56.063206" lon="26.498837">
<ele>102.413147</ele>
<time>2010-08-29T11:34:29Z</time>
<desc>lat.=56.063206, lon.=26.498837, Alt.=102.413147m. Speed=5.580000m/h.</desc>
<speed>1.550000</speed>
</trkpt>
<trkpt lat="56.063194" lon="26.498821">
<ele>102.409241</ele>
<time>2010-08-29T11:34:30Z</time>
<desc>lat.=56.063194, lon.=26.498821, Alt.=102.409241m. Speed=5.760000m/h.</desc>
<speed>1.600000</speed>
</trkpt>
<trkpt lat="56.063190" lon="26.498796">
<ele>102.411194</ele>
<time>2010-08-29T11:34:31Z</time>
<desc>lat.=56.063190, lon.=26.498796, Alt.=102.411194m. Speed=5.076000m/h.</desc>
<speed>1.410000</speed>
</trkpt>
<trkpt lat="56.063187" lon="26.498775">
<ele>102.434631</ele>
<time>2010-08-29T11:34:32Z</time>
<desc>lat.=56.063187, lon.=26.498775, Alt.=102.434631m. Speed=4.860000m/h.</desc>
<speed>1.350000</speed>
</trkpt>
<trkpt lat="56.063183" lon="26.498749">
<ele>102.424866</ele>
<time>2010-08-29T11:34:33Z</time>
<desc>lat.=56.063183, lon.=26.498749, Alt.=102.424866m. Speed=6.516000m/h.</desc>
<speed>1.810000</speed>
</trkpt>
<trkpt lat="56.063175" lon="26.498724">
<ele>102.153381</ele>
<time>2010-08-29T11:34:34Z</time>
<desc>lat.=56.063175, lon.=26.498724, Alt.=102.153381m. Speed=3.528000m/h.</desc>
<speed>0.980000</speed>
</trkpt>
<trkpt lat="56.063171" lon="26.498705">
<ele>102.047913</ele>
<time>2010-08-29T11:34:35Z</time>
<desc>lat.=56.063171, lon.=26.498705, Alt.=102.047913m. Speed=4.644000m/h.</desc>
<speed>1.290000</speed>
</trkpt>
<trkpt lat="56.063168" lon="26.498676">
<ele>101.911194</ele>
<time>2010-08-29T11:34:36Z</time>
<desc>lat.=56.063168, lon.=26.498676, Alt.=101.911194m. Speed=7.020000m/h.</desc>
<speed>1.950000</speed>
</trkpt>
<trkpt lat="56.063160" lon="26.498650">
<ele>101.965881</ele>
<time>2010-08-29T11:34:37Z</time>
<desc>lat.=56.063160, lon.=26.498650, Alt.=101.965881m. Speed=7.524000m/h.</desc>
<speed>2.090000</speed>
</trkpt>
<trkpt lat="56.063152" lon="26.498619">
<ele>101.901428</ele>
<time>2010-08-29T11:34:38Z</time>
<desc>lat.=56.063152, lon.=26.498619, Alt.=101.901428m. Speed=8.712000m/h.</desc>
<speed>2.420000</speed>
</trkpt>
<trkpt lat="56.063141" lon="26.498589">
<ele>101.038147</ele>
<time>2010-08-29T11:34:39Z</time>
<desc>lat.=56.063141, lon.=26.498589, Alt.=101.038147m. Speed=7.956000m/h.</desc>
<speed>2.210000</speed>
</trkpt>
<trkpt lat="56.063141" lon="26.498566">
<ele>101.729553</ele>
<time>2010-08-29T11:34:40Z</time>
<desc>lat.=56.063141, lon.=26.498566, Alt.=101.729553m. Speed=5.328000m/h.</desc>
<speed>1.480000</speed>
</trkpt>
<trkpt lat="56.063141" lon="26.498543">
<ele>101.745178</ele>
<time>2010-08-29T11:34:41Z</time>
<desc>lat.=56.063141, lon.=26.498543, Alt.=101.745178m. Speed=5.364000m/h.</desc>
<speed>1.490000</speed>
</trkpt>
<trkpt lat="56.063133" lon="26.498518">
<ele>101.852600</ele>
<time>2010-08-29T11:34:42Z</time>
<desc>lat.=56.063133, lon.=26.498518, Alt.=101.852600m. Speed=5.508000m/h.</desc>
<speed>1.530000</speed>
</trkpt>
<trkpt lat="56.063126" lon="26.498489">
<ele>101.858459</ele>
<time>2010-08-29T11:34:43Z</time>
<desc>lat.=56.063126, lon.=26.498489, Alt.=101.858459m. Speed=6.948000m/h.</desc>
<speed>1.930000</speed>
</trkpt>
<trkpt lat="56.063118" lon="26.498461">
<ele>101.805725</ele>
<time>2010-08-29T11:34:44Z</time>
<desc>lat.=56.063118, lon.=26.498461, Alt.=101.805725m. Speed=8.352000m/h.</desc>
<speed>2.320000</speed>
</trkpt>
<trkpt lat="56.063103" lon="26.498432">
<ele>101.651428</ele>
<time>2010-08-29T11:34:45Z</time>
<desc>lat.=56.063103, lon.=26.498432, Alt.=101.651428m. Speed=8.316000m/h.</desc>
<speed>2.310000</speed>
</trkpt>
<trkpt lat="56.063095" lon="26.498394">
<ele>101.901428</ele>
<time>2010-08-29T11:34:46Z</time>
<desc>lat.=56.063095, lon.=26.498394, Alt.=101.901428m. Speed=9.756000m/h.</desc>
<speed>2.710000</speed>
</trkpt>
<trkpt lat="56.063080" lon="26.498358">
<ele>101.995178</ele>
<time>2010-08-29T11:34:47Z</time>
<desc>lat.=56.063080, lon.=26.498358, Alt.=101.995178m. Speed=8.244000m/h.</desc>
<speed>2.290000</speed>
</trkpt>
<trkpt lat="56.063068" lon="26.498325">
<ele>101.948303</ele>
<time>2010-08-29T11:34:48Z</time>
<desc>lat.=56.063068, lon.=26.498325, Alt.=101.948303m. Speed=7.416000m/h.</desc>
<speed>2.060000</speed>
</trkpt>
<trkpt lat="56.063057" lon="26.498297">
<ele>102.018616</ele>
<time>2010-08-29T11:34:49Z</time>
<desc>lat.=56.063057, lon.=26.498297, Alt.=102.018616m. Speed=7.344000m/h.</desc>
<speed>2.040000</speed>
</trkpt>
<trkpt lat="56.063049" lon="26.498264">
<ele>102.188538</ele>
<time>2010-08-29T11:34:50Z</time>
<desc>lat.=56.063049, lon.=26.498264, Alt.=102.188538m. Speed=7.740000m/h.</desc>
<speed>2.150000</speed>
</trkpt>
<trkpt lat="56.063046" lon="26.498226">
<ele>102.520569</ele>
<time>2010-08-29T11:34:51Z</time>
<desc>lat.=56.063046, lon.=26.498226, Alt.=102.520569m. Speed=7.992000m/h.</desc>
<speed>2.220000</speed>
</trkpt>
<trkpt lat="56.063042" lon="26.498196">
<ele>102.973694</ele>
<time>2010-08-29T11:34:52Z</time>
<desc>lat.=56.063042, lon.=26.498196, Alt.=102.973694m. Speed=7.704000m/h.</desc>
<speed>2.140000</speed>
</trkpt>
<trkpt lat="56.063038" lon="26.498165">
<ele>103.083069</ele>
<time>2010-08-29T11:34:53Z</time>
<desc>lat.=56.063038, lon.=26.498165, Alt.=103.083069m. Speed=7.380000m/h.</desc>
<speed>2.050000</speed>
</trkpt>
<trkpt lat="56.063030" lon="26.498131">
<ele>103.206116</ele>
<time>2010-08-29T11:34:54Z</time>
<desc>lat.=56.063030, lon.=26.498131, Alt.=103.206116m. Speed=8.136000m/h.</desc>
<speed>2.260000</speed>
</trkpt>
<trkpt lat="56.063023" lon="26.498091">
<ele>103.352600</ele>
<time>2010-08-29T11:34:55Z</time>
<desc>lat.=56.063023, lon.=26.498091, Alt.=103.352600m. Speed=8.856000m/h.</desc>
<speed>2.460000</speed>
</trkpt>
<trkpt lat="56.063015" lon="26.498049">
<ele>103.510803</ele>
<time>2010-08-29T11:34:56Z</time>
<desc>lat.=56.063015, lon.=26.498049, Alt.=103.510803m. Speed=8.460000m/h.</desc>
<speed>2.350000</speed>
</trkpt>
<trkpt lat="56.063011" lon="26.498009">
<ele>103.573303</ele>
<time>2010-08-29T11:34:57Z</time>
<desc>lat.=56.063011, lon.=26.498009, Alt.=103.573303m. Speed=9.468000m/h.</desc>
<speed>2.630000</speed>
</trkpt>
<trkpt lat="56.063007" lon="26.497961">
<ele>103.799866</ele>
<time>2010-08-29T11:34:58Z</time>
<desc>lat.=56.063007, lon.=26.497961, Alt.=103.799866m. Speed=11.124000m/h.</desc>
<speed>3.090000</speed>
</trkpt>
<trkpt lat="56.063000" lon="26.497900">
<ele>104.710022</ele>
<time>2010-08-29T11:34:59Z</time>
<desc>lat.=56.063000, lon.=26.497900, Alt.=104.710022m. Speed=9.504000m/h.</desc>
<speed>2.640000</speed>
</trkpt>
<trkpt lat="56.062988" lon="26.497864">
<ele>104.944397</ele>
<time>2010-08-29T11:35:00Z</time>
<desc>lat.=56.062988, lon.=26.497864, Alt.=104.944397m. Speed=11.160000m/h.</desc>
<speed>3.100000</speed>
</trkpt>
<trkpt lat="56.062977" lon="26.497816">
<ele>105.323303</ele>
<time>2010-08-29T11:35:01Z</time>
<desc>lat.=56.062977, lon.=26.497816, Alt.=105.323303m. Speed=11.124000m/h.</desc>
<speed>3.090000</speed>
</trkpt>
<trkpt lat="56.062965" lon="26.497768">
<ele>105.491272</ele>
<time>2010-08-29T11:35:02Z</time>
<desc>lat.=56.062965, lon.=26.497768, Alt.=105.491272m. Speed=10.620000m/h.</desc>
<speed>2.950000</speed>
</trkpt>
<trkpt lat="56.062950" lon="26.497725">
<ele>105.620178</ele>
<time>2010-08-29T11:35:03Z</time>
<desc>lat.=56.062950, lon.=26.497725, Alt.=105.620178m. Speed=10.260000m/h.</desc>
<speed>2.850000</speed>
</trkpt>
<trkpt lat="56.062939" lon="26.497677">
<ele>105.241272</ele>
<time>2010-08-29T11:35:04Z</time>
<desc>lat.=56.062939, lon.=26.497677, Alt.=105.241272m. Speed=10.224000m/h.</desc>
<speed>2.840000</speed>
</trkpt>
<trkpt lat="56.062923" lon="26.497637">
<ele>104.260803</ele>
<time>2010-08-29T11:35:05Z</time>
<desc>lat.=56.062923, lon.=26.497637, Alt.=104.260803m. Speed=9.792000m/h.</desc>
<speed>2.720000</speed>
</trkpt>
<trkpt lat="56.062912" lon="26.497595">
<ele>104.198303</ele>
<time>2010-08-29T11:35:06Z</time>
<desc>lat.=56.062912, lon.=26.497595, Alt.=104.198303m. Speed=9.504000m/h.</desc>
<speed>2.640000</speed>
</trkpt>
<trkpt lat="56.062901" lon="26.497562">
<ele>104.215881</ele>
<time>2010-08-29T11:35:07Z</time>
<desc>lat.=56.062901, lon.=26.497562, Alt.=104.215881m. Speed=9.540000m/h.</desc>
<speed>2.650000</speed>
</trkpt>
<trkpt lat="56.062885" lon="26.497524">
<ele>104.049866</ele>
<time>2010-08-29T11:35:08Z</time>
<desc>lat.=56.062885, lon.=26.497524, Alt.=104.049866m. Speed=10.152000m/h.</desc>
<speed>2.820000</speed>
</trkpt>
<trkpt lat="56.062866" lon="26.497484">
<ele>103.952209</ele>
<time>2010-08-29T11:35:09Z</time>
<desc>lat.=56.062866, lon.=26.497484, Alt.=103.952209m. Speed=12.204000m/h.</desc>
<speed>3.390000</speed>
</trkpt>
<trkpt lat="56.062847" lon="26.497438">
<ele>103.667053</ele>
<time>2010-08-29T11:35:10Z</time>
<desc>lat.=56.062847, lon.=26.497438, Alt.=103.667053m. Speed=13.536000m/h.</desc>
<speed>3.760000</speed>
</trkpt>
<trkpt lat="56.062824" lon="26.497387">
<ele>103.551819</ele>
<time>2010-08-29T11:35:11Z</time>
<desc>lat.=56.062824, lon.=26.497387, Alt.=103.551819m. Speed=14.508000m/h.</desc>
<speed>4.030000</speed>
</trkpt>
<trkpt lat="56.062798" lon="26.497337">
<ele>103.196350</ele>
<time>2010-08-29T11:35:12Z</time>
<desc>lat.=56.062798, lon.=26.497337, Alt.=103.196350m. Speed=14.580000m/h.</desc>
<speed>4.050000</speed>
</trkpt>
<trkpt lat="56.062775" lon="26.497274">
<ele>103.145569</ele>
<time>2010-08-29T11:35:13Z</time>
<desc>lat.=56.062775, lon.=26.497274, Alt.=103.145569m. Speed=14.868000m/h.</desc>
<speed>4.130000</speed>
</trkpt>
<trkpt lat="56.062744" lon="26.497219">
<ele>102.149475</ele>
<time>2010-08-29T11:35:14Z</time>
<desc>lat.=56.062744, lon.=26.497219, Alt.=102.149475m. Speed=14.508000m/h.</desc>
<speed>4.030000</speed>
</trkpt>
<trkpt lat="56.062714" lon="26.497162">
<ele>101.887756</ele>
<time>2010-08-29T11:35:15Z</time>
<desc>lat.=56.062714, lon.=26.497162, Alt.=101.887756m. Speed=14.004000m/h.</desc>
<speed>3.890000</speed>
</trkpt>
<trkpt lat="56.062683" lon="26.497124">
<ele>101.366272</ele>
<time>2010-08-29T11:35:16Z</time>
<desc>lat.=56.062683, lon.=26.497124, Alt.=101.366272m. Speed=13.464000m/h.</desc>
<speed>3.740000</speed>
</trkpt>
<trkpt lat="56.062653" lon="26.497101">
<ele>101.782288</ele>
<time>2010-08-29T11:35:17Z</time>
<desc>lat.=56.062653, lon.=26.497101, Alt.=101.782288m. Speed=14.076000m/h.</desc>
<speed>3.910000</speed>
</trkpt>
<trkpt lat="56.062630" lon="26.497040">
<ele>100.803772</ele>
<time>2010-08-29T11:35:18Z</time>
<desc>lat.=56.062630, lon.=26.497040, Alt.=100.803772m. Speed=15.624000m/h.</desc>
<speed>4.340000</speed>
</trkpt>
<trkpt lat="56.062603" lon="26.496984">
<ele>99.725647</ele>
<time>2010-08-29T11:35:19Z</time>
<desc>lat.=56.062603, lon.=26.496984, Alt.=99.725647m. Speed=16.488001m/h.</desc>
<speed>4.580000</speed>
</trkpt>
<trkpt lat="56.062576" lon="26.496925">
<ele>98.961975</ele>
<time>2010-08-29T11:35:20Z</time>
<desc>lat.=56.062576, lon.=26.496925, Alt.=98.961975m. Speed=17.172001m/h.</desc>
<speed>4.770000</speed>
</trkpt>
<trkpt lat="56.062550" lon="26.496870">
<ele>98.499084</ele>
<time>2010-08-29T11:35:21Z</time>
<desc>lat.=56.062550, lon.=26.496870, Alt.=98.499084m. Speed=17.676001m/h.</desc>
<speed>4.910000</speed>
</trkpt>
<trkpt lat="56.062523" lon="26.496809">
<ele>97.672913</ele>
<time>2010-08-29T11:35:22Z</time>
<desc>lat.=56.062523, lon.=26.496809, Alt.=97.672913m. Speed=18.072001m/h.</desc>
<speed>5.020000</speed>
</trkpt>
<trkpt lat="56.062492" lon="26.496748">
<ele>96.936584</ele>
<time>2010-08-29T11:35:23Z</time>
<desc>lat.=56.062492, lon.=26.496748, Alt.=96.936584m. Speed=16.488001m/h.</desc>
<speed>4.580000</speed>
</trkpt>
<trkpt lat="56.062469" lon="26.496691">
<ele>96.215881</ele>
<time>2010-08-29T11:35:24Z</time>
<desc>lat.=56.062469, lon.=26.496691, Alt.=96.215881m. Speed=15.588000m/h.</desc>
<speed>4.330000</speed>
</trkpt>
<trkpt lat="56.062443" lon="26.496670">
<ele>98.877991</ele>
<time>2010-08-29T11:35:25Z</time>
<desc>lat.=56.062443, lon.=26.496670, Alt.=98.877991m. Speed=14.148000m/h.</desc>
<speed>3.930000</speed>
</trkpt>
<trkpt lat="56.062408" lon="26.496630">
<ele>98.897522</ele>
<time>2010-08-29T11:35:26Z</time>
<desc>lat.=56.062408, lon.=26.496630, Alt.=98.897522m. Speed=15.156000m/h.</desc>
<speed>4.210000</speed>
</trkpt>
<trkpt lat="56.062382" lon="26.496588">
<ele>99.055725</ele>
<time>2010-08-29T11:35:27Z</time>
<desc>lat.=56.062382, lon.=26.496588, Alt.=99.055725m. Speed=14.652000m/h.</desc>
<speed>4.070000</speed>
</trkpt>
<trkpt lat="56.062351" lon="26.496540">
<ele>99.249084</ele>
<time>2010-08-29T11:35:28Z</time>
<desc>lat.=56.062351, lon.=26.496540, Alt.=99.249084m. Speed=14.292000m/h.</desc>
<speed>3.970000</speed>
</trkpt>
<trkpt lat="56.062328" lon="26.496500">
<ele>99.440491</ele>
<time>2010-08-29T11:35:29Z</time>
<desc>lat.=56.062328, lon.=26.496500, Alt.=99.440491m. Speed=13.212000m/h.</desc>
<speed>3.670000</speed>
</trkpt>
<trkpt lat="56.062305" lon="26.496456">
<ele>99.706116</ele>
<time>2010-08-29T11:35:30Z</time>
<desc>lat.=56.062305, lon.=26.496456, Alt.=99.706116m. Speed=13.284000m/h.</desc>
<speed>3.690000</speed>
</trkpt>
<trkpt lat="56.062283" lon="26.496410">
<ele>99.782288</ele>
<time>2010-08-29T11:35:31Z</time>
<desc>lat.=56.062283, lon.=26.496410, Alt.=99.782288m. Speed=12.348000m/h.</desc>
<speed>3.430000</speed>
</trkpt>
<trkpt lat="56.062256" lon="26.496368">
<ele>99.674866</ele>
<time>2010-08-29T11:35:32Z</time>
<desc>lat.=56.062256, lon.=26.496368, Alt.=99.674866m. Speed=12.960000m/h.</desc>
<speed>3.600000</speed>
</trkpt>
<trkpt lat="56.062229" lon="26.496330">
<ele>99.778381</ele>
<time>2010-08-29T11:35:33Z</time>
<desc>lat.=56.062229, lon.=26.496330, Alt.=99.778381m. Speed=12.456000m/h.</desc>
<speed>3.460000</speed>
</trkpt>
<trkpt lat="56.062210" lon="26.496288">
<ele>99.952209</ele>
<time>2010-08-29T11:35:34Z</time>
<desc>lat.=56.062210, lon.=26.496288, Alt.=99.952209m. Speed=11.880000m/h.</desc>
<speed>3.300000</speed>
</trkpt>
<trkpt lat="56.062187" lon="26.496239">
<ele>99.663147</ele>
<time>2010-08-29T11:35:35Z</time>
<desc>lat.=56.062187, lon.=26.496239, Alt.=99.663147m. Speed=10.800000m/h.</desc>
<speed>3.000000</speed>
</trkpt>
<trkpt lat="56.062168" lon="26.496204">
<ele>99.426819</ele>
<time>2010-08-29T11:35:36Z</time>
<desc>lat.=56.062168, lon.=26.496204, Alt.=99.426819m. Speed=10.476000m/h.</desc>
<speed>2.910000</speed>
</trkpt>
<trkpt lat="56.062145" lon="26.496170">
<ele>99.342834</ele>
<time>2010-08-29T11:35:37Z</time>
<desc>lat.=56.062145, lon.=26.496170, Alt.=99.342834m. Speed=12.564000m/h.</desc>
<speed>3.490000</speed>
</trkpt>
<trkpt lat="56.062126" lon="26.496122">
<ele>99.454163</ele>
<time>2010-08-29T11:35:38Z</time>
<desc>lat.=56.062126, lon.=26.496122, Alt.=99.454163m. Speed=13.788000m/h.</desc>
<speed>3.830000</speed>
</trkpt>
<trkpt lat="56.062099" lon="26.496077">
<ele>99.354553</ele>
<time>2010-08-29T11:35:39Z</time>
<desc>lat.=56.062099, lon.=26.496077, Alt.=99.354553m. Speed=15.804000m/h.</desc>
<speed>4.390000</speed>
</trkpt>
<trkpt lat="56.062077" lon="26.496033">
<ele>99.251038</ele>
<time>2010-08-29T11:35:40Z</time>
<desc>lat.=56.062077, lon.=26.496033, Alt.=99.251038m. Speed=16.344000m/h.</desc>
<speed>4.540000</speed>
</trkpt>
<trkpt lat="56.062046" lon="26.495970">
<ele>99.139709</ele>
<time>2010-08-29T11:35:41Z</time>
<desc>lat.=56.062046, lon.=26.495970, Alt.=99.139709m. Speed=17.280001m/h.</desc>
<speed>4.800000</speed>
</trkpt>
<trkpt lat="56.062016" lon="26.495907">
<ele>99.458069</ele>
<time>2010-08-29T11:35:42Z</time>
<desc>lat.=56.062016, lon.=26.495907, Alt.=99.458069m. Speed=17.388000m/h.</desc>
<speed>4.830000</speed>
</trkpt>
<trkpt lat="56.061981" lon="26.495859">
<ele>99.770569</ele>
<time>2010-08-29T11:35:43Z</time>
<desc>lat.=56.061981, lon.=26.495859, Alt.=99.770569m. Speed=17.063999m/h.</desc>
<speed>4.740000</speed>
</trkpt>
<trkpt lat="56.061951" lon="26.495810">
<ele>99.901428</ele>
<time>2010-08-29T11:35:44Z</time>
<desc>lat.=56.061951, lon.=26.495810, Alt.=99.901428m. Speed=15.948000m/h.</desc>
<speed>4.430000</speed>
</trkpt>
<trkpt lat="56.061920" lon="26.495752">
<ele>99.592834</ele>
<time>2010-08-29T11:35:45Z</time>
<desc>lat.=56.061920, lon.=26.495752, Alt.=99.592834m. Speed=16.452000m/h.</desc>
<speed>4.570000</speed>
</trkpt>
<trkpt lat="56.061886" lon="26.495697">
<ele>99.633850</ele>
<time>2010-08-29T11:35:46Z</time>
<desc>lat.=56.061886, lon.=26.495697, Alt.=99.633850m. Speed=17.604000m/h.</desc>
<speed>4.890000</speed>
</trkpt>
<trkpt lat="56.061852" lon="26.495638">
<ele>99.600647</ele>
<time>2010-08-29T11:35:47Z</time>
<desc>lat.=56.061852, lon.=26.495638, Alt.=99.600647m. Speed=19.044001m/h.</desc>
<speed>5.290000</speed>
</trkpt>
<trkpt lat="56.061813" lon="26.495573">
<ele>99.327209</ele>
<time>2010-08-29T11:35:48Z</time>
<desc>lat.=56.061813, lon.=26.495573, Alt.=99.327209m. Speed=18.719999m/h.</desc>
<speed>5.200000</speed>
</trkpt>
<trkpt lat="56.061787" lon="26.495514">
<ele>100.204163</ele>
<time>2010-08-29T11:35:49Z</time>
<desc>lat.=56.061787, lon.=26.495514, Alt.=100.204163m. Speed=17.424000m/h.</desc>
<speed>4.840000</speed>
</trkpt>
<trkpt lat="56.061756" lon="26.495478">
<ele>100.735413</ele>
<time>2010-08-29T11:35:50Z</time>
<desc>lat.=56.061756, lon.=26.495478, Alt.=100.735413m. Speed=14.292000m/h.</desc>
<speed>3.970000</speed>
</trkpt>
<trkpt lat="56.061726" lon="26.495434">
<ele>101.045959</ele>
<time>2010-08-29T11:35:51Z</time>
<desc>lat.=56.061726, lon.=26.495434, Alt.=101.045959m. Speed=16.091999m/h.</desc>
<speed>4.470000</speed>
</trkpt>
<trkpt lat="56.061695" lon="26.495378">
<ele>100.860413</ele>
<time>2010-08-29T11:35:52Z</time>
<desc>lat.=56.061695, lon.=26.495378, Alt.=100.860413m. Speed=16.416000m/h.</desc>
<speed>4.560000</speed>
</trkpt>
<trkpt lat="56.061665" lon="26.495327">
<ele>100.241272</ele>
<time>2010-08-29T11:35:53Z</time>
<desc>lat.=56.061665, lon.=26.495327, Alt.=100.241272m. Speed=15.516000m/h.</desc>
<speed>4.310000</speed>
</trkpt>
<trkpt lat="56.061638" lon="26.495281">
<ele>100.143616</ele>
<time>2010-08-29T11:35:54Z</time>
<desc>lat.=56.061638, lon.=26.495281, Alt.=100.143616m. Speed=15.048000m/h.</desc>
<speed>4.180000</speed>
</trkpt>
<trkpt lat="56.061611" lon="26.495235">
<ele>100.167053</ele>
<time>2010-08-29T11:35:55Z</time>
<desc>lat.=56.061611, lon.=26.495235, Alt.=100.167053m. Speed=14.544000m/h.</desc>
<speed>4.040000</speed>
</trkpt>
<trkpt lat="56.061588" lon="26.495184">
<ele>100.557678</ele>
<time>2010-08-29T11:35:56Z</time>
<desc>lat.=56.061588, lon.=26.495184, Alt.=100.557678m. Speed=14.364000m/h.</desc>
<speed>3.990000</speed>
</trkpt>
<trkpt lat="56.061562" lon="26.495140">
<ele>100.879944</ele>
<time>2010-08-29T11:35:57Z</time>
<desc>lat.=56.061562, lon.=26.495140, Alt.=100.879944m. Speed=14.220000m/h.</desc>
<speed>3.950000</speed>
</trkpt>
<trkpt lat="56.061539" lon="26.495096">
<ele>101.001038</ele>
<time>2010-08-29T11:35:58Z</time>
<desc>lat.=56.061539, lon.=26.495096, Alt.=101.001038m. Speed=14.076000m/h.</desc>
<speed>3.910000</speed>
</trkpt>
<trkpt lat="56.061512" lon="26.495049">
<ele>100.817444</ele>
<time>2010-08-29T11:35:59Z</time>
<desc>lat.=56.061512, lon.=26.495049, Alt.=100.817444m. Speed=14.436000m/h.</desc>
<speed>4.010000</speed>
</trkpt>
<trkpt lat="56.061485" lon="26.494989">
<ele>101.022522</ele>
<time>2010-08-29T11:36:00Z</time>
<desc>lat.=56.061485, lon.=26.494989, Alt.=101.022522m. Speed=16.416000m/h.</desc>
<speed>4.560000</speed>
</trkpt>
<trkpt lat="56.061451" lon="26.494930">
<ele>100.497131</ele>
<time>2010-08-29T11:36:01Z</time>
<desc>lat.=56.061451, lon.=26.494930, Alt.=100.497131m. Speed=16.452000m/h.</desc>
<speed>4.570000</speed>
</trkpt>
<trkpt lat="56.061424" lon="26.494883">
<ele>100.198303</ele>
<time>2010-08-29T11:36:02Z</time>
<desc>lat.=56.061424, lon.=26.494883, Alt.=100.198303m. Speed=15.516000m/h.</desc>
<speed>4.310000</speed>
</trkpt>
<trkpt lat="56.061394" lon="26.494831">
<ele>100.106506</ele>
<time>2010-08-29T11:36:03Z</time>
<desc>lat.=56.061394, lon.=26.494831, Alt.=100.106506m. Speed=17.136000m/h.</desc>
<speed>4.760000</speed>
</trkpt>
<trkpt lat="56.061367" lon="26.494787">
<ele>100.229553</ele>
<time>2010-08-29T11:36:04Z</time>
<desc>lat.=56.061367, lon.=26.494787, Alt.=100.229553m. Speed=15.192000m/h.</desc>
<speed>4.220000</speed>
</trkpt>
<trkpt lat="56.061337" lon="26.494743">
<ele>100.360413</ele>
<time>2010-08-29T11:36:05Z</time>
<desc>lat.=56.061337, lon.=26.494743, Alt.=100.360413m. Speed=16.884001m/h.</desc>
<speed>4.690000</speed>
</trkpt>
<trkpt lat="56.061302" lon="26.494686">
<ele>100.686584</ele>
<time>2010-08-29T11:36:06Z</time>
<desc>lat.=56.061302, lon.=26.494686, Alt.=100.686584m. Speed=18.719999m/h.</desc>
<speed>5.200000</speed>
</trkpt>
<trkpt lat="56.061268" lon="26.494614">
<ele>101.399475</ele>
<time>2010-08-29T11:36:07Z</time>
<desc>lat.=56.061268, lon.=26.494614, Alt.=101.399475m. Speed=18.576000m/h.</desc>
<speed>5.160000</speed>
</trkpt>
<trkpt lat="56.061234" lon="26.494547">
<ele>101.672913</ele>
<time>2010-08-29T11:36:08Z</time>
<desc>lat.=56.061234, lon.=26.494547, Alt.=101.672913m. Speed=18.612000m/h.</desc>
<speed>5.170000</speed>
</trkpt>
<trkpt lat="56.061203" lon="26.494486">
<ele>101.778381</ele>
<time>2010-08-29T11:36:09Z</time>
<desc>lat.=56.061203, lon.=26.494486, Alt.=101.778381m. Speed=18.612000m/h.</desc>
<speed>5.170000</speed>
</trkpt>
<trkpt lat="56.061169" lon="26.494425">
<ele>101.958069</ele>
<time>2010-08-29T11:36:10Z</time>
<desc>lat.=56.061169, lon.=26.494425, Alt.=101.958069m. Speed=18.576000m/h.</desc>
<speed>5.160000</speed>
</trkpt>
<trkpt lat="56.061138" lon="26.494360">
<ele>102.172913</ele>
<time>2010-08-29T11:36:11Z</time>
<desc>lat.=56.061138, lon.=26.494360, Alt.=102.172913m. Speed=17.964001m/h.</desc>
<speed>4.990000</speed>
</trkpt>
<trkpt lat="56.061108" lon="26.494291">
<ele>102.729553</ele>
<time>2010-08-29T11:36:12Z</time>
<desc>lat.=56.061108, lon.=26.494291, Alt.=102.729553m. Speed=18.288000m/h.</desc>
<speed>5.080000</speed>
</trkpt>
<trkpt lat="56.061073" lon="26.494234">
<ele>102.782288</ele>
<time>2010-08-29T11:36:13Z</time>
<desc>lat.=56.061073, lon.=26.494234, Alt.=102.782288m. Speed=17.747999m/h.</desc>
<speed>4.930000</speed>
</trkpt>
<trkpt lat="56.061043" lon="26.494181">
<ele>102.991272</ele>
<time>2010-08-29T11:36:14Z</time>
<desc>lat.=56.061043, lon.=26.494181, Alt.=102.991272m. Speed=17.100000m/h.</desc>
<speed>4.750000</speed>
</trkpt>
<trkpt lat="56.061012" lon="26.494135">
<ele>103.665100</ele>
<time>2010-08-29T11:36:15Z</time>
<desc>lat.=56.061012, lon.=26.494135, Alt.=103.665100m. Speed=18.827999m/h.</desc>
<speed>5.230000</speed>
</trkpt>
<trkpt lat="56.060982" lon="26.494074">
<ele>104.133850</ele>
<time>2010-08-29T11:36:16Z</time>
<desc>lat.=56.060982, lon.=26.494074, Alt.=104.133850m. Speed=16.775999m/h.</desc>
<speed>4.660000</speed>
</trkpt>
<trkpt lat="56.060955" lon="26.494019">
<ele>104.854553</ele>
<time>2010-08-29T11:36:17Z</time>
<desc>lat.=56.060955, lon.=26.494019, Alt.=104.854553m. Speed=17.172001m/h.</desc>
<speed>4.770000</speed>
</trkpt>
<trkpt lat="56.060925" lon="26.493969">
<ele>105.294006</ele>
<time>2010-08-29T11:36:18Z</time>
<desc>lat.=56.060925, lon.=26.493969, Alt.=105.294006m. Speed=17.676001m/h.</desc>
<speed>4.910000</speed>
</trkpt>
<trkpt lat="56.060886" lon="26.493893">
<ele>103.856506</ele>
<time>2010-08-29T11:36:19Z</time>
<desc>lat.=56.060886, lon.=26.493893, Alt.=103.856506m. Speed=17.208000m/h.</desc>
<speed>4.780000</speed>
</trkpt>
<trkpt lat="56.060856" lon="26.493830">
<ele>103.489319</ele>
<time>2010-08-29T11:36:20Z</time>
<desc>lat.=56.060856, lon.=26.493830, Alt.=103.489319m. Speed=18.900000m/h.</desc>
<speed>5.250000</speed>
</trkpt>
<trkpt lat="56.060833" lon="26.493765">
<ele>103.325256</ele>
<time>2010-08-29T11:36:21Z</time>
<desc>lat.=56.060833, lon.=26.493765, Alt.=103.325256m. Speed=18.216000m/h.</desc>
<speed>5.060000</speed>
</trkpt>
<trkpt lat="56.060802" lon="26.493700">
<ele>103.227600</ele>
<time>2010-08-29T11:36:22Z</time>
<desc>lat.=56.060802, lon.=26.493700, Alt.=103.227600m. Speed=18.108000m/h.</desc>
<speed>5.030000</speed>
</trkpt>
<trkpt lat="56.060780" lon="26.493635">
<ele>103.079163</ele>
<time>2010-08-29T11:36:23Z</time>
<desc>lat.=56.060780, lon.=26.493635, Alt.=103.079163m. Speed=18.252001m/h.</desc>
<speed>5.070000</speed>
</trkpt>
<trkpt lat="56.060745" lon="26.493570">
<ele>103.157288</ele>
<time>2010-08-29T11:36:24Z</time>
<desc>lat.=56.060745, lon.=26.493570, Alt.=103.157288m. Speed=21.132000m/h.</desc>
<speed>5.870000</speed>
</trkpt>
<trkpt lat="56.060715" lon="26.493492">
<ele>103.174866</ele>
<time>2010-08-29T11:36:25Z</time>
<desc>lat.=56.060715, lon.=26.493492, Alt.=103.174866m. Speed=21.059999m/h.</desc>
<speed>5.850000</speed>
</trkpt>
<trkpt lat="56.060677" lon="26.493425">
<ele>103.469788</ele>
<time>2010-08-29T11:36:26Z</time>
<desc>lat.=56.060677, lon.=26.493425, Alt.=103.469788m. Speed=20.988001m/h.</desc>
<speed>5.830000</speed>
</trkpt>
<trkpt lat="56.060650" lon="26.493362">
<ele>104.821350</ele>
<time>2010-08-29T11:36:27Z</time>
<desc>lat.=56.060650, lon.=26.493362, Alt.=104.821350m. Speed=19.764000m/h.</desc>
<speed>5.490000</speed>
</trkpt>
<trkpt lat="56.060623" lon="26.493277">
<ele>105.145569</ele>
<time>2010-08-29T11:36:28Z</time>
<desc>lat.=56.060623, lon.=26.493277, Alt.=105.145569m. Speed=18.827999m/h.</desc>
<speed>5.230000</speed>
</trkpt>
<trkpt lat="56.060608" lon="26.493200">
<ele>106.274475</ele>
<time>2010-08-29T11:36:29Z</time>
<desc>lat.=56.060608, lon.=26.493200, Alt.=106.274475m. Speed=21.384001m/h.</desc>
<speed>5.940000</speed>
</trkpt>
<trkpt lat="56.060574" lon="26.493124">
<ele>106.596741</ele>
<time>2010-08-29T11:36:30Z</time>
<desc>lat.=56.060574, lon.=26.493124, Alt.=106.596741m. Speed=20.591999m/h.</desc>
<speed>5.720000</speed>
</trkpt>
<trkpt lat="56.060535" lon="26.493055">
<ele>107.215881</ele>
<time>2010-08-29T11:36:31Z</time>
<desc>lat.=56.060535, lon.=26.493055, Alt.=107.215881m. Speed=18.288000m/h.</desc>
<speed>5.080000</speed>
</trkpt>
<trkpt lat="56.060509" lon="26.492975">
<ele>108.528381</ele>
<time>2010-08-29T11:36:32Z</time>
<desc>lat.=56.060509, lon.=26.492975, Alt.=108.528381m. Speed=17.316000m/h.</desc>
<speed>4.810000</speed>
</trkpt>
<trkpt lat="56.060486" lon="26.492895">
<ele>109.708069</ele>
<time>2010-08-29T11:36:33Z</time>
<desc>lat.=56.060486, lon.=26.492895, Alt.=109.708069m. Speed=17.208000m/h.</desc>
<speed>4.780000</speed>
</trkpt>
<trkpt lat="56.060467" lon="26.492825">
<ele>110.958069</ele>
<time>2010-08-29T11:36:34Z</time>
<desc>lat.=56.060467, lon.=26.492825, Alt.=110.958069m. Speed=15.480000m/h.</desc>
<speed>4.300000</speed>
</trkpt>
<trkpt lat="56.060452" lon="26.492769">
<ele>112.368225</ele>
<time>2010-08-29T11:36:35Z</time>
<desc>lat.=56.060452, lon.=26.492769, Alt.=112.368225m. Speed=14.364000m/h.</desc>
<speed>3.990000</speed>
</trkpt>
<trkpt lat="56.060444" lon="26.492723">
<ele>114.137756</ele>
<time>2010-08-29T11:36:36Z</time>
<desc>lat.=56.060444, lon.=26.492723, Alt.=114.137756m. Speed=14.436000m/h.</desc>
<speed>4.010000</speed>
</trkpt>
<trkpt lat="56.060429" lon="26.492661">
<ele>114.881897</ele>
<time>2010-08-29T11:36:37Z</time>
<desc>lat.=56.060429, lon.=26.492661, Alt.=114.881897m. Speed=14.544000m/h.</desc>
<speed>4.040000</speed>
</trkpt>
<trkpt lat="56.060417" lon="26.492598">
<ele>116.055725</ele>
<time>2010-08-29T11:36:38Z</time>
<desc>lat.=56.060417, lon.=26.492598, Alt.=116.055725m. Speed=14.724000m/h.</desc>
<speed>4.090000</speed>
</trkpt>
<trkpt lat="56.060410" lon="26.492535">
<ele>117.157288</ele>
<time>2010-08-29T11:36:39Z</time>
<desc>lat.=56.060410, lon.=26.492535, Alt.=117.157288m. Speed=14.904000m/h.</desc>
<speed>4.140000</speed>
</trkpt>
<trkpt lat="56.060394" lon="26.492485">
<ele>117.440491</ele>
<time>2010-08-29T11:36:40Z</time>
<desc>lat.=56.060394, lon.=26.492485, Alt.=117.440491m. Speed=12.528000m/h.</desc>
<speed>3.480000</speed>
</trkpt>
<trkpt lat="56.060398" lon="26.492439">
<ele>120.292053</ele>
<time>2010-08-29T11:36:41Z</time>
<desc>lat.=56.060398, lon.=26.492439, Alt.=120.292053m. Speed=12.636000m/h.</desc>
<speed>3.510000</speed>
</trkpt>
<trkpt lat="56.060398" lon="26.492380">
<ele>121.588928</ele>
<time>2010-08-29T11:36:42Z</time>
<desc>lat.=56.060398, lon.=26.492380, Alt.=121.588928m. Speed=13.284000m/h.</desc>
<speed>3.690000</speed>
</trkpt>
<trkpt lat="56.060390" lon="26.492321">
<ele>122.629944</ele>
<time>2010-08-29T11:36:43Z</time>
<desc>lat.=56.060390, lon.=26.492321, Alt.=122.629944m. Speed=14.508000m/h.</desc>
<speed>4.030000</speed>
</trkpt>
<trkpt lat="56.060387" lon="26.492256">
<ele>123.321350</ele>
<time>2010-08-29T11:36:44Z</time>
<desc>lat.=56.060387, lon.=26.492256, Alt.=123.321350m. Speed=14.544000m/h.</desc>
<speed>4.040000</speed>
</trkpt>
<trkpt lat="56.060375" lon="26.492189">
<ele>123.989319</ele>
<time>2010-08-29T11:36:45Z</time>
<desc>lat.=56.060375, lon.=26.492189, Alt.=123.989319m. Speed=14.868000m/h.</desc>
<speed>4.130000</speed>
</trkpt>
<trkpt lat="56.060368" lon="26.492119">
<ele>124.618225</ele>
<time>2010-08-29T11:36:46Z</time>
<desc>lat.=56.060368, lon.=26.492119, Alt.=124.618225m. Speed=15.804000m/h.</desc>
<speed>4.390000</speed>
</trkpt>
<trkpt lat="56.060356" lon="26.492044">
<ele>125.434631</ele>
<time>2010-08-29T11:36:47Z</time>
<desc>lat.=56.060356, lon.=26.492044, Alt.=125.434631m. Speed=15.300000m/h.</desc>
<speed>4.250000</speed>
</trkpt>
<trkpt lat="56.060349" lon="26.491957">
<ele>126.270569</ele>
<time>2010-08-29T11:36:48Z</time>
<desc>lat.=56.060349, lon.=26.491957, Alt.=126.270569m. Speed=15.696000m/h.</desc>
<speed>4.360000</speed>
</trkpt>
<trkpt lat="56.060333" lon="26.491894">
<ele>126.876038</ele>
<time>2010-08-29T11:36:49Z</time>
<desc>lat.=56.060333, lon.=26.491894, Alt.=126.876038m. Speed=15.732000m/h.</desc>
<speed>4.370000</speed>
</trkpt>
<trkpt lat="56.060329" lon="26.491823">
<ele>127.338928</ele>
<time>2010-08-29T11:36:50Z</time>
<desc>lat.=56.060329, lon.=26.491823, Alt.=127.338928m. Speed=16.920000m/h.</desc>
<speed>4.700000</speed>
</trkpt>
<trkpt lat="56.060314" lon="26.491751">
<ele>127.565491</ele>
<time>2010-08-29T11:36:51Z</time>
<desc>lat.=56.060314, lon.=26.491751, Alt.=127.565491m. Speed=17.568001m/h.</desc>
<speed>4.880000</speed>
</trkpt>
<trkpt lat="56.060299" lon="26.491669">
<ele>127.881897</ele>
<time>2010-08-29T11:36:52Z</time>
<desc>lat.=56.060299, lon.=26.491669, Alt.=127.881897m. Speed=17.100000m/h.</desc>
<speed>4.750000</speed>
</trkpt>
<trkpt lat="56.060287" lon="26.491589">
<ele>128.341919</ele>
<time>2010-08-29T11:36:53Z</time>
<desc>lat.=56.060287, lon.=26.491589, Alt.=128.341919m. Speed=16.416000m/h.</desc>
<speed>4.560000</speed>
</trkpt>
<trkpt lat="56.060268" lon="26.491522">
<ele>128.619263</ele>
<time>2010-08-29T11:36:54Z</time>
<desc>lat.=56.060268, lon.=26.491522, Alt.=128.619263m. Speed=16.488001m/h.</desc>
<speed>4.580000</speed>
</trkpt>
<trkpt lat="56.060234" lon="26.491461">
<ele>126.038147</ele>
<time>2010-08-29T11:36:55Z</time>
<desc>lat.=56.060234, lon.=26.491461, Alt.=126.038147m. Speed=16.236000m/h.</desc>
<speed>4.510000</speed>
</trkpt>
<trkpt lat="56.060207" lon="26.491396">
<ele>125.639709</ele>
<time>2010-08-29T11:36:56Z</time>
<desc>lat.=56.060207, lon.=26.491396, Alt.=125.639709m. Speed=15.948000m/h.</desc>
<speed>4.430000</speed>
</trkpt>
<trkpt lat="56.060162" lon="26.491323">
<ele>122.090881</ele>
<time>2010-08-29T11:36:57Z</time>
<desc>lat.=56.060162, lon.=26.491323, Alt.=122.090881m. Speed=15.624000m/h.</desc>
<speed>4.340000</speed>
</trkpt>
<trkpt lat="56.060127" lon="26.491257">
<ele>119.760803</ele>
<time>2010-08-29T11:36:58Z</time>
<desc>lat.=56.060127, lon.=26.491257, Alt.=119.760803m. Speed=15.048000m/h.</desc>
<speed>4.180000</speed>
</trkpt>
<trkpt lat="56.060093" lon="26.491205">
<ele>117.489319</ele>
<time>2010-08-29T11:36:59Z</time>
<desc>lat.=56.060093, lon.=26.491205, Alt.=117.489319m. Speed=15.336000m/h.</desc>
<speed>4.260000</speed>
</trkpt>
<trkpt lat="56.060062" lon="26.491161">
<ele>116.626038</ele>
<time>2010-08-29T11:37:00Z</time>
<desc>lat.=56.060062, lon.=26.491161, Alt.=116.626038m. Speed=16.020000m/h.</desc>
<speed>4.450000</speed>
</trkpt>
<trkpt lat="56.060032" lon="26.491114">
<ele>116.483459</ele>
<time>2010-08-29T11:37:01Z</time>
<desc>lat.=56.060032, lon.=26.491114, Alt.=116.483459m. Speed=16.271999m/h.</desc>
<speed>4.520000</speed>
</trkpt>
<trkpt lat="56.059978" lon="26.491055">
<ele>112.032288</ele>
<time>2010-08-29T11:37:02Z</time>
<desc>lat.=56.059978, lon.=26.491055, Alt.=112.032288m. Speed=16.704000m/h.</desc>
<speed>4.640000</speed>
</trkpt>
<trkpt lat="56.059948" lon="26.490992">
<ele>110.940491</ele>
<time>2010-08-29T11:37:03Z</time>
<desc>lat.=56.059948, lon.=26.490992, Alt.=110.940491m. Speed=16.632000m/h.</desc>
<speed>4.620000</speed>
</trkpt>
<trkpt lat="56.059914" lon="26.490925">
<ele>109.821350</ele>
<time>2010-08-29T11:37:04Z</time>
<desc>lat.=56.059914, lon.=26.490925, Alt.=109.821350m. Speed=18.252001m/h.</desc>
<speed>5.070000</speed>
</trkpt>
<trkpt lat="56.059875" lon="26.490862">
<ele>108.821350</ele>
<time>2010-08-29T11:37:05Z</time>
<desc>lat.=56.059875, lon.=26.490862, Alt.=108.821350m. Speed=16.955999m/h.</desc>
<speed>4.710000</speed>
</trkpt>
<trkpt lat="56.059841" lon="26.490805">
<ele>108.167053</ele>
<time>2010-08-29T11:37:06Z</time>
<desc>lat.=56.059841, lon.=26.490805, Alt.=108.167053m. Speed=15.984000m/h.</desc>
<speed>4.440000</speed>
</trkpt>
<trkpt lat="56.059814" lon="26.490751">
<ele>107.204163</ele>
<time>2010-08-29T11:37:07Z</time>
<desc>lat.=56.059814, lon.=26.490751, Alt.=107.204163m. Speed=14.220000m/h.</desc>
<speed>3.950000</speed>
</trkpt>
<trkpt lat="56.059795" lon="26.490696">
<ele>106.573303</ele>
<time>2010-08-29T11:37:08Z</time>
<desc>lat.=56.059795, lon.=26.490696, Alt.=106.573303m. Speed=14.400000m/h.</desc>
<speed>4.000000</speed>
</trkpt>
<trkpt lat="56.059776" lon="26.490648">
<ele>106.210022</ele>
<time>2010-08-29T11:37:09Z</time>
<desc>lat.=56.059776, lon.=26.490648, Alt.=106.210022m. Speed=14.508000m/h.</desc>
<speed>4.030000</speed>
</trkpt>
<trkpt lat="56.059750" lon="26.490593">
<ele>105.985413</ele>
<time>2010-08-29T11:37:10Z</time>
<desc>lat.=56.059750, lon.=26.490593, Alt.=105.985413m. Speed=14.796000m/h.</desc>
<speed>4.110000</speed>
</trkpt>
<trkpt lat="56.059723" lon="26.490540">
<ele>106.104553</ele>
<time>2010-08-29T11:37:11Z</time>
<desc>lat.=56.059723, lon.=26.490540, Alt.=106.104553m. Speed=14.040000m/h.</desc>
<speed>3.900000</speed>
</trkpt>
<trkpt lat="56.059696" lon="26.490494">
<ele>105.211975</ele>
<time>2010-08-29T11:37:12Z</time>
<desc>lat.=56.059696, lon.=26.490494, Alt.=105.211975m. Speed=15.552000m/h.</desc>
<speed>4.320000</speed>
</trkpt>
<trkpt lat="56.059673" lon="26.490444">
<ele>105.008850</ele>
<time>2010-08-29T11:37:13Z</time>
<desc>lat.=56.059673, lon.=26.490444, Alt.=105.008850m. Speed=14.184000m/h.</desc>
<speed>3.940000</speed>
</trkpt>
<trkpt lat="56.059654" lon="26.490400">
<ele>104.422913</ele>
<time>2010-08-29T11:37:14Z</time>
<desc>lat.=56.059654, lon.=26.490400, Alt.=104.422913m. Speed=12.060000m/h.</desc>
<speed>3.350000</speed>
</trkpt>
<trkpt lat="56.059635" lon="26.490366">
<ele>103.870178</ele>
<time>2010-08-29T11:37:15Z</time>
<desc>lat.=56.059635, lon.=26.490366, Alt.=103.870178m. Speed=10.908000m/h.</desc>
<speed>3.030000</speed>
</trkpt>
<trkpt lat="56.059608" lon="26.490332">
<ele>102.913147</ele>
<time>2010-08-29T11:37:16Z</time>
<desc>lat.=56.059608, lon.=26.490332, Alt.=102.913147m. Speed=11.124000m/h.</desc>
<speed>3.090000</speed>
</trkpt>
<trkpt lat="56.059586" lon="26.490295">
<ele>101.868225</ele>
<time>2010-08-29T11:37:17Z</time>
<desc>lat.=56.059586, lon.=26.490295, Alt.=101.868225m. Speed=11.772000m/h.</desc>
<speed>3.270000</speed>
</trkpt>
<trkpt lat="56.059555" lon="26.490273">
<ele>100.708069</ele>
<time>2010-08-29T11:37:18Z</time>
<desc>lat.=56.059555, lon.=26.490273, Alt.=100.708069m. Speed=14.112000m/h.</desc>
<speed>3.920000</speed>
</trkpt>
<trkpt lat="56.059517" lon="26.490248">
<ele>101.215881</ele>
<time>2010-08-29T11:37:19Z</time>
<desc>lat.=56.059517, lon.=26.490248, Alt.=101.215881m. Speed=16.020000m/h.</desc>
<speed>4.450000</speed>
</trkpt>
<trkpt lat="56.059479" lon="26.490215">
<ele>101.319397</ele>
<time>2010-08-29T11:37:20Z</time>
<desc>lat.=56.059479, lon.=26.490215, Alt.=101.319397m. Speed=16.164000m/h.</desc>
<speed>4.490000</speed>
</trkpt>
<trkpt lat="56.059433" lon="26.490181">
<ele>101.055725</ele>
<time>2010-08-29T11:37:21Z</time>
<desc>lat.=56.059433, lon.=26.490181, Alt.=101.055725m. Speed=15.912000m/h.</desc>
<speed>4.420000</speed>
</trkpt>
<trkpt lat="56.059399" lon="26.490147">
<ele>101.077209</ele>
<time>2010-08-29T11:37:22Z</time>
<desc>lat.=56.059399, lon.=26.490147, Alt.=101.077209m. Speed=15.552000m/h.</desc>
<speed>4.320000</speed>
</trkpt>
<trkpt lat="56.059376" lon="26.490116">
<ele>100.139709</ele>
<time>2010-08-29T11:37:23Z</time>
<desc>lat.=56.059376, lon.=26.490116, Alt.=100.139709m. Speed=12.420000m/h.</desc>
<speed>3.450000</speed>
</trkpt>
<trkpt lat="56.059357" lon="26.490082">
<ele>99.889709</ele>
<time>2010-08-29T11:37:24Z</time>
<desc>lat.=56.059357, lon.=26.490082, Alt.=99.889709m. Speed=11.952000m/h.</desc>
<speed>3.320000</speed>
</trkpt>
<trkpt lat="56.059338" lon="26.490047">
<ele>99.538147</ele>
<time>2010-08-29T11:37:25Z</time>
<desc>lat.=56.059338, lon.=26.490047, Alt.=99.538147m. Speed=12.708000m/h.</desc>
<speed>3.530000</speed>
</trkpt>
<trkpt lat="56.059326" lon="26.490005">
<ele>99.184631</ele>
<time>2010-08-29T11:37:26Z</time>
<desc>lat.=56.059326, lon.=26.490005, Alt.=99.184631m. Speed=12.780000m/h.</desc>
<speed>3.550000</speed>
</trkpt>
<trkpt lat="56.059326" lon="26.489969">
<ele>98.258850</ele>
<time>2010-08-29T11:37:27Z</time>
<desc>lat.=56.059326, lon.=26.489969, Alt.=98.258850m. Speed=11.448000m/h.</desc>
<speed>3.180000</speed>
</trkpt>
<trkpt lat="56.059311" lon="26.489922">
<ele>98.784241</ele>
<time>2010-08-29T11:37:28Z</time>
<desc>lat.=56.059311, lon.=26.489922, Alt.=98.784241m. Speed=13.896000m/h.</desc>
<speed>3.860000</speed>
</trkpt>
<trkpt lat="56.059296" lon="26.489870">
<ele>99.387756</ele>
<time>2010-08-29T11:37:29Z</time>
<desc>lat.=56.059296, lon.=26.489870, Alt.=99.387756m. Speed=15.228000m/h.</desc>
<speed>4.230000</speed>
</trkpt>
<trkpt lat="56.059269" lon="26.489805">
<ele>100.651428</ele>
<time>2010-08-29T11:37:30Z</time>
<desc>lat.=56.059269, lon.=26.489805, Alt.=100.651428m. Speed=15.876000m/h.</desc>
<speed>4.410000</speed>
</trkpt>
<trkpt lat="56.059254" lon="26.489737">
<ele>100.805725</ele>
<time>2010-08-29T11:37:31Z</time>
<desc>lat.=56.059254, lon.=26.489737, Alt.=100.805725m. Speed=16.379999m/h.</desc>
<speed>4.550000</speed>
</trkpt>
<trkpt lat="56.059242" lon="26.489664">
<ele>100.735413</ele>
<time>2010-08-29T11:37:32Z</time>
<desc>lat.=56.059242, lon.=26.489664, Alt.=100.735413m. Speed=15.408000m/h.</desc>
<speed>4.280000</speed>
</trkpt>
<trkpt lat="56.059231" lon="26.489592">
<ele>101.434631</ele>
<time>2010-08-29T11:37:33Z</time>
<desc>lat.=56.059231, lon.=26.489592, Alt.=101.434631m. Speed=13.968000m/h.</desc>
<speed>3.880000</speed>
</trkpt>
<trkpt lat="56.059223" lon="26.489538">
<ele>102.749084</ele>
<time>2010-08-29T11:37:34Z</time>
<desc>lat.=56.059223, lon.=26.489538, Alt.=102.749084m. Speed=12.708000m/h.</desc>
<speed>3.530000</speed>
</trkpt>
<trkpt lat="56.059212" lon="26.489489">
<ele>103.649475</ele>
<time>2010-08-29T11:37:35Z</time>
<desc>lat.=56.059212, lon.=26.489489, Alt.=103.649475m. Speed=12.888000m/h.</desc>
<speed>3.580000</speed>
</trkpt>
<trkpt lat="56.059200" lon="26.489433">
<ele>104.377991</ele>
<time>2010-08-29T11:37:36Z</time>
<desc>lat.=56.059200, lon.=26.489433, Alt.=104.377991m. Speed=12.672000m/h.</desc>
<speed>3.520000</speed>
</trkpt>
<trkpt lat="56.059189" lon="26.489372">
<ele>105.143616</ele>
<time>2010-08-29T11:37:37Z</time>
<desc>lat.=56.059189, lon.=26.489372, Alt.=105.143616m. Speed=13.824000m/h.</desc>
<speed>3.840000</speed>
</trkpt>
<trkpt lat="56.059185" lon="26.489313">
<ele>105.848694</ele>
<time>2010-08-29T11:37:38Z</time>
<desc>lat.=56.059185, lon.=26.489313, Alt.=105.848694m. Speed=12.060000m/h.</desc>
<speed>3.350000</speed>
</trkpt>
<trkpt lat="56.059181" lon="26.489248">
<ele>106.965881</ele>
<time>2010-08-29T11:37:39Z</time>
<desc>lat.=56.059181, lon.=26.489248, Alt.=106.965881m. Speed=11.052000m/h.</desc>
<speed>3.070000</speed>
</trkpt>
<trkpt lat="56.059177" lon="26.489191">
<ele>107.792053</ele>
<time>2010-08-29T11:37:40Z</time>
<desc>lat.=56.059177, lon.=26.489191, Alt.=107.792053m. Speed=11.700000m/h.</desc>
<speed>3.250000</speed>
</trkpt>
<trkpt lat="56.059166" lon="26.489124">
<ele>108.577209</ele>
<time>2010-08-29T11:37:41Z</time>
<desc>lat.=56.059166, lon.=26.489124, Alt.=108.577209m. Speed=13.284000m/h.</desc>
<speed>3.690000</speed>
</trkpt>
<trkpt lat="56.059158" lon="26.489063">
<ele>109.420959</ele>
<time>2010-08-29T11:37:42Z</time>
<desc>lat.=56.059158, lon.=26.489063, Alt.=109.420959m. Speed=13.644000m/h.</desc>
<speed>3.790000</speed>
</trkpt>
<trkpt lat="56.059143" lon="26.489008">
<ele>109.989319</ele>
<time>2010-08-29T11:37:43Z</time>
<desc>lat.=56.059143, lon.=26.489008, Alt.=109.989319m. Speed=14.076000m/h.</desc>
<speed>3.910000</speed>
</trkpt>
<trkpt lat="56.059139" lon="26.488953">
<ele>110.221741</ele>
<time>2010-08-29T11:37:44Z</time>
<desc>lat.=56.059139, lon.=26.488953, Alt.=110.221741m. Speed=15.012000m/h.</desc>
<speed>4.170000</speed>
</trkpt>
<trkpt lat="56.059128" lon="26.488894">
<ele>110.401428</ele>
<time>2010-08-29T11:37:45Z</time>
<desc>lat.=56.059128, lon.=26.488894, Alt.=110.401428m. Speed=13.392000m/h.</desc>
<speed>3.720000</speed>
</trkpt>
<trkpt lat="56.059120" lon="26.488825">
<ele>110.792053</ele>
<time>2010-08-29T11:37:46Z</time>
<desc>lat.=56.059120, lon.=26.488825, Alt.=110.792053m. Speed=16.775999m/h.</desc>
<speed>4.660000</speed>
</trkpt>
<trkpt lat="56.059113" lon="26.488749">
<ele>111.614319</ele>
<time>2010-08-29T11:37:47Z</time>
<desc>lat.=56.059113, lon.=26.488749, Alt.=111.614319m. Speed=17.496000m/h.</desc>
<speed>4.860000</speed>
</trkpt>
<trkpt lat="56.059101" lon="26.488665">
<ele>112.292053</ele>
<time>2010-08-29T11:37:48Z</time>
<desc>lat.=56.059101, lon.=26.488665, Alt.=112.292053m. Speed=17.712000m/h.</desc>
<speed>4.920000</speed>
</trkpt>
<trkpt lat="56.059090" lon="26.488577">
<ele>113.075256</ele>
<time>2010-08-29T11:37:49Z</time>
<desc>lat.=56.059090, lon.=26.488577, Alt.=113.075256m. Speed=18.180000m/h.</desc>
<speed>5.050000</speed>
</trkpt>
<trkpt lat="56.059082" lon="26.488489">
<ele>114.167053</ele>
<time>2010-08-29T11:37:50Z</time>
<desc>lat.=56.059082, lon.=26.488489, Alt.=114.167053m. Speed=18.972000m/h.</desc>
<speed>5.270000</speed>
</trkpt>
<trkpt lat="56.059067" lon="26.488401">
<ele>114.338928</ele>
<time>2010-08-29T11:37:51Z</time>
<desc>lat.=56.059067, lon.=26.488401, Alt.=114.338928m. Speed=18.360001m/h.</desc>
<speed>5.100000</speed>
</trkpt>
<trkpt lat="56.059059" lon="26.488327">
<ele>114.631897</ele>
<time>2010-08-29T11:37:52Z</time>
<desc>lat.=56.059059, lon.=26.488327, Alt.=114.631897m. Speed=16.848000m/h.</desc>
<speed>4.680000</speed>
</trkpt>
<trkpt lat="56.059052" lon="26.488255">
<ele>114.766663</ele>
<time>2010-08-29T11:37:53Z</time>
<desc>lat.=56.059052, lon.=26.488255, Alt.=114.766663m. Speed=16.164000m/h.</desc>
<speed>4.490000</speed>
</trkpt>
<trkpt lat="56.059040" lon="26.488190">
<ele>115.044006</ele>
<time>2010-08-29T11:37:54Z</time>
<desc>lat.=56.059040, lon.=26.488190, Alt.=115.044006m. Speed=14.868000m/h.</desc>
<speed>4.130000</speed>
</trkpt>
<trkpt lat="56.059032" lon="26.488136">
<ele>115.362366</ele>
<time>2010-08-29T11:37:55Z</time>
<desc>lat.=56.059032, lon.=26.488136, Alt.=115.362366m. Speed=13.428000m/h.</desc>
<speed>3.730000</speed>
</trkpt>
<trkpt lat="56.059021" lon="26.488077">
<ele>115.604553</ele>
<time>2010-08-29T11:37:56Z</time>
<desc>lat.=56.059021, lon.=26.488077, Alt.=115.604553m. Speed=12.600000m/h.</desc>
<speed>3.500000</speed>
</trkpt>
<trkpt lat="56.059010" lon="26.488018">
<ele>115.979553</ele>
<time>2010-08-29T11:37:57Z</time>
<desc>lat.=56.059010, lon.=26.488018, Alt.=115.979553m. Speed=13.752000m/h.</desc>
<speed>3.820000</speed>
</trkpt>
<trkpt lat="56.059006" lon="26.487959">
<ele>116.672913</ele>
<time>2010-08-29T11:37:58Z</time>
<desc>lat.=56.059006, lon.=26.487959, Alt.=116.672913m. Speed=12.996000m/h.</desc>
<speed>3.610000</speed>
</trkpt>
<trkpt lat="56.058994" lon="26.487888">
<ele>116.626038</ele>
<time>2010-08-29T11:37:59Z</time>
<desc>lat.=56.058994, lon.=26.487888, Alt.=116.626038m. Speed=15.372000m/h.</desc>
<speed>4.270000</speed>
</trkpt>
<trkpt lat="56.058987" lon="26.487820">
<ele>116.963928</ele>
<time>2010-08-29T11:38:00Z</time>
<desc>lat.=56.058987, lon.=26.487820, Alt.=116.963928m. Speed=15.192000m/h.</desc>
<speed>4.220000</speed>
</trkpt>
<trkpt lat="56.058975" lon="26.487753">
<ele>117.397522</ele>
<time>2010-08-29T11:38:01Z</time>
<desc>lat.=56.058975, lon.=26.487753, Alt.=117.397522m. Speed=15.120000m/h.</desc>
<speed>4.200000</speed>
</trkpt>
<trkpt lat="56.058964" lon="26.487686">
<ele>117.387756</ele>
<time>2010-08-29T11:38:02Z</time>
<desc>lat.=56.058964, lon.=26.487686, Alt.=117.387756m. Speed=15.732000m/h.</desc>
<speed>4.370000</speed>
</trkpt>
<trkpt lat="56.058952" lon="26.487621">
<ele>117.719788</ele>
<time>2010-08-29T11:38:03Z</time>
<desc>lat.=56.058952, lon.=26.487621, Alt.=117.719788m. Speed=15.192000m/h.</desc>
<speed>4.220000</speed>
</trkpt>
<trkpt lat="56.058945" lon="26.487564">
<ele>118.024475</ele>
<time>2010-08-29T11:38:04Z</time>
<desc>lat.=56.058945, lon.=26.487564, Alt.=118.024475m. Speed=14.364000m/h.</desc>
<speed>3.990000</speed>
</trkpt>
<trkpt lat="56.058933" lon="26.487501">
<ele>118.301819</ele>
<time>2010-08-29T11:38:05Z</time>
<desc>lat.=56.058933, lon.=26.487501, Alt.=118.301819m. Speed=14.868000m/h.</desc>
<speed>4.130000</speed>
</trkpt>
<trkpt lat="56.058929" lon="26.487436">
<ele>118.401428</ele>
<time>2010-08-29T11:38:06Z</time>
<desc>lat.=56.058929, lon.=26.487436, Alt.=118.401428m. Speed=15.192000m/h.</desc>
<speed>4.220000</speed>
</trkpt>
<trkpt lat="56.058914" lon="26.487366">
<ele>118.225647</ele>
<time>2010-08-29T11:38:07Z</time>
<desc>lat.=56.058914, lon.=26.487366, Alt.=118.225647m. Speed=15.588000m/h.</desc>
<speed>4.330000</speed>
</trkpt>
<trkpt lat="56.058903" lon="26.487295">
<ele>118.504944</ele>
<time>2010-08-29T11:38:08Z</time>
<desc>lat.=56.058903, lon.=26.487295, Alt.=118.504944m. Speed=15.660000m/h.</desc>
<speed>4.350000</speed>
</trkpt>
<trkpt lat="56.058895" lon="26.487223">
<ele>117.202209</ele>
<time>2010-08-29T11:38:09Z</time>
<desc>lat.=56.058895, lon.=26.487223, Alt.=117.202209m. Speed=15.624000m/h.</desc>
<speed>4.340000</speed>
</trkpt>
<trkpt lat="56.058884" lon="26.487156">
<ele>116.909241</ele>
<time>2010-08-29T11:38:10Z</time>
<desc>lat.=56.058884, lon.=26.487156, Alt.=116.909241m. Speed=14.688000m/h.</desc>
<speed>4.080000</speed>
</trkpt>
<trkpt lat="56.058872" lon="26.487080">
<ele>116.797913</ele>
<time>2010-08-29T11:38:11Z</time>
<desc>lat.=56.058872, lon.=26.487080, Alt.=116.797913m. Speed=16.056000m/h.</desc>
<speed>4.460000</speed>
</trkpt>
<trkpt lat="56.058861" lon="26.487009">
<ele>116.856506</ele>
<time>2010-08-29T11:38:12Z</time>
<desc>lat.=56.058861, lon.=26.487009, Alt.=116.856506m. Speed=14.220000m/h.</desc>
<speed>3.950000</speed>
</trkpt>
<trkpt lat="56.058849" lon="26.486938">
<ele>116.692444</ele>
<time>2010-08-29T11:38:13Z</time>
<desc>lat.=56.058849, lon.=26.486938, Alt.=116.692444m. Speed=13.752000m/h.</desc>
<speed>3.820000</speed>
</trkpt>
<trkpt lat="56.058838" lon="26.486879">
<ele>116.241272</ele>
<time>2010-08-29T11:38:14Z</time>
<desc>lat.=56.058838, lon.=26.486879, Alt.=116.241272m. Speed=12.636000m/h.</desc>
<speed>3.510000</speed>
</trkpt>
<trkpt lat="56.058826" lon="26.486828">
<ele>116.126038</ele>
<time>2010-08-29T11:38:15Z</time>
<desc>lat.=56.058826, lon.=26.486828, Alt.=116.126038m. Speed=13.068000m/h.</desc>
<speed>3.630000</speed>
</trkpt>
<trkpt lat="56.058819" lon="26.486773">
<ele>115.877991</ele>
<time>2010-08-29T11:38:16Z</time>
<desc>lat.=56.058819, lon.=26.486773, Alt.=115.877991m. Speed=12.276000m/h.</desc>
<speed>3.410000</speed>
</trkpt>
<trkpt lat="56.058815" lon="26.486727">
<ele>115.813538</ele>
<time>2010-08-29T11:38:17Z</time>
<desc>lat.=56.058815, lon.=26.486727, Alt.=115.813538m. Speed=11.520000m/h.</desc>
<speed>3.200000</speed>
</trkpt>
<trkpt lat="56.058811" lon="26.486675">
<ele>115.858459</ele>
<time>2010-08-29T11:38:18Z</time>
<desc>lat.=56.058811, lon.=26.486675, Alt.=115.858459m. Speed=13.032000m/h.</desc>
<speed>3.620000</speed>
</trkpt>
<trkpt lat="56.058800" lon="26.486612">
<ele>115.442444</ele>
<time>2010-08-29T11:38:19Z</time>
<desc>lat.=56.058800, lon.=26.486612, Alt.=115.442444m. Speed=13.860000m/h.</desc>
<speed>3.850000</speed>
</trkpt>
<trkpt lat="56.058792" lon="26.486557">
<ele>115.708069</ele>
<time>2010-08-29T11:38:20Z</time>
<desc>lat.=56.058792, lon.=26.486557, Alt.=115.708069m. Speed=11.808000m/h.</desc>
<speed>3.280000</speed>
</trkpt>
<trkpt lat="56.058784" lon="26.486504">
<ele>116.393616</ele>
<time>2010-08-29T11:38:21Z</time>
<desc>lat.=56.058784, lon.=26.486504, Alt.=116.393616m. Speed=13.428000m/h.</desc>
<speed>3.730000</speed>
</trkpt>
<trkpt lat="56.058781" lon="26.486448">
<ele>116.870178</ele>
<time>2010-08-29T11:38:22Z</time>
<desc>lat.=56.058781, lon.=26.486448, Alt.=116.870178m. Speed=13.104000m/h.</desc>
<speed>3.640000</speed>
</trkpt>
<trkpt lat="56.058769" lon="26.486383">
<ele>117.641663</ele>
<time>2010-08-29T11:38:23Z</time>
<desc>lat.=56.058769, lon.=26.486383, Alt.=117.641663m. Speed=15.516000m/h.</desc>
<speed>4.310000</speed>
</trkpt>
<trkpt lat="56.058754" lon="26.486305">
<ele>118.350647</ele>
<time>2010-08-29T11:38:24Z</time>
<desc>lat.=56.058754, lon.=26.486305, Alt.=118.350647m. Speed=17.028000m/h.</desc>
<speed>4.730000</speed>
</trkpt>
<trkpt lat="56.058743" lon="26.486229">
<ele>118.956116</ele>
<time>2010-08-29T11:38:25Z</time>
<desc>lat.=56.058743, lon.=26.486229, Alt.=118.956116m. Speed=14.292000m/h.</desc>
<speed>3.970000</speed>
</trkpt>
<trkpt lat="56.058735" lon="26.486164">
<ele>119.586975</ele>
<time>2010-08-29T11:38:26Z</time>
<desc>lat.=56.058735, lon.=26.486164, Alt.=119.586975m. Speed=13.752000m/h.</desc>
<speed>3.820000</speed>
</trkpt>
<trkpt lat="56.058720" lon="26.486092">
<ele>120.163147</ele>
<time>2010-08-29T11:38:27Z</time>
<desc>lat.=56.058720, lon.=26.486092, Alt.=120.163147m. Speed=15.876000m/h.</desc>
<speed>4.410000</speed>
</trkpt>
<trkpt lat="56.058708" lon="26.486012">
<ele>121.395569</ele>
<time>2010-08-29T11:38:28Z</time>
<desc>lat.=56.058708, lon.=26.486012, Alt.=121.395569m. Speed=17.316000m/h.</desc>
<speed>4.810000</speed>
</trkpt>
<trkpt lat="56.058689" lon="26.485928">
<ele>121.852600</ele>
<time>2010-08-29T11:38:29Z</time>
<desc>lat.=56.058689, lon.=26.485928, Alt.=121.852600m. Speed=17.892000m/h.</desc>
<speed>4.970000</speed>
</trkpt>
<trkpt lat="56.058678" lon="26.485844">
<ele>121.883850</ele>
<time>2010-08-29T11:38:30Z</time>
<desc>lat.=56.058678, lon.=26.485844, Alt.=121.883850m. Speed=17.856001m/h.</desc>
<speed>4.960000</speed>
</trkpt>
<trkpt lat="56.058666" lon="26.485760">
<ele>122.491272</ele>
<time>2010-08-29T11:38:31Z</time>
<desc>lat.=56.058666, lon.=26.485760, Alt.=122.491272m. Speed=18.108000m/h.</desc>
<speed>5.030000</speed>
</trkpt>
<trkpt lat="56.058651" lon="26.485682">
<ele>123.458069</ele>
<time>2010-08-29T11:38:32Z</time>
<desc>lat.=56.058651, lon.=26.485682, Alt.=123.458069m. Speed=15.624000m/h.</desc>
<speed>4.340000</speed>
</trkpt>
<trkpt lat="56.058640" lon="26.485615">
<ele>124.620178</ele>
<time>2010-08-29T11:38:33Z</time>
<desc>lat.=56.058640, lon.=26.485615, Alt.=124.620178m. Speed=15.156000m/h.</desc>
<speed>4.210000</speed>
</trkpt>
<trkpt lat="56.058636" lon="26.485559">
<ele>125.963928</ele>
<time>2010-08-29T11:38:34Z</time>
<desc>lat.=56.058636, lon.=26.485559, Alt.=125.963928m. Speed=12.276000m/h.</desc>
<speed>3.410000</speed>
</trkpt>
<trkpt lat="56.058628" lon="26.485495">
<ele>125.721741</ele>
<time>2010-08-29T11:38:35Z</time>
<desc>lat.=56.058628, lon.=26.485495, Alt.=125.721741m. Speed=12.708000m/h.</desc>
<speed>3.530000</speed>
</trkpt>
<trkpt lat="56.058620" lon="26.485437">
<ele>126.360413</ele>
<time>2010-08-29T11:38:36Z</time>
<desc>lat.=56.058620, lon.=26.485437, Alt.=126.360413m. Speed=13.320000m/h.</desc>
<speed>3.700000</speed>
</trkpt>
<trkpt lat="56.058613" lon="26.485395">
<ele>127.295959</ele>
<time>2010-08-29T11:38:37Z</time>
<desc>lat.=56.058613, lon.=26.485395, Alt.=127.295959m. Speed=11.304000m/h.</desc>
<speed>3.140000</speed>
</trkpt>
<trkpt lat="56.058605" lon="26.485342">
<ele>128.130981</ele>
<time>2010-08-29T11:38:38Z</time>
<desc>lat.=56.058605, lon.=26.485342, Alt.=128.130981m. Speed=10.728000m/h.</desc>
<speed>2.980000</speed>
</trkpt>
<trkpt lat="56.058598" lon="26.485296">
<ele>129.271606</ele>
<time>2010-08-29T11:38:39Z</time>
<desc>lat.=56.058598, lon.=26.485296, Alt.=129.271606m. Speed=9.900000m/h.</desc>
<speed>2.750000</speed>
</trkpt>
<trkpt lat="56.058590" lon="26.485243">
<ele>129.896606</ele>
<time>2010-08-29T11:38:40Z</time>
<desc>lat.=56.058590, lon.=26.485243, Alt.=129.896606m. Speed=9.252000m/h.</desc>
<speed>2.570000</speed>
</trkpt>
<trkpt lat="56.058582" lon="26.485193">
<ele>130.502075</ele>
<time>2010-08-29T11:38:41Z</time>
<desc>lat.=56.058582, lon.=26.485193, Alt.=130.502075m. Speed=11.556000m/h.</desc>
<speed>3.210000</speed>
</trkpt>
<trkpt lat="56.058575" lon="26.485146">
<ele>131.642700</ele>
<time>2010-08-29T11:38:42Z</time>
<desc>lat.=56.058575, lon.=26.485146, Alt.=131.642700m. Speed=12.600000m/h.</desc>
<speed>3.500000</speed>
</trkpt>
<trkpt lat="56.058571" lon="26.485086">
<ele>131.701294</ele>
<time>2010-08-29T11:38:43Z</time>
<desc>lat.=56.058571, lon.=26.485086, Alt.=131.701294m. Speed=13.248000m/h.</desc>
<speed>3.680000</speed>
</trkpt>
<trkpt lat="56.058571" lon="26.485020">
<ele>133.095825</ele>
<time>2010-08-29T11:38:44Z</time>
<desc>lat.=56.058571, lon.=26.485020, Alt.=133.095825m. Speed=14.508000m/h.</desc>
<speed>4.030000</speed>
</trkpt>
<trkpt lat="56.058571" lon="26.484951">
<ele>134.123169</ele>
<time>2010-08-29T11:38:45Z</time>
<desc>lat.=56.058571, lon.=26.484951, Alt.=134.123169m. Speed=14.148000m/h.</desc>
<speed>3.930000</speed>
</trkpt>
<trkpt lat="56.058571" lon="26.484886">
<ele>135.291138</ele>
<time>2010-08-29T11:38:46Z</time>
<desc>lat.=56.058571, lon.=26.484886, Alt.=135.291138m. Speed=14.076000m/h.</desc>
<speed>3.910000</speed>
</trkpt>
<trkpt lat="56.058563" lon="26.484818">
<ele>135.509888</ele>
<time>2010-08-29T11:38:47Z</time>
<desc>lat.=56.058563, lon.=26.484818, Alt.=135.509888m. Speed=14.544000m/h.</desc>
<speed>4.040000</speed>
</trkpt>
<trkpt lat="56.058556" lon="26.484749">
<ele>135.900513</ele>
<time>2010-08-29T11:38:48Z</time>
<desc>lat.=56.058556, lon.=26.484749, Alt.=135.900513m. Speed=14.796000m/h.</desc>
<speed>4.110000</speed>
</trkpt>
<trkpt lat="56.058540" lon="26.484680">
<ele>135.923950</ele>
<time>2010-08-29T11:38:49Z</time>
<desc>lat.=56.058540, lon.=26.484680, Alt.=135.923950m. Speed=15.156000m/h.</desc>
<speed>4.210000</speed>
</trkpt>
<trkpt lat="56.058537" lon="26.484621">
<ele>137.435669</ele>
<time>2010-08-29T11:38:50Z</time>
<desc>lat.=56.058537, lon.=26.484621, Alt.=137.435669m. Speed=14.148000m/h.</desc>
<speed>3.930000</speed>
</trkpt>
<trkpt lat="56.058517" lon="26.484545">
<ele>136.107544</ele>
<time>2010-08-29T11:38:51Z</time>
<desc>lat.=56.058517, lon.=26.484545, Alt.=136.107544m. Speed=15.156000m/h.</desc>
<speed>4.210000</speed>
</trkpt>
<trkpt lat="56.058506" lon="26.484465">
<ele>136.826294</ele>
<time>2010-08-29T11:38:52Z</time>
<desc>lat.=56.058506, lon.=26.484465, Alt.=136.826294m. Speed=16.091999m/h.</desc>
<speed>4.470000</speed>
</trkpt>
<trkpt lat="56.058487" lon="26.484394">
<ele>137.630981</ele>
<time>2010-08-29T11:38:53Z</time>
<desc>lat.=56.058487, lon.=26.484394, Alt.=137.630981m. Speed=16.884001m/h.</desc>
<speed>4.690000</speed>
</trkpt>
<trkpt lat="56.058472" lon="26.484362">
<ele>142.255981</ele>
<time>2010-08-29T11:38:54Z</time>
<desc>lat.=56.058472, lon.=26.484362, Alt.=142.255981m. Speed=15.300000m/h.</desc>
<speed>4.250000</speed>
</trkpt>
<trkpt lat="56.058456" lon="26.484312">
<ele>144.580200</ele>
<time>2010-08-29T11:38:55Z</time>
<desc>lat.=56.058456, lon.=26.484312, Alt.=144.580200m. Speed=14.076000m/h.</desc>
<speed>3.910000</speed>
</trkpt>
<trkpt lat="56.058434" lon="26.484251">
<ele>145.486450</ele>
<time>2010-08-29T11:38:56Z</time>
<desc>lat.=56.058434, lon.=26.484251, Alt.=145.486450m. Speed=14.508000m/h.</desc>
<speed>4.030000</speed>
</trkpt>
<trkpt lat="56.058403" lon="26.484180">
<ele>144.451294</ele>
<time>2010-08-29T11:38:57Z</time>
<desc>lat.=56.058403, lon.=26.484180, Alt.=144.451294m. Speed=15.480000m/h.</desc>
<speed>4.300000</speed>
</trkpt>
<trkpt lat="56.058369" lon="26.484098">
<ele>143.166138</ele>
<time>2010-08-29T11:38:58Z</time>
<desc>lat.=56.058369, lon.=26.484098, Alt.=143.166138m. Speed=16.020000m/h.</desc>
<speed>4.450000</speed>
</trkpt>
<trkpt lat="56.058338" lon="26.484024">
<ele>142.002075</ele>
<time>2010-08-29T11:38:59Z</time>
<desc>lat.=56.058338, lon.=26.484024, Alt.=142.002075m. Speed=16.955999m/h.</desc>
<speed>4.710000</speed>
</trkpt>
<trkpt lat="56.058296" lon="26.483946">
<ele>139.744263</ele>
<time>2010-08-29T11:39:00Z</time>
<desc>lat.=56.058296, lon.=26.483946, Alt.=139.744263m. Speed=16.955999m/h.</desc>
<speed>4.710000</speed>
</trkpt>
<trkpt lat="56.058270" lon="26.483871">
<ele>139.134888</ele>
<time>2010-08-29T11:39:01Z</time>
<desc>lat.=56.058270, lon.=26.483871, Alt.=139.134888m. Speed=17.712000m/h.</desc>
<speed>4.920000</speed>
</trkpt>
<trkpt lat="56.058243" lon="26.483803">
<ele>139.197388</ele>
<time>2010-08-29T11:39:02Z</time>
<desc>lat.=56.058243, lon.=26.483803, Alt.=139.197388m. Speed=16.524000m/h.</desc>
<speed>4.590000</speed>
</trkpt>
<trkpt lat="56.058220" lon="26.483730">
<ele>138.896606</ele>
<time>2010-08-29T11:39:03Z</time>
<desc>lat.=56.058220, lon.=26.483730, Alt.=138.896606m. Speed=15.444000m/h.</desc>
<speed>4.290000</speed>
</trkpt>
<trkpt lat="56.058186" lon="26.483650">
<ele>136.334106</ele>
<time>2010-08-29T11:39:04Z</time>
<desc>lat.=56.058186, lon.=26.483650, Alt.=136.334106m. Speed=14.832000m/h.</desc>
<speed>4.120000</speed>
</trkpt>
<trkpt lat="56.058159" lon="26.483582">
<ele>135.166138</ele>
<time>2010-08-29T11:39:05Z</time>
<desc>lat.=56.058159, lon.=26.483582, Alt.=135.166138m. Speed=14.328000m/h.</desc>
<speed>3.980000</speed>
</trkpt>
<trkpt lat="56.058140" lon="26.483519">
<ele>134.048950</ele>
<time>2010-08-29T11:39:06Z</time>
<desc>lat.=56.058140, lon.=26.483519, Alt.=134.048950m. Speed=13.860000m/h.</desc>
<speed>3.850000</speed>
</trkpt>
<trkpt lat="56.058121" lon="26.483459">
<ele>133.947388</ele>
<time>2010-08-29T11:39:07Z</time>
<desc>lat.=56.058121, lon.=26.483459, Alt.=133.947388m. Speed=14.112000m/h.</desc>
<speed>3.920000</speed>
</trkpt>
<trkpt lat="56.058098" lon="26.483393">
<ele>133.912231</ele>
<time>2010-08-29T11:39:08Z</time>
<desc>lat.=56.058098, lon.=26.483393, Alt.=133.912231m. Speed=14.868000m/h.</desc>
<speed>4.130000</speed>
</trkpt>
<trkpt lat="56.058083" lon="26.483328">
<ele>133.752075</ele>
<time>2010-08-29T11:39:09Z</time>
<desc>lat.=56.058083, lon.=26.483328, Alt.=133.752075m. Speed=14.004000m/h.</desc>
<speed>3.890000</speed>
</trkpt>
<trkpt lat="56.058060" lon="26.483265">
<ele>133.259888</ele>
<time>2010-08-29T11:39:10Z</time>
<desc>lat.=56.058060, lon.=26.483265, Alt.=133.259888m. Speed=11.556000m/h.</desc>
<speed>3.210000</speed>
</trkpt>
<trkpt lat="56.058044" lon="26.483206">
<ele>132.162231</ele>
<time>2010-08-29T11:39:11Z</time>
<desc>lat.=56.058044, lon.=26.483206, Alt.=132.162231m. Speed=11.340000m/h.</desc>
<speed>3.150000</speed>
</trkpt>
<trkpt lat="56.058041" lon="26.483160">
<ele>131.463013</ele>
<time>2010-08-29T11:39:12Z</time>
<desc>lat.=56.058041, lon.=26.483160, Alt.=131.463013m. Speed=9.144000m/h.</desc>
<speed>2.540000</speed>
</trkpt>
<trkpt lat="56.058033" lon="26.483118">
<ele>128.295044</ele>
<time>2010-08-29T11:39:13Z</time>
<desc>lat.=56.058033, lon.=26.483118, Alt.=128.295044m. Speed=7.776000m/h.</desc>
<speed>2.160000</speed>
</trkpt>
<trkpt lat="56.058052" lon="26.483080">
<ele>127.752991</ele>
<time>2010-08-29T11:39:14Z</time>
<desc>lat.=56.058052, lon.=26.483080, Alt.=127.752991m. Speed=8.712000m/h.</desc>
<speed>2.420000</speed>
</trkpt>
<trkpt lat="56.058060" lon="26.483023">
<ele>125.100647</ele>
<time>2010-08-29T11:39:15Z</time>
<desc>lat.=56.058060, lon.=26.483023, Alt.=125.100647m. Speed=7.488000m/h.</desc>
<speed>2.080000</speed>
</trkpt>
<trkpt lat="56.058064" lon="26.482996">
<ele>123.010803</ele>
<time>2010-08-29T11:39:16Z</time>
<desc>lat.=56.058064, lon.=26.482996, Alt.=123.010803m. Speed=6.120000m/h.</desc>
<speed>1.700000</speed>
</trkpt>
<trkpt lat="56.058064" lon="26.482962">
<ele>119.051819</ele>
<time>2010-08-29T11:39:17Z</time>
<desc>lat.=56.058064, lon.=26.482962, Alt.=119.051819m. Speed=9.252000m/h.</desc>
<speed>2.570000</speed>
</trkpt>
<trkpt lat="56.058079" lon="26.482924">
<ele>117.360413</ele>
<time>2010-08-29T11:39:18Z</time>
<desc>lat.=56.058079, lon.=26.482924, Alt.=117.360413m. Speed=9.576000m/h.</desc>
<speed>2.660000</speed>
</trkpt>
<trkpt lat="56.058098" lon="26.482897">
<ele>116.889709</ele>
<time>2010-08-29T11:39:19Z</time>
<desc>lat.=56.058098, lon.=26.482897, Alt.=116.889709m. Speed=10.692000m/h.</desc>
<speed>2.970000</speed>
</trkpt>
<trkpt lat="56.058121" lon="26.482864">
<ele>116.217834</ele>
<time>2010-08-29T11:39:20Z</time>
<desc>lat.=56.058121, lon.=26.482864, Alt.=116.217834m. Speed=11.700000m/h.</desc>
<speed>3.250000</speed>
</trkpt>
<trkpt lat="56.058132" lon="26.482826">
<ele>113.706116</ele>
<time>2010-08-29T11:39:21Z</time>
<desc>lat.=56.058132, lon.=26.482826, Alt.=113.706116m. Speed=12.096000m/h.</desc>
<speed>3.360000</speed>
</trkpt>
<trkpt lat="56.058147" lon="26.482788">
<ele>111.975647</ele>
<time>2010-08-29T11:39:22Z</time>
<desc>lat.=56.058147, lon.=26.482788, Alt.=111.975647m. Speed=12.420000m/h.</desc>
<speed>3.450000</speed>
</trkpt>
<trkpt lat="56.058170" lon="26.482748">
<ele>111.270569</ele>
<time>2010-08-29T11:39:23Z</time>
<desc>lat.=56.058170, lon.=26.482748, Alt.=111.270569m. Speed=11.772000m/h.</desc>
<speed>3.270000</speed>
</trkpt>
<trkpt lat="56.058193" lon="26.482706">
<ele>110.358459</ele>
<time>2010-08-29T11:39:24Z</time>
<desc>lat.=56.058193, lon.=26.482706, Alt.=110.358459m. Speed=12.852000m/h.</desc>
<speed>3.570000</speed>
</trkpt>
<trkpt lat="56.058212" lon="26.482674">
<ele>110.151428</ele>
<time>2010-08-29T11:39:25Z</time>
<desc>lat.=56.058212, lon.=26.482674, Alt.=110.151428m. Speed=9.648000m/h.</desc>
<speed>2.680000</speed>
</trkpt>
<trkpt lat="56.058231" lon="26.482641">
<ele>110.055725</ele>
<time>2010-08-29T11:39:26Z</time>
<desc>lat.=56.058231, lon.=26.482641, Alt.=110.055725m. Speed=12.312000m/h.</desc>
<speed>3.420000</speed>
</trkpt>
<trkpt lat="56.058254" lon="26.482601">
<ele>109.840881</ele>
<time>2010-08-29T11:39:27Z</time>
<desc>lat.=56.058254, lon.=26.482601, Alt.=109.840881m. Speed=12.276000m/h.</desc>
<speed>3.410000</speed>
</trkpt>
<trkpt lat="56.058277" lon="26.482559">
<ele>109.147522</ele>
<time>2010-08-29T11:39:28Z</time>
<desc>lat.=56.058277, lon.=26.482559, Alt.=109.147522m. Speed=12.888000m/h.</desc>
<speed>3.580000</speed>
</trkpt>
<trkpt lat="56.058300" lon="26.482513">
<ele>107.895569</ele>
<time>2010-08-29T11:39:29Z</time>
<desc>lat.=56.058300, lon.=26.482513, Alt.=107.895569m. Speed=12.888000m/h.</desc>
<speed>3.580000</speed>
</trkpt>
<trkpt lat="56.058327" lon="26.482473">
<ele>107.889709</ele>
<time>2010-08-29T11:39:30Z</time>
<desc>lat.=56.058327, lon.=26.482473, Alt.=107.889709m. Speed=13.932000m/h.</desc>
<speed>3.870000</speed>
</trkpt>
<trkpt lat="56.058357" lon="26.482424">
<ele>107.391663</ele>
<time>2010-08-29T11:39:31Z</time>
<desc>lat.=56.058357, lon.=26.482424, Alt.=107.391663m. Speed=15.480000m/h.</desc>
<speed>4.300000</speed>
</trkpt>
<trkpt lat="56.058392" lon="26.482374">
<ele>107.731506</ele>
<time>2010-08-29T11:39:32Z</time>
<desc>lat.=56.058392, lon.=26.482374, Alt.=107.731506m. Speed=16.020000m/h.</desc>
<speed>4.450000</speed>
</trkpt>
<trkpt lat="56.058430" lon="26.482323">
<ele>106.526428</ele>
<time>2010-08-29T11:39:33Z</time>
<desc>lat.=56.058430, lon.=26.482323, Alt.=106.526428m. Speed=17.351999m/h.</desc>
<speed>4.820000</speed>
</trkpt>
<trkpt lat="56.058475" lon="26.482264">
<ele>105.905334</ele>
<time>2010-08-29T11:39:34Z</time>
<desc>lat.=56.058475, lon.=26.482264, Alt.=105.905334m. Speed=18.252001m/h.</desc>
<speed>5.070000</speed>
</trkpt>
<trkpt lat="56.058521" lon="26.482216">
<ele>104.694397</ele>
<time>2010-08-29T11:39:35Z</time>
<desc>lat.=56.058521, lon.=26.482216, Alt.=104.694397m. Speed=16.740000m/h.</desc>
<speed>4.650000</speed>
</trkpt>
<trkpt lat="56.058567" lon="26.482185">
<ele>103.563538</ele>
<time>2010-08-29T11:39:36Z</time>
<desc>lat.=56.058567, lon.=26.482185, Alt.=103.563538m. Speed=16.236000m/h.</desc>
<speed>4.510000</speed>
</trkpt>
<trkpt lat="56.058609" lon="26.482149">
<ele>102.940491</ele>
<time>2010-08-29T11:39:37Z</time>
<desc>lat.=56.058609, lon.=26.482149, Alt.=102.940491m. Speed=17.063999m/h.</desc>
<speed>4.740000</speed>
</trkpt>
<trkpt lat="56.058651" lon="26.482117">
<ele>102.264709</ele>
<time>2010-08-29T11:39:38Z</time>
<desc>lat.=56.058651, lon.=26.482117, Alt.=102.264709m. Speed=15.336000m/h.</desc>
<speed>4.260000</speed>
</trkpt>
<trkpt lat="56.058689" lon="26.482088">
<ele>101.592834</ele>
<time>2010-08-29T11:39:39Z</time>
<desc>lat.=56.058689, lon.=26.482088, Alt.=101.592834m. Speed=14.076000m/h.</desc>
<speed>3.910000</speed>
</trkpt>
<trkpt lat="56.058727" lon="26.482061">
<ele>100.971741</ele>
<time>2010-08-29T11:39:40Z</time>
<desc>lat.=56.058727, lon.=26.482061, Alt.=100.971741m. Speed=13.428000m/h.</desc>
<speed>3.730000</speed>
</trkpt>
<trkpt lat="56.058765" lon="26.482040">
<ele>99.030334</ele>
<time>2010-08-29T11:39:41Z</time>
<desc>lat.=56.058765, lon.=26.482040, Alt.=99.030334m. Speed=11.880000m/h.</desc>
<speed>3.300000</speed>
</trkpt>
<trkpt lat="56.058800" lon="26.482027">
<ele>97.706116</ele>
<time>2010-08-29T11:39:42Z</time>
<desc>lat.=56.058800, lon.=26.482027, Alt.=97.706116m. Speed=10.584000m/h.</desc>
<speed>2.940000</speed>
</trkpt>
<trkpt lat="56.058826" lon="26.482016">
<ele>97.358459</ele>
<time>2010-08-29T11:39:43Z</time>
<desc>lat.=56.058826, lon.=26.482016, Alt.=97.358459m. Speed=8.712000m/h.</desc>
<speed>2.420000</speed>
</trkpt>
<trkpt lat="56.058853" lon="26.482004">
<ele>96.678772</ele>
<time>2010-08-29T11:39:44Z</time>
<desc>lat.=56.058853, lon.=26.482004, Alt.=96.678772m. Speed=11.160000m/h.</desc>
<speed>3.100000</speed>
</trkpt>
<trkpt lat="56.058884" lon="26.481985">
<ele>96.299866</ele>
<time>2010-08-29T11:39:45Z</time>
<desc>lat.=56.058884, lon.=26.481985, Alt.=96.299866m. Speed=9.900000m/h.</desc>
<speed>2.750000</speed>
</trkpt>
<trkpt lat="56.058918" lon="26.481968">
<ele>95.631897</ele>
<time>2010-08-29T11:39:46Z</time>
<desc>lat.=56.058918, lon.=26.481968, Alt.=95.631897m. Speed=13.176000m/h.</desc>
<speed>3.660000</speed>
</trkpt>
<trkpt lat="56.058960" lon="26.481953">
<ele>96.551819</ele>
<time>2010-08-29T11:39:47Z</time>
<desc>lat.=56.058960, lon.=26.481953, Alt.=96.551819m. Speed=13.068000m/h.</desc>
<speed>3.630000</speed>
</trkpt>
<trkpt lat="56.058994" lon="26.481941">
<ele>95.659241</ele>
<time>2010-08-29T11:39:48Z</time>
<desc>lat.=56.058994, lon.=26.481941, Alt.=95.659241m. Speed=14.760000m/h.</desc>
<speed>4.100000</speed>
</trkpt>
<trkpt lat="56.059032" lon="26.481922">
<ele>94.731506</ele>
<time>2010-08-29T11:39:49Z</time>
<desc>lat.=56.059032, lon.=26.481922, Alt.=94.731506m. Speed=14.796000m/h.</desc>
<speed>4.110000</speed>
</trkpt>
<trkpt lat="56.059082" lon="26.481903">
<ele>94.692444</ele>
<time>2010-08-29T11:39:50Z</time>
<desc>lat.=56.059082, lon.=26.481903, Alt.=94.692444m. Speed=18.936001m/h.</desc>
<speed>5.260000</speed>
</trkpt>
<trkpt lat="56.059132" lon="26.481882">
<ele>94.391663</ele>
<time>2010-08-29T11:39:51Z</time>
<desc>lat.=56.059132, lon.=26.481882, Alt.=94.391663m. Speed=18.143999m/h.</desc>
<speed>5.040000</speed>
</trkpt>
<trkpt lat="56.059193" lon="26.481869">
<ele>94.274475</ele>
<time>2010-08-29T11:39:52Z</time>
<desc>lat.=56.059193, lon.=26.481869, Alt.=94.274475m. Speed=18.827999m/h.</desc>
<speed>5.230000</speed>
</trkpt>
<trkpt lat="56.059246" lon="26.481855">
<ele>94.362366</ele>
<time>2010-08-29T11:39:53Z</time>
<desc>lat.=56.059246, lon.=26.481855, Alt.=94.362366m. Speed=18.792000m/h.</desc>
<speed>5.220000</speed>
</trkpt>
<trkpt lat="56.059296" lon="26.481848">
<ele>96.417053</ele>
<time>2010-08-29T11:39:54Z</time>
<desc>lat.=56.059296, lon.=26.481848, Alt.=96.417053m. Speed=17.820000m/h.</desc>
<speed>4.950000</speed>
</trkpt>
<trkpt lat="56.059345" lon="26.481846">
<ele>96.727600</ele>
<time>2010-08-29T11:39:55Z</time>
<desc>lat.=56.059345, lon.=26.481846, Alt.=96.727600m. Speed=15.300000m/h.</desc>
<speed>4.250000</speed>
</trkpt>
<trkpt lat="56.059387" lon="26.481846">
<ele>95.868225</ele>
<time>2010-08-29T11:39:56Z</time>
<desc>lat.=56.059387, lon.=26.481846, Alt.=95.868225m. Speed=15.048000m/h.</desc>
<speed>4.180000</speed>
</trkpt>
<trkpt lat="56.059437" lon="26.481834">
<ele>94.008850</ele>
<time>2010-08-29T11:39:57Z</time>
<desc>lat.=56.059437, lon.=26.481834, Alt.=94.008850m. Speed=15.876000m/h.</desc>
<speed>4.410000</speed>
</trkpt>
<trkpt lat="56.059486" lon="26.481831">
<ele>91.881897</ele>
<time>2010-08-29T11:39:58Z</time>
<desc>lat.=56.059486, lon.=26.481831, Alt.=91.881897m. Speed=13.356000m/h.</desc>
<speed>3.710000</speed>
</trkpt>
<trkpt lat="56.059540" lon="26.481833">
<ele>92.387756</ele>
<time>2010-08-29T11:39:59Z</time>
<desc>lat.=56.059540, lon.=26.481833, Alt.=92.387756m. Speed=15.696000m/h.</desc>
<speed>4.360000</speed>
</trkpt>
<trkpt lat="56.059582" lon="26.481829">
<ele>90.493225</ele>
<time>2010-08-29T11:40:00Z</time>
<desc>lat.=56.059582, lon.=26.481829, Alt.=90.493225m. Speed=15.984000m/h.</desc>
<speed>4.440000</speed>
</trkpt>
<trkpt lat="56.059620" lon="26.481813">
<ele>89.608459</ele>
<time>2010-08-29T11:40:01Z</time>
<desc>lat.=56.059620, lon.=26.481813, Alt.=89.608459m. Speed=13.320000m/h.</desc>
<speed>3.700000</speed>
</trkpt>
<trkpt lat="56.059662" lon="26.481798">
<ele>88.592834</ele>
<time>2010-08-29T11:40:02Z</time>
<desc>lat.=56.059662, lon.=26.481798, Alt.=88.592834m. Speed=16.020000m/h.</desc>
<speed>4.450000</speed>
</trkpt>
<trkpt lat="56.059708" lon="26.481779">
<ele>88.321350</ele>
<time>2010-08-29T11:40:03Z</time>
<desc>lat.=56.059708, lon.=26.481779, Alt.=88.321350m. Speed=15.588000m/h.</desc>
<speed>4.330000</speed>
</trkpt>
<trkpt lat="56.059746" lon="26.481764">
<ele>87.575256</ele>
<time>2010-08-29T11:40:04Z</time>
<desc>lat.=56.059746, lon.=26.481764, Alt.=87.575256m. Speed=14.112000m/h.</desc>
<speed>3.920000</speed>
</trkpt>
<trkpt lat="56.059792" lon="26.481754">
<ele>87.799866</ele>
<time>2010-08-29T11:40:05Z</time>
<desc>lat.=56.059792, lon.=26.481754, Alt.=87.799866m. Speed=14.148000m/h.</desc>
<speed>3.930000</speed>
</trkpt>
<trkpt lat="56.059826" lon="26.481747">
<ele>87.967834</ele>
<time>2010-08-29T11:40:06Z</time>
<desc>lat.=56.059826, lon.=26.481747, Alt.=87.967834m. Speed=13.608000m/h.</desc>
<speed>3.780000</speed>
</trkpt>
<trkpt lat="56.059879" lon="26.481730">
<ele>88.151428</ele>
<time>2010-08-29T11:40:07Z</time>
<desc>lat.=56.059879, lon.=26.481730, Alt.=88.151428m. Speed=15.876000m/h.</desc>
<speed>4.410000</speed>
</trkpt>
<trkpt lat="56.059925" lon="26.481724">
<ele>88.049866</ele>
<time>2010-08-29T11:40:08Z</time>
<desc>lat.=56.059925, lon.=26.481724, Alt.=88.049866m. Speed=16.308001m/h.</desc>
<speed>4.530000</speed>
</trkpt>
<trkpt lat="56.059978" lon="26.481718">
<ele>88.155334</ele>
<time>2010-08-29T11:40:09Z</time>
<desc>lat.=56.059978, lon.=26.481718, Alt.=88.155334m. Speed=19.152000m/h.</desc>
<speed>5.320000</speed>
</trkpt>
<trkpt lat="56.060047" lon="26.481689">
<ele>88.348694</ele>
<time>2010-08-29T11:40:10Z</time>
<desc>lat.=56.060047, lon.=26.481689, Alt.=88.348694m. Speed=20.232000m/h.</desc>
<speed>5.620000</speed>
</trkpt>
<trkpt lat="56.060093" lon="26.481665">
<ele>87.518616</ele>
<time>2010-08-29T11:40:11Z</time>
<desc>lat.=56.060093, lon.=26.481665, Alt.=87.518616m. Speed=17.639999m/h.</desc>
<speed>4.900000</speed>
</trkpt>
<trkpt lat="56.060162" lon="26.481636">
<ele>89.186584</ele>
<time>2010-08-29T11:40:12Z</time>
<desc>lat.=56.060162, lon.=26.481636, Alt.=89.186584m. Speed=19.656000m/h.</desc>
<speed>5.460000</speed>
</trkpt>
<trkpt lat="56.060215" lon="26.481613">
<ele>88.602600</ele>
<time>2010-08-29T11:40:13Z</time>
<desc>lat.=56.060215, lon.=26.481613, Alt.=88.602600m. Speed=19.511999m/h.</desc>
<speed>5.420000</speed>
</trkpt>
<trkpt lat="56.060272" lon="26.481592">
<ele>88.749084</ele>
<time>2010-08-29T11:40:14Z</time>
<desc>lat.=56.060272, lon.=26.481592, Alt.=88.749084m. Speed=18.648001m/h.</desc>
<speed>5.180000</speed>
</trkpt>
<trkpt lat="56.060322" lon="26.481573">
<ele>90.756897</ele>
<time>2010-08-29T11:40:15Z</time>
<desc>lat.=56.060322, lon.=26.481573, Alt.=90.756897m. Speed=18.468000m/h.</desc>
<speed>5.130000</speed>
</trkpt>
<trkpt lat="56.060371" lon="26.481560">
<ele>91.600647</ele>
<time>2010-08-29T11:40:16Z</time>
<desc>lat.=56.060371, lon.=26.481560, Alt.=91.600647m. Speed=18.252001m/h.</desc>
<speed>5.070000</speed>
</trkpt>
<trkpt lat="56.060421" lon="26.481541">
<ele>91.208069</ele>
<time>2010-08-29T11:40:17Z</time>
<desc>lat.=56.060421, lon.=26.481541, Alt.=91.208069m. Speed=18.000000m/h.</desc>
<speed>5.000000</speed>
</trkpt>
<trkpt lat="56.060467" lon="26.481520">
<ele>90.938538</ele>
<time>2010-08-29T11:40:18Z</time>
<desc>lat.=56.060467, lon.=26.481520, Alt.=90.938538m. Speed=17.351999m/h.</desc>
<speed>4.820000</speed>
</trkpt>
<trkpt lat="56.060520" lon="26.481499">
<ele>90.551819</ele>
<time>2010-08-29T11:40:19Z</time>
<desc>lat.=56.060520, lon.=26.481499, Alt.=90.551819m. Speed=18.900000m/h.</desc>
<speed>5.250000</speed>
</trkpt>
<trkpt lat="56.060570" lon="26.481474">
<ele>90.489319</ele>
<time>2010-08-29T11:40:20Z</time>
<desc>lat.=56.060570, lon.=26.481474, Alt.=90.489319m. Speed=19.152000m/h.</desc>
<speed>5.320000</speed>
</trkpt>
<trkpt lat="56.060619" lon="26.481438">
<ele>91.567444</ele>
<time>2010-08-29T11:40:21Z</time>
<desc>lat.=56.060619, lon.=26.481438, Alt.=91.567444m. Speed=19.908001m/h.</desc>
<speed>5.530000</speed>
</trkpt>
<trkpt lat="56.060673" lon="26.481396">
<ele>92.032288</ele>
<time>2010-08-29T11:40:22Z</time>
<desc>lat.=56.060673, lon.=26.481396, Alt.=92.032288m. Speed=20.195999m/h.</desc>
<speed>5.610000</speed>
</trkpt>
<trkpt lat="56.060719" lon="26.481348">
<ele>91.999084</ele>
<time>2010-08-29T11:40:23Z</time>
<desc>lat.=56.060719, lon.=26.481348, Alt.=91.999084m. Speed=20.087999m/h.</desc>
<speed>5.580000</speed>
</trkpt>
<trkpt lat="56.060764" lon="26.481304">
<ele>91.731506</ele>
<time>2010-08-29T11:40:24Z</time>
<desc>lat.=56.060764, lon.=26.481304, Alt.=91.731506m. Speed=19.476000m/h.</desc>
<speed>5.410000</speed>
</trkpt>
<trkpt lat="56.060810" lon="26.481262">
<ele>92.512756</ele>
<time>2010-08-29T11:40:25Z</time>
<desc>lat.=56.060810, lon.=26.481262, Alt.=92.512756m. Speed=17.820000m/h.</desc>
<speed>4.950000</speed>
</trkpt>
<trkpt lat="56.060848" lon="26.481203">
<ele>93.721741</ele>
<time>2010-08-29T11:40:26Z</time>
<desc>lat.=56.060848, lon.=26.481203, Alt.=93.721741m. Speed=16.632000m/h.</desc>
<speed>4.620000</speed>
</trkpt>
<trkpt lat="56.060883" lon="26.481153">
<ele>95.680725</ele>
<time>2010-08-29T11:40:27Z</time>
<desc>lat.=56.060883, lon.=26.481153, Alt.=95.680725m. Speed=15.228000m/h.</desc>
<speed>4.230000</speed>
</trkpt>
<trkpt lat="56.060921" lon="26.481102">
<ele>96.145569</ele>
<time>2010-08-29T11:40:28Z</time>
<desc>lat.=56.060921, lon.=26.481102, Alt.=96.145569m. Speed=15.300000m/h.</desc>
<speed>4.250000</speed>
</trkpt>
<trkpt lat="56.060955" lon="26.481066">
<ele>96.733459</ele>
<time>2010-08-29T11:40:29Z</time>
<desc>lat.=56.060955, lon.=26.481066, Alt.=96.733459m. Speed=15.372000m/h.</desc>
<speed>4.270000</speed>
</trkpt>
<trkpt lat="56.060993" lon="26.481035">
<ele>96.741272</ele>
<time>2010-08-29T11:40:30Z</time>
<desc>lat.=56.060993, lon.=26.481035, Alt.=96.741272m. Speed=17.604000m/h.</desc>
<speed>4.890000</speed>
</trkpt>
<trkpt lat="56.061031" lon="26.481001">
<ele>96.495178</ele>
<time>2010-08-29T11:40:31Z</time>
<desc>lat.=56.061031, lon.=26.481001, Alt.=96.495178m. Speed=16.955999m/h.</desc>
<speed>4.710000</speed>
</trkpt>
<trkpt lat="56.061069" lon="26.480953">
<ele>97.352600</ele>
<time>2010-08-29T11:40:32Z</time>
<desc>lat.=56.061069, lon.=26.480953, Alt.=97.352600m. Speed=17.280001m/h.</desc>
<speed>4.800000</speed>
</trkpt>
<trkpt lat="56.061108" lon="26.480906">
<ele>97.706116</ele>
<time>2010-08-29T11:40:33Z</time>
<desc>lat.=56.061108, lon.=26.480906, Alt.=97.706116m. Speed=16.812000m/h.</desc>
<speed>4.670000</speed>
</trkpt>
<trkpt lat="56.061146" lon="26.480862">
<ele>98.292053</ele>
<time>2010-08-29T11:40:34Z</time>
<desc>lat.=56.061146, lon.=26.480862, Alt.=98.292053m. Speed=16.955999m/h.</desc>
<speed>4.710000</speed>
</trkpt>
<trkpt lat="56.061184" lon="26.480820">
<ele>98.575256</ele>
<time>2010-08-29T11:40:35Z</time>
<desc>lat.=56.061184, lon.=26.480820, Alt.=98.575256m. Speed=17.784000m/h.</desc>
<speed>4.940000</speed>
</trkpt>
<trkpt lat="56.061226" lon="26.480778">
<ele>99.210022</ele>
<time>2010-08-29T11:40:36Z</time>
<desc>lat.=56.061226, lon.=26.480778, Alt.=99.210022m. Speed=17.784000m/h.</desc>
<speed>4.940000</speed>
</trkpt>
<trkpt lat="56.061272" lon="26.480734">
<ele>99.553772</ele>
<time>2010-08-29T11:40:37Z</time>
<desc>lat.=56.061272, lon.=26.480734, Alt.=99.553772m. Speed=18.288000m/h.</desc>
<speed>5.080000</speed>
</trkpt>
<trkpt lat="56.061314" lon="26.480686">
<ele>99.592834</ele>
<time>2010-08-29T11:40:38Z</time>
<desc>lat.=56.061314, lon.=26.480686, Alt.=99.592834m. Speed=18.792000m/h.</desc>
<speed>5.220000</speed>
</trkpt>
<trkpt lat="56.061352" lon="26.480644">
<ele>99.801819</ele>
<time>2010-08-29T11:40:39Z</time>
<desc>lat.=56.061352, lon.=26.480644, Alt.=99.801819m. Speed=18.648001m/h.</desc>
<speed>5.180000</speed>
</trkpt>
<trkpt lat="56.061394" lon="26.480600">
<ele>100.471741</ele>
<time>2010-08-29T11:40:40Z</time>
<desc>lat.=56.061394, lon.=26.480600, Alt.=100.471741m. Speed=18.792000m/h.</desc>
<speed>5.220000</speed>
</trkpt>
<trkpt lat="56.061432" lon="26.480556">
<ele>100.493225</ele>
<time>2010-08-29T11:40:41Z</time>
<desc>lat.=56.061432, lon.=26.480556, Alt.=100.493225m. Speed=18.900000m/h.</desc>
<speed>5.250000</speed>
</trkpt>
<trkpt lat="56.061470" lon="26.480507">
<ele>100.698303</ele>
<time>2010-08-29T11:40:42Z</time>
<desc>lat.=56.061470, lon.=26.480507, Alt.=100.698303m. Speed=18.143999m/h.</desc>
<speed>5.040000</speed>
</trkpt>
<trkpt lat="56.061508" lon="26.480453">
<ele>101.047913</ele>
<time>2010-08-29T11:40:43Z</time>
<desc>lat.=56.061508, lon.=26.480453, Alt.=101.047913m. Speed=18.540001m/h.</desc>
<speed>5.150000</speed>
</trkpt>
<trkpt lat="56.061543" lon="26.480400">
<ele>100.819397</ele>
<time>2010-08-29T11:40:44Z</time>
<desc>lat.=56.061543, lon.=26.480400, Alt.=100.819397m. Speed=18.143999m/h.</desc>
<speed>5.040000</speed>
</trkpt>
<trkpt lat="56.061577" lon="26.480350">
<ele>100.743225</ele>
<time>2010-08-29T11:40:45Z</time>
<desc>lat.=56.061577, lon.=26.480350, Alt.=100.743225m. Speed=18.108000m/h.</desc>
<speed>5.030000</speed>
</trkpt>
<trkpt lat="56.061619" lon="26.480303">
<ele>100.801819</ele>
<time>2010-08-29T11:40:46Z</time>
<desc>lat.=56.061619, lon.=26.480303, Alt.=100.801819m. Speed=18.468000m/h.</desc>
<speed>5.130000</speed>
</trkpt>
<trkpt lat="56.061653" lon="26.480259">
<ele>100.692444</ele>
<time>2010-08-29T11:40:47Z</time>
<desc>lat.=56.061653, lon.=26.480259, Alt.=100.692444m. Speed=17.676001m/h.</desc>
<speed>4.910000</speed>
</trkpt>
<trkpt lat="56.061687" lon="26.480211">
<ele>100.456116</ele>
<time>2010-08-29T11:40:48Z</time>
<desc>lat.=56.061687, lon.=26.480211, Alt.=100.456116m. Speed=16.704000m/h.</desc>
<speed>4.640000</speed>
</trkpt>
<trkpt lat="56.061718" lon="26.480171">
<ele>100.346741</ele>
<time>2010-08-29T11:40:49Z</time>
<desc>lat.=56.061718, lon.=26.480171, Alt.=100.346741m. Speed=15.372000m/h.</desc>
<speed>4.270000</speed>
</trkpt>
<trkpt lat="56.061745" lon="26.480133">
<ele>100.362366</ele>
<time>2010-08-29T11:40:50Z</time>
<desc>lat.=56.061745, lon.=26.480133, Alt.=100.362366m. Speed=14.616000m/h.</desc>
<speed>4.060000</speed>
</trkpt>
<trkpt lat="56.061771" lon="26.480097">
<ele>100.118225</ele>
<time>2010-08-29T11:40:51Z</time>
<desc>lat.=56.061771, lon.=26.480097, Alt.=100.118225m. Speed=14.220000m/h.</desc>
<speed>3.950000</speed>
</trkpt>
<trkpt lat="56.061790" lon="26.480057">
<ele>99.534241</ele>
<time>2010-08-29T11:40:52Z</time>
<desc>lat.=56.061790, lon.=26.480057, Alt.=99.534241m. Speed=14.184000m/h.</desc>
<speed>3.940000</speed>
</trkpt>
<trkpt lat="56.061810" lon="26.480001">
<ele>98.223694</ele>
<time>2010-08-29T11:40:53Z</time>
<desc>lat.=56.061810, lon.=26.480001, Alt.=98.223694m. Speed=15.264000m/h.</desc>
<speed>4.240000</speed>
</trkpt>
<trkpt lat="56.061848" lon="26.479946">
<ele>98.458069</ele>
<time>2010-08-29T11:40:54Z</time>
<desc>lat.=56.061848, lon.=26.479946, Alt.=98.458069m. Speed=16.020000m/h.</desc>
<speed>4.450000</speed>
</trkpt>
<trkpt lat="56.061886" lon="26.479897">
<ele>99.149475</ele>
<time>2010-08-29T11:40:55Z</time>
<desc>lat.=56.061886, lon.=26.479897, Alt.=99.149475m. Speed=16.379999m/h.</desc>
<speed>4.550000</speed>
</trkpt>
<trkpt lat="56.061916" lon="26.479847">
<ele>99.504944</ele>
<time>2010-08-29T11:40:56Z</time>
<desc>lat.=56.061916, lon.=26.479847, Alt.=99.504944m. Speed=16.848000m/h.</desc>
<speed>4.680000</speed>
</trkpt>
<trkpt lat="56.061947" lon="26.479799">
<ele>99.479553</ele>
<time>2010-08-29T11:40:57Z</time>
<desc>lat.=56.061947, lon.=26.479799, Alt.=99.479553m. Speed=16.992001m/h.</desc>
<speed>4.720000</speed>
</trkpt>
<trkpt lat="56.061977" lon="26.479755">
<ele>99.403381</ele>
<time>2010-08-29T11:40:58Z</time>
<desc>lat.=56.061977, lon.=26.479755, Alt.=99.403381m. Speed=16.812000m/h.</desc>
<speed>4.670000</speed>
</trkpt>
<trkpt lat="56.062012" lon="26.479713">
<ele>99.805725</ele>
<time>2010-08-29T11:40:59Z</time>
<desc>lat.=56.062012, lon.=26.479713, Alt.=99.805725m. Speed=17.316000m/h.</desc>
<speed>4.810000</speed>
</trkpt>
<trkpt lat="56.062057" lon="26.479662">
<ele>100.502991</ele>
<time>2010-08-29T11:41:00Z</time>
<desc>lat.=56.062057, lon.=26.479662, Alt.=100.502991m. Speed=18.035999m/h.</desc>
<speed>5.010000</speed>
</trkpt>
<trkpt lat="56.062096" lon="26.479610">
<ele>100.881897</ele>
<time>2010-08-29T11:41:01Z</time>
<desc>lat.=56.062096, lon.=26.479610, Alt.=100.881897m. Speed=19.188000m/h.</desc>
<speed>5.330000</speed>
</trkpt>
<trkpt lat="56.062126" lon="26.479561">
<ele>100.565491</ele>
<time>2010-08-29T11:41:02Z</time>
<desc>lat.=56.062126, lon.=26.479561, Alt.=100.565491m. Speed=18.360001m/h.</desc>
<speed>5.100000</speed>
</trkpt>
<trkpt lat="56.062157" lon="26.479511">
<ele>100.438538</ele>
<time>2010-08-29T11:41:03Z</time>
<desc>lat.=56.062157, lon.=26.479511, Alt.=100.438538m. Speed=17.964001m/h.</desc>
<speed>4.990000</speed>
</trkpt>
<trkpt lat="56.062195" lon="26.479460">
<ele>100.352600</ele>
<time>2010-08-29T11:41:04Z</time>
<desc>lat.=56.062195, lon.=26.479460, Alt.=100.352600m. Speed=19.007999m/h.</desc>
<speed>5.280000</speed>
</trkpt>
<trkpt lat="56.062233" lon="26.479404">
<ele>100.252991</ele>
<time>2010-08-29T11:41:05Z</time>
<desc>lat.=56.062233, lon.=26.479404, Alt.=100.252991m. Speed=19.620001m/h.</desc>
<speed>5.450000</speed>
</trkpt>
<trkpt lat="56.062275" lon="26.479343">
<ele>100.319397</ele>
<time>2010-08-29T11:41:06Z</time>
<desc>lat.=56.062275, lon.=26.479343, Alt.=100.319397m. Speed=20.916000m/h.</desc>
<speed>5.810000</speed>
</trkpt>
<trkpt lat="56.062317" lon="26.479280">
<ele>100.264709</ele>
<time>2010-08-29T11:41:07Z</time>
<desc>lat.=56.062317, lon.=26.479280, Alt.=100.264709m. Speed=20.879999m/h.</desc>
<speed>5.800000</speed>
</trkpt>
<trkpt lat="56.062359" lon="26.479223">
<ele>100.131897</ele>
<time>2010-08-29T11:41:08Z</time>
<desc>lat.=56.062359, lon.=26.479223, Alt.=100.131897m. Speed=20.448000m/h.</desc>
<speed>5.680000</speed>
</trkpt>
<trkpt lat="56.062393" lon="26.479168">
<ele>99.844788</ele>
<time>2010-08-29T11:41:09Z</time>
<desc>lat.=56.062393, lon.=26.479168, Alt.=99.844788m. Speed=20.556000m/h.</desc>
<speed>5.710000</speed>
</trkpt>
<trkpt lat="56.062431" lon="26.479107">
<ele>99.797913</ele>
<time>2010-08-29T11:41:10Z</time>
<desc>lat.=56.062431, lon.=26.479107, Alt.=99.797913m. Speed=21.132000m/h.</desc>
<speed>5.870000</speed>
</trkpt>
<trkpt lat="56.062473" lon="26.479044">
<ele>100.071350</ele>
<time>2010-08-29T11:41:11Z</time>
<desc>lat.=56.062473, lon.=26.479044, Alt.=100.071350m. Speed=21.996000m/h.</desc>
<speed>6.110000</speed>
</trkpt>
<trkpt lat="56.062515" lon="26.478975">
<ele>99.809631</ele>
<time>2010-08-29T11:41:12Z</time>
<desc>lat.=56.062515, lon.=26.478975, Alt.=99.809631m. Speed=22.068001m/h.</desc>
<speed>6.130000</speed>
</trkpt>
<trkpt lat="56.062557" lon="26.478912">
<ele>99.827209</ele>
<time>2010-08-29T11:41:13Z</time>
<desc>lat.=56.062557, lon.=26.478912, Alt.=99.827209m. Speed=21.636000m/h.</desc>
<speed>6.010000</speed>
</trkpt>
<trkpt lat="56.062599" lon="26.478849">
<ele>99.751038</ele>
<time>2010-08-29T11:41:14Z</time>
<desc>lat.=56.062599, lon.=26.478849, Alt.=99.751038m. Speed=21.600000m/h.</desc>
<speed>6.000000</speed>
</trkpt>
<trkpt lat="56.062641" lon="26.478781">
<ele>99.792053</ele>
<time>2010-08-29T11:41:15Z</time>
<desc>lat.=56.062641, lon.=26.478781, Alt.=99.792053m. Speed=22.068001m/h.</desc>
<speed>6.130000</speed>
</trkpt>
<trkpt lat="56.062675" lon="26.478722">
<ele>99.588928</ele>
<time>2010-08-29T11:41:16Z</time>
<desc>lat.=56.062675, lon.=26.478722, Alt.=99.588928m. Speed=21.816000m/h.</desc>
<speed>6.060000</speed>
</trkpt>
<trkpt lat="56.062717" lon="26.478661">
<ele>99.694397</ele>
<time>2010-08-29T11:41:17Z</time>
<desc>lat.=56.062717, lon.=26.478661, Alt.=99.694397m. Speed=23.148001m/h.</desc>
<speed>6.430000</speed>
</trkpt>
<trkpt lat="56.062763" lon="26.478598">
<ele>99.872131</ele>
<time>2010-08-29T11:41:18Z</time>
<desc>lat.=56.062763, lon.=26.478598, Alt.=99.872131m. Speed=21.780001m/h.</desc>
<speed>6.050000</speed>
</trkpt>
<trkpt lat="56.062805" lon="26.478539">
<ele>99.919006</ele>
<time>2010-08-29T11:41:19Z</time>
<desc>lat.=56.062805, lon.=26.478539, Alt.=99.919006m. Speed=21.780001m/h.</desc>
<speed>6.050000</speed>
</trkpt>
<trkpt lat="56.062847" lon="26.478474">
<ele>100.239319</ele>
<time>2010-08-29T11:41:20Z</time>
<desc>lat.=56.062847, lon.=26.478474, Alt.=100.239319m. Speed=21.167999m/h.</desc>
<speed>5.880000</speed>
</trkpt>
<trkpt lat="56.062889" lon="26.478409">
<ele>100.241272</ele>
<time>2010-08-29T11:41:21Z</time>
<desc>lat.=56.062889, lon.=26.478409, Alt.=100.241272m. Speed=19.836000m/h.</desc>
<speed>5.510000</speed>
</trkpt>
<trkpt lat="56.062923" lon="26.478348">
<ele>99.877991</ele>
<time>2010-08-29T11:41:22Z</time>
<desc>lat.=56.062923, lon.=26.478348, Alt.=99.877991m. Speed=19.296000m/h.</desc>
<speed>5.360000</speed>
</trkpt>
<trkpt lat="56.062950" lon="26.478294">
<ele>99.483459</ele>
<time>2010-08-29T11:41:23Z</time>
<desc>lat.=56.062950, lon.=26.478294, Alt.=99.483459m. Speed=16.236000m/h.</desc>
<speed>4.510000</speed>
</trkpt>
<trkpt lat="56.062977" lon="26.478245">
<ele>99.350647</ele>
<time>2010-08-29T11:41:24Z</time>
<desc>lat.=56.062977, lon.=26.478245, Alt.=99.350647m. Speed=13.536000m/h.</desc>
<speed>3.760000</speed>
</trkpt>
<trkpt lat="56.063000" lon="26.478209">
<ele>99.159241</ele>
<time>2010-08-29T11:41:25Z</time>
<desc>lat.=56.063000, lon.=26.478209, Alt.=99.159241m. Speed=11.448000m/h.</desc>
<speed>3.180000</speed>
</trkpt>
<trkpt lat="56.063026" lon="26.478189">
<ele>99.407288</ele>
<time>2010-08-29T11:41:26Z</time>
<desc>lat.=56.063026, lon.=26.478189, Alt.=99.407288m. Speed=10.404000m/h.</desc>
<speed>2.890000</speed>
</trkpt>
<trkpt lat="56.063049" lon="26.478182">
<ele>99.008850</ele>
<time>2010-08-29T11:41:27Z</time>
<desc>lat.=56.063049, lon.=26.478182, Alt.=99.008850m. Speed=10.044000m/h.</desc>
<speed>2.790000</speed>
</trkpt>
<trkpt lat="56.063061" lon="26.478191">
<ele>98.141663</ele>
<time>2010-08-29T11:41:28Z</time>
<desc>lat.=56.063061, lon.=26.478191, Alt.=98.141663m. Speed=7.848000m/h.</desc>
<speed>2.180000</speed>
</trkpt>
<trkpt lat="56.063084" lon="26.478216">
<ele>98.311584</ele>
<time>2010-08-29T11:41:29Z</time>
<desc>lat.=56.063084, lon.=26.478216, Alt.=98.311584m. Speed=7.560000m/h.</desc>
<speed>2.100000</speed>
</trkpt>
<trkpt lat="56.063095" lon="26.478251">
<ele>98.120178</ele>
<time>2010-08-29T11:41:30Z</time>
<desc>lat.=56.063095, lon.=26.478251, Alt.=98.120178m. Speed=8.352000m/h.</desc>
<speed>2.320000</speed>
</trkpt>
<trkpt lat="56.063107" lon="26.478279">
<ele>98.028381</ele>
<time>2010-08-29T11:41:31Z</time>
<desc>lat.=56.063107, lon.=26.478279, Alt.=98.028381m. Speed=8.064000m/h.</desc>
<speed>2.240000</speed>
</trkpt>
<trkpt lat="56.063126" lon="26.478304">
<ele>98.444397</ele>
<time>2010-08-29T11:41:32Z</time>
<desc>lat.=56.063126, lon.=26.478304, Alt.=98.444397m. Speed=7.524000m/h.</desc>
<speed>2.090000</speed>
</trkpt>
<trkpt lat="56.063141" lon="26.478329">
<ele>98.477600</ele>
<time>2010-08-29T11:41:33Z</time>
<desc>lat.=56.063141, lon.=26.478329, Alt.=98.477600m. Speed=8.352000m/h.</desc>
<speed>2.320000</speed>
</trkpt>
<trkpt lat="56.063156" lon="26.478361">
<ele>98.483459</ele>
<time>2010-08-29T11:41:34Z</time>
<desc>lat.=56.063156, lon.=26.478361, Alt.=98.483459m. Speed=9.792000m/h.</desc>
<speed>2.720000</speed>
</trkpt>
<trkpt lat="56.063171" lon="26.478399">
<ele>98.534241</ele>
<time>2010-08-29T11:41:35Z</time>
<desc>lat.=56.063171, lon.=26.478399, Alt.=98.534241m. Speed=12.816000m/h.</desc>
<speed>3.560000</speed>
</trkpt>
<trkpt lat="56.063194" lon="26.478449">
<ele>98.594788</ele>
<time>2010-08-29T11:41:36Z</time>
<desc>lat.=56.063194, lon.=26.478449, Alt.=98.594788m. Speed=14.112000m/h.</desc>
<speed>3.920000</speed>
</trkpt>
<trkpt lat="56.063213" lon="26.478506">
<ele>98.549866</ele>
<time>2010-08-29T11:41:37Z</time>
<desc>lat.=56.063213, lon.=26.478506, Alt.=98.549866m. Speed=14.184000m/h.</desc>
<speed>3.940000</speed>
</trkpt>
<trkpt lat="56.063240" lon="26.478558">
<ele>98.674866</ele>
<time>2010-08-29T11:41:38Z</time>
<desc>lat.=56.063240, lon.=26.478558, Alt.=98.674866m. Speed=15.156000m/h.</desc>
<speed>4.210000</speed>
</trkpt>
<trkpt lat="56.063263" lon="26.478613">
<ele>98.788147</ele>
<time>2010-08-29T11:41:39Z</time>
<desc>lat.=56.063263, lon.=26.478613, Alt.=98.788147m. Speed=15.840000m/h.</desc>
<speed>4.400000</speed>
</trkpt>
<trkpt lat="56.063286" lon="26.478666">
<ele>99.069397</ele>
<time>2010-08-29T11:41:40Z</time>
<desc>lat.=56.063286, lon.=26.478666, Alt.=99.069397m. Speed=15.696000m/h.</desc>
<speed>4.360000</speed>
</trkpt>
<trkpt lat="56.063313" lon="26.478724">
<ele>99.493225</ele>
<time>2010-08-29T11:41:41Z</time>
<desc>lat.=56.063313, lon.=26.478724, Alt.=99.493225m. Speed=15.876000m/h.</desc>
<speed>4.410000</speed>
</trkpt>
<trkpt lat="56.063339" lon="26.478781">
<ele>99.917053</ele>
<time>2010-08-29T11:41:42Z</time>
<desc>lat.=56.063339, lon.=26.478781, Alt.=99.917053m. Speed=16.955999m/h.</desc>
<speed>4.710000</speed>
</trkpt>
<trkpt lat="56.063366" lon="26.478825">
<ele>100.086975</ele>
<time>2010-08-29T11:41:43Z</time>
<desc>lat.=56.063366, lon.=26.478825, Alt.=100.086975m. Speed=15.948000m/h.</desc>
<speed>4.430000</speed>
</trkpt>
<trkpt lat="56.063396" lon="26.478880">
<ele>100.489319</ele>
<time>2010-08-29T11:41:44Z</time>
<desc>lat.=56.063396, lon.=26.478880, Alt.=100.489319m. Speed=16.344000m/h.</desc>
<speed>4.540000</speed>
</trkpt>
<trkpt lat="56.063423" lon="26.478939">
<ele>101.030334</ele>
<time>2010-08-29T11:41:45Z</time>
<desc>lat.=56.063423, lon.=26.478939, Alt.=101.030334m. Speed=17.136000m/h.</desc>
<speed>4.760000</speed>
</trkpt>
<trkpt lat="56.063450" lon="26.478991">
<ele>101.143616</ele>
<time>2010-08-29T11:41:46Z</time>
<desc>lat.=56.063450, lon.=26.478991, Alt.=101.143616m. Speed=17.280001m/h.</desc>
<speed>4.800000</speed>
</trkpt>
<trkpt lat="56.063477" lon="26.479050">
<ele>101.358459</ele>
<time>2010-08-29T11:41:47Z</time>
<desc>lat.=56.063477, lon.=26.479050, Alt.=101.358459m. Speed=17.676001m/h.</desc>
<speed>4.910000</speed>
</trkpt>
<trkpt lat="56.063507" lon="26.479111">
<ele>101.870178</ele>
<time>2010-08-29T11:41:48Z</time>
<desc>lat.=56.063507, lon.=26.479111, Alt.=101.870178m. Speed=17.532000m/h.</desc>
<speed>4.870000</speed>
</trkpt>
<trkpt lat="56.063541" lon="26.479174">
<ele>102.012756</ele>
<time>2010-08-29T11:41:49Z</time>
<desc>lat.=56.063541, lon.=26.479174, Alt.=102.012756m. Speed=19.152000m/h.</desc>
<speed>5.320000</speed>
</trkpt>
<trkpt lat="56.063572" lon="26.479235">
<ele>102.104553</ele>
<time>2010-08-29T11:41:50Z</time>
<desc>lat.=56.063572, lon.=26.479235, Alt.=102.104553m. Speed=18.072001m/h.</desc>
<speed>5.020000</speed>
</trkpt>
<trkpt lat="56.063602" lon="26.479300">
<ele>101.571350</ele>
<time>2010-08-29T11:41:51Z</time>
<desc>lat.=56.063602, lon.=26.479300, Alt.=101.571350m. Speed=17.784000m/h.</desc>
<speed>4.940000</speed>
</trkpt>
<trkpt lat="56.063629" lon="26.479364">
<ele>100.321350</ele>
<time>2010-08-29T11:41:52Z</time>
<desc>lat.=56.063629, lon.=26.479364, Alt.=100.321350m. Speed=17.892000m/h.</desc>
<speed>4.970000</speed>
</trkpt>
<trkpt lat="56.063660" lon="26.479425">
<ele>99.719788</ele>
<time>2010-08-29T11:41:53Z</time>
<desc>lat.=56.063660, lon.=26.479425, Alt.=99.719788m. Speed=16.416000m/h.</desc>
<speed>4.560000</speed>
</trkpt>
<trkpt lat="56.063686" lon="26.479490">
<ele>99.118225</ele>
<time>2010-08-29T11:41:54Z</time>
<desc>lat.=56.063686, lon.=26.479490, Alt.=99.118225m. Speed=17.388000m/h.</desc>
<speed>4.830000</speed>
</trkpt>
<trkpt lat="56.063713" lon="26.479557">
<ele>98.610413</ele>
<time>2010-08-29T11:41:55Z</time>
<desc>lat.=56.063713, lon.=26.479557, Alt.=98.610413m. Speed=18.936001m/h.</desc>
<speed>5.260000</speed>
</trkpt>
<trkpt lat="56.063740" lon="26.479618">
<ele>98.399475</ele>
<time>2010-08-29T11:41:56Z</time>
<desc>lat.=56.063740, lon.=26.479618, Alt.=98.399475m. Speed=15.696000m/h.</desc>
<speed>4.360000</speed>
</trkpt>
<trkpt lat="56.063755" lon="26.479664">
<ele>98.077209</ele>
<time>2010-08-29T11:41:57Z</time>
<desc>lat.=56.063755, lon.=26.479664, Alt.=98.077209m. Speed=8.496000m/h.</desc>
<speed>2.360000</speed>
</trkpt>
<trkpt lat="56.063766" lon="26.479689">
<ele>97.975647</ele>
<time>2010-08-29T11:41:58Z</time>
<desc>lat.=56.063766, lon.=26.479689, Alt.=97.975647m. Speed=4.968000m/h.</desc>
<speed>1.380000</speed>
</trkpt>
<trkpt lat="56.063778" lon="26.479696">
<ele>97.561584</ele>
<time>2010-08-29T11:41:59Z</time>
<desc>lat.=56.063778, lon.=26.479696, Alt.=97.561584m. Speed=6.264000m/h.</desc>
<speed>1.740000</speed>
</trkpt>
<trkpt lat="56.063786" lon="26.479723">
<ele>97.780334</ele>
<time>2010-08-29T11:42:00Z</time>
<desc>lat.=56.063786, lon.=26.479723, Alt.=97.780334m. Speed=7.416000m/h.</desc>
<speed>2.060000</speed>
</trkpt>
<trkpt lat="56.063797" lon="26.479750">
<ele>97.821350</ele>
<time>2010-08-29T11:42:01Z</time>
<desc>lat.=56.063797, lon.=26.479750, Alt.=97.821350m. Speed=7.200000m/h.</desc>
<speed>2.000000</speed>
</trkpt>
<trkpt lat="56.063816" lon="26.479776">
<ele>97.971741</ele>
<time>2010-08-29T11:42:02Z</time>
<desc>lat.=56.063816, lon.=26.479776, Alt.=97.971741m. Speed=8.784000m/h.</desc>
<speed>2.440000</speed>
</trkpt>
<trkpt lat="56.063831" lon="26.479809">
<ele>97.127991</ele>
<time>2010-08-29T11:42:03Z</time>
<desc>lat.=56.063831, lon.=26.479809, Alt.=97.127991m. Speed=11.268000m/h.</desc>
<speed>3.130000</speed>
</trkpt>
<trkpt lat="56.063854" lon="26.479858">
<ele>96.881897</ele>
<time>2010-08-29T11:42:04Z</time>
<desc>lat.=56.063854, lon.=26.479858, Alt.=96.881897m. Speed=11.088000m/h.</desc>
<speed>3.080000</speed>
</trkpt>
<trkpt lat="56.063873" lon="26.479891">
<ele>96.639709</ele>
<time>2010-08-29T11:42:05Z</time>
<desc>lat.=56.063873, lon.=26.479891, Alt.=96.639709m. Speed=12.024000m/h.</desc>
<speed>3.340000</speed>
</trkpt>
<trkpt lat="56.063896" lon="26.479931">
<ele>96.169006</ele>
<time>2010-08-29T11:42:06Z</time>
<desc>lat.=56.063896, lon.=26.479931, Alt.=96.169006m. Speed=14.256000m/h.</desc>
<speed>3.960000</speed>
</trkpt>
<trkpt lat="56.063931" lon="26.479975">
<ele>95.936584</ele>
<time>2010-08-29T11:42:07Z</time>
<desc>lat.=56.063931, lon.=26.479975, Alt.=95.936584m. Speed=15.732000m/h.</desc>
<speed>4.370000</speed>
</trkpt>
<trkpt lat="56.063961" lon="26.480021">
<ele>95.602600</ele>
<time>2010-08-29T11:42:08Z</time>
<desc>lat.=56.063961, lon.=26.480021, Alt.=95.602600m. Speed=16.920000m/h.</desc>
<speed>4.700000</speed>
</trkpt>
<trkpt lat="56.063995" lon="26.480072">
<ele>95.387756</ele>
<time>2010-08-29T11:42:09Z</time>
<desc>lat.=56.063995, lon.=26.480072, Alt.=95.387756m. Speed=18.000000m/h.</desc>
<speed>5.000000</speed>
</trkpt>
<trkpt lat="56.064037" lon="26.480122">
<ele>95.407288</ele>
<time>2010-08-29T11:42:10Z</time>
<desc>lat.=56.064037, lon.=26.480122, Alt.=95.407288m. Speed=17.856001m/h.</desc>
<speed>4.960000</speed>
</trkpt>
<trkpt lat="56.064072" lon="26.480165">
<ele>94.938538</ele>
<time>2010-08-29T11:42:11Z</time>
<desc>lat.=56.064072, lon.=26.480165, Alt.=94.938538m. Speed=18.000000m/h.</desc>
<speed>5.000000</speed>
</trkpt>
<trkpt lat="56.064110" lon="26.480213">
<ele>94.831116</ele>
<time>2010-08-29T11:42:12Z</time>
<desc>lat.=56.064110, lon.=26.480213, Alt.=94.831116m. Speed=17.964001m/h.</desc>
<speed>4.990000</speed>
</trkpt>
<trkpt lat="56.064148" lon="26.480259">
<ele>94.456116</ele>
<time>2010-08-29T11:42:13Z</time>
<desc>lat.=56.064148, lon.=26.480259, Alt.=94.456116m. Speed=16.596001m/h.</desc>
<speed>4.610000</speed>
</trkpt>
<trkpt lat="56.064182" lon="26.480303">
<ele>94.475647</ele>
<time>2010-08-29T11:42:14Z</time>
<desc>lat.=56.064182, lon.=26.480303, Alt.=94.475647m. Speed=17.388000m/h.</desc>
<speed>4.830000</speed>
</trkpt>
<trkpt lat="56.064220" lon="26.480341">
<ele>94.465881</ele>
<time>2010-08-29T11:42:15Z</time>
<desc>lat.=56.064220, lon.=26.480341, Alt.=94.465881m. Speed=17.243999m/h.</desc>
<speed>4.790000</speed>
</trkpt>
<trkpt lat="56.064259" lon="26.480389">
<ele>94.329163</ele>
<time>2010-08-29T11:42:16Z</time>
<desc>lat.=56.064259, lon.=26.480389, Alt.=94.329163m. Speed=16.992001m/h.</desc>
<speed>4.720000</speed>
</trkpt>
<trkpt lat="56.064289" lon="26.480429">
<ele>94.370178</ele>
<time>2010-08-29T11:42:17Z</time>
<desc>lat.=56.064289, lon.=26.480429, Alt.=94.370178m. Speed=15.624000m/h.</desc>
<speed>4.340000</speed>
</trkpt>
<trkpt lat="56.064327" lon="26.480465">
<ele>94.497131</ele>
<time>2010-08-29T11:42:18Z</time>
<desc>lat.=56.064327, lon.=26.480465, Alt.=94.497131m. Speed=17.316000m/h.</desc>
<speed>4.810000</speed>
</trkpt>
<trkpt lat="56.064369" lon="26.480511">
<ele>94.893616</ele>
<time>2010-08-29T11:42:19Z</time>
<desc>lat.=56.064369, lon.=26.480511, Alt.=94.893616m. Speed=19.152000m/h.</desc>
<speed>5.320000</speed>
</trkpt>
<trkpt lat="56.064411" lon="26.480556">
<ele>95.237366</ele>
<time>2010-08-29T11:42:20Z</time>
<desc>lat.=56.064411, lon.=26.480556, Alt.=95.237366m. Speed=19.691999m/h.</desc>
<speed>5.470000</speed>
</trkpt>
<trkpt lat="56.064457" lon="26.480602">
<ele>95.469788</ele>
<time>2010-08-29T11:42:21Z</time>
<desc>lat.=56.064457, lon.=26.480602, Alt.=95.469788m. Speed=17.964001m/h.</desc>
<speed>4.990000</speed>
</trkpt>
<trkpt lat="56.064495" lon="26.480640">
<ele>95.669006</ele>
<time>2010-08-29T11:42:22Z</time>
<desc>lat.=56.064495, lon.=26.480640, Alt.=95.669006m. Speed=17.639999m/h.</desc>
<speed>4.900000</speed>
</trkpt>
<trkpt lat="56.064533" lon="26.480682">
<ele>96.016663</ele>
<time>2010-08-29T11:42:23Z</time>
<desc>lat.=56.064533, lon.=26.480682, Alt.=96.016663m. Speed=16.955999m/h.</desc>
<speed>4.710000</speed>
</trkpt>
<trkpt lat="56.064568" lon="26.480719">
<ele>96.299866</ele>
<time>2010-08-29T11:42:24Z</time>
<desc>lat.=56.064568, lon.=26.480719, Alt.=96.299866m. Speed=15.120000m/h.</desc>
<speed>4.200000</speed>
</trkpt>
<trkpt lat="56.064594" lon="26.480757">
<ele>96.577209</ele>
<time>2010-08-29T11:42:25Z</time>
<desc>lat.=56.064594, lon.=26.480757, Alt.=96.577209m. Speed=15.084000m/h.</desc>
<speed>4.190000</speed>
</trkpt>
<trkpt lat="56.064629" lon="26.480789">
<ele>96.731506</ele>
<time>2010-08-29T11:42:26Z</time>
<desc>lat.=56.064629, lon.=26.480789, Alt.=96.731506m. Speed=14.760000m/h.</desc>
<speed>4.100000</speed>
</trkpt>
<trkpt lat="56.064663" lon="26.480818">
<ele>96.811584</ele>
<time>2010-08-29T11:42:27Z</time>
<desc>lat.=56.064663, lon.=26.480818, Alt.=96.811584m. Speed=14.328000m/h.</desc>
<speed>3.980000</speed>
</trkpt>
<trkpt lat="56.064686" lon="26.480843">
<ele>96.991272</ele>
<time>2010-08-29T11:42:28Z</time>
<desc>lat.=56.064686, lon.=26.480843, Alt.=96.991272m. Speed=10.944000m/h.</desc>
<speed>3.040000</speed>
</trkpt>
<trkpt lat="56.064709" lon="26.480858">
<ele>97.151428</ele>
<time>2010-08-29T11:42:29Z</time>
<desc>lat.=56.064709, lon.=26.480858, Alt.=97.151428m. Speed=9.576000m/h.</desc>
<speed>2.660000</speed>
</trkpt>
<trkpt lat="56.064732" lon="26.480875">
<ele>97.276428</ele>
<time>2010-08-29T11:42:30Z</time>
<desc>lat.=56.064732, lon.=26.480875, Alt.=97.276428m. Speed=9.432000m/h.</desc>
<speed>2.620000</speed>
</trkpt>
<trkpt lat="56.064751" lon="26.480896">
<ele>97.545959</ele>
<time>2010-08-29T11:42:31Z</time>
<desc>lat.=56.064751, lon.=26.480896, Alt.=97.545959m. Speed=7.488000m/h.</desc>
<speed>2.080000</speed>
</trkpt>
<trkpt lat="56.064766" lon="26.480917">
<ele>97.782288</ele>
<time>2010-08-29T11:42:32Z</time>
<desc>lat.=56.064766, lon.=26.480917, Alt.=97.782288m. Speed=7.704000m/h.</desc>
<speed>2.140000</speed>
</trkpt>
<trkpt lat="56.064785" lon="26.480936">
<ele>97.846741</ele>
<time>2010-08-29T11:42:33Z</time>
<desc>lat.=56.064785, lon.=26.480936, Alt.=97.846741m. Speed=8.244000m/h.</desc>
<speed>2.290000</speed>
</trkpt>
<trkpt lat="56.064808" lon="26.480968">
<ele>97.833069</ele>
<time>2010-08-29T11:42:34Z</time>
<desc>lat.=56.064808, lon.=26.480968, Alt.=97.833069m. Speed=8.244000m/h.</desc>
<speed>2.290000</speed>
</trkpt>
<trkpt lat="56.064835" lon="26.480991">
<ele>97.938538</ele>
<time>2010-08-29T11:42:35Z</time>
<desc>lat.=56.064835, lon.=26.480991, Alt.=97.938538m. Speed=8.748000m/h.</desc>
<speed>2.430000</speed>
</trkpt>
<trkpt lat="56.064842" lon="26.481037">
<ele>98.286194</ele>
<time>2010-08-29T11:42:36Z</time>
<desc>lat.=56.064842, lon.=26.481037, Alt.=98.286194m. Speed=9.396000m/h.</desc>
<speed>2.610000</speed>
</trkpt>
<trkpt lat="56.064857" lon="26.481077">
<ele>98.858459</ele>
<time>2010-08-29T11:42:37Z</time>
<desc>lat.=56.064857, lon.=26.481077, Alt.=98.858459m. Speed=9.432000m/h.</desc>
<speed>2.620000</speed>
</trkpt>
<trkpt lat="56.064873" lon="26.481121">
<ele>99.309631</ele>
<time>2010-08-29T11:42:38Z</time>
<desc>lat.=56.064873, lon.=26.481121, Alt.=99.309631m. Speed=9.432000m/h.</desc>
<speed>2.620000</speed>
</trkpt>
<trkpt lat="56.064896" lon="26.481194">
<ele>99.868225</ele>
<time>2010-08-29T11:42:39Z</time>
<desc>lat.=56.064896, lon.=26.481194, Alt.=99.868225m. Speed=9.216000m/h.</desc>
<speed>2.560000</speed>
</trkpt>
<trkpt lat="56.064899" lon="26.481243">
<ele>101.506897</ele>
<time>2010-08-29T11:42:40Z</time>
<desc>lat.=56.064899, lon.=26.481243, Alt.=101.506897m. Speed=8.532000m/h.</desc>
<speed>2.370000</speed>
</trkpt>
<trkpt lat="56.064911" lon="26.481279">
<ele>102.803772</ele>
<time>2010-08-29T11:42:41Z</time>
<desc>lat.=56.064911, lon.=26.481279, Alt.=102.803772m. Speed=7.272000m/h.</desc>
<speed>2.020000</speed>
</trkpt>
<trkpt lat="56.064915" lon="26.481297">
<ele>103.540100</ele>
<time>2010-08-29T11:42:42Z</time>
<desc>lat.=56.064915, lon.=26.481297, Alt.=103.540100m. Speed=7.344000m/h.</desc>
<speed>2.040000</speed>
</trkpt>
<trkpt lat="56.064903" lon="26.481339">
<ele>103.545959</ele>
<time>2010-08-29T11:42:43Z</time>
<desc>lat.=56.064903, lon.=26.481339, Alt.=103.545959m. Speed=6.120000m/h.</desc>
<speed>1.700000</speed>
</trkpt>
<trkpt lat="56.064888" lon="26.481369">
<ele>104.350647</ele>
<time>2010-08-29T11:42:44Z</time>
<desc>lat.=56.064888, lon.=26.481369, Alt.=104.350647m. Speed=6.084000m/h.</desc>
<speed>1.690000</speed>
</trkpt>
<trkpt lat="56.064877" lon="26.481403">
<ele>104.350647</ele>
<time>2010-08-29T11:42:45Z</time>
<desc>lat.=56.064877, lon.=26.481403, Alt.=104.350647m. Speed=5.436000m/h.</desc>
<speed>1.510000</speed>
</trkpt>
<trkpt lat="56.064877" lon="26.481421">
<ele>104.493225</ele>
<time>2010-08-29T11:42:46Z</time>
<desc>lat.=56.064877, lon.=26.481421, Alt.=104.493225m. Speed=1.548000m/h.</desc>
<speed>0.430000</speed>
</trkpt>
<trkpt lat="56.064880" lon="26.481419">
<ele>104.442444</ele>
<time>2010-08-29T11:42:47Z</time>
<desc>lat.=56.064880, lon.=26.481419, Alt.=104.442444m. Speed=0.216000m/h.</desc>
<speed>0.060000</speed>
</trkpt>
<trkpt lat="56.064873" lon="26.481424">
<ele>104.370178</ele>
<time>2010-08-29T11:42:48Z</time>
<desc>lat.=56.064873, lon.=26.481424, Alt.=104.370178m. Speed=0.288000m/h.</desc>
<speed>0.080000</speed>
</trkpt>
<trkpt lat="56.064873" lon="26.481421">
<ele>104.866272</ele>
<time>2010-08-29T11:42:49Z</time>
<desc>lat.=56.064873, lon.=26.481421, Alt.=104.866272m. Speed=0.324000m/h.</desc>
<speed>0.090000</speed>
</trkpt>
<trkpt lat="56.064873" lon="26.481419">
<ele>104.999084</ele>
<time>2010-08-29T11:42:50Z</time>
<desc>lat.=56.064873, lon.=26.481419, Alt.=104.999084m. Speed=0.360000m/h.</desc>
<speed>0.100000</speed>
</trkpt>
<trkpt lat="56.064873" lon="26.481419">
<ele>105.067444</ele>
<time>2010-08-29T11:42:51Z</time>
<desc>lat.=56.064873, lon.=26.481419, Alt.=105.067444m. Speed=1.008000m/h.</desc>
<speed>0.280000</speed>
</trkpt>
<trkpt lat="56.064873" lon="26.481422">
<ele>105.104553</ele>
<time>2010-08-29T11:42:52Z</time>
<desc>lat.=56.064873, lon.=26.481422, Alt.=105.104553m. Speed=0.468000m/h.</desc>
<speed>0.130000</speed>
</trkpt>
<trkpt lat="56.064873" lon="26.481424">
<ele>105.157288</ele>
<time>2010-08-29T11:42:53Z</time>
<desc>lat.=56.064873, lon.=26.481424, Alt.=105.157288m. Speed=0.576000m/h.</desc>
<speed>0.160000</speed>
</trkpt>
<trkpt lat="56.064877" lon="26.481426">
<ele>105.192444</ele>
<time>2010-08-29T11:42:54Z</time>
<desc>lat.=56.064877, lon.=26.481426, Alt.=105.192444m. Speed=0.396000m/h.</desc>
<speed>0.110000</speed>
</trkpt>
<trkpt lat="56.064877" lon="26.481428">
<ele>105.217834</ele>
<time>2010-08-29T11:42:55Z</time>
<desc>lat.=56.064877, lon.=26.481428, Alt.=105.217834m. Speed=0.396000m/h.</desc>
<speed>0.110000</speed>
</trkpt>
<trkpt lat="56.064877" lon="26.481430">
<ele>105.235413</ele>
<time>2010-08-29T11:42:56Z</time>
<desc>lat.=56.064877, lon.=26.481430, Alt.=105.235413m. Speed=0.108000m/h.</desc>
<speed>0.030000</speed>
</trkpt>
<trkpt lat="56.064877" lon="26.481430">
<ele>105.247131</ele>
<time>2010-08-29T11:42:57Z</time>
<desc>lat.=56.064877, lon.=26.481430, Alt.=105.247131m. Speed=0.252000m/h.</desc>
<speed>0.070000</speed>
</trkpt>
<trkpt lat="56.064877" lon="26.481432">
<ele>105.260803</ele>
<time>2010-08-29T11:42:58Z</time>
<desc>lat.=56.064877, lon.=26.481432, Alt.=105.260803m. Speed=0.252000m/h.</desc>
<speed>0.070000</speed>
</trkpt>
<trkpt lat="56.064877" lon="26.481432">
<ele>105.268616</ele>
<time>2010-08-29T11:42:59Z</time>
<desc>lat.=56.064877, lon.=26.481432, Alt.=105.268616m. Speed=0.324000m/h.</desc>
<speed>0.090000</speed>
</trkpt>
<trkpt lat="56.064877" lon="26.481434">
<ele>105.270569</ele>
<time>2010-08-29T11:43:00Z</time>
<desc>lat.=56.064877, lon.=26.481434, Alt.=105.270569m. Speed=0.360000m/h.</desc>
<speed>0.100000</speed>
</trkpt>
<trkpt lat="56.064877" lon="26.481434">
<ele>105.256897</ele>
<time>2010-08-29T11:43:01Z</time>
<desc>lat.=56.064877, lon.=26.481434, Alt.=105.256897m. Speed=0.360000m/h.</desc>
<speed>0.100000</speed>
</trkpt>
<trkpt lat="56.064877" lon="26.481436">
<ele>105.241272</ele>
<time>2010-08-29T11:43:02Z</time>
<desc>lat.=56.064877, lon.=26.481436, Alt.=105.241272m. Speed=0.252000m/h.</desc>
<speed>0.070000</speed>
</trkpt>
<trkpt lat="56.064877" lon="26.481438">
<ele>105.239319</ele>
<time>2010-08-29T11:43:03Z</time>
<desc>lat.=56.064877, lon.=26.481438, Alt.=105.239319m. Speed=0.468000m/h.</desc>
<speed>0.130000</speed>
</trkpt>
<trkpt lat="56.064880" lon="26.481440">
<ele>105.233459</ele>
<time>2010-08-29T11:43:04Z</time>
<desc>lat.=56.064880, lon.=26.481440, Alt.=105.233459m. Speed=0.576000m/h.</desc>
<speed>0.160000</speed>
</trkpt>
<trkpt lat="56.064880" lon="26.481441">
<ele>105.213928</ele>
<time>2010-08-29T11:43:05Z</time>
<desc>lat.=56.064880, lon.=26.481441, Alt.=105.213928m. Speed=0.360000m/h.</desc>
<speed>0.100000</speed>
</trkpt>
<trkpt lat="56.064880" lon="26.481443">
<ele>105.196350</ele>
<time>2010-08-29T11:43:06Z</time>
<desc>lat.=56.064880, lon.=26.481443, Alt.=105.196350m. Speed=0.432000m/h.</desc>
<speed>0.120000</speed>
</trkpt>
<trkpt lat="56.064880" lon="26.481445">
<ele>105.176819</ele>
<time>2010-08-29T11:43:07Z</time>
<desc>lat.=56.064880, lon.=26.481445, Alt.=105.176819m. Speed=0.144000m/h.</desc>
<speed>0.040000</speed>
</trkpt>
<trkpt lat="56.064880" lon="26.481445">
<ele>105.170959</ele>
<time>2010-08-29T11:43:08Z</time>
<desc>lat.=56.064880, lon.=26.481445, Alt.=105.170959m. Speed=0.072000m/h.</desc>
<speed>0.020000</speed>
</trkpt>
<trkpt lat="56.064880" lon="26.481445">
<ele>105.174866</ele>
<time>2010-08-29T11:43:09Z</time>
<desc>lat.=56.064880, lon.=26.481445, Alt.=105.174866m. Speed=0.144000m/h.</desc>
<speed>0.040000</speed>
</trkpt>
<trkpt lat="56.064880" lon="26.481443">
<ele>105.169006</ele>
<time>2010-08-29T11:43:10Z</time>
<desc>lat.=56.064880, lon.=26.481443, Alt.=105.169006m. Speed=0.324000m/h.</desc>
<speed>0.090000</speed>
</trkpt>
<trkpt lat="56.064880" lon="26.481443">
<ele>105.139709</ele>
<time>2010-08-29T11:43:11Z</time>
<desc>lat.=56.064880, lon.=26.481443, Alt.=105.139709m. Speed=0.180000m/h.</desc>
<speed>0.050000</speed>
</trkpt>
<trkpt lat="56.064880" lon="26.481441">
<ele>105.104553</ele>
<time>2010-08-29T11:43:12Z</time>
<desc>lat.=56.064880, lon.=26.481441, Alt.=105.104553m. Speed=0.072000m/h.</desc>
<speed>0.020000</speed>
</trkpt>
<trkpt lat="56.064880" lon="26.481441">
<ele>105.065491</ele>
<time>2010-08-29T11:43:13Z</time>
<desc>lat.=56.064880, lon.=26.481441, Alt.=105.065491m. Speed=0.180000m/h.</desc>
<speed>0.050000</speed>
</trkpt>
<trkpt lat="56.064880" lon="26.481441">
<ele>105.026428</ele>
<time>2010-08-29T11:43:14Z</time>
<desc>lat.=56.064880, lon.=26.481441, Alt.=105.026428m. Speed=0.216000m/h.</desc>
<speed>0.060000</speed>
</trkpt>
<trkpt lat="56.064880" lon="26.481443">
<ele>104.975647</ele>
<time>2010-08-29T11:43:15Z</time>
<desc>lat.=56.064880, lon.=26.481443, Alt.=104.975647m. Speed=0.324000m/h.</desc>
<speed>0.090000</speed>
</trkpt>
<trkpt lat="56.064880" lon="26.481443">
<ele>104.922913</ele>
<time>2010-08-29T11:43:16Z</time>
<desc>lat.=56.064880, lon.=26.481443, Alt.=104.922913m. Speed=0.396000m/h.</desc>
<speed>0.110000</speed>
</trkpt>
<trkpt lat="56.064880" lon="26.481441">
<ele>104.870178</ele>
<time>2010-08-29T11:43:17Z</time>
<desc>lat.=56.064880, lon.=26.481441, Alt.=104.870178m. Speed=0.360000m/h.</desc>
<speed>0.100000</speed>
</trkpt>
<trkpt lat="56.064880" lon="26.481440">
<ele>104.819397</ele>
<time>2010-08-29T11:43:18Z</time>
<desc>lat.=56.064880, lon.=26.481440, Alt.=104.819397m. Speed=0.108000m/h.</desc>
<speed>0.030000</speed>
</trkpt>
<trkpt lat="56.064880" lon="26.481440">
<ele>104.747131</ele>
<time>2010-08-29T11:43:19Z</time>
<desc>lat.=56.064880, lon.=26.481440, Alt.=104.747131m. Speed=0.180000m/h.</desc>
<speed>0.050000</speed>
</trkpt>
<trkpt lat="56.064880" lon="26.481440">
<ele>104.686584</ele>
<time>2010-08-29T11:43:20Z</time>
<desc>lat.=56.064880, lon.=26.481440, Alt.=104.686584m. Speed=0.360000m/h.</desc>
<speed>0.100000</speed>
</trkpt>
<trkpt lat="56.064880" lon="26.481438">
<ele>104.624084</ele>
<time>2010-08-29T11:43:21Z</time>
<desc>lat.=56.064880, lon.=26.481438, Alt.=104.624084m. Speed=0.504000m/h.</desc>
<speed>0.140000</speed>
</trkpt>
<trkpt lat="56.064880" lon="26.481436">
<ele>104.577209</ele>
<time>2010-08-29T11:43:22Z</time>
<desc>lat.=56.064880, lon.=26.481436, Alt.=104.577209m. Speed=0.216000m/h.</desc>
<speed>0.060000</speed>
</trkpt>
<trkpt lat="56.064880" lon="26.481434">
<ele>104.538147</ele>
<time>2010-08-29T11:43:23Z</time>
<desc>lat.=56.064880, lon.=26.481434, Alt.=104.538147m. Speed=0.288000m/h.</desc>
<speed>0.080000</speed>
</trkpt>
<trkpt lat="56.064880" lon="26.481434">
<ele>104.499084</ele>
<time>2010-08-29T11:43:24Z</time>
<desc>lat.=56.064880, lon.=26.481434, Alt.=104.499084m. Speed=0.072000m/h.</desc>
<speed>0.020000</speed>
</trkpt>
<trkpt lat="56.064880" lon="26.481432">
<ele>104.458069</ele>
<time>2010-08-29T11:43:25Z</time>
<desc>lat.=56.064880, lon.=26.481432, Alt.=104.458069m. Speed=0.000000m/h.</desc>
<speed>0.000000</speed>
</trkpt>
<trkpt lat="56.064880" lon="26.481432">
<ele>104.422913</ele>
<time>2010-08-29T11:43:26Z</time>
<desc>lat.=56.064880, lon.=26.481432, Alt.=104.422913m. Speed=0.144000m/h.</desc>
<speed>0.040000</speed>
</trkpt>
<trkpt lat="56.064880" lon="26.481432">
<ele>104.385803</ele>
<time>2010-08-29T11:43:27Z</time>
<desc>lat.=56.064880, lon.=26.481432, Alt.=104.385803m. Speed=0.144000m/h.</desc>
<speed>0.040000</speed>
</trkpt>
<trkpt lat="56.064884" lon="26.481432">
<ele>104.348694</ele>
<time>2010-08-29T11:43:28Z</time>
<desc>lat.=56.064884, lon.=26.481432, Alt.=104.348694m. Speed=0.144000m/h.</desc>
<speed>0.040000</speed>
</trkpt>
<trkpt lat="56.064880" lon="26.481430">
<ele>104.303772</ele>
<time>2010-08-29T11:43:29Z</time>
<desc>lat.=56.064880, lon.=26.481430, Alt.=104.303772m. Speed=0.252000m/h.</desc>
<speed>0.070000</speed>
</trkpt>
<trkpt lat="56.064880" lon="26.481430">
<ele>104.258850</ele>
<time>2010-08-29T11:43:30Z</time>
<desc>lat.=56.064880, lon.=26.481430, Alt.=104.258850m. Speed=0.216000m/h.</desc>
<speed>0.060000</speed>
</trkpt>
<trkpt lat="56.064880" lon="26.481428">
<ele>104.215881</ele>
<time>2010-08-29T11:43:31Z</time>
<desc>lat.=56.064880, lon.=26.481428, Alt.=104.215881m. Speed=0.612000m/h.</desc>
<speed>0.170000</speed>
</trkpt>
<trkpt lat="56.064880" lon="26.481426">
<ele>104.180725</ele>
<time>2010-08-29T11:43:32Z</time>
<desc>lat.=56.064880, lon.=26.481426, Alt.=104.180725m. Speed=0.468000m/h.</desc>
<speed>0.130000</speed>
</trkpt>
<trkpt lat="56.064884" lon="26.481424">
<ele>104.151428</ele>
<time>2010-08-29T11:43:33Z</time>
<desc>lat.=56.064884, lon.=26.481424, Alt.=104.151428m. Speed=0.108000m/h.</desc>
<speed>0.030000</speed>
</trkpt>
<trkpt lat="56.064884" lon="26.481422">
<ele>104.127991</ele>
<time>2010-08-29T11:43:34Z</time>
<desc>lat.=56.064884, lon.=26.481422, Alt.=104.127991m. Speed=0.108000m/h.</desc>
<speed>0.030000</speed>
</trkpt>
<trkpt lat="56.064884" lon="26.481422">
<ele>104.110413</ele>
<time>2010-08-29T11:43:35Z</time>
<desc>lat.=56.064884, lon.=26.481422, Alt.=104.110413m. Speed=0.324000m/h.</desc>
<speed>0.090000</speed>
</trkpt>
<trkpt lat="56.064884" lon="26.481422">
<ele>104.100647</ele>
<time>2010-08-29T11:43:36Z</time>
<desc>lat.=56.064884, lon.=26.481422, Alt.=104.100647m. Speed=0.396000m/h.</desc>
<speed>0.110000</speed>
</trkpt>
<trkpt lat="56.064884" lon="26.481421">
<ele>104.092834</ele>
<time>2010-08-29T11:43:37Z</time>
<desc>lat.=56.064884, lon.=26.481421, Alt.=104.092834m. Speed=0.432000m/h.</desc>
<speed>0.120000</speed>
</trkpt>
<trkpt lat="56.064884" lon="26.481421">
<ele>104.088928</ele>
<time>2010-08-29T11:43:38Z</time>
<desc>lat.=56.064884, lon.=26.481421, Alt.=104.088928m. Speed=0.360000m/h.</desc>
<speed>0.100000</speed>
</trkpt>
<trkpt lat="56.064888" lon="26.481419">
<ele>104.085022</ele>
<time>2010-08-29T11:43:39Z</time>
<desc>lat.=56.064888, lon.=26.481419, Alt.=104.085022m. Speed=0.144000m/h.</desc>
<speed>0.040000</speed>
</trkpt>
<trkpt lat="56.064888" lon="26.481419">
<ele>104.083069</ele>
<time>2010-08-29T11:43:40Z</time>
<desc>lat.=56.064888, lon.=26.481419, Alt.=104.083069m. Speed=0.504000m/h.</desc>
<speed>0.140000</speed>
</trkpt>
<trkpt lat="56.064888" lon="26.481417">
<ele>104.079163</ele>
<time>2010-08-29T11:43:41Z</time>
<desc>lat.=56.064888, lon.=26.481417, Alt.=104.079163m. Speed=0.288000m/h.</desc>
<speed>0.080000</speed>
</trkpt>
<trkpt lat="56.064888" lon="26.481417">
<ele>104.075256</ele>
<time>2010-08-29T11:43:42Z</time>
<desc>lat.=56.064888, lon.=26.481417, Alt.=104.075256m. Speed=0.504000m/h.</desc>
<speed>0.140000</speed>
</trkpt>
<trkpt lat="56.064888" lon="26.481415">
<ele>104.065491</ele>
<time>2010-08-29T11:43:43Z</time>
<desc>lat.=56.064888, lon.=26.481415, Alt.=104.065491m. Speed=0.540000m/h.</desc>
<speed>0.150000</speed>
</trkpt>
<trkpt lat="56.064892" lon="26.481415">
<ele>104.057678</ele>
<time>2010-08-29T11:43:44Z</time>
<desc>lat.=56.064892, lon.=26.481415, Alt.=104.057678m. Speed=0.576000m/h.</desc>
<speed>0.160000</speed>
</trkpt>
<trkpt lat="56.064892" lon="26.481413">
<ele>104.051819</ele>
<time>2010-08-29T11:43:45Z</time>
<desc>lat.=56.064892, lon.=26.481413, Alt.=104.051819m. Speed=0.576000m/h.</desc>
<speed>0.160000</speed>
</trkpt>
<trkpt lat="56.064892" lon="26.481411">
<ele>104.044006</ele>
<time>2010-08-29T11:43:46Z</time>
<desc>lat.=56.064892, lon.=26.481411, Alt.=104.044006m. Speed=0.432000m/h.</desc>
<speed>0.120000</speed>
</trkpt>
<trkpt lat="56.064896" lon="26.481411">
<ele>104.042053</ele>
<time>2010-08-29T11:43:47Z</time>
<desc>lat.=56.064896, lon.=26.481411, Alt.=104.042053m. Speed=0.648000m/h.</desc>
<speed>0.180000</speed>
</trkpt>
<trkpt lat="56.064896" lon="26.481409">
<ele>104.038147</ele>
<time>2010-08-29T11:43:48Z</time>
<desc>lat.=56.064896, lon.=26.481409, Alt.=104.038147m. Speed=0.792000m/h.</desc>
<speed>0.220000</speed>
</trkpt>
<trkpt lat="56.064896" lon="26.481407">
<ele>104.034241</ele>
<time>2010-08-29T11:43:49Z</time>
<desc>lat.=56.064896, lon.=26.481407, Alt.=104.034241m. Speed=0.576000m/h.</desc>
<speed>0.160000</speed>
</trkpt>
<trkpt lat="56.064899" lon="26.481405">
<ele>104.028381</ele>
<time>2010-08-29T11:43:50Z</time>
<desc>lat.=56.064899, lon.=26.481405, Alt.=104.028381m. Speed=0.432000m/h.</desc>
<speed>0.120000</speed>
</trkpt>
<trkpt lat="56.064899" lon="26.481403">
<ele>104.022522</ele>
<time>2010-08-29T11:43:51Z</time>
<desc>lat.=56.064899, lon.=26.481403, Alt.=104.022522m. Speed=0.828000m/h.</desc>
<speed>0.230000</speed>
</trkpt>
<trkpt lat="56.064899" lon="26.481401">
<ele>104.016663</ele>
<time>2010-08-29T11:43:52Z</time>
<desc>lat.=56.064899, lon.=26.481401, Alt.=104.016663m. Speed=0.792000m/h.</desc>
<speed>0.220000</speed>
</trkpt>
<trkpt lat="56.064903" lon="26.481401">
<ele>104.008850</ele>
<time>2010-08-29T11:43:53Z</time>
<desc>lat.=56.064903, lon.=26.481401, Alt.=104.008850m. Speed=0.648000m/h.</desc>
<speed>0.180000</speed>
</trkpt>
<trkpt lat="56.064903" lon="26.481400">
<ele>104.002991</ele>
<time>2010-08-29T11:43:54Z</time>
<desc>lat.=56.064903, lon.=26.481400, Alt.=104.002991m. Speed=0.468000m/h.</desc>
<speed>0.130000</speed>
</trkpt>
<trkpt lat="56.064903" lon="26.481398">
<ele>103.999084</ele>
<time>2010-08-29T11:43:55Z</time>
<desc>lat.=56.064903, lon.=26.481398, Alt.=103.999084m. Speed=0.468000m/h.</desc>
<speed>0.130000</speed>
</trkpt>
<trkpt lat="56.064907" lon="26.481398">
<ele>103.993225</ele>
<time>2010-08-29T11:43:56Z</time>
<desc>lat.=56.064907, lon.=26.481398, Alt.=103.993225m. Speed=0.504000m/h.</desc>
<speed>0.140000</speed>
</trkpt>
<trkpt lat="56.064907" lon="26.481396">
<ele>103.989319</ele>
<time>2010-08-29T11:43:57Z</time>
<desc>lat.=56.064907, lon.=26.481396, Alt.=103.989319m. Speed=0.648000m/h.</desc>
<speed>0.180000</speed>
</trkpt>
<trkpt lat="56.064907" lon="26.481394">
<ele>103.985413</ele>
<time>2010-08-29T11:43:58Z</time>
<desc>lat.=56.064907, lon.=26.481394, Alt.=103.985413m. Speed=0.504000m/h.</desc>
<speed>0.140000</speed>
</trkpt>
<trkpt lat="56.064911" lon="26.481394">
<ele>103.979553</ele>
<time>2010-08-29T11:43:59Z</time>
<desc>lat.=56.064911, lon.=26.481394, Alt.=103.979553m. Speed=0.324000m/h.</desc>
<speed>0.090000</speed>
</trkpt>
<trkpt lat="56.064911" lon="26.481392">
<ele>103.973694</ele>
<time>2010-08-29T11:44:00Z</time>
<desc>lat.=56.064911, lon.=26.481392, Alt.=103.973694m. Speed=0.216000m/h.</desc>
<speed>0.060000</speed>
</trkpt>
<trkpt lat="56.064911" lon="26.481392">
<ele>103.969788</ele>
<time>2010-08-29T11:44:01Z</time>
<desc>lat.=56.064911, lon.=26.481392, Alt.=103.969788m. Speed=0.072000m/h.</desc>
<speed>0.020000</speed>
</trkpt>
<trkpt lat="56.064911" lon="26.481392">
<ele>103.969788</ele>
<time>2010-08-29T11:44:02Z</time>
<desc>lat.=56.064911, lon.=26.481392, Alt.=103.969788m. Speed=0.360000m/h.</desc>
<speed>0.100000</speed>
</trkpt>
<trkpt lat="56.064911" lon="26.481392">
<ele>103.967834</ele>
<time>2010-08-29T11:44:03Z</time>
<desc>lat.=56.064911, lon.=26.481392, Alt.=103.967834m. Speed=0.288000m/h.</desc>
<speed>0.080000</speed>
</trkpt>
<trkpt lat="56.064911" lon="26.481390">
<ele>103.967834</ele>
<time>2010-08-29T11:44:04Z</time>
<desc>lat.=56.064911, lon.=26.481390, Alt.=103.967834m. Speed=0.396000m/h.</desc>
<speed>0.110000</speed>
</trkpt>
<trkpt lat="56.064911" lon="26.481390">
<ele>103.965881</ele>
<time>2010-08-29T11:44:05Z</time>
<desc>lat.=56.064911, lon.=26.481390, Alt.=103.965881m. Speed=0.612000m/h.</desc>
<speed>0.170000</speed>
</trkpt>
<trkpt lat="56.064915" lon="26.481388">
<ele>103.963928</ele>
<time>2010-08-29T11:44:06Z</time>
<desc>lat.=56.064915, lon.=26.481388, Alt.=103.963928m. Speed=0.612000m/h.</desc>
<speed>0.170000</speed>
</trkpt>
<trkpt lat="56.064915" lon="26.481386">
<ele>103.958069</ele>
<time>2010-08-29T11:44:07Z</time>
<desc>lat.=56.064915, lon.=26.481386, Alt.=103.958069m. Speed=0.540000m/h.</desc>
<speed>0.150000</speed>
</trkpt>
<trkpt lat="56.064915" lon="26.481386">
<ele>103.954163</ele>
<time>2010-08-29T11:44:08Z</time>
<desc>lat.=56.064915, lon.=26.481386, Alt.=103.954163m. Speed=0.504000m/h.</desc>
<speed>0.140000</speed>
</trkpt>
<trkpt lat="56.064919" lon="26.481384">
<ele>103.952209</ele>
<time>2010-08-29T11:44:09Z</time>
<desc>lat.=56.064919, lon.=26.481384, Alt.=103.952209m. Speed=0.432000m/h.</desc>
<speed>0.120000</speed>
</trkpt>
<trkpt lat="56.064919" lon="26.481382">
<ele>103.944397</ele>
<time>2010-08-29T11:44:10Z</time>
<desc>lat.=56.064919, lon.=26.481382, Alt.=103.944397m. Speed=0.288000m/h.</desc>
<speed>0.080000</speed>
</trkpt>
<trkpt lat="56.064919" lon="26.481382">
<ele>103.944397</ele>
<time>2010-08-29T11:44:11Z</time>
<desc>lat.=56.064919, lon.=26.481382, Alt.=103.944397m. Speed=0.288000m/h.</desc>
<speed>0.080000</speed>
</trkpt>
<trkpt lat="56.064919" lon="26.481380">
<ele>103.938538</ele>
<time>2010-08-29T11:44:12Z</time>
<desc>lat.=56.064919, lon.=26.481380, Alt.=103.938538m. Speed=0.216000m/h.</desc>
<speed>0.060000</speed>
</trkpt>
<trkpt lat="56.064919" lon="26.481380">
<ele>103.934631</ele>
<time>2010-08-29T11:44:13Z</time>
<desc>lat.=56.064919, lon.=26.481380, Alt.=103.934631m. Speed=0.144000m/h.</desc>
<speed>0.040000</speed>
</trkpt>
<trkpt lat="56.064919" lon="26.481380">
<ele>103.928772</ele>
<time>2010-08-29T11:44:14Z</time>
<desc>lat.=56.064919, lon.=26.481380, Alt.=103.928772m. Speed=0.108000m/h.</desc>
<speed>0.030000</speed>
</trkpt>
<trkpt lat="56.064919" lon="26.481380">
<ele>103.924866</ele>
<time>2010-08-29T11:44:15Z</time>
<desc>lat.=56.064919, lon.=26.481380, Alt.=103.924866m. Speed=0.468000m/h.</desc>
<speed>0.130000</speed>
</trkpt>
<trkpt lat="56.064922" lon="26.481379">
<ele>103.920959</ele>
<time>2010-08-29T11:44:16Z</time>
<desc>lat.=56.064922, lon.=26.481379, Alt.=103.920959m. Speed=0.216000m/h.</desc>
<speed>0.060000</speed>
</trkpt>
<trkpt lat="56.064922" lon="26.481379">
<ele>103.917053</ele>
<time>2010-08-29T11:44:17Z</time>
<desc>lat.=56.064922, lon.=26.481379, Alt.=103.917053m. Speed=0.432000m/h.</desc>
<speed>0.120000</speed>
</trkpt>
<trkpt lat="56.064922" lon="26.481377">
<ele>103.915100</ele>
<time>2010-08-29T11:44:18Z</time>
<desc>lat.=56.064922, lon.=26.481377, Alt.=103.915100m. Speed=0.468000m/h.</desc>
<speed>0.130000</speed>
</trkpt>
<trkpt lat="56.064922" lon="26.481377">
<ele>103.909241</ele>
<time>2010-08-29T11:44:19Z</time>
<desc>lat.=56.064922, lon.=26.481377, Alt.=103.909241m. Speed=0.108000m/h.</desc>
<speed>0.030000</speed>
</trkpt>
<trkpt lat="56.064922" lon="26.481377">
<ele>103.881897</ele>
<time>2010-08-29T11:44:20Z</time>
<desc>lat.=56.064922, lon.=26.481377, Alt.=103.881897m. Speed=0.108000m/h.</desc>
<speed>0.030000</speed>
</trkpt>
<trkpt lat="56.064922" lon="26.481375">
<ele>103.838928</ele>
<time>2010-08-29T11:44:21Z</time>
<desc>lat.=56.064922, lon.=26.481375, Alt.=103.838928m. Speed=0.072000m/h.</desc>
<speed>0.020000</speed>
</trkpt>
<trkpt lat="56.064922" lon="26.481375">
<ele>103.788147</ele>
<time>2010-08-29T11:44:22Z</time>
<desc>lat.=56.064922, lon.=26.481375, Alt.=103.788147m. Speed=0.072000m/h.</desc>
<speed>0.020000</speed>
</trkpt>
<trkpt lat="56.064922" lon="26.481375">
<ele>103.733459</ele>
<time>2010-08-29T11:44:23Z</time>
<desc>lat.=56.064922, lon.=26.481375, Alt.=103.733459m. Speed=0.144000m/h.</desc>
<speed>0.040000</speed>
</trkpt>
<trkpt lat="56.064922" lon="26.481375">
<ele>103.686584</ele>
<time>2010-08-29T11:44:24Z</time>
<desc>lat.=56.064922, lon.=26.481375, Alt.=103.686584m. Speed=0.108000m/h.</desc>
<speed>0.030000</speed>
</trkpt>
<trkpt lat="56.064922" lon="26.481375">
<ele>103.629944</ele>
<time>2010-08-29T11:44:25Z</time>
<desc>lat.=56.064922, lon.=26.481375, Alt.=103.629944m. Speed=0.072000m/h.</desc>
<speed>0.020000</speed>
</trkpt>
<trkpt lat="56.064926" lon="26.481375">
<ele>103.579163</ele>
<time>2010-08-29T11:44:26Z</time>
<desc>lat.=56.064926, lon.=26.481375, Alt.=103.579163m. Speed=0.036000m/h.</desc>
<speed>0.010000</speed>
</trkpt>
<trkpt lat="56.064922" lon="26.481375">
<ele>103.532288</ele>
<time>2010-08-29T11:44:27Z</time>
<desc>lat.=56.064922, lon.=26.481375, Alt.=103.532288m. Speed=0.144000m/h.</desc>
<speed>0.040000</speed>
</trkpt>
<trkpt lat="56.064926" lon="26.481375">
<ele>103.501038</ele>
<time>2010-08-29T11:44:28Z</time>
<desc>lat.=56.064926, lon.=26.481375, Alt.=103.501038m. Speed=0.504000m/h.</desc>
<speed>0.140000</speed>
</trkpt>
<trkpt lat="56.064926" lon="26.481373">
<ele>103.477600</ele>
<time>2010-08-29T11:44:29Z</time>
<desc>lat.=56.064926, lon.=26.481373, Alt.=103.477600m. Speed=0.000000m/h.</desc>
<speed>0.000000</speed>
</trkpt>
<trkpt lat="56.064926" lon="26.481373">
<ele>103.456116</ele>
<time>2010-08-29T11:44:30Z</time>
<desc>lat.=56.064926, lon.=26.481373, Alt.=103.456116m. Speed=0.180000m/h.</desc>
<speed>0.050000</speed>
</trkpt>
<trkpt lat="56.064926" lon="26.481373">
<ele>103.454163</ele>
<time>2010-08-29T11:44:31Z</time>
<desc>lat.=56.064926, lon.=26.481373, Alt.=103.454163m. Speed=0.036000m/h.</desc>
<speed>0.010000</speed>
</trkpt>
<trkpt lat="56.064926" lon="26.481373">
<ele>103.456116</ele>
<time>2010-08-29T11:44:32Z</time>
<desc>lat.=56.064926, lon.=26.481373, Alt.=103.456116m. Speed=0.000000m/h.</desc>
<speed>0.000000</speed>
</trkpt>
<trkpt lat="56.064926" lon="26.481373">
<ele>103.456116</ele>
<time>2010-08-29T11:44:33Z</time>
<desc>lat.=56.064926, lon.=26.481373, Alt.=103.456116m. Speed=0.036000m/h.</desc>
<speed>0.010000</speed>
</trkpt>
<trkpt lat="56.064926" lon="26.481373">
<ele>103.458069</ele>
<time>2010-08-29T11:44:34Z</time>
<desc>lat.=56.064926, lon.=26.481373, Alt.=103.458069m. Speed=0.036000m/h.</desc>
<speed>0.010000</speed>
</trkpt>
<trkpt lat="56.064926" lon="26.481371">
<ele>103.460022</ele>
<time>2010-08-29T11:44:35Z</time>
<desc>lat.=56.064926, lon.=26.481371, Alt.=103.460022m. Speed=0.000000m/h.</desc>
<speed>0.000000</speed>
</trkpt>
<trkpt lat="56.064926" lon="26.481371">
<ele>103.460022</ele>
<time>2010-08-29T11:44:36Z</time>
<desc>lat.=56.064926, lon.=26.481371, Alt.=103.460022m. Speed=0.036000m/h.</desc>
<speed>0.010000</speed>
</trkpt>
<trkpt lat="56.064926" lon="26.481371">
<ele>103.461975</ele>
<time>2010-08-29T11:44:37Z</time>
<desc>lat.=56.064926, lon.=26.481371, Alt.=103.461975m. Speed=0.000000m/h.</desc>
<speed>0.000000</speed>
</trkpt>
<trkpt lat="56.064926" lon="26.481371">
<ele>103.465881</ele>
<time>2010-08-29T11:44:38Z</time>
<desc>lat.=56.064926, lon.=26.481371, Alt.=103.465881m. Speed=0.036000m/h.</desc>
<speed>0.010000</speed>
</trkpt>
<trkpt lat="56.064926" lon="26.481371">
<ele>103.467834</ele>
<time>2010-08-29T11:44:39Z</time>
<desc>lat.=56.064926, lon.=26.481371, Alt.=103.467834m. Speed=0.000000m/h.</desc>
<speed>0.000000</speed>
</trkpt>
<trkpt lat="56.064926" lon="26.481371">
<ele>103.467834</ele>
<time>2010-08-29T11:44:40Z</time>
<desc>lat.=56.064926, lon.=26.481371, Alt.=103.467834m. Speed=0.000000m/h.</desc>
<speed>0.000000</speed>
</trkpt>
<trkpt lat="56.064926" lon="26.481371">
<ele>103.469788</ele>
<time>2010-08-29T11:44:41Z</time>
<desc>lat.=56.064926, lon.=26.481371, Alt.=103.469788m. Speed=0.036000m/h.</desc>
<speed>0.010000</speed>
</trkpt>
<trkpt lat="56.064926" lon="26.481371">
<ele>103.471741</ele>
<time>2010-08-29T11:44:42Z</time>
<desc>lat.=56.064926, lon.=26.481371, Alt.=103.471741m. Speed=0.036000m/h.</desc>
<speed>0.010000</speed>
</trkpt>
<trkpt lat="56.064926" lon="26.481371">
<ele>103.471741</ele>
<time>2010-08-29T11:44:43Z</time>
<desc>lat.=56.064926, lon.=26.481371, Alt.=103.471741m. Speed=0.036000m/h.</desc>
<speed>0.010000</speed>
</trkpt>
<trkpt lat="56.064922" lon="26.481373">
<ele>103.471741</ele>
<time>2010-08-29T11:44:44Z</time>
<desc>lat.=56.064922, lon.=26.481373, Alt.=103.471741m. Speed=0.000000m/h.</desc>
<speed>0.000000</speed>
</trkpt>
<trkpt lat="56.064922" lon="26.481373">
<ele>103.473694</ele>
<time>2010-08-29T11:44:45Z</time>
<desc>lat.=56.064922, lon.=26.481373, Alt.=103.473694m. Speed=0.000000m/h.</desc>
<speed>0.000000</speed>
</trkpt>
<trkpt lat="56.064922" lon="26.481373">
<ele>103.477600</ele>
<time>2010-08-29T11:44:46Z</time>
<desc>lat.=56.064922, lon.=26.481373, Alt.=103.477600m. Speed=0.036000m/h.</desc>
<speed>0.010000</speed>
</trkpt>
<trkpt lat="56.064922" lon="26.481373">
<ele>103.481506</ele>
<time>2010-08-29T11:44:47Z</time>
<desc>lat.=56.064922, lon.=26.481373, Alt.=103.481506m. Speed=0.036000m/h.</desc>
<speed>0.010000</speed>
</trkpt>
<trkpt lat="56.064922" lon="26.481373">
<ele>103.487366</ele>
<time>2010-08-29T11:44:48Z</time>
<desc>lat.=56.064922, lon.=26.481373, Alt.=103.487366m. Speed=0.000000m/h.</desc>
<speed>0.000000</speed>
</trkpt>
<trkpt lat="56.064922" lon="26.481373">
<ele>103.493225</ele>
<time>2010-08-29T11:44:49Z</time>
<desc>lat.=56.064922, lon.=26.481373, Alt.=103.493225m. Speed=0.072000m/h.</desc>
<speed>0.020000</speed>
</trkpt>
<trkpt lat="56.064922" lon="26.481373">
<ele>103.499084</ele>
<time>2010-08-29T11:44:50Z</time>
<desc>lat.=56.064922, lon.=26.481373, Alt.=103.499084m. Speed=0.036000m/h.</desc>
<speed>0.010000</speed>
</trkpt>
<trkpt lat="56.064922" lon="26.481373">
<ele>103.504944</ele>
<time>2010-08-29T11:44:51Z</time>
<desc>lat.=56.064922, lon.=26.481373, Alt.=103.504944m. Speed=0.036000m/h.</desc>
<speed>0.010000</speed>
</trkpt>
<trkpt lat="56.064922" lon="26.481373">
<ele>103.506897</ele>
<time>2010-08-29T11:44:52Z</time>
<desc>lat.=56.064922, lon.=26.481373, Alt.=103.506897m. Speed=0.036000m/h.</desc>
<speed>0.010000</speed>
</trkpt>
<trkpt lat="56.064922" lon="26.481373">
<ele>103.508850</ele>
<time>2010-08-29T11:44:53Z</time>
<desc>lat.=56.064922, lon.=26.481373, Alt.=103.508850m. Speed=0.000000m/h.</desc>
<speed>0.000000</speed>
</trkpt>
<trkpt lat="56.064922" lon="26.481375">
<ele>103.508850</ele>
<time>2010-08-29T11:44:54Z</time>
<desc>lat.=56.064922, lon.=26.481375, Alt.=103.508850m. Speed=0.072000m/h.</desc>
<speed>0.020000</speed>
</trkpt>
<trkpt lat="56.064922" lon="26.481375">
<ele>103.508850</ele>
<time>2010-08-29T11:44:55Z</time>
<desc>lat.=56.064922, lon.=26.481375, Alt.=103.508850m. Speed=0.072000m/h.</desc>
<speed>0.020000</speed>
</trkpt>
<trkpt lat="56.064922" lon="26.481375">
<ele>103.512756</ele>
<time>2010-08-29T11:44:56Z</time>
<desc>lat.=56.064922, lon.=26.481375, Alt.=103.512756m. Speed=0.072000m/h.</desc>
<speed>0.020000</speed>
</trkpt>
<trkpt lat="56.064922" lon="26.481375">
<ele>103.516663</ele>
<time>2010-08-29T11:44:57Z</time>
<desc>lat.=56.064922, lon.=26.481375, Alt.=103.516663m. Speed=0.036000m/h.</desc>
<speed>0.010000</speed>
</trkpt>
<trkpt lat="56.064922" lon="26.481375">
<ele>103.524475</ele>
<time>2010-08-29T11:44:58Z</time>
<desc>lat.=56.064922, lon.=26.481375, Alt.=103.524475m. Speed=0.000000m/h.</desc>
<speed>0.000000</speed>
</trkpt>
<trkpt lat="56.064922" lon="26.481375">
<ele>103.530334</ele>
<time>2010-08-29T11:44:59Z</time>
<desc>lat.=56.064922, lon.=26.481375, Alt.=103.530334m. Speed=0.000000m/h.</desc>
<speed>0.000000</speed>
</trkpt>
<trkpt lat="56.064922" lon="26.481375">
<ele>103.536194</ele>
<time>2010-08-29T11:45:00Z</time>
<desc>lat.=56.064922, lon.=26.481375, Alt.=103.536194m. Speed=0.036000m/h.</desc>
<speed>0.010000</speed>
</trkpt>
<trkpt lat="56.064922" lon="26.481375">
<ele>103.538147</ele>
<time>2010-08-29T11:45:01Z</time>
<desc>lat.=56.064922, lon.=26.481375, Alt.=103.538147m. Speed=0.000000m/h.</desc>
<speed>0.000000</speed>
</trkpt>
<trkpt lat="56.064922" lon="26.481375">
<ele>103.545959</ele>
<time>2010-08-29T11:45:02Z</time>
<desc>lat.=56.064922, lon.=26.481375, Alt.=103.545959m. Speed=0.000000m/h.</desc>
<speed>0.000000</speed>
</trkpt>
<trkpt lat="56.064922" lon="26.481375">
<ele>103.553772</ele>
<time>2010-08-29T11:45:03Z</time>
<desc>lat.=56.064922, lon.=26.481375, Alt.=103.553772m. Speed=0.000000m/h.</desc>
<speed>0.000000</speed>
</trkpt>
<trkpt lat="56.064922" lon="26.481375">
<ele>103.559631</ele>
<time>2010-08-29T11:45:04Z</time>
<desc>lat.=56.064922, lon.=26.481375, Alt.=103.559631m. Speed=0.000000m/h.</desc>
<speed>0.000000</speed>
</trkpt>
<trkpt lat="56.064922" lon="26.481375">
<ele>103.563538</ele>
<time>2010-08-29T11:45:05Z</time>
<desc>lat.=56.064922, lon.=26.481375, Alt.=103.563538m. Speed=0.000000m/h.</desc>
<speed>0.000000</speed>
</trkpt>
<trkpt lat="56.064922" lon="26.481375">
<ele>103.567444</ele>
<time>2010-08-29T11:45:06Z</time>
<desc>lat.=56.064922, lon.=26.481375, Alt.=103.567444m. Speed=0.036000m/h.</desc>
<speed>0.010000</speed>
</trkpt>
<trkpt lat="56.064922" lon="26.481375">
<ele>103.575256</ele>
<time>2010-08-29T11:45:07Z</time>
<desc>lat.=56.064922, lon.=26.481375, Alt.=103.575256m. Speed=0.000000m/h.</desc>
<speed>0.000000</speed>
</trkpt>
<trkpt lat="56.064922" lon="26.481375">
<ele>103.581116</ele>
<time>2010-08-29T11:45:08Z</time>
<desc>lat.=56.064922, lon.=26.481375, Alt.=103.581116m. Speed=0.000000m/h.</desc>
<speed>0.000000</speed>
</trkpt>
<trkpt lat="56.064922" lon="26.481375">
<ele>103.585022</ele>
<time>2010-08-29T11:45:09Z</time>
<desc>lat.=56.064922, lon.=26.481375, Alt.=103.585022m. Speed=0.036000m/h.</desc>
<speed>0.010000</speed>
</trkpt>
<trkpt lat="56.064922" lon="26.481375">
<ele>103.590881</ele>
<time>2010-08-29T11:45:10Z</time>
<desc>lat.=56.064922, lon.=26.481375, Alt.=103.590881m. Speed=0.036000m/h.</desc>
<speed>0.010000</speed>
</trkpt>
<trkpt lat="56.064922" lon="26.481375">
<ele>103.596741</ele>
<time>2010-08-29T11:45:11Z</time>
<desc>lat.=56.064922, lon.=26.481375, Alt.=103.596741m. Speed=0.072000m/h.</desc>
<speed>0.020000</speed>
</trkpt>
<trkpt lat="56.064922" lon="26.481375">
<ele>103.602600</ele>
<time>2010-08-29T11:45:12Z</time>
<desc>lat.=56.064922, lon.=26.481375, Alt.=103.602600m. Speed=0.036000m/h.</desc>
<speed>0.010000</speed>
</trkpt>
<trkpt lat="56.064922" lon="26.481375">
<ele>103.606506</ele>
<time>2010-08-29T11:45:13Z</time>
<desc>lat.=56.064922, lon.=26.481375, Alt.=103.606506m. Speed=0.036000m/h.</desc>
<speed>0.010000</speed>
</trkpt>
<trkpt lat="56.064922" lon="26.481375">
<ele>103.610413</ele>
<time>2010-08-29T11:45:14Z</time>
<desc>lat.=56.064922, lon.=26.481375, Alt.=103.610413m. Speed=0.072000m/h.</desc>
<speed>0.020000</speed>
</trkpt>
<trkpt lat="56.064922" lon="26.481375">
<ele>103.614319</ele>
<time>2010-08-29T11:45:15Z</time>
<desc>lat.=56.064922, lon.=26.481375, Alt.=103.614319m. Speed=0.000000m/h.</desc>
<speed>0.000000</speed>
</trkpt>
<trkpt lat="56.064922" lon="26.481375">
<ele>103.620178</ele>
<time>2010-08-29T11:45:16Z</time>
<desc>lat.=56.064922, lon.=26.481375, Alt.=103.620178m. Speed=0.108000m/h.</desc>
<speed>0.030000</speed>
</trkpt>
<trkpt lat="56.064922" lon="26.481375">
<ele>103.624084</ele>
<time>2010-08-29T11:45:17Z</time>
<desc>lat.=56.064922, lon.=26.481375, Alt.=103.624084m. Speed=0.000000m/h.</desc>
<speed>0.000000</speed>
</trkpt>
<trkpt lat="56.064922" lon="26.481375">
<ele>103.626038</ele>
<time>2010-08-29T11:45:18Z</time>
<desc>lat.=56.064922, lon.=26.481375, Alt.=103.626038m. Speed=0.036000m/h.</desc>
<speed>0.010000</speed>
</trkpt>
<trkpt lat="56.064922" lon="26.481375">
<ele>103.629944</ele>
<time>2010-08-29T11:45:19Z</time>
<desc>lat.=56.064922, lon.=26.481375, Alt.=103.629944m. Speed=0.072000m/h.</desc>
<speed>0.020000</speed>
</trkpt>
<trkpt lat="56.064922" lon="26.481375">
<ele>103.631897</ele>
<time>2010-08-29T11:45:20Z</time>
<desc>lat.=56.064922, lon.=26.481375, Alt.=103.631897m. Speed=0.072000m/h.</desc>
<speed>0.020000</speed>
</trkpt>
<trkpt lat="56.064922" lon="26.481375">
<ele>103.635803</ele>
<time>2010-08-29T11:45:21Z</time>
<desc>lat.=56.064922, lon.=26.481375, Alt.=103.635803m. Speed=0.000000m/h.</desc>
<speed>0.000000</speed>
</trkpt>
<trkpt lat="56.064922" lon="26.481375">
<ele>103.639709</ele>
<time>2010-08-29T11:45:22Z</time>
<desc>lat.=56.064922, lon.=26.481375, Alt.=103.639709m. Speed=0.000000m/h.</desc>
<speed>0.000000</speed>
</trkpt>
<trkpt lat="56.064922" lon="26.481375">
<ele>103.641663</ele>
<time>2010-08-29T11:45:23Z</time>
<desc>lat.=56.064922, lon.=26.481375, Alt.=103.641663m. Speed=0.072000m/h.</desc>
<speed>0.020000</speed>
</trkpt>
<trkpt lat="56.064922" lon="26.481375">
<ele>103.641663</ele>
<time>2010-08-29T11:45:24Z</time>
<desc>lat.=56.064922, lon.=26.481375, Alt.=103.641663m. Speed=0.036000m/h.</desc>
<speed>0.010000</speed>
</trkpt>
<trkpt lat="56.064922" lon="26.481375">
<ele>103.641663</ele>
<time>2010-08-29T11:45:25Z</time>
<desc>lat.=56.064922, lon.=26.481375, Alt.=103.641663m. Speed=0.036000m/h.</desc>
<speed>0.010000</speed>
</trkpt>
<trkpt lat="56.064922" lon="26.481375">
<ele>103.643616</ele>
<time>2010-08-29T11:45:26Z</time>
<desc>lat.=56.064922, lon.=26.481375, Alt.=103.643616m. Speed=0.000000m/h.</desc>
<speed>0.000000</speed>
</trkpt>
<trkpt lat="56.064922" lon="26.481375">
<ele>103.647522</ele>
<time>2010-08-29T11:45:27Z</time>
<desc>lat.=56.064922, lon.=26.481375, Alt.=103.647522m. Speed=0.036000m/h.</desc>
<speed>0.010000</speed>
</trkpt>
<trkpt lat="56.064922" lon="26.481375">
<ele>103.651428</ele>
<time>2010-08-29T11:45:28Z</time>
<desc>lat.=56.064922, lon.=26.481375, Alt.=103.651428m. Speed=0.072000m/h.</desc>
<speed>0.020000</speed>
</trkpt>
<trkpt lat="56.064922" lon="26.481375">
<ele>103.655334</ele>
<time>2010-08-29T11:45:29Z</time>
<desc>lat.=56.064922, lon.=26.481375, Alt.=103.655334m. Speed=0.036000m/h.</desc>
<speed>0.010000</speed>
</trkpt>
<trkpt lat="56.064922" lon="26.481375">
<ele>103.657288</ele>
<time>2010-08-29T11:45:30Z</time>
<desc>lat.=56.064922, lon.=26.481375, Alt.=103.657288m. Speed=0.000000m/h.</desc>
<speed>0.000000</speed>
</trkpt>
<trkpt lat="56.064922" lon="26.481375">
<ele>103.663147</ele>
<time>2010-08-29T11:45:31Z</time>
<desc>lat.=56.064922, lon.=26.481375, Alt.=103.663147m. Speed=0.036000m/h.</desc>
<speed>0.010000</speed>
</trkpt>
<trkpt lat="56.064922" lon="26.481375">
<ele>103.665100</ele>
<time>2010-08-29T11:45:32Z</time>
<desc>lat.=56.064922, lon.=26.481375, Alt.=103.665100m. Speed=0.000000m/h.</desc>
<speed>0.000000</speed>
</trkpt>
<trkpt lat="56.064922" lon="26.481375">
<ele>103.667053</ele>
<time>2010-08-29T11:45:33Z</time>
<desc>lat.=56.064922, lon.=26.481375, Alt.=103.667053m. Speed=0.036000m/h.</desc>
<speed>0.010000</speed>
</trkpt>
<trkpt lat="56.064922" lon="26.481375">
<ele>103.669006</ele>
<time>2010-08-29T11:45:34Z</time>
<desc>lat.=56.064922, lon.=26.481375, Alt.=103.669006m. Speed=0.000000m/h.</desc>
<speed>0.000000</speed>
</trkpt>
<trkpt lat="56.064922" lon="26.481375">
<ele>103.672913</ele>
<time>2010-08-29T11:45:35Z</time>
<desc>lat.=56.064922, lon.=26.481375, Alt.=103.672913m. Speed=0.036000m/h.</desc>
<speed>0.010000</speed>
</trkpt>
<trkpt lat="56.064922" lon="26.481375">
<ele>103.674866</ele>
<time>2010-08-29T11:45:36Z</time>
<desc>lat.=56.064922, lon.=26.481375, Alt.=103.674866m. Speed=0.000000m/h.</desc>
<speed>0.000000</speed>
</trkpt>
<trkpt lat="56.064922" lon="26.481375">
<ele>103.678772</ele>
<time>2010-08-29T11:45:37Z</time>
<desc>lat.=56.064922, lon.=26.481375, Alt.=103.678772m. Speed=0.036000m/h.</desc>
<speed>0.010000</speed>
</trkpt>
<trkpt lat="56.064922" lon="26.481375">
<ele>103.682678</ele>
<time>2010-08-29T11:45:38Z</time>
<desc>lat.=56.064922, lon.=26.481375, Alt.=103.682678m. Speed=0.000000m/h.</desc>
<speed>0.000000</speed>
</trkpt>
<trkpt lat="56.064922" lon="26.481375">
<ele>103.684631</ele>
<time>2010-08-29T11:45:39Z</time>
<desc>lat.=56.064922, lon.=26.481375, Alt.=103.684631m. Speed=0.036000m/h.</desc>
<speed>0.010000</speed>
</trkpt>
<trkpt lat="56.064922" lon="26.481375">
<ele>103.688538</ele>
<time>2010-08-29T11:45:40Z</time>
<desc>lat.=56.064922, lon.=26.481375, Alt.=103.688538m. Speed=0.036000m/h.</desc>
<speed>0.010000</speed>
</trkpt>
<trkpt lat="56.064922" lon="26.481375">
<ele>103.690491</ele>
<time>2010-08-29T11:45:41Z</time>
<desc>lat.=56.064922, lon.=26.481375, Alt.=103.690491m. Speed=0.036000m/h.</desc>
<speed>0.010000</speed>
</trkpt>
<trkpt lat="56.064922" lon="26.481375">
<ele>103.688538</ele>
<time>2010-08-29T11:45:42Z</time>
<desc>lat.=56.064922, lon.=26.481375, Alt.=103.688538m. Speed=0.000000m/h.</desc>
<speed>0.000000</speed>
</trkpt>
<trkpt lat="56.064922" lon="26.481375">
<ele>103.690491</ele>
<time>2010-08-29T11:45:43Z</time>
<desc>lat.=56.064922, lon.=26.481375, Alt.=103.690491m. Speed=0.036000m/h.</desc>
<speed>0.010000</speed>
</trkpt>
<trkpt lat="56.064922" lon="26.481375">
<ele>103.690491</ele>
<time>2010-08-29T11:45:44Z</time>
<desc>lat.=56.064922, lon.=26.481375, Alt.=103.690491m. Speed=0.036000m/h.</desc>
<speed>0.010000</speed>
</trkpt>
<trkpt lat="56.064922" lon="26.481375">
<ele>103.692444</ele>
<time>2010-08-29T11:45:45Z</time>
<desc>lat.=56.064922, lon.=26.481375, Alt.=103.692444m. Speed=0.072000m/h.</desc>
<speed>0.020000</speed>
</trkpt>
<trkpt lat="56.064922" lon="26.481375">
<ele>103.692444</ele>
<time>2010-08-29T11:45:46Z</time>
<desc>lat.=56.064922, lon.=26.481375, Alt.=103.692444m. Speed=0.036000m/h.</desc>
<speed>0.010000</speed>
</trkpt>
<trkpt lat="56.064922" lon="26.481375">
<ele>103.690491</ele>
<time>2010-08-29T11:45:47Z</time>
<desc>lat.=56.064922, lon.=26.481375, Alt.=103.690491m. Speed=0.036000m/h.</desc>
<speed>0.010000</speed>
</trkpt>
<trkpt lat="56.064922" lon="26.481375">
<ele>103.692444</ele>
<time>2010-08-29T11:45:48Z</time>
<desc>lat.=56.064922, lon.=26.481375, Alt.=103.692444m. Speed=0.036000m/h.</desc>
<speed>0.010000</speed>
</trkpt>
<trkpt lat="56.064922" lon="26.481375">
<ele>103.688538</ele>
<time>2010-08-29T11:45:49Z</time>
<desc>lat.=56.064922, lon.=26.481375, Alt.=103.688538m. Speed=0.000000m/h.</desc>
<speed>0.000000</speed>
</trkpt>
<trkpt lat="56.064922" lon="26.481375">
<ele>103.686584</ele>
<time>2010-08-29T11:45:50Z</time>
<desc>lat.=56.064922, lon.=26.481375, Alt.=103.686584m. Speed=0.000000m/h.</desc>
<speed>0.000000</speed>
</trkpt>
<trkpt lat="56.064922" lon="26.481375">
<ele>103.684631</ele>
<time>2010-08-29T11:45:51Z</time>
<desc>lat.=56.064922, lon.=26.481375, Alt.=103.684631m. Speed=0.036000m/h.</desc>
<speed>0.010000</speed>
</trkpt>
<trkpt lat="56.064922" lon="26.481375">
<ele>103.686584</ele>
<time>2010-08-29T11:45:52Z</time>
<desc>lat.=56.064922, lon.=26.481375, Alt.=103.686584m. Speed=0.036000m/h.</desc>
<speed>0.010000</speed>
</trkpt>
<trkpt lat="56.064922" lon="26.481375">
<ele>103.686584</ele>
<time>2010-08-29T11:45:53Z</time>
<desc>lat.=56.064922, lon.=26.481375, Alt.=103.686584m. Speed=0.108000m/h.</desc>
<speed>0.030000</speed>
</trkpt>
<trkpt lat="56.064922" lon="26.481375">
<ele>103.690491</ele>
<time>2010-08-29T11:45:54Z</time>
<desc>lat.=56.064922, lon.=26.481375, Alt.=103.690491m. Speed=0.036000m/h.</desc>
<speed>0.010000</speed>
</trkpt>
<trkpt lat="56.064922" lon="26.481375">
<ele>103.688538</ele>
<time>2010-08-29T11:45:55Z</time>
<desc>lat.=56.064922, lon.=26.481375, Alt.=103.688538m. Speed=0.036000m/h.</desc>
<speed>0.010000</speed>
</trkpt>
<trkpt lat="56.064922" lon="26.481375">
<ele>103.690491</ele>
<time>2010-08-29T11:45:56Z</time>
<desc>lat.=56.064922, lon.=26.481375, Alt.=103.690491m. Speed=0.036000m/h.</desc>
<speed>0.010000</speed>
</trkpt>
<trkpt lat="56.064922" lon="26.481375">
<ele>103.694397</ele>
<time>2010-08-29T11:45:57Z</time>
<desc>lat.=56.064922, lon.=26.481375, Alt.=103.694397m. Speed=0.036000m/h.</desc>
<speed>0.010000</speed>
</trkpt>
<trkpt lat="56.064922" lon="26.481375">
<ele>103.698303</ele>
<time>2010-08-29T11:45:58Z</time>
<desc>lat.=56.064922, lon.=26.481375, Alt.=103.698303m. Speed=0.036000m/h.</desc>
<speed>0.010000</speed>
</trkpt>
<trkpt lat="56.064922" lon="26.481375">
<ele>103.700256</ele>
<time>2010-08-29T11:45:59Z</time>
<desc>lat.=56.064922, lon.=26.481375, Alt.=103.700256m. Speed=0.036000m/h.</desc>
<speed>0.010000</speed>
</trkpt>
<trkpt lat="56.064922" lon="26.481375">
<ele>103.708069</ele>
<time>2010-08-29T11:46:00Z</time>
<desc>lat.=56.064922, lon.=26.481375, Alt.=103.708069m. Speed=0.000000m/h.</desc>
<speed>0.000000</speed>
</trkpt>
<trkpt lat="56.064922" lon="26.481375">
<ele>103.711975</ele>
<time>2010-08-29T11:46:01Z</time>
<desc>lat.=56.064922, lon.=26.481375, Alt.=103.711975m. Speed=0.000000m/h.</desc>
<speed>0.000000</speed>
</trkpt>
<trkpt lat="56.064922" lon="26.481375">
<ele>103.719788</ele>
<time>2010-08-29T11:46:02Z</time>
<desc>lat.=56.064922, lon.=26.481375, Alt.=103.719788m. Speed=0.036000m/h.</desc>
<speed>0.010000</speed>
</trkpt>
<trkpt lat="56.064922" lon="26.481375">
<ele>103.721741</ele>
<time>2010-08-29T11:46:03Z</time>
<desc>lat.=56.064922, lon.=26.481375, Alt.=103.721741m. Speed=0.072000m/h.</desc>
<speed>0.020000</speed>
</trkpt>
<trkpt lat="56.064922" lon="26.481373">
<ele>103.727600</ele>
<time>2010-08-29T11:46:04Z</time>
<desc>lat.=56.064922, lon.=26.481373, Alt.=103.727600m. Speed=0.036000m/h.</desc>
<speed>0.010000</speed>
</trkpt>
<trkpt lat="56.064922" lon="26.481373">
<ele>103.729553</ele>
<time>2010-08-29T11:46:05Z</time>
<desc>lat.=56.064922, lon.=26.481373, Alt.=103.729553m. Speed=0.072000m/h.</desc>
<speed>0.020000</speed>
</trkpt>
<trkpt lat="56.064922" lon="26.481373">
<ele>103.743225</ele>
<time>2010-08-29T11:46:06Z</time>
<desc>lat.=56.064922, lon.=26.481373, Alt.=103.743225m. Speed=0.036000m/h.</desc>
<speed>0.010000</speed>
</trkpt>
<trkpt lat="56.064922" lon="26.481373">
<ele>103.749084</ele>
<time>2010-08-29T11:46:07Z</time>
<desc>lat.=56.064922, lon.=26.481373, Alt.=103.749084m. Speed=0.000000m/h.</desc>
<speed>0.000000</speed>
</trkpt>
<trkpt lat="56.064922" lon="26.481373">
<ele>103.749084</ele>
<time>2010-08-29T11:46:08Z</time>
<desc>lat.=56.064922, lon.=26.481373, Alt.=103.749084m. Speed=0.036000m/h.</desc>
<speed>0.010000</speed>
</trkpt>
<trkpt lat="56.064922" lon="26.481373">
<ele>103.749084</ele>
<time>2010-08-29T11:46:09Z</time>
<desc>lat.=56.064922, lon.=26.481373, Alt.=103.749084m. Speed=0.000000m/h.</desc>
<speed>0.000000</speed>
</trkpt>
<trkpt lat="56.064922" lon="26.481373">
<ele>103.752991</ele>
<time>2010-08-29T11:46:10Z</time>
<desc>lat.=56.064922, lon.=26.481373, Alt.=103.752991m. Speed=0.000000m/h.</desc>
<speed>0.000000</speed>
</trkpt>
<trkpt lat="56.064922" lon="26.481373">
<ele>103.751038</ele>
<time>2010-08-29T11:46:11Z</time>
<desc>lat.=56.064922, lon.=26.481373, Alt.=103.751038m. Speed=0.000000m/h.</desc>
<speed>0.000000</speed>
</trkpt>
<trkpt lat="56.064922" lon="26.481375">
<ele>103.751038</ele>
<time>2010-08-29T11:46:12Z</time>
<desc>lat.=56.064922, lon.=26.481375, Alt.=103.751038m. Speed=0.036000m/h.</desc>
<speed>0.010000</speed>
</trkpt>
<trkpt lat="56.064922" lon="26.481375">
<ele>103.754944</ele>
<time>2010-08-29T11:46:13Z</time>
<desc>lat.=56.064922, lon.=26.481375, Alt.=103.754944m. Speed=0.036000m/h.</desc>
<speed>0.010000</speed>
</trkpt>
<trkpt lat="56.064922" lon="26.481375">
<ele>103.756897</ele>
<time>2010-08-29T11:46:14Z</time>
<desc>lat.=56.064922, lon.=26.481375, Alt.=103.756897m. Speed=0.072000m/h.</desc>
<speed>0.020000</speed>
</trkpt>
<trkpt lat="56.064922" lon="26.481373">
<ele>103.752991</ele>
<time>2010-08-29T11:46:15Z</time>
<desc>lat.=56.064922, lon.=26.481373, Alt.=103.752991m. Speed=0.036000m/h.</desc>
<speed>0.010000</speed>
</trkpt>
<trkpt lat="56.064922" lon="26.481373">
<ele>103.752991</ele>
<time>2010-08-29T11:46:16Z</time>
<desc>lat.=56.064922, lon.=26.481373, Alt.=103.752991m. Speed=0.072000m/h.</desc>
<speed>0.020000</speed>
</trkpt>
<trkpt lat="56.064922" lon="26.481373">
<ele>103.756897</ele>
<time>2010-08-29T11:46:17Z</time>
<desc>lat.=56.064922, lon.=26.481373, Alt.=103.756897m. Speed=0.072000m/h.</desc>
<speed>0.020000</speed>
</trkpt>
<trkpt lat="56.064922" lon="26.481373">
<ele>103.751038</ele>
<time>2010-08-29T11:46:18Z</time>
<desc>lat.=56.064922, lon.=26.481373, Alt.=103.751038m. Speed=0.072000m/h.</desc>
<speed>0.020000</speed>
</trkpt>
<trkpt lat="56.064922" lon="26.481373">
<ele>103.747131</ele>
<time>2010-08-29T11:46:19Z</time>
<desc>lat.=56.064922, lon.=26.481373, Alt.=103.747131m. Speed=0.036000m/h.</desc>
<speed>0.010000</speed>
</trkpt>
<trkpt lat="56.064922" lon="26.481373">
<ele>103.745178</ele>
<time>2010-08-29T11:46:20Z</time>
<desc>lat.=56.064922, lon.=26.481373, Alt.=103.745178m. Speed=0.072000m/h.</desc>
<speed>0.020000</speed>
</trkpt>
<trkpt lat="56.064922" lon="26.481373">
<ele>103.743225</ele>
<time>2010-08-29T11:46:21Z</time>
<desc>lat.=56.064922, lon.=26.481373, Alt.=103.743225m. Speed=0.072000m/h.</desc>
<speed>0.020000</speed>
</trkpt>
<trkpt lat="56.064922" lon="26.481373">
<ele>103.739319</ele>
<time>2010-08-29T11:46:22Z</time>
<desc>lat.=56.064922, lon.=26.481373, Alt.=103.739319m. Speed=0.036000m/h.</desc>
<speed>0.010000</speed>
</trkpt>
<trkpt lat="56.064922" lon="26.481373">
<ele>103.731506</ele>
<time>2010-08-29T11:46:23Z</time>
<desc>lat.=56.064922, lon.=26.481373, Alt.=103.731506m. Speed=0.144000m/h.</desc>
<speed>0.040000</speed>
</trkpt>
<trkpt lat="56.064922" lon="26.481373">
<ele>103.711975</ele>
<time>2010-08-29T11:46:24Z</time>
<desc>lat.=56.064922, lon.=26.481373, Alt.=103.711975m. Speed=0.000000m/h.</desc>
<speed>0.000000</speed>
</trkpt>
<trkpt lat="56.064922" lon="26.481373">
<ele>103.702209</ele>
<time>2010-08-29T11:46:25Z</time>
<desc>lat.=56.064922, lon.=26.481373, Alt.=103.702209m. Speed=0.000000m/h.</desc>
<speed>0.000000</speed>
</trkpt>
<trkpt lat="56.064922" lon="26.481373">
<ele>103.694397</ele>
<time>2010-08-29T11:46:26Z</time>
<desc>lat.=56.064922, lon.=26.481373, Alt.=103.694397m. Speed=0.036000m/h.</desc>
<speed>0.010000</speed>
</trkpt>
<trkpt lat="56.064922" lon="26.481373">
<ele>103.672913</ele>
<time>2010-08-29T11:46:27Z</time>
<desc>lat.=56.064922, lon.=26.481373, Alt.=103.672913m. Speed=0.000000m/h.</desc>
<speed>0.000000</speed>
</trkpt>
<trkpt lat="56.064922" lon="26.481373">
<ele>103.661194</ele>
<time>2010-08-29T11:46:28Z</time>
<desc>lat.=56.064922, lon.=26.481373, Alt.=103.661194m. Speed=0.000000m/h.</desc>
<speed>0.000000</speed>
</trkpt>
<trkpt lat="56.064922" lon="26.481373">
<ele>103.649475</ele>
<time>2010-08-29T11:46:29Z</time>
<desc>lat.=56.064922, lon.=26.481373, Alt.=103.649475m. Speed=0.000000m/h.</desc>
<speed>0.000000</speed>
</trkpt>
<trkpt lat="56.064922" lon="26.481373">
<ele>103.643616</ele>
<time>2010-08-29T11:46:30Z</time>
<desc>lat.=56.064922, lon.=26.481373, Alt.=103.643616m. Speed=0.000000m/h.</desc>
<speed>0.000000</speed>
</trkpt>
<trkpt lat="56.064922" lon="26.481373">
<ele>103.633850</ele>
<time>2010-08-29T11:46:31Z</time>
<desc>lat.=56.064922, lon.=26.481373, Alt.=103.633850m. Speed=0.000000m/h.</desc>
<speed>0.000000</speed>
</trkpt>
<trkpt lat="56.064922" lon="26.481373">
<ele>103.631897</ele>
<time>2010-08-29T11:46:32Z</time>
<desc>lat.=56.064922, lon.=26.481373, Alt.=103.631897m. Speed=0.000000m/h.</desc>
<speed>0.000000</speed>
</trkpt>
<trkpt lat="56.064922" lon="26.481373">
<ele>103.633850</ele>
<time>2010-08-29T11:46:33Z</time>
<desc>lat.=56.064922, lon.=26.481373, Alt.=103.633850m. Speed=0.000000m/h.</desc>
<speed>0.000000</speed>
</trkpt>
<trkpt lat="56.064922" lon="26.481373">
<ele>103.633850</ele>
<time>2010-08-29T11:46:34Z</time>
<desc>lat.=56.064922, lon.=26.481373, Alt.=103.633850m. Speed=0.036000m/h.</desc>
<speed>0.010000</speed>
</trkpt>
<trkpt lat="56.064922" lon="26.481373">
<ele>103.633850</ele>
<time>2010-08-29T11:46:35Z</time>
<desc>lat.=56.064922, lon.=26.481373, Alt.=103.633850m. Speed=0.000000m/h.</desc>
<speed>0.000000</speed>
</trkpt>
<trkpt lat="56.064922" lon="26.481373">
<ele>103.631897</ele>
<time>2010-08-29T11:46:36Z</time>
<desc>lat.=56.064922, lon.=26.481373, Alt.=103.631897m. Speed=0.036000m/h.</desc>
<speed>0.010000</speed>
</trkpt>
<trkpt lat="56.064922" lon="26.481373">
<ele>103.633850</ele>
<time>2010-08-29T11:46:37Z</time>
<desc>lat.=56.064922, lon.=26.481373, Alt.=103.633850m. Speed=0.000000m/h.</desc>
<speed>0.000000</speed>
</trkpt>
<trkpt lat="56.064922" lon="26.481373">
<ele>103.633850</ele>
<time>2010-08-29T11:46:38Z</time>
<desc>lat.=56.064922, lon.=26.481373, Alt.=103.633850m. Speed=0.036000m/h.</desc>
<speed>0.010000</speed>
</trkpt>
<trkpt lat="56.064922" lon="26.481373">
<ele>103.637756</ele>
<time>2010-08-29T11:46:39Z</time>
<desc>lat.=56.064922, lon.=26.481373, Alt.=103.637756m. Speed=0.072000m/h.</desc>
<speed>0.020000</speed>
</trkpt>
<trkpt lat="56.064922" lon="26.481371">
<ele>103.637756</ele>
<time>2010-08-29T11:46:40Z</time>
<desc>lat.=56.064922, lon.=26.481371, Alt.=103.637756m. Speed=0.072000m/h.</desc>
<speed>0.020000</speed>
</trkpt>
<trkpt lat="56.064922" lon="26.481371">
<ele>103.641663</ele>
<time>2010-08-29T11:46:41Z</time>
<desc>lat.=56.064922, lon.=26.481371, Alt.=103.641663m. Speed=0.000000m/h.</desc>
<speed>0.000000</speed>
</trkpt>
<trkpt lat="56.064922" lon="26.481373">
<ele>103.647522</ele>
<time>2010-08-29T11:46:42Z</time>
<desc>lat.=56.064922, lon.=26.481373, Alt.=103.647522m. Speed=0.144000m/h.</desc>
<speed>0.040000</speed>
</trkpt>
<trkpt lat="56.064922" lon="26.481373">
<ele>103.655334</ele>
<time>2010-08-29T11:46:43Z</time>
<desc>lat.=56.064922, lon.=26.481373, Alt.=103.655334m. Speed=0.072000m/h.</desc>
<speed>0.020000</speed>
</trkpt>
<trkpt lat="56.064922" lon="26.481373">
<ele>103.663147</ele>
<time>2010-08-29T11:46:44Z</time>
<desc>lat.=56.064922, lon.=26.481373, Alt.=103.663147m. Speed=0.036000m/h.</desc>
<speed>0.010000</speed>
</trkpt>
<trkpt lat="56.064922" lon="26.481373">
<ele>103.669006</ele>
<time>2010-08-29T11:46:45Z</time>
<desc>lat.=56.064922, lon.=26.481373, Alt.=103.669006m. Speed=0.036000m/h.</desc>
<speed>0.010000</speed>
</trkpt>
<trkpt lat="56.064922" lon="26.481373">
<ele>103.672913</ele>
<time>2010-08-29T11:46:46Z</time>
<desc>lat.=56.064922, lon.=26.481373, Alt.=103.672913m. Speed=0.108000m/h.</desc>
<speed>0.030000</speed>
</trkpt>
<trkpt lat="56.064922" lon="26.481373">
<ele>103.678772</ele>
<time>2010-08-29T11:46:47Z</time>
<desc>lat.=56.064922, lon.=26.481373, Alt.=103.678772m. Speed=0.072000m/h.</desc>
<speed>0.020000</speed>
</trkpt>
<trkpt lat="56.064922" lon="26.481373">
<ele>103.682678</ele>
<time>2010-08-29T11:46:48Z</time>
<desc>lat.=56.064922, lon.=26.481373, Alt.=103.682678m. Speed=0.072000m/h.</desc>
<speed>0.020000</speed>
</trkpt>
<trkpt lat="56.064922" lon="26.481373">
<ele>103.682678</ele>
<time>2010-08-29T11:46:49Z</time>
<desc>lat.=56.064922, lon.=26.481373, Alt.=103.682678m. Speed=0.036000m/h.</desc>
<speed>0.010000</speed>
</trkpt>
<trkpt lat="56.064922" lon="26.481373">
<ele>103.682678</ele>
<time>2010-08-29T11:46:50Z</time>
<desc>lat.=56.064922, lon.=26.481373, Alt.=103.682678m. Speed=0.000000m/h.</desc>
<speed>0.000000</speed>
</trkpt>
<trkpt lat="56.064922" lon="26.481373">
<ele>103.686584</ele>
<time>2010-08-29T11:46:51Z</time>
<desc>lat.=56.064922, lon.=26.481373, Alt.=103.686584m. Speed=0.072000m/h.</desc>
<speed>0.020000</speed>
</trkpt>
<trkpt lat="56.064922" lon="26.481373">
<ele>103.690491</ele>
<time>2010-08-29T11:46:52Z</time>
<desc>lat.=56.064922, lon.=26.481373, Alt.=103.690491m. Speed=0.108000m/h.</desc>
<speed>0.030000</speed>
</trkpt>
<trkpt lat="56.064922" lon="26.481373">
<ele>103.692444</ele>
<time>2010-08-29T11:46:53Z</time>
<desc>lat.=56.064922, lon.=26.481373, Alt.=103.692444m. Speed=0.036000m/h.</desc>
<speed>0.010000</speed>
</trkpt>
<trkpt lat="56.064922" lon="26.481373">
<ele>103.698303</ele>
<time>2010-08-29T11:46:54Z</time>
<desc>lat.=56.064922, lon.=26.481373, Alt.=103.698303m. Speed=0.072000m/h.</desc>
<speed>0.020000</speed>
</trkpt>
<trkpt lat="56.064922" lon="26.481373">
<ele>103.702209</ele>
<time>2010-08-29T11:46:55Z</time>
<desc>lat.=56.064922, lon.=26.481373, Alt.=103.702209m. Speed=0.072000m/h.</desc>
<speed>0.020000</speed>
</trkpt>
<trkpt lat="56.064922" lon="26.481373">
<ele>103.702209</ele>
<time>2010-08-29T11:46:56Z</time>
<desc>lat.=56.064922, lon.=26.481373, Alt.=103.702209m. Speed=0.072000m/h.</desc>
<speed>0.020000</speed>
</trkpt>
<trkpt lat="56.064922" lon="26.481373">
<ele>103.702209</ele>
<time>2010-08-29T11:46:57Z</time>
<desc>lat.=56.064922, lon.=26.481373, Alt.=103.702209m. Speed=0.036000m/h.</desc>
<speed>0.010000</speed>
</trkpt>
<trkpt lat="56.064919" lon="26.481373">
<ele>103.706116</ele>
<time>2010-08-29T11:46:58Z</time>
<desc>lat.=56.064919, lon.=26.481373, Alt.=103.706116m. Speed=0.108000m/h.</desc>
<speed>0.030000</speed>
</trkpt>
<trkpt lat="56.064919" lon="26.481373">
<ele>103.713928</ele>
<time>2010-08-29T11:46:59Z</time>
<desc>lat.=56.064919, lon.=26.481373, Alt.=103.713928m. Speed=0.000000m/h.</desc>
<speed>0.000000</speed>
</trkpt>
<trkpt lat="56.064919" lon="26.481373">
<ele>103.721741</ele>
<time>2010-08-29T11:47:00Z</time>
<desc>lat.=56.064919, lon.=26.481373, Alt.=103.721741m. Speed=0.000000m/h.</desc>
<speed>0.000000</speed>
</trkpt>
<trkpt lat="56.064919" lon="26.481373">
<ele>103.723694</ele>
<time>2010-08-29T11:47:01Z</time>
<desc>lat.=56.064919, lon.=26.481373, Alt.=103.723694m. Speed=0.036000m/h.</desc>
<speed>0.010000</speed>
</trkpt>
<trkpt lat="56.064919" lon="26.481373">
<ele>103.727600</ele>
<time>2010-08-29T11:47:02Z</time>
<desc>lat.=56.064919, lon.=26.481373, Alt.=103.727600m. Speed=0.036000m/h.</desc>
<speed>0.010000</speed>
</trkpt>
<trkpt lat="56.064919" lon="26.481373">
<ele>103.731506</ele>
<time>2010-08-29T11:47:03Z</time>
<desc>lat.=56.064919, lon.=26.481373, Alt.=103.731506m. Speed=0.072000m/h.</desc>
<speed>0.020000</speed>
</trkpt>
<trkpt lat="56.064919" lon="26.481373">
<ele>103.735413</ele>
<time>2010-08-29T11:47:04Z</time>
<desc>lat.=56.064919, lon.=26.481373, Alt.=103.735413m. Speed=0.000000m/h.</desc>
<speed>0.000000</speed>
</trkpt>
<trkpt lat="56.064919" lon="26.481373">
<ele>103.733459</ele>
<time>2010-08-29T11:47:05Z</time>
<desc>lat.=56.064919, lon.=26.481373, Alt.=103.733459m. Speed=0.000000m/h.</desc>
<speed>0.000000</speed>
</trkpt>
<trkpt lat="56.064919" lon="26.481373">
<ele>103.733459</ele>
<time>2010-08-29T11:47:06Z</time>
<desc>lat.=56.064919, lon.=26.481373, Alt.=103.733459m. Speed=0.072000m/h.</desc>
<speed>0.020000</speed>
</trkpt>
<trkpt lat="56.064919" lon="26.481373">
<ele>103.729553</ele>
<time>2010-08-29T11:47:07Z</time>
<desc>lat.=56.064919, lon.=26.481373, Alt.=103.729553m. Speed=0.036000m/h.</desc>
<speed>0.010000</speed>
</trkpt>
<trkpt lat="56.064919" lon="26.481373">
<ele>103.727600</ele>
<time>2010-08-29T11:47:08Z</time>
<desc>lat.=56.064919, lon.=26.481373, Alt.=103.727600m. Speed=0.036000m/h.</desc>
<speed>0.010000</speed>
</trkpt>
<trkpt lat="56.064919" lon="26.481373">
<ele>103.725647</ele>
<time>2010-08-29T11:47:09Z</time>
<desc>lat.=56.064919, lon.=26.481373, Alt.=103.725647m. Speed=0.036000m/h.</desc>
<speed>0.010000</speed>
</trkpt>
<trkpt lat="56.064919" lon="26.481373">
<ele>103.725647</ele>
<time>2010-08-29T11:47:10Z</time>
<desc>lat.=56.064919, lon.=26.481373, Alt.=103.725647m. Speed=0.000000m/h.</desc>
<speed>0.000000</speed>
</trkpt>
<trkpt lat="56.064919" lon="26.481373">
<ele>103.719788</ele>
<time>2010-08-29T11:47:11Z</time>
<desc>lat.=56.064919, lon.=26.481373, Alt.=103.719788m. Speed=0.036000m/h.</desc>
<speed>0.010000</speed>
</trkpt>
<trkpt lat="56.064919" lon="26.481373">
<ele>103.719788</ele>
<time>2010-08-29T11:47:12Z</time>
<desc>lat.=56.064919, lon.=26.481373, Alt.=103.719788m. Speed=0.000000m/h.</desc>
<speed>0.000000</speed>
</trkpt>
<trkpt lat="56.064919" lon="26.481373">
<ele>103.725647</ele>
<time>2010-08-29T11:47:13Z</time>
<desc>lat.=56.064919, lon.=26.481373, Alt.=103.725647m. Speed=0.036000m/h.</desc>
<speed>0.010000</speed>
</trkpt>
<trkpt lat="56.064919" lon="26.481373">
<ele>103.721741</ele>
<time>2010-08-29T11:47:14Z</time>
<desc>lat.=56.064919, lon.=26.481373, Alt.=103.721741m. Speed=0.000000m/h.</desc>
<speed>0.000000</speed>
</trkpt>
<trkpt lat="56.064919" lon="26.481373">
<ele>103.725647</ele>
<time>2010-08-29T11:47:15Z</time>
<desc>lat.=56.064919, lon.=26.481373, Alt.=103.725647m. Speed=0.036000m/h.</desc>
<speed>0.010000</speed>
</trkpt>
<trkpt lat="56.064919" lon="26.481373">
<ele>103.725647</ele>
<time>2010-08-29T11:47:16Z</time>
<desc>lat.=56.064919, lon.=26.481373, Alt.=103.725647m. Speed=0.000000m/h.</desc>
<speed>0.000000</speed>
</trkpt>
<trkpt lat="56.064919" lon="26.481373">
<ele>103.729553</ele>
<time>2010-08-29T11:47:17Z</time>
<desc>lat.=56.064919, lon.=26.481373, Alt.=103.729553m. Speed=0.036000m/h.</desc>
<speed>0.010000</speed>
</trkpt>
<trkpt lat="56.064919" lon="26.481373">
<ele>103.729553</ele>
<time>2010-08-29T11:47:18Z</time>
<desc>lat.=56.064919, lon.=26.481373, Alt.=103.729553m. Speed=0.036000m/h.</desc>
<speed>0.010000</speed>
</trkpt>
<trkpt lat="56.064919" lon="26.481373">
<ele>103.725647</ele>
<time>2010-08-29T11:47:19Z</time>
<desc>lat.=56.064919, lon.=26.481373, Alt.=103.725647m. Speed=0.072000m/h.</desc>
<speed>0.020000</speed>
</trkpt>
<trkpt lat="56.064919" lon="26.481373">
<ele>103.721741</ele>
<time>2010-08-29T11:47:20Z</time>
<desc>lat.=56.064919, lon.=26.481373, Alt.=103.721741m. Speed=0.000000m/h.</desc>
<speed>0.000000</speed>
</trkpt>
<trkpt lat="56.064919" lon="26.481373">
<ele>103.719788</ele>
<time>2010-08-29T11:47:21Z</time>
<desc>lat.=56.064919, lon.=26.481373, Alt.=103.719788m. Speed=0.000000m/h.</desc>
<speed>0.000000</speed>
</trkpt>
<trkpt lat="56.064919" lon="26.481373">
<ele>103.713928</ele>
<time>2010-08-29T11:47:22Z</time>
<desc>lat.=56.064919, lon.=26.481373, Alt.=103.713928m. Speed=0.036000m/h.</desc>
<speed>0.010000</speed>
</trkpt>
<trkpt lat="56.064919" lon="26.481373">
<ele>103.711975</ele>
<time>2010-08-29T11:47:23Z</time>
<desc>lat.=56.064919, lon.=26.481373, Alt.=103.711975m. Speed=0.000000m/h.</desc>
<speed>0.000000</speed>
</trkpt>
<trkpt lat="56.064919" lon="26.481373">
<ele>103.717834</ele>
<time>2010-08-29T11:47:24Z</time>
<desc>lat.=56.064919, lon.=26.481373, Alt.=103.717834m. Speed=0.036000m/h.</desc>
<speed>0.010000</speed>
</trkpt>
<trkpt lat="56.064919" lon="26.481373">
<ele>103.717834</ele>
<time>2010-08-29T11:47:25Z</time>
<desc>lat.=56.064919, lon.=26.481373, Alt.=103.717834m. Speed=0.000000m/h.</desc>
<speed>0.000000</speed>
</trkpt>
<trkpt lat="56.064919" lon="26.481373">
<ele>103.723694</ele>
<time>2010-08-29T11:47:26Z</time>
<desc>lat.=56.064919, lon.=26.481373, Alt.=103.723694m. Speed=0.000000m/h.</desc>
<speed>0.000000</speed>
</trkpt>
<trkpt lat="56.064919" lon="26.481373">
<ele>103.725647</ele>
<time>2010-08-29T11:47:27Z</time>
<desc>lat.=56.064919, lon.=26.481373, Alt.=103.725647m. Speed=0.000000m/h.</desc>
<speed>0.000000</speed>
</trkpt>
<trkpt lat="56.064919" lon="26.481373">
<ele>103.721741</ele>
<time>2010-08-29T11:47:28Z</time>
<desc>lat.=56.064919, lon.=26.481373, Alt.=103.721741m. Speed=0.036000m/h.</desc>
<speed>0.010000</speed>
</trkpt>
<trkpt lat="56.064919" lon="26.481373">
<ele>103.719788</ele>
<time>2010-08-29T11:47:29Z</time>
<desc>lat.=56.064919, lon.=26.481373, Alt.=103.719788m. Speed=0.000000m/h.</desc>
<speed>0.000000</speed>
</trkpt>
<trkpt lat="56.064919" lon="26.481373">
<ele>103.717834</ele>
<time>2010-08-29T11:47:30Z</time>
<desc>lat.=56.064919, lon.=26.481373, Alt.=103.717834m. Speed=0.000000m/h.</desc>
<speed>0.000000</speed>
</trkpt>
<trkpt lat="56.064919" lon="26.481373">
<ele>103.719788</ele>
<time>2010-08-29T11:47:31Z</time>
<desc>lat.=56.064919, lon.=26.481373, Alt.=103.719788m. Speed=0.000000m/h.</desc>
<speed>0.000000</speed>
</trkpt>
<trkpt lat="56.064919" lon="26.481375">
<ele>103.717834</ele>
<time>2010-08-29T11:47:32Z</time>
<desc>lat.=56.064919, lon.=26.481375, Alt.=103.717834m. Speed=0.000000m/h.</desc>
<speed>0.000000</speed>
</trkpt>
<trkpt lat="56.064919" lon="26.481375">
<ele>103.719788</ele>
<time>2010-08-29T11:47:33Z</time>
<desc>lat.=56.064919, lon.=26.481375, Alt.=103.719788m. Speed=0.000000m/h.</desc>
<speed>0.000000</speed>
</trkpt>
<trkpt lat="56.064919" lon="26.481375">
<ele>103.719788</ele>
<time>2010-08-29T11:47:34Z</time>
<desc>lat.=56.064919, lon.=26.481375, Alt.=103.719788m. Speed=0.036000m/h.</desc>
<speed>0.010000</speed>
</trkpt>
<trkpt lat="56.064919" lon="26.481375">
<ele>103.717834</ele>
<time>2010-08-29T11:47:35Z</time>
<desc>lat.=56.064919, lon.=26.481375, Alt.=103.717834m. Speed=0.072000m/h.</desc>
<speed>0.020000</speed>
</trkpt>
<trkpt lat="56.064919" lon="26.481375">
<ele>103.717834</ele>
<time>2010-08-29T11:47:36Z</time>
<desc>lat.=56.064919, lon.=26.481375, Alt.=103.717834m. Speed=0.036000m/h.</desc>
<speed>0.010000</speed>
</trkpt>
<trkpt lat="56.064919" lon="26.481375">
<ele>103.725647</ele>
<time>2010-08-29T11:47:37Z</time>
<desc>lat.=56.064919, lon.=26.481375, Alt.=103.725647m. Speed=0.036000m/h.</desc>
<speed>0.010000</speed>
</trkpt>
<trkpt lat="56.064919" lon="26.481375">
<ele>103.733459</ele>
<time>2010-08-29T11:47:38Z</time>
<desc>lat.=56.064919, lon.=26.481375, Alt.=103.733459m. Speed=0.036000m/h.</desc>
<speed>0.010000</speed>
</trkpt>
<trkpt lat="56.064919" lon="26.481375">
<ele>103.735413</ele>
<time>2010-08-29T11:47:39Z</time>
<desc>lat.=56.064919, lon.=26.481375, Alt.=103.735413m. Speed=0.072000m/h.</desc>
<speed>0.020000</speed>
</trkpt>
<trkpt lat="56.064919" lon="26.481375">
<ele>103.739319</ele>
<time>2010-08-29T11:47:40Z</time>
<desc>lat.=56.064919, lon.=26.481375, Alt.=103.739319m. Speed=0.036000m/h.</desc>
<speed>0.010000</speed>
</trkpt>
<trkpt lat="56.064919" lon="26.481375">
<ele>103.739319</ele>
<time>2010-08-29T11:47:41Z</time>
<desc>lat.=56.064919, lon.=26.481375, Alt.=103.739319m. Speed=0.000000m/h.</desc>
<speed>0.000000</speed>
</trkpt>
<trkpt lat="56.064919" lon="26.481375">
<ele>103.741272</ele>
<time>2010-08-29T11:47:42Z</time>
<desc>lat.=56.064919, lon.=26.481375, Alt.=103.741272m. Speed=0.072000m/h.</desc>
<speed>0.020000</speed>
</trkpt>
<trkpt lat="56.064919" lon="26.481375">
<ele>103.741272</ele>
<time>2010-08-29T11:47:43Z</time>
<desc>lat.=56.064919, lon.=26.481375, Alt.=103.741272m. Speed=0.000000m/h.</desc>
<speed>0.000000</speed>
</trkpt>
<trkpt lat="56.064919" lon="26.481375">
<ele>103.743225</ele>
<time>2010-08-29T11:47:44Z</time>
<desc>lat.=56.064919, lon.=26.481375, Alt.=103.743225m. Speed=0.036000m/h.</desc>
<speed>0.010000</speed>
</trkpt>
<trkpt lat="56.064919" lon="26.481375">
<ele>103.741272</ele>
<time>2010-08-29T11:47:45Z</time>
<desc>lat.=56.064919, lon.=26.481375, Alt.=103.741272m. Speed=0.000000m/h.</desc>
<speed>0.000000</speed>
</trkpt>
<trkpt lat="56.064919" lon="26.481375">
<ele>103.743225</ele>
<time>2010-08-29T11:47:46Z</time>
<desc>lat.=56.064919, lon.=26.481375, Alt.=103.743225m. Speed=0.036000m/h.</desc>
<speed>0.010000</speed>
</trkpt>
<trkpt lat="56.064919" lon="26.481375">
<ele>103.749084</ele>
<time>2010-08-29T11:47:47Z</time>
<desc>lat.=56.064919, lon.=26.481375, Alt.=103.749084m. Speed=0.036000m/h.</desc>
<speed>0.010000</speed>
</trkpt>
<trkpt lat="56.064919" lon="26.481377">
<ele>103.752991</ele>
<time>2010-08-29T11:47:48Z</time>
<desc>lat.=56.064919, lon.=26.481377, Alt.=103.752991m. Speed=0.036000m/h.</desc>
<speed>0.010000</speed>
</trkpt>
<trkpt lat="56.064919" lon="26.481377">
<ele>103.749084</ele>
<time>2010-08-29T11:47:49Z</time>
<desc>lat.=56.064919, lon.=26.481377, Alt.=103.749084m. Speed=0.000000m/h.</desc>
<speed>0.000000</speed>
</trkpt>
<trkpt lat="56.064919" lon="26.481377">
<ele>103.745178</ele>
<time>2010-08-29T11:47:50Z</time>
<desc>lat.=56.064919, lon.=26.481377, Alt.=103.745178m. Speed=0.000000m/h.</desc>
<speed>0.000000</speed>
</trkpt>
<trkpt lat="56.064919" lon="26.481377">
<ele>103.743225</ele>
<time>2010-08-29T11:47:51Z</time>
<desc>lat.=56.064919, lon.=26.481377, Alt.=103.743225m. Speed=0.072000m/h.</desc>
<speed>0.020000</speed>
</trkpt>
<trkpt lat="56.064919" lon="26.481377">
<ele>103.741272</ele>
<time>2010-08-29T11:47:52Z</time>
<desc>lat.=56.064919, lon.=26.481377, Alt.=103.741272m. Speed=0.036000m/h.</desc>
<speed>0.010000</speed>
</trkpt>
<trkpt lat="56.064919" lon="26.481377">
<ele>103.739319</ele>
<time>2010-08-29T11:47:53Z</time>
<desc>lat.=56.064919, lon.=26.481377, Alt.=103.739319m. Speed=0.036000m/h.</desc>
<speed>0.010000</speed>
</trkpt>
<trkpt lat="56.064919" lon="26.481377">
<ele>103.739319</ele>
<time>2010-08-29T11:47:54Z</time>
<desc>lat.=56.064919, lon.=26.481377, Alt.=103.739319m. Speed=0.072000m/h.</desc>
<speed>0.020000</speed>
</trkpt>
<trkpt lat="56.064919" lon="26.481377">
<ele>103.739319</ele>
<time>2010-08-29T11:47:55Z</time>
<desc>lat.=56.064919, lon.=26.481377, Alt.=103.739319m. Speed=0.072000m/h.</desc>
<speed>0.020000</speed>
</trkpt>
<trkpt lat="56.064919" lon="26.481377">
<ele>103.737366</ele>
<time>2010-08-29T11:47:56Z</time>
<desc>lat.=56.064919, lon.=26.481377, Alt.=103.737366m. Speed=0.000000m/h.</desc>
<speed>0.000000</speed>
</trkpt>
<trkpt lat="56.064919" lon="26.481377">
<ele>103.737366</ele>
<time>2010-08-29T11:47:57Z</time>
<desc>lat.=56.064919, lon.=26.481377, Alt.=103.737366m. Speed=0.036000m/h.</desc>
<speed>0.010000</speed>
</trkpt>
<trkpt lat="56.064919" lon="26.481377">
<ele>103.733459</ele>
<time>2010-08-29T11:47:58Z</time>
<desc>lat.=56.064919, lon.=26.481377, Alt.=103.733459m. Speed=0.000000m/h.</desc>
<speed>0.000000</speed>
</trkpt>
<trkpt lat="56.064919" lon="26.481377">
<ele>103.733459</ele>
<time>2010-08-29T11:47:59Z</time>
<desc>lat.=56.064919, lon.=26.481377, Alt.=103.733459m. Speed=0.072000m/h.</desc>
<speed>0.020000</speed>
</trkpt>
<trkpt lat="56.064919" lon="26.481377">
<ele>103.733459</ele>
<time>2010-08-29T11:48:00Z</time>
<desc>lat.=56.064919, lon.=26.481377, Alt.=103.733459m. Speed=0.036000m/h.</desc>
<speed>0.010000</speed>
</trkpt>
<trkpt lat="56.064919" lon="26.481377">
<ele>103.735413</ele>
<time>2010-08-29T11:48:01Z</time>
<desc>lat.=56.064919, lon.=26.481377, Alt.=103.735413m. Speed=0.036000m/h.</desc>
<speed>0.010000</speed>
</trkpt>
<trkpt lat="56.064919" lon="26.481377">
<ele>103.733459</ele>
<time>2010-08-29T11:48:02Z</time>
<desc>lat.=56.064919, lon.=26.481377, Alt.=103.733459m. Speed=0.108000m/h.</desc>
<speed>0.030000</speed>
</trkpt>
<trkpt lat="56.064919" lon="26.481377">
<ele>103.729553</ele>
<time>2010-08-29T11:48:03Z</time>
<desc>lat.=56.064919, lon.=26.481377, Alt.=103.729553m. Speed=0.000000m/h.</desc>
<speed>0.000000</speed>
</trkpt>
<trkpt lat="56.064919" lon="26.481377">
<ele>103.731506</ele>
<time>2010-08-29T11:48:04Z</time>
<desc>lat.=56.064919, lon.=26.481377, Alt.=103.731506m. Speed=0.000000m/h.</desc>
<speed>0.000000</speed>
</trkpt>
<trkpt lat="56.064919" lon="26.481377">
<ele>103.731506</ele>
<time>2010-08-29T11:48:05Z</time>
<desc>lat.=56.064919, lon.=26.481377, Alt.=103.731506m. Speed=0.036000m/h.</desc>
<speed>0.010000</speed>
</trkpt>
<trkpt lat="56.064919" lon="26.481377">
<ele>103.737366</ele>
<time>2010-08-29T11:48:06Z</time>
<desc>lat.=56.064919, lon.=26.481377, Alt.=103.737366m. Speed=0.000000m/h.</desc>
<speed>0.000000</speed>
</trkpt>
<trkpt lat="56.064919" lon="26.481377">
<ele>103.741272</ele>
<time>2010-08-29T11:48:07Z</time>
<desc>lat.=56.064919, lon.=26.481377, Alt.=103.741272m. Speed=0.000000m/h.</desc>
<speed>0.000000</speed>
</trkpt>
<trkpt lat="56.064919" lon="26.481377">
<ele>103.747131</ele>
<time>2010-08-29T11:48:08Z</time>
<desc>lat.=56.064919, lon.=26.481377, Alt.=103.747131m. Speed=0.036000m/h.</desc>
<speed>0.010000</speed>
</trkpt>
<trkpt lat="56.064919" lon="26.481377">
<ele>103.751038</ele>
<time>2010-08-29T11:48:09Z</time>
<desc>lat.=56.064919, lon.=26.481377, Alt.=103.751038m. Speed=0.036000m/h.</desc>
<speed>0.010000</speed>
</trkpt>
<trkpt lat="56.064919" lon="26.481377">
<ele>103.760803</ele>
<time>2010-08-29T11:48:10Z</time>
<desc>lat.=56.064919, lon.=26.481377, Alt.=103.760803m. Speed=0.036000m/h.</desc>
<speed>0.010000</speed>
</trkpt>
<trkpt lat="56.064919" lon="26.481377">
<ele>103.762756</ele>
<time>2010-08-29T11:48:11Z</time>
<desc>lat.=56.064919, lon.=26.481377, Alt.=103.762756m. Speed=0.000000m/h.</desc>
<speed>0.000000</speed>
</trkpt>
<trkpt lat="56.064919" lon="26.481377">
<ele>103.770569</ele>
<time>2010-08-29T11:48:12Z</time>
<desc>lat.=56.064919, lon.=26.481377, Alt.=103.770569m. Speed=0.000000m/h.</desc>
<speed>0.000000</speed>
</trkpt>
<trkpt lat="56.064919" lon="26.481377">
<ele>103.784241</ele>
<time>2010-08-29T11:48:13Z</time>
<desc>lat.=56.064919, lon.=26.481377, Alt.=103.784241m. Speed=0.036000m/h.</desc>
<speed>0.010000</speed>
</trkpt>
<trkpt lat="56.064919" lon="26.481377">
<ele>103.794006</ele>
<time>2010-08-29T11:48:14Z</time>
<desc>lat.=56.064919, lon.=26.481377, Alt.=103.794006m. Speed=0.000000m/h.</desc>
<speed>0.000000</speed>
</trkpt>
<trkpt lat="56.064919" lon="26.481377">
<ele>103.805725</ele>
<time>2010-08-29T11:48:15Z</time>
<desc>lat.=56.064919, lon.=26.481377, Alt.=103.805725m. Speed=0.072000m/h.</desc>
<speed>0.020000</speed>
</trkpt>
<trkpt lat="56.064919" lon="26.481377">
<ele>103.809631</ele>
<time>2010-08-29T11:48:16Z</time>
<desc>lat.=56.064919, lon.=26.481377, Alt.=103.809631m. Speed=0.036000m/h.</desc>
<speed>0.010000</speed>
</trkpt>
<trkpt lat="56.064919" lon="26.481379">
<ele>103.815491</ele>
<time>2010-08-29T11:48:17Z</time>
<desc>lat.=56.064919, lon.=26.481379, Alt.=103.815491m. Speed=0.036000m/h.</desc>
<speed>0.010000</speed>
</trkpt>
<trkpt lat="56.064919" lon="26.481379">
<ele>103.825256</ele>
<time>2010-08-29T11:48:18Z</time>
<desc>lat.=56.064919, lon.=26.481379, Alt.=103.825256m. Speed=0.036000m/h.</desc>
<speed>0.010000</speed>
</trkpt>
<trkpt lat="56.064919" lon="26.481379">
<ele>103.836975</ele>
<time>2010-08-29T11:48:19Z</time>
<desc>lat.=56.064919, lon.=26.481379, Alt.=103.836975m. Speed=0.036000m/h.</desc>
<speed>0.010000</speed>
</trkpt>
<trkpt lat="56.064919" lon="26.481379">
<ele>103.842834</ele>
<time>2010-08-29T11:48:20Z</time>
<desc>lat.=56.064919, lon.=26.481379, Alt.=103.842834m. Speed=0.036000m/h.</desc>
<speed>0.010000</speed>
</trkpt>
<trkpt lat="56.064919" lon="26.481379">
<ele>103.850647</ele>
<time>2010-08-29T11:48:21Z</time>
<desc>lat.=56.064919, lon.=26.481379, Alt.=103.850647m. Speed=0.000000m/h.</desc>
<speed>0.000000</speed>
</trkpt>
<trkpt lat="56.064919" lon="26.481379">
<ele>103.858459</ele>
<time>2010-08-29T11:48:22Z</time>
<desc>lat.=56.064919, lon.=26.481379, Alt.=103.858459m. Speed=0.036000m/h.</desc>
<speed>0.010000</speed>
</trkpt>
<trkpt lat="56.064919" lon="26.481379">
<ele>103.868225</ele>
<time>2010-08-29T11:48:23Z</time>
<desc>lat.=56.064919, lon.=26.481379, Alt.=103.868225m. Speed=0.000000m/h.</desc>
<speed>0.000000</speed>
</trkpt>
<trkpt lat="56.064919" lon="26.481379">
<ele>103.877991</ele>
<time>2010-08-29T11:48:24Z</time>
<desc>lat.=56.064919, lon.=26.481379, Alt.=103.877991m. Speed=0.000000m/h.</desc>
<speed>0.000000</speed>
</trkpt>
<trkpt lat="56.064919" lon="26.481379">
<ele>103.885803</ele>
<time>2010-08-29T11:48:25Z</time>
<desc>lat.=56.064919, lon.=26.481379, Alt.=103.885803m. Speed=0.036000m/h.</desc>
<speed>0.010000</speed>
</trkpt>
<trkpt lat="56.064919" lon="26.481379">
<ele>103.893616</ele>
<time>2010-08-29T11:48:26Z</time>
<desc>lat.=56.064919, lon.=26.481379, Alt.=103.893616m. Speed=0.000000m/h.</desc>
<speed>0.000000</speed>
</trkpt>
<trkpt lat="56.064919" lon="26.481379">
<ele>103.901428</ele>
<time>2010-08-29T11:48:27Z</time>
<desc>lat.=56.064919, lon.=26.481379, Alt.=103.901428m. Speed=0.072000m/h.</desc>
<speed>0.020000</speed>
</trkpt>
<trkpt lat="56.064919" lon="26.481379">
<ele>103.911194</ele>
<time>2010-08-29T11:48:28Z</time>
<desc>lat.=56.064919, lon.=26.481379, Alt.=103.911194m. Speed=0.036000m/h.</desc>
<speed>0.010000</speed>
</trkpt>
<trkpt lat="56.064919" lon="26.481379">
<ele>103.915100</ele>
<time>2010-08-29T11:48:29Z</time>
<desc>lat.=56.064919, lon.=26.481379, Alt.=103.915100m. Speed=0.036000m/h.</desc>
<speed>0.010000</speed>
</trkpt>
<trkpt lat="56.064919" lon="26.481379">
<ele>103.920959</ele>
<time>2010-08-29T11:48:30Z</time>
<desc>lat.=56.064919, lon.=26.481379, Alt.=103.920959m. Speed=0.036000m/h.</desc>
<speed>0.010000</speed>
</trkpt>
<trkpt lat="56.064919" lon="26.481379">
<ele>103.926819</ele>
<time>2010-08-29T11:48:31Z</time>
<desc>lat.=56.064919, lon.=26.481379, Alt.=103.926819m. Speed=0.036000m/h.</desc>
<speed>0.010000</speed>
</trkpt>
<trkpt lat="56.064919" lon="26.481379">
<ele>103.930725</ele>
<time>2010-08-29T11:48:32Z</time>
<desc>lat.=56.064919, lon.=26.481379, Alt.=103.930725m. Speed=0.000000m/h.</desc>
<speed>0.000000</speed>
</trkpt>
<trkpt lat="56.064919" lon="26.481379">
<ele>103.934631</ele>
<time>2010-08-29T11:48:33Z</time>
<desc>lat.=56.064919, lon.=26.481379, Alt.=103.934631m. Speed=0.000000m/h.</desc>
<speed>0.000000</speed>
</trkpt>
<trkpt lat="56.064919" lon="26.481379">
<ele>103.934631</ele>
<time>2010-08-29T11:48:34Z</time>
<desc>lat.=56.064919, lon.=26.481379, Alt.=103.934631m. Speed=0.036000m/h.</desc>
<speed>0.010000</speed>
</trkpt>
<trkpt lat="56.064919" lon="26.481379">
<ele>103.936584</ele>
<time>2010-08-29T11:48:35Z</time>
<desc>lat.=56.064919, lon.=26.481379, Alt.=103.936584m. Speed=0.072000m/h.</desc>
<speed>0.020000</speed>
</trkpt>
<trkpt lat="56.064919" lon="26.481379">
<ele>103.938538</ele>
<time>2010-08-29T11:48:36Z</time>
<desc>lat.=56.064919, lon.=26.481379, Alt.=103.938538m. Speed=0.036000m/h.</desc>
<speed>0.010000</speed>
</trkpt>
<trkpt lat="56.064919" lon="26.481379">
<ele>103.940491</ele>
<time>2010-08-29T11:48:37Z</time>
<desc>lat.=56.064919, lon.=26.481379, Alt.=103.940491m. Speed=0.036000m/h.</desc>
<speed>0.010000</speed>
</trkpt>
<trkpt lat="56.064919" lon="26.481379">
<ele>103.946350</ele>
<time>2010-08-29T11:48:38Z</time>
<desc>lat.=56.064919, lon.=26.481379, Alt.=103.946350m. Speed=0.000000m/h.</desc>
<speed>0.000000</speed>
</trkpt>
<trkpt lat="56.064919" lon="26.481379">
<ele>103.954163</ele>
<time>2010-08-29T11:48:39Z</time>
<desc>lat.=56.064919, lon.=26.481379, Alt.=103.954163m. Speed=0.000000m/h.</desc>
<speed>0.000000</speed>
</trkpt>
<trkpt lat="56.064919" lon="26.481379">
<ele>103.961975</ele>
<time>2010-08-29T11:48:40Z</time>
<desc>lat.=56.064919, lon.=26.481379, Alt.=103.961975m. Speed=0.036000m/h.</desc>
<speed>0.010000</speed>
</trkpt>
<trkpt lat="56.064919" lon="26.481379">
<ele>103.965881</ele>
<time>2010-08-29T11:48:41Z</time>
<desc>lat.=56.064919, lon.=26.481379, Alt.=103.965881m. Speed=0.036000m/h.</desc>
<speed>0.010000</speed>
</trkpt>
<trkpt lat="56.064919" lon="26.481379">
<ele>103.965881</ele>
<time>2010-08-29T11:48:42Z</time>
<desc>lat.=56.064919, lon.=26.481379, Alt.=103.965881m. Speed=0.036000m/h.</desc>
<speed>0.010000</speed>
</trkpt>
<trkpt lat="56.064919" lon="26.481379">
<ele>103.971741</ele>
<time>2010-08-29T11:48:43Z</time>
<desc>lat.=56.064919, lon.=26.481379, Alt.=103.971741m. Speed=0.036000m/h.</desc>
<speed>0.010000</speed>
</trkpt>
<trkpt lat="56.064919" lon="26.481379">
<ele>103.979553</ele>
<time>2010-08-29T11:48:44Z</time>
<desc>lat.=56.064919, lon.=26.481379, Alt.=103.979553m. Speed=0.072000m/h.</desc>
<speed>0.020000</speed>
</trkpt>
<trkpt lat="56.064919" lon="26.481380">
<ele>103.987366</ele>
<time>2010-08-29T11:48:45Z</time>
<desc>lat.=56.064919, lon.=26.481380, Alt.=103.987366m. Speed=0.108000m/h.</desc>
<speed>0.030000</speed>
</trkpt>
<trkpt lat="56.064919" lon="26.481380">
<ele>103.997131</ele>
<time>2010-08-29T11:48:46Z</time>
<desc>lat.=56.064919, lon.=26.481380, Alt.=103.997131m. Speed=0.036000m/h.</desc>
<speed>0.010000</speed>
</trkpt>
<trkpt lat="56.064919" lon="26.481380">
<ele>104.006897</ele>
<time>2010-08-29T11:48:47Z</time>
<desc>lat.=56.064919, lon.=26.481380, Alt.=104.006897m. Speed=0.036000m/h.</desc>
<speed>0.010000</speed>
</trkpt>
<trkpt lat="56.064919" lon="26.481380">
<ele>104.014709</ele>
<time>2010-08-29T11:48:48Z</time>
<desc>lat.=56.064919, lon.=26.481380, Alt.=104.014709m. Speed=0.036000m/h.</desc>
<speed>0.010000</speed>
</trkpt>
<trkpt lat="56.064919" lon="26.481380">
<ele>104.024475</ele>
<time>2010-08-29T11:48:49Z</time>
<desc>lat.=56.064919, lon.=26.481380, Alt.=104.024475m. Speed=0.036000m/h.</desc>
<speed>0.010000</speed>
</trkpt>
<trkpt lat="56.064919" lon="26.481380">
<ele>104.030334</ele>
<time>2010-08-29T11:48:50Z</time>
<desc>lat.=56.064919, lon.=26.481380, Alt.=104.030334m. Speed=0.108000m/h.</desc>
<speed>0.030000</speed>
</trkpt>
<trkpt lat="56.064919" lon="26.481380">
<ele>104.042053</ele>
<time>2010-08-29T11:48:51Z</time>
<desc>lat.=56.064919, lon.=26.481380, Alt.=104.042053m. Speed=0.036000m/h.</desc>
<speed>0.010000</speed>
</trkpt>
<trkpt lat="56.064919" lon="26.481380">
<ele>104.049866</ele>
<time>2010-08-29T11:48:52Z</time>
<desc>lat.=56.064919, lon.=26.481380, Alt.=104.049866m. Speed=0.072000m/h.</desc>
<speed>0.020000</speed>
</trkpt>
<trkpt lat="56.064919" lon="26.481380">
<ele>104.059631</ele>
<time>2010-08-29T11:48:53Z</time>
<desc>lat.=56.064919, lon.=26.481380, Alt.=104.059631m. Speed=0.108000m/h.</desc>
<speed>0.030000</speed>
</trkpt>
<trkpt lat="56.064919" lon="26.481380">
<ele>104.075256</ele>
<time>2010-08-29T11:48:54Z</time>
<desc>lat.=56.064919, lon.=26.481380, Alt.=104.075256m. Speed=0.180000m/h.</desc>
<speed>0.050000</speed>
</trkpt>
<trkpt lat="56.064919" lon="26.481382">
<ele>104.086975</ele>
<time>2010-08-29T11:48:55Z</time>
<desc>lat.=56.064919, lon.=26.481382, Alt.=104.086975m. Speed=0.108000m/h.</desc>
<speed>0.030000</speed>
</trkpt>
<trkpt lat="56.064919" lon="26.481382">
<ele>104.094788</ele>
<time>2010-08-29T11:48:56Z</time>
<desc>lat.=56.064919, lon.=26.481382, Alt.=104.094788m. Speed=0.216000m/h.</desc>
<speed>0.060000</speed>
</trkpt>
<trkpt lat="56.064919" lon="26.481382">
<ele>104.100647</ele>
<time>2010-08-29T11:48:57Z</time>
<desc>lat.=56.064919, lon.=26.481382, Alt.=104.100647m. Speed=0.108000m/h.</desc>
<speed>0.030000</speed>
</trkpt>
<trkpt lat="56.064919" lon="26.481382">
<ele>104.110413</ele>
<time>2010-08-29T11:48:58Z</time>
<desc>lat.=56.064919, lon.=26.481382, Alt.=104.110413m. Speed=0.252000m/h.</desc>
<speed>0.070000</speed>
</trkpt>
<trkpt lat="56.064919" lon="26.481382">
<ele>104.114319</ele>
<time>2010-08-29T11:48:59Z</time>
<desc>lat.=56.064919, lon.=26.481382, Alt.=104.114319m. Speed=0.072000m/h.</desc>
<speed>0.020000</speed>
</trkpt>
<trkpt lat="56.064919" lon="26.481382">
<ele>104.118225</ele>
<time>2010-08-29T11:49:00Z</time>
<desc>lat.=56.064919, lon.=26.481382, Alt.=104.118225m. Speed=0.072000m/h.</desc>
<speed>0.020000</speed>
</trkpt>
<trkpt lat="56.064919" lon="26.481382">
<ele>104.124084</ele>
<time>2010-08-29T11:49:01Z</time>
<desc>lat.=56.064919, lon.=26.481382, Alt.=104.124084m. Speed=0.072000m/h.</desc>
<speed>0.020000</speed>
</trkpt>
<trkpt lat="56.064919" lon="26.481384">
<ele>104.122131</ele>
<time>2010-08-29T11:49:02Z</time>
<desc>lat.=56.064919, lon.=26.481384, Alt.=104.122131m. Speed=0.180000m/h.</desc>
<speed>0.050000</speed>
</trkpt>
<trkpt lat="56.064919" lon="26.481384">
<ele>104.120178</ele>
<time>2010-08-29T11:49:03Z</time>
<desc>lat.=56.064919, lon.=26.481384, Alt.=104.120178m. Speed=0.108000m/h.</desc>
<speed>0.030000</speed>
</trkpt>
<trkpt lat="56.064919" lon="26.481384">
<ele>104.124084</ele>
<time>2010-08-29T11:49:04Z</time>
<desc>lat.=56.064919, lon.=26.481384, Alt.=104.124084m. Speed=0.108000m/h.</desc>
<speed>0.030000</speed>
</trkpt>
<trkpt lat="56.064919" lon="26.481384">
<ele>104.126038</ele>
<time>2010-08-29T11:49:05Z</time>
<desc>lat.=56.064919, lon.=26.481384, Alt.=104.126038m. Speed=0.108000m/h.</desc>
<speed>0.030000</speed>
</trkpt>
<trkpt lat="56.064919" lon="26.481384">
<ele>104.126038</ele>
<time>2010-08-29T11:49:06Z</time>
<desc>lat.=56.064919, lon.=26.481384, Alt.=104.126038m. Speed=0.036000m/h.</desc>
<speed>0.010000</speed>
</trkpt>
<trkpt lat="56.064919" lon="26.481384">
<ele>104.120178</ele>
<time>2010-08-29T11:49:07Z</time>
<desc>lat.=56.064919, lon.=26.481384, Alt.=104.120178m. Speed=0.036000m/h.</desc>
<speed>0.010000</speed>
</trkpt>
<trkpt lat="56.064919" lon="26.481384">
<ele>104.122131</ele>
<time>2010-08-29T11:49:08Z</time>
<desc>lat.=56.064919, lon.=26.481384, Alt.=104.122131m. Speed=0.108000m/h.</desc>
<speed>0.030000</speed>
</trkpt>
<trkpt lat="56.064919" lon="26.481384">
<ele>104.124084</ele>
<time>2010-08-29T11:49:09Z</time>
<desc>lat.=56.064919, lon.=26.481384, Alt.=104.124084m. Speed=0.108000m/h.</desc>
<speed>0.030000</speed>
</trkpt>
<trkpt lat="56.064919" lon="26.481384">
<ele>104.124084</ele>
<time>2010-08-29T11:49:10Z</time>
<desc>lat.=56.064919, lon.=26.481384, Alt.=104.124084m. Speed=0.072000m/h.</desc>
<speed>0.020000</speed>
</trkpt>
<trkpt lat="56.064919" lon="26.481386">
<ele>104.120178</ele>
<time>2010-08-29T11:49:11Z</time>
<desc>lat.=56.064919, lon.=26.481386, Alt.=104.120178m. Speed=0.072000m/h.</desc>
<speed>0.020000</speed>
</trkpt>
<trkpt lat="56.064919" lon="26.481386">
<ele>104.122131</ele>
<time>2010-08-29T11:49:12Z</time>
<desc>lat.=56.064919, lon.=26.481386, Alt.=104.122131m. Speed=0.072000m/h.</desc>
<speed>0.020000</speed>
</trkpt>
<trkpt lat="56.064919" lon="26.481386">
<ele>104.124084</ele>
<time>2010-08-29T11:49:13Z</time>
<desc>lat.=56.064919, lon.=26.481386, Alt.=104.124084m. Speed=0.000000m/h.</desc>
<speed>0.000000</speed>
</trkpt>
<trkpt lat="56.064919" lon="26.481386">
<ele>104.126038</ele>
<time>2010-08-29T11:49:14Z</time>
<desc>lat.=56.064919, lon.=26.481386, Alt.=104.126038m. Speed=0.072000m/h.</desc>
<speed>0.020000</speed>
</trkpt>
<trkpt lat="56.064919" lon="26.481386">
<ele>104.127991</ele>
<time>2010-08-29T11:49:15Z</time>
<desc>lat.=56.064919, lon.=26.481386, Alt.=104.127991m. Speed=0.036000m/h.</desc>
<speed>0.010000</speed>
</trkpt>
<trkpt lat="56.064919" lon="26.481386">
<ele>104.133850</ele>
<time>2010-08-29T11:49:16Z</time>
<desc>lat.=56.064919, lon.=26.481386, Alt.=104.133850m. Speed=0.072000m/h.</desc>
<speed>0.020000</speed>
</trkpt>
<trkpt lat="56.064919" lon="26.481386">
<ele>104.139709</ele>
<time>2010-08-29T11:49:17Z</time>
<desc>lat.=56.064919, lon.=26.481386, Alt.=104.139709m. Speed=0.072000m/h.</desc>
<speed>0.020000</speed>
</trkpt>
<trkpt lat="56.064919" lon="26.481386">
<ele>104.147522</ele>
<time>2010-08-29T11:49:18Z</time>
<desc>lat.=56.064919, lon.=26.481386, Alt.=104.147522m. Speed=0.036000m/h.</desc>
<speed>0.010000</speed>
</trkpt>
<trkpt lat="56.064919" lon="26.481386">
<ele>104.151428</ele>
<time>2010-08-29T11:49:19Z</time>
<desc>lat.=56.064919, lon.=26.481386, Alt.=104.151428m. Speed=0.036000m/h.</desc>
<speed>0.010000</speed>
</trkpt>
<trkpt lat="56.064919" lon="26.481386">
<ele>104.153381</ele>
<time>2010-08-29T11:49:20Z</time>
<desc>lat.=56.064919, lon.=26.481386, Alt.=104.153381m. Speed=0.000000m/h.</desc>
<speed>0.000000</speed>
</trkpt>
<trkpt lat="56.064919" lon="26.481386">
<ele>104.155334</ele>
<time>2010-08-29T11:49:21Z</time>
<desc>lat.=56.064919, lon.=26.481386, Alt.=104.155334m. Speed=0.000000m/h.</desc>
<speed>0.000000</speed>
</trkpt>
<trkpt lat="56.064919" lon="26.481386">
<ele>104.161194</ele>
<time>2010-08-29T11:49:22Z</time>
<desc>lat.=56.064919, lon.=26.481386, Alt.=104.161194m. Speed=0.108000m/h.</desc>
<speed>0.030000</speed>
</trkpt>
<trkpt lat="56.064919" lon="26.481386">
<ele>104.167053</ele>
<time>2010-08-29T11:49:23Z</time>
<desc>lat.=56.064919, lon.=26.481386, Alt.=104.167053m. Speed=0.000000m/h.</desc>
<speed>0.000000</speed>
</trkpt>
<trkpt lat="56.064919" lon="26.481386">
<ele>104.172913</ele>
<time>2010-08-29T11:49:24Z</time>
<desc>lat.=56.064919, lon.=26.481386, Alt.=104.172913m. Speed=0.072000m/h.</desc>
<speed>0.020000</speed>
</trkpt>
<trkpt lat="56.064919" lon="26.481386">
<ele>104.180725</ele>
<time>2010-08-29T11:49:25Z</time>
<desc>lat.=56.064919, lon.=26.481386, Alt.=104.180725m. Speed=0.036000m/h.</desc>
<speed>0.010000</speed>
</trkpt>
<trkpt lat="56.064919" lon="26.481386">
<ele>104.188538</ele>
<time>2010-08-29T11:49:26Z</time>
<desc>lat.=56.064919, lon.=26.481386, Alt.=104.188538m. Speed=0.000000m/h.</desc>
<speed>0.000000</speed>
</trkpt>
<trkpt lat="56.064919" lon="26.481386">
<ele>104.194397</ele>
<time>2010-08-29T11:49:27Z</time>
<desc>lat.=56.064919, lon.=26.481386, Alt.=104.194397m. Speed=0.036000m/h.</desc>
<speed>0.010000</speed>
</trkpt>
<trkpt lat="56.064919" lon="26.481386">
<ele>104.202209</ele>
<time>2010-08-29T11:49:28Z</time>
<desc>lat.=56.064919, lon.=26.481386, Alt.=104.202209m. Speed=0.000000m/h.</desc>
<speed>0.000000</speed>
</trkpt>
<trkpt lat="56.064919" lon="26.481386">
<ele>104.210022</ele>
<time>2010-08-29T11:49:29Z</time>
<desc>lat.=56.064919, lon.=26.481386, Alt.=104.210022m. Speed=0.000000m/h.</desc>
<speed>0.000000</speed>
</trkpt>
<trkpt lat="56.064919" lon="26.481386">
<ele>104.211975</ele>
<time>2010-08-29T11:49:30Z</time>
<desc>lat.=56.064919, lon.=26.481386, Alt.=104.211975m. Speed=0.036000m/h.</desc>
<speed>0.010000</speed>
</trkpt>
<trkpt lat="56.064919" lon="26.481386">
<ele>104.221741</ele>
<time>2010-08-29T11:49:31Z</time>
<desc>lat.=56.064919, lon.=26.481386, Alt.=104.221741m. Speed=0.072000m/h.</desc>
<speed>0.020000</speed>
</trkpt>
<trkpt lat="56.064919" lon="26.481386">
<ele>104.227600</ele>
<time>2010-08-29T11:49:32Z</time>
<desc>lat.=56.064919, lon.=26.481386, Alt.=104.227600m. Speed=0.072000m/h.</desc>
<speed>0.020000</speed>
</trkpt>
<trkpt lat="56.064919" lon="26.481386">
<ele>104.229553</ele>
<time>2010-08-29T11:49:33Z</time>
<desc>lat.=56.064919, lon.=26.481386, Alt.=104.229553m. Speed=0.036000m/h.</desc>
<speed>0.010000</speed>
</trkpt>
<trkpt lat="56.064919" lon="26.481386">
<ele>104.235413</ele>
<time>2010-08-29T11:49:34Z</time>
<desc>lat.=56.064919, lon.=26.481386, Alt.=104.235413m. Speed=0.000000m/h.</desc>
<speed>0.000000</speed>
</trkpt>
<trkpt lat="56.064919" lon="26.481386">
<ele>104.235413</ele>
<time>2010-08-29T11:49:35Z</time>
<desc>lat.=56.064919, lon.=26.481386, Alt.=104.235413m. Speed=0.000000m/h.</desc>
<speed>0.000000</speed>
</trkpt>
<trkpt lat="56.064919" lon="26.481386">
<ele>104.237366</ele>
<time>2010-08-29T11:49:36Z</time>
<desc>lat.=56.064919, lon.=26.481386, Alt.=104.237366m. Speed=0.000000m/h.</desc>
<speed>0.000000</speed>
</trkpt>
<trkpt lat="56.064919" lon="26.481386">
<ele>104.237366</ele>
<time>2010-08-29T11:49:37Z</time>
<desc>lat.=56.064919, lon.=26.481386, Alt.=104.237366m. Speed=0.000000m/h.</desc>
<speed>0.000000</speed>
</trkpt>
<trkpt lat="56.064919" lon="26.481386">
<ele>104.241272</ele>
<time>2010-08-29T11:49:38Z</time>
<desc>lat.=56.064919, lon.=26.481386, Alt.=104.241272m. Speed=0.000000m/h.</desc>
<speed>0.000000</speed>
</trkpt>
<trkpt lat="56.064919" lon="26.481386">
<ele>104.243225</ele>
<time>2010-08-29T11:49:39Z</time>
<desc>lat.=56.064919, lon.=26.481386, Alt.=104.243225m. Speed=0.108000m/h.</desc>
<speed>0.030000</speed>
</trkpt>
<trkpt lat="56.064919" lon="26.481386">
<ele>104.245178</ele>
<time>2010-08-29T11:49:40Z</time>
<desc>lat.=56.064919, lon.=26.481386, Alt.=104.245178m. Speed=0.036000m/h.</desc>
<speed>0.010000</speed>
</trkpt>
<trkpt lat="56.064919" lon="26.481386">
<ele>104.247131</ele>
<time>2010-08-29T11:49:41Z</time>
<desc>lat.=56.064919, lon.=26.481386, Alt.=104.247131m. Speed=0.000000m/h.</desc>
<speed>0.000000</speed>
</trkpt>
<trkpt lat="56.064919" lon="26.481386">
<ele>104.249084</ele>
<time>2010-08-29T11:49:42Z</time>
<desc>lat.=56.064919, lon.=26.481386, Alt.=104.249084m. Speed=0.036000m/h.</desc>
<speed>0.010000</speed>
</trkpt>
<trkpt lat="56.064919" lon="26.481386">
<ele>104.252991</ele>
<time>2010-08-29T11:49:43Z</time>
<desc>lat.=56.064919, lon.=26.481386, Alt.=104.252991m. Speed=0.072000m/h.</desc>
<speed>0.020000</speed>
</trkpt>
<trkpt lat="56.064919" lon="26.481386">
<ele>104.256897</ele>
<time>2010-08-29T11:49:44Z</time>
<desc>lat.=56.064919, lon.=26.481386, Alt.=104.256897m. Speed=0.036000m/h.</desc>
<speed>0.010000</speed>
</trkpt>
<trkpt lat="56.064919" lon="26.481386">
<ele>104.258850</ele>
<time>2010-08-29T11:49:45Z</time>
<desc>lat.=56.064919, lon.=26.481386, Alt.=104.258850m. Speed=0.000000m/h.</desc>
<speed>0.000000</speed>
</trkpt>
<trkpt lat="56.064919" lon="26.481386">
<ele>104.264709</ele>
<time>2010-08-29T11:49:46Z</time>
<desc>lat.=56.064919, lon.=26.481386, Alt.=104.264709m. Speed=0.000000m/h.</desc>
<speed>0.000000</speed>
</trkpt>
<trkpt lat="56.064919" lon="26.481386">
<ele>104.268616</ele>
<time>2010-08-29T11:49:47Z</time>
<desc>lat.=56.064919, lon.=26.481386, Alt.=104.268616m. Speed=0.036000m/h.</desc>
<speed>0.010000</speed>
</trkpt>
<trkpt lat="56.064919" lon="26.481386">
<ele>104.270569</ele>
<time>2010-08-29T11:49:48Z</time>
<desc>lat.=56.064919, lon.=26.481386, Alt.=104.270569m. Speed=0.000000m/h.</desc>
<speed>0.000000</speed>
</trkpt>
<trkpt lat="56.064919" lon="26.481386">
<ele>104.276428</ele>
<time>2010-08-29T11:49:49Z</time>
<desc>lat.=56.064919, lon.=26.481386, Alt.=104.276428m. Speed=0.072000m/h.</desc>
<speed>0.020000</speed>
</trkpt>
<trkpt lat="56.064919" lon="26.481386">
<ele>104.278381</ele>
<time>2010-08-29T11:49:50Z</time>
<desc>lat.=56.064919, lon.=26.481386, Alt.=104.278381m. Speed=0.036000m/h.</desc>
<speed>0.010000</speed>
</trkpt>
<trkpt lat="56.064919" lon="26.481386">
<ele>104.280334</ele>
<time>2010-08-29T11:49:51Z</time>
<desc>lat.=56.064919, lon.=26.481386, Alt.=104.280334m. Speed=0.108000m/h.</desc>
<speed>0.030000</speed>
</trkpt>
<trkpt lat="56.064919" lon="26.481386">
<ele>104.286194</ele>
<time>2010-08-29T11:49:52Z</time>
<desc>lat.=56.064919, lon.=26.481386, Alt.=104.286194m. Speed=0.108000m/h.</desc>
<speed>0.030000</speed>
</trkpt>
<trkpt lat="56.064919" lon="26.481388">
<ele>104.286194</ele>
<time>2010-08-29T11:49:53Z</time>
<desc>lat.=56.064919, lon.=26.481388, Alt.=104.286194m. Speed=0.108000m/h.</desc>
<speed>0.030000</speed>
</trkpt>
<trkpt lat="56.064919" lon="26.481388">
<ele>104.290100</ele>
<time>2010-08-29T11:49:54Z</time>
<desc>lat.=56.064919, lon.=26.481388, Alt.=104.290100m. Speed=0.072000m/h.</desc>
<speed>0.020000</speed>
</trkpt>
<trkpt lat="56.064919" lon="26.481388">
<ele>104.297913</ele>
<time>2010-08-29T11:49:55Z</time>
<desc>lat.=56.064919, lon.=26.481388, Alt.=104.297913m. Speed=0.108000m/h.</desc>
<speed>0.030000</speed>
</trkpt>
<trkpt lat="56.064919" lon="26.481388">
<ele>104.303772</ele>
<time>2010-08-29T11:49:56Z</time>
<desc>lat.=56.064919, lon.=26.481388, Alt.=104.303772m. Speed=0.144000m/h.</desc>
<speed>0.040000</speed>
</trkpt>
<trkpt lat="56.064919" lon="26.481388">
<ele>104.305725</ele>
<time>2010-08-29T11:49:57Z</time>
<desc>lat.=56.064919, lon.=26.481388, Alt.=104.305725m. Speed=0.072000m/h.</desc>
<speed>0.020000</speed>
</trkpt>
<trkpt lat="56.064919" lon="26.481388">
<ele>104.307678</ele>
<time>2010-08-29T11:49:58Z</time>
<desc>lat.=56.064919, lon.=26.481388, Alt.=104.307678m. Speed=0.000000m/h.</desc>
<speed>0.000000</speed>
</trkpt>
<trkpt lat="56.064919" lon="26.481388">
<ele>104.317444</ele>
<time>2010-08-29T11:49:59Z</time>
<desc>lat.=56.064919, lon.=26.481388, Alt.=104.317444m. Speed=0.036000m/h.</desc>
<speed>0.010000</speed>
</trkpt>
<trkpt lat="56.064919" lon="26.481388">
<ele>104.325256</ele>
<time>2010-08-29T11:50:00Z</time>
<desc>lat.=56.064919, lon.=26.481388, Alt.=104.325256m. Speed=0.072000m/h.</desc>
<speed>0.020000</speed>
</trkpt>
<trkpt lat="56.064919" lon="26.481388">
<ele>104.333069</ele>
<time>2010-08-29T11:50:01Z</time>
<desc>lat.=56.064919, lon.=26.481388, Alt.=104.333069m. Speed=0.000000m/h.</desc>
<speed>0.000000</speed>
</trkpt>
<trkpt lat="56.064919" lon="26.481388">
<ele>104.344788</ele>
<time>2010-08-29T11:50:02Z</time>
<desc>lat.=56.064919, lon.=26.481388, Alt.=104.344788m. Speed=0.000000m/h.</desc>
<speed>0.000000</speed>
</trkpt>
<trkpt lat="56.064919" lon="26.481390">
<ele>104.346741</ele>
<time>2010-08-29T11:50:03Z</time>
<desc>lat.=56.064919, lon.=26.481390, Alt.=104.346741m. Speed=0.108000m/h.</desc>
<speed>0.030000</speed>
</trkpt>
<trkpt lat="56.064919" lon="26.481390">
<ele>104.360413</ele>
<time>2010-08-29T11:50:04Z</time>
<desc>lat.=56.064919, lon.=26.481390, Alt.=104.360413m. Speed=0.000000m/h.</desc>
<speed>0.000000</speed>
</trkpt>
<trkpt lat="56.064919" lon="26.481390">
<ele>104.366272</ele>
<time>2010-08-29T11:50:05Z</time>
<desc>lat.=56.064919, lon.=26.481390, Alt.=104.366272m. Speed=0.036000m/h.</desc>
<speed>0.010000</speed>
</trkpt>
<trkpt lat="56.064919" lon="26.481390">
<ele>104.372131</ele>
<time>2010-08-29T11:50:06Z</time>
<desc>lat.=56.064919, lon.=26.481390, Alt.=104.372131m. Speed=0.000000m/h.</desc>
<speed>0.000000</speed>
</trkpt>
<trkpt lat="56.064919" lon="26.481390">
<ele>104.379944</ele>
<time>2010-08-29T11:50:07Z</time>
<desc>lat.=56.064919, lon.=26.481390, Alt.=104.379944m. Speed=0.000000m/h.</desc>
<speed>0.000000</speed>
</trkpt>
<trkpt lat="56.064919" lon="26.481390">
<ele>104.383850</ele>
<time>2010-08-29T11:50:08Z</time>
<desc>lat.=56.064919, lon.=26.481390, Alt.=104.383850m. Speed=0.000000m/h.</desc>
<speed>0.000000</speed>
</trkpt>
<trkpt lat="56.064919" lon="26.481390">
<ele>104.381897</ele>
<time>2010-08-29T11:50:09Z</time>
<desc>lat.=56.064919, lon.=26.481390, Alt.=104.381897m. Speed=0.000000m/h.</desc>
<speed>0.000000</speed>
</trkpt>
<trkpt lat="56.064919" lon="26.481390">
<ele>104.381897</ele>
<time>2010-08-29T11:50:10Z</time>
<desc>lat.=56.064919, lon.=26.481390, Alt.=104.381897m. Speed=0.000000m/h.</desc>
<speed>0.000000</speed>
</trkpt>
<trkpt lat="56.064919" lon="26.481390">
<ele>104.389709</ele>
<time>2010-08-29T11:50:11Z</time>
<desc>lat.=56.064919, lon.=26.481390, Alt.=104.389709m. Speed=0.036000m/h.</desc>
<speed>0.010000</speed>
</trkpt>
<trkpt lat="56.064919" lon="26.481390">
<ele>104.399475</ele>
<time>2010-08-29T11:50:12Z</time>
<desc>lat.=56.064919, lon.=26.481390, Alt.=104.399475m. Speed=0.000000m/h.</desc>
<speed>0.000000</speed>
</trkpt>
<trkpt lat="56.064915" lon="26.481390">
<ele>104.407288</ele>
<time>2010-08-29T11:50:13Z</time>
<desc>lat.=56.064915, lon.=26.481390, Alt.=104.407288m. Speed=0.072000m/h.</desc>
<speed>0.020000</speed>
</trkpt>
<trkpt lat="56.064915" lon="26.481390">
<ele>104.411194</ele>
<time>2010-08-29T11:50:14Z</time>
<desc>lat.=56.064915, lon.=26.481390, Alt.=104.411194m. Speed=0.000000m/h.</desc>
<speed>0.000000</speed>
</trkpt>
<trkpt lat="56.064915" lon="26.481390">
<ele>104.413147</ele>
<time>2010-08-29T11:50:15Z</time>
<desc>lat.=56.064915, lon.=26.481390, Alt.=104.413147m. Speed=0.000000m/h.</desc>
<speed>0.000000</speed>
</trkpt>
<trkpt lat="56.064915" lon="26.481390">
<ele>104.413147</ele>
<time>2010-08-29T11:50:16Z</time>
<desc>lat.=56.064915, lon.=26.481390, Alt.=104.413147m. Speed=0.000000m/h.</desc>
<speed>0.000000</speed>
</trkpt>
<trkpt lat="56.064915" lon="26.481390">
<ele>104.411194</ele>
<time>2010-08-29T11:50:17Z</time>
<desc>lat.=56.064915, lon.=26.481390, Alt.=104.411194m. Speed=0.000000m/h.</desc>
<speed>0.000000</speed>
</trkpt>
<trkpt lat="56.064915" lon="26.481390">
<ele>104.405334</ele>
<time>2010-08-29T11:50:18Z</time>
<desc>lat.=56.064915, lon.=26.481390, Alt.=104.405334m. Speed=0.036000m/h.</desc>
<speed>0.010000</speed>
</trkpt>
<trkpt lat="56.064915" lon="26.481390">
<ele>104.401428</ele>
<time>2010-08-29T11:50:19Z</time>
<desc>lat.=56.064915, lon.=26.481390, Alt.=104.401428m. Speed=0.000000m/h.</desc>
<speed>0.000000</speed>
</trkpt>
<trkpt lat="56.064915" lon="26.481390">
<ele>104.399475</ele>
<time>2010-08-29T11:50:20Z</time>
<desc>lat.=56.064915, lon.=26.481390, Alt.=104.399475m. Speed=0.036000m/h.</desc>
<speed>0.010000</speed>
</trkpt>
<trkpt lat="56.064915" lon="26.481390">
<ele>104.399475</ele>
<time>2010-08-29T11:50:21Z</time>
<desc>lat.=56.064915, lon.=26.481390, Alt.=104.399475m. Speed=0.000000m/h.</desc>
<speed>0.000000</speed>
</trkpt>
<trkpt lat="56.064915" lon="26.481390">
<ele>104.399475</ele>
<time>2010-08-29T11:50:22Z</time>
<desc>lat.=56.064915, lon.=26.481390, Alt.=104.399475m. Speed=0.036000m/h.</desc>
<speed>0.010000</speed>
</trkpt>
<trkpt lat="56.064915" lon="26.481390">
<ele>104.395569</ele>
<time>2010-08-29T11:50:23Z</time>
<desc>lat.=56.064915, lon.=26.481390, Alt.=104.395569m. Speed=0.036000m/h.</desc>
<speed>0.010000</speed>
</trkpt>
<trkpt lat="56.064919" lon="26.481390">
<ele>104.395569</ele>
<time>2010-08-29T11:50:24Z</time>
<desc>lat.=56.064919, lon.=26.481390, Alt.=104.395569m. Speed=0.036000m/h.</desc>
<speed>0.010000</speed>
</trkpt>
<trkpt lat="56.064919" lon="26.481390">
<ele>104.395569</ele>
<time>2010-08-29T11:50:25Z</time>
<desc>lat.=56.064919, lon.=26.481390, Alt.=104.395569m. Speed=0.036000m/h.</desc>
<speed>0.010000</speed>
</trkpt>
<trkpt lat="56.064919" lon="26.481392">
<ele>104.387756</ele>
<time>2010-08-29T11:50:26Z</time>
<desc>lat.=56.064919, lon.=26.481392, Alt.=104.387756m. Speed=0.108000m/h.</desc>
<speed>0.030000</speed>
</trkpt>
<trkpt lat="56.064919" lon="26.481392">
<ele>104.383850</ele>
<time>2010-08-29T11:50:27Z</time>
<desc>lat.=56.064919, lon.=26.481392, Alt.=104.383850m. Speed=0.108000m/h.</desc>
<speed>0.030000</speed>
</trkpt>
<trkpt lat="56.064919" lon="26.481392">
<ele>104.377991</ele>
<time>2010-08-29T11:50:28Z</time>
<desc>lat.=56.064919, lon.=26.481392, Alt.=104.377991m. Speed=0.000000m/h.</desc>
<speed>0.000000</speed>
</trkpt>
<trkpt lat="56.064919" lon="26.481392">
<ele>104.372131</ele>
<time>2010-08-29T11:50:29Z</time>
<desc>lat.=56.064919, lon.=26.481392, Alt.=104.372131m. Speed=0.036000m/h.</desc>
<speed>0.010000</speed>
</trkpt>
<trkpt lat="56.064919" lon="26.481392">
<ele>104.368225</ele>
<time>2010-08-29T11:50:30Z</time>
<desc>lat.=56.064919, lon.=26.481392, Alt.=104.368225m. Speed=0.000000m/h.</desc>
<speed>0.000000</speed>
</trkpt>
<trkpt lat="56.064919" lon="26.481392">
<ele>104.360413</ele>
<time>2010-08-29T11:50:31Z</time>
<desc>lat.=56.064919, lon.=26.481392, Alt.=104.360413m. Speed=0.036000m/h.</desc>
<speed>0.010000</speed>
</trkpt>
<trkpt lat="56.064919" lon="26.481394">
<ele>104.356506</ele>
<time>2010-08-29T11:50:32Z</time>
<desc>lat.=56.064919, lon.=26.481394, Alt.=104.356506m. Speed=0.036000m/h.</desc>
<speed>0.010000</speed>
</trkpt>
<trkpt lat="56.064919" lon="26.481394">
<ele>104.356506</ele>
<time>2010-08-29T11:50:33Z</time>
<desc>lat.=56.064919, lon.=26.481394, Alt.=104.356506m. Speed=0.036000m/h.</desc>
<speed>0.010000</speed>
</trkpt>
<trkpt lat="56.064919" lon="26.481394">
<ele>104.354553</ele>
<time>2010-08-29T11:50:34Z</time>
<desc>lat.=56.064919, lon.=26.481394, Alt.=104.354553m. Speed=0.000000m/h.</desc>
<speed>0.000000</speed>
</trkpt>
<trkpt lat="56.064919" lon="26.481394">
<ele>104.356506</ele>
<time>2010-08-29T11:50:35Z</time>
<desc>lat.=56.064919, lon.=26.481394, Alt.=104.356506m. Speed=0.000000m/h.</desc>
<speed>0.000000</speed>
</trkpt>
<trkpt lat="56.064919" lon="26.481394">
<ele>104.358459</ele>
<time>2010-08-29T11:50:36Z</time>
<desc>lat.=56.064919, lon.=26.481394, Alt.=104.358459m. Speed=0.000000m/h.</desc>
<speed>0.000000</speed>
</trkpt>
<trkpt lat="56.064919" lon="26.481394">
<ele>104.362366</ele>
<time>2010-08-29T11:50:37Z</time>
<desc>lat.=56.064919, lon.=26.481394, Alt.=104.362366m. Speed=0.000000m/h.</desc>
<speed>0.000000</speed>
</trkpt>
<trkpt lat="56.064919" lon="26.481394">
<ele>104.368225</ele>
<time>2010-08-29T11:50:38Z</time>
<desc>lat.=56.064919, lon.=26.481394, Alt.=104.368225m. Speed=0.000000m/h.</desc>
<speed>0.000000</speed>
</trkpt>
<trkpt lat="56.064919" lon="26.481394">
<ele>104.370178</ele>
<time>2010-08-29T11:50:39Z</time>
<desc>lat.=56.064919, lon.=26.481394, Alt.=104.370178m. Speed=0.000000m/h.</desc>
<speed>0.000000</speed>
</trkpt>
<trkpt lat="56.064919" lon="26.481394">
<ele>104.377991</ele>
<time>2010-08-29T11:50:40Z</time>
<desc>lat.=56.064919, lon.=26.481394, Alt.=104.377991m. Speed=0.036000m/h.</desc>
<speed>0.010000</speed>
</trkpt>
<trkpt lat="56.064919" lon="26.481394">
<ele>104.385803</ele>
<time>2010-08-29T11:50:41Z</time>
<desc>lat.=56.064919, lon.=26.481394, Alt.=104.385803m. Speed=0.000000m/h.</desc>
<speed>0.000000</speed>
</trkpt>
<trkpt lat="56.064919" lon="26.481394">
<ele>104.395569</ele>
<time>2010-08-29T11:50:42Z</time>
<desc>lat.=56.064919, lon.=26.481394, Alt.=104.395569m. Speed=0.000000m/h.</desc>
<speed>0.000000</speed>
</trkpt>
<trkpt lat="56.064919" lon="26.481396">
<ele>104.397522</ele>
<time>2010-08-29T11:50:43Z</time>
<desc>lat.=56.064919, lon.=26.481396, Alt.=104.397522m. Speed=0.036000m/h.</desc>
<speed>0.010000</speed>
</trkpt>
<trkpt lat="56.064919" lon="26.481396">
<ele>104.397522</ele>
<time>2010-08-29T11:50:44Z</time>
<desc>lat.=56.064919, lon.=26.481396, Alt.=104.397522m. Speed=0.036000m/h.</desc>
<speed>0.010000</speed>
</trkpt>
<trkpt lat="56.064919" lon="26.481396">
<ele>104.399475</ele>
<time>2010-08-29T11:50:45Z</time>
<desc>lat.=56.064919, lon.=26.481396, Alt.=104.399475m. Speed=0.000000m/h.</desc>
<speed>0.000000</speed>
</trkpt>
<trkpt lat="56.064919" lon="26.481396">
<ele>104.401428</ele>
<time>2010-08-29T11:50:46Z</time>
<desc>lat.=56.064919, lon.=26.481396, Alt.=104.401428m. Speed=0.036000m/h.</desc>
<speed>0.010000</speed>
</trkpt>
<trkpt lat="56.064919" lon="26.481396">
<ele>104.403381</ele>
<time>2010-08-29T11:50:47Z</time>
<desc>lat.=56.064919, lon.=26.481396, Alt.=104.403381m. Speed=0.036000m/h.</desc>
<speed>0.010000</speed>
</trkpt>
<trkpt lat="56.064919" lon="26.481396">
<ele>104.403381</ele>
<time>2010-08-29T11:50:48Z</time>
<desc>lat.=56.064919, lon.=26.481396, Alt.=104.403381m. Speed=0.108000m/h.</desc>
<speed>0.030000</speed>
</trkpt>
<trkpt lat="56.064919" lon="26.481396">
<ele>104.405334</ele>
<time>2010-08-29T11:50:49Z</time>
<desc>lat.=56.064919, lon.=26.481396, Alt.=104.405334m. Speed=0.036000m/h.</desc>
<speed>0.010000</speed>
</trkpt>
<trkpt lat="56.064919" lon="26.481396">
<ele>104.401428</ele>
<time>2010-08-29T11:50:50Z</time>
<desc>lat.=56.064919, lon.=26.481396, Alt.=104.401428m. Speed=0.036000m/h.</desc>
<speed>0.010000</speed>
</trkpt>
<trkpt lat="56.064919" lon="26.481396">
<ele>104.399475</ele>
<time>2010-08-29T11:50:51Z</time>
<desc>lat.=56.064919, lon.=26.481396, Alt.=104.399475m. Speed=0.000000m/h.</desc>
<speed>0.000000</speed>
</trkpt>
<trkpt lat="56.064919" lon="26.481396">
<ele>104.395569</ele>
<time>2010-08-29T11:50:52Z</time>
<desc>lat.=56.064919, lon.=26.481396, Alt.=104.395569m. Speed=0.036000m/h.</desc>
<speed>0.010000</speed>
</trkpt>
<trkpt lat="56.064919" lon="26.481396">
<ele>104.393616</ele>
<time>2010-08-29T11:50:53Z</time>
<desc>lat.=56.064919, lon.=26.481396, Alt.=104.393616m. Speed=0.036000m/h.</desc>
<speed>0.010000</speed>
</trkpt>
<trkpt lat="56.064919" lon="26.481396">
<ele>104.387756</ele>
<time>2010-08-29T11:50:54Z</time>
<desc>lat.=56.064919, lon.=26.481396, Alt.=104.387756m. Speed=0.000000m/h.</desc>
<speed>0.000000</speed>
</trkpt>
<trkpt lat="56.064919" lon="26.481396">
<ele>104.377991</ele>
<time>2010-08-29T11:50:55Z</time>
<desc>lat.=56.064919, lon.=26.481396, Alt.=104.377991m. Speed=0.000000m/h.</desc>
<speed>0.000000</speed>
</trkpt>
<trkpt lat="56.064919" lon="26.481396">
<ele>104.372131</ele>
<time>2010-08-29T11:50:56Z</time>
<desc>lat.=56.064919, lon.=26.481396, Alt.=104.372131m. Speed=0.000000m/h.</desc>
<speed>0.000000</speed>
</trkpt>
<trkpt lat="56.064919" lon="26.481398">
<ele>104.370178</ele>
<time>2010-08-29T11:50:57Z</time>
<desc>lat.=56.064919, lon.=26.481398, Alt.=104.370178m. Speed=0.000000m/h.</desc>
<speed>0.000000</speed>
</trkpt>
<trkpt lat="56.064919" lon="26.481398">
<ele>104.372131</ele>
<time>2010-08-29T11:50:58Z</time>
<desc>lat.=56.064919, lon.=26.481398, Alt.=104.372131m. Speed=0.000000m/h.</desc>
<speed>0.000000</speed>
</trkpt>
<trkpt lat="56.064919" lon="26.481398">
<ele>104.368225</ele>
<time>2010-08-29T11:50:59Z</time>
<desc>lat.=56.064919, lon.=26.481398, Alt.=104.368225m. Speed=0.036000m/h.</desc>
<speed>0.010000</speed>
</trkpt>
<trkpt lat="56.064919" lon="26.481398">
<ele>104.368225</ele>
<time>2010-08-29T11:51:00Z</time>
<desc>lat.=56.064919, lon.=26.481398, Alt.=104.368225m. Speed=0.000000m/h.</desc>
<speed>0.000000</speed>
</trkpt>
<trkpt lat="56.064919" lon="26.481398">
<ele>104.368225</ele>
<time>2010-08-29T11:51:01Z</time>
<desc>lat.=56.064919, lon.=26.481398, Alt.=104.368225m. Speed=0.036000m/h.</desc>
<speed>0.010000</speed>
</trkpt>
<trkpt lat="56.064919" lon="26.481398">
<ele>104.372131</ele>
<time>2010-08-29T11:51:02Z</time>
<desc>lat.=56.064919, lon.=26.481398, Alt.=104.372131m. Speed=0.036000m/h.</desc>
<speed>0.010000</speed>
</trkpt>
<trkpt lat="56.064919" lon="26.481398">
<ele>104.377991</ele>
<time>2010-08-29T11:51:03Z</time>
<desc>lat.=56.064919, lon.=26.481398, Alt.=104.377991m. Speed=0.036000m/h.</desc>
<speed>0.010000</speed>
</trkpt>
<trkpt lat="56.064919" lon="26.481398">
<ele>104.381897</ele>
<time>2010-08-29T11:51:04Z</time>
<desc>lat.=56.064919, lon.=26.481398, Alt.=104.381897m. Speed=0.036000m/h.</desc>
<speed>0.010000</speed>
</trkpt>
<trkpt lat="56.064919" lon="26.481398">
<ele>104.372131</ele>
<time>2010-08-29T11:51:05Z</time>
<desc>lat.=56.064919, lon.=26.481398, Alt.=104.372131m. Speed=0.000000m/h.</desc>
<speed>0.000000</speed>
</trkpt>
<trkpt lat="56.064919" lon="26.481398">
<ele>104.370178</ele>
<time>2010-08-29T11:51:06Z</time>
<desc>lat.=56.064919, lon.=26.481398, Alt.=104.370178m. Speed=0.000000m/h.</desc>
<speed>0.000000</speed>
</trkpt>
<trkpt lat="56.064919" lon="26.481398">
<ele>104.370178</ele>
<time>2010-08-29T11:51:07Z</time>
<desc>lat.=56.064919, lon.=26.481398, Alt.=104.370178m. Speed=0.000000m/h.</desc>
<speed>0.000000</speed>
</trkpt>
<trkpt lat="56.064919" lon="26.481398">
<ele>104.376038</ele>
<time>2010-08-29T11:51:08Z</time>
<desc>lat.=56.064919, lon.=26.481398, Alt.=104.376038m. Speed=0.000000m/h.</desc>
<speed>0.000000</speed>
</trkpt>
<trkpt lat="56.064919" lon="26.481398">
<ele>104.381897</ele>
<time>2010-08-29T11:51:09Z</time>
<desc>lat.=56.064919, lon.=26.481398, Alt.=104.381897m. Speed=0.036000m/h.</desc>
<speed>0.010000</speed>
</trkpt>
<trkpt lat="56.064919" lon="26.481398">
<ele>104.381897</ele>
<time>2010-08-29T11:51:10Z</time>
<desc>lat.=56.064919, lon.=26.481398, Alt.=104.381897m. Speed=0.000000m/h.</desc>
<speed>0.000000</speed>
</trkpt>
<trkpt lat="56.064919" lon="26.481398">
<ele>104.381897</ele>
<time>2010-08-29T11:51:11Z</time>
<desc>lat.=56.064919, lon.=26.481398, Alt.=104.381897m. Speed=0.000000m/h.</desc>
<speed>0.000000</speed>
</trkpt>
<trkpt lat="56.064919" lon="26.481398">
<ele>104.379944</ele>
<time>2010-08-29T11:51:12Z</time>
<desc>lat.=56.064919, lon.=26.481398, Alt.=104.379944m. Speed=0.000000m/h.</desc>
<speed>0.000000</speed>
</trkpt>
<trkpt lat="56.064919" lon="26.481398">
<ele>104.383850</ele>
<time>2010-08-29T11:51:13Z</time>
<desc>lat.=56.064919, lon.=26.481398, Alt.=104.383850m. Speed=0.000000m/h.</desc>
<speed>0.000000</speed>
</trkpt>
<trkpt lat="56.064919" lon="26.481400">
<ele>104.387756</ele>
<time>2010-08-29T11:51:14Z</time>
<desc>lat.=56.064919, lon.=26.481400, Alt.=104.387756m. Speed=0.000000m/h.</desc>
<speed>0.000000</speed>
</trkpt>
<trkpt lat="56.064919" lon="26.481400">
<ele>104.391663</ele>
<time>2010-08-29T11:51:15Z</time>
<desc>lat.=56.064919, lon.=26.481400, Alt.=104.391663m. Speed=0.000000m/h.</desc>
<speed>0.000000</speed>
</trkpt>
<trkpt lat="56.064919" lon="26.481400">
<ele>104.389709</ele>
<time>2010-08-29T11:51:16Z</time>
<desc>lat.=56.064919, lon.=26.481400, Alt.=104.389709m. Speed=0.036000m/h.</desc>
<speed>0.010000</speed>
</trkpt>
<trkpt lat="56.064919" lon="26.481400">
<ele>104.391663</ele>
<time>2010-08-29T11:51:17Z</time>
<desc>lat.=56.064919, lon.=26.481400, Alt.=104.391663m. Speed=0.036000m/h.</desc>
<speed>0.010000</speed>
</trkpt>
<trkpt lat="56.064919" lon="26.481400">
<ele>104.395569</ele>
<time>2010-08-29T11:51:18Z</time>
<desc>lat.=56.064919, lon.=26.481400, Alt.=104.395569m. Speed=0.000000m/h.</desc>
<speed>0.000000</speed>
</trkpt>
<trkpt lat="56.064919" lon="26.481400">
<ele>104.395569</ele>
<time>2010-08-29T11:51:19Z</time>
<desc>lat.=56.064919, lon.=26.481400, Alt.=104.395569m. Speed=0.000000m/h.</desc>
<speed>0.000000</speed>
</trkpt>
<trkpt lat="56.064919" lon="26.481400">
<ele>104.397522</ele>
<time>2010-08-29T11:51:20Z</time>
<desc>lat.=56.064919, lon.=26.481400, Alt.=104.397522m. Speed=0.000000m/h.</desc>
<speed>0.000000</speed>
</trkpt>
<trkpt lat="56.064919" lon="26.481400">
<ele>104.397522</ele>
<time>2010-08-29T11:51:21Z</time>
<desc>lat.=56.064919, lon.=26.481400, Alt.=104.397522m. Speed=0.000000m/h.</desc>
<speed>0.000000</speed>
</trkpt>
<trkpt lat="56.064919" lon="26.481400">
<ele>104.399475</ele>
<time>2010-08-29T11:51:22Z</time>
<desc>lat.=56.064919, lon.=26.481400, Alt.=104.399475m. Speed=0.000000m/h.</desc>
<speed>0.000000</speed>
</trkpt>
<trkpt lat="56.064919" lon="26.481400">
<ele>104.405334</ele>
<time>2010-08-29T11:51:23Z</time>
<desc>lat.=56.064919, lon.=26.481400, Alt.=104.405334m. Speed=0.036000m/h.</desc>
<speed>0.010000</speed>
</trkpt>
<trkpt lat="56.064919" lon="26.481400">
<ele>104.403381</ele>
<time>2010-08-29T11:51:24Z</time>
<desc>lat.=56.064919, lon.=26.481400, Alt.=104.403381m. Speed=0.036000m/h.</desc>
<speed>0.010000</speed>
</trkpt>
<trkpt lat="56.064919" lon="26.481400">
<ele>104.401428</ele>
<time>2010-08-29T11:51:25Z</time>
<desc>lat.=56.064919, lon.=26.481400, Alt.=104.401428m. Speed=0.000000m/h.</desc>
<speed>0.000000</speed>
</trkpt>
<trkpt lat="56.064919" lon="26.481400">
<ele>104.403381</ele>
<time>2010-08-29T11:51:26Z</time>
<desc>lat.=56.064919, lon.=26.481400, Alt.=104.403381m. Speed=0.036000m/h.</desc>
<speed>0.010000</speed>
</trkpt>
<trkpt lat="56.064919" lon="26.481400">
<ele>104.407288</ele>
<time>2010-08-29T11:51:27Z</time>
<desc>lat.=56.064919, lon.=26.481400, Alt.=104.407288m. Speed=0.036000m/h.</desc>
<speed>0.010000</speed>
</trkpt>
<trkpt lat="56.064919" lon="26.481400">
<ele>104.413147</ele>
<time>2010-08-29T11:51:28Z</time>
<desc>lat.=56.064919, lon.=26.481400, Alt.=104.413147m. Speed=0.000000m/h.</desc>
<speed>0.000000</speed>
</trkpt>
<trkpt lat="56.064919" lon="26.481400">
<ele>104.417053</ele>
<time>2010-08-29T11:51:29Z</time>
<desc>lat.=56.064919, lon.=26.481400, Alt.=104.417053m. Speed=0.036000m/h.</desc>
<speed>0.010000</speed>
</trkpt>
<trkpt lat="56.064919" lon="26.481400">
<ele>104.415100</ele>
<time>2010-08-29T11:51:30Z</time>
<desc>lat.=56.064919, lon.=26.481400, Alt.=104.415100m. Speed=0.000000m/h.</desc>
<speed>0.000000</speed>
</trkpt>
<trkpt lat="56.064919" lon="26.481400">
<ele>104.415100</ele>
<time>2010-08-29T11:51:31Z</time>
<desc>lat.=56.064919, lon.=26.481400, Alt.=104.415100m. Speed=0.000000m/h.</desc>
<speed>0.000000</speed>
</trkpt>
<trkpt lat="56.064919" lon="26.481400">
<ele>104.417053</ele>
<time>2010-08-29T11:51:32Z</time>
<desc>lat.=56.064919, lon.=26.481400, Alt.=104.417053m. Speed=0.036000m/h.</desc>
<speed>0.010000</speed>
</trkpt>
<trkpt lat="56.064919" lon="26.481400">
<ele>104.420959</ele>
<time>2010-08-29T11:51:33Z</time>
<desc>lat.=56.064919, lon.=26.481400, Alt.=104.420959m. Speed=0.000000m/h.</desc>
<speed>0.000000</speed>
</trkpt>
<trkpt lat="56.064919" lon="26.481400">
<ele>104.419006</ele>
<time>2010-08-29T11:51:34Z</time>
<desc>lat.=56.064919, lon.=26.481400, Alt.=104.419006m. Speed=0.072000m/h.</desc>
<speed>0.020000</speed>
</trkpt>
<trkpt lat="56.064919" lon="26.481400">
<ele>104.419006</ele>
<time>2010-08-29T11:51:35Z</time>
<desc>lat.=56.064919, lon.=26.481400, Alt.=104.419006m. Speed=0.036000m/h.</desc>
<speed>0.010000</speed>
</trkpt>
<trkpt lat="56.064919" lon="26.481400">
<ele>104.420959</ele>
<time>2010-08-29T11:51:36Z</time>
<desc>lat.=56.064919, lon.=26.481400, Alt.=104.420959m. Speed=0.000000m/h.</desc>
<speed>0.000000</speed>
</trkpt>
<trkpt lat="56.064919" lon="26.481400">
<ele>104.424866</ele>
<time>2010-08-29T11:51:37Z</time>
<desc>lat.=56.064919, lon.=26.481400, Alt.=104.424866m. Speed=0.072000m/h.</desc>
<speed>0.020000</speed>
</trkpt>
<trkpt lat="56.064919" lon="26.481400">
<ele>104.426819</ele>
<time>2010-08-29T11:51:38Z</time>
<desc>lat.=56.064919, lon.=26.481400, Alt.=104.426819m. Speed=0.000000m/h.</desc>
<speed>0.000000</speed>
</trkpt>
<trkpt lat="56.064919" lon="26.481400">
<ele>104.428772</ele>
<time>2010-08-29T11:51:39Z</time>
<desc>lat.=56.064919, lon.=26.481400, Alt.=104.428772m. Speed=0.000000m/h.</desc>
<speed>0.000000</speed>
</trkpt>
<trkpt lat="56.064919" lon="26.481400">
<ele>104.432678</ele>
<time>2010-08-29T11:51:40Z</time>
<desc>lat.=56.064919, lon.=26.481400, Alt.=104.432678m. Speed=0.036000m/h.</desc>
<speed>0.010000</speed>
</trkpt>
<trkpt lat="56.064919" lon="26.481400">
<ele>104.434631</ele>
<time>2010-08-29T11:51:41Z</time>
<desc>lat.=56.064919, lon.=26.481400, Alt.=104.434631m. Speed=0.036000m/h.</desc>
<speed>0.010000</speed>
</trkpt>
<trkpt lat="56.064919" lon="26.481400">
<ele>104.434631</ele>
<time>2010-08-29T11:51:42Z</time>
<desc>lat.=56.064919, lon.=26.481400, Alt.=104.434631m. Speed=0.000000m/h.</desc>
<speed>0.000000</speed>
</trkpt>
<trkpt lat="56.064919" lon="26.481400">
<ele>104.438538</ele>
<time>2010-08-29T11:51:43Z</time>
<desc>lat.=56.064919, lon.=26.481400, Alt.=104.438538m. Speed=0.000000m/h.</desc>
<speed>0.000000</speed>
</trkpt>
<trkpt lat="56.064919" lon="26.481400">
<ele>104.446350</ele>
<time>2010-08-29T11:51:44Z</time>
<desc>lat.=56.064919, lon.=26.481400, Alt.=104.446350m. Speed=0.000000m/h.</desc>
<speed>0.000000</speed>
</trkpt>
<trkpt lat="56.064919" lon="26.481400">
<ele>104.450256</ele>
<time>2010-08-29T11:51:45Z</time>
<desc>lat.=56.064919, lon.=26.481400, Alt.=104.450256m. Speed=0.000000m/h.</desc>
<speed>0.000000</speed>
</trkpt>
<trkpt lat="56.064919" lon="26.481400">
<ele>104.450256</ele>
<time>2010-08-29T11:51:46Z</time>
<desc>lat.=56.064919, lon.=26.481400, Alt.=104.450256m. Speed=0.036000m/h.</desc>
<speed>0.010000</speed>
</trkpt>
<trkpt lat="56.064919" lon="26.481400">
<ele>104.452209</ele>
<time>2010-08-29T11:51:47Z</time>
<desc>lat.=56.064919, lon.=26.481400, Alt.=104.452209m. Speed=0.000000m/h.</desc>
<speed>0.000000</speed>
</trkpt>
<trkpt lat="56.064919" lon="26.481400">
<ele>104.456116</ele>
<time>2010-08-29T11:51:48Z</time>
<desc>lat.=56.064919, lon.=26.481400, Alt.=104.456116m. Speed=0.036000m/h.</desc>
<speed>0.010000</speed>
</trkpt>
<trkpt lat="56.064919" lon="26.481400">
<ele>104.458069</ele>
<time>2010-08-29T11:51:49Z</time>
<desc>lat.=56.064919, lon.=26.481400, Alt.=104.458069m. Speed=0.000000m/h.</desc>
<speed>0.000000</speed>
</trkpt>
<trkpt lat="56.064919" lon="26.481400">
<ele>104.461975</ele>
<time>2010-08-29T11:51:50Z</time>
<desc>lat.=56.064919, lon.=26.481400, Alt.=104.461975m. Speed=0.000000m/h.</desc>
<speed>0.000000</speed>
</trkpt>
<trkpt lat="56.064919" lon="26.481400">
<ele>104.463928</ele>
<time>2010-08-29T11:51:51Z</time>
<desc>lat.=56.064919, lon.=26.481400, Alt.=104.463928m. Speed=0.000000m/h.</desc>
<speed>0.000000</speed>
</trkpt>
<trkpt lat="56.064919" lon="26.481400">
<ele>104.465881</ele>
<time>2010-08-29T11:51:52Z</time>
<desc>lat.=56.064919, lon.=26.481400, Alt.=104.465881m. Speed=0.036000m/h.</desc>
<speed>0.010000</speed>
</trkpt>
<trkpt lat="56.064919" lon="26.481400">
<ele>104.465881</ele>
<time>2010-08-29T11:51:53Z</time>
<desc>lat.=56.064919, lon.=26.481400, Alt.=104.465881m. Speed=0.036000m/h.</desc>
<speed>0.010000</speed>
</trkpt>
<trkpt lat="56.064919" lon="26.481400">
<ele>104.461975</ele>
<time>2010-08-29T11:51:54Z</time>
<desc>lat.=56.064919, lon.=26.481400, Alt.=104.461975m. Speed=0.000000m/h.</desc>
<speed>0.000000</speed>
</trkpt>
<trkpt lat="56.064919" lon="26.481400">
<ele>104.458069</ele>
<time>2010-08-29T11:51:55Z</time>
<desc>lat.=56.064919, lon.=26.481400, Alt.=104.458069m. Speed=0.000000m/h.</desc>
<speed>0.000000</speed>
</trkpt>
<trkpt lat="56.064919" lon="26.481400">
<ele>104.456116</ele>
<time>2010-08-29T11:51:56Z</time>
<desc>lat.=56.064919, lon.=26.481400, Alt.=104.456116m. Speed=0.000000m/h.</desc>
<speed>0.000000</speed>
</trkpt>
<trkpt lat="56.064919" lon="26.481400">
<ele>104.452209</ele>
<time>2010-08-29T11:51:57Z</time>
<desc>lat.=56.064919, lon.=26.481400, Alt.=104.452209m. Speed=0.000000m/h.</desc>
<speed>0.000000</speed>
</trkpt>
<trkpt lat="56.064919" lon="26.481400">
<ele>104.450256</ele>
<time>2010-08-29T11:51:58Z</time>
<desc>lat.=56.064919, lon.=26.481400, Alt.=104.450256m. Speed=0.036000m/h.</desc>
<speed>0.010000</speed>
</trkpt>
<trkpt lat="56.064919" lon="26.481400">
<ele>104.452209</ele>
<time>2010-08-29T11:51:59Z</time>
<desc>lat.=56.064919, lon.=26.481400, Alt.=104.452209m. Speed=0.036000m/h.</desc>
<speed>0.010000</speed>
</trkpt>
<trkpt lat="56.064919" lon="26.481400">
<ele>104.452209</ele>
<time>2010-08-29T11:52:00Z</time>
<desc>lat.=56.064919, lon.=26.481400, Alt.=104.452209m. Speed=0.000000m/h.</desc>
<speed>0.000000</speed>
</trkpt>
<trkpt lat="56.064919" lon="26.481401">
<ele>104.452209</ele>
<time>2010-08-29T11:52:01Z</time>
<desc>lat.=56.064919, lon.=26.481401, Alt.=104.452209m. Speed=0.000000m/h.</desc>
<speed>0.000000</speed>
</trkpt>
<trkpt lat="56.064919" lon="26.481401">
<ele>104.450256</ele>
<time>2010-08-29T11:52:02Z</time>
<desc>lat.=56.064919, lon.=26.481401, Alt.=104.450256m. Speed=0.000000m/h.</desc>
<speed>0.000000</speed>
</trkpt>
<trkpt lat="56.064919" lon="26.481401">
<ele>104.456116</ele>
<time>2010-08-29T11:52:03Z</time>
<desc>lat.=56.064919, lon.=26.481401, Alt.=104.456116m. Speed=0.000000m/h.</desc>
<speed>0.000000</speed>
</trkpt>
<trkpt lat="56.064919" lon="26.481401">
<ele>104.456116</ele>
<time>2010-08-29T11:52:04Z</time>
<desc>lat.=56.064919, lon.=26.481401, Alt.=104.456116m. Speed=0.036000m/h.</desc>
<speed>0.010000</speed>
</trkpt>
<trkpt lat="56.064919" lon="26.481401">
<ele>104.460022</ele>
<time>2010-08-29T11:52:05Z</time>
<desc>lat.=56.064919, lon.=26.481401, Alt.=104.460022m. Speed=0.036000m/h.</desc>
<speed>0.010000</speed>
</trkpt>
<trkpt lat="56.064919" lon="26.481401">
<ele>104.461975</ele>
<time>2010-08-29T11:52:06Z</time>
<desc>lat.=56.064919, lon.=26.481401, Alt.=104.461975m. Speed=0.000000m/h.</desc>
<speed>0.000000</speed>
</trkpt>
<trkpt lat="56.064919" lon="26.481401">
<ele>104.471741</ele>
<time>2010-08-29T11:52:07Z</time>
<desc>lat.=56.064919, lon.=26.481401, Alt.=104.471741m. Speed=0.000000m/h.</desc>
<speed>0.000000</speed>
</trkpt>
<trkpt lat="56.064919" lon="26.481401">
<ele>104.477600</ele>
<time>2010-08-29T11:52:08Z</time>
<desc>lat.=56.064919, lon.=26.481401, Alt.=104.477600m. Speed=0.036000m/h.</desc>
<speed>0.010000</speed>
</trkpt>
<trkpt lat="56.064919" lon="26.481401">
<ele>104.483459</ele>
<time>2010-08-29T11:52:09Z</time>
<desc>lat.=56.064919, lon.=26.481401, Alt.=104.483459m. Speed=0.036000m/h.</desc>
<speed>0.010000</speed>
</trkpt>
<trkpt lat="56.064919" lon="26.481401">
<ele>104.487366</ele>
<time>2010-08-29T11:52:10Z</time>
<desc>lat.=56.064919, lon.=26.481401, Alt.=104.487366m. Speed=0.036000m/h.</desc>
<speed>0.010000</speed>
</trkpt>
<trkpt lat="56.064919" lon="26.481401">
<ele>104.495178</ele>
<time>2010-08-29T11:52:11Z</time>
<desc>lat.=56.064919, lon.=26.481401, Alt.=104.495178m. Speed=0.000000m/h.</desc>
<speed>0.000000</speed>
</trkpt>
<trkpt lat="56.064915" lon="26.481401">
<ele>104.499084</ele>
<time>2010-08-29T11:52:12Z</time>
<desc>lat.=56.064915, lon.=26.481401, Alt.=104.499084m. Speed=0.000000m/h.</desc>
<speed>0.000000</speed>
</trkpt>
<trkpt lat="56.064915" lon="26.481401">
<ele>104.502991</ele>
<time>2010-08-29T11:52:13Z</time>
<desc>lat.=56.064915, lon.=26.481401, Alt.=104.502991m. Speed=0.072000m/h.</desc>
<speed>0.020000</speed>
</trkpt>
<trkpt lat="56.064915" lon="26.481401">
<ele>104.510803</ele>
<time>2010-08-29T11:52:14Z</time>
<desc>lat.=56.064915, lon.=26.481401, Alt.=104.510803m. Speed=0.108000m/h.</desc>
<speed>0.030000</speed>
</trkpt>
<trkpt lat="56.064915" lon="26.481401">
<ele>104.514709</ele>
<time>2010-08-29T11:52:15Z</time>
<desc>lat.=56.064915, lon.=26.481401, Alt.=104.514709m. Speed=0.036000m/h.</desc>
<speed>0.010000</speed>
</trkpt>
<trkpt lat="56.064915" lon="26.481401">
<ele>104.512756</ele>
<time>2010-08-29T11:52:16Z</time>
<desc>lat.=56.064915, lon.=26.481401, Alt.=104.512756m. Speed=0.000000m/h.</desc>
<speed>0.000000</speed>
</trkpt>
<trkpt lat="56.064915" lon="26.481401">
<ele>104.518616</ele>
<time>2010-08-29T11:52:17Z</time>
<desc>lat.=56.064915, lon.=26.481401, Alt.=104.518616m. Speed=0.036000m/h.</desc>
<speed>0.010000</speed>
</trkpt>
<trkpt lat="56.064915" lon="26.481401">
<ele>104.530334</ele>
<time>2010-08-29T11:52:18Z</time>
<desc>lat.=56.064915, lon.=26.481401, Alt.=104.530334m. Speed=0.000000m/h.</desc>
<speed>0.000000</speed>
</trkpt>
<trkpt lat="56.064915" lon="26.481401">
<ele>104.540100</ele>
<time>2010-08-29T11:52:19Z</time>
<desc>lat.=56.064915, lon.=26.481401, Alt.=104.540100m. Speed=0.000000m/h.</desc>
<speed>0.000000</speed>
</trkpt>
<trkpt lat="56.064915" lon="26.481401">
<ele>104.547913</ele>
<time>2010-08-29T11:52:20Z</time>
<desc>lat.=56.064915, lon.=26.481401, Alt.=104.547913m. Speed=0.072000m/h.</desc>
<speed>0.020000</speed>
</trkpt>
<trkpt lat="56.064915" lon="26.481403">
<ele>104.557678</ele>
<time>2010-08-29T11:52:21Z</time>
<desc>lat.=56.064915, lon.=26.481403, Alt.=104.557678m. Speed=0.000000m/h.</desc>
<speed>0.000000</speed>
</trkpt>
<trkpt lat="56.064915" lon="26.481403">
<ele>104.563538</ele>
<time>2010-08-29T11:52:22Z</time>
<desc>lat.=56.064915, lon.=26.481403, Alt.=104.563538m. Speed=0.000000m/h.</desc>
<speed>0.000000</speed>
</trkpt>
<trkpt lat="56.064915" lon="26.481403">
<ele>104.565491</ele>
<time>2010-08-29T11:52:23Z</time>
<desc>lat.=56.064915, lon.=26.481403, Alt.=104.565491m. Speed=0.000000m/h.</desc>
<speed>0.000000</speed>
</trkpt>
<trkpt lat="56.064915" lon="26.481403">
<ele>104.573303</ele>
<time>2010-08-29T11:52:24Z</time>
<desc>lat.=56.064915, lon.=26.481403, Alt.=104.573303m. Speed=0.036000m/h.</desc>
<speed>0.010000</speed>
</trkpt>
<trkpt lat="56.064915" lon="26.481403">
<ele>104.583069</ele>
<time>2010-08-29T11:52:25Z</time>
<desc>lat.=56.064915, lon.=26.481403, Alt.=104.583069m. Speed=0.000000m/h.</desc>
<speed>0.000000</speed>
</trkpt>
<trkpt lat="56.064915" lon="26.481403">
<ele>104.586975</ele>
<time>2010-08-29T11:52:26Z</time>
<desc>lat.=56.064915, lon.=26.481403, Alt.=104.586975m. Speed=0.036000m/h.</desc>
<speed>0.010000</speed>
</trkpt>
<trkpt lat="56.064915" lon="26.481403">
<ele>104.586975</ele>
<time>2010-08-29T11:52:27Z</time>
<desc>lat.=56.064915, lon.=26.481403, Alt.=104.586975m. Speed=0.036000m/h.</desc>
<speed>0.010000</speed>
</trkpt>
<trkpt lat="56.064915" lon="26.481403">
<ele>104.592834</ele>
<time>2010-08-29T11:52:28Z</time>
<desc>lat.=56.064915, lon.=26.481403, Alt.=104.592834m. Speed=0.000000m/h.</desc>
<speed>0.000000</speed>
</trkpt>
<trkpt lat="56.064915" lon="26.481403">
<ele>104.594788</ele>
<time>2010-08-29T11:52:29Z</time>
<desc>lat.=56.064915, lon.=26.481403, Alt.=104.594788m. Speed=0.000000m/h.</desc>
<speed>0.000000</speed>
</trkpt>
<trkpt lat="56.064915" lon="26.481403">
<ele>104.594788</ele>
<time>2010-08-29T11:52:30Z</time>
<desc>lat.=56.064915, lon.=26.481403, Alt.=104.594788m. Speed=0.036000m/h.</desc>
<speed>0.010000</speed>
</trkpt>
<trkpt lat="56.064915" lon="26.481403">
<ele>104.594788</ele>
<time>2010-08-29T11:52:31Z</time>
<desc>lat.=56.064915, lon.=26.481403, Alt.=104.594788m. Speed=0.072000m/h.</desc>
<speed>0.020000</speed>
</trkpt>
<trkpt lat="56.064915" lon="26.481403">
<ele>104.594788</ele>
<time>2010-08-29T11:52:32Z</time>
<desc>lat.=56.064915, lon.=26.481403, Alt.=104.594788m. Speed=0.108000m/h.</desc>
<speed>0.030000</speed>
</trkpt>
<trkpt lat="56.064915" lon="26.481403">
<ele>104.598694</ele>
<time>2010-08-29T11:52:33Z</time>
<desc>lat.=56.064915, lon.=26.481403, Alt.=104.598694m. Speed=0.036000m/h.</desc>
<speed>0.010000</speed>
</trkpt>
<trkpt lat="56.064915" lon="26.481403">
<ele>104.604553</ele>
<time>2010-08-29T11:52:34Z</time>
<desc>lat.=56.064915, lon.=26.481403, Alt.=104.604553m. Speed=0.072000m/h.</desc>
<speed>0.020000</speed>
</trkpt>
<trkpt lat="56.064915" lon="26.481403">
<ele>104.606506</ele>
<time>2010-08-29T11:52:35Z</time>
<desc>lat.=56.064915, lon.=26.481403, Alt.=104.606506m. Speed=0.180000m/h.</desc>
<speed>0.050000</speed>
</trkpt>
<trkpt lat="56.064915" lon="26.481405">
<ele>104.608459</ele>
<time>2010-08-29T11:52:36Z</time>
<desc>lat.=56.064915, lon.=26.481405, Alt.=104.608459m. Speed=0.144000m/h.</desc>
<speed>0.040000</speed>
</trkpt>
<trkpt lat="56.064915" lon="26.481405">
<ele>104.616272</ele>
<time>2010-08-29T11:52:37Z</time>
<desc>lat.=56.064915, lon.=26.481405, Alt.=104.616272m. Speed=0.108000m/h.</desc>
<speed>0.030000</speed>
</trkpt>
<trkpt lat="56.064915" lon="26.481405">
<ele>104.622131</ele>
<time>2010-08-29T11:52:38Z</time>
<desc>lat.=56.064915, lon.=26.481405, Alt.=104.622131m. Speed=0.072000m/h.</desc>
<speed>0.020000</speed>
</trkpt>
<trkpt lat="56.064915" lon="26.481405">
<ele>104.624084</ele>
<time>2010-08-29T11:52:39Z</time>
<desc>lat.=56.064915, lon.=26.481405, Alt.=104.624084m. Speed=0.000000m/h.</desc>
<speed>0.000000</speed>
</trkpt>
<trkpt lat="56.064915" lon="26.481405">
<ele>104.626038</ele>
<time>2010-08-29T11:52:40Z</time>
<desc>lat.=56.064915, lon.=26.481405, Alt.=104.626038m. Speed=0.000000m/h.</desc>
<speed>0.000000</speed>
</trkpt>
<trkpt lat="56.064915" lon="26.481405">
<ele>104.627991</ele>
<time>2010-08-29T11:52:41Z</time>
<desc>lat.=56.064915, lon.=26.481405, Alt.=104.627991m. Speed=0.000000m/h.</desc>
<speed>0.000000</speed>
</trkpt>
<trkpt lat="56.064915" lon="26.481405">
<ele>104.626038</ele>
<time>2010-08-29T11:52:42Z</time>
<desc>lat.=56.064915, lon.=26.481405, Alt.=104.626038m. Speed=0.000000m/h.</desc>
<speed>0.000000</speed>
</trkpt>
<trkpt lat="56.064915" lon="26.481405">
<ele>104.627991</ele>
<time>2010-08-29T11:52:43Z</time>
<desc>lat.=56.064915, lon.=26.481405, Alt.=104.627991m. Speed=0.036000m/h.</desc>
<speed>0.010000</speed>
</trkpt>
<trkpt lat="56.064915" lon="26.481405">
<ele>104.631897</ele>
<time>2010-08-29T11:52:44Z</time>
<desc>lat.=56.064915, lon.=26.481405, Alt.=104.631897m. Speed=0.000000m/h.</desc>
<speed>0.000000</speed>
</trkpt>
<trkpt lat="56.064915" lon="26.481405">
<ele>104.629944</ele>
<time>2010-08-29T11:52:45Z</time>
<desc>lat.=56.064915, lon.=26.481405, Alt.=104.629944m. Speed=0.000000m/h.</desc>
<speed>0.000000</speed>
</trkpt>
<trkpt lat="56.064915" lon="26.481405">
<ele>104.629944</ele>
<time>2010-08-29T11:52:46Z</time>
<desc>lat.=56.064915, lon.=26.481405, Alt.=104.629944m. Speed=0.000000m/h.</desc>
<speed>0.000000</speed>
</trkpt>
<trkpt lat="56.064915" lon="26.481405">
<ele>104.631897</ele>
<time>2010-08-29T11:52:47Z</time>
<desc>lat.=56.064915, lon.=26.481405, Alt.=104.631897m. Speed=0.108000m/h.</desc>
<speed>0.030000</speed>
</trkpt>
<trkpt lat="56.064915" lon="26.481405">
<ele>104.635803</ele>
<time>2010-08-29T11:52:48Z</time>
<desc>lat.=56.064915, lon.=26.481405, Alt.=104.635803m. Speed=0.036000m/h.</desc>
<speed>0.010000</speed>
</trkpt>
<trkpt lat="56.064915" lon="26.481407">
<ele>104.637756</ele>
<time>2010-08-29T11:52:49Z</time>
<desc>lat.=56.064915, lon.=26.481407, Alt.=104.637756m. Speed=0.036000m/h.</desc>
<speed>0.010000</speed>
</trkpt>
<trkpt lat="56.064915" lon="26.481407">
<ele>104.641663</ele>
<time>2010-08-29T11:52:50Z</time>
<desc>lat.=56.064915, lon.=26.481407, Alt.=104.641663m. Speed=0.036000m/h.</desc>
<speed>0.010000</speed>
</trkpt>
<trkpt lat="56.064915" lon="26.481407">
<ele>104.647522</ele>
<time>2010-08-29T11:52:51Z</time>
<desc>lat.=56.064915, lon.=26.481407, Alt.=104.647522m. Speed=0.072000m/h.</desc>
<speed>0.020000</speed>
</trkpt>
<trkpt lat="56.064915" lon="26.481407">
<ele>104.653381</ele>
<time>2010-08-29T11:52:52Z</time>
<desc>lat.=56.064915, lon.=26.481407, Alt.=104.653381m. Speed=0.036000m/h.</desc>
<speed>0.010000</speed>
</trkpt>
<trkpt lat="56.064915" lon="26.481405">
<ele>104.659241</ele>
<time>2010-08-29T11:52:53Z</time>
<desc>lat.=56.064915, lon.=26.481405, Alt.=104.659241m. Speed=0.000000m/h.</desc>
<speed>0.000000</speed>
</trkpt>
<trkpt lat="56.064915" lon="26.481405">
<ele>104.665100</ele>
<time>2010-08-29T11:52:54Z</time>
<desc>lat.=56.064915, lon.=26.481405, Alt.=104.665100m. Speed=0.036000m/h.</desc>
<speed>0.010000</speed>
</trkpt>
<trkpt lat="56.064915" lon="26.481405">
<ele>104.670959</ele>
<time>2010-08-29T11:52:55Z</time>
<desc>lat.=56.064915, lon.=26.481405, Alt.=104.670959m. Speed=0.036000m/h.</desc>
<speed>0.010000</speed>
</trkpt>
<trkpt lat="56.064915" lon="26.481405">
<ele>104.676819</ele>
<time>2010-08-29T11:52:56Z</time>
<desc>lat.=56.064915, lon.=26.481405, Alt.=104.676819m. Speed=0.036000m/h.</desc>
<speed>0.010000</speed>
</trkpt>
<trkpt lat="56.064915" lon="26.481405">
<ele>104.688538</ele>
<time>2010-08-29T11:52:57Z</time>
<desc>lat.=56.064915, lon.=26.481405, Alt.=104.688538m. Speed=0.000000m/h.</desc>
<speed>0.000000</speed>
</trkpt>
<trkpt lat="56.064915" lon="26.481405">
<ele>104.692444</ele>
<time>2010-08-29T11:52:58Z</time>
<desc>lat.=56.064915, lon.=26.481405, Alt.=104.692444m. Speed=0.000000m/h.</desc>
<speed>0.000000</speed>
</trkpt>
<trkpt lat="56.064915" lon="26.481405">
<ele>104.704163</ele>
<time>2010-08-29T11:52:59Z</time>
<desc>lat.=56.064915, lon.=26.481405, Alt.=104.704163m. Speed=0.000000m/h.</desc>
<speed>0.000000</speed>
</trkpt>
<trkpt lat="56.064915" lon="26.481405">
<ele>104.711975</ele>
<time>2010-08-29T11:53:00Z</time>
<desc>lat.=56.064915, lon.=26.481405, Alt.=104.711975m. Speed=0.000000m/h.</desc>
<speed>0.000000</speed>
</trkpt>
<trkpt lat="56.064915" lon="26.481405">
<ele>104.717834</ele>
<time>2010-08-29T11:53:01Z</time>
<desc>lat.=56.064915, lon.=26.481405, Alt.=104.717834m. Speed=0.072000m/h.</desc>
<speed>0.020000</speed>
</trkpt>
<trkpt lat="56.064915" lon="26.481405">
<ele>104.729553</ele>
<time>2010-08-29T11:53:02Z</time>
<desc>lat.=56.064915, lon.=26.481405, Alt.=104.729553m. Speed=0.036000m/h.</desc>
<speed>0.010000</speed>
</trkpt>
<trkpt lat="56.064915" lon="26.481405">
<ele>104.739319</ele>
<time>2010-08-29T11:53:03Z</time>
<desc>lat.=56.064915, lon.=26.481405, Alt.=104.739319m. Speed=0.000000m/h.</desc>
<speed>0.000000</speed>
</trkpt>
<trkpt lat="56.064915" lon="26.481405">
<ele>104.747131</ele>
<time>2010-08-29T11:53:04Z</time>
<desc>lat.=56.064915, lon.=26.481405, Alt.=104.747131m. Speed=0.072000m/h.</desc>
<speed>0.020000</speed>
</trkpt>
<trkpt lat="56.064915" lon="26.481405">
<ele>104.756897</ele>
<time>2010-08-29T11:53:05Z</time>
<desc>lat.=56.064915, lon.=26.481405, Alt.=104.756897m. Speed=0.036000m/h.</desc>
<speed>0.010000</speed>
</trkpt>
<trkpt lat="56.064915" lon="26.481405">
<ele>104.766663</ele>
<time>2010-08-29T11:53:06Z</time>
<desc>lat.=56.064915, lon.=26.481405, Alt.=104.766663m. Speed=0.072000m/h.</desc>
<speed>0.020000</speed>
</trkpt>
<trkpt lat="56.064915" lon="26.481405">
<ele>104.774475</ele>
<time>2010-08-29T11:53:07Z</time>
<desc>lat.=56.064915, lon.=26.481405, Alt.=104.774475m. Speed=0.036000m/h.</desc>
<speed>0.010000</speed>
</trkpt>
<trkpt lat="56.064915" lon="26.481405">
<ele>104.780334</ele>
<time>2010-08-29T11:53:08Z</time>
<desc>lat.=56.064915, lon.=26.481405, Alt.=104.780334m. Speed=0.000000m/h.</desc>
<speed>0.000000</speed>
</trkpt>
<trkpt lat="56.064915" lon="26.481407">
<ele>104.786194</ele>
<time>2010-08-29T11:53:09Z</time>
<desc>lat.=56.064915, lon.=26.481407, Alt.=104.786194m. Speed=0.000000m/h.</desc>
<speed>0.000000</speed>
</trkpt>
<trkpt lat="56.064915" lon="26.481407">
<ele>104.794006</ele>
<time>2010-08-29T11:53:10Z</time>
<desc>lat.=56.064915, lon.=26.481407, Alt.=104.794006m. Speed=0.036000m/h.</desc>
<speed>0.010000</speed>
</trkpt>
<trkpt lat="56.064915" lon="26.481407">
<ele>104.801819</ele>
<time>2010-08-29T11:53:11Z</time>
<desc>lat.=56.064915, lon.=26.481407, Alt.=104.801819m. Speed=0.036000m/h.</desc>
<speed>0.010000</speed>
</trkpt>
<trkpt lat="56.064915" lon="26.481407">
<ele>104.805725</ele>
<time>2010-08-29T11:53:12Z</time>
<desc>lat.=56.064915, lon.=26.481407, Alt.=104.805725m. Speed=0.000000m/h.</desc>
<speed>0.000000</speed>
</trkpt>
<trkpt lat="56.064915" lon="26.481407">
<ele>104.807678</ele>
<time>2010-08-29T11:53:13Z</time>
<desc>lat.=56.064915, lon.=26.481407, Alt.=104.807678m. Speed=0.000000m/h.</desc>
<speed>0.000000</speed>
</trkpt>
<trkpt lat="56.064915" lon="26.481407">
<ele>104.813538</ele>
<time>2010-08-29T11:53:14Z</time>
<desc>lat.=56.064915, lon.=26.481407, Alt.=104.813538m. Speed=0.036000m/h.</desc>
<speed>0.010000</speed>
</trkpt>
<trkpt lat="56.064915" lon="26.481407">
<ele>104.815491</ele>
<time>2010-08-29T11:53:15Z</time>
<desc>lat.=56.064915, lon.=26.481407, Alt.=104.815491m. Speed=0.036000m/h.</desc>
<speed>0.010000</speed>
</trkpt>
<trkpt lat="56.064915" lon="26.481407">
<ele>104.819397</ele>
<time>2010-08-29T11:53:16Z</time>
<desc>lat.=56.064915, lon.=26.481407, Alt.=104.819397m. Speed=0.036000m/h.</desc>
<speed>0.010000</speed>
</trkpt>
<trkpt lat="56.064915" lon="26.481407">
<ele>104.825256</ele>
<time>2010-08-29T11:53:17Z</time>
<desc>lat.=56.064915, lon.=26.481407, Alt.=104.825256m. Speed=0.000000m/h.</desc>
<speed>0.000000</speed>
</trkpt>
<trkpt lat="56.064915" lon="26.481407">
<ele>104.827209</ele>
<time>2010-08-29T11:53:18Z</time>
<desc>lat.=56.064915, lon.=26.481407, Alt.=104.827209m. Speed=0.036000m/h.</desc>
<speed>0.010000</speed>
</trkpt>
<trkpt lat="56.064915" lon="26.481407">
<ele>104.835022</ele>
<time>2010-08-29T11:53:19Z</time>
<desc>lat.=56.064915, lon.=26.481407, Alt.=104.835022m. Speed=0.036000m/h.</desc>
<speed>0.010000</speed>
</trkpt>
<trkpt lat="56.064915" lon="26.481407">
<ele>104.840881</ele>
<time>2010-08-29T11:53:20Z</time>
<desc>lat.=56.064915, lon.=26.481407, Alt.=104.840881m. Speed=0.000000m/h.</desc>
<speed>0.000000</speed>
</trkpt>
<trkpt lat="56.064915" lon="26.481407">
<ele>104.842834</ele>
<time>2010-08-29T11:53:21Z</time>
<desc>lat.=56.064915, lon.=26.481407, Alt.=104.842834m. Speed=0.000000m/h.</desc>
<speed>0.000000</speed>
</trkpt>
<trkpt lat="56.064915" lon="26.481407">
<ele>104.850647</ele>
<time>2010-08-29T11:53:22Z</time>
<desc>lat.=56.064915, lon.=26.481407, Alt.=104.850647m. Speed=0.000000m/h.</desc>
<speed>0.000000</speed>
</trkpt>
<trkpt lat="56.064915" lon="26.481407">
<ele>104.848694</ele>
<time>2010-08-29T11:53:23Z</time>
<desc>lat.=56.064915, lon.=26.481407, Alt.=104.848694m. Speed=0.000000m/h.</desc>
<speed>0.000000</speed>
</trkpt>
<trkpt lat="56.064915" lon="26.481407">
<ele>104.846741</ele>
<time>2010-08-29T11:53:24Z</time>
<desc>lat.=56.064915, lon.=26.481407, Alt.=104.846741m. Speed=0.036000m/h.</desc>
<speed>0.010000</speed>
</trkpt>
<trkpt lat="56.064915" lon="26.481407">
<ele>104.848694</ele>
<time>2010-08-29T11:53:25Z</time>
<desc>lat.=56.064915, lon.=26.481407, Alt.=104.848694m. Speed=0.000000m/h.</desc>
<speed>0.000000</speed>
</trkpt>
<trkpt lat="56.064915" lon="26.481407">
<ele>104.846741</ele>
<time>2010-08-29T11:53:26Z</time>
<desc>lat.=56.064915, lon.=26.481407, Alt.=104.846741m. Speed=0.000000m/h.</desc>
<speed>0.000000</speed>
</trkpt>
<trkpt lat="56.064915" lon="26.481407">
<ele>104.842834</ele>
<time>2010-08-29T11:53:27Z</time>
<desc>lat.=56.064915, lon.=26.481407, Alt.=104.842834m. Speed=0.000000m/h.</desc>
<speed>0.000000</speed>
</trkpt>
<trkpt lat="56.064915" lon="26.481407">
<ele>104.838928</ele>
<time>2010-08-29T11:53:28Z</time>
<desc>lat.=56.064915, lon.=26.481407, Alt.=104.838928m. Speed=0.036000m/h.</desc>
<speed>0.010000</speed>
</trkpt>
<trkpt lat="56.064915" lon="26.481407">
<ele>104.835022</ele>
<time>2010-08-29T11:53:29Z</time>
<desc>lat.=56.064915, lon.=26.481407, Alt.=104.835022m. Speed=0.000000m/h.</desc>
<speed>0.000000</speed>
</trkpt>
<trkpt lat="56.064915" lon="26.481409">
<ele>104.833069</ele>
<time>2010-08-29T11:53:30Z</time>
<desc>lat.=56.064915, lon.=26.481409, Alt.=104.833069m. Speed=0.000000m/h.</desc>
<speed>0.000000</speed>
</trkpt>
<trkpt lat="56.064915" lon="26.481409">
<ele>104.827209</ele>
<time>2010-08-29T11:53:31Z</time>
<desc>lat.=56.064915, lon.=26.481409, Alt.=104.827209m. Speed=0.000000m/h.</desc>
<speed>0.000000</speed>
</trkpt>
<trkpt lat="56.064915" lon="26.481409">
<ele>104.823303</ele>
<time>2010-08-29T11:53:32Z</time>
<desc>lat.=56.064915, lon.=26.481409, Alt.=104.823303m. Speed=0.000000m/h.</desc>
<speed>0.000000</speed>
</trkpt>
<trkpt lat="56.064915" lon="26.481409">
<ele>104.821350</ele>
<time>2010-08-29T11:53:33Z</time>
<desc>lat.=56.064915, lon.=26.481409, Alt.=104.821350m. Speed=0.000000m/h.</desc>
<speed>0.000000</speed>
</trkpt>
<trkpt lat="56.064915" lon="26.481409">
<ele>104.813538</ele>
<time>2010-08-29T11:53:34Z</time>
<desc>lat.=56.064915, lon.=26.481409, Alt.=104.813538m. Speed=0.036000m/h.</desc>
<speed>0.010000</speed>
</trkpt>
<trkpt lat="56.064915" lon="26.481409">
<ele>104.805725</ele>
<time>2010-08-29T11:53:35Z</time>
<desc>lat.=56.064915, lon.=26.481409, Alt.=104.805725m. Speed=0.036000m/h.</desc>
<speed>0.010000</speed>
</trkpt>
<trkpt lat="56.064915" lon="26.481409">
<ele>104.801819</ele>
<time>2010-08-29T11:53:36Z</time>
<desc>lat.=56.064915, lon.=26.481409, Alt.=104.801819m. Speed=0.000000m/h.</desc>
<speed>0.000000</speed>
</trkpt>
<trkpt lat="56.064915" lon="26.481409">
<ele>104.795959</ele>
<time>2010-08-29T11:53:37Z</time>
<desc>lat.=56.064915, lon.=26.481409, Alt.=104.795959m. Speed=0.000000m/h.</desc>
<speed>0.000000</speed>
</trkpt>
<trkpt lat="56.064915" lon="26.481409">
<ele>104.792053</ele>
<time>2010-08-29T11:53:38Z</time>
<desc>lat.=56.064915, lon.=26.481409, Alt.=104.792053m. Speed=0.036000m/h.</desc>
<speed>0.010000</speed>
</trkpt>
<trkpt lat="56.064915" lon="26.481409">
<ele>104.790100</ele>
<time>2010-08-29T11:53:39Z</time>
<desc>lat.=56.064915, lon.=26.481409, Alt.=104.790100m. Speed=0.000000m/h.</desc>
<speed>0.000000</speed>
</trkpt>
<trkpt lat="56.064915" lon="26.481409">
<ele>104.788147</ele>
<time>2010-08-29T11:53:40Z</time>
<desc>lat.=56.064915, lon.=26.481409, Alt.=104.788147m. Speed=0.000000m/h.</desc>
<speed>0.000000</speed>
</trkpt>
<trkpt lat="56.064915" lon="26.481409">
<ele>104.792053</ele>
<time>2010-08-29T11:53:41Z</time>
<desc>lat.=56.064915, lon.=26.481409, Alt.=104.792053m. Speed=0.000000m/h.</desc>
<speed>0.000000</speed>
</trkpt>
<trkpt lat="56.064915" lon="26.481409">
<ele>104.792053</ele>
<time>2010-08-29T11:53:42Z</time>
<desc>lat.=56.064915, lon.=26.481409, Alt.=104.792053m. Speed=0.000000m/h.</desc>
<speed>0.000000</speed>
</trkpt>
<trkpt lat="56.064915" lon="26.481409">
<ele>104.803772</ele>
<time>2010-08-29T11:53:43Z</time>
<desc>lat.=56.064915, lon.=26.481409, Alt.=104.803772m. Speed=0.036000m/h.</desc>
<speed>0.010000</speed>
</trkpt>
<trkpt lat="56.064915" lon="26.481409">
<ele>104.803772</ele>
<time>2010-08-29T11:53:44Z</time>
<desc>lat.=56.064915, lon.=26.481409, Alt.=104.803772m. Speed=0.036000m/h.</desc>
<speed>0.010000</speed>
</trkpt>
<trkpt lat="56.064915" lon="26.481409">
<ele>104.803772</ele>
<time>2010-08-29T11:53:45Z</time>
<desc>lat.=56.064915, lon.=26.481409, Alt.=104.803772m. Speed=0.000000m/h.</desc>
<speed>0.000000</speed>
</trkpt>
<trkpt lat="56.064915" lon="26.481411">
<ele>104.805725</ele>
<time>2010-08-29T11:53:46Z</time>
<desc>lat.=56.064915, lon.=26.481411, Alt.=104.805725m. Speed=0.000000m/h.</desc>
<speed>0.000000</speed>
</trkpt>
<trkpt lat="56.064915" lon="26.481411">
<ele>104.809631</ele>
<time>2010-08-29T11:53:47Z</time>
<desc>lat.=56.064915, lon.=26.481411, Alt.=104.809631m. Speed=0.000000m/h.</desc>
<speed>0.000000</speed>
</trkpt>
<trkpt lat="56.064915" lon="26.481411">
<ele>104.815491</ele>
<time>2010-08-29T11:53:48Z</time>
<desc>lat.=56.064915, lon.=26.481411, Alt.=104.815491m. Speed=0.000000m/h.</desc>
<speed>0.000000</speed>
</trkpt>
<trkpt lat="56.064915" lon="26.481411">
<ele>104.815491</ele>
<time>2010-08-29T11:53:49Z</time>
<desc>lat.=56.064915, lon.=26.481411, Alt.=104.815491m. Speed=0.000000m/h.</desc>
<speed>0.000000</speed>
</trkpt>
<trkpt lat="56.064915" lon="26.481411">
<ele>104.817444</ele>
<time>2010-08-29T11:53:50Z</time>
<desc>lat.=56.064915, lon.=26.481411, Alt.=104.817444m. Speed=0.000000m/h.</desc>
<speed>0.000000</speed>
</trkpt>
<trkpt lat="56.064915" lon="26.481411">
<ele>104.823303</ele>
<time>2010-08-29T11:53:51Z</time>
<desc>lat.=56.064915, lon.=26.481411, Alt.=104.823303m. Speed=0.000000m/h.</desc>
<speed>0.000000</speed>
</trkpt>
<trkpt lat="56.064915" lon="26.481411">
<ele>104.821350</ele>
<time>2010-08-29T11:53:52Z</time>
<desc>lat.=56.064915, lon.=26.481411, Alt.=104.821350m. Speed=0.000000m/h.</desc>
<speed>0.000000</speed>
</trkpt>
<trkpt lat="56.064915" lon="26.481411">
<ele>104.827209</ele>
<time>2010-08-29T11:53:53Z</time>
<desc>lat.=56.064915, lon.=26.481411, Alt.=104.827209m. Speed=0.000000m/h.</desc>
<speed>0.000000</speed>
</trkpt>
<trkpt lat="56.064915" lon="26.481411">
<ele>104.829163</ele>
<time>2010-08-29T11:53:54Z</time>
<desc>lat.=56.064915, lon.=26.481411, Alt.=104.829163m. Speed=0.000000m/h.</desc>
<speed>0.000000</speed>
</trkpt>
<trkpt lat="56.064915" lon="26.481411">
<ele>104.831116</ele>
<time>2010-08-29T11:53:55Z</time>
<desc>lat.=56.064915, lon.=26.481411, Alt.=104.831116m. Speed=0.036000m/h.</desc>
<speed>0.010000</speed>
</trkpt>
<trkpt lat="56.064915" lon="26.481411">
<ele>104.836975</ele>
<time>2010-08-29T11:53:56Z</time>
<desc>lat.=56.064915, lon.=26.481411, Alt.=104.836975m. Speed=0.036000m/h.</desc>
<speed>0.010000</speed>
</trkpt>
<trkpt lat="56.064915" lon="26.481411">
<ele>104.835022</ele>
<time>2010-08-29T11:53:57Z</time>
<desc>lat.=56.064915, lon.=26.481411, Alt.=104.835022m. Speed=0.000000m/h.</desc>
<speed>0.000000</speed>
</trkpt>
<trkpt lat="56.064915" lon="26.481411">
<ele>104.836975</ele>
<time>2010-08-29T11:53:58Z</time>
<desc>lat.=56.064915, lon.=26.481411, Alt.=104.836975m. Speed=0.000000m/h.</desc>
<speed>0.000000</speed>
</trkpt>
<trkpt lat="56.064915" lon="26.481411">
<ele>104.833069</ele>
<time>2010-08-29T11:53:59Z</time>
<desc>lat.=56.064915, lon.=26.481411, Alt.=104.833069m. Speed=0.000000m/h.</desc>
<speed>0.000000</speed>
</trkpt>
<trkpt lat="56.064915" lon="26.481411">
<ele>104.835022</ele>
<time>2010-08-29T11:54:00Z</time>
<desc>lat.=56.064915, lon.=26.481411, Alt.=104.835022m. Speed=0.036000m/h.</desc>
<speed>0.010000</speed>
</trkpt>
<trkpt lat="56.064915" lon="26.481411">
<ele>104.833069</ele>
<time>2010-08-29T11:54:01Z</time>
<desc>lat.=56.064915, lon.=26.481411, Alt.=104.833069m. Speed=0.000000m/h.</desc>
<speed>0.000000</speed>
</trkpt>
<trkpt lat="56.064915" lon="26.481411">
<ele>104.829163</ele>
<time>2010-08-29T11:54:02Z</time>
<desc>lat.=56.064915, lon.=26.481411, Alt.=104.829163m. Speed=0.000000m/h.</desc>
<speed>0.000000</speed>
</trkpt>
<trkpt lat="56.064915" lon="26.481411">
<ele>104.829163</ele>
<time>2010-08-29T11:54:03Z</time>
<desc>lat.=56.064915, lon.=26.481411, Alt.=104.829163m. Speed=0.000000m/h.</desc>
<speed>0.000000</speed>
</trkpt>
<trkpt lat="56.064915" lon="26.481411">
<ele>104.825256</ele>
<time>2010-08-29T11:54:04Z</time>
<desc>lat.=56.064915, lon.=26.481411, Alt.=104.825256m. Speed=0.000000m/h.</desc>
<speed>0.000000</speed>
</trkpt>
<trkpt lat="56.064915" lon="26.481411">
<ele>104.825256</ele>
<time>2010-08-29T11:54:05Z</time>
<desc>lat.=56.064915, lon.=26.481411, Alt.=104.825256m. Speed=0.000000m/h.</desc>
<speed>0.000000</speed>
</trkpt>
<trkpt lat="56.064915" lon="26.481411">
<ele>104.819397</ele>
<time>2010-08-29T11:54:06Z</time>
<desc>lat.=56.064915, lon.=26.481411, Alt.=104.819397m. Speed=0.000000m/h.</desc>
<speed>0.000000</speed>
</trkpt>
<trkpt lat="56.064915" lon="26.481411">
<ele>104.819397</ele>
<time>2010-08-29T11:54:07Z</time>
<desc>lat.=56.064915, lon.=26.481411, Alt.=104.819397m. Speed=0.036000m/h.</desc>
<speed>0.010000</speed>
</trkpt>
<trkpt lat="56.064915" lon="26.481411">
<ele>104.815491</ele>
<time>2010-08-29T11:54:08Z</time>
<desc>lat.=56.064915, lon.=26.481411, Alt.=104.815491m. Speed=0.000000m/h.</desc>
<speed>0.000000</speed>
</trkpt>
<trkpt lat="56.064915" lon="26.481411">
<ele>104.809631</ele>
<time>2010-08-29T11:54:09Z</time>
<desc>lat.=56.064915, lon.=26.481411, Alt.=104.809631m. Speed=0.000000m/h.</desc>
<speed>0.000000</speed>
</trkpt>
<trkpt lat="56.064915" lon="26.481413">
<ele>104.805725</ele>
<time>2010-08-29T11:54:10Z</time>
<desc>lat.=56.064915, lon.=26.481413, Alt.=104.805725m. Speed=0.036000m/h.</desc>
<speed>0.010000</speed>
</trkpt>
<trkpt lat="56.064915" lon="26.481413">
<ele>104.803772</ele>
<time>2010-08-29T11:54:11Z</time>
<desc>lat.=56.064915, lon.=26.481413, Alt.=104.803772m. Speed=0.036000m/h.</desc>
<speed>0.010000</speed>
</trkpt>
<trkpt lat="56.064915" lon="26.481413">
<ele>104.805725</ele>
<time>2010-08-29T11:54:12Z</time>
<desc>lat.=56.064915, lon.=26.481413, Alt.=104.805725m. Speed=0.000000m/h.</desc>
<speed>0.000000</speed>
</trkpt>
<trkpt lat="56.064915" lon="26.481413">
<ele>104.805725</ele>
<time>2010-08-29T11:54:13Z</time>
<desc>lat.=56.064915, lon.=26.481413, Alt.=104.805725m. Speed=0.000000m/h.</desc>
<speed>0.000000</speed>
</trkpt>
<trkpt lat="56.064915" lon="26.481413">
<ele>104.805725</ele>
<time>2010-08-29T11:54:14Z</time>
<desc>lat.=56.064915, lon.=26.481413, Alt.=104.805725m. Speed=0.000000m/h.</desc>
<speed>0.000000</speed>
</trkpt>
<trkpt lat="56.064915" lon="26.481413">
<ele>104.805725</ele>
<time>2010-08-29T11:54:15Z</time>
<desc>lat.=56.064915, lon.=26.481413, Alt.=104.805725m. Speed=0.000000m/h.</desc>
<speed>0.000000</speed>
</trkpt>
<trkpt lat="56.064915" lon="26.481413">
<ele>104.807678</ele>
<time>2010-08-29T11:54:16Z</time>
<desc>lat.=56.064915, lon.=26.481413, Alt.=104.807678m. Speed=0.036000m/h.</desc>
<speed>0.010000</speed>
</trkpt>
<trkpt lat="56.064915" lon="26.481413">
<ele>104.807678</ele>
<time>2010-08-29T11:54:17Z</time>
<desc>lat.=56.064915, lon.=26.481413, Alt.=104.807678m. Speed=0.000000m/h.</desc>
<speed>0.000000</speed>
</trkpt>
<trkpt lat="56.064915" lon="26.481413">
<ele>104.811584</ele>
<time>2010-08-29T11:54:18Z</time>
<desc>lat.=56.064915, lon.=26.481413, Alt.=104.811584m. Speed=0.000000m/h.</desc>
<speed>0.000000</speed>
</trkpt>
<trkpt lat="56.064915" lon="26.481413">
<ele>104.819397</ele>
<time>2010-08-29T11:54:19Z</time>
<desc>lat.=56.064915, lon.=26.481413, Alt.=104.819397m. Speed=0.036000m/h.</desc>
<speed>0.010000</speed>
</trkpt>
<trkpt lat="56.064915" lon="26.481413">
<ele>104.821350</ele>
<time>2010-08-29T11:54:20Z</time>
<desc>lat.=56.064915, lon.=26.481413, Alt.=104.821350m. Speed=0.000000m/h.</desc>
<speed>0.000000</speed>
</trkpt>
<trkpt lat="56.064915" lon="26.481413">
<ele>104.823303</ele>
<time>2010-08-29T11:54:21Z</time>
<desc>lat.=56.064915, lon.=26.481413, Alt.=104.823303m. Speed=0.000000m/h.</desc>
<speed>0.000000</speed>
</trkpt>
<trkpt lat="56.064915" lon="26.481413">
<ele>104.833069</ele>
<time>2010-08-29T11:54:22Z</time>
<desc>lat.=56.064915, lon.=26.481413, Alt.=104.833069m. Speed=0.000000m/h.</desc>
<speed>0.000000</speed>
</trkpt>
<trkpt lat="56.064915" lon="26.481413">
<ele>104.836975</ele>
<time>2010-08-29T11:54:23Z</time>
<desc>lat.=56.064915, lon.=26.481413, Alt.=104.836975m. Speed=0.000000m/h.</desc>
<speed>0.000000</speed>
</trkpt>
<trkpt lat="56.064915" lon="26.481413">
<ele>104.838928</ele>
<time>2010-08-29T11:54:24Z</time>
<desc>lat.=56.064915, lon.=26.481413, Alt.=104.838928m. Speed=0.000000m/h.</desc>
<speed>0.000000</speed>
</trkpt>
<trkpt lat="56.064915" lon="26.481413">
<ele>104.840881</ele>
<time>2010-08-29T11:54:25Z</time>
<desc>lat.=56.064915, lon.=26.481413, Alt.=104.840881m. Speed=0.036000m/h.</desc>
<speed>0.010000</speed>
</trkpt>
<trkpt lat="56.064915" lon="26.481413">
<ele>104.844788</ele>
<time>2010-08-29T11:54:26Z</time>
<desc>lat.=56.064915, lon.=26.481413, Alt.=104.844788m. Speed=0.000000m/h.</desc>
<speed>0.000000</speed>
</trkpt>
<trkpt lat="56.064915" lon="26.481413">
<ele>104.842834</ele>
<time>2010-08-29T11:54:27Z</time>
<desc>lat.=56.064915, lon.=26.481413, Alt.=104.842834m. Speed=0.036000m/h.</desc>
<speed>0.010000</speed>
</trkpt>
<trkpt lat="56.064915" lon="26.481413">
<ele>104.844788</ele>
<time>2010-08-29T11:54:28Z</time>
<desc>lat.=56.064915, lon.=26.481413, Alt.=104.844788m. Speed=0.036000m/h.</desc>
<speed>0.010000</speed>
</trkpt>
<trkpt lat="56.064915" lon="26.481413">
<ele>104.844788</ele>
<time>2010-08-29T11:54:29Z</time>
<desc>lat.=56.064915, lon.=26.481413, Alt.=104.844788m. Speed=0.000000m/h.</desc>
<speed>0.000000</speed>
</trkpt>
<trkpt lat="56.064915" lon="26.481413">
<ele>104.846741</ele>
<time>2010-08-29T11:54:30Z</time>
<desc>lat.=56.064915, lon.=26.481413, Alt.=104.846741m. Speed=0.000000m/h.</desc>
<speed>0.000000</speed>
</trkpt>
<trkpt lat="56.064915" lon="26.481413">
<ele>104.848694</ele>
<time>2010-08-29T11:54:31Z</time>
<desc>lat.=56.064915, lon.=26.481413, Alt.=104.848694m. Speed=0.000000m/h.</desc>
<speed>0.000000</speed>
</trkpt>
<trkpt lat="56.064915" lon="26.481413">
<ele>104.852600</ele>
<time>2010-08-29T11:54:32Z</time>
<desc>lat.=56.064915, lon.=26.481413, Alt.=104.852600m. Speed=0.000000m/h.</desc>
<speed>0.000000</speed>
</trkpt>
<trkpt lat="56.064915" lon="26.481413">
<ele>104.852600</ele>
<time>2010-08-29T11:54:33Z</time>
<desc>lat.=56.064915, lon.=26.481413, Alt.=104.852600m. Speed=0.036000m/h.</desc>
<speed>0.010000</speed>
</trkpt>
<trkpt lat="56.064915" lon="26.481413">
<ele>104.852600</ele>
<time>2010-08-29T11:54:34Z</time>
<desc>lat.=56.064915, lon.=26.481413, Alt.=104.852600m. Speed=0.000000m/h.</desc>
<speed>0.000000</speed>
</trkpt>
<trkpt lat="56.064915" lon="26.481413">
<ele>104.856506</ele>
<time>2010-08-29T11:54:35Z</time>
<desc>lat.=56.064915, lon.=26.481413, Alt.=104.856506m. Speed=0.036000m/h.</desc>
<speed>0.010000</speed>
</trkpt>
<trkpt lat="56.064915" lon="26.481413">
<ele>104.856506</ele>
<time>2010-08-29T11:54:36Z</time>
<desc>lat.=56.064915, lon.=26.481413, Alt.=104.856506m. Speed=0.000000m/h.</desc>
<speed>0.000000</speed>
</trkpt>
<trkpt lat="56.064915" lon="26.481413">
<ele>104.858459</ele>
<time>2010-08-29T11:54:37Z</time>
<desc>lat.=56.064915, lon.=26.481413, Alt.=104.858459m. Speed=0.000000m/h.</desc>
<speed>0.000000</speed>
</trkpt>
<trkpt lat="56.064915" lon="26.481413">
<ele>104.856506</ele>
<time>2010-08-29T11:54:38Z</time>
<desc>lat.=56.064915, lon.=26.481413, Alt.=104.856506m. Speed=0.036000m/h.</desc>
<speed>0.010000</speed>
</trkpt>
<trkpt lat="56.064915" lon="26.481413">
<ele>104.860413</ele>
<time>2010-08-29T11:54:39Z</time>
<desc>lat.=56.064915, lon.=26.481413, Alt.=104.860413m. Speed=0.036000m/h.</desc>
<speed>0.010000</speed>
</trkpt>
<trkpt lat="56.064915" lon="26.481413">
<ele>104.860413</ele>
<time>2010-08-29T11:54:40Z</time>
<desc>lat.=56.064915, lon.=26.481413, Alt.=104.860413m. Speed=0.000000m/h.</desc>
<speed>0.000000</speed>
</trkpt>
<trkpt lat="56.064915" lon="26.481413">
<ele>104.862366</ele>
<time>2010-08-29T11:54:41Z</time>
<desc>lat.=56.064915, lon.=26.481413, Alt.=104.862366m. Speed=0.072000m/h.</desc>
<speed>0.020000</speed>
</trkpt>
<trkpt lat="56.064915" lon="26.481413">
<ele>104.866272</ele>
<time>2010-08-29T11:54:42Z</time>
<desc>lat.=56.064915, lon.=26.481413, Alt.=104.866272m. Speed=0.036000m/h.</desc>
<speed>0.010000</speed>
</trkpt>
<trkpt lat="56.064915" lon="26.481413">
<ele>104.870178</ele>
<time>2010-08-29T11:54:43Z</time>
<desc>lat.=56.064915, lon.=26.481413, Alt.=104.870178m. Speed=0.000000m/h.</desc>
<speed>0.000000</speed>
</trkpt>
<trkpt lat="56.064915" lon="26.481413">
<ele>104.872131</ele>
<time>2010-08-29T11:54:44Z</time>
<desc>lat.=56.064915, lon.=26.481413, Alt.=104.872131m. Speed=0.036000m/h.</desc>
<speed>0.010000</speed>
</trkpt>
<trkpt lat="56.064915" lon="26.481413">
<ele>104.876038</ele>
<time>2010-08-29T11:54:45Z</time>
<desc>lat.=56.064915, lon.=26.481413, Alt.=104.876038m. Speed=0.036000m/h.</desc>
<speed>0.010000</speed>
</trkpt>
<trkpt lat="56.064915" lon="26.481413">
<ele>104.879944</ele>
<time>2010-08-29T11:54:46Z</time>
<desc>lat.=56.064915, lon.=26.481413, Alt.=104.879944m. Speed=0.000000m/h.</desc>
<speed>0.000000</speed>
</trkpt>
<trkpt lat="56.064915" lon="26.481413">
<ele>104.883850</ele>
<time>2010-08-29T11:54:47Z</time>
<desc>lat.=56.064915, lon.=26.481413, Alt.=104.883850m. Speed=0.000000m/h.</desc>
<speed>0.000000</speed>
</trkpt>
<trkpt lat="56.064915" lon="26.481413">
<ele>104.883850</ele>
<time>2010-08-29T11:54:48Z</time>
<desc>lat.=56.064915, lon.=26.481413, Alt.=104.883850m. Speed=0.000000m/h.</desc>
<speed>0.000000</speed>
</trkpt>
<trkpt lat="56.064915" lon="26.481413">
<ele>104.883850</ele>
<time>2010-08-29T11:54:49Z</time>
<desc>lat.=56.064915, lon.=26.481413, Alt.=104.883850m. Speed=0.036000m/h.</desc>
<speed>0.010000</speed>
</trkpt>
<trkpt lat="56.064915" lon="26.481413">
<ele>104.887756</ele>
<time>2010-08-29T11:54:50Z</time>
<desc>lat.=56.064915, lon.=26.481413, Alt.=104.887756m. Speed=0.000000m/h.</desc>
<speed>0.000000</speed>
</trkpt>
<trkpt lat="56.064915" lon="26.481413">
<ele>104.883850</ele>
<time>2010-08-29T11:54:51Z</time>
<desc>lat.=56.064915, lon.=26.481413, Alt.=104.883850m. Speed=0.036000m/h.</desc>
<speed>0.010000</speed>
</trkpt>
<trkpt lat="56.064915" lon="26.481413">
<ele>104.883850</ele>
<time>2010-08-29T11:54:52Z</time>
<desc>lat.=56.064915, lon.=26.481413, Alt.=104.883850m. Speed=0.000000m/h.</desc>
<speed>0.000000</speed>
</trkpt>
<trkpt lat="56.064915" lon="26.481413">
<ele>104.881897</ele>
<time>2010-08-29T11:54:53Z</time>
<desc>lat.=56.064915, lon.=26.481413, Alt.=104.881897m. Speed=0.036000m/h.</desc>
<speed>0.010000</speed>
</trkpt>
<trkpt lat="56.064915" lon="26.481413">
<ele>104.883850</ele>
<time>2010-08-29T11:54:54Z</time>
<desc>lat.=56.064915, lon.=26.481413, Alt.=104.883850m. Speed=0.000000m/h.</desc>
<speed>0.000000</speed>
</trkpt>
<trkpt lat="56.064915" lon="26.481413">
<ele>104.881897</ele>
<time>2010-08-29T11:54:55Z</time>
<desc>lat.=56.064915, lon.=26.481413, Alt.=104.881897m. Speed=0.000000m/h.</desc>
<speed>0.000000</speed>
</trkpt>
<trkpt lat="56.064915" lon="26.481413">
<ele>104.883850</ele>
<time>2010-08-29T11:54:56Z</time>
<desc>lat.=56.064915, lon.=26.481413, Alt.=104.883850m. Speed=0.000000m/h.</desc>
<speed>0.000000</speed>
</trkpt>
<trkpt lat="56.064915" lon="26.481413">
<ele>104.883850</ele>
<time>2010-08-29T11:54:57Z</time>
<desc>lat.=56.064915, lon.=26.481413, Alt.=104.883850m. Speed=0.000000m/h.</desc>
<speed>0.000000</speed>
</trkpt>
<trkpt lat="56.064915" lon="26.481413">
<ele>104.887756</ele>
<time>2010-08-29T11:54:58Z</time>
<desc>lat.=56.064915, lon.=26.481413, Alt.=104.887756m. Speed=0.000000m/h.</desc>
<speed>0.000000</speed>
</trkpt>
<trkpt lat="56.064915" lon="26.481413">
<ele>104.887756</ele>
<time>2010-08-29T11:54:59Z</time>
<desc>lat.=56.064915, lon.=26.481413, Alt.=104.887756m. Speed=0.000000m/h.</desc>
<speed>0.000000</speed>
</trkpt>
<trkpt lat="56.064915" lon="26.481413">
<ele>104.891663</ele>
<time>2010-08-29T11:55:00Z</time>
<desc>lat.=56.064915, lon.=26.481413, Alt.=104.891663m. Speed=0.000000m/h.</desc>
<speed>0.000000</speed>
</trkpt>
<trkpt lat="56.064915" lon="26.481413">
<ele>104.891663</ele>
<time>2010-08-29T11:55:01Z</time>
<desc>lat.=56.064915, lon.=26.481413, Alt.=104.891663m. Speed=0.000000m/h.</desc>
<speed>0.000000</speed>
</trkpt>
<trkpt lat="56.064915" lon="26.481413">
<ele>104.895569</ele>
<time>2010-08-29T11:55:02Z</time>
<desc>lat.=56.064915, lon.=26.481413, Alt.=104.895569m. Speed=0.000000m/h.</desc>
<speed>0.000000</speed>
</trkpt>
<trkpt lat="56.064915" lon="26.481413">
<ele>104.895569</ele>
<time>2010-08-29T11:55:03Z</time>
<desc>lat.=56.064915, lon.=26.481413, Alt.=104.895569m. Speed=0.000000m/h.</desc>
<speed>0.000000</speed>
</trkpt>
<trkpt lat="56.064915" lon="26.481413">
<ele>104.893616</ele>
<time>2010-08-29T11:55:04Z</time>
<desc>lat.=56.064915, lon.=26.481413, Alt.=104.893616m. Speed=0.000000m/h.</desc>
<speed>0.000000</speed>
</trkpt>
<trkpt lat="56.064915" lon="26.481413">
<ele>104.891663</ele>
<time>2010-08-29T11:55:05Z</time>
<desc>lat.=56.064915, lon.=26.481413, Alt.=104.891663m. Speed=0.108000m/h.</desc>
<speed>0.030000</speed>
</trkpt>
<trkpt lat="56.064915" lon="26.481413">
<ele>104.893616</ele>
<time>2010-08-29T11:55:06Z</time>
<desc>lat.=56.064915, lon.=26.481413, Alt.=104.893616m. Speed=0.000000m/h.</desc>
<speed>0.000000</speed>
</trkpt>
<trkpt lat="56.064915" lon="26.481413">
<ele>104.893616</ele>
<time>2010-08-29T11:55:07Z</time>
<desc>lat.=56.064915, lon.=26.481413, Alt.=104.893616m. Speed=0.036000m/h.</desc>
<speed>0.010000</speed>
</trkpt>
<trkpt lat="56.064915" lon="26.481413">
<ele>104.893616</ele>
<time>2010-08-29T11:55:08Z</time>
<desc>lat.=56.064915, lon.=26.481413, Alt.=104.893616m. Speed=0.036000m/h.</desc>
<speed>0.010000</speed>
</trkpt>
<trkpt lat="56.064915" lon="26.481413">
<ele>104.891663</ele>
<time>2010-08-29T11:55:09Z</time>
<desc>lat.=56.064915, lon.=26.481413, Alt.=104.891663m. Speed=0.072000m/h.</desc>
<speed>0.020000</speed>
</trkpt>
<trkpt lat="56.064915" lon="26.481413">
<ele>104.893616</ele>
<time>2010-08-29T11:55:10Z</time>
<desc>lat.=56.064915, lon.=26.481413, Alt.=104.893616m. Speed=0.000000m/h.</desc>
<speed>0.000000</speed>
</trkpt>
<trkpt lat="56.064915" lon="26.481413">
<ele>104.893616</ele>
<time>2010-08-29T11:55:11Z</time>
<desc>lat.=56.064915, lon.=26.481413, Alt.=104.893616m. Speed=0.000000m/h.</desc>
<speed>0.000000</speed>
</trkpt>
<trkpt lat="56.064915" lon="26.481413">
<ele>104.899475</ele>
<time>2010-08-29T11:55:12Z</time>
<desc>lat.=56.064915, lon.=26.481413, Alt.=104.899475m. Speed=0.000000m/h.</desc>
<speed>0.000000</speed>
</trkpt>
<trkpt lat="56.064915" lon="26.481413">
<ele>104.901428</ele>
<time>2010-08-29T11:55:13Z</time>
<desc>lat.=56.064915, lon.=26.481413, Alt.=104.901428m. Speed=0.000000m/h.</desc>
<speed>0.000000</speed>
</trkpt>
<trkpt lat="56.064915" lon="26.481413">
<ele>104.903381</ele>
<time>2010-08-29T11:55:14Z</time>
<desc>lat.=56.064915, lon.=26.481413, Alt.=104.903381m. Speed=0.000000m/h.</desc>
<speed>0.000000</speed>
</trkpt>
<trkpt lat="56.064915" lon="26.481413">
<ele>104.901428</ele>
<time>2010-08-29T11:55:15Z</time>
<desc>lat.=56.064915, lon.=26.481413, Alt.=104.901428m. Speed=0.000000m/h.</desc>
<speed>0.000000</speed>
</trkpt>
<trkpt lat="56.064915" lon="26.481413">
<ele>104.905334</ele>
<time>2010-08-29T11:55:16Z</time>
<desc>lat.=56.064915, lon.=26.481413, Alt.=104.905334m. Speed=0.072000m/h.</desc>
<speed>0.020000</speed>
</trkpt>
<trkpt lat="56.064915" lon="26.481413">
<ele>104.909241</ele>
<time>2010-08-29T11:55:17Z</time>
<desc>lat.=56.064915, lon.=26.481413, Alt.=104.909241m. Speed=0.000000m/h.</desc>
<speed>0.000000</speed>
</trkpt>
<trkpt lat="56.064915" lon="26.481413">
<ele>104.913147</ele>
<time>2010-08-29T11:55:18Z</time>
<desc>lat.=56.064915, lon.=26.481413, Alt.=104.913147m. Speed=0.000000m/h.</desc>
<speed>0.000000</speed>
</trkpt>
<trkpt lat="56.064915" lon="26.481413">
<ele>104.915100</ele>
<time>2010-08-29T11:55:19Z</time>
<desc>lat.=56.064915, lon.=26.481413, Alt.=104.915100m. Speed=0.000000m/h.</desc>
<speed>0.000000</speed>
</trkpt>
<trkpt lat="56.064915" lon="26.481413">
<ele>104.920959</ele>
<time>2010-08-29T11:55:20Z</time>
<desc>lat.=56.064915, lon.=26.481413, Alt.=104.920959m. Speed=0.108000m/h.</desc>
<speed>0.030000</speed>
</trkpt>
<trkpt lat="56.064915" lon="26.481413">
<ele>104.920959</ele>
<time>2010-08-29T11:55:21Z</time>
<desc>lat.=56.064915, lon.=26.481413, Alt.=104.920959m. Speed=0.036000m/h.</desc>
<speed>0.010000</speed>
</trkpt>
<trkpt lat="56.064915" lon="26.481413">
<ele>104.920959</ele>
<time>2010-08-29T11:55:22Z</time>
<desc>lat.=56.064915, lon.=26.481413, Alt.=104.920959m. Speed=0.000000m/h.</desc>
<speed>0.000000</speed>
</trkpt>
<trkpt lat="56.064915" lon="26.481413">
<ele>104.920959</ele>
<time>2010-08-29T11:55:23Z</time>
<desc>lat.=56.064915, lon.=26.481413, Alt.=104.920959m. Speed=0.072000m/h.</desc>
<speed>0.020000</speed>
</trkpt>
<trkpt lat="56.064915" lon="26.481413">
<ele>104.922913</ele>
<time>2010-08-29T11:55:24Z</time>
<desc>lat.=56.064915, lon.=26.481413, Alt.=104.922913m. Speed=0.036000m/h.</desc>
<speed>0.010000</speed>
</trkpt>
<trkpt lat="56.064915" lon="26.481413">
<ele>104.926819</ele>
<time>2010-08-29T11:55:25Z</time>
<desc>lat.=56.064915, lon.=26.481413, Alt.=104.926819m. Speed=0.036000m/h.</desc>
<speed>0.010000</speed>
</trkpt>
<trkpt lat="56.064915" lon="26.481413">
<ele>104.928772</ele>
<time>2010-08-29T11:55:26Z</time>
<desc>lat.=56.064915, lon.=26.481413, Alt.=104.928772m. Speed=0.000000m/h.</desc>
<speed>0.000000</speed>
</trkpt>
<trkpt lat="56.064915" lon="26.481413">
<ele>104.936584</ele>
<time>2010-08-29T11:55:27Z</time>
<desc>lat.=56.064915, lon.=26.481413, Alt.=104.936584m. Speed=0.072000m/h.</desc>
<speed>0.020000</speed>
</trkpt>
<trkpt lat="56.064915" lon="26.481413">
<ele>104.944397</ele>
<time>2010-08-29T11:55:28Z</time>
<desc>lat.=56.064915, lon.=26.481413, Alt.=104.944397m. Speed=0.036000m/h.</desc>
<speed>0.010000</speed>
</trkpt>
<trkpt lat="56.064911" lon="26.481413">
<ele>104.950256</ele>
<time>2010-08-29T11:55:29Z</time>
<desc>lat.=56.064911, lon.=26.481413, Alt.=104.950256m. Speed=0.036000m/h.</desc>
<speed>0.010000</speed>
</trkpt>
<trkpt lat="56.064911" lon="26.481413">
<ele>104.954163</ele>
<time>2010-08-29T11:55:30Z</time>
<desc>lat.=56.064911, lon.=26.481413, Alt.=104.954163m. Speed=0.072000m/h.</desc>
<speed>0.020000</speed>
</trkpt>
<trkpt lat="56.064911" lon="26.481413">
<ele>104.961975</ele>
<time>2010-08-29T11:55:31Z</time>
<desc>lat.=56.064911, lon.=26.481413, Alt.=104.961975m. Speed=0.000000m/h.</desc>
<speed>0.000000</speed>
</trkpt>
<trkpt lat="56.064911" lon="26.481413">
<ele>104.967834</ele>
<time>2010-08-29T11:55:32Z</time>
<desc>lat.=56.064911, lon.=26.481413, Alt.=104.967834m. Speed=0.072000m/h.</desc>
<speed>0.020000</speed>
</trkpt>
<trkpt lat="56.064911" lon="26.481413">
<ele>104.977600</ele>
<time>2010-08-29T11:55:33Z</time>
<desc>lat.=56.064911, lon.=26.481413, Alt.=104.977600m. Speed=0.108000m/h.</desc>
<speed>0.030000</speed>
</trkpt>
<trkpt lat="56.064911" lon="26.481413">
<ele>104.981506</ele>
<time>2010-08-29T11:55:34Z</time>
<desc>lat.=56.064911, lon.=26.481413, Alt.=104.981506m. Speed=0.072000m/h.</desc>
<speed>0.020000</speed>
</trkpt>
<trkpt lat="56.064911" lon="26.481413">
<ele>104.991272</ele>
<time>2010-08-29T11:55:35Z</time>
<desc>lat.=56.064911, lon.=26.481413, Alt.=104.991272m. Speed=0.108000m/h.</desc>
<speed>0.030000</speed>
</trkpt>
<trkpt lat="56.064911" lon="26.481413">
<ele>104.999084</ele>
<time>2010-08-29T11:55:36Z</time>
<desc>lat.=56.064911, lon.=26.481413, Alt.=104.999084m. Speed=0.072000m/h.</desc>
<speed>0.020000</speed>
</trkpt>
<trkpt lat="56.064911" lon="26.481413">
<ele>104.999084</ele>
<time>2010-08-29T11:55:37Z</time>
<desc>lat.=56.064911, lon.=26.481413, Alt.=104.999084m. Speed=0.036000m/h.</desc>
<speed>0.010000</speed>
</trkpt>
<trkpt lat="56.064911" lon="26.481411">
<ele>105.002991</ele>
<time>2010-08-29T11:55:38Z</time>
<desc>lat.=56.064911, lon.=26.481411, Alt.=105.002991m. Speed=0.000000m/h.</desc>
<speed>0.000000</speed>
</trkpt>
<trkpt lat="56.064911" lon="26.481411">
<ele>105.006897</ele>
<time>2010-08-29T11:55:39Z</time>
<desc>lat.=56.064911, lon.=26.481411, Alt.=105.006897m. Speed=0.144000m/h.</desc>
<speed>0.040000</speed>
</trkpt>
<trkpt lat="56.064911" lon="26.481411">
<ele>105.010803</ele>
<time>2010-08-29T11:55:40Z</time>
<desc>lat.=56.064911, lon.=26.481411, Alt.=105.010803m. Speed=0.036000m/h.</desc>
<speed>0.010000</speed>
</trkpt>
<trkpt lat="56.064911" lon="26.481411">
<ele>105.012756</ele>
<time>2010-08-29T11:55:41Z</time>
<desc>lat.=56.064911, lon.=26.481411, Alt.=105.012756m. Speed=0.036000m/h.</desc>
<speed>0.010000</speed>
</trkpt>
<trkpt lat="56.064911" lon="26.481411">
<ele>105.016663</ele>
<time>2010-08-29T11:55:42Z</time>
<desc>lat.=56.064911, lon.=26.481411, Alt.=105.016663m. Speed=0.072000m/h.</desc>
<speed>0.020000</speed>
</trkpt>
<trkpt lat="56.064911" lon="26.481411">
<ele>105.020569</ele>
<time>2010-08-29T11:55:43Z</time>
<desc>lat.=56.064911, lon.=26.481411, Alt.=105.020569m. Speed=0.108000m/h.</desc>
<speed>0.030000</speed>
</trkpt>
<trkpt lat="56.064911" lon="26.481411">
<ele>105.026428</ele>
<time>2010-08-29T11:55:44Z</time>
<desc>lat.=56.064911, lon.=26.481411, Alt.=105.026428m. Speed=0.000000m/h.</desc>
<speed>0.000000</speed>
</trkpt>
<trkpt lat="56.064911" lon="26.481411">
<ele>105.030334</ele>
<time>2010-08-29T11:55:45Z</time>
<desc>lat.=56.064911, lon.=26.481411, Alt.=105.030334m. Speed=0.072000m/h.</desc>
<speed>0.020000</speed>
</trkpt>
<trkpt lat="56.064911" lon="26.481411">
<ele>105.034241</ele>
<time>2010-08-29T11:55:46Z</time>
<desc>lat.=56.064911, lon.=26.481411, Alt.=105.034241m. Speed=0.072000m/h.</desc>
<speed>0.020000</speed>
</trkpt>
<trkpt lat="56.064911" lon="26.481411">
<ele>105.034241</ele>
<time>2010-08-29T11:55:47Z</time>
<desc>lat.=56.064911, lon.=26.481411, Alt.=105.034241m. Speed=0.072000m/h.</desc>
<speed>0.020000</speed>
</trkpt>
<trkpt lat="56.064911" lon="26.481411">
<ele>105.036194</ele>
<time>2010-08-29T11:55:48Z</time>
<desc>lat.=56.064911, lon.=26.481411, Alt.=105.036194m. Speed=0.036000m/h.</desc>
<speed>0.010000</speed>
</trkpt>
<trkpt lat="56.064911" lon="26.481411">
<ele>105.036194</ele>
<time>2010-08-29T11:55:49Z</time>
<desc>lat.=56.064911, lon.=26.481411, Alt.=105.036194m. Speed=0.036000m/h.</desc>
<speed>0.010000</speed>
</trkpt>
<trkpt lat="56.064911" lon="26.481411">
<ele>105.036194</ele>
<time>2010-08-29T11:55:50Z</time>
<desc>lat.=56.064911, lon.=26.481411, Alt.=105.036194m. Speed=0.000000m/h.</desc>
<speed>0.000000</speed>
</trkpt>
<trkpt lat="56.064911" lon="26.481411">
<ele>105.036194</ele>
<time>2010-08-29T11:55:51Z</time>
<desc>lat.=56.064911, lon.=26.481411, Alt.=105.036194m. Speed=0.000000m/h.</desc>
<speed>0.000000</speed>
</trkpt>
<trkpt lat="56.064911" lon="26.481411">
<ele>105.034241</ele>
<time>2010-08-29T11:55:52Z</time>
<desc>lat.=56.064911, lon.=26.481411, Alt.=105.034241m. Speed=0.000000m/h.</desc>
<speed>0.000000</speed>
</trkpt>
<trkpt lat="56.064911" lon="26.481411">
<ele>105.040100</ele>
<time>2010-08-29T11:55:53Z</time>
<desc>lat.=56.064911, lon.=26.481411, Alt.=105.040100m. Speed=0.072000m/h.</desc>
<speed>0.020000</speed>
</trkpt>
<trkpt lat="56.064911" lon="26.481411">
<ele>105.042053</ele>
<time>2010-08-29T11:55:54Z</time>
<desc>lat.=56.064911, lon.=26.481411, Alt.=105.042053m. Speed=0.144000m/h.</desc>
<speed>0.040000</speed>
</trkpt>
<trkpt lat="56.064911" lon="26.481411">
<ele>105.045959</ele>
<time>2010-08-29T11:55:55Z</time>
<desc>lat.=56.064911, lon.=26.481411, Alt.=105.045959m. Speed=0.000000m/h.</desc>
<speed>0.000000</speed>
</trkpt>
<trkpt lat="56.064911" lon="26.481411">
<ele>105.045959</ele>
<time>2010-08-29T11:55:56Z</time>
<desc>lat.=56.064911, lon.=26.481411, Alt.=105.045959m. Speed=0.000000m/h.</desc>
<speed>0.000000</speed>
</trkpt>
<trkpt lat="56.064911" lon="26.481411">
<ele>105.047913</ele>
<time>2010-08-29T11:55:57Z</time>
<desc>lat.=56.064911, lon.=26.481411, Alt.=105.047913m. Speed=0.000000m/h.</desc>
<speed>0.000000</speed>
</trkpt>
<trkpt lat="56.064911" lon="26.481411">
<ele>105.047913</ele>
<time>2010-08-29T11:55:58Z</time>
<desc>lat.=56.064911, lon.=26.481411, Alt.=105.047913m. Speed=0.036000m/h.</desc>
<speed>0.010000</speed>
</trkpt>
<trkpt lat="56.064911" lon="26.481411">
<ele>105.047913</ele>
<time>2010-08-29T11:55:59Z</time>
<desc>lat.=56.064911, lon.=26.481411, Alt.=105.047913m. Speed=0.036000m/h.</desc>
<speed>0.010000</speed>
</trkpt>
<trkpt lat="56.064911" lon="26.481411">
<ele>105.049866</ele>
<time>2010-08-29T11:56:00Z</time>
<desc>lat.=56.064911, lon.=26.481411, Alt.=105.049866m. Speed=0.000000m/h.</desc>
<speed>0.000000</speed>
</trkpt>
<trkpt lat="56.064911" lon="26.481411">
<ele>105.047913</ele>
<time>2010-08-29T11:56:01Z</time>
<desc>lat.=56.064911, lon.=26.481411, Alt.=105.047913m. Speed=0.000000m/h.</desc>
<speed>0.000000</speed>
</trkpt>
<trkpt lat="56.064911" lon="26.481411">
<ele>105.049866</ele>
<time>2010-08-29T11:56:02Z</time>
<desc>lat.=56.064911, lon.=26.481411, Alt.=105.049866m. Speed=0.036000m/h.</desc>
<speed>0.010000</speed>
</trkpt>
<trkpt lat="56.064911" lon="26.481411">
<ele>105.047913</ele>
<time>2010-08-29T11:56:03Z</time>
<desc>lat.=56.064911, lon.=26.481411, Alt.=105.047913m. Speed=0.000000m/h.</desc>
<speed>0.000000</speed>
</trkpt>
<trkpt lat="56.064911" lon="26.481411">
<ele>105.045959</ele>
<time>2010-08-29T11:56:04Z</time>
<desc>lat.=56.064911, lon.=26.481411, Alt.=105.045959m. Speed=0.072000m/h.</desc>
<speed>0.020000</speed>
</trkpt>
<trkpt lat="56.064911" lon="26.481411">
<ele>105.044006</ele>
<time>2010-08-29T11:56:05Z</time>
<desc>lat.=56.064911, lon.=26.481411, Alt.=105.044006m. Speed=0.036000m/h.</desc>
<speed>0.010000</speed>
</trkpt>
<trkpt lat="56.064911" lon="26.481413">
<ele>105.040100</ele>
<time>2010-08-29T11:56:06Z</time>
<desc>lat.=56.064911, lon.=26.481413, Alt.=105.040100m. Speed=0.072000m/h.</desc>
<speed>0.020000</speed>
</trkpt>
<trkpt lat="56.064911" lon="26.481413">
<ele>105.042053</ele>
<time>2010-08-29T11:56:07Z</time>
<desc>lat.=56.064911, lon.=26.481413, Alt.=105.042053m. Speed=0.000000m/h.</desc>
<speed>0.000000</speed>
</trkpt>
<trkpt lat="56.064911" lon="26.481413">
<ele>105.040100</ele>
<time>2010-08-29T11:56:08Z</time>
<desc>lat.=56.064911, lon.=26.481413, Alt.=105.040100m. Speed=0.000000m/h.</desc>
<speed>0.000000</speed>
</trkpt>
<trkpt lat="56.064911" lon="26.481413">
<ele>105.040100</ele>
<time>2010-08-29T11:56:09Z</time>
<desc>lat.=56.064911, lon.=26.481413, Alt.=105.040100m. Speed=0.072000m/h.</desc>
<speed>0.020000</speed>
</trkpt>
<trkpt lat="56.064911" lon="26.481413">
<ele>105.038147</ele>
<time>2010-08-29T11:56:10Z</time>
<desc>lat.=56.064911, lon.=26.481413, Alt.=105.038147m. Speed=0.072000m/h.</desc>
<speed>0.020000</speed>
</trkpt>
<trkpt lat="56.064911" lon="26.481413">
<ele>105.040100</ele>
<time>2010-08-29T11:56:11Z</time>
<desc>lat.=56.064911, lon.=26.481413, Alt.=105.040100m. Speed=0.036000m/h.</desc>
<speed>0.010000</speed>
</trkpt>
<trkpt lat="56.064911" lon="26.481413">
<ele>105.038147</ele>
<time>2010-08-29T11:56:12Z</time>
<desc>lat.=56.064911, lon.=26.481413, Alt.=105.038147m. Speed=0.072000m/h.</desc>
<speed>0.020000</speed>
</trkpt>
<trkpt lat="56.064911" lon="26.481413">
<ele>105.036194</ele>
<time>2010-08-29T11:56:13Z</time>
<desc>lat.=56.064911, lon.=26.481413, Alt.=105.036194m. Speed=0.036000m/h.</desc>
<speed>0.010000</speed>
</trkpt>
<trkpt lat="56.064911" lon="26.481413">
<ele>105.038147</ele>
<time>2010-08-29T11:56:14Z</time>
<desc>lat.=56.064911, lon.=26.481413, Alt.=105.038147m. Speed=0.000000m/h.</desc>
<speed>0.000000</speed>
</trkpt>
<trkpt lat="56.064911" lon="26.481413">
<ele>105.038147</ele>
<time>2010-08-29T11:56:15Z</time>
<desc>lat.=56.064911, lon.=26.481413, Alt.=105.038147m. Speed=0.000000m/h.</desc>
<speed>0.000000</speed>
</trkpt>
<trkpt lat="56.064911" lon="26.481413">
<ele>105.038147</ele>
<time>2010-08-29T11:56:16Z</time>
<desc>lat.=56.064911, lon.=26.481413, Alt.=105.038147m. Speed=0.072000m/h.</desc>
<speed>0.020000</speed>
</trkpt>
<trkpt lat="56.064911" lon="26.481413">
<ele>105.038147</ele>
<time>2010-08-29T11:56:17Z</time>
<desc>lat.=56.064911, lon.=26.481413, Alt.=105.038147m. Speed=0.036000m/h.</desc>
<speed>0.010000</speed>
</trkpt>
<trkpt lat="56.064911" lon="26.481413">
<ele>105.040100</ele>
<time>2010-08-29T11:56:18Z</time>
<desc>lat.=56.064911, lon.=26.481413, Alt.=105.040100m. Speed=0.072000m/h.</desc>
<speed>0.020000</speed>
</trkpt>
<trkpt lat="56.064911" lon="26.481413">
<ele>105.040100</ele>
<time>2010-08-29T11:56:19Z</time>
<desc>lat.=56.064911, lon.=26.481413, Alt.=105.040100m. Speed=0.000000m/h.</desc>
<speed>0.000000</speed>
</trkpt>
<trkpt lat="56.064911" lon="26.481413">
<ele>105.040100</ele>
<time>2010-08-29T11:56:20Z</time>
<desc>lat.=56.064911, lon.=26.481413, Alt.=105.040100m. Speed=0.036000m/h.</desc>
<speed>0.010000</speed>
</trkpt>
<trkpt lat="56.064911" lon="26.481413">
<ele>105.040100</ele>
<time>2010-08-29T11:56:21Z</time>
<desc>lat.=56.064911, lon.=26.481413, Alt.=105.040100m. Speed=0.072000m/h.</desc>
<speed>0.020000</speed>
</trkpt>
<trkpt lat="56.064911" lon="26.481413">
<ele>105.038147</ele>
<time>2010-08-29T11:56:22Z</time>
<desc>lat.=56.064911, lon.=26.481413, Alt.=105.038147m. Speed=0.036000m/h.</desc>
<speed>0.010000</speed>
</trkpt>
<trkpt lat="56.064911" lon="26.481413">
<ele>105.038147</ele>
<time>2010-08-29T11:56:23Z</time>
<desc>lat.=56.064911, lon.=26.481413, Alt.=105.038147m. Speed=0.036000m/h.</desc>
<speed>0.010000</speed>
</trkpt>
<trkpt lat="56.064911" lon="26.481413">
<ele>105.044006</ele>
<time>2010-08-29T11:56:24Z</time>
<desc>lat.=56.064911, lon.=26.481413, Alt.=105.044006m. Speed=0.036000m/h.</desc>
<speed>0.010000</speed>
</trkpt>
<trkpt lat="56.064911" lon="26.481413">
<ele>105.044006</ele>
<time>2010-08-29T11:56:25Z</time>
<desc>lat.=56.064911, lon.=26.481413, Alt.=105.044006m. Speed=0.036000m/h.</desc>
<speed>0.010000</speed>
</trkpt>
<trkpt lat="56.064911" lon="26.481413">
<ele>105.045959</ele>
<time>2010-08-29T11:56:26Z</time>
<desc>lat.=56.064911, lon.=26.481413, Alt.=105.045959m. Speed=0.108000m/h.</desc>
<speed>0.030000</speed>
</trkpt>
<trkpt lat="56.064911" lon="26.481413">
<ele>105.045959</ele>
<time>2010-08-29T11:56:27Z</time>
<desc>lat.=56.064911, lon.=26.481413, Alt.=105.045959m. Speed=0.180000m/h.</desc>
<speed>0.050000</speed>
</trkpt>
<trkpt lat="56.064911" lon="26.481413">
<ele>105.042053</ele>
<time>2010-08-29T11:56:28Z</time>
<desc>lat.=56.064911, lon.=26.481413, Alt.=105.042053m. Speed=0.108000m/h.</desc>
<speed>0.030000</speed>
</trkpt>
<trkpt lat="56.064911" lon="26.481413">
<ele>105.044006</ele>
<time>2010-08-29T11:56:29Z</time>
<desc>lat.=56.064911, lon.=26.481413, Alt.=105.044006m. Speed=0.108000m/h.</desc>
<speed>0.030000</speed>
</trkpt>
<trkpt lat="56.064911" lon="26.481413">
<ele>105.042053</ele>
<time>2010-08-29T11:56:30Z</time>
<desc>lat.=56.064911, lon.=26.481413, Alt.=105.042053m. Speed=0.144000m/h.</desc>
<speed>0.040000</speed>
</trkpt>
<trkpt lat="56.064911" lon="26.481413">
<ele>105.040100</ele>
<time>2010-08-29T11:56:31Z</time>
<desc>lat.=56.064911, lon.=26.481413, Alt.=105.040100m. Speed=0.000000m/h.</desc>
<speed>0.000000</speed>
</trkpt>
<trkpt lat="56.064911" lon="26.481413">
<ele>105.040100</ele>
<time>2010-08-29T11:56:32Z</time>
<desc>lat.=56.064911, lon.=26.481413, Alt.=105.040100m. Speed=0.108000m/h.</desc>
<speed>0.030000</speed>
</trkpt>
<trkpt lat="56.064911" lon="26.481413">
<ele>105.040100</ele>
<time>2010-08-29T11:56:33Z</time>
<desc>lat.=56.064911, lon.=26.481413, Alt.=105.040100m. Speed=0.072000m/h.</desc>
<speed>0.020000</speed>
</trkpt>
<trkpt lat="56.064911" lon="26.481413">
<ele>105.044006</ele>
<time>2010-08-29T11:56:34Z</time>
<desc>lat.=56.064911, lon.=26.481413, Alt.=105.044006m. Speed=0.036000m/h.</desc>
<speed>0.010000</speed>
</trkpt>
<trkpt lat="56.064911" lon="26.481413">
<ele>105.044006</ele>
<time>2010-08-29T11:56:35Z</time>
<desc>lat.=56.064911, lon.=26.481413, Alt.=105.044006m. Speed=0.036000m/h.</desc>
<speed>0.010000</speed>
</trkpt>
<trkpt lat="56.064907" lon="26.481413">
<ele>105.047913</ele>
<time>2010-08-29T11:56:36Z</time>
<desc>lat.=56.064907, lon.=26.481413, Alt.=105.047913m. Speed=0.072000m/h.</desc>
<speed>0.020000</speed>
</trkpt>
<trkpt lat="56.064907" lon="26.481413">
<ele>105.047913</ele>
<time>2010-08-29T11:56:37Z</time>
<desc>lat.=56.064907, lon.=26.481413, Alt.=105.047913m. Speed=0.144000m/h.</desc>
<speed>0.040000</speed>
</trkpt>
<trkpt lat="56.064907" lon="26.481413">
<ele>105.045959</ele>
<time>2010-08-29T11:56:38Z</time>
<desc>lat.=56.064907, lon.=26.481413, Alt.=105.045959m. Speed=0.072000m/h.</desc>
<speed>0.020000</speed>
</trkpt>
<trkpt lat="56.064907" lon="26.481413">
<ele>105.044006</ele>
<time>2010-08-29T11:56:39Z</time>
<desc>lat.=56.064907, lon.=26.481413, Alt.=105.044006m. Speed=0.036000m/h.</desc>
<speed>0.010000</speed>
</trkpt>
<trkpt lat="56.064907" lon="26.481413">
<ele>105.044006</ele>
<time>2010-08-29T11:56:40Z</time>
<desc>lat.=56.064907, lon.=26.481413, Alt.=105.044006m. Speed=0.072000m/h.</desc>
<speed>0.020000</speed>
</trkpt>
<trkpt lat="56.064907" lon="26.481413">
<ele>105.045959</ele>
<time>2010-08-29T11:56:41Z</time>
<desc>lat.=56.064907, lon.=26.481413, Alt.=105.045959m. Speed=0.000000m/h.</desc>
<speed>0.000000</speed>
</trkpt>
<trkpt lat="56.064907" lon="26.481413">
<ele>105.051819</ele>
<time>2010-08-29T11:56:42Z</time>
<desc>lat.=56.064907, lon.=26.481413, Alt.=105.051819m. Speed=0.036000m/h.</desc>
<speed>0.010000</speed>
</trkpt>
<trkpt lat="56.064907" lon="26.481413">
<ele>105.057678</ele>
<time>2010-08-29T11:56:43Z</time>
<desc>lat.=56.064907, lon.=26.481413, Alt.=105.057678m. Speed=0.072000m/h.</desc>
<speed>0.020000</speed>
</trkpt>
<trkpt lat="56.064907" lon="26.481413">
<ele>105.063538</ele>
<time>2010-08-29T11:56:44Z</time>
<desc>lat.=56.064907, lon.=26.481413, Alt.=105.063538m. Speed=0.108000m/h.</desc>
<speed>0.030000</speed>
</trkpt>
<trkpt lat="56.064907" lon="26.481413">
<ele>105.065491</ele>
<time>2010-08-29T11:56:45Z</time>
<desc>lat.=56.064907, lon.=26.481413, Alt.=105.065491m. Speed=0.036000m/h.</desc>
<speed>0.010000</speed>
</trkpt>
<trkpt lat="56.064907" lon="26.481413">
<ele>105.069397</ele>
<time>2010-08-29T11:56:46Z</time>
<desc>lat.=56.064907, lon.=26.481413, Alt.=105.069397m. Speed=0.000000m/h.</desc>
<speed>0.000000</speed>
</trkpt>
<trkpt lat="56.064907" lon="26.481413">
<ele>105.079163</ele>
<time>2010-08-29T11:56:47Z</time>
<desc>lat.=56.064907, lon.=26.481413, Alt.=105.079163m. Speed=0.000000m/h.</desc>
<speed>0.000000</speed>
</trkpt>
<trkpt lat="56.064907" lon="26.481413">
<ele>105.079163</ele>
<time>2010-08-29T11:56:48Z</time>
<desc>lat.=56.064907, lon.=26.481413, Alt.=105.079163m. Speed=0.000000m/h.</desc>
<speed>0.000000</speed>
</trkpt>
<trkpt lat="56.064907" lon="26.481413">
<ele>105.085022</ele>
<time>2010-08-29T11:56:49Z</time>
<desc>lat.=56.064907, lon.=26.481413, Alt.=105.085022m. Speed=0.036000m/h.</desc>
<speed>0.010000</speed>
</trkpt>
<trkpt lat="56.064907" lon="26.481413">
<ele>105.092834</ele>
<time>2010-08-29T11:56:50Z</time>
<desc>lat.=56.064907, lon.=26.481413, Alt.=105.092834m. Speed=0.000000m/h.</desc>
<speed>0.000000</speed>
</trkpt>
<trkpt lat="56.064907" lon="26.481413">
<ele>105.092834</ele>
<time>2010-08-29T11:56:51Z</time>
<desc>lat.=56.064907, lon.=26.481413, Alt.=105.092834m. Speed=0.072000m/h.</desc>
<speed>0.020000</speed>
</trkpt>
<trkpt lat="56.064907" lon="26.481413">
<ele>105.098694</ele>
<time>2010-08-29T11:56:52Z</time>
<desc>lat.=56.064907, lon.=26.481413, Alt.=105.098694m. Speed=0.036000m/h.</desc>
<speed>0.010000</speed>
</trkpt>
<trkpt lat="56.064907" lon="26.481413">
<ele>105.102600</ele>
<time>2010-08-29T11:56:53Z</time>
<desc>lat.=56.064907, lon.=26.481413, Alt.=105.102600m. Speed=0.072000m/h.</desc>
<speed>0.020000</speed>
</trkpt>
<trkpt lat="56.064907" lon="26.481413">
<ele>105.102600</ele>
<time>2010-08-29T11:56:54Z</time>
<desc>lat.=56.064907, lon.=26.481413, Alt.=105.102600m. Speed=0.144000m/h.</desc>
<speed>0.040000</speed>
</trkpt>
<trkpt lat="56.064907" lon="26.481413">
<ele>105.104553</ele>
<time>2010-08-29T11:56:55Z</time>
<desc>lat.=56.064907, lon.=26.481413, Alt.=105.104553m. Speed=0.108000m/h.</desc>
<speed>0.030000</speed>
</trkpt>
<trkpt lat="56.064907" lon="26.481413">
<ele>105.108459</ele>
<time>2010-08-29T11:56:56Z</time>
<desc>lat.=56.064907, lon.=26.481413, Alt.=105.108459m. Speed=0.108000m/h.</desc>
<speed>0.030000</speed>
</trkpt>
<trkpt lat="56.064907" lon="26.481413">
<ele>105.112366</ele>
<time>2010-08-29T11:56:57Z</time>
<desc>lat.=56.064907, lon.=26.481413, Alt.=105.112366m. Speed=0.072000m/h.</desc>
<speed>0.020000</speed>
</trkpt>
<trkpt lat="56.064907" lon="26.481413">
<ele>105.114319</ele>
<time>2010-08-29T11:56:58Z</time>
<desc>lat.=56.064907, lon.=26.481413, Alt.=105.114319m. Speed=0.036000m/h.</desc>
<speed>0.010000</speed>
</trkpt>
<trkpt lat="56.064907" lon="26.481413">
<ele>105.118225</ele>
<time>2010-08-29T11:56:59Z</time>
<desc>lat.=56.064907, lon.=26.481413, Alt.=105.118225m. Speed=0.144000m/h.</desc>
<speed>0.040000</speed>
</trkpt>
<trkpt lat="56.064907" lon="26.481413">
<ele>105.114319</ele>
<time>2010-08-29T11:57:00Z</time>
<desc>lat.=56.064907, lon.=26.481413, Alt.=105.114319m. Speed=0.108000m/h.</desc>
<speed>0.030000</speed>
</trkpt>
<trkpt lat="56.064907" lon="26.481411">
<ele>105.110413</ele>
<time>2010-08-29T11:57:01Z</time>
<desc>lat.=56.064907, lon.=26.481411, Alt.=105.110413m. Speed=0.072000m/h.</desc>
<speed>0.020000</speed>
</trkpt>
<trkpt lat="56.064907" lon="26.481411">
<ele>105.104553</ele>
<time>2010-08-29T11:57:02Z</time>
<desc>lat.=56.064907, lon.=26.481411, Alt.=105.104553m. Speed=0.036000m/h.</desc>
<speed>0.010000</speed>
</trkpt>
<trkpt lat="56.064907" lon="26.481411">
<ele>105.104553</ele>
<time>2010-08-29T11:57:03Z</time>
<desc>lat.=56.064907, lon.=26.481411, Alt.=105.104553m. Speed=0.036000m/h.</desc>
<speed>0.010000</speed>
</trkpt>
<trkpt lat="56.064907" lon="26.481411">
<ele>105.104553</ele>
<time>2010-08-29T11:57:04Z</time>
<desc>lat.=56.064907, lon.=26.481411, Alt.=105.104553m. Speed=0.072000m/h.</desc>
<speed>0.020000</speed>
</trkpt>
<trkpt lat="56.064907" lon="26.481411">
<ele>105.098694</ele>
<time>2010-08-29T11:57:05Z</time>
<desc>lat.=56.064907, lon.=26.481411, Alt.=105.098694m. Speed=0.144000m/h.</desc>
<speed>0.040000</speed>
</trkpt>
<trkpt lat="56.064907" lon="26.481411">
<ele>105.100647</ele>
<time>2010-08-29T11:57:06Z</time>
<desc>lat.=56.064907, lon.=26.481411, Alt.=105.100647m. Speed=0.108000m/h.</desc>
<speed>0.030000</speed>
</trkpt>
<trkpt lat="56.064907" lon="26.481413">
<ele>105.096741</ele>
<time>2010-08-29T11:57:07Z</time>
<desc>lat.=56.064907, lon.=26.481413, Alt.=105.096741m. Speed=0.252000m/h.</desc>
<speed>0.070000</speed>
</trkpt>
<trkpt lat="56.064907" lon="26.481413">
<ele>105.094788</ele>
<time>2010-08-29T11:57:08Z</time>
<desc>lat.=56.064907, lon.=26.481413, Alt.=105.094788m. Speed=0.072000m/h.</desc>
<speed>0.020000</speed>
</trkpt>
<trkpt lat="56.064907" lon="26.481413">
<ele>105.094788</ele>
<time>2010-08-29T11:57:09Z</time>
<desc>lat.=56.064907, lon.=26.481413, Alt.=105.094788m. Speed=0.072000m/h.</desc>
<speed>0.020000</speed>
</trkpt>
<trkpt lat="56.064907" lon="26.481413">
<ele>105.094788</ele>
<time>2010-08-29T11:57:10Z</time>
<desc>lat.=56.064907, lon.=26.481413, Alt.=105.094788m. Speed=0.036000m/h.</desc>
<speed>0.010000</speed>
</trkpt>
<trkpt lat="56.064907" lon="26.481413">
<ele>105.100647</ele>
<time>2010-08-29T11:57:11Z</time>
<desc>lat.=56.064907, lon.=26.481413, Alt.=105.100647m. Speed=0.072000m/h.</desc>
<speed>0.020000</speed>
</trkpt>
<trkpt lat="56.064907" lon="26.481413">
<ele>105.100647</ele>
<time>2010-08-29T11:57:12Z</time>
<desc>lat.=56.064907, lon.=26.481413, Alt.=105.100647m. Speed=0.072000m/h.</desc>
<speed>0.020000</speed>
</trkpt>
<trkpt lat="56.064907" lon="26.481413">
<ele>105.100647</ele>
<time>2010-08-29T11:57:13Z</time>
<desc>lat.=56.064907, lon.=26.481413, Alt.=105.100647m. Speed=0.036000m/h.</desc>
<speed>0.010000</speed>
</trkpt>
<trkpt lat="56.064907" lon="26.481413">
<ele>105.104553</ele>
<time>2010-08-29T11:57:14Z</time>
<desc>lat.=56.064907, lon.=26.481413, Alt.=105.104553m. Speed=0.000000m/h.</desc>
<speed>0.000000</speed>
</trkpt>
<trkpt lat="56.064907" lon="26.481413">
<ele>105.114319</ele>
<time>2010-08-29T11:57:15Z</time>
<desc>lat.=56.064907, lon.=26.481413, Alt.=105.114319m. Speed=0.108000m/h.</desc>
<speed>0.030000</speed>
</trkpt>
<trkpt lat="56.064907" lon="26.481413">
<ele>105.116272</ele>
<time>2010-08-29T11:57:16Z</time>
<desc>lat.=56.064907, lon.=26.481413, Alt.=105.116272m. Speed=0.036000m/h.</desc>
<speed>0.010000</speed>
</trkpt>
<trkpt lat="56.064907" lon="26.481413">
<ele>105.108459</ele>
<time>2010-08-29T11:57:17Z</time>
<desc>lat.=56.064907, lon.=26.481413, Alt.=105.108459m. Speed=0.036000m/h.</desc>
<speed>0.010000</speed>
</trkpt>
<trkpt lat="56.064907" lon="26.481413">
<ele>105.106506</ele>
<time>2010-08-29T11:57:18Z</time>
<desc>lat.=56.064907, lon.=26.481413, Alt.=105.106506m. Speed=0.000000m/h.</desc>
<speed>0.000000</speed>
</trkpt>
<trkpt lat="56.064907" lon="26.481413">
<ele>105.106506</ele>
<time>2010-08-29T11:57:19Z</time>
<desc>lat.=56.064907, lon.=26.481413, Alt.=105.106506m. Speed=0.000000m/h.</desc>
<speed>0.000000</speed>
</trkpt>
<trkpt lat="56.064907" lon="26.481413">
<ele>105.112366</ele>
<time>2010-08-29T11:57:20Z</time>
<desc>lat.=56.064907, lon.=26.481413, Alt.=105.112366m. Speed=0.000000m/h.</desc>
<speed>0.000000</speed>
</trkpt>
<trkpt lat="56.064907" lon="26.481413">
<ele>105.120178</ele>
<time>2010-08-29T11:57:21Z</time>
<desc>lat.=56.064907, lon.=26.481413, Alt.=105.120178m. Speed=0.000000m/h.</desc>
<speed>0.000000</speed>
</trkpt>
<trkpt lat="56.064911" lon="26.481413">
<ele>105.126038</ele>
<time>2010-08-29T11:57:22Z</time>
<desc>lat.=56.064911, lon.=26.481413, Alt.=105.126038m. Speed=0.072000m/h.</desc>
<speed>0.020000</speed>
</trkpt>
<trkpt lat="56.064911" lon="26.481413">
<ele>105.129944</ele>
<time>2010-08-29T11:57:23Z</time>
<desc>lat.=56.064911, lon.=26.481413, Alt.=105.129944m. Speed=0.036000m/h.</desc>
<speed>0.010000</speed>
</trkpt>
<trkpt lat="56.064911" lon="26.481413">
<ele>105.137756</ele>
<time>2010-08-29T11:57:24Z</time>
<desc>lat.=56.064911, lon.=26.481413, Alt.=105.137756m. Speed=0.072000m/h.</desc>
<speed>0.020000</speed>
</trkpt>
<trkpt lat="56.064911" lon="26.481413">
<ele>105.141663</ele>
<time>2010-08-29T11:57:25Z</time>
<desc>lat.=56.064911, lon.=26.481413, Alt.=105.141663m. Speed=0.000000m/h.</desc>
<speed>0.000000</speed>
</trkpt>
<trkpt lat="56.064911" lon="26.481413">
<ele>105.141663</ele>
<time>2010-08-29T11:57:26Z</time>
<desc>lat.=56.064911, lon.=26.481413, Alt.=105.141663m. Speed=0.036000m/h.</desc>
<speed>0.010000</speed>
</trkpt>
<trkpt lat="56.064911" lon="26.481413">
<ele>105.143616</ele>
<time>2010-08-29T11:57:27Z</time>
<desc>lat.=56.064911, lon.=26.481413, Alt.=105.143616m. Speed=0.000000m/h.</desc>
<speed>0.000000</speed>
</trkpt>
<trkpt lat="56.064911" lon="26.481413">
<ele>105.153381</ele>
<time>2010-08-29T11:57:28Z</time>
<desc>lat.=56.064911, lon.=26.481413, Alt.=105.153381m. Speed=0.000000m/h.</desc>
<speed>0.000000</speed>
</trkpt>
<trkpt lat="56.064911" lon="26.481413">
<ele>105.153381</ele>
<time>2010-08-29T11:57:29Z</time>
<desc>lat.=56.064911, lon.=26.481413, Alt.=105.153381m. Speed=0.000000m/h.</desc>
<speed>0.000000</speed>
</trkpt>
<trkpt lat="56.064911" lon="26.481413">
<ele>105.157288</ele>
<time>2010-08-29T11:57:30Z</time>
<desc>lat.=56.064911, lon.=26.481413, Alt.=105.157288m. Speed=0.000000m/h.</desc>
<speed>0.000000</speed>
</trkpt>
<trkpt lat="56.064911" lon="26.481413">
<ele>105.161194</ele>
<time>2010-08-29T11:57:31Z</time>
<desc>lat.=56.064911, lon.=26.481413, Alt.=105.161194m. Speed=0.000000m/h.</desc>
<speed>0.000000</speed>
</trkpt>
<trkpt lat="56.064911" lon="26.481413">
<ele>105.170959</ele>
<time>2010-08-29T11:57:32Z</time>
<desc>lat.=56.064911, lon.=26.481413, Alt.=105.170959m. Speed=0.000000m/h.</desc>
<speed>0.000000</speed>
</trkpt>
<trkpt lat="56.064911" lon="26.481413">
<ele>105.176819</ele>
<time>2010-08-29T11:57:33Z</time>
<desc>lat.=56.064911, lon.=26.481413, Alt.=105.176819m. Speed=0.000000m/h.</desc>
<speed>0.000000</speed>
</trkpt>
<trkpt lat="56.064911" lon="26.481413">
<ele>105.180725</ele>
<time>2010-08-29T11:57:34Z</time>
<desc>lat.=56.064911, lon.=26.481413, Alt.=105.180725m. Speed=0.000000m/h.</desc>
<speed>0.000000</speed>
</trkpt>
<trkpt lat="56.064911" lon="26.481413">
<ele>105.180725</ele>
<time>2010-08-29T11:57:35Z</time>
<desc>lat.=56.064911, lon.=26.481413, Alt.=105.180725m. Speed=0.144000m/h.</desc>
<speed>0.040000</speed>
</trkpt>
<trkpt lat="56.064911" lon="26.481413">
<ele>105.184631</ele>
<time>2010-08-29T11:57:36Z</time>
<desc>lat.=56.064911, lon.=26.481413, Alt.=105.184631m. Speed=0.216000m/h.</desc>
<speed>0.060000</speed>
</trkpt>
<trkpt lat="56.064911" lon="26.481413">
<ele>105.184631</ele>
<time>2010-08-29T11:57:37Z</time>
<desc>lat.=56.064911, lon.=26.481413, Alt.=105.184631m. Speed=0.036000m/h.</desc>
<speed>0.010000</speed>
</trkpt>
<trkpt lat="56.064911" lon="26.481413">
<ele>105.182678</ele>
<time>2010-08-29T11:57:38Z</time>
<desc>lat.=56.064911, lon.=26.481413, Alt.=105.182678m. Speed=0.000000m/h.</desc>
<speed>0.000000</speed>
</trkpt>
<trkpt lat="56.064911" lon="26.481413">
<ele>105.180725</ele>
<time>2010-08-29T11:57:39Z</time>
<desc>lat.=56.064911, lon.=26.481413, Alt.=105.180725m. Speed=0.108000m/h.</desc>
<speed>0.030000</speed>
</trkpt>
<trkpt lat="56.064911" lon="26.481413">
<ele>105.176819</ele>
<time>2010-08-29T11:57:40Z</time>
<desc>lat.=56.064911, lon.=26.481413, Alt.=105.176819m. Speed=1.224000m/h.</desc>
<speed>0.340000</speed>
</trkpt>
<trkpt lat="56.064911" lon="26.481407">
<ele>105.049866</ele>
<time>2010-08-29T11:57:41Z</time>
<desc>lat.=56.064911, lon.=26.481407, Alt.=105.049866m. Speed=1.116000m/h.</desc>
<speed>0.310000</speed>
</trkpt>
<trkpt lat="56.064915" lon="26.481409">
<ele>104.651428</ele>
<time>2010-08-29T11:57:42Z</time>
<desc>lat.=56.064915, lon.=26.481409, Alt.=104.651428m. Speed=0.612000m/h.</desc>
<speed>0.170000</speed>
</trkpt>
<trkpt lat="56.064919" lon="26.481407">
<ele>104.190491</ele>
<time>2010-08-29T11:57:43Z</time>
<desc>lat.=56.064919, lon.=26.481407, Alt.=104.190491m. Speed=0.288000m/h.</desc>
<speed>0.080000</speed>
</trkpt>
<trkpt lat="56.064922" lon="26.481409">
<ele>103.946350</ele>
<time>2010-08-29T11:57:44Z</time>
<desc>lat.=56.064922, lon.=26.481409, Alt.=103.946350m. Speed=0.324000m/h.</desc>
<speed>0.090000</speed>
</trkpt>
<trkpt lat="56.064926" lon="26.481409">
<ele>103.592834</ele>
<time>2010-08-29T11:57:45Z</time>
<desc>lat.=56.064926, lon.=26.481409, Alt.=103.592834m. Speed=0.000000m/h.</desc>
<speed>0.000000</speed>
</trkpt>
<trkpt lat="56.064926" lon="26.481409">
<ele>103.588928</ele>
<time>2010-08-29T11:57:46Z</time>
<desc>lat.=56.064926, lon.=26.481409, Alt.=103.588928m. Speed=0.180000m/h.</desc>
<speed>0.050000</speed>
</trkpt>
<trkpt lat="56.064926" lon="26.481409">
<ele>103.590881</ele>
<time>2010-08-29T11:57:47Z</time>
<desc>lat.=56.064926, lon.=26.481409, Alt.=103.590881m. Speed=0.000000m/h.</desc>
<speed>0.000000</speed>
</trkpt>
<trkpt lat="56.064926" lon="26.481409">
<ele>103.594788</ele>
<time>2010-08-29T11:57:48Z</time>
<desc>lat.=56.064926, lon.=26.481409, Alt.=103.594788m. Speed=0.072000m/h.</desc>
<speed>0.020000</speed>
</trkpt>
<trkpt lat="56.064926" lon="26.481409">
<ele>103.596741</ele>
<time>2010-08-29T11:57:49Z</time>
<desc>lat.=56.064926, lon.=26.481409, Alt.=103.596741m. Speed=0.576000m/h.</desc>
<speed>0.160000</speed>
</trkpt>
<trkpt lat="56.064926" lon="26.481409">
<ele>103.596741</ele>
<time>2010-08-29T11:57:50Z</time>
<desc>lat.=56.064926, lon.=26.481409, Alt.=103.596741m. Speed=0.468000m/h.</desc>
<speed>0.130000</speed>
</trkpt>
<trkpt lat="56.064926" lon="26.481407">
<ele>103.585022</ele>
<time>2010-08-29T11:57:51Z</time>
<desc>lat.=56.064926, lon.=26.481407, Alt.=103.585022m. Speed=1.044000m/h.</desc>
<speed>0.290000</speed>
</trkpt>
<trkpt lat="56.064926" lon="26.481403">
<ele>103.532288</ele>
<time>2010-08-29T11:57:52Z</time>
<desc>lat.=56.064926, lon.=26.481403, Alt.=103.532288m. Speed=1.260000m/h.</desc>
<speed>0.350000</speed>
</trkpt>
<trkpt lat="56.064930" lon="26.481392">
<ele>103.510803</ele>
<time>2010-08-29T11:57:53Z</time>
<desc>lat.=56.064930, lon.=26.481392, Alt.=103.510803m. Speed=1.368000m/h.</desc>
<speed>0.380000</speed>
</trkpt>
<trkpt lat="56.064934" lon="26.481379">
<ele>103.651428</ele>
<time>2010-08-29T11:57:54Z</time>
<desc>lat.=56.064934, lon.=26.481379, Alt.=103.651428m. Speed=1.584000m/h.</desc>
<speed>0.440000</speed>
</trkpt>
<trkpt lat="56.064934" lon="26.481361">
<ele>103.725647</ele>
<time>2010-08-29T11:57:55Z</time>
<desc>lat.=56.064934, lon.=26.481361, Alt.=103.725647m. Speed=3.456000m/h.</desc>
<speed>0.960000</speed>
</trkpt>
<trkpt lat="56.064934" lon="26.481333">
<ele>103.477600</ele>
<time>2010-08-29T11:57:56Z</time>
<desc>lat.=56.064934, lon.=26.481333, Alt.=103.477600m. Speed=5.688000m/h.</desc>
<speed>1.580000</speed>
</trkpt>
<trkpt lat="56.064930" lon="26.481314">
<ele>103.370178</ele>
<time>2010-08-29T11:57:57Z</time>
<desc>lat.=56.064930, lon.=26.481314, Alt.=103.370178m. Speed=4.212000m/h.</desc>
<speed>1.170000</speed>
</trkpt>
<trkpt lat="56.064926" lon="26.481277">
<ele>103.276428</ele>
<time>2010-08-29T11:57:58Z</time>
<desc>lat.=56.064926, lon.=26.481277, Alt.=103.276428m. Speed=7.308000m/h.</desc>
<speed>2.030000</speed>
</trkpt>
<trkpt lat="56.064922" lon="26.481245">
<ele>103.178772</ele>
<time>2010-08-29T11:57:59Z</time>
<desc>lat.=56.064922, lon.=26.481245, Alt.=103.178772m. Speed=6.660000m/h.</desc>
<speed>1.850000</speed>
</trkpt>
<trkpt lat="56.064915" lon="26.481215">
<ele>102.897522</ele>
<time>2010-08-29T11:58:00Z</time>
<desc>lat.=56.064915, lon.=26.481215, Alt.=102.897522m. Speed=6.948000m/h.</desc>
<speed>1.930000</speed>
</trkpt>
<trkpt lat="56.064907" lon="26.481184">
<ele>102.497131</ele>
<time>2010-08-29T11:58:01Z</time>
<desc>lat.=56.064907, lon.=26.481184, Alt.=102.497131m. Speed=7.128000m/h.</desc>
<speed>1.980000</speed>
</trkpt>
<trkpt lat="56.064903" lon="26.481157">
<ele>102.235413</ele>
<time>2010-08-29T11:58:02Z</time>
<desc>lat.=56.064903, lon.=26.481157, Alt.=102.235413m. Speed=4.932000m/h.</desc>
<speed>1.370000</speed>
</trkpt>
<trkpt lat="56.064899" lon="26.481133">
<ele>102.133850</ele>
<time>2010-08-29T11:58:03Z</time>
<desc>lat.=56.064899, lon.=26.481133, Alt.=102.133850m. Speed=5.220000m/h.</desc>
<speed>1.450000</speed>
</trkpt>
<trkpt lat="56.064896" lon="26.481108">
<ele>102.315491</ele>
<time>2010-08-29T11:58:04Z</time>
<desc>lat.=56.064896, lon.=26.481108, Alt.=102.315491m. Speed=4.320000m/h.</desc>
<speed>1.200000</speed>
</trkpt>
<trkpt lat="56.064873" lon="26.481083">
<ele>101.762756</ele>
<time>2010-08-29T11:58:05Z</time>
<desc>lat.=56.064873, lon.=26.481083, Alt.=101.762756m. Speed=6.084000m/h.</desc>
<speed>1.690000</speed>
</trkpt>
<trkpt lat="56.064865" lon="26.481060">
<ele>101.817444</ele>
<time>2010-08-29T11:58:06Z</time>
<desc>lat.=56.064865, lon.=26.481060, Alt.=101.817444m. Speed=7.344000m/h.</desc>
<speed>2.040000</speed>
</trkpt>
<trkpt lat="56.064857" lon="26.481031">
<ele>101.872131</ele>
<time>2010-08-29T11:58:07Z</time>
<desc>lat.=56.064857, lon.=26.481031, Alt.=101.872131m. Speed=7.452000m/h.</desc>
<speed>2.070000</speed>
</trkpt>
<trkpt lat="56.064842" lon="26.481007">
<ele>102.172913</ele>
<time>2010-08-29T11:58:08Z</time>
<desc>lat.=56.064842, lon.=26.481007, Alt.=102.172913m. Speed=7.740000m/h.</desc>
<speed>2.150000</speed>
</trkpt>
<trkpt lat="56.064823" lon="26.480976">
<ele>102.108459</ele>
<time>2010-08-29T11:58:09Z</time>
<desc>lat.=56.064823, lon.=26.480976, Alt.=102.108459m. Speed=9.864000m/h.</desc>
<speed>2.740000</speed>
</trkpt>
<trkpt lat="56.064808" lon="26.480946">
<ele>101.768616</ele>
<time>2010-08-29T11:58:10Z</time>
<desc>lat.=56.064808, lon.=26.480946, Alt.=101.768616m. Speed=9.144000m/h.</desc>
<speed>2.540000</speed>
</trkpt>
<trkpt lat="56.064789" lon="26.480917">
<ele>101.286194</ele>
<time>2010-08-29T11:58:11Z</time>
<desc>lat.=56.064789, lon.=26.480917, Alt.=101.286194m. Speed=9.216000m/h.</desc>
<speed>2.560000</speed>
</trkpt>
<trkpt lat="56.064766" lon="26.480888">
<ele>100.874084</ele>
<time>2010-08-29T11:58:12Z</time>
<desc>lat.=56.064766, lon.=26.480888, Alt.=100.874084m. Speed=11.916000m/h.</desc>
<speed>3.310000</speed>
</trkpt>
<trkpt lat="56.064743" lon="26.480854">
<ele>100.526428</ele>
<time>2010-08-29T11:58:13Z</time>
<desc>lat.=56.064743, lon.=26.480854, Alt.=100.526428m. Speed=10.512000m/h.</desc>
<speed>2.920000</speed>
</trkpt>
<trkpt lat="56.064716" lon="26.480822">
<ele>100.045959</ele>
<time>2010-08-29T11:58:14Z</time>
<desc>lat.=56.064716, lon.=26.480822, Alt.=100.045959m. Speed=12.456000m/h.</desc>
<speed>3.460000</speed>
</trkpt>
<trkpt lat="56.064690" lon="26.480787">
<ele>99.196350</ele>
<time>2010-08-29T11:58:15Z</time>
<desc>lat.=56.064690, lon.=26.480787, Alt.=99.196350m. Speed=14.184000m/h.</desc>
<speed>3.940000</speed>
</trkpt>
<trkpt lat="56.064659" lon="26.480753">
<ele>99.085022</ele>
<time>2010-08-29T11:58:16Z</time>
<desc>lat.=56.064659, lon.=26.480753, Alt.=99.085022m. Speed=12.960000m/h.</desc>
<speed>3.600000</speed>
</trkpt>
<trkpt lat="56.064636" lon="26.480722">
<ele>98.661194</ele>
<time>2010-08-29T11:58:17Z</time>
<desc>lat.=56.064636, lon.=26.480722, Alt.=98.661194m. Speed=11.772000m/h.</desc>
<speed>3.270000</speed>
</trkpt>
<trkpt lat="56.064613" lon="26.480690">
<ele>98.340881</ele>
<time>2010-08-29T11:58:18Z</time>
<desc>lat.=56.064613, lon.=26.480690, Alt.=98.340881m. Speed=11.268000m/h.</desc>
<speed>3.130000</speed>
</trkpt>
<trkpt lat="56.064571" lon="26.480652">
<ele>97.670959</ele>
<time>2010-08-29T11:58:19Z</time>
<desc>lat.=56.064571, lon.=26.480652, Alt.=97.670959m. Speed=11.844000m/h.</desc>
<speed>3.290000</speed>
</trkpt>
<trkpt lat="56.064518" lon="26.480614">
<ele>97.210022</ele>
<time>2010-08-29T11:58:20Z</time>
<desc>lat.=56.064518, lon.=26.480614, Alt.=97.210022m. Speed=12.564000m/h.</desc>
<speed>3.490000</speed>
</trkpt>
<trkpt lat="56.064468" lon="26.480566">
<ele>97.010803</ele>
<time>2010-08-29T11:58:21Z</time>
<desc>lat.=56.064468, lon.=26.480566, Alt.=97.010803m. Speed=13.608000m/h.</desc>
<speed>3.780000</speed>
</trkpt>
<trkpt lat="56.064430" lon="26.480528">
<ele>96.368225</ele>
<time>2010-08-29T11:58:22Z</time>
<desc>lat.=56.064430, lon.=26.480528, Alt.=96.368225m. Speed=13.860000m/h.</desc>
<speed>3.850000</speed>
</trkpt>
<trkpt lat="56.064388" lon="26.480490">
<ele>96.819397</ele>
<time>2010-08-29T11:58:23Z</time>
<desc>lat.=56.064388, lon.=26.480490, Alt.=96.819397m. Speed=14.940000m/h.</desc>
<speed>4.150000</speed>
</trkpt>
<trkpt lat="56.064346" lon="26.480450">
<ele>96.686584</ele>
<time>2010-08-29T11:58:24Z</time>
<desc>lat.=56.064346, lon.=26.480450, Alt.=96.686584m. Speed=14.184000m/h.</desc>
<speed>3.940000</speed>
</trkpt>
<trkpt lat="56.064308" lon="26.480410">
<ele>96.454163</ele>
<time>2010-08-29T11:58:25Z</time>
<desc>lat.=56.064308, lon.=26.480410, Alt.=96.454163m. Speed=15.732000m/h.</desc>
<speed>4.370000</speed>
</trkpt>
<trkpt lat="56.064278" lon="26.480373">
<ele>96.336975</ele>
<time>2010-08-29T11:58:26Z</time>
<desc>lat.=56.064278, lon.=26.480373, Alt.=96.336975m. Speed=12.168000m/h.</desc>
<speed>3.380000</speed>
</trkpt>
<trkpt lat="56.064243" lon="26.480328">
<ele>96.807678</ele>
<time>2010-08-29T11:58:27Z</time>
<desc>lat.=56.064243, lon.=26.480328, Alt.=96.807678m. Speed=15.336000m/h.</desc>
<speed>4.260000</speed>
</trkpt>
<trkpt lat="56.064205" lon="26.480293">
<ele>96.682678</ele>
<time>2010-08-29T11:58:28Z</time>
<desc>lat.=56.064205, lon.=26.480293, Alt.=96.682678m. Speed=12.132000m/h.</desc>
<speed>3.370000</speed>
</trkpt>
<trkpt lat="56.064178" lon="26.480263">
<ele>96.811584</ele>
<time>2010-08-29T11:58:29Z</time>
<desc>lat.=56.064178, lon.=26.480263, Alt.=96.811584m. Speed=11.268000m/h.</desc>
<speed>3.130000</speed>
</trkpt>
<trkpt lat="56.064156" lon="26.480225">
<ele>97.471741</ele>
<time>2010-08-29T11:58:30Z</time>
<desc>lat.=56.064156, lon.=26.480225, Alt.=97.471741m. Speed=10.404000m/h.</desc>
<speed>2.890000</speed>
</trkpt>
<trkpt lat="56.064133" lon="26.480200">
<ele>97.088928</ele>
<time>2010-08-29T11:58:31Z</time>
<desc>lat.=56.064133, lon.=26.480200, Alt.=97.088928m. Speed=10.152000m/h.</desc>
<speed>2.820000</speed>
</trkpt>
<trkpt lat="56.064110" lon="26.480173">
<ele>97.247131</ele>
<time>2010-08-29T11:58:32Z</time>
<desc>lat.=56.064110, lon.=26.480173, Alt.=97.247131m. Speed=11.844000m/h.</desc>
<speed>3.290000</speed>
</trkpt>
<trkpt lat="56.064087" lon="26.480143">
<ele>97.217834</ele>
<time>2010-08-29T11:58:33Z</time>
<desc>lat.=56.064087, lon.=26.480143, Alt.=97.217834m. Speed=11.556000m/h.</desc>
<speed>3.210000</speed>
</trkpt>
<trkpt lat="56.064064" lon="26.480108">
<ele>97.044006</ele>
<time>2010-08-29T11:58:34Z</time>
<desc>lat.=56.064064, lon.=26.480108, Alt.=97.044006m. Speed=10.872000m/h.</desc>
<speed>3.020000</speed>
</trkpt>
<trkpt lat="56.064041" lon="26.480076">
<ele>97.278381</ele>
<time>2010-08-29T11:58:35Z</time>
<desc>lat.=56.064041, lon.=26.480076, Alt.=97.278381m. Speed=10.980000m/h.</desc>
<speed>3.050000</speed>
</trkpt>
<trkpt lat="56.064018" lon="26.480047">
<ele>97.495178</ele>
<time>2010-08-29T11:58:36Z</time>
<desc>lat.=56.064018, lon.=26.480047, Alt.=97.495178m. Speed=10.692000m/h.</desc>
<speed>2.970000</speed>
</trkpt>
<trkpt lat="56.063999" lon="26.480021">
<ele>97.866272</ele>
<time>2010-08-29T11:58:37Z</time>
<desc>lat.=56.063999, lon.=26.480021, Alt.=97.866272m. Speed=9.684000m/h.</desc>
<speed>2.690000</speed>
</trkpt>
<trkpt lat="56.063980" lon="26.479988">
<ele>97.764709</ele>
<time>2010-08-29T11:58:38Z</time>
<desc>lat.=56.063980, lon.=26.479988, Alt.=97.764709m. Speed=10.296000m/h.</desc>
<speed>2.860000</speed>
</trkpt>
<trkpt lat="56.063957" lon="26.479961">
<ele>97.448303</ele>
<time>2010-08-29T11:58:39Z</time>
<desc>lat.=56.063957, lon.=26.479961, Alt.=97.448303m. Speed=10.188000m/h.</desc>
<speed>2.830000</speed>
</trkpt>
<trkpt lat="56.063938" lon="26.479940">
<ele>97.592834</ele>
<time>2010-08-29T11:58:40Z</time>
<desc>lat.=56.063938, lon.=26.479940, Alt.=97.592834m. Speed=9.000000m/h.</desc>
<speed>2.500000</speed>
</trkpt>
<trkpt lat="56.063923" lon="26.479914">
<ele>98.170959</ele>
<time>2010-08-29T11:58:41Z</time>
<desc>lat.=56.063923, lon.=26.479914, Alt.=98.170959m. Speed=9.108000m/h.</desc>
<speed>2.530000</speed>
</trkpt>
<trkpt lat="56.063908" lon="26.479889">
<ele>98.270569</ele>
<time>2010-08-29T11:58:42Z</time>
<desc>lat.=56.063908, lon.=26.479889, Alt.=98.270569m. Speed=9.000000m/h.</desc>
<speed>2.500000</speed>
</trkpt>
<trkpt lat="56.063892" lon="26.479860">
<ele>98.391663</ele>
<time>2010-08-29T11:58:43Z</time>
<desc>lat.=56.063892, lon.=26.479860, Alt.=98.391663m. Speed=9.144000m/h.</desc>
<speed>2.540000</speed>
</trkpt>
<trkpt lat="56.063881" lon="26.479830">
<ele>98.983459</ele>
<time>2010-08-29T11:58:44Z</time>
<desc>lat.=56.063881, lon.=26.479830, Alt.=98.983459m. Speed=9.540000m/h.</desc>
<speed>2.650000</speed>
</trkpt>
<trkpt lat="56.063866" lon="26.479801">
<ele>99.567444</ele>
<time>2010-08-29T11:58:45Z</time>
<desc>lat.=56.063866, lon.=26.479801, Alt.=99.567444m. Speed=9.540000m/h.</desc>
<speed>2.650000</speed>
</trkpt>
<trkpt lat="56.063850" lon="26.479767">
<ele>99.684631</ele>
<time>2010-08-29T11:58:46Z</time>
<desc>lat.=56.063850, lon.=26.479767, Alt.=99.684631m. Speed=9.360000m/h.</desc>
<speed>2.600000</speed>
</trkpt>
<trkpt lat="56.063835" lon="26.479733">
<ele>99.606506</ele>
<time>2010-08-29T11:58:47Z</time>
<desc>lat.=56.063835, lon.=26.479733, Alt.=99.606506m. Speed=9.648000m/h.</desc>
<speed>2.680000</speed>
</trkpt>
<trkpt lat="56.063820" lon="26.479698">
<ele>99.747131</ele>
<time>2010-08-29T11:58:48Z</time>
<desc>lat.=56.063820, lon.=26.479698, Alt.=99.747131m. Speed=9.576000m/h.</desc>
<speed>2.660000</speed>
</trkpt>
<trkpt lat="56.063805" lon="26.479662">
<ele>100.065491</ele>
<time>2010-08-29T11:58:49Z</time>
<desc>lat.=56.063805, lon.=26.479662, Alt.=100.065491m. Speed=10.188000m/h.</desc>
<speed>2.830000</speed>
</trkpt>
<trkpt lat="56.063786" lon="26.479630">
<ele>100.036194</ele>
<time>2010-08-29T11:58:50Z</time>
<desc>lat.=56.063786, lon.=26.479630, Alt.=100.036194m. Speed=10.620000m/h.</desc>
<speed>2.950000</speed>
</trkpt>
<trkpt lat="56.063770" lon="26.479595">
<ele>99.809631</ele>
<time>2010-08-29T11:58:51Z</time>
<desc>lat.=56.063770, lon.=26.479595, Alt.=99.809631m. Speed=9.288000m/h.</desc>
<speed>2.580000</speed>
</trkpt>
<trkpt lat="56.063755" lon="26.479557">
<ele>99.768616</ele>
<time>2010-08-29T11:58:52Z</time>
<desc>lat.=56.063755, lon.=26.479557, Alt.=99.768616m. Speed=10.044000m/h.</desc>
<speed>2.790000</speed>
</trkpt>
<trkpt lat="56.063736" lon="26.479523">
<ele>100.065491</ele>
<time>2010-08-29T11:58:53Z</time>
<desc>lat.=56.063736, lon.=26.479523, Alt.=100.065491m. Speed=10.260000m/h.</desc>
<speed>2.850000</speed>
</trkpt>
<trkpt lat="56.063721" lon="26.479490">
<ele>100.510803</ele>
<time>2010-08-29T11:58:54Z</time>
<desc>lat.=56.063721, lon.=26.479490, Alt.=100.510803m. Speed=9.756000m/h.</desc>
<speed>2.710000</speed>
</trkpt>
<trkpt lat="56.063705" lon="26.479450">
<ele>100.680725</ele>
<time>2010-08-29T11:58:55Z</time>
<desc>lat.=56.063705, lon.=26.479450, Alt.=100.680725m. Speed=11.736000m/h.</desc>
<speed>3.260000</speed>
</trkpt>
<trkpt lat="56.063690" lon="26.479408">
<ele>100.907288</ele>
<time>2010-08-29T11:58:56Z</time>
<desc>lat.=56.063690, lon.=26.479408, Alt.=100.907288m. Speed=11.160000m/h.</desc>
<speed>3.100000</speed>
</trkpt>
<trkpt lat="56.063671" lon="26.479374">
<ele>100.786194</ele>
<time>2010-08-29T11:58:57Z</time>
<desc>lat.=56.063671, lon.=26.479374, Alt.=100.786194m. Speed=10.656000m/h.</desc>
<speed>2.960000</speed>
</trkpt>
<trkpt lat="56.063656" lon="26.479334">
<ele>100.944397</ele>
<time>2010-08-29T11:58:58Z</time>
<desc>lat.=56.063656, lon.=26.479334, Alt.=100.944397m. Speed=10.908000m/h.</desc>
<speed>3.030000</speed>
</trkpt>
<trkpt lat="56.063641" lon="26.479292">
<ele>101.307678</ele>
<time>2010-08-29T11:58:59Z</time>
<desc>lat.=56.063641, lon.=26.479292, Alt.=101.307678m. Speed=11.592000m/h.</desc>
<speed>3.220000</speed>
</trkpt>
<trkpt lat="56.063625" lon="26.479250">
<ele>101.495178</ele>
<time>2010-08-29T11:59:00Z</time>
<desc>lat.=56.063625, lon.=26.479250, Alt.=101.495178m. Speed=11.592000m/h.</desc>
<speed>3.220000</speed>
</trkpt>
<trkpt lat="56.063602" lon="26.479210">
<ele>101.202209</ele>
<time>2010-08-29T11:59:01Z</time>
<desc>lat.=56.063602, lon.=26.479210, Alt.=101.202209m. Speed=11.340000m/h.</desc>
<speed>3.150000</speed>
</trkpt>
<trkpt lat="56.063580" lon="26.479172">
<ele>101.098694</ele>
<time>2010-08-29T11:59:02Z</time>
<desc>lat.=56.063580, lon.=26.479172, Alt.=101.098694m. Speed=12.348000m/h.</desc>
<speed>3.430000</speed>
</trkpt>
<trkpt lat="56.063560" lon="26.479120">
<ele>101.270569</ele>
<time>2010-08-29T11:59:03Z</time>
<desc>lat.=56.063560, lon.=26.479120, Alt.=101.270569m. Speed=12.528000m/h.</desc>
<speed>3.480000</speed>
</trkpt>
<trkpt lat="56.063538" lon="26.479074">
<ele>101.317444</ele>
<time>2010-08-29T11:59:04Z</time>
<desc>lat.=56.063538, lon.=26.479074, Alt.=101.317444m. Speed=11.592000m/h.</desc>
<speed>3.220000</speed>
</trkpt>
<trkpt lat="56.063522" lon="26.479031">
<ele>101.444397</ele>
<time>2010-08-29T11:59:05Z</time>
<desc>lat.=56.063522, lon.=26.479031, Alt.=101.444397m. Speed=11.376000m/h.</desc>
<speed>3.160000</speed>
</trkpt>
<trkpt lat="56.063499" lon="26.478994">
<ele>101.184631</ele>
<time>2010-08-29T11:59:06Z</time>
<desc>lat.=56.063499, lon.=26.478994, Alt.=101.184631m. Speed=11.484000m/h.</desc>
<speed>3.190000</speed>
</trkpt>
<trkpt lat="56.063477" lon="26.478952">
<ele>101.096741</ele>
<time>2010-08-29T11:59:07Z</time>
<desc>lat.=56.063477, lon.=26.478952, Alt.=101.096741m. Speed=12.492000m/h.</desc>
<speed>3.470000</speed>
</trkpt>
<trkpt lat="56.063457" lon="26.478905">
<ele>101.153381</ele>
<time>2010-08-29T11:59:08Z</time>
<desc>lat.=56.063457, lon.=26.478905, Alt.=101.153381m. Speed=12.744000m/h.</desc>
<speed>3.540000</speed>
</trkpt>
<trkpt lat="56.063438" lon="26.478857">
<ele>101.489319</ele>
<time>2010-08-29T11:59:09Z</time>
<desc>lat.=56.063438, lon.=26.478857, Alt.=101.489319m. Speed=11.844000m/h.</desc>
<speed>3.290000</speed>
</trkpt>
<trkpt lat="56.063416" lon="26.478806">
<ele>101.311584</ele>
<time>2010-08-29T11:59:10Z</time>
<desc>lat.=56.063416, lon.=26.478806, Alt.=101.311584m. Speed=12.492000m/h.</desc>
<speed>3.470000</speed>
</trkpt>
<trkpt lat="56.063393" lon="26.478762">
<ele>101.002991</ele>
<time>2010-08-29T11:59:11Z</time>
<desc>lat.=56.063393, lon.=26.478762, Alt.=101.002991m. Speed=13.392000m/h.</desc>
<speed>3.720000</speed>
</trkpt>
<trkpt lat="56.063370" lon="26.478720">
<ele>100.928772</ele>
<time>2010-08-29T11:59:12Z</time>
<desc>lat.=56.063370, lon.=26.478720, Alt.=100.928772m. Speed=13.176000m/h.</desc>
<speed>3.660000</speed>
</trkpt>
<trkpt lat="56.063351" lon="26.478668">
<ele>101.377991</ele>
<time>2010-08-29T11:59:13Z</time>
<desc>lat.=56.063351, lon.=26.478668, Alt.=101.377991m. Speed=13.356000m/h.</desc>
<speed>3.710000</speed>
</trkpt>
<trkpt lat="56.063332" lon="26.478621">
<ele>101.823303</ele>
<time>2010-08-29T11:59:14Z</time>
<desc>lat.=56.063332, lon.=26.478621, Alt.=101.823303m. Speed=13.716000m/h.</desc>
<speed>3.810000</speed>
</trkpt>
<trkpt lat="56.063309" lon="26.478577">
<ele>102.065491</ele>
<time>2010-08-29T11:59:15Z</time>
<desc>lat.=56.063309, lon.=26.478577, Alt.=102.065491m. Speed=13.428000m/h.</desc>
<speed>3.730000</speed>
</trkpt>
<trkpt lat="56.063282" lon="26.478529">
<ele>101.981506</ele>
<time>2010-08-29T11:59:16Z</time>
<desc>lat.=56.063282, lon.=26.478529, Alt.=101.981506m. Speed=12.420000m/h.</desc>
<speed>3.450000</speed>
</trkpt>
<trkpt lat="56.063259" lon="26.478489">
<ele>102.129944</ele>
<time>2010-08-29T11:59:17Z</time>
<desc>lat.=56.063259, lon.=26.478489, Alt.=102.129944m. Speed=12.852000m/h.</desc>
<speed>3.570000</speed>
</trkpt>
<trkpt lat="56.063236" lon="26.478439">
<ele>101.897522</ele>
<time>2010-08-29T11:59:18Z</time>
<desc>lat.=56.063236, lon.=26.478439, Alt.=101.897522m. Speed=13.140000m/h.</desc>
<speed>3.650000</speed>
</trkpt>
<trkpt lat="56.063221" lon="26.478388">
<ele>102.575256</ele>
<time>2010-08-29T11:59:19Z</time>
<desc>lat.=56.063221, lon.=26.478388, Alt.=102.575256m. Speed=13.644000m/h.</desc>
<speed>3.790000</speed>
</trkpt>
<trkpt lat="56.063202" lon="26.478350">
<ele>103.157288</ele>
<time>2010-08-29T11:59:20Z</time>
<desc>lat.=56.063202, lon.=26.478350, Alt.=103.157288m. Speed=10.656000m/h.</desc>
<speed>2.960000</speed>
</trkpt>
<trkpt lat="56.063183" lon="26.478308">
<ele>103.446350</ele>
<time>2010-08-29T11:59:21Z</time>
<desc>lat.=56.063183, lon.=26.478308, Alt.=103.446350m. Speed=11.412000m/h.</desc>
<speed>3.170000</speed>
</trkpt>
<trkpt lat="56.063168" lon="26.478270">
<ele>103.204163</ele>
<time>2010-08-29T11:59:22Z</time>
<desc>lat.=56.063168, lon.=26.478270, Alt.=103.204163m. Speed=9.252000m/h.</desc>
<speed>2.570000</speed>
</trkpt>
<trkpt lat="56.063145" lon="26.478245">
<ele>102.780334</ele>
<time>2010-08-29T11:59:23Z</time>
<desc>lat.=56.063145, lon.=26.478245, Alt.=102.780334m. Speed=8.892000m/h.</desc>
<speed>2.470000</speed>
</trkpt>
<trkpt lat="56.063129" lon="26.478214">
<ele>102.524475</ele>
<time>2010-08-29T11:59:24Z</time>
<desc>lat.=56.063129, lon.=26.478214, Alt.=102.524475m. Speed=7.596000m/h.</desc>
<speed>2.110000</speed>
</trkpt>
<trkpt lat="56.063126" lon="26.478186">
<ele>102.471741</ele>
<time>2010-08-29T11:59:25Z</time>
<desc>lat.=56.063126, lon.=26.478186, Alt.=102.471741m. Speed=6.516000m/h.</desc>
<speed>1.810000</speed>
</trkpt>
<trkpt lat="56.063122" lon="26.478159">
<ele>102.600647</ele>
<time>2010-08-29T11:59:26Z</time>
<desc>lat.=56.063122, lon.=26.478159, Alt.=102.600647m. Speed=5.904000m/h.</desc>
<speed>1.640000</speed>
</trkpt>
<trkpt lat="56.063126" lon="26.478136">
<ele>102.124084</ele>
<time>2010-08-29T11:59:27Z</time>
<desc>lat.=56.063126, lon.=26.478136, Alt.=102.124084m. Speed=5.580000m/h.</desc>
<speed>1.550000</speed>
</trkpt>
<trkpt lat="56.063126" lon="26.478109">
<ele>101.690491</ele>
<time>2010-08-29T11:59:28Z</time>
<desc>lat.=56.063126, lon.=26.478109, Alt.=101.690491m. Speed=5.184000m/h.</desc>
<speed>1.440000</speed>
</trkpt>
<trkpt lat="56.063133" lon="26.478088">
<ele>101.446350</ele>
<time>2010-08-29T11:59:29Z</time>
<desc>lat.=56.063133, lon.=26.478088, Alt.=101.446350m. Speed=4.932000m/h.</desc>
<speed>1.370000</speed>
</trkpt>
<trkpt lat="56.063145" lon="26.478079">
<ele>101.442444</ele>
<time>2010-08-29T11:59:30Z</time>
<desc>lat.=56.063145, lon.=26.478079, Alt.=101.442444m. Speed=6.084000m/h.</desc>
<speed>1.690000</speed>
</trkpt>
<trkpt lat="56.063156" lon="26.478060">
<ele>101.559631</ele>
<time>2010-08-29T11:59:31Z</time>
<desc>lat.=56.063156, lon.=26.478060, Alt.=101.559631m. Speed=7.596000m/h.</desc>
<speed>2.110000</speed>
</trkpt>
<trkpt lat="56.063171" lon="26.478033">
<ele>101.553772</ele>
<time>2010-08-29T11:59:32Z</time>
<desc>lat.=56.063171, lon.=26.478033, Alt.=101.553772m. Speed=7.848000m/h.</desc>
<speed>2.180000</speed>
</trkpt>
<trkpt lat="56.063194" lon="26.477999">
<ele>101.891663</ele>
<time>2010-08-29T11:59:33Z</time>
<desc>lat.=56.063194, lon.=26.477999, Alt.=101.891663m. Speed=10.512000m/h.</desc>
<speed>2.920000</speed>
</trkpt>
<trkpt lat="56.063213" lon="26.477959">
<ele>101.754944</ele>
<time>2010-08-29T11:59:34Z</time>
<desc>lat.=56.063213, lon.=26.477959, Alt.=101.754944m. Speed=11.412000m/h.</desc>
<speed>3.170000</speed>
</trkpt>
<trkpt lat="56.063236" lon="26.477917">
<ele>102.700256</ele>
<time>2010-08-29T11:59:35Z</time>
<desc>lat.=56.063236, lon.=26.477917, Alt.=102.700256m. Speed=12.852000m/h.</desc>
<speed>3.570000</speed>
</trkpt>
<trkpt lat="56.063263" lon="26.477873">
<ele>103.251038</ele>
<time>2010-08-29T11:59:36Z</time>
<desc>lat.=56.063263, lon.=26.477873, Alt.=103.251038m. Speed=14.580000m/h.</desc>
<speed>4.050000</speed>
</trkpt>
<trkpt lat="56.063290" lon="26.477827">
<ele>103.440491</ele>
<time>2010-08-29T11:59:37Z</time>
<desc>lat.=56.063290, lon.=26.477827, Alt.=103.440491m. Speed=14.508000m/h.</desc>
<speed>4.030000</speed>
</trkpt>
<trkpt lat="56.063316" lon="26.477785">
<ele>103.458069</ele>
<time>2010-08-29T11:59:38Z</time>
<desc>lat.=56.063316, lon.=26.477785, Alt.=103.458069m. Speed=14.148000m/h.</desc>
<speed>3.930000</speed>
</trkpt>
<trkpt lat="56.063343" lon="26.477745">
<ele>103.292053</ele>
<time>2010-08-29T11:59:39Z</time>
<desc>lat.=56.063343, lon.=26.477745, Alt.=103.292053m. Speed=13.536000m/h.</desc>
<speed>3.760000</speed>
</trkpt>
<trkpt lat="56.063366" lon="26.477705">
<ele>103.340881</ele>
<time>2010-08-29T11:59:40Z</time>
<desc>lat.=56.063366, lon.=26.477705, Alt.=103.340881m. Speed=13.860000m/h.</desc>
<speed>3.850000</speed>
</trkpt>
<trkpt lat="56.063389" lon="26.477667">
<ele>103.411194</ele>
<time>2010-08-29T11:59:41Z</time>
<desc>lat.=56.063389, lon.=26.477667, Alt.=103.411194m. Speed=13.500000m/h.</desc>
<speed>3.750000</speed>
</trkpt>
<trkpt lat="56.063416" lon="26.477627">
<ele>103.124084</ele>
<time>2010-08-29T11:59:42Z</time>
<desc>lat.=56.063416, lon.=26.477627, Alt.=103.124084m. Speed=13.968000m/h.</desc>
<speed>3.880000</speed>
</trkpt>
<trkpt lat="56.063446" lon="26.477583">
<ele>102.874084</ele>
<time>2010-08-29T11:59:43Z</time>
<desc>lat.=56.063446, lon.=26.477583, Alt.=102.874084m. Speed=15.156000m/h.</desc>
<speed>4.210000</speed>
</trkpt>
<trkpt lat="56.063477" lon="26.477543">
<ele>102.563538</ele>
<time>2010-08-29T11:59:44Z</time>
<desc>lat.=56.063477, lon.=26.477543, Alt.=102.563538m. Speed=15.156000m/h.</desc>
<speed>4.210000</speed>
</trkpt>
<trkpt lat="56.063507" lon="26.477503">
<ele>102.495178</ele>
<time>2010-08-29T11:59:45Z</time>
<desc>lat.=56.063507, lon.=26.477503, Alt.=102.495178m. Speed=15.372000m/h.</desc>
<speed>4.270000</speed>
</trkpt>
<trkpt lat="56.063538" lon="26.477461">
<ele>102.311584</ele>
<time>2010-08-29T11:59:46Z</time>
<desc>lat.=56.063538, lon.=26.477461, Alt.=102.311584m. Speed=15.012000m/h.</desc>
<speed>4.170000</speed>
</trkpt>
<trkpt lat="56.063564" lon="26.477415">
<ele>102.096741</ele>
<time>2010-08-29T11:59:47Z</time>
<desc>lat.=56.063564, lon.=26.477415, Alt.=102.096741m. Speed=14.760000m/h.</desc>
<speed>4.100000</speed>
</trkpt>
<trkpt lat="56.063595" lon="26.477371">
<ele>101.754944</ele>
<time>2010-08-29T11:59:48Z</time>
<desc>lat.=56.063595, lon.=26.477371, Alt.=101.754944m. Speed=15.912000m/h.</desc>
<speed>4.420000</speed>
</trkpt>
<trkpt lat="56.063625" lon="26.477329">
<ele>101.590881</ele>
<time>2010-08-29T11:59:49Z</time>
<desc>lat.=56.063625, lon.=26.477329, Alt.=101.590881m. Speed=15.264000m/h.</desc>
<speed>4.240000</speed>
</trkpt>
<trkpt lat="56.063663" lon="26.477289">
<ele>101.467834</ele>
<time>2010-08-29T11:59:50Z</time>
<desc>lat.=56.063663, lon.=26.477289, Alt.=101.467834m. Speed=18.756001m/h.</desc>
<speed>5.210000</speed>
</trkpt>
<trkpt lat="56.063694" lon="26.477247">
<ele>101.047913</ele>
<time>2010-08-29T11:59:51Z</time>
<desc>lat.=56.063694, lon.=26.477247, Alt.=101.047913m. Speed=15.840000m/h.</desc>
<speed>4.400000</speed>
</trkpt>
<trkpt lat="56.063725" lon="26.477200">
<ele>101.667053</ele>
<time>2010-08-29T11:59:52Z</time>
<desc>lat.=56.063725, lon.=26.477200, Alt.=101.667053m. Speed=16.344000m/h.</desc>
<speed>4.540000</speed>
</trkpt>
<trkpt lat="56.063751" lon="26.477146">
<ele>101.518616</ele>
<time>2010-08-29T11:59:53Z</time>
<desc>lat.=56.063751, lon.=26.477146, Alt.=101.518616m. Speed=16.236000m/h.</desc>
<speed>4.510000</speed>
</trkpt>
<trkpt lat="56.063778" lon="26.477089">
<ele>101.356506</ele>
<time>2010-08-29T11:59:54Z</time>
<desc>lat.=56.063778, lon.=26.477089, Alt.=101.356506m. Speed=17.136000m/h.</desc>
<speed>4.760000</speed>
</trkpt>
<trkpt lat="56.063812" lon="26.477036">
<ele>100.870178</ele>
<time>2010-08-29T11:59:55Z</time>
<desc>lat.=56.063812, lon.=26.477036, Alt.=100.870178m. Speed=17.208000m/h.</desc>
<speed>4.780000</speed>
</trkpt>
<trkpt lat="56.063843" lon="26.476984">
<ele>100.571350</ele>
<time>2010-08-29T11:59:56Z</time>
<desc>lat.=56.063843, lon.=26.476984, Alt.=100.571350m. Speed=17.712000m/h.</desc>
<speed>4.920000</speed>
</trkpt>
<trkpt lat="56.063877" lon="26.476934">
<ele>100.471741</ele>
<time>2010-08-29T11:59:57Z</time>
<desc>lat.=56.063877, lon.=26.476934, Alt.=100.471741m. Speed=16.812000m/h.</desc>
<speed>4.670000</speed>
</trkpt>
<trkpt lat="56.063904" lon="26.476883">
<ele>100.559631</ele>
<time>2010-08-29T11:59:58Z</time>
<desc>lat.=56.063904, lon.=26.476883, Alt.=100.559631m. Speed=15.804000m/h.</desc>
<speed>4.390000</speed>
</trkpt>
<trkpt lat="56.063934" lon="26.476841">
<ele>101.350647</ele>
<time>2010-08-29T11:59:59Z</time>
<desc>lat.=56.063934, lon.=26.476841, Alt.=101.350647m. Speed=15.696000m/h.</desc>
<speed>4.360000</speed>
</trkpt>
<trkpt lat="56.063965" lon="26.476795">
<ele>101.827209</ele>
<time>2010-08-29T12:00:00Z</time>
<desc>lat.=56.063965, lon.=26.476795, Alt.=101.827209m. Speed=15.336000m/h.</desc>
<speed>4.260000</speed>
</trkpt>
<trkpt lat="56.063995" lon="26.476749">
<ele>101.710022</ele>
<time>2010-08-29T12:00:01Z</time>
<desc>lat.=56.063995, lon.=26.476749, Alt.=101.710022m. Speed=16.128000m/h.</desc>
<speed>4.480000</speed>
</trkpt>
<trkpt lat="56.064026" lon="26.476702">
<ele>101.731506</ele>
<time>2010-08-29T12:00:02Z</time>
<desc>lat.=56.064026, lon.=26.476702, Alt.=101.731506m. Speed=16.704000m/h.</desc>
<speed>4.640000</speed>
</trkpt>
<trkpt lat="56.064060" lon="26.476654">
<ele>101.842834</ele>
<time>2010-08-29T12:00:03Z</time>
<desc>lat.=56.064060, lon.=26.476654, Alt.=101.842834m. Speed=15.768000m/h.</desc>
<speed>4.380000</speed>
</trkpt>
<trkpt lat="56.064087" lon="26.476610">
<ele>102.092834</ele>
<time>2010-08-29T12:00:04Z</time>
<desc>lat.=56.064087, lon.=26.476610, Alt.=102.092834m. Speed=15.156000m/h.</desc>
<speed>4.210000</speed>
</trkpt>
<trkpt lat="56.064110" lon="26.476564">
<ele>102.782288</ele>
<time>2010-08-29T12:00:05Z</time>
<desc>lat.=56.064110, lon.=26.476564, Alt.=102.782288m. Speed=14.364000m/h.</desc>
<speed>3.990000</speed>
</trkpt>
<trkpt lat="56.064129" lon="26.476528">
<ele>102.743225</ele>
<time>2010-08-29T12:00:06Z</time>
<desc>lat.=56.064129, lon.=26.476528, Alt.=102.743225m. Speed=12.816000m/h.</desc>
<speed>3.560000</speed>
</trkpt>
<trkpt lat="56.064152" lon="26.476490">
<ele>102.915100</ele>
<time>2010-08-29T12:00:07Z</time>
<desc>lat.=56.064152, lon.=26.476490, Alt.=102.915100m. Speed=12.096000m/h.</desc>
<speed>3.360000</speed>
</trkpt>
<trkpt lat="56.064171" lon="26.476454">
<ele>103.106506</ele>
<time>2010-08-29T12:00:08Z</time>
<desc>lat.=56.064171, lon.=26.476454, Alt.=103.106506m. Speed=11.628000m/h.</desc>
<speed>3.230000</speed>
</trkpt>
<trkpt lat="56.064190" lon="26.476418">
<ele>103.243225</ele>
<time>2010-08-29T12:00:09Z</time>
<desc>lat.=56.064190, lon.=26.476418, Alt.=103.243225m. Speed=10.980000m/h.</desc>
<speed>3.050000</speed>
</trkpt>
<trkpt lat="56.064205" lon="26.476379">
<ele>103.407288</ele>
<time>2010-08-29T12:00:10Z</time>
<desc>lat.=56.064205, lon.=26.476379, Alt.=103.407288m. Speed=9.936000m/h.</desc>
<speed>2.760000</speed>
</trkpt>
<trkpt lat="56.064224" lon="26.476351">
<ele>103.559631</ele>
<time>2010-08-29T12:00:11Z</time>
<desc>lat.=56.064224, lon.=26.476351, Alt.=103.559631m. Speed=10.152000m/h.</desc>
<speed>2.820000</speed>
</trkpt>
<trkpt lat="56.064243" lon="26.476328">
<ele>103.522522</ele>
<time>2010-08-29T12:00:12Z</time>
<desc>lat.=56.064243, lon.=26.476328, Alt.=103.522522m. Speed=9.864000m/h.</desc>
<speed>2.740000</speed>
</trkpt>
<trkpt lat="56.064262" lon="26.476303">
<ele>103.776428</ele>
<time>2010-08-29T12:00:13Z</time>
<desc>lat.=56.064262, lon.=26.476303, Alt.=103.776428m. Speed=10.728000m/h.</desc>
<speed>2.980000</speed>
</trkpt>
<trkpt lat="56.064281" lon="26.476282">
<ele>104.374084</ele>
<time>2010-08-29T12:00:14Z</time>
<desc>lat.=56.064281, lon.=26.476282, Alt.=104.374084m. Speed=8.316000m/h.</desc>
<speed>2.310000</speed>
</trkpt>
<trkpt lat="56.064289" lon="26.476263">
<ele>104.831116</ele>
<time>2010-08-29T12:00:15Z</time>
<desc>lat.=56.064289, lon.=26.476263, Alt.=104.831116m. Speed=8.568000m/h.</desc>
<speed>2.380000</speed>
</trkpt>
<trkpt lat="56.064304" lon="26.476234">
<ele>104.836975</ele>
<time>2010-08-29T12:00:16Z</time>
<desc>lat.=56.064304, lon.=26.476234, Alt.=104.836975m. Speed=9.108000m/h.</desc>
<speed>2.530000</speed>
</trkpt>
<trkpt lat="56.064316" lon="26.476210">
<ele>105.204163</ele>
<time>2010-08-29T12:00:17Z</time>
<desc>lat.=56.064316, lon.=26.476210, Alt.=105.204163m. Speed=7.452000m/h.</desc>
<speed>2.070000</speed>
</trkpt>
<trkpt lat="56.064331" lon="26.476187">
<ele>105.840881</ele>
<time>2010-08-29T12:00:18Z</time>
<desc>lat.=56.064331, lon.=26.476187, Alt.=105.840881m. Speed=8.352000m/h.</desc>
<speed>2.320000</speed>
</trkpt>
<trkpt lat="56.064350" lon="26.476154">
<ele>106.403381</ele>
<time>2010-08-29T12:00:19Z</time>
<desc>lat.=56.064350, lon.=26.476154, Alt.=106.403381m. Speed=12.132000m/h.</desc>
<speed>3.370000</speed>
</trkpt>
<trkpt lat="56.064373" lon="26.476118">
<ele>106.919006</ele>
<time>2010-08-29T12:00:20Z</time>
<desc>lat.=56.064373, lon.=26.476118, Alt.=106.919006m. Speed=12.996000m/h.</desc>
<speed>3.610000</speed>
</trkpt>
<trkpt lat="56.064407" lon="26.476074">
<ele>107.415100</ele>
<time>2010-08-29T12:00:21Z</time>
<desc>lat.=56.064407, lon.=26.476074, Alt.=107.415100m. Speed=17.784000m/h.</desc>
<speed>4.940000</speed>
</trkpt>
<trkpt lat="56.064438" lon="26.476027">
<ele>107.985413</ele>
<time>2010-08-29T12:00:22Z</time>
<desc>lat.=56.064438, lon.=26.476027, Alt.=107.985413m. Speed=17.243999m/h.</desc>
<speed>4.790000</speed>
</trkpt>
<trkpt lat="56.064472" lon="26.475975">
<ele>108.665100</ele>
<time>2010-08-29T12:00:23Z</time>
<desc>lat.=56.064472, lon.=26.475975, Alt.=108.665100m. Speed=17.856001m/h.</desc>
<speed>4.960000</speed>
</trkpt>
<trkpt lat="56.064514" lon="26.475918">
<ele>109.167053</ele>
<time>2010-08-29T12:00:24Z</time>
<desc>lat.=56.064514, lon.=26.475918, Alt.=109.167053m. Speed=21.348000m/h.</desc>
<speed>5.930000</speed>
</trkpt>
<trkpt lat="56.064552" lon="26.475861">
<ele>109.698303</ele>
<time>2010-08-29T12:00:25Z</time>
<desc>lat.=56.064552, lon.=26.475861, Alt.=109.698303m. Speed=21.743999m/h.</desc>
<speed>6.040000</speed>
</trkpt>
<trkpt lat="56.064590" lon="26.475800">
<ele>110.506897</ele>
<time>2010-08-29T12:00:26Z</time>
<desc>lat.=56.064590, lon.=26.475800, Alt.=110.506897m. Speed=21.167999m/h.</desc>
<speed>5.880000</speed>
</trkpt>
<trkpt lat="56.064629" lon="26.475740">
<ele>111.231506</ele>
<time>2010-08-29T12:00:27Z</time>
<desc>lat.=56.064629, lon.=26.475740, Alt.=111.231506m. Speed=20.808001m/h.</desc>
<speed>5.780000</speed>
</trkpt>
<trkpt lat="56.064663" lon="26.475674">
<ele>111.315491</ele>
<time>2010-08-29T12:00:28Z</time>
<desc>lat.=56.064663, lon.=26.475674, Alt.=111.315491m. Speed=21.096001m/h.</desc>
<speed>5.860000</speed>
</trkpt>
<trkpt lat="56.064697" lon="26.475613">
<ele>111.823303</ele>
<time>2010-08-29T12:00:29Z</time>
<desc>lat.=56.064697, lon.=26.475613, Alt.=111.823303m. Speed=19.908001m/h.</desc>
<speed>5.530000</speed>
</trkpt>
<trkpt lat="56.064732" lon="26.475557">
<ele>111.860413</ele>
<time>2010-08-29T12:00:30Z</time>
<desc>lat.=56.064732, lon.=26.475557, Alt.=111.860413m. Speed=19.332001m/h.</desc>
<speed>5.370000</speed>
</trkpt>
<trkpt lat="56.064762" lon="26.475502">
<ele>111.842834</ele>
<time>2010-08-29T12:00:31Z</time>
<desc>lat.=56.064762, lon.=26.475502, Alt.=111.842834m. Speed=19.007999m/h.</desc>
<speed>5.280000</speed>
</trkpt>
<trkpt lat="56.064789" lon="26.475449">
<ele>112.176819</ele>
<time>2010-08-29T12:00:32Z</time>
<desc>lat.=56.064789, lon.=26.475449, Alt.=112.176819m. Speed=14.940000m/h.</desc>
<speed>4.150000</speed>
</trkpt>
<trkpt lat="56.064816" lon="26.475407">
<ele>112.391663</ele>
<time>2010-08-29T12:00:33Z</time>
<desc>lat.=56.064816, lon.=26.475407, Alt.=112.391663m. Speed=14.076000m/h.</desc>
<speed>3.910000</speed>
</trkpt>
<trkpt lat="56.064838" lon="26.475351">
<ele>112.655334</ele>
<time>2010-08-29T12:00:34Z</time>
<desc>lat.=56.064838, lon.=26.475351, Alt.=112.655334m. Speed=14.976000m/h.</desc>
<speed>4.160000</speed>
</trkpt>
<trkpt lat="56.064861" lon="26.475307">
<ele>112.971741</ele>
<time>2010-08-29T12:00:35Z</time>
<desc>lat.=56.064861, lon.=26.475307, Alt.=112.971741m. Speed=14.328000m/h.</desc>
<speed>3.980000</speed>
</trkpt>
<trkpt lat="56.064884" lon="26.475266">
<ele>113.506897</ele>
<time>2010-08-29T12:00:36Z</time>
<desc>lat.=56.064884, lon.=26.475266, Alt.=113.506897m. Speed=15.228000m/h.</desc>
<speed>4.230000</speed>
</trkpt>
<trkpt lat="56.064911" lon="26.475220">
<ele>114.204163</ele>
<time>2010-08-29T12:00:37Z</time>
<desc>lat.=56.064911, lon.=26.475220, Alt.=114.204163m. Speed=14.976000m/h.</desc>
<speed>4.160000</speed>
</trkpt>
<trkpt lat="56.064941" lon="26.475180">
<ele>115.032288</ele>
<time>2010-08-29T12:00:38Z</time>
<desc>lat.=56.064941, lon.=26.475180, Alt.=115.032288m. Speed=14.760000m/h.</desc>
<speed>4.100000</speed>
</trkpt>
<trkpt lat="56.064976" lon="26.475147">
<ele>115.758850</ele>
<time>2010-08-29T12:00:39Z</time>
<desc>lat.=56.064976, lon.=26.475147, Alt.=115.758850m. Speed=14.472000m/h.</desc>
<speed>4.020000</speed>
</trkpt>
<trkpt lat="56.065002" lon="26.475100">
<ele>115.833069</ele>
<time>2010-08-29T12:00:40Z</time>
<desc>lat.=56.065002, lon.=26.475100, Alt.=115.833069m. Speed=16.344000m/h.</desc>
<speed>4.540000</speed>
</trkpt>
<trkpt lat="56.065037" lon="26.475050">
<ele>116.118225</ele>
<time>2010-08-29T12:00:41Z</time>
<desc>lat.=56.065037, lon.=26.475050, Alt.=116.118225m. Speed=17.243999m/h.</desc>
<speed>4.790000</speed>
</trkpt>
<trkpt lat="56.065067" lon="26.474995">
<ele>116.407288</ele>
<time>2010-08-29T12:00:42Z</time>
<desc>lat.=56.065067, lon.=26.474995, Alt.=116.407288m. Speed=17.820000m/h.</desc>
<speed>4.950000</speed>
</trkpt>
<trkpt lat="56.065105" lon="26.474941">
<ele>116.641663</ele>
<time>2010-08-29T12:00:43Z</time>
<desc>lat.=56.065105, lon.=26.474941, Alt.=116.641663m. Speed=18.216000m/h.</desc>
<speed>5.060000</speed>
</trkpt>
<trkpt lat="56.065147" lon="26.474897">
<ele>116.961975</ele>
<time>2010-08-29T12:00:44Z</time>
<desc>lat.=56.065147, lon.=26.474897, Alt.=116.961975m. Speed=17.280001m/h.</desc>
<speed>4.800000</speed>
</trkpt>
<trkpt lat="56.065193" lon="26.474857">
<ele>117.184631</ele>
<time>2010-08-29T12:00:45Z</time>
<desc>lat.=56.065193, lon.=26.474857, Alt.=117.184631m. Speed=17.172001m/h.</desc>
<speed>4.770000</speed>
</trkpt>
<trkpt lat="56.065228" lon="26.474819">
<ele>117.620178</ele>
<time>2010-08-29T12:00:46Z</time>
<desc>lat.=56.065228, lon.=26.474819, Alt.=117.620178m. Speed=16.920000m/h.</desc>
<speed>4.700000</speed>
</trkpt>
<trkpt lat="56.065262" lon="26.474781">
<ele>118.157288</ele>
<time>2010-08-29T12:00:47Z</time>
<desc>lat.=56.065262, lon.=26.474781, Alt.=118.157288m. Speed=15.876000m/h.</desc>
<speed>4.410000</speed>
</trkpt>
<trkpt lat="56.065289" lon="26.474749">
<ele>118.547913</ele>
<time>2010-08-29T12:00:48Z</time>
<desc>lat.=56.065289, lon.=26.474749, Alt.=118.547913m. Speed=13.644000m/h.</desc>
<speed>3.790000</speed>
</trkpt>
<trkpt lat="56.065311" lon="26.474712">
<ele>118.760803</ele>
<time>2010-08-29T12:00:49Z</time>
<desc>lat.=56.065311, lon.=26.474712, Alt.=118.760803m. Speed=14.220000m/h.</desc>
<speed>3.950000</speed>
</trkpt>
<trkpt lat="56.065338" lon="26.474682">
<ele>118.919006</ele>
<time>2010-08-29T12:00:50Z</time>
<desc>lat.=56.065338, lon.=26.474682, Alt.=118.919006m. Speed=12.744000m/h.</desc>
<speed>3.540000</speed>
</trkpt>
<trkpt lat="56.065361" lon="26.474657">
<ele>119.200256</ele>
<time>2010-08-29T12:00:51Z</time>
<desc>lat.=56.065361, lon.=26.474657, Alt.=119.200256m. Speed=12.672000m/h.</desc>
<speed>3.520000</speed>
</trkpt>
<trkpt lat="56.065384" lon="26.474617">
<ele>118.768616</ele>
<time>2010-08-29T12:00:52Z</time>
<desc>lat.=56.065384, lon.=26.474617, Alt.=118.768616m. Speed=12.708000m/h.</desc>
<speed>3.530000</speed>
</trkpt>
<trkpt lat="56.065411" lon="26.474586">
<ele>119.065491</ele>
<time>2010-08-29T12:00:53Z</time>
<desc>lat.=56.065411, lon.=26.474586, Alt.=119.065491m. Speed=10.224000m/h.</desc>
<speed>2.840000</speed>
</trkpt>
<trkpt lat="56.065441" lon="26.474552">
<ele>118.336975</ele>
<time>2010-08-29T12:00:54Z</time>
<desc>lat.=56.065441, lon.=26.474552, Alt.=118.336975m. Speed=12.384000m/h.</desc>
<speed>3.440000</speed>
</trkpt>
<trkpt lat="56.065464" lon="26.474539">
<ele>118.211975</ele>
<time>2010-08-29T12:00:55Z</time>
<desc>lat.=56.065464, lon.=26.474539, Alt.=118.211975m. Speed=10.944000m/h.</desc>
<speed>3.040000</speed>
</trkpt>
<trkpt lat="56.065483" lon="26.474525">
<ele>118.231506</ele>
<time>2010-08-29T12:00:56Z</time>
<desc>lat.=56.065483, lon.=26.474525, Alt.=118.231506m. Speed=10.404000m/h.</desc>
<speed>2.890000</speed>
</trkpt>
<trkpt lat="56.065498" lon="26.474508">
<ele>118.301819</ele>
<time>2010-08-29T12:00:57Z</time>
<desc>lat.=56.065498, lon.=26.474508, Alt.=118.301819m. Speed=11.268000m/h.</desc>
<speed>3.130000</speed>
</trkpt>
<trkpt lat="56.065529" lon="26.474478">
<ele>118.225647</ele>
<time>2010-08-29T12:00:58Z</time>
<desc>lat.=56.065529, lon.=26.474478, Alt.=118.225647m. Speed=13.932000m/h.</desc>
<speed>3.870000</speed>
</trkpt>
<trkpt lat="56.065548" lon="26.474447">
<ele>117.989319</ele>
<time>2010-08-29T12:00:59Z</time>
<desc>lat.=56.065548, lon.=26.474447, Alt.=117.989319m. Speed=12.672000m/h.</desc>
<speed>3.520000</speed>
</trkpt>
<trkpt lat="56.065571" lon="26.474413">
<ele>117.836975</ele>
<time>2010-08-29T12:01:00Z</time>
<desc>lat.=56.065571, lon.=26.474413, Alt.=117.836975m. Speed=12.240000m/h.</desc>
<speed>3.400000</speed>
</trkpt>
<trkpt lat="56.065590" lon="26.474379">
<ele>117.430725</ele>
<time>2010-08-29T12:01:01Z</time>
<desc>lat.=56.065590, lon.=26.474379, Alt.=117.430725m. Speed=12.132000m/h.</desc>
<speed>3.370000</speed>
</trkpt>
<trkpt lat="56.065613" lon="26.474365">
<ele>116.522522</ele>
<time>2010-08-29T12:01:02Z</time>
<desc>lat.=56.065613, lon.=26.474365, Alt.=116.522522m. Speed=12.204000m/h.</desc>
<speed>3.390000</speed>
</trkpt>
<trkpt lat="56.065639" lon="26.474331">
<ele>116.303772</ele>
<time>2010-08-29T12:01:03Z</time>
<desc>lat.=56.065639, lon.=26.474331, Alt.=116.303772m. Speed=12.780000m/h.</desc>
<speed>3.550000</speed>
</trkpt>
<trkpt lat="56.065659" lon="26.474295">
<ele>116.278381</ele>
<time>2010-08-29T12:01:04Z</time>
<desc>lat.=56.065659, lon.=26.474295, Alt.=116.278381m. Speed=13.824000m/h.</desc>
<speed>3.840000</speed>
</trkpt>
<trkpt lat="56.065678" lon="26.474255">
<ele>116.038147</ele>
<time>2010-08-29T12:01:05Z</time>
<desc>lat.=56.065678, lon.=26.474255, Alt.=116.038147m. Speed=12.816000m/h.</desc>
<speed>3.560000</speed>
</trkpt>
<trkpt lat="56.065704" lon="26.474226">
<ele>115.700256</ele>
<time>2010-08-29T12:01:06Z</time>
<desc>lat.=56.065704, lon.=26.474226, Alt.=115.700256m. Speed=13.968000m/h.</desc>
<speed>3.880000</speed>
</trkpt>
<trkpt lat="56.065731" lon="26.474186">
<ele>115.512756</ele>
<time>2010-08-29T12:01:07Z</time>
<desc>lat.=56.065731, lon.=26.474186, Alt.=115.512756m. Speed=16.091999m/h.</desc>
<speed>4.470000</speed>
</trkpt>
<trkpt lat="56.065765" lon="26.474144">
<ele>115.239319</ele>
<time>2010-08-29T12:01:08Z</time>
<desc>lat.=56.065765, lon.=26.474144, Alt.=115.239319m. Speed=16.667999m/h.</desc>
<speed>4.630000</speed>
</trkpt>
<trkpt lat="56.065804" lon="26.474102">
<ele>115.391663</ele>
<time>2010-08-29T12:01:09Z</time>
<desc>lat.=56.065804, lon.=26.474102, Alt.=115.391663m. Speed=16.884001m/h.</desc>
<speed>4.690000</speed>
</trkpt>
<trkpt lat="56.065838" lon="26.474058">
<ele>115.174866</ele>
<time>2010-08-29T12:01:10Z</time>
<desc>lat.=56.065838, lon.=26.474058, Alt.=115.174866m. Speed=18.431999m/h.</desc>
<speed>5.120000</speed>
</trkpt>
<trkpt lat="56.065880" lon="26.474014">
<ele>114.846741</ele>
<time>2010-08-29T12:01:11Z</time>
<desc>lat.=56.065880, lon.=26.474014, Alt.=114.846741m. Speed=19.728001m/h.</desc>
<speed>5.480000</speed>
</trkpt>
<trkpt lat="56.065926" lon="26.473976">
<ele>114.608459</ele>
<time>2010-08-29T12:01:12Z</time>
<desc>lat.=56.065926, lon.=26.473976, Alt.=114.608459m. Speed=19.260000m/h.</desc>
<speed>5.350000</speed>
</trkpt>
<trkpt lat="56.065979" lon="26.473948">
<ele>113.782288</ele>
<time>2010-08-29T12:01:13Z</time>
<desc>lat.=56.065979, lon.=26.473948, Alt.=113.782288m. Speed=21.708000m/h.</desc>
<speed>6.030000</speed>
</trkpt>
<trkpt lat="56.066025" lon="26.473900">
<ele>113.641663</ele>
<time>2010-08-29T12:01:14Z</time>
<desc>lat.=56.066025, lon.=26.473900, Alt.=113.641663m. Speed=20.483999m/h.</desc>
<speed>5.690000</speed>
</trkpt>
<trkpt lat="56.066071" lon="26.473852">
<ele>112.667053</ele>
<time>2010-08-29T12:01:15Z</time>
<desc>lat.=56.066071, lon.=26.473852, Alt.=112.667053m. Speed=22.427999m/h.</desc>
<speed>6.230000</speed>
</trkpt>
<trkpt lat="56.066113" lon="26.473801">
<ele>112.684631</ele>
<time>2010-08-29T12:01:16Z</time>
<desc>lat.=56.066113, lon.=26.473801, Alt.=112.684631m. Speed=21.275999m/h.</desc>
<speed>5.910000</speed>
</trkpt>
<trkpt lat="56.066158" lon="26.473743">
<ele>112.512756</ele>
<time>2010-08-29T12:01:17Z</time>
<desc>lat.=56.066158, lon.=26.473743, Alt.=112.512756m. Speed=22.860001m/h.</desc>
<speed>6.350000</speed>
</trkpt>
<trkpt lat="56.066200" lon="26.473680">
<ele>112.032288</ele>
<time>2010-08-29T12:01:18Z</time>
<desc>lat.=56.066200, lon.=26.473680, Alt.=112.032288m. Speed=23.903999m/h.</desc>
<speed>6.640000</speed>
</trkpt>
<trkpt lat="56.066250" lon="26.473619">
<ele>111.752991</ele>
<time>2010-08-29T12:01:19Z</time>
<desc>lat.=56.066250, lon.=26.473619, Alt.=111.752991m. Speed=21.816000m/h.</desc>
<speed>6.060000</speed>
</trkpt>
<trkpt lat="56.066296" lon="26.473564">
<ele>111.417053</ele>
<time>2010-08-29T12:01:20Z</time>
<desc>lat.=56.066296, lon.=26.473564, Alt.=111.417053m. Speed=20.412001m/h.</desc>
<speed>5.670000</speed>
</trkpt>
<trkpt lat="56.066338" lon="26.473507">
<ele>110.963928</ele>
<time>2010-08-29T12:01:21Z</time>
<desc>lat.=56.066338, lon.=26.473507, Alt.=110.963928m. Speed=18.000000m/h.</desc>
<speed>5.000000</speed>
</trkpt>
<trkpt lat="56.066364" lon="26.473459">
<ele>110.518616</ele>
<time>2010-08-29T12:01:22Z</time>
<desc>lat.=56.066364, lon.=26.473459, Alt.=110.518616m. Speed=16.164000m/h.</desc>
<speed>4.490000</speed>
</trkpt>
<trkpt lat="56.066399" lon="26.473413">
<ele>110.448303</ele>
<time>2010-08-29T12:01:23Z</time>
<desc>lat.=56.066399, lon.=26.473413, Alt.=110.448303m. Speed=17.172001m/h.</desc>
<speed>4.770000</speed>
</trkpt>
<trkpt lat="56.066437" lon="26.473373">
<ele>110.446350</ele>
<time>2010-08-29T12:01:24Z</time>
<desc>lat.=56.066437, lon.=26.473373, Alt.=110.446350m. Speed=15.984000m/h.</desc>
<speed>4.440000</speed>
</trkpt>
<trkpt lat="56.066460" lon="26.473335">
<ele>109.034241</ele>
<time>2010-08-29T12:01:25Z</time>
<desc>lat.=56.066460, lon.=26.473335, Alt.=109.034241m. Speed=19.511999m/h.</desc>
<speed>5.420000</speed>
</trkpt>
<trkpt lat="56.066498" lon="26.473289">
<ele>108.794006</ele>
<time>2010-08-29T12:01:26Z</time>
<desc>lat.=56.066498, lon.=26.473289, Alt.=108.794006m. Speed=16.740000m/h.</desc>
<speed>4.650000</speed>
</trkpt>
<trkpt lat="56.066517" lon="26.473240">
<ele>107.895569</ele>
<time>2010-08-29T12:01:27Z</time>
<desc>lat.=56.066517, lon.=26.473240, Alt.=107.895569m. Speed=14.868000m/h.</desc>
<speed>4.130000</speed>
</trkpt>
<trkpt lat="56.066540" lon="26.473198">
<ele>106.329163</ele>
<time>2010-08-29T12:01:28Z</time>
<desc>lat.=56.066540, lon.=26.473198, Alt.=106.329163m. Speed=15.948000m/h.</desc>
<speed>4.430000</speed>
</trkpt>
<trkpt lat="56.066570" lon="26.473164">
<ele>105.995178</ele>
<time>2010-08-29T12:01:29Z</time>
<desc>lat.=56.066570, lon.=26.473164, Alt.=105.995178m. Speed=15.264000m/h.</desc>
<speed>4.240000</speed>
</trkpt>
<trkpt lat="56.066605" lon="26.473129">
<ele>105.760803</ele>
<time>2010-08-29T12:01:30Z</time>
<desc>lat.=56.066605, lon.=26.473129, Alt.=105.760803m. Speed=15.660000m/h.</desc>
<speed>4.350000</speed>
</trkpt>
<trkpt lat="56.066639" lon="26.473087">
<ele>105.874084</ele>
<time>2010-08-29T12:01:31Z</time>
<desc>lat.=56.066639, lon.=26.473087, Alt.=105.874084m. Speed=16.524000m/h.</desc>
<speed>4.590000</speed>
</trkpt>
<trkpt lat="56.066673" lon="26.473045">
<ele>105.985413</ele>
<time>2010-08-29T12:01:32Z</time>
<desc>lat.=56.066673, lon.=26.473045, Alt.=105.985413m. Speed=17.496000m/h.</desc>
<speed>4.860000</speed>
</trkpt>
<trkpt lat="56.066711" lon="26.473000">
<ele>105.920959</ele>
<time>2010-08-29T12:01:33Z</time>
<desc>lat.=56.066711, lon.=26.473000, Alt.=105.920959m. Speed=17.172001m/h.</desc>
<speed>4.770000</speed>
</trkpt>
<trkpt lat="56.066757" lon="26.472954">
<ele>105.442444</ele>
<time>2010-08-29T12:01:34Z</time>
<desc>lat.=56.066757, lon.=26.472954, Alt.=105.442444m. Speed=18.252001m/h.</desc>
<speed>5.070000</speed>
</trkpt>
<trkpt lat="56.066795" lon="26.472906">
<ele>105.151428</ele>
<time>2010-08-29T12:01:35Z</time>
<desc>lat.=56.066795, lon.=26.472906, Alt.=105.151428m. Speed=17.388000m/h.</desc>
<speed>4.830000</speed>
</trkpt>
<trkpt lat="56.066833" lon="26.472860">
<ele>104.561584</ele>
<time>2010-08-29T12:01:36Z</time>
<desc>lat.=56.066833, lon.=26.472860, Alt.=104.561584m. Speed=18.072001m/h.</desc>
<speed>5.020000</speed>
</trkpt>
<trkpt lat="56.066875" lon="26.472822">
<ele>104.034241</ele>
<time>2010-08-29T12:01:37Z</time>
<desc>lat.=56.066875, lon.=26.472822, Alt.=104.034241m. Speed=18.216000m/h.</desc>
<speed>5.060000</speed>
</trkpt>
<trkpt lat="56.066925" lon="26.472775">
<ele>104.098694</ele>
<time>2010-08-29T12:01:38Z</time>
<desc>lat.=56.066925, lon.=26.472775, Alt.=104.098694m. Speed=21.240000m/h.</desc>
<speed>5.900000</speed>
</trkpt>
<trkpt lat="56.066975" lon="26.472729">
<ele>104.012756</ele>
<time>2010-08-29T12:01:39Z</time>
<desc>lat.=56.066975, lon.=26.472729, Alt.=104.012756m. Speed=20.952000m/h.</desc>
<speed>5.820000</speed>
</trkpt>
<trkpt lat="56.067024" lon="26.472691">
<ele>103.913147</ele>
<time>2010-08-29T12:01:40Z</time>
<desc>lat.=56.067024, lon.=26.472691, Alt.=103.913147m. Speed=20.340000m/h.</desc>
<speed>5.650000</speed>
</trkpt>
<trkpt lat="56.067070" lon="26.472643">
<ele>103.711975</ele>
<time>2010-08-29T12:01:41Z</time>
<desc>lat.=56.067070, lon.=26.472643, Alt.=103.711975m. Speed=19.764000m/h.</desc>
<speed>5.490000</speed>
</trkpt>
<trkpt lat="56.067108" lon="26.472595">
<ele>103.626038</ele>
<time>2010-08-29T12:01:42Z</time>
<desc>lat.=56.067108, lon.=26.472595, Alt.=103.626038m. Speed=18.972000m/h.</desc>
<speed>5.270000</speed>
</trkpt>
<trkpt lat="56.067150" lon="26.472548">
<ele>103.467834</ele>
<time>2010-08-29T12:01:43Z</time>
<desc>lat.=56.067150, lon.=26.472548, Alt.=103.467834m. Speed=19.799999m/h.</desc>
<speed>5.500000</speed>
</trkpt>
<trkpt lat="56.067188" lon="26.472498">
<ele>103.221741</ele>
<time>2010-08-29T12:01:44Z</time>
<desc>lat.=56.067188, lon.=26.472498, Alt.=103.221741m. Speed=18.360001m/h.</desc>
<speed>5.100000</speed>
</trkpt>
<trkpt lat="56.067226" lon="26.472452">
<ele>102.792053</ele>
<time>2010-08-29T12:01:45Z</time>
<desc>lat.=56.067226, lon.=26.472452, Alt.=102.792053m. Speed=20.016001m/h.</desc>
<speed>5.560000</speed>
</trkpt>
<trkpt lat="56.067272" lon="26.472406">
<ele>102.520569</ele>
<time>2010-08-29T12:01:46Z</time>
<desc>lat.=56.067272, lon.=26.472406, Alt.=102.520569m. Speed=20.844000m/h.</desc>
<speed>5.790000</speed>
</trkpt>
<trkpt lat="56.067314" lon="26.472359">
<ele>102.325256</ele>
<time>2010-08-29T12:01:47Z</time>
<desc>lat.=56.067314, lon.=26.472359, Alt.=102.325256m. Speed=20.016001m/h.</desc>
<speed>5.560000</speed>
</trkpt>
<trkpt lat="56.067356" lon="26.472315">
<ele>102.180725</ele>
<time>2010-08-29T12:01:48Z</time>
<desc>lat.=56.067356, lon.=26.472315, Alt.=102.180725m. Speed=19.872000m/h.</desc>
<speed>5.520000</speed>
</trkpt>
<trkpt lat="56.067398" lon="26.472275">
<ele>102.303772</ele>
<time>2010-08-29T12:01:49Z</time>
<desc>lat.=56.067398, lon.=26.472275, Alt.=102.303772m. Speed=21.096001m/h.</desc>
<speed>5.860000</speed>
</trkpt>
<trkpt lat="56.067448" lon="26.472225">
<ele>101.764709</ele>
<time>2010-08-29T12:01:50Z</time>
<desc>lat.=56.067448, lon.=26.472225, Alt.=101.764709m. Speed=18.216000m/h.</desc>
<speed>5.060000</speed>
</trkpt>
<trkpt lat="56.067486" lon="26.472176">
<ele>101.018616</ele>
<time>2010-08-29T12:01:51Z</time>
<desc>lat.=56.067486, lon.=26.472176, Alt.=101.018616m. Speed=18.180000m/h.</desc>
<speed>5.050000</speed>
</trkpt>
<trkpt lat="56.067524" lon="26.472126">
<ele>100.854553</ele>
<time>2010-08-29T12:01:52Z</time>
<desc>lat.=56.067524, lon.=26.472126, Alt.=100.854553m. Speed=15.912000m/h.</desc>
<speed>4.420000</speed>
</trkpt>
<trkpt lat="56.067566" lon="26.472075">
<ele>101.188538</ele>
<time>2010-08-29T12:01:53Z</time>
<desc>lat.=56.067566, lon.=26.472075, Alt.=101.188538m. Speed=17.676001m/h.</desc>
<speed>4.910000</speed>
</trkpt>
<trkpt lat="56.067604" lon="26.472023">
<ele>101.149475</ele>
<time>2010-08-29T12:01:54Z</time>
<desc>lat.=56.067604, lon.=26.472023, Alt.=101.149475m. Speed=18.252001m/h.</desc>
<speed>5.070000</speed>
</trkpt>
<trkpt lat="56.067646" lon="26.471973">
<ele>100.995178</ele>
<time>2010-08-29T12:01:55Z</time>
<desc>lat.=56.067646, lon.=26.471973, Alt.=100.995178m. Speed=18.252001m/h.</desc>
<speed>5.070000</speed>
</trkpt>
<trkpt lat="56.067680" lon="26.471922">
<ele>100.815491</ele>
<time>2010-08-29T12:01:56Z</time>
<desc>lat.=56.067680, lon.=26.471922, Alt.=100.815491m. Speed=15.948000m/h.</desc>
<speed>4.430000</speed>
</trkpt>
<trkpt lat="56.067711" lon="26.471874">
<ele>100.752991</ele>
<time>2010-08-29T12:01:57Z</time>
<desc>lat.=56.067711, lon.=26.471874, Alt.=100.752991m. Speed=13.932000m/h.</desc>
<speed>3.870000</speed>
</trkpt>
<trkpt lat="56.067741" lon="26.471836">
<ele>100.602600</ele>
<time>2010-08-29T12:01:58Z</time>
<desc>lat.=56.067741, lon.=26.471836, Alt.=100.602600m. Speed=12.312000m/h.</desc>
<speed>3.420000</speed>
</trkpt>
<trkpt lat="56.067772" lon="26.471802">
<ele>100.983459</ele>
<time>2010-08-29T12:01:59Z</time>
<desc>lat.=56.067772, lon.=26.471802, Alt.=100.983459m. Speed=10.512000m/h.</desc>
<speed>2.920000</speed>
</trkpt>
<trkpt lat="56.067802" lon="26.471764">
<ele>100.477600</ele>
<time>2010-08-29T12:02:00Z</time>
<desc>lat.=56.067802, lon.=26.471764, Alt.=100.477600m. Speed=10.116000m/h.</desc>
<speed>2.810000</speed>
</trkpt>
<trkpt lat="56.067833" lon="26.471727">
<ele>100.022522</ele>
<time>2010-08-29T12:02:01Z</time>
<desc>lat.=56.067833, lon.=26.471727, Alt.=100.022522m. Speed=11.448000m/h.</desc>
<speed>3.180000</speed>
</trkpt>
<trkpt lat="56.067856" lon="26.471695">
<ele>99.481506</ele>
<time>2010-08-29T12:02:02Z</time>
<desc>lat.=56.067856, lon.=26.471695, Alt.=99.481506m. Speed=12.456000m/h.</desc>
<speed>3.460000</speed>
</trkpt>
<trkpt lat="56.067894" lon="26.471664">
<ele>100.094788</ele>
<time>2010-08-29T12:02:03Z</time>
<desc>lat.=56.067894, lon.=26.471664, Alt.=100.094788m. Speed=10.440000m/h.</desc>
<speed>2.900000</speed>
</trkpt>
<trkpt lat="56.067924" lon="26.471643">
<ele>99.688538</ele>
<time>2010-08-29T12:02:04Z</time>
<desc>lat.=56.067924, lon.=26.471643, Alt.=99.688538m. Speed=12.600000m/h.</desc>
<speed>3.500000</speed>
</trkpt>
<trkpt lat="56.067951" lon="26.471615">
<ele>100.122131</ele>
<time>2010-08-29T12:02:05Z</time>
<desc>lat.=56.067951, lon.=26.471615, Alt.=100.122131m. Speed=11.232000m/h.</desc>
<speed>3.120000</speed>
</trkpt>
<trkpt lat="56.067982" lon="26.471586">
<ele>100.290100</ele>
<time>2010-08-29T12:02:06Z</time>
<desc>lat.=56.067982, lon.=26.471586, Alt.=100.290100m. Speed=12.816000m/h.</desc>
<speed>3.560000</speed>
</trkpt>
<trkpt lat="56.068008" lon="26.471558">
<ele>100.432678</ele>
<time>2010-08-29T12:02:07Z</time>
<desc>lat.=56.068008, lon.=26.471558, Alt.=100.432678m. Speed=13.536000m/h.</desc>
<speed>3.760000</speed>
</trkpt>
<trkpt lat="56.068039" lon="26.471525">
<ele>100.618225</ele>
<time>2010-08-29T12:02:08Z</time>
<desc>lat.=56.068039, lon.=26.471525, Alt.=100.618225m. Speed=13.356000m/h.</desc>
<speed>3.710000</speed>
</trkpt>
<trkpt lat="56.068069" lon="26.471487">
<ele>100.913147</ele>
<time>2010-08-29T12:02:09Z</time>
<desc>lat.=56.068069, lon.=26.471487, Alt.=100.913147m. Speed=14.688000m/h.</desc>
<speed>4.080000</speed>
</trkpt>
<trkpt lat="56.068100" lon="26.471453">
<ele>101.139709</ele>
<time>2010-08-29T12:02:10Z</time>
<desc>lat.=56.068100, lon.=26.471453, Alt.=101.139709m. Speed=15.372000m/h.</desc>
<speed>4.270000</speed>
</trkpt>
<trkpt lat="56.068130" lon="26.471418">
<ele>101.049866</ele>
<time>2010-08-29T12:02:11Z</time>
<desc>lat.=56.068130, lon.=26.471418, Alt.=101.049866m. Speed=14.940000m/h.</desc>
<speed>4.150000</speed>
</trkpt>
<trkpt lat="56.068157" lon="26.471378">
<ele>100.930725</ele>
<time>2010-08-29T12:02:12Z</time>
<desc>lat.=56.068157, lon.=26.471378, Alt.=100.930725m. Speed=14.580000m/h.</desc>
<speed>4.050000</speed>
</trkpt>
<trkpt lat="56.068176" lon="26.471336">
<ele>100.559631</ele>
<time>2010-08-29T12:02:13Z</time>
<desc>lat.=56.068176, lon.=26.471336, Alt.=100.559631m. Speed=14.616000m/h.</desc>
<speed>4.060000</speed>
</trkpt>
<trkpt lat="56.068207" lon="26.471300">
<ele>100.727600</ele>
<time>2010-08-29T12:02:14Z</time>
<desc>lat.=56.068207, lon.=26.471300, Alt.=100.727600m. Speed=13.752000m/h.</desc>
<speed>3.820000</speed>
</trkpt>
<trkpt lat="56.068230" lon="26.471264">
<ele>100.450256</ele>
<time>2010-08-29T12:02:15Z</time>
<desc>lat.=56.068230, lon.=26.471264, Alt.=100.450256m. Speed=12.528000m/h.</desc>
<speed>3.480000</speed>
</trkpt>
<trkpt lat="56.068256" lon="26.471230">
<ele>100.420959</ele>
<time>2010-08-29T12:02:16Z</time>
<desc>lat.=56.068256, lon.=26.471230, Alt.=100.420959m. Speed=12.096000m/h.</desc>
<speed>3.360000</speed>
</trkpt>
<trkpt lat="56.068287" lon="26.471197">
<ele>100.770569</ele>
<time>2010-08-29T12:02:17Z</time>
<desc>lat.=56.068287, lon.=26.471197, Alt.=100.770569m. Speed=12.672000m/h.</desc>
<speed>3.520000</speed>
</trkpt>
<trkpt lat="56.068314" lon="26.471157">
<ele>101.317444</ele>
<time>2010-08-29T12:02:18Z</time>
<desc>lat.=56.068314, lon.=26.471157, Alt.=101.317444m. Speed=12.204000m/h.</desc>
<speed>3.390000</speed>
</trkpt>
<trkpt lat="56.068344" lon="26.471121">
<ele>101.756897</ele>
<time>2010-08-29T12:02:19Z</time>
<desc>lat.=56.068344, lon.=26.471121, Alt.=101.756897m. Speed=12.096000m/h.</desc>
<speed>3.360000</speed>
</trkpt>
<trkpt lat="56.068367" lon="26.471085">
<ele>101.952209</ele>
<time>2010-08-29T12:02:20Z</time>
<desc>lat.=56.068367, lon.=26.471085, Alt.=101.952209m. Speed=10.584000m/h.</desc>
<speed>2.940000</speed>
</trkpt>
<trkpt lat="56.068386" lon="26.471045">
<ele>102.260803</ele>
<time>2010-08-29T12:02:21Z</time>
<desc>lat.=56.068386, lon.=26.471045, Alt.=102.260803m. Speed=11.196000m/h.</desc>
<speed>3.110000</speed>
</trkpt>
<trkpt lat="56.068409" lon="26.471006">
<ele>101.817444</ele>
<time>2010-08-29T12:02:22Z</time>
<desc>lat.=56.068409, lon.=26.471006, Alt.=101.817444m. Speed=10.548000m/h.</desc>
<speed>2.930000</speed>
</trkpt>
<trkpt lat="56.068432" lon="26.470966">
<ele>101.856506</ele>
<time>2010-08-29T12:02:23Z</time>
<desc>lat.=56.068432, lon.=26.470966, Alt.=101.856506m. Speed=9.684000m/h.</desc>
<speed>2.690000</speed>
</trkpt>
<trkpt lat="56.068478" lon="26.470921">
<ele>102.420959</ele>
<time>2010-08-29T12:02:24Z</time>
<desc>lat.=56.068478, lon.=26.470921, Alt.=102.420959m. Speed=11.160000m/h.</desc>
<speed>3.100000</speed>
</trkpt>
<trkpt lat="56.068501" lon="26.470886">
<ele>101.665100</ele>
<time>2010-08-29T12:02:25Z</time>
<desc>lat.=56.068501, lon.=26.470886, Alt.=101.665100m. Speed=10.656000m/h.</desc>
<speed>2.960000</speed>
</trkpt>
<trkpt lat="56.068516" lon="26.470850">
<ele>101.208069</ele>
<time>2010-08-29T12:02:26Z</time>
<desc>lat.=56.068516, lon.=26.470850, Alt.=101.208069m. Speed=10.080000m/h.</desc>
<speed>2.800000</speed>
</trkpt>
<trkpt lat="56.068527" lon="26.470800">
<ele>101.229553</ele>
<time>2010-08-29T12:02:27Z</time>
<desc>lat.=56.068527, lon.=26.470800, Alt.=101.229553m. Speed=10.116000m/h.</desc>
<speed>2.810000</speed>
</trkpt>
<trkpt lat="56.068535" lon="26.470755">
<ele>100.969788</ele>
<time>2010-08-29T12:02:28Z</time>
<desc>lat.=56.068535, lon.=26.470755, Alt.=100.969788m. Speed=10.008000m/h.</desc>
<speed>2.780000</speed>
</trkpt>
<trkpt lat="56.068539" lon="26.470707">
<ele>100.989319</ele>
<time>2010-08-29T12:02:29Z</time>
<desc>lat.=56.068539, lon.=26.470707, Alt.=100.989319m. Speed=10.152000m/h.</desc>
<speed>2.820000</speed>
</trkpt>
<trkpt lat="56.068539" lon="26.470661">
<ele>100.815491</ele>
<time>2010-08-29T12:02:30Z</time>
<desc>lat.=56.068539, lon.=26.470661, Alt.=100.815491m. Speed=9.288000m/h.</desc>
<speed>2.580000</speed>
</trkpt>
<trkpt lat="56.068535" lon="26.470619">
<ele>100.428772</ele>
<time>2010-08-29T12:02:31Z</time>
<desc>lat.=56.068535, lon.=26.470619, Alt.=100.428772m. Speed=8.496000m/h.</desc>
<speed>2.360000</speed>
</trkpt>
<trkpt lat="56.068535" lon="26.470583">
<ele>100.518616</ele>
<time>2010-08-29T12:02:32Z</time>
<desc>lat.=56.068535, lon.=26.470583, Alt.=100.518616m. Speed=7.524000m/h.</desc>
<speed>2.090000</speed>
</trkpt>
<trkpt lat="56.068527" lon="26.470547">
<ele>100.563538</ele>
<time>2010-08-29T12:02:33Z</time>
<desc>lat.=56.068527, lon.=26.470547, Alt.=100.563538m. Speed=9.612000m/h.</desc>
<speed>2.670000</speed>
</trkpt>
<trkpt lat="56.068520" lon="26.470497">
<ele>99.848694</ele>
<time>2010-08-29T12:02:34Z</time>
<desc>lat.=56.068520, lon.=26.470497, Alt.=99.848694m. Speed=11.736000m/h.</desc>
<speed>3.260000</speed>
</trkpt>
<trkpt lat="56.068512" lon="26.470451">
<ele>100.141663</ele>
<time>2010-08-29T12:02:35Z</time>
<desc>lat.=56.068512, lon.=26.470451, Alt.=100.141663m. Speed=11.160000m/h.</desc>
<speed>3.100000</speed>
</trkpt>
<trkpt lat="56.068497" lon="26.470407">
<ele>99.983459</ele>
<time>2010-08-29T12:02:36Z</time>
<desc>lat.=56.068497, lon.=26.470407, Alt.=99.983459m. Speed=11.592000m/h.</desc>
<speed>3.220000</speed>
</trkpt>
<trkpt lat="56.068481" lon="26.470360">
<ele>99.583069</ele>
<time>2010-08-29T12:02:37Z</time>
<desc>lat.=56.068481, lon.=26.470360, Alt.=99.583069m. Speed=13.572000m/h.</desc>
<speed>3.770000</speed>
</trkpt>
<trkpt lat="56.068462" lon="26.470306">
<ele>99.586975</ele>
<time>2010-08-29T12:02:38Z</time>
<desc>lat.=56.068462, lon.=26.470306, Alt.=99.586975m. Speed=13.140000m/h.</desc>
<speed>3.650000</speed>
</trkpt>
<trkpt lat="56.068451" lon="26.470251">
<ele>99.377991</ele>
<time>2010-08-29T12:02:39Z</time>
<desc>lat.=56.068451, lon.=26.470251, Alt.=99.377991m. Speed=12.456000m/h.</desc>
<speed>3.460000</speed>
</trkpt>
<trkpt lat="56.068439" lon="26.470198">
<ele>99.670959</ele>
<time>2010-08-29T12:02:40Z</time>
<desc>lat.=56.068439, lon.=26.470198, Alt.=99.670959m. Speed=13.068000m/h.</desc>
<speed>3.630000</speed>
</trkpt>
<trkpt lat="56.068424" lon="26.470142">
<ele>99.678772</ele>
<time>2010-08-29T12:02:41Z</time>
<desc>lat.=56.068424, lon.=26.470142, Alt.=99.678772m. Speed=13.572000m/h.</desc>
<speed>3.770000</speed>
</trkpt>
<trkpt lat="56.068405" lon="26.470079">
<ele>99.776428</ele>
<time>2010-08-29T12:02:42Z</time>
<desc>lat.=56.068405, lon.=26.470079, Alt.=99.776428m. Speed=14.724000m/h.</desc>
<speed>4.090000</speed>
</trkpt>
<trkpt lat="56.068386" lon="26.470013">
<ele>99.674866</ele>
<time>2010-08-29T12:02:43Z</time>
<desc>lat.=56.068386, lon.=26.470013, Alt.=99.674866m. Speed=14.472000m/h.</desc>
<speed>4.020000</speed>
</trkpt>
<trkpt lat="56.068367" lon="26.469948">
<ele>99.534241</ele>
<time>2010-08-29T12:02:44Z</time>
<desc>lat.=56.068367, lon.=26.469948, Alt.=99.534241m. Speed=15.012000m/h.</desc>
<speed>4.170000</speed>
</trkpt>
<trkpt lat="56.068352" lon="26.469891">
<ele>99.549866</ele>
<time>2010-08-29T12:02:45Z</time>
<desc>lat.=56.068352, lon.=26.469891, Alt.=99.549866m. Speed=15.516000m/h.</desc>
<speed>4.310000</speed>
</trkpt>
<trkpt lat="56.068333" lon="26.469835">
<ele>99.419006</ele>
<time>2010-08-29T12:02:46Z</time>
<desc>lat.=56.068333, lon.=26.469835, Alt.=99.419006m. Speed=16.308001m/h.</desc>
<speed>4.530000</speed>
</trkpt>
<trkpt lat="56.068314" lon="26.469767">
<ele>99.366272</ele>
<time>2010-08-29T12:02:47Z</time>
<desc>lat.=56.068314, lon.=26.469767, Alt.=99.366272m. Speed=17.243999m/h.</desc>
<speed>4.790000</speed>
</trkpt>
<trkpt lat="56.068306" lon="26.469707">
<ele>99.727600</ele>
<time>2010-08-29T12:02:48Z</time>
<desc>lat.=56.068306, lon.=26.469707, Alt.=99.727600m. Speed=16.992001m/h.</desc>
<speed>4.720000</speed>
</trkpt>
<trkpt lat="56.068283" lon="26.469641">
<ele>99.559631</ele>
<time>2010-08-29T12:02:49Z</time>
<desc>lat.=56.068283, lon.=26.469641, Alt.=99.559631m. Speed=18.216000m/h.</desc>
<speed>5.060000</speed>
</trkpt>
<trkpt lat="56.068264" lon="26.469584">
<ele>99.766663</ele>
<time>2010-08-29T12:02:50Z</time>
<desc>lat.=56.068264, lon.=26.469584, Alt.=99.766663m. Speed=15.444000m/h.</desc>
<speed>4.290000</speed>
</trkpt>
<trkpt lat="56.068249" lon="26.469528">
<ele>99.987366</ele>
<time>2010-08-29T12:02:51Z</time>
<desc>lat.=56.068249, lon.=26.469528, Alt.=99.987366m. Speed=15.264000m/h.</desc>
<speed>4.240000</speed>
</trkpt>
<trkpt lat="56.068230" lon="26.469460">
<ele>99.852600</ele>
<time>2010-08-29T12:02:52Z</time>
<desc>lat.=56.068230, lon.=26.469460, Alt.=99.852600m. Speed=17.388000m/h.</desc>
<speed>4.830000</speed>
</trkpt>
<trkpt lat="56.068214" lon="26.469404">
<ele>100.594788</ele>
<time>2010-08-29T12:02:53Z</time>
<desc>lat.=56.068214, lon.=26.469404, Alt.=100.594788m. Speed=15.156000m/h.</desc>
<speed>4.210000</speed>
</trkpt>
<trkpt lat="56.068203" lon="26.469347">
<ele>100.583069</ele>
<time>2010-08-29T12:02:54Z</time>
<desc>lat.=56.068203, lon.=26.469347, Alt.=100.583069m. Speed=14.220000m/h.</desc>
<speed>3.950000</speed>
</trkpt>
<trkpt lat="56.068188" lon="26.469292">
<ele>101.377991</ele>
<time>2010-08-29T12:02:55Z</time>
<desc>lat.=56.068188, lon.=26.469292, Alt.=101.377991m. Speed=13.968000m/h.</desc>
<speed>3.880000</speed>
</trkpt>
<trkpt lat="56.068169" lon="26.469231">
<ele>101.356506</ele>
<time>2010-08-29T12:02:56Z</time>
<desc>lat.=56.068169, lon.=26.469231, Alt.=101.356506m. Speed=13.968000m/h.</desc>
<speed>3.880000</speed>
</trkpt>
<trkpt lat="56.068153" lon="26.469173">
<ele>102.002991</ele>
<time>2010-08-29T12:02:57Z</time>
<desc>lat.=56.068153, lon.=26.469173, Alt.=102.002991m. Speed=14.400000m/h.</desc>
<speed>4.000000</speed>
</trkpt>
<trkpt lat="56.068138" lon="26.469116">
<ele>102.172913</ele>
<time>2010-08-29T12:02:58Z</time>
<desc>lat.=56.068138, lon.=26.469116, Alt.=102.172913m. Speed=14.364000m/h.</desc>
<speed>3.990000</speed>
</trkpt>
<trkpt lat="56.068123" lon="26.469063">
<ele>102.633850</ele>
<time>2010-08-29T12:02:59Z</time>
<desc>lat.=56.068123, lon.=26.469063, Alt.=102.633850m. Speed=14.112000m/h.</desc>
<speed>3.920000</speed>
</trkpt>
<trkpt lat="56.068108" lon="26.469002">
<ele>102.670959</ele>
<time>2010-08-29T12:03:00Z</time>
<desc>lat.=56.068108, lon.=26.469002, Alt.=102.670959m. Speed=13.716000m/h.</desc>
<speed>3.810000</speed>
</trkpt>
<trkpt lat="56.068092" lon="26.468952">
<ele>102.919006</ele>
<time>2010-08-29T12:03:01Z</time>
<desc>lat.=56.068092, lon.=26.468952, Alt.=102.919006m. Speed=13.068000m/h.</desc>
<speed>3.630000</speed>
</trkpt>
<trkpt lat="56.068077" lon="26.468899">
<ele>102.926819</ele>
<time>2010-08-29T12:03:02Z</time>
<desc>lat.=56.068077, lon.=26.468899, Alt.=102.926819m. Speed=13.176000m/h.</desc>
<speed>3.660000</speed>
</trkpt>
<trkpt lat="56.068062" lon="26.468849">
<ele>103.331116</ele>
<time>2010-08-29T12:03:03Z</time>
<desc>lat.=56.068062, lon.=26.468849, Alt.=103.331116m. Speed=12.672000m/h.</desc>
<speed>3.520000</speed>
</trkpt>
<trkpt lat="56.068050" lon="26.468801">
<ele>103.458069</ele>
<time>2010-08-29T12:03:04Z</time>
<desc>lat.=56.068050, lon.=26.468801, Alt.=103.458069m. Speed=12.420000m/h.</desc>
<speed>3.450000</speed>
</trkpt>
<trkpt lat="56.068039" lon="26.468750">
<ele>103.553772</ele>
<time>2010-08-29T12:03:05Z</time>
<desc>lat.=56.068039, lon.=26.468750, Alt.=103.553772m. Speed=12.204000m/h.</desc>
<speed>3.390000</speed>
</trkpt>
<trkpt lat="56.068024" lon="26.468706">
<ele>103.631897</ele>
<time>2010-08-29T12:03:06Z</time>
<desc>lat.=56.068024, lon.=26.468706, Alt.=103.631897m. Speed=11.124000m/h.</desc>
<speed>3.090000</speed>
</trkpt>
<trkpt lat="56.068016" lon="26.468664">
<ele>103.967834</ele>
<time>2010-08-29T12:03:07Z</time>
<desc>lat.=56.068016, lon.=26.468664, Alt.=103.967834m. Speed=10.152000m/h.</desc>
<speed>2.820000</speed>
</trkpt>
<trkpt lat="56.068001" lon="26.468618">
<ele>104.321350</ele>
<time>2010-08-29T12:03:08Z</time>
<desc>lat.=56.068001, lon.=26.468618, Alt.=104.321350m. Speed=10.512000m/h.</desc>
<speed>2.920000</speed>
</trkpt>
<trkpt lat="56.067989" lon="26.468578">
<ele>104.745178</ele>
<time>2010-08-29T12:03:09Z</time>
<desc>lat.=56.067989, lon.=26.468578, Alt.=104.745178m. Speed=11.376000m/h.</desc>
<speed>3.160000</speed>
</trkpt>
<trkpt lat="56.067974" lon="26.468540">
<ele>105.124084</ele>
<time>2010-08-29T12:03:10Z</time>
<desc>lat.=56.067974, lon.=26.468540, Alt.=105.124084m. Speed=11.052000m/h.</desc>
<speed>3.070000</speed>
</trkpt>
<trkpt lat="56.067966" lon="26.468498">
<ele>105.588928</ele>
<time>2010-08-29T12:03:11Z</time>
<desc>lat.=56.067966, lon.=26.468498, Alt.=105.588928m. Speed=10.440000m/h.</desc>
<speed>2.900000</speed>
</trkpt>
<trkpt lat="56.067955" lon="26.468460">
<ele>105.879944</ele>
<time>2010-08-29T12:03:12Z</time>
<desc>lat.=56.067955, lon.=26.468460, Alt.=105.879944m. Speed=9.756000m/h.</desc>
<speed>2.710000</speed>
</trkpt>
<trkpt lat="56.067944" lon="26.468422">
<ele>106.506897</ele>
<time>2010-08-29T12:03:13Z</time>
<desc>lat.=56.067944, lon.=26.468422, Alt.=106.506897m. Speed=9.864000m/h.</desc>
<speed>2.740000</speed>
</trkpt>
<trkpt lat="56.067932" lon="26.468374">
<ele>106.040100</ele>
<time>2010-08-29T12:03:14Z</time>
<desc>lat.=56.067932, lon.=26.468374, Alt.=106.040100m. Speed=9.900000m/h.</desc>
<speed>2.750000</speed>
</trkpt>
<trkpt lat="56.067921" lon="26.468327">
<ele>105.876038</ele>
<time>2010-08-29T12:03:15Z</time>
<desc>lat.=56.067921, lon.=26.468327, Alt.=105.876038m. Speed=9.072000m/h.</desc>
<speed>2.520000</speed>
</trkpt>
<trkpt lat="56.067913" lon="26.468279">
<ele>105.807678</ele>
<time>2010-08-29T12:03:16Z</time>
<desc>lat.=56.067913, lon.=26.468279, Alt.=105.807678m. Speed=11.124000m/h.</desc>
<speed>3.090000</speed>
</trkpt>
<trkpt lat="56.067905" lon="26.468237">
<ele>106.241272</ele>
<time>2010-08-29T12:03:17Z</time>
<desc>lat.=56.067905, lon.=26.468237, Alt.=106.241272m. Speed=9.900000m/h.</desc>
<speed>2.750000</speed>
</trkpt>
<trkpt lat="56.067890" lon="26.468191">
<ele>106.221741</ele>
<time>2010-08-29T12:03:18Z</time>
<desc>lat.=56.067890, lon.=26.468191, Alt.=106.221741m. Speed=11.484000m/h.</desc>
<speed>3.190000</speed>
</trkpt>
<trkpt lat="56.067883" lon="26.468140">
<ele>106.336975</ele>
<time>2010-08-29T12:03:19Z</time>
<desc>lat.=56.067883, lon.=26.468140, Alt.=106.336975m. Speed=11.808000m/h.</desc>
<speed>3.280000</speed>
</trkpt>
<trkpt lat="56.067867" lon="26.468092">
<ele>106.028381</ele>
<time>2010-08-29T12:03:20Z</time>
<desc>lat.=56.067867, lon.=26.468092, Alt.=106.028381m. Speed=12.312000m/h.</desc>
<speed>3.420000</speed>
</trkpt>
<trkpt lat="56.067860" lon="26.468042">
<ele>106.559631</ele>
<time>2010-08-29T12:03:21Z</time>
<desc>lat.=56.067860, lon.=26.468042, Alt.=106.559631m. Speed=12.132000m/h.</desc>
<speed>3.370000</speed>
</trkpt>
<trkpt lat="56.067848" lon="26.467989">
<ele>105.963928</ele>
<time>2010-08-29T12:03:22Z</time>
<desc>lat.=56.067848, lon.=26.467989, Alt.=105.963928m. Speed=12.492000m/h.</desc>
<speed>3.470000</speed>
</trkpt>
<trkpt lat="56.067841" lon="26.467930">
<ele>105.557678</ele>
<time>2010-08-29T12:03:23Z</time>
<desc>lat.=56.067841, lon.=26.467930, Alt.=105.557678m. Speed=13.140000m/h.</desc>
<speed>3.650000</speed>
</trkpt>
<trkpt lat="56.067825" lon="26.467878">
<ele>105.534241</ele>
<time>2010-08-29T12:03:24Z</time>
<desc>lat.=56.067825, lon.=26.467878, Alt.=105.534241m. Speed=13.140000m/h.</desc>
<speed>3.650000</speed>
</trkpt>
<trkpt lat="56.067806" lon="26.467825">
<ele>105.987366</ele>
<time>2010-08-29T12:03:25Z</time>
<desc>lat.=56.067806, lon.=26.467825, Alt.=105.987366m. Speed=15.372000m/h.</desc>
<speed>4.270000</speed>
</trkpt>
<trkpt lat="56.067791" lon="26.467764">
<ele>106.624084</ele>
<time>2010-08-29T12:03:26Z</time>
<desc>lat.=56.067791, lon.=26.467764, Alt.=106.624084m. Speed=15.156000m/h.</desc>
<speed>4.210000</speed>
</trkpt>
<trkpt lat="56.067776" lon="26.467701">
<ele>106.842834</ele>
<time>2010-08-29T12:03:27Z</time>
<desc>lat.=56.067776, lon.=26.467701, Alt.=106.842834m. Speed=15.840000m/h.</desc>
<speed>4.400000</speed>
</trkpt>
<trkpt lat="56.067757" lon="26.467636">
<ele>106.620178</ele>
<time>2010-08-29T12:03:28Z</time>
<desc>lat.=56.067757, lon.=26.467636, Alt.=106.620178m. Speed=15.876000m/h.</desc>
<speed>4.410000</speed>
</trkpt>
<trkpt lat="56.067738" lon="26.467567">
<ele>106.430725</ele>
<time>2010-08-29T12:03:29Z</time>
<desc>lat.=56.067738, lon.=26.467567, Alt.=106.430725m. Speed=17.100000m/h.</desc>
<speed>4.750000</speed>
</trkpt>
<trkpt lat="56.067722" lon="26.467505">
<ele>106.305725</ele>
<time>2010-08-29T12:03:30Z</time>
<desc>lat.=56.067722, lon.=26.467505, Alt.=106.305725m. Speed=16.596001m/h.</desc>
<speed>4.610000</speed>
</trkpt>
<trkpt lat="56.067703" lon="26.467443">
<ele>106.206116</ele>
<time>2010-08-29T12:03:31Z</time>
<desc>lat.=56.067703, lon.=26.467443, Alt.=106.206116m. Speed=16.740000m/h.</desc>
<speed>4.650000</speed>
</trkpt>
<trkpt lat="56.067684" lon="26.467375">
<ele>106.463928</ele>
<time>2010-08-29T12:03:32Z</time>
<desc>lat.=56.067684, lon.=26.467375, Alt.=106.463928m. Speed=16.416000m/h.</desc>
<speed>4.560000</speed>
</trkpt>
<trkpt lat="56.067673" lon="26.467314">
<ele>106.635803</ele>
<time>2010-08-29T12:03:33Z</time>
<desc>lat.=56.067673, lon.=26.467314, Alt.=106.635803m. Speed=15.300000m/h.</desc>
<speed>4.250000</speed>
</trkpt>
<trkpt lat="56.067654" lon="26.467247">
<ele>106.635803</ele>
<time>2010-08-29T12:03:34Z</time>
<desc>lat.=56.067654, lon.=26.467247, Alt.=106.635803m. Speed=16.020000m/h.</desc>
<speed>4.450000</speed>
</trkpt>
<trkpt lat="56.067638" lon="26.467178">
<ele>106.493225</ele>
<time>2010-08-29T12:03:35Z</time>
<desc>lat.=56.067638, lon.=26.467178, Alt.=106.493225m. Speed=17.856001m/h.</desc>
<speed>4.960000</speed>
</trkpt>
<trkpt lat="56.067623" lon="26.467108">
<ele>106.266663</ele>
<time>2010-08-29T12:03:36Z</time>
<desc>lat.=56.067623, lon.=26.467108, Alt.=106.266663m. Speed=16.920000m/h.</desc>
<speed>4.700000</speed>
</trkpt>
<trkpt lat="56.067612" lon="26.467033">
<ele>106.237366</ele>
<time>2010-08-29T12:03:37Z</time>
<desc>lat.=56.067612, lon.=26.467033, Alt.=106.237366m. Speed=17.747999m/h.</desc>
<speed>4.930000</speed>
</trkpt>
<trkpt lat="56.067600" lon="26.466961">
<ele>106.104553</ele>
<time>2010-08-29T12:03:38Z</time>
<desc>lat.=56.067600, lon.=26.466961, Alt.=106.104553m. Speed=17.208000m/h.</desc>
<speed>4.780000</speed>
</trkpt>
<trkpt lat="56.067593" lon="26.466890">
<ele>106.194397</ele>
<time>2010-08-29T12:03:39Z</time>
<desc>lat.=56.067593, lon.=26.466890, Alt.=106.194397m. Speed=17.280001m/h.</desc>
<speed>4.800000</speed>
</trkpt>
<trkpt lat="56.067581" lon="26.466818">
<ele>106.210022</ele>
<time>2010-08-29T12:03:40Z</time>
<desc>lat.=56.067581, lon.=26.466818, Alt.=106.210022m. Speed=17.604000m/h.</desc>
<speed>4.890000</speed>
</trkpt>
<trkpt lat="56.067574" lon="26.466745">
<ele>106.221741</ele>
<time>2010-08-29T12:03:41Z</time>
<desc>lat.=56.067574, lon.=26.466745, Alt.=106.221741m. Speed=17.063999m/h.</desc>
<speed>4.740000</speed>
</trkpt>
<trkpt lat="56.067566" lon="26.466665">
<ele>106.098694</ele>
<time>2010-08-29T12:03:42Z</time>
<desc>lat.=56.067566, lon.=26.466665, Alt.=106.098694m. Speed=17.243999m/h.</desc>
<speed>4.790000</speed>
</trkpt>
<trkpt lat="56.067566" lon="26.466585">
<ele>106.096741</ele>
<time>2010-08-29T12:03:43Z</time>
<desc>lat.=56.067566, lon.=26.466585, Alt.=106.096741m. Speed=17.316000m/h.</desc>
<speed>4.810000</speed>
</trkpt>
<trkpt lat="56.067562" lon="26.466503">
<ele>105.983459</ele>
<time>2010-08-29T12:03:44Z</time>
<desc>lat.=56.067562, lon.=26.466503, Alt.=105.983459m. Speed=17.892000m/h.</desc>
<speed>4.970000</speed>
</trkpt>
<trkpt lat="56.067551" lon="26.466404">
<ele>105.592834</ele>
<time>2010-08-29T12:03:45Z</time>
<desc>lat.=56.067551, lon.=26.466404, Alt.=105.592834m. Speed=18.143999m/h.</desc>
<speed>5.040000</speed>
</trkpt>
<trkpt lat="56.067543" lon="26.466320">
<ele>105.432678</ele>
<time>2010-08-29T12:03:46Z</time>
<desc>lat.=56.067543, lon.=26.466320, Alt.=105.432678m. Speed=18.180000m/h.</desc>
<speed>5.050000</speed>
</trkpt>
<trkpt lat="56.067539" lon="26.466238">
<ele>105.502991</ele>
<time>2010-08-29T12:03:47Z</time>
<desc>lat.=56.067539, lon.=26.466238, Alt.=105.502991m. Speed=18.288000m/h.</desc>
<speed>5.080000</speed>
</trkpt>
<trkpt lat="56.067539" lon="26.466158">
<ele>105.399475</ele>
<time>2010-08-29T12:03:48Z</time>
<desc>lat.=56.067539, lon.=26.466158, Alt.=105.399475m. Speed=17.316000m/h.</desc>
<speed>4.810000</speed>
</trkpt>
<trkpt lat="56.067535" lon="26.466084">
<ele>105.624084</ele>
<time>2010-08-29T12:03:49Z</time>
<desc>lat.=56.067535, lon.=26.466084, Alt.=105.624084m. Speed=15.984000m/h.</desc>
<speed>4.440000</speed>
</trkpt>
<trkpt lat="56.067532" lon="26.466013">
<ele>105.663147</ele>
<time>2010-08-29T12:03:50Z</time>
<desc>lat.=56.067532, lon.=26.466013, Alt.=105.663147m. Speed=15.372000m/h.</desc>
<speed>4.270000</speed>
</trkpt>
<trkpt lat="56.067532" lon="26.465946">
<ele>105.782288</ele>
<time>2010-08-29T12:03:51Z</time>
<desc>lat.=56.067532, lon.=26.465946, Alt.=105.782288m. Speed=15.588000m/h.</desc>
<speed>4.330000</speed>
</trkpt>
<trkpt lat="56.067528" lon="26.465870">
<ele>105.270569</ele>
<time>2010-08-29T12:03:52Z</time>
<desc>lat.=56.067528, lon.=26.465870, Alt.=105.270569m. Speed=18.396000m/h.</desc>
<speed>5.110000</speed>
</trkpt>
<trkpt lat="56.067520" lon="26.465799">
<ele>105.680725</ele>
<time>2010-08-29T12:03:53Z</time>
<desc>lat.=56.067520, lon.=26.465799, Alt.=105.680725m. Speed=16.091999m/h.</desc>
<speed>4.470000</speed>
</trkpt>
<trkpt lat="56.067516" lon="26.465727">
<ele>106.069397</ele>
<time>2010-08-29T12:03:54Z</time>
<desc>lat.=56.067516, lon.=26.465727, Alt.=106.069397m. Speed=15.480000m/h.</desc>
<speed>4.300000</speed>
</trkpt>
<trkpt lat="56.067513" lon="26.465658">
<ele>106.499084</ele>
<time>2010-08-29T12:03:55Z</time>
<desc>lat.=56.067513, lon.=26.465658, Alt.=106.499084m. Speed=15.876000m/h.</desc>
<speed>4.410000</speed>
</trkpt>
<trkpt lat="56.067509" lon="26.465590">
<ele>105.032288</ele>
<time>2010-08-29T12:03:56Z</time>
<desc>lat.=56.067509, lon.=26.465590, Alt.=105.032288m. Speed=15.948000m/h.</desc>
<speed>4.430000</speed>
</trkpt>
<trkpt lat="56.067505" lon="26.465521">
<ele>105.608459</ele>
<time>2010-08-29T12:03:57Z</time>
<desc>lat.=56.067505, lon.=26.465521, Alt.=105.608459m. Speed=16.704000m/h.</desc>
<speed>4.640000</speed>
</trkpt>
<trkpt lat="56.067505" lon="26.465450">
<ele>105.915100</ele>
<time>2010-08-29T12:03:58Z</time>
<desc>lat.=56.067505, lon.=26.465450, Alt.=105.915100m. Speed=17.028000m/h.</desc>
<speed>4.730000</speed>
</trkpt>
<trkpt lat="56.067501" lon="26.465376">
<ele>106.135803</ele>
<time>2010-08-29T12:03:59Z</time>
<desc>lat.=56.067501, lon.=26.465376, Alt.=106.135803m. Speed=16.955999m/h.</desc>
<speed>4.710000</speed>
</trkpt>
<trkpt lat="56.067501" lon="26.465302">
<ele>106.317444</ele>
<time>2010-08-29T12:04:00Z</time>
<desc>lat.=56.067501, lon.=26.465302, Alt.=106.317444m. Speed=17.063999m/h.</desc>
<speed>4.740000</speed>
</trkpt>
<trkpt lat="56.067501" lon="26.465223">
<ele>106.497131</ele>
<time>2010-08-29T12:04:01Z</time>
<desc>lat.=56.067501, lon.=26.465223, Alt.=106.497131m. Speed=18.216000m/h.</desc>
<speed>5.060000</speed>
</trkpt>
<trkpt lat="56.067505" lon="26.465145">
<ele>106.487366</ele>
<time>2010-08-29T12:04:02Z</time>
<desc>lat.=56.067505, lon.=26.465145, Alt.=106.487366m. Speed=17.927999m/h.</desc>
<speed>4.980000</speed>
</trkpt>
<trkpt lat="56.067513" lon="26.465073">
<ele>106.540100</ele>
<time>2010-08-29T12:04:03Z</time>
<desc>lat.=56.067513, lon.=26.465073, Alt.=106.540100m. Speed=15.300000m/h.</desc>
<speed>4.250000</speed>
</trkpt>
<trkpt lat="56.067516" lon="26.465004">
<ele>106.309631</ele>
<time>2010-08-29T12:04:04Z</time>
<desc>lat.=56.067516, lon.=26.465004, Alt.=106.309631m. Speed=16.056000m/h.</desc>
<speed>4.460000</speed>
</trkpt>
<trkpt lat="56.067524" lon="26.464933">
<ele>106.120178</ele>
<time>2010-08-29T12:04:05Z</time>
<desc>lat.=56.067524, lon.=26.464933, Alt.=106.120178m. Speed=13.860000m/h.</desc>
<speed>3.850000</speed>
</trkpt>
<trkpt lat="56.067528" lon="26.464851">
<ele>105.694397</ele>
<time>2010-08-29T12:04:06Z</time>
<desc>lat.=56.067528, lon.=26.464851, Alt.=105.694397m. Speed=17.568001m/h.</desc>
<speed>4.880000</speed>
</trkpt>
<trkpt lat="56.067524" lon="26.464762">
<ele>105.958069</ele>
<time>2010-08-29T12:04:07Z</time>
<desc>lat.=56.067524, lon.=26.464762, Alt.=105.958069m. Speed=21.024000m/h.</desc>
<speed>5.840000</speed>
</trkpt>
<trkpt lat="56.067509" lon="26.464668">
<ele>105.745178</ele>
<time>2010-08-29T12:04:08Z</time>
<desc>lat.=56.067509, lon.=26.464668, Alt.=105.745178m. Speed=19.511999m/h.</desc>
<speed>5.420000</speed>
</trkpt>
<trkpt lat="56.067501" lon="26.464581">
<ele>105.784241</ele>
<time>2010-08-29T12:04:09Z</time>
<desc>lat.=56.067501, lon.=26.464581, Alt.=105.784241m. Speed=18.972000m/h.</desc>
<speed>5.270000</speed>
</trkpt>
<trkpt lat="56.067490" lon="26.464499">
<ele>104.624084</ele>
<time>2010-08-29T12:04:10Z</time>
<desc>lat.=56.067490, lon.=26.464499, Alt.=104.624084m. Speed=18.648001m/h.</desc>
<speed>5.180000</speed>
</trkpt>
<trkpt lat="56.067486" lon="26.464413">
<ele>105.229553</ele>
<time>2010-08-29T12:04:11Z</time>
<desc>lat.=56.067486, lon.=26.464413, Alt.=105.229553m. Speed=19.584000m/h.</desc>
<speed>5.440000</speed>
</trkpt>
<trkpt lat="56.067463" lon="26.464325">
<ele>105.909241</ele>
<time>2010-08-29T12:04:12Z</time>
<desc>lat.=56.067463, lon.=26.464325, Alt.=105.909241m. Speed=20.771999m/h.</desc>
<speed>5.770000</speed>
</trkpt>
<trkpt lat="56.067436" lon="26.464237">
<ele>106.047913</ele>
<time>2010-08-29T12:04:13Z</time>
<desc>lat.=56.067436, lon.=26.464237, Alt.=106.047913m. Speed=19.224001m/h.</desc>
<speed>5.340000</speed>
</trkpt>
<trkpt lat="56.067421" lon="26.464159">
<ele>106.756897</ele>
<time>2010-08-29T12:04:14Z</time>
<desc>lat.=56.067421, lon.=26.464159, Alt.=106.756897m. Speed=17.496000m/h.</desc>
<speed>4.860000</speed>
</trkpt>
<trkpt lat="56.067406" lon="26.464100">
<ele>107.473694</ele>
<time>2010-08-29T12:04:15Z</time>
<desc>lat.=56.067406, lon.=26.464100, Alt.=107.473694m. Speed=14.436000m/h.</desc>
<speed>4.010000</speed>
</trkpt>
<trkpt lat="56.067383" lon="26.464043">
<ele>106.948303</ele>
<time>2010-08-29T12:04:16Z</time>
<desc>lat.=56.067383, lon.=26.464043, Alt.=106.948303m. Speed=12.816000m/h.</desc>
<speed>3.560000</speed>
</trkpt>
<trkpt lat="56.067364" lon="26.464001">
<ele>106.926819</ele>
<time>2010-08-29T12:04:17Z</time>
<desc>lat.=56.067364, lon.=26.464001, Alt.=106.926819m. Speed=8.280000m/h.</desc>
<speed>2.300000</speed>
</trkpt>
<trkpt lat="56.067333" lon="26.463978">
<ele>105.120178</ele>
<time>2010-08-29T12:04:18Z</time>
<desc>lat.=56.067333, lon.=26.463978, Alt.=105.120178m. Speed=6.984000m/h.</desc>
<speed>1.940000</speed>
</trkpt>
<trkpt lat="56.067326" lon="26.463966">
<ele>104.924866</ele>
<time>2010-08-29T12:04:19Z</time>
<desc>lat.=56.067326, lon.=26.463966, Alt.=104.924866m. Speed=3.636000m/h.</desc>
<speed>1.010000</speed>
</trkpt>
<trkpt lat="56.067322" lon="26.463957">
<ele>104.690491</ele>
<time>2010-08-29T12:04:20Z</time>
<desc>lat.=56.067322, lon.=26.463957, Alt.=104.690491m. Speed=0.324000m/h.</desc>
<speed>0.090000</speed>
</trkpt>
<trkpt lat="56.067314" lon="26.463955">
<ele>104.350647</ele>
<time>2010-08-29T12:04:21Z</time>
<desc>lat.=56.067314, lon.=26.463955, Alt.=104.350647m. Speed=0.756000m/h.</desc>
<speed>0.210000</speed>
</trkpt>
<trkpt lat="56.067303" lon="26.463951">
<ele>103.963928</ele>
<time>2010-08-29T12:04:22Z</time>
<desc>lat.=56.067303, lon.=26.463951, Alt.=103.963928m. Speed=1.368000m/h.</desc>
<speed>0.380000</speed>
</trkpt>
<trkpt lat="56.067299" lon="26.463961">
<ele>103.313538</ele>
<time>2010-08-29T12:04:23Z</time>
<desc>lat.=56.067299, lon.=26.463961, Alt.=103.313538m. Speed=0.036000m/h.</desc>
<speed>0.010000</speed>
</trkpt>
<trkpt lat="56.067299" lon="26.463961">
<ele>103.336975</ele>
<time>2010-08-29T12:04:24Z</time>
<desc>lat.=56.067299, lon.=26.463961, Alt.=103.336975m. Speed=0.036000m/h.</desc>
<speed>0.010000</speed>
</trkpt>
<trkpt lat="56.067299" lon="26.463961">
<ele>103.344788</ele>
<time>2010-08-29T12:04:25Z</time>
<desc>lat.=56.067299, lon.=26.463961, Alt.=103.344788m. Speed=0.000000m/h.</desc>
<speed>0.000000</speed>
</trkpt>
<trkpt lat="56.067299" lon="26.463961">
<ele>103.356506</ele>
<time>2010-08-29T12:04:26Z</time>
<desc>lat.=56.067299, lon.=26.463961, Alt.=103.356506m. Speed=0.036000m/h.</desc>
<speed>0.010000</speed>
</trkpt>
<trkpt lat="56.067299" lon="26.463961">
<ele>103.325256</ele>
<time>2010-08-29T12:04:27Z</time>
<desc>lat.=56.067299, lon.=26.463961, Alt.=103.325256m. Speed=1.260000m/h.</desc>
<speed>0.350000</speed>
</trkpt>
<trkpt lat="56.067299" lon="26.463955">
<ele>103.307678</ele>
<time>2010-08-29T12:04:28Z</time>
<desc>lat.=56.067299, lon.=26.463955, Alt.=103.307678m. Speed=1.764000m/h.</desc>
<speed>0.490000</speed>
</trkpt>
<trkpt lat="56.067299" lon="26.463947">
<ele>103.286194</ele>
<time>2010-08-29T12:04:29Z</time>
<desc>lat.=56.067299, lon.=26.463947, Alt.=103.286194m. Speed=1.944000m/h.</desc>
<speed>0.540000</speed>
</trkpt>
<trkpt lat="56.067303" lon="26.463945">
<ele>103.256897</ele>
<time>2010-08-29T12:04:30Z</time>
<desc>lat.=56.067303, lon.=26.463945, Alt.=103.256897m. Speed=2.088000m/h.</desc>
<speed>0.580000</speed>
</trkpt>
<trkpt lat="56.067307" lon="26.463947">
<ele>103.245178</ele>
<time>2010-08-29T12:04:31Z</time>
<desc>lat.=56.067307, lon.=26.463947, Alt.=103.245178m. Speed=4.896000m/h.</desc>
<speed>1.360000</speed>
</trkpt>
<trkpt lat="56.067318" lon="26.463964">
<ele>103.188538</ele>
<time>2010-08-29T12:04:32Z</time>
<desc>lat.=56.067318, lon.=26.463964, Alt.=103.188538m. Speed=5.400000m/h.</desc>
<speed>1.500000</speed>
</trkpt>
<trkpt lat="56.067326" lon="26.463987">
<ele>103.174866</ele>
<time>2010-08-29T12:04:33Z</time>
<desc>lat.=56.067326, lon.=26.463987, Alt.=103.174866m. Speed=6.012000m/h.</desc>
<speed>1.670000</speed>
</trkpt>
<trkpt lat="56.067333" lon="26.464014">
<ele>103.032288</ele>
<time>2010-08-29T12:04:34Z</time>
<desc>lat.=56.067333, lon.=26.464014, Alt.=103.032288m. Speed=6.624000m/h.</desc>
<speed>1.840000</speed>
</trkpt>
<trkpt lat="56.067348" lon="26.464039">
<ele>103.295959</ele>
<time>2010-08-29T12:04:35Z</time>
<desc>lat.=56.067348, lon.=26.464039, Alt.=103.295959m. Speed=7.524000m/h.</desc>
<speed>2.090000</speed>
</trkpt>
<trkpt lat="56.067360" lon="26.464062">
<ele>103.749084</ele>
<time>2010-08-29T12:04:36Z</time>
<desc>lat.=56.067360, lon.=26.464062, Alt.=103.749084m. Speed=7.092000m/h.</desc>
<speed>1.970000</speed>
</trkpt>
<trkpt lat="56.067368" lon="26.464087">
<ele>104.686584</ele>
<time>2010-08-29T12:04:37Z</time>
<desc>lat.=56.067368, lon.=26.464087, Alt.=104.686584m. Speed=4.680000m/h.</desc>
<speed>1.300000</speed>
</trkpt>
<trkpt lat="56.067371" lon="26.464111">
<ele>105.190491</ele>
<time>2010-08-29T12:04:38Z</time>
<desc>lat.=56.067371, lon.=26.464111, Alt.=105.190491m. Speed=5.220000m/h.</desc>
<speed>1.450000</speed>
</trkpt>
<trkpt lat="56.067379" lon="26.464130">
<ele>105.741272</ele>
<time>2010-08-29T12:04:39Z</time>
<desc>lat.=56.067379, lon.=26.464130, Alt.=105.741272m. Speed=4.608000m/h.</desc>
<speed>1.280000</speed>
</trkpt>
<trkpt lat="56.067390" lon="26.464153">
<ele>105.770569</ele>
<time>2010-08-29T12:04:40Z</time>
<desc>lat.=56.067390, lon.=26.464153, Alt.=105.770569m. Speed=2.988000m/h.</desc>
<speed>0.830000</speed>
</trkpt>
<trkpt lat="56.067398" lon="26.464155">
<ele>105.559631</ele>
<time>2010-08-29T12:04:41Z</time>
<desc>lat.=56.067398, lon.=26.464155, Alt.=105.559631m. Speed=4.104000m/h.</desc>
<speed>1.140000</speed>
</trkpt>
<trkpt lat="56.067413" lon="26.464159">
<ele>105.696350</ele>
<time>2010-08-29T12:04:42Z</time>
<desc>lat.=56.067413, lon.=26.464159, Alt.=105.696350m. Speed=4.788000m/h.</desc>
<speed>1.330000</speed>
</trkpt>
<trkpt lat="56.067421" lon="26.464151">
<ele>105.915100</ele>
<time>2010-08-29T12:04:43Z</time>
<desc>lat.=56.067421, lon.=26.464151, Alt.=105.915100m. Speed=5.940000m/h.</desc>
<speed>1.650000</speed>
</trkpt>
<trkpt lat="56.067440" lon="26.464132">
<ele>106.180725</ele>
<time>2010-08-29T12:04:44Z</time>
<desc>lat.=56.067440, lon.=26.464132, Alt.=106.180725m. Speed=9.288000m/h.</desc>
<speed>2.580000</speed>
</trkpt>
<trkpt lat="56.067451" lon="26.464106">
<ele>106.471741</ele>
<time>2010-08-29T12:04:45Z</time>
<desc>lat.=56.067451, lon.=26.464106, Alt.=106.471741m. Speed=7.056000m/h.</desc>
<speed>1.960000</speed>
</trkpt>
<trkpt lat="56.067463" lon="26.464079">
<ele>106.504944</ele>
<time>2010-08-29T12:04:46Z</time>
<desc>lat.=56.067463, lon.=26.464079, Alt.=106.504944m. Speed=8.388000m/h.</desc>
<speed>2.330000</speed>
</trkpt>
<trkpt lat="56.067474" lon="26.464050">
<ele>106.844788</ele>
<time>2010-08-29T12:04:47Z</time>
<desc>lat.=56.067474, lon.=26.464050, Alt.=106.844788m. Speed=7.236000m/h.</desc>
<speed>2.010000</speed>
</trkpt>
<trkpt lat="56.067482" lon="26.464016">
<ele>107.186584</ele>
<time>2010-08-29T12:04:48Z</time>
<desc>lat.=56.067482, lon.=26.464016, Alt.=107.186584m. Speed=7.740000m/h.</desc>
<speed>2.150000</speed>
</trkpt>
<trkpt lat="56.067486" lon="26.463980">
<ele>107.143616</ele>
<time>2010-08-29T12:04:49Z</time>
<desc>lat.=56.067486, lon.=26.463980, Alt.=107.143616m. Speed=7.812000m/h.</desc>
<speed>2.170000</speed>
</trkpt>
<trkpt lat="56.067493" lon="26.463943">
<ele>107.735413</ele>
<time>2010-08-29T12:04:50Z</time>
<desc>lat.=56.067493, lon.=26.463943, Alt.=107.735413m. Speed=8.532000m/h.</desc>
<speed>2.370000</speed>
</trkpt>
<trkpt lat="56.067497" lon="26.463907">
<ele>108.077209</ele>
<time>2010-08-29T12:04:51Z</time>
<desc>lat.=56.067497, lon.=26.463907, Alt.=108.077209m. Speed=8.784000m/h.</desc>
<speed>2.440000</speed>
</trkpt>
<trkpt lat="56.067505" lon="26.463867">
<ele>108.430725</ele>
<time>2010-08-29T12:04:52Z</time>
<desc>lat.=56.067505, lon.=26.463867, Alt.=108.430725m. Speed=8.964000m/h.</desc>
<speed>2.490000</speed>
</trkpt>
<trkpt lat="56.067513" lon="26.463825">
<ele>108.372131</ele>
<time>2010-08-29T12:04:53Z</time>
<desc>lat.=56.067513, lon.=26.463825, Alt.=108.372131m. Speed=9.288000m/h.</desc>
<speed>2.580000</speed>
</trkpt>
<trkpt lat="56.067516" lon="26.463789">
<ele>106.838928</ele>
<time>2010-08-29T12:04:54Z</time>
<desc>lat.=56.067516, lon.=26.463789, Alt.=106.838928m. Speed=9.540000m/h.</desc>
<speed>2.650000</speed>
</trkpt>
<trkpt lat="56.067524" lon="26.463747">
<ele>107.083069</ele>
<time>2010-08-29T12:04:55Z</time>
<desc>lat.=56.067524, lon.=26.463747, Alt.=107.083069m. Speed=10.044000m/h.</desc>
<speed>2.790000</speed>
</trkpt>
<trkpt lat="56.067532" lon="26.463707">
<ele>107.079163</ele>
<time>2010-08-29T12:04:56Z</time>
<desc>lat.=56.067532, lon.=26.463707, Alt.=107.079163m. Speed=8.280000m/h.</desc>
<speed>2.300000</speed>
</trkpt>
<trkpt lat="56.067539" lon="26.463678">
<ele>107.467834</ele>
<time>2010-08-29T12:04:57Z</time>
<desc>lat.=56.067539, lon.=26.463678, Alt.=107.467834m. Speed=5.076000m/h.</desc>
<speed>1.410000</speed>
</trkpt>
<trkpt lat="56.067547" lon="26.463667">
<ele>106.956116</ele>
<time>2010-08-29T12:04:58Z</time>
<desc>lat.=56.067547, lon.=26.463667, Alt.=106.956116m. Speed=0.468000m/h.</desc>
<speed>0.130000</speed>
</trkpt>
<trkpt lat="56.067543" lon="26.463669">
<ele>106.995178</ele>
<time>2010-08-29T12:04:59Z</time>
<desc>lat.=56.067543, lon.=26.463669, Alt.=106.995178m. Speed=0.288000m/h.</desc>
<speed>0.080000</speed>
</trkpt>
<trkpt lat="56.067551" lon="26.463676">
<ele>107.657288</ele>
<time>2010-08-29T12:05:00Z</time>
<desc>lat.=56.067551, lon.=26.463676, Alt.=107.657288m. Speed=0.432000m/h.</desc>
<speed>0.120000</speed>
</trkpt>
<trkpt lat="56.067547" lon="26.463678">
<ele>107.838928</ele>
<time>2010-08-29T12:05:01Z</time>
<desc>lat.=56.067547, lon.=26.463678, Alt.=107.838928m. Speed=0.828000m/h.</desc>
<speed>0.230000</speed>
</trkpt>
<trkpt lat="56.067543" lon="26.463676">
<ele>107.922913</ele>
<time>2010-08-29T12:05:02Z</time>
<desc>lat.=56.067543, lon.=26.463676, Alt.=107.922913m. Speed=0.000000m/h.</desc>
<speed>0.000000</speed>
</trkpt>
<trkpt lat="56.067543" lon="26.463676">
<ele>107.975647</ele>
<time>2010-08-29T12:05:03Z</time>
<desc>lat.=56.067543, lon.=26.463676, Alt.=107.975647m. Speed=0.396000m/h.</desc>
<speed>0.110000</speed>
</trkpt>
<trkpt lat="56.067543" lon="26.463676">
<ele>108.006897</ele>
<time>2010-08-29T12:05:04Z</time>
<desc>lat.=56.067543, lon.=26.463676, Alt.=108.006897m. Speed=0.072000m/h.</desc>
<speed>0.020000</speed>
</trkpt>
<trkpt lat="56.067543" lon="26.463676">
<ele>108.098694</ele>
<time>2010-08-29T12:05:05Z</time>
<desc>lat.=56.067543, lon.=26.463676, Alt.=108.098694m. Speed=0.108000m/h.</desc>
<speed>0.030000</speed>
</trkpt>
<trkpt lat="56.067543" lon="26.463675">
<ele>108.159241</ele>
<time>2010-08-29T12:05:06Z</time>
<desc>lat.=56.067543, lon.=26.463675, Alt.=108.159241m. Speed=1.728000m/h.</desc>
<speed>0.480000</speed>
</trkpt>
<trkpt lat="56.067547" lon="26.463657">
<ele>107.377991</ele>
<time>2010-08-29T12:05:07Z</time>
<desc>lat.=56.067547, lon.=26.463657, Alt.=107.377991m. Speed=4.140000m/h.</desc>
<speed>1.150000</speed>
</trkpt>
<trkpt lat="56.067551" lon="26.463638">
<ele>107.188538</ele>
<time>2010-08-29T12:05:08Z</time>
<desc>lat.=56.067551, lon.=26.463638, Alt.=107.188538m. Speed=3.708000m/h.</desc>
<speed>1.030000</speed>
</trkpt>
<trkpt lat="56.067551" lon="26.463625">
<ele>107.174866</ele>
<time>2010-08-29T12:05:09Z</time>
<desc>lat.=56.067551, lon.=26.463625, Alt.=107.174866m. Speed=2.664000m/h.</desc>
<speed>0.740000</speed>
</trkpt>
<trkpt lat="56.067551" lon="26.463614">
<ele>107.532288</ele>
<time>2010-08-29T12:05:10Z</time>
<desc>lat.=56.067551, lon.=26.463614, Alt.=107.532288m. Speed=2.772000m/h.</desc>
<speed>0.770000</speed>
</trkpt>
<trkpt lat="56.067554" lon="26.463602">
<ele>107.506897</ele>
<time>2010-08-29T12:05:11Z</time>
<desc>lat.=56.067554, lon.=26.463602, Alt.=107.506897m. Speed=2.520000m/h.</desc>
<speed>0.700000</speed>
</trkpt>
<trkpt lat="56.067562" lon="26.463594">
<ele>107.725647</ele>
<time>2010-08-29T12:05:12Z</time>
<desc>lat.=56.067562, lon.=26.463594, Alt.=107.725647m. Speed=2.412000m/h.</desc>
<speed>0.670000</speed>
</trkpt>
<trkpt lat="56.067562" lon="26.463583">
<ele>107.948303</ele>
<time>2010-08-29T12:05:13Z</time>
<desc>lat.=56.067562, lon.=26.463583, Alt.=107.948303m. Speed=3.240000m/h.</desc>
<speed>0.900000</speed>
</trkpt>
<trkpt lat="56.067566" lon="26.463570">
<ele>108.315491</ele>
<time>2010-08-29T12:05:14Z</time>
<desc>lat.=56.067566, lon.=26.463570, Alt.=108.315491m. Speed=4.176000m/h.</desc>
<speed>1.160000</speed>
</trkpt>
<trkpt lat="56.067570" lon="26.463556">
<ele>108.735413</ele>
<time>2010-08-29T12:05:15Z</time>
<desc>lat.=56.067570, lon.=26.463556, Alt.=108.735413m. Speed=3.816000m/h.</desc>
<speed>1.060000</speed>
</trkpt>
<trkpt lat="56.067574" lon="26.463541">
<ele>108.952209</ele>
<time>2010-08-29T12:05:16Z</time>
<desc>lat.=56.067574, lon.=26.463541, Alt.=108.952209m. Speed=4.212000m/h.</desc>
<speed>1.170000</speed>
</trkpt>
<trkpt lat="56.067581" lon="26.463533">
<ele>108.729553</ele>
<time>2010-08-29T12:05:17Z</time>
<desc>lat.=56.067581, lon.=26.463533, Alt.=108.729553m. Speed=3.060000m/h.</desc>
<speed>0.850000</speed>
</trkpt>
<trkpt lat="56.067589" lon="26.463522">
<ele>108.704163</ele>
<time>2010-08-29T12:05:18Z</time>
<desc>lat.=56.067589, lon.=26.463522, Alt.=108.704163m. Speed=4.464000m/h.</desc>
<speed>1.240000</speed>
</trkpt>
<trkpt lat="56.067596" lon="26.463509">
<ele>108.831116</ele>
<time>2010-08-29T12:05:19Z</time>
<desc>lat.=56.067596, lon.=26.463509, Alt.=108.831116m. Speed=3.420000m/h.</desc>
<speed>0.950000</speed>
</trkpt>
<trkpt lat="56.067600" lon="26.463501">
<ele>108.760803</ele>
<time>2010-08-29T12:05:20Z</time>
<desc>lat.=56.067600, lon.=26.463501, Alt.=108.760803m. Speed=3.060000m/h.</desc>
<speed>0.850000</speed>
</trkpt>
<trkpt lat="56.067600" lon="26.463497">
<ele>108.895569</ele>
<time>2010-08-29T12:05:21Z</time>
<desc>lat.=56.067600, lon.=26.463497, Alt.=108.895569m. Speed=0.504000m/h.</desc>
<speed>0.140000</speed>
</trkpt>
<trkpt lat="56.067596" lon="26.463495">
<ele>108.944397</ele>
<time>2010-08-29T12:05:22Z</time>
<desc>lat.=56.067596, lon.=26.463495, Alt.=108.944397m. Speed=0.108000m/h.</desc>
<speed>0.030000</speed>
</trkpt>
<trkpt lat="56.067604" lon="26.463497">
<ele>108.946350</ele>
<time>2010-08-29T12:05:23Z</time>
<desc>lat.=56.067604, lon.=26.463497, Alt.=108.946350m. Speed=1.908000m/h.</desc>
<speed>0.530000</speed>
</trkpt>
<trkpt lat="56.067604" lon="26.463491">
<ele>109.022522</ele>
<time>2010-08-29T12:05:24Z</time>
<desc>lat.=56.067604, lon.=26.463491, Alt.=109.022522m. Speed=1.692000m/h.</desc>
<speed>0.470000</speed>
</trkpt>
<trkpt lat="56.067608" lon="26.463480">
<ele>109.557678</ele>
<time>2010-08-29T12:05:25Z</time>
<desc>lat.=56.067608, lon.=26.463480, Alt.=109.557678m. Speed=1.836000m/h.</desc>
<speed>0.510000</speed>
</trkpt>
<trkpt lat="56.067612" lon="26.463472">
<ele>109.614319</ele>
<time>2010-08-29T12:05:26Z</time>
<desc>lat.=56.067612, lon.=26.463472, Alt.=109.614319m. Speed=3.132000m/h.</desc>
<speed>0.870000</speed>
</trkpt>
<trkpt lat="56.067616" lon="26.463463">
<ele>109.327209</ele>
<time>2010-08-29T12:05:27Z</time>
<desc>lat.=56.067616, lon.=26.463463, Alt.=109.327209m. Speed=6.156000m/h.</desc>
<speed>1.710000</speed>
</trkpt>
<trkpt lat="56.067623" lon="26.463461">
<ele>109.538147</ele>
<time>2010-08-29T12:05:28Z</time>
<desc>lat.=56.067623, lon.=26.463461, Alt.=109.538147m. Speed=1.224000m/h.</desc>
<speed>0.340000</speed>
</trkpt>
<trkpt lat="56.067623" lon="26.463461">
<ele>110.069397</ele>
<time>2010-08-29T12:05:29Z</time>
<desc>lat.=56.067623, lon.=26.463461, Alt.=110.069397m. Speed=0.468000m/h.</desc>
<speed>0.130000</speed>
</trkpt>
<trkpt lat="56.067623" lon="26.463457">
<ele>110.217834</ele>
<time>2010-08-29T12:05:30Z</time>
<desc>lat.=56.067623, lon.=26.463457, Alt.=110.217834m. Speed=1.080000m/h.</desc>
<speed>0.300000</speed>
</trkpt>
<trkpt lat="56.067623" lon="26.463455">
<ele>110.438538</ele>
<time>2010-08-29T12:05:31Z</time>
<desc>lat.=56.067623, lon.=26.463455, Alt.=110.438538m. Speed=0.468000m/h.</desc>
<speed>0.130000</speed>
</trkpt>
<trkpt lat="56.067631" lon="26.463459">
<ele>110.454163</ele>
<time>2010-08-29T12:05:32Z</time>
<desc>lat.=56.067631, lon.=26.463459, Alt.=110.454163m. Speed=1.944000m/h.</desc>
<speed>0.540000</speed>
</trkpt>
<trkpt lat="56.067635" lon="26.463463">
<ele>110.626038</ele>
<time>2010-08-29T12:05:33Z</time>
<desc>lat.=56.067635, lon.=26.463463, Alt.=110.626038m. Speed=1.800000m/h.</desc>
<speed>0.500000</speed>
</trkpt>
<trkpt lat="56.067642" lon="26.463465">
<ele>110.838928</ele>
<time>2010-08-29T12:05:34Z</time>
<desc>lat.=56.067642, lon.=26.463465, Alt.=110.838928m. Speed=1.728000m/h.</desc>
<speed>0.480000</speed>
</trkpt>
<trkpt lat="56.067650" lon="26.463465">
<ele>111.067444</ele>
<time>2010-08-29T12:05:35Z</time>
<desc>lat.=56.067650, lon.=26.463465, Alt.=111.067444m. Speed=2.340000m/h.</desc>
<speed>0.650000</speed>
</trkpt>
<trkpt lat="56.067661" lon="26.463459">
<ele>111.268616</ele>
<time>2010-08-29T12:05:36Z</time>
<desc>lat.=56.067661, lon.=26.463459, Alt.=111.268616m. Speed=2.520000m/h.</desc>
<speed>0.700000</speed>
</trkpt>
<trkpt lat="56.067669" lon="26.463455">
<ele>111.506897</ele>
<time>2010-08-29T12:05:37Z</time>
<desc>lat.=56.067669, lon.=26.463455, Alt.=111.506897m. Speed=2.808000m/h.</desc>
<speed>0.780000</speed>
</trkpt>
<trkpt lat="56.067680" lon="26.463453">
<ele>111.727600</ele>
<time>2010-08-29T12:05:38Z</time>
<desc>lat.=56.067680, lon.=26.463453, Alt.=111.727600m. Speed=3.024000m/h.</desc>
<speed>0.840000</speed>
</trkpt>
<trkpt lat="56.067692" lon="26.463448">
<ele>111.969788</ele>
<time>2010-08-29T12:05:39Z</time>
<desc>lat.=56.067692, lon.=26.463448, Alt.=111.969788m. Speed=3.492000m/h.</desc>
<speed>0.970000</speed>
</trkpt>
<trkpt lat="56.067707" lon="26.463436">
<ele>112.182678</ele>
<time>2010-08-29T12:05:40Z</time>
<desc>lat.=56.067707, lon.=26.463436, Alt.=112.182678m. Speed=3.636000m/h.</desc>
<speed>1.010000</speed>
</trkpt>
<trkpt lat="56.067726" lon="26.463419">
<ele>112.096741</ele>
<time>2010-08-29T12:05:41Z</time>
<desc>lat.=56.067726, lon.=26.463419, Alt.=112.096741m. Speed=4.716000m/h.</desc>
<speed>1.310000</speed>
</trkpt>
<trkpt lat="56.067741" lon="26.463408">
<ele>112.196350</ele>
<time>2010-08-29T12:05:42Z</time>
<desc>lat.=56.067741, lon.=26.463408, Alt.=112.196350m. Speed=4.608000m/h.</desc>
<speed>1.280000</speed>
</trkpt>
<trkpt lat="56.067749" lon="26.463392">
<ele>112.299866</ele>
<time>2010-08-29T12:05:43Z</time>
<desc>lat.=56.067749, lon.=26.463392, Alt.=112.299866m. Speed=4.212000m/h.</desc>
<speed>1.170000</speed>
</trkpt>
<trkpt lat="56.067760" lon="26.463379">
<ele>112.442444</ele>
<time>2010-08-29T12:05:44Z</time>
<desc>lat.=56.067760, lon.=26.463379, Alt.=112.442444m. Speed=3.888000m/h.</desc>
<speed>1.080000</speed>
</trkpt>
<trkpt lat="56.067776" lon="26.463371">
<ele>112.549866</ele>
<time>2010-08-29T12:05:45Z</time>
<desc>lat.=56.067776, lon.=26.463371, Alt.=112.549866m. Speed=3.888000m/h.</desc>
<speed>1.080000</speed>
</trkpt>
<trkpt lat="56.067787" lon="26.463362">
<ele>112.770569</ele>
<time>2010-08-29T12:05:46Z</time>
<desc>lat.=56.067787, lon.=26.463362, Alt.=112.770569m. Speed=3.456000m/h.</desc>
<speed>0.960000</speed>
</trkpt>
<trkpt lat="56.067802" lon="26.463354">
<ele>113.073303</ele>
<time>2010-08-29T12:05:47Z</time>
<desc>lat.=56.067802, lon.=26.463354, Alt.=113.073303m. Speed=4.500000m/h.</desc>
<speed>1.250000</speed>
</trkpt>
<trkpt lat="56.067822" lon="26.463337">
<ele>113.098694</ele>
<time>2010-08-29T12:05:48Z</time>
<desc>lat.=56.067822, lon.=26.463337, Alt.=113.098694m. Speed=5.292000m/h.</desc>
<speed>1.470000</speed>
</trkpt>
<trkpt lat="56.067829" lon="26.463320">
<ele>113.102600</ele>
<time>2010-08-29T12:05:49Z</time>
<desc>lat.=56.067829, lon.=26.463320, Alt.=113.102600m. Speed=4.644000m/h.</desc>
<speed>1.290000</speed>
</trkpt>
<trkpt lat="56.067841" lon="26.463301">
<ele>113.147522</ele>
<time>2010-08-29T12:05:50Z</time>
<desc>lat.=56.067841, lon.=26.463301, Alt.=113.147522m. Speed=4.284000m/h.</desc>
<speed>1.190000</speed>
</trkpt>
<trkpt lat="56.067848" lon="26.463278">
<ele>113.077209</ele>
<time>2010-08-29T12:05:51Z</time>
<desc>lat.=56.067848, lon.=26.463278, Alt.=113.077209m. Speed=5.364000m/h.</desc>
<speed>1.490000</speed>
</trkpt>
<trkpt lat="56.067863" lon="26.463266">
<ele>113.172913</ele>
<time>2010-08-29T12:05:52Z</time>
<desc>lat.=56.067863, lon.=26.463266, Alt.=113.172913m. Speed=4.176000m/h.</desc>
<speed>1.160000</speed>
</trkpt>
<trkpt lat="56.067871" lon="26.463245">
<ele>113.460022</ele>
<time>2010-08-29T12:05:53Z</time>
<desc>lat.=56.067871, lon.=26.463245, Alt.=113.460022m. Speed=4.284000m/h.</desc>
<speed>1.190000</speed>
</trkpt>
<trkpt lat="56.067879" lon="26.463221">
<ele>113.768616</ele>
<time>2010-08-29T12:05:54Z</time>
<desc>lat.=56.067879, lon.=26.463221, Alt.=113.768616m. Speed=4.104000m/h.</desc>
<speed>1.140000</speed>
</trkpt>
<trkpt lat="56.067917" lon="26.463221">
<ele>114.413147</ele>
<time>2010-08-29T12:05:55Z</time>
<desc>lat.=56.067917, lon.=26.463221, Alt.=114.413147m. Speed=2.448000m/h.</desc>
<speed>0.680000</speed>
</trkpt>
<trkpt lat="56.067909" lon="26.463223">
<ele>114.532288</ele>
<time>2010-08-29T12:05:56Z</time>
<desc>lat.=56.067909, lon.=26.463223, Alt.=114.532288m. Speed=2.088000m/h.</desc>
<speed>0.580000</speed>
</trkpt>
<trkpt lat="56.067913" lon="26.463219">
<ele>114.622131</ele>
<time>2010-08-29T12:05:57Z</time>
<desc>lat.=56.067913, lon.=26.463219, Alt.=114.622131m. Speed=1.476000m/h.</desc>
<speed>0.410000</speed>
</trkpt>
<trkpt lat="56.067917" lon="26.463213">
<ele>114.751038</ele>
<time>2010-08-29T12:05:58Z</time>
<desc>lat.=56.067917, lon.=26.463213, Alt.=114.751038m. Speed=1.188000m/h.</desc>
<speed>0.330000</speed>
</trkpt>
<trkpt lat="56.067917" lon="26.463205">
<ele>114.868225</ele>
<time>2010-08-29T12:05:59Z</time>
<desc>lat.=56.067917, lon.=26.463205, Alt.=114.868225m. Speed=1.044000m/h.</desc>
<speed>0.290000</speed>
</trkpt>
<trkpt lat="56.067928" lon="26.463198">
<ele>114.590881</ele>
<time>2010-08-29T12:06:00Z</time>
<desc>lat.=56.067928, lon.=26.463198, Alt.=114.590881m. Speed=1.692000m/h.</desc>
<speed>0.470000</speed>
</trkpt>
<trkpt lat="56.067940" lon="26.463184">
<ele>114.725647</ele>
<time>2010-08-29T12:06:01Z</time>
<desc>lat.=56.067940, lon.=26.463184, Alt.=114.725647m. Speed=2.088000m/h.</desc>
<speed>0.580000</speed>
</trkpt>
<trkpt lat="56.067959" lon="26.463158">
<ele>114.973694</ele>
<time>2010-08-29T12:06:02Z</time>
<desc>lat.=56.067959, lon.=26.463158, Alt.=114.973694m. Speed=3.168000m/h.</desc>
<speed>0.880000</speed>
</trkpt>
<trkpt lat="56.067970" lon="26.463144">
<ele>115.034241</ele>
<time>2010-08-29T12:06:03Z</time>
<desc>lat.=56.067970, lon.=26.463144, Alt.=115.034241m. Speed=3.060000m/h.</desc>
<speed>0.850000</speed>
</trkpt>
<trkpt lat="56.067989" lon="26.463150">
<ele>114.876038</ele>
<time>2010-08-29T12:06:04Z</time>
<desc>lat.=56.067989, lon.=26.463150, Alt.=114.876038m. Speed=3.384000m/h.</desc>
<speed>0.940000</speed>
</trkpt>
<trkpt lat="56.067997" lon="26.463142">
<ele>114.899475</ele>
<time>2010-08-29T12:06:05Z</time>
<desc>lat.=56.067997, lon.=26.463142, Alt.=114.899475m. Speed=2.448000m/h.</desc>
<speed>0.680000</speed>
</trkpt>
<trkpt lat="56.068005" lon="26.463137">
<ele>114.905334</ele>
<time>2010-08-29T12:06:06Z</time>
<desc>lat.=56.068005, lon.=26.463137, Alt.=114.905334m. Speed=1.980000m/h.</desc>
<speed>0.550000</speed>
</trkpt>
<trkpt lat="56.068008" lon="26.463135">
<ele>114.950256</ele>
<time>2010-08-29T12:06:07Z</time>
<desc>lat.=56.068008, lon.=26.463135, Alt.=114.950256m. Speed=1.440000m/h.</desc>
<speed>0.400000</speed>
</trkpt>
<trkpt lat="56.068005" lon="26.463135">
<ele>115.151428</ele>
<time>2010-08-29T12:06:08Z</time>
<desc>lat.=56.068005, lon.=26.463135, Alt.=115.151428m. Speed=0.972000m/h.</desc>
<speed>0.270000</speed>
</trkpt>
<trkpt lat="56.068005" lon="26.463114">
<ele>115.233459</ele>
<time>2010-08-29T12:06:09Z</time>
<desc>lat.=56.068005, lon.=26.463114, Alt.=115.233459m. Speed=2.484000m/h.</desc>
<speed>0.690000</speed>
</trkpt>
<trkpt lat="56.068005" lon="26.463097">
<ele>115.344788</ele>
<time>2010-08-29T12:06:10Z</time>
<desc>lat.=56.068005, lon.=26.463097, Alt.=115.344788m. Speed=3.456000m/h.</desc>
<speed>0.960000</speed>
</trkpt>
<trkpt lat="56.068012" lon="26.463085">
<ele>115.489319</ele>
<time>2010-08-29T12:06:11Z</time>
<desc>lat.=56.068012, lon.=26.463085, Alt.=115.489319m. Speed=4.536000m/h.</desc>
<speed>1.260000</speed>
</trkpt>
<trkpt lat="56.068020" lon="26.463062">
<ele>115.645569</ele>
<time>2010-08-29T12:06:12Z</time>
<desc>lat.=56.068020, lon.=26.463062, Alt.=115.645569m. Speed=5.004000m/h.</desc>
<speed>1.390000</speed>
</trkpt>
<trkpt lat="56.068024" lon="26.463036">
<ele>115.706116</ele>
<time>2010-08-29T12:06:13Z</time>
<desc>lat.=56.068024, lon.=26.463036, Alt.=115.706116m. Speed=4.968000m/h.</desc>
<speed>1.380000</speed>
</trkpt>
<trkpt lat="56.068027" lon="26.463015">
<ele>115.690491</ele>
<time>2010-08-29T12:06:14Z</time>
<desc>lat.=56.068027, lon.=26.463015, Alt.=115.690491m. Speed=3.528000m/h.</desc>
<speed>0.980000</speed>
</trkpt>
<trkpt lat="56.068035" lon="26.462996">
<ele>115.583069</ele>
<time>2010-08-29T12:06:15Z</time>
<desc>lat.=56.068035, lon.=26.462996, Alt.=115.583069m. Speed=5.076000m/h.</desc>
<speed>1.410000</speed>
</trkpt>
<trkpt lat="56.068043" lon="26.462973">
<ele>115.460022</ele>
<time>2010-08-29T12:06:16Z</time>
<desc>lat.=56.068043, lon.=26.462973, Alt.=115.460022m. Speed=2.268000m/h.</desc>
<speed>0.630000</speed>
</trkpt>
<trkpt lat="56.068047" lon="26.462965">
<ele>115.266663</ele>
<time>2010-08-29T12:06:17Z</time>
<desc>lat.=56.068047, lon.=26.462965, Alt.=115.266663m. Speed=2.448000m/h.</desc>
<speed>0.680000</speed>
</trkpt>
<trkpt lat="56.068058" lon="26.462952">
<ele>115.044006</ele>
<time>2010-08-29T12:06:18Z</time>
<desc>lat.=56.068058, lon.=26.462952, Alt.=115.044006m. Speed=1.908000m/h.</desc>
<speed>0.530000</speed>
</trkpt>
<trkpt lat="56.068062" lon="26.462950">
<ele>114.895569</ele>
<time>2010-08-29T12:06:19Z</time>
<desc>lat.=56.068062, lon.=26.462950, Alt.=114.895569m. Speed=1.080000m/h.</desc>
<speed>0.300000</speed>
</trkpt>
<trkpt lat="56.068069" lon="26.462950">
<ele>114.620178</ele>
<time>2010-08-29T12:06:20Z</time>
<desc>lat.=56.068069, lon.=26.462950, Alt.=114.620178m. Speed=1.404000m/h.</desc>
<speed>0.390000</speed>
</trkpt>
<trkpt lat="56.068081" lon="26.462954">
<ele>114.426819</ele>
<time>2010-08-29T12:06:21Z</time>
<desc>lat.=56.068081, lon.=26.462954, Alt.=114.426819m. Speed=2.160000m/h.</desc>
<speed>0.600000</speed>
</trkpt>
<trkpt lat="56.068092" lon="26.462959">
<ele>114.194397</ele>
<time>2010-08-29T12:06:22Z</time>
<desc>lat.=56.068092, lon.=26.462959, Alt.=114.194397m. Speed=2.592000m/h.</desc>
<speed>0.720000</speed>
</trkpt>
<trkpt lat="56.068085" lon="26.462946">
<ele>114.106506</ele>
<time>2010-08-29T12:06:23Z</time>
<desc>lat.=56.068085, lon.=26.462946, Alt.=114.106506m. Speed=1.584000m/h.</desc>
<speed>0.440000</speed>
</trkpt>
<trkpt lat="56.068089" lon="26.462944">
<ele>113.926819</ele>
<time>2010-08-29T12:06:24Z</time>
<desc>lat.=56.068089, lon.=26.462944, Alt.=113.926819m. Speed=1.332000m/h.</desc>
<speed>0.370000</speed>
</trkpt>
<trkpt lat="56.068096" lon="26.462946">
<ele>113.842834</ele>
<time>2010-08-29T12:06:25Z</time>
<desc>lat.=56.068096, lon.=26.462946, Alt.=113.842834m. Speed=1.692000m/h.</desc>
<speed>0.470000</speed>
</trkpt>
<trkpt lat="56.068104" lon="26.462957">
<ele>113.563538</ele>
<time>2010-08-29T12:06:26Z</time>
<desc>lat.=56.068104, lon.=26.462957, Alt.=113.563538m. Speed=2.052000m/h.</desc>
<speed>0.570000</speed>
</trkpt>
<trkpt lat="56.068119" lon="26.462963">
<ele>113.188538</ele>
<time>2010-08-29T12:06:27Z</time>
<desc>lat.=56.068119, lon.=26.462963, Alt.=113.188538m. Speed=2.448000m/h.</desc>
<speed>0.680000</speed>
</trkpt>
<trkpt lat="56.068161" lon="26.462969">
<ele>113.372131</ele>
<time>2010-08-29T12:06:28Z</time>
<desc>lat.=56.068161, lon.=26.462969, Alt.=113.372131m. Speed=4.608000m/h.</desc>
<speed>1.280000</speed>
</trkpt>
<trkpt lat="56.068169" lon="26.462975">
<ele>113.137756</ele>
<time>2010-08-29T12:06:29Z</time>
<desc>lat.=56.068169, lon.=26.462975, Alt.=113.137756m. Speed=4.752000m/h.</desc>
<speed>1.320000</speed>
</trkpt>
<trkpt lat="56.068180" lon="26.462980">
<ele>112.877991</ele>
<time>2010-08-29T12:06:30Z</time>
<desc>lat.=56.068180, lon.=26.462980, Alt.=112.877991m. Speed=4.968000m/h.</desc>
<speed>1.380000</speed>
</trkpt>
<trkpt lat="56.068195" lon="26.462992">
<ele>112.672913</ele>
<time>2010-08-29T12:06:31Z</time>
<desc>lat.=56.068195, lon.=26.462992, Alt.=112.672913m. Speed=5.904000m/h.</desc>
<speed>1.640000</speed>
</trkpt>
<trkpt lat="56.068207" lon="26.463009">
<ele>112.450256</ele>
<time>2010-08-29T12:06:32Z</time>
<desc>lat.=56.068207, lon.=26.463009, Alt.=112.450256m. Speed=5.112000m/h.</desc>
<speed>1.420000</speed>
</trkpt>
<trkpt lat="56.068214" lon="26.463037">
<ele>112.374084</ele>
<time>2010-08-29T12:06:33Z</time>
<desc>lat.=56.068214, lon.=26.463037, Alt.=112.374084m. Speed=4.680000m/h.</desc>
<speed>1.300000</speed>
</trkpt>
<trkpt lat="56.068214" lon="26.463057">
<ele>111.946350</ele>
<time>2010-08-29T12:06:34Z</time>
<desc>lat.=56.068214, lon.=26.463057, Alt.=111.946350m. Speed=1.116000m/h.</desc>
<speed>0.310000</speed>
</trkpt>
<trkpt lat="56.068218" lon="26.463058">
<ele>110.963928</ele>
<time>2010-08-29T12:06:35Z</time>
<desc>lat.=56.068218, lon.=26.463058, Alt.=110.963928m. Speed=0.900000m/h.</desc>
<speed>0.250000</speed>
</trkpt>
<trkpt lat="56.068218" lon="26.463064">
<ele>111.581116</ele>
<time>2010-08-29T12:06:36Z</time>
<desc>lat.=56.068218, lon.=26.463064, Alt.=111.581116m. Speed=0.828000m/h.</desc>
<speed>0.230000</speed>
</trkpt>
<trkpt lat="56.068218" lon="26.463070">
<ele>111.954163</ele>
<time>2010-08-29T12:06:37Z</time>
<desc>lat.=56.068218, lon.=26.463070, Alt.=111.954163m. Speed=0.900000m/h.</desc>
<speed>0.250000</speed>
</trkpt>
<trkpt lat="56.068226" lon="26.463079">
<ele>112.001038</ele>
<time>2010-08-29T12:06:38Z</time>
<desc>lat.=56.068226, lon.=26.463079, Alt.=112.001038m. Speed=1.116000m/h.</desc>
<speed>0.310000</speed>
</trkpt>
<trkpt lat="56.068222" lon="26.463064">
<ele>111.852600</ele>
<time>2010-08-29T12:06:39Z</time>
<desc>lat.=56.068222, lon.=26.463064, Alt.=111.852600m. Speed=1.908000m/h.</desc>
<speed>0.530000</speed>
</trkpt>
<trkpt lat="56.068214" lon="26.463039">
<ele>112.237366</ele>
<time>2010-08-29T12:06:40Z</time>
<desc>lat.=56.068214, lon.=26.463039, Alt.=112.237366m. Speed=2.232000m/h.</desc>
<speed>0.620000</speed>
</trkpt>
<trkpt lat="56.068211" lon="26.463024">
<ele>111.801819</ele>
<time>2010-08-29T12:06:41Z</time>
<desc>lat.=56.068211, lon.=26.463024, Alt.=111.801819m. Speed=2.088000m/h.</desc>
<speed>0.580000</speed>
</trkpt>
<trkpt lat="56.068214" lon="26.463001">
<ele>110.794006</ele>
<time>2010-08-29T12:06:42Z</time>
<desc>lat.=56.068214, lon.=26.463001, Alt.=110.794006m. Speed=2.520000m/h.</desc>
<speed>0.700000</speed>
</trkpt>
<trkpt lat="56.068207" lon="26.462994">
<ele>110.419006</ele>
<time>2010-08-29T12:06:43Z</time>
<desc>lat.=56.068207, lon.=26.462994, Alt.=110.419006m. Speed=3.636000m/h.</desc>
<speed>1.010000</speed>
</trkpt>
<trkpt lat="56.068207" lon="26.462982">
<ele>109.665100</ele>
<time>2010-08-29T12:06:44Z</time>
<desc>lat.=56.068207, lon.=26.462982, Alt.=109.665100m. Speed=3.492000m/h.</desc>
<speed>0.970000</speed>
</trkpt>
<trkpt lat="56.068214" lon="26.462980">
<ele>108.667053</ele>
<time>2010-08-29T12:06:45Z</time>
<desc>lat.=56.068214, lon.=26.462980, Alt.=108.667053m. Speed=3.492000m/h.</desc>
<speed>0.970000</speed>
</trkpt>
<trkpt lat="56.068211" lon="26.462978">
<ele>108.270569</ele>
<time>2010-08-29T12:06:46Z</time>
<desc>lat.=56.068211, lon.=26.462978, Alt.=108.270569m. Speed=2.988000m/h.</desc>
<speed>0.830000</speed>
</trkpt>
<trkpt lat="56.068203" lon="26.462971">
<ele>108.100647</ele>
<time>2010-08-29T12:06:47Z</time>
<desc>lat.=56.068203, lon.=26.462971, Alt.=108.100647m. Speed=2.736000m/h.</desc>
<speed>0.760000</speed>
</trkpt>
<trkpt lat="56.068195" lon="26.462948">
<ele>107.792053</ele>
<time>2010-08-29T12:06:48Z</time>
<desc>lat.=56.068195, lon.=26.462948, Alt.=107.792053m. Speed=2.556000m/h.</desc>
<speed>0.710000</speed>
</trkpt>
<trkpt lat="56.068192" lon="26.462944">
<ele>107.610413</ele>
<time>2010-08-29T12:06:49Z</time>
<desc>lat.=56.068192, lon.=26.462944, Alt.=107.610413m. Speed=2.268000m/h.</desc>
<speed>0.630000</speed>
</trkpt>
<trkpt lat="56.068188" lon="26.462940">
<ele>107.565491</ele>
<time>2010-08-29T12:06:50Z</time>
<desc>lat.=56.068188, lon.=26.462940, Alt.=107.565491m. Speed=2.124000m/h.</desc>
<speed>0.590000</speed>
</trkpt>
<trkpt lat="56.068184" lon="26.462934">
<ele>107.301819</ele>
<time>2010-08-29T12:06:51Z</time>
<desc>lat.=56.068184, lon.=26.462934, Alt.=107.301819m. Speed=1.980000m/h.</desc>
<speed>0.550000</speed>
</trkpt>
<trkpt lat="56.068176" lon="26.462929">
<ele>107.100647</ele>
<time>2010-08-29T12:06:52Z</time>
<desc>lat.=56.068176, lon.=26.462929, Alt.=107.100647m. Speed=2.052000m/h.</desc>
<speed>0.570000</speed>
</trkpt>
<trkpt lat="56.068169" lon="26.462914">
<ele>106.786194</ele>
<time>2010-08-29T12:06:53Z</time>
<desc>lat.=56.068169, lon.=26.462914, Alt.=106.786194m. Speed=2.556000m/h.</desc>
<speed>0.710000</speed>
</trkpt>
<trkpt lat="56.068165" lon="26.462904">
<ele>106.926819</ele>
<time>2010-08-29T12:06:54Z</time>
<desc>lat.=56.068165, lon.=26.462904, Alt.=106.926819m. Speed=2.844000m/h.</desc>
<speed>0.790000</speed>
</trkpt>
<trkpt lat="56.068172" lon="26.462893">
<ele>107.161194</ele>
<time>2010-08-29T12:06:55Z</time>
<desc>lat.=56.068172, lon.=26.462893, Alt.=107.161194m. Speed=2.232000m/h.</desc>
<speed>0.620000</speed>
</trkpt>
<trkpt lat="56.068180" lon="26.462879">
<ele>107.055725</ele>
<time>2010-08-29T12:06:56Z</time>
<desc>lat.=56.068180, lon.=26.462879, Alt.=107.055725m. Speed=3.636000m/h.</desc>
<speed>1.010000</speed>
</trkpt>
<trkpt lat="56.068180" lon="26.462864">
<ele>106.967834</ele>
<time>2010-08-29T12:06:57Z</time>
<desc>lat.=56.068180, lon.=26.462864, Alt.=106.967834m. Speed=3.060000m/h.</desc>
<speed>0.850000</speed>
</trkpt>
<trkpt lat="56.068165" lon="26.462828">
<ele>107.502991</ele>
<time>2010-08-29T12:06:58Z</time>
<desc>lat.=56.068165, lon.=26.462828, Alt.=107.502991m. Speed=4.392000m/h.</desc>
<speed>1.220000</speed>
</trkpt>
<trkpt lat="56.068157" lon="26.462814">
<ele>107.637756</ele>
<time>2010-08-29T12:06:59Z</time>
<desc>lat.=56.068157, lon.=26.462814, Alt.=107.637756m. Speed=4.392000m/h.</desc>
<speed>1.220000</speed>
</trkpt>
<trkpt lat="56.068150" lon="26.462790">
<ele>107.993225</ele>
<time>2010-08-29T12:07:00Z</time>
<desc>lat.=56.068150, lon.=26.462790, Alt.=107.993225m. Speed=4.104000m/h.</desc>
<speed>1.140000</speed>
</trkpt>
<trkpt lat="56.068161" lon="26.462774">
<ele>107.397522</ele>
<time>2010-08-29T12:07:01Z</time>
<desc>lat.=56.068161, lon.=26.462774, Alt.=107.397522m. Speed=3.960000m/h.</desc>
<speed>1.100000</speed>
</trkpt>
<trkpt lat="56.068169" lon="26.462759">
<ele>106.946350</ele>
<time>2010-08-29T12:07:02Z</time>
<desc>lat.=56.068169, lon.=26.462759, Alt.=106.946350m. Speed=3.456000m/h.</desc>
<speed>0.960000</speed>
</trkpt>
<trkpt lat="56.068176" lon="26.462748">
<ele>107.254944</ele>
<time>2010-08-29T12:07:03Z</time>
<desc>lat.=56.068176, lon.=26.462748, Alt.=107.254944m. Speed=3.132000m/h.</desc>
<speed>0.870000</speed>
</trkpt>
<trkpt lat="56.068180" lon="26.462738">
<ele>107.059631</ele>
<time>2010-08-29T12:07:04Z</time>
<desc>lat.=56.068180, lon.=26.462738, Alt.=107.059631m. Speed=2.340000m/h.</desc>
<speed>0.650000</speed>
</trkpt>
<trkpt lat="56.068180" lon="26.462734">
<ele>106.874084</ele>
<time>2010-08-29T12:07:05Z</time>
<desc>lat.=56.068180, lon.=26.462734, Alt.=106.874084m. Speed=1.260000m/h.</desc>
<speed>0.350000</speed>
</trkpt>
<trkpt lat="56.068184" lon="26.462729">
<ele>106.329163</ele>
<time>2010-08-29T12:07:06Z</time>
<desc>lat.=56.068184, lon.=26.462729, Alt.=106.329163m. Speed=0.360000m/h.</desc>
<speed>0.100000</speed>
</trkpt>
<trkpt lat="56.068184" lon="26.462729">
<ele>106.502991</ele>
<time>2010-08-29T12:07:07Z</time>
<desc>lat.=56.068184, lon.=26.462729, Alt.=106.502991m. Speed=0.540000m/h.</desc>
<speed>0.150000</speed>
</trkpt>
<trkpt lat="56.068188" lon="26.462730">
<ele>106.729553</ele>
<time>2010-08-29T12:07:08Z</time>
<desc>lat.=56.068188, lon.=26.462730, Alt.=106.729553m. Speed=0.720000m/h.</desc>
<speed>0.200000</speed>
</trkpt>
<trkpt lat="56.068184" lon="26.462730">
<ele>106.987366</ele>
<time>2010-08-29T12:07:09Z</time>
<desc>lat.=56.068184, lon.=26.462730, Alt.=106.987366m. Speed=0.360000m/h.</desc>
<speed>0.100000</speed>
</trkpt>
<trkpt lat="56.068184" lon="26.462730">
<ele>106.934631</ele>
<time>2010-08-29T12:07:10Z</time>
<desc>lat.=56.068184, lon.=26.462730, Alt.=106.934631m. Speed=0.828000m/h.</desc>
<speed>0.230000</speed>
</trkpt>
<trkpt lat="56.068188" lon="26.462727">
<ele>106.885803</ele>
<time>2010-08-29T12:07:11Z</time>
<desc>lat.=56.068188, lon.=26.462727, Alt.=106.885803m. Speed=2.196000m/h.</desc>
<speed>0.610000</speed>
</trkpt>
<trkpt lat="56.068192" lon="26.462717">
<ele>106.877991</ele>
<time>2010-08-29T12:07:12Z</time>
<desc>lat.=56.068192, lon.=26.462717, Alt.=106.877991m. Speed=2.844000m/h.</desc>
<speed>0.790000</speed>
</trkpt>
<trkpt lat="56.068199" lon="26.462700">
<ele>107.083069</ele>
<time>2010-08-29T12:07:13Z</time>
<desc>lat.=56.068199, lon.=26.462700, Alt.=107.083069m. Speed=3.600000m/h.</desc>
<speed>1.000000</speed>
</trkpt>
<trkpt lat="56.068207" lon="26.462681">
<ele>107.127991</ele>
<time>2010-08-29T12:07:14Z</time>
<desc>lat.=56.068207, lon.=26.462681, Alt.=107.127991m. Speed=4.140000m/h.</desc>
<speed>1.150000</speed>
</trkpt>
<trkpt lat="56.068214" lon="26.462666">
<ele>107.145569</ele>
<time>2010-08-29T12:07:15Z</time>
<desc>lat.=56.068214, lon.=26.462666, Alt.=107.145569m. Speed=4.176000m/h.</desc>
<speed>1.160000</speed>
</trkpt>
<trkpt lat="56.068218" lon="26.462648">
<ele>107.206116</ele>
<time>2010-08-29T12:07:16Z</time>
<desc>lat.=56.068218, lon.=26.462648, Alt.=107.206116m. Speed=4.464000m/h.</desc>
<speed>1.240000</speed>
</trkpt>
<trkpt lat="56.068222" lon="26.462622">
<ele>107.151428</ele>
<time>2010-08-29T12:07:17Z</time>
<desc>lat.=56.068222, lon.=26.462622, Alt.=107.151428m. Speed=5.760000m/h.</desc>
<speed>1.600000</speed>
</trkpt>
<trkpt lat="56.068233" lon="26.462595">
<ele>106.940491</ele>
<time>2010-08-29T12:07:18Z</time>
<desc>lat.=56.068233, lon.=26.462595, Alt.=106.940491m. Speed=7.056000m/h.</desc>
<speed>1.960000</speed>
</trkpt>
<trkpt lat="56.068237" lon="26.462570">
<ele>106.754944</ele>
<time>2010-08-29T12:07:19Z</time>
<desc>lat.=56.068237, lon.=26.462570, Alt.=106.754944m. Speed=4.968000m/h.</desc>
<speed>1.380000</speed>
</trkpt>
<trkpt lat="56.068241" lon="26.462555">
<ele>106.690491</ele>
<time>2010-08-29T12:07:20Z</time>
<desc>lat.=56.068241, lon.=26.462555, Alt.=106.690491m. Speed=3.348000m/h.</desc>
<speed>0.930000</speed>
</trkpt>
<trkpt lat="56.068249" lon="26.462543">
<ele>106.627991</ele>
<time>2010-08-29T12:07:21Z</time>
<desc>lat.=56.068249, lon.=26.462543, Alt.=106.627991m. Speed=3.420000m/h.</desc>
<speed>0.950000</speed>
</trkpt>
<trkpt lat="56.068260" lon="26.462536">
<ele>106.379944</ele>
<time>2010-08-29T12:07:22Z</time>
<desc>lat.=56.068260, lon.=26.462536, Alt.=106.379944m. Speed=2.916000m/h.</desc>
<speed>0.810000</speed>
</trkpt>
<trkpt lat="56.068275" lon="26.462534">
<ele>106.530334</ele>
<time>2010-08-29T12:07:23Z</time>
<desc>lat.=56.068275, lon.=26.462534, Alt.=106.530334m. Speed=5.004000m/h.</desc>
<speed>1.390000</speed>
</trkpt>
<trkpt lat="56.068291" lon="26.462538">
<ele>106.352600</ele>
<time>2010-08-29T12:07:24Z</time>
<desc>lat.=56.068291, lon.=26.462538, Alt.=106.352600m. Speed=2.916000m/h.</desc>
<speed>0.810000</speed>
</trkpt>
<trkpt lat="56.068298" lon="26.462547">
<ele>106.061584</ele>
<time>2010-08-29T12:07:25Z</time>
<desc>lat.=56.068298, lon.=26.462547, Alt.=106.061584m. Speed=2.808000m/h.</desc>
<speed>0.780000</speed>
</trkpt>
<trkpt lat="56.068310" lon="26.462553">
<ele>105.663147</ele>
<time>2010-08-29T12:07:26Z</time>
<desc>lat.=56.068310, lon.=26.462553, Alt.=105.663147m. Speed=2.016000m/h.</desc>
<speed>0.560000</speed>
</trkpt>
<trkpt lat="56.068317" lon="26.462563">
<ele>105.346741</ele>
<time>2010-08-29T12:07:27Z</time>
<desc>lat.=56.068317, lon.=26.462563, Alt.=105.346741m. Speed=2.448000m/h.</desc>
<speed>0.680000</speed>
</trkpt>
<trkpt lat="56.068325" lon="26.462557">
<ele>105.311584</ele>
<time>2010-08-29T12:07:28Z</time>
<desc>lat.=56.068325, lon.=26.462557, Alt.=105.311584m. Speed=2.160000m/h.</desc>
<speed>0.600000</speed>
</trkpt>
<trkpt lat="56.068336" lon="26.462559">
<ele>105.079163</ele>
<time>2010-08-29T12:07:29Z</time>
<desc>lat.=56.068336, lon.=26.462559, Alt.=105.079163m. Speed=2.592000m/h.</desc>
<speed>0.720000</speed>
</trkpt>
<trkpt lat="56.068352" lon="26.462564">
<ele>104.979553</ele>
<time>2010-08-29T12:07:30Z</time>
<desc>lat.=56.068352, lon.=26.462564, Alt.=104.979553m. Speed=1.872000m/h.</desc>
<speed>0.520000</speed>
</trkpt>
<trkpt lat="56.068348" lon="26.462545">
<ele>104.934631</ele>
<time>2010-08-29T12:07:31Z</time>
<desc>lat.=56.068348, lon.=26.462545, Alt.=104.934631m. Speed=0.396000m/h.</desc>
<speed>0.110000</speed>
</trkpt>
<trkpt lat="56.068340" lon="26.462547">
<ele>105.174866</ele>
<time>2010-08-29T12:07:32Z</time>
<desc>lat.=56.068340, lon.=26.462547, Alt.=105.174866m. Speed=0.756000m/h.</desc>
<speed>0.210000</speed>
</trkpt>
<trkpt lat="56.068344" lon="26.462551">
<ele>104.913147</ele>
<time>2010-08-29T12:07:33Z</time>
<desc>lat.=56.068344, lon.=26.462551, Alt.=104.913147m. Speed=1.224000m/h.</desc>
<speed>0.340000</speed>
</trkpt>
<trkpt lat="56.068348" lon="26.462549">
<ele>104.758850</ele>
<time>2010-08-29T12:07:34Z</time>
<desc>lat.=56.068348, lon.=26.462549, Alt.=104.758850m. Speed=0.828000m/h.</desc>
<speed>0.230000</speed>
</trkpt>
<trkpt lat="56.068348" lon="26.462549">
<ele>105.317444</ele>
<time>2010-08-29T12:07:35Z</time>
<desc>lat.=56.068348, lon.=26.462549, Alt.=105.317444m. Speed=0.936000m/h.</desc>
<speed>0.260000</speed>
</trkpt>
<trkpt lat="56.068356" lon="26.462553">
<ele>105.555725</ele>
<time>2010-08-29T12:07:36Z</time>
<desc>lat.=56.068356, lon.=26.462553, Alt.=105.555725m. Speed=1.764000m/h.</desc>
<speed>0.490000</speed>
</trkpt>
<trkpt lat="56.068359" lon="26.462564">
<ele>105.749084</ele>
<time>2010-08-29T12:07:37Z</time>
<desc>lat.=56.068359, lon.=26.462564, Alt.=105.749084m. Speed=2.376000m/h.</desc>
<speed>0.660000</speed>
</trkpt>
<trkpt lat="56.068363" lon="26.462566">
<ele>105.678772</ele>
<time>2010-08-29T12:07:38Z</time>
<desc>lat.=56.068363, lon.=26.462566, Alt.=105.678772m. Speed=3.528000m/h.</desc>
<speed>0.980000</speed>
</trkpt>
<trkpt lat="56.068367" lon="26.462576">
<ele>105.645569</ele>
<time>2010-08-29T12:07:39Z</time>
<desc>lat.=56.068367, lon.=26.462576, Alt.=105.645569m. Speed=3.348000m/h.</desc>
<speed>0.930000</speed>
</trkpt>
<trkpt lat="56.068367" lon="26.462589">
<ele>105.948303</ele>
<time>2010-08-29T12:07:40Z</time>
<desc>lat.=56.068367, lon.=26.462589, Alt.=105.948303m. Speed=2.628000m/h.</desc>
<speed>0.730000</speed>
</trkpt>
<trkpt lat="56.068375" lon="26.462606">
<ele>105.713928</ele>
<time>2010-08-29T12:07:41Z</time>
<desc>lat.=56.068375, lon.=26.462606, Alt.=105.713928m. Speed=3.492000m/h.</desc>
<speed>0.970000</speed>
</trkpt>
<trkpt lat="56.068382" lon="26.462614">
<ele>105.870178</ele>
<time>2010-08-29T12:07:42Z</time>
<desc>lat.=56.068382, lon.=26.462614, Alt.=105.870178m. Speed=4.068000m/h.</desc>
<speed>1.130000</speed>
</trkpt>
<trkpt lat="56.068394" lon="26.462622">
<ele>105.920959</ele>
<time>2010-08-29T12:07:43Z</time>
<desc>lat.=56.068394, lon.=26.462622, Alt.=105.920959m. Speed=4.572000m/h.</desc>
<speed>1.270000</speed>
</trkpt>
<trkpt lat="56.068409" lon="26.462624">
<ele>105.340881</ele>
<time>2010-08-29T12:07:44Z</time>
<desc>lat.=56.068409, lon.=26.462624, Alt.=105.340881m. Speed=4.752000m/h.</desc>
<speed>1.320000</speed>
</trkpt>
<trkpt lat="56.068417" lon="26.462618">
<ele>105.649475</ele>
<time>2010-08-29T12:07:45Z</time>
<desc>lat.=56.068417, lon.=26.462618, Alt.=105.649475m. Speed=3.816000m/h.</desc>
<speed>1.060000</speed>
</trkpt>
<trkpt lat="56.068424" lon="26.462612">
<ele>105.598694</ele>
<time>2010-08-29T12:07:46Z</time>
<desc>lat.=56.068424, lon.=26.462612, Alt.=105.598694m. Speed=3.600000m/h.</desc>
<speed>1.000000</speed>
</trkpt>
<trkpt lat="56.068432" lon="26.462603">
<ele>105.116272</ele>
<time>2010-08-29T12:07:47Z</time>
<desc>lat.=56.068432, lon.=26.462603, Alt.=105.116272m. Speed=3.456000m/h.</desc>
<speed>0.960000</speed>
</trkpt>
<trkpt lat="56.068443" lon="26.462597">
<ele>105.299866</ele>
<time>2010-08-29T12:07:48Z</time>
<desc>lat.=56.068443, lon.=26.462597, Alt.=105.299866m. Speed=3.348000m/h.</desc>
<speed>0.930000</speed>
</trkpt>
<trkpt lat="56.068459" lon="26.462595">
<ele>105.487366</ele>
<time>2010-08-29T12:07:49Z</time>
<desc>lat.=56.068459, lon.=26.462595, Alt.=105.487366m. Speed=5.256000m/h.</desc>
<speed>1.460000</speed>
</trkpt>
<trkpt lat="56.068470" lon="26.462589">
<ele>105.438538</ele>
<time>2010-08-29T12:07:50Z</time>
<desc>lat.=56.068470, lon.=26.462589, Alt.=105.438538m. Speed=3.312000m/h.</desc>
<speed>0.920000</speed>
</trkpt>
<trkpt lat="56.068485" lon="26.462584">
<ele>105.358459</ele>
<time>2010-08-29T12:07:51Z</time>
<desc>lat.=56.068485, lon.=26.462584, Alt.=105.358459m. Speed=4.500000m/h.</desc>
<speed>1.250000</speed>
</trkpt>
<trkpt lat="56.068501" lon="26.462582">
<ele>105.829163</ele>
<time>2010-08-29T12:07:52Z</time>
<desc>lat.=56.068501, lon.=26.462582, Alt.=105.829163m. Speed=3.744000m/h.</desc>
<speed>1.040000</speed>
</trkpt>
<trkpt lat="56.068512" lon="26.462584">
<ele>105.586975</ele>
<time>2010-08-29T12:07:53Z</time>
<desc>lat.=56.068512, lon.=26.462584, Alt.=105.586975m. Speed=2.988000m/h.</desc>
<speed>0.830000</speed>
</trkpt>
<trkpt lat="56.068520" lon="26.462584">
<ele>105.518616</ele>
<time>2010-08-29T12:07:54Z</time>
<desc>lat.=56.068520, lon.=26.462584, Alt.=105.518616m. Speed=3.060000m/h.</desc>
<speed>0.850000</speed>
</trkpt>
<trkpt lat="56.068520" lon="26.462589">
<ele>105.743225</ele>
<time>2010-08-29T12:07:55Z</time>
<desc>lat.=56.068520, lon.=26.462589, Alt.=105.743225m. Speed=0.720000m/h.</desc>
<speed>0.200000</speed>
</trkpt>
<trkpt lat="56.068520" lon="26.462589">
<ele>105.700256</ele>
<time>2010-08-29T12:07:56Z</time>
<desc>lat.=56.068520, lon.=26.462589, Alt.=105.700256m. Speed=0.648000m/h.</desc>
<speed>0.180000</speed>
</trkpt>
<trkpt lat="56.068523" lon="26.462591">
<ele>105.120178</ele>
<time>2010-08-29T12:07:57Z</time>
<desc>lat.=56.068523, lon.=26.462591, Alt.=105.120178m. Speed=0.324000m/h.</desc>
<speed>0.090000</speed>
</trkpt>
<trkpt lat="56.068523" lon="26.462601">
<ele>105.633850</ele>
<time>2010-08-29T12:07:58Z</time>
<desc>lat.=56.068523, lon.=26.462601, Alt.=105.633850m. Speed=0.036000m/h.</desc>
<speed>0.010000</speed>
</trkpt>
<trkpt lat="56.068523" lon="26.462601">
<ele>105.479553</ele>
<time>2010-08-29T12:07:59Z</time>
<desc>lat.=56.068523, lon.=26.462601, Alt.=105.479553m. Speed=1.404000m/h.</desc>
<speed>0.390000</speed>
</trkpt>
<trkpt lat="56.068523" lon="26.462605">
<ele>106.297913</ele>
<time>2010-08-29T12:08:00Z</time>
<desc>lat.=56.068523, lon.=26.462605, Alt.=106.297913m. Speed=0.324000m/h.</desc>
<speed>0.090000</speed>
</trkpt>
<trkpt lat="56.068527" lon="26.462610">
<ele>106.989319</ele>
<time>2010-08-29T12:08:01Z</time>
<desc>lat.=56.068527, lon.=26.462610, Alt.=106.989319m. Speed=0.000000m/h.</desc>
<speed>0.000000</speed>
</trkpt>
<trkpt lat="56.068531" lon="26.462612">
<ele>107.395569</ele>
<time>2010-08-29T12:08:02Z</time>
<desc>lat.=56.068531, lon.=26.462612, Alt.=107.395569m. Speed=0.036000m/h.</desc>
<speed>0.010000</speed>
</trkpt>
<trkpt lat="56.068531" lon="26.462614">
<ele>107.292053</ele>
<time>2010-08-29T12:08:03Z</time>
<desc>lat.=56.068531, lon.=26.462614, Alt.=107.292053m. Speed=0.000000m/h.</desc>
<speed>0.000000</speed>
</trkpt>
<trkpt lat="56.068531" lon="26.462614">
<ele>107.288147</ele>
<time>2010-08-29T12:08:04Z</time>
<desc>lat.=56.068531, lon.=26.462614, Alt.=107.288147m. Speed=0.036000m/h.</desc>
<speed>0.010000</speed>
</trkpt>
<trkpt lat="56.068531" lon="26.462614">
<ele>107.290100</ele>
<time>2010-08-29T12:08:05Z</time>
<desc>lat.=56.068531, lon.=26.462614, Alt.=107.290100m. Speed=0.036000m/h.</desc>
<speed>0.010000</speed>
</trkpt>
<trkpt lat="56.068531" lon="26.462614">
<ele>107.286194</ele>
<time>2010-08-29T12:08:06Z</time>
<desc>lat.=56.068531, lon.=26.462614, Alt.=107.286194m. Speed=0.000000m/h.</desc>
<speed>0.000000</speed>
</trkpt>
<trkpt lat="56.068531" lon="26.462614">
<ele>107.282288</ele>
<time>2010-08-29T12:08:07Z</time>
<desc>lat.=56.068531, lon.=26.462614, Alt.=107.282288m. Speed=0.144000m/h.</desc>
<speed>0.040000</speed>
</trkpt>
<trkpt lat="56.068535" lon="26.462614">
<ele>107.327209</ele>
<time>2010-08-29T12:08:08Z</time>
<desc>lat.=56.068535, lon.=26.462614, Alt.=107.327209m. Speed=0.252000m/h.</desc>
<speed>0.070000</speed>
</trkpt>
<trkpt lat="56.068531" lon="26.462616">
<ele>107.344788</ele>
<time>2010-08-29T12:08:09Z</time>
<desc>lat.=56.068531, lon.=26.462616, Alt.=107.344788m. Speed=0.360000m/h.</desc>
<speed>0.100000</speed>
</trkpt>
<trkpt lat="56.068531" lon="26.462614">
<ele>107.376038</ele>
<time>2010-08-29T12:08:10Z</time>
<desc>lat.=56.068531, lon.=26.462614, Alt.=107.376038m. Speed=0.180000m/h.</desc>
<speed>0.050000</speed>
</trkpt>
<trkpt lat="56.068531" lon="26.462614">
<ele>107.403381</ele>
<time>2010-08-29T12:08:11Z</time>
<desc>lat.=56.068531, lon.=26.462614, Alt.=107.403381m. Speed=0.360000m/h.</desc>
<speed>0.100000</speed>
</trkpt>
<trkpt lat="56.068531" lon="26.462614">
<ele>107.405334</ele>
<time>2010-08-29T12:08:12Z</time>
<desc>lat.=56.068531, lon.=26.462614, Alt.=107.405334m. Speed=0.072000m/h.</desc>
<speed>0.020000</speed>
</trkpt>
<trkpt lat="56.068531" lon="26.462614">
<ele>107.411194</ele>
<time>2010-08-29T12:08:13Z</time>
<desc>lat.=56.068531, lon.=26.462614, Alt.=107.411194m. Speed=0.000000m/h.</desc>
<speed>0.000000</speed>
</trkpt>
<trkpt lat="56.068531" lon="26.462614">
<ele>107.420959</ele>
<time>2010-08-29T12:08:14Z</time>
<desc>lat.=56.068531, lon.=26.462614, Alt.=107.420959m. Speed=0.000000m/h.</desc>
<speed>0.000000</speed>
</trkpt>
<trkpt lat="56.068531" lon="26.462614">
<ele>107.420959</ele>
<time>2010-08-29T12:08:15Z</time>
<desc>lat.=56.068531, lon.=26.462614, Alt.=107.420959m. Speed=0.000000m/h.</desc>
<speed>0.000000</speed>
</trkpt>
<trkpt lat="56.068531" lon="26.462614">
<ele>107.424866</ele>
<time>2010-08-29T12:08:16Z</time>
<desc>lat.=56.068531, lon.=26.462614, Alt.=107.424866m. Speed=0.000000m/h.</desc>
<speed>0.000000</speed>
</trkpt>
<trkpt lat="56.068531" lon="26.462614">
<ele>107.434631</ele>
<time>2010-08-29T12:08:17Z</time>
<desc>lat.=56.068531, lon.=26.462614, Alt.=107.434631m. Speed=0.252000m/h.</desc>
<speed>0.070000</speed>
</trkpt>
<trkpt lat="56.068531" lon="26.462614">
<ele>107.434631</ele>
<time>2010-08-29T12:08:18Z</time>
<desc>lat.=56.068531, lon.=26.462614, Alt.=107.434631m. Speed=0.000000m/h.</desc>
<speed>0.000000</speed>
</trkpt>
<trkpt lat="56.068531" lon="26.462614">
<ele>107.440491</ele>
<time>2010-08-29T12:08:19Z</time>
<desc>lat.=56.068531, lon.=26.462614, Alt.=107.440491m. Speed=0.000000m/h.</desc>
<speed>0.000000</speed>
</trkpt>
<trkpt lat="56.068531" lon="26.462614">
<ele>107.446350</ele>
<time>2010-08-29T12:08:20Z</time>
<desc>lat.=56.068531, lon.=26.462614, Alt.=107.446350m. Speed=0.000000m/h.</desc>
<speed>0.000000</speed>
</trkpt>
<trkpt lat="56.068531" lon="26.462614">
<ele>107.446350</ele>
<time>2010-08-29T12:08:21Z</time>
<desc>lat.=56.068531, lon.=26.462614, Alt.=107.446350m. Speed=0.036000m/h.</desc>
<speed>0.010000</speed>
</trkpt>
<trkpt lat="56.068531" lon="26.462614">
<ele>107.452209</ele>
<time>2010-08-29T12:08:22Z</time>
<desc>lat.=56.068531, lon.=26.462614, Alt.=107.452209m. Speed=0.036000m/h.</desc>
<speed>0.010000</speed>
</trkpt>
<trkpt lat="56.068531" lon="26.462614">
<ele>107.458069</ele>
<time>2010-08-29T12:08:23Z</time>
<desc>lat.=56.068531, lon.=26.462614, Alt.=107.458069m. Speed=0.036000m/h.</desc>
<speed>0.010000</speed>
</trkpt>
<trkpt lat="56.068531" lon="26.462614">
<ele>107.458069</ele>
<time>2010-08-29T12:08:24Z</time>
<desc>lat.=56.068531, lon.=26.462614, Alt.=107.458069m. Speed=0.036000m/h.</desc>
<speed>0.010000</speed>
</trkpt>
<trkpt lat="56.068531" lon="26.462614">
<ele>107.465881</ele>
<time>2010-08-29T12:08:25Z</time>
<desc>lat.=56.068531, lon.=26.462614, Alt.=107.465881m. Speed=0.000000m/h.</desc>
<speed>0.000000</speed>
</trkpt>
<trkpt lat="56.068531" lon="26.462614">
<ele>107.475647</ele>
<time>2010-08-29T12:08:26Z</time>
<desc>lat.=56.068531, lon.=26.462614, Alt.=107.475647m. Speed=0.000000m/h.</desc>
<speed>0.000000</speed>
</trkpt>
<trkpt lat="56.068531" lon="26.462614">
<ele>107.473694</ele>
<time>2010-08-29T12:08:27Z</time>
<desc>lat.=56.068531, lon.=26.462614, Alt.=107.473694m. Speed=0.000000m/h.</desc>
<speed>0.000000</speed>
</trkpt>
<trkpt lat="56.068531" lon="26.462614">
<ele>107.481506</ele>
<time>2010-08-29T12:08:28Z</time>
<desc>lat.=56.068531, lon.=26.462614, Alt.=107.481506m. Speed=0.000000m/h.</desc>
<speed>0.000000</speed>
</trkpt>
<trkpt lat="56.068531" lon="26.462614">
<ele>107.487366</ele>
<time>2010-08-29T12:08:29Z</time>
<desc>lat.=56.068531, lon.=26.462614, Alt.=107.487366m. Speed=0.036000m/h.</desc>
<speed>0.010000</speed>
</trkpt>
<trkpt lat="56.068531" lon="26.462614">
<ele>107.491272</ele>
<time>2010-08-29T12:08:30Z</time>
<desc>lat.=56.068531, lon.=26.462614, Alt.=107.491272m. Speed=0.036000m/h.</desc>
<speed>0.010000</speed>
</trkpt>
<trkpt lat="56.068531" lon="26.462614">
<ele>107.501038</ele>
<time>2010-08-29T12:08:31Z</time>
<desc>lat.=56.068531, lon.=26.462614, Alt.=107.501038m. Speed=0.144000m/h.</desc>
<speed>0.040000</speed>
</trkpt>
<trkpt lat="56.068531" lon="26.462614">
<ele>107.506897</ele>
<time>2010-08-29T12:08:32Z</time>
<desc>lat.=56.068531, lon.=26.462614, Alt.=107.506897m. Speed=0.036000m/h.</desc>
<speed>0.010000</speed>
</trkpt>
<trkpt lat="56.068531" lon="26.462614">
<ele>107.512756</ele>
<time>2010-08-29T12:08:33Z</time>
<desc>lat.=56.068531, lon.=26.462614, Alt.=107.512756m. Speed=0.000000m/h.</desc>
<speed>0.000000</speed>
</trkpt>
<trkpt lat="56.068531" lon="26.462614">
<ele>107.520569</ele>
<time>2010-08-29T12:08:34Z</time>
<desc>lat.=56.068531, lon.=26.462614, Alt.=107.520569m. Speed=0.000000m/h.</desc>
<speed>0.000000</speed>
</trkpt>
<trkpt lat="56.068531" lon="26.462614">
<ele>107.522522</ele>
<time>2010-08-29T12:08:35Z</time>
<desc>lat.=56.068531, lon.=26.462614, Alt.=107.522522m. Speed=0.036000m/h.</desc>
<speed>0.010000</speed>
</trkpt>
<trkpt lat="56.068531" lon="26.462614">
<ele>107.534241</ele>
<time>2010-08-29T12:08:36Z</time>
<desc>lat.=56.068531, lon.=26.462614, Alt.=107.534241m. Speed=0.036000m/h.</desc>
<speed>0.010000</speed>
</trkpt>
<trkpt lat="56.068531" lon="26.462614">
<ele>107.542053</ele>
<time>2010-08-29T12:08:37Z</time>
<desc>lat.=56.068531, lon.=26.462614, Alt.=107.542053m. Speed=0.036000m/h.</desc>
<speed>0.010000</speed>
</trkpt>
<trkpt lat="56.068531" lon="26.462614">
<ele>107.545959</ele>
<time>2010-08-29T12:08:38Z</time>
<desc>lat.=56.068531, lon.=26.462614, Alt.=107.545959m. Speed=0.000000m/h.</desc>
<speed>0.000000</speed>
</trkpt>
<trkpt lat="56.068531" lon="26.462614">
<ele>107.551819</ele>
<time>2010-08-29T12:08:39Z</time>
<desc>lat.=56.068531, lon.=26.462614, Alt.=107.551819m. Speed=0.000000m/h.</desc>
<speed>0.000000</speed>
</trkpt>
<trkpt lat="56.068531" lon="26.462614">
<ele>107.557678</ele>
<time>2010-08-29T12:08:40Z</time>
<desc>lat.=56.068531, lon.=26.462614, Alt.=107.557678m. Speed=0.000000m/h.</desc>
<speed>0.000000</speed>
</trkpt>
<trkpt lat="56.068531" lon="26.462614">
<ele>107.559631</ele>
<time>2010-08-29T12:08:41Z</time>
<desc>lat.=56.068531, lon.=26.462614, Alt.=107.559631m. Speed=0.036000m/h.</desc>
<speed>0.010000</speed>
</trkpt>
<trkpt lat="56.068531" lon="26.462614">
<ele>107.567444</ele>
<time>2010-08-29T12:08:42Z</time>
<desc>lat.=56.068531, lon.=26.462614, Alt.=107.567444m. Speed=0.000000m/h.</desc>
<speed>0.000000</speed>
</trkpt>
<trkpt lat="56.068531" lon="26.462614">
<ele>107.571350</ele>
<time>2010-08-29T12:08:43Z</time>
<desc>lat.=56.068531, lon.=26.462614, Alt.=107.571350m. Speed=0.036000m/h.</desc>
<speed>0.010000</speed>
</trkpt>
<trkpt lat="56.068531" lon="26.462614">
<ele>107.567444</ele>
<time>2010-08-29T12:08:44Z</time>
<desc>lat.=56.068531, lon.=26.462614, Alt.=107.567444m. Speed=0.396000m/h.</desc>
<speed>0.110000</speed>
</trkpt>
<trkpt lat="56.068531" lon="26.462614">
<ele>107.581116</ele>
<time>2010-08-29T12:08:45Z</time>
<desc>lat.=56.068531, lon.=26.462614, Alt.=107.581116m. Speed=0.036000m/h.</desc>
<speed>0.010000</speed>
</trkpt>
<trkpt lat="56.068531" lon="26.462614">
<ele>107.585022</ele>
<time>2010-08-29T12:08:46Z</time>
<desc>lat.=56.068531, lon.=26.462614, Alt.=107.585022m. Speed=0.036000m/h.</desc>
<speed>0.010000</speed>
</trkpt>
<trkpt lat="56.068531" lon="26.462614">
<ele>107.585022</ele>
<time>2010-08-29T12:08:47Z</time>
<desc>lat.=56.068531, lon.=26.462614, Alt.=107.585022m. Speed=0.036000m/h.</desc>
<speed>0.010000</speed>
</trkpt>
<trkpt lat="56.068531" lon="26.462614">
<ele>107.585022</ele>
<time>2010-08-29T12:08:48Z</time>
<desc>lat.=56.068531, lon.=26.462614, Alt.=107.585022m. Speed=0.036000m/h.</desc>
<speed>0.010000</speed>
</trkpt>
<trkpt lat="56.068531" lon="26.462614">
<ele>107.586975</ele>
<time>2010-08-29T12:08:49Z</time>
<desc>lat.=56.068531, lon.=26.462614, Alt.=107.586975m. Speed=0.036000m/h.</desc>
<speed>0.010000</speed>
</trkpt>
<trkpt lat="56.068531" lon="26.462614">
<ele>107.586975</ele>
<time>2010-08-29T12:08:50Z</time>
<desc>lat.=56.068531, lon.=26.462614, Alt.=107.586975m. Speed=0.036000m/h.</desc>
<speed>0.010000</speed>
</trkpt>
<trkpt lat="56.068531" lon="26.462614">
<ele>107.586975</ele>
<time>2010-08-29T12:08:51Z</time>
<desc>lat.=56.068531, lon.=26.462614, Alt.=107.586975m. Speed=0.036000m/h.</desc>
<speed>0.010000</speed>
</trkpt>
<trkpt lat="56.068531" lon="26.462614">
<ele>107.588928</ele>
<time>2010-08-29T12:08:52Z</time>
<desc>lat.=56.068531, lon.=26.462614, Alt.=107.588928m. Speed=0.000000m/h.</desc>
<speed>0.000000</speed>
</trkpt>
<trkpt lat="56.068531" lon="26.462614">
<ele>107.592834</ele>
<time>2010-08-29T12:08:53Z</time>
<desc>lat.=56.068531, lon.=26.462614, Alt.=107.592834m. Speed=0.036000m/h.</desc>
<speed>0.010000</speed>
</trkpt>
<trkpt lat="56.068531" lon="26.462614">
<ele>107.592834</ele>
<time>2010-08-29T12:08:54Z</time>
<desc>lat.=56.068531, lon.=26.462614, Alt.=107.592834m. Speed=0.036000m/h.</desc>
<speed>0.010000</speed>
</trkpt>
<trkpt lat="56.068531" lon="26.462614">
<ele>107.602600</ele>
<time>2010-08-29T12:08:55Z</time>
<desc>lat.=56.068531, lon.=26.462614, Alt.=107.602600m. Speed=0.432000m/h.</desc>
<speed>0.120000</speed>
</trkpt>
<trkpt lat="56.068531" lon="26.462614">
<ele>107.606506</ele>
<time>2010-08-29T12:08:56Z</time>
<desc>lat.=56.068531, lon.=26.462614, Alt.=107.606506m. Speed=0.432000m/h.</desc>
<speed>0.120000</speed>
</trkpt>
<trkpt lat="56.068531" lon="26.462614">
<ele>107.610413</ele>
<time>2010-08-29T12:08:57Z</time>
<desc>lat.=56.068531, lon.=26.462614, Alt.=107.610413m. Speed=0.144000m/h.</desc>
<speed>0.040000</speed>
</trkpt>
<trkpt lat="56.068531" lon="26.462614">
<ele>107.614319</ele>
<time>2010-08-29T12:08:58Z</time>
<desc>lat.=56.068531, lon.=26.462614, Alt.=107.614319m. Speed=0.036000m/h.</desc>
<speed>0.010000</speed>
</trkpt>
<trkpt lat="56.068531" lon="26.462614">
<ele>107.618225</ele>
<time>2010-08-29T12:08:59Z</time>
<desc>lat.=56.068531, lon.=26.462614, Alt.=107.618225m. Speed=0.072000m/h.</desc>
<speed>0.020000</speed>
</trkpt>
<trkpt lat="56.068531" lon="26.462614">
<ele>107.626038</ele>
<time>2010-08-29T12:09:00Z</time>
<desc>lat.=56.068531, lon.=26.462614, Alt.=107.626038m. Speed=0.108000m/h.</desc>
<speed>0.030000</speed>
</trkpt>
<trkpt lat="56.068531" lon="26.462614">
<ele>107.627991</ele>
<time>2010-08-29T12:09:01Z</time>
<desc>lat.=56.068531, lon.=26.462614, Alt.=107.627991m. Speed=0.072000m/h.</desc>
<speed>0.020000</speed>
</trkpt>
<trkpt lat="56.068531" lon="26.462614">
<ele>107.629944</ele>
<time>2010-08-29T12:09:02Z</time>
<desc>lat.=56.068531, lon.=26.462614, Alt.=107.629944m. Speed=0.144000m/h.</desc>
<speed>0.040000</speed>
</trkpt>
<trkpt lat="56.068531" lon="26.462614">
<ele>107.633850</ele>
<time>2010-08-29T12:09:03Z</time>
<desc>lat.=56.068531, lon.=26.462614, Alt.=107.633850m. Speed=0.072000m/h.</desc>
<speed>0.020000</speed>
</trkpt>
<trkpt lat="56.068531" lon="26.462614">
<ele>107.637756</ele>
<time>2010-08-29T12:09:04Z</time>
<desc>lat.=56.068531, lon.=26.462614, Alt.=107.637756m. Speed=0.036000m/h.</desc>
<speed>0.010000</speed>
</trkpt>
<trkpt lat="56.068531" lon="26.462614">
<ele>107.645569</ele>
<time>2010-08-29T12:09:05Z</time>
<desc>lat.=56.068531, lon.=26.462614, Alt.=107.645569m. Speed=0.000000m/h.</desc>
<speed>0.000000</speed>
</trkpt>
<trkpt lat="56.068531" lon="26.462614">
<ele>107.645569</ele>
<time>2010-08-29T12:09:06Z</time>
<desc>lat.=56.068531, lon.=26.462614, Alt.=107.645569m. Speed=0.072000m/h.</desc>
<speed>0.020000</speed>
</trkpt>
<trkpt lat="56.068531" lon="26.462614">
<ele>107.649475</ele>
<time>2010-08-29T12:09:07Z</time>
<desc>lat.=56.068531, lon.=26.462614, Alt.=107.649475m. Speed=0.072000m/h.</desc>
<speed>0.020000</speed>
</trkpt>
<trkpt lat="56.068531" lon="26.462614">
<ele>107.651428</ele>
<time>2010-08-29T12:09:08Z</time>
<desc>lat.=56.068531, lon.=26.462614, Alt.=107.651428m. Speed=0.180000m/h.</desc>
<speed>0.050000</speed>
</trkpt>
<trkpt lat="56.068531" lon="26.462614">
<ele>107.649475</ele>
<time>2010-08-29T12:09:09Z</time>
<desc>lat.=56.068531, lon.=26.462614, Alt.=107.649475m. Speed=0.036000m/h.</desc>
<speed>0.010000</speed>
</trkpt>
<trkpt lat="56.068531" lon="26.462614">
<ele>107.655334</ele>
<time>2010-08-29T12:09:10Z</time>
<desc>lat.=56.068531, lon.=26.462614, Alt.=107.655334m. Speed=0.036000m/h.</desc>
<speed>0.010000</speed>
</trkpt>
<trkpt lat="56.068531" lon="26.462614">
<ele>107.655334</ele>
<time>2010-08-29T12:09:11Z</time>
<desc>lat.=56.068531, lon.=26.462614, Alt.=107.655334m. Speed=0.036000m/h.</desc>
<speed>0.010000</speed>
</trkpt>
<trkpt lat="56.068531" lon="26.462614">
<ele>107.661194</ele>
<time>2010-08-29T12:09:12Z</time>
<desc>lat.=56.068531, lon.=26.462614, Alt.=107.661194m. Speed=0.000000m/h.</desc>
<speed>0.000000</speed>
</trkpt>
<trkpt lat="56.068531" lon="26.462614">
<ele>107.663147</ele>
<time>2010-08-29T12:09:13Z</time>
<desc>lat.=56.068531, lon.=26.462614, Alt.=107.663147m. Speed=0.000000m/h.</desc>
<speed>0.000000</speed>
</trkpt>
<trkpt lat="56.068531" lon="26.462616">
<ele>107.665100</ele>
<time>2010-08-29T12:09:14Z</time>
<desc>lat.=56.068531, lon.=26.462616, Alt.=107.665100m. Speed=0.000000m/h.</desc>
<speed>0.000000</speed>
</trkpt>
<trkpt lat="56.068531" lon="26.462616">
<ele>107.669006</ele>
<time>2010-08-29T12:09:15Z</time>
<desc>lat.=56.068531, lon.=26.462616, Alt.=107.669006m. Speed=0.000000m/h.</desc>
<speed>0.000000</speed>
</trkpt>
<trkpt lat="56.068531" lon="26.462616">
<ele>107.669006</ele>
<time>2010-08-29T12:09:16Z</time>
<desc>lat.=56.068531, lon.=26.462616, Alt.=107.669006m. Speed=0.036000m/h.</desc>
<speed>0.010000</speed>
</trkpt>
<trkpt lat="56.068531" lon="26.462616">
<ele>107.674866</ele>
<time>2010-08-29T12:09:17Z</time>
<desc>lat.=56.068531, lon.=26.462616, Alt.=107.674866m. Speed=0.144000m/h.</desc>
<speed>0.040000</speed>
</trkpt>
<trkpt lat="56.068531" lon="26.462616">
<ele>107.678772</ele>
<time>2010-08-29T12:09:18Z</time>
<desc>lat.=56.068531, lon.=26.462616, Alt.=107.678772m. Speed=0.252000m/h.</desc>
<speed>0.070000</speed>
</trkpt>
<trkpt lat="56.068531" lon="26.462616">
<ele>107.678772</ele>
<time>2010-08-29T12:09:19Z</time>
<desc>lat.=56.068531, lon.=26.462616, Alt.=107.678772m. Speed=0.036000m/h.</desc>
<speed>0.010000</speed>
</trkpt>
<trkpt lat="56.068531" lon="26.462616">
<ele>107.680725</ele>
<time>2010-08-29T12:09:20Z</time>
<desc>lat.=56.068531, lon.=26.462616, Alt.=107.680725m. Speed=0.108000m/h.</desc>
<speed>0.030000</speed>
</trkpt>
<trkpt lat="56.068531" lon="26.462616">
<ele>107.678772</ele>
<time>2010-08-29T12:09:21Z</time>
<desc>lat.=56.068531, lon.=26.462616, Alt.=107.678772m. Speed=0.576000m/h.</desc>
<speed>0.160000</speed>
</trkpt>
<trkpt lat="56.068531" lon="26.462616">
<ele>107.678772</ele>
<time>2010-08-29T12:09:22Z</time>
<desc>lat.=56.068531, lon.=26.462616, Alt.=107.678772m. Speed=0.792000m/h.</desc>
<speed>0.220000</speed>
</trkpt>
<trkpt lat="56.068535" lon="26.462616">
<ele>107.672913</ele>
<time>2010-08-29T12:09:23Z</time>
<desc>lat.=56.068535, lon.=26.462616, Alt.=107.672913m. Speed=1.296000m/h.</desc>
<speed>0.360000</speed>
</trkpt>
<trkpt lat="56.068539" lon="26.462624">
<ele>107.772522</ele>
<time>2010-08-29T12:09:24Z</time>
<desc>lat.=56.068539, lon.=26.462624, Alt.=107.772522m. Speed=1.440000m/h.</desc>
<speed>0.400000</speed>
</trkpt>
<trkpt lat="56.068546" lon="26.462643">
<ele>107.764709</ele>
<time>2010-08-29T12:09:25Z</time>
<desc>lat.=56.068546, lon.=26.462643, Alt.=107.764709m. Speed=2.052000m/h.</desc>
<speed>0.570000</speed>
</trkpt>
<trkpt lat="56.068550" lon="26.462652">
<ele>107.760803</ele>
<time>2010-08-29T12:09:26Z</time>
<desc>lat.=56.068550, lon.=26.462652, Alt.=107.760803m. Speed=2.160000m/h.</desc>
<speed>0.600000</speed>
</trkpt>
<trkpt lat="56.068558" lon="26.462656">
<ele>107.772522</ele>
<time>2010-08-29T12:09:27Z</time>
<desc>lat.=56.068558, lon.=26.462656, Alt.=107.772522m. Speed=1.944000m/h.</desc>
<speed>0.540000</speed>
</trkpt>
<trkpt lat="56.068562" lon="26.462658">
<ele>107.778381</ele>
<time>2010-08-29T12:09:28Z</time>
<desc>lat.=56.068562, lon.=26.462658, Alt.=107.778381m. Speed=1.620000m/h.</desc>
<speed>0.450000</speed>
</trkpt>
<trkpt lat="56.068569" lon="26.462664">
<ele>107.790100</ele>
<time>2010-08-29T12:09:29Z</time>
<desc>lat.=56.068569, lon.=26.462664, Alt.=107.790100m. Speed=1.908000m/h.</desc>
<speed>0.530000</speed>
</trkpt>
<trkpt lat="56.068577" lon="26.462667">
<ele>107.758850</ele>
<time>2010-08-29T12:09:30Z</time>
<desc>lat.=56.068577, lon.=26.462667, Alt.=107.758850m. Speed=1.944000m/h.</desc>
<speed>0.540000</speed>
</trkpt>
<trkpt lat="56.068584" lon="26.462671">
<ele>107.737366</ele>
<time>2010-08-29T12:09:31Z</time>
<desc>lat.=56.068584, lon.=26.462671, Alt.=107.737366m. Speed=1.764000m/h.</desc>
<speed>0.490000</speed>
</trkpt>
<trkpt lat="56.068592" lon="26.462679">
<ele>107.708069</ele>
<time>2010-08-29T12:09:32Z</time>
<desc>lat.=56.068592, lon.=26.462679, Alt.=107.708069m. Speed=1.908000m/h.</desc>
<speed>0.530000</speed>
</trkpt>
<trkpt lat="56.068604" lon="26.462681">
<ele>107.725647</ele>
<time>2010-08-29T12:09:33Z</time>
<desc>lat.=56.068604, lon.=26.462681, Alt.=107.725647m. Speed=2.700000m/h.</desc>
<speed>0.750000</speed>
</trkpt>
<trkpt lat="56.068623" lon="26.462690">
<ele>107.717834</ele>
<time>2010-08-29T12:09:34Z</time>
<desc>lat.=56.068623, lon.=26.462690, Alt.=107.717834m. Speed=3.672000m/h.</desc>
<speed>1.020000</speed>
</trkpt>
<trkpt lat="56.068642" lon="26.462704">
<ele>107.676819</ele>
<time>2010-08-29T12:09:35Z</time>
<desc>lat.=56.068642, lon.=26.462704, Alt.=107.676819m. Speed=3.420000m/h.</desc>
<speed>0.950000</speed>
</trkpt>
<trkpt lat="56.068657" lon="26.462709">
<ele>107.633850</ele>
<time>2010-08-29T12:09:36Z</time>
<desc>lat.=56.068657, lon.=26.462709, Alt.=107.633850m. Speed=3.240000m/h.</desc>
<speed>0.900000</speed>
</trkpt>
<trkpt lat="56.068676" lon="26.462713">
<ele>107.670959</ele>
<time>2010-08-29T12:09:37Z</time>
<desc>lat.=56.068676, lon.=26.462713, Alt.=107.670959m. Speed=3.636000m/h.</desc>
<speed>1.010000</speed>
</trkpt>
<trkpt lat="56.068687" lon="26.462694">
<ele>107.608459</ele>
<time>2010-08-29T12:09:38Z</time>
<desc>lat.=56.068687, lon.=26.462694, Alt.=107.608459m. Speed=3.852000m/h.</desc>
<speed>1.070000</speed>
</trkpt>
<trkpt lat="56.068710" lon="26.462688">
<ele>107.596741</ele>
<time>2010-08-29T12:09:39Z</time>
<desc>lat.=56.068710, lon.=26.462688, Alt.=107.596741m. Speed=4.104000m/h.</desc>
<speed>1.140000</speed>
</trkpt>
<trkpt lat="56.068729" lon="26.462687">
<ele>107.544006</ele>
<time>2010-08-29T12:09:40Z</time>
<desc>lat.=56.068729, lon.=26.462687, Alt.=107.544006m. Speed=3.852000m/h.</desc>
<speed>1.070000</speed>
</trkpt>
<trkpt lat="56.068741" lon="26.462681">
<ele>107.542053</ele>
<time>2010-08-29T12:09:41Z</time>
<desc>lat.=56.068741, lon.=26.462681, Alt.=107.542053m. Speed=3.276000m/h.</desc>
<speed>0.910000</speed>
</trkpt>
<trkpt lat="56.068760" lon="26.462683">
<ele>107.567444</ele>
<time>2010-08-29T12:09:42Z</time>
<desc>lat.=56.068760, lon.=26.462683, Alt.=107.567444m. Speed=3.312000m/h.</desc>
<speed>0.920000</speed>
</trkpt>
<trkpt lat="56.068775" lon="26.462679">
<ele>107.581116</ele>
<time>2010-08-29T12:09:43Z</time>
<desc>lat.=56.068775, lon.=26.462679, Alt.=107.581116m. Speed=3.348000m/h.</desc>
<speed>0.930000</speed>
</trkpt>
<trkpt lat="56.068794" lon="26.462681">
<ele>107.717834</ele>
<time>2010-08-29T12:09:44Z</time>
<desc>lat.=56.068794, lon.=26.462681, Alt.=107.717834m. Speed=3.564000m/h.</desc>
<speed>0.990000</speed>
</trkpt>
<trkpt lat="56.068813" lon="26.462692">
<ele>107.741272</ele>
<time>2010-08-29T12:09:45Z</time>
<desc>lat.=56.068813, lon.=26.462692, Alt.=107.741272m. Speed=3.348000m/h.</desc>
<speed>0.930000</speed>
</trkpt>
<trkpt lat="56.068825" lon="26.462692">
<ele>107.704163</ele>
<time>2010-08-29T12:09:46Z</time>
<desc>lat.=56.068825, lon.=26.462692, Alt.=107.704163m. Speed=3.276000m/h.</desc>
<speed>0.910000</speed>
</trkpt>
<trkpt lat="56.068851" lon="26.462702">
<ele>107.626038</ele>
<time>2010-08-29T12:09:47Z</time>
<desc>lat.=56.068851, lon.=26.462702, Alt.=107.626038m. Speed=3.384000m/h.</desc>
<speed>0.940000</speed>
</trkpt>
<trkpt lat="56.068878" lon="26.462717">
<ele>107.512756</ele>
<time>2010-08-29T12:09:48Z</time>
<desc>lat.=56.068878, lon.=26.462717, Alt.=107.512756m. Speed=3.780000m/h.</desc>
<speed>1.050000</speed>
</trkpt>
<trkpt lat="56.068901" lon="26.462717">
<ele>107.588928</ele>
<time>2010-08-29T12:09:49Z</time>
<desc>lat.=56.068901, lon.=26.462717, Alt.=107.588928m. Speed=4.140000m/h.</desc>
<speed>1.150000</speed>
</trkpt>
<trkpt lat="56.068932" lon="26.462729">
<ele>107.553772</ele>
<time>2010-08-29T12:09:50Z</time>
<desc>lat.=56.068932, lon.=26.462729, Alt.=107.553772m. Speed=4.896000m/h.</desc>
<speed>1.360000</speed>
</trkpt>
<trkpt lat="56.068947" lon="26.462732">
<ele>107.575256</ele>
<time>2010-08-29T12:09:51Z</time>
<desc>lat.=56.068947, lon.=26.462732, Alt.=107.575256m. Speed=4.572000m/h.</desc>
<speed>1.270000</speed>
</trkpt>
<trkpt lat="56.068962" lon="26.462732">
<ele>107.600647</ele>
<time>2010-08-29T12:09:52Z</time>
<desc>lat.=56.068962, lon.=26.462732, Alt.=107.600647m. Speed=4.320000m/h.</desc>
<speed>1.200000</speed>
</trkpt>
<trkpt lat="56.068985" lon="26.462746">
<ele>107.592834</ele>
<time>2010-08-29T12:09:53Z</time>
<desc>lat.=56.068985, lon.=26.462746, Alt.=107.592834m. Speed=4.356000m/h.</desc>
<speed>1.210000</speed>
</trkpt>
<trkpt lat="56.069004" lon="26.462757">
<ele>107.463928</ele>
<time>2010-08-29T12:09:54Z</time>
<desc>lat.=56.069004, lon.=26.462757, Alt.=107.463928m. Speed=4.140000m/h.</desc>
<speed>1.150000</speed>
</trkpt>
<trkpt lat="56.069023" lon="26.462776">
<ele>107.102600</ele>
<time>2010-08-29T12:09:55Z</time>
<desc>lat.=56.069023, lon.=26.462776, Alt.=107.102600m. Speed=2.628000m/h.</desc>
<speed>0.730000</speed>
</trkpt>
<trkpt lat="56.069035" lon="26.462776">
<ele>107.057678</ele>
<time>2010-08-29T12:09:56Z</time>
<desc>lat.=56.069035, lon.=26.462776, Alt.=107.057678m. Speed=2.592000m/h.</desc>
<speed>0.720000</speed>
</trkpt>
<trkpt lat="56.069042" lon="26.462780">
<ele>107.038147</ele>
<time>2010-08-29T12:09:57Z</time>
<desc>lat.=56.069042, lon.=26.462780, Alt.=107.038147m. Speed=2.160000m/h.</desc>
<speed>0.600000</speed>
</trkpt>
<trkpt lat="56.069050" lon="26.462776">
<ele>107.067444</ele>
<time>2010-08-29T12:09:58Z</time>
<desc>lat.=56.069050, lon.=26.462776, Alt.=107.067444m. Speed=2.016000m/h.</desc>
<speed>0.560000</speed>
</trkpt>
<trkpt lat="56.069061" lon="26.462778">
<ele>107.026428</ele>
<time>2010-08-29T12:09:59Z</time>
<desc>lat.=56.069061, lon.=26.462778, Alt.=107.026428m. Speed=1.944000m/h.</desc>
<speed>0.540000</speed>
</trkpt>
<trkpt lat="56.069084" lon="26.462793">
<ele>106.876038</ele>
<time>2010-08-29T12:10:00Z</time>
<desc>lat.=56.069084, lon.=26.462793, Alt.=106.876038m. Speed=2.664000m/h.</desc>
<speed>0.740000</speed>
</trkpt>
<trkpt lat="56.069092" lon="26.462795">
<ele>106.870178</ele>
<time>2010-08-29T12:10:01Z</time>
<desc>lat.=56.069092, lon.=26.462795, Alt.=106.870178m. Speed=2.268000m/h.</desc>
<speed>0.630000</speed>
</trkpt>
<trkpt lat="56.069103" lon="26.462791">
<ele>106.817444</ele>
<time>2010-08-29T12:10:02Z</time>
<desc>lat.=56.069103, lon.=26.462791, Alt.=106.817444m. Speed=2.016000m/h.</desc>
<speed>0.560000</speed>
</trkpt>
<trkpt lat="56.069115" lon="26.462793">
<ele>106.799866</ele>
<time>2010-08-29T12:10:03Z</time>
<desc>lat.=56.069115, lon.=26.462793, Alt.=106.799866m. Speed=1.980000m/h.</desc>
<speed>0.550000</speed>
</trkpt>
<trkpt lat="56.069126" lon="26.462788">
<ele>106.770569</ele>
<time>2010-08-29T12:10:04Z</time>
<desc>lat.=56.069126, lon.=26.462788, Alt.=106.770569m. Speed=2.016000m/h.</desc>
<speed>0.560000</speed>
</trkpt>
<trkpt lat="56.069145" lon="26.462780">
<ele>106.756897</ele>
<time>2010-08-29T12:10:05Z</time>
<desc>lat.=56.069145, lon.=26.462780, Alt.=106.756897m. Speed=2.340000m/h.</desc>
<speed>0.650000</speed>
</trkpt>
<trkpt lat="56.069164" lon="26.462778">
<ele>106.909241</ele>
<time>2010-08-29T12:10:06Z</time>
<desc>lat.=56.069164, lon.=26.462778, Alt.=106.909241m. Speed=2.700000m/h.</desc>
<speed>0.750000</speed>
</trkpt>
<trkpt lat="56.069172" lon="26.462772">
<ele>106.930725</ele>
<time>2010-08-29T12:10:07Z</time>
<desc>lat.=56.069172, lon.=26.462772, Alt.=106.930725m. Speed=2.304000m/h.</desc>
<speed>0.640000</speed>
</trkpt>
<trkpt lat="56.069187" lon="26.462770">
<ele>106.987366</ele>
<time>2010-08-29T12:10:08Z</time>
<desc>lat.=56.069187, lon.=26.462770, Alt.=106.987366m. Speed=2.052000m/h.</desc>
<speed>0.570000</speed>
</trkpt>
<trkpt lat="56.069199" lon="26.462772">
<ele>107.094788</ele>
<time>2010-08-29T12:10:09Z</time>
<desc>lat.=56.069199, lon.=26.462772, Alt.=107.094788m. Speed=1.908000m/h.</desc>
<speed>0.530000</speed>
</trkpt>
<trkpt lat="56.069218" lon="26.462776">
<ele>107.204163</ele>
<time>2010-08-29T12:10:10Z</time>
<desc>lat.=56.069218, lon.=26.462776, Alt.=107.204163m. Speed=2.412000m/h.</desc>
<speed>0.670000</speed>
</trkpt>
<trkpt lat="56.069233" lon="26.462790">
<ele>107.284241</ele>
<time>2010-08-29T12:10:11Z</time>
<desc>lat.=56.069233, lon.=26.462790, Alt.=107.284241m. Speed=2.448000m/h.</desc>
<speed>0.680000</speed>
</trkpt>
<trkpt lat="56.069256" lon="26.462801">
<ele>107.348694</ele>
<time>2010-08-29T12:10:12Z</time>
<desc>lat.=56.069256, lon.=26.462801, Alt.=107.348694m. Speed=2.988000m/h.</desc>
<speed>0.830000</speed>
</trkpt>
<trkpt lat="56.069267" lon="26.462801">
<ele>107.387756</ele>
<time>2010-08-29T12:10:13Z</time>
<desc>lat.=56.069267, lon.=26.462801, Alt.=107.387756m. Speed=2.916000m/h.</desc>
<speed>0.810000</speed>
</trkpt>
<trkpt lat="56.069279" lon="26.462805">
<ele>107.405334</ele>
<time>2010-08-29T12:10:14Z</time>
<desc>lat.=56.069279, lon.=26.462805, Alt.=107.405334m. Speed=2.772000m/h.</desc>
<speed>0.770000</speed>
</trkpt>
<trkpt lat="56.069290" lon="26.462812">
<ele>107.430725</ele>
<time>2010-08-29T12:10:15Z</time>
<desc>lat.=56.069290, lon.=26.462812, Alt.=107.430725m. Speed=2.628000m/h.</desc>
<speed>0.730000</speed>
</trkpt>
<trkpt lat="56.069298" lon="26.462818">
<ele>107.452209</ele>
<time>2010-08-29T12:10:16Z</time>
<desc>lat.=56.069298, lon.=26.462818, Alt.=107.452209m. Speed=2.556000m/h.</desc>
<speed>0.710000</speed>
</trkpt>
<trkpt lat="56.069309" lon="26.462816">
<ele>107.596741</ele>
<time>2010-08-29T12:10:17Z</time>
<desc>lat.=56.069309, lon.=26.462816, Alt.=107.596741m. Speed=2.268000m/h.</desc>
<speed>0.630000</speed>
</trkpt>
<trkpt lat="56.069321" lon="26.462820">
<ele>107.706116</ele>
<time>2010-08-29T12:10:18Z</time>
<desc>lat.=56.069321, lon.=26.462820, Alt.=107.706116m. Speed=2.232000m/h.</desc>
<speed>0.620000</speed>
</trkpt>
<trkpt lat="56.069324" lon="26.462820">
<ele>107.811584</ele>
<time>2010-08-29T12:10:19Z</time>
<desc>lat.=56.069324, lon.=26.462820, Alt.=107.811584m. Speed=2.016000m/h.</desc>
<speed>0.560000</speed>
</trkpt>
<trkpt lat="56.069328" lon="26.462824">
<ele>107.907288</ele>
<time>2010-08-29T12:10:20Z</time>
<desc>lat.=56.069328, lon.=26.462824, Alt.=107.907288m. Speed=1.584000m/h.</desc>
<speed>0.440000</speed>
</trkpt>
<trkpt lat="56.069340" lon="26.462831">
<ele>107.958069</ele>
<time>2010-08-29T12:10:21Z</time>
<desc>lat.=56.069340, lon.=26.462831, Alt.=107.958069m. Speed=1.692000m/h.</desc>
<speed>0.470000</speed>
</trkpt>
<trkpt lat="56.069344" lon="26.462835">
<ele>108.028381</ele>
<time>2010-08-29T12:10:22Z</time>
<desc>lat.=56.069344, lon.=26.462835, Alt.=108.028381m. Speed=1.332000m/h.</desc>
<speed>0.370000</speed>
</trkpt>
<trkpt lat="56.069355" lon="26.462845">
<ele>108.057678</ele>
<time>2010-08-29T12:10:23Z</time>
<desc>lat.=56.069355, lon.=26.462845, Alt.=108.057678m. Speed=1.368000m/h.</desc>
<speed>0.380000</speed>
</trkpt>
<trkpt lat="56.069363" lon="26.462854">
<ele>108.079163</ele>
<time>2010-08-29T12:10:24Z</time>
<desc>lat.=56.069363, lon.=26.462854, Alt.=108.079163m. Speed=1.404000m/h.</desc>
<speed>0.390000</speed>
</trkpt>
<trkpt lat="56.069374" lon="26.462868">
<ele>108.092834</ele>
<time>2010-08-29T12:10:25Z</time>
<desc>lat.=56.069374, lon.=26.462868, Alt.=108.092834m. Speed=1.404000m/h.</desc>
<speed>0.390000</speed>
</trkpt>
<trkpt lat="56.069378" lon="26.462875">
<ele>108.149475</ele>
<time>2010-08-29T12:10:26Z</time>
<desc>lat.=56.069378, lon.=26.462875, Alt.=108.149475m. Speed=1.152000m/h.</desc>
<speed>0.320000</speed>
</trkpt>
<trkpt lat="56.069382" lon="26.462883">
<ele>108.170959</ele>
<time>2010-08-29T12:10:27Z</time>
<desc>lat.=56.069382, lon.=26.462883, Alt.=108.170959m. Speed=1.116000m/h.</desc>
<speed>0.310000</speed>
</trkpt>
<trkpt lat="56.069393" lon="26.462891">
<ele>108.192444</ele>
<time>2010-08-29T12:10:28Z</time>
<desc>lat.=56.069393, lon.=26.462891, Alt.=108.192444m. Speed=1.332000m/h.</desc>
<speed>0.370000</speed>
</trkpt>
<trkpt lat="56.069408" lon="26.462894">
<ele>108.276428</ele>
<time>2010-08-29T12:10:29Z</time>
<desc>lat.=56.069408, lon.=26.462894, Alt.=108.276428m. Speed=1.332000m/h.</desc>
<speed>0.370000</speed>
</trkpt>
<trkpt lat="56.069412" lon="26.462887">
<ele>108.211975</ele>
<time>2010-08-29T12:10:30Z</time>
<desc>lat.=56.069412, lon.=26.462887, Alt.=108.211975m. Speed=0.900000m/h.</desc>
<speed>0.250000</speed>
</trkpt>
<trkpt lat="56.069424" lon="26.462883">
<ele>108.194397</ele>
<time>2010-08-29T12:10:31Z</time>
<desc>lat.=56.069424, lon.=26.462883, Alt.=108.194397m. Speed=0.936000m/h.</desc>
<speed>0.260000</speed>
</trkpt>
<trkpt lat="56.069443" lon="26.462875">
<ele>108.270569</ele>
<time>2010-08-29T12:10:32Z</time>
<desc>lat.=56.069443, lon.=26.462875, Alt.=108.270569m. Speed=1.296000m/h.</desc>
<speed>0.360000</speed>
</trkpt>
<trkpt lat="56.069450" lon="26.462881">
<ele>109.081116</ele>
<time>2010-08-29T12:10:33Z</time>
<desc>lat.=56.069450, lon.=26.462881, Alt.=109.081116m. Speed=1.008000m/h.</desc>
<speed>0.280000</speed>
</trkpt>
<trkpt lat="56.069458" lon="26.462896">
<ele>109.151428</ele>
<time>2010-08-29T12:10:34Z</time>
<desc>lat.=56.069458, lon.=26.462896, Alt.=109.151428m. Speed=1.476000m/h.</desc>
<speed>0.410000</speed>
</trkpt>
<trkpt lat="56.069469" lon="26.462904">
<ele>109.315491</ele>
<time>2010-08-29T12:10:35Z</time>
<desc>lat.=56.069469, lon.=26.462904, Alt.=109.315491m. Speed=1.332000m/h.</desc>
<speed>0.370000</speed>
</trkpt>
<trkpt lat="56.069473" lon="26.462910">
<ele>109.499084</ele>
<time>2010-08-29T12:10:36Z</time>
<desc>lat.=56.069473, lon.=26.462910, Alt.=109.499084m. Speed=1.152000m/h.</desc>
<speed>0.320000</speed>
</trkpt>
<trkpt lat="56.069477" lon="26.462912">
<ele>109.637756</ele>
<time>2010-08-29T12:10:37Z</time>
<desc>lat.=56.069477, lon.=26.462912, Alt.=109.637756m. Speed=0.648000m/h.</desc>
<speed>0.180000</speed>
</trkpt>
<trkpt lat="56.069481" lon="26.462915">
<ele>109.561584</ele>
<time>2010-08-29T12:10:38Z</time>
<desc>lat.=56.069481, lon.=26.462915, Alt.=109.561584m. Speed=0.972000m/h.</desc>
<speed>0.270000</speed>
</trkpt>
<trkpt lat="56.069492" lon="26.462917">
<ele>109.713928</ele>
<time>2010-08-29T12:10:39Z</time>
<desc>lat.=56.069492, lon.=26.462917, Alt.=109.713928m. Speed=1.116000m/h.</desc>
<speed>0.310000</speed>
</trkpt>
<trkpt lat="56.069508" lon="26.462906">
<ele>110.036194</ele>
<time>2010-08-29T12:10:40Z</time>
<desc>lat.=56.069508, lon.=26.462906, Alt.=110.036194m. Speed=1.332000m/h.</desc>
<speed>0.370000</speed>
</trkpt>
<trkpt lat="56.069523" lon="26.462917">
<ele>110.133850</ele>
<time>2010-08-29T12:10:41Z</time>
<desc>lat.=56.069523, lon.=26.462917, Alt.=110.133850m. Speed=2.304000m/h.</desc>
<speed>0.640000</speed>
</trkpt>
<trkpt lat="56.069542" lon="26.462910">
<ele>110.508850</ele>
<time>2010-08-29T12:10:42Z</time>
<desc>lat.=56.069542, lon.=26.462910, Alt.=110.508850m. Speed=3.168000m/h.</desc>
<speed>0.880000</speed>
</trkpt>
<trkpt lat="56.069546" lon="26.462912">
<ele>110.698303</ele>
<time>2010-08-29T12:10:43Z</time>
<desc>lat.=56.069546, lon.=26.462912, Alt.=110.698303m. Speed=2.484000m/h.</desc>
<speed>0.690000</speed>
</trkpt>
<trkpt lat="56.069550" lon="26.462914">
<ele>111.002991</ele>
<time>2010-08-29T12:10:44Z</time>
<desc>lat.=56.069550, lon.=26.462914, Alt.=111.002991m. Speed=2.304000m/h.</desc>
<speed>0.640000</speed>
</trkpt>
<trkpt lat="56.069557" lon="26.462923">
<ele>111.352600</ele>
<time>2010-08-29T12:10:45Z</time>
<desc>lat.=56.069557, lon.=26.462923, Alt.=111.352600m. Speed=2.052000m/h.</desc>
<speed>0.570000</speed>
</trkpt>
<trkpt lat="56.069565" lon="26.462931">
<ele>111.506897</ele>
<time>2010-08-29T12:10:46Z</time>
<desc>lat.=56.069565, lon.=26.462931, Alt.=111.506897m. Speed=2.376000m/h.</desc>
<speed>0.660000</speed>
</trkpt>
<trkpt lat="56.069569" lon="26.462923">
<ele>111.663147</ele>
<time>2010-08-29T12:10:47Z</time>
<desc>lat.=56.069569, lon.=26.462923, Alt.=111.663147m. Speed=2.160000m/h.</desc>
<speed>0.600000</speed>
</trkpt>
<trkpt lat="56.069576" lon="26.462925">
<ele>111.934631</ele>
<time>2010-08-29T12:10:48Z</time>
<desc>lat.=56.069576, lon.=26.462925, Alt.=111.934631m. Speed=2.232000m/h.</desc>
<speed>0.620000</speed>
</trkpt>
<trkpt lat="56.069580" lon="26.462927">
<ele>112.139709</ele>
<time>2010-08-29T12:10:49Z</time>
<desc>lat.=56.069580, lon.=26.462927, Alt.=112.139709m. Speed=2.016000m/h.</desc>
<speed>0.560000</speed>
</trkpt>
<trkpt lat="56.069584" lon="26.462929">
<ele>112.444397</ele>
<time>2010-08-29T12:10:50Z</time>
<desc>lat.=56.069584, lon.=26.462929, Alt.=112.444397m. Speed=1.944000m/h.</desc>
<speed>0.540000</speed>
</trkpt>
<trkpt lat="56.069607" lon="26.462948">
<ele>112.053772</ele>
<time>2010-08-29T12:10:51Z</time>
<desc>lat.=56.069607, lon.=26.462948, Alt.=112.053772m. Speed=3.636000m/h.</desc>
<speed>1.010000</speed>
</trkpt>
<trkpt lat="56.069618" lon="26.462950">
<ele>112.038147</ele>
<time>2010-08-29T12:10:52Z</time>
<desc>lat.=56.069618, lon.=26.462950, Alt.=112.038147m. Speed=3.384000m/h.</desc>
<speed>0.940000</speed>
</trkpt>
<trkpt lat="56.069622" lon="26.462955">
<ele>112.006897</ele>
<time>2010-08-29T12:10:53Z</time>
<desc>lat.=56.069622, lon.=26.462955, Alt.=112.006897m. Speed=3.024000m/h.</desc>
<speed>0.840000</speed>
</trkpt>
<trkpt lat="56.069633" lon="26.462961">
<ele>111.805725</ele>
<time>2010-08-29T12:10:54Z</time>
<desc>lat.=56.069633, lon.=26.462961, Alt.=111.805725m. Speed=3.024000m/h.</desc>
<speed>0.840000</speed>
</trkpt>
<trkpt lat="56.069637" lon="26.462969">
<ele>111.743225</ele>
<time>2010-08-29T12:10:55Z</time>
<desc>lat.=56.069637, lon.=26.462969, Alt.=111.743225m. Speed=2.160000m/h.</desc>
<speed>0.600000</speed>
</trkpt>
<trkpt lat="56.069641" lon="26.462975">
<ele>112.022522</ele>
<time>2010-08-29T12:10:56Z</time>
<desc>lat.=56.069641, lon.=26.462975, Alt.=112.022522m. Speed=1.656000m/h.</desc>
<speed>0.460000</speed>
</trkpt>
<trkpt lat="56.069641" lon="26.462975">
<ele>112.303772</ele>
<time>2010-08-29T12:10:57Z</time>
<desc>lat.=56.069641, lon.=26.462975, Alt.=112.303772m. Speed=1.440000m/h.</desc>
<speed>0.400000</speed>
</trkpt>
<trkpt lat="56.069641" lon="26.462975">
<ele>112.538147</ele>
<time>2010-08-29T12:10:58Z</time>
<desc>lat.=56.069641, lon.=26.462975, Alt.=112.538147m. Speed=1.404000m/h.</desc>
<speed>0.390000</speed>
</trkpt>
<trkpt lat="56.069645" lon="26.462982">
<ele>112.577209</ele>
<time>2010-08-29T12:10:59Z</time>
<desc>lat.=56.069645, lon.=26.462982, Alt.=112.577209m. Speed=1.512000m/h.</desc>
<speed>0.420000</speed>
</trkpt>
<trkpt lat="56.069645" lon="26.462982">
<ele>112.586975</ele>
<time>2010-08-29T12:11:00Z</time>
<desc>lat.=56.069645, lon.=26.462982, Alt.=112.586975m. Speed=1.152000m/h.</desc>
<speed>0.320000</speed>
</trkpt>
<trkpt lat="56.069622" lon="26.462965">
<ele>113.606506</ele>
<time>2010-08-29T12:11:01Z</time>
<desc>lat.=56.069622, lon.=26.462965, Alt.=113.606506m. Speed=0.396000m/h.</desc>
<speed>0.110000</speed>
</trkpt>
<trkpt lat="56.069618" lon="26.462942">
<ele>113.624084</ele>
<time>2010-08-29T12:11:02Z</time>
<desc>lat.=56.069618, lon.=26.462942, Alt.=113.624084m. Speed=0.360000m/h.</desc>
<speed>0.100000</speed>
</trkpt>
<trkpt lat="56.069630" lon="26.462927">
<ele>114.122131</ele>
<time>2010-08-29T12:11:03Z</time>
<desc>lat.=56.069630, lon.=26.462927, Alt.=114.122131m. Speed=0.432000m/h.</desc>
<speed>0.120000</speed>
</trkpt>
<trkpt lat="56.069641" lon="26.462927">
<ele>114.352600</ele>
<time>2010-08-29T12:11:04Z</time>
<desc>lat.=56.069641, lon.=26.462927, Alt.=114.352600m. Speed=0.396000m/h.</desc>
<speed>0.110000</speed>
</trkpt>
<trkpt lat="56.069645" lon="26.462927">
<ele>114.335022</ele>
<time>2010-08-29T12:11:05Z</time>
<desc>lat.=56.069645, lon.=26.462927, Alt.=114.335022m. Speed=0.360000m/h.</desc>
<speed>0.100000</speed>
</trkpt>
<trkpt lat="56.069645" lon="26.462927">
<ele>114.315491</ele>
<time>2010-08-29T12:11:06Z</time>
<desc>lat.=56.069645, lon.=26.462927, Alt.=114.315491m. Speed=0.432000m/h.</desc>
<speed>0.120000</speed>
</trkpt>
<trkpt lat="56.069645" lon="26.462927">
<ele>114.295959</ele>
<time>2010-08-29T12:11:07Z</time>
<desc>lat.=56.069645, lon.=26.462927, Alt.=114.295959m. Speed=0.360000m/h.</desc>
<speed>0.100000</speed>
</trkpt>
<trkpt lat="56.069645" lon="26.462929">
<ele>114.288147</ele>
<time>2010-08-29T12:11:08Z</time>
<desc>lat.=56.069645, lon.=26.462929, Alt.=114.288147m. Speed=0.576000m/h.</desc>
<speed>0.160000</speed>
</trkpt>
<trkpt lat="56.069649" lon="26.462929">
<ele>114.297913</ele>
<time>2010-08-29T12:11:09Z</time>
<desc>lat.=56.069649, lon.=26.462929, Alt.=114.297913m. Speed=0.396000m/h.</desc>
<speed>0.110000</speed>
</trkpt>
<trkpt lat="56.069649" lon="26.462929">
<ele>114.331116</ele>
<time>2010-08-29T12:11:10Z</time>
<desc>lat.=56.069649, lon.=26.462929, Alt.=114.331116m. Speed=0.468000m/h.</desc>
<speed>0.130000</speed>
</trkpt>
<trkpt lat="56.069649" lon="26.462929">
<ele>114.370178</ele>
<time>2010-08-29T12:11:11Z</time>
<desc>lat.=56.069649, lon.=26.462929, Alt.=114.370178m. Speed=0.324000m/h.</desc>
<speed>0.090000</speed>
</trkpt>
<trkpt lat="56.069653" lon="26.462929">
<ele>114.401428</ele>
<time>2010-08-29T12:11:12Z</time>
<desc>lat.=56.069653, lon.=26.462929, Alt.=114.401428m. Speed=1.764000m/h.</desc>
<speed>0.490000</speed>
</trkpt>
<trkpt lat="56.069656" lon="26.462929">
<ele>114.479553</ele>
<time>2010-08-29T12:11:13Z</time>
<desc>lat.=56.069656, lon.=26.462929, Alt.=114.479553m. Speed=0.432000m/h.</desc>
<speed>0.120000</speed>
</trkpt>
<trkpt lat="56.069660" lon="26.462929">
<ele>114.711975</ele>
<time>2010-08-29T12:11:14Z</time>
<desc>lat.=56.069660, lon.=26.462929, Alt.=114.711975m. Speed=0.792000m/h.</desc>
<speed>0.220000</speed>
</trkpt>
<trkpt lat="56.069668" lon="26.462927">
<ele>114.911194</ele>
<time>2010-08-29T12:11:15Z</time>
<desc>lat.=56.069668, lon.=26.462927, Alt.=114.911194m. Speed=1.116000m/h.</desc>
<speed>0.310000</speed>
</trkpt>
<trkpt lat="56.069668" lon="26.462927">
<ele>115.083069</ele>
<time>2010-08-29T12:11:16Z</time>
<desc>lat.=56.069668, lon.=26.462927, Alt.=115.083069m. Speed=0.900000m/h.</desc>
<speed>0.250000</speed>
</trkpt>
<trkpt lat="56.069668" lon="26.462925">
<ele>115.352600</ele>
<time>2010-08-29T12:11:17Z</time>
<desc>lat.=56.069668, lon.=26.462925, Alt.=115.352600m. Speed=1.080000m/h.</desc>
<speed>0.300000</speed>
</trkpt>
<trkpt lat="56.069672" lon="26.462923">
<ele>115.469788</ele>
<time>2010-08-29T12:11:18Z</time>
<desc>lat.=56.069672, lon.=26.462923, Alt.=115.469788m. Speed=1.008000m/h.</desc>
<speed>0.280000</speed>
</trkpt>
<trkpt lat="56.069679" lon="26.462923">
<ele>115.428772</ele>
<time>2010-08-29T12:11:19Z</time>
<desc>lat.=56.069679, lon.=26.462923, Alt.=115.428772m. Speed=1.116000m/h.</desc>
<speed>0.310000</speed>
</trkpt>
<trkpt lat="56.069691" lon="26.462919">
<ele>115.752991</ele>
<time>2010-08-29T12:11:20Z</time>
<desc>lat.=56.069691, lon.=26.462919, Alt.=115.752991m. Speed=0.864000m/h.</desc>
<speed>0.240000</speed>
</trkpt>
<trkpt lat="56.069691" lon="26.462914">
<ele>115.829163</ele>
<time>2010-08-29T12:11:21Z</time>
<desc>lat.=56.069691, lon.=26.462914, Alt.=115.829163m. Speed=0.864000m/h.</desc>
<speed>0.240000</speed>
</trkpt>
<trkpt lat="56.069695" lon="26.462921">
<ele>115.848694</ele>
<time>2010-08-29T12:11:22Z</time>
<desc>lat.=56.069695, lon.=26.462921, Alt.=115.848694m. Speed=0.576000m/h.</desc>
<speed>0.160000</speed>
</trkpt>
<trkpt lat="56.069698" lon="26.462919">
<ele>115.940491</ele>
<time>2010-08-29T12:11:23Z</time>
<desc>lat.=56.069698, lon.=26.462919, Alt.=115.940491m. Speed=0.540000m/h.</desc>
<speed>0.150000</speed>
</trkpt>
<trkpt lat="56.069698" lon="26.462919">
<ele>115.983459</ele>
<time>2010-08-29T12:11:24Z</time>
<desc>lat.=56.069698, lon.=26.462919, Alt.=115.983459m. Speed=0.576000m/h.</desc>
<speed>0.160000</speed>
</trkpt>
<trkpt lat="56.069698" lon="26.462919">
<ele>116.026428</ele>
<time>2010-08-29T12:11:25Z</time>
<desc>lat.=56.069698, lon.=26.462919, Alt.=116.026428m. Speed=0.612000m/h.</desc>
<speed>0.170000</speed>
</trkpt>
<trkpt lat="56.069702" lon="26.462919">
<ele>116.067444</ele>
<time>2010-08-29T12:11:26Z</time>
<desc>lat.=56.069702, lon.=26.462919, Alt.=116.067444m. Speed=0.756000m/h.</desc>
<speed>0.210000</speed>
</trkpt>
<trkpt lat="56.069702" lon="26.462921">
<ele>116.108459</ele>
<time>2010-08-29T12:11:27Z</time>
<desc>lat.=56.069702, lon.=26.462921, Alt.=116.108459m. Speed=1.440000m/h.</desc>
<speed>0.400000</speed>
</trkpt>
<trkpt lat="56.069710" lon="26.462919">
<ele>116.061584</ele>
<time>2010-08-29T12:11:28Z</time>
<desc>lat.=56.069710, lon.=26.462919, Alt.=116.061584m. Speed=1.368000m/h.</desc>
<speed>0.380000</speed>
</trkpt>
<trkpt lat="56.069721" lon="26.462929">
<ele>116.047913</ele>
<time>2010-08-29T12:11:29Z</time>
<desc>lat.=56.069721, lon.=26.462929, Alt.=116.047913m. Speed=1.584000m/h.</desc>
<speed>0.440000</speed>
</trkpt>
<trkpt lat="56.069729" lon="26.462931">
<ele>116.051819</ele>
<time>2010-08-29T12:11:30Z</time>
<desc>lat.=56.069729, lon.=26.462931, Alt.=116.051819m. Speed=1.692000m/h.</desc>
<speed>0.470000</speed>
</trkpt>
<trkpt lat="56.069733" lon="26.462936">
<ele>115.999084</ele>
<time>2010-08-29T12:11:31Z</time>
<desc>lat.=56.069733, lon.=26.462936, Alt.=115.999084m. Speed=1.692000m/h.</desc>
<speed>0.470000</speed>
</trkpt>
<trkpt lat="56.069744" lon="26.462940">
<ele>116.061584</ele>
<time>2010-08-29T12:11:32Z</time>
<desc>lat.=56.069744, lon.=26.462940, Alt.=116.061584m. Speed=1.908000m/h.</desc>
<speed>0.530000</speed>
</trkpt>
<trkpt lat="56.069752" lon="26.462944">
<ele>116.061584</ele>
<time>2010-08-29T12:11:33Z</time>
<desc>lat.=56.069752, lon.=26.462944, Alt.=116.061584m. Speed=1.944000m/h.</desc>
<speed>0.540000</speed>
</trkpt>
<trkpt lat="56.069759" lon="26.462948">
<ele>116.122131</ele>
<time>2010-08-29T12:11:34Z</time>
<desc>lat.=56.069759, lon.=26.462948, Alt.=116.122131m. Speed=2.124000m/h.</desc>
<speed>0.590000</speed>
</trkpt>
<trkpt lat="56.069767" lon="26.462950">
<ele>116.176819</ele>
<time>2010-08-29T12:11:35Z</time>
<desc>lat.=56.069767, lon.=26.462950, Alt.=116.176819m. Speed=2.088000m/h.</desc>
<speed>0.580000</speed>
</trkpt>
<trkpt lat="56.069775" lon="26.462950">
<ele>116.260803</ele>
<time>2010-08-29T12:11:36Z</time>
<desc>lat.=56.069775, lon.=26.462950, Alt.=116.260803m. Speed=2.052000m/h.</desc>
<speed>0.570000</speed>
</trkpt>
<trkpt lat="56.069782" lon="26.462955">
<ele>116.723694</ele>
<time>2010-08-29T12:11:37Z</time>
<desc>lat.=56.069782, lon.=26.462955, Alt.=116.723694m. Speed=2.160000m/h.</desc>
<speed>0.600000</speed>
</trkpt>
<trkpt lat="56.069798" lon="26.462957">
<ele>116.807678</ele>
<time>2010-08-29T12:11:38Z</time>
<desc>lat.=56.069798, lon.=26.462957, Alt.=116.807678m. Speed=2.448000m/h.</desc>
<speed>0.680000</speed>
</trkpt>
<trkpt lat="56.069805" lon="26.462959">
<ele>116.903381</ele>
<time>2010-08-29T12:11:39Z</time>
<desc>lat.=56.069805, lon.=26.462959, Alt.=116.903381m. Speed=2.196000m/h.</desc>
<speed>0.610000</speed>
</trkpt>
<trkpt lat="56.069813" lon="26.462973">
<ele>116.938538</ele>
<time>2010-08-29T12:11:40Z</time>
<desc>lat.=56.069813, lon.=26.462973, Alt.=116.938538m. Speed=2.124000m/h.</desc>
<speed>0.590000</speed>
</trkpt>
<trkpt lat="56.069832" lon="26.462992">
<ele>116.758850</ele>
<time>2010-08-29T12:11:41Z</time>
<desc>lat.=56.069832, lon.=26.462992, Alt.=116.758850m. Speed=2.484000m/h.</desc>
<speed>0.690000</speed>
</trkpt>
<trkpt lat="56.069839" lon="26.462999">
<ele>116.844788</ele>
<time>2010-08-29T12:11:42Z</time>
<desc>lat.=56.069839, lon.=26.462999, Alt.=116.844788m. Speed=2.448000m/h.</desc>
<speed>0.680000</speed>
</trkpt>
<trkpt lat="56.069847" lon="26.463001">
<ele>116.872131</ele>
<time>2010-08-29T12:11:43Z</time>
<desc>lat.=56.069847, lon.=26.463001, Alt.=116.872131m. Speed=2.124000m/h.</desc>
<speed>0.590000</speed>
</trkpt>
<trkpt lat="56.069851" lon="26.463011">
<ele>116.852600</ele>
<time>2010-08-29T12:11:44Z</time>
<desc>lat.=56.069851, lon.=26.463011, Alt.=116.852600m. Speed=2.052000m/h.</desc>
<speed>0.570000</speed>
</trkpt>
<trkpt lat="56.069859" lon="26.463003">
<ele>116.926819</ele>
<time>2010-08-29T12:11:45Z</time>
<desc>lat.=56.069859, lon.=26.463003, Alt.=116.926819m. Speed=1.800000m/h.</desc>
<speed>0.500000</speed>
</trkpt>
<trkpt lat="56.069870" lon="26.462996">
<ele>117.086975</ele>
<time>2010-08-29T12:11:46Z</time>
<desc>lat.=56.069870, lon.=26.462996, Alt.=117.086975m. Speed=1.584000m/h.</desc>
<speed>0.440000</speed>
</trkpt>
<trkpt lat="56.069881" lon="26.462996">
<ele>117.262756</ele>
<time>2010-08-29T12:11:47Z</time>
<desc>lat.=56.069881, lon.=26.462996, Alt.=117.262756m. Speed=1.728000m/h.</desc>
<speed>0.480000</speed>
</trkpt>
<trkpt lat="56.069889" lon="26.463003">
<ele>117.313538</ele>
<time>2010-08-29T12:11:48Z</time>
<desc>lat.=56.069889, lon.=26.463003, Alt.=117.313538m. Speed=1.908000m/h.</desc>
<speed>0.530000</speed>
</trkpt>
<trkpt lat="56.069897" lon="26.463009">
<ele>117.354553</ele>
<time>2010-08-29T12:11:49Z</time>
<desc>lat.=56.069897, lon.=26.463009, Alt.=117.354553m. Speed=1.620000m/h.</desc>
<speed>0.450000</speed>
</trkpt>
<trkpt lat="56.069908" lon="26.463009">
<ele>117.399475</ele>
<time>2010-08-29T12:11:50Z</time>
<desc>lat.=56.069908, lon.=26.463009, Alt.=117.399475m. Speed=1.656000m/h.</desc>
<speed>0.460000</speed>
</trkpt>
<trkpt lat="56.069916" lon="26.463009">
<ele>117.471741</ele>
<time>2010-08-29T12:11:51Z</time>
<desc>lat.=56.069916, lon.=26.463009, Alt.=117.471741m. Speed=1.908000m/h.</desc>
<speed>0.530000</speed>
</trkpt>
<trkpt lat="56.069923" lon="26.463011">
<ele>117.544006</ele>
<time>2010-08-29T12:11:52Z</time>
<desc>lat.=56.069923, lon.=26.463011, Alt.=117.544006m. Speed=1.620000m/h.</desc>
<speed>0.450000</speed>
</trkpt>
<trkpt lat="56.069931" lon="26.463009">
<ele>117.545959</ele>
<time>2010-08-29T12:11:53Z</time>
<desc>lat.=56.069931, lon.=26.463009, Alt.=117.545959m. Speed=1.872000m/h.</desc>
<speed>0.520000</speed>
</trkpt>
<trkpt lat="56.069935" lon="26.462994">
<ele>117.821350</ele>
<time>2010-08-29T12:11:54Z</time>
<desc>lat.=56.069935, lon.=26.462994, Alt.=117.821350m. Speed=1.872000m/h.</desc>
<speed>0.520000</speed>
</trkpt>
<trkpt lat="56.069962" lon="26.463013">
<ele>117.272522</ele>
<time>2010-08-29T12:11:55Z</time>
<desc>lat.=56.069962, lon.=26.463013, Alt.=117.272522m. Speed=1.656000m/h.</desc>
<speed>0.460000</speed>
</trkpt>
<trkpt lat="56.069977" lon="26.463030">
<ele>117.038147</ele>
<time>2010-08-29T12:11:56Z</time>
<desc>lat.=56.069977, lon.=26.463030, Alt.=117.038147m. Speed=1.692000m/h.</desc>
<speed>0.470000</speed>
</trkpt>
<trkpt lat="56.069984" lon="26.463039">
<ele>117.034241</ele>
<time>2010-08-29T12:11:57Z</time>
<desc>lat.=56.069984, lon.=26.463039, Alt.=117.034241m. Speed=1.800000m/h.</desc>
<speed>0.500000</speed>
</trkpt>
<trkpt lat="56.070007" lon="26.463051">
<ele>117.338928</ele>
<time>2010-08-29T12:11:58Z</time>
<desc>lat.=56.070007, lon.=26.463051, Alt.=117.338928m. Speed=2.556000m/h.</desc>
<speed>0.710000</speed>
</trkpt>
<trkpt lat="56.070019" lon="26.463053">
<ele>117.549866</ele>
<time>2010-08-29T12:11:59Z</time>
<desc>lat.=56.070019, lon.=26.463053, Alt.=117.549866m. Speed=2.124000m/h.</desc>
<speed>0.590000</speed>
</trkpt>
<trkpt lat="56.070023" lon="26.463062">
<ele>117.938538</ele>
<time>2010-08-29T12:12:00Z</time>
<desc>lat.=56.070023, lon.=26.463062, Alt.=117.938538m. Speed=2.124000m/h.</desc>
<speed>0.590000</speed>
</trkpt>
<trkpt lat="56.070030" lon="26.463070">
<ele>117.692444</ele>
<time>2010-08-29T12:12:01Z</time>
<desc>lat.=56.070030, lon.=26.463070, Alt.=117.692444m. Speed=1.908000m/h.</desc>
<speed>0.530000</speed>
</trkpt>
<trkpt lat="56.070038" lon="26.463076">
<ele>117.588928</ele>
<time>2010-08-29T12:12:02Z</time>
<desc>lat.=56.070038, lon.=26.463076, Alt.=117.588928m. Speed=2.088000m/h.</desc>
<speed>0.580000</speed>
</trkpt>
<trkpt lat="56.070045" lon="26.463081">
<ele>117.694397</ele>
<time>2010-08-29T12:12:03Z</time>
<desc>lat.=56.070045, lon.=26.463081, Alt.=117.694397m. Speed=1.908000m/h.</desc>
<speed>0.530000</speed>
</trkpt>
<trkpt lat="56.070053" lon="26.463087">
<ele>117.405334</ele>
<time>2010-08-29T12:12:04Z</time>
<desc>lat.=56.070053, lon.=26.463087, Alt.=117.405334m. Speed=2.304000m/h.</desc>
<speed>0.640000</speed>
</trkpt>
<trkpt lat="56.070057" lon="26.463091">
<ele>117.663147</ele>
<time>2010-08-29T12:12:05Z</time>
<desc>lat.=56.070057, lon.=26.463091, Alt.=117.663147m. Speed=1.836000m/h.</desc>
<speed>0.510000</speed>
</trkpt>
<trkpt lat="56.070061" lon="26.463093">
<ele>118.077209</ele>
<time>2010-08-29T12:12:06Z</time>
<desc>lat.=56.070061, lon.=26.463093, Alt.=118.077209m. Speed=1.692000m/h.</desc>
<speed>0.470000</speed>
</trkpt>
<trkpt lat="56.070072" lon="26.463081">
<ele>117.995178</ele>
<time>2010-08-29T12:12:07Z</time>
<desc>lat.=56.070072, lon.=26.463081, Alt.=117.995178m. Speed=1.440000m/h.</desc>
<speed>0.400000</speed>
</trkpt>
<trkpt lat="56.070080" lon="26.463087">
<ele>118.053772</ele>
<time>2010-08-29T12:12:08Z</time>
<desc>lat.=56.070080, lon.=26.463087, Alt.=118.053772m. Speed=1.692000m/h.</desc>
<speed>0.470000</speed>
</trkpt>
<trkpt lat="56.070091" lon="26.463089">
<ele>118.075256</ele>
<time>2010-08-29T12:12:09Z</time>
<desc>lat.=56.070091, lon.=26.463089, Alt.=118.075256m. Speed=1.800000m/h.</desc>
<speed>0.500000</speed>
</trkpt>
<trkpt lat="56.070099" lon="26.463079">
<ele>118.030334</ele>
<time>2010-08-29T12:12:10Z</time>
<desc>lat.=56.070099, lon.=26.463079, Alt.=118.030334m. Speed=1.764000m/h.</desc>
<speed>0.490000</speed>
</trkpt>
<trkpt lat="56.070103" lon="26.463079">
<ele>118.024475</ele>
<time>2010-08-29T12:12:11Z</time>
<desc>lat.=56.070103, lon.=26.463079, Alt.=118.024475m. Speed=1.440000m/h.</desc>
<speed>0.400000</speed>
</trkpt>
<trkpt lat="56.070107" lon="26.463079">
<ele>118.038147</ele>
<time>2010-08-29T12:12:12Z</time>
<desc>lat.=56.070107, lon.=26.463079, Alt.=118.038147m. Speed=1.080000m/h.</desc>
<speed>0.300000</speed>
</trkpt>
<trkpt lat="56.070107" lon="26.463078">
<ele>118.008850</ele>
<time>2010-08-29T12:12:13Z</time>
<desc>lat.=56.070107, lon.=26.463078, Alt.=118.008850m. Speed=0.396000m/h.</desc>
<speed>0.110000</speed>
</trkpt>
<trkpt lat="56.070110" lon="26.463078">
<ele>118.075256</ele>
<time>2010-08-29T12:12:14Z</time>
<desc>lat.=56.070110, lon.=26.463078, Alt.=118.075256m. Speed=0.540000m/h.</desc>
<speed>0.150000</speed>
</trkpt>
<trkpt lat="56.070114" lon="26.463085">
<ele>118.018616</ele>
<time>2010-08-29T12:12:15Z</time>
<desc>lat.=56.070114, lon.=26.463085, Alt.=118.018616m. Speed=0.504000m/h.</desc>
<speed>0.140000</speed>
</trkpt>
<trkpt lat="56.070118" lon="26.463093">
<ele>118.514709</ele>
<time>2010-08-29T12:12:16Z</time>
<desc>lat.=56.070118, lon.=26.463093, Alt.=118.514709m. Speed=1.044000m/h.</desc>
<speed>0.290000</speed>
</trkpt>
<trkpt lat="56.070122" lon="26.463097">
<ele>118.512756</ele>
<time>2010-08-29T12:12:17Z</time>
<desc>lat.=56.070122, lon.=26.463097, Alt.=118.512756m. Speed=1.224000m/h.</desc>
<speed>0.340000</speed>
</trkpt>
<trkpt lat="56.070118" lon="26.463104">
<ele>118.544006</ele>
<time>2010-08-29T12:12:18Z</time>
<desc>lat.=56.070118, lon.=26.463104, Alt.=118.544006m. Speed=1.116000m/h.</desc>
<speed>0.310000</speed>
</trkpt>
<trkpt lat="56.070118" lon="26.463108">
<ele>118.807678</ele>
<time>2010-08-29T12:12:19Z</time>
<desc>lat.=56.070118, lon.=26.463108, Alt.=118.807678m. Speed=0.936000m/h.</desc>
<speed>0.260000</speed>
</trkpt>
<trkpt lat="56.070118" lon="26.463116">
<ele>118.833069</ele>
<time>2010-08-29T12:12:20Z</time>
<desc>lat.=56.070118, lon.=26.463116, Alt.=118.833069m. Speed=0.828000m/h.</desc>
<speed>0.230000</speed>
</trkpt>
<trkpt lat="56.070122" lon="26.463127">
<ele>119.020569</ele>
<time>2010-08-29T12:12:21Z</time>
<desc>lat.=56.070122, lon.=26.463127, Alt.=119.020569m. Speed=0.648000m/h.</desc>
<speed>0.180000</speed>
</trkpt>
<trkpt lat="56.070122" lon="26.463133">
<ele>119.044006</ele>
<time>2010-08-29T12:12:22Z</time>
<desc>lat.=56.070122, lon.=26.463133, Alt.=119.044006m. Speed=0.684000m/h.</desc>
<speed>0.190000</speed>
</trkpt>
<trkpt lat="56.070122" lon="26.463137">
<ele>119.038147</ele>
<time>2010-08-29T12:12:23Z</time>
<desc>lat.=56.070122, lon.=26.463137, Alt.=119.038147m. Speed=0.756000m/h.</desc>
<speed>0.210000</speed>
</trkpt>
<trkpt lat="56.070126" lon="26.463139">
<ele>119.032288</ele>
<time>2010-08-29T12:12:24Z</time>
<desc>lat.=56.070126, lon.=26.463139, Alt.=119.032288m. Speed=0.972000m/h.</desc>
<speed>0.270000</speed>
</trkpt>
<trkpt lat="56.070126" lon="26.463142">
<ele>119.044006</ele>
<time>2010-08-29T12:12:25Z</time>
<desc>lat.=56.070126, lon.=26.463142, Alt.=119.044006m. Speed=0.972000m/h.</desc>
<speed>0.270000</speed>
</trkpt>
<trkpt lat="56.070126" lon="26.463146">
<ele>119.053772</ele>
<time>2010-08-29T12:12:26Z</time>
<desc>lat.=56.070126, lon.=26.463146, Alt.=119.053772m. Speed=0.540000m/h.</desc>
<speed>0.150000</speed>
</trkpt>
<trkpt lat="56.070126" lon="26.463150">
<ele>119.057678</ele>
<time>2010-08-29T12:12:27Z</time>
<desc>lat.=56.070126, lon.=26.463150, Alt.=119.057678m. Speed=0.828000m/h.</desc>
<speed>0.230000</speed>
</trkpt>
<trkpt lat="56.070122" lon="26.463150">
<ele>119.067444</ele>
<time>2010-08-29T12:12:28Z</time>
<desc>lat.=56.070122, lon.=26.463150, Alt.=119.067444m. Speed=0.864000m/h.</desc>
<speed>0.240000</speed>
</trkpt>
<trkpt lat="56.070118" lon="26.463150">
<ele>119.069397</ele>
<time>2010-08-29T12:12:29Z</time>
<desc>lat.=56.070118, lon.=26.463150, Alt.=119.069397m. Speed=0.972000m/h.</desc>
<speed>0.270000</speed>
</trkpt>
<trkpt lat="56.070118" lon="26.463152">
<ele>119.071350</ele>
<time>2010-08-29T12:12:30Z</time>
<desc>lat.=56.070118, lon.=26.463152, Alt.=119.071350m. Speed=1.188000m/h.</desc>
<speed>0.330000</speed>
</trkpt>
<trkpt lat="56.070107" lon="26.463188">
<ele>118.952209</ele>
<time>2010-08-29T12:12:31Z</time>
<desc>lat.=56.070107, lon.=26.463188, Alt.=118.952209m. Speed=0.720000m/h.</desc>
<speed>0.200000</speed>
</trkpt>
<trkpt lat="56.070099" lon="26.463173">
<ele>118.754944</ele>
<time>2010-08-29T12:12:32Z</time>
<desc>lat.=56.070099, lon.=26.463173, Alt.=118.754944m. Speed=0.972000m/h.</desc>
<speed>0.270000</speed>
</trkpt>
<trkpt lat="56.070087" lon="26.463158">
<ele>118.303772</ele>
<time>2010-08-29T12:12:33Z</time>
<desc>lat.=56.070087, lon.=26.463158, Alt.=118.303772m. Speed=1.944000m/h.</desc>
<speed>0.540000</speed>
</trkpt>
<trkpt lat="56.070080" lon="26.463152">
<ele>118.460022</ele>
<time>2010-08-29T12:12:34Z</time>
<desc>lat.=56.070080, lon.=26.463152, Alt.=118.460022m. Speed=1.872000m/h.</desc>
<speed>0.520000</speed>
</trkpt>
<trkpt lat="56.070076" lon="26.463142">
<ele>118.211975</ele>
<time>2010-08-29T12:12:35Z</time>
<desc>lat.=56.070076, lon.=26.463142, Alt.=118.211975m. Speed=1.764000m/h.</desc>
<speed>0.490000</speed>
</trkpt>
<trkpt lat="56.070065" lon="26.463144">
<ele>118.592834</ele>
<time>2010-08-29T12:12:36Z</time>
<desc>lat.=56.070065, lon.=26.463144, Alt.=118.592834m. Speed=2.052000m/h.</desc>
<speed>0.570000</speed>
</trkpt>
<trkpt lat="56.070061" lon="26.463160">
<ele>119.069397</ele>
<time>2010-08-29T12:12:37Z</time>
<desc>lat.=56.070061, lon.=26.463160, Alt.=119.069397m. Speed=1.728000m/h.</desc>
<speed>0.480000</speed>
</trkpt>
<trkpt lat="56.070061" lon="26.463163">
<ele>119.118225</ele>
<time>2010-08-29T12:12:38Z</time>
<desc>lat.=56.070061, lon.=26.463163, Alt.=119.118225m. Speed=1.512000m/h.</desc>
<speed>0.420000</speed>
</trkpt>
<trkpt lat="56.070068" lon="26.463175">
<ele>119.260803</ele>
<time>2010-08-29T12:12:39Z</time>
<desc>lat.=56.070068, lon.=26.463175, Alt.=119.260803m. Speed=0.972000m/h.</desc>
<speed>0.270000</speed>
</trkpt>
<trkpt lat="56.070068" lon="26.463175">
<ele>119.252991</ele>
<time>2010-08-29T12:12:40Z</time>
<desc>lat.=56.070068, lon.=26.463175, Alt.=119.252991m. Speed=0.180000m/h.</desc>
<speed>0.050000</speed>
</trkpt>
<trkpt lat="56.070068" lon="26.463177">
<ele>119.303772</ele>
<time>2010-08-29T12:12:41Z</time>
<desc>lat.=56.070068, lon.=26.463177, Alt.=119.303772m. Speed=0.936000m/h.</desc>
<speed>0.260000</speed>
</trkpt>
<trkpt lat="56.070068" lon="26.463184">
<ele>119.352600</ele>
<time>2010-08-29T12:12:42Z</time>
<desc>lat.=56.070068, lon.=26.463184, Alt.=119.352600m. Speed=0.684000m/h.</desc>
<speed>0.190000</speed>
</trkpt>
<trkpt lat="56.070072" lon="26.463184">
<ele>119.338928</ele>
<time>2010-08-29T12:12:43Z</time>
<desc>lat.=56.070072, lon.=26.463184, Alt.=119.338928m. Speed=1.116000m/h.</desc>
<speed>0.310000</speed>
</trkpt>
<trkpt lat="56.070076" lon="26.463198">
<ele>119.231506</ele>
<time>2010-08-29T12:12:44Z</time>
<desc>lat.=56.070076, lon.=26.463198, Alt.=119.231506m. Speed=1.332000m/h.</desc>
<speed>0.370000</speed>
</trkpt>
<trkpt lat="56.070080" lon="26.463207">
<ele>119.221741</ele>
<time>2010-08-29T12:12:45Z</time>
<desc>lat.=56.070080, lon.=26.463207, Alt.=119.221741m. Speed=1.152000m/h.</desc>
<speed>0.320000</speed>
</trkpt>
<trkpt lat="56.070087" lon="26.463221">
<ele>119.389709</ele>
<time>2010-08-29T12:12:46Z</time>
<desc>lat.=56.070087, lon.=26.463221, Alt.=119.389709m. Speed=1.260000m/h.</desc>
<speed>0.350000</speed>
</trkpt>
<trkpt lat="56.070091" lon="26.463224">
<ele>119.292053</ele>
<time>2010-08-29T12:12:47Z</time>
<desc>lat.=56.070091, lon.=26.463224, Alt.=119.292053m. Speed=0.900000m/h.</desc>
<speed>0.250000</speed>
</trkpt>
<trkpt lat="56.070087" lon="26.463230">
<ele>119.336975</ele>
<time>2010-08-29T12:12:48Z</time>
<desc>lat.=56.070087, lon.=26.463230, Alt.=119.336975m. Speed=0.756000m/h.</desc>
<speed>0.210000</speed>
</trkpt>
<trkpt lat="56.070087" lon="26.463230">
<ele>119.420959</ele>
<time>2010-08-29T12:12:49Z</time>
<desc>lat.=56.070087, lon.=26.463230, Alt.=119.420959m. Speed=0.864000m/h.</desc>
<speed>0.240000</speed>
</trkpt>
<trkpt lat="56.070091" lon="26.463251">
<ele>119.538147</ele>
<time>2010-08-29T12:12:50Z</time>
<desc>lat.=56.070091, lon.=26.463251, Alt.=119.538147m. Speed=0.576000m/h.</desc>
<speed>0.160000</speed>
</trkpt>
<trkpt lat="56.070091" lon="26.463255">
<ele>119.534241</ele>
<time>2010-08-29T12:12:51Z</time>
<desc>lat.=56.070091, lon.=26.463255, Alt.=119.534241m. Speed=0.432000m/h.</desc>
<speed>0.120000</speed>
</trkpt>
<trkpt lat="56.070091" lon="26.463257">
<ele>119.530334</ele>
<time>2010-08-29T12:12:52Z</time>
<desc>lat.=56.070091, lon.=26.463257, Alt.=119.530334m. Speed=0.288000m/h.</desc>
<speed>0.080000</speed>
</trkpt>
<trkpt lat="56.070091" lon="26.463259">
<ele>119.532288</ele>
<time>2010-08-29T12:12:53Z</time>
<desc>lat.=56.070091, lon.=26.463259, Alt.=119.532288m. Speed=0.036000m/h.</desc>
<speed>0.010000</speed>
</trkpt>
<trkpt lat="56.070091" lon="26.463259">
<ele>119.530334</ele>
<time>2010-08-29T12:12:54Z</time>
<desc>lat.=56.070091, lon.=26.463259, Alt.=119.530334m. Speed=0.000000m/h.</desc>
<speed>0.000000</speed>
</trkpt>
<trkpt lat="56.070091" lon="26.463259">
<ele>119.536194</ele>
<time>2010-08-29T12:12:55Z</time>
<desc>lat.=56.070091, lon.=26.463259, Alt.=119.536194m. Speed=0.036000m/h.</desc>
<speed>0.010000</speed>
</trkpt>
<trkpt lat="56.070087" lon="26.463259">
<ele>119.538147</ele>
<time>2010-08-29T12:12:56Z</time>
<desc>lat.=56.070087, lon.=26.463259, Alt.=119.538147m. Speed=0.036000m/h.</desc>
<speed>0.010000</speed>
</trkpt>
<trkpt lat="56.070091" lon="26.463259">
<ele>119.522522</ele>
<time>2010-08-29T12:12:57Z</time>
<desc>lat.=56.070091, lon.=26.463259, Alt.=119.522522m. Speed=0.036000m/h.</desc>
<speed>0.010000</speed>
</trkpt>
<trkpt lat="56.070087" lon="26.463259">
<ele>119.532288</ele>
<time>2010-08-29T12:12:58Z</time>
<desc>lat.=56.070087, lon.=26.463259, Alt.=119.532288m. Speed=0.072000m/h.</desc>
<speed>0.020000</speed>
</trkpt>
<trkpt lat="56.070087" lon="26.463259">
<ele>119.536194</ele>
<time>2010-08-29T12:12:59Z</time>
<desc>lat.=56.070087, lon.=26.463259, Alt.=119.536194m. Speed=0.540000m/h.</desc>
<speed>0.150000</speed>
</trkpt>
<trkpt lat="56.070091" lon="26.463261">
<ele>119.524475</ele>
<time>2010-08-29T12:13:00Z</time>
<desc>lat.=56.070091, lon.=26.463261, Alt.=119.524475m. Speed=0.396000m/h.</desc>
<speed>0.110000</speed>
</trkpt>
<trkpt lat="56.070091" lon="26.463263">
<ele>119.512756</ele>
<time>2010-08-29T12:13:01Z</time>
<desc>lat.=56.070091, lon.=26.463263, Alt.=119.512756m. Speed=0.432000m/h.</desc>
<speed>0.120000</speed>
</trkpt>
<trkpt lat="56.070091" lon="26.463264">
<ele>119.501038</ele>
<time>2010-08-29T12:13:02Z</time>
<desc>lat.=56.070091, lon.=26.463264, Alt.=119.501038m. Speed=0.396000m/h.</desc>
<speed>0.110000</speed>
</trkpt>
<trkpt lat="56.070091" lon="26.463264">
<ele>119.491272</ele>
<time>2010-08-29T12:13:03Z</time>
<desc>lat.=56.070091, lon.=26.463264, Alt.=119.491272m. Speed=0.288000m/h.</desc>
<speed>0.080000</speed>
</trkpt>
<trkpt lat="56.070091" lon="26.463264">
<ele>119.485413</ele>
<time>2010-08-29T12:13:04Z</time>
<desc>lat.=56.070091, lon.=26.463264, Alt.=119.485413m. Speed=0.432000m/h.</desc>
<speed>0.120000</speed>
</trkpt>
<trkpt lat="56.070095" lon="26.463264">
<ele>119.479553</ele>
<time>2010-08-29T12:13:05Z</time>
<desc>lat.=56.070095, lon.=26.463264, Alt.=119.479553m. Speed=0.684000m/h.</desc>
<speed>0.190000</speed>
</trkpt>
<trkpt lat="56.070095" lon="26.463264">
<ele>119.475647</ele>
<time>2010-08-29T12:13:06Z</time>
<desc>lat.=56.070095, lon.=26.463264, Alt.=119.475647m. Speed=0.540000m/h.</desc>
<speed>0.150000</speed>
</trkpt>
<trkpt lat="56.070095" lon="26.463263">
<ele>119.504944</ele>
<time>2010-08-29T12:13:07Z</time>
<desc>lat.=56.070095, lon.=26.463263, Alt.=119.504944m. Speed=0.072000m/h.</desc>
<speed>0.020000</speed>
</trkpt>
<trkpt lat="56.070095" lon="26.463263">
<ele>119.530334</ele>
<time>2010-08-29T12:13:08Z</time>
<desc>lat.=56.070095, lon.=26.463263, Alt.=119.530334m. Speed=0.396000m/h.</desc>
<speed>0.110000</speed>
</trkpt>
<trkpt lat="56.070095" lon="26.463261">
<ele>119.565491</ele>
<time>2010-08-29T12:13:09Z</time>
<desc>lat.=56.070095, lon.=26.463261, Alt.=119.565491m. Speed=0.180000m/h.</desc>
<speed>0.050000</speed>
</trkpt>
<trkpt lat="56.070095" lon="26.463259">
<ele>119.596741</ele>
<time>2010-08-29T12:13:10Z</time>
<desc>lat.=56.070095, lon.=26.463259, Alt.=119.596741m. Speed=0.216000m/h.</desc>
<speed>0.060000</speed>
</trkpt>
<trkpt lat="56.070099" lon="26.463259">
<ele>119.626038</ele>
<time>2010-08-29T12:13:11Z</time>
<desc>lat.=56.070099, lon.=26.463259, Alt.=119.626038m. Speed=0.288000m/h.</desc>
<speed>0.080000</speed>
</trkpt>
<trkpt lat="56.070099" lon="26.463259">
<ele>119.667053</ele>
<time>2010-08-29T12:13:12Z</time>
<desc>lat.=56.070099, lon.=26.463259, Alt.=119.667053m. Speed=0.720000m/h.</desc>
<speed>0.200000</speed>
</trkpt>
<trkpt lat="56.070099" lon="26.463257">
<ele>119.706116</ele>
<time>2010-08-29T12:13:13Z</time>
<desc>lat.=56.070099, lon.=26.463257, Alt.=119.706116m. Speed=1.008000m/h.</desc>
<speed>0.280000</speed>
</trkpt>
<trkpt lat="56.070103" lon="26.463257">
<ele>119.749084</ele>
<time>2010-08-29T12:13:14Z</time>
<desc>lat.=56.070103, lon.=26.463257, Alt.=119.749084m. Speed=1.044000m/h.</desc>
<speed>0.290000</speed>
</trkpt>
<trkpt lat="56.070107" lon="26.463257">
<ele>119.805725</ele>
<time>2010-08-29T12:13:15Z</time>
<desc>lat.=56.070107, lon.=26.463257, Alt.=119.805725m. Speed=1.116000m/h.</desc>
<speed>0.310000</speed>
</trkpt>
<trkpt lat="56.070114" lon="26.463261">
<ele>119.895569</ele>
<time>2010-08-29T12:13:16Z</time>
<desc>lat.=56.070114, lon.=26.463261, Alt.=119.895569m. Speed=1.404000m/h.</desc>
<speed>0.390000</speed>
</trkpt>
<trkpt lat="56.070118" lon="26.463264">
<ele>119.997131</ele>
<time>2010-08-29T12:13:17Z</time>
<desc>lat.=56.070118, lon.=26.463264, Alt.=119.997131m. Speed=1.620000m/h.</desc>
<speed>0.450000</speed>
</trkpt>
<trkpt lat="56.070129" lon="26.463270">
<ele>120.102600</ele>
<time>2010-08-29T12:13:18Z</time>
<desc>lat.=56.070129, lon.=26.463270, Alt.=120.102600m. Speed=1.656000m/h.</desc>
<speed>0.460000</speed>
</trkpt>
<trkpt lat="56.070141" lon="26.463276">
<ele>120.198303</ele>
<time>2010-08-29T12:13:19Z</time>
<desc>lat.=56.070141, lon.=26.463276, Alt.=120.198303m. Speed=1.800000m/h.</desc>
<speed>0.500000</speed>
</trkpt>
<trkpt lat="56.070148" lon="26.463282">
<ele>120.311584</ele>
<time>2010-08-29T12:13:20Z</time>
<desc>lat.=56.070148, lon.=26.463282, Alt.=120.311584m. Speed=1.944000m/h.</desc>
<speed>0.540000</speed>
</trkpt>
<trkpt lat="56.070171" lon="26.463295">
<ele>120.483459</ele>
<time>2010-08-29T12:13:21Z</time>
<desc>lat.=56.070171, lon.=26.463295, Alt.=120.483459m. Speed=2.412000m/h.</desc>
<speed>0.670000</speed>
</trkpt>
<trkpt lat="56.070190" lon="26.463305">
<ele>120.592834</ele>
<time>2010-08-29T12:13:22Z</time>
<desc>lat.=56.070190, lon.=26.463305, Alt.=120.592834m. Speed=2.736000m/h.</desc>
<speed>0.760000</speed>
</trkpt>
<trkpt lat="56.070206" lon="26.463316">
<ele>120.725647</ele>
<time>2010-08-29T12:13:23Z</time>
<desc>lat.=56.070206, lon.=26.463316, Alt.=120.725647m. Speed=2.988000m/h.</desc>
<speed>0.830000</speed>
</trkpt>
<trkpt lat="56.070221" lon="26.463326">
<ele>120.856506</ele>
<time>2010-08-29T12:13:24Z</time>
<desc>lat.=56.070221, lon.=26.463326, Alt.=120.856506m. Speed=2.916000m/h.</desc>
<speed>0.810000</speed>
</trkpt>
<trkpt lat="56.070232" lon="26.463335">
<ele>120.989319</ele>
<time>2010-08-29T12:13:25Z</time>
<desc>lat.=56.070232, lon.=26.463335, Alt.=120.989319m. Speed=2.628000m/h.</desc>
<speed>0.730000</speed>
</trkpt>
<trkpt lat="56.070244" lon="26.463341">
<ele>121.114319</ele>
<time>2010-08-29T12:13:26Z</time>
<desc>lat.=56.070244, lon.=26.463341, Alt.=121.114319m. Speed=2.664000m/h.</desc>
<speed>0.740000</speed>
</trkpt>
<trkpt lat="56.070259" lon="26.463352">
<ele>121.219788</ele>
<time>2010-08-29T12:13:27Z</time>
<desc>lat.=56.070259, lon.=26.463352, Alt.=121.219788m. Speed=2.376000m/h.</desc>
<speed>0.660000</speed>
</trkpt>
<trkpt lat="56.070271" lon="26.463360">
<ele>121.323303</ele>
<time>2010-08-29T12:13:28Z</time>
<desc>lat.=56.070271, lon.=26.463360, Alt.=121.323303m. Speed=2.304000m/h.</desc>
<speed>0.640000</speed>
</trkpt>
<trkpt lat="56.070282" lon="26.463367">
<ele>121.461975</ele>
<time>2010-08-29T12:13:29Z</time>
<desc>lat.=56.070282, lon.=26.463367, Alt.=121.461975m. Speed=1.944000m/h.</desc>
<speed>0.540000</speed>
</trkpt>
<trkpt lat="56.070297" lon="26.463377">
<ele>121.610413</ele>
<time>2010-08-29T12:13:30Z</time>
<desc>lat.=56.070297, lon.=26.463377, Alt.=121.610413m. Speed=1.980000m/h.</desc>
<speed>0.550000</speed>
</trkpt>
<trkpt lat="56.070305" lon="26.463383">
<ele>121.751038</ele>
<time>2010-08-29T12:13:31Z</time>
<desc>lat.=56.070305, lon.=26.463383, Alt.=121.751038m. Speed=1.764000m/h.</desc>
<speed>0.490000</speed>
</trkpt>
<trkpt lat="56.070313" lon="26.463387">
<ele>121.901428</ele>
<time>2010-08-29T12:13:32Z</time>
<desc>lat.=56.070313, lon.=26.463387, Alt.=121.901428m. Speed=1.692000m/h.</desc>
<speed>0.470000</speed>
</trkpt>
<trkpt lat="56.070316" lon="26.463388">
<ele>122.049866</ele>
<time>2010-08-29T12:13:33Z</time>
<desc>lat.=56.070316, lon.=26.463388, Alt.=122.049866m. Speed=1.476000m/h.</desc>
<speed>0.410000</speed>
</trkpt>
<trkpt lat="56.070328" lon="26.463394">
<ele>122.247131</ele>
<time>2010-08-29T12:13:34Z</time>
<desc>lat.=56.070328, lon.=26.463394, Alt.=122.247131m. Speed=1.476000m/h.</desc>
<speed>0.410000</speed>
</trkpt>
<trkpt lat="56.070335" lon="26.463396">
<ele>122.424866</ele>
<time>2010-08-29T12:13:35Z</time>
<desc>lat.=56.070335, lon.=26.463396, Alt.=122.424866m. Speed=1.476000m/h.</desc>
<speed>0.410000</speed>
</trkpt>
<trkpt lat="56.070351" lon="26.463402">
<ele>122.647522</ele>
<time>2010-08-29T12:13:36Z</time>
<desc>lat.=56.070351, lon.=26.463402, Alt.=122.647522m. Speed=1.692000m/h.</desc>
<speed>0.470000</speed>
</trkpt>
<trkpt lat="56.070354" lon="26.463404">
<ele>122.852600</ele>
<time>2010-08-29T12:13:37Z</time>
<desc>lat.=56.070354, lon.=26.463404, Alt.=122.852600m. Speed=1.584000m/h.</desc>
<speed>0.440000</speed>
</trkpt>
<trkpt lat="56.070358" lon="26.463404">
<ele>123.053772</ele>
<time>2010-08-29T12:13:38Z</time>
<desc>lat.=56.070358, lon.=26.463404, Alt.=123.053772m. Speed=1.476000m/h.</desc>
<speed>0.410000</speed>
</trkpt>
<trkpt lat="56.070370" lon="26.463408">
<ele>123.239319</ele>
<time>2010-08-29T12:13:39Z</time>
<desc>lat.=56.070370, lon.=26.463408, Alt.=123.239319m. Speed=1.476000m/h.</desc>
<speed>0.410000</speed>
</trkpt>
<trkpt lat="56.070381" lon="26.463413">
<ele>123.401428</ele>
<time>2010-08-29T12:13:40Z</time>
<desc>lat.=56.070381, lon.=26.463413, Alt.=123.401428m. Speed=1.656000m/h.</desc>
<speed>0.460000</speed>
</trkpt>
<trkpt lat="56.070389" lon="26.463419">
<ele>123.487366</ele>
<time>2010-08-29T12:13:41Z</time>
<desc>lat.=56.070389, lon.=26.463419, Alt.=123.487366m. Speed=1.620000m/h.</desc>
<speed>0.450000</speed>
</trkpt>
<trkpt lat="56.070393" lon="26.463421">
<ele>123.659241</ele>
<time>2010-08-29T12:13:42Z</time>
<desc>lat.=56.070393, lon.=26.463421, Alt.=123.659241m. Speed=1.548000m/h.</desc>
<speed>0.430000</speed>
</trkpt>
<trkpt lat="56.070400" lon="26.463427">
<ele>123.766663</ele>
<time>2010-08-29T12:13:43Z</time>
<desc>lat.=56.070400, lon.=26.463427, Alt.=123.766663m. Speed=1.548000m/h.</desc>
<speed>0.430000</speed>
</trkpt>
<trkpt lat="56.070404" lon="26.463430">
<ele>123.899475</ele>
<time>2010-08-29T12:13:44Z</time>
<desc>lat.=56.070404, lon.=26.463430, Alt.=123.899475m. Speed=1.548000m/h.</desc>
<speed>0.430000</speed>
</trkpt>
<trkpt lat="56.070412" lon="26.463436">
<ele>124.034241</ele>
<time>2010-08-29T12:13:45Z</time>
<desc>lat.=56.070412, lon.=26.463436, Alt.=124.034241m. Speed=1.620000m/h.</desc>
<speed>0.450000</speed>
</trkpt>
<trkpt lat="56.070423" lon="26.463444">
<ele>124.172913</ele>
<time>2010-08-29T12:13:46Z</time>
<desc>lat.=56.070423, lon.=26.463444, Alt.=124.172913m. Speed=1.656000m/h.</desc>
<speed>0.460000</speed>
</trkpt>
<trkpt lat="56.070427" lon="26.463444">
<ele>124.315491</ele>
<time>2010-08-29T12:13:47Z</time>
<desc>lat.=56.070427, lon.=26.463444, Alt.=124.315491m. Speed=1.548000m/h.</desc>
<speed>0.430000</speed>
</trkpt>
<trkpt lat="56.070431" lon="26.463449">
<ele>124.483459</ele>
<time>2010-08-29T12:13:48Z</time>
<desc>lat.=56.070431, lon.=26.463449, Alt.=124.483459m. Speed=1.584000m/h.</desc>
<speed>0.440000</speed>
</trkpt>
<trkpt lat="56.070427" lon="26.463444">
<ele>124.698303</ele>
<time>2010-08-29T12:13:49Z</time>
<desc>lat.=56.070427, lon.=26.463444, Alt.=124.698303m. Speed=1.332000m/h.</desc>
<speed>0.370000</speed>
</trkpt>
<trkpt lat="56.070419" lon="26.463434">
<ele>124.922913</ele>
<time>2010-08-29T12:13:50Z</time>
<desc>lat.=56.070419, lon.=26.463434, Alt.=124.922913m. Speed=1.080000m/h.</desc>
<speed>0.300000</speed>
</trkpt>
<trkpt lat="56.070412" lon="26.463427">
<ele>125.086975</ele>
<time>2010-08-29T12:13:51Z</time>
<desc>lat.=56.070412, lon.=26.463427, Alt.=125.086975m. Speed=0.936000m/h.</desc>
<speed>0.260000</speed>
</trkpt>
<trkpt lat="56.070400" lon="26.463425">
<ele>124.919006</ele>
<time>2010-08-29T12:13:52Z</time>
<desc>lat.=56.070400, lon.=26.463425, Alt.=124.919006m. Speed=0.648000m/h.</desc>
<speed>0.180000</speed>
</trkpt>
<trkpt lat="56.070393" lon="26.463421">
<ele>124.731506</ele>
<time>2010-08-29T12:13:53Z</time>
<desc>lat.=56.070393, lon.=26.463421, Alt.=124.731506m. Speed=0.288000m/h.</desc>
<speed>0.080000</speed>
</trkpt>
<trkpt lat="56.070381" lon="26.463417">
<ele>124.563538</ele>
<time>2010-08-29T12:13:54Z</time>
<desc>lat.=56.070381, lon.=26.463417, Alt.=124.563538m. Speed=0.036000m/h.</desc>
<speed>0.010000</speed>
</trkpt>
<trkpt lat="56.070377" lon="26.463417">
<ele>124.672913</ele>
<time>2010-08-29T12:13:55Z</time>
<desc>lat.=56.070377, lon.=26.463417, Alt.=124.672913m. Speed=0.288000m/h.</desc>
<speed>0.080000</speed>
</trkpt>
<trkpt lat="56.070377" lon="26.463417">
<ele>124.778381</ele>
<time>2010-08-29T12:13:56Z</time>
<desc>lat.=56.070377, lon.=26.463417, Alt.=124.778381m. Speed=0.576000m/h.</desc>
<speed>0.160000</speed>
</trkpt>
<trkpt lat="56.070377" lon="26.463415">
<ele>124.881897</ele>
<time>2010-08-29T12:13:57Z</time>
<desc>lat.=56.070377, lon.=26.463415, Alt.=124.881897m. Speed=0.864000m/h.</desc>
<speed>0.240000</speed>
</trkpt>
<trkpt lat="56.070374" lon="26.463415">
<ele>124.985413</ele>
<time>2010-08-29T12:13:58Z</time>
<desc>lat.=56.070374, lon.=26.463415, Alt.=124.985413m. Speed=1.224000m/h.</desc>
<speed>0.340000</speed>
</trkpt>
<trkpt lat="56.070351" lon="26.463404">
<ele>125.129944</ele>
<time>2010-08-29T12:13:59Z</time>
<desc>lat.=56.070351, lon.=26.463404, Alt.=125.129944m. Speed=1.476000m/h.</desc>
<speed>0.410000</speed>
</trkpt>
<trkpt lat="56.070332" lon="26.463398">
<ele>125.305725</ele>
<time>2010-08-29T12:14:00Z</time>
<desc>lat.=56.070332, lon.=26.463398, Alt.=125.305725m. Speed=1.620000m/h.</desc>
<speed>0.450000</speed>
</trkpt>
<trkpt lat="56.070316" lon="26.463390">
<ele>125.502991</ele>
<time>2010-08-29T12:14:01Z</time>
<desc>lat.=56.070316, lon.=26.463390, Alt.=125.502991m. Speed=1.656000m/h.</desc>
<speed>0.460000</speed>
</trkpt>
<trkpt lat="56.070305" lon="26.463387">
<ele>125.698303</ele>
<time>2010-08-29T12:14:02Z</time>
<desc>lat.=56.070305, lon.=26.463387, Alt.=125.698303m. Speed=1.656000m/h.</desc>
<speed>0.460000</speed>
</trkpt>
<trkpt lat="56.070290" lon="26.463383">
<ele>125.846741</ele>
<time>2010-08-29T12:14:03Z</time>
<desc>lat.=56.070290, lon.=26.463383, Alt.=125.846741m. Speed=1.692000m/h.</desc>
<speed>0.470000</speed>
</trkpt>
<trkpt lat="56.070282" lon="26.463377">
<ele>125.999084</ele>
<time>2010-08-29T12:14:04Z</time>
<desc>lat.=56.070282, lon.=26.463377, Alt.=125.999084m. Speed=1.692000m/h.</desc>
<speed>0.470000</speed>
</trkpt>
<trkpt lat="56.070274" lon="26.463375">
<ele>126.169006</ele>
<time>2010-08-29T12:14:05Z</time>
<desc>lat.=56.070274, lon.=26.463375, Alt.=126.169006m. Speed=1.656000m/h.</desc>
<speed>0.460000</speed>
</trkpt>
<trkpt lat="56.070263" lon="26.463371">
<ele>126.338928</ele>
<time>2010-08-29T12:14:06Z</time>
<desc>lat.=56.070263, lon.=26.463371, Alt.=126.338928m. Speed=1.692000m/h.</desc>
<speed>0.470000</speed>
</trkpt>
<trkpt lat="56.070251" lon="26.463366">
<ele>126.524475</ele>
<time>2010-08-29T12:14:07Z</time>
<desc>lat.=56.070251, lon.=26.463366, Alt.=126.524475m. Speed=1.728000m/h.</desc>
<speed>0.480000</speed>
</trkpt>
<trkpt lat="56.070236" lon="26.463362">
<ele>126.694397</ele>
<time>2010-08-29T12:14:08Z</time>
<desc>lat.=56.070236, lon.=26.463362, Alt.=126.694397m. Speed=1.800000m/h.</desc>
<speed>0.500000</speed>
</trkpt>
<trkpt lat="56.070225" lon="26.463358">
<ele>126.868225</ele>
<time>2010-08-29T12:14:09Z</time>
<desc>lat.=56.070225, lon.=26.463358, Alt.=126.868225m. Speed=1.908000m/h.</desc>
<speed>0.530000</speed>
</trkpt>
<trkpt lat="56.070217" lon="26.463356">
<ele>127.065491</ele>
<time>2010-08-29T12:14:10Z</time>
<desc>lat.=56.070217, lon.=26.463356, Alt.=127.065491m. Speed=1.872000m/h.</desc>
<speed>0.520000</speed>
</trkpt>
<trkpt lat="56.070206" lon="26.463354">
<ele>127.210022</ele>
<time>2010-08-29T12:14:11Z</time>
<desc>lat.=56.070206, lon.=26.463354, Alt.=127.210022m. Speed=1.944000m/h.</desc>
<speed>0.540000</speed>
</trkpt>
<trkpt lat="56.070198" lon="26.463352">
<ele>127.333069</ele>
<time>2010-08-29T12:14:12Z</time>
<desc>lat.=56.070198, lon.=26.463352, Alt.=127.333069m. Speed=1.836000m/h.</desc>
<speed>0.510000</speed>
</trkpt>
<trkpt lat="56.070187" lon="26.463345">
<ele>127.456116</ele>
<time>2010-08-29T12:14:13Z</time>
<desc>lat.=56.070187, lon.=26.463345, Alt.=127.456116m. Speed=1.944000m/h.</desc>
<speed>0.540000</speed>
</trkpt>
<trkpt lat="56.070179" lon="26.463343">
<ele>127.538147</ele>
<time>2010-08-29T12:14:14Z</time>
<desc>lat.=56.070179, lon.=26.463343, Alt.=127.538147m. Speed=1.872000m/h.</desc>
<speed>0.520000</speed>
</trkpt>
<trkpt lat="56.070175" lon="26.463341">
<ele>127.670959</ele>
<time>2010-08-29T12:14:15Z</time>
<desc>lat.=56.070175, lon.=26.463341, Alt.=127.670959m. Speed=1.836000m/h.</desc>
<speed>0.510000</speed>
</trkpt>
<trkpt lat="56.070168" lon="26.463339">
<ele>127.840881</ele>
<time>2010-08-29T12:14:16Z</time>
<desc>lat.=56.070168, lon.=26.463339, Alt.=127.840881m. Speed=1.764000m/h.</desc>
<speed>0.490000</speed>
</trkpt>
<trkpt lat="56.070164" lon="26.463337">
<ele>127.960022</ele>
<time>2010-08-29T12:14:17Z</time>
<desc>lat.=56.070164, lon.=26.463337, Alt.=127.960022m. Speed=1.692000m/h.</desc>
<speed>0.470000</speed>
</trkpt>
<trkpt lat="56.070164" lon="26.463335">
<ele>128.037231</ele>
<time>2010-08-29T12:14:18Z</time>
<desc>lat.=56.070164, lon.=26.463335, Alt.=128.037231m. Speed=1.584000m/h.</desc>
<speed>0.440000</speed>
</trkpt>
<trkpt lat="56.070164" lon="26.463335">
<ele>128.185669</ele>
<time>2010-08-29T12:14:19Z</time>
<desc>lat.=56.070164, lon.=26.463335, Alt.=128.185669m. Speed=1.476000m/h.</desc>
<speed>0.410000</speed>
</trkpt>
<trkpt lat="56.070160" lon="26.463335">
<ele>128.291138</ele>
<time>2010-08-29T12:14:20Z</time>
<desc>lat.=56.070160, lon.=26.463335, Alt.=128.291138m. Speed=1.404000m/h.</desc>
<speed>0.390000</speed>
</trkpt>
<trkpt lat="56.070160" lon="26.463335">
<ele>128.412231</ele>
<time>2010-08-29T12:14:21Z</time>
<desc>lat.=56.070160, lon.=26.463335, Alt.=128.412231m. Speed=1.296000m/h.</desc>
<speed>0.360000</speed>
</trkpt>
<trkpt lat="56.070160" lon="26.463335">
<ele>128.513794</ele>
<time>2010-08-29T12:14:22Z</time>
<desc>lat.=56.070160, lon.=26.463335, Alt.=128.513794m. Speed=1.260000m/h.</desc>
<speed>0.350000</speed>
</trkpt>
<trkpt lat="56.070160" lon="26.463335">
<ele>128.630981</ele>
<time>2010-08-29T12:14:23Z</time>
<desc>lat.=56.070160, lon.=26.463335, Alt.=128.630981m. Speed=1.080000m/h.</desc>
<speed>0.300000</speed>
</trkpt>
<trkpt lat="56.070164" lon="26.463335">
<ele>128.720825</ele>
<time>2010-08-29T12:14:24Z</time>
<desc>lat.=56.070164, lon.=26.463335, Alt.=128.720825m. Speed=0.900000m/h.</desc>
<speed>0.250000</speed>
</trkpt>
<trkpt lat="56.070164" lon="26.463335">
<ele>128.830200</ele>
<time>2010-08-29T12:14:25Z</time>
<desc>lat.=56.070164, lon.=26.463335, Alt.=128.830200m. Speed=0.828000m/h.</desc>
<speed>0.230000</speed>
</trkpt>
<trkpt lat="56.070164" lon="26.463337">
<ele>128.951294</ele>
<time>2010-08-29T12:14:26Z</time>
<desc>lat.=56.070164, lon.=26.463337, Alt.=128.951294m. Speed=0.720000m/h.</desc>
<speed>0.200000</speed>
</trkpt>
<trkpt lat="56.070168" lon="26.463335">
<ele>129.080200</ele>
<time>2010-08-29T12:14:27Z</time>
<desc>lat.=56.070168, lon.=26.463335, Alt.=129.080200m. Speed=0.648000m/h.</desc>
<speed>0.180000</speed>
</trkpt>
<trkpt lat="56.070164" lon="26.463335">
<ele>129.181763</ele>
<time>2010-08-29T12:14:28Z</time>
<desc>lat.=56.070164, lon.=26.463335, Alt.=129.181763m. Speed=0.540000m/h.</desc>
<speed>0.150000</speed>
</trkpt>
<trkpt lat="56.070164" lon="26.463333">
<ele>129.283325</ele>
<time>2010-08-29T12:14:29Z</time>
<desc>lat.=56.070164, lon.=26.463333, Alt.=129.283325m. Speed=0.468000m/h.</desc>
<speed>0.130000</speed>
</trkpt>
<trkpt lat="56.070164" lon="26.463333">
<ele>129.384888</ele>
<time>2010-08-29T12:14:30Z</time>
<desc>lat.=56.070164, lon.=26.463333, Alt.=129.384888m. Speed=0.252000m/h.</desc>
<speed>0.070000</speed>
</trkpt>
<trkpt lat="56.070160" lon="26.463333">
<ele>129.490356</ele>
<time>2010-08-29T12:14:31Z</time>
<desc>lat.=56.070160, lon.=26.463333, Alt.=129.490356m. Speed=0.144000m/h.</desc>
<speed>0.040000</speed>
</trkpt>
<trkpt lat="56.070160" lon="26.463333">
<ele>129.595825</ele>
<time>2010-08-29T12:14:32Z</time>
<desc>lat.=56.070160, lon.=26.463333, Alt.=129.595825m. Speed=0.072000m/h.</desc>
<speed>0.020000</speed>
</trkpt>
<trkpt lat="56.070160" lon="26.463333">
<ele>129.697388</ele>
<time>2010-08-29T12:14:33Z</time>
<desc>lat.=56.070160, lon.=26.463333, Alt.=129.697388m. Speed=0.036000m/h.</desc>
<speed>0.010000</speed>
</trkpt>
<trkpt lat="56.070160" lon="26.463333">
<ele>129.806763</ele>
<time>2010-08-29T12:14:34Z</time>
<desc>lat.=56.070160, lon.=26.463333, Alt.=129.806763m. Speed=0.072000m/h.</desc>
<speed>0.020000</speed>
</trkpt>
<trkpt lat="56.070160" lon="26.463333">
<ele>129.912231</ele>
<time>2010-08-29T12:14:35Z</time>
<desc>lat.=56.070160, lon.=26.463333, Alt.=129.912231m. Speed=0.072000m/h.</desc>
<speed>0.020000</speed>
</trkpt>
<trkpt lat="56.070160" lon="26.463335">
<ele>130.017700</ele>
<time>2010-08-29T12:14:36Z</time>
<desc>lat.=56.070160, lon.=26.463335, Alt.=130.017700m. Speed=0.180000m/h.</desc>
<speed>0.050000</speed>
</trkpt>
<trkpt lat="56.070160" lon="26.463335">
<ele>130.123169</ele>
<time>2010-08-29T12:14:37Z</time>
<desc>lat.=56.070160, lon.=26.463335, Alt.=130.123169m. Speed=0.252000m/h.</desc>
<speed>0.070000</speed>
</trkpt>
<trkpt lat="56.070164" lon="26.463335">
<ele>130.224731</ele>
<time>2010-08-29T12:14:38Z</time>
<desc>lat.=56.070164, lon.=26.463335, Alt.=130.224731m. Speed=0.216000m/h.</desc>
<speed>0.060000</speed>
</trkpt>
<trkpt lat="56.070164" lon="26.463335">
<ele>130.330200</ele>
<time>2010-08-29T12:14:39Z</time>
<desc>lat.=56.070164, lon.=26.463335, Alt.=130.330200m. Speed=0.180000m/h.</desc>
<speed>0.050000</speed>
</trkpt>
<trkpt lat="56.070164" lon="26.463337">
<ele>130.439575</ele>
<time>2010-08-29T12:14:40Z</time>
<desc>lat.=56.070164, lon.=26.463337, Alt.=130.439575m. Speed=0.180000m/h.</desc>
<speed>0.050000</speed>
</trkpt>
<trkpt lat="56.070164" lon="26.463337">
<ele>130.548950</ele>
<time>2010-08-29T12:14:41Z</time>
<desc>lat.=56.070164, lon.=26.463337, Alt.=130.548950m. Speed=0.108000m/h.</desc>
<speed>0.030000</speed>
</trkpt>
<trkpt lat="56.070164" lon="26.463337">
<ele>130.658325</ele>
<time>2010-08-29T12:14:42Z</time>
<desc>lat.=56.070164, lon.=26.463337, Alt.=130.658325m. Speed=0.108000m/h.</desc>
<speed>0.030000</speed>
</trkpt>
<trkpt lat="56.070164" lon="26.463337">
<ele>130.767700</ele>
<time>2010-08-29T12:14:43Z</time>
<desc>lat.=56.070164, lon.=26.463337, Alt.=130.767700m. Speed=0.036000m/h.</desc>
<speed>0.010000</speed>
</trkpt>
<trkpt lat="56.070164" lon="26.463337">
<ele>130.877075</ele>
<time>2010-08-29T12:14:44Z</time>
<desc>lat.=56.070164, lon.=26.463337, Alt.=130.877075m. Speed=0.072000m/h.</desc>
<speed>0.020000</speed>
</trkpt>
<trkpt lat="56.070164" lon="26.463337">
<ele>130.986450</ele>
<time>2010-08-29T12:14:45Z</time>
<desc>lat.=56.070164, lon.=26.463337, Alt.=130.986450m. Speed=0.144000m/h.</desc>
<speed>0.040000</speed>
</trkpt>
<trkpt lat="56.070164" lon="26.463339">
<ele>131.099731</ele>
<time>2010-08-29T12:14:46Z</time>
<desc>lat.=56.070164, lon.=26.463339, Alt.=131.099731m. Speed=0.216000m/h.</desc>
<speed>0.060000</speed>
</trkpt>
<trkpt lat="56.070164" lon="26.463339">
<ele>131.209106</ele>
<time>2010-08-29T12:14:47Z</time>
<desc>lat.=56.070164, lon.=26.463339, Alt.=131.209106m. Speed=0.180000m/h.</desc>
<speed>0.050000</speed>
</trkpt>
<trkpt lat="56.070160" lon="26.463337">
<ele>131.310669</ele>
<time>2010-08-29T12:14:48Z</time>
<desc>lat.=56.070160, lon.=26.463337, Alt.=131.310669m. Speed=0.216000m/h.</desc>
<speed>0.060000</speed>
</trkpt>
<trkpt lat="56.070160" lon="26.463337">
<ele>131.412231</ele>
<time>2010-08-29T12:14:49Z</time>
<desc>lat.=56.070160, lon.=26.463337, Alt.=131.412231m. Speed=0.072000m/h.</desc>
<speed>0.020000</speed>
</trkpt>
<trkpt lat="56.070160" lon="26.463337">
<ele>131.509888</ele>
<time>2010-08-29T12:14:50Z</time>
<desc>lat.=56.070160, lon.=26.463337, Alt.=131.509888m. Speed=0.072000m/h.</desc>
<speed>0.020000</speed>
</trkpt>
<trkpt lat="56.070160" lon="26.463337">
<ele>131.607544</ele>
<time>2010-08-29T12:14:51Z</time>
<desc>lat.=56.070160, lon.=26.463337, Alt.=131.607544m. Speed=0.072000m/h.</desc>
<speed>0.020000</speed>
</trkpt>
<trkpt lat="56.070160" lon="26.463337">
<ele>131.705200</ele>
<time>2010-08-29T12:14:52Z</time>
<desc>lat.=56.070160, lon.=26.463337, Alt.=131.705200m. Speed=0.036000m/h.</desc>
<speed>0.010000</speed>
</trkpt>
<trkpt lat="56.070160" lon="26.463337">
<ele>131.798950</ele>
<time>2010-08-29T12:14:53Z</time>
<desc>lat.=56.070160, lon.=26.463337, Alt.=131.798950m. Speed=0.036000m/h.</desc>
<speed>0.010000</speed>
</trkpt>
<trkpt lat="56.070160" lon="26.463337">
<ele>131.892700</ele>
<time>2010-08-29T12:14:54Z</time>
<desc>lat.=56.070160, lon.=26.463337, Alt.=131.892700m. Speed=0.036000m/h.</desc>
<speed>0.010000</speed>
</trkpt>
<trkpt lat="56.070160" lon="26.463337">
<ele>131.982544</ele>
<time>2010-08-29T12:14:55Z</time>
<desc>lat.=56.070160, lon.=26.463337, Alt.=131.982544m. Speed=0.108000m/h.</desc>
<speed>0.030000</speed>
</trkpt>
<trkpt lat="56.070160" lon="26.463337">
<ele>132.076294</ele>
<time>2010-08-29T12:14:56Z</time>
<desc>lat.=56.070160, lon.=26.463337, Alt.=132.076294m. Speed=0.180000m/h.</desc>
<speed>0.050000</speed>
</trkpt>
<trkpt lat="56.070164" lon="26.463337">
<ele>132.173950</ele>
<time>2010-08-29T12:14:57Z</time>
<desc>lat.=56.070164, lon.=26.463337, Alt.=132.173950m. Speed=0.360000m/h.</desc>
<speed>0.100000</speed>
</trkpt>
<trkpt lat="56.070164" lon="26.463337">
<ele>132.279419</ele>
<time>2010-08-29T12:14:58Z</time>
<desc>lat.=56.070164, lon.=26.463337, Alt.=132.279419m. Speed=0.396000m/h.</desc>
<speed>0.110000</speed>
</trkpt>
<trkpt lat="56.070164" lon="26.463337">
<ele>132.380981</ele>
<time>2010-08-29T12:14:59Z</time>
<desc>lat.=56.070164, lon.=26.463337, Alt.=132.380981m. Speed=0.432000m/h.</desc>
<speed>0.120000</speed>
</trkpt>
<trkpt lat="56.070164" lon="26.463339">
<ele>132.486450</ele>
<time>2010-08-29T12:15:00Z</time>
<desc>lat.=56.070164, lon.=26.463339, Alt.=132.486450m. Speed=0.468000m/h.</desc>
<speed>0.130000</speed>
</trkpt>
<trkpt lat="56.070168" lon="26.463339">
<ele>132.588013</ele>
<time>2010-08-29T12:15:01Z</time>
<desc>lat.=56.070168, lon.=26.463339, Alt.=132.588013m. Speed=0.468000m/h.</desc>
<speed>0.130000</speed>
</trkpt>
<trkpt lat="56.070168" lon="26.463339">
<ele>132.693481</ele>
<time>2010-08-29T12:15:02Z</time>
<desc>lat.=56.070168, lon.=26.463339, Alt.=132.693481m. Speed=0.396000m/h.</desc>
<speed>0.110000</speed>
</trkpt>
<trkpt lat="56.070168" lon="26.463339">
<ele>132.798950</ele>
<time>2010-08-29T12:15:03Z</time>
<desc>lat.=56.070168, lon.=26.463339, Alt.=132.798950m. Speed=0.360000m/h.</desc>
<speed>0.100000</speed>
</trkpt>
<trkpt lat="56.070171" lon="26.463339">
<ele>132.904419</ele>
<time>2010-08-29T12:15:04Z</time>
<desc>lat.=56.070171, lon.=26.463339, Alt.=132.904419m. Speed=0.360000m/h.</desc>
<speed>0.100000</speed>
</trkpt>
<trkpt lat="56.070171" lon="26.463339">
<ele>133.005981</ele>
<time>2010-08-29T12:15:05Z</time>
<desc>lat.=56.070171, lon.=26.463339, Alt.=133.005981m. Speed=0.288000m/h.</desc>
<speed>0.080000</speed>
</trkpt>
<trkpt lat="56.070171" lon="26.463339">
<ele>133.115356</ele>
<time>2010-08-29T12:15:06Z</time>
<desc>lat.=56.070171, lon.=26.463339, Alt.=133.115356m. Speed=0.216000m/h.</desc>
<speed>0.060000</speed>
</trkpt>
<trkpt lat="56.070171" lon="26.463339">
<ele>133.216919</ele>
<time>2010-08-29T12:15:07Z</time>
<desc>lat.=56.070171, lon.=26.463339, Alt.=133.216919m. Speed=0.144000m/h.</desc>
<speed>0.040000</speed>
</trkpt>
<trkpt lat="56.070171" lon="26.463339">
<ele>133.322388</ele>
<time>2010-08-29T12:15:08Z</time>
<desc>lat.=56.070171, lon.=26.463339, Alt.=133.322388m. Speed=0.144000m/h.</desc>
<speed>0.040000</speed>
</trkpt>
<trkpt lat="56.070171" lon="26.463339">
<ele>133.427856</ele>
<time>2010-08-29T12:15:09Z</time>
<desc>lat.=56.070171, lon.=26.463339, Alt.=133.427856m. Speed=0.180000m/h.</desc>
<speed>0.050000</speed>
</trkpt>
<trkpt lat="56.070171" lon="26.463339">
<ele>133.533325</ele>
<time>2010-08-29T12:15:10Z</time>
<desc>lat.=56.070171, lon.=26.463339, Alt.=133.533325m. Speed=0.180000m/h.</desc>
<speed>0.050000</speed>
</trkpt>
<trkpt lat="56.070175" lon="26.463339">
<ele>133.638794</ele>
<time>2010-08-29T12:15:11Z</time>
<desc>lat.=56.070175, lon.=26.463339, Alt.=133.638794m. Speed=0.216000m/h.</desc>
<speed>0.060000</speed>
</trkpt>
<trkpt lat="56.070175" lon="26.463339">
<ele>133.744263</ele>
<time>2010-08-29T12:15:12Z</time>
<desc>lat.=56.070175, lon.=26.463339, Alt.=133.744263m. Speed=0.180000m/h.</desc>
<speed>0.050000</speed>
</trkpt>
<trkpt lat="56.070175" lon="26.463337">
<ele>133.849731</ele>
<time>2010-08-29T12:15:13Z</time>
<desc>lat.=56.070175, lon.=26.463337, Alt.=133.849731m. Speed=0.216000m/h.</desc>
<speed>0.060000</speed>
</trkpt>
<trkpt lat="56.070175" lon="26.463337">
<ele>133.951294</ele>
<time>2010-08-29T12:15:14Z</time>
<desc>lat.=56.070175, lon.=26.463337, Alt.=133.951294m. Speed=0.216000m/h.</desc>
<speed>0.060000</speed>
</trkpt>
<trkpt lat="56.070175" lon="26.463337">
<ele>134.052856</ele>
<time>2010-08-29T12:15:15Z</time>
<desc>lat.=56.070175, lon.=26.463337, Alt.=134.052856m. Speed=0.288000m/h.</desc>
<speed>0.080000</speed>
</trkpt>
<trkpt lat="56.070175" lon="26.463337">
<ele>134.146606</ele>
<time>2010-08-29T12:15:16Z</time>
<desc>lat.=56.070175, lon.=26.463337, Alt.=134.146606m. Speed=0.288000m/h.</desc>
<speed>0.080000</speed>
</trkpt>
<trkpt lat="56.070179" lon="26.463337">
<ele>134.252075</ele>
<time>2010-08-29T12:15:17Z</time>
<desc>lat.=56.070179, lon.=26.463337, Alt.=134.252075m. Speed=0.288000m/h.</desc>
<speed>0.080000</speed>
</trkpt>
<trkpt lat="56.070179" lon="26.463337">
<ele>134.349731</ele>
<time>2010-08-29T12:15:18Z</time>
<desc>lat.=56.070179, lon.=26.463337, Alt.=134.349731m. Speed=0.360000m/h.</desc>
<speed>0.100000</speed>
</trkpt>
<trkpt lat="56.070179" lon="26.463337">
<ele>134.447388</ele>
<time>2010-08-29T12:15:19Z</time>
<desc>lat.=56.070179, lon.=26.463337, Alt.=134.447388m. Speed=0.288000m/h.</desc>
<speed>0.080000</speed>
</trkpt>
<trkpt lat="56.070179" lon="26.463337">
<ele>134.552856</ele>
<time>2010-08-29T12:15:20Z</time>
<desc>lat.=56.070179, lon.=26.463337, Alt.=134.552856m. Speed=0.216000m/h.</desc>
<speed>0.060000</speed>
</trkpt>
<trkpt lat="56.070179" lon="26.463337">
<ele>134.654419</ele>
<time>2010-08-29T12:15:21Z</time>
<desc>lat.=56.070179, lon.=26.463337, Alt.=134.654419m. Speed=0.216000m/h.</desc>
<speed>0.060000</speed>
</trkpt>
<trkpt lat="56.070179" lon="26.463337">
<ele>134.752075</ele>
<time>2010-08-29T12:15:22Z</time>
<desc>lat.=56.070179, lon.=26.463337, Alt.=134.752075m. Speed=0.144000m/h.</desc>
<speed>0.040000</speed>
</trkpt>
<trkpt lat="56.070183" lon="26.463337">
<ele>134.845825</ele>
<time>2010-08-29T12:15:23Z</time>
<desc>lat.=56.070183, lon.=26.463337, Alt.=134.845825m. Speed=0.144000m/h.</desc>
<speed>0.040000</speed>
</trkpt>
<trkpt lat="56.070183" lon="26.463337">
<ele>134.943481</ele>
<time>2010-08-29T12:15:24Z</time>
<desc>lat.=56.070183, lon.=26.463337, Alt.=134.943481m. Speed=0.108000m/h.</desc>
<speed>0.030000</speed>
</trkpt>
<trkpt lat="56.070183" lon="26.463337">
<ele>135.029419</ele>
<time>2010-08-29T12:15:25Z</time>
<desc>lat.=56.070183, lon.=26.463337, Alt.=135.029419m. Speed=0.036000m/h.</desc>
<speed>0.010000</speed>
</trkpt>
<trkpt lat="56.070183" lon="26.463337">
<ele>135.111450</ele>
<time>2010-08-29T12:15:26Z</time>
<desc>lat.=56.070183, lon.=26.463337, Alt.=135.111450m. Speed=0.072000m/h.</desc>
<speed>0.020000</speed>
</trkpt>
<trkpt lat="56.070183" lon="26.463337">
<ele>135.193481</ele>
<time>2010-08-29T12:15:27Z</time>
<desc>lat.=56.070183, lon.=26.463337, Alt.=135.193481m. Speed=0.180000m/h.</desc>
<speed>0.050000</speed>
</trkpt>
<trkpt lat="56.070179" lon="26.463337">
<ele>135.267700</ele>
<time>2010-08-29T12:15:28Z</time>
<desc>lat.=56.070179, lon.=26.463337, Alt.=135.267700m. Speed=0.288000m/h.</desc>
<speed>0.080000</speed>
</trkpt>
<trkpt lat="56.070179" lon="26.463335">
<ele>135.314575</ele>
<time>2010-08-29T12:15:29Z</time>
<desc>lat.=56.070179, lon.=26.463335, Alt.=135.314575m. Speed=0.720000m/h.</desc>
<speed>0.200000</speed>
</trkpt>
<trkpt lat="56.070175" lon="26.463333">
<ele>135.345825</ele>
<time>2010-08-29T12:15:30Z</time>
<desc>lat.=56.070175, lon.=26.463333, Alt.=135.345825m. Speed=0.864000m/h.</desc>
<speed>0.240000</speed>
</trkpt>
<trkpt lat="56.070171" lon="26.463333">
<ele>135.369263</ele>
<time>2010-08-29T12:15:31Z</time>
<desc>lat.=56.070171, lon.=26.463333, Alt.=135.369263m. Speed=0.972000m/h.</desc>
<speed>0.270000</speed>
</trkpt>
<trkpt lat="56.070168" lon="26.463331">
<ele>135.396606</ele>
<time>2010-08-29T12:15:32Z</time>
<desc>lat.=56.070168, lon.=26.463331, Alt.=135.396606m. Speed=0.144000m/h.</desc>
<speed>0.040000</speed>
</trkpt>
<trkpt lat="56.070168" lon="26.463329">
<ele>135.420044</ele>
<time>2010-08-29T12:15:33Z</time>
<desc>lat.=56.070168, lon.=26.463329, Alt.=135.420044m. Speed=0.036000m/h.</desc>
<speed>0.010000</speed>
</trkpt>
<trkpt lat="56.070168" lon="26.463329">
<ele>135.431763</ele>
<time>2010-08-29T12:15:34Z</time>
<desc>lat.=56.070168, lon.=26.463329, Alt.=135.431763m. Speed=0.072000m/h.</desc>
<speed>0.020000</speed>
</trkpt>
<trkpt lat="56.070168" lon="26.463329">
<ele>135.447388</ele>
<time>2010-08-29T12:15:35Z</time>
<desc>lat.=56.070168, lon.=26.463329, Alt.=135.447388m. Speed=0.000000m/h.</desc>
<speed>0.000000</speed>
</trkpt>
<trkpt lat="56.070168" lon="26.463329">
<ele>135.470825</ele>
<time>2010-08-29T12:15:36Z</time>
<desc>lat.=56.070168, lon.=26.463329, Alt.=135.470825m. Speed=0.000000m/h.</desc>
<speed>0.000000</speed>
</trkpt>
<trkpt lat="56.070168" lon="26.463331">
<ele>135.459106</ele>
<time>2010-08-29T12:15:37Z</time>
<desc>lat.=56.070168, lon.=26.463331, Alt.=135.459106m. Speed=0.000000m/h.</desc>
<speed>0.000000</speed>
</trkpt>
<trkpt lat="56.070168" lon="26.463331">
<ele>135.455200</ele>
<time>2010-08-29T12:15:38Z</time>
<desc>lat.=56.070168, lon.=26.463331, Alt.=135.455200m. Speed=0.000000m/h.</desc>
<speed>0.000000</speed>
</trkpt>
<trkpt lat="56.070168" lon="26.463331">
<ele>135.451294</ele>
<time>2010-08-29T12:15:39Z</time>
<desc>lat.=56.070168, lon.=26.463331, Alt.=135.451294m. Speed=0.000000m/h.</desc>
<speed>0.000000</speed>
</trkpt>
<trkpt lat="56.070168" lon="26.463331">
<ele>135.451294</ele>
<time>2010-08-29T12:15:40Z</time>
<desc>lat.=56.070168, lon.=26.463331, Alt.=135.451294m. Speed=0.000000m/h.</desc>
<speed>0.000000</speed>
</trkpt>
<trkpt lat="56.070168" lon="26.463331">
<ele>135.447388</ele>
<time>2010-08-29T12:15:41Z</time>
<desc>lat.=56.070168, lon.=26.463331, Alt.=135.447388m. Speed=0.036000m/h.</desc>
<speed>0.010000</speed>
</trkpt>
<trkpt lat="56.070168" lon="26.463331">
<ele>135.447388</ele>
<time>2010-08-29T12:15:42Z</time>
<desc>lat.=56.070168, lon.=26.463331, Alt.=135.447388m. Speed=0.036000m/h.</desc>
<speed>0.010000</speed>
</trkpt>
<trkpt lat="56.070168" lon="26.463331">
<ele>135.435669</ele>
<time>2010-08-29T12:15:43Z</time>
<desc>lat.=56.070168, lon.=26.463331, Alt.=135.435669m. Speed=0.036000m/h.</desc>
<speed>0.010000</speed>
</trkpt>
<trkpt lat="56.070168" lon="26.463331">
<ele>135.435669</ele>
<time>2010-08-29T12:15:44Z</time>
<desc>lat.=56.070168, lon.=26.463331, Alt.=135.435669m. Speed=0.000000m/h.</desc>
<speed>0.000000</speed>
</trkpt>
<trkpt lat="56.070168" lon="26.463331">
<ele>135.439575</ele>
<time>2010-08-29T12:15:45Z</time>
<desc>lat.=56.070168, lon.=26.463331, Alt.=135.439575m. Speed=0.000000m/h.</desc>
<speed>0.000000</speed>
</trkpt>
<trkpt lat="56.070168" lon="26.463331">
<ele>135.439575</ele>
<time>2010-08-29T12:15:46Z</time>
<desc>lat.=56.070168, lon.=26.463331, Alt.=135.439575m. Speed=0.000000m/h.</desc>
<speed>0.000000</speed>
</trkpt>
<trkpt lat="56.070168" lon="26.463331">
<ele>135.439575</ele>
<time>2010-08-29T12:15:47Z</time>
<desc>lat.=56.070168, lon.=26.463331, Alt.=135.439575m. Speed=0.000000m/h.</desc>
<speed>0.000000</speed>
</trkpt>
<trkpt lat="56.070168" lon="26.463331">
<ele>135.443481</ele>
<time>2010-08-29T12:15:48Z</time>
<desc>lat.=56.070168, lon.=26.463331, Alt.=135.443481m. Speed=0.000000m/h.</desc>
<speed>0.000000</speed>
</trkpt>
<trkpt lat="56.070168" lon="26.463331">
<ele>135.447388</ele>
<time>2010-08-29T12:15:49Z</time>
<desc>lat.=56.070168, lon.=26.463331, Alt.=135.447388m. Speed=0.036000m/h.</desc>
<speed>0.010000</speed>
</trkpt>
<trkpt lat="56.070168" lon="26.463331">
<ele>135.447388</ele>
<time>2010-08-29T12:15:50Z</time>
<desc>lat.=56.070168, lon.=26.463331, Alt.=135.447388m. Speed=0.000000m/h.</desc>
<speed>0.000000</speed>
</trkpt>
<trkpt lat="56.070164" lon="26.463331">
<ele>135.439575</ele>
<time>2010-08-29T12:15:51Z</time>
<desc>lat.=56.070164, lon.=26.463331, Alt.=135.439575m. Speed=0.036000m/h.</desc>
<speed>0.010000</speed>
</trkpt>
<trkpt lat="56.070164" lon="26.463331">
<ele>135.435669</ele>
<time>2010-08-29T12:15:52Z</time>
<desc>lat.=56.070164, lon.=26.463331, Alt.=135.435669m. Speed=0.000000m/h.</desc>
<speed>0.000000</speed>
</trkpt>
<trkpt lat="56.070164" lon="26.463331">
<ele>135.431763</ele>
<time>2010-08-29T12:15:53Z</time>
<desc>lat.=56.070164, lon.=26.463331, Alt.=135.431763m. Speed=0.036000m/h.</desc>
<speed>0.010000</speed>
</trkpt>
<trkpt lat="56.070164" lon="26.463333">
<ele>135.423950</ele>
<time>2010-08-29T12:15:54Z</time>
<desc>lat.=56.070164, lon.=26.463333, Alt.=135.423950m. Speed=0.756000m/h.</desc>
<speed>0.210000</speed>
</trkpt>
<trkpt lat="56.070164" lon="26.463337">
<ele>135.408325</ele>
<time>2010-08-29T12:15:55Z</time>
<desc>lat.=56.070164, lon.=26.463337, Alt.=135.408325m. Speed=0.972000m/h.</desc>
<speed>0.270000</speed>
</trkpt>
<trkpt lat="56.070164" lon="26.463341">
<ele>135.388794</ele>
<time>2010-08-29T12:15:56Z</time>
<desc>lat.=56.070164, lon.=26.463341, Alt.=135.388794m. Speed=0.900000m/h.</desc>
<speed>0.250000</speed>
</trkpt>
<trkpt lat="56.070164" lon="26.463345">
<ele>135.380981</ele>
<time>2010-08-29T12:15:57Z</time>
<desc>lat.=56.070164, lon.=26.463345, Alt.=135.380981m. Speed=1.260000m/h.</desc>
<speed>0.350000</speed>
</trkpt>
<trkpt lat="56.070156" lon="26.463354">
<ele>134.861450</ele>
<time>2010-08-29T12:15:58Z</time>
<desc>lat.=56.070156, lon.=26.463354, Alt.=134.861450m. Speed=1.296000m/h.</desc>
<speed>0.360000</speed>
</trkpt>
<trkpt lat="56.070171" lon="26.463385">
<ele>133.787231</ele>
<time>2010-08-29T12:15:59Z</time>
<desc>lat.=56.070171, lon.=26.463385, Alt.=133.787231m. Speed=1.224000m/h.</desc>
<speed>0.340000</speed>
</trkpt>
<trkpt lat="56.070175" lon="26.463385">
<ele>133.357544</ele>
<time>2010-08-29T12:16:00Z</time>
<desc>lat.=56.070175, lon.=26.463385, Alt.=133.357544m. Speed=1.080000m/h.</desc>
<speed>0.300000</speed>
</trkpt>
<trkpt lat="56.070175" lon="26.463364">
<ele>132.619263</ele>
<time>2010-08-29T12:16:01Z</time>
<desc>lat.=56.070175, lon.=26.463364, Alt.=132.619263m. Speed=0.864000m/h.</desc>
<speed>0.240000</speed>
</trkpt>
<trkpt lat="56.070179" lon="26.463360">
<ele>132.291138</ele>
<time>2010-08-29T12:16:02Z</time>
<desc>lat.=56.070179, lon.=26.463360, Alt.=132.291138m. Speed=0.972000m/h.</desc>
<speed>0.270000</speed>
</trkpt>
<trkpt lat="56.070183" lon="26.463358">
<ele>132.240356</ele>
<time>2010-08-29T12:16:03Z</time>
<desc>lat.=56.070183, lon.=26.463358, Alt.=132.240356m. Speed=0.396000m/h.</desc>
<speed>0.110000</speed>
</trkpt>
<trkpt lat="56.070187" lon="26.463362">
<ele>132.615356</ele>
<time>2010-08-29T12:16:04Z</time>
<desc>lat.=56.070187, lon.=26.463362, Alt.=132.615356m. Speed=0.468000m/h.</desc>
<speed>0.130000</speed>
</trkpt>
<trkpt lat="56.070187" lon="26.463360">
<ele>132.545044</ele>
<time>2010-08-29T12:16:05Z</time>
<desc>lat.=56.070187, lon.=26.463360, Alt.=132.545044m. Speed=0.720000m/h.</desc>
<speed>0.200000</speed>
</trkpt>
<trkpt lat="56.070190" lon="26.463358">
<ele>132.474731</ele>
<time>2010-08-29T12:16:06Z</time>
<desc>lat.=56.070190, lon.=26.463358, Alt.=132.474731m. Speed=0.720000m/h.</desc>
<speed>0.200000</speed>
</trkpt>
<trkpt lat="56.070190" lon="26.463356">
<ele>132.384888</ele>
<time>2010-08-29T12:16:07Z</time>
<desc>lat.=56.070190, lon.=26.463356, Alt.=132.384888m. Speed=0.936000m/h.</desc>
<speed>0.260000</speed>
</trkpt>
<trkpt lat="56.070194" lon="26.463356">
<ele>132.279419</ele>
<time>2010-08-29T12:16:08Z</time>
<desc>lat.=56.070194, lon.=26.463356, Alt.=132.279419m. Speed=1.152000m/h.</desc>
<speed>0.320000</speed>
</trkpt>
<trkpt lat="56.070210" lon="26.463358">
<ele>131.330200</ele>
<time>2010-08-29T12:16:09Z</time>
<desc>lat.=56.070210, lon.=26.463358, Alt.=131.330200m. Speed=1.296000m/h.</desc>
<speed>0.360000</speed>
</trkpt>
<trkpt lat="56.070229" lon="26.463356">
<ele>129.619263</ele>
<time>2010-08-29T12:16:10Z</time>
<desc>lat.=56.070229, lon.=26.463356, Alt.=129.619263m. Speed=1.440000m/h.</desc>
<speed>0.400000</speed>
</trkpt>
<trkpt lat="56.070240" lon="26.463354">
<ele>128.185669</ele>
<time>2010-08-29T12:16:11Z</time>
<desc>lat.=56.070240, lon.=26.463354, Alt.=128.185669m. Speed=1.476000m/h.</desc>
<speed>0.410000</speed>
</trkpt>
<trkpt lat="56.070240" lon="26.463367">
<ele>127.610413</ele>
<time>2010-08-29T12:16:12Z</time>
<desc>lat.=56.070240, lon.=26.463367, Alt.=127.610413m. Speed=1.476000m/h.</desc>
<speed>0.410000</speed>
</trkpt>
<trkpt lat="56.070244" lon="26.463373">
<ele>127.204163</ele>
<time>2010-08-29T12:16:13Z</time>
<desc>lat.=56.070244, lon.=26.463373, Alt.=127.204163m. Speed=1.332000m/h.</desc>
<speed>0.370000</speed>
</trkpt>
<trkpt lat="56.070244" lon="26.463381">
<ele>126.770569</ele>
<time>2010-08-29T12:16:14Z</time>
<desc>lat.=56.070244, lon.=26.463381, Alt.=126.770569m. Speed=2.736000m/h.</desc>
<speed>0.760000</speed>
</trkpt>
<trkpt lat="56.070244" lon="26.463392">
<ele>126.469788</ele>
<time>2010-08-29T12:16:15Z</time>
<desc>lat.=56.070244, lon.=26.463392, Alt.=126.469788m. Speed=2.448000m/h.</desc>
<speed>0.680000</speed>
</trkpt>
<trkpt lat="56.070244" lon="26.463402">
<ele>126.202209</ele>
<time>2010-08-29T12:16:16Z</time>
<desc>lat.=56.070244, lon.=26.463402, Alt.=126.202209m. Speed=2.160000m/h.</desc>
<speed>0.600000</speed>
</trkpt>
<trkpt lat="56.070251" lon="26.463408">
<ele>125.876038</ele>
<time>2010-08-29T12:16:17Z</time>
<desc>lat.=56.070251, lon.=26.463408, Alt.=125.876038m. Speed=1.764000m/h.</desc>
<speed>0.490000</speed>
</trkpt>
<trkpt lat="56.070255" lon="26.463398">
<ele>125.585022</ele>
<time>2010-08-29T12:16:18Z</time>
<desc>lat.=56.070255, lon.=26.463398, Alt.=125.585022m. Speed=0.324000m/h.</desc>
<speed>0.090000</speed>
</trkpt>
<trkpt lat="56.070259" lon="26.463400">
<ele>125.428772</ele>
<time>2010-08-29T12:16:19Z</time>
<desc>lat.=56.070259, lon.=26.463400, Alt.=125.428772m. Speed=0.720000m/h.</desc>
<speed>0.200000</speed>
</trkpt>
<trkpt lat="56.070267" lon="26.463402">
<ele>125.313538</ele>
<time>2010-08-29T12:16:20Z</time>
<desc>lat.=56.070267, lon.=26.463402, Alt.=125.313538m. Speed=1.008000m/h.</desc>
<speed>0.280000</speed>
</trkpt>
<trkpt lat="56.070274" lon="26.463404">
<ele>125.233459</ele>
<time>2010-08-29T12:16:21Z</time>
<desc>lat.=56.070274, lon.=26.463404, Alt.=125.233459m. Speed=1.368000m/h.</desc>
<speed>0.380000</speed>
</trkpt>
<trkpt lat="56.070286" lon="26.463408">
<ele>125.028381</ele>
<time>2010-08-29T12:16:22Z</time>
<desc>lat.=56.070286, lon.=26.463408, Alt.=125.028381m. Speed=1.764000m/h.</desc>
<speed>0.490000</speed>
</trkpt>
<trkpt lat="56.070297" lon="26.463409">
<ele>124.733459</ele>
<time>2010-08-29T12:16:23Z</time>
<desc>lat.=56.070297, lon.=26.463409, Alt.=124.733459m. Speed=1.764000m/h.</desc>
<speed>0.490000</speed>
</trkpt>
<trkpt lat="56.070301" lon="26.463411">
<ele>124.477600</ele>
<time>2010-08-29T12:16:24Z</time>
<desc>lat.=56.070301, lon.=26.463411, Alt.=124.477600m. Speed=1.476000m/h.</desc>
<speed>0.410000</speed>
</trkpt>
<trkpt lat="56.070309" lon="26.463411">
<ele>124.124084</ele>
<time>2010-08-29T12:16:25Z</time>
<desc>lat.=56.070309, lon.=26.463411, Alt.=124.124084m. Speed=1.368000m/h.</desc>
<speed>0.380000</speed>
</trkpt>
<trkpt lat="56.070320" lon="26.463415">
<ele>123.924866</ele>
<time>2010-08-29T12:16:26Z</time>
<desc>lat.=56.070320, lon.=26.463415, Alt.=123.924866m. Speed=1.476000m/h.</desc>
<speed>0.410000</speed>
</trkpt>
<trkpt lat="56.070328" lon="26.463419">
<ele>123.729553</ele>
<time>2010-08-29T12:16:27Z</time>
<desc>lat.=56.070328, lon.=26.463419, Alt.=123.729553m. Speed=1.260000m/h.</desc>
<speed>0.350000</speed>
</trkpt>
<trkpt lat="56.070335" lon="26.463423">
<ele>123.493225</ele>
<time>2010-08-29T12:16:28Z</time>
<desc>lat.=56.070335, lon.=26.463423, Alt.=123.493225m. Speed=1.476000m/h.</desc>
<speed>0.410000</speed>
</trkpt>
<trkpt lat="56.070339" lon="26.463425">
<ele>123.379944</ele>
<time>2010-08-29T12:16:29Z</time>
<desc>lat.=56.070339, lon.=26.463425, Alt.=123.379944m. Speed=1.152000m/h.</desc>
<speed>0.320000</speed>
</trkpt>
<trkpt lat="56.070339" lon="26.463427">
<ele>123.284241</ele>
<time>2010-08-29T12:16:30Z</time>
<desc>lat.=56.070339, lon.=26.463427, Alt.=123.284241m. Speed=1.044000m/h.</desc>
<speed>0.290000</speed>
</trkpt>
<trkpt lat="56.070343" lon="26.463430">
<ele>123.377991</ele>
<time>2010-08-29T12:16:31Z</time>
<desc>lat.=56.070343, lon.=26.463430, Alt.=123.377991m. Speed=1.044000m/h.</desc>
<speed>0.290000</speed>
</trkpt>
<trkpt lat="56.070351" lon="26.463436">
<ele>123.483459</ele>
<time>2010-08-29T12:16:32Z</time>
<desc>lat.=56.070351, lon.=26.463436, Alt.=123.483459m. Speed=1.116000m/h.</desc>
<speed>0.310000</speed>
</trkpt>
<trkpt lat="56.070354" lon="26.463438">
<ele>123.420959</ele>
<time>2010-08-29T12:16:33Z</time>
<desc>lat.=56.070354, lon.=26.463438, Alt.=123.420959m. Speed=1.116000m/h.</desc>
<speed>0.310000</speed>
</trkpt>
<trkpt lat="56.070354" lon="26.463438">
<ele>123.311584</ele>
<time>2010-08-29T12:16:34Z</time>
<desc>lat.=56.070354, lon.=26.463438, Alt.=123.311584m. Speed=0.720000m/h.</desc>
<speed>0.200000</speed>
</trkpt>
<trkpt lat="56.070354" lon="26.463440">
<ele>123.323303</ele>
<time>2010-08-29T12:16:35Z</time>
<desc>lat.=56.070354, lon.=26.463440, Alt.=123.323303m. Speed=0.396000m/h.</desc>
<speed>0.110000</speed>
</trkpt>
<trkpt lat="56.070351" lon="26.463442">
<ele>123.411194</ele>
<time>2010-08-29T12:16:36Z</time>
<desc>lat.=56.070351, lon.=26.463442, Alt.=123.411194m. Speed=0.288000m/h.</desc>
<speed>0.080000</speed>
</trkpt>
<trkpt lat="56.070354" lon="26.463448">
<ele>123.452209</ele>
<time>2010-08-29T12:16:37Z</time>
<desc>lat.=56.070354, lon.=26.463448, Alt.=123.452209m. Speed=0.504000m/h.</desc>
<speed>0.140000</speed>
</trkpt>
<trkpt lat="56.070354" lon="26.463449">
<ele>123.401428</ele>
<time>2010-08-29T12:16:38Z</time>
<desc>lat.=56.070354, lon.=26.463449, Alt.=123.401428m. Speed=0.432000m/h.</desc>
<speed>0.120000</speed>
</trkpt>
<trkpt lat="56.070358" lon="26.463451">
<ele>123.360413</ele>
<time>2010-08-29T12:16:39Z</time>
<desc>lat.=56.070358, lon.=26.463451, Alt.=123.360413m. Speed=0.612000m/h.</desc>
<speed>0.170000</speed>
</trkpt>
<trkpt lat="56.070358" lon="26.463453">
<ele>123.327209</ele>
<time>2010-08-29T12:16:40Z</time>
<desc>lat.=56.070358, lon.=26.463453, Alt.=123.327209m. Speed=0.432000m/h.</desc>
<speed>0.120000</speed>
</trkpt>
<trkpt lat="56.070358" lon="26.463453">
<ele>123.294006</ele>
<time>2010-08-29T12:16:41Z</time>
<desc>lat.=56.070358, lon.=26.463453, Alt.=123.294006m. Speed=0.180000m/h.</desc>
<speed>0.050000</speed>
</trkpt>
<trkpt lat="56.070358" lon="26.463455">
<ele>123.268616</ele>
<time>2010-08-29T12:16:42Z</time>
<desc>lat.=56.070358, lon.=26.463455, Alt.=123.268616m. Speed=0.072000m/h.</desc>
<speed>0.020000</speed>
</trkpt>
<trkpt lat="56.070358" lon="26.463455">
<ele>123.249084</ele>
<time>2010-08-29T12:16:43Z</time>
<desc>lat.=56.070358, lon.=26.463455, Alt.=123.249084m. Speed=0.252000m/h.</desc>
<speed>0.070000</speed>
</trkpt>
<trkpt lat="56.070358" lon="26.463455">
<ele>123.233459</ele>
<time>2010-08-29T12:16:44Z</time>
<desc>lat.=56.070358, lon.=26.463455, Alt.=123.233459m. Speed=0.396000m/h.</desc>
<speed>0.110000</speed>
</trkpt>
<trkpt lat="56.070362" lon="26.463455">
<ele>123.215881</ele>
<time>2010-08-29T12:16:45Z</time>
<desc>lat.=56.070362, lon.=26.463455, Alt.=123.215881m. Speed=0.252000m/h.</desc>
<speed>0.070000</speed>
</trkpt>
<trkpt lat="56.070362" lon="26.463455">
<ele>123.202209</ele>
<time>2010-08-29T12:16:46Z</time>
<desc>lat.=56.070362, lon.=26.463455, Alt.=123.202209m. Speed=0.180000m/h.</desc>
<speed>0.050000</speed>
</trkpt>
<trkpt lat="56.070362" lon="26.463455">
<ele>123.186584</ele>
<time>2010-08-29T12:16:47Z</time>
<desc>lat.=56.070362, lon.=26.463455, Alt.=123.186584m. Speed=0.252000m/h.</desc>
<speed>0.070000</speed>
</trkpt>
<trkpt lat="56.070362" lon="26.463457">
<ele>123.172913</ele>
<time>2010-08-29T12:16:48Z</time>
<desc>lat.=56.070362, lon.=26.463457, Alt.=123.172913m. Speed=0.396000m/h.</desc>
<speed>0.110000</speed>
</trkpt>
<trkpt lat="56.070362" lon="26.463459">
<ele>123.161194</ele>
<time>2010-08-29T12:16:49Z</time>
<desc>lat.=56.070362, lon.=26.463459, Alt.=123.161194m. Speed=0.576000m/h.</desc>
<speed>0.160000</speed>
</trkpt>
<trkpt lat="56.070362" lon="26.463461">
<ele>123.153381</ele>
<time>2010-08-29T12:16:50Z</time>
<desc>lat.=56.070362, lon.=26.463461, Alt.=123.153381m. Speed=0.684000m/h.</desc>
<speed>0.190000</speed>
</trkpt>
<trkpt lat="56.070362" lon="26.463465">
<ele>123.143616</ele>
<time>2010-08-29T12:16:51Z</time>
<desc>lat.=56.070362, lon.=26.463465, Alt.=123.143616m. Speed=0.540000m/h.</desc>
<speed>0.150000</speed>
</trkpt>
<trkpt lat="56.070362" lon="26.463467">
<ele>123.137756</ele>
<time>2010-08-29T12:16:52Z</time>
<desc>lat.=56.070362, lon.=26.463467, Alt.=123.137756m. Speed=0.396000m/h.</desc>
<speed>0.110000</speed>
</trkpt>
<trkpt lat="56.070362" lon="26.463469">
<ele>123.129944</ele>
<time>2010-08-29T12:16:53Z</time>
<desc>lat.=56.070362, lon.=26.463469, Alt.=123.129944m. Speed=0.756000m/h.</desc>
<speed>0.210000</speed>
</trkpt>
<trkpt lat="56.070366" lon="26.463470">
<ele>123.122131</ele>
<time>2010-08-29T12:16:54Z</time>
<desc>lat.=56.070366, lon.=26.463470, Alt.=123.122131m. Speed=0.648000m/h.</desc>
<speed>0.180000</speed>
</trkpt>
<trkpt lat="56.070366" lon="26.463470">
<ele>123.116272</ele>
<time>2010-08-29T12:16:55Z</time>
<desc>lat.=56.070366, lon.=26.463470, Alt.=123.116272m. Speed=0.648000m/h.</desc>
<speed>0.180000</speed>
</trkpt>
<trkpt lat="56.070366" lon="26.463472">
<ele>123.110413</ele>
<time>2010-08-29T12:16:56Z</time>
<desc>lat.=56.070366, lon.=26.463472, Alt.=123.110413m. Speed=0.432000m/h.</desc>
<speed>0.120000</speed>
</trkpt>
<trkpt lat="56.070370" lon="26.463472">
<ele>123.104553</ele>
<time>2010-08-29T12:16:57Z</time>
<desc>lat.=56.070370, lon.=26.463472, Alt.=123.104553m. Speed=0.468000m/h.</desc>
<speed>0.130000</speed>
</trkpt>
<trkpt lat="56.070370" lon="26.463472">
<ele>123.100647</ele>
<time>2010-08-29T12:16:58Z</time>
<desc>lat.=56.070370, lon.=26.463472, Alt.=123.100647m. Speed=0.324000m/h.</desc>
<speed>0.090000</speed>
</trkpt>
<trkpt lat="56.070370" lon="26.463474">
<ele>123.096741</ele>
<time>2010-08-29T12:16:59Z</time>
<desc>lat.=56.070370, lon.=26.463474, Alt.=123.096741m. Speed=0.180000m/h.</desc>
<speed>0.050000</speed>
</trkpt>
<trkpt lat="56.070370" lon="26.463474">
<ele>123.094788</ele>
<time>2010-08-29T12:17:00Z</time>
<desc>lat.=56.070370, lon.=26.463474, Alt.=123.094788m. Speed=0.108000m/h.</desc>
<speed>0.030000</speed>
</trkpt>
<trkpt lat="56.070370" lon="26.463474">
<ele>123.094788</ele>
<time>2010-08-29T12:17:01Z</time>
<desc>lat.=56.070370, lon.=26.463474, Alt.=123.094788m. Speed=0.144000m/h.</desc>
<speed>0.040000</speed>
</trkpt>
<trkpt lat="56.070370" lon="26.463472">
<ele>123.092834</ele>
<time>2010-08-29T12:17:02Z</time>
<desc>lat.=56.070370, lon.=26.463472, Alt.=123.092834m. Speed=0.432000m/h.</desc>
<speed>0.120000</speed>
</trkpt>
<trkpt lat="56.070370" lon="26.463474">
<ele>123.081116</ele>
<time>2010-08-29T12:17:03Z</time>
<desc>lat.=56.070370, lon.=26.463474, Alt.=123.081116m. Speed=0.144000m/h.</desc>
<speed>0.040000</speed>
</trkpt>
<trkpt lat="56.070370" lon="26.463476">
<ele>123.073303</ele>
<time>2010-08-29T12:17:04Z</time>
<desc>lat.=56.070370, lon.=26.463476, Alt.=123.073303m. Speed=0.360000m/h.</desc>
<speed>0.100000</speed>
</trkpt>
<trkpt lat="56.070370" lon="26.463476">
<ele>123.063538</ele>
<time>2010-08-29T12:17:05Z</time>
<desc>lat.=56.070370, lon.=26.463476, Alt.=123.063538m. Speed=0.504000m/h.</desc>
<speed>0.140000</speed>
</trkpt>
<trkpt lat="56.070370" lon="26.463480">
<ele>123.051819</ele>
<time>2010-08-29T12:17:06Z</time>
<desc>lat.=56.070370, lon.=26.463480, Alt.=123.051819m. Speed=0.144000m/h.</desc>
<speed>0.040000</speed>
</trkpt>
<trkpt lat="56.070370" lon="26.463478">
<ele>123.045959</ele>
<time>2010-08-29T12:17:07Z</time>
<desc>lat.=56.070370, lon.=26.463478, Alt.=123.045959m. Speed=0.036000m/h.</desc>
<speed>0.010000</speed>
</trkpt>
<trkpt lat="56.070370" lon="26.463478">
<ele>123.038147</ele>
<time>2010-08-29T12:17:08Z</time>
<desc>lat.=56.070370, lon.=26.463478, Alt.=123.038147m. Speed=0.144000m/h.</desc>
<speed>0.040000</speed>
</trkpt>
<trkpt lat="56.070370" lon="26.463478">
<ele>123.030334</ele>
<time>2010-08-29T12:17:09Z</time>
<desc>lat.=56.070370, lon.=26.463478, Alt.=123.030334m. Speed=0.108000m/h.</desc>
<speed>0.030000</speed>
</trkpt>
<trkpt lat="56.070370" lon="26.463476">
<ele>123.026428</ele>
<time>2010-08-29T12:17:10Z</time>
<desc>lat.=56.070370, lon.=26.463476, Alt.=123.026428m. Speed=0.432000m/h.</desc>
<speed>0.120000</speed>
</trkpt>
<trkpt lat="56.070370" lon="26.463474">
<ele>123.024475</ele>
<time>2010-08-29T12:17:11Z</time>
<desc>lat.=56.070370, lon.=26.463474, Alt.=123.024475m. Speed=0.324000m/h.</desc>
<speed>0.090000</speed>
</trkpt>
<trkpt lat="56.070370" lon="26.463474">
<ele>123.012756</ele>
<time>2010-08-29T12:17:12Z</time>
<desc>lat.=56.070370, lon.=26.463474, Alt.=123.012756m. Speed=0.540000m/h.</desc>
<speed>0.150000</speed>
</trkpt>
<trkpt lat="56.070366" lon="26.463474">
<ele>123.001038</ele>
<time>2010-08-29T12:17:13Z</time>
<desc>lat.=56.070366, lon.=26.463474, Alt.=123.001038m. Speed=0.504000m/h.</desc>
<speed>0.140000</speed>
</trkpt>
<trkpt lat="56.070366" lon="26.463472">
<ele>122.995178</ele>
<time>2010-08-29T12:17:14Z</time>
<desc>lat.=56.070366, lon.=26.463472, Alt.=122.995178m. Speed=0.252000m/h.</desc>
<speed>0.070000</speed>
</trkpt>
<trkpt lat="56.070366" lon="26.463474">
<ele>122.983459</ele>
<time>2010-08-29T12:17:15Z</time>
<desc>lat.=56.070366, lon.=26.463474, Alt.=122.983459m. Speed=0.324000m/h.</desc>
<speed>0.090000</speed>
</trkpt>
<trkpt lat="56.070366" lon="26.463474">
<ele>122.973694</ele>
<time>2010-08-29T12:17:16Z</time>
<desc>lat.=56.070366, lon.=26.463474, Alt.=122.973694m. Speed=0.468000m/h.</desc>
<speed>0.130000</speed>
</trkpt>
<trkpt lat="56.070366" lon="26.463476">
<ele>122.965881</ele>
<time>2010-08-29T12:17:17Z</time>
<desc>lat.=56.070366, lon.=26.463476, Alt.=122.965881m. Speed=0.792000m/h.</desc>
<speed>0.220000</speed>
</trkpt>
<trkpt lat="56.070362" lon="26.463478">
<ele>122.954163</ele>
<time>2010-08-29T12:17:18Z</time>
<desc>lat.=56.070362, lon.=26.463478, Alt.=122.954163m. Speed=0.252000m/h.</desc>
<speed>0.070000</speed>
</trkpt>
<trkpt lat="56.070362" lon="26.463480">
<ele>122.946350</ele>
<time>2010-08-29T12:17:19Z</time>
<desc>lat.=56.070362, lon.=26.463480, Alt.=122.946350m. Speed=0.288000m/h.</desc>
<speed>0.080000</speed>
</trkpt>
<trkpt lat="56.070362" lon="26.463480">
<ele>122.936584</ele>
<time>2010-08-29T12:17:20Z</time>
<desc>lat.=56.070362, lon.=26.463480, Alt.=122.936584m. Speed=0.108000m/h.</desc>
<speed>0.030000</speed>
</trkpt>
<trkpt lat="56.070362" lon="26.463482">
<ele>122.926819</ele>
<time>2010-08-29T12:17:21Z</time>
<desc>lat.=56.070362, lon.=26.463482, Alt.=122.926819m. Speed=0.108000m/h.</desc>
<speed>0.030000</speed>
</trkpt>
<trkpt lat="56.070362" lon="26.463480">
<ele>122.917053</ele>
<time>2010-08-29T12:17:22Z</time>
<desc>lat.=56.070362, lon.=26.463480, Alt.=122.917053m. Speed=0.252000m/h.</desc>
<speed>0.070000</speed>
</trkpt>
<trkpt lat="56.070362" lon="26.463480">
<ele>122.907288</ele>
<time>2010-08-29T12:17:23Z</time>
<desc>lat.=56.070362, lon.=26.463480, Alt.=122.907288m. Speed=0.072000m/h.</desc>
<speed>0.020000</speed>
</trkpt>
<trkpt lat="56.070362" lon="26.463480">
<ele>122.897522</ele>
<time>2010-08-29T12:17:24Z</time>
<desc>lat.=56.070362, lon.=26.463480, Alt.=122.897522m. Speed=0.144000m/h.</desc>
<speed>0.040000</speed>
</trkpt>
<trkpt lat="56.070362" lon="26.463480">
<ele>122.883850</ele>
<time>2010-08-29T12:17:25Z</time>
<desc>lat.=56.070362, lon.=26.463480, Alt.=122.883850m. Speed=0.252000m/h.</desc>
<speed>0.070000</speed>
</trkpt>
<trkpt lat="56.070362" lon="26.463480">
<ele>122.872131</ele>
<time>2010-08-29T12:17:26Z</time>
<desc>lat.=56.070362, lon.=26.463480, Alt.=122.872131m. Speed=0.000000m/h.</desc>
<speed>0.000000</speed>
</trkpt>
<trkpt lat="56.070362" lon="26.463480">
<ele>122.860413</ele>
<time>2010-08-29T12:17:27Z</time>
<desc>lat.=56.070362, lon.=26.463480, Alt.=122.860413m. Speed=0.396000m/h.</desc>
<speed>0.110000</speed>
</trkpt>
<trkpt lat="56.070362" lon="26.463478">
<ele>122.856506</ele>
<time>2010-08-29T12:17:28Z</time>
<desc>lat.=56.070362, lon.=26.463478, Alt.=122.856506m. Speed=0.360000m/h.</desc>
<speed>0.100000</speed>
</trkpt>
<trkpt lat="56.070362" lon="26.463476">
<ele>122.850647</ele>
<time>2010-08-29T12:17:29Z</time>
<desc>lat.=56.070362, lon.=26.463476, Alt.=122.850647m. Speed=0.396000m/h.</desc>
<speed>0.110000</speed>
</trkpt>
<trkpt lat="56.070362" lon="26.463474">
<ele>122.846741</ele>
<time>2010-08-29T12:17:30Z</time>
<desc>lat.=56.070362, lon.=26.463474, Alt.=122.846741m. Speed=0.684000m/h.</desc>
<speed>0.190000</speed>
</trkpt>
<trkpt lat="56.070358" lon="26.463472">
<ele>122.844788</ele>
<time>2010-08-29T12:17:31Z</time>
<desc>lat.=56.070358, lon.=26.463472, Alt.=122.844788m. Speed=0.648000m/h.</desc>
<speed>0.180000</speed>
</trkpt>
<trkpt lat="56.070358" lon="26.463470">
<ele>122.842834</ele>
<time>2010-08-29T12:17:32Z</time>
<desc>lat.=56.070358, lon.=26.463470, Alt.=122.842834m. Speed=0.360000m/h.</desc>
<speed>0.100000</speed>
</trkpt>
<trkpt lat="56.070354" lon="26.463470">
<ele>122.848694</ele>
<time>2010-08-29T12:17:33Z</time>
<desc>lat.=56.070354, lon.=26.463470, Alt.=122.848694m. Speed=0.504000m/h.</desc>
<speed>0.140000</speed>
</trkpt>
<trkpt lat="56.070354" lon="26.463470">
<ele>122.852600</ele>
<time>2010-08-29T12:17:34Z</time>
<desc>lat.=56.070354, lon.=26.463470, Alt.=122.852600m. Speed=0.360000m/h.</desc>
<speed>0.100000</speed>
</trkpt>
<trkpt lat="56.070354" lon="26.463469">
<ele>122.862366</ele>
<time>2010-08-29T12:17:35Z</time>
<desc>lat.=56.070354, lon.=26.463469, Alt.=122.862366m. Speed=0.144000m/h.</desc>
<speed>0.040000</speed>
</trkpt>
<trkpt lat="56.070354" lon="26.463469">
<ele>122.856506</ele>
<time>2010-08-29T12:17:36Z</time>
<desc>lat.=56.070354, lon.=26.463469, Alt.=122.856506m. Speed=0.216000m/h.</desc>
<speed>0.060000</speed>
</trkpt>
<trkpt lat="56.070351" lon="26.463469">
<ele>122.850647</ele>
<time>2010-08-29T12:17:37Z</time>
<desc>lat.=56.070351, lon.=26.463469, Alt.=122.850647m. Speed=0.216000m/h.</desc>
<speed>0.060000</speed>
</trkpt>
<trkpt lat="56.070351" lon="26.463469">
<ele>122.844788</ele>
<time>2010-08-29T12:17:38Z</time>
<desc>lat.=56.070351, lon.=26.463469, Alt.=122.844788m. Speed=0.288000m/h.</desc>
<speed>0.080000</speed>
</trkpt>
<trkpt lat="56.070351" lon="26.463469">
<ele>122.836975</ele>
<time>2010-08-29T12:17:39Z</time>
<desc>lat.=56.070351, lon.=26.463469, Alt.=122.836975m. Speed=0.432000m/h.</desc>
<speed>0.120000</speed>
</trkpt>
<trkpt lat="56.070351" lon="26.463467">
<ele>122.831116</ele>
<time>2010-08-29T12:17:40Z</time>
<desc>lat.=56.070351, lon.=26.463467, Alt.=122.831116m. Speed=0.648000m/h.</desc>
<speed>0.180000</speed>
</trkpt>
<trkpt lat="56.070347" lon="26.463467">
<ele>122.829163</ele>
<time>2010-08-29T12:17:41Z</time>
<desc>lat.=56.070347, lon.=26.463467, Alt.=122.829163m. Speed=0.288000m/h.</desc>
<speed>0.080000</speed>
</trkpt>
<trkpt lat="56.070347" lon="26.463465">
<ele>122.823303</ele>
<time>2010-08-29T12:17:42Z</time>
<desc>lat.=56.070347, lon.=26.463465, Alt.=122.823303m. Speed=0.504000m/h.</desc>
<speed>0.140000</speed>
</trkpt>
<trkpt lat="56.070347" lon="26.463465">
<ele>122.819397</ele>
<time>2010-08-29T12:17:43Z</time>
<desc>lat.=56.070347, lon.=26.463465, Alt.=122.819397m. Speed=0.684000m/h.</desc>
<speed>0.190000</speed>
</trkpt>
<trkpt lat="56.070343" lon="26.463465">
<ele>122.815491</ele>
<time>2010-08-29T12:17:44Z</time>
<desc>lat.=56.070343, lon.=26.463465, Alt.=122.815491m. Speed=0.576000m/h.</desc>
<speed>0.160000</speed>
</trkpt>
<trkpt lat="56.070343" lon="26.463463">
<ele>122.811584</ele>
<time>2010-08-29T12:17:45Z</time>
<desc>lat.=56.070343, lon.=26.463463, Alt.=122.811584m. Speed=0.612000m/h.</desc>
<speed>0.170000</speed>
</trkpt>
<trkpt lat="56.070343" lon="26.463463">
<ele>122.809631</ele>
<time>2010-08-29T12:17:46Z</time>
<desc>lat.=56.070343, lon.=26.463463, Alt.=122.809631m. Speed=0.576000m/h.</desc>
<speed>0.160000</speed>
</trkpt>
<trkpt lat="56.070339" lon="26.463461">
<ele>122.811584</ele>
<time>2010-08-29T12:17:47Z</time>
<desc>lat.=56.070339, lon.=26.463461, Alt.=122.811584m. Speed=0.396000m/h.</desc>
<speed>0.110000</speed>
</trkpt>
<trkpt lat="56.070339" lon="26.463461">
<ele>122.813538</ele>
<time>2010-08-29T12:17:48Z</time>
<desc>lat.=56.070339, lon.=26.463461, Alt.=122.813538m. Speed=0.468000m/h.</desc>
<speed>0.130000</speed>
</trkpt>
<trkpt lat="56.070339" lon="26.463461">
<ele>122.817444</ele>
<time>2010-08-29T12:17:49Z</time>
<desc>lat.=56.070339, lon.=26.463461, Alt.=122.817444m. Speed=0.468000m/h.</desc>
<speed>0.130000</speed>
</trkpt>
<trkpt lat="56.070335" lon="26.463461">
<ele>122.813538</ele>
<time>2010-08-29T12:17:50Z</time>
<desc>lat.=56.070335, lon.=26.463461, Alt.=122.813538m. Speed=0.612000m/h.</desc>
<speed>0.170000</speed>
</trkpt>
<trkpt lat="56.070335" lon="26.463461">
<ele>122.803772</ele>
<time>2010-08-29T12:17:51Z</time>
<desc>lat.=56.070335, lon.=26.463461, Alt.=122.803772m. Speed=0.612000m/h.</desc>
<speed>0.170000</speed>
</trkpt>
<trkpt lat="56.070332" lon="26.463461">
<ele>122.801819</ele>
<time>2010-08-29T12:17:52Z</time>
<desc>lat.=56.070332, lon.=26.463461, Alt.=122.801819m. Speed=0.540000m/h.</desc>
<speed>0.150000</speed>
</trkpt>
<trkpt lat="56.070332" lon="26.463459">
<ele>122.829163</ele>
<time>2010-08-29T12:17:53Z</time>
<desc>lat.=56.070332, lon.=26.463459, Alt.=122.829163m. Speed=0.324000m/h.</desc>
<speed>0.090000</speed>
</trkpt>
<trkpt lat="56.070332" lon="26.463459">
<ele>122.854553</ele>
<time>2010-08-29T12:17:54Z</time>
<desc>lat.=56.070332, lon.=26.463459, Alt.=122.854553m. Speed=0.648000m/h.</desc>
<speed>0.180000</speed>
</trkpt>
<trkpt lat="56.070328" lon="26.463459">
<ele>122.860413</ele>
<time>2010-08-29T12:17:55Z</time>
<desc>lat.=56.070328, lon.=26.463459, Alt.=122.860413m. Speed=0.324000m/h.</desc>
<speed>0.090000</speed>
</trkpt>
<trkpt lat="56.070328" lon="26.463457">
<ele>122.877991</ele>
<time>2010-08-29T12:17:56Z</time>
<desc>lat.=56.070328, lon.=26.463457, Alt.=122.877991m. Speed=0.612000m/h.</desc>
<speed>0.170000</speed>
</trkpt>
<trkpt lat="56.070328" lon="26.463457">
<ele>122.899475</ele>
<time>2010-08-29T12:17:57Z</time>
<desc>lat.=56.070328, lon.=26.463457, Alt.=122.899475m. Speed=0.432000m/h.</desc>
<speed>0.120000</speed>
</trkpt>
<trkpt lat="56.070324" lon="26.463455">
<ele>122.917053</ele>
<time>2010-08-29T12:17:58Z</time>
<desc>lat.=56.070324, lon.=26.463455, Alt.=122.917053m. Speed=0.324000m/h.</desc>
<speed>0.090000</speed>
</trkpt>
<trkpt lat="56.070324" lon="26.463455">
<ele>122.924866</ele>
<time>2010-08-29T12:17:59Z</time>
<desc>lat.=56.070324, lon.=26.463455, Alt.=122.924866m. Speed=0.612000m/h.</desc>
<speed>0.170000</speed>
</trkpt>
<trkpt lat="56.070324" lon="26.463455">
<ele>122.948303</ele>
<time>2010-08-29T12:18:00Z</time>
<desc>lat.=56.070324, lon.=26.463455, Alt.=122.948303m. Speed=0.108000m/h.</desc>
<speed>0.030000</speed>
</trkpt>
<trkpt lat="56.070320" lon="26.463453">
<ele>122.973694</ele>
<time>2010-08-29T12:18:01Z</time>
<desc>lat.=56.070320, lon.=26.463453, Alt.=122.973694m. Speed=0.252000m/h.</desc>
<speed>0.070000</speed>
</trkpt>
<trkpt lat="56.070320" lon="26.463453">
<ele>123.008850</ele>
<time>2010-08-29T12:18:02Z</time>
<desc>lat.=56.070320, lon.=26.463453, Alt.=123.008850m. Speed=0.108000m/h.</desc>
<speed>0.030000</speed>
</trkpt>
<trkpt lat="56.070320" lon="26.463453">
<ele>123.026428</ele>
<time>2010-08-29T12:18:03Z</time>
<desc>lat.=56.070320, lon.=26.463453, Alt.=123.026428m. Speed=0.180000m/h.</desc>
<speed>0.050000</speed>
</trkpt>
<trkpt lat="56.070320" lon="26.463453">
<ele>123.049866</ele>
<time>2010-08-29T12:18:04Z</time>
<desc>lat.=56.070320, lon.=26.463453, Alt.=123.049866m. Speed=0.504000m/h.</desc>
<speed>0.140000</speed>
</trkpt>
<trkpt lat="56.070320" lon="26.463453">
<ele>123.075256</ele>
<time>2010-08-29T12:18:05Z</time>
<desc>lat.=56.070320, lon.=26.463453, Alt.=123.075256m. Speed=0.720000m/h.</desc>
<speed>0.200000</speed>
</trkpt>
<trkpt lat="56.070316" lon="26.463451">
<ele>123.112366</ele>
<time>2010-08-29T12:18:06Z</time>
<desc>lat.=56.070316, lon.=26.463451, Alt.=123.112366m. Speed=0.468000m/h.</desc>
<speed>0.130000</speed>
</trkpt>
<trkpt lat="56.070316" lon="26.463451">
<ele>123.129944</ele>
<time>2010-08-29T12:18:07Z</time>
<desc>lat.=56.070316, lon.=26.463451, Alt.=123.129944m. Speed=0.216000m/h.</desc>
<speed>0.060000</speed>
</trkpt>
<trkpt lat="56.070316" lon="26.463451">
<ele>123.141663</ele>
<time>2010-08-29T12:18:08Z</time>
<desc>lat.=56.070316, lon.=26.463451, Alt.=123.141663m. Speed=0.000000m/h.</desc>
<speed>0.000000</speed>
</trkpt>
<trkpt lat="56.070316" lon="26.463451">
<ele>123.151428</ele>
<time>2010-08-29T12:18:09Z</time>
<desc>lat.=56.070316, lon.=26.463451, Alt.=123.151428m. Speed=0.072000m/h.</desc>
<speed>0.020000</speed>
</trkpt>
<trkpt lat="56.070316" lon="26.463451">
<ele>123.147522</ele>
<time>2010-08-29T12:18:10Z</time>
<desc>lat.=56.070316, lon.=26.463451, Alt.=123.147522m. Speed=0.432000m/h.</desc>
<speed>0.120000</speed>
</trkpt>
<trkpt lat="56.070316" lon="26.463451">
<ele>123.145569</ele>
<time>2010-08-29T12:18:11Z</time>
<desc>lat.=56.070316, lon.=26.463451, Alt.=123.145569m. Speed=0.540000m/h.</desc>
<speed>0.150000</speed>
</trkpt>
<trkpt lat="56.070316" lon="26.463451">
<ele>123.159241</ele>
<time>2010-08-29T12:18:12Z</time>
<desc>lat.=56.070316, lon.=26.463451, Alt.=123.159241m. Speed=0.180000m/h.</desc>
<speed>0.050000</speed>
</trkpt>
<trkpt lat="56.070316" lon="26.463451">
<ele>123.137756</ele>
<time>2010-08-29T12:18:13Z</time>
<desc>lat.=56.070316, lon.=26.463451, Alt.=123.137756m. Speed=0.144000m/h.</desc>
<speed>0.040000</speed>
</trkpt>
<trkpt lat="56.070316" lon="26.463451">
<ele>123.137756</ele>
<time>2010-08-29T12:18:14Z</time>
<desc>lat.=56.070316, lon.=26.463451, Alt.=123.137756m. Speed=0.216000m/h.</desc>
<speed>0.060000</speed>
</trkpt>
<trkpt lat="56.070316" lon="26.463451">
<ele>123.133850</ele>
<time>2010-08-29T12:18:15Z</time>
<desc>lat.=56.070316, lon.=26.463451, Alt.=123.133850m. Speed=0.252000m/h.</desc>
<speed>0.070000</speed>
</trkpt>
<trkpt lat="56.070316" lon="26.463451">
<ele>123.149475</ele>
<time>2010-08-29T12:18:16Z</time>
<desc>lat.=56.070316, lon.=26.463451, Alt.=123.149475m. Speed=0.036000m/h.</desc>
<speed>0.010000</speed>
</trkpt>
<trkpt lat="56.070316" lon="26.463451">
<ele>123.169006</ele>
<time>2010-08-29T12:18:17Z</time>
<desc>lat.=56.070316, lon.=26.463451, Alt.=123.169006m. Speed=0.324000m/h.</desc>
<speed>0.090000</speed>
</trkpt>
<trkpt lat="56.070316" lon="26.463449">
<ele>123.182678</ele>
<time>2010-08-29T12:18:18Z</time>
<desc>lat.=56.070316, lon.=26.463449, Alt.=123.182678m. Speed=0.360000m/h.</desc>
<speed>0.100000</speed>
</trkpt>
<trkpt lat="56.070316" lon="26.463449">
<ele>123.176819</ele>
<time>2010-08-29T12:18:19Z</time>
<desc>lat.=56.070316, lon.=26.463449, Alt.=123.176819m. Speed=0.288000m/h.</desc>
<speed>0.080000</speed>
</trkpt>
<trkpt lat="56.070316" lon="26.463449">
<ele>123.174866</ele>
<time>2010-08-29T12:18:20Z</time>
<desc>lat.=56.070316, lon.=26.463449, Alt.=123.174866m. Speed=0.144000m/h.</desc>
<speed>0.040000</speed>
</trkpt>
<trkpt lat="56.070316" lon="26.463449">
<ele>123.172913</ele>
<time>2010-08-29T12:18:21Z</time>
<desc>lat.=56.070316, lon.=26.463449, Alt.=123.172913m. Speed=0.216000m/h.</desc>
<speed>0.060000</speed>
</trkpt>
<trkpt lat="56.070313" lon="26.463449">
<ele>123.170959</ele>
<time>2010-08-29T12:18:22Z</time>
<desc>lat.=56.070313, lon.=26.463449, Alt.=123.170959m. Speed=0.288000m/h.</desc>
<speed>0.080000</speed>
</trkpt>
<trkpt lat="56.070313" lon="26.463449">
<ele>123.167053</ele>
<time>2010-08-29T12:18:23Z</time>
<desc>lat.=56.070313, lon.=26.463449, Alt.=123.167053m. Speed=0.180000m/h.</desc>
<speed>0.050000</speed>
</trkpt>
<trkpt lat="56.070313" lon="26.463449">
<ele>123.169006</ele>
<time>2010-08-29T12:18:24Z</time>
<desc>lat.=56.070313, lon.=26.463449, Alt.=123.169006m. Speed=0.108000m/h.</desc>
<speed>0.030000</speed>
</trkpt>
<trkpt lat="56.070313" lon="26.463449">
<ele>123.165100</ele>
<time>2010-08-29T12:18:25Z</time>
<desc>lat.=56.070313, lon.=26.463449, Alt.=123.165100m. Speed=0.180000m/h.</desc>
<speed>0.050000</speed>
</trkpt>
<trkpt lat="56.070313" lon="26.463449">
<ele>123.163147</ele>
<time>2010-08-29T12:18:26Z</time>
<desc>lat.=56.070313, lon.=26.463449, Alt.=123.163147m. Speed=0.072000m/h.</desc>
<speed>0.020000</speed>
</trkpt>
<trkpt lat="56.070313" lon="26.463449">
<ele>123.159241</ele>
<time>2010-08-29T12:18:27Z</time>
<desc>lat.=56.070313, lon.=26.463449, Alt.=123.159241m. Speed=0.072000m/h.</desc>
<speed>0.020000</speed>
</trkpt>
<trkpt lat="56.070313" lon="26.463449">
<ele>123.155334</ele>
<time>2010-08-29T12:18:28Z</time>
<desc>lat.=56.070313, lon.=26.463449, Alt.=123.155334m. Speed=0.072000m/h.</desc>
<speed>0.020000</speed>
</trkpt>
<trkpt lat="56.070313" lon="26.463449">
<ele>123.149475</ele>
<time>2010-08-29T12:18:29Z</time>
<desc>lat.=56.070313, lon.=26.463449, Alt.=123.149475m. Speed=0.000000m/h.</desc>
<speed>0.000000</speed>
</trkpt>
<trkpt lat="56.070313" lon="26.463449">
<ele>123.147522</ele>
<time>2010-08-29T12:18:30Z</time>
<desc>lat.=56.070313, lon.=26.463449, Alt.=123.147522m. Speed=0.036000m/h.</desc>
<speed>0.010000</speed>
</trkpt>
<trkpt lat="56.070313" lon="26.463449">
<ele>123.147522</ele>
<time>2010-08-29T12:18:31Z</time>
<desc>lat.=56.070313, lon.=26.463449, Alt.=123.147522m. Speed=0.000000m/h.</desc>
<speed>0.000000</speed>
</trkpt>
<trkpt lat="56.070313" lon="26.463449">
<ele>123.145569</ele>
<time>2010-08-29T12:18:32Z</time>
<desc>lat.=56.070313, lon.=26.463449, Alt.=123.145569m. Speed=0.000000m/h.</desc>
<speed>0.000000</speed>
</trkpt>
<trkpt lat="56.070313" lon="26.463449">
<ele>123.149475</ele>
<time>2010-08-29T12:18:33Z</time>
<desc>lat.=56.070313, lon.=26.463449, Alt.=123.149475m. Speed=0.000000m/h.</desc>
<speed>0.000000</speed>
</trkpt>
<trkpt lat="56.070313" lon="26.463449">
<ele>123.151428</ele>
<time>2010-08-29T12:18:34Z</time>
<desc>lat.=56.070313, lon.=26.463449, Alt.=123.151428m. Speed=0.000000m/h.</desc>
<speed>0.000000</speed>
</trkpt>
<trkpt lat="56.070313" lon="26.463449">
<ele>123.155334</ele>
<time>2010-08-29T12:18:35Z</time>
<desc>lat.=56.070313, lon.=26.463449, Alt.=123.155334m. Speed=0.000000m/h.</desc>
<speed>0.000000</speed>
</trkpt>
<trkpt lat="56.070313" lon="26.463449">
<ele>123.149475</ele>
<time>2010-08-29T12:18:36Z</time>
<desc>lat.=56.070313, lon.=26.463449, Alt.=123.149475m. Speed=0.036000m/h.</desc>
<speed>0.010000</speed>
</trkpt>
<trkpt lat="56.070313" lon="26.463449">
<ele>123.149475</ele>
<time>2010-08-29T12:18:37Z</time>
<desc>lat.=56.070313, lon.=26.463449, Alt.=123.149475m. Speed=0.000000m/h.</desc>
<speed>0.000000</speed>
</trkpt>
<trkpt lat="56.070313" lon="26.463449">
<ele>123.149475</ele>
<time>2010-08-29T12:18:38Z</time>
<desc>lat.=56.070313, lon.=26.463449, Alt.=123.149475m. Speed=0.036000m/h.</desc>
<speed>0.010000</speed>
</trkpt>
<trkpt lat="56.070313" lon="26.463449">
<ele>123.149475</ele>
<time>2010-08-29T12:18:39Z</time>
<desc>lat.=56.070313, lon.=26.463449, Alt.=123.149475m. Speed=0.000000m/h.</desc>
<speed>0.000000</speed>
</trkpt>
<trkpt lat="56.070313" lon="26.463448">
<ele>123.149475</ele>
<time>2010-08-29T12:18:40Z</time>
<desc>lat.=56.070313, lon.=26.463448, Alt.=123.149475m. Speed=0.000000m/h.</desc>
<speed>0.000000</speed>
</trkpt>
<trkpt lat="56.070313" lon="26.463448">
<ele>123.145569</ele>
<time>2010-08-29T12:18:41Z</time>
<desc>lat.=56.070313, lon.=26.463448, Alt.=123.145569m. Speed=0.036000m/h.</desc>
<speed>0.010000</speed>
</trkpt>
<trkpt lat="56.070313" lon="26.463448">
<ele>123.143616</ele>
<time>2010-08-29T12:18:42Z</time>
<desc>lat.=56.070313, lon.=26.463448, Alt.=123.143616m. Speed=0.000000m/h.</desc>
<speed>0.000000</speed>
</trkpt>
<trkpt lat="56.070313" lon="26.463448">
<ele>123.141663</ele>
<time>2010-08-29T12:18:43Z</time>
<desc>lat.=56.070313, lon.=26.463448, Alt.=123.141663m. Speed=0.000000m/h.</desc>
<speed>0.000000</speed>
</trkpt>
<trkpt lat="56.070313" lon="26.463448">
<ele>123.137756</ele>
<time>2010-08-29T12:18:44Z</time>
<desc>lat.=56.070313, lon.=26.463448, Alt.=123.137756m. Speed=0.000000m/h.</desc>
<speed>0.000000</speed>
</trkpt>
<trkpt lat="56.070313" lon="26.463448">
<ele>123.127991</ele>
<time>2010-08-29T12:18:45Z</time>
<desc>lat.=56.070313, lon.=26.463448, Alt.=123.127991m. Speed=0.000000m/h.</desc>
<speed>0.000000</speed>
</trkpt>
<trkpt lat="56.070313" lon="26.463448">
<ele>123.122131</ele>
<time>2010-08-29T12:18:46Z</time>
<desc>lat.=56.070313, lon.=26.463448, Alt.=123.122131m. Speed=0.000000m/h.</desc>
<speed>0.000000</speed>
</trkpt>
<trkpt lat="56.070313" lon="26.463448">
<ele>123.116272</ele>
<time>2010-08-29T12:18:47Z</time>
<desc>lat.=56.070313, lon.=26.463448, Alt.=123.116272m. Speed=0.000000m/h.</desc>
<speed>0.000000</speed>
</trkpt>
<trkpt lat="56.070313" lon="26.463448">
<ele>123.108459</ele>
<time>2010-08-29T12:18:48Z</time>
<desc>lat.=56.070313, lon.=26.463448, Alt.=123.108459m. Speed=0.000000m/h.</desc>
<speed>0.000000</speed>
</trkpt>
<trkpt lat="56.070313" lon="26.463448">
<ele>123.102600</ele>
<time>2010-08-29T12:18:49Z</time>
<desc>lat.=56.070313, lon.=26.463448, Alt.=123.102600m. Speed=0.000000m/h.</desc>
<speed>0.000000</speed>
</trkpt>
<trkpt lat="56.070313" lon="26.463448">
<ele>123.096741</ele>
<time>2010-08-29T12:18:50Z</time>
<desc>lat.=56.070313, lon.=26.463448, Alt.=123.096741m. Speed=0.036000m/h.</desc>
<speed>0.010000</speed>
</trkpt>
<trkpt lat="56.070313" lon="26.463448">
<ele>123.088928</ele>
<time>2010-08-29T12:18:51Z</time>
<desc>lat.=56.070313, lon.=26.463448, Alt.=123.088928m. Speed=0.000000m/h.</desc>
<speed>0.000000</speed>
</trkpt>
<trkpt lat="56.070313" lon="26.463448">
<ele>123.083069</ele>
<time>2010-08-29T12:18:52Z</time>
<desc>lat.=56.070313, lon.=26.463448, Alt.=123.083069m. Speed=0.036000m/h.</desc>
<speed>0.010000</speed>
</trkpt>
<trkpt lat="56.070313" lon="26.463448">
<ele>123.077209</ele>
<time>2010-08-29T12:18:53Z</time>
<desc>lat.=56.070313, lon.=26.463448, Alt.=123.077209m. Speed=0.000000m/h.</desc>
<speed>0.000000</speed>
</trkpt>
<trkpt lat="56.070313" lon="26.463448">
<ele>123.077209</ele>
<time>2010-08-29T12:18:54Z</time>
<desc>lat.=56.070313, lon.=26.463448, Alt.=123.077209m. Speed=0.036000m/h.</desc>
<speed>0.010000</speed>
</trkpt>
<trkpt lat="56.070313" lon="26.463448">
<ele>123.075256</ele>
<time>2010-08-29T12:18:55Z</time>
<desc>lat.=56.070313, lon.=26.463448, Alt.=123.075256m. Speed=0.036000m/h.</desc>
<speed>0.010000</speed>
</trkpt>
<trkpt lat="56.070313" lon="26.463448">
<ele>123.073303</ele>
<time>2010-08-29T12:18:56Z</time>
<desc>lat.=56.070313, lon.=26.463448, Alt.=123.073303m. Speed=0.036000m/h.</desc>
<speed>0.010000</speed>
</trkpt>
<trkpt lat="56.070313" lon="26.463448">
<ele>123.073303</ele>
<time>2010-08-29T12:18:57Z</time>
<desc>lat.=56.070313, lon.=26.463448, Alt.=123.073303m. Speed=0.036000m/h.</desc>
<speed>0.010000</speed>
</trkpt>
<trkpt lat="56.070313" lon="26.463448">
<ele>123.069397</ele>
<time>2010-08-29T12:18:58Z</time>
<desc>lat.=56.070313, lon.=26.463448, Alt.=123.069397m. Speed=0.000000m/h.</desc>
<speed>0.000000</speed>
</trkpt>
<trkpt lat="56.070313" lon="26.463448">
<ele>123.067444</ele>
<time>2010-08-29T12:18:59Z</time>
<desc>lat.=56.070313, lon.=26.463448, Alt.=123.067444m. Speed=0.036000m/h.</desc>
<speed>0.010000</speed>
</trkpt>
<trkpt lat="56.070313" lon="26.463448">
<ele>123.071350</ele>
<time>2010-08-29T12:19:00Z</time>
<desc>lat.=56.070313, lon.=26.463448, Alt.=123.071350m. Speed=0.000000m/h.</desc>
<speed>0.000000</speed>
</trkpt>
<trkpt lat="56.070313" lon="26.463448">
<ele>123.077209</ele>
<time>2010-08-29T12:19:01Z</time>
<desc>lat.=56.070313, lon.=26.463448, Alt.=123.077209m. Speed=0.000000m/h.</desc>
<speed>0.000000</speed>
</trkpt>
<trkpt lat="56.070313" lon="26.463448">
<ele>123.081116</ele>
<time>2010-08-29T12:19:02Z</time>
<desc>lat.=56.070313, lon.=26.463448, Alt.=123.081116m. Speed=0.000000m/h.</desc>
<speed>0.000000</speed>
</trkpt>
<trkpt lat="56.070313" lon="26.463448">
<ele>123.085022</ele>
<time>2010-08-29T12:19:03Z</time>
<desc>lat.=56.070313, lon.=26.463448, Alt.=123.085022m. Speed=0.036000m/h.</desc>
<speed>0.010000</speed>
</trkpt>
<trkpt lat="56.070313" lon="26.463448">
<ele>123.083069</ele>
<time>2010-08-29T12:19:04Z</time>
<desc>lat.=56.070313, lon.=26.463448, Alt.=123.083069m. Speed=0.000000m/h.</desc>
<speed>0.000000</speed>
</trkpt>
<trkpt lat="56.070313" lon="26.463448">
<ele>123.083069</ele>
<time>2010-08-29T12:19:05Z</time>
<desc>lat.=56.070313, lon.=26.463448, Alt.=123.083069m. Speed=0.000000m/h.</desc>
<speed>0.000000</speed>
</trkpt>
<trkpt lat="56.070313" lon="26.463448">
<ele>123.085022</ele>
<time>2010-08-29T12:19:06Z</time>
<desc>lat.=56.070313, lon.=26.463448, Alt.=123.085022m. Speed=0.108000m/h.</desc>
<speed>0.030000</speed>
</trkpt>
<trkpt lat="56.070313" lon="26.463448">
<ele>123.086975</ele>
<time>2010-08-29T12:19:07Z</time>
<desc>lat.=56.070313, lon.=26.463448, Alt.=123.086975m. Speed=0.072000m/h.</desc>
<speed>0.020000</speed>
</trkpt>
<trkpt lat="56.070313" lon="26.463448">
<ele>123.085022</ele>
<time>2010-08-29T12:19:08Z</time>
<desc>lat.=56.070313, lon.=26.463448, Alt.=123.085022m. Speed=0.144000m/h.</desc>
<speed>0.040000</speed>
</trkpt>
<trkpt lat="56.070313" lon="26.463448">
<ele>123.081116</ele>
<time>2010-08-29T12:19:09Z</time>
<desc>lat.=56.070313, lon.=26.463448, Alt.=123.081116m. Speed=0.072000m/h.</desc>
<speed>0.020000</speed>
</trkpt>
<trkpt lat="56.070313" lon="26.463448">
<ele>123.077209</ele>
<time>2010-08-29T12:19:10Z</time>
<desc>lat.=56.070313, lon.=26.463448, Alt.=123.077209m. Speed=0.108000m/h.</desc>
<speed>0.030000</speed>
</trkpt>
<trkpt lat="56.070313" lon="26.463448">
<ele>123.071350</ele>
<time>2010-08-29T12:19:11Z</time>
<desc>lat.=56.070313, lon.=26.463448, Alt.=123.071350m. Speed=0.072000m/h.</desc>
<speed>0.020000</speed>
</trkpt>
<trkpt lat="56.070313" lon="26.463448">
<ele>123.067444</ele>
<time>2010-08-29T12:19:12Z</time>
<desc>lat.=56.070313, lon.=26.463448, Alt.=123.067444m. Speed=0.144000m/h.</desc>
<speed>0.040000</speed>
</trkpt>
<trkpt lat="56.070313" lon="26.463448">
<ele>123.067444</ele>
<time>2010-08-29T12:19:13Z</time>
<desc>lat.=56.070313, lon.=26.463448, Alt.=123.067444m. Speed=0.252000m/h.</desc>
<speed>0.070000</speed>
</trkpt>
<trkpt lat="56.070313" lon="26.463448">
<ele>123.067444</ele>
<time>2010-08-29T12:19:14Z</time>
<desc>lat.=56.070313, lon.=26.463448, Alt.=123.067444m. Speed=0.180000m/h.</desc>
<speed>0.050000</speed>
</trkpt>
<trkpt lat="56.070316" lon="26.463448">
<ele>123.067444</ele>
<time>2010-08-29T12:19:15Z</time>
<desc>lat.=56.070316, lon.=26.463448, Alt.=123.067444m. Speed=0.144000m/h.</desc>
<speed>0.040000</speed>
</trkpt>
<trkpt lat="56.070316" lon="26.463448">
<ele>123.067444</ele>
<time>2010-08-29T12:19:16Z</time>
<desc>lat.=56.070316, lon.=26.463448, Alt.=123.067444m. Speed=0.180000m/h.</desc>
<speed>0.050000</speed>
</trkpt>
<trkpt lat="56.070316" lon="26.463448">
<ele>123.063538</ele>
<time>2010-08-29T12:19:17Z</time>
<desc>lat.=56.070316, lon.=26.463448, Alt.=123.063538m. Speed=0.180000m/h.</desc>
<speed>0.050000</speed>
</trkpt>
<trkpt lat="56.070316" lon="26.463448">
<ele>123.061584</ele>
<time>2010-08-29T12:19:18Z</time>
<desc>lat.=56.070316, lon.=26.463448, Alt.=123.061584m. Speed=0.180000m/h.</desc>
<speed>0.050000</speed>
</trkpt>
<trkpt lat="56.070316" lon="26.463448">
<ele>123.057678</ele>
<time>2010-08-29T12:19:19Z</time>
<desc>lat.=56.070316, lon.=26.463448, Alt.=123.057678m. Speed=0.180000m/h.</desc>
<speed>0.050000</speed>
</trkpt>
<trkpt lat="56.070316" lon="26.463448">
<ele>123.055725</ele>
<time>2010-08-29T12:19:20Z</time>
<desc>lat.=56.070316, lon.=26.463448, Alt.=123.055725m. Speed=0.108000m/h.</desc>
<speed>0.030000</speed>
</trkpt>
<trkpt lat="56.070316" lon="26.463448">
<ele>123.053772</ele>
<time>2010-08-29T12:19:21Z</time>
<desc>lat.=56.070316, lon.=26.463448, Alt.=123.053772m. Speed=0.108000m/h.</desc>
<speed>0.030000</speed>
</trkpt>
<trkpt lat="56.070316" lon="26.463448">
<ele>123.049866</ele>
<time>2010-08-29T12:19:22Z</time>
<desc>lat.=56.070316, lon.=26.463448, Alt.=123.049866m. Speed=0.036000m/h.</desc>
<speed>0.010000</speed>
</trkpt>
<trkpt lat="56.070316" lon="26.463448">
<ele>123.042053</ele>
<time>2010-08-29T12:19:23Z</time>
<desc>lat.=56.070316, lon.=26.463448, Alt.=123.042053m. Speed=0.144000m/h.</desc>
<speed>0.040000</speed>
</trkpt>
<trkpt lat="56.070316" lon="26.463448">
<ele>123.034241</ele>
<time>2010-08-29T12:19:24Z</time>
<desc>lat.=56.070316, lon.=26.463448, Alt.=123.034241m. Speed=0.108000m/h.</desc>
<speed>0.030000</speed>
</trkpt>
<trkpt lat="56.070316" lon="26.463448">
<ele>123.036194</ele>
<time>2010-08-29T12:19:25Z</time>
<desc>lat.=56.070316, lon.=26.463448, Alt.=123.036194m. Speed=0.000000m/h.</desc>
<speed>0.000000</speed>
</trkpt>
<trkpt lat="56.070316" lon="26.463448">
<ele>123.038147</ele>
<time>2010-08-29T12:19:26Z</time>
<desc>lat.=56.070316, lon.=26.463448, Alt.=123.038147m. Speed=0.036000m/h.</desc>
<speed>0.010000</speed>
</trkpt>
<trkpt lat="56.070316" lon="26.463448">
<ele>123.040100</ele>
<time>2010-08-29T12:19:27Z</time>
<desc>lat.=56.070316, lon.=26.463448, Alt.=123.040100m. Speed=0.036000m/h.</desc>
<speed>0.010000</speed>
</trkpt>
<trkpt lat="56.070316" lon="26.463448">
<ele>123.040100</ele>
<time>2010-08-29T12:19:28Z</time>
<desc>lat.=56.070316, lon.=26.463448, Alt.=123.040100m. Speed=0.036000m/h.</desc>
<speed>0.010000</speed>
</trkpt>
<trkpt lat="56.070316" lon="26.463448">
<ele>123.036194</ele>
<time>2010-08-29T12:19:29Z</time>
<desc>lat.=56.070316, lon.=26.463448, Alt.=123.036194m. Speed=0.000000m/h.</desc>
<speed>0.000000</speed>
</trkpt>
<trkpt lat="56.070316" lon="26.463448">
<ele>123.028381</ele>
<time>2010-08-29T12:19:30Z</time>
<desc>lat.=56.070316, lon.=26.463448, Alt.=123.028381m. Speed=0.036000m/h.</desc>
<speed>0.010000</speed>
</trkpt>
<trkpt lat="56.070316" lon="26.463448">
<ele>123.020569</ele>
<time>2010-08-29T12:19:31Z</time>
<desc>lat.=56.070316, lon.=26.463448, Alt.=123.020569m. Speed=0.036000m/h.</desc>
<speed>0.010000</speed>
</trkpt>
<trkpt lat="56.070316" lon="26.463448">
<ele>123.008850</ele>
<time>2010-08-29T12:19:32Z</time>
<desc>lat.=56.070316, lon.=26.463448, Alt.=123.008850m. Speed=0.000000m/h.</desc>
<speed>0.000000</speed>
</trkpt>
<trkpt lat="56.070316" lon="26.463448">
<ele>122.997131</ele>
<time>2010-08-29T12:19:33Z</time>
<desc>lat.=56.070316, lon.=26.463448, Alt.=122.997131m. Speed=0.036000m/h.</desc>
<speed>0.010000</speed>
</trkpt>
<trkpt lat="56.070316" lon="26.463448">
<ele>122.989319</ele>
<time>2010-08-29T12:19:34Z</time>
<desc>lat.=56.070316, lon.=26.463448, Alt.=122.989319m. Speed=0.036000m/h.</desc>
<speed>0.010000</speed>
</trkpt>
<trkpt lat="56.070316" lon="26.463448">
<ele>122.983459</ele>
<time>2010-08-29T12:19:35Z</time>
<desc>lat.=56.070316, lon.=26.463448, Alt.=122.983459m. Speed=0.000000m/h.</desc>
<speed>0.000000</speed>
</trkpt>
<trkpt lat="56.070316" lon="26.463448">
<ele>122.979553</ele>
<time>2010-08-29T12:19:36Z</time>
<desc>lat.=56.070316, lon.=26.463448, Alt.=122.979553m. Speed=0.072000m/h.</desc>
<speed>0.020000</speed>
</trkpt>
<trkpt lat="56.070316" lon="26.463448">
<ele>122.977600</ele>
<time>2010-08-29T12:19:37Z</time>
<desc>lat.=56.070316, lon.=26.463448, Alt.=122.977600m. Speed=0.036000m/h.</desc>
<speed>0.010000</speed>
</trkpt>
<trkpt lat="56.070316" lon="26.463448">
<ele>122.971741</ele>
<time>2010-08-29T12:19:38Z</time>
<desc>lat.=56.070316, lon.=26.463448, Alt.=122.971741m. Speed=0.072000m/h.</desc>
<speed>0.020000</speed>
</trkpt>
<trkpt lat="56.070316" lon="26.463448">
<ele>122.961975</ele>
<time>2010-08-29T12:19:39Z</time>
<desc>lat.=56.070316, lon.=26.463448, Alt.=122.961975m. Speed=0.000000m/h.</desc>
<speed>0.000000</speed>
</trkpt>
<trkpt lat="56.070316" lon="26.463448">
<ele>122.954163</ele>
<time>2010-08-29T12:19:40Z</time>
<desc>lat.=56.070316, lon.=26.463448, Alt.=122.954163m. Speed=0.036000m/h.</desc>
<speed>0.010000</speed>
</trkpt>
<trkpt lat="56.070316" lon="26.463448">
<ele>122.948303</ele>
<time>2010-08-29T12:19:41Z</time>
<desc>lat.=56.070316, lon.=26.463448, Alt.=122.948303m. Speed=0.000000m/h.</desc>
<speed>0.000000</speed>
</trkpt>
<trkpt lat="56.070316" lon="26.463448">
<ele>122.938538</ele>
<time>2010-08-29T12:19:42Z</time>
<desc>lat.=56.070316, lon.=26.463448, Alt.=122.938538m. Speed=0.000000m/h.</desc>
<speed>0.000000</speed>
</trkpt>
<trkpt lat="56.070316" lon="26.463448">
<ele>122.926819</ele>
<time>2010-08-29T12:19:43Z</time>
<desc>lat.=56.070316, lon.=26.463448, Alt.=122.926819m. Speed=0.036000m/h.</desc>
<speed>0.010000</speed>
</trkpt>
<trkpt lat="56.070316" lon="26.463448">
<ele>122.911194</ele>
<time>2010-08-29T12:19:44Z</time>
<desc>lat.=56.070316, lon.=26.463448, Alt.=122.911194m. Speed=0.036000m/h.</desc>
<speed>0.010000</speed>
</trkpt>
<trkpt lat="56.070316" lon="26.463448">
<ele>122.895569</ele>
<time>2010-08-29T12:19:45Z</time>
<desc>lat.=56.070316, lon.=26.463448, Alt.=122.895569m. Speed=0.108000m/h.</desc>
<speed>0.030000</speed>
</trkpt>
<trkpt lat="56.070316" lon="26.463448">
<ele>122.877991</ele>
<time>2010-08-29T12:19:46Z</time>
<desc>lat.=56.070316, lon.=26.463448, Alt.=122.877991m. Speed=0.072000m/h.</desc>
<speed>0.020000</speed>
</trkpt>
<trkpt lat="56.070316" lon="26.463448">
<ele>122.858459</ele>
<time>2010-08-29T12:19:47Z</time>
<desc>lat.=56.070316, lon.=26.463448, Alt.=122.858459m. Speed=0.072000m/h.</desc>
<speed>0.020000</speed>
</trkpt>
<trkpt lat="56.070316" lon="26.463448">
<ele>122.842834</ele>
<time>2010-08-29T12:19:48Z</time>
<desc>lat.=56.070316, lon.=26.463448, Alt.=122.842834m. Speed=0.108000m/h.</desc>
<speed>0.030000</speed>
</trkpt>
<trkpt lat="56.070316" lon="26.463448">
<ele>122.831116</ele>
<time>2010-08-29T12:19:49Z</time>
<desc>lat.=56.070316, lon.=26.463448, Alt.=122.831116m. Speed=0.144000m/h.</desc>
<speed>0.040000</speed>
</trkpt>
<trkpt lat="56.070316" lon="26.463448">
<ele>122.815491</ele>
<time>2010-08-29T12:19:50Z</time>
<desc>lat.=56.070316, lon.=26.463448, Alt.=122.815491m. Speed=0.072000m/h.</desc>
<speed>0.020000</speed>
</trkpt>
<trkpt lat="56.070316" lon="26.463446">
<ele>122.803772</ele>
<time>2010-08-29T12:19:51Z</time>
<desc>lat.=56.070316, lon.=26.463446, Alt.=122.803772m. Speed=0.036000m/h.</desc>
<speed>0.010000</speed>
</trkpt>
<trkpt lat="56.070316" lon="26.463446">
<ele>122.792053</ele>
<time>2010-08-29T12:19:52Z</time>
<desc>lat.=56.070316, lon.=26.463446, Alt.=122.792053m. Speed=0.108000m/h.</desc>
<speed>0.030000</speed>
</trkpt>
<trkpt lat="56.070313" lon="26.463446">
<ele>122.778381</ele>
<time>2010-08-29T12:19:53Z</time>
<desc>lat.=56.070313, lon.=26.463446, Alt.=122.778381m. Speed=0.108000m/h.</desc>
<speed>0.030000</speed>
</trkpt>
<trkpt lat="56.070313" lon="26.463446">
<ele>122.766663</ele>
<time>2010-08-29T12:19:54Z</time>
<desc>lat.=56.070313, lon.=26.463446, Alt.=122.766663m. Speed=0.036000m/h.</desc>
<speed>0.010000</speed>
</trkpt>
<trkpt lat="56.070313" lon="26.463446">
<ele>122.756897</ele>
<time>2010-08-29T12:19:55Z</time>
<desc>lat.=56.070313, lon.=26.463446, Alt.=122.756897m. Speed=0.036000m/h.</desc>
<speed>0.010000</speed>
</trkpt>
<trkpt lat="56.070313" lon="26.463446">
<ele>122.747131</ele>
<time>2010-08-29T12:19:56Z</time>
<desc>lat.=56.070313, lon.=26.463446, Alt.=122.747131m. Speed=0.036000m/h.</desc>
<speed>0.010000</speed>
</trkpt>
<trkpt lat="56.070313" lon="26.463446">
<ele>122.733459</ele>
<time>2010-08-29T12:19:57Z</time>
<desc>lat.=56.070313, lon.=26.463446, Alt.=122.733459m. Speed=0.036000m/h.</desc>
<speed>0.010000</speed>
</trkpt>
<trkpt lat="56.070313" lon="26.463446">
<ele>122.721741</ele>
<time>2010-08-29T12:19:58Z</time>
<desc>lat.=56.070313, lon.=26.463446, Alt.=122.721741m. Speed=0.000000m/h.</desc>
<speed>0.000000</speed>
</trkpt>
<trkpt lat="56.070313" lon="26.463446">
<ele>122.711975</ele>
<time>2010-08-29T12:19:59Z</time>
<desc>lat.=56.070313, lon.=26.463446, Alt.=122.711975m. Speed=0.000000m/h.</desc>
<speed>0.000000</speed>
</trkpt>
<trkpt lat="56.070313" lon="26.463446">
<ele>122.700256</ele>
<time>2010-08-29T12:20:00Z</time>
<desc>lat.=56.070313, lon.=26.463446, Alt.=122.700256m. Speed=0.036000m/h.</desc>
<speed>0.010000</speed>
</trkpt>
<trkpt lat="56.070313" lon="26.463446">
<ele>122.686584</ele>
<time>2010-08-29T12:20:01Z</time>
<desc>lat.=56.070313, lon.=26.463446, Alt.=122.686584m. Speed=0.000000m/h.</desc>
<speed>0.000000</speed>
</trkpt>
<trkpt lat="56.070313" lon="26.463446">
<ele>122.670959</ele>
<time>2010-08-29T12:20:02Z</time>
<desc>lat.=56.070313, lon.=26.463446, Alt.=122.670959m. Speed=0.000000m/h.</desc>
<speed>0.000000</speed>
</trkpt>
<trkpt lat="56.070313" lon="26.463446">
<ele>122.659241</ele>
<time>2010-08-29T12:20:03Z</time>
<desc>lat.=56.070313, lon.=26.463446, Alt.=122.659241m. Speed=0.000000m/h.</desc>
<speed>0.000000</speed>
</trkpt>
<trkpt lat="56.070313" lon="26.463446">
<ele>122.645569</ele>
<time>2010-08-29T12:20:04Z</time>
<desc>lat.=56.070313, lon.=26.463446, Alt.=122.645569m. Speed=0.036000m/h.</desc>
<speed>0.010000</speed>
</trkpt>
<trkpt lat="56.070313" lon="26.463446">
<ele>122.631897</ele>
<time>2010-08-29T12:20:05Z</time>
<desc>lat.=56.070313, lon.=26.463446, Alt.=122.631897m. Speed=0.036000m/h.</desc>
<speed>0.010000</speed>
</trkpt>
<trkpt lat="56.070313" lon="26.463446">
<ele>122.614319</ele>
<time>2010-08-29T12:20:06Z</time>
<desc>lat.=56.070313, lon.=26.463446, Alt.=122.614319m. Speed=0.000000m/h.</desc>
<speed>0.000000</speed>
</trkpt>
<trkpt lat="56.070313" lon="26.463446">
<ele>122.606506</ele>
<time>2010-08-29T12:20:07Z</time>
<desc>lat.=56.070313, lon.=26.463446, Alt.=122.606506m. Speed=0.036000m/h.</desc>
<speed>0.010000</speed>
</trkpt>
<trkpt lat="56.070313" lon="26.463446">
<ele>122.602600</ele>
<time>2010-08-29T12:20:08Z</time>
<desc>lat.=56.070313, lon.=26.463446, Alt.=122.602600m. Speed=0.036000m/h.</desc>
<speed>0.010000</speed>
</trkpt>
<trkpt lat="56.070313" lon="26.463446">
<ele>122.596741</ele>
<time>2010-08-29T12:20:09Z</time>
<desc>lat.=56.070313, lon.=26.463446, Alt.=122.596741m. Speed=0.000000m/h.</desc>
<speed>0.000000</speed>
</trkpt>
<trkpt lat="56.070313" lon="26.463446">
<ele>122.590881</ele>
<time>2010-08-29T12:20:10Z</time>
<desc>lat.=56.070313, lon.=26.463446, Alt.=122.590881m. Speed=0.072000m/h.</desc>
<speed>0.020000</speed>
</trkpt>
<trkpt lat="56.070313" lon="26.463446">
<ele>122.583069</ele>
<time>2010-08-29T12:20:11Z</time>
<desc>lat.=56.070313, lon.=26.463446, Alt.=122.583069m. Speed=0.036000m/h.</desc>
<speed>0.010000</speed>
</trkpt>
<trkpt lat="56.070313" lon="26.463446">
<ele>122.575256</ele>
<time>2010-08-29T12:20:12Z</time>
<desc>lat.=56.070313, lon.=26.463446, Alt.=122.575256m. Speed=0.072000m/h.</desc>
<speed>0.020000</speed>
</trkpt>
<trkpt lat="56.070313" lon="26.463446">
<ele>122.567444</ele>
<time>2010-08-29T12:20:13Z</time>
<desc>lat.=56.070313, lon.=26.463446, Alt.=122.567444m. Speed=0.072000m/h.</desc>
<speed>0.020000</speed>
</trkpt>
<trkpt lat="56.070313" lon="26.463446">
<ele>122.559631</ele>
<time>2010-08-29T12:20:14Z</time>
<desc>lat.=56.070313, lon.=26.463446, Alt.=122.559631m. Speed=0.036000m/h.</desc>
<speed>0.010000</speed>
</trkpt>
<trkpt lat="56.070313" lon="26.463446">
<ele>122.551819</ele>
<time>2010-08-29T12:20:15Z</time>
<desc>lat.=56.070313, lon.=26.463446, Alt.=122.551819m. Speed=0.072000m/h.</desc>
<speed>0.020000</speed>
</trkpt>
<trkpt lat="56.070313" lon="26.463446">
<ele>122.547913</ele>
<time>2010-08-29T12:20:16Z</time>
<desc>lat.=56.070313, lon.=26.463446, Alt.=122.547913m. Speed=0.000000m/h.</desc>
<speed>0.000000</speed>
</trkpt>
<trkpt lat="56.070313" lon="26.463446">
<ele>122.544006</ele>
<time>2010-08-29T12:20:17Z</time>
<desc>lat.=56.070313, lon.=26.463446, Alt.=122.544006m. Speed=0.036000m/h.</desc>
<speed>0.010000</speed>
</trkpt>
<trkpt lat="56.070313" lon="26.463446">
<ele>122.536194</ele>
<time>2010-08-29T12:20:18Z</time>
<desc>lat.=56.070313, lon.=26.463446, Alt.=122.536194m. Speed=0.000000m/h.</desc>
<speed>0.000000</speed>
</trkpt>
<trkpt lat="56.070313" lon="26.463446">
<ele>122.532288</ele>
<time>2010-08-29T12:20:19Z</time>
<desc>lat.=56.070313, lon.=26.463446, Alt.=122.532288m. Speed=0.036000m/h.</desc>
<speed>0.010000</speed>
</trkpt>
<trkpt lat="56.070313" lon="26.463446">
<ele>122.530334</ele>
<time>2010-08-29T12:20:20Z</time>
<desc>lat.=56.070313, lon.=26.463446, Alt.=122.530334m. Speed=0.072000m/h.</desc>
<speed>0.020000</speed>
</trkpt>
<trkpt lat="56.070313" lon="26.463446">
<ele>122.528381</ele>
<time>2010-08-29T12:20:21Z</time>
<desc>lat.=56.070313, lon.=26.463446, Alt.=122.528381m. Speed=0.072000m/h.</desc>
<speed>0.020000</speed>
</trkpt>
<trkpt lat="56.070313" lon="26.463446">
<ele>122.520569</ele>
<time>2010-08-29T12:20:22Z</time>
<desc>lat.=56.070313, lon.=26.463446, Alt.=122.520569m. Speed=0.108000m/h.</desc>
<speed>0.030000</speed>
</trkpt>
<trkpt lat="56.070313" lon="26.463446">
<ele>122.512756</ele>
<time>2010-08-29T12:20:23Z</time>
<desc>lat.=56.070313, lon.=26.463446, Alt.=122.512756m. Speed=0.144000m/h.</desc>
<speed>0.040000</speed>
</trkpt>
<trkpt lat="56.070313" lon="26.463446">
<ele>122.506897</ele>
<time>2010-08-29T12:20:24Z</time>
<desc>lat.=56.070313, lon.=26.463446, Alt.=122.506897m. Speed=0.000000m/h.</desc>
<speed>0.000000</speed>
</trkpt>
<trkpt lat="56.070313" lon="26.463446">
<ele>122.502991</ele>
<time>2010-08-29T12:20:25Z</time>
<desc>lat.=56.070313, lon.=26.463446, Alt.=122.502991m. Speed=0.000000m/h.</desc>
<speed>0.000000</speed>
</trkpt>
<trkpt lat="56.070313" lon="26.463446">
<ele>122.499084</ele>
<time>2010-08-29T12:20:26Z</time>
<desc>lat.=56.070313, lon.=26.463446, Alt.=122.499084m. Speed=0.036000m/h.</desc>
<speed>0.010000</speed>
</trkpt>
<trkpt lat="56.070313" lon="26.463446">
<ele>122.493225</ele>
<time>2010-08-29T12:20:27Z</time>
<desc>lat.=56.070313, lon.=26.463446, Alt.=122.493225m. Speed=0.000000m/h.</desc>
<speed>0.000000</speed>
</trkpt>
<trkpt lat="56.070313" lon="26.463446">
<ele>122.481506</ele>
<time>2010-08-29T12:20:28Z</time>
<desc>lat.=56.070313, lon.=26.463446, Alt.=122.481506m. Speed=0.036000m/h.</desc>
<speed>0.010000</speed>
</trkpt>
<trkpt lat="56.070313" lon="26.463446">
<ele>122.475647</ele>
<time>2010-08-29T12:20:29Z</time>
<desc>lat.=56.070313, lon.=26.463446, Alt.=122.475647m. Speed=0.036000m/h.</desc>
<speed>0.010000</speed>
</trkpt>
<trkpt lat="56.070313" lon="26.463446">
<ele>122.473694</ele>
<time>2010-08-29T12:20:30Z</time>
<desc>lat.=56.070313, lon.=26.463446, Alt.=122.473694m. Speed=0.000000m/h.</desc>
<speed>0.000000</speed>
</trkpt>
<trkpt lat="56.070313" lon="26.463446">
<ele>122.469788</ele>
<time>2010-08-29T12:20:31Z</time>
<desc>lat.=56.070313, lon.=26.463446, Alt.=122.469788m. Speed=0.000000m/h.</desc>
<speed>0.000000</speed>
</trkpt>
<trkpt lat="56.070313" lon="26.463446">
<ele>122.469788</ele>
<time>2010-08-29T12:20:32Z</time>
<desc>lat.=56.070313, lon.=26.463446, Alt.=122.469788m. Speed=0.000000m/h.</desc>
<speed>0.000000</speed>
</trkpt>
<trkpt lat="56.070313" lon="26.463446">
<ele>122.467834</ele>
<time>2010-08-29T12:20:33Z</time>
<desc>lat.=56.070313, lon.=26.463446, Alt.=122.467834m. Speed=0.036000m/h.</desc>
<speed>0.010000</speed>
</trkpt>
<trkpt lat="56.070313" lon="26.463446">
<ele>122.460022</ele>
<time>2010-08-29T12:20:34Z</time>
<desc>lat.=56.070313, lon.=26.463446, Alt.=122.460022m. Speed=0.000000m/h.</desc>
<speed>0.000000</speed>
</trkpt>
<trkpt lat="56.070313" lon="26.463446">
<ele>122.454163</ele>
<time>2010-08-29T12:20:35Z</time>
<desc>lat.=56.070313, lon.=26.463446, Alt.=122.454163m. Speed=0.000000m/h.</desc>
<speed>0.000000</speed>
</trkpt>
<trkpt lat="56.070313" lon="26.463446">
<ele>122.452209</ele>
<time>2010-08-29T12:20:36Z</time>
<desc>lat.=56.070313, lon.=26.463446, Alt.=122.452209m. Speed=0.000000m/h.</desc>
<speed>0.000000</speed>
</trkpt>
<trkpt lat="56.070313" lon="26.463446">
<ele>122.446350</ele>
<time>2010-08-29T12:20:37Z</time>
<desc>lat.=56.070313, lon.=26.463446, Alt.=122.446350m. Speed=0.000000m/h.</desc>
<speed>0.000000</speed>
</trkpt>
<trkpt lat="56.070313" lon="26.463446">
<ele>122.438538</ele>
<time>2010-08-29T12:20:38Z</time>
<desc>lat.=56.070313, lon.=26.463446, Alt.=122.438538m. Speed=0.036000m/h.</desc>
<speed>0.010000</speed>
</trkpt>
<trkpt lat="56.070313" lon="26.463446">
<ele>122.440491</ele>
<time>2010-08-29T12:20:39Z</time>
<desc>lat.=56.070313, lon.=26.463446, Alt.=122.440491m. Speed=0.000000m/h.</desc>
<speed>0.000000</speed>
</trkpt>
<trkpt lat="56.070313" lon="26.463446">
<ele>122.442444</ele>
<time>2010-08-29T12:20:40Z</time>
<desc>lat.=56.070313, lon.=26.463446, Alt.=122.442444m. Speed=0.000000m/h.</desc>
<speed>0.000000</speed>
</trkpt>
<trkpt lat="56.070313" lon="26.463446">
<ele>122.442444</ele>
<time>2010-08-29T12:20:41Z</time>
<desc>lat.=56.070313, lon.=26.463446, Alt.=122.442444m. Speed=0.036000m/h.</desc>
<speed>0.010000</speed>
</trkpt>
<trkpt lat="56.070313" lon="26.463444">
<ele>122.444397</ele>
<time>2010-08-29T12:20:42Z</time>
<desc>lat.=56.070313, lon.=26.463444, Alt.=122.444397m. Speed=0.000000m/h.</desc>
<speed>0.000000</speed>
</trkpt>
<trkpt lat="56.070313" lon="26.463444">
<ele>122.448303</ele>
<time>2010-08-29T12:20:43Z</time>
<desc>lat.=56.070313, lon.=26.463444, Alt.=122.448303m. Speed=0.036000m/h.</desc>
<speed>0.010000</speed>
</trkpt>
<trkpt lat="56.070313" lon="26.463444">
<ele>122.446350</ele>
<time>2010-08-29T12:20:44Z</time>
<desc>lat.=56.070313, lon.=26.463444, Alt.=122.446350m. Speed=0.000000m/h.</desc>
<speed>0.000000</speed>
</trkpt>
<trkpt lat="56.070313" lon="26.463444">
<ele>122.444397</ele>
<time>2010-08-29T12:20:45Z</time>
<desc>lat.=56.070313, lon.=26.463444, Alt.=122.444397m. Speed=0.000000m/h.</desc>
<speed>0.000000</speed>
</trkpt>
<trkpt lat="56.070313" lon="26.463444">
<ele>122.448303</ele>
<time>2010-08-29T12:20:46Z</time>
<desc>lat.=56.070313, lon.=26.463444, Alt.=122.448303m. Speed=0.036000m/h.</desc>
<speed>0.010000</speed>
</trkpt>
<trkpt lat="56.070313" lon="26.463444">
<ele>122.452209</ele>
<time>2010-08-29T12:20:47Z</time>
<desc>lat.=56.070313, lon.=26.463444, Alt.=122.452209m. Speed=0.000000m/h.</desc>
<speed>0.000000</speed>
</trkpt>
<trkpt lat="56.070313" lon="26.463444">
<ele>122.448303</ele>
<time>2010-08-29T12:20:48Z</time>
<desc>lat.=56.070313, lon.=26.463444, Alt.=122.448303m. Speed=0.036000m/h.</desc>
<speed>0.010000</speed>
</trkpt>
<trkpt lat="56.070313" lon="26.463444">
<ele>122.444397</ele>
<time>2010-08-29T12:20:49Z</time>
<desc>lat.=56.070313, lon.=26.463444, Alt.=122.444397m. Speed=0.036000m/h.</desc>
<speed>0.010000</speed>
</trkpt>
<trkpt lat="56.070313" lon="26.463444">
<ele>122.444397</ele>
<time>2010-08-29T12:20:50Z</time>
<desc>lat.=56.070313, lon.=26.463444, Alt.=122.444397m. Speed=0.036000m/h.</desc>
<speed>0.010000</speed>
</trkpt>
<trkpt lat="56.070313" lon="26.463444">
<ele>122.442444</ele>
<time>2010-08-29T12:20:51Z</time>
<desc>lat.=56.070313, lon.=26.463444, Alt.=122.442444m. Speed=0.000000m/h.</desc>
<speed>0.000000</speed>
</trkpt>
<trkpt lat="56.070313" lon="26.463444">
<ele>122.434631</ele>
<time>2010-08-29T12:20:52Z</time>
<desc>lat.=56.070313, lon.=26.463444, Alt.=122.434631m. Speed=0.036000m/h.</desc>
<speed>0.010000</speed>
</trkpt>
<trkpt lat="56.070313" lon="26.463444">
<ele>122.430725</ele>
<time>2010-08-29T12:20:53Z</time>
<desc>lat.=56.070313, lon.=26.463444, Alt.=122.430725m. Speed=0.000000m/h.</desc>
<speed>0.000000</speed>
</trkpt>
<trkpt lat="56.070313" lon="26.463444">
<ele>122.426819</ele>
<time>2010-08-29T12:20:54Z</time>
<desc>lat.=56.070313, lon.=26.463444, Alt.=122.426819m. Speed=0.000000m/h.</desc>
<speed>0.000000</speed>
</trkpt>
<trkpt lat="56.070313" lon="26.463444">
<ele>122.424866</ele>
<time>2010-08-29T12:20:55Z</time>
<desc>lat.=56.070313, lon.=26.463444, Alt.=122.424866m. Speed=0.000000m/h.</desc>
<speed>0.000000</speed>
</trkpt>
<trkpt lat="56.070313" lon="26.463444">
<ele>122.419006</ele>
<time>2010-08-29T12:20:56Z</time>
<desc>lat.=56.070313, lon.=26.463444, Alt.=122.419006m. Speed=0.000000m/h.</desc>
<speed>0.000000</speed>
</trkpt>
<trkpt lat="56.070313" lon="26.463444">
<ele>122.413147</ele>
<time>2010-08-29T12:20:57Z</time>
<desc>lat.=56.070313, lon.=26.463444, Alt.=122.413147m. Speed=0.000000m/h.</desc>
<speed>0.000000</speed>
</trkpt>
<trkpt lat="56.070313" lon="26.463444">
<ele>122.407288</ele>
<time>2010-08-29T12:20:58Z</time>
<desc>lat.=56.070313, lon.=26.463444, Alt.=122.407288m. Speed=0.036000m/h.</desc>
<speed>0.010000</speed>
</trkpt>
<trkpt lat="56.070313" lon="26.463444">
<ele>122.395569</ele>
<time>2010-08-29T12:20:59Z</time>
<desc>lat.=56.070313, lon.=26.463444, Alt.=122.395569m. Speed=0.000000m/h.</desc>
<speed>0.000000</speed>
</trkpt>
<trkpt lat="56.070313" lon="26.463444">
<ele>122.393616</ele>
<time>2010-08-29T12:21:00Z</time>
<desc>lat.=56.070313, lon.=26.463444, Alt.=122.393616m. Speed=0.000000m/h.</desc>
<speed>0.000000</speed>
</trkpt>
<trkpt lat="56.070313" lon="26.463444">
<ele>122.383850</ele>
<time>2010-08-29T12:21:01Z</time>
<desc>lat.=56.070313, lon.=26.463444, Alt.=122.383850m. Speed=0.036000m/h.</desc>
<speed>0.010000</speed>
</trkpt>
<trkpt lat="56.070313" lon="26.463444">
<ele>122.376038</ele>
<time>2010-08-29T12:21:02Z</time>
<desc>lat.=56.070313, lon.=26.463444, Alt.=122.376038m. Speed=0.000000m/h.</desc>
<speed>0.000000</speed>
</trkpt>
<trkpt lat="56.070309" lon="26.463444">
<ele>122.364319</ele>
<time>2010-08-29T12:21:03Z</time>
<desc>lat.=56.070309, lon.=26.463444, Alt.=122.364319m. Speed=0.036000m/h.</desc>
<speed>0.010000</speed>
</trkpt>
<trkpt lat="56.070309" lon="26.463444">
<ele>122.352600</ele>
<time>2010-08-29T12:21:04Z</time>
<desc>lat.=56.070309, lon.=26.463444, Alt.=122.352600m. Speed=0.072000m/h.</desc>
<speed>0.020000</speed>
</trkpt>
<trkpt lat="56.070309" lon="26.463444">
<ele>122.344788</ele>
<time>2010-08-29T12:21:05Z</time>
<desc>lat.=56.070309, lon.=26.463444, Alt.=122.344788m. Speed=0.000000m/h.</desc>
<speed>0.000000</speed>
</trkpt>
<trkpt lat="56.070309" lon="26.463444">
<ele>122.338928</ele>
<time>2010-08-29T12:21:06Z</time>
<desc>lat.=56.070309, lon.=26.463444, Alt.=122.338928m. Speed=0.036000m/h.</desc>
<speed>0.010000</speed>
</trkpt>
<trkpt lat="56.070309" lon="26.463444">
<ele>122.333069</ele>
<time>2010-08-29T12:21:07Z</time>
<desc>lat.=56.070309, lon.=26.463444, Alt.=122.333069m. Speed=0.036000m/h.</desc>
<speed>0.010000</speed>
</trkpt>
<trkpt lat="56.070309" lon="26.463444">
<ele>122.327209</ele>
<time>2010-08-29T12:21:08Z</time>
<desc>lat.=56.070309, lon.=26.463444, Alt.=122.327209m. Speed=0.000000m/h.</desc>
<speed>0.000000</speed>
</trkpt>
<trkpt lat="56.070309" lon="26.463444">
<ele>122.321350</ele>
<time>2010-08-29T12:21:09Z</time>
<desc>lat.=56.070309, lon.=26.463444, Alt.=122.321350m. Speed=0.036000m/h.</desc>
<speed>0.010000</speed>
</trkpt>
<trkpt lat="56.070309" lon="26.463444">
<ele>122.317444</ele>
<time>2010-08-29T12:21:10Z</time>
<desc>lat.=56.070309, lon.=26.463444, Alt.=122.317444m. Speed=0.000000m/h.</desc>
<speed>0.000000</speed>
</trkpt>
<trkpt lat="56.070309" lon="26.463442">
<ele>122.305725</ele>
<time>2010-08-29T12:21:11Z</time>
<desc>lat.=56.070309, lon.=26.463442, Alt.=122.305725m. Speed=0.072000m/h.</desc>
<speed>0.020000</speed>
</trkpt>
<trkpt lat="56.070309" lon="26.463442">
<ele>122.297913</ele>
<time>2010-08-29T12:21:12Z</time>
<desc>lat.=56.070309, lon.=26.463442, Alt.=122.297913m. Speed=0.000000m/h.</desc>
<speed>0.000000</speed>
</trkpt>
<trkpt lat="56.070309" lon="26.463442">
<ele>122.294006</ele>
<time>2010-08-29T12:21:13Z</time>
<desc>lat.=56.070309, lon.=26.463442, Alt.=122.294006m. Speed=0.036000m/h.</desc>
<speed>0.010000</speed>
</trkpt>
<trkpt lat="56.070309" lon="26.463442">
<ele>122.284241</ele>
<time>2010-08-29T12:21:14Z</time>
<desc>lat.=56.070309, lon.=26.463442, Alt.=122.284241m. Speed=0.000000m/h.</desc>
<speed>0.000000</speed>
</trkpt>
<trkpt lat="56.070309" lon="26.463442">
<ele>122.274475</ele>
<time>2010-08-29T12:21:15Z</time>
<desc>lat.=56.070309, lon.=26.463442, Alt.=122.274475m. Speed=0.072000m/h.</desc>
<speed>0.020000</speed>
</trkpt>
<trkpt lat="56.070309" lon="26.463442">
<ele>122.262756</ele>
<time>2010-08-29T12:21:16Z</time>
<desc>lat.=56.070309, lon.=26.463442, Alt.=122.262756m. Speed=0.000000m/h.</desc>
<speed>0.000000</speed>
</trkpt>
<trkpt lat="56.070309" lon="26.463442">
<ele>122.256897</ele>
<time>2010-08-29T12:21:17Z</time>
<desc>lat.=56.070309, lon.=26.463442, Alt.=122.256897m. Speed=0.108000m/h.</desc>
<speed>0.030000</speed>
</trkpt>
<trkpt lat="56.070309" lon="26.463442">
<ele>122.243225</ele>
<time>2010-08-29T12:21:18Z</time>
<desc>lat.=56.070309, lon.=26.463442, Alt.=122.243225m. Speed=0.000000m/h.</desc>
<speed>0.000000</speed>
</trkpt>
<trkpt lat="56.070309" lon="26.463442">
<ele>122.231506</ele>
<time>2010-08-29T12:21:19Z</time>
<desc>lat.=56.070309, lon.=26.463442, Alt.=122.231506m. Speed=0.000000m/h.</desc>
<speed>0.000000</speed>
</trkpt>
<trkpt lat="56.070309" lon="26.463442">
<ele>122.219788</ele>
<time>2010-08-29T12:21:20Z</time>
<desc>lat.=56.070309, lon.=26.463442, Alt.=122.219788m. Speed=0.000000m/h.</desc>
<speed>0.000000</speed>
</trkpt>
<trkpt lat="56.070309" lon="26.463442">
<ele>122.208069</ele>
<time>2010-08-29T12:21:21Z</time>
<desc>lat.=56.070309, lon.=26.463442, Alt.=122.208069m. Speed=0.000000m/h.</desc>
<speed>0.000000</speed>
</trkpt>
<trkpt lat="56.070309" lon="26.463442">
<ele>122.198303</ele>
<time>2010-08-29T12:21:22Z</time>
<desc>lat.=56.070309, lon.=26.463442, Alt.=122.198303m. Speed=0.072000m/h.</desc>
<speed>0.020000</speed>
</trkpt>
<trkpt lat="56.070309" lon="26.463442">
<ele>122.190491</ele>
<time>2010-08-29T12:21:23Z</time>
<desc>lat.=56.070309, lon.=26.463442, Alt.=122.190491m. Speed=0.036000m/h.</desc>
<speed>0.010000</speed>
</trkpt>
<trkpt lat="56.070309" lon="26.463442">
<ele>122.184631</ele>
<time>2010-08-29T12:21:24Z</time>
<desc>lat.=56.070309, lon.=26.463442, Alt.=122.184631m. Speed=0.000000m/h.</desc>
<speed>0.000000</speed>
</trkpt>
<trkpt lat="56.070309" lon="26.463442">
<ele>122.178772</ele>
<time>2010-08-29T12:21:25Z</time>
<desc>lat.=56.070309, lon.=26.463442, Alt.=122.178772m. Speed=0.036000m/h.</desc>
<speed>0.010000</speed>
</trkpt>
<trkpt lat="56.070309" lon="26.463442">
<ele>122.167053</ele>
<time>2010-08-29T12:21:26Z</time>
<desc>lat.=56.070309, lon.=26.463442, Alt.=122.167053m. Speed=0.000000m/h.</desc>
<speed>0.000000</speed>
</trkpt>
<trkpt lat="56.070309" lon="26.463442">
<ele>122.157288</ele>
<time>2010-08-29T12:21:27Z</time>
<desc>lat.=56.070309, lon.=26.463442, Alt.=122.157288m. Speed=0.036000m/h.</desc>
<speed>0.010000</speed>
</trkpt>
<trkpt lat="56.070309" lon="26.463442">
<ele>122.147522</ele>
<time>2010-08-29T12:21:28Z</time>
<desc>lat.=56.070309, lon.=26.463442, Alt.=122.147522m. Speed=0.036000m/h.</desc>
<speed>0.010000</speed>
</trkpt>
<trkpt lat="56.070309" lon="26.463442">
<ele>122.135803</ele>
<time>2010-08-29T12:21:29Z</time>
<desc>lat.=56.070309, lon.=26.463442, Alt.=122.135803m. Speed=0.000000m/h.</desc>
<speed>0.000000</speed>
</trkpt>
<trkpt lat="56.070309" lon="26.463442">
<ele>122.127991</ele>
<time>2010-08-29T12:21:30Z</time>
<desc>lat.=56.070309, lon.=26.463442, Alt.=122.127991m. Speed=0.036000m/h.</desc>
<speed>0.010000</speed>
</trkpt>
<trkpt lat="56.070309" lon="26.463442">
<ele>122.120178</ele>
<time>2010-08-29T12:21:31Z</time>
<desc>lat.=56.070309, lon.=26.463442, Alt.=122.120178m. Speed=0.000000m/h.</desc>
<speed>0.000000</speed>
</trkpt>
<trkpt lat="56.070309" lon="26.463442">
<ele>122.112366</ele>
<time>2010-08-29T12:21:32Z</time>
<desc>lat.=56.070309, lon.=26.463442, Alt.=122.112366m. Speed=0.036000m/h.</desc>
<speed>0.010000</speed>
</trkpt>
<trkpt lat="56.070309" lon="26.463442">
<ele>122.104553</ele>
<time>2010-08-29T12:21:33Z</time>
<desc>lat.=56.070309, lon.=26.463442, Alt.=122.104553m. Speed=0.000000m/h.</desc>
<speed>0.000000</speed>
</trkpt>
<trkpt lat="56.070309" lon="26.463442">
<ele>122.098694</ele>
<time>2010-08-29T12:21:34Z</time>
<desc>lat.=56.070309, lon.=26.463442, Alt.=122.098694m. Speed=0.000000m/h.</desc>
<speed>0.000000</speed>
</trkpt>
<trkpt lat="56.070309" lon="26.463442">
<ele>122.094788</ele>
<time>2010-08-29T12:21:35Z</time>
<desc>lat.=56.070309, lon.=26.463442, Alt.=122.094788m. Speed=0.000000m/h.</desc>
<speed>0.000000</speed>
</trkpt>
<trkpt lat="56.070309" lon="26.463442">
<ele>122.086975</ele>
<time>2010-08-29T12:21:36Z</time>
<desc>lat.=56.070309, lon.=26.463442, Alt.=122.086975m. Speed=0.036000m/h.</desc>
<speed>0.010000</speed>
</trkpt>
<trkpt lat="56.070309" lon="26.463442">
<ele>122.088928</ele>
<time>2010-08-29T12:21:37Z</time>
<desc>lat.=56.070309, lon.=26.463442, Alt.=122.088928m. Speed=0.000000m/h.</desc>
<speed>0.000000</speed>
</trkpt>
<trkpt lat="56.070309" lon="26.463442">
<ele>122.086975</ele>
<time>2010-08-29T12:21:38Z</time>
<desc>lat.=56.070309, lon.=26.463442, Alt.=122.086975m. Speed=0.036000m/h.</desc>
<speed>0.010000</speed>
</trkpt>
<trkpt lat="56.070309" lon="26.463442">
<ele>122.085022</ele>
<time>2010-08-29T12:21:39Z</time>
<desc>lat.=56.070309, lon.=26.463442, Alt.=122.085022m. Speed=0.036000m/h.</desc>
<speed>0.010000</speed>
</trkpt>
<trkpt lat="56.070309" lon="26.463442">
<ele>122.085022</ele>
<time>2010-08-29T12:21:40Z</time>
<desc>lat.=56.070309, lon.=26.463442, Alt.=122.085022m. Speed=0.000000m/h.</desc>
<speed>0.000000</speed>
</trkpt>
<trkpt lat="56.070309" lon="26.463442">
<ele>122.081116</ele>
<time>2010-08-29T12:21:41Z</time>
<desc>lat.=56.070309, lon.=26.463442, Alt.=122.081116m. Speed=0.036000m/h.</desc>
<speed>0.010000</speed>
</trkpt>
<trkpt lat="56.070309" lon="26.463442">
<ele>122.077209</ele>
<time>2010-08-29T12:21:42Z</time>
<desc>lat.=56.070309, lon.=26.463442, Alt.=122.077209m. Speed=0.000000m/h.</desc>
<speed>0.000000</speed>
</trkpt>
<trkpt lat="56.070309" lon="26.463442">
<ele>122.077209</ele>
<time>2010-08-29T12:21:43Z</time>
<desc>lat.=56.070309, lon.=26.463442, Alt.=122.077209m. Speed=0.000000m/h.</desc>
<speed>0.000000</speed>
</trkpt>
<trkpt lat="56.070309" lon="26.463442">
<ele>122.075256</ele>
<time>2010-08-29T12:21:44Z</time>
<desc>lat.=56.070309, lon.=26.463442, Alt.=122.075256m. Speed=0.000000m/h.</desc>
<speed>0.000000</speed>
</trkpt>
<trkpt lat="56.070309" lon="26.463442">
<ele>122.075256</ele>
<time>2010-08-29T12:21:45Z</time>
<desc>lat.=56.070309, lon.=26.463442, Alt.=122.075256m. Speed=0.000000m/h.</desc>
<speed>0.000000</speed>
</trkpt>
<trkpt lat="56.070309" lon="26.463442">
<ele>122.075256</ele>
<time>2010-08-29T12:21:46Z</time>
<desc>lat.=56.070309, lon.=26.463442, Alt.=122.075256m. Speed=0.000000m/h.</desc>
<speed>0.000000</speed>
</trkpt>
<trkpt lat="56.070309" lon="26.463442">
<ele>122.071350</ele>
<time>2010-08-29T12:21:47Z</time>
<desc>lat.=56.070309, lon.=26.463442, Alt.=122.071350m. Speed=0.000000m/h.</desc>
<speed>0.000000</speed>
</trkpt>
<trkpt lat="56.070309" lon="26.463442">
<ele>122.067444</ele>
<time>2010-08-29T12:21:48Z</time>
<desc>lat.=56.070309, lon.=26.463442, Alt.=122.067444m. Speed=0.000000m/h.</desc>
<speed>0.000000</speed>
</trkpt>
<trkpt lat="56.070309" lon="26.463442">
<ele>122.065491</ele>
<time>2010-08-29T12:21:49Z</time>
<desc>lat.=56.070309, lon.=26.463442, Alt.=122.065491m. Speed=0.000000m/h.</desc>
<speed>0.000000</speed>
</trkpt>
<trkpt lat="56.070309" lon="26.463442">
<ele>122.065491</ele>
<time>2010-08-29T12:21:50Z</time>
<desc>lat.=56.070309, lon.=26.463442, Alt.=122.065491m. Speed=0.000000m/h.</desc>
<speed>0.000000</speed>
</trkpt>
<trkpt lat="56.070309" lon="26.463442">
<ele>122.063538</ele>
<time>2010-08-29T12:21:51Z</time>
<desc>lat.=56.070309, lon.=26.463442, Alt.=122.063538m. Speed=0.000000m/h.</desc>
<speed>0.000000</speed>
</trkpt>
<trkpt lat="56.070309" lon="26.463442">
<ele>122.061584</ele>
<time>2010-08-29T12:21:52Z</time>
<desc>lat.=56.070309, lon.=26.463442, Alt.=122.061584m. Speed=0.000000m/h.</desc>
<speed>0.000000</speed>
</trkpt>
<trkpt lat="56.070309" lon="26.463442">
<ele>122.061584</ele>
<time>2010-08-29T12:21:53Z</time>
<desc>lat.=56.070309, lon.=26.463442, Alt.=122.061584m. Speed=0.000000m/h.</desc>
<speed>0.000000</speed>
</trkpt>
<trkpt lat="56.070309" lon="26.463440">
<ele>122.059631</ele>
<time>2010-08-29T12:21:54Z</time>
<desc>lat.=56.070309, lon.=26.463440, Alt.=122.059631m. Speed=0.000000m/h.</desc>
<speed>0.000000</speed>
</trkpt>
<trkpt lat="56.070309" lon="26.463440">
<ele>122.051819</ele>
<time>2010-08-29T12:21:55Z</time>
<desc>lat.=56.070309, lon.=26.463440, Alt.=122.051819m. Speed=0.000000m/h.</desc>
<speed>0.000000</speed>
</trkpt>
<trkpt lat="56.070309" lon="26.463440">
<ele>122.047913</ele>
<time>2010-08-29T12:21:56Z</time>
<desc>lat.=56.070309, lon.=26.463440, Alt.=122.047913m. Speed=0.000000m/h.</desc>
<speed>0.000000</speed>
</trkpt>
<trkpt lat="56.070309" lon="26.463440">
<ele>122.040100</ele>
<time>2010-08-29T12:21:57Z</time>
<desc>lat.=56.070309, lon.=26.463440, Alt.=122.040100m. Speed=0.000000m/h.</desc>
<speed>0.000000</speed>
</trkpt>
<trkpt lat="56.070309" lon="26.463440">
<ele>122.034241</ele>
<time>2010-08-29T12:21:58Z</time>
<desc>lat.=56.070309, lon.=26.463440, Alt.=122.034241m. Speed=0.000000m/h.</desc>
<speed>0.000000</speed>
</trkpt>
<trkpt lat="56.070309" lon="26.463440">
<ele>122.028381</ele>
<time>2010-08-29T12:21:59Z</time>
<desc>lat.=56.070309, lon.=26.463440, Alt.=122.028381m. Speed=0.000000m/h.</desc>
<speed>0.000000</speed>
</trkpt>
<trkpt lat="56.070309" lon="26.463440">
<ele>122.024475</ele>
<time>2010-08-29T12:22:00Z</time>
<desc>lat.=56.070309, lon.=26.463440, Alt.=122.024475m. Speed=0.036000m/h.</desc>
<speed>0.010000</speed>
</trkpt>
<trkpt lat="56.070309" lon="26.463440">
<ele>122.016663</ele>
<time>2010-08-29T12:22:01Z</time>
<desc>lat.=56.070309, lon.=26.463440, Alt.=122.016663m. Speed=0.000000m/h.</desc>
<speed>0.000000</speed>
</trkpt>
<trkpt lat="56.070309" lon="26.463440">
<ele>122.014709</ele>
<time>2010-08-29T12:22:02Z</time>
<desc>lat.=56.070309, lon.=26.463440, Alt.=122.014709m. Speed=0.036000m/h.</desc>
<speed>0.010000</speed>
</trkpt>
<trkpt lat="56.070309" lon="26.463440">
<ele>122.012756</ele>
<time>2010-08-29T12:22:03Z</time>
<desc>lat.=56.070309, lon.=26.463440, Alt.=122.012756m. Speed=0.000000m/h.</desc>
<speed>0.000000</speed>
</trkpt>
<trkpt lat="56.070309" lon="26.463440">
<ele>122.008850</ele>
<time>2010-08-29T12:22:04Z</time>
<desc>lat.=56.070309, lon.=26.463440, Alt.=122.008850m. Speed=0.036000m/h.</desc>
<speed>0.010000</speed>
</trkpt>
<trkpt lat="56.070309" lon="26.463440">
<ele>122.004944</ele>
<time>2010-08-29T12:22:05Z</time>
<desc>lat.=56.070309, lon.=26.463440, Alt.=122.004944m. Speed=0.000000m/h.</desc>
<speed>0.000000</speed>
</trkpt>
<trkpt lat="56.070309" lon="26.463440">
<ele>122.002991</ele>
<time>2010-08-29T12:22:06Z</time>
<desc>lat.=56.070309, lon.=26.463440, Alt.=122.002991m. Speed=0.036000m/h.</desc>
<speed>0.010000</speed>
</trkpt>
<trkpt lat="56.070309" lon="26.463440">
<ele>122.001038</ele>
<time>2010-08-29T12:22:07Z</time>
<desc>lat.=56.070309, lon.=26.463440, Alt.=122.001038m. Speed=0.000000m/h.</desc>
<speed>0.000000</speed>
</trkpt>
<trkpt lat="56.070309" lon="26.463440">
<ele>122.001038</ele>
<time>2010-08-29T12:22:08Z</time>
<desc>lat.=56.070309, lon.=26.463440, Alt.=122.001038m. Speed=0.000000m/h.</desc>
<speed>0.000000</speed>
</trkpt>
<trkpt lat="56.070309" lon="26.463440">
<ele>122.002991</ele>
<time>2010-08-29T12:22:09Z</time>
<desc>lat.=56.070309, lon.=26.463440, Alt.=122.002991m. Speed=0.000000m/h.</desc>
<speed>0.000000</speed>
</trkpt>
<trkpt lat="56.070309" lon="26.463440">
<ele>122.002991</ele>
<time>2010-08-29T12:22:10Z</time>
<desc>lat.=56.070309, lon.=26.463440, Alt.=122.002991m. Speed=0.036000m/h.</desc>
<speed>0.010000</speed>
</trkpt>
<trkpt lat="56.070309" lon="26.463440">
<ele>122.004944</ele>
<time>2010-08-29T12:22:11Z</time>
<desc>lat.=56.070309, lon.=26.463440, Alt.=122.004944m. Speed=0.000000m/h.</desc>
<speed>0.000000</speed>
</trkpt>
<trkpt lat="56.070309" lon="26.463440">
<ele>122.010803</ele>
<time>2010-08-29T12:22:12Z</time>
<desc>lat.=56.070309, lon.=26.463440, Alt.=122.010803m. Speed=0.036000m/h.</desc>
<speed>0.010000</speed>
</trkpt>
<trkpt lat="56.070309" lon="26.463440">
<ele>122.014709</ele>
<time>2010-08-29T12:22:13Z</time>
<desc>lat.=56.070309, lon.=26.463440, Alt.=122.014709m. Speed=0.000000m/h.</desc>
<speed>0.000000</speed>
</trkpt>
<trkpt lat="56.070309" lon="26.463440">
<ele>122.022522</ele>
<time>2010-08-29T12:22:14Z</time>
<desc>lat.=56.070309, lon.=26.463440, Alt.=122.022522m. Speed=0.000000m/h.</desc>
<speed>0.000000</speed>
</trkpt>
<trkpt lat="56.070309" lon="26.463440">
<ele>122.028381</ele>
<time>2010-08-29T12:22:15Z</time>
<desc>lat.=56.070309, lon.=26.463440, Alt.=122.028381m. Speed=0.000000m/h.</desc>
<speed>0.000000</speed>
</trkpt>
<trkpt lat="56.070309" lon="26.463440">
<ele>122.032288</ele>
<time>2010-08-29T12:22:16Z</time>
<desc>lat.=56.070309, lon.=26.463440, Alt.=122.032288m. Speed=0.036000m/h.</desc>
<speed>0.010000</speed>
</trkpt>
<trkpt lat="56.070309" lon="26.463440">
<ele>122.036194</ele>
<time>2010-08-29T12:22:17Z</time>
<desc>lat.=56.070309, lon.=26.463440, Alt.=122.036194m. Speed=0.000000m/h.</desc>
<speed>0.000000</speed>
</trkpt>
<trkpt lat="56.070309" lon="26.463440">
<ele>122.042053</ele>
<time>2010-08-29T12:22:18Z</time>
<desc>lat.=56.070309, lon.=26.463440, Alt.=122.042053m. Speed=0.036000m/h.</desc>
<speed>0.010000</speed>
</trkpt>
<trkpt lat="56.070309" lon="26.463440">
<ele>122.045959</ele>
<time>2010-08-29T12:22:19Z</time>
<desc>lat.=56.070309, lon.=26.463440, Alt.=122.045959m. Speed=0.036000m/h.</desc>
<speed>0.010000</speed>
</trkpt>
<trkpt lat="56.070309" lon="26.463440">
<ele>122.051819</ele>
<time>2010-08-29T12:22:20Z</time>
<desc>lat.=56.070309, lon.=26.463440, Alt.=122.051819m. Speed=0.036000m/h.</desc>
<speed>0.010000</speed>
</trkpt>
<trkpt lat="56.070309" lon="26.463440">
<ele>122.057678</ele>
<time>2010-08-29T12:22:21Z</time>
<desc>lat.=56.070309, lon.=26.463440, Alt.=122.057678m. Speed=0.000000m/h.</desc>
<speed>0.000000</speed>
</trkpt>
<trkpt lat="56.070309" lon="26.463440">
<ele>122.063538</ele>
<time>2010-08-29T12:22:22Z</time>
<desc>lat.=56.070309, lon.=26.463440, Alt.=122.063538m. Speed=0.000000m/h.</desc>
<speed>0.000000</speed>
</trkpt>
<trkpt lat="56.070309" lon="26.463440">
<ele>122.069397</ele>
<time>2010-08-29T12:22:23Z</time>
<desc>lat.=56.070309, lon.=26.463440, Alt.=122.069397m. Speed=0.000000m/h.</desc>
<speed>0.000000</speed>
</trkpt>
<trkpt lat="56.070309" lon="26.463440">
<ele>122.071350</ele>
<time>2010-08-29T12:22:24Z</time>
<desc>lat.=56.070309, lon.=26.463440, Alt.=122.071350m. Speed=0.000000m/h.</desc>
<speed>0.000000</speed>
</trkpt>
<trkpt lat="56.070309" lon="26.463440">
<ele>122.075256</ele>
<time>2010-08-29T12:22:25Z</time>
<desc>lat.=56.070309, lon.=26.463440, Alt.=122.075256m. Speed=0.000000m/h.</desc>
<speed>0.000000</speed>
</trkpt>
<trkpt lat="56.070309" lon="26.463440">
<ele>122.081116</ele>
<time>2010-08-29T12:22:26Z</time>
<desc>lat.=56.070309, lon.=26.463440, Alt.=122.081116m. Speed=0.036000m/h.</desc>
<speed>0.010000</speed>
</trkpt>
<trkpt lat="56.070309" lon="26.463440">
<ele>122.081116</ele>
<time>2010-08-29T12:22:27Z</time>
<desc>lat.=56.070309, lon.=26.463440, Alt.=122.081116m. Speed=0.036000m/h.</desc>
<speed>0.010000</speed>
</trkpt>
<trkpt lat="56.070309" lon="26.463440">
<ele>122.083069</ele>
<time>2010-08-29T12:22:28Z</time>
<desc>lat.=56.070309, lon.=26.463440, Alt.=122.083069m. Speed=0.000000m/h.</desc>
<speed>0.000000</speed>
</trkpt>
<trkpt lat="56.070309" lon="26.463440">
<ele>122.083069</ele>
<time>2010-08-29T12:22:29Z</time>
<desc>lat.=56.070309, lon.=26.463440, Alt.=122.083069m. Speed=0.000000m/h.</desc>
<speed>0.000000</speed>
</trkpt>
<trkpt lat="56.070309" lon="26.463440">
<ele>122.086975</ele>
<time>2010-08-29T12:22:30Z</time>
<desc>lat.=56.070309, lon.=26.463440, Alt.=122.086975m. Speed=0.000000m/h.</desc>
<speed>0.000000</speed>
</trkpt>
<trkpt lat="56.070309" lon="26.463440">
<ele>122.086975</ele>
<time>2010-08-29T12:22:31Z</time>
<desc>lat.=56.070309, lon.=26.463440, Alt.=122.086975m. Speed=0.000000m/h.</desc>
<speed>0.000000</speed>
</trkpt>
<trkpt lat="56.070309" lon="26.463440">
<ele>122.088928</ele>
<time>2010-08-29T12:22:32Z</time>
<desc>lat.=56.070309, lon.=26.463440, Alt.=122.088928m. Speed=0.036000m/h.</desc>
<speed>0.010000</speed>
</trkpt>
<trkpt lat="56.070309" lon="26.463440">
<ele>122.086975</ele>
<time>2010-08-29T12:22:33Z</time>
<desc>lat.=56.070309, lon.=26.463440, Alt.=122.086975m. Speed=0.000000m/h.</desc>
<speed>0.000000</speed>
</trkpt>
<trkpt lat="56.070309" lon="26.463440">
<ele>122.085022</ele>
<time>2010-08-29T12:22:34Z</time>
<desc>lat.=56.070309, lon.=26.463440, Alt.=122.085022m. Speed=0.036000m/h.</desc>
<speed>0.010000</speed>
</trkpt>
<trkpt lat="56.070309" lon="26.463440">
<ele>122.085022</ele>
<time>2010-08-29T12:22:35Z</time>
<desc>lat.=56.070309, lon.=26.463440, Alt.=122.085022m. Speed=0.000000m/h.</desc>
<speed>0.000000</speed>
</trkpt>
<trkpt lat="56.070309" lon="26.463440">
<ele>122.085022</ele>
<time>2010-08-29T12:22:36Z</time>
<desc>lat.=56.070309, lon.=26.463440, Alt.=122.085022m. Speed=0.000000m/h.</desc>
<speed>0.000000</speed>
</trkpt>
<trkpt lat="56.070309" lon="26.463440">
<ele>122.088928</ele>
<time>2010-08-29T12:22:37Z</time>
<desc>lat.=56.070309, lon.=26.463440, Alt.=122.088928m. Speed=0.000000m/h.</desc>
<speed>0.000000</speed>
</trkpt>
<trkpt lat="56.070309" lon="26.463440">
<ele>122.092834</ele>
<time>2010-08-29T12:22:38Z</time>
<desc>lat.=56.070309, lon.=26.463440, Alt.=122.092834m. Speed=0.036000m/h.</desc>
<speed>0.010000</speed>
</trkpt>
<trkpt lat="56.070309" lon="26.463440">
<ele>122.094788</ele>
<time>2010-08-29T12:22:39Z</time>
<desc>lat.=56.070309, lon.=26.463440, Alt.=122.094788m. Speed=0.036000m/h.</desc>
<speed>0.010000</speed>
</trkpt>
<trkpt lat="56.070309" lon="26.463440">
<ele>122.096741</ele>
<time>2010-08-29T12:22:40Z</time>
<desc>lat.=56.070309, lon.=26.463440, Alt.=122.096741m. Speed=0.000000m/h.</desc>
<speed>0.000000</speed>
</trkpt>
<trkpt lat="56.070309" lon="26.463440">
<ele>122.102600</ele>
<time>2010-08-29T12:22:41Z</time>
<desc>lat.=56.070309, lon.=26.463440, Alt.=122.102600m. Speed=0.000000m/h.</desc>
<speed>0.000000</speed>
</trkpt>
<trkpt lat="56.070309" lon="26.463440">
<ele>122.106506</ele>
<time>2010-08-29T12:22:42Z</time>
<desc>lat.=56.070309, lon.=26.463440, Alt.=122.106506m. Speed=0.036000m/h.</desc>
<speed>0.010000</speed>
</trkpt>
<trkpt lat="56.070309" lon="26.463440">
<ele>122.106506</ele>
<time>2010-08-29T12:22:43Z</time>
<desc>lat.=56.070309, lon.=26.463440, Alt.=122.106506m. Speed=0.000000m/h.</desc>
<speed>0.000000</speed>
</trkpt>
<trkpt lat="56.070309" lon="26.463440">
<ele>122.108459</ele>
<time>2010-08-29T12:22:44Z</time>
<desc>lat.=56.070309, lon.=26.463440, Alt.=122.108459m. Speed=0.000000m/h.</desc>
<speed>0.000000</speed>
</trkpt>
<trkpt lat="56.070309" lon="26.463440">
<ele>122.108459</ele>
<time>2010-08-29T12:22:45Z</time>
<desc>lat.=56.070309, lon.=26.463440, Alt.=122.108459m. Speed=0.036000m/h.</desc>
<speed>0.010000</speed>
</trkpt>
<trkpt lat="56.070309" lon="26.463440">
<ele>122.108459</ele>
<time>2010-08-29T12:22:46Z</time>
<desc>lat.=56.070309, lon.=26.463440, Alt.=122.108459m. Speed=0.000000m/h.</desc>
<speed>0.000000</speed>
</trkpt>
<trkpt lat="56.070309" lon="26.463440">
<ele>122.110413</ele>
<time>2010-08-29T12:22:47Z</time>
<desc>lat.=56.070309, lon.=26.463440, Alt.=122.110413m. Speed=0.000000m/h.</desc>
<speed>0.000000</speed>
</trkpt>
<trkpt lat="56.070309" lon="26.463440">
<ele>122.110413</ele>
<time>2010-08-29T12:22:48Z</time>
<desc>lat.=56.070309, lon.=26.463440, Alt.=122.110413m. Speed=0.000000m/h.</desc>
<speed>0.000000</speed>
</trkpt>
<trkpt lat="56.070309" lon="26.463440">
<ele>122.112366</ele>
<time>2010-08-29T12:22:49Z</time>
<desc>lat.=56.070309, lon.=26.463440, Alt.=122.112366m. Speed=0.036000m/h.</desc>
<speed>0.010000</speed>
</trkpt>
<trkpt lat="56.070309" lon="26.463440">
<ele>122.110413</ele>
<time>2010-08-29T12:22:50Z</time>
<desc>lat.=56.070309, lon.=26.463440, Alt.=122.110413m. Speed=0.000000m/h.</desc>
<speed>0.000000</speed>
</trkpt>
<trkpt lat="56.070309" lon="26.463440">
<ele>122.110413</ele>
<time>2010-08-29T12:22:51Z</time>
<desc>lat.=56.070309, lon.=26.463440, Alt.=122.110413m. Speed=0.000000m/h.</desc>
<speed>0.000000</speed>
</trkpt>
<trkpt lat="56.070309" lon="26.463440">
<ele>122.106506</ele>
<time>2010-08-29T12:22:52Z</time>
<desc>lat.=56.070309, lon.=26.463440, Alt.=122.106506m. Speed=0.036000m/h.</desc>
<speed>0.010000</speed>
</trkpt>
<trkpt lat="56.070309" lon="26.463440">
<ele>122.104553</ele>
<time>2010-08-29T12:22:53Z</time>
<desc>lat.=56.070309, lon.=26.463440, Alt.=122.104553m. Speed=0.000000m/h.</desc>
<speed>0.000000</speed>
</trkpt>
<trkpt lat="56.070309" lon="26.463440">
<ele>122.104553</ele>
<time>2010-08-29T12:22:54Z</time>
<desc>lat.=56.070309, lon.=26.463440, Alt.=122.104553m. Speed=0.000000m/h.</desc>
<speed>0.000000</speed>
</trkpt>
<trkpt lat="56.070309" lon="26.463440">
<ele>122.102600</ele>
<time>2010-08-29T12:22:55Z</time>
<desc>lat.=56.070309, lon.=26.463440, Alt.=122.102600m. Speed=0.000000m/h.</desc>
<speed>0.000000</speed>
</trkpt>
<trkpt lat="56.070309" lon="26.463440">
<ele>122.102600</ele>
<time>2010-08-29T12:22:56Z</time>
<desc>lat.=56.070309, lon.=26.463440, Alt.=122.102600m. Speed=0.036000m/h.</desc>
<speed>0.010000</speed>
</trkpt>
<trkpt lat="56.070309" lon="26.463440">
<ele>122.104553</ele>
<time>2010-08-29T12:22:57Z</time>
<desc>lat.=56.070309, lon.=26.463440, Alt.=122.104553m. Speed=0.036000m/h.</desc>
<speed>0.010000</speed>
</trkpt>
<trkpt lat="56.070309" lon="26.463440">
<ele>122.108459</ele>
<time>2010-08-29T12:22:58Z</time>
<desc>lat.=56.070309, lon.=26.463440, Alt.=122.108459m. Speed=0.036000m/h.</desc>
<speed>0.010000</speed>
</trkpt>
<trkpt lat="56.070309" lon="26.463440">
<ele>122.110413</ele>
<time>2010-08-29T12:22:59Z</time>
<desc>lat.=56.070309, lon.=26.463440, Alt.=122.110413m. Speed=0.000000m/h.</desc>
<speed>0.000000</speed>
</trkpt>
<trkpt lat="56.070309" lon="26.463440">
<ele>122.118225</ele>
<time>2010-08-29T12:23:00Z</time>
<desc>lat.=56.070309, lon.=26.463440, Alt.=122.118225m. Speed=0.000000m/h.</desc>
<speed>0.000000</speed>
</trkpt>
<trkpt lat="56.070309" lon="26.463440">
<ele>122.122131</ele>
<time>2010-08-29T12:23:01Z</time>
<desc>lat.=56.070309, lon.=26.463440, Alt.=122.122131m. Speed=0.036000m/h.</desc>
<speed>0.010000</speed>
</trkpt>
<trkpt lat="56.070309" lon="26.463440">
<ele>122.129944</ele>
<time>2010-08-29T12:23:02Z</time>
<desc>lat.=56.070309, lon.=26.463440, Alt.=122.129944m. Speed=0.036000m/h.</desc>
<speed>0.010000</speed>
</trkpt>
<trkpt lat="56.070309" lon="26.463440">
<ele>122.131897</ele>
<time>2010-08-29T12:23:03Z</time>
<desc>lat.=56.070309, lon.=26.463440, Alt.=122.131897m. Speed=0.000000m/h.</desc>
<speed>0.000000</speed>
</trkpt>
<trkpt lat="56.070309" lon="26.463440">
<ele>122.135803</ele>
<time>2010-08-29T12:23:04Z</time>
<desc>lat.=56.070309, lon.=26.463440, Alt.=122.135803m. Speed=0.000000m/h.</desc>
<speed>0.000000</speed>
</trkpt>
<trkpt lat="56.070309" lon="26.463440">
<ele>122.149475</ele>
<time>2010-08-29T12:23:05Z</time>
<desc>lat.=56.070309, lon.=26.463440, Alt.=122.149475m. Speed=0.000000m/h.</desc>
<speed>0.000000</speed>
</trkpt>
<trkpt lat="56.070309" lon="26.463440">
<ele>122.157288</ele>
<time>2010-08-29T12:23:06Z</time>
<desc>lat.=56.070309, lon.=26.463440, Alt.=122.157288m. Speed=0.000000m/h.</desc>
<speed>0.000000</speed>
</trkpt>
<trkpt lat="56.070313" lon="26.463440">
<ele>122.167053</ele>
<time>2010-08-29T12:23:07Z</time>
<desc>lat.=56.070313, lon.=26.463440, Alt.=122.167053m. Speed=0.000000m/h.</desc>
<speed>0.000000</speed>
</trkpt>
<trkpt lat="56.070313" lon="26.463440">
<ele>122.172913</ele>
<time>2010-08-29T12:23:08Z</time>
<desc>lat.=56.070313, lon.=26.463440, Alt.=122.172913m. Speed=0.036000m/h.</desc>
<speed>0.010000</speed>
</trkpt>
<trkpt lat="56.070313" lon="26.463440">
<ele>122.184631</ele>
<time>2010-08-29T12:23:09Z</time>
<desc>lat.=56.070313, lon.=26.463440, Alt.=122.184631m. Speed=0.036000m/h.</desc>
<speed>0.010000</speed>
</trkpt>
<trkpt lat="56.070313" lon="26.463440">
<ele>122.190491</ele>
<time>2010-08-29T12:23:10Z</time>
<desc>lat.=56.070313, lon.=26.463440, Alt.=122.190491m. Speed=0.000000m/h.</desc>
<speed>0.000000</speed>
</trkpt>
<trkpt lat="56.070313" lon="26.463440">
<ele>122.198303</ele>
<time>2010-08-29T12:23:11Z</time>
<desc>lat.=56.070313, lon.=26.463440, Alt.=122.198303m. Speed=0.036000m/h.</desc>
<speed>0.010000</speed>
</trkpt>
<trkpt lat="56.070313" lon="26.463440">
<ele>122.202209</ele>
<time>2010-08-29T12:23:12Z</time>
<desc>lat.=56.070313, lon.=26.463440, Alt.=122.202209m. Speed=0.000000m/h.</desc>
<speed>0.000000</speed>
</trkpt>
<trkpt lat="56.070313" lon="26.463440">
<ele>122.208069</ele>
<time>2010-08-29T12:23:13Z</time>
<desc>lat.=56.070313, lon.=26.463440, Alt.=122.208069m. Speed=0.036000m/h.</desc>
<speed>0.010000</speed>
</trkpt>
<trkpt lat="56.070313" lon="26.463440">
<ele>122.211975</ele>
<time>2010-08-29T12:23:14Z</time>
<desc>lat.=56.070313, lon.=26.463440, Alt.=122.211975m. Speed=0.000000m/h.</desc>
<speed>0.000000</speed>
</trkpt>
<trkpt lat="56.070313" lon="26.463440">
<ele>122.219788</ele>
<time>2010-08-29T12:23:15Z</time>
<desc>lat.=56.070313, lon.=26.463440, Alt.=122.219788m. Speed=0.000000m/h.</desc>
<speed>0.000000</speed>
</trkpt>
<trkpt lat="56.070313" lon="26.463440">
<ele>122.227600</ele>
<time>2010-08-29T12:23:16Z</time>
<desc>lat.=56.070313, lon.=26.463440, Alt.=122.227600m. Speed=0.036000m/h.</desc>
<speed>0.010000</speed>
</trkpt>
<trkpt lat="56.070313" lon="26.463440">
<ele>122.237366</ele>
<time>2010-08-29T12:23:17Z</time>
<desc>lat.=56.070313, lon.=26.463440, Alt.=122.237366m. Speed=0.000000m/h.</desc>
<speed>0.000000</speed>
</trkpt>
<trkpt lat="56.070313" lon="26.463440">
<ele>122.247131</ele>
<time>2010-08-29T12:23:18Z</time>
<desc>lat.=56.070313, lon.=26.463440, Alt.=122.247131m. Speed=0.000000m/h.</desc>
<speed>0.000000</speed>
</trkpt>
<trkpt lat="56.070313" lon="26.463440">
<ele>122.252991</ele>
<time>2010-08-29T12:23:19Z</time>
<desc>lat.=56.070313, lon.=26.463440, Alt.=122.252991m. Speed=0.000000m/h.</desc>
<speed>0.000000</speed>
</trkpt>
<trkpt lat="56.070313" lon="26.463440">
<ele>122.258850</ele>
<time>2010-08-29T12:23:20Z</time>
<desc>lat.=56.070313, lon.=26.463440, Alt.=122.258850m. Speed=0.000000m/h.</desc>
<speed>0.000000</speed>
</trkpt>
<trkpt lat="56.070313" lon="26.463440">
<ele>122.262756</ele>
<time>2010-08-29T12:23:21Z</time>
<desc>lat.=56.070313, lon.=26.463440, Alt.=122.262756m. Speed=0.036000m/h.</desc>
<speed>0.010000</speed>
</trkpt>
<trkpt lat="56.070313" lon="26.463440">
<ele>122.270569</ele>
<time>2010-08-29T12:23:22Z</time>
<desc>lat.=56.070313, lon.=26.463440, Alt.=122.270569m. Speed=0.036000m/h.</desc>
<speed>0.010000</speed>
</trkpt>
<trkpt lat="56.070313" lon="26.463440">
<ele>122.274475</ele>
<time>2010-08-29T12:23:23Z</time>
<desc>lat.=56.070313, lon.=26.463440, Alt.=122.274475m. Speed=0.036000m/h.</desc>
<speed>0.010000</speed>
</trkpt>
<trkpt lat="56.070313" lon="26.463440">
<ele>122.276428</ele>
<time>2010-08-29T12:23:24Z</time>
<desc>lat.=56.070313, lon.=26.463440, Alt.=122.276428m. Speed=0.036000m/h.</desc>
<speed>0.010000</speed>
</trkpt>
<trkpt lat="56.070313" lon="26.463440">
<ele>122.280334</ele>
<time>2010-08-29T12:23:25Z</time>
<desc>lat.=56.070313, lon.=26.463440, Alt.=122.280334m. Speed=0.000000m/h.</desc>
<speed>0.000000</speed>
</trkpt>
<trkpt lat="56.070313" lon="26.463440">
<ele>122.288147</ele>
<time>2010-08-29T12:23:26Z</time>
<desc>lat.=56.070313, lon.=26.463440, Alt.=122.288147m. Speed=0.000000m/h.</desc>
<speed>0.000000</speed>
</trkpt>
<trkpt lat="56.070313" lon="26.463440">
<ele>122.297913</ele>
<time>2010-08-29T12:23:27Z</time>
<desc>lat.=56.070313, lon.=26.463440, Alt.=122.297913m. Speed=0.000000m/h.</desc>
<speed>0.000000</speed>
</trkpt>
<trkpt lat="56.070313" lon="26.463438">
<ele>122.301819</ele>
<time>2010-08-29T12:23:28Z</time>
<desc>lat.=56.070313, lon.=26.463438, Alt.=122.301819m. Speed=0.000000m/h.</desc>
<speed>0.000000</speed>
</trkpt>
<trkpt lat="56.070313" lon="26.463438">
<ele>122.301819</ele>
<time>2010-08-29T12:23:29Z</time>
<desc>lat.=56.070313, lon.=26.463438, Alt.=122.301819m. Speed=0.036000m/h.</desc>
<speed>0.010000</speed>
</trkpt>
<trkpt lat="56.070313" lon="26.463438">
<ele>122.307678</ele>
<time>2010-08-29T12:23:30Z</time>
<desc>lat.=56.070313, lon.=26.463438, Alt.=122.307678m. Speed=0.000000m/h.</desc>
<speed>0.000000</speed>
</trkpt>
<trkpt lat="56.070313" lon="26.463438">
<ele>122.311584</ele>
<time>2010-08-29T12:23:31Z</time>
<desc>lat.=56.070313, lon.=26.463438, Alt.=122.311584m. Speed=0.036000m/h.</desc>
<speed>0.010000</speed>
</trkpt>
<trkpt lat="56.070313" lon="26.463438">
<ele>122.319397</ele>
<time>2010-08-29T12:23:32Z</time>
<desc>lat.=56.070313, lon.=26.463438, Alt.=122.319397m. Speed=0.000000m/h.</desc>
<speed>0.000000</speed>
</trkpt>
<trkpt lat="56.070313" lon="26.463438">
<ele>122.325256</ele>
<time>2010-08-29T12:23:33Z</time>
<desc>lat.=56.070313, lon.=26.463438, Alt.=122.325256m. Speed=0.036000m/h.</desc>
<speed>0.010000</speed>
</trkpt>
<trkpt lat="56.070313" lon="26.463438">
<ele>122.333069</ele>
<time>2010-08-29T12:23:34Z</time>
<desc>lat.=56.070313, lon.=26.463438, Alt.=122.333069m. Speed=0.000000m/h.</desc>
<speed>0.000000</speed>
</trkpt>
<trkpt lat="56.070313" lon="26.463438">
<ele>122.342834</ele>
<time>2010-08-29T12:23:35Z</time>
<desc>lat.=56.070313, lon.=26.463438, Alt.=122.342834m. Speed=0.036000m/h.</desc>
<speed>0.010000</speed>
</trkpt>
<trkpt lat="56.070313" lon="26.463438">
<ele>122.354553</ele>
<time>2010-08-29T12:23:36Z</time>
<desc>lat.=56.070313, lon.=26.463438, Alt.=122.354553m. Speed=0.036000m/h.</desc>
<speed>0.010000</speed>
</trkpt>
<trkpt lat="56.070313" lon="26.463438">
<ele>122.366272</ele>
<time>2010-08-29T12:23:37Z</time>
<desc>lat.=56.070313, lon.=26.463438, Alt.=122.366272m. Speed=0.000000m/h.</desc>
<speed>0.000000</speed>
</trkpt>
<trkpt lat="56.070313" lon="26.463438">
<ele>122.377991</ele>
<time>2010-08-29T12:23:38Z</time>
<desc>lat.=56.070313, lon.=26.463438, Alt.=122.377991m. Speed=0.000000m/h.</desc>
<speed>0.000000</speed>
</trkpt>
<trkpt lat="56.070313" lon="26.463438">
<ele>122.383850</ele>
<time>2010-08-29T12:23:39Z</time>
<desc>lat.=56.070313, lon.=26.463438, Alt.=122.383850m. Speed=0.108000m/h.</desc>
<speed>0.030000</speed>
</trkpt>
<trkpt lat="56.070313" lon="26.463438">
<ele>122.385803</ele>
<time>2010-08-29T12:23:40Z</time>
<desc>lat.=56.070313, lon.=26.463438, Alt.=122.385803m. Speed=0.108000m/h.</desc>
<speed>0.030000</speed>
</trkpt>
<trkpt lat="56.070313" lon="26.463438">
<ele>122.383850</ele>
<time>2010-08-29T12:23:41Z</time>
<desc>lat.=56.070313, lon.=26.463438, Alt.=122.383850m. Speed=0.000000m/h.</desc>
<speed>0.000000</speed>
</trkpt>
<trkpt lat="56.070313" lon="26.463438">
<ele>122.383850</ele>
<time>2010-08-29T12:23:42Z</time>
<desc>lat.=56.070313, lon.=26.463438, Alt.=122.383850m. Speed=0.000000m/h.</desc>
<speed>0.000000</speed>
</trkpt>
<trkpt lat="56.070313" lon="26.463438">
<ele>122.389709</ele>
<time>2010-08-29T12:23:43Z</time>
<desc>lat.=56.070313, lon.=26.463438, Alt.=122.389709m. Speed=0.000000m/h.</desc>
<speed>0.000000</speed>
</trkpt>
<trkpt lat="56.070313" lon="26.463438">
<ele>122.399475</ele>
<time>2010-08-29T12:23:44Z</time>
<desc>lat.=56.070313, lon.=26.463438, Alt.=122.399475m. Speed=0.000000m/h.</desc>
<speed>0.000000</speed>
</trkpt>
<trkpt lat="56.070313" lon="26.463438">
<ele>122.401428</ele>
<time>2010-08-29T12:23:45Z</time>
<desc>lat.=56.070313, lon.=26.463438, Alt.=122.401428m. Speed=0.000000m/h.</desc>
<speed>0.000000</speed>
</trkpt>
<trkpt lat="56.070313" lon="26.463438">
<ele>122.403381</ele>
<time>2010-08-29T12:23:46Z</time>
<desc>lat.=56.070313, lon.=26.463438, Alt.=122.403381m. Speed=0.036000m/h.</desc>
<speed>0.010000</speed>
</trkpt>
<trkpt lat="56.070313" lon="26.463438">
<ele>122.403381</ele>
<time>2010-08-29T12:23:47Z</time>
<desc>lat.=56.070313, lon.=26.463438, Alt.=122.403381m. Speed=0.000000m/h.</desc>
<speed>0.000000</speed>
</trkpt>
<trkpt lat="56.070313" lon="26.463438">
<ele>122.403381</ele>
<time>2010-08-29T12:23:48Z</time>
<desc>lat.=56.070313, lon.=26.463438, Alt.=122.403381m. Speed=0.000000m/h.</desc>
<speed>0.000000</speed>
</trkpt>
<trkpt lat="56.070313" lon="26.463438">
<ele>122.409241</ele>
<time>2010-08-29T12:23:49Z</time>
<desc>lat.=56.070313, lon.=26.463438, Alt.=122.409241m. Speed=0.000000m/h.</desc>
<speed>0.000000</speed>
</trkpt>
<trkpt lat="56.070313" lon="26.463438">
<ele>122.417053</ele>
<time>2010-08-29T12:23:50Z</time>
<desc>lat.=56.070313, lon.=26.463438, Alt.=122.417053m. Speed=0.000000m/h.</desc>
<speed>0.000000</speed>
</trkpt>
<trkpt lat="56.070313" lon="26.463438">
<ele>122.417053</ele>
<time>2010-08-29T12:23:51Z</time>
<desc>lat.=56.070313, lon.=26.463438, Alt.=122.417053m. Speed=0.000000m/h.</desc>
<speed>0.000000</speed>
</trkpt>
<trkpt lat="56.070313" lon="26.463438">
<ele>122.417053</ele>
<time>2010-08-29T12:23:52Z</time>
<desc>lat.=56.070313, lon.=26.463438, Alt.=122.417053m. Speed=0.072000m/h.</desc>
<speed>0.020000</speed>
</trkpt>
<trkpt lat="56.070313" lon="26.463438">
<ele>122.415100</ele>
<time>2010-08-29T12:23:53Z</time>
<desc>lat.=56.070313, lon.=26.463438, Alt.=122.415100m. Speed=0.072000m/h.</desc>
<speed>0.020000</speed>
</trkpt>
<trkpt lat="56.070313" lon="26.463438">
<ele>122.420959</ele>
<time>2010-08-29T12:23:54Z</time>
<desc>lat.=56.070313, lon.=26.463438, Alt.=122.420959m. Speed=0.036000m/h.</desc>
<speed>0.010000</speed>
</trkpt>
<trkpt lat="56.070313" lon="26.463438">
<ele>122.419006</ele>
<time>2010-08-29T12:23:55Z</time>
<desc>lat.=56.070313, lon.=26.463438, Alt.=122.419006m. Speed=0.036000m/h.</desc>
<speed>0.010000</speed>
</trkpt>
<trkpt lat="56.070313" lon="26.463438">
<ele>122.422913</ele>
<time>2010-08-29T12:23:56Z</time>
<desc>lat.=56.070313, lon.=26.463438, Alt.=122.422913m. Speed=0.000000m/h.</desc>
<speed>0.000000</speed>
</trkpt>
<trkpt lat="56.070313" lon="26.463438">
<ele>122.422913</ele>
<time>2010-08-29T12:23:57Z</time>
<desc>lat.=56.070313, lon.=26.463438, Alt.=122.422913m. Speed=0.072000m/h.</desc>
<speed>0.020000</speed>
</trkpt>
<trkpt lat="56.070313" lon="26.463436">
<ele>122.426819</ele>
<time>2010-08-29T12:23:58Z</time>
<desc>lat.=56.070313, lon.=26.463436, Alt.=122.426819m. Speed=0.036000m/h.</desc>
<speed>0.010000</speed>
</trkpt>
<trkpt lat="56.070313" lon="26.463436">
<ele>122.434631</ele>
<time>2010-08-29T12:23:59Z</time>
<desc>lat.=56.070313, lon.=26.463436, Alt.=122.434631m. Speed=0.072000m/h.</desc>
<speed>0.020000</speed>
</trkpt>
<trkpt lat="56.070313" lon="26.463436">
<ele>122.438538</ele>
<time>2010-08-29T12:24:00Z</time>
<desc>lat.=56.070313, lon.=26.463436, Alt.=122.438538m. Speed=0.144000m/h.</desc>
<speed>0.040000</speed>
</trkpt>
<trkpt lat="56.070313" lon="26.463436">
<ele>122.444397</ele>
<time>2010-08-29T12:24:01Z</time>
<desc>lat.=56.070313, lon.=26.463436, Alt.=122.444397m. Speed=0.036000m/h.</desc>
<speed>0.010000</speed>
</trkpt>
<trkpt lat="56.070313" lon="26.463436">
<ele>122.450256</ele>
<time>2010-08-29T12:24:02Z</time>
<desc>lat.=56.070313, lon.=26.463436, Alt.=122.450256m. Speed=0.144000m/h.</desc>
<speed>0.040000</speed>
</trkpt>
<trkpt lat="56.070313" lon="26.463436">
<ele>122.452209</ele>
<time>2010-08-29T12:24:03Z</time>
<desc>lat.=56.070313, lon.=26.463436, Alt.=122.452209m. Speed=0.108000m/h.</desc>
<speed>0.030000</speed>
</trkpt>
<trkpt lat="56.070313" lon="26.463436">
<ele>122.460022</ele>
<time>2010-08-29T12:24:04Z</time>
<desc>lat.=56.070313, lon.=26.463436, Alt.=122.460022m. Speed=0.072000m/h.</desc>
<speed>0.020000</speed>
</trkpt>
<trkpt lat="56.070313" lon="26.463436">
<ele>122.463928</ele>
<time>2010-08-29T12:24:05Z</time>
<desc>lat.=56.070313, lon.=26.463436, Alt.=122.463928m. Speed=0.108000m/h.</desc>
<speed>0.030000</speed>
</trkpt>
<trkpt lat="56.070313" lon="26.463436">
<ele>122.465881</ele>
<time>2010-08-29T12:24:06Z</time>
<desc>lat.=56.070313, lon.=26.463436, Alt.=122.465881m. Speed=0.180000m/h.</desc>
<speed>0.050000</speed>
</trkpt>
<trkpt lat="56.070313" lon="26.463436">
<ele>122.471741</ele>
<time>2010-08-29T12:24:07Z</time>
<desc>lat.=56.070313, lon.=26.463436, Alt.=122.471741m. Speed=0.108000m/h.</desc>
<speed>0.030000</speed>
</trkpt>
<trkpt lat="56.070313" lon="26.463436">
<ele>122.475647</ele>
<time>2010-08-29T12:24:08Z</time>
<desc>lat.=56.070313, lon.=26.463436, Alt.=122.475647m. Speed=0.036000m/h.</desc>
<speed>0.010000</speed>
</trkpt>
<trkpt lat="56.070313" lon="26.463436">
<ele>122.483459</ele>
<time>2010-08-29T12:24:09Z</time>
<desc>lat.=56.070313, lon.=26.463436, Alt.=122.483459m. Speed=0.036000m/h.</desc>
<speed>0.010000</speed>
</trkpt>
<trkpt lat="56.070313" lon="26.463436">
<ele>122.487366</ele>
<time>2010-08-29T12:24:10Z</time>
<desc>lat.=56.070313, lon.=26.463436, Alt.=122.487366m. Speed=0.036000m/h.</desc>
<speed>0.010000</speed>
</trkpt>
<trkpt lat="56.070313" lon="26.463436">
<ele>122.493225</ele>
<time>2010-08-29T12:24:11Z</time>
<desc>lat.=56.070313, lon.=26.463436, Alt.=122.493225m. Speed=0.036000m/h.</desc>
<speed>0.010000</speed>
</trkpt>
<trkpt lat="56.070313" lon="26.463436">
<ele>122.499084</ele>
<time>2010-08-29T12:24:12Z</time>
<desc>lat.=56.070313, lon.=26.463436, Alt.=122.499084m. Speed=0.072000m/h.</desc>
<speed>0.020000</speed>
</trkpt>
<trkpt lat="56.070313" lon="26.463436">
<ele>122.501038</ele>
<time>2010-08-29T12:24:13Z</time>
<desc>lat.=56.070313, lon.=26.463436, Alt.=122.501038m. Speed=0.144000m/h.</desc>
<speed>0.040000</speed>
</trkpt>
<trkpt lat="56.070316" lon="26.463436">
<ele>122.502991</ele>
<time>2010-08-29T12:24:14Z</time>
<desc>lat.=56.070316, lon.=26.463436, Alt.=122.502991m. Speed=0.072000m/h.</desc>
<speed>0.020000</speed>
</trkpt>
<trkpt lat="56.070316" lon="26.463434">
<ele>122.504944</ele>
<time>2010-08-29T12:24:15Z</time>
<desc>lat.=56.070316, lon.=26.463434, Alt.=122.504944m. Speed=0.144000m/h.</desc>
<speed>0.040000</speed>
</trkpt>
<trkpt lat="56.070316" lon="26.463434">
<ele>122.504944</ele>
<time>2010-08-29T12:24:16Z</time>
<desc>lat.=56.070316, lon.=26.463434, Alt.=122.504944m. Speed=0.180000m/h.</desc>
<speed>0.050000</speed>
</trkpt>
<trkpt lat="56.070316" lon="26.463434">
<ele>122.512756</ele>
<time>2010-08-29T12:24:17Z</time>
<desc>lat.=56.070316, lon.=26.463434, Alt.=122.512756m. Speed=0.108000m/h.</desc>
<speed>0.030000</speed>
</trkpt>
<trkpt lat="56.070316" lon="26.463434">
<ele>122.514709</ele>
<time>2010-08-29T12:24:18Z</time>
<desc>lat.=56.070316, lon.=26.463434, Alt.=122.514709m. Speed=0.108000m/h.</desc>
<speed>0.030000</speed>
</trkpt>
<trkpt lat="56.070316" lon="26.463434">
<ele>122.520569</ele>
<time>2010-08-29T12:24:19Z</time>
<desc>lat.=56.070316, lon.=26.463434, Alt.=122.520569m. Speed=0.072000m/h.</desc>
<speed>0.020000</speed>
</trkpt>
<trkpt lat="56.070316" lon="26.463434">
<ele>122.524475</ele>
<time>2010-08-29T12:24:20Z</time>
<desc>lat.=56.070316, lon.=26.463434, Alt.=122.524475m. Speed=0.072000m/h.</desc>
<speed>0.020000</speed>
</trkpt>
<trkpt lat="56.070316" lon="26.463434">
<ele>122.528381</ele>
<time>2010-08-29T12:24:21Z</time>
<desc>lat.=56.070316, lon.=26.463434, Alt.=122.528381m. Speed=0.108000m/h.</desc>
<speed>0.030000</speed>
</trkpt>
<trkpt lat="56.070316" lon="26.463434">
<ele>122.532288</ele>
<time>2010-08-29T12:24:22Z</time>
<desc>lat.=56.070316, lon.=26.463434, Alt.=122.532288m. Speed=0.144000m/h.</desc>
<speed>0.040000</speed>
</trkpt>
<trkpt lat="56.070316" lon="26.463434">
<ele>122.536194</ele>
<time>2010-08-29T12:24:23Z</time>
<desc>lat.=56.070316, lon.=26.463434, Alt.=122.536194m. Speed=0.108000m/h.</desc>
<speed>0.030000</speed>
</trkpt>
<trkpt lat="56.070316" lon="26.463432">
<ele>122.540100</ele>
<time>2010-08-29T12:24:24Z</time>
<desc>lat.=56.070316, lon.=26.463432, Alt.=122.540100m. Speed=0.216000m/h.</desc>
<speed>0.060000</speed>
</trkpt>
<trkpt lat="56.070316" lon="26.463432">
<ele>122.542053</ele>
<time>2010-08-29T12:24:25Z</time>
<desc>lat.=56.070316, lon.=26.463432, Alt.=122.542053m. Speed=0.144000m/h.</desc>
<speed>0.040000</speed>
</trkpt>
<trkpt lat="56.070316" lon="26.463432">
<ele>122.545959</ele>
<time>2010-08-29T12:24:26Z</time>
<desc>lat.=56.070316, lon.=26.463432, Alt.=122.545959m. Speed=0.000000m/h.</desc>
<speed>0.000000</speed>
</trkpt>
<trkpt lat="56.070316" lon="26.463432">
<ele>122.551819</ele>
<time>2010-08-29T12:24:27Z</time>
<desc>lat.=56.070316, lon.=26.463432, Alt.=122.551819m. Speed=0.000000m/h.</desc>
<speed>0.000000</speed>
</trkpt>
<trkpt lat="56.070316" lon="26.463432">
<ele>122.555725</ele>
<time>2010-08-29T12:24:28Z</time>
<desc>lat.=56.070316, lon.=26.463432, Alt.=122.555725m. Speed=0.108000m/h.</desc>
<speed>0.030000</speed>
</trkpt>
<trkpt lat="56.070316" lon="26.463432">
<ele>122.561584</ele>
<time>2010-08-29T12:24:29Z</time>
<desc>lat.=56.070316, lon.=26.463432, Alt.=122.561584m. Speed=0.216000m/h.</desc>
<speed>0.060000</speed>
</trkpt>
<trkpt lat="56.070316" lon="26.463432">
<ele>122.563538</ele>
<time>2010-08-29T12:24:30Z</time>
<desc>lat.=56.070316, lon.=26.463432, Alt.=122.563538m. Speed=0.072000m/h.</desc>
<speed>0.020000</speed>
</trkpt>
<trkpt lat="56.070316" lon="26.463432">
<ele>122.563538</ele>
<time>2010-08-29T12:24:31Z</time>
<desc>lat.=56.070316, lon.=26.463432, Alt.=122.563538m. Speed=0.108000m/h.</desc>
<speed>0.030000</speed>
</trkpt>
<trkpt lat="56.070316" lon="26.463432">
<ele>122.563538</ele>
<time>2010-08-29T12:24:32Z</time>
<desc>lat.=56.070316, lon.=26.463432, Alt.=122.563538m. Speed=0.180000m/h.</desc>
<speed>0.050000</speed>
</trkpt>
<trkpt lat="56.070316" lon="26.463430">
<ele>122.565491</ele>
<time>2010-08-29T12:24:33Z</time>
<desc>lat.=56.070316, lon.=26.463430, Alt.=122.565491m. Speed=0.108000m/h.</desc>
<speed>0.030000</speed>
</trkpt>
<trkpt lat="56.070316" lon="26.463430">
<ele>122.561584</ele>
<time>2010-08-29T12:24:34Z</time>
<desc>lat.=56.070316, lon.=26.463430, Alt.=122.561584m. Speed=0.108000m/h.</desc>
<speed>0.030000</speed>
</trkpt>
<trkpt lat="56.070316" lon="26.463430">
<ele>122.561584</ele>
<time>2010-08-29T12:24:35Z</time>
<desc>lat.=56.070316, lon.=26.463430, Alt.=122.561584m. Speed=0.036000m/h.</desc>
<speed>0.010000</speed>
</trkpt>
<trkpt lat="56.070316" lon="26.463430">
<ele>122.563538</ele>
<time>2010-08-29T12:24:36Z</time>
<desc>lat.=56.070316, lon.=26.463430, Alt.=122.563538m. Speed=0.108000m/h.</desc>
<speed>0.030000</speed>
</trkpt>
<trkpt lat="56.070316" lon="26.463430">
<ele>122.561584</ele>
<time>2010-08-29T12:24:37Z</time>
<desc>lat.=56.070316, lon.=26.463430, Alt.=122.561584m. Speed=0.144000m/h.</desc>
<speed>0.040000</speed>
</trkpt>
<trkpt lat="56.070316" lon="26.463430">
<ele>122.563538</ele>
<time>2010-08-29T12:24:38Z</time>
<desc>lat.=56.070316, lon.=26.463430, Alt.=122.563538m. Speed=0.072000m/h.</desc>
<speed>0.020000</speed>
</trkpt>
<trkpt lat="56.070316" lon="26.463430">
<ele>122.565491</ele>
<time>2010-08-29T12:24:39Z</time>
<desc>lat.=56.070316, lon.=26.463430, Alt.=122.565491m. Speed=0.216000m/h.</desc>
<speed>0.060000</speed>
</trkpt>
<trkpt lat="56.070316" lon="26.463430">
<ele>122.569397</ele>
<time>2010-08-29T12:24:40Z</time>
<desc>lat.=56.070316, lon.=26.463430, Alt.=122.569397m. Speed=0.108000m/h.</desc>
<speed>0.030000</speed>
</trkpt>
<trkpt lat="56.070316" lon="26.463428">
<ele>122.571350</ele>
<time>2010-08-29T12:24:41Z</time>
<desc>lat.=56.070316, lon.=26.463428, Alt.=122.571350m. Speed=0.036000m/h.</desc>
<speed>0.010000</speed>
</trkpt>
<trkpt lat="56.070316" lon="26.463428">
<ele>122.569397</ele>
<time>2010-08-29T12:24:42Z</time>
<desc>lat.=56.070316, lon.=26.463428, Alt.=122.569397m. Speed=0.072000m/h.</desc>
<speed>0.020000</speed>
</trkpt>
<trkpt lat="56.070316" lon="26.463428">
<ele>122.573303</ele>
<time>2010-08-29T12:24:43Z</time>
<desc>lat.=56.070316, lon.=26.463428, Alt.=122.573303m. Speed=0.000000m/h.</desc>
<speed>0.000000</speed>
</trkpt>
<trkpt lat="56.070316" lon="26.463428">
<ele>122.577209</ele>
<time>2010-08-29T12:24:44Z</time>
<desc>lat.=56.070316, lon.=26.463428, Alt.=122.577209m. Speed=0.036000m/h.</desc>
<speed>0.010000</speed>
</trkpt>
<trkpt lat="56.070316" lon="26.463428">
<ele>122.581116</ele>
<time>2010-08-29T12:24:45Z</time>
<desc>lat.=56.070316, lon.=26.463428, Alt.=122.581116m. Speed=0.072000m/h.</desc>
<speed>0.020000</speed>
</trkpt>
<trkpt lat="56.070316" lon="26.463428">
<ele>122.585022</ele>
<time>2010-08-29T12:24:46Z</time>
<desc>lat.=56.070316, lon.=26.463428, Alt.=122.585022m. Speed=0.108000m/h.</desc>
<speed>0.030000</speed>
</trkpt>
<trkpt lat="56.070316" lon="26.463428">
<ele>122.585022</ele>
<time>2010-08-29T12:24:47Z</time>
<desc>lat.=56.070316, lon.=26.463428, Alt.=122.585022m. Speed=0.144000m/h.</desc>
<speed>0.040000</speed>
</trkpt>
<trkpt lat="56.070316" lon="26.463428">
<ele>122.581116</ele>
<time>2010-08-29T12:24:48Z</time>
<desc>lat.=56.070316, lon.=26.463428, Alt.=122.581116m. Speed=0.108000m/h.</desc>
<speed>0.030000</speed>
</trkpt>
<trkpt lat="56.070316" lon="26.463428">
<ele>122.581116</ele>
<time>2010-08-29T12:24:49Z</time>
<desc>lat.=56.070316, lon.=26.463428, Alt.=122.581116m. Speed=0.108000m/h.</desc>
<speed>0.030000</speed>
</trkpt>
<trkpt lat="56.070316" lon="26.463428">
<ele>122.583069</ele>
<time>2010-08-29T12:24:50Z</time>
<desc>lat.=56.070316, lon.=26.463428, Alt.=122.583069m. Speed=0.036000m/h.</desc>
<speed>0.010000</speed>
</trkpt>
<trkpt lat="56.070316" lon="26.463428">
<ele>122.585022</ele>
<time>2010-08-29T12:24:51Z</time>
<desc>lat.=56.070316, lon.=26.463428, Alt.=122.585022m. Speed=0.036000m/h.</desc>
<speed>0.010000</speed>
</trkpt>
<trkpt lat="56.070316" lon="26.463428">
<ele>122.585022</ele>
<time>2010-08-29T12:24:52Z</time>
<desc>lat.=56.070316, lon.=26.463428, Alt.=122.585022m. Speed=0.072000m/h.</desc>
<speed>0.020000</speed>
</trkpt>
<trkpt lat="56.070316" lon="26.463428">
<ele>122.585022</ele>
<time>2010-08-29T12:24:53Z</time>
<desc>lat.=56.070316, lon.=26.463428, Alt.=122.585022m. Speed=0.036000m/h.</desc>
<speed>0.010000</speed>
</trkpt>
<trkpt lat="56.070316" lon="26.463427">
<ele>122.588928</ele>
<time>2010-08-29T12:24:54Z</time>
<desc>lat.=56.070316, lon.=26.463427, Alt.=122.588928m. Speed=0.108000m/h.</desc>
<speed>0.030000</speed>
</trkpt>
<trkpt lat="56.070316" lon="26.463427">
<ele>122.588928</ele>
<time>2010-08-29T12:24:55Z</time>
<desc>lat.=56.070316, lon.=26.463427, Alt.=122.588928m. Speed=0.072000m/h.</desc>
<speed>0.020000</speed>
</trkpt>
<trkpt lat="56.070316" lon="26.463427">
<ele>122.592834</ele>
<time>2010-08-29T12:24:56Z</time>
<desc>lat.=56.070316, lon.=26.463427, Alt.=122.592834m. Speed=0.036000m/h.</desc>
<speed>0.010000</speed>
</trkpt>
<trkpt lat="56.070316" lon="26.463427">
<ele>122.590881</ele>
<time>2010-08-29T12:24:57Z</time>
<desc>lat.=56.070316, lon.=26.463427, Alt.=122.590881m. Speed=0.108000m/h.</desc>
<speed>0.030000</speed>
</trkpt>
<trkpt lat="56.070320" lon="26.463427">
<ele>122.592834</ele>
<time>2010-08-29T12:24:58Z</time>
<desc>lat.=56.070320, lon.=26.463427, Alt.=122.592834m. Speed=0.072000m/h.</desc>
<speed>0.020000</speed>
</trkpt>
<trkpt lat="56.070320" lon="26.463427">
<ele>122.598694</ele>
<time>2010-08-29T12:24:59Z</time>
<desc>lat.=56.070320, lon.=26.463427, Alt.=122.598694m. Speed=0.072000m/h.</desc>
<speed>0.020000</speed>
</trkpt>
<trkpt lat="56.070320" lon="26.463427">
<ele>122.600647</ele>
<time>2010-08-29T12:25:00Z</time>
<desc>lat.=56.070320, lon.=26.463427, Alt.=122.600647m. Speed=0.108000m/h.</desc>
<speed>0.030000</speed>
</trkpt>
<trkpt lat="56.070320" lon="26.463427">
<ele>122.608459</ele>
<time>2010-08-29T12:25:01Z</time>
<desc>lat.=56.070320, lon.=26.463427, Alt.=122.608459m. Speed=0.072000m/h.</desc>
<speed>0.020000</speed>
</trkpt>
<trkpt lat="56.070320" lon="26.463427">
<ele>122.612366</ele>
<time>2010-08-29T12:25:02Z</time>
<desc>lat.=56.070320, lon.=26.463427, Alt.=122.612366m. Speed=0.108000m/h.</desc>
<speed>0.030000</speed>
</trkpt>
<trkpt lat="56.070320" lon="26.463427">
<ele>122.616272</ele>
<time>2010-08-29T12:25:03Z</time>
<desc>lat.=56.070320, lon.=26.463427, Alt.=122.616272m. Speed=0.108000m/h.</desc>
<speed>0.030000</speed>
</trkpt>
<trkpt lat="56.070320" lon="26.463425">
<ele>122.624084</ele>
<time>2010-08-29T12:25:04Z</time>
<desc>lat.=56.070320, lon.=26.463425, Alt.=122.624084m. Speed=0.144000m/h.</desc>
<speed>0.040000</speed>
</trkpt>
<trkpt lat="56.070320" lon="26.463425">
<ele>122.631897</ele>
<time>2010-08-29T12:25:05Z</time>
<desc>lat.=56.070320, lon.=26.463425, Alt.=122.631897m. Speed=0.144000m/h.</desc>
<speed>0.040000</speed>
</trkpt>
<trkpt lat="56.070320" lon="26.463425">
<ele>122.643616</ele>
<time>2010-08-29T12:25:06Z</time>
<desc>lat.=56.070320, lon.=26.463425, Alt.=122.643616m. Speed=0.144000m/h.</desc>
<speed>0.040000</speed>
</trkpt>
<trkpt lat="56.070320" lon="26.463425">
<ele>122.651428</ele>
<time>2010-08-29T12:25:07Z</time>
<desc>lat.=56.070320, lon.=26.463425, Alt.=122.651428m. Speed=0.216000m/h.</desc>
<speed>0.060000</speed>
</trkpt>
<trkpt lat="56.070320" lon="26.463425">
<ele>122.659241</ele>
<time>2010-08-29T12:25:08Z</time>
<desc>lat.=56.070320, lon.=26.463425, Alt.=122.659241m. Speed=0.036000m/h.</desc>
<speed>0.010000</speed>
</trkpt>
<trkpt lat="56.070320" lon="26.463425">
<ele>122.665100</ele>
<time>2010-08-29T12:25:09Z</time>
<desc>lat.=56.070320, lon.=26.463425, Alt.=122.665100m. Speed=0.108000m/h.</desc>
<speed>0.030000</speed>
</trkpt>
<trkpt lat="56.070320" lon="26.463425">
<ele>122.670959</ele>
<time>2010-08-29T12:25:10Z</time>
<desc>lat.=56.070320, lon.=26.463425, Alt.=122.670959m. Speed=0.072000m/h.</desc>
<speed>0.020000</speed>
</trkpt>
<trkpt lat="56.070320" lon="26.463425">
<ele>122.674866</ele>
<time>2010-08-29T12:25:11Z</time>
<desc>lat.=56.070320, lon.=26.463425, Alt.=122.674866m. Speed=0.036000m/h.</desc>
<speed>0.010000</speed>
</trkpt>
<trkpt lat="56.070320" lon="26.463425">
<ele>122.674866</ele>
<time>2010-08-29T12:25:12Z</time>
<desc>lat.=56.070320, lon.=26.463425, Alt.=122.674866m. Speed=0.000000m/h.</desc>
<speed>0.000000</speed>
</trkpt>
<trkpt lat="56.070320" lon="26.463423">
<ele>122.672913</ele>
<time>2010-08-29T12:25:13Z</time>
<desc>lat.=56.070320, lon.=26.463423, Alt.=122.672913m. Speed=0.072000m/h.</desc>
<speed>0.020000</speed>
</trkpt>
<trkpt lat="56.070320" lon="26.463423">
<ele>122.678772</ele>
<time>2010-08-29T12:25:14Z</time>
<desc>lat.=56.070320, lon.=26.463423, Alt.=122.678772m. Speed=0.108000m/h.</desc>
<speed>0.030000</speed>
</trkpt>
<trkpt lat="56.070320" lon="26.463423">
<ele>122.678772</ele>
<time>2010-08-29T12:25:15Z</time>
<desc>lat.=56.070320, lon.=26.463423, Alt.=122.678772m. Speed=0.072000m/h.</desc>
<speed>0.020000</speed>
</trkpt>
<trkpt lat="56.070320" lon="26.463423">
<ele>122.680725</ele>
<time>2010-08-29T12:25:16Z</time>
<desc>lat.=56.070320, lon.=26.463423, Alt.=122.680725m. Speed=0.072000m/h.</desc>
<speed>0.020000</speed>
</trkpt>
<trkpt lat="56.070320" lon="26.463423">
<ele>122.684631</ele>
<time>2010-08-29T12:25:17Z</time>
<desc>lat.=56.070320, lon.=26.463423, Alt.=122.684631m. Speed=0.036000m/h.</desc>
<speed>0.010000</speed>
</trkpt>
<trkpt lat="56.070320" lon="26.463423">
<ele>122.682678</ele>
<time>2010-08-29T12:25:18Z</time>
<desc>lat.=56.070320, lon.=26.463423, Alt.=122.682678m. Speed=0.108000m/h.</desc>
<speed>0.030000</speed>
</trkpt>
<trkpt lat="56.070320" lon="26.463423">
<ele>122.682678</ele>
<time>2010-08-29T12:25:19Z</time>
<desc>lat.=56.070320, lon.=26.463423, Alt.=122.682678m. Speed=0.072000m/h.</desc>
<speed>0.020000</speed>
</trkpt>
<trkpt lat="56.070320" lon="26.463423">
<ele>122.678772</ele>
<time>2010-08-29T12:25:20Z</time>
<desc>lat.=56.070320, lon.=26.463423, Alt.=122.678772m. Speed=0.036000m/h.</desc>
<speed>0.010000</speed>
</trkpt>
<trkpt lat="56.070320" lon="26.463423">
<ele>122.676819</ele>
<time>2010-08-29T12:25:21Z</time>
<desc>lat.=56.070320, lon.=26.463423, Alt.=122.676819m. Speed=0.072000m/h.</desc>
<speed>0.020000</speed>
</trkpt>
<trkpt lat="56.070320" lon="26.463423">
<ele>122.674866</ele>
<time>2010-08-29T12:25:22Z</time>
<desc>lat.=56.070320, lon.=26.463423, Alt.=122.674866m. Speed=0.108000m/h.</desc>
<speed>0.030000</speed>
</trkpt>
<trkpt lat="56.070320" lon="26.463423">
<ele>122.670959</ele>
<time>2010-08-29T12:25:23Z</time>
<desc>lat.=56.070320, lon.=26.463423, Alt.=122.670959m. Speed=0.036000m/h.</desc>
<speed>0.010000</speed>
</trkpt>
<trkpt lat="56.070320" lon="26.463423">
<ele>122.667053</ele>
<time>2010-08-29T12:25:24Z</time>
<desc>lat.=56.070320, lon.=26.463423, Alt.=122.667053m. Speed=0.036000m/h.</desc>
<speed>0.010000</speed>
</trkpt>
<trkpt lat="56.070320" lon="26.463423">
<ele>122.667053</ele>
<time>2010-08-29T12:25:25Z</time>
<desc>lat.=56.070320, lon.=26.463423, Alt.=122.667053m. Speed=0.072000m/h.</desc>
<speed>0.020000</speed>
</trkpt>
<trkpt lat="56.070320" lon="26.463423">
<ele>122.663147</ele>
<time>2010-08-29T12:25:26Z</time>
<desc>lat.=56.070320, lon.=26.463423, Alt.=122.663147m. Speed=0.144000m/h.</desc>
<speed>0.040000</speed>
</trkpt>
<trkpt lat="56.070320" lon="26.463423">
<ele>122.661194</ele>
<time>2010-08-29T12:25:27Z</time>
<desc>lat.=56.070320, lon.=26.463423, Alt.=122.661194m. Speed=0.216000m/h.</desc>
<speed>0.060000</speed>
</trkpt>
<trkpt lat="56.070320" lon="26.463423">
<ele>122.661194</ele>
<time>2010-08-29T12:25:28Z</time>
<desc>lat.=56.070320, lon.=26.463423, Alt.=122.661194m. Speed=0.144000m/h.</desc>
<speed>0.040000</speed>
</trkpt>
<trkpt lat="56.070320" lon="26.463421">
<ele>122.665100</ele>
<time>2010-08-29T12:25:29Z</time>
<desc>lat.=56.070320, lon.=26.463421, Alt.=122.665100m. Speed=0.216000m/h.</desc>
<speed>0.060000</speed>
</trkpt>
<trkpt lat="56.070320" lon="26.463421">
<ele>122.663147</ele>
<time>2010-08-29T12:25:30Z</time>
<desc>lat.=56.070320, lon.=26.463421, Alt.=122.663147m. Speed=0.180000m/h.</desc>
<speed>0.050000</speed>
</trkpt>
<trkpt lat="56.070320" lon="26.463421">
<ele>122.659241</ele>
<time>2010-08-29T12:25:31Z</time>
<desc>lat.=56.070320, lon.=26.463421, Alt.=122.659241m. Speed=0.216000m/h.</desc>
<speed>0.060000</speed>
</trkpt>
<trkpt lat="56.070316" lon="26.463421">
<ele>122.661194</ele>
<time>2010-08-29T12:25:32Z</time>
<desc>lat.=56.070316, lon.=26.463421, Alt.=122.661194m. Speed=0.108000m/h.</desc>
<speed>0.030000</speed>
</trkpt>
<trkpt lat="56.070316" lon="26.463421">
<ele>122.663147</ele>
<time>2010-08-29T12:25:33Z</time>
<desc>lat.=56.070316, lon.=26.463421, Alt.=122.663147m. Speed=0.144000m/h.</desc>
<speed>0.040000</speed>
</trkpt>
<trkpt lat="56.070316" lon="26.463421">
<ele>122.667053</ele>
<time>2010-08-29T12:25:34Z</time>
<desc>lat.=56.070316, lon.=26.463421, Alt.=122.667053m. Speed=0.072000m/h.</desc>
<speed>0.020000</speed>
</trkpt>
<trkpt lat="56.070316" lon="26.463421">
<ele>122.669006</ele>
<time>2010-08-29T12:25:35Z</time>
<desc>lat.=56.070316, lon.=26.463421, Alt.=122.669006m. Speed=0.072000m/h.</desc>
<speed>0.020000</speed>
</trkpt>
<trkpt lat="56.070316" lon="26.463421">
<ele>122.667053</ele>
<time>2010-08-29T12:25:36Z</time>
<desc>lat.=56.070316, lon.=26.463421, Alt.=122.667053m. Speed=0.036000m/h.</desc>
<speed>0.010000</speed>
</trkpt>
<trkpt lat="56.070316" lon="26.463421">
<ele>122.678772</ele>
<time>2010-08-29T12:25:37Z</time>
<desc>lat.=56.070316, lon.=26.463421, Alt.=122.678772m. Speed=0.072000m/h.</desc>
<speed>0.020000</speed>
</trkpt>
<trkpt lat="56.070316" lon="26.463421">
<ele>122.682678</ele>
<time>2010-08-29T12:25:38Z</time>
<desc>lat.=56.070316, lon.=26.463421, Alt.=122.682678m. Speed=0.036000m/h.</desc>
<speed>0.010000</speed>
</trkpt>
<trkpt lat="56.070316" lon="26.463421">
<ele>122.684631</ele>
<time>2010-08-29T12:25:39Z</time>
<desc>lat.=56.070316, lon.=26.463421, Alt.=122.684631m. Speed=0.108000m/h.</desc>
<speed>0.030000</speed>
</trkpt>
<trkpt lat="56.070316" lon="26.463421">
<ele>122.688538</ele>
<time>2010-08-29T12:25:40Z</time>
<desc>lat.=56.070316, lon.=26.463421, Alt.=122.688538m. Speed=0.108000m/h.</desc>
<speed>0.030000</speed>
</trkpt>
<trkpt lat="56.070316" lon="26.463421">
<ele>122.688538</ele>
<time>2010-08-29T12:25:41Z</time>
<desc>lat.=56.070316, lon.=26.463421, Alt.=122.688538m. Speed=0.000000m/h.</desc>
<speed>0.000000</speed>
</trkpt>
<trkpt lat="56.070316" lon="26.463421">
<ele>122.690491</ele>
<time>2010-08-29T12:25:42Z</time>
<desc>lat.=56.070316, lon.=26.463421, Alt.=122.690491m. Speed=0.000000m/h.</desc>
<speed>0.000000</speed>
</trkpt>
<trkpt lat="56.070316" lon="26.463421">
<ele>122.694397</ele>
<time>2010-08-29T12:25:43Z</time>
<desc>lat.=56.070316, lon.=26.463421, Alt.=122.694397m. Speed=0.072000m/h.</desc>
<speed>0.020000</speed>
</trkpt>
<trkpt lat="56.070316" lon="26.463421">
<ele>122.696350</ele>
<time>2010-08-29T12:25:44Z</time>
<desc>lat.=56.070316, lon.=26.463421, Alt.=122.696350m. Speed=0.000000m/h.</desc>
<speed>0.000000</speed>
</trkpt>
<trkpt lat="56.070316" lon="26.463421">
<ele>122.698303</ele>
<time>2010-08-29T12:25:45Z</time>
<desc>lat.=56.070316, lon.=26.463421, Alt.=122.698303m. Speed=0.072000m/h.</desc>
<speed>0.020000</speed>
</trkpt>
<trkpt lat="56.070316" lon="26.463421">
<ele>122.700256</ele>
<time>2010-08-29T12:25:46Z</time>
<desc>lat.=56.070316, lon.=26.463421, Alt.=122.700256m. Speed=0.072000m/h.</desc>
<speed>0.020000</speed>
</trkpt>
<trkpt lat="56.070316" lon="26.463421">
<ele>122.694397</ele>
<time>2010-08-29T12:25:47Z</time>
<desc>lat.=56.070316, lon.=26.463421, Alt.=122.694397m. Speed=0.072000m/h.</desc>
<speed>0.020000</speed>
</trkpt>
<trkpt lat="56.070316" lon="26.463421">
<ele>122.682678</ele>
<time>2010-08-29T12:25:48Z</time>
<desc>lat.=56.070316, lon.=26.463421, Alt.=122.682678m. Speed=0.144000m/h.</desc>
<speed>0.040000</speed>
</trkpt>
<trkpt lat="56.070316" lon="26.463421">
<ele>122.670959</ele>
<time>2010-08-29T12:25:49Z</time>
<desc>lat.=56.070316, lon.=26.463421, Alt.=122.670959m. Speed=0.000000m/h.</desc>
<speed>0.000000</speed>
</trkpt>
<trkpt lat="56.070316" lon="26.463421">
<ele>122.657288</ele>
<time>2010-08-29T12:25:50Z</time>
<desc>lat.=56.070316, lon.=26.463421, Alt.=122.657288m. Speed=0.072000m/h.</desc>
<speed>0.020000</speed>
</trkpt>
<trkpt lat="56.070316" lon="26.463423">
<ele>122.641663</ele>
<time>2010-08-29T12:25:51Z</time>
<desc>lat.=56.070316, lon.=26.463423, Alt.=122.641663m. Speed=0.108000m/h.</desc>
<speed>0.030000</speed>
</trkpt>
<trkpt lat="56.070316" lon="26.463423">
<ele>122.629944</ele>
<time>2010-08-29T12:25:52Z</time>
<desc>lat.=56.070316, lon.=26.463423, Alt.=122.629944m. Speed=0.036000m/h.</desc>
<speed>0.010000</speed>
</trkpt>
<trkpt lat="56.070316" lon="26.463423">
<ele>122.622131</ele>
<time>2010-08-29T12:25:53Z</time>
<desc>lat.=56.070316, lon.=26.463423, Alt.=122.622131m. Speed=0.144000m/h.</desc>
<speed>0.040000</speed>
</trkpt>
<trkpt lat="56.070316" lon="26.463423">
<ele>122.612366</ele>
<time>2010-08-29T12:25:54Z</time>
<desc>lat.=56.070316, lon.=26.463423, Alt.=122.612366m. Speed=0.072000m/h.</desc>
<speed>0.020000</speed>
</trkpt>
<trkpt lat="56.070316" lon="26.463423">
<ele>122.600647</ele>
<time>2010-08-29T12:25:55Z</time>
<desc>lat.=56.070316, lon.=26.463423, Alt.=122.600647m. Speed=0.108000m/h.</desc>
<speed>0.030000</speed>
</trkpt>
<trkpt lat="56.070316" lon="26.463423">
<ele>122.590881</ele>
<time>2010-08-29T12:25:56Z</time>
<desc>lat.=56.070316, lon.=26.463423, Alt.=122.590881m. Speed=0.000000m/h.</desc>
<speed>0.000000</speed>
</trkpt>
<trkpt lat="56.070316" lon="26.463423">
<ele>122.583069</ele>
<time>2010-08-29T12:25:57Z</time>
<desc>lat.=56.070316, lon.=26.463423, Alt.=122.583069m. Speed=0.036000m/h.</desc>
<speed>0.010000</speed>
</trkpt>
<trkpt lat="56.070316" lon="26.463423">
<ele>122.575256</ele>
<time>2010-08-29T12:25:58Z</time>
<desc>lat.=56.070316, lon.=26.463423, Alt.=122.575256m. Speed=0.000000m/h.</desc>
<speed>0.000000</speed>
</trkpt>
<trkpt lat="56.070316" lon="26.463423">
<ele>122.571350</ele>
<time>2010-08-29T12:25:59Z</time>
<desc>lat.=56.070316, lon.=26.463423, Alt.=122.571350m. Speed=0.000000m/h.</desc>
<speed>0.000000</speed>
</trkpt>
<trkpt lat="56.070316" lon="26.463423">
<ele>122.557678</ele>
<time>2010-08-29T12:26:00Z</time>
<desc>lat.=56.070316, lon.=26.463423, Alt.=122.557678m. Speed=0.036000m/h.</desc>
<speed>0.010000</speed>
</trkpt>
<trkpt lat="56.070316" lon="26.463423">
<ele>122.553772</ele>
<time>2010-08-29T12:26:01Z</time>
<desc>lat.=56.070316, lon.=26.463423, Alt.=122.553772m. Speed=0.036000m/h.</desc>
<speed>0.010000</speed>
</trkpt>
<trkpt lat="56.070316" lon="26.463423">
<ele>122.555725</ele>
<time>2010-08-29T12:26:02Z</time>
<desc>lat.=56.070316, lon.=26.463423, Alt.=122.555725m. Speed=0.000000m/h.</desc>
<speed>0.000000</speed>
</trkpt>
<trkpt lat="56.070316" lon="26.463423">
<ele>122.549866</ele>
<time>2010-08-29T12:26:03Z</time>
<desc>lat.=56.070316, lon.=26.463423, Alt.=122.549866m. Speed=0.036000m/h.</desc>
<speed>0.010000</speed>
</trkpt>
<trkpt lat="56.070316" lon="26.463423">
<ele>122.536194</ele>
<time>2010-08-29T12:26:04Z</time>
<desc>lat.=56.070316, lon.=26.463423, Alt.=122.536194m. Speed=0.000000m/h.</desc>
<speed>0.000000</speed>
</trkpt>
<trkpt lat="56.070316" lon="26.463423">
<ele>122.524475</ele>
<time>2010-08-29T12:26:05Z</time>
<desc>lat.=56.070316, lon.=26.463423, Alt.=122.524475m. Speed=0.036000m/h.</desc>
<speed>0.010000</speed>
</trkpt>
<trkpt lat="56.070316" lon="26.463423">
<ele>122.514709</ele>
<time>2010-08-29T12:26:06Z</time>
<desc>lat.=56.070316, lon.=26.463423, Alt.=122.514709m. Speed=0.036000m/h.</desc>
<speed>0.010000</speed>
</trkpt>
<trkpt lat="56.070316" lon="26.463423">
<ele>122.504944</ele>
<time>2010-08-29T12:26:07Z</time>
<desc>lat.=56.070316, lon.=26.463423, Alt.=122.504944m. Speed=0.036000m/h.</desc>
<speed>0.010000</speed>
</trkpt>
<trkpt lat="56.070316" lon="26.463423">
<ele>122.487366</ele>
<time>2010-08-29T12:26:08Z</time>
<desc>lat.=56.070316, lon.=26.463423, Alt.=122.487366m. Speed=0.036000m/h.</desc>
<speed>0.010000</speed>
</trkpt>
<trkpt lat="56.070316" lon="26.463423">
<ele>122.469788</ele>
<time>2010-08-29T12:26:09Z</time>
<desc>lat.=56.070316, lon.=26.463423, Alt.=122.469788m. Speed=0.036000m/h.</desc>
<speed>0.010000</speed>
</trkpt>
<trkpt lat="56.070316" lon="26.463423">
<ele>122.458069</ele>
<time>2010-08-29T12:26:10Z</time>
<desc>lat.=56.070316, lon.=26.463423, Alt.=122.458069m. Speed=0.036000m/h.</desc>
<speed>0.010000</speed>
</trkpt>
<trkpt lat="56.070316" lon="26.463423">
<ele>122.442444</ele>
<time>2010-08-29T12:26:11Z</time>
<desc>lat.=56.070316, lon.=26.463423, Alt.=122.442444m. Speed=0.108000m/h.</desc>
<speed>0.030000</speed>
</trkpt>
<trkpt lat="56.070316" lon="26.463423">
<ele>122.432678</ele>
<time>2010-08-29T12:26:12Z</time>
<desc>lat.=56.070316, lon.=26.463423, Alt.=122.432678m. Speed=0.000000m/h.</desc>
<speed>0.000000</speed>
</trkpt>
<trkpt lat="56.070316" lon="26.463423">
<ele>122.434631</ele>
<time>2010-08-29T12:26:13Z</time>
<desc>lat.=56.070316, lon.=26.463423, Alt.=122.434631m. Speed=0.036000m/h.</desc>
<speed>0.010000</speed>
</trkpt>
<trkpt lat="56.070316" lon="26.463423">
<ele>122.432678</ele>
<time>2010-08-29T12:26:14Z</time>
<desc>lat.=56.070316, lon.=26.463423, Alt.=122.432678m. Speed=0.036000m/h.</desc>
<speed>0.010000</speed>
</trkpt>
<trkpt lat="56.070316" lon="26.463423">
<ele>122.422913</ele>
<time>2010-08-29T12:26:15Z</time>
<desc>lat.=56.070316, lon.=26.463423, Alt.=122.422913m. Speed=0.000000m/h.</desc>
<speed>0.000000</speed>
</trkpt>
<trkpt lat="56.070316" lon="26.463423">
<ele>122.419006</ele>
<time>2010-08-29T12:26:16Z</time>
<desc>lat.=56.070316, lon.=26.463423, Alt.=122.419006m. Speed=0.000000m/h.</desc>
<speed>0.000000</speed>
</trkpt>
<trkpt lat="56.070316" lon="26.463423">
<ele>122.417053</ele>
<time>2010-08-29T12:26:17Z</time>
<desc>lat.=56.070316, lon.=26.463423, Alt.=122.417053m. Speed=0.072000m/h.</desc>
<speed>0.020000</speed>
</trkpt>
<trkpt lat="56.070316" lon="26.463423">
<ele>122.411194</ele>
<time>2010-08-29T12:26:18Z</time>
<desc>lat.=56.070316, lon.=26.463423, Alt.=122.411194m. Speed=0.036000m/h.</desc>
<speed>0.010000</speed>
</trkpt>
<trkpt lat="56.070316" lon="26.463423">
<ele>122.405334</ele>
<time>2010-08-29T12:26:19Z</time>
<desc>lat.=56.070316, lon.=26.463423, Alt.=122.405334m. Speed=0.036000m/h.</desc>
<speed>0.010000</speed>
</trkpt>
<trkpt lat="56.070316" lon="26.463423">
<ele>122.393616</ele>
<time>2010-08-29T12:26:20Z</time>
<desc>lat.=56.070316, lon.=26.463423, Alt.=122.393616m. Speed=0.108000m/h.</desc>
<speed>0.030000</speed>
</trkpt>
<trkpt lat="56.070316" lon="26.463423">
<ele>122.385803</ele>
<time>2010-08-29T12:26:21Z</time>
<desc>lat.=56.070316, lon.=26.463423, Alt.=122.385803m. Speed=0.036000m/h.</desc>
<speed>0.010000</speed>
</trkpt>
<trkpt lat="56.070316" lon="26.463423">
<ele>122.377991</ele>
<time>2010-08-29T12:26:22Z</time>
<desc>lat.=56.070316, lon.=26.463423, Alt.=122.377991m. Speed=0.072000m/h.</desc>
<speed>0.020000</speed>
</trkpt>
<trkpt lat="56.070316" lon="26.463423">
<ele>122.366272</ele>
<time>2010-08-29T12:26:23Z</time>
<desc>lat.=56.070316, lon.=26.463423, Alt.=122.366272m. Speed=0.000000m/h.</desc>
<speed>0.000000</speed>
</trkpt>
<trkpt lat="56.070316" lon="26.463423">
<ele>122.354553</ele>
<time>2010-08-29T12:26:24Z</time>
<desc>lat.=56.070316, lon.=26.463423, Alt.=122.354553m. Speed=0.036000m/h.</desc>
<speed>0.010000</speed>
</trkpt>
<trkpt lat="56.070316" lon="26.463423">
<ele>122.344788</ele>
<time>2010-08-29T12:26:25Z</time>
<desc>lat.=56.070316, lon.=26.463423, Alt.=122.344788m. Speed=0.000000m/h.</desc>
<speed>0.000000</speed>
</trkpt>
<trkpt lat="56.070316" lon="26.463421">
<ele>122.335022</ele>
<time>2010-08-29T12:26:26Z</time>
<desc>lat.=56.070316, lon.=26.463421, Alt.=122.335022m. Speed=0.036000m/h.</desc>
<speed>0.010000</speed>
</trkpt>
<trkpt lat="56.070316" lon="26.463421">
<ele>122.323303</ele>
<time>2010-08-29T12:26:27Z</time>
<desc>lat.=56.070316, lon.=26.463421, Alt.=122.323303m. Speed=0.072000m/h.</desc>
<speed>0.020000</speed>
</trkpt>
<trkpt lat="56.070316" lon="26.463421">
<ele>122.315491</ele>
<time>2010-08-29T12:26:28Z</time>
<desc>lat.=56.070316, lon.=26.463421, Alt.=122.315491m. Speed=0.000000m/h.</desc>
<speed>0.000000</speed>
</trkpt>
<trkpt lat="56.070316" lon="26.463421">
<ele>122.305725</ele>
<time>2010-08-29T12:26:29Z</time>
<desc>lat.=56.070316, lon.=26.463421, Alt.=122.305725m. Speed=0.036000m/h.</desc>
<speed>0.010000</speed>
</trkpt>
<trkpt lat="56.070316" lon="26.463421">
<ele>122.297913</ele>
<time>2010-08-29T12:26:30Z</time>
<desc>lat.=56.070316, lon.=26.463421, Alt.=122.297913m. Speed=0.000000m/h.</desc>
<speed>0.000000</speed>
</trkpt>
<trkpt lat="56.070316" lon="26.463421">
<ele>122.288147</ele>
<time>2010-08-29T12:26:31Z</time>
<desc>lat.=56.070316, lon.=26.463421, Alt.=122.288147m. Speed=0.108000m/h.</desc>
<speed>0.030000</speed>
</trkpt>
<trkpt lat="56.070316" lon="26.463421">
<ele>122.286194</ele>
<time>2010-08-29T12:26:32Z</time>
<desc>lat.=56.070316, lon.=26.463421, Alt.=122.286194m. Speed=0.108000m/h.</desc>
<speed>0.030000</speed>
</trkpt>
<trkpt lat="56.070316" lon="26.463421">
<ele>122.280334</ele>
<time>2010-08-29T12:26:33Z</time>
<desc>lat.=56.070316, lon.=26.463421, Alt.=122.280334m. Speed=0.072000m/h.</desc>
<speed>0.020000</speed>
</trkpt>
<trkpt lat="56.070316" lon="26.463421">
<ele>122.272522</ele>
<time>2010-08-29T12:26:34Z</time>
<desc>lat.=56.070316, lon.=26.463421, Alt.=122.272522m. Speed=0.072000m/h.</desc>
<speed>0.020000</speed>
</trkpt>
<trkpt lat="56.070316" lon="26.463421">
<ele>122.270569</ele>
<time>2010-08-29T12:26:35Z</time>
<desc>lat.=56.070316, lon.=26.463421, Alt.=122.270569m. Speed=0.036000m/h.</desc>
<speed>0.010000</speed>
</trkpt>
<trkpt lat="56.070316" lon="26.463421">
<ele>122.264709</ele>
<time>2010-08-29T12:26:36Z</time>
<desc>lat.=56.070316, lon.=26.463421, Alt.=122.264709m. Speed=0.072000m/h.</desc>
<speed>0.020000</speed>
</trkpt>
<trkpt lat="56.070316" lon="26.463421">
<ele>122.264709</ele>
<time>2010-08-29T12:26:37Z</time>
<desc>lat.=56.070316, lon.=26.463421, Alt.=122.264709m. Speed=0.144000m/h.</desc>
<speed>0.040000</speed>
</trkpt>
<trkpt lat="56.070316" lon="26.463421">
<ele>122.254944</ele>
<time>2010-08-29T12:26:38Z</time>
<desc>lat.=56.070316, lon.=26.463421, Alt.=122.254944m. Speed=0.144000m/h.</desc>
<speed>0.040000</speed>
</trkpt>
<trkpt lat="56.070316" lon="26.463421">
<ele>122.249084</ele>
<time>2010-08-29T12:26:39Z</time>
<desc>lat.=56.070316, lon.=26.463421, Alt.=122.249084m. Speed=0.144000m/h.</desc>
<speed>0.040000</speed>
</trkpt>
<trkpt lat="56.070316" lon="26.463421">
<ele>122.243225</ele>
<time>2010-08-29T12:26:40Z</time>
<desc>lat.=56.070316, lon.=26.463421, Alt.=122.243225m. Speed=0.072000m/h.</desc>
<speed>0.020000</speed>
</trkpt>
<trkpt lat="56.070316" lon="26.463421">
<ele>122.237366</ele>
<time>2010-08-29T12:26:41Z</time>
<desc>lat.=56.070316, lon.=26.463421, Alt.=122.237366m. Speed=0.072000m/h.</desc>
<speed>0.020000</speed>
</trkpt>
<trkpt lat="56.070316" lon="26.463421">
<ele>122.235413</ele>
<time>2010-08-29T12:26:42Z</time>
<desc>lat.=56.070316, lon.=26.463421, Alt.=122.235413m. Speed=0.036000m/h.</desc>
<speed>0.010000</speed>
</trkpt>
<trkpt lat="56.070316" lon="26.463421">
<ele>122.231506</ele>
<time>2010-08-29T12:26:43Z</time>
<desc>lat.=56.070316, lon.=26.463421, Alt.=122.231506m. Speed=0.072000m/h.</desc>
<speed>0.020000</speed>
</trkpt>
<trkpt lat="56.070313" lon="26.463419">
<ele>122.221741</ele>
<time>2010-08-29T12:26:44Z</time>
<desc>lat.=56.070313, lon.=26.463419, Alt.=122.221741m. Speed=0.108000m/h.</desc>
<speed>0.030000</speed>
</trkpt>
<trkpt lat="56.070313" lon="26.463419">
<ele>122.215881</ele>
<time>2010-08-29T12:26:45Z</time>
<desc>lat.=56.070313, lon.=26.463419, Alt.=122.215881m. Speed=0.036000m/h.</desc>
<speed>0.010000</speed>
</trkpt>
<trkpt lat="56.070313" lon="26.463419">
<ele>122.206116</ele>
<time>2010-08-29T12:26:46Z</time>
<desc>lat.=56.070313, lon.=26.463419, Alt.=122.206116m. Speed=0.036000m/h.</desc>
<speed>0.010000</speed>
</trkpt>
<trkpt lat="56.070313" lon="26.463419">
<ele>122.198303</ele>
<time>2010-08-29T12:26:47Z</time>
<desc>lat.=56.070313, lon.=26.463419, Alt.=122.198303m. Speed=0.108000m/h.</desc>
<speed>0.030000</speed>
</trkpt>
<trkpt lat="56.070313" lon="26.463419">
<ele>122.192444</ele>
<time>2010-08-29T12:26:48Z</time>
<desc>lat.=56.070313, lon.=26.463419, Alt.=122.192444m. Speed=0.072000m/h.</desc>
<speed>0.020000</speed>
</trkpt>
<trkpt lat="56.070313" lon="26.463419">
<ele>122.182678</ele>
<time>2010-08-29T12:26:49Z</time>
<desc>lat.=56.070313, lon.=26.463419, Alt.=122.182678m. Speed=0.000000m/h.</desc>
<speed>0.000000</speed>
</trkpt>
<trkpt lat="56.070313" lon="26.463419">
<ele>122.180725</ele>
<time>2010-08-29T12:26:50Z</time>
<desc>lat.=56.070313, lon.=26.463419, Alt.=122.180725m. Speed=0.072000m/h.</desc>
<speed>0.020000</speed>
</trkpt>
<trkpt lat="56.070313" lon="26.463419">
<ele>122.174866</ele>
<time>2010-08-29T12:26:51Z</time>
<desc>lat.=56.070313, lon.=26.463419, Alt.=122.174866m. Speed=0.072000m/h.</desc>
<speed>0.020000</speed>
</trkpt>
<trkpt lat="56.070313" lon="26.463419">
<ele>122.172913</ele>
<time>2010-08-29T12:26:52Z</time>
<desc>lat.=56.070313, lon.=26.463419, Alt.=122.172913m. Speed=0.144000m/h.</desc>
<speed>0.040000</speed>
</trkpt>
<trkpt lat="56.070313" lon="26.463419">
<ele>122.172913</ele>
<time>2010-08-29T12:26:53Z</time>
<desc>lat.=56.070313, lon.=26.463419, Alt.=122.172913m. Speed=0.144000m/h.</desc>
<speed>0.040000</speed>
</trkpt>
<trkpt lat="56.070313" lon="26.463419">
<ele>122.172913</ele>
<time>2010-08-29T12:26:54Z</time>
<desc>lat.=56.070313, lon.=26.463419, Alt.=122.172913m. Speed=0.108000m/h.</desc>
<speed>0.030000</speed>
</trkpt>
<trkpt lat="56.070313" lon="26.463419">
<ele>122.170959</ele>
<time>2010-08-29T12:26:55Z</time>
<desc>lat.=56.070313, lon.=26.463419, Alt.=122.170959m. Speed=0.108000m/h.</desc>
<speed>0.030000</speed>
</trkpt>
<trkpt lat="56.070313" lon="26.463419">
<ele>122.167053</ele>
<time>2010-08-29T12:26:56Z</time>
<desc>lat.=56.070313, lon.=26.463419, Alt.=122.167053m. Speed=0.036000m/h.</desc>
<speed>0.010000</speed>
</trkpt>
<trkpt lat="56.070313" lon="26.463419">
<ele>122.163147</ele>
<time>2010-08-29T12:26:57Z</time>
<desc>lat.=56.070313, lon.=26.463419, Alt.=122.163147m. Speed=0.144000m/h.</desc>
<speed>0.040000</speed>
</trkpt>
<trkpt lat="56.070313" lon="26.463419">
<ele>122.161194</ele>
<time>2010-08-29T12:26:58Z</time>
<desc>lat.=56.070313, lon.=26.463419, Alt.=122.161194m. Speed=0.108000m/h.</desc>
<speed>0.030000</speed>
</trkpt>
<trkpt lat="56.070313" lon="26.463419">
<ele>122.155334</ele>
<time>2010-08-29T12:26:59Z</time>
<desc>lat.=56.070313, lon.=26.463419, Alt.=122.155334m. Speed=0.108000m/h.</desc>
<speed>0.030000</speed>
</trkpt>
<trkpt lat="56.070313" lon="26.463417">
<ele>122.145569</ele>
<time>2010-08-29T12:27:00Z</time>
<desc>lat.=56.070313, lon.=26.463417, Alt.=122.145569m. Speed=0.036000m/h.</desc>
<speed>0.010000</speed>
</trkpt>
<trkpt lat="56.070313" lon="26.463417">
<ele>122.135803</ele>
<time>2010-08-29T12:27:01Z</time>
<desc>lat.=56.070313, lon.=26.463417, Alt.=122.135803m. Speed=0.072000m/h.</desc>
<speed>0.020000</speed>
</trkpt>
<trkpt lat="56.070313" lon="26.463417">
<ele>122.127991</ele>
<time>2010-08-29T12:27:02Z</time>
<desc>lat.=56.070313, lon.=26.463417, Alt.=122.127991m. Speed=0.000000m/h.</desc>
<speed>0.000000</speed>
</trkpt>
<trkpt lat="56.070313" lon="26.463417">
<ele>122.118225</ele>
<time>2010-08-29T12:27:03Z</time>
<desc>lat.=56.070313, lon.=26.463417, Alt.=122.118225m. Speed=0.072000m/h.</desc>
<speed>0.020000</speed>
</trkpt>
<trkpt lat="56.070313" lon="26.463417">
<ele>122.112366</ele>
<time>2010-08-29T12:27:04Z</time>
<desc>lat.=56.070313, lon.=26.463417, Alt.=122.112366m. Speed=0.036000m/h.</desc>
<speed>0.010000</speed>
</trkpt>
<trkpt lat="56.070313" lon="26.463417">
<ele>122.106506</ele>
<time>2010-08-29T12:27:05Z</time>
<desc>lat.=56.070313, lon.=26.463417, Alt.=122.106506m. Speed=0.000000m/h.</desc>
<speed>0.000000</speed>
</trkpt>
<trkpt lat="56.070313" lon="26.463417">
<ele>122.106506</ele>
<time>2010-08-29T12:27:06Z</time>
<desc>lat.=56.070313, lon.=26.463417, Alt.=122.106506m. Speed=0.036000m/h.</desc>
<speed>0.010000</speed>
</trkpt>
<trkpt lat="56.070313" lon="26.463417">
<ele>122.100647</ele>
<time>2010-08-29T12:27:07Z</time>
<desc>lat.=56.070313, lon.=26.463417, Alt.=122.100647m. Speed=0.000000m/h.</desc>
<speed>0.000000</speed>
</trkpt>
<trkpt lat="56.070313" lon="26.463417">
<ele>122.092834</ele>
<time>2010-08-29T12:27:08Z</time>
<desc>lat.=56.070313, lon.=26.463417, Alt.=122.092834m. Speed=0.036000m/h.</desc>
<speed>0.010000</speed>
</trkpt>
<trkpt lat="56.070313" lon="26.463417">
<ele>122.085022</ele>
<time>2010-08-29T12:27:09Z</time>
<desc>lat.=56.070313, lon.=26.463417, Alt.=122.085022m. Speed=0.036000m/h.</desc>
<speed>0.010000</speed>
</trkpt>
<trkpt lat="56.070313" lon="26.463417">
<ele>122.083069</ele>
<time>2010-08-29T12:27:10Z</time>
<desc>lat.=56.070313, lon.=26.463417, Alt.=122.083069m. Speed=0.000000m/h.</desc>
<speed>0.000000</speed>
</trkpt>
<trkpt lat="56.070313" lon="26.463417">
<ele>122.077209</ele>
<time>2010-08-29T12:27:11Z</time>
<desc>lat.=56.070313, lon.=26.463417, Alt.=122.077209m. Speed=0.000000m/h.</desc>
<speed>0.000000</speed>
</trkpt>
<trkpt lat="56.070313" lon="26.463417">
<ele>122.073303</ele>
<time>2010-08-29T12:27:12Z</time>
<desc>lat.=56.070313, lon.=26.463417, Alt.=122.073303m. Speed=0.000000m/h.</desc>
<speed>0.000000</speed>
</trkpt>
<trkpt lat="56.070313" lon="26.463417">
<ele>122.069397</ele>
<time>2010-08-29T12:27:13Z</time>
<desc>lat.=56.070313, lon.=26.463417, Alt.=122.069397m. Speed=0.036000m/h.</desc>
<speed>0.010000</speed>
</trkpt>
<trkpt lat="56.070313" lon="26.463417">
<ele>122.059631</ele>
<time>2010-08-29T12:27:14Z</time>
<desc>lat.=56.070313, lon.=26.463417, Alt.=122.059631m. Speed=0.072000m/h.</desc>
<speed>0.020000</speed>
</trkpt>
<trkpt lat="56.070313" lon="26.463417">
<ele>122.053772</ele>
<time>2010-08-29T12:27:15Z</time>
<desc>lat.=56.070313, lon.=26.463417, Alt.=122.053772m. Speed=0.000000m/h.</desc>
<speed>0.000000</speed>
</trkpt>
<trkpt lat="56.070313" lon="26.463417">
<ele>122.049866</ele>
<time>2010-08-29T12:27:16Z</time>
<desc>lat.=56.070313, lon.=26.463417, Alt.=122.049866m. Speed=0.036000m/h.</desc>
<speed>0.010000</speed>
</trkpt>
<trkpt lat="56.070313" lon="26.463417">
<ele>122.045959</ele>
<time>2010-08-29T12:27:17Z</time>
<desc>lat.=56.070313, lon.=26.463417, Alt.=122.045959m. Speed=0.072000m/h.</desc>
<speed>0.020000</speed>
</trkpt>
<trkpt lat="56.070313" lon="26.463417">
<ele>122.042053</ele>
<time>2010-08-29T12:27:18Z</time>
<desc>lat.=56.070313, lon.=26.463417, Alt.=122.042053m. Speed=0.036000m/h.</desc>
<speed>0.010000</speed>
</trkpt>
<trkpt lat="56.070313" lon="26.463417">
<ele>122.036194</ele>
<time>2010-08-29T12:27:19Z</time>
<desc>lat.=56.070313, lon.=26.463417, Alt.=122.036194m. Speed=0.108000m/h.</desc>
<speed>0.030000</speed>
</trkpt>
<trkpt lat="56.070313" lon="26.463417">
<ele>122.036194</ele>
<time>2010-08-29T12:27:20Z</time>
<desc>lat.=56.070313, lon.=26.463417, Alt.=122.036194m. Speed=0.144000m/h.</desc>
<speed>0.040000</speed>
</trkpt>
<trkpt lat="56.070313" lon="26.463417">
<ele>122.036194</ele>
<time>2010-08-29T12:27:21Z</time>
<desc>lat.=56.070313, lon.=26.463417, Alt.=122.036194m. Speed=0.108000m/h.</desc>
<speed>0.030000</speed>
</trkpt>
<trkpt lat="56.070313" lon="26.463417">
<ele>122.038147</ele>
<time>2010-08-29T12:27:22Z</time>
<desc>lat.=56.070313, lon.=26.463417, Alt.=122.038147m. Speed=0.072000m/h.</desc>
<speed>0.020000</speed>
</trkpt>
<trkpt lat="56.070313" lon="26.463417">
<ele>122.040100</ele>
<time>2010-08-29T12:27:23Z</time>
<desc>lat.=56.070313, lon.=26.463417, Alt.=122.040100m. Speed=0.072000m/h.</desc>
<speed>0.020000</speed>
</trkpt>
<trkpt lat="56.070313" lon="26.463417">
<ele>122.038147</ele>
<time>2010-08-29T12:27:24Z</time>
<desc>lat.=56.070313, lon.=26.463417, Alt.=122.038147m. Speed=0.036000m/h.</desc>
<speed>0.010000</speed>
</trkpt>
<trkpt lat="56.070313" lon="26.463417">
<ele>122.036194</ele>
<time>2010-08-29T12:27:25Z</time>
<desc>lat.=56.070313, lon.=26.463417, Alt.=122.036194m. Speed=0.072000m/h.</desc>
<speed>0.020000</speed>
</trkpt>
<trkpt lat="56.070313" lon="26.463417">
<ele>122.036194</ele>
<time>2010-08-29T12:27:26Z</time>
<desc>lat.=56.070313, lon.=26.463417, Alt.=122.036194m. Speed=0.000000m/h.</desc>
<speed>0.000000</speed>
</trkpt>
<trkpt lat="56.070313" lon="26.463417">
<ele>122.034241</ele>
<time>2010-08-29T12:27:27Z</time>
<desc>lat.=56.070313, lon.=26.463417, Alt.=122.034241m. Speed=0.072000m/h.</desc>
<speed>0.020000</speed>
</trkpt>
<trkpt lat="56.070313" lon="26.463417">
<ele>122.034241</ele>
<time>2010-08-29T12:27:28Z</time>
<desc>lat.=56.070313, lon.=26.463417, Alt.=122.034241m. Speed=0.036000m/h.</desc>
<speed>0.010000</speed>
</trkpt>
<trkpt lat="56.070313" lon="26.463417">
<ele>122.030334</ele>
<time>2010-08-29T12:27:29Z</time>
<desc>lat.=56.070313, lon.=26.463417, Alt.=122.030334m. Speed=0.000000m/h.</desc>
<speed>0.000000</speed>
</trkpt>
<trkpt lat="56.070313" lon="26.463417">
<ele>122.028381</ele>
<time>2010-08-29T12:27:30Z</time>
<desc>lat.=56.070313, lon.=26.463417, Alt.=122.028381m. Speed=0.000000m/h.</desc>
<speed>0.000000</speed>
</trkpt>
<trkpt lat="56.070313" lon="26.463417">
<ele>122.026428</ele>
<time>2010-08-29T12:27:31Z</time>
<desc>lat.=56.070313, lon.=26.463417, Alt.=122.026428m. Speed=0.036000m/h.</desc>
<speed>0.010000</speed>
</trkpt>
<trkpt lat="56.070313" lon="26.463417">
<ele>122.024475</ele>
<time>2010-08-29T12:27:32Z</time>
<desc>lat.=56.070313, lon.=26.463417, Alt.=122.024475m. Speed=0.036000m/h.</desc>
<speed>0.010000</speed>
</trkpt>
<trkpt lat="56.070313" lon="26.463417">
<ele>122.020569</ele>
<time>2010-08-29T12:27:33Z</time>
<desc>lat.=56.070313, lon.=26.463417, Alt.=122.020569m. Speed=0.036000m/h.</desc>
<speed>0.010000</speed>
</trkpt>
<trkpt lat="56.070313" lon="26.463417">
<ele>122.016663</ele>
<time>2010-08-29T12:27:34Z</time>
<desc>lat.=56.070313, lon.=26.463417, Alt.=122.016663m. Speed=0.072000m/h.</desc>
<speed>0.020000</speed>
</trkpt>
<trkpt lat="56.070313" lon="26.463417">
<ele>122.016663</ele>
<time>2010-08-29T12:27:35Z</time>
<desc>lat.=56.070313, lon.=26.463417, Alt.=122.016663m. Speed=0.072000m/h.</desc>
<speed>0.020000</speed>
</trkpt>
<trkpt lat="56.070313" lon="26.463417">
<ele>122.018616</ele>
<time>2010-08-29T12:27:36Z</time>
<desc>lat.=56.070313, lon.=26.463417, Alt.=122.018616m. Speed=0.072000m/h.</desc>
<speed>0.020000</speed>
</trkpt>
<trkpt lat="56.070313" lon="26.463417">
<ele>122.018616</ele>
<time>2010-08-29T12:27:37Z</time>
<desc>lat.=56.070313, lon.=26.463417, Alt.=122.018616m. Speed=0.144000m/h.</desc>
<speed>0.040000</speed>
</trkpt>
<trkpt lat="56.070313" lon="26.463417">
<ele>122.018616</ele>
<time>2010-08-29T12:27:38Z</time>
<desc>lat.=56.070313, lon.=26.463417, Alt.=122.018616m. Speed=0.252000m/h.</desc>
<speed>0.070000</speed>
</trkpt>
<trkpt lat="56.070313" lon="26.463417">
<ele>122.016663</ele>
<time>2010-08-29T12:27:39Z</time>
<desc>lat.=56.070313, lon.=26.463417, Alt.=122.016663m. Speed=0.216000m/h.</desc>
<speed>0.060000</speed>
</trkpt>
<trkpt lat="56.070313" lon="26.463417">
<ele>122.016663</ele>
<time>2010-08-29T12:27:40Z</time>
<desc>lat.=56.070313, lon.=26.463417, Alt.=122.016663m. Speed=0.252000m/h.</desc>
<speed>0.070000</speed>
</trkpt>
<trkpt lat="56.070313" lon="26.463417">
<ele>122.010803</ele>
<time>2010-08-29T12:27:41Z</time>
<desc>lat.=56.070313, lon.=26.463417, Alt.=122.010803m. Speed=0.072000m/h.</desc>
<speed>0.020000</speed>
</trkpt>
<trkpt lat="56.070313" lon="26.463417">
<ele>122.004944</ele>
<time>2010-08-29T12:27:42Z</time>
<desc>lat.=56.070313, lon.=26.463417, Alt.=122.004944m. Speed=0.144000m/h.</desc>
<speed>0.040000</speed>
</trkpt>
<trkpt lat="56.070313" lon="26.463415">
<ele>121.999084</ele>
<time>2010-08-29T12:27:43Z</time>
<desc>lat.=56.070313, lon.=26.463415, Alt.=121.999084m. Speed=0.108000m/h.</desc>
<speed>0.030000</speed>
</trkpt>
<trkpt lat="56.070313" lon="26.463417">
<ele>121.987366</ele>
<time>2010-08-29T12:27:44Z</time>
<desc>lat.=56.070313, lon.=26.463417, Alt.=121.987366m. Speed=0.000000m/h.</desc>
<speed>0.000000</speed>
</trkpt>
<trkpt lat="56.070309" lon="26.463415">
<ele>121.969788</ele>
<time>2010-08-29T12:27:45Z</time>
<desc>lat.=56.070309, lon.=26.463415, Alt.=121.969788m. Speed=0.072000m/h.</desc>
<speed>0.020000</speed>
</trkpt>
<trkpt lat="56.070309" lon="26.463415">
<ele>121.960022</ele>
<time>2010-08-29T12:27:46Z</time>
<desc>lat.=56.070309, lon.=26.463415, Alt.=121.960022m. Speed=0.180000m/h.</desc>
<speed>0.050000</speed>
</trkpt>
<trkpt lat="56.070309" lon="26.463415">
<ele>121.946350</ele>
<time>2010-08-29T12:27:47Z</time>
<desc>lat.=56.070309, lon.=26.463415, Alt.=121.946350m. Speed=0.036000m/h.</desc>
<speed>0.010000</speed>
</trkpt>
<trkpt lat="56.070309" lon="26.463415">
<ele>121.932678</ele>
<time>2010-08-29T12:27:48Z</time>
<desc>lat.=56.070309, lon.=26.463415, Alt.=121.932678m. Speed=0.108000m/h.</desc>
<speed>0.030000</speed>
</trkpt>
<trkpt lat="56.070309" lon="26.463415">
<ele>121.919006</ele>
<time>2010-08-29T12:27:49Z</time>
<desc>lat.=56.070309, lon.=26.463415, Alt.=121.919006m. Speed=0.072000m/h.</desc>
<speed>0.020000</speed>
</trkpt>
<trkpt lat="56.070309" lon="26.463415">
<ele>121.909241</ele>
<time>2010-08-29T12:27:50Z</time>
<desc>lat.=56.070309, lon.=26.463415, Alt.=121.909241m. Speed=0.036000m/h.</desc>
<speed>0.010000</speed>
</trkpt>
<trkpt lat="56.070309" lon="26.463415">
<ele>121.905334</ele>
<time>2010-08-29T12:27:51Z</time>
<desc>lat.=56.070309, lon.=26.463415, Alt.=121.905334m. Speed=0.072000m/h.</desc>
<speed>0.020000</speed>
</trkpt>
<trkpt lat="56.070309" lon="26.463415">
<ele>121.891663</ele>
<time>2010-08-29T12:27:52Z</time>
<desc>lat.=56.070309, lon.=26.463415, Alt.=121.891663m. Speed=0.108000m/h.</desc>
<speed>0.030000</speed>
</trkpt>
<trkpt lat="56.070309" lon="26.463415">
<ele>121.876038</ele>
<time>2010-08-29T12:27:53Z</time>
<desc>lat.=56.070309, lon.=26.463415, Alt.=121.876038m. Speed=0.108000m/h.</desc>
<speed>0.030000</speed>
</trkpt>
<trkpt lat="56.070309" lon="26.463415">
<ele>121.860413</ele>
<time>2010-08-29T12:27:54Z</time>
<desc>lat.=56.070309, lon.=26.463415, Alt.=121.860413m. Speed=0.072000m/h.</desc>
<speed>0.020000</speed>
</trkpt>
<trkpt lat="56.070309" lon="26.463415">
<ele>121.860413</ele>
<time>2010-08-29T12:27:55Z</time>
<desc>lat.=56.070309, lon.=26.463415, Alt.=121.860413m. Speed=0.000000m/h.</desc>
<speed>0.000000</speed>
</trkpt>
<trkpt lat="56.070309" lon="26.463415">
<ele>121.852600</ele>
<time>2010-08-29T12:27:56Z</time>
<desc>lat.=56.070309, lon.=26.463415, Alt.=121.852600m. Speed=0.180000m/h.</desc>
<speed>0.050000</speed>
</trkpt>
<trkpt lat="56.070309" lon="26.463415">
<ele>121.848694</ele>
<time>2010-08-29T12:27:57Z</time>
<desc>lat.=56.070309, lon.=26.463415, Alt.=121.848694m. Speed=0.144000m/h.</desc>
<speed>0.040000</speed>
</trkpt>
<trkpt lat="56.070309" lon="26.463415">
<ele>121.848694</ele>
<time>2010-08-29T12:27:58Z</time>
<desc>lat.=56.070309, lon.=26.463415, Alt.=121.848694m. Speed=0.000000m/h.</desc>
<speed>0.000000</speed>
</trkpt>
<trkpt lat="56.070309" lon="26.463415">
<ele>121.844788</ele>
<time>2010-08-29T12:27:59Z</time>
<desc>lat.=56.070309, lon.=26.463415, Alt.=121.844788m. Speed=0.036000m/h.</desc>
<speed>0.010000</speed>
</trkpt>
<trkpt lat="56.070309" lon="26.463415">
<ele>121.827209</ele>
<time>2010-08-29T12:28:00Z</time>
<desc>lat.=56.070309, lon.=26.463415, Alt.=121.827209m. Speed=0.036000m/h.</desc>
<speed>0.010000</speed>
</trkpt>
<trkpt lat="56.070309" lon="26.463415">
<ele>121.817444</ele>
<time>2010-08-29T12:28:01Z</time>
<desc>lat.=56.070309, lon.=26.463415, Alt.=121.817444m. Speed=0.252000m/h.</desc>
<speed>0.070000</speed>
</trkpt>
<trkpt lat="56.070313" lon="26.463415">
<ele>121.819397</ele>
<time>2010-08-29T12:28:02Z</time>
<desc>lat.=56.070313, lon.=26.463415, Alt.=121.819397m. Speed=0.216000m/h.</desc>
<speed>0.060000</speed>
</trkpt>
<trkpt lat="56.070313" lon="26.463415">
<ele>121.821350</ele>
<time>2010-08-29T12:28:03Z</time>
<desc>lat.=56.070313, lon.=26.463415, Alt.=121.821350m. Speed=0.144000m/h.</desc>
<speed>0.040000</speed>
</trkpt>
<trkpt lat="56.070313" lon="26.463415">
<ele>121.817444</ele>
<time>2010-08-29T12:28:04Z</time>
<desc>lat.=56.070313, lon.=26.463415, Alt.=121.817444m. Speed=0.108000m/h.</desc>
<speed>0.030000</speed>
</trkpt>
<trkpt lat="56.070313" lon="26.463415">
<ele>121.815491</ele>
<time>2010-08-29T12:28:05Z</time>
<desc>lat.=56.070313, lon.=26.463415, Alt.=121.815491m. Speed=0.072000m/h.</desc>
<speed>0.020000</speed>
</trkpt>
<trkpt lat="56.070313" lon="26.463415">
<ele>121.817444</ele>
<time>2010-08-29T12:28:06Z</time>
<desc>lat.=56.070313, lon.=26.463415, Alt.=121.817444m. Speed=0.036000m/h.</desc>
<speed>0.010000</speed>
</trkpt>
<trkpt lat="56.070313" lon="26.463415">
<ele>121.813538</ele>
<time>2010-08-29T12:28:07Z</time>
<desc>lat.=56.070313, lon.=26.463415, Alt.=121.813538m. Speed=0.072000m/h.</desc>
<speed>0.020000</speed>
</trkpt>
<trkpt lat="56.070313" lon="26.463415">
<ele>121.811584</ele>
<time>2010-08-29T12:28:08Z</time>
<desc>lat.=56.070313, lon.=26.463415, Alt.=121.811584m. Speed=0.036000m/h.</desc>
<speed>0.010000</speed>
</trkpt>
<trkpt lat="56.070313" lon="26.463415">
<ele>121.799866</ele>
<time>2010-08-29T12:28:09Z</time>
<desc>lat.=56.070313, lon.=26.463415, Alt.=121.799866m. Speed=0.072000m/h.</desc>
<speed>0.020000</speed>
</trkpt>
<trkpt lat="56.070313" lon="26.463415">
<ele>121.795959</ele>
<time>2010-08-29T12:28:10Z</time>
<desc>lat.=56.070313, lon.=26.463415, Alt.=121.795959m. Speed=0.252000m/h.</desc>
<speed>0.070000</speed>
</trkpt>
<trkpt lat="56.070313" lon="26.463415">
<ele>121.795959</ele>
<time>2010-08-29T12:28:11Z</time>
<desc>lat.=56.070313, lon.=26.463415, Alt.=121.795959m. Speed=0.000000m/h.</desc>
<speed>0.000000</speed>
</trkpt>
<trkpt lat="56.070313" lon="26.463415">
<ele>121.792053</ele>
<time>2010-08-29T12:28:12Z</time>
<desc>lat.=56.070313, lon.=26.463415, Alt.=121.792053m. Speed=0.000000m/h.</desc>
<speed>0.000000</speed>
</trkpt>
<trkpt lat="56.070313" lon="26.463415">
<ele>121.782288</ele>
<time>2010-08-29T12:28:13Z</time>
<desc>lat.=56.070313, lon.=26.463415, Alt.=121.782288m. Speed=0.072000m/h.</desc>
<speed>0.020000</speed>
</trkpt>
<trkpt lat="56.070313" lon="26.463415">
<ele>121.774475</ele>
<time>2010-08-29T12:28:14Z</time>
<desc>lat.=56.070313, lon.=26.463415, Alt.=121.774475m. Speed=0.072000m/h.</desc>
<speed>0.020000</speed>
</trkpt>
<trkpt lat="56.070313" lon="26.463415">
<ele>121.768616</ele>
<time>2010-08-29T12:28:15Z</time>
<desc>lat.=56.070313, lon.=26.463415, Alt.=121.768616m. Speed=0.288000m/h.</desc>
<speed>0.080000</speed>
</trkpt>
<trkpt lat="56.070313" lon="26.463415">
<ele>121.770569</ele>
<time>2010-08-29T12:28:16Z</time>
<desc>lat.=56.070313, lon.=26.463415, Alt.=121.770569m. Speed=0.036000m/h.</desc>
<speed>0.010000</speed>
</trkpt>
<trkpt lat="56.070313" lon="26.463415">
<ele>121.758850</ele>
<time>2010-08-29T12:28:17Z</time>
<desc>lat.=56.070313, lon.=26.463415, Alt.=121.758850m. Speed=0.720000m/h.</desc>
<speed>0.200000</speed>
</trkpt>
<trkpt lat="56.070313" lon="26.463417">
<ele>121.727600</ele>
<time>2010-08-29T12:28:18Z</time>
<desc>lat.=56.070313, lon.=26.463417, Alt.=121.727600m. Speed=2.016000m/h.</desc>
<speed>0.560000</speed>
</trkpt>
<trkpt lat="56.070309" lon="26.463425">
<ele>121.917053</ele>
<time>2010-08-29T12:28:19Z</time>
<desc>lat.=56.070309, lon.=26.463425, Alt.=121.917053m. Speed=2.628000m/h.</desc>
<speed>0.730000</speed>
</trkpt>
<trkpt lat="56.070313" lon="26.463432">
<ele>121.663147</ele>
<time>2010-08-29T12:28:20Z</time>
<desc>lat.=56.070313, lon.=26.463432, Alt.=121.663147m. Speed=1.584000m/h.</desc>
<speed>0.440000</speed>
</trkpt>
<trkpt lat="56.070313" lon="26.463440">
<ele>121.635803</ele>
<time>2010-08-29T12:28:21Z</time>
<desc>lat.=56.070313, lon.=26.463440, Alt.=121.635803m. Speed=2.052000m/h.</desc>
<speed>0.570000</speed>
</trkpt>
<trkpt lat="56.070313" lon="26.463448">
<ele>121.719788</ele>
<time>2010-08-29T12:28:22Z</time>
<desc>lat.=56.070313, lon.=26.463448, Alt.=121.719788m. Speed=1.512000m/h.</desc>
<speed>0.420000</speed>
</trkpt>
<trkpt lat="56.070309" lon="26.463446">
<ele>121.358459</ele>
<time>2010-08-29T12:28:23Z</time>
<desc>lat.=56.070309, lon.=26.463446, Alt.=121.358459m. Speed=0.936000m/h.</desc>
<speed>0.260000</speed>
</trkpt>
<trkpt lat="56.070305" lon="26.463446">
<ele>121.055725</ele>
<time>2010-08-29T12:28:24Z</time>
<desc>lat.=56.070305, lon.=26.463446, Alt.=121.055725m. Speed=0.324000m/h.</desc>
<speed>0.090000</speed>
</trkpt>
<trkpt lat="56.070301" lon="26.463448">
<ele>120.999084</ele>
<time>2010-08-29T12:28:25Z</time>
<desc>lat.=56.070301, lon.=26.463448, Alt.=120.999084m. Speed=0.288000m/h.</desc>
<speed>0.080000</speed>
</trkpt>
<trkpt lat="56.070297" lon="26.463448">
<ele>120.954163</ele>
<time>2010-08-29T12:28:26Z</time>
<desc>lat.=56.070297, lon.=26.463448, Alt.=120.954163m. Speed=0.324000m/h.</desc>
<speed>0.090000</speed>
</trkpt>
<trkpt lat="56.070297" lon="26.463449">
<ele>121.014709</ele>
<time>2010-08-29T12:28:27Z</time>
<desc>lat.=56.070297, lon.=26.463449, Alt.=121.014709m. Speed=0.432000m/h.</desc>
<speed>0.120000</speed>
</trkpt>
<trkpt lat="56.070301" lon="26.463449">
<ele>121.067444</ele>
<time>2010-08-29T12:28:28Z</time>
<desc>lat.=56.070301, lon.=26.463449, Alt.=121.067444m. Speed=0.288000m/h.</desc>
<speed>0.080000</speed>
</trkpt>
<trkpt lat="56.070301" lon="26.463449">
<ele>121.116272</ele>
<time>2010-08-29T12:28:29Z</time>
<desc>lat.=56.070301, lon.=26.463449, Alt.=121.116272m. Speed=0.108000m/h.</desc>
<speed>0.030000</speed>
</trkpt>
<trkpt lat="56.070301" lon="26.463449">
<ele>121.161194</ele>
<time>2010-08-29T12:28:30Z</time>
<desc>lat.=56.070301, lon.=26.463449, Alt.=121.161194m. Speed=0.036000m/h.</desc>
<speed>0.010000</speed>
</trkpt>
<trkpt lat="56.070301" lon="26.463449">
<ele>121.204163</ele>
<time>2010-08-29T12:28:31Z</time>
<desc>lat.=56.070301, lon.=26.463449, Alt.=121.204163m. Speed=0.072000m/h.</desc>
<speed>0.020000</speed>
</trkpt>
<trkpt lat="56.070301" lon="26.463449">
<ele>121.237366</ele>
<time>2010-08-29T12:28:32Z</time>
<desc>lat.=56.070301, lon.=26.463449, Alt.=121.237366m. Speed=0.108000m/h.</desc>
<speed>0.030000</speed>
</trkpt>
<trkpt lat="56.070301" lon="26.463449">
<ele>121.252991</ele>
<time>2010-08-29T12:28:33Z</time>
<desc>lat.=56.070301, lon.=26.463449, Alt.=121.252991m. Speed=0.000000m/h.</desc>
<speed>0.000000</speed>
</trkpt>
<trkpt lat="56.070301" lon="26.463449">
<ele>121.266663</ele>
<time>2010-08-29T12:28:34Z</time>
<desc>lat.=56.070301, lon.=26.463449, Alt.=121.266663m. Speed=0.108000m/h.</desc>
<speed>0.030000</speed>
</trkpt>
<trkpt lat="56.070301" lon="26.463449">
<ele>121.274475</ele>
<time>2010-08-29T12:28:35Z</time>
<desc>lat.=56.070301, lon.=26.463449, Alt.=121.274475m. Speed=0.144000m/h.</desc>
<speed>0.040000</speed>
</trkpt>
<trkpt lat="56.070301" lon="26.463451">
<ele>121.286194</ele>
<time>2010-08-29T12:28:36Z</time>
<desc>lat.=56.070301, lon.=26.463451, Alt.=121.286194m. Speed=0.180000m/h.</desc>
<speed>0.050000</speed>
</trkpt>
<trkpt lat="56.070301" lon="26.463451">
<ele>121.292053</ele>
<time>2010-08-29T12:28:37Z</time>
<desc>lat.=56.070301, lon.=26.463451, Alt.=121.292053m. Speed=0.108000m/h.</desc>
<speed>0.030000</speed>
</trkpt>
<trkpt lat="56.070301" lon="26.463451">
<ele>121.284241</ele>
<time>2010-08-29T12:28:38Z</time>
<desc>lat.=56.070301, lon.=26.463451, Alt.=121.284241m. Speed=0.216000m/h.</desc>
<speed>0.060000</speed>
</trkpt>
<trkpt lat="56.070297" lon="26.463453">
<ele>121.268616</ele>
<time>2010-08-29T12:28:39Z</time>
<desc>lat.=56.070297, lon.=26.463453, Alt.=121.268616m. Speed=0.252000m/h.</desc>
<speed>0.070000</speed>
</trkpt>
<trkpt lat="56.070297" lon="26.463453">
<ele>121.239319</ele>
<time>2010-08-29T12:28:40Z</time>
<desc>lat.=56.070297, lon.=26.463453, Alt.=121.239319m. Speed=0.360000m/h.</desc>
<speed>0.100000</speed>
</trkpt>
<trkpt lat="56.070297" lon="26.463453">
<ele>121.237366</ele>
<time>2010-08-29T12:28:41Z</time>
<desc>lat.=56.070297, lon.=26.463453, Alt.=121.237366m. Speed=0.180000m/h.</desc>
<speed>0.050000</speed>
</trkpt>
<trkpt lat="56.070297" lon="26.463453">
<ele>121.233459</ele>
<time>2010-08-29T12:28:42Z</time>
<desc>lat.=56.070297, lon.=26.463453, Alt.=121.233459m. Speed=0.144000m/h.</desc>
<speed>0.040000</speed>
</trkpt>
<trkpt lat="56.070297" lon="26.463455">
<ele>121.221741</ele>
<time>2010-08-29T12:28:43Z</time>
<desc>lat.=56.070297, lon.=26.463455, Alt.=121.221741m. Speed=2.052000m/h.</desc>
<speed>0.570000</speed>
</trkpt>
<trkpt lat="56.070293" lon="26.463470">
<ele>120.897522</ele>
<time>2010-08-29T12:28:44Z</time>
<desc>lat.=56.070293, lon.=26.463470, Alt.=120.897522m. Speed=3.528000m/h.</desc>
<speed>0.980000</speed>
</trkpt>
<trkpt lat="56.070290" lon="26.463488">
<ele>120.856506</ele>
<time>2010-08-29T12:28:45Z</time>
<desc>lat.=56.070290, lon.=26.463488, Alt.=120.856506m. Speed=3.492000m/h.</desc>
<speed>0.970000</speed>
</trkpt>
<trkpt lat="56.070293" lon="26.463507">
<ele>120.483459</ele>
<time>2010-08-29T12:28:46Z</time>
<desc>lat.=56.070293, lon.=26.463507, Alt.=120.483459m. Speed=3.492000m/h.</desc>
<speed>0.970000</speed>
</trkpt>
<trkpt lat="56.070293" lon="26.463533">
<ele>120.245178</ele>
<time>2010-08-29T12:28:47Z</time>
<desc>lat.=56.070293, lon.=26.463533, Alt.=120.245178m. Speed=3.708000m/h.</desc>
<speed>1.030000</speed>
</trkpt>
<trkpt lat="56.070301" lon="26.463552">
<ele>120.211975</ele>
<time>2010-08-29T12:28:48Z</time>
<desc>lat.=56.070301, lon.=26.463552, Alt.=120.211975m. Speed=4.392000m/h.</desc>
<speed>1.220000</speed>
</trkpt>
<trkpt lat="56.070301" lon="26.463570">
<ele>120.106506</ele>
<time>2010-08-29T12:28:49Z</time>
<desc>lat.=56.070301, lon.=26.463570, Alt.=120.106506m. Speed=3.060000m/h.</desc>
<speed>0.850000</speed>
</trkpt>
<trkpt lat="56.070305" lon="26.463602">
<ele>120.079163</ele>
<time>2010-08-29T12:28:50Z</time>
<desc>lat.=56.070305, lon.=26.463602, Alt.=120.079163m. Speed=4.968000m/h.</desc>
<speed>1.380000</speed>
</trkpt>
<trkpt lat="56.070309" lon="26.463615">
<ele>119.885803</ele>
<time>2010-08-29T12:28:51Z</time>
<desc>lat.=56.070309, lon.=26.463615, Alt.=119.885803m. Speed=5.184000m/h.</desc>
<speed>1.440000</speed>
</trkpt>
<trkpt lat="56.070305" lon="26.463655">
<ele>119.053772</ele>
<time>2010-08-29T12:28:52Z</time>
<desc>lat.=56.070305, lon.=26.463655, Alt.=119.053772m. Speed=4.968000m/h.</desc>
<speed>1.380000</speed>
</trkpt>
<trkpt lat="56.070301" lon="26.463675">
<ele>119.020569</ele>
<time>2010-08-29T12:28:53Z</time>
<desc>lat.=56.070301, lon.=26.463675, Alt.=119.020569m. Speed=2.880000m/h.</desc>
<speed>0.800000</speed>
</trkpt>
<trkpt lat="56.070301" lon="26.463697">
<ele>118.924866</ele>
<time>2010-08-29T12:28:54Z</time>
<desc>lat.=56.070301, lon.=26.463697, Alt.=118.924866m. Speed=3.348000m/h.</desc>
<speed>0.930000</speed>
</trkpt>
<trkpt lat="56.070301" lon="26.463724">
<ele>118.669006</ele>
<time>2010-08-29T12:28:55Z</time>
<desc>lat.=56.070301, lon.=26.463724, Alt.=118.669006m. Speed=4.716000m/h.</desc>
<speed>1.310000</speed>
</trkpt>
<trkpt lat="56.070301" lon="26.463749">
<ele>118.448303</ele>
<time>2010-08-29T12:28:56Z</time>
<desc>lat.=56.070301, lon.=26.463749, Alt.=118.448303m. Speed=4.788000m/h.</desc>
<speed>1.330000</speed>
</trkpt>
<trkpt lat="56.070305" lon="26.463772">
<ele>118.424866</ele>
<time>2010-08-29T12:28:57Z</time>
<desc>lat.=56.070305, lon.=26.463772, Alt.=118.424866m. Speed=4.212000m/h.</desc>
<speed>1.170000</speed>
</trkpt>
<trkpt lat="56.070309" lon="26.463789">
<ele>118.272522</ele>
<time>2010-08-29T12:28:58Z</time>
<desc>lat.=56.070309, lon.=26.463789, Alt.=118.272522m. Speed=4.176000m/h.</desc>
<speed>1.160000</speed>
</trkpt>
<trkpt lat="56.070301" lon="26.463812">
<ele>118.131897</ele>
<time>2010-08-29T12:28:59Z</time>
<desc>lat.=56.070301, lon.=26.463812, Alt.=118.131897m. Speed=4.896000m/h.</desc>
<speed>1.360000</speed>
</trkpt>
<trkpt lat="56.070297" lon="26.463835">
<ele>118.032288</ele>
<time>2010-08-29T12:29:00Z</time>
<desc>lat.=56.070297, lon.=26.463835, Alt.=118.032288m. Speed=5.904000m/h.</desc>
<speed>1.640000</speed>
</trkpt>
<trkpt lat="56.070293" lon="26.463858">
<ele>118.169006</ele>
<time>2010-08-29T12:29:01Z</time>
<desc>lat.=56.070293, lon.=26.463858, Alt.=118.169006m. Speed=3.960000m/h.</desc>
<speed>1.100000</speed>
</trkpt>
<trkpt lat="56.070301" lon="26.463882">
<ele>117.776428</ele>
<time>2010-08-29T12:29:02Z</time>
<desc>lat.=56.070301, lon.=26.463882, Alt.=117.776428m. Speed=8.532000m/h.</desc>
<speed>2.370000</speed>
</trkpt>
<trkpt lat="56.070313" lon="26.463915">
<ele>117.502991</ele>
<time>2010-08-29T12:29:03Z</time>
<desc>lat.=56.070313, lon.=26.463915, Alt.=117.502991m. Speed=6.120000m/h.</desc>
<speed>1.700000</speed>
</trkpt>
<trkpt lat="56.070316" lon="26.463942">
<ele>117.376038</ele>
<time>2010-08-29T12:29:04Z</time>
<desc>lat.=56.070316, lon.=26.463942, Alt.=117.376038m. Speed=4.896000m/h.</desc>
<speed>1.360000</speed>
</trkpt>
<trkpt lat="56.070316" lon="26.463961">
<ele>117.227600</ele>
<time>2010-08-29T12:29:05Z</time>
<desc>lat.=56.070316, lon.=26.463961, Alt.=117.227600m. Speed=5.400000m/h.</desc>
<speed>1.500000</speed>
</trkpt>
<trkpt lat="56.070313" lon="26.463984">
<ele>116.581116</ele>
<time>2010-08-29T12:29:06Z</time>
<desc>lat.=56.070313, lon.=26.463984, Alt.=116.581116m. Speed=5.544000m/h.</desc>
<speed>1.540000</speed>
</trkpt>
<trkpt lat="56.070309" lon="26.464010">
<ele>116.583069</ele>
<time>2010-08-29T12:29:07Z</time>
<desc>lat.=56.070309, lon.=26.464010, Alt.=116.583069m. Speed=5.796000m/h.</desc>
<speed>1.610000</speed>
</trkpt>
<trkpt lat="56.070301" lon="26.464025">
<ele>116.063538</ele>
<time>2010-08-29T12:29:08Z</time>
<desc>lat.=56.070301, lon.=26.464025, Alt.=116.063538m. Speed=3.960000m/h.</desc>
<speed>1.100000</speed>
</trkpt>
<trkpt lat="56.070290" lon="26.464035">
<ele>115.032288</ele>
<time>2010-08-29T12:29:09Z</time>
<desc>lat.=56.070290, lon.=26.464035, Alt.=115.032288m. Speed=3.276000m/h.</desc>
<speed>0.910000</speed>
</trkpt>
<trkpt lat="56.070278" lon="26.464037">
<ele>114.145569</ele>
<time>2010-08-29T12:29:10Z</time>
<desc>lat.=56.070278, lon.=26.464037, Alt.=114.145569m. Speed=1.296000m/h.</desc>
<speed>0.360000</speed>
</trkpt>
<trkpt lat="56.070274" lon="26.464041">
<ele>113.629944</ele>
<time>2010-08-29T12:29:11Z</time>
<desc>lat.=56.070274, lon.=26.464041, Alt.=113.629944m. Speed=1.152000m/h.</desc>
<speed>0.320000</speed>
</trkpt>
<trkpt lat="56.070271" lon="26.464031">
<ele>112.670959</ele>
<time>2010-08-29T12:29:12Z</time>
<desc>lat.=56.070271, lon.=26.464031, Alt.=112.670959m. Speed=0.684000m/h.</desc>
<speed>0.190000</speed>
</trkpt>
<trkpt lat="56.070271" lon="26.464056">
<ele>111.461975</ele>
<time>2010-08-29T12:29:13Z</time>
<desc>lat.=56.070271, lon.=26.464056, Alt.=111.461975m. Speed=3.168000m/h.</desc>
<speed>0.880000</speed>
</trkpt>
<trkpt lat="56.070274" lon="26.464062">
<ele>110.420959</ele>
<time>2010-08-29T12:29:14Z</time>
<desc>lat.=56.070274, lon.=26.464062, Alt.=110.420959m. Speed=3.852000m/h.</desc>
<speed>1.070000</speed>
</trkpt>
<trkpt lat="56.070274" lon="26.464067">
<ele>110.104553</ele>
<time>2010-08-29T12:29:15Z</time>
<desc>lat.=56.070274, lon.=26.464067, Alt.=110.104553m. Speed=3.024000m/h.</desc>
<speed>0.840000</speed>
</trkpt>
<trkpt lat="56.070278" lon="26.464083">
<ele>110.319397</ele>
<time>2010-08-29T12:29:16Z</time>
<desc>lat.=56.070278, lon.=26.464083, Alt.=110.319397m. Speed=3.132000m/h.</desc>
<speed>0.870000</speed>
</trkpt>
<trkpt lat="56.070282" lon="26.464096">
<ele>110.311584</ele>
<time>2010-08-29T12:29:17Z</time>
<desc>lat.=56.070282, lon.=26.464096, Alt.=110.311584m. Speed=3.348000m/h.</desc>
<speed>0.930000</speed>
</trkpt>
<trkpt lat="56.070282" lon="26.464104">
<ele>110.053772</ele>
<time>2010-08-29T12:29:18Z</time>
<desc>lat.=56.070282, lon.=26.464104, Alt.=110.053772m. Speed=1.188000m/h.</desc>
<speed>0.330000</speed>
</trkpt>
<trkpt lat="56.070286" lon="26.464100">
<ele>110.174866</ele>
<time>2010-08-29T12:29:19Z</time>
<desc>lat.=56.070286, lon.=26.464100, Alt.=110.174866m. Speed=1.260000m/h.</desc>
<speed>0.350000</speed>
</trkpt>
<trkpt lat="56.070282" lon="26.464092">
<ele>109.983459</ele>
<time>2010-08-29T12:29:20Z</time>
<desc>lat.=56.070282, lon.=26.464092, Alt.=109.983459m. Speed=0.900000m/h.</desc>
<speed>0.250000</speed>
</trkpt>
<trkpt lat="56.070274" lon="26.464090">
<ele>110.057678</ele>
<time>2010-08-29T12:29:21Z</time>
<desc>lat.=56.070274, lon.=26.464090, Alt.=110.057678m. Speed=0.540000m/h.</desc>
<speed>0.150000</speed>
</trkpt>
<trkpt lat="56.070278" lon="26.464088">
<ele>109.879944</ele>
<time>2010-08-29T12:29:22Z</time>
<desc>lat.=56.070278, lon.=26.464088, Alt.=109.879944m. Speed=0.648000m/h.</desc>
<speed>0.180000</speed>
</trkpt>
<trkpt lat="56.070274" lon="26.464085">
<ele>109.821350</ele>
<time>2010-08-29T12:29:23Z</time>
<desc>lat.=56.070274, lon.=26.464085, Alt.=109.821350m. Speed=0.216000m/h.</desc>
<speed>0.060000</speed>
</trkpt>
<trkpt lat="56.070278" lon="26.464085">
<ele>109.723694</ele>
<time>2010-08-29T12:29:24Z</time>
<desc>lat.=56.070278, lon.=26.464085, Alt.=109.723694m. Speed=0.216000m/h.</desc>
<speed>0.060000</speed>
</trkpt>
<trkpt lat="56.070278" lon="26.464085">
<ele>109.635803</ele>
<time>2010-08-29T12:29:25Z</time>
<desc>lat.=56.070278, lon.=26.464085, Alt.=109.635803m. Speed=0.216000m/h.</desc>
<speed>0.060000</speed>
</trkpt>
<trkpt lat="56.070278" lon="26.464085">
<ele>109.549866</ele>
<time>2010-08-29T12:29:26Z</time>
<desc>lat.=56.070278, lon.=26.464085, Alt.=109.549866m. Speed=0.216000m/h.</desc>
<speed>0.060000</speed>
</trkpt>
<trkpt lat="56.070278" lon="26.464083">
<ele>109.458069</ele>
<time>2010-08-29T12:29:27Z</time>
<desc>lat.=56.070278, lon.=26.464083, Alt.=109.458069m. Speed=0.036000m/h.</desc>
<speed>0.010000</speed>
</trkpt>
<trkpt lat="56.070278" lon="26.464083">
<ele>109.364319</ele>
<time>2010-08-29T12:29:28Z</time>
<desc>lat.=56.070278, lon.=26.464083, Alt.=109.364319m. Speed=0.108000m/h.</desc>
<speed>0.030000</speed>
</trkpt>
<trkpt lat="56.070278" lon="26.464083">
<ele>109.268616</ele>
<time>2010-08-29T12:29:29Z</time>
<desc>lat.=56.070278, lon.=26.464083, Alt.=109.268616m. Speed=0.108000m/h.</desc>
<speed>0.030000</speed>
</trkpt>
<trkpt lat="56.070278" lon="26.464083">
<ele>109.174866</ele>
<time>2010-08-29T12:29:30Z</time>
<desc>lat.=56.070278, lon.=26.464083, Alt.=109.174866m. Speed=0.108000m/h.</desc>
<speed>0.030000</speed>
</trkpt>
<trkpt lat="56.070278" lon="26.464083">
<ele>109.083069</ele>
<time>2010-08-29T12:29:31Z</time>
<desc>lat.=56.070278, lon.=26.464083, Alt.=109.083069m. Speed=0.180000m/h.</desc>
<speed>0.050000</speed>
</trkpt>
<trkpt lat="56.070274" lon="26.464081">
<ele>108.987366</ele>
<time>2010-08-29T12:29:32Z</time>
<desc>lat.=56.070274, lon.=26.464081, Alt.=108.987366m. Speed=0.360000m/h.</desc>
<speed>0.100000</speed>
</trkpt>
<trkpt lat="56.070274" lon="26.464083">
<ele>108.903381</ele>
<time>2010-08-29T12:29:33Z</time>
<desc>lat.=56.070274, lon.=26.464083, Alt.=108.903381m. Speed=0.360000m/h.</desc>
<speed>0.100000</speed>
</trkpt>
<trkpt lat="56.070274" lon="26.464081">
<ele>108.821350</ele>
<time>2010-08-29T12:29:34Z</time>
<desc>lat.=56.070274, lon.=26.464081, Alt.=108.821350m. Speed=0.432000m/h.</desc>
<speed>0.120000</speed>
</trkpt>
<trkpt lat="56.070274" lon="26.464081">
<ele>108.760803</ele>
<time>2010-08-29T12:29:35Z</time>
<desc>lat.=56.070274, lon.=26.464081, Alt.=108.760803m. Speed=0.360000m/h.</desc>
<speed>0.100000</speed>
</trkpt>
<trkpt lat="56.070271" lon="26.464081">
<ele>108.719788</ele>
<time>2010-08-29T12:29:36Z</time>
<desc>lat.=56.070271, lon.=26.464081, Alt.=108.719788m. Speed=0.684000m/h.</desc>
<speed>0.190000</speed>
</trkpt>
<trkpt lat="56.070271" lon="26.464079">
<ele>108.706116</ele>
<time>2010-08-29T12:29:37Z</time>
<desc>lat.=56.070271, lon.=26.464079, Alt.=108.706116m. Speed=0.216000m/h.</desc>
<speed>0.060000</speed>
</trkpt>
<trkpt lat="56.070271" lon="26.464077">
<ele>108.700256</ele>
<time>2010-08-29T12:29:38Z</time>
<desc>lat.=56.070271, lon.=26.464077, Alt.=108.700256m. Speed=0.036000m/h.</desc>
<speed>0.010000</speed>
</trkpt>
<trkpt lat="56.070271" lon="26.464077">
<ele>108.696350</ele>
<time>2010-08-29T12:29:39Z</time>
<desc>lat.=56.070271, lon.=26.464077, Alt.=108.696350m. Speed=0.000000m/h.</desc>
<speed>0.000000</speed>
</trkpt>
<trkpt lat="56.070271" lon="26.464077">
<ele>108.690491</ele>
<time>2010-08-29T12:29:40Z</time>
<desc>lat.=56.070271, lon.=26.464077, Alt.=108.690491m. Speed=0.000000m/h.</desc>
<speed>0.000000</speed>
</trkpt>
<trkpt lat="56.070271" lon="26.464077">
<ele>108.690491</ele>
<time>2010-08-29T12:29:41Z</time>
<desc>lat.=56.070271, lon.=26.464077, Alt.=108.690491m. Speed=0.000000m/h.</desc>
<speed>0.000000</speed>
</trkpt>
<trkpt lat="56.070271" lon="26.464077">
<ele>108.686584</ele>
<time>2010-08-29T12:29:42Z</time>
<desc>lat.=56.070271, lon.=26.464077, Alt.=108.686584m. Speed=0.000000m/h.</desc>
<speed>0.000000</speed>
</trkpt>
<trkpt lat="56.070271" lon="26.464077">
<ele>108.684631</ele>
<time>2010-08-29T12:29:43Z</time>
<desc>lat.=56.070271, lon.=26.464077, Alt.=108.684631m. Speed=0.000000m/h.</desc>
<speed>0.000000</speed>
</trkpt>
<trkpt lat="56.070271" lon="26.464077">
<ele>108.680725</ele>
<time>2010-08-29T12:29:44Z</time>
<desc>lat.=56.070271, lon.=26.464077, Alt.=108.680725m. Speed=0.036000m/h.</desc>
<speed>0.010000</speed>
</trkpt>
<trkpt lat="56.070271" lon="26.464077">
<ele>108.678772</ele>
<time>2010-08-29T12:29:45Z</time>
<desc>lat.=56.070271, lon.=26.464077, Alt.=108.678772m. Speed=0.000000m/h.</desc>
<speed>0.000000</speed>
</trkpt>
<trkpt lat="56.070271" lon="26.464077">
<ele>108.676819</ele>
<time>2010-08-29T12:29:46Z</time>
<desc>lat.=56.070271, lon.=26.464077, Alt.=108.676819m. Speed=0.036000m/h.</desc>
<speed>0.010000</speed>
</trkpt>
<trkpt lat="56.070271" lon="26.464077">
<ele>108.670959</ele>
<time>2010-08-29T12:29:47Z</time>
<desc>lat.=56.070271, lon.=26.464077, Alt.=108.670959m. Speed=0.036000m/h.</desc>
<speed>0.010000</speed>
</trkpt>
<trkpt lat="56.070271" lon="26.464077">
<ele>108.670959</ele>
<time>2010-08-29T12:29:48Z</time>
<desc>lat.=56.070271, lon.=26.464077, Alt.=108.670959m. Speed=0.000000m/h.</desc>
<speed>0.000000</speed>
</trkpt>
<trkpt lat="56.070271" lon="26.464077">
<ele>108.669006</ele>
<time>2010-08-29T12:29:49Z</time>
<desc>lat.=56.070271, lon.=26.464077, Alt.=108.669006m. Speed=0.000000m/h.</desc>
<speed>0.000000</speed>
</trkpt>
<trkpt lat="56.070271" lon="26.464077">
<ele>108.669006</ele>
<time>2010-08-29T12:29:50Z</time>
<desc>lat.=56.070271, lon.=26.464077, Alt.=108.669006m. Speed=0.036000m/h.</desc>
<speed>0.010000</speed>
</trkpt>
<trkpt lat="56.070271" lon="26.464077">
<ele>108.667053</ele>
<time>2010-08-29T12:29:51Z</time>
<desc>lat.=56.070271, lon.=26.464077, Alt.=108.667053m. Speed=0.036000m/h.</desc>
<speed>0.010000</speed>
</trkpt>
<trkpt lat="56.070271" lon="26.464077">
<ele>108.667053</ele>
<time>2010-08-29T12:29:52Z</time>
<desc>lat.=56.070271, lon.=26.464077, Alt.=108.667053m. Speed=0.180000m/h.</desc>
<speed>0.050000</speed>
</trkpt>
<trkpt lat="56.070271" lon="26.464077">
<ele>108.667053</ele>
<time>2010-08-29T12:29:53Z</time>
<desc>lat.=56.070271, lon.=26.464077, Alt.=108.667053m. Speed=0.000000m/h.</desc>
<speed>0.000000</speed>
</trkpt>
<trkpt lat="56.070271" lon="26.464077">
<ele>108.669006</ele>
<time>2010-08-29T12:29:54Z</time>
<desc>lat.=56.070271, lon.=26.464077, Alt.=108.669006m. Speed=0.000000m/h.</desc>
<speed>0.000000</speed>
</trkpt>
<trkpt lat="56.070271" lon="26.464077">
<ele>108.669006</ele>
<time>2010-08-29T12:29:55Z</time>
<desc>lat.=56.070271, lon.=26.464077, Alt.=108.669006m. Speed=0.000000m/h.</desc>
<speed>0.000000</speed>
</trkpt>
<trkpt lat="56.070271" lon="26.464077">
<ele>108.669006</ele>
<time>2010-08-29T12:29:56Z</time>
<desc>lat.=56.070271, lon.=26.464077, Alt.=108.669006m. Speed=0.036000m/h.</desc>
<speed>0.010000</speed>
</trkpt>
<trkpt lat="56.070271" lon="26.464077">
<ele>108.667053</ele>
<time>2010-08-29T12:29:57Z</time>
<desc>lat.=56.070271, lon.=26.464077, Alt.=108.667053m. Speed=0.000000m/h.</desc>
<speed>0.000000</speed>
</trkpt>
<trkpt lat="56.070271" lon="26.464077">
<ele>108.669006</ele>
<time>2010-08-29T12:29:58Z</time>
<desc>lat.=56.070271, lon.=26.464077, Alt.=108.669006m. Speed=0.000000m/h.</desc>
<speed>0.000000</speed>
</trkpt>
<trkpt lat="56.070271" lon="26.464077">
<ele>108.669006</ele>
<time>2010-08-29T12:29:59Z</time>
<desc>lat.=56.070271, lon.=26.464077, Alt.=108.669006m. Speed=0.000000m/h.</desc>
<speed>0.000000</speed>
</trkpt>
<trkpt lat="56.070271" lon="26.464077">
<ele>108.669006</ele>
<time>2010-08-29T12:30:00Z</time>
<desc>lat.=56.070271, lon.=26.464077, Alt.=108.669006m. Speed=0.000000m/h.</desc>
<speed>0.000000</speed>
</trkpt>
<trkpt lat="56.070271" lon="26.464077">
<ele>108.670959</ele>
<time>2010-08-29T12:30:01Z</time>
<desc>lat.=56.070271, lon.=26.464077, Alt.=108.670959m. Speed=0.036000m/h.</desc>
<speed>0.010000</speed>
</trkpt>
<trkpt lat="56.070271" lon="26.464077">
<ele>108.672913</ele>
<time>2010-08-29T12:30:02Z</time>
<desc>lat.=56.070271, lon.=26.464077, Alt.=108.672913m. Speed=0.000000m/h.</desc>
<speed>0.000000</speed>
</trkpt>
<trkpt lat="56.070274" lon="26.464077">
<ele>108.672913</ele>
<time>2010-08-29T12:30:03Z</time>
<desc>lat.=56.070274, lon.=26.464077, Alt.=108.672913m. Speed=0.000000m/h.</desc>
<speed>0.000000</speed>
</trkpt>
<trkpt lat="56.070274" lon="26.464077">
<ele>108.672913</ele>
<time>2010-08-29T12:30:04Z</time>
<desc>lat.=56.070274, lon.=26.464077, Alt.=108.672913m. Speed=0.036000m/h.</desc>
<speed>0.010000</speed>
</trkpt>
<trkpt lat="56.070274" lon="26.464077">
<ele>108.674866</ele>
<time>2010-08-29T12:30:05Z</time>
<desc>lat.=56.070274, lon.=26.464077, Alt.=108.674866m. Speed=0.000000m/h.</desc>
<speed>0.000000</speed>
</trkpt>
<trkpt lat="56.070274" lon="26.464077">
<ele>108.676819</ele>
<time>2010-08-29T12:30:06Z</time>
<desc>lat.=56.070274, lon.=26.464077, Alt.=108.676819m. Speed=0.000000m/h.</desc>
<speed>0.000000</speed>
</trkpt>
<trkpt lat="56.070274" lon="26.464077">
<ele>108.676819</ele>
<time>2010-08-29T12:30:07Z</time>
<desc>lat.=56.070274, lon.=26.464077, Alt.=108.676819m. Speed=0.000000m/h.</desc>
<speed>0.000000</speed>
</trkpt>
<trkpt lat="56.070274" lon="26.464077">
<ele>108.676819</ele>
<time>2010-08-29T12:30:08Z</time>
<desc>lat.=56.070274, lon.=26.464077, Alt.=108.676819m. Speed=0.000000m/h.</desc>
<speed>0.000000</speed>
</trkpt>
<trkpt lat="56.070274" lon="26.464077">
<ele>108.676819</ele>
<time>2010-08-29T12:30:09Z</time>
<desc>lat.=56.070274, lon.=26.464077, Alt.=108.676819m. Speed=0.000000m/h.</desc>
<speed>0.000000</speed>
</trkpt>
<trkpt lat="56.070274" lon="26.464077">
<ele>108.678772</ele>
<time>2010-08-29T12:30:10Z</time>
<desc>lat.=56.070274, lon.=26.464077, Alt.=108.678772m. Speed=0.072000m/h.</desc>
<speed>0.020000</speed>
</trkpt>
<trkpt lat="56.070274" lon="26.464077">
<ele>108.680725</ele>
<time>2010-08-29T12:30:11Z</time>
<desc>lat.=56.070274, lon.=26.464077, Alt.=108.680725m. Speed=0.072000m/h.</desc>
<speed>0.020000</speed>
</trkpt>
<trkpt lat="56.070274" lon="26.464077">
<ele>108.680725</ele>
<time>2010-08-29T12:30:12Z</time>
<desc>lat.=56.070274, lon.=26.464077, Alt.=108.680725m. Speed=0.072000m/h.</desc>
<speed>0.020000</speed>
</trkpt>
<trkpt lat="56.070274" lon="26.464077">
<ele>108.680725</ele>
<time>2010-08-29T12:30:13Z</time>
<desc>lat.=56.070274, lon.=26.464077, Alt.=108.680725m. Speed=0.216000m/h.</desc>
<speed>0.060000</speed>
</trkpt>
<trkpt lat="56.070274" lon="26.464077">
<ele>108.680725</ele>
<time>2010-08-29T12:30:14Z</time>
<desc>lat.=56.070274, lon.=26.464077, Alt.=108.680725m. Speed=0.036000m/h.</desc>
<speed>0.010000</speed>
</trkpt>
<trkpt lat="56.070274" lon="26.464077">
<ele>108.680725</ele>
<time>2010-08-29T12:30:15Z</time>
<desc>lat.=56.070274, lon.=26.464077, Alt.=108.680725m. Speed=0.036000m/h.</desc>
<speed>0.010000</speed>
</trkpt>
<trkpt lat="56.070274" lon="26.464077">
<ele>108.684631</ele>
<time>2010-08-29T12:30:16Z</time>
<desc>lat.=56.070274, lon.=26.464077, Alt.=108.684631m. Speed=0.252000m/h.</desc>
<speed>0.070000</speed>
</trkpt>
<trkpt lat="56.070271" lon="26.464077">
<ele>108.684631</ele>
<time>2010-08-29T12:30:17Z</time>
<desc>lat.=56.070271, lon.=26.464077, Alt.=108.684631m. Speed=0.288000m/h.</desc>
<speed>0.080000</speed>
</trkpt>
<trkpt lat="56.070271" lon="26.464077">
<ele>108.686584</ele>
<time>2010-08-29T12:30:18Z</time>
<desc>lat.=56.070271, lon.=26.464077, Alt.=108.686584m. Speed=0.072000m/h.</desc>
<speed>0.020000</speed>
</trkpt>
<trkpt lat="56.070271" lon="26.464077">
<ele>108.698303</ele>
<time>2010-08-29T12:30:19Z</time>
<desc>lat.=56.070271, lon.=26.464077, Alt.=108.698303m. Speed=0.036000m/h.</desc>
<speed>0.010000</speed>
</trkpt>
<trkpt lat="56.070271" lon="26.464077">
<ele>108.700256</ele>
<time>2010-08-29T12:30:20Z</time>
<desc>lat.=56.070271, lon.=26.464077, Alt.=108.700256m. Speed=0.072000m/h.</desc>
<speed>0.020000</speed>
</trkpt>
<trkpt lat="56.070271" lon="26.464077">
<ele>108.700256</ele>
<time>2010-08-29T12:30:21Z</time>
<desc>lat.=56.070271, lon.=26.464077, Alt.=108.700256m. Speed=0.144000m/h.</desc>
<speed>0.040000</speed>
</trkpt>
<trkpt lat="56.070271" lon="26.464077">
<ele>108.702209</ele>
<time>2010-08-29T12:30:22Z</time>
<desc>lat.=56.070271, lon.=26.464077, Alt.=108.702209m. Speed=0.036000m/h.</desc>
<speed>0.010000</speed>
</trkpt>
<trkpt lat="56.070271" lon="26.464077">
<ele>108.704163</ele>
<time>2010-08-29T12:30:23Z</time>
<desc>lat.=56.070271, lon.=26.464077, Alt.=108.704163m. Speed=0.324000m/h.</desc>
<speed>0.090000</speed>
</trkpt>
<trkpt lat="56.070271" lon="26.464077">
<ele>108.710022</ele>
<time>2010-08-29T12:30:24Z</time>
<desc>lat.=56.070271, lon.=26.464077, Alt.=108.710022m. Speed=0.144000m/h.</desc>
<speed>0.040000</speed>
</trkpt>
<trkpt lat="56.070271" lon="26.464077">
<ele>108.774475</ele>
<time>2010-08-29T12:30:25Z</time>
<desc>lat.=56.070271, lon.=26.464077, Alt.=108.774475m. Speed=0.216000m/h.</desc>
<speed>0.060000</speed>
</trkpt>
<trkpt lat="56.070271" lon="26.464077">
<ele>108.790100</ele>
<time>2010-08-29T12:30:26Z</time>
<desc>lat.=56.070271, lon.=26.464077, Alt.=108.790100m. Speed=0.108000m/h.</desc>
<speed>0.030000</speed>
</trkpt>
<trkpt lat="56.070271" lon="26.464077">
<ele>108.797913</ele>
<time>2010-08-29T12:30:27Z</time>
<desc>lat.=56.070271, lon.=26.464077, Alt.=108.797913m. Speed=0.036000m/h.</desc>
<speed>0.010000</speed>
</trkpt>
<trkpt lat="56.070271" lon="26.464077">
<ele>108.794006</ele>
<time>2010-08-29T12:30:28Z</time>
<desc>lat.=56.070271, lon.=26.464077, Alt.=108.794006m. Speed=0.324000m/h.</desc>
<speed>0.090000</speed>
</trkpt>
<trkpt lat="56.070271" lon="26.464077">
<ele>108.788147</ele>
<time>2010-08-29T12:30:29Z</time>
<desc>lat.=56.070271, lon.=26.464077, Alt.=108.788147m. Speed=0.468000m/h.</desc>
<speed>0.130000</speed>
</trkpt>
<trkpt lat="56.070271" lon="26.464077">
<ele>108.700256</ele>
<time>2010-08-29T12:30:30Z</time>
<desc>lat.=56.070271, lon.=26.464077, Alt.=108.700256m. Speed=1.260000m/h.</desc>
<speed>0.350000</speed>
</trkpt>
<trkpt lat="56.070274" lon="26.464075">
<ele>108.577209</ele>
<time>2010-08-29T12:30:31Z</time>
<desc>lat.=56.070274, lon.=26.464075, Alt.=108.577209m. Speed=1.440000m/h.</desc>
<speed>0.400000</speed>
</trkpt>
<trkpt lat="56.070274" lon="26.464069">
<ele>108.504944</ele>
<time>2010-08-29T12:30:32Z</time>
<desc>lat.=56.070274, lon.=26.464069, Alt.=108.504944m. Speed=0.468000m/h.</desc>
<speed>0.130000</speed>
</trkpt>
<trkpt lat="56.070271" lon="26.464067">
<ele>108.280334</ele>
<time>2010-08-29T12:30:33Z</time>
<desc>lat.=56.070271, lon.=26.464067, Alt.=108.280334m. Speed=0.144000m/h.</desc>
<speed>0.040000</speed>
</trkpt>
<trkpt lat="56.070271" lon="26.464069">
<ele>108.200256</ele>
<time>2010-08-29T12:30:34Z</time>
<desc>lat.=56.070271, lon.=26.464069, Alt.=108.200256m. Speed=0.216000m/h.</desc>
<speed>0.060000</speed>
</trkpt>
<trkpt lat="56.070271" lon="26.464069">
<ele>108.075256</ele>
<time>2010-08-29T12:30:35Z</time>
<desc>lat.=56.070271, lon.=26.464069, Alt.=108.075256m. Speed=0.216000m/h.</desc>
<speed>0.060000</speed>
</trkpt>
<trkpt lat="56.070271" lon="26.464069">
<ele>108.071350</ele>
<time>2010-08-29T12:30:36Z</time>
<desc>lat.=56.070271, lon.=26.464069, Alt.=108.071350m. Speed=0.612000m/h.</desc>
<speed>0.170000</speed>
</trkpt>
<trkpt lat="56.070271" lon="26.464071">
<ele>108.063538</ele>
<time>2010-08-29T12:30:37Z</time>
<desc>lat.=56.070271, lon.=26.464071, Alt.=108.063538m. Speed=1.512000m/h.</desc>
<speed>0.420000</speed>
</trkpt>
<trkpt lat="56.070274" lon="26.464064">
<ele>107.926819</ele>
<time>2010-08-29T12:30:38Z</time>
<desc>lat.=56.070274, lon.=26.464064, Alt.=107.926819m. Speed=1.836000m/h.</desc>
<speed>0.510000</speed>
</trkpt>
<trkpt lat="56.070282" lon="26.464056">
<ele>107.965881</ele>
<time>2010-08-29T12:30:39Z</time>
<desc>lat.=56.070282, lon.=26.464056, Alt.=107.965881m. Speed=0.972000m/h.</desc>
<speed>0.270000</speed>
</trkpt>
<trkpt lat="56.070282" lon="26.464054">
<ele>107.858459</ele>
<time>2010-08-29T12:30:40Z</time>
<desc>lat.=56.070282, lon.=26.464054, Alt.=107.858459m. Speed=0.612000m/h.</desc>
<speed>0.170000</speed>
</trkpt>
<trkpt lat="56.070282" lon="26.464054">
<ele>107.872131</ele>
<time>2010-08-29T12:30:41Z</time>
<desc>lat.=56.070282, lon.=26.464054, Alt.=107.872131m. Speed=0.144000m/h.</desc>
<speed>0.040000</speed>
</trkpt>
<trkpt lat="56.070282" lon="26.464050">
<ele>107.844788</ele>
<time>2010-08-29T12:30:42Z</time>
<desc>lat.=56.070282, lon.=26.464050, Alt.=107.844788m. Speed=0.144000m/h.</desc>
<speed>0.040000</speed>
</trkpt>
<trkpt lat="56.070282" lon="26.464052">
<ele>107.825256</ele>
<time>2010-08-29T12:30:43Z</time>
<desc>lat.=56.070282, lon.=26.464052, Alt.=107.825256m. Speed=0.396000m/h.</desc>
<speed>0.110000</speed>
</trkpt>
<trkpt lat="56.070282" lon="26.464050">
<ele>107.813538</ele>
<time>2010-08-29T12:30:44Z</time>
<desc>lat.=56.070282, lon.=26.464050, Alt.=107.813538m. Speed=0.252000m/h.</desc>
<speed>0.070000</speed>
</trkpt>
<trkpt lat="56.070282" lon="26.464052">
<ele>107.794006</ele>
<time>2010-08-29T12:30:45Z</time>
<desc>lat.=56.070282, lon.=26.464052, Alt.=107.794006m. Speed=0.108000m/h.</desc>
<speed>0.030000</speed>
</trkpt>
<trkpt lat="56.070282" lon="26.464050">
<ele>107.790100</ele>
<time>2010-08-29T12:30:46Z</time>
<desc>lat.=56.070282, lon.=26.464050, Alt.=107.790100m. Speed=0.036000m/h.</desc>
<speed>0.010000</speed>
</trkpt>
<trkpt lat="56.070282" lon="26.464050">
<ele>107.766663</ele>
<time>2010-08-29T12:30:47Z</time>
<desc>lat.=56.070282, lon.=26.464050, Alt.=107.766663m. Speed=1.836000m/h.</desc>
<speed>0.510000</speed>
</trkpt>
<trkpt lat="56.070282" lon="26.464048">
<ele>107.596741</ele>
<time>2010-08-29T12:30:48Z</time>
<desc>lat.=56.070282, lon.=26.464048, Alt.=107.596741m. Speed=0.504000m/h.</desc>
<speed>0.140000</speed>
</trkpt>
<trkpt lat="56.070282" lon="26.464052">
<ele>107.510803</ele>
<time>2010-08-29T12:30:49Z</time>
<desc>lat.=56.070282, lon.=26.464052, Alt.=107.510803m. Speed=0.432000m/h.</desc>
<speed>0.120000</speed>
</trkpt>
<trkpt lat="56.070282" lon="26.464056">
<ele>107.374084</ele>
<time>2010-08-29T12:30:50Z</time>
<desc>lat.=56.070282, lon.=26.464056, Alt.=107.374084m. Speed=0.216000m/h.</desc>
<speed>0.060000</speed>
</trkpt>
<trkpt lat="56.070286" lon="26.464060">
<ele>107.247131</ele>
<time>2010-08-29T12:30:51Z</time>
<desc>lat.=56.070286, lon.=26.464060, Alt.=107.247131m. Speed=0.288000m/h.</desc>
<speed>0.080000</speed>
</trkpt>
<trkpt lat="56.070286" lon="26.464062">
<ele>107.239319</ele>
<time>2010-08-29T12:30:52Z</time>
<desc>lat.=56.070286, lon.=26.464062, Alt.=107.239319m. Speed=3.960000m/h.</desc>
<speed>1.100000</speed>
</trkpt>
<trkpt lat="56.070282" lon="26.464056">
<ele>106.963928</ele>
<time>2010-08-29T12:30:53Z</time>
<desc>lat.=56.070282, lon.=26.464056, Alt.=106.963928m. Speed=0.540000m/h.</desc>
<speed>0.150000</speed>
</trkpt>
<trkpt lat="56.070282" lon="26.464052">
<ele>106.764709</ele>
<time>2010-08-29T12:30:54Z</time>
<desc>lat.=56.070282, lon.=26.464052, Alt.=106.764709m. Speed=0.756000m/h.</desc>
<speed>0.210000</speed>
</trkpt>
<trkpt lat="56.070278" lon="26.464045">
<ele>106.772522</ele>
<time>2010-08-29T12:30:55Z</time>
<desc>lat.=56.070278, lon.=26.464045, Alt.=106.772522m. Speed=2.988000m/h.</desc>
<speed>0.830000</speed>
</trkpt>
<trkpt lat="56.070278" lon="26.464031">
<ele>106.823303</ele>
<time>2010-08-29T12:30:56Z</time>
<desc>lat.=56.070278, lon.=26.464031, Alt.=106.823303m. Speed=3.024000m/h.</desc>
<speed>0.840000</speed>
</trkpt>
<trkpt lat="56.070274" lon="26.464024">
<ele>106.842834</ele>
<time>2010-08-29T12:30:57Z</time>
<desc>lat.=56.070274, lon.=26.464024, Alt.=106.842834m. Speed=0.972000m/h.</desc>
<speed>0.270000</speed>
</trkpt>
<trkpt lat="56.070267" lon="26.464008">
<ele>106.794006</ele>
<time>2010-08-29T12:30:58Z</time>
<desc>lat.=56.070267, lon.=26.464008, Alt.=106.794006m. Speed=2.700000m/h.</desc>
<speed>0.750000</speed>
</trkpt>
<trkpt lat="56.070267" lon="26.463993">
<ele>106.752991</ele>
<time>2010-08-29T12:30:59Z</time>
<desc>lat.=56.070267, lon.=26.463993, Alt.=106.752991m. Speed=3.096000m/h.</desc>
<speed>0.860000</speed>
</trkpt>
<trkpt lat="56.070278" lon="26.463942">
<ele>106.299866</ele>
<time>2010-08-29T12:31:00Z</time>
<desc>lat.=56.070278, lon.=26.463942, Alt.=106.299866m. Speed=5.832000m/h.</desc>
<speed>1.620000</speed>
</trkpt>
<trkpt lat="56.070282" lon="26.463919">
<ele>106.163147</ele>
<time>2010-08-29T12:31:01Z</time>
<desc>lat.=56.070282, lon.=26.463919, Alt.=106.163147m. Speed=5.652000m/h.</desc>
<speed>1.570000</speed>
</trkpt>
<trkpt lat="56.070286" lon="26.463886">
<ele>105.985413</ele>
<time>2010-08-29T12:31:02Z</time>
<desc>lat.=56.070286, lon.=26.463886, Alt.=105.985413m. Speed=7.740000m/h.</desc>
<speed>2.150000</speed>
</trkpt>
<trkpt lat="56.070290" lon="26.463865">
<ele>105.631897</ele>
<time>2010-08-29T12:31:03Z</time>
<desc>lat.=56.070290, lon.=26.463865, Alt.=105.631897m. Speed=4.320000m/h.</desc>
<speed>1.200000</speed>
</trkpt>
<trkpt lat="56.070293" lon="26.463842">
<ele>105.522522</ele>
<time>2010-08-29T12:31:04Z</time>
<desc>lat.=56.070293, lon.=26.463842, Alt.=105.522522m. Speed=4.860000m/h.</desc>
<speed>1.350000</speed>
</trkpt>
<trkpt lat="56.070297" lon="26.463825">
<ele>105.274475</ele>
<time>2010-08-29T12:31:05Z</time>
<desc>lat.=56.070297, lon.=26.463825, Alt.=105.274475m. Speed=4.176000m/h.</desc>
<speed>1.160000</speed>
</trkpt>
<trkpt lat="56.070297" lon="26.463802">
<ele>105.167053</ele>
<time>2010-08-29T12:31:06Z</time>
<desc>lat.=56.070297, lon.=26.463802, Alt.=105.167053m. Speed=5.364000m/h.</desc>
<speed>1.490000</speed>
</trkpt>
<trkpt lat="56.070301" lon="26.463778">
<ele>105.079163</ele>
<time>2010-08-29T12:31:07Z</time>
<desc>lat.=56.070301, lon.=26.463778, Alt.=105.079163m. Speed=6.084000m/h.</desc>
<speed>1.690000</speed>
</trkpt>
<trkpt lat="56.070305" lon="26.463755">
<ele>105.001038</ele>
<time>2010-08-29T12:31:08Z</time>
<desc>lat.=56.070305, lon.=26.463755, Alt.=105.001038m. Speed=4.644000m/h.</desc>
<speed>1.290000</speed>
</trkpt>
<trkpt lat="56.070309" lon="26.463753">
<ele>105.022522</ele>
<time>2010-08-29T12:31:09Z</time>
<desc>lat.=56.070309, lon.=26.463753, Alt.=105.022522m. Speed=1.764000m/h.</desc>
<speed>0.490000</speed>
</trkpt>
<trkpt lat="56.070309" lon="26.463745">
<ele>105.151428</ele>
<time>2010-08-29T12:31:10Z</time>
<desc>lat.=56.070309, lon.=26.463745, Alt.=105.151428m. Speed=1.116000m/h.</desc>
<speed>0.310000</speed>
</trkpt>
<trkpt lat="56.070313" lon="26.463722">
<ele>105.376038</ele>
<time>2010-08-29T12:31:11Z</time>
<desc>lat.=56.070313, lon.=26.463722, Alt.=105.376038m. Speed=4.500000m/h.</desc>
<speed>1.250000</speed>
</trkpt>
<trkpt lat="56.070320" lon="26.463699">
<ele>105.420959</ele>
<time>2010-08-29T12:31:12Z</time>
<desc>lat.=56.070320, lon.=26.463699, Alt.=105.420959m. Speed=5.184000m/h.</desc>
<speed>1.440000</speed>
</trkpt>
<trkpt lat="56.070316" lon="26.463669">
<ele>105.493225</ele>
<time>2010-08-29T12:31:13Z</time>
<desc>lat.=56.070316, lon.=26.463669, Alt.=105.493225m. Speed=6.480000m/h.</desc>
<speed>1.800000</speed>
</trkpt>
<trkpt lat="56.070324" lon="26.463642">
<ele>105.514709</ele>
<time>2010-08-29T12:31:14Z</time>
<desc>lat.=56.070324, lon.=26.463642, Alt.=105.514709m. Speed=6.804000m/h.</desc>
<speed>1.890000</speed>
</trkpt>
<trkpt lat="56.070332" lon="26.463608">
<ele>105.573303</ele>
<time>2010-08-29T12:31:15Z</time>
<desc>lat.=56.070332, lon.=26.463608, Alt.=105.573303m. Speed=8.460000m/h.</desc>
<speed>2.350000</speed>
</trkpt>
<trkpt lat="56.070343" lon="26.463577">
<ele>105.475647</ele>
<time>2010-08-29T12:31:16Z</time>
<desc>lat.=56.070343, lon.=26.463577, Alt.=105.475647m. Speed=7.020000m/h.</desc>
<speed>1.950000</speed>
</trkpt>
<trkpt lat="56.070343" lon="26.463551">
<ele>105.438538</ele>
<time>2010-08-29T12:31:17Z</time>
<desc>lat.=56.070343, lon.=26.463551, Alt.=105.438538m. Speed=5.724000m/h.</desc>
<speed>1.590000</speed>
</trkpt>
<trkpt lat="56.070351" lon="26.463522">
<ele>105.573303</ele>
<time>2010-08-29T12:31:18Z</time>
<desc>lat.=56.070351, lon.=26.463522, Alt.=105.573303m. Speed=6.192000m/h.</desc>
<speed>1.720000</speed>
</trkpt>
<trkpt lat="56.070339" lon="26.463480">
<ele>105.721741</ele>
<time>2010-08-29T12:31:19Z</time>
<desc>lat.=56.070339, lon.=26.463480, Alt.=105.721741m. Speed=6.264000m/h.</desc>
<speed>1.740000</speed>
</trkpt>
<trkpt lat="56.070328" lon="26.463449">
<ele>105.858459</ele>
<time>2010-08-29T12:31:20Z</time>
<desc>lat.=56.070328, lon.=26.463449, Alt.=105.858459m. Speed=3.852000m/h.</desc>
<speed>1.070000</speed>
</trkpt>
<trkpt lat="56.070328" lon="26.463432">
<ele>105.870178</ele>
<time>2010-08-29T12:31:21Z</time>
<desc>lat.=56.070328, lon.=26.463432, Alt.=105.870178m. Speed=3.672000m/h.</desc>
<speed>1.020000</speed>
</trkpt>
<trkpt lat="56.070328" lon="26.463413">
<ele>105.870178</ele>
<time>2010-08-29T12:31:22Z</time>
<desc>lat.=56.070328, lon.=26.463413, Alt.=105.870178m. Speed=3.960000m/h.</desc>
<speed>1.100000</speed>
</trkpt>
<trkpt lat="56.070328" lon="26.463398">
<ele>105.993225</ele>
<time>2010-08-29T12:31:23Z</time>
<desc>lat.=56.070328, lon.=26.463398, Alt.=105.993225m. Speed=4.068000m/h.</desc>
<speed>1.130000</speed>
</trkpt>
<trkpt lat="56.070332" lon="26.463379">
<ele>106.215881</ele>
<time>2010-08-29T12:31:24Z</time>
<desc>lat.=56.070332, lon.=26.463379, Alt.=106.215881m. Speed=4.284000m/h.</desc>
<speed>1.190000</speed>
</trkpt>
<trkpt lat="56.070335" lon="26.463369">
<ele>106.489319</ele>
<time>2010-08-29T12:31:25Z</time>
<desc>lat.=56.070335, lon.=26.463369, Alt.=106.489319m. Speed=2.196000m/h.</desc>
<speed>0.610000</speed>
</trkpt>
<trkpt lat="56.070347" lon="26.463348">
<ele>106.879944</ele>
<time>2010-08-29T12:31:26Z</time>
<desc>lat.=56.070347, lon.=26.463348, Alt.=106.879944m. Speed=2.268000m/h.</desc>
<speed>0.630000</speed>
</trkpt>
<trkpt lat="56.070351" lon="26.463343">
<ele>107.077209</ele>
<time>2010-08-29T12:31:27Z</time>
<desc>lat.=56.070351, lon.=26.463343, Alt.=107.077209m. Speed=0.648000m/h.</desc>
<speed>0.180000</speed>
</trkpt>
<trkpt lat="56.070362" lon="26.463341">
<ele>107.286194</ele>
<time>2010-08-29T12:31:28Z</time>
<desc>lat.=56.070362, lon.=26.463341, Alt.=107.286194m. Speed=0.504000m/h.</desc>
<speed>0.140000</speed>
</trkpt>
<trkpt lat="56.070374" lon="26.463339">
<ele>107.458069</ele>
<time>2010-08-29T12:31:29Z</time>
<desc>lat.=56.070374, lon.=26.463339, Alt.=107.458069m. Speed=0.504000m/h.</desc>
<speed>0.140000</speed>
</trkpt>
<trkpt lat="56.070370" lon="26.463326">
<ele>107.696350</ele>
<time>2010-08-29T12:31:30Z</time>
<desc>lat.=56.070370, lon.=26.463326, Alt.=107.696350m. Speed=0.792000m/h.</desc>
<speed>0.220000</speed>
</trkpt>
<trkpt lat="56.070370" lon="26.463322">
<ele>107.764709</ele>
<time>2010-08-29T12:31:31Z</time>
<desc>lat.=56.070370, lon.=26.463322, Alt.=107.764709m. Speed=1.872000m/h.</desc>
<speed>0.520000</speed>
</trkpt>
<trkpt lat="56.070366" lon="26.463303">
<ele>107.993225</ele>
<time>2010-08-29T12:31:32Z</time>
<desc>lat.=56.070366, lon.=26.463303, Alt.=107.993225m. Speed=2.304000m/h.</desc>
<speed>0.640000</speed>
</trkpt>
<trkpt lat="56.070358" lon="26.463282">
<ele>108.094788</ele>
<time>2010-08-29T12:31:33Z</time>
<desc>lat.=56.070358, lon.=26.463282, Alt.=108.094788m. Speed=1.368000m/h.</desc>
<speed>0.380000</speed>
</trkpt>
<trkpt lat="56.070374" lon="26.463272">
<ele>108.368225</ele>
<time>2010-08-29T12:31:34Z</time>
<desc>lat.=56.070374, lon.=26.463272, Alt.=108.368225m. Speed=2.592000m/h.</desc>
<speed>0.720000</speed>
</trkpt>
<trkpt lat="56.070370" lon="26.463264">
<ele>108.436584</ele>
<time>2010-08-29T12:31:35Z</time>
<desc>lat.=56.070370, lon.=26.463264, Alt.=108.436584m. Speed=0.936000m/h.</desc>
<speed>0.260000</speed>
</trkpt>
<trkpt lat="56.070377" lon="26.463257">
<ele>108.450256</ele>
<time>2010-08-29T12:31:36Z</time>
<desc>lat.=56.070377, lon.=26.463257, Alt.=108.450256m. Speed=1.332000m/h.</desc>
<speed>0.370000</speed>
</trkpt>
<trkpt lat="56.070377" lon="26.463255">
<ele>108.600647</ele>
<time>2010-08-29T12:31:37Z</time>
<desc>lat.=56.070377, lon.=26.463255, Alt.=108.600647m. Speed=0.576000m/h.</desc>
<speed>0.160000</speed>
</trkpt>
<trkpt lat="56.070370" lon="26.463249">
<ele>108.876038</ele>
<time>2010-08-29T12:31:38Z</time>
<desc>lat.=56.070370, lon.=26.463249, Alt.=108.876038m. Speed=0.540000m/h.</desc>
<speed>0.150000</speed>
</trkpt>
<trkpt lat="56.070374" lon="26.463249">
<ele>109.006897</ele>
<time>2010-08-29T12:31:39Z</time>
<desc>lat.=56.070374, lon.=26.463249, Alt.=109.006897m. Speed=0.108000m/h.</desc>
<speed>0.030000</speed>
</trkpt>
<trkpt lat="56.070374" lon="26.463245">
<ele>109.112366</ele>
<time>2010-08-29T12:31:40Z</time>
<desc>lat.=56.070374, lon.=26.463245, Alt.=109.112366m. Speed=0.216000m/h.</desc>
<speed>0.060000</speed>
</trkpt>
<trkpt lat="56.070374" lon="26.463247">
<ele>109.143616</ele>
<time>2010-08-29T12:31:41Z</time>
<desc>lat.=56.070374, lon.=26.463247, Alt.=109.143616m. Speed=0.144000m/h.</desc>
<speed>0.040000</speed>
</trkpt>
<trkpt lat="56.070374" lon="26.463247">
<ele>109.169006</ele>
<time>2010-08-29T12:31:42Z</time>
<desc>lat.=56.070374, lon.=26.463247, Alt.=109.169006m. Speed=0.504000m/h.</desc>
<speed>0.140000</speed>
</trkpt>
<trkpt lat="56.070374" lon="26.463249">
<ele>109.188538</ele>
<time>2010-08-29T12:31:43Z</time>
<desc>lat.=56.070374, lon.=26.463249, Alt.=109.188538m. Speed=0.648000m/h.</desc>
<speed>0.180000</speed>
</trkpt>
<trkpt lat="56.070374" lon="26.463249">
<ele>109.217834</ele>
<time>2010-08-29T12:31:44Z</time>
<desc>lat.=56.070374, lon.=26.463249, Alt.=109.217834m. Speed=0.540000m/h.</desc>
<speed>0.150000</speed>
</trkpt>
<trkpt lat="56.070377" lon="26.463249">
<ele>109.229553</ele>
<time>2010-08-29T12:31:45Z</time>
<desc>lat.=56.070377, lon.=26.463249, Alt.=109.229553m. Speed=0.648000m/h.</desc>
<speed>0.180000</speed>
</trkpt>
<trkpt lat="56.070377" lon="26.463251">
<ele>109.245178</ele>
<time>2010-08-29T12:31:46Z</time>
<desc>lat.=56.070377, lon.=26.463251, Alt.=109.245178m. Speed=0.756000m/h.</desc>
<speed>0.210000</speed>
</trkpt>
<trkpt lat="56.070377" lon="26.463253">
<ele>109.252991</ele>
<time>2010-08-29T12:31:47Z</time>
<desc>lat.=56.070377, lon.=26.463253, Alt.=109.252991m. Speed=0.288000m/h.</desc>
<speed>0.080000</speed>
</trkpt>
<trkpt lat="56.070381" lon="26.463255">
<ele>109.284241</ele>
<time>2010-08-29T12:31:48Z</time>
<desc>lat.=56.070381, lon.=26.463255, Alt.=109.284241m. Speed=0.468000m/h.</desc>
<speed>0.130000</speed>
</trkpt>
<trkpt lat="56.070381" lon="26.463257">
<ele>109.286194</ele>
<time>2010-08-29T12:31:49Z</time>
<desc>lat.=56.070381, lon.=26.463257, Alt.=109.286194m. Speed=2.520000m/h.</desc>
<speed>0.700000</speed>
</trkpt>
<trkpt lat="56.070385" lon="26.463247">
<ele>109.424866</ele>
<time>2010-08-29T12:31:50Z</time>
<desc>lat.=56.070385, lon.=26.463247, Alt.=109.424866m. Speed=2.268000m/h.</desc>
<speed>0.630000</speed>
</trkpt>
<trkpt lat="56.070385" lon="26.463232">
<ele>109.477600</ele>
<time>2010-08-29T12:31:51Z</time>
<desc>lat.=56.070385, lon.=26.463232, Alt.=109.477600m. Speed=1.980000m/h.</desc>
<speed>0.550000</speed>
</trkpt>
<trkpt lat="56.070370" lon="26.463202">
<ele>109.608459</ele>
<time>2010-08-29T12:31:52Z</time>
<desc>lat.=56.070370, lon.=26.463202, Alt.=109.608459m. Speed=1.908000m/h.</desc>
<speed>0.530000</speed>
</trkpt>
<trkpt lat="56.070377" lon="26.463198">
<ele>109.909241</ele>
<time>2010-08-29T12:31:53Z</time>
<desc>lat.=56.070377, lon.=26.463198, Alt.=109.909241m. Speed=1.944000m/h.</desc>
<speed>0.540000</speed>
</trkpt>
<trkpt lat="56.070381" lon="26.463194">
<ele>109.719788</ele>
<time>2010-08-29T12:31:54Z</time>
<desc>lat.=56.070381, lon.=26.463194, Alt.=109.719788m. Speed=1.620000m/h.</desc>
<speed>0.450000</speed>
</trkpt>
<trkpt lat="56.070389" lon="26.463188">
<ele>110.295959</ele>
<time>2010-08-29T12:31:55Z</time>
<desc>lat.=56.070389, lon.=26.463188, Alt.=110.295959m. Speed=1.584000m/h.</desc>
<speed>0.440000</speed>
</trkpt>
<trkpt lat="56.070389" lon="26.463186">
<ele>110.495178</ele>
<time>2010-08-29T12:31:56Z</time>
<desc>lat.=56.070389, lon.=26.463186, Alt.=110.495178m. Speed=1.368000m/h.</desc>
<speed>0.380000</speed>
</trkpt>
<trkpt lat="56.070385" lon="26.463188">
<ele>110.571350</ele>
<time>2010-08-29T12:31:57Z</time>
<desc>lat.=56.070385, lon.=26.463188, Alt.=110.571350m. Speed=0.720000m/h.</desc>
<speed>0.200000</speed>
</trkpt>
<trkpt lat="56.070385" lon="26.463182">
<ele>110.672913</ele>
<time>2010-08-29T12:31:58Z</time>
<desc>lat.=56.070385, lon.=26.463182, Alt.=110.672913m. Speed=0.828000m/h.</desc>
<speed>0.230000</speed>
</trkpt>
<trkpt lat="56.070381" lon="26.463181">
<ele>110.616272</ele>
<time>2010-08-29T12:31:59Z</time>
<desc>lat.=56.070381, lon.=26.463181, Alt.=110.616272m. Speed=0.432000m/h.</desc>
<speed>0.120000</speed>
</trkpt>
<trkpt lat="56.070370" lon="26.463181">
<ele>110.438538</ele>
<time>2010-08-29T12:32:00Z</time>
<desc>lat.=56.070370, lon.=26.463181, Alt.=110.438538m. Speed=0.756000m/h.</desc>
<speed>0.210000</speed>
</trkpt>
<trkpt lat="56.070366" lon="26.463181">
<ele>110.422913</ele>
<time>2010-08-29T12:32:01Z</time>
<desc>lat.=56.070366, lon.=26.463181, Alt.=110.422913m. Speed=1.080000m/h.</desc>
<speed>0.300000</speed>
</trkpt>
<trkpt lat="56.070362" lon="26.463181">
<ele>110.401428</ele>
<time>2010-08-29T12:32:02Z</time>
<desc>lat.=56.070362, lon.=26.463181, Alt.=110.401428m. Speed=0.828000m/h.</desc>
<speed>0.230000</speed>
</trkpt>
<trkpt lat="56.070362" lon="26.463182">
<ele>110.313538</ele>
<time>2010-08-29T12:32:03Z</time>
<desc>lat.=56.070362, lon.=26.463182, Alt.=110.313538m. Speed=0.900000m/h.</desc>
<speed>0.250000</speed>
</trkpt>
<trkpt lat="56.070362" lon="26.463182">
<ele>110.606506</ele>
<time>2010-08-29T12:32:04Z</time>
<desc>lat.=56.070362, lon.=26.463182, Alt.=110.606506m. Speed=0.720000m/h.</desc>
<speed>0.200000</speed>
</trkpt>
<trkpt lat="56.070354" lon="26.463179">
<ele>110.741272</ele>
<time>2010-08-29T12:32:05Z</time>
<desc>lat.=56.070354, lon.=26.463179, Alt.=110.741272m. Speed=0.792000m/h.</desc>
<speed>0.220000</speed>
</trkpt>
<trkpt lat="56.070354" lon="26.463179">
<ele>110.721741</ele>
<time>2010-08-29T12:32:06Z</time>
<desc>lat.=56.070354, lon.=26.463179, Alt.=110.721741m. Speed=1.260000m/h.</desc>
<speed>0.350000</speed>
</trkpt>
<trkpt lat="56.070335" lon="26.463181">
<ele>111.383850</ele>
<time>2010-08-29T12:32:07Z</time>
<desc>lat.=56.070335, lon.=26.463181, Alt.=111.383850m. Speed=1.800000m/h.</desc>
<speed>0.500000</speed>
</trkpt>
<trkpt lat="56.070332" lon="26.463173">
<ele>111.405334</ele>
<time>2010-08-29T12:32:08Z</time>
<desc>lat.=56.070332, lon.=26.463173, Alt.=111.405334m. Speed=1.944000m/h.</desc>
<speed>0.540000</speed>
</trkpt>
<trkpt lat="56.070328" lon="26.463163">
<ele>111.522522</ele>
<time>2010-08-29T12:32:09Z</time>
<desc>lat.=56.070328, lon.=26.463163, Alt.=111.522522m. Speed=2.052000m/h.</desc>
<speed>0.570000</speed>
</trkpt>
<trkpt lat="56.070332" lon="26.463137">
<ele>111.610413</ele>
<time>2010-08-29T12:32:10Z</time>
<desc>lat.=56.070332, lon.=26.463137, Alt.=111.610413m. Speed=2.592000m/h.</desc>
<speed>0.720000</speed>
</trkpt>
<trkpt lat="56.070335" lon="26.463129">
<ele>111.737366</ele>
<time>2010-08-29T12:32:11Z</time>
<desc>lat.=56.070335, lon.=26.463129, Alt.=111.737366m. Speed=0.792000m/h.</desc>
<speed>0.220000</speed>
</trkpt>
<trkpt lat="56.070343" lon="26.463127">
<ele>111.924866</ele>
<time>2010-08-29T12:32:12Z</time>
<desc>lat.=56.070343, lon.=26.463127, Alt.=111.924866m. Speed=1.152000m/h.</desc>
<speed>0.320000</speed>
</trkpt>
<trkpt lat="56.070347" lon="26.463123">
<ele>111.977600</ele>
<time>2010-08-29T12:32:13Z</time>
<desc>lat.=56.070347, lon.=26.463123, Alt.=111.977600m. Speed=0.900000m/h.</desc>
<speed>0.250000</speed>
</trkpt>
<trkpt lat="56.070351" lon="26.463123">
<ele>112.034241</ele>
<time>2010-08-29T12:32:14Z</time>
<desc>lat.=56.070351, lon.=26.463123, Alt.=112.034241m. Speed=0.756000m/h.</desc>
<speed>0.210000</speed>
</trkpt>
<trkpt lat="56.070354" lon="26.463123">
<ele>112.126038</ele>
<time>2010-08-29T12:32:15Z</time>
<desc>lat.=56.070354, lon.=26.463123, Alt.=112.126038m. Speed=1.044000m/h.</desc>
<speed>0.290000</speed>
</trkpt>
<trkpt lat="56.070362" lon="26.463133">
<ele>112.174866</ele>
<time>2010-08-29T12:32:16Z</time>
<desc>lat.=56.070362, lon.=26.463133, Alt.=112.174866m. Speed=1.296000m/h.</desc>
<speed>0.360000</speed>
</trkpt>
<trkpt lat="56.070374" lon="26.463135">
<ele>112.223694</ele>
<time>2010-08-29T12:32:17Z</time>
<desc>lat.=56.070374, lon.=26.463135, Alt.=112.223694m. Speed=1.728000m/h.</desc>
<speed>0.480000</speed>
</trkpt>
<trkpt lat="56.070381" lon="26.463137">
<ele>112.252991</ele>
<time>2010-08-29T12:32:18Z</time>
<desc>lat.=56.070381, lon.=26.463137, Alt.=112.252991m. Speed=1.836000m/h.</desc>
<speed>0.510000</speed>
</trkpt>
<trkpt lat="56.070393" lon="26.463135">
<ele>112.295959</ele>
<time>2010-08-29T12:32:19Z</time>
<desc>lat.=56.070393, lon.=26.463135, Alt.=112.295959m. Speed=2.196000m/h.</desc>
<speed>0.610000</speed>
</trkpt>
<trkpt lat="56.070396" lon="26.463137">
<ele>112.352600</ele>
<time>2010-08-29T12:32:20Z</time>
<desc>lat.=56.070396, lon.=26.463137, Alt.=112.352600m. Speed=1.944000m/h.</desc>
<speed>0.540000</speed>
</trkpt>
<trkpt lat="56.070396" lon="26.463139">
<ele>112.381897</ele>
<time>2010-08-29T12:32:21Z</time>
<desc>lat.=56.070396, lon.=26.463139, Alt.=112.381897m. Speed=1.404000m/h.</desc>
<speed>0.390000</speed>
</trkpt>
<trkpt lat="56.070393" lon="26.463139">
<ele>112.379944</ele>
<time>2010-08-29T12:32:22Z</time>
<desc>lat.=56.070393, lon.=26.463139, Alt.=112.379944m. Speed=0.756000m/h.</desc>
<speed>0.210000</speed>
</trkpt>
<trkpt lat="56.070389" lon="26.463135">
<ele>112.344788</ele>
<time>2010-08-29T12:32:23Z</time>
<desc>lat.=56.070389, lon.=26.463135, Alt.=112.344788m. Speed=0.468000m/h.</desc>
<speed>0.130000</speed>
</trkpt>
<trkpt lat="56.070389" lon="26.463131">
<ele>112.350647</ele>
<time>2010-08-29T12:32:24Z</time>
<desc>lat.=56.070389, lon.=26.463131, Alt.=112.350647m. Speed=0.252000m/h.</desc>
<speed>0.070000</speed>
</trkpt>
<trkpt lat="56.070385" lon="26.463127">
<ele>112.463928</ele>
<time>2010-08-29T12:32:25Z</time>
<desc>lat.=56.070385, lon.=26.463127, Alt.=112.463928m. Speed=0.360000m/h.</desc>
<speed>0.100000</speed>
</trkpt>
<trkpt lat="56.070385" lon="26.463125">
<ele>112.452209</ele>
<time>2010-08-29T12:32:26Z</time>
<desc>lat.=56.070385, lon.=26.463125, Alt.=112.452209m. Speed=0.720000m/h.</desc>
<speed>0.200000</speed>
</trkpt>
<trkpt lat="56.070381" lon="26.463121">
<ele>112.446350</ele>
<time>2010-08-29T12:32:27Z</time>
<desc>lat.=56.070381, lon.=26.463121, Alt.=112.446350m. Speed=1.800000m/h.</desc>
<speed>0.500000</speed>
</trkpt>
<trkpt lat="56.070381" lon="26.463093">
<ele>112.477600</ele>
<time>2010-08-29T12:32:28Z</time>
<desc>lat.=56.070381, lon.=26.463093, Alt.=112.477600m. Speed=3.564000m/h.</desc>
<speed>0.990000</speed>
</trkpt>
<trkpt lat="56.070377" lon="26.463072">
<ele>112.547913</ele>
<time>2010-08-29T12:32:29Z</time>
<desc>lat.=56.070377, lon.=26.463072, Alt.=112.547913m. Speed=3.492000m/h.</desc>
<speed>0.970000</speed>
</trkpt>
<trkpt lat="56.070374" lon="26.463039">
<ele>112.774475</ele>
<time>2010-08-29T12:32:30Z</time>
<desc>lat.=56.070374, lon.=26.463039, Alt.=112.774475m. Speed=3.312000m/h.</desc>
<speed>0.920000</speed>
</trkpt>
<trkpt lat="56.070370" lon="26.463013">
<ele>112.961975</ele>
<time>2010-08-29T12:32:31Z</time>
<desc>lat.=56.070370, lon.=26.463013, Alt.=112.961975m. Speed=2.952000m/h.</desc>
<speed>0.820000</speed>
</trkpt>
<trkpt lat="56.070366" lon="26.462994">
<ele>113.026428</ele>
<time>2010-08-29T12:32:32Z</time>
<desc>lat.=56.070366, lon.=26.462994, Alt.=113.026428m. Speed=2.988000m/h.</desc>
<speed>0.830000</speed>
</trkpt>
<trkpt lat="56.070335" lon="26.462929">
<ele>113.301819</ele>
<time>2010-08-29T12:32:33Z</time>
<desc>lat.=56.070335, lon.=26.462929, Alt.=113.301819m. Speed=1.764000m/h.</desc>
<speed>0.490000</speed>
</trkpt>
<trkpt lat="56.070339" lon="26.462900">
<ele>113.424866</ele>
<time>2010-08-29T12:32:34Z</time>
<desc>lat.=56.070339, lon.=26.462900, Alt.=113.424866m. Speed=1.944000m/h.</desc>
<speed>0.540000</speed>
</trkpt>
<trkpt lat="56.070339" lon="26.462894">
<ele>113.583069</ele>
<time>2010-08-29T12:32:35Z</time>
<desc>lat.=56.070339, lon.=26.462894, Alt.=113.583069m. Speed=1.080000m/h.</desc>
<speed>0.300000</speed>
</trkpt>
<trkpt lat="56.070347" lon="26.462881">
<ele>113.704163</ele>
<time>2010-08-29T12:32:36Z</time>
<desc>lat.=56.070347, lon.=26.462881, Alt.=113.704163m. Speed=1.584000m/h.</desc>
<speed>0.440000</speed>
</trkpt>
<trkpt lat="56.070347" lon="26.462873">
<ele>113.653381</ele>
<time>2010-08-29T12:32:37Z</time>
<desc>lat.=56.070347, lon.=26.462873, Alt.=113.653381m. Speed=1.080000m/h.</desc>
<speed>0.300000</speed>
</trkpt>
<trkpt lat="56.070347" lon="26.462862">
<ele>113.708069</ele>
<time>2010-08-29T12:32:38Z</time>
<desc>lat.=56.070347, lon.=26.462862, Alt.=113.708069m. Speed=1.584000m/h.</desc>
<speed>0.440000</speed>
</trkpt>
<trkpt lat="56.070351" lon="26.462854">
<ele>113.883850</ele>
<time>2010-08-29T12:32:39Z</time>
<desc>lat.=56.070351, lon.=26.462854, Alt.=113.883850m. Speed=1.404000m/h.</desc>
<speed>0.390000</speed>
</trkpt>
<trkpt lat="56.070339" lon="26.462828">
<ele>114.229553</ele>
<time>2010-08-29T12:32:40Z</time>
<desc>lat.=56.070339, lon.=26.462828, Alt.=114.229553m. Speed=0.828000m/h.</desc>
<speed>0.230000</speed>
</trkpt>
<trkpt lat="56.070328" lon="26.462833">
<ele>114.362366</ele>
<time>2010-08-29T12:32:41Z</time>
<desc>lat.=56.070328, lon.=26.462833, Alt.=114.362366m. Speed=0.396000m/h.</desc>
<speed>0.110000</speed>
</trkpt>
<trkpt lat="56.070320" lon="26.462830">
<ele>114.653381</ele>
<time>2010-08-29T12:32:42Z</time>
<desc>lat.=56.070320, lon.=26.462830, Alt.=114.653381m. Speed=0.360000m/h.</desc>
<speed>0.100000</speed>
</trkpt>
<trkpt lat="56.070316" lon="26.462833">
<ele>114.641663</ele>
<time>2010-08-29T12:32:43Z</time>
<desc>lat.=56.070316, lon.=26.462833, Alt.=114.641663m. Speed=6.012000m/h.</desc>
<speed>1.670000</speed>
</trkpt>
<trkpt lat="56.070316" lon="26.462837">
<ele>114.743225</ele>
<time>2010-08-29T12:32:44Z</time>
<desc>lat.=56.070316, lon.=26.462837, Alt.=114.743225m. Speed=2.736000m/h.</desc>
<speed>0.760000</speed>
</trkpt>
<trkpt lat="56.070320" lon="26.462839">
<ele>114.741272</ele>
<time>2010-08-29T12:32:45Z</time>
<desc>lat.=56.070320, lon.=26.462839, Alt.=114.741272m. Speed=0.540000m/h.</desc>
<speed>0.150000</speed>
</trkpt>
<trkpt lat="56.070332" lon="26.462833">
<ele>114.823303</ele>
<time>2010-08-29T12:32:46Z</time>
<desc>lat.=56.070332, lon.=26.462833, Alt.=114.823303m. Speed=0.432000m/h.</desc>
<speed>0.120000</speed>
</trkpt>
<trkpt lat="56.070335" lon="26.462828">
<ele>114.842834</ele>
<time>2010-08-29T12:32:47Z</time>
<desc>lat.=56.070335, lon.=26.462828, Alt.=114.842834m. Speed=0.612000m/h.</desc>
<speed>0.170000</speed>
</trkpt>
<trkpt lat="56.070339" lon="26.462816">
<ele>115.045959</ele>
<time>2010-08-29T12:32:48Z</time>
<desc>lat.=56.070339, lon.=26.462816, Alt.=115.045959m. Speed=0.756000m/h.</desc>
<speed>0.210000</speed>
</trkpt>
<trkpt lat="56.070339" lon="26.462812">
<ele>115.049866</ele>
<time>2010-08-29T12:32:49Z</time>
<desc>lat.=56.070339, lon.=26.462812, Alt.=115.049866m. Speed=1.152000m/h.</desc>
<speed>0.320000</speed>
</trkpt>
<trkpt lat="56.070343" lon="26.462793">
<ele>115.315491</ele>
<time>2010-08-29T12:32:50Z</time>
<desc>lat.=56.070343, lon.=26.462793, Alt.=115.315491m. Speed=2.016000m/h.</desc>
<speed>0.560000</speed>
</trkpt>
<trkpt lat="56.070354" lon="26.462742">
<ele>115.272522</ele>
<time>2010-08-29T12:32:51Z</time>
<desc>lat.=56.070354, lon.=26.462742, Alt.=115.272522m. Speed=4.968000m/h.</desc>
<speed>1.380000</speed>
</trkpt>
<trkpt lat="56.070354" lon="26.462715">
<ele>115.139709</ele>
<time>2010-08-29T12:32:52Z</time>
<desc>lat.=56.070354, lon.=26.462715, Alt.=115.139709m. Speed=6.336000m/h.</desc>
<speed>1.760000</speed>
</trkpt>
<trkpt lat="56.070354" lon="26.462690">
<ele>115.151428</ele>
<time>2010-08-29T12:32:53Z</time>
<desc>lat.=56.070354, lon.=26.462690, Alt.=115.151428m. Speed=5.004000m/h.</desc>
<speed>1.390000</speed>
</trkpt>
<trkpt lat="56.070358" lon="26.462666">
<ele>115.067444</ele>
<time>2010-08-29T12:32:54Z</time>
<desc>lat.=56.070358, lon.=26.462666, Alt.=115.067444m. Speed=5.256000m/h.</desc>
<speed>1.460000</speed>
</trkpt>
<trkpt lat="56.070354" lon="26.462643">
<ele>115.241272</ele>
<time>2010-08-29T12:32:55Z</time>
<desc>lat.=56.070354, lon.=26.462643, Alt.=115.241272m. Speed=3.276000m/h.</desc>
<speed>0.910000</speed>
</trkpt>
<trkpt lat="56.070351" lon="26.462608">
<ele>115.502991</ele>
<time>2010-08-29T12:32:56Z</time>
<desc>lat.=56.070351, lon.=26.462608, Alt.=115.502991m. Speed=3.708000m/h.</desc>
<speed>1.030000</speed>
</trkpt>
<trkpt lat="56.070347" lon="26.462582">
<ele>115.643616</ele>
<time>2010-08-29T12:32:57Z</time>
<desc>lat.=56.070347, lon.=26.462582, Alt.=115.643616m. Speed=4.824000m/h.</desc>
<speed>1.340000</speed>
</trkpt>
<trkpt lat="56.070351" lon="26.462559">
<ele>115.811584</ele>
<time>2010-08-29T12:32:58Z</time>
<desc>lat.=56.070351, lon.=26.462559, Alt.=115.811584m. Speed=5.328000m/h.</desc>
<speed>1.480000</speed>
</trkpt>
<trkpt lat="56.070351" lon="26.462540">
<ele>115.856506</ele>
<time>2010-08-29T12:32:59Z</time>
<desc>lat.=56.070351, lon.=26.462540, Alt.=115.856506m. Speed=4.176000m/h.</desc>
<speed>1.160000</speed>
</trkpt>
<trkpt lat="56.070354" lon="26.462521">
<ele>116.038147</ele>
<time>2010-08-29T12:33:00Z</time>
<desc>lat.=56.070354, lon.=26.462521, Alt.=116.038147m. Speed=3.492000m/h.</desc>
<speed>0.970000</speed>
</trkpt>
<trkpt lat="56.070358" lon="26.462492">
<ele>116.422913</ele>
<time>2010-08-29T12:33:01Z</time>
<desc>lat.=56.070358, lon.=26.462492, Alt.=116.422913m. Speed=4.932000m/h.</desc>
<speed>1.370000</speed>
</trkpt>
<trkpt lat="56.070358" lon="26.462477">
<ele>116.592834</ele>
<time>2010-08-29T12:33:02Z</time>
<desc>lat.=56.070358, lon.=26.462477, Alt.=116.592834m. Speed=3.096000m/h.</desc>
<speed>0.860000</speed>
</trkpt>
<trkpt lat="56.070362" lon="26.462461">
<ele>116.940491</ele>
<time>2010-08-29T12:33:03Z</time>
<desc>lat.=56.070362, lon.=26.462461, Alt.=116.940491m. Speed=2.736000m/h.</desc>
<speed>0.760000</speed>
</trkpt>
<trkpt lat="56.070362" lon="26.462444">
<ele>117.235413</ele>
<time>2010-08-29T12:33:04Z</time>
<desc>lat.=56.070362, lon.=26.462444, Alt.=117.235413m. Speed=2.916000m/h.</desc>
<speed>0.810000</speed>
</trkpt>
<trkpt lat="56.070370" lon="26.462421">
<ele>117.643616</ele>
<time>2010-08-29T12:33:05Z</time>
<desc>lat.=56.070370, lon.=26.462421, Alt.=117.643616m. Speed=3.636000m/h.</desc>
<speed>1.010000</speed>
</trkpt>
<trkpt lat="56.070370" lon="26.462400">
<ele>118.012756</ele>
<time>2010-08-29T12:33:06Z</time>
<desc>lat.=56.070370, lon.=26.462400, Alt.=118.012756m. Speed=3.420000m/h.</desc>
<speed>0.950000</speed>
</trkpt>
<trkpt lat="56.070366" lon="26.462385">
<ele>118.362366</ele>
<time>2010-08-29T12:33:07Z</time>
<desc>lat.=56.070366, lon.=26.462385, Alt.=118.362366m. Speed=4.104000m/h.</desc>
<speed>1.140000</speed>
</trkpt>
<trkpt lat="56.070366" lon="26.462362">
<ele>118.794006</ele>
<time>2010-08-29T12:33:08Z</time>
<desc>lat.=56.070366, lon.=26.462362, Alt.=118.794006m. Speed=3.024000m/h.</desc>
<speed>0.840000</speed>
</trkpt>
<trkpt lat="56.070354" lon="26.462336">
<ele>119.057678</ele>
<time>2010-08-29T12:33:09Z</time>
<desc>lat.=56.070354, lon.=26.462336, Alt.=119.057678m. Speed=3.240000m/h.</desc>
<speed>0.900000</speed>
</trkpt>
<trkpt lat="56.070347" lon="26.462309">
<ele>119.292053</ele>
<time>2010-08-29T12:33:10Z</time>
<desc>lat.=56.070347, lon.=26.462309, Alt.=119.292053m. Speed=3.780000m/h.</desc>
<speed>1.050000</speed>
</trkpt>
<trkpt lat="56.070347" lon="26.462288">
<ele>119.575256</ele>
<time>2010-08-29T12:33:11Z</time>
<desc>lat.=56.070347, lon.=26.462288, Alt.=119.575256m. Speed=3.816000m/h.</desc>
<speed>1.060000</speed>
</trkpt>
<trkpt lat="56.070335" lon="26.462257">
<ele>119.862366</ele>
<time>2010-08-29T12:33:12Z</time>
<desc>lat.=56.070335, lon.=26.462257, Alt.=119.862366m. Speed=4.104000m/h.</desc>
<speed>1.140000</speed>
</trkpt>
<trkpt lat="56.070335" lon="26.462229">
<ele>120.202209</ele>
<time>2010-08-29T12:33:13Z</time>
<desc>lat.=56.070335, lon.=26.462229, Alt.=120.202209m. Speed=4.032000m/h.</desc>
<speed>1.120000</speed>
</trkpt>
<trkpt lat="56.070347" lon="26.462204">
<ele>120.391663</ele>
<time>2010-08-29T12:33:14Z</time>
<desc>lat.=56.070347, lon.=26.462204, Alt.=120.391663m. Speed=4.248000m/h.</desc>
<speed>1.180000</speed>
</trkpt>
<trkpt lat="56.070351" lon="26.462175">
<ele>120.764709</ele>
<time>2010-08-29T12:33:15Z</time>
<desc>lat.=56.070351, lon.=26.462175, Alt.=120.764709m. Speed=4.248000m/h.</desc>
<speed>1.180000</speed>
</trkpt>
<trkpt lat="56.070358" lon="26.462152">
<ele>121.016663</ele>
<time>2010-08-29T12:33:16Z</time>
<desc>lat.=56.070358, lon.=26.462152, Alt.=121.016663m. Speed=2.700000m/h.</desc>
<speed>0.750000</speed>
</trkpt>
<trkpt lat="56.070354" lon="26.462109">
<ele>121.485413</ele>
<time>2010-08-29T12:33:17Z</time>
<desc>lat.=56.070354, lon.=26.462109, Alt.=121.485413m. Speed=4.536000m/h.</desc>
<speed>1.260000</speed>
</trkpt>
<trkpt lat="56.070358" lon="26.462069">
<ele>121.700256</ele>
<time>2010-08-29T12:33:18Z</time>
<desc>lat.=56.070358, lon.=26.462069, Alt.=121.700256m. Speed=5.112000m/h.</desc>
<speed>1.420000</speed>
</trkpt>
<trkpt lat="56.070362" lon="26.462040">
<ele>122.073303</ele>
<time>2010-08-29T12:33:19Z</time>
<desc>lat.=56.070362, lon.=26.462040, Alt.=122.073303m. Speed=4.896000m/h.</desc>
<speed>1.360000</speed>
</trkpt>
<trkpt lat="56.070366" lon="26.461996">
<ele>122.411194</ele>
<time>2010-08-29T12:33:20Z</time>
<desc>lat.=56.070366, lon.=26.461996, Alt.=122.411194m. Speed=2.916000m/h.</desc>
<speed>0.810000</speed>
</trkpt>
<trkpt lat="56.070370" lon="26.461893">
<ele>122.663147</ele>
<time>2010-08-29T12:33:21Z</time>
<desc>lat.=56.070370, lon.=26.461893, Alt.=122.663147m. Speed=9.036000m/h.</desc>
<speed>2.510000</speed>
</trkpt>
<trkpt lat="56.070374" lon="26.461828">
<ele>122.583069</ele>
<time>2010-08-29T12:33:22Z</time>
<desc>lat.=56.070374, lon.=26.461828, Alt.=122.583069m. Speed=8.928000m/h.</desc>
<speed>2.480000</speed>
</trkpt>
<trkpt lat="56.070374" lon="26.461792">
<ele>122.606506</ele>
<time>2010-08-29T12:33:23Z</time>
<desc>lat.=56.070374, lon.=26.461792, Alt.=122.606506m. Speed=6.300000m/h.</desc>
<speed>1.750000</speed>
</trkpt>
<trkpt lat="56.070370" lon="26.461760">
<ele>122.655334</ele>
<time>2010-08-29T12:33:24Z</time>
<desc>lat.=56.070370, lon.=26.461760, Alt.=122.655334m. Speed=4.932000m/h.</desc>
<speed>1.370000</speed>
</trkpt>
<trkpt lat="56.070366" lon="26.461723">
<ele>122.928772</ele>
<time>2010-08-29T12:33:25Z</time>
<desc>lat.=56.070366, lon.=26.461723, Alt.=122.928772m. Speed=5.040000m/h.</desc>
<speed>1.400000</speed>
</trkpt>
<trkpt lat="56.070362" lon="26.461697">
<ele>123.184631</ele>
<time>2010-08-29T12:33:26Z</time>
<desc>lat.=56.070362, lon.=26.461697, Alt.=123.184631m. Speed=4.104000m/h.</desc>
<speed>1.140000</speed>
</trkpt>
<trkpt lat="56.070362" lon="26.461668">
<ele>123.428772</ele>
<time>2010-08-29T12:33:27Z</time>
<desc>lat.=56.070362, lon.=26.461668, Alt.=123.428772m. Speed=4.896000m/h.</desc>
<speed>1.360000</speed>
</trkpt>
<trkpt lat="56.070358" lon="26.461641">
<ele>123.752991</ele>
<time>2010-08-29T12:33:28Z</time>
<desc>lat.=56.070358, lon.=26.461641, Alt.=123.752991m. Speed=4.248000m/h.</desc>
<speed>1.180000</speed>
</trkpt>
<trkpt lat="56.070354" lon="26.461618">
<ele>124.053772</ele>
<time>2010-08-29T12:33:29Z</time>
<desc>lat.=56.070354, lon.=26.461618, Alt.=124.053772m. Speed=4.104000m/h.</desc>
<speed>1.140000</speed>
</trkpt>
<trkpt lat="56.070393" lon="26.461569">
<ele>123.696350</ele>
<time>2010-08-29T12:33:30Z</time>
<desc>lat.=56.070393, lon.=26.461569, Alt.=123.696350m. Speed=2.736000m/h.</desc>
<speed>0.760000</speed>
</trkpt>
<trkpt lat="56.070389" lon="26.461508">
<ele>124.106506</ele>
<time>2010-08-29T12:33:31Z</time>
<desc>lat.=56.070389, lon.=26.461508, Alt.=124.106506m. Speed=6.840000m/h.</desc>
<speed>1.900000</speed>
</trkpt>
<trkpt lat="56.070389" lon="26.461481">
<ele>124.100647</ele>
<time>2010-08-29T12:33:32Z</time>
<desc>lat.=56.070389, lon.=26.461481, Alt.=124.100647m. Speed=4.788000m/h.</desc>
<speed>1.330000</speed>
</trkpt>
<trkpt lat="56.070385" lon="26.461426">
<ele>124.516663</ele>
<time>2010-08-29T12:33:33Z</time>
<desc>lat.=56.070385, lon.=26.461426, Alt.=124.516663m. Speed=9.576000m/h.</desc>
<speed>2.660000</speed>
</trkpt>
<trkpt lat="56.070385" lon="26.461393">
<ele>124.176819</ele>
<time>2010-08-29T12:33:34Z</time>
<desc>lat.=56.070385, lon.=26.461393, Alt.=124.176819m. Speed=5.112000m/h.</desc>
<speed>1.420000</speed>
</trkpt>
<trkpt lat="56.070381" lon="26.461355">
<ele>124.014709</ele>
<time>2010-08-29T12:33:35Z</time>
<desc>lat.=56.070381, lon.=26.461355, Alt.=124.014709m. Speed=6.264000m/h.</desc>
<speed>1.740000</speed>
</trkpt>
<trkpt lat="56.070377" lon="26.461329">
<ele>124.120178</ele>
<time>2010-08-29T12:33:36Z</time>
<desc>lat.=56.070377, lon.=26.461329, Alt.=124.120178m. Speed=3.312000m/h.</desc>
<speed>0.920000</speed>
</trkpt>
<trkpt lat="56.070370" lon="26.461311">
<ele>124.079163</ele>
<time>2010-08-29T12:33:37Z</time>
<desc>lat.=56.070370, lon.=26.461311, Alt.=124.079163m. Speed=3.168000m/h.</desc>
<speed>0.880000</speed>
</trkpt>
<trkpt lat="56.070347" lon="26.461277">
<ele>124.073303</ele>
<time>2010-08-29T12:33:38Z</time>
<desc>lat.=56.070347, lon.=26.461277, Alt.=124.073303m. Speed=6.120000m/h.</desc>
<speed>1.700000</speed>
</trkpt>
<trkpt lat="56.070339" lon="26.461226">
<ele>124.524475</ele>
<time>2010-08-29T12:33:39Z</time>
<desc>lat.=56.070339, lon.=26.461226, Alt.=124.524475m. Speed=6.444000m/h.</desc>
<speed>1.790000</speed>
</trkpt>
<trkpt lat="56.070347" lon="26.461182">
<ele>125.049866</ele>
<time>2010-08-29T12:33:40Z</time>
<desc>lat.=56.070347, lon.=26.461182, Alt.=125.049866m. Speed=8.208000m/h.</desc>
<speed>2.280000</speed>
</trkpt>
<trkpt lat="56.070351" lon="26.461138">
<ele>125.374084</ele>
<time>2010-08-29T12:33:41Z</time>
<desc>lat.=56.070351, lon.=26.461138, Alt.=125.374084m. Speed=7.560000m/h.</desc>
<speed>2.100000</speed>
</trkpt>
<trkpt lat="56.070358" lon="26.461098">
<ele>125.565491</ele>
<time>2010-08-29T12:33:42Z</time>
<desc>lat.=56.070358, lon.=26.461098, Alt.=125.565491m. Speed=9.540000m/h.</desc>
<speed>2.650000</speed>
</trkpt>
<trkpt lat="56.070362" lon="26.461073">
<ele>125.963928</ele>
<time>2010-08-29T12:33:43Z</time>
<desc>lat.=56.070362, lon.=26.461073, Alt.=125.963928m. Speed=4.752000m/h.</desc>
<speed>1.320000</speed>
</trkpt>
<trkpt lat="56.070362" lon="26.461046">
<ele>126.409241</ele>
<time>2010-08-29T12:33:44Z</time>
<desc>lat.=56.070362, lon.=26.461046, Alt.=126.409241m. Speed=5.904000m/h.</desc>
<speed>1.640000</speed>
</trkpt>
<trkpt lat="56.070374" lon="26.461018">
<ele>126.618225</ele>
<time>2010-08-29T12:33:45Z</time>
<desc>lat.=56.070374, lon.=26.461018, Alt.=126.618225m. Speed=7.344000m/h.</desc>
<speed>2.040000</speed>
</trkpt>
<trkpt lat="56.070381" lon="26.460981">
<ele>126.624084</ele>
<time>2010-08-29T12:33:46Z</time>
<desc>lat.=56.070381, lon.=26.460981, Alt.=126.624084m. Speed=8.568000m/h.</desc>
<speed>2.380000</speed>
</trkpt>
<trkpt lat="56.070389" lon="26.460957">
<ele>126.756897</ele>
<time>2010-08-29T12:33:47Z</time>
<desc>lat.=56.070389, lon.=26.460957, Alt.=126.756897m. Speed=4.176000m/h.</desc>
<speed>1.160000</speed>
</trkpt>
<trkpt lat="56.070389" lon="26.460930">
<ele>127.002991</ele>
<time>2010-08-29T12:33:48Z</time>
<desc>lat.=56.070389, lon.=26.460930, Alt.=127.002991m. Speed=4.896000m/h.</desc>
<speed>1.360000</speed>
</trkpt>
<trkpt lat="56.070396" lon="26.460915">
<ele>127.251038</ele>
<time>2010-08-29T12:33:49Z</time>
<desc>lat.=56.070396, lon.=26.460915, Alt.=127.251038m. Speed=2.484000m/h.</desc>
<speed>0.690000</speed>
</trkpt>
<trkpt lat="56.070393" lon="26.460901">
<ele>127.450256</ele>
<time>2010-08-29T12:33:50Z</time>
<desc>lat.=56.070393, lon.=26.460901, Alt.=127.450256m. Speed=2.088000m/h.</desc>
<speed>0.580000</speed>
</trkpt>
<trkpt lat="56.070377" lon="26.460869">
<ele>128.068481</ele>
<time>2010-08-29T12:33:51Z</time>
<desc>lat.=56.070377, lon.=26.460869, Alt.=128.068481m. Speed=2.232000m/h.</desc>
<speed>0.620000</speed>
</trkpt>
<trkpt lat="56.070385" lon="26.460863">
<ele>127.954163</ele>
<time>2010-08-29T12:33:52Z</time>
<desc>lat.=56.070385, lon.=26.460863, Alt.=127.954163m. Speed=1.944000m/h.</desc>
<speed>0.540000</speed>
</trkpt>
<trkpt lat="56.070362" lon="26.460859">
<ele>127.598694</ele>
<time>2010-08-29T12:33:53Z</time>
<desc>lat.=56.070362, lon.=26.460859, Alt.=127.598694m. Speed=1.152000m/h.</desc>
<speed>0.320000</speed>
</trkpt>
<trkpt lat="56.070374" lon="26.460871">
<ele>127.219788</ele>
<time>2010-08-29T12:33:54Z</time>
<desc>lat.=56.070374, lon.=26.460871, Alt.=127.219788m. Speed=0.792000m/h.</desc>
<speed>0.220000</speed>
</trkpt>
<trkpt lat="56.070385" lon="26.460869">
<ele>127.129944</ele>
<time>2010-08-29T12:33:55Z</time>
<desc>lat.=56.070385, lon.=26.460869, Alt.=127.129944m. Speed=0.828000m/h.</desc>
<speed>0.230000</speed>
</trkpt>
<trkpt lat="56.070393" lon="26.460863">
<ele>126.997131</ele>
<time>2010-08-29T12:33:56Z</time>
<desc>lat.=56.070393, lon.=26.460863, Alt.=126.997131m. Speed=1.044000m/h.</desc>
<speed>0.290000</speed>
</trkpt>
<trkpt lat="56.070393" lon="26.460857">
<ele>126.954163</ele>
<time>2010-08-29T12:33:57Z</time>
<desc>lat.=56.070393, lon.=26.460857, Alt.=126.954163m. Speed=0.972000m/h.</desc>
<speed>0.270000</speed>
</trkpt>
<trkpt lat="56.070393" lon="26.460854">
<ele>127.049866</ele>
<time>2010-08-29T12:33:58Z</time>
<desc>lat.=56.070393, lon.=26.460854, Alt.=127.049866m. Speed=1.188000m/h.</desc>
<speed>0.330000</speed>
</trkpt>
<trkpt lat="56.070404" lon="26.460861">
<ele>126.754944</ele>
<time>2010-08-29T12:33:59Z</time>
<desc>lat.=56.070404, lon.=26.460861, Alt.=126.754944m. Speed=2.016000m/h.</desc>
<speed>0.560000</speed>
</trkpt>
<trkpt lat="56.070404" lon="26.460854">
<ele>126.700256</ele>
<time>2010-08-29T12:34:00Z</time>
<desc>lat.=56.070404, lon.=26.460854, Alt.=126.700256m. Speed=2.268000m/h.</desc>
<speed>0.630000</speed>
</trkpt>
<trkpt lat="56.070408" lon="26.460833">
<ele>126.850647</ele>
<time>2010-08-29T12:34:01Z</time>
<desc>lat.=56.070408, lon.=26.460833, Alt.=126.850647m. Speed=3.240000m/h.</desc>
<speed>0.900000</speed>
</trkpt>
<trkpt lat="56.070408" lon="26.460821">
<ele>126.936584</ele>
<time>2010-08-29T12:34:02Z</time>
<desc>lat.=56.070408, lon.=26.460821, Alt.=126.936584m. Speed=1.152000m/h.</desc>
<speed>0.320000</speed>
</trkpt>
<trkpt lat="56.070408" lon="26.460815">
<ele>127.004944</ele>
<time>2010-08-29T12:34:03Z</time>
<desc>lat.=56.070408, lon.=26.460815, Alt.=127.004944m. Speed=1.188000m/h.</desc>
<speed>0.330000</speed>
</trkpt>
<trkpt lat="56.070404" lon="26.460808">
<ele>126.907288</ele>
<time>2010-08-29T12:34:04Z</time>
<desc>lat.=56.070404, lon.=26.460808, Alt.=126.907288m. Speed=1.836000m/h.</desc>
<speed>0.510000</speed>
</trkpt>
<trkpt lat="56.070404" lon="26.460798">
<ele>126.934631</ele>
<time>2010-08-29T12:34:05Z</time>
<desc>lat.=56.070404, lon.=26.460798, Alt.=126.934631m. Speed=1.908000m/h.</desc>
<speed>0.530000</speed>
</trkpt>
<trkpt lat="56.070415" lon="26.460783">
<ele>127.096741</ele>
<time>2010-08-29T12:34:06Z</time>
<desc>lat.=56.070415, lon.=26.460783, Alt.=127.096741m. Speed=2.520000m/h.</desc>
<speed>0.700000</speed>
</trkpt>
<trkpt lat="56.070419" lon="26.460764">
<ele>127.231506</ele>
<time>2010-08-29T12:34:07Z</time>
<desc>lat.=56.070419, lon.=26.460764, Alt.=127.231506m. Speed=3.708000m/h.</desc>
<speed>1.030000</speed>
</trkpt>
<trkpt lat="56.070427" lon="26.460747">
<ele>127.368225</ele>
<time>2010-08-29T12:34:08Z</time>
<desc>lat.=56.070427, lon.=26.460747, Alt.=127.368225m. Speed=3.600000m/h.</desc>
<speed>1.000000</speed>
</trkpt>
<trkpt lat="56.070435" lon="26.460733">
<ele>127.354553</ele>
<time>2010-08-29T12:34:09Z</time>
<desc>lat.=56.070435, lon.=26.460733, Alt.=127.354553m. Speed=3.564000m/h.</desc>
<speed>0.990000</speed>
</trkpt>
<trkpt lat="56.070438" lon="26.460745">
<ele>127.565491</ele>
<time>2010-08-29T12:34:10Z</time>
<desc>lat.=56.070438, lon.=26.460745, Alt.=127.565491m. Speed=1.116000m/h.</desc>
<speed>0.310000</speed>
</trkpt>
<trkpt lat="56.070446" lon="26.460739">
<ele>127.696350</ele>
<time>2010-08-29T12:34:11Z</time>
<desc>lat.=56.070446, lon.=26.460739, Alt.=127.696350m. Speed=1.296000m/h.</desc>
<speed>0.360000</speed>
</trkpt>
<trkpt lat="56.070450" lon="26.460728">
<ele>127.842834</ele>
<time>2010-08-29T12:34:12Z</time>
<desc>lat.=56.070450, lon.=26.460728, Alt.=127.842834m. Speed=1.296000m/h.</desc>
<speed>0.360000</speed>
</trkpt>
<trkpt lat="56.070446" lon="26.460716">
<ele>127.897522</ele>
<time>2010-08-29T12:34:13Z</time>
<desc>lat.=56.070446, lon.=26.460716, Alt.=127.897522m. Speed=1.116000m/h.</desc>
<speed>0.310000</speed>
</trkpt>
<trkpt lat="56.070446" lon="26.460703">
<ele>127.987366</ele>
<time>2010-08-29T12:34:14Z</time>
<desc>lat.=56.070446, lon.=26.460703, Alt.=127.987366m. Speed=1.332000m/h.</desc>
<speed>0.370000</speed>
</trkpt>
<trkpt lat="56.070450" lon="26.460688">
<ele>128.103638</ele>
<time>2010-08-29T12:34:15Z</time>
<desc>lat.=56.070450, lon.=26.460688, Alt.=128.103638m. Speed=1.404000m/h.</desc>
<speed>0.390000</speed>
</trkpt>
<trkpt lat="56.070454" lon="26.460678">
<ele>128.205200</ele>
<time>2010-08-29T12:34:16Z</time>
<desc>lat.=56.070454, lon.=26.460678, Alt.=128.205200m. Speed=1.404000m/h.</desc>
<speed>0.390000</speed>
</trkpt>
<trkpt lat="56.070461" lon="26.460670">
<ele>128.279419</ele>
<time>2010-08-29T12:34:17Z</time>
<desc>lat.=56.070461, lon.=26.460670, Alt.=128.279419m. Speed=1.620000m/h.</desc>
<speed>0.450000</speed>
</trkpt>
<trkpt lat="56.070469" lon="26.460661">
<ele>128.377075</ele>
<time>2010-08-29T12:34:18Z</time>
<desc>lat.=56.070469, lon.=26.460661, Alt.=128.377075m. Speed=1.980000m/h.</desc>
<speed>0.550000</speed>
</trkpt>
<trkpt lat="56.070480" lon="26.460653">
<ele>128.490356</ele>
<time>2010-08-29T12:34:19Z</time>
<desc>lat.=56.070480, lon.=26.460653, Alt.=128.490356m. Speed=2.124000m/h.</desc>
<speed>0.590000</speed>
</trkpt>
<trkpt lat="56.070480" lon="26.460648">
<ele>128.560669</ele>
<time>2010-08-29T12:34:20Z</time>
<desc>lat.=56.070480, lon.=26.460648, Alt.=128.560669m. Speed=1.728000m/h.</desc>
<speed>0.480000</speed>
</trkpt>
<trkpt lat="56.070477" lon="26.460630">
<ele>128.658325</ele>
<time>2010-08-29T12:34:21Z</time>
<desc>lat.=56.070477, lon.=26.460630, Alt.=128.658325m. Speed=1.656000m/h.</desc>
<speed>0.460000</speed>
</trkpt>
<trkpt lat="56.070484" lon="26.460621">
<ele>128.779419</ele>
<time>2010-08-29T12:34:22Z</time>
<desc>lat.=56.070484, lon.=26.460621, Alt.=128.779419m. Speed=1.620000m/h.</desc>
<speed>0.450000</speed>
</trkpt>
<trkpt lat="56.070488" lon="26.460613">
<ele>128.892700</ele>
<time>2010-08-29T12:34:23Z</time>
<desc>lat.=56.070488, lon.=26.460613, Alt.=128.892700m. Speed=1.728000m/h.</desc>
<speed>0.480000</speed>
</trkpt>
<trkpt lat="56.070496" lon="26.460600">
<ele>128.982544</ele>
<time>2010-08-29T12:34:24Z</time>
<desc>lat.=56.070496, lon.=26.460600, Alt.=128.982544m. Speed=1.836000m/h.</desc>
<speed>0.510000</speed>
</trkpt>
<trkpt lat="56.070507" lon="26.460588">
<ele>129.095825</ele>
<time>2010-08-29T12:34:25Z</time>
<desc>lat.=56.070507, lon.=26.460588, Alt.=129.095825m. Speed=2.016000m/h.</desc>
<speed>0.560000</speed>
</trkpt>
<trkpt lat="56.070511" lon="26.460567">
<ele>129.193481</ele>
<time>2010-08-29T12:34:26Z</time>
<desc>lat.=56.070511, lon.=26.460567, Alt.=129.193481m. Speed=2.196000m/h.</desc>
<speed>0.610000</speed>
</trkpt>
<trkpt lat="56.070515" lon="26.460539">
<ele>129.349731</ele>
<time>2010-08-29T12:34:27Z</time>
<desc>lat.=56.070515, lon.=26.460539, Alt.=129.349731m. Speed=2.664000m/h.</desc>
<speed>0.740000</speed>
</trkpt>
<trkpt lat="56.070522" lon="26.460531">
<ele>129.490356</ele>
<time>2010-08-29T12:34:28Z</time>
<desc>lat.=56.070522, lon.=26.460531, Alt.=129.490356m. Speed=2.484000m/h.</desc>
<speed>0.690000</speed>
</trkpt>
<trkpt lat="56.070518" lon="26.460518">
<ele>129.638794</ele>
<time>2010-08-29T12:34:29Z</time>
<desc>lat.=56.070518, lon.=26.460518, Alt.=129.638794m. Speed=2.088000m/h.</desc>
<speed>0.580000</speed>
</trkpt>
<trkpt lat="56.070522" lon="26.460497">
<ele>129.654419</ele>
<time>2010-08-29T12:34:30Z</time>
<desc>lat.=56.070522, lon.=26.460497, Alt.=129.654419m. Speed=2.628000m/h.</desc>
<speed>0.730000</speed>
</trkpt>
<trkpt lat="56.070518" lon="26.460474">
<ele>129.841919</ele>
<time>2010-08-29T12:34:31Z</time>
<desc>lat.=56.070518, lon.=26.460474, Alt.=129.841919m. Speed=2.880000m/h.</desc>
<speed>0.800000</speed>
</trkpt>
<trkpt lat="56.070526" lon="26.460445">
<ele>129.951294</ele>
<time>2010-08-29T12:34:32Z</time>
<desc>lat.=56.070526, lon.=26.460445, Alt.=129.951294m. Speed=3.816000m/h.</desc>
<speed>1.060000</speed>
</trkpt>
<trkpt lat="56.070526" lon="26.460428">
<ele>130.080200</ele>
<time>2010-08-29T12:34:33Z</time>
<desc>lat.=56.070526, lon.=26.460428, Alt.=130.080200m. Speed=3.816000m/h.</desc>
<speed>1.060000</speed>
</trkpt>
<trkpt lat="56.070534" lon="26.460413">
<ele>130.107544</ele>
<time>2010-08-29T12:34:34Z</time>
<desc>lat.=56.070534, lon.=26.460413, Alt.=130.107544m. Speed=2.700000m/h.</desc>
<speed>0.750000</speed>
</trkpt>
<trkpt lat="56.070564" lon="26.460369">
<ele>130.166138</ele>
<time>2010-08-29T12:34:35Z</time>
<desc>lat.=56.070564, lon.=26.460369, Alt.=130.166138m. Speed=6.912000m/h.</desc>
<speed>1.920000</speed>
</trkpt>
<trkpt lat="56.070576" lon="26.460339">
<ele>130.189575</ele>
<time>2010-08-29T12:34:36Z</time>
<desc>lat.=56.070576, lon.=26.460339, Alt.=130.189575m. Speed=6.552000m/h.</desc>
<speed>1.820000</speed>
</trkpt>
<trkpt lat="56.070580" lon="26.460314">
<ele>130.150513</ele>
<time>2010-08-29T12:34:37Z</time>
<desc>lat.=56.070580, lon.=26.460314, Alt.=130.150513m. Speed=3.636000m/h.</desc>
<speed>1.010000</speed>
</trkpt>
<trkpt lat="56.070580" lon="26.460302">
<ele>130.162231</ele>
<time>2010-08-29T12:34:38Z</time>
<desc>lat.=56.070580, lon.=26.460302, Alt.=130.162231m. Speed=2.988000m/h.</desc>
<speed>0.830000</speed>
</trkpt>
<trkpt lat="56.070583" lon="26.460289">
<ele>130.314575</ele>
<time>2010-08-29T12:34:39Z</time>
<desc>lat.=56.070583, lon.=26.460289, Alt.=130.314575m. Speed=3.168000m/h.</desc>
<speed>0.880000</speed>
</trkpt>
<trkpt lat="56.070587" lon="26.460276">
<ele>130.416138</ele>
<time>2010-08-29T12:34:40Z</time>
<desc>lat.=56.070587, lon.=26.460276, Alt.=130.416138m. Speed=2.664000m/h.</desc>
<speed>0.740000</speed>
</trkpt>
<trkpt lat="56.070591" lon="26.460266">
<ele>130.607544</ele>
<time>2010-08-29T12:34:41Z</time>
<desc>lat.=56.070591, lon.=26.460266, Alt.=130.607544m. Speed=1.548000m/h.</desc>
<speed>0.430000</speed>
</trkpt>
<trkpt lat="56.070580" lon="26.460247">
<ele>130.338013</ele>
<time>2010-08-29T12:34:42Z</time>
<desc>lat.=56.070580, lon.=26.460247, Alt.=130.338013m. Speed=1.188000m/h.</desc>
<speed>0.330000</speed>
</trkpt>
<trkpt lat="56.070580" lon="26.460239">
<ele>130.314575</ele>
<time>2010-08-29T12:34:43Z</time>
<desc>lat.=56.070580, lon.=26.460239, Alt.=130.314575m. Speed=1.044000m/h.</desc>
<speed>0.290000</speed>
</trkpt>
<trkpt lat="56.070591" lon="26.460228">
<ele>130.466919</ele>
<time>2010-08-29T12:34:44Z</time>
<desc>lat.=56.070591, lon.=26.460228, Alt.=130.466919m. Speed=1.116000m/h.</desc>
<speed>0.310000</speed>
</trkpt>
<trkpt lat="56.070599" lon="26.460226">
<ele>130.295044</ele>
<time>2010-08-29T12:34:45Z</time>
<desc>lat.=56.070599, lon.=26.460226, Alt.=130.295044m. Speed=0.900000m/h.</desc>
<speed>0.250000</speed>
</trkpt>
<trkpt lat="56.070610" lon="26.460217">
<ele>129.588013</ele>
<time>2010-08-29T12:34:46Z</time>
<desc>lat.=56.070610, lon.=26.460217, Alt.=129.588013m. Speed=0.612000m/h.</desc>
<speed>0.170000</speed>
</trkpt>
<trkpt lat="56.070614" lon="26.460207">
<ele>129.130981</ele>
<time>2010-08-29T12:34:47Z</time>
<desc>lat.=56.070614, lon.=26.460207, Alt.=129.130981m. Speed=0.720000m/h.</desc>
<speed>0.200000</speed>
</trkpt>
<trkpt lat="56.070610" lon="26.460199">
<ele>128.806763</ele>
<time>2010-08-29T12:34:48Z</time>
<desc>lat.=56.070610, lon.=26.460199, Alt.=128.806763m. Speed=0.864000m/h.</desc>
<speed>0.240000</speed>
</trkpt>
<trkpt lat="56.070610" lon="26.460196">
<ele>128.834106</ele>
<time>2010-08-29T12:34:49Z</time>
<desc>lat.=56.070610, lon.=26.460196, Alt.=128.834106m. Speed=0.432000m/h.</desc>
<speed>0.120000</speed>
</trkpt>
<trkpt lat="56.070610" lon="26.460194">
<ele>128.853638</ele>
<time>2010-08-29T12:34:50Z</time>
<desc>lat.=56.070610, lon.=26.460194, Alt.=128.853638m. Speed=0.072000m/h.</desc>
<speed>0.020000</speed>
</trkpt>
<trkpt lat="56.070610" lon="26.460194">
<ele>128.869263</ele>
<time>2010-08-29T12:34:51Z</time>
<desc>lat.=56.070610, lon.=26.460194, Alt.=128.869263m. Speed=0.108000m/h.</desc>
<speed>0.030000</speed>
</trkpt>
<trkpt lat="56.070606" lon="26.460194">
<ele>128.877075</ele>
<time>2010-08-29T12:34:52Z</time>
<desc>lat.=56.070606, lon.=26.460194, Alt.=128.877075m. Speed=0.180000m/h.</desc>
<speed>0.050000</speed>
</trkpt>
<trkpt lat="56.070606" lon="26.460192">
<ele>128.869263</ele>
<time>2010-08-29T12:34:53Z</time>
<desc>lat.=56.070606, lon.=26.460192, Alt.=128.869263m. Speed=0.216000m/h.</desc>
<speed>0.060000</speed>
</trkpt>
<trkpt lat="56.070606" lon="26.460192">
<ele>128.861450</ele>
<time>2010-08-29T12:34:54Z</time>
<desc>lat.=56.070606, lon.=26.460192, Alt.=128.861450m. Speed=0.036000m/h.</desc>
<speed>0.010000</speed>
</trkpt>
<trkpt lat="56.070606" lon="26.460192">
<ele>128.873169</ele>
<time>2010-08-29T12:34:55Z</time>
<desc>lat.=56.070606, lon.=26.460192, Alt.=128.873169m. Speed=0.288000m/h.</desc>
<speed>0.080000</speed>
</trkpt>
<trkpt lat="56.070610" lon="26.460190">
<ele>128.892700</ele>
<time>2010-08-29T12:34:56Z</time>
<desc>lat.=56.070610, lon.=26.460190, Alt.=128.892700m. Speed=0.180000m/h.</desc>
<speed>0.050000</speed>
</trkpt>
<trkpt lat="56.070610" lon="26.460190">
<ele>128.900513</ele>
<time>2010-08-29T12:34:57Z</time>
<desc>lat.=56.070610, lon.=26.460190, Alt.=128.900513m. Speed=0.360000m/h.</desc>
<speed>0.100000</speed>
</trkpt>
<trkpt lat="56.070610" lon="26.460188">
<ele>128.912231</ele>
<time>2010-08-29T12:34:58Z</time>
<desc>lat.=56.070610, lon.=26.460188, Alt.=128.912231m. Speed=0.144000m/h.</desc>
<speed>0.040000</speed>
</trkpt>
<trkpt lat="56.070610" lon="26.460188">
<ele>128.908325</ele>
<time>2010-08-29T12:34:59Z</time>
<desc>lat.=56.070610, lon.=26.460188, Alt.=128.908325m. Speed=0.036000m/h.</desc>
<speed>0.010000</speed>
</trkpt>
<trkpt lat="56.070610" lon="26.460188">
<ele>128.904419</ele>
<time>2010-08-29T12:35:00Z</time>
<desc>lat.=56.070610, lon.=26.460188, Alt.=128.904419m. Speed=0.072000m/h.</desc>
<speed>0.020000</speed>
</trkpt>
<trkpt lat="56.070610" lon="26.460188">
<ele>128.920044</ele>
<time>2010-08-29T12:35:01Z</time>
<desc>lat.=56.070610, lon.=26.460188, Alt.=128.920044m. Speed=0.036000m/h.</desc>
<speed>0.010000</speed>
</trkpt>
<trkpt lat="56.070610" lon="26.460188">
<ele>128.912231</ele>
<time>2010-08-29T12:35:02Z</time>
<desc>lat.=56.070610, lon.=26.460188, Alt.=128.912231m. Speed=0.000000m/h.</desc>
<speed>0.000000</speed>
</trkpt>
<trkpt lat="56.070610" lon="26.460188">
<ele>128.916138</ele>
<time>2010-08-29T12:35:03Z</time>
<desc>lat.=56.070610, lon.=26.460188, Alt.=128.916138m. Speed=0.072000m/h.</desc>
<speed>0.020000</speed>
</trkpt>
<trkpt lat="56.070606" lon="26.460188">
<ele>128.912231</ele>
<time>2010-08-29T12:35:04Z</time>
<desc>lat.=56.070606, lon.=26.460188, Alt.=128.912231m. Speed=0.036000m/h.</desc>
<speed>0.010000</speed>
</trkpt>
<trkpt lat="56.070606" lon="26.460188">
<ele>128.904419</ele>
<time>2010-08-29T12:35:05Z</time>
<desc>lat.=56.070606, lon.=26.460188, Alt.=128.904419m. Speed=0.036000m/h.</desc>
<speed>0.010000</speed>
</trkpt>
<trkpt lat="56.070606" lon="26.460188">
<ele>128.912231</ele>
<time>2010-08-29T12:35:06Z</time>
<desc>lat.=56.070606, lon.=26.460188, Alt.=128.912231m. Speed=0.036000m/h.</desc>
<speed>0.010000</speed>
</trkpt>
<trkpt lat="56.070606" lon="26.460188">
<ele>128.904419</ele>
<time>2010-08-29T12:35:07Z</time>
<desc>lat.=56.070606, lon.=26.460188, Alt.=128.904419m. Speed=0.000000m/h.</desc>
<speed>0.000000</speed>
</trkpt>
<trkpt lat="56.070606" lon="26.460188">
<ele>128.904419</ele>
<time>2010-08-29T12:35:08Z</time>
<desc>lat.=56.070606, lon.=26.460188, Alt.=128.904419m. Speed=0.036000m/h.</desc>
<speed>0.010000</speed>
</trkpt>
<trkpt lat="56.070606" lon="26.460188">
<ele>128.912231</ele>
<time>2010-08-29T12:35:09Z</time>
<desc>lat.=56.070606, lon.=26.460188, Alt.=128.912231m. Speed=0.036000m/h.</desc>
<speed>0.010000</speed>
</trkpt>
<trkpt lat="56.070606" lon="26.460188">
<ele>128.908325</ele>
<time>2010-08-29T12:35:10Z</time>
<desc>lat.=56.070606, lon.=26.460188, Alt.=128.908325m. Speed=0.000000m/h.</desc>
<speed>0.000000</speed>
</trkpt>
<trkpt lat="56.070606" lon="26.460188">
<ele>128.904419</ele>
<time>2010-08-29T12:35:11Z</time>
<desc>lat.=56.070606, lon.=26.460188, Alt.=128.904419m. Speed=0.000000m/h.</desc>
<speed>0.000000</speed>
</trkpt>
<trkpt lat="56.070606" lon="26.460188">
<ele>128.896606</ele>
<time>2010-08-29T12:35:12Z</time>
<desc>lat.=56.070606, lon.=26.460188, Alt.=128.896606m. Speed=0.000000m/h.</desc>
<speed>0.000000</speed>
</trkpt>
<trkpt lat="56.070606" lon="26.460188">
<ele>128.888794</ele>
<time>2010-08-29T12:35:13Z</time>
<desc>lat.=56.070606, lon.=26.460188, Alt.=128.888794m. Speed=0.000000m/h.</desc>
<speed>0.000000</speed>
</trkpt>
<trkpt lat="56.070606" lon="26.460188">
<ele>128.880981</ele>
<time>2010-08-29T12:35:14Z</time>
<desc>lat.=56.070606, lon.=26.460188, Alt.=128.880981m. Speed=0.000000m/h.</desc>
<speed>0.000000</speed>
</trkpt>
<trkpt lat="56.070606" lon="26.460188">
<ele>128.873169</ele>
<time>2010-08-29T12:35:15Z</time>
<desc>lat.=56.070606, lon.=26.460188, Alt.=128.873169m. Speed=0.000000m/h.</desc>
<speed>0.000000</speed>
</trkpt>
<trkpt lat="56.070606" lon="26.460188">
<ele>128.869263</ele>
<time>2010-08-29T12:35:16Z</time>
<desc>lat.=56.070606, lon.=26.460188, Alt.=128.869263m. Speed=0.036000m/h.</desc>
<speed>0.010000</speed>
</trkpt>
<trkpt lat="56.070606" lon="26.460188">
<ele>128.861450</ele>
<time>2010-08-29T12:35:17Z</time>
<desc>lat.=56.070606, lon.=26.460188, Alt.=128.861450m. Speed=0.036000m/h.</desc>
<speed>0.010000</speed>
</trkpt>
<trkpt lat="56.070606" lon="26.460188">
<ele>128.857544</ele>
<time>2010-08-29T12:35:18Z</time>
<desc>lat.=56.070606, lon.=26.460188, Alt.=128.857544m. Speed=0.144000m/h.</desc>
<speed>0.040000</speed>
</trkpt>
<trkpt lat="56.070606" lon="26.460188">
<ele>128.849731</ele>
<time>2010-08-29T12:35:19Z</time>
<desc>lat.=56.070606, lon.=26.460188, Alt.=128.849731m. Speed=0.108000m/h.</desc>
<speed>0.030000</speed>
</trkpt>
<trkpt lat="56.070606" lon="26.460188">
<ele>128.841919</ele>
<time>2010-08-29T12:35:20Z</time>
<desc>lat.=56.070606, lon.=26.460188, Alt.=128.841919m. Speed=0.000000m/h.</desc>
<speed>0.000000</speed>
</trkpt>
<trkpt lat="56.070606" lon="26.460188">
<ele>128.834106</ele>
<time>2010-08-29T12:35:21Z</time>
<desc>lat.=56.070606, lon.=26.460188, Alt.=128.834106m. Speed=0.000000m/h.</desc>
<speed>0.000000</speed>
</trkpt>
<trkpt lat="56.070606" lon="26.460188">
<ele>128.826294</ele>
<time>2010-08-29T12:35:22Z</time>
<desc>lat.=56.070606, lon.=26.460188, Alt.=128.826294m. Speed=0.036000m/h.</desc>
<speed>0.010000</speed>
</trkpt>
<trkpt lat="56.070606" lon="26.460188">
<ele>128.818481</ele>
<time>2010-08-29T12:35:23Z</time>
<desc>lat.=56.070606, lon.=26.460188, Alt.=128.818481m. Speed=0.000000m/h.</desc>
<speed>0.000000</speed>
</trkpt>
<trkpt lat="56.070606" lon="26.460188">
<ele>128.810669</ele>
<time>2010-08-29T12:35:24Z</time>
<desc>lat.=56.070606, lon.=26.460188, Alt.=128.810669m. Speed=0.000000m/h.</desc>
<speed>0.000000</speed>
</trkpt>
<trkpt lat="56.070606" lon="26.460188">
<ele>128.806763</ele>
<time>2010-08-29T12:35:25Z</time>
<desc>lat.=56.070606, lon.=26.460188, Alt.=128.806763m. Speed=0.000000m/h.</desc>
<speed>0.000000</speed>
</trkpt>
<trkpt lat="56.070606" lon="26.460188">
<ele>128.802856</ele>
<time>2010-08-29T12:35:26Z</time>
<desc>lat.=56.070606, lon.=26.460188, Alt.=128.802856m. Speed=0.036000m/h.</desc>
<speed>0.010000</speed>
</trkpt>
<trkpt lat="56.070606" lon="26.460188">
<ele>128.795044</ele>
<time>2010-08-29T12:35:27Z</time>
<desc>lat.=56.070606, lon.=26.460188, Alt.=128.795044m. Speed=0.000000m/h.</desc>
<speed>0.000000</speed>
</trkpt>
<trkpt lat="56.070606" lon="26.460188">
<ele>128.791138</ele>
<time>2010-08-29T12:35:28Z</time>
<desc>lat.=56.070606, lon.=26.460188, Alt.=128.791138m. Speed=0.036000m/h.</desc>
<speed>0.010000</speed>
</trkpt>
<trkpt lat="56.070606" lon="26.460188">
<ele>128.783325</ele>
<time>2010-08-29T12:35:29Z</time>
<desc>lat.=56.070606, lon.=26.460188, Alt.=128.783325m. Speed=0.036000m/h.</desc>
<speed>0.010000</speed>
</trkpt>
<trkpt lat="56.070606" lon="26.460188">
<ele>128.779419</ele>
<time>2010-08-29T12:35:30Z</time>
<desc>lat.=56.070606, lon.=26.460188, Alt.=128.779419m. Speed=0.000000m/h.</desc>
<speed>0.000000</speed>
</trkpt>
<trkpt lat="56.070606" lon="26.460188">
<ele>128.779419</ele>
<time>2010-08-29T12:35:31Z</time>
<desc>lat.=56.070606, lon.=26.460188, Alt.=128.779419m. Speed=0.000000m/h.</desc>
<speed>0.000000</speed>
</trkpt>
<trkpt lat="56.070606" lon="26.460188">
<ele>128.775513</ele>
<time>2010-08-29T12:35:32Z</time>
<desc>lat.=56.070606, lon.=26.460188, Alt.=128.775513m. Speed=0.000000m/h.</desc>
<speed>0.000000</speed>
</trkpt>
<trkpt lat="56.070606" lon="26.460188">
<ele>128.775513</ele>
<time>2010-08-29T12:35:33Z</time>
<desc>lat.=56.070606, lon.=26.460188, Alt.=128.775513m. Speed=0.036000m/h.</desc>
<speed>0.010000</speed>
</trkpt>
<trkpt lat="56.070606" lon="26.460188">
<ele>128.771606</ele>
<time>2010-08-29T12:35:34Z</time>
<desc>lat.=56.070606, lon.=26.460188, Alt.=128.771606m. Speed=0.036000m/h.</desc>
<speed>0.010000</speed>
</trkpt>
<trkpt lat="56.070606" lon="26.460188">
<ele>128.771606</ele>
<time>2010-08-29T12:35:35Z</time>
<desc>lat.=56.070606, lon.=26.460188, Alt.=128.771606m. Speed=0.072000m/h.</desc>
<speed>0.020000</speed>
</trkpt>
<trkpt lat="56.070606" lon="26.460188">
<ele>128.771606</ele>
<time>2010-08-29T12:35:36Z</time>
<desc>lat.=56.070606, lon.=26.460188, Alt.=128.771606m. Speed=0.036000m/h.</desc>
<speed>0.010000</speed>
</trkpt>
<trkpt lat="56.070606" lon="26.460188">
<ele>128.771606</ele>
<time>2010-08-29T12:35:37Z</time>
<desc>lat.=56.070606, lon.=26.460188, Alt.=128.771606m. Speed=0.000000m/h.</desc>
<speed>0.000000</speed>
</trkpt>
<trkpt lat="56.070606" lon="26.460188">
<ele>128.767700</ele>
<time>2010-08-29T12:35:38Z</time>
<desc>lat.=56.070606, lon.=26.460188, Alt.=128.767700m. Speed=0.000000m/h.</desc>
<speed>0.000000</speed>
</trkpt>
<trkpt lat="56.070606" lon="26.460188">
<ele>128.767700</ele>
<time>2010-08-29T12:35:39Z</time>
<desc>lat.=56.070606, lon.=26.460188, Alt.=128.767700m. Speed=0.000000m/h.</desc>
<speed>0.000000</speed>
</trkpt>
<trkpt lat="56.070606" lon="26.460188">
<ele>128.763794</ele>
<time>2010-08-29T12:35:40Z</time>
<desc>lat.=56.070606, lon.=26.460188, Alt.=128.763794m. Speed=0.000000m/h.</desc>
<speed>0.000000</speed>
</trkpt>
<trkpt lat="56.070606" lon="26.460188">
<ele>128.763794</ele>
<time>2010-08-29T12:35:41Z</time>
<desc>lat.=56.070606, lon.=26.460188, Alt.=128.763794m. Speed=0.036000m/h.</desc>
<speed>0.010000</speed>
</trkpt>
<trkpt lat="56.070606" lon="26.460188">
<ele>128.759888</ele>
<time>2010-08-29T12:35:42Z</time>
<desc>lat.=56.070606, lon.=26.460188, Alt.=128.759888m. Speed=0.000000m/h.</desc>
<speed>0.000000</speed>
</trkpt>
<trkpt lat="56.070606" lon="26.460188">
<ele>128.759888</ele>
<time>2010-08-29T12:35:43Z</time>
<desc>lat.=56.070606, lon.=26.460188, Alt.=128.759888m. Speed=0.072000m/h.</desc>
<speed>0.020000</speed>
</trkpt>
<trkpt lat="56.070606" lon="26.460188">
<ele>128.763794</ele>
<time>2010-08-29T12:35:44Z</time>
<desc>lat.=56.070606, lon.=26.460188, Alt.=128.763794m. Speed=0.036000m/h.</desc>
<speed>0.010000</speed>
</trkpt>
<trkpt lat="56.070606" lon="26.460188">
<ele>128.763794</ele>
<time>2010-08-29T12:35:45Z</time>
<desc>lat.=56.070606, lon.=26.460188, Alt.=128.763794m. Speed=0.036000m/h.</desc>
<speed>0.010000</speed>
</trkpt>
<trkpt lat="56.070606" lon="26.460188">
<ele>128.763794</ele>
<time>2010-08-29T12:35:46Z</time>
<desc>lat.=56.070606, lon.=26.460188, Alt.=128.763794m. Speed=0.072000m/h.</desc>
<speed>0.020000</speed>
</trkpt>
<trkpt lat="56.070606" lon="26.460188">
<ele>128.763794</ele>
<time>2010-08-29T12:35:47Z</time>
<desc>lat.=56.070606, lon.=26.460188, Alt.=128.763794m. Speed=0.036000m/h.</desc>
<speed>0.010000</speed>
</trkpt>
<trkpt lat="56.070606" lon="26.460188">
<ele>128.767700</ele>
<time>2010-08-29T12:35:48Z</time>
<desc>lat.=56.070606, lon.=26.460188, Alt.=128.767700m. Speed=0.036000m/h.</desc>
<speed>0.010000</speed>
</trkpt>
<trkpt lat="56.070606" lon="26.460188">
<ele>128.767700</ele>
<time>2010-08-29T12:35:49Z</time>
<desc>lat.=56.070606, lon.=26.460188, Alt.=128.767700m. Speed=0.000000m/h.</desc>
<speed>0.000000</speed>
</trkpt>
<trkpt lat="56.070606" lon="26.460188">
<ele>128.771606</ele>
<time>2010-08-29T12:35:50Z</time>
<desc>lat.=56.070606, lon.=26.460188, Alt.=128.771606m. Speed=0.000000m/h.</desc>
<speed>0.000000</speed>
</trkpt>
<trkpt lat="56.070606" lon="26.460188">
<ele>128.771606</ele>
<time>2010-08-29T12:35:51Z</time>
<desc>lat.=56.070606, lon.=26.460188, Alt.=128.771606m. Speed=0.000000m/h.</desc>
<speed>0.000000</speed>
</trkpt>
<trkpt lat="56.070606" lon="26.460188">
<ele>128.771606</ele>
<time>2010-08-29T12:35:52Z</time>
<desc>lat.=56.070606, lon.=26.460188, Alt.=128.771606m. Speed=0.000000m/h.</desc>
<speed>0.000000</speed>
</trkpt>
<trkpt lat="56.070606" lon="26.460188">
<ele>128.775513</ele>
<time>2010-08-29T12:35:53Z</time>
<desc>lat.=56.070606, lon.=26.460188, Alt.=128.775513m. Speed=0.000000m/h.</desc>
<speed>0.000000</speed>
</trkpt>
<trkpt lat="56.070606" lon="26.460188">
<ele>128.775513</ele>
<time>2010-08-29T12:35:54Z</time>
<desc>lat.=56.070606, lon.=26.460188, Alt.=128.775513m. Speed=0.000000m/h.</desc>
<speed>0.000000</speed>
</trkpt>
<trkpt lat="56.070606" lon="26.460186">
<ele>128.795044</ele>
<time>2010-08-29T12:35:55Z</time>
<desc>lat.=56.070606, lon.=26.460186, Alt.=128.795044m. Speed=0.432000m/h.</desc>
<speed>0.120000</speed>
</trkpt>
<trkpt lat="56.070610" lon="26.460184">
<ele>128.806763</ele>
<time>2010-08-29T12:35:56Z</time>
<desc>lat.=56.070610, lon.=26.460184, Alt.=128.806763m. Speed=0.972000m/h.</desc>
<speed>0.270000</speed>
</trkpt>
<trkpt lat="56.070610" lon="26.460184">
<ele>128.798950</ele>
<time>2010-08-29T12:35:57Z</time>
<desc>lat.=56.070610, lon.=26.460184, Alt.=128.798950m. Speed=0.540000m/h.</desc>
<speed>0.150000</speed>
</trkpt>
<trkpt lat="56.070618" lon="26.460186">
<ele>128.810669</ele>
<time>2010-08-29T12:35:58Z</time>
<desc>lat.=56.070618, lon.=26.460186, Alt.=128.810669m. Speed=1.296000m/h.</desc>
<speed>0.360000</speed>
</trkpt>
<trkpt lat="56.070621" lon="26.460184">
<ele>128.822388</ele>
<time>2010-08-29T12:35:59Z</time>
<desc>lat.=56.070621, lon.=26.460184, Alt.=128.822388m. Speed=1.476000m/h.</desc>
<speed>0.410000</speed>
</trkpt>
<trkpt lat="56.070629" lon="26.460176">
<ele>128.841919</ele>
<time>2010-08-29T12:36:00Z</time>
<desc>lat.=56.070629, lon.=26.460176, Alt.=128.841919m. Speed=1.728000m/h.</desc>
<speed>0.480000</speed>
</trkpt>
<trkpt lat="56.070633" lon="26.460169">
<ele>128.861450</ele>
<time>2010-08-29T12:36:01Z</time>
<desc>lat.=56.070633, lon.=26.460169, Alt.=128.861450m. Speed=1.620000m/h.</desc>
<speed>0.450000</speed>
</trkpt>
<trkpt lat="56.070637" lon="26.460161">
<ele>128.884888</ele>
<time>2010-08-29T12:36:02Z</time>
<desc>lat.=56.070637, lon.=26.460161, Alt.=128.884888m. Speed=1.764000m/h.</desc>
<speed>0.490000</speed>
</trkpt>
<trkpt lat="56.070637" lon="26.460161">
<ele>128.892700</ele>
<time>2010-08-29T12:36:03Z</time>
<desc>lat.=56.070637, lon.=26.460161, Alt.=128.892700m. Speed=1.548000m/h.</desc>
<speed>0.430000</speed>
</trkpt>
<trkpt lat="56.070637" lon="26.460161">
<ele>128.900513</ele>
<time>2010-08-29T12:36:04Z</time>
<desc>lat.=56.070637, lon.=26.460161, Alt.=128.900513m. Speed=1.440000m/h.</desc>
<speed>0.400000</speed>
</trkpt>
<trkpt lat="56.070641" lon="26.460163">
<ele>128.884888</ele>
<time>2010-08-29T12:36:05Z</time>
<desc>lat.=56.070641, lon.=26.460163, Alt.=128.884888m. Speed=1.368000m/h.</desc>
<speed>0.380000</speed>
</trkpt>
<trkpt lat="56.070644" lon="26.460167">
<ele>128.869263</ele>
<time>2010-08-29T12:36:06Z</time>
<desc>lat.=56.070644, lon.=26.460167, Alt.=128.869263m. Speed=1.332000m/h.</desc>
<speed>0.370000</speed>
</trkpt>
<trkpt lat="56.070644" lon="26.460173">
<ele>128.838013</ele>
<time>2010-08-29T12:36:07Z</time>
<desc>lat.=56.070644, lon.=26.460173, Alt.=128.838013m. Speed=1.116000m/h.</desc>
<speed>0.310000</speed>
</trkpt>
<trkpt lat="56.070644" lon="26.460175">
<ele>128.791138</ele>
<time>2010-08-29T12:36:08Z</time>
<desc>lat.=56.070644, lon.=26.460175, Alt.=128.791138m. Speed=1.008000m/h.</desc>
<speed>0.280000</speed>
</trkpt>
<trkpt lat="56.070648" lon="26.460157">
<ele>128.728638</ele>
<time>2010-08-29T12:36:09Z</time>
<desc>lat.=56.070648, lon.=26.460157, Alt.=128.728638m. Speed=1.260000m/h.</desc>
<speed>0.350000</speed>
</trkpt>
<trkpt lat="56.070644" lon="26.460167">
<ele>128.685669</ele>
<time>2010-08-29T12:36:10Z</time>
<desc>lat.=56.070644, lon.=26.460167, Alt.=128.685669m. Speed=0.972000m/h.</desc>
<speed>0.270000</speed>
</trkpt>
<trkpt lat="56.070641" lon="26.460171">
<ele>128.642700</ele>
<time>2010-08-29T12:36:11Z</time>
<desc>lat.=56.070641, lon.=26.460171, Alt.=128.642700m. Speed=0.864000m/h.</desc>
<speed>0.240000</speed>
</trkpt>
<trkpt lat="56.070637" lon="26.460173">
<ele>128.588013</ele>
<time>2010-08-29T12:36:12Z</time>
<desc>lat.=56.070637, lon.=26.460173, Alt.=128.588013m. Speed=0.720000m/h.</desc>
<speed>0.200000</speed>
</trkpt>
<trkpt lat="56.070637" lon="26.460169">
<ele>128.541138</ele>
<time>2010-08-29T12:36:13Z</time>
<desc>lat.=56.070637, lon.=26.460169, Alt.=128.541138m. Speed=0.720000m/h.</desc>
<speed>0.200000</speed>
</trkpt>
<trkpt lat="56.070641" lon="26.460169">
<ele>128.548950</ele>
<time>2010-08-29T12:36:14Z</time>
<desc>lat.=56.070641, lon.=26.460169, Alt.=128.548950m. Speed=0.504000m/h.</desc>
<speed>0.140000</speed>
</trkpt>
<trkpt lat="56.070641" lon="26.460167">
<ele>128.556763</ele>
<time>2010-08-29T12:36:15Z</time>
<desc>lat.=56.070641, lon.=26.460167, Alt.=128.556763m. Speed=0.360000m/h.</desc>
<speed>0.100000</speed>
</trkpt>
<trkpt lat="56.070641" lon="26.460165">
<ele>128.564575</ele>
<time>2010-08-29T12:36:16Z</time>
<desc>lat.=56.070641, lon.=26.460165, Alt.=128.564575m. Speed=0.252000m/h.</desc>
<speed>0.070000</speed>
</trkpt>
<trkpt lat="56.070641" lon="26.460163">
<ele>128.572388</ele>
<time>2010-08-29T12:36:17Z</time>
<desc>lat.=56.070641, lon.=26.460163, Alt.=128.572388m. Speed=0.252000m/h.</desc>
<speed>0.070000</speed>
</trkpt>
<trkpt lat="56.070641" lon="26.460163">
<ele>128.580200</ele>
<time>2010-08-29T12:36:18Z</time>
<desc>lat.=56.070641, lon.=26.460163, Alt.=128.580200m. Speed=0.360000m/h.</desc>
<speed>0.100000</speed>
</trkpt>
<trkpt lat="56.070641" lon="26.460161">
<ele>128.588013</ele>
<time>2010-08-29T12:36:19Z</time>
<desc>lat.=56.070641, lon.=26.460161, Alt.=128.588013m. Speed=0.432000m/h.</desc>
<speed>0.120000</speed>
</trkpt>
<trkpt lat="56.070641" lon="26.460161">
<ele>128.595825</ele>
<time>2010-08-29T12:36:20Z</time>
<desc>lat.=56.070641, lon.=26.460161, Alt.=128.595825m. Speed=0.504000m/h.</desc>
<speed>0.140000</speed>
</trkpt>
<trkpt lat="56.070637" lon="26.460159">
<ele>128.603638</ele>
<time>2010-08-29T12:36:21Z</time>
<desc>lat.=56.070637, lon.=26.460159, Alt.=128.603638m. Speed=0.576000m/h.</desc>
<speed>0.160000</speed>
</trkpt>
<trkpt lat="56.070637" lon="26.460159">
<ele>128.615356</ele>
<time>2010-08-29T12:36:22Z</time>
<desc>lat.=56.070637, lon.=26.460159, Alt.=128.615356m. Speed=0.720000m/h.</desc>
<speed>0.200000</speed>
</trkpt>
<trkpt lat="56.070633" lon="26.460159">
<ele>128.623169</ele>
<time>2010-08-29T12:36:23Z</time>
<desc>lat.=56.070633, lon.=26.460159, Alt.=128.623169m. Speed=0.756000m/h.</desc>
<speed>0.210000</speed>
</trkpt>
<trkpt lat="56.070633" lon="26.460159">
<ele>128.630981</ele>
<time>2010-08-29T12:36:24Z</time>
<desc>lat.=56.070633, lon.=26.460159, Alt.=128.630981m. Speed=0.756000m/h.</desc>
<speed>0.210000</speed>
</trkpt>
<trkpt lat="56.070629" lon="26.460159">
<ele>128.638794</ele>
<time>2010-08-29T12:36:25Z</time>
<desc>lat.=56.070629, lon.=26.460159, Alt.=128.638794m. Speed=0.792000m/h.</desc>
<speed>0.220000</speed>
</trkpt>
<trkpt lat="56.070629" lon="26.460161">
<ele>128.650513</ele>
<time>2010-08-29T12:36:26Z</time>
<desc>lat.=56.070629, lon.=26.460161, Alt.=128.650513m. Speed=0.936000m/h.</desc>
<speed>0.260000</speed>
</trkpt>
<trkpt lat="56.070625" lon="26.460161">
<ele>128.658325</ele>
<time>2010-08-29T12:36:27Z</time>
<desc>lat.=56.070625, lon.=26.460161, Alt.=128.658325m. Speed=1.044000m/h.</desc>
<speed>0.290000</speed>
</trkpt>
<trkpt lat="56.070621" lon="26.460163">
<ele>128.670044</ele>
<time>2010-08-29T12:36:28Z</time>
<desc>lat.=56.070621, lon.=26.460163, Alt.=128.670044m. Speed=1.224000m/h.</desc>
<speed>0.340000</speed>
</trkpt>
<trkpt lat="56.070614" lon="26.460201">
<ele>128.748169</ele>
<time>2010-08-29T12:36:29Z</time>
<desc>lat.=56.070614, lon.=26.460201, Alt.=128.748169m. Speed=1.368000m/h.</desc>
<speed>0.380000</speed>
</trkpt>
<trkpt lat="56.070606" lon="26.460222">
<ele>128.818481</ele>
<time>2010-08-29T12:36:30Z</time>
<desc>lat.=56.070606, lon.=26.460222, Alt.=128.818481m. Speed=1.404000m/h.</desc>
<speed>0.390000</speed>
</trkpt>
<trkpt lat="56.070599" lon="26.460238">
<ele>128.853638</ele>
<time>2010-08-29T12:36:31Z</time>
<desc>lat.=56.070599, lon.=26.460238, Alt.=128.853638m. Speed=1.476000m/h.</desc>
<speed>0.410000</speed>
</trkpt>
<trkpt lat="56.070591" lon="26.460260">
<ele>128.888794</ele>
<time>2010-08-29T12:36:32Z</time>
<desc>lat.=56.070591, lon.=26.460260, Alt.=128.888794m. Speed=1.656000m/h.</desc>
<speed>0.460000</speed>
</trkpt>
<trkpt lat="56.070576" lon="26.460281">
<ele>128.943481</ele>
<time>2010-08-29T12:36:33Z</time>
<desc>lat.=56.070576, lon.=26.460281, Alt.=128.943481m. Speed=1.764000m/h.</desc>
<speed>0.490000</speed>
</trkpt>
<trkpt lat="56.070572" lon="26.460297">
<ele>128.970825</ele>
<time>2010-08-29T12:36:34Z</time>
<desc>lat.=56.070572, lon.=26.460297, Alt.=128.970825m. Speed=1.872000m/h.</desc>
<speed>0.520000</speed>
</trkpt>
<trkpt lat="56.070568" lon="26.460304">
<ele>129.009888</ele>
<time>2010-08-29T12:36:35Z</time>
<desc>lat.=56.070568, lon.=26.460304, Alt.=129.009888m. Speed=1.764000m/h.</desc>
<speed>0.490000</speed>
</trkpt>
<trkpt lat="56.070568" lon="26.460316">
<ele>129.048950</ele>
<time>2010-08-29T12:36:36Z</time>
<desc>lat.=56.070568, lon.=26.460316, Alt.=129.048950m. Speed=1.764000m/h.</desc>
<speed>0.490000</speed>
</trkpt>
<trkpt lat="56.070564" lon="26.460321">
<ele>129.072388</ele>
<time>2010-08-29T12:36:37Z</time>
<desc>lat.=56.070564, lon.=26.460321, Alt.=129.072388m. Speed=1.656000m/h.</desc>
<speed>0.460000</speed>
</trkpt>
<trkpt lat="56.070564" lon="26.460333">
<ele>129.088013</ele>
<time>2010-08-29T12:36:38Z</time>
<desc>lat.=56.070564, lon.=26.460333, Alt.=129.088013m. Speed=1.620000m/h.</desc>
<speed>0.450000</speed>
</trkpt>
<trkpt lat="56.070564" lon="26.460337">
<ele>129.119263</ele>
<time>2010-08-29T12:36:39Z</time>
<desc>lat.=56.070564, lon.=26.460337, Alt.=129.119263m. Speed=1.512000m/h.</desc>
<speed>0.420000</speed>
</trkpt>
<trkpt lat="56.070560" lon="26.460344">
<ele>129.158325</ele>
<time>2010-08-29T12:36:40Z</time>
<desc>lat.=56.070560, lon.=26.460344, Alt.=129.158325m. Speed=1.476000m/h.</desc>
<speed>0.410000</speed>
</trkpt>
<trkpt lat="56.070553" lon="26.460346">
<ele>129.177856</ele>
<time>2010-08-29T12:36:41Z</time>
<desc>lat.=56.070553, lon.=26.460346, Alt.=129.177856m. Speed=1.440000m/h.</desc>
<speed>0.400000</speed>
</trkpt>
<trkpt lat="56.070553" lon="26.460348">
<ele>129.170044</ele>
<time>2010-08-29T12:36:42Z</time>
<desc>lat.=56.070553, lon.=26.460348, Alt.=129.170044m. Speed=1.404000m/h.</desc>
<speed>0.390000</speed>
</trkpt>
<trkpt lat="56.070541" lon="26.460350">
<ele>129.173950</ele>
<time>2010-08-29T12:36:43Z</time>
<desc>lat.=56.070541, lon.=26.460350, Alt.=129.173950m. Speed=1.476000m/h.</desc>
<speed>0.410000</speed>
</trkpt>
<trkpt lat="56.070534" lon="26.460352">
<ele>129.166138</ele>
<time>2010-08-29T12:36:44Z</time>
<desc>lat.=56.070534, lon.=26.460352, Alt.=129.166138m. Speed=1.548000m/h.</desc>
<speed>0.430000</speed>
</trkpt>
<trkpt lat="56.070534" lon="26.460342">
<ele>129.154419</ele>
<time>2010-08-29T12:36:45Z</time>
<desc>lat.=56.070534, lon.=26.460342, Alt.=129.154419m. Speed=1.404000m/h.</desc>
<speed>0.390000</speed>
</trkpt>
<trkpt lat="56.070530" lon="26.460337">
<ele>129.146606</ele>
<time>2010-08-29T12:36:46Z</time>
<desc>lat.=56.070530, lon.=26.460337, Alt.=129.146606m. Speed=1.332000m/h.</desc>
<speed>0.370000</speed>
</trkpt>
<trkpt lat="56.070526" lon="26.460325">
<ele>129.142700</ele>
<time>2010-08-29T12:36:47Z</time>
<desc>lat.=56.070526, lon.=26.460325, Alt.=129.142700m. Speed=1.224000m/h.</desc>
<speed>0.340000</speed>
</trkpt>
<trkpt lat="56.070534" lon="26.460318">
<ele>129.166138</ele>
<time>2010-08-29T12:36:48Z</time>
<desc>lat.=56.070534, lon.=26.460318, Alt.=129.166138m. Speed=1.008000m/h.</desc>
<speed>0.280000</speed>
</trkpt>
<trkpt lat="56.070538" lon="26.460312">
<ele>129.170044</ele>
<time>2010-08-29T12:36:49Z</time>
<desc>lat.=56.070538, lon.=26.460312, Alt.=129.170044m. Speed=0.900000m/h.</desc>
<speed>0.250000</speed>
</trkpt>
<trkpt lat="56.070541" lon="26.460310">
<ele>129.185669</ele>
<time>2010-08-29T12:36:50Z</time>
<desc>lat.=56.070541, lon.=26.460310, Alt.=129.185669m. Speed=0.756000m/h.</desc>
<speed>0.210000</speed>
</trkpt>
<trkpt lat="56.070541" lon="26.460316">
<ele>129.205200</ele>
<time>2010-08-29T12:36:51Z</time>
<desc>lat.=56.070541, lon.=26.460316, Alt.=129.205200m. Speed=0.864000m/h.</desc>
<speed>0.240000</speed>
</trkpt>
<trkpt lat="56.070541" lon="26.460318">
<ele>129.201294</ele>
<time>2010-08-29T12:36:52Z</time>
<desc>lat.=56.070541, lon.=26.460318, Alt.=129.201294m. Speed=0.936000m/h.</desc>
<speed>0.260000</speed>
</trkpt>
<trkpt lat="56.070541" lon="26.460323">
<ele>129.201294</ele>
<time>2010-08-29T12:36:53Z</time>
<desc>lat.=56.070541, lon.=26.460323, Alt.=129.201294m. Speed=1.116000m/h.</desc>
<speed>0.310000</speed>
</trkpt>
<trkpt lat="56.070538" lon="26.460335">
<ele>129.213013</ele>
<time>2010-08-29T12:36:54Z</time>
<desc>lat.=56.070538, lon.=26.460335, Alt.=129.213013m. Speed=1.080000m/h.</desc>
<speed>0.300000</speed>
</trkpt>
<trkpt lat="56.070534" lon="26.460346">
<ele>129.236450</ele>
<time>2010-08-29T12:36:55Z</time>
<desc>lat.=56.070534, lon.=26.460346, Alt.=129.236450m. Speed=1.188000m/h.</desc>
<speed>0.330000</speed>
</trkpt>
<trkpt lat="56.070526" lon="26.460356">
<ele>129.263794</ele>
<time>2010-08-29T12:36:56Z</time>
<desc>lat.=56.070526, lon.=26.460356, Alt.=129.263794m. Speed=1.224000m/h.</desc>
<speed>0.340000</speed>
</trkpt>
<trkpt lat="56.070522" lon="26.460369">
<ele>129.283325</ele>
<time>2010-08-29T12:36:57Z</time>
<desc>lat.=56.070522, lon.=26.460369, Alt.=129.283325m. Speed=1.296000m/h.</desc>
<speed>0.360000</speed>
</trkpt>
<trkpt lat="56.070526" lon="26.460381">
<ele>129.298950</ele>
<time>2010-08-29T12:36:58Z</time>
<desc>lat.=56.070526, lon.=26.460381, Alt.=129.298950m. Speed=1.152000m/h.</desc>
<speed>0.320000</speed>
</trkpt>
<trkpt lat="56.070522" lon="26.460377">
<ele>129.295044</ele>
<time>2010-08-29T12:36:59Z</time>
<desc>lat.=56.070522, lon.=26.460377, Alt.=129.295044m. Speed=1.008000m/h.</desc>
<speed>0.280000</speed>
</trkpt>
<trkpt lat="56.070526" lon="26.460392">
<ele>129.259888</ele>
<time>2010-08-29T12:37:00Z</time>
<desc>lat.=56.070526, lon.=26.460392, Alt.=129.259888m. Speed=0.972000m/h.</desc>
<speed>0.270000</speed>
</trkpt>
<trkpt lat="56.070526" lon="26.460392">
<ele>129.252075</ele>
<time>2010-08-29T12:37:01Z</time>
<desc>lat.=56.070526, lon.=26.460392, Alt.=129.252075m. Speed=0.972000m/h.</desc>
<speed>0.270000</speed>
</trkpt>
<trkpt lat="56.070526" lon="26.460388">
<ele>129.255981</ele>
<time>2010-08-29T12:37:02Z</time>
<desc>lat.=56.070526, lon.=26.460388, Alt.=129.255981m. Speed=0.900000m/h.</desc>
<speed>0.250000</speed>
</trkpt>
<trkpt lat="56.070526" lon="26.460392">
<ele>129.252075</ele>
<time>2010-08-29T12:37:03Z</time>
<desc>lat.=56.070526, lon.=26.460392, Alt.=129.252075m. Speed=1.044000m/h.</desc>
<speed>0.290000</speed>
</trkpt>
<trkpt lat="56.070522" lon="26.460392">
<ele>129.252075</ele>
<time>2010-08-29T12:37:04Z</time>
<desc>lat.=56.070522, lon.=26.460392, Alt.=129.252075m. Speed=1.044000m/h.</desc>
<speed>0.290000</speed>
</trkpt>
<trkpt lat="56.070518" lon="26.460390">
<ele>129.259888</ele>
<time>2010-08-29T12:37:05Z</time>
<desc>lat.=56.070518, lon.=26.460390, Alt.=129.259888m. Speed=1.044000m/h.</desc>
<speed>0.290000</speed>
</trkpt>
<trkpt lat="56.070518" lon="26.460386">
<ele>129.263794</ele>
<time>2010-08-29T12:37:06Z</time>
<desc>lat.=56.070518, lon.=26.460386, Alt.=129.263794m. Speed=1.008000m/h.</desc>
<speed>0.280000</speed>
</trkpt>
<trkpt lat="56.070515" lon="26.460382">
<ele>129.263794</ele>
<time>2010-08-29T12:37:07Z</time>
<desc>lat.=56.070515, lon.=26.460382, Alt.=129.263794m. Speed=0.864000m/h.</desc>
<speed>0.240000</speed>
</trkpt>
<trkpt lat="56.070515" lon="26.460381">
<ele>129.259888</ele>
<time>2010-08-29T12:37:08Z</time>
<desc>lat.=56.070515, lon.=26.460381, Alt.=129.259888m. Speed=1.296000m/h.</desc>
<speed>0.360000</speed>
</trkpt>
<trkpt lat="56.070503" lon="26.460377">
<ele>129.463013</ele>
<time>2010-08-29T12:37:09Z</time>
<desc>lat.=56.070503, lon.=26.460377, Alt.=129.463013m. Speed=1.224000m/h.</desc>
<speed>0.340000</speed>
</trkpt>
<trkpt lat="56.070511" lon="26.460363">
<ele>129.470825</ele>
<time>2010-08-29T12:37:10Z</time>
<desc>lat.=56.070511, lon.=26.460363, Alt.=129.470825m. Speed=1.224000m/h.</desc>
<speed>0.340000</speed>
</trkpt>
<trkpt lat="56.070518" lon="26.460346">
<ele>129.572388</ele>
<time>2010-08-29T12:37:11Z</time>
<desc>lat.=56.070518, lon.=26.460346, Alt.=129.572388m. Speed=1.440000m/h.</desc>
<speed>0.400000</speed>
</trkpt>
<trkpt lat="56.070526" lon="26.460333">
<ele>129.634888</ele>
<time>2010-08-29T12:37:12Z</time>
<desc>lat.=56.070526, lon.=26.460333, Alt.=129.634888m. Speed=1.404000m/h.</desc>
<speed>0.390000</speed>
</trkpt>
<trkpt lat="56.070534" lon="26.460318">
<ele>129.666138</ele>
<time>2010-08-29T12:37:13Z</time>
<desc>lat.=56.070534, lon.=26.460318, Alt.=129.666138m. Speed=1.044000m/h.</desc>
<speed>0.290000</speed>
</trkpt>
<trkpt lat="56.070545" lon="26.460306">
<ele>129.693481</ele>
<time>2010-08-29T12:37:14Z</time>
<desc>lat.=56.070545, lon.=26.460306, Alt.=129.693481m. Speed=0.936000m/h.</desc>
<speed>0.260000</speed>
</trkpt>
<trkpt lat="56.070557" lon="26.460293">
<ele>129.685669</ele>
<time>2010-08-29T12:37:15Z</time>
<desc>lat.=56.070557, lon.=26.460293, Alt.=129.685669m. Speed=0.864000m/h.</desc>
<speed>0.240000</speed>
</trkpt>
<trkpt lat="56.070568" lon="26.460283">
<ele>129.697388</ele>
<time>2010-08-29T12:37:16Z</time>
<desc>lat.=56.070568, lon.=26.460283, Alt.=129.697388m. Speed=0.828000m/h.</desc>
<speed>0.230000</speed>
</trkpt>
<trkpt lat="56.070568" lon="26.460279">
<ele>129.685669</ele>
<time>2010-08-29T12:37:17Z</time>
<desc>lat.=56.070568, lon.=26.460279, Alt.=129.685669m. Speed=0.828000m/h.</desc>
<speed>0.230000</speed>
</trkpt>
<trkpt lat="56.070568" lon="26.460276">
<ele>129.677856</ele>
<time>2010-08-29T12:37:18Z</time>
<desc>lat.=56.070568, lon.=26.460276, Alt.=129.677856m. Speed=0.864000m/h.</desc>
<speed>0.240000</speed>
</trkpt>
<trkpt lat="56.070568" lon="26.460270">
<ele>129.666138</ele>
<time>2010-08-29T12:37:19Z</time>
<desc>lat.=56.070568, lon.=26.460270, Alt.=129.666138m. Speed=0.972000m/h.</desc>
<speed>0.270000</speed>
</trkpt>
<trkpt lat="56.070568" lon="26.460266">
<ele>129.654419</ele>
<time>2010-08-29T12:37:20Z</time>
<desc>lat.=56.070568, lon.=26.460266, Alt.=129.654419m. Speed=1.044000m/h.</desc>
<speed>0.290000</speed>
</trkpt>
<trkpt lat="56.070568" lon="26.460260">
<ele>129.646606</ele>
<time>2010-08-29T12:37:21Z</time>
<desc>lat.=56.070568, lon.=26.460260, Alt.=129.646606m. Speed=1.188000m/h.</desc>
<speed>0.330000</speed>
</trkpt>
<trkpt lat="56.070568" lon="26.460243">
<ele>129.623169</ele>
<time>2010-08-29T12:37:22Z</time>
<desc>lat.=56.070568, lon.=26.460243, Alt.=129.623169m. Speed=1.440000m/h.</desc>
<speed>0.400000</speed>
</trkpt>
<trkpt lat="56.070580" lon="26.460217">
<ele>129.689575</ele>
<time>2010-08-29T12:37:23Z</time>
<desc>lat.=56.070580, lon.=26.460217, Alt.=129.689575m. Speed=1.800000m/h.</desc>
<speed>0.500000</speed>
</trkpt>
<trkpt lat="56.070587" lon="26.460188">
<ele>129.646606</ele>
<time>2010-08-29T12:37:24Z</time>
<desc>lat.=56.070587, lon.=26.460188, Alt.=129.646606m. Speed=2.088000m/h.</desc>
<speed>0.580000</speed>
</trkpt>
<trkpt lat="56.070599" lon="26.460155">
<ele>129.595825</ele>
<time>2010-08-29T12:37:25Z</time>
<desc>lat.=56.070599, lon.=26.460155, Alt.=129.595825m. Speed=2.340000m/h.</desc>
<speed>0.650000</speed>
</trkpt>
<trkpt lat="56.070610" lon="26.460127">
<ele>129.560669</ele>
<time>2010-08-29T12:37:26Z</time>
<desc>lat.=56.070610, lon.=26.460127, Alt.=129.560669m. Speed=2.592000m/h.</desc>
<speed>0.720000</speed>
</trkpt>
<trkpt lat="56.070633" lon="26.460085">
<ele>129.447388</ele>
<time>2010-08-29T12:37:27Z</time>
<desc>lat.=56.070633, lon.=26.460085, Alt.=129.447388m. Speed=2.736000m/h.</desc>
<speed>0.760000</speed>
</trkpt>
<trkpt lat="56.070625" lon="26.460039">
<ele>129.404419</ele>
<time>2010-08-29T12:37:28Z</time>
<desc>lat.=56.070625, lon.=26.460039, Alt.=129.404419m. Speed=3.528000m/h.</desc>
<speed>0.980000</speed>
</trkpt>
<trkpt lat="56.070629" lon="26.460012">
<ele>129.392700</ele>
<time>2010-08-29T12:37:29Z</time>
<desc>lat.=56.070629, lon.=26.460012, Alt.=129.392700m. Speed=3.564000m/h.</desc>
<speed>0.990000</speed>
</trkpt>
<trkpt lat="56.070629" lon="26.459984">
<ele>129.556763</ele>
<time>2010-08-29T12:37:30Z</time>
<desc>lat.=56.070629, lon.=26.459984, Alt.=129.556763m. Speed=3.168000m/h.</desc>
<speed>0.880000</speed>
</trkpt>
<trkpt lat="56.070637" lon="26.459955">
<ele>129.478638</ele>
<time>2010-08-29T12:37:31Z</time>
<desc>lat.=56.070637, lon.=26.459955, Alt.=129.478638m. Speed=3.420000m/h.</desc>
<speed>0.950000</speed>
</trkpt>
<trkpt lat="56.070641" lon="26.459930">
<ele>129.455200</ele>
<time>2010-08-29T12:37:32Z</time>
<desc>lat.=56.070641, lon.=26.459930, Alt.=129.455200m. Speed=3.312000m/h.</desc>
<speed>0.920000</speed>
</trkpt>
<trkpt lat="56.070641" lon="26.459894">
<ele>129.435669</ele>
<time>2010-08-29T12:37:33Z</time>
<desc>lat.=56.070641, lon.=26.459894, Alt.=129.435669m. Speed=3.384000m/h.</desc>
<speed>0.940000</speed>
</trkpt>
<trkpt lat="56.070637" lon="26.459858">
<ele>129.377075</ele>
<time>2010-08-29T12:37:34Z</time>
<desc>lat.=56.070637, lon.=26.459858, Alt.=129.377075m. Speed=3.420000m/h.</desc>
<speed>0.950000</speed>
</trkpt>
<trkpt lat="56.070629" lon="26.459814">
<ele>129.283325</ele>
<time>2010-08-29T12:37:35Z</time>
<desc>lat.=56.070629, lon.=26.459814, Alt.=129.283325m. Speed=3.708000m/h.</desc>
<speed>1.030000</speed>
</trkpt>
<trkpt lat="56.070633" lon="26.459785">
<ele>129.244263</ele>
<time>2010-08-29T12:37:36Z</time>
<desc>lat.=56.070633, lon.=26.459785, Alt.=129.244263m. Speed=3.312000m/h.</desc>
<speed>0.920000</speed>
</trkpt>
<trkpt lat="56.070641" lon="26.459751">
<ele>129.244263</ele>
<time>2010-08-29T12:37:37Z</time>
<desc>lat.=56.070641, lon.=26.459751, Alt.=129.244263m. Speed=3.420000m/h.</desc>
<speed>0.950000</speed>
</trkpt>
<trkpt lat="56.070648" lon="26.459721">
<ele>129.240356</ele>
<time>2010-08-29T12:37:38Z</time>
<desc>lat.=56.070648, lon.=26.459721, Alt.=129.240356m. Speed=3.312000m/h.</desc>
<speed>0.920000</speed>
</trkpt>
<trkpt lat="56.070648" lon="26.459705">
<ele>129.216919</ele>
<time>2010-08-29T12:37:39Z</time>
<desc>lat.=56.070648, lon.=26.459705, Alt.=129.216919m. Speed=2.484000m/h.</desc>
<speed>0.690000</speed>
</trkpt>
<trkpt lat="56.070660" lon="26.459658">
<ele>129.158325</ele>
<time>2010-08-29T12:37:40Z</time>
<desc>lat.=56.070660, lon.=26.459658, Alt.=129.158325m. Speed=2.664000m/h.</desc>
<speed>0.740000</speed>
</trkpt>
<trkpt lat="56.070663" lon="26.459631">
<ele>129.111450</ele>
<time>2010-08-29T12:37:41Z</time>
<desc>lat.=56.070663, lon.=26.459631, Alt.=129.111450m. Speed=2.880000m/h.</desc>
<speed>0.800000</speed>
</trkpt>
<trkpt lat="56.070671" lon="26.459606">
<ele>129.076294</ele>
<time>2010-08-29T12:37:42Z</time>
<desc>lat.=56.070671, lon.=26.459606, Alt.=129.076294m. Speed=2.952000m/h.</desc>
<speed>0.820000</speed>
</trkpt>
<trkpt lat="56.070683" lon="26.459578">
<ele>129.017700</ele>
<time>2010-08-29T12:37:43Z</time>
<desc>lat.=56.070683, lon.=26.459578, Alt.=129.017700m. Speed=2.988000m/h.</desc>
<speed>0.830000</speed>
</trkpt>
<trkpt lat="56.070671" lon="26.459530">
<ele>129.041138</ele>
<time>2010-08-29T12:37:44Z</time>
<desc>lat.=56.070671, lon.=26.459530, Alt.=129.041138m. Speed=2.844000m/h.</desc>
<speed>0.790000</speed>
</trkpt>
<trkpt lat="56.070679" lon="26.459496">
<ele>129.166138</ele>
<time>2010-08-29T12:37:45Z</time>
<desc>lat.=56.070679, lon.=26.459496, Alt.=129.166138m. Speed=3.240000m/h.</desc>
<speed>0.900000</speed>
</trkpt>
<trkpt lat="56.070683" lon="26.459480">
<ele>129.123169</ele>
<time>2010-08-29T12:37:46Z</time>
<desc>lat.=56.070683, lon.=26.459480, Alt.=129.123169m. Speed=2.124000m/h.</desc>
<speed>0.590000</speed>
</trkpt>
<trkpt lat="56.070683" lon="26.459463">
<ele>129.068481</ele>
<time>2010-08-29T12:37:47Z</time>
<desc>lat.=56.070683, lon.=26.459463, Alt.=129.068481m. Speed=2.484000m/h.</desc>
<speed>0.690000</speed>
</trkpt>
<trkpt lat="56.070690" lon="26.459440">
<ele>128.947388</ele>
<time>2010-08-29T12:37:48Z</time>
<desc>lat.=56.070690, lon.=26.459440, Alt.=128.947388m. Speed=2.160000m/h.</desc>
<speed>0.600000</speed>
</trkpt>
<trkpt lat="56.070694" lon="26.459408">
<ele>129.084106</ele>
<time>2010-08-29T12:37:49Z</time>
<desc>lat.=56.070694, lon.=26.459408, Alt.=129.084106m. Speed=2.664000m/h.</desc>
<speed>0.740000</speed>
</trkpt>
<trkpt lat="56.070698" lon="26.459383">
<ele>128.994263</ele>
<time>2010-08-29T12:37:50Z</time>
<desc>lat.=56.070698, lon.=26.459383, Alt.=128.994263m. Speed=2.880000m/h.</desc>
<speed>0.800000</speed>
</trkpt>
<trkpt lat="56.070728" lon="26.459341">
<ele>128.732544</ele>
<time>2010-08-29T12:37:51Z</time>
<desc>lat.=56.070728, lon.=26.459341, Alt.=128.732544m. Speed=2.340000m/h.</desc>
<speed>0.650000</speed>
</trkpt>
<trkpt lat="56.070736" lon="26.459314">
<ele>128.728638</ele>
<time>2010-08-29T12:37:52Z</time>
<desc>lat.=56.070736, lon.=26.459314, Alt.=128.728638m. Speed=2.196000m/h.</desc>
<speed>0.610000</speed>
</trkpt>
<trkpt lat="56.070744" lon="26.459293">
<ele>128.584106</ele>
<time>2010-08-29T12:37:53Z</time>
<desc>lat.=56.070744, lon.=26.459293, Alt.=128.584106m. Speed=2.196000m/h.</desc>
<speed>0.610000</speed>
</trkpt>
<trkpt lat="56.070751" lon="26.459272">
<ele>128.509888</ele>
<time>2010-08-29T12:37:54Z</time>
<desc>lat.=56.070751, lon.=26.459272, Alt.=128.509888m. Speed=3.240000m/h.</desc>
<speed>0.900000</speed>
</trkpt>
<trkpt lat="56.070751" lon="26.459255">
<ele>128.427856</ele>
<time>2010-08-29T12:37:55Z</time>
<desc>lat.=56.070751, lon.=26.459255, Alt.=128.427856m. Speed=2.808000m/h.</desc>
<speed>0.780000</speed>
</trkpt>
<trkpt lat="56.070751" lon="26.459240">
<ele>128.228638</ele>
<time>2010-08-29T12:37:56Z</time>
<desc>lat.=56.070751, lon.=26.459240, Alt.=128.228638m. Speed=2.700000m/h.</desc>
<speed>0.750000</speed>
</trkpt>
<trkpt lat="56.070744" lon="26.459223">
<ele>128.134888</ele>
<time>2010-08-29T12:37:57Z</time>
<desc>lat.=56.070744, lon.=26.459223, Alt.=128.134888m. Speed=2.520000m/h.</desc>
<speed>0.700000</speed>
</trkpt>
<trkpt lat="56.070744" lon="26.459213">
<ele>128.041138</ele>
<time>2010-08-29T12:37:58Z</time>
<desc>lat.=56.070744, lon.=26.459213, Alt.=128.041138m. Speed=2.052000m/h.</desc>
<speed>0.570000</speed>
</trkpt>
<trkpt lat="56.070740" lon="26.459204">
<ele>127.895569</ele>
<time>2010-08-29T12:37:59Z</time>
<desc>lat.=56.070740, lon.=26.459204, Alt.=127.895569m. Speed=1.728000m/h.</desc>
<speed>0.480000</speed>
</trkpt>
<trkpt lat="56.070744" lon="26.459192">
<ele>127.801819</ele>
<time>2010-08-29T12:38:00Z</time>
<desc>lat.=56.070744, lon.=26.459192, Alt.=127.801819m. Speed=1.620000m/h.</desc>
<speed>0.450000</speed>
</trkpt>
<trkpt lat="56.070755" lon="26.459162">
<ele>127.571350</ele>
<time>2010-08-29T12:38:01Z</time>
<desc>lat.=56.070755, lon.=26.459162, Alt.=127.571350m. Speed=1.692000m/h.</desc>
<speed>0.470000</speed>
</trkpt>
<trkpt lat="56.070751" lon="26.459145">
<ele>127.409241</ele>
<time>2010-08-29T12:38:02Z</time>
<desc>lat.=56.070751, lon.=26.459145, Alt.=127.409241m. Speed=1.620000m/h.</desc>
<speed>0.450000</speed>
</trkpt>
<trkpt lat="56.070751" lon="26.459118">
<ele>127.301819</ele>
<time>2010-08-29T12:38:03Z</time>
<desc>lat.=56.070751, lon.=26.459118, Alt.=127.301819m. Speed=1.692000m/h.</desc>
<speed>0.470000</speed>
</trkpt>
<trkpt lat="56.070751" lon="26.459087">
<ele>127.241272</ele>
<time>2010-08-29T12:38:04Z</time>
<desc>lat.=56.070751, lon.=26.459087, Alt.=127.241272m. Speed=1.800000m/h.</desc>
<speed>0.500000</speed>
</trkpt>
<trkpt lat="56.070759" lon="26.459076">
<ele>126.975647</ele>
<time>2010-08-29T12:38:05Z</time>
<desc>lat.=56.070759, lon.=26.459076, Alt.=126.975647m. Speed=1.548000m/h.</desc>
<speed>0.430000</speed>
</trkpt>
<trkpt lat="56.070763" lon="26.459064">
<ele>126.901428</ele>
<time>2010-08-29T12:38:06Z</time>
<desc>lat.=56.070763, lon.=26.459064, Alt.=126.901428m. Speed=1.512000m/h.</desc>
<speed>0.420000</speed>
</trkpt>
<trkpt lat="56.070763" lon="26.459053">
<ele>126.881897</ele>
<time>2010-08-29T12:38:07Z</time>
<desc>lat.=56.070763, lon.=26.459053, Alt.=126.881897m. Speed=1.476000m/h.</desc>
<speed>0.410000</speed>
</trkpt>
<trkpt lat="56.070763" lon="26.459036">
<ele>126.758850</ele>
<time>2010-08-29T12:38:08Z</time>
<desc>lat.=56.070763, lon.=26.459036, Alt.=126.758850m. Speed=1.548000m/h.</desc>
<speed>0.430000</speed>
</trkpt>
<trkpt lat="56.070759" lon="26.459011">
<ele>126.460022</ele>
<time>2010-08-29T12:38:09Z</time>
<desc>lat.=56.070759, lon.=26.459011, Alt.=126.460022m. Speed=1.620000m/h.</desc>
<speed>0.450000</speed>
</trkpt>
<trkpt lat="56.070766" lon="26.458988">
<ele>126.194397</ele>
<time>2010-08-29T12:38:10Z</time>
<desc>lat.=56.070766, lon.=26.458988, Alt.=126.194397m. Speed=1.764000m/h.</desc>
<speed>0.490000</speed>
</trkpt>
<trkpt lat="56.070763" lon="26.458969">
<ele>125.965881</ele>
<time>2010-08-29T12:38:11Z</time>
<desc>lat.=56.070763, lon.=26.458969, Alt.=125.965881m. Speed=1.800000m/h.</desc>
<speed>0.500000</speed>
</trkpt>
<trkpt lat="56.070759" lon="26.458954">
<ele>125.762756</ele>
<time>2010-08-29T12:38:12Z</time>
<desc>lat.=56.070759, lon.=26.458954, Alt.=125.762756m. Speed=1.944000m/h.</desc>
<speed>0.540000</speed>
</trkpt>
<trkpt lat="56.070751" lon="26.458933">
<ele>125.696350</ele>
<time>2010-08-29T12:38:13Z</time>
<desc>lat.=56.070751, lon.=26.458933, Alt.=125.696350m. Speed=2.088000m/h.</desc>
<speed>0.580000</speed>
</trkpt>
<trkpt lat="56.070759" lon="26.458910">
<ele>125.399475</ele>
<time>2010-08-29T12:38:14Z</time>
<desc>lat.=56.070759, lon.=26.458910, Alt.=125.399475m. Speed=1.836000m/h.</desc>
<speed>0.510000</speed>
</trkpt>
<trkpt lat="56.070755" lon="26.458893">
<ele>125.178772</ele>
<time>2010-08-29T12:38:15Z</time>
<desc>lat.=56.070755, lon.=26.458893, Alt.=125.178772m. Speed=1.872000m/h.</desc>
<speed>0.520000</speed>
</trkpt>
<trkpt lat="56.070747" lon="26.458874">
<ele>124.967834</ele>
<time>2010-08-29T12:38:16Z</time>
<desc>lat.=56.070747, lon.=26.458874, Alt.=124.967834m. Speed=2.016000m/h.</desc>
<speed>0.560000</speed>
</trkpt>
<trkpt lat="56.070751" lon="26.458851">
<ele>124.743225</ele>
<time>2010-08-29T12:38:17Z</time>
<desc>lat.=56.070751, lon.=26.458851, Alt.=124.743225m. Speed=2.124000m/h.</desc>
<speed>0.590000</speed>
</trkpt>
<trkpt lat="56.070747" lon="26.458828">
<ele>124.370178</ele>
<time>2010-08-29T12:38:18Z</time>
<desc>lat.=56.070747, lon.=26.458828, Alt.=124.370178m. Speed=2.088000m/h.</desc>
<speed>0.580000</speed>
</trkpt>
<trkpt lat="56.070747" lon="26.458818">
<ele>124.241272</ele>
<time>2010-08-29T12:38:19Z</time>
<desc>lat.=56.070747, lon.=26.458818, Alt.=124.241272m. Speed=1.944000m/h.</desc>
<speed>0.540000</speed>
</trkpt>
<trkpt lat="56.070744" lon="26.458811">
<ele>124.104553</ele>
<time>2010-08-29T12:38:20Z</time>
<desc>lat.=56.070744, lon.=26.458811, Alt.=124.104553m. Speed=1.872000m/h.</desc>
<speed>0.520000</speed>
</trkpt>
<trkpt lat="56.070744" lon="26.458799">
<ele>123.952209</ele>
<time>2010-08-29T12:38:21Z</time>
<desc>lat.=56.070744, lon.=26.458799, Alt.=123.952209m. Speed=1.908000m/h.</desc>
<speed>0.530000</speed>
</trkpt>
<trkpt lat="56.070732" lon="26.458778">
<ele>123.698303</ele>
<time>2010-08-29T12:38:22Z</time>
<desc>lat.=56.070732, lon.=26.458778, Alt.=123.698303m. Speed=2.052000m/h.</desc>
<speed>0.570000</speed>
</trkpt>
<trkpt lat="56.070721" lon="26.458759">
<ele>123.504944</ele>
<time>2010-08-29T12:38:23Z</time>
<desc>lat.=56.070721, lon.=26.458759, Alt.=123.504944m. Speed=2.232000m/h.</desc>
<speed>0.620000</speed>
</trkpt>
<trkpt lat="56.070713" lon="26.458750">
<ele>123.366272</ele>
<time>2010-08-29T12:38:24Z</time>
<desc>lat.=56.070713, lon.=26.458750, Alt.=123.366272m. Speed=2.268000m/h.</desc>
<speed>0.630000</speed>
</trkpt>
<trkpt lat="56.070709" lon="26.458736">
<ele>123.247131</ele>
<time>2010-08-29T12:38:25Z</time>
<desc>lat.=56.070709, lon.=26.458736, Alt.=123.247131m. Speed=2.196000m/h.</desc>
<speed>0.610000</speed>
</trkpt>
<trkpt lat="56.070702" lon="26.458721">
<ele>123.131897</ele>
<time>2010-08-29T12:38:26Z</time>
<desc>lat.=56.070702, lon.=26.458721, Alt.=123.131897m. Speed=2.304000m/h.</desc>
<speed>0.640000</speed>
</trkpt>
<trkpt lat="56.070698" lon="26.458708">
<ele>123.049866</ele>
<time>2010-08-29T12:38:27Z</time>
<desc>lat.=56.070698, lon.=26.458708, Alt.=123.049866m. Speed=2.016000m/h.</desc>
<speed>0.560000</speed>
</trkpt>
<trkpt lat="56.070694" lon="26.458700">
<ele>122.938538</ele>
<time>2010-08-29T12:38:28Z</time>
<desc>lat.=56.070694, lon.=26.458700, Alt.=122.938538m. Speed=1.800000m/h.</desc>
<speed>0.500000</speed>
</trkpt>
<trkpt lat="56.070690" lon="26.458693">
<ele>122.770569</ele>
<time>2010-08-29T12:38:29Z</time>
<desc>lat.=56.070690, lon.=26.458693, Alt.=122.770569m. Speed=1.584000m/h.</desc>
<speed>0.440000</speed>
</trkpt>
<trkpt lat="56.070686" lon="26.458683">
<ele>122.631897</ele>
<time>2010-08-29T12:38:30Z</time>
<desc>lat.=56.070686, lon.=26.458683, Alt.=122.631897m. Speed=1.584000m/h.</desc>
<speed>0.440000</speed>
</trkpt>
<trkpt lat="56.070675" lon="26.458670">
<ele>122.526428</ele>
<time>2010-08-29T12:38:31Z</time>
<desc>lat.=56.070675, lon.=26.458670, Alt.=122.526428m. Speed=1.548000m/h.</desc>
<speed>0.430000</speed>
</trkpt>
<trkpt lat="56.070667" lon="26.458664">
<ele>122.393616</ele>
<time>2010-08-29T12:38:32Z</time>
<desc>lat.=56.070667, lon.=26.458664, Alt.=122.393616m. Speed=1.620000m/h.</desc>
<speed>0.450000</speed>
</trkpt>
<trkpt lat="56.070660" lon="26.458660">
<ele>122.129944</ele>
<time>2010-08-29T12:38:33Z</time>
<desc>lat.=56.070660, lon.=26.458660, Alt.=122.129944m. Speed=1.548000m/h.</desc>
<speed>0.430000</speed>
</trkpt>
<trkpt lat="56.070652" lon="26.458641">
<ele>121.954163</ele>
<time>2010-08-29T12:38:34Z</time>
<desc>lat.=56.070652, lon.=26.458641, Alt.=121.954163m. Speed=1.764000m/h.</desc>
<speed>0.490000</speed>
</trkpt>
<trkpt lat="56.070648" lon="26.458614">
<ele>121.805725</ele>
<time>2010-08-29T12:38:35Z</time>
<desc>lat.=56.070648, lon.=26.458614, Alt.=121.805725m. Speed=1.908000m/h.</desc>
<speed>0.530000</speed>
</trkpt>
<trkpt lat="56.070648" lon="26.458603">
<ele>121.626038</ele>
<time>2010-08-29T12:38:36Z</time>
<desc>lat.=56.070648, lon.=26.458603, Alt.=121.626038m. Speed=1.908000m/h.</desc>
<speed>0.530000</speed>
</trkpt>
<trkpt lat="56.070641" lon="26.458584">
<ele>121.442444</ele>
<time>2010-08-29T12:38:37Z</time>
<desc>lat.=56.070641, lon.=26.458584, Alt.=121.442444m. Speed=2.052000m/h.</desc>
<speed>0.570000</speed>
</trkpt>
<trkpt lat="56.070633" lon="26.458574">
<ele>121.301819</ele>
<time>2010-08-29T12:38:38Z</time>
<desc>lat.=56.070633, lon.=26.458574, Alt.=121.301819m. Speed=2.088000m/h.</desc>
<speed>0.580000</speed>
</trkpt>
<trkpt lat="56.070637" lon="26.458557">
<ele>121.077209</ele>
<time>2010-08-29T12:38:39Z</time>
<desc>lat.=56.070637, lon.=26.458557, Alt.=121.077209m. Speed=1.980000m/h.</desc>
<speed>0.550000</speed>
</trkpt>
<trkpt lat="56.070633" lon="26.458532">
<ele>120.901428</ele>
<time>2010-08-29T12:38:40Z</time>
<desc>lat.=56.070633, lon.=26.458532, Alt.=120.901428m. Speed=2.268000m/h.</desc>
<speed>0.630000</speed>
</trkpt>
<trkpt lat="56.070629" lon="26.458521">
<ele>120.756897</ele>
<time>2010-08-29T12:38:41Z</time>
<desc>lat.=56.070629, lon.=26.458521, Alt.=120.756897m. Speed=1.908000m/h.</desc>
<speed>0.530000</speed>
</trkpt>
<trkpt lat="56.070629" lon="26.458490">
<ele>120.506897</ele>
<time>2010-08-29T12:38:42Z</time>
<desc>lat.=56.070629, lon.=26.458490, Alt.=120.506897m. Speed=2.268000m/h.</desc>
<speed>0.630000</speed>
</trkpt>
<trkpt lat="56.070610" lon="26.458462">
<ele>120.534241</ele>
<time>2010-08-29T12:38:43Z</time>
<desc>lat.=56.070610, lon.=26.458462, Alt.=120.534241m. Speed=2.844000m/h.</desc>
<speed>0.790000</speed>
</trkpt>
<trkpt lat="56.070599" lon="26.458447">
<ele>120.434631</ele>
<time>2010-08-29T12:38:44Z</time>
<desc>lat.=56.070599, lon.=26.458447, Alt.=120.434631m. Speed=3.168000m/h.</desc>
<speed>0.880000</speed>
</trkpt>
<trkpt lat="56.070591" lon="26.458448">
<ele>120.377991</ele>
<time>2010-08-29T12:38:45Z</time>
<desc>lat.=56.070591, lon.=26.458448, Alt.=120.377991m. Speed=3.060000m/h.</desc>
<speed>0.850000</speed>
</trkpt>
<trkpt lat="56.070583" lon="26.458447">
<ele>120.301819</ele>
<time>2010-08-29T12:38:46Z</time>
<desc>lat.=56.070583, lon.=26.458447, Alt.=120.301819m. Speed=2.772000m/h.</desc>
<speed>0.770000</speed>
</trkpt>
<trkpt lat="56.070568" lon="26.458424">
<ele>120.325256</ele>
<time>2010-08-29T12:38:47Z</time>
<desc>lat.=56.070568, lon.=26.458424, Alt.=120.325256m. Speed=2.196000m/h.</desc>
<speed>0.610000</speed>
</trkpt>
<trkpt lat="56.070557" lon="26.458420">
<ele>120.245178</ele>
<time>2010-08-29T12:38:48Z</time>
<desc>lat.=56.070557, lon.=26.458420, Alt.=120.245178m. Speed=2.196000m/h.</desc>
<speed>0.610000</speed>
</trkpt>
<trkpt lat="56.070557" lon="26.458405">
<ele>120.518616</ele>
<time>2010-08-29T12:38:49Z</time>
<desc>lat.=56.070557, lon.=26.458405, Alt.=120.518616m. Speed=1.224000m/h.</desc>
<speed>0.340000</speed>
</trkpt>
<trkpt lat="56.070549" lon="26.458384">
<ele>120.419006</ele>
<time>2010-08-29T12:38:50Z</time>
<desc>lat.=56.070549, lon.=26.458384, Alt.=120.419006m. Speed=1.044000m/h.</desc>
<speed>0.290000</speed>
</trkpt>
<trkpt lat="56.070545" lon="26.458380">
<ele>120.364319</ele>
<time>2010-08-29T12:38:51Z</time>
<desc>lat.=56.070545, lon.=26.458380, Alt.=120.364319m. Speed=1.116000m/h.</desc>
<speed>0.310000</speed>
</trkpt>
<trkpt lat="56.070530" lon="26.458380">
<ele>120.227600</ele>
<time>2010-08-29T12:38:52Z</time>
<desc>lat.=56.070530, lon.=26.458380, Alt.=120.227600m. Speed=2.232000m/h.</desc>
<speed>0.620000</speed>
</trkpt>
<trkpt lat="56.070518" lon="26.458368">
<ele>120.149475</ele>
<time>2010-08-29T12:38:53Z</time>
<desc>lat.=56.070518, lon.=26.458368, Alt.=120.149475m. Speed=3.132000m/h.</desc>
<speed>0.870000</speed>
</trkpt>
<trkpt lat="56.070511" lon="26.458357">
<ele>120.079163</ele>
<time>2010-08-29T12:38:54Z</time>
<desc>lat.=56.070511, lon.=26.458357, Alt.=120.079163m. Speed=3.096000m/h.</desc>
<speed>0.860000</speed>
</trkpt>
<trkpt lat="56.070503" lon="26.458349">
<ele>120.016663</ele>
<time>2010-08-29T12:38:55Z</time>
<desc>lat.=56.070503, lon.=26.458349, Alt.=120.016663m. Speed=2.844000m/h.</desc>
<speed>0.790000</speed>
</trkpt>
<trkpt lat="56.070492" lon="26.458344">
<ele>119.897522</ele>
<time>2010-08-29T12:38:56Z</time>
<desc>lat.=56.070492, lon.=26.458344, Alt.=119.897522m. Speed=2.772000m/h.</desc>
<speed>0.770000</speed>
</trkpt>
<trkpt lat="56.070484" lon="26.458332">
<ele>119.797913</ele>
<time>2010-08-29T12:38:57Z</time>
<desc>lat.=56.070484, lon.=26.458332, Alt.=119.797913m. Speed=2.952000m/h.</desc>
<speed>0.820000</speed>
</trkpt>
<trkpt lat="56.070473" lon="26.458321">
<ele>119.641663</ele>
<time>2010-08-29T12:38:58Z</time>
<desc>lat.=56.070473, lon.=26.458321, Alt.=119.641663m. Speed=2.628000m/h.</desc>
<speed>0.730000</speed>
</trkpt>
<trkpt lat="56.070469" lon="26.458313">
<ele>119.516663</ele>
<time>2010-08-29T12:38:59Z</time>
<desc>lat.=56.070469, lon.=26.458313, Alt.=119.516663m. Speed=2.448000m/h.</desc>
<speed>0.680000</speed>
</trkpt>
<trkpt lat="56.070457" lon="26.458309">
<ele>119.454163</ele>
<time>2010-08-29T12:39:00Z</time>
<desc>lat.=56.070457, lon.=26.458309, Alt.=119.454163m. Speed=2.736000m/h.</desc>
<speed>0.760000</speed>
</trkpt>
<trkpt lat="56.070438" lon="26.458311">
<ele>119.176819</ele>
<time>2010-08-29T12:39:01Z</time>
<desc>lat.=56.070438, lon.=26.458311, Alt.=119.176819m. Speed=2.808000m/h.</desc>
<speed>0.780000</speed>
</trkpt>
<trkpt lat="56.070431" lon="26.458336">
<ele>118.872131</ele>
<time>2010-08-29T12:39:02Z</time>
<desc>lat.=56.070431, lon.=26.458336, Alt.=118.872131m. Speed=2.412000m/h.</desc>
<speed>0.670000</speed>
</trkpt>
<trkpt lat="56.070419" lon="26.458336">
<ele>118.764709</ele>
<time>2010-08-29T12:39:03Z</time>
<desc>lat.=56.070419, lon.=26.458336, Alt.=118.764709m. Speed=2.232000m/h.</desc>
<speed>0.620000</speed>
</trkpt>
<trkpt lat="56.070408" lon="26.458340">
<ele>118.651428</ele>
<time>2010-08-29T12:39:04Z</time>
<desc>lat.=56.070408, lon.=26.458340, Alt.=118.651428m. Speed=2.124000m/h.</desc>
<speed>0.590000</speed>
</trkpt>
<trkpt lat="56.070408" lon="26.458330">
<ele>118.442444</ele>
<time>2010-08-29T12:39:05Z</time>
<desc>lat.=56.070408, lon.=26.458330, Alt.=118.442444m. Speed=1.764000m/h.</desc>
<speed>0.490000</speed>
</trkpt>
<trkpt lat="56.070404" lon="26.458311">
<ele>118.420959</ele>
<time>2010-08-29T12:39:06Z</time>
<desc>lat.=56.070404, lon.=26.458311, Alt.=118.420959m. Speed=1.440000m/h.</desc>
<speed>0.400000</speed>
</trkpt>
<trkpt lat="56.070370" lon="26.458286">
<ele>118.065491</ele>
<time>2010-08-29T12:39:07Z</time>
<desc>lat.=56.070370, lon.=26.458286, Alt.=118.065491m. Speed=1.692000m/h.</desc>
<speed>0.470000</speed>
</trkpt>
<trkpt lat="56.070343" lon="26.458284">
<ele>117.411194</ele>
<time>2010-08-29T12:39:08Z</time>
<desc>lat.=56.070343, lon.=26.458284, Alt.=117.411194m. Speed=1.692000m/h.</desc>
<speed>0.470000</speed>
</trkpt>
<trkpt lat="56.070328" lon="26.458271">
<ele>116.977600</ele>
<time>2010-08-29T12:39:09Z</time>
<desc>lat.=56.070328, lon.=26.458271, Alt.=116.977600m. Speed=1.584000m/h.</desc>
<speed>0.440000</speed>
</trkpt>
<trkpt lat="56.070313" lon="26.458242">
<ele>117.454163</ele>
<time>2010-08-29T12:39:10Z</time>
<desc>lat.=56.070313, lon.=26.458242, Alt.=117.454163m. Speed=1.512000m/h.</desc>
<speed>0.420000</speed>
</trkpt>
<trkpt lat="56.070301" lon="26.458248">
<ele>117.419006</ele>
<time>2010-08-29T12:39:11Z</time>
<desc>lat.=56.070301, lon.=26.458248, Alt.=117.419006m. Speed=1.548000m/h.</desc>
<speed>0.430000</speed>
</trkpt>
<trkpt lat="56.070297" lon="26.458250">
<ele>117.526428</ele>
<time>2010-08-29T12:39:12Z</time>
<desc>lat.=56.070297, lon.=26.458250, Alt.=117.526428m. Speed=1.584000m/h.</desc>
<speed>0.440000</speed>
</trkpt>
<trkpt lat="56.070290" lon="26.458248">
<ele>117.385803</ele>
<time>2010-08-29T12:39:13Z</time>
<desc>lat.=56.070290, lon.=26.458248, Alt.=117.385803m. Speed=1.656000m/h.</desc>
<speed>0.460000</speed>
</trkpt>
<trkpt lat="56.070286" lon="26.458248">
<ele>117.354553</ele>
<time>2010-08-29T12:39:14Z</time>
<desc>lat.=56.070286, lon.=26.458248, Alt.=117.354553m. Speed=1.692000m/h.</desc>
<speed>0.470000</speed>
</trkpt>
<trkpt lat="56.070274" lon="26.458250">
<ele>116.919006</ele>
<time>2010-08-29T12:39:15Z</time>
<desc>lat.=56.070274, lon.=26.458250, Alt.=116.919006m. Speed=2.016000m/h.</desc>
<speed>0.560000</speed>
</trkpt>
<trkpt lat="56.070259" lon="26.458269">
<ele>116.547913</ele>
<time>2010-08-29T12:39:16Z</time>
<desc>lat.=56.070259, lon.=26.458269, Alt.=116.547913m. Speed=1.944000m/h.</desc>
<speed>0.540000</speed>
</trkpt>
<trkpt lat="56.070240" lon="26.458265">
<ele>116.182678</ele>
<time>2010-08-29T12:39:17Z</time>
<desc>lat.=56.070240, lon.=26.458265, Alt.=116.182678m. Speed=2.304000m/h.</desc>
<speed>0.640000</speed>
</trkpt>
<trkpt lat="56.070232" lon="26.458263">
<ele>116.016663</ele>
<time>2010-08-29T12:39:18Z</time>
<desc>lat.=56.070232, lon.=26.458263, Alt.=116.016663m. Speed=2.268000m/h.</desc>
<speed>0.630000</speed>
</trkpt>
<trkpt lat="56.070225" lon="26.458265">
<ele>115.926819</ele>
<time>2010-08-29T12:39:19Z</time>
<desc>lat.=56.070225, lon.=26.458265, Alt.=115.926819m. Speed=2.088000m/h.</desc>
<speed>0.580000</speed>
</trkpt>
<trkpt lat="56.070210" lon="26.458261">
<ele>115.842834</ele>
<time>2010-08-29T12:39:20Z</time>
<desc>lat.=56.070210, lon.=26.458261, Alt.=115.842834m. Speed=3.240000m/h.</desc>
<speed>0.900000</speed>
</trkpt>
<trkpt lat="56.070202" lon="26.458261">
<ele>115.428772</ele>
<time>2010-08-29T12:39:21Z</time>
<desc>lat.=56.070202, lon.=26.458261, Alt.=115.428772m. Speed=3.276000m/h.</desc>
<speed>0.910000</speed>
</trkpt>
<trkpt lat="56.070190" lon="26.458260">
<ele>115.348694</ele>
<time>2010-08-29T12:39:22Z</time>
<desc>lat.=56.070190, lon.=26.458260, Alt.=115.348694m. Speed=3.276000m/h.</desc>
<speed>0.910000</speed>
</trkpt>
<trkpt lat="56.070171" lon="26.458267">
<ele>115.133850</ele>
<time>2010-08-29T12:39:23Z</time>
<desc>lat.=56.070171, lon.=26.458267, Alt.=115.133850m. Speed=3.456000m/h.</desc>
<speed>0.960000</speed>
</trkpt>
<trkpt lat="56.070168" lon="26.458265">
<ele>114.784241</ele>
<time>2010-08-29T12:39:24Z</time>
<desc>lat.=56.070168, lon.=26.458265, Alt.=114.784241m. Speed=2.520000m/h.</desc>
<speed>0.700000</speed>
</trkpt>
<trkpt lat="56.070160" lon="26.458265">
<ele>114.301819</ele>
<time>2010-08-29T12:39:25Z</time>
<desc>lat.=56.070160, lon.=26.458265, Alt.=114.301819m. Speed=2.340000m/h.</desc>
<speed>0.650000</speed>
</trkpt>
<trkpt lat="56.070156" lon="26.458261">
<ele>114.206116</ele>
<time>2010-08-29T12:39:26Z</time>
<desc>lat.=56.070156, lon.=26.458261, Alt.=114.206116m. Speed=2.088000m/h.</desc>
<speed>0.580000</speed>
</trkpt>
<trkpt lat="56.070145" lon="26.458263">
<ele>113.879944</ele>
<time>2010-08-29T12:39:27Z</time>
<desc>lat.=56.070145, lon.=26.458263, Alt.=113.879944m. Speed=2.052000m/h.</desc>
<speed>0.570000</speed>
</trkpt>
<trkpt lat="56.070156" lon="26.458260">
<ele>113.629944</ele>
<time>2010-08-29T12:39:28Z</time>
<desc>lat.=56.070156, lon.=26.458260, Alt.=113.629944m. Speed=1.332000m/h.</desc>
<speed>0.370000</speed>
</trkpt>
<trkpt lat="56.070156" lon="26.458256">
<ele>113.516663</ele>
<time>2010-08-29T12:39:29Z</time>
<desc>lat.=56.070156, lon.=26.458256, Alt.=113.516663m. Speed=1.404000m/h.</desc>
<speed>0.390000</speed>
</trkpt>
<trkpt lat="56.070152" lon="26.458239">
<ele>113.915100</ele>
<time>2010-08-29T12:39:30Z</time>
<desc>lat.=56.070152, lon.=26.458239, Alt.=113.915100m. Speed=1.260000m/h.</desc>
<speed>0.350000</speed>
</trkpt>
<trkpt lat="56.070145" lon="26.458229">
<ele>113.747131</ele>
<time>2010-08-29T12:39:31Z</time>
<desc>lat.=56.070145, lon.=26.458229, Alt.=113.747131m. Speed=1.440000m/h.</desc>
<speed>0.400000</speed>
</trkpt>
<trkpt lat="56.070137" lon="26.458227">
<ele>113.643616</ele>
<time>2010-08-29T12:39:32Z</time>
<desc>lat.=56.070137, lon.=26.458227, Alt.=113.643616m. Speed=1.476000m/h.</desc>
<speed>0.410000</speed>
</trkpt>
<trkpt lat="56.070133" lon="26.458229">
<ele>113.559631</ele>
<time>2010-08-29T12:39:33Z</time>
<desc>lat.=56.070133, lon.=26.458229, Alt.=113.559631m. Speed=1.440000m/h.</desc>
<speed>0.400000</speed>
</trkpt>
<trkpt lat="56.070129" lon="26.458221">
<ele>113.395569</ele>
<time>2010-08-29T12:39:34Z</time>
<desc>lat.=56.070129, lon.=26.458221, Alt.=113.395569m. Speed=1.440000m/h.</desc>
<speed>0.400000</speed>
</trkpt>
<trkpt lat="56.070091" lon="26.458195">
<ele>112.586975</ele>
<time>2010-08-29T12:39:35Z</time>
<desc>lat.=56.070091, lon.=26.458195, Alt.=112.586975m. Speed=1.728000m/h.</desc>
<speed>0.480000</speed>
</trkpt>
<trkpt lat="56.070072" lon="26.458185">
<ele>112.198303</ele>
<time>2010-08-29T12:39:36Z</time>
<desc>lat.=56.070072, lon.=26.458185, Alt.=112.198303m. Speed=1.764000m/h.</desc>
<speed>0.490000</speed>
</trkpt>
<trkpt lat="56.070057" lon="26.458176">
<ele>112.112366</ele>
<time>2010-08-29T12:39:37Z</time>
<desc>lat.=56.070057, lon.=26.458176, Alt.=112.112366m. Speed=1.836000m/h.</desc>
<speed>0.510000</speed>
</trkpt>
<trkpt lat="56.070030" lon="26.458153">
<ele>111.604553</ele>
<time>2010-08-29T12:39:38Z</time>
<desc>lat.=56.070030, lon.=26.458153, Alt.=111.604553m. Speed=1.764000m/h.</desc>
<speed>0.490000</speed>
</trkpt>
<trkpt lat="56.070015" lon="26.458143">
<ele>111.290100</ele>
<time>2010-08-29T12:39:39Z</time>
<desc>lat.=56.070015, lon.=26.458143, Alt.=111.290100m. Speed=1.764000m/h.</desc>
<speed>0.490000</speed>
</trkpt>
<trkpt lat="56.070004" lon="26.458136">
<ele>111.116272</ele>
<time>2010-08-29T12:39:40Z</time>
<desc>lat.=56.070004, lon.=26.458136, Alt.=111.116272m. Speed=1.620000m/h.</desc>
<speed>0.450000</speed>
</trkpt>
<trkpt lat="56.069988" lon="26.458149">
<ele>110.717834</ele>
<time>2010-08-29T12:39:41Z</time>
<desc>lat.=56.069988, lon.=26.458149, Alt.=110.717834m. Speed=1.980000m/h.</desc>
<speed>0.550000</speed>
</trkpt>
<trkpt lat="56.069984" lon="26.458153">
<ele>110.715881</ele>
<time>2010-08-29T12:39:42Z</time>
<desc>lat.=56.069984, lon.=26.458153, Alt.=110.715881m. Speed=1.764000m/h.</desc>
<speed>0.490000</speed>
</trkpt>
<trkpt lat="56.069977" lon="26.458151">
<ele>110.635803</ele>
<time>2010-08-29T12:39:43Z</time>
<desc>lat.=56.069977, lon.=26.458151, Alt.=110.635803m. Speed=1.728000m/h.</desc>
<speed>0.480000</speed>
</trkpt>
<trkpt lat="56.069973" lon="26.458155">
<ele>110.356506</ele>
<time>2010-08-29T12:39:44Z</time>
<desc>lat.=56.069973, lon.=26.458155, Alt.=110.356506m. Speed=1.656000m/h.</desc>
<speed>0.460000</speed>
</trkpt>
<trkpt lat="56.069969" lon="26.458155">
<ele>110.204163</ele>
<time>2010-08-29T12:39:45Z</time>
<desc>lat.=56.069969, lon.=26.458155, Alt.=110.204163m. Speed=1.656000m/h.</desc>
<speed>0.460000</speed>
</trkpt>
<trkpt lat="56.069965" lon="26.458155">
<ele>110.231506</ele>
<time>2010-08-29T12:39:46Z</time>
<desc>lat.=56.069965, lon.=26.458155, Alt.=110.231506m. Speed=1.584000m/h.</desc>
<speed>0.440000</speed>
</trkpt>
<trkpt lat="56.069962" lon="26.458153">
<ele>110.288147</ele>
<time>2010-08-29T12:39:47Z</time>
<desc>lat.=56.069962, lon.=26.458153, Alt.=110.288147m. Speed=1.620000m/h.</desc>
<speed>0.450000</speed>
</trkpt>
<trkpt lat="56.069954" lon="26.458155">
<ele>110.094788</ele>
<time>2010-08-29T12:39:48Z</time>
<desc>lat.=56.069954, lon.=26.458155, Alt.=110.094788m. Speed=1.800000m/h.</desc>
<speed>0.500000</speed>
</trkpt>
<trkpt lat="56.069950" lon="26.458157">
<ele>109.975647</ele>
<time>2010-08-29T12:39:49Z</time>
<desc>lat.=56.069950, lon.=26.458157, Alt.=109.975647m. Speed=1.836000m/h.</desc>
<speed>0.510000</speed>
</trkpt>
<trkpt lat="56.069946" lon="26.458160">
<ele>109.889709</ele>
<time>2010-08-29T12:39:50Z</time>
<desc>lat.=56.069946, lon.=26.458160, Alt.=109.889709m. Speed=1.836000m/h.</desc>
<speed>0.510000</speed>
</trkpt>
<trkpt lat="56.069946" lon="26.458170">
<ele>109.071350</ele>
<time>2010-08-29T12:39:51Z</time>
<desc>lat.=56.069946, lon.=26.458170, Alt.=109.071350m. Speed=1.728000m/h.</desc>
<speed>0.480000</speed>
</trkpt>
<trkpt lat="56.069946" lon="26.458181">
<ele>108.913147</ele>
<time>2010-08-29T12:39:52Z</time>
<desc>lat.=56.069946, lon.=26.458181, Alt.=108.913147m. Speed=1.656000m/h.</desc>
<speed>0.460000</speed>
</trkpt>
<trkpt lat="56.069946" lon="26.458191">
<ele>108.836975</ele>
<time>2010-08-29T12:39:53Z</time>
<desc>lat.=56.069946, lon.=26.458191, Alt.=108.836975m. Speed=1.692000m/h.</desc>
<speed>0.470000</speed>
</trkpt>
<trkpt lat="56.069946" lon="26.458183">
<ele>108.469788</ele>
<time>2010-08-29T12:39:54Z</time>
<desc>lat.=56.069946, lon.=26.458183, Alt.=108.469788m. Speed=1.476000m/h.</desc>
<speed>0.410000</speed>
</trkpt>
<trkpt lat="56.069950" lon="26.458187">
<ele>108.135803</ele>
<time>2010-08-29T12:39:55Z</time>
<desc>lat.=56.069950, lon.=26.458187, Alt.=108.135803m. Speed=0.972000m/h.</desc>
<speed>0.270000</speed>
</trkpt>
<trkpt lat="56.069946" lon="26.458193">
<ele>107.920959</ele>
<time>2010-08-29T12:39:56Z</time>
<desc>lat.=56.069946, lon.=26.458193, Alt.=107.920959m. Speed=1.008000m/h.</desc>
<speed>0.280000</speed>
</trkpt>
<trkpt lat="56.069950" lon="26.458189">
<ele>107.776428</ele>
<time>2010-08-29T12:39:57Z</time>
<desc>lat.=56.069950, lon.=26.458189, Alt.=107.776428m. Speed=0.684000m/h.</desc>
<speed>0.190000</speed>
</trkpt>
<trkpt lat="56.069946" lon="26.458204">
<ele>107.911194</ele>
<time>2010-08-29T12:39:58Z</time>
<desc>lat.=56.069946, lon.=26.458204, Alt.=107.911194m. Speed=0.936000m/h.</desc>
<speed>0.260000</speed>
</trkpt>
<trkpt lat="56.069946" lon="26.458208">
<ele>107.780334</ele>
<time>2010-08-29T12:39:59Z</time>
<desc>lat.=56.069946, lon.=26.458208, Alt.=107.780334m. Speed=0.900000m/h.</desc>
<speed>0.250000</speed>
</trkpt>
<trkpt lat="56.069942" lon="26.458210">
<ele>107.649475</ele>
<time>2010-08-29T12:40:00Z</time>
<desc>lat.=56.069942, lon.=26.458210, Alt.=107.649475m. Speed=0.900000m/h.</desc>
<speed>0.250000</speed>
</trkpt>
<trkpt lat="56.069942" lon="26.458214">
<ele>107.524475</ele>
<time>2010-08-29T12:40:01Z</time>
<desc>lat.=56.069942, lon.=26.458214, Alt.=107.524475m. Speed=0.900000m/h.</desc>
<speed>0.250000</speed>
</trkpt>
<trkpt lat="56.069939" lon="26.458216">
<ele>107.403381</ele>
<time>2010-08-29T12:40:02Z</time>
<desc>lat.=56.069939, lon.=26.458216, Alt.=107.403381m. Speed=0.828000m/h.</desc>
<speed>0.230000</speed>
</trkpt>
<trkpt lat="56.069939" lon="26.458218">
<ele>107.288147</ele>
<time>2010-08-29T12:40:03Z</time>
<desc>lat.=56.069939, lon.=26.458218, Alt.=107.288147m. Speed=0.828000m/h.</desc>
<speed>0.230000</speed>
</trkpt>
<trkpt lat="56.069935" lon="26.458220">
<ele>107.186584</ele>
<time>2010-08-29T12:40:04Z</time>
<desc>lat.=56.069935, lon.=26.458220, Alt.=107.186584m. Speed=1.008000m/h.</desc>
<speed>0.280000</speed>
</trkpt>
<trkpt lat="56.069935" lon="26.458221">
<ele>107.100647</ele>
<time>2010-08-29T12:40:05Z</time>
<desc>lat.=56.069935, lon.=26.458221, Alt.=107.100647m. Speed=0.900000m/h.</desc>
<speed>0.250000</speed>
</trkpt>
<trkpt lat="56.069931" lon="26.458223">
<ele>107.020569</ele>
<time>2010-08-29T12:40:06Z</time>
<desc>lat.=56.069931, lon.=26.458223, Alt.=107.020569m. Speed=0.972000m/h.</desc>
<speed>0.270000</speed>
</trkpt>
<trkpt lat="56.069931" lon="26.458227">
<ele>106.940491</ele>
<time>2010-08-29T12:40:07Z</time>
<desc>lat.=56.069931, lon.=26.458227, Alt.=106.940491m. Speed=2.016000m/h.</desc>
<speed>0.560000</speed>
</trkpt>
<trkpt lat="56.069927" lon="26.458231">
<ele>106.868225</ele>
<time>2010-08-29T12:40:08Z</time>
<desc>lat.=56.069927, lon.=26.458231, Alt.=106.868225m. Speed=1.836000m/h.</desc>
<speed>0.510000</speed>
</trkpt>
<trkpt lat="56.069923" lon="26.458220">
<ele>106.944397</ele>
<time>2010-08-29T12:40:09Z</time>
<desc>lat.=56.069923, lon.=26.458220, Alt.=106.944397m. Speed=1.476000m/h.</desc>
<speed>0.410000</speed>
</trkpt>
<trkpt lat="56.069920" lon="26.458210">
<ele>107.174866</ele>
<time>2010-08-29T12:40:10Z</time>
<desc>lat.=56.069920, lon.=26.458210, Alt.=107.174866m. Speed=1.404000m/h.</desc>
<speed>0.390000</speed>
</trkpt>
<trkpt lat="56.069916" lon="26.458197">
<ele>107.231506</ele>
<time>2010-08-29T12:40:11Z</time>
<desc>lat.=56.069916, lon.=26.458197, Alt.=107.231506m. Speed=1.332000m/h.</desc>
<speed>0.370000</speed>
</trkpt>
<trkpt lat="56.069908" lon="26.458172">
<ele>107.840881</ele>
<time>2010-08-29T12:40:12Z</time>
<desc>lat.=56.069908, lon.=26.458172, Alt.=107.840881m. Speed=1.620000m/h.</desc>
<speed>0.450000</speed>
</trkpt>
<trkpt lat="56.069901" lon="26.458164">
<ele>107.995178</ele>
<time>2010-08-29T12:40:13Z</time>
<desc>lat.=56.069901, lon.=26.458164, Alt.=107.995178m. Speed=1.620000m/h.</desc>
<speed>0.450000</speed>
</trkpt>
<trkpt lat="56.069901" lon="26.458162">
<ele>108.344788</ele>
<time>2010-08-29T12:40:14Z</time>
<desc>lat.=56.069901, lon.=26.458162, Alt.=108.344788m. Speed=1.440000m/h.</desc>
<speed>0.400000</speed>
</trkpt>
<trkpt lat="56.069897" lon="26.458166">
<ele>108.727600</ele>
<time>2010-08-29T12:40:15Z</time>
<desc>lat.=56.069897, lon.=26.458166, Alt.=108.727600m. Speed=1.440000m/h.</desc>
<speed>0.400000</speed>
</trkpt>
<trkpt lat="56.069881" lon="26.458168">
<ele>109.210022</ele>
<time>2010-08-29T12:40:16Z</time>
<desc>lat.=56.069881, lon.=26.458168, Alt.=109.210022m. Speed=1.620000m/h.</desc>
<speed>0.450000</speed>
</trkpt>
<trkpt lat="56.069870" lon="26.458166">
<ele>109.331116</ele>
<time>2010-08-29T12:40:17Z</time>
<desc>lat.=56.069870, lon.=26.458166, Alt.=109.331116m. Speed=1.836000m/h.</desc>
<speed>0.510000</speed>
</trkpt>
<trkpt lat="56.069847" lon="26.458145">
<ele>109.854553</ele>
<time>2010-08-29T12:40:18Z</time>
<desc>lat.=56.069847, lon.=26.458145, Alt.=109.854553m. Speed=2.124000m/h.</desc>
<speed>0.590000</speed>
</trkpt>
<trkpt lat="56.069839" lon="26.458143">
<ele>110.085022</ele>
<time>2010-08-29T12:40:19Z</time>
<desc>lat.=56.069839, lon.=26.458143, Alt.=110.085022m. Speed=2.232000m/h.</desc>
<speed>0.620000</speed>
</trkpt>
<trkpt lat="56.069820" lon="26.458138">
<ele>110.096741</ele>
<time>2010-08-29T12:40:20Z</time>
<desc>lat.=56.069820, lon.=26.458138, Alt.=110.096741m. Speed=2.484000m/h.</desc>
<speed>0.690000</speed>
</trkpt>
<trkpt lat="56.069805" lon="26.458136">
<ele>110.303772</ele>
<time>2010-08-29T12:40:21Z</time>
<desc>lat.=56.069805, lon.=26.458136, Alt.=110.303772m. Speed=2.592000m/h.</desc>
<speed>0.720000</speed>
</trkpt>
<trkpt lat="56.069790" lon="26.458126">
<ele>110.284241</ele>
<time>2010-08-29T12:40:22Z</time>
<desc>lat.=56.069790, lon.=26.458126, Alt.=110.284241m. Speed=2.124000m/h.</desc>
<speed>0.590000</speed>
</trkpt>
<trkpt lat="56.069775" lon="26.458118">
<ele>110.840881</ele>
<time>2010-08-29T12:40:23Z</time>
<desc>lat.=56.069775, lon.=26.458118, Alt.=110.840881m. Speed=2.556000m/h.</desc>
<speed>0.710000</speed>
</trkpt>
<trkpt lat="56.069771" lon="26.458115">
<ele>110.948303</ele>
<time>2010-08-29T12:40:24Z</time>
<desc>lat.=56.069771, lon.=26.458115, Alt.=110.948303m. Speed=2.052000m/h.</desc>
<speed>0.570000</speed>
</trkpt>
<trkpt lat="56.069763" lon="26.458107">
<ele>111.241272</ele>
<time>2010-08-29T12:40:25Z</time>
<desc>lat.=56.069763, lon.=26.458107, Alt.=111.241272m. Speed=2.016000m/h.</desc>
<speed>0.560000</speed>
</trkpt>
<trkpt lat="56.069756" lon="26.458111">
<ele>111.563538</ele>
<time>2010-08-29T12:40:26Z</time>
<desc>lat.=56.069756, lon.=26.458111, Alt.=111.563538m. Speed=2.160000m/h.</desc>
<speed>0.600000</speed>
</trkpt>
<trkpt lat="56.069744" lon="26.458107">
<ele>111.684631</ele>
<time>2010-08-29T12:40:27Z</time>
<desc>lat.=56.069744, lon.=26.458107, Alt.=111.684631m. Speed=2.232000m/h.</desc>
<speed>0.620000</speed>
</trkpt>
<trkpt lat="56.069717" lon="26.458128">
<ele>111.829163</ele>
<time>2010-08-29T12:40:28Z</time>
<desc>lat.=56.069717, lon.=26.458128, Alt.=111.829163m. Speed=2.916000m/h.</desc>
<speed>0.810000</speed>
</trkpt>
<trkpt lat="56.069702" lon="26.458126">
<ele>112.360413</ele>
<time>2010-08-29T12:40:29Z</time>
<desc>lat.=56.069702, lon.=26.458126, Alt.=112.360413m. Speed=2.772000m/h.</desc>
<speed>0.770000</speed>
</trkpt>
<trkpt lat="56.069691" lon="26.458118">
<ele>112.868225</ele>
<time>2010-08-29T12:40:30Z</time>
<desc>lat.=56.069691, lon.=26.458118, Alt.=112.868225m. Speed=2.880000m/h.</desc>
<speed>0.800000</speed>
</trkpt>
<trkpt lat="56.069683" lon="26.458111">
<ele>113.051819</ele>
<time>2010-08-29T12:40:31Z</time>
<desc>lat.=56.069683, lon.=26.458111, Alt.=113.051819m. Speed=2.664000m/h.</desc>
<speed>0.740000</speed>
</trkpt>
<trkpt lat="56.069679" lon="26.458096">
<ele>113.327209</ele>
<time>2010-08-29T12:40:32Z</time>
<desc>lat.=56.069679, lon.=26.458096, Alt.=113.327209m. Speed=2.160000m/h.</desc>
<speed>0.600000</speed>
</trkpt>
<trkpt lat="56.069679" lon="26.458090">
<ele>113.538147</ele>
<time>2010-08-29T12:40:33Z</time>
<desc>lat.=56.069679, lon.=26.458090, Alt.=113.538147m. Speed=1.872000m/h.</desc>
<speed>0.520000</speed>
</trkpt>
<trkpt lat="56.069668" lon="26.458078">
<ele>113.504944</ele>
<time>2010-08-29T12:40:34Z</time>
<desc>lat.=56.069668, lon.=26.458078, Alt.=113.504944m. Speed=2.016000m/h.</desc>
<speed>0.560000</speed>
</trkpt>
<trkpt lat="56.069664" lon="26.458069">
<ele>113.530334</ele>
<time>2010-08-29T12:40:35Z</time>
<desc>lat.=56.069664, lon.=26.458069, Alt.=113.530334m. Speed=1.836000m/h.</desc>
<speed>0.510000</speed>
</trkpt>
<trkpt lat="56.069653" lon="26.458055">
<ele>113.729553</ele>
<time>2010-08-29T12:40:36Z</time>
<desc>lat.=56.069653, lon.=26.458055, Alt.=113.729553m. Speed=1.944000m/h.</desc>
<speed>0.540000</speed>
</trkpt>
<trkpt lat="56.069641" lon="26.458044">
<ele>113.780334</ele>
<time>2010-08-29T12:40:37Z</time>
<desc>lat.=56.069641, lon.=26.458044, Alt.=113.780334m. Speed=2.088000m/h.</desc>
<speed>0.580000</speed>
</trkpt>
<trkpt lat="56.069622" lon="26.458052">
<ele>113.606506</ele>
<time>2010-08-29T12:40:38Z</time>
<desc>lat.=56.069622, lon.=26.458052, Alt.=113.606506m. Speed=2.196000m/h.</desc>
<speed>0.610000</speed>
</trkpt>
<trkpt lat="56.069599" lon="26.458035">
<ele>113.176819</ele>
<time>2010-08-29T12:40:39Z</time>
<desc>lat.=56.069599, lon.=26.458035, Alt.=113.176819m. Speed=1.944000m/h.</desc>
<speed>0.540000</speed>
</trkpt>
<trkpt lat="56.069592" lon="26.458023">
<ele>112.772522</ele>
<time>2010-08-29T12:40:40Z</time>
<desc>lat.=56.069592, lon.=26.458023, Alt.=112.772522m. Speed=1.620000m/h.</desc>
<speed>0.450000</speed>
</trkpt>
<trkpt lat="56.069595" lon="26.458027">
<ele>112.440491</ele>
<time>2010-08-29T12:40:41Z</time>
<desc>lat.=56.069595, lon.=26.458027, Alt.=112.440491m. Speed=0.576000m/h.</desc>
<speed>0.160000</speed>
</trkpt>
<trkpt lat="56.069592" lon="26.458021">
<ele>112.266663</ele>
<time>2010-08-29T12:40:42Z</time>
<desc>lat.=56.069592, lon.=26.458021, Alt.=112.266663m. Speed=0.396000m/h.</desc>
<speed>0.110000</speed>
</trkpt>
<trkpt lat="56.069592" lon="26.458015">
<ele>111.876038</ele>
<time>2010-08-29T12:40:43Z</time>
<desc>lat.=56.069592, lon.=26.458015, Alt.=111.876038m. Speed=0.252000m/h.</desc>
<speed>0.070000</speed>
</trkpt>
<trkpt lat="56.069592" lon="26.458010">
<ele>111.874084</ele>
<time>2010-08-29T12:40:44Z</time>
<desc>lat.=56.069592, lon.=26.458010, Alt.=111.874084m. Speed=0.216000m/h.</desc>
<speed>0.060000</speed>
</trkpt>
<trkpt lat="56.069592" lon="26.458012">
<ele>111.905334</ele>
<time>2010-08-29T12:40:45Z</time>
<desc>lat.=56.069592, lon.=26.458012, Alt.=111.905334m. Speed=0.540000m/h.</desc>
<speed>0.150000</speed>
</trkpt>
<trkpt lat="56.069592" lon="26.458014">
<ele>111.934631</ele>
<time>2010-08-29T12:40:46Z</time>
<desc>lat.=56.069592, lon.=26.458014, Alt.=111.934631m. Speed=0.324000m/h.</desc>
<speed>0.090000</speed>
</trkpt>
<trkpt lat="56.069592" lon="26.458014">
<ele>111.971741</ele>
<time>2010-08-29T12:40:47Z</time>
<desc>lat.=56.069592, lon.=26.458014, Alt.=111.971741m. Speed=0.144000m/h.</desc>
<speed>0.040000</speed>
</trkpt>
<trkpt lat="56.069592" lon="26.458012">
<ele>112.014709</ele>
<time>2010-08-29T12:40:48Z</time>
<desc>lat.=56.069592, lon.=26.458012, Alt.=112.014709m. Speed=0.216000m/h.</desc>
<speed>0.060000</speed>
</trkpt>
<trkpt lat="56.069592" lon="26.458012">
<ele>112.059631</ele>
<time>2010-08-29T12:40:49Z</time>
<desc>lat.=56.069592, lon.=26.458012, Alt.=112.059631m. Speed=0.432000m/h.</desc>
<speed>0.120000</speed>
</trkpt>
<trkpt lat="56.069588" lon="26.458012">
<ele>112.110413</ele>
<time>2010-08-29T12:40:50Z</time>
<desc>lat.=56.069588, lon.=26.458012, Alt.=112.110413m. Speed=0.468000m/h.</desc>
<speed>0.130000</speed>
</trkpt>
<trkpt lat="56.069588" lon="26.458012">
<ele>112.161194</ele>
<time>2010-08-29T12:40:51Z</time>
<desc>lat.=56.069588, lon.=26.458012, Alt.=112.161194m. Speed=0.468000m/h.</desc>
<speed>0.130000</speed>
</trkpt>
<trkpt lat="56.069588" lon="26.458012">
<ele>112.211975</ele>
<time>2010-08-29T12:40:52Z</time>
<desc>lat.=56.069588, lon.=26.458012, Alt.=112.211975m. Speed=0.432000m/h.</desc>
<speed>0.120000</speed>
</trkpt>
<trkpt lat="56.069588" lon="26.458012">
<ele>112.262756</ele>
<time>2010-08-29T12:40:53Z</time>
<desc>lat.=56.069588, lon.=26.458012, Alt.=112.262756m. Speed=0.432000m/h.</desc>
<speed>0.120000</speed>
</trkpt>
<trkpt lat="56.069584" lon="26.458010">
<ele>112.319397</ele>
<time>2010-08-29T12:40:54Z</time>
<desc>lat.=56.069584, lon.=26.458010, Alt.=112.319397m. Speed=0.756000m/h.</desc>
<speed>0.210000</speed>
</trkpt>
<trkpt lat="56.069584" lon="26.458006">
<ele>112.366272</ele>
<time>2010-08-29T12:40:55Z</time>
<desc>lat.=56.069584, lon.=26.458006, Alt.=112.366272m. Speed=0.612000m/h.</desc>
<speed>0.170000</speed>
</trkpt>
<trkpt lat="56.069584" lon="26.458004">
<ele>112.411194</ele>
<time>2010-08-29T12:40:56Z</time>
<desc>lat.=56.069584, lon.=26.458004, Alt.=112.411194m. Speed=0.792000m/h.</desc>
<speed>0.220000</speed>
</trkpt>
<trkpt lat="56.069580" lon="26.458002">
<ele>112.446350</ele>
<time>2010-08-29T12:40:57Z</time>
<desc>lat.=56.069580, lon.=26.458002, Alt.=112.446350m. Speed=1.800000m/h.</desc>
<speed>0.500000</speed>
</trkpt>
<trkpt lat="56.069565" lon="26.458004">
<ele>112.684631</ele>
<time>2010-08-29T12:40:58Z</time>
<desc>lat.=56.069565, lon.=26.458004, Alt.=112.684631m. Speed=1.836000m/h.</desc>
<speed>0.510000</speed>
</trkpt>
<trkpt lat="56.069561" lon="26.457991">
<ele>112.790100</ele>
<time>2010-08-29T12:40:59Z</time>
<desc>lat.=56.069561, lon.=26.457991, Alt.=112.790100m. Speed=1.836000m/h.</desc>
<speed>0.510000</speed>
</trkpt>
<trkpt lat="56.069557" lon="26.457979">
<ele>112.917053</ele>
<time>2010-08-29T12:41:00Z</time>
<desc>lat.=56.069557, lon.=26.457979, Alt.=112.917053m. Speed=1.872000m/h.</desc>
<speed>0.520000</speed>
</trkpt>
<trkpt lat="56.069553" lon="26.457964">
<ele>113.161194</ele>
<time>2010-08-29T12:41:01Z</time>
<desc>lat.=56.069553, lon.=26.457964, Alt.=113.161194m. Speed=1.800000m/h.</desc>
<speed>0.500000</speed>
</trkpt>
<trkpt lat="56.069546" lon="26.457956">
<ele>113.319397</ele>
<time>2010-08-29T12:41:02Z</time>
<desc>lat.=56.069546, lon.=26.457956, Alt.=113.319397m. Speed=2.556000m/h.</desc>
<speed>0.710000</speed>
</trkpt>
<trkpt lat="56.069542" lon="26.457945">
<ele>113.338928</ele>
<time>2010-08-29T12:41:03Z</time>
<desc>lat.=56.069542, lon.=26.457945, Alt.=113.338928m. Speed=2.304000m/h.</desc>
<speed>0.640000</speed>
</trkpt>
<trkpt lat="56.069534" lon="26.457932">
<ele>113.551819</ele>
<time>2010-08-29T12:41:04Z</time>
<desc>lat.=56.069534, lon.=26.457932, Alt.=113.551819m. Speed=2.520000m/h.</desc>
<speed>0.700000</speed>
</trkpt>
<trkpt lat="56.069527" lon="26.457912">
<ele>113.866272</ele>
<time>2010-08-29T12:41:05Z</time>
<desc>lat.=56.069527, lon.=26.457912, Alt.=113.866272m. Speed=2.088000m/h.</desc>
<speed>0.580000</speed>
</trkpt>
<trkpt lat="56.069508" lon="26.457888">
<ele>114.430725</ele>
<time>2010-08-29T12:41:06Z</time>
<desc>lat.=56.069508, lon.=26.457888, Alt.=114.430725m. Speed=2.772000m/h.</desc>
<speed>0.770000</speed>
</trkpt>
<trkpt lat="56.069500" lon="26.457869">
<ele>114.485413</ele>
<time>2010-08-29T12:41:07Z</time>
<desc>lat.=56.069500, lon.=26.457869, Alt.=114.485413m. Speed=2.592000m/h.</desc>
<speed>0.720000</speed>
</trkpt>
<trkpt lat="56.069492" lon="26.457857">
<ele>114.756897</ele>
<time>2010-08-29T12:41:08Z</time>
<desc>lat.=56.069492, lon.=26.457857, Alt.=114.756897m. Speed=2.304000m/h.</desc>
<speed>0.640000</speed>
</trkpt>
<trkpt lat="56.069473" lon="26.457853">
<ele>115.022522</ele>
<time>2010-08-29T12:41:09Z</time>
<desc>lat.=56.069473, lon.=26.457853, Alt.=115.022522m. Speed=2.628000m/h.</desc>
<speed>0.730000</speed>
</trkpt>
<trkpt lat="56.069462" lon="26.457855">
<ele>115.258850</ele>
<time>2010-08-29T12:41:10Z</time>
<desc>lat.=56.069462, lon.=26.457855, Alt.=115.258850m. Speed=2.412000m/h.</desc>
<speed>0.670000</speed>
</trkpt>
<trkpt lat="56.069450" lon="26.457848">
<ele>115.377991</ele>
<time>2010-08-29T12:41:11Z</time>
<desc>lat.=56.069450, lon.=26.457848, Alt.=115.377991m. Speed=2.844000m/h.</desc>
<speed>0.790000</speed>
</trkpt>
<trkpt lat="56.069447" lon="26.457844">
<ele>115.575256</ele>
<time>2010-08-29T12:41:12Z</time>
<desc>lat.=56.069447, lon.=26.457844, Alt.=115.575256m. Speed=2.592000m/h.</desc>
<speed>0.720000</speed>
</trkpt>
<trkpt lat="56.069435" lon="26.457840">
<ele>115.760803</ele>
<time>2010-08-29T12:41:13Z</time>
<desc>lat.=56.069435, lon.=26.457840, Alt.=115.760803m. Speed=2.664000m/h.</desc>
<speed>0.740000</speed>
</trkpt>
<trkpt lat="56.069427" lon="26.457834">
<ele>115.835022</ele>
<time>2010-08-29T12:41:14Z</time>
<desc>lat.=56.069427, lon.=26.457834, Alt.=115.835022m. Speed=2.556000m/h.</desc>
<speed>0.710000</speed>
</trkpt>
<trkpt lat="56.069416" lon="26.457834">
<ele>116.526428</ele>
<time>2010-08-29T12:41:15Z</time>
<desc>lat.=56.069416, lon.=26.457834, Alt.=116.526428m. Speed=1.872000m/h.</desc>
<speed>0.520000</speed>
</trkpt>
<trkpt lat="56.069397" lon="26.457846">
<ele>116.952209</ele>
<time>2010-08-29T12:41:16Z</time>
<desc>lat.=56.069397, lon.=26.457846, Alt.=116.952209m. Speed=1.692000m/h.</desc>
<speed>0.470000</speed>
</trkpt>
<trkpt lat="56.069389" lon="26.457853">
<ele>117.061584</ele>
<time>2010-08-29T12:41:17Z</time>
<desc>lat.=56.069389, lon.=26.457853, Alt.=117.061584m. Speed=1.404000m/h.</desc>
<speed>0.390000</speed>
</trkpt>
<trkpt lat="56.069382" lon="26.457853">
<ele>117.268616</ele>
<time>2010-08-29T12:41:18Z</time>
<desc>lat.=56.069382, lon.=26.457853, Alt.=117.268616m. Speed=1.296000m/h.</desc>
<speed>0.360000</speed>
</trkpt>
<trkpt lat="56.069359" lon="26.457872">
<ele>117.688538</ele>
<time>2010-08-29T12:41:19Z</time>
<desc>lat.=56.069359, lon.=26.457872, Alt.=117.688538m. Speed=1.152000m/h.</desc>
<speed>0.320000</speed>
</trkpt>
<trkpt lat="56.069347" lon="26.457880">
<ele>117.985413</ele>
<time>2010-08-29T12:41:20Z</time>
<desc>lat.=56.069347, lon.=26.457880, Alt.=117.985413m. Speed=1.404000m/h.</desc>
<speed>0.390000</speed>
</trkpt>
<trkpt lat="56.069336" lon="26.457869">
<ele>118.098694</ele>
<time>2010-08-29T12:41:21Z</time>
<desc>lat.=56.069336, lon.=26.457869, Alt.=118.098694m. Speed=1.332000m/h.</desc>
<speed>0.370000</speed>
</trkpt>
<trkpt lat="56.069321" lon="26.457850">
<ele>118.100647</ele>
<time>2010-08-29T12:41:22Z</time>
<desc>lat.=56.069321, lon.=26.457850, Alt.=118.100647m. Speed=1.260000m/h.</desc>
<speed>0.350000</speed>
</trkpt>
<trkpt lat="56.069302" lon="26.457842">
<ele>118.067444</ele>
<time>2010-08-29T12:41:23Z</time>
<desc>lat.=56.069302, lon.=26.457842, Alt.=118.067444m. Speed=1.800000m/h.</desc>
<speed>0.500000</speed>
</trkpt>
<trkpt lat="56.069294" lon="26.457840">
<ele>118.159241</ele>
<time>2010-08-29T12:41:24Z</time>
<desc>lat.=56.069294, lon.=26.457840, Alt.=118.159241m. Speed=1.440000m/h.</desc>
<speed>0.400000</speed>
</trkpt>
<trkpt lat="56.069286" lon="26.457834">
<ele>118.204163</ele>
<time>2010-08-29T12:41:25Z</time>
<desc>lat.=56.069286, lon.=26.457834, Alt.=118.204163m. Speed=1.836000m/h.</desc>
<speed>0.510000</speed>
</trkpt>
<trkpt lat="56.069283" lon="26.457842">
<ele>118.159241</ele>
<time>2010-08-29T12:41:26Z</time>
<desc>lat.=56.069283, lon.=26.457842, Alt.=118.159241m. Speed=2.052000m/h.</desc>
<speed>0.570000</speed>
</trkpt>
<trkpt lat="56.069279" lon="26.457846">
<ele>118.297913</ele>
<time>2010-08-29T12:41:27Z</time>
<desc>lat.=56.069279, lon.=26.457846, Alt.=118.297913m. Speed=1.476000m/h.</desc>
<speed>0.410000</speed>
</trkpt>
<trkpt lat="56.069275" lon="26.457878">
<ele>118.469788</ele>
<time>2010-08-29T12:41:28Z</time>
<desc>lat.=56.069275, lon.=26.457878, Alt.=118.469788m. Speed=1.368000m/h.</desc>
<speed>0.380000</speed>
</trkpt>
<trkpt lat="56.069267" lon="26.457874">
<ele>118.430725</ele>
<time>2010-08-29T12:41:29Z</time>
<desc>lat.=56.069267, lon.=26.457874, Alt.=118.430725m. Speed=1.476000m/h.</desc>
<speed>0.410000</speed>
</trkpt>
<trkpt lat="56.069260" lon="26.457857">
<ele>118.247131</ele>
<time>2010-08-29T12:41:30Z</time>
<desc>lat.=56.069260, lon.=26.457857, Alt.=118.247131m. Speed=1.260000m/h.</desc>
<speed>0.350000</speed>
</trkpt>
<trkpt lat="56.069248" lon="26.457850">
<ele>118.172913</ele>
<time>2010-08-29T12:41:31Z</time>
<desc>lat.=56.069248, lon.=26.457850, Alt.=118.172913m. Speed=1.224000m/h.</desc>
<speed>0.340000</speed>
</trkpt>
<trkpt lat="56.069237" lon="26.457834">
<ele>118.012756</ele>
<time>2010-08-29T12:41:32Z</time>
<desc>lat.=56.069237, lon.=26.457834, Alt.=118.012756m. Speed=1.044000m/h.</desc>
<speed>0.290000</speed>
</trkpt>
<trkpt lat="56.069229" lon="26.457836">
<ele>117.909241</ele>
<time>2010-08-29T12:41:33Z</time>
<desc>lat.=56.069229, lon.=26.457836, Alt.=117.909241m. Speed=0.684000m/h.</desc>
<speed>0.190000</speed>
</trkpt>
<trkpt lat="56.069221" lon="26.457817">
<ele>117.754944</ele>
<time>2010-08-29T12:41:34Z</time>
<desc>lat.=56.069221, lon.=26.457817, Alt.=117.754944m. Speed=0.900000m/h.</desc>
<speed>0.250000</speed>
</trkpt>
<trkpt lat="56.069214" lon="26.457813">
<ele>117.606506</ele>
<time>2010-08-29T12:41:35Z</time>
<desc>lat.=56.069214, lon.=26.457813, Alt.=117.606506m. Speed=0.468000m/h.</desc>
<speed>0.130000</speed>
</trkpt>
<trkpt lat="56.069214" lon="26.457811">
<ele>117.659241</ele>
<time>2010-08-29T12:41:36Z</time>
<desc>lat.=56.069214, lon.=26.457811, Alt.=117.659241m. Speed=0.000000m/h.</desc>
<speed>0.000000</speed>
</trkpt>
<trkpt lat="56.069214" lon="26.457811">
<ele>117.680725</ele>
<time>2010-08-29T12:41:37Z</time>
<desc>lat.=56.069214, lon.=26.457811, Alt.=117.680725m. Speed=0.576000m/h.</desc>
<speed>0.160000</speed>
</trkpt>
<trkpt lat="56.069214" lon="26.457811">
<ele>117.669006</ele>
<time>2010-08-29T12:41:38Z</time>
<desc>lat.=56.069214, lon.=26.457811, Alt.=117.669006m. Speed=0.468000m/h.</desc>
<speed>0.130000</speed>
</trkpt>
<trkpt lat="56.069214" lon="26.457813">
<ele>117.665100</ele>
<time>2010-08-29T12:41:39Z</time>
<desc>lat.=56.069214, lon.=26.457813, Alt.=117.665100m. Speed=0.468000m/h.</desc>
<speed>0.130000</speed>
</trkpt>
<trkpt lat="56.069218" lon="26.457813">
<ele>117.637756</ele>
<time>2010-08-29T12:41:40Z</time>
<desc>lat.=56.069218, lon.=26.457813, Alt.=117.637756m. Speed=0.504000m/h.</desc>
<speed>0.140000</speed>
</trkpt>
<trkpt lat="56.069218" lon="26.457813">
<ele>117.616272</ele>
<time>2010-08-29T12:41:41Z</time>
<desc>lat.=56.069218, lon.=26.457813, Alt.=117.616272m. Speed=0.432000m/h.</desc>
<speed>0.120000</speed>
</trkpt>
<trkpt lat="56.069218" lon="26.457813">
<ele>117.596741</ele>
<time>2010-08-29T12:41:42Z</time>
<desc>lat.=56.069218, lon.=26.457813, Alt.=117.596741m. Speed=0.288000m/h.</desc>
<speed>0.080000</speed>
</trkpt>
<trkpt lat="56.069221" lon="26.457815">
<ele>117.577209</ele>
<time>2010-08-29T12:41:43Z</time>
<desc>lat.=56.069221, lon.=26.457815, Alt.=117.577209m. Speed=0.036000m/h.</desc>
<speed>0.010000</speed>
</trkpt>
<trkpt lat="56.069221" lon="26.457815">
<ele>117.553772</ele>
<time>2010-08-29T12:41:44Z</time>
<desc>lat.=56.069221, lon.=26.457815, Alt.=117.553772m. Speed=0.180000m/h.</desc>
<speed>0.050000</speed>
</trkpt>
<trkpt lat="56.069221" lon="26.457813">
<ele>117.530334</ele>
<time>2010-08-29T12:41:45Z</time>
<desc>lat.=56.069221, lon.=26.457813, Alt.=117.530334m. Speed=0.036000m/h.</desc>
<speed>0.010000</speed>
</trkpt>
<trkpt lat="56.069218" lon="26.457813">
<ele>117.491272</ele>
<time>2010-08-29T12:41:46Z</time>
<desc>lat.=56.069218, lon.=26.457813, Alt.=117.491272m. Speed=0.144000m/h.</desc>
<speed>0.040000</speed>
</trkpt>
<trkpt lat="56.069218" lon="26.457813">
<ele>117.454163</ele>
<time>2010-08-29T12:41:47Z</time>
<desc>lat.=56.069218, lon.=26.457813, Alt.=117.454163m. Speed=0.036000m/h.</desc>
<speed>0.010000</speed>
</trkpt>
<trkpt lat="56.069218" lon="26.457813">
<ele>117.413147</ele>
<time>2010-08-29T12:41:48Z</time>
<desc>lat.=56.069218, lon.=26.457813, Alt.=117.413147m. Speed=0.144000m/h.</desc>
<speed>0.040000</speed>
</trkpt>
<trkpt lat="56.069218" lon="26.457813">
<ele>117.397522</ele>
<time>2010-08-29T12:41:49Z</time>
<desc>lat.=56.069218, lon.=26.457813, Alt.=117.397522m. Speed=0.216000m/h.</desc>
<speed>0.060000</speed>
</trkpt>
<trkpt lat="56.069218" lon="26.457813">
<ele>117.358459</ele>
<time>2010-08-29T12:41:50Z</time>
<desc>lat.=56.069218, lon.=26.457813, Alt.=117.358459m. Speed=0.036000m/h.</desc>
<speed>0.010000</speed>
</trkpt>
<trkpt lat="56.069218" lon="26.457813">
<ele>117.319397</ele>
<time>2010-08-29T12:41:51Z</time>
<desc>lat.=56.069218, lon.=26.457813, Alt.=117.319397m. Speed=0.108000m/h.</desc>
<speed>0.030000</speed>
</trkpt>
<trkpt lat="56.069218" lon="26.457813">
<ele>117.282288</ele>
<time>2010-08-29T12:41:52Z</time>
<desc>lat.=56.069218, lon.=26.457813, Alt.=117.282288m. Speed=0.072000m/h.</desc>
<speed>0.020000</speed>
</trkpt>
<trkpt lat="56.069218" lon="26.457813">
<ele>117.229553</ele>
<time>2010-08-29T12:41:53Z</time>
<desc>lat.=56.069218, lon.=26.457813, Alt.=117.229553m. Speed=0.396000m/h.</desc>
<speed>0.110000</speed>
</trkpt>
<trkpt lat="56.069218" lon="26.457811">
<ele>117.198303</ele>
<time>2010-08-29T12:41:54Z</time>
<desc>lat.=56.069218, lon.=26.457811, Alt.=117.198303m. Speed=0.324000m/h.</desc>
<speed>0.090000</speed>
</trkpt>
<trkpt lat="56.069218" lon="26.457811">
<ele>117.157288</ele>
<time>2010-08-29T12:41:55Z</time>
<desc>lat.=56.069218, lon.=26.457811, Alt.=117.157288m. Speed=0.288000m/h.</desc>
<speed>0.080000</speed>
</trkpt>
<trkpt lat="56.069218" lon="26.457811">
<ele>117.112366</ele>
<time>2010-08-29T12:41:56Z</time>
<desc>lat.=56.069218, lon.=26.457811, Alt.=117.112366m. Speed=0.108000m/h.</desc>
<speed>0.030000</speed>
</trkpt>
<trkpt lat="56.069214" lon="26.457811">
<ele>117.085022</ele>
<time>2010-08-29T12:41:57Z</time>
<desc>lat.=56.069214, lon.=26.457811, Alt.=117.085022m. Speed=0.036000m/h.</desc>
<speed>0.010000</speed>
</trkpt>
<trkpt lat="56.069218" lon="26.457811">
<ele>117.049866</ele>
<time>2010-08-29T12:41:58Z</time>
<desc>lat.=56.069218, lon.=26.457811, Alt.=117.049866m. Speed=0.108000m/h.</desc>
<speed>0.030000</speed>
</trkpt>
<trkpt lat="56.069214" lon="26.457811">
<ele>117.018616</ele>
<time>2010-08-29T12:41:59Z</time>
<desc>lat.=56.069214, lon.=26.457811, Alt.=117.018616m. Speed=0.180000m/h.</desc>
<speed>0.050000</speed>
</trkpt>
<trkpt lat="56.069214" lon="26.457811">
<ele>116.991272</ele>
<time>2010-08-29T12:42:00Z</time>
<desc>lat.=56.069214, lon.=26.457811, Alt.=116.991272m. Speed=0.288000m/h.</desc>
<speed>0.080000</speed>
</trkpt>
<trkpt lat="56.069214" lon="26.457811">
<ele>116.971741</ele>
<time>2010-08-29T12:42:01Z</time>
<desc>lat.=56.069214, lon.=26.457811, Alt.=116.971741m. Speed=0.324000m/h.</desc>
<speed>0.090000</speed>
</trkpt>
<trkpt lat="56.069214" lon="26.457809">
<ele>116.948303</ele>
<time>2010-08-29T12:42:02Z</time>
<desc>lat.=56.069214, lon.=26.457809, Alt.=116.948303m. Speed=0.360000m/h.</desc>
<speed>0.100000</speed>
</trkpt>
<trkpt lat="56.069214" lon="26.457809">
<ele>116.950256</ele>
<time>2010-08-29T12:42:03Z</time>
<desc>lat.=56.069214, lon.=26.457809, Alt.=116.950256m. Speed=0.108000m/h.</desc>
<speed>0.030000</speed>
</trkpt>
<trkpt lat="56.069214" lon="26.457809">
<ele>116.924866</ele>
<time>2010-08-29T12:42:04Z</time>
<desc>lat.=56.069214, lon.=26.457809, Alt.=116.924866m. Speed=0.684000m/h.</desc>
<speed>0.190000</speed>
</trkpt>
<trkpt lat="56.069210" lon="26.457808">
<ele>116.911194</ele>
<time>2010-08-29T12:42:05Z</time>
<desc>lat.=56.069210, lon.=26.457808, Alt.=116.911194m. Speed=0.612000m/h.</desc>
<speed>0.170000</speed>
</trkpt>
<trkpt lat="56.069210" lon="26.457809">
<ele>116.874084</ele>
<time>2010-08-29T12:42:06Z</time>
<desc>lat.=56.069210, lon.=26.457809, Alt.=116.874084m. Speed=0.612000m/h.</desc>
<speed>0.170000</speed>
</trkpt>
<trkpt lat="56.069210" lon="26.457809">
<ele>116.858459</ele>
<time>2010-08-29T12:42:07Z</time>
<desc>lat.=56.069210, lon.=26.457809, Alt.=116.858459m. Speed=1.080000m/h.</desc>
<speed>0.300000</speed>
</trkpt>
<trkpt lat="56.069206" lon="26.457817">
<ele>116.305725</ele>
<time>2010-08-29T12:42:08Z</time>
<desc>lat.=56.069206, lon.=26.457817, Alt.=116.305725m. Speed=1.008000m/h.</desc>
<speed>0.280000</speed>
</trkpt>
<trkpt lat="56.069199" lon="26.457809">
<ele>116.258850</ele>
<time>2010-08-29T12:42:09Z</time>
<desc>lat.=56.069199, lon.=26.457809, Alt.=116.258850m. Speed=1.296000m/h.</desc>
<speed>0.360000</speed>
</trkpt>
<trkpt lat="56.069195" lon="26.457813">
<ele>115.698303</ele>
<time>2010-08-29T12:42:10Z</time>
<desc>lat.=56.069195, lon.=26.457813, Alt.=115.698303m. Speed=0.972000m/h.</desc>
<speed>0.270000</speed>
</trkpt>
<trkpt lat="56.069183" lon="26.457811">
<ele>115.252991</ele>
<time>2010-08-29T12:42:11Z</time>
<desc>lat.=56.069183, lon.=26.457811, Alt.=115.252991m. Speed=0.900000m/h.</desc>
<speed>0.250000</speed>
</trkpt>
<trkpt lat="56.069180" lon="26.457808">
<ele>115.131897</ele>
<time>2010-08-29T12:42:12Z</time>
<desc>lat.=56.069180, lon.=26.457808, Alt.=115.131897m. Speed=0.612000m/h.</desc>
<speed>0.170000</speed>
</trkpt>
<trkpt lat="56.069176" lon="26.457808">
<ele>115.049866</ele>
<time>2010-08-29T12:42:13Z</time>
<desc>lat.=56.069176, lon.=26.457808, Alt.=115.049866m. Speed=0.720000m/h.</desc>
<speed>0.200000</speed>
</trkpt>
<trkpt lat="56.069172" lon="26.457806">
<ele>115.067444</ele>
<time>2010-08-29T12:42:14Z</time>
<desc>lat.=56.069172, lon.=26.457806, Alt.=115.067444m. Speed=0.540000m/h.</desc>
<speed>0.150000</speed>
</trkpt>
<trkpt lat="56.069172" lon="26.457806">
<ele>115.083069</ele>
<time>2010-08-29T12:42:15Z</time>
<desc>lat.=56.069172, lon.=26.457806, Alt.=115.083069m. Speed=0.072000m/h.</desc>
<speed>0.020000</speed>
</trkpt>
<trkpt lat="56.069172" lon="26.457806">
<ele>115.094788</ele>
<time>2010-08-29T12:42:16Z</time>
<desc>lat.=56.069172, lon.=26.457806, Alt.=115.094788m. Speed=0.072000m/h.</desc>
<speed>0.020000</speed>
</trkpt>
<trkpt lat="56.069172" lon="26.457806">
<ele>115.106506</ele>
<time>2010-08-29T12:42:17Z</time>
<desc>lat.=56.069172, lon.=26.457806, Alt.=115.106506m. Speed=0.036000m/h.</desc>
<speed>0.010000</speed>
</trkpt>
<trkpt lat="56.069172" lon="26.457806">
<ele>115.112366</ele>
<time>2010-08-29T12:42:18Z</time>
<desc>lat.=56.069172, lon.=26.457806, Alt.=115.112366m. Speed=0.072000m/h.</desc>
<speed>0.020000</speed>
</trkpt>
<trkpt lat="56.069172" lon="26.457808">
<ele>115.098694</ele>
<time>2010-08-29T12:42:19Z</time>
<desc>lat.=56.069172, lon.=26.457808, Alt.=115.098694m. Speed=0.072000m/h.</desc>
<speed>0.020000</speed>
</trkpt>
<trkpt lat="56.069172" lon="26.457808">
<ele>115.088928</ele>
<time>2010-08-29T12:42:20Z</time>
<desc>lat.=56.069172, lon.=26.457808, Alt.=115.088928m. Speed=0.000000m/h.</desc>
<speed>0.000000</speed>
</trkpt>
<trkpt lat="56.069172" lon="26.457808">
<ele>115.092834</ele>
<time>2010-08-29T12:42:21Z</time>
<desc>lat.=56.069172, lon.=26.457808, Alt.=115.092834m. Speed=0.036000m/h.</desc>
<speed>0.010000</speed>
</trkpt>
<trkpt lat="56.069172" lon="26.457808">
<ele>115.085022</ele>
<time>2010-08-29T12:42:22Z</time>
<desc>lat.=56.069172, lon.=26.457808, Alt.=115.085022m. Speed=0.036000m/h.</desc>
<speed>0.010000</speed>
</trkpt>
<trkpt lat="56.069172" lon="26.457808">
<ele>115.104553</ele>
<time>2010-08-29T12:42:23Z</time>
<desc>lat.=56.069172, lon.=26.457808, Alt.=115.104553m. Speed=0.036000m/h.</desc>
<speed>0.010000</speed>
</trkpt>
<trkpt lat="56.069172" lon="26.457808">
<ele>115.106506</ele>
<time>2010-08-29T12:42:24Z</time>
<desc>lat.=56.069172, lon.=26.457808, Alt.=115.106506m. Speed=0.000000m/h.</desc>
<speed>0.000000</speed>
</trkpt>
<trkpt lat="56.069172" lon="26.457808">
<ele>115.127991</ele>
<time>2010-08-29T12:42:25Z</time>
<desc>lat.=56.069172, lon.=26.457808, Alt.=115.127991m. Speed=0.036000m/h.</desc>
<speed>0.010000</speed>
</trkpt>
<trkpt lat="56.069172" lon="26.457808">
<ele>115.157288</ele>
<time>2010-08-29T12:42:26Z</time>
<desc>lat.=56.069172, lon.=26.457808, Alt.=115.157288m. Speed=0.000000m/h.</desc>
<speed>0.000000</speed>
</trkpt>
<trkpt lat="56.069172" lon="26.457808">
<ele>115.172913</ele>
<time>2010-08-29T12:42:27Z</time>
<desc>lat.=56.069172, lon.=26.457808, Alt.=115.172913m. Speed=0.000000m/h.</desc>
<speed>0.000000</speed>
</trkpt>
<trkpt lat="56.069172" lon="26.457808">
<ele>115.194397</ele>
<time>2010-08-29T12:42:28Z</time>
<desc>lat.=56.069172, lon.=26.457808, Alt.=115.194397m. Speed=0.000000m/h.</desc>
<speed>0.000000</speed>
</trkpt>
<trkpt lat="56.069172" lon="26.457808">
<ele>115.192444</ele>
<time>2010-08-29T12:42:29Z</time>
<desc>lat.=56.069172, lon.=26.457808, Alt.=115.192444m. Speed=0.036000m/h.</desc>
<speed>0.010000</speed>
</trkpt>
<trkpt lat="56.069176" lon="26.457808">
<ele>115.198303</ele>
<time>2010-08-29T12:42:30Z</time>
<desc>lat.=56.069176, lon.=26.457808, Alt.=115.198303m. Speed=0.072000m/h.</desc>
<speed>0.020000</speed>
</trkpt>
<trkpt lat="56.069172" lon="26.457808">
<ele>115.211975</ele>
<time>2010-08-29T12:42:31Z</time>
<desc>lat.=56.069172, lon.=26.457808, Alt.=115.211975m. Speed=0.036000m/h.</desc>
<speed>0.010000</speed>
</trkpt>
<trkpt lat="56.069172" lon="26.457808">
<ele>115.223694</ele>
<time>2010-08-29T12:42:32Z</time>
<desc>lat.=56.069172, lon.=26.457808, Alt.=115.223694m. Speed=0.036000m/h.</desc>
<speed>0.010000</speed>
</trkpt>
<trkpt lat="56.069172" lon="26.457808">
<ele>115.239319</ele>
<time>2010-08-29T12:42:33Z</time>
<desc>lat.=56.069172, lon.=26.457808, Alt.=115.239319m. Speed=0.000000m/h.</desc>
<speed>0.000000</speed>
</trkpt>
<trkpt lat="56.069172" lon="26.457808">
<ele>115.229553</ele>
<time>2010-08-29T12:42:34Z</time>
<desc>lat.=56.069172, lon.=26.457808, Alt.=115.229553m. Speed=0.000000m/h.</desc>
<speed>0.000000</speed>
</trkpt>
<trkpt lat="56.069172" lon="26.457808">
<ele>115.239319</ele>
<time>2010-08-29T12:42:35Z</time>
<desc>lat.=56.069172, lon.=26.457808, Alt.=115.239319m. Speed=0.000000m/h.</desc>
<speed>0.000000</speed>
</trkpt>
<trkpt lat="56.069172" lon="26.457808">
<ele>115.247131</ele>
<time>2010-08-29T12:42:36Z</time>
<desc>lat.=56.069172, lon.=26.457808, Alt.=115.247131m. Speed=0.108000m/h.</desc>
<speed>0.030000</speed>
</trkpt>
<trkpt lat="56.069172" lon="26.457808">
<ele>115.239319</ele>
<time>2010-08-29T12:42:37Z</time>
<desc>lat.=56.069172, lon.=26.457808, Alt.=115.239319m. Speed=0.036000m/h.</desc>
<speed>0.010000</speed>
</trkpt>
<trkpt lat="56.069172" lon="26.457809">
<ele>115.235413</ele>
<time>2010-08-29T12:42:38Z</time>
<desc>lat.=56.069172, lon.=26.457809, Alt.=115.235413m. Speed=0.036000m/h.</desc>
<speed>0.010000</speed>
</trkpt>
<trkpt lat="56.069172" lon="26.457809">
<ele>115.229553</ele>
<time>2010-08-29T12:42:39Z</time>
<desc>lat.=56.069172, lon.=26.457809, Alt.=115.229553m. Speed=0.036000m/h.</desc>
<speed>0.010000</speed>
</trkpt>
<trkpt lat="56.069172" lon="26.457809">
<ele>115.231506</ele>
<time>2010-08-29T12:42:40Z</time>
<desc>lat.=56.069172, lon.=26.457809, Alt.=115.231506m. Speed=0.072000m/h.</desc>
<speed>0.020000</speed>
</trkpt>
<trkpt lat="56.069172" lon="26.457809">
<ele>115.237366</ele>
<time>2010-08-29T12:42:41Z</time>
<desc>lat.=56.069172, lon.=26.457809, Alt.=115.237366m. Speed=0.108000m/h.</desc>
<speed>0.030000</speed>
</trkpt>
<trkpt lat="56.069172" lon="26.457809">
<ele>115.233459</ele>
<time>2010-08-29T12:42:42Z</time>
<desc>lat.=56.069172, lon.=26.457809, Alt.=115.233459m. Speed=0.036000m/h.</desc>
<speed>0.010000</speed>
</trkpt>
<trkpt lat="56.069172" lon="26.457809">
<ele>115.231506</ele>
<time>2010-08-29T12:42:43Z</time>
<desc>lat.=56.069172, lon.=26.457809, Alt.=115.231506m. Speed=0.036000m/h.</desc>
<speed>0.010000</speed>
</trkpt>
<trkpt lat="56.069172" lon="26.457809">
<ele>115.229553</ele>
<time>2010-08-29T12:42:44Z</time>
<desc>lat.=56.069172, lon.=26.457809, Alt.=115.229553m. Speed=0.036000m/h.</desc>
<speed>0.010000</speed>
</trkpt>
<trkpt lat="56.069172" lon="26.457809">
<ele>115.231506</ele>
<time>2010-08-29T12:42:45Z</time>
<desc>lat.=56.069172, lon.=26.457809, Alt.=115.231506m. Speed=0.000000m/h.</desc>
<speed>0.000000</speed>
</trkpt>
<trkpt lat="56.069172" lon="26.457809">
<ele>115.239319</ele>
<time>2010-08-29T12:42:46Z</time>
<desc>lat.=56.069172, lon.=26.457809, Alt.=115.239319m. Speed=0.036000m/h.</desc>
<speed>0.010000</speed>
</trkpt>
<trkpt lat="56.069172" lon="26.457809">
<ele>115.243225</ele>
<time>2010-08-29T12:42:47Z</time>
<desc>lat.=56.069172, lon.=26.457809, Alt.=115.243225m. Speed=0.072000m/h.</desc>
<speed>0.020000</speed>
</trkpt>
<trkpt lat="56.069172" lon="26.457809">
<ele>115.247131</ele>
<time>2010-08-29T12:42:48Z</time>
<desc>lat.=56.069172, lon.=26.457809, Alt.=115.247131m. Speed=0.036000m/h.</desc>
<speed>0.010000</speed>
</trkpt>
<trkpt lat="56.069172" lon="26.457809">
<ele>115.247131</ele>
<time>2010-08-29T12:42:49Z</time>
<desc>lat.=56.069172, lon.=26.457809, Alt.=115.247131m. Speed=0.000000m/h.</desc>
<speed>0.000000</speed>
</trkpt>
<trkpt lat="56.069172" lon="26.457809">
<ele>115.249084</ele>
<time>2010-08-29T12:42:50Z</time>
<desc>lat.=56.069172, lon.=26.457809, Alt.=115.249084m. Speed=0.000000m/h.</desc>
<speed>0.000000</speed>
</trkpt>
<trkpt lat="56.069172" lon="26.457809">
<ele>115.251038</ele>
<time>2010-08-29T12:42:51Z</time>
<desc>lat.=56.069172, lon.=26.457809, Alt.=115.251038m. Speed=0.000000m/h.</desc>
<speed>0.000000</speed>
</trkpt>
<trkpt lat="56.069172" lon="26.457809">
<ele>115.251038</ele>
<time>2010-08-29T12:42:52Z</time>
<desc>lat.=56.069172, lon.=26.457809, Alt.=115.251038m. Speed=0.000000m/h.</desc>
<speed>0.000000</speed>
</trkpt>
<trkpt lat="56.069172" lon="26.457809">
<ele>115.254944</ele>
<time>2010-08-29T12:42:53Z</time>
<desc>lat.=56.069172, lon.=26.457809, Alt.=115.254944m. Speed=0.036000m/h.</desc>
<speed>0.010000</speed>
</trkpt>
<trkpt lat="56.069172" lon="26.457809">
<ele>115.258850</ele>
<time>2010-08-29T12:42:54Z</time>
<desc>lat.=56.069172, lon.=26.457809, Alt.=115.258850m. Speed=0.000000m/h.</desc>
<speed>0.000000</speed>
</trkpt>
<trkpt lat="56.069172" lon="26.457809">
<ele>115.260803</ele>
<time>2010-08-29T12:42:55Z</time>
<desc>lat.=56.069172, lon.=26.457809, Alt.=115.260803m. Speed=0.000000m/h.</desc>
<speed>0.000000</speed>
</trkpt>
<trkpt lat="56.069172" lon="26.457809">
<ele>115.262756</ele>
<time>2010-08-29T12:42:56Z</time>
<desc>lat.=56.069172, lon.=26.457809, Alt.=115.262756m. Speed=0.000000m/h.</desc>
<speed>0.000000</speed>
</trkpt>
<trkpt lat="56.069172" lon="26.457809">
<ele>115.262756</ele>
<time>2010-08-29T12:42:57Z</time>
<desc>lat.=56.069172, lon.=26.457809, Alt.=115.262756m. Speed=0.036000m/h.</desc>
<speed>0.010000</speed>
</trkpt>
<trkpt lat="56.069172" lon="26.457809">
<ele>115.264709</ele>
<time>2010-08-29T12:42:58Z</time>
<desc>lat.=56.069172, lon.=26.457809, Alt.=115.264709m. Speed=0.000000m/h.</desc>
<speed>0.000000</speed>
</trkpt>
<trkpt lat="56.069172" lon="26.457809">
<ele>115.268616</ele>
<time>2010-08-29T12:42:59Z</time>
<desc>lat.=56.069172, lon.=26.457809, Alt.=115.268616m. Speed=0.072000m/h.</desc>
<speed>0.020000</speed>
</trkpt>
<trkpt lat="56.069172" lon="26.457809">
<ele>115.280334</ele>
<time>2010-08-29T12:43:00Z</time>
<desc>lat.=56.069172, lon.=26.457809, Alt.=115.280334m. Speed=0.072000m/h.</desc>
<speed>0.020000</speed>
</trkpt>
<trkpt lat="56.069172" lon="26.457809">
<ele>115.290100</ele>
<time>2010-08-29T12:43:01Z</time>
<desc>lat.=56.069172, lon.=26.457809, Alt.=115.290100m. Speed=0.072000m/h.</desc>
<speed>0.020000</speed>
</trkpt>
<trkpt lat="56.069172" lon="26.457809">
<ele>115.297913</ele>
<time>2010-08-29T12:43:02Z</time>
<desc>lat.=56.069172, lon.=26.457809, Alt.=115.297913m. Speed=0.036000m/h.</desc>
<speed>0.010000</speed>
</trkpt>
<trkpt lat="56.069172" lon="26.457809">
<ele>115.301819</ele>
<time>2010-08-29T12:43:03Z</time>
<desc>lat.=56.069172, lon.=26.457809, Alt.=115.301819m. Speed=0.144000m/h.</desc>
<speed>0.040000</speed>
</trkpt>
<trkpt lat="56.069172" lon="26.457809">
<ele>115.303772</ele>
<time>2010-08-29T12:43:04Z</time>
<desc>lat.=56.069172, lon.=26.457809, Alt.=115.303772m. Speed=0.072000m/h.</desc>
<speed>0.020000</speed>
</trkpt>
<trkpt lat="56.069172" lon="26.457809">
<ele>115.301819</ele>
<time>2010-08-29T12:43:05Z</time>
<desc>lat.=56.069172, lon.=26.457809, Alt.=115.301819m. Speed=0.000000m/h.</desc>
<speed>0.000000</speed>
</trkpt>
<trkpt lat="56.069172" lon="26.457809">
<ele>115.294006</ele>
<time>2010-08-29T12:43:06Z</time>
<desc>lat.=56.069172, lon.=26.457809, Alt.=115.294006m. Speed=0.072000m/h.</desc>
<speed>0.020000</speed>
</trkpt>
<trkpt lat="56.069172" lon="26.457809">
<ele>115.286194</ele>
<time>2010-08-29T12:43:07Z</time>
<desc>lat.=56.069172, lon.=26.457809, Alt.=115.286194m. Speed=0.072000m/h.</desc>
<speed>0.020000</speed>
</trkpt>
<trkpt lat="56.069172" lon="26.457809">
<ele>115.276428</ele>
<time>2010-08-29T12:43:08Z</time>
<desc>lat.=56.069172, lon.=26.457809, Alt.=115.276428m. Speed=0.108000m/h.</desc>
<speed>0.030000</speed>
</trkpt>
<trkpt lat="56.069172" lon="26.457809">
<ele>115.264709</ele>
<time>2010-08-29T12:43:09Z</time>
<desc>lat.=56.069172, lon.=26.457809, Alt.=115.264709m. Speed=0.072000m/h.</desc>
<speed>0.020000</speed>
</trkpt>
<trkpt lat="56.069172" lon="26.457809">
<ele>115.252991</ele>
<time>2010-08-29T12:43:10Z</time>
<desc>lat.=56.069172, lon.=26.457809, Alt.=115.252991m. Speed=0.072000m/h.</desc>
<speed>0.020000</speed>
</trkpt>
<trkpt lat="56.069172" lon="26.457809">
<ele>115.237366</ele>
<time>2010-08-29T12:43:11Z</time>
<desc>lat.=56.069172, lon.=26.457809, Alt.=115.237366m. Speed=0.072000m/h.</desc>
<speed>0.020000</speed>
</trkpt>
<trkpt lat="56.069168" lon="26.457809">
<ele>115.217834</ele>
<time>2010-08-29T12:43:12Z</time>
<desc>lat.=56.069168, lon.=26.457809, Alt.=115.217834m. Speed=0.108000m/h.</desc>
<speed>0.030000</speed>
</trkpt>
<trkpt lat="56.069168" lon="26.457808">
<ele>115.200256</ele>
<time>2010-08-29T12:43:13Z</time>
<desc>lat.=56.069168, lon.=26.457808, Alt.=115.200256m. Speed=0.108000m/h.</desc>
<speed>0.030000</speed>
</trkpt>
<trkpt lat="56.069168" lon="26.457808">
<ele>115.184631</ele>
<time>2010-08-29T12:43:14Z</time>
<desc>lat.=56.069168, lon.=26.457808, Alt.=115.184631m. Speed=0.108000m/h.</desc>
<speed>0.030000</speed>
</trkpt>
<trkpt lat="56.069168" lon="26.457808">
<ele>115.169006</ele>
<time>2010-08-29T12:43:15Z</time>
<desc>lat.=56.069168, lon.=26.457808, Alt.=115.169006m. Speed=0.108000m/h.</desc>
<speed>0.030000</speed>
</trkpt>
<trkpt lat="56.069168" lon="26.457808">
<ele>115.155334</ele>
<time>2010-08-29T12:43:16Z</time>
<desc>lat.=56.069168, lon.=26.457808, Alt.=115.155334m. Speed=0.108000m/h.</desc>
<speed>0.030000</speed>
</trkpt>
<trkpt lat="56.069168" lon="26.457808">
<ele>115.141663</ele>
<time>2010-08-29T12:43:17Z</time>
<desc>lat.=56.069168, lon.=26.457808, Alt.=115.141663m. Speed=0.108000m/h.</desc>
<speed>0.030000</speed>
</trkpt>
<trkpt lat="56.069168" lon="26.457808">
<ele>115.129944</ele>
<time>2010-08-29T12:43:18Z</time>
<desc>lat.=56.069168, lon.=26.457808, Alt.=115.129944m. Speed=0.108000m/h.</desc>
<speed>0.030000</speed>
</trkpt>
<trkpt lat="56.069168" lon="26.457808">
<ele>115.120178</ele>
<time>2010-08-29T12:43:19Z</time>
<desc>lat.=56.069168, lon.=26.457808, Alt.=115.120178m. Speed=0.108000m/h.</desc>
<speed>0.030000</speed>
</trkpt>
<trkpt lat="56.069168" lon="26.457808">
<ele>115.118225</ele>
<time>2010-08-29T12:43:20Z</time>
<desc>lat.=56.069168, lon.=26.457808, Alt.=115.118225m. Speed=0.288000m/h.</desc>
<speed>0.080000</speed>
</trkpt>
<trkpt lat="56.069168" lon="26.457808">
<ele>115.106506</ele>
<time>2010-08-29T12:43:21Z</time>
<desc>lat.=56.069168, lon.=26.457808, Alt.=115.106506m. Speed=0.396000m/h.</desc>
<speed>0.110000</speed>
</trkpt>
<trkpt lat="56.069164" lon="26.457809">
<ele>115.104553</ele>
<time>2010-08-29T12:43:22Z</time>
<desc>lat.=56.069164, lon.=26.457809, Alt.=115.104553m. Speed=0.396000m/h.</desc>
<speed>0.110000</speed>
</trkpt>
<trkpt lat="56.069164" lon="26.457811">
<ele>115.100647</ele>
<time>2010-08-29T12:43:23Z</time>
<desc>lat.=56.069164, lon.=26.457811, Alt.=115.100647m. Speed=0.396000m/h.</desc>
<speed>0.110000</speed>
</trkpt>
<trkpt lat="56.069164" lon="26.457813">
<ele>115.090881</ele>
<time>2010-08-29T12:43:24Z</time>
<desc>lat.=56.069164, lon.=26.457813, Alt.=115.090881m. Speed=0.396000m/h.</desc>
<speed>0.110000</speed>
</trkpt>
<trkpt lat="56.069164" lon="26.457813">
<ele>115.079163</ele>
<time>2010-08-29T12:43:25Z</time>
<desc>lat.=56.069164, lon.=26.457813, Alt.=115.079163m. Speed=0.360000m/h.</desc>
<speed>0.100000</speed>
</trkpt>
<trkpt lat="56.069164" lon="26.457815">
<ele>115.067444</ele>
<time>2010-08-29T12:43:26Z</time>
<desc>lat.=56.069164, lon.=26.457815, Alt.=115.067444m. Speed=0.324000m/h.</desc>
<speed>0.090000</speed>
</trkpt>
<trkpt lat="56.069164" lon="26.457817">
<ele>115.053772</ele>
<time>2010-08-29T12:43:27Z</time>
<desc>lat.=56.069164, lon.=26.457817, Alt.=115.053772m. Speed=0.288000m/h.</desc>
<speed>0.080000</speed>
</trkpt>
<trkpt lat="56.069164" lon="26.457817">
<ele>115.040100</ele>
<time>2010-08-29T12:43:28Z</time>
<desc>lat.=56.069164, lon.=26.457817, Alt.=115.040100m. Speed=0.252000m/h.</desc>
<speed>0.070000</speed>
</trkpt>
<trkpt lat="56.069160" lon="26.457819">
<ele>115.032288</ele>
<time>2010-08-29T12:43:29Z</time>
<desc>lat.=56.069160, lon.=26.457819, Alt.=115.032288m. Speed=0.216000m/h.</desc>
<speed>0.060000</speed>
</trkpt>
<trkpt lat="56.069160" lon="26.457819">
<ele>115.030334</ele>
<time>2010-08-29T12:43:30Z</time>
<desc>lat.=56.069160, lon.=26.457819, Alt.=115.030334m. Speed=0.144000m/h.</desc>
<speed>0.040000</speed>
</trkpt>
<trkpt lat="56.069160" lon="26.457821">
<ele>115.032288</ele>
<time>2010-08-29T12:43:31Z</time>
<desc>lat.=56.069160, lon.=26.457821, Alt.=115.032288m. Speed=0.180000m/h.</desc>
<speed>0.050000</speed>
</trkpt>
<trkpt lat="56.069160" lon="26.457821">
<ele>115.042053</ele>
<time>2010-08-29T12:43:32Z</time>
<desc>lat.=56.069160, lon.=26.457821, Alt.=115.042053m. Speed=0.180000m/h.</desc>
<speed>0.050000</speed>
</trkpt>
<trkpt lat="56.069160" lon="26.457821">
<ele>115.053772</ele>
<time>2010-08-29T12:43:33Z</time>
<desc>lat.=56.069160, lon.=26.457821, Alt.=115.053772m. Speed=0.216000m/h.</desc>
<speed>0.060000</speed>
</trkpt>
<trkpt lat="56.069160" lon="26.457823">
<ele>115.065491</ele>
<time>2010-08-29T12:43:34Z</time>
<desc>lat.=56.069160, lon.=26.457823, Alt.=115.065491m. Speed=0.216000m/h.</desc>
<speed>0.060000</speed>
</trkpt>
<trkpt lat="56.069160" lon="26.457825">
<ele>115.086975</ele>
<time>2010-08-29T12:43:35Z</time>
<desc>lat.=56.069160, lon.=26.457825, Alt.=115.086975m. Speed=0.216000m/h.</desc>
<speed>0.060000</speed>
</trkpt>
<trkpt lat="56.069160" lon="26.457825">
<ele>115.110413</ele>
<time>2010-08-29T12:43:36Z</time>
<desc>lat.=56.069160, lon.=26.457825, Alt.=115.110413m. Speed=0.288000m/h.</desc>
<speed>0.080000</speed>
</trkpt>
<trkpt lat="56.069160" lon="26.457827">
<ele>115.141663</ele>
<time>2010-08-29T12:43:37Z</time>
<desc>lat.=56.069160, lon.=26.457827, Alt.=115.141663m. Speed=0.288000m/h.</desc>
<speed>0.080000</speed>
</trkpt>
<trkpt lat="56.069160" lon="26.457829">
<ele>115.174866</ele>
<time>2010-08-29T12:43:38Z</time>
<desc>lat.=56.069160, lon.=26.457829, Alt.=115.174866m. Speed=0.324000m/h.</desc>
<speed>0.090000</speed>
</trkpt>
<trkpt lat="56.069164" lon="26.457829">
<ele>115.219788</ele>
<time>2010-08-29T12:43:39Z</time>
<desc>lat.=56.069164, lon.=26.457829, Alt.=115.219788m. Speed=0.360000m/h.</desc>
<speed>0.100000</speed>
</trkpt>
<trkpt lat="56.069164" lon="26.457830">
<ele>115.268616</ele>
<time>2010-08-29T12:43:40Z</time>
<desc>lat.=56.069164, lon.=26.457830, Alt.=115.268616m. Speed=0.396000m/h.</desc>
<speed>0.110000</speed>
</trkpt>
<trkpt lat="56.069164" lon="26.457832">
<ele>115.323303</ele>
<time>2010-08-29T12:43:41Z</time>
<desc>lat.=56.069164, lon.=26.457832, Alt.=115.323303m. Speed=0.432000m/h.</desc>
<speed>0.120000</speed>
</trkpt>
<trkpt lat="56.069164" lon="26.457834">
<ele>115.383850</ele>
<time>2010-08-29T12:43:42Z</time>
<desc>lat.=56.069164, lon.=26.457834, Alt.=115.383850m. Speed=0.468000m/h.</desc>
<speed>0.130000</speed>
</trkpt>
<trkpt lat="56.069164" lon="26.457836">
<ele>115.446350</ele>
<time>2010-08-29T12:43:43Z</time>
<desc>lat.=56.069164, lon.=26.457836, Alt.=115.446350m. Speed=0.468000m/h.</desc>
<speed>0.130000</speed>
</trkpt>
<trkpt lat="56.069164" lon="26.457838">
<ele>115.514709</ele>
<time>2010-08-29T12:43:44Z</time>
<desc>lat.=56.069164, lon.=26.457838, Alt.=115.514709m. Speed=0.576000m/h.</desc>
<speed>0.160000</speed>
</trkpt>
<trkpt lat="56.069164" lon="26.457842">
<ele>115.581116</ele>
<time>2010-08-29T12:43:45Z</time>
<desc>lat.=56.069164, lon.=26.457842, Alt.=115.581116m. Speed=0.540000m/h.</desc>
<speed>0.150000</speed>
</trkpt>
<trkpt lat="56.069164" lon="26.457844">
<ele>115.649475</ele>
<time>2010-08-29T12:43:46Z</time>
<desc>lat.=56.069164, lon.=26.457844, Alt.=115.649475m. Speed=0.504000m/h.</desc>
<speed>0.140000</speed>
</trkpt>
<trkpt lat="56.069164" lon="26.457846">
<ele>115.721741</ele>
<time>2010-08-29T12:43:47Z</time>
<desc>lat.=56.069164, lon.=26.457846, Alt.=115.721741m. Speed=0.540000m/h.</desc>
<speed>0.150000</speed>
</trkpt>
<trkpt lat="56.069168" lon="26.457848">
<ele>115.792053</ele>
<time>2010-08-29T12:43:48Z</time>
<desc>lat.=56.069168, lon.=26.457848, Alt.=115.792053m. Speed=0.468000m/h.</desc>
<speed>0.130000</speed>
</trkpt>
<trkpt lat="56.069168" lon="26.457850">
<ele>115.862366</ele>
<time>2010-08-29T12:43:49Z</time>
<desc>lat.=56.069168, lon.=26.457850, Alt.=115.862366m. Speed=0.504000m/h.</desc>
<speed>0.140000</speed>
</trkpt>
<trkpt lat="56.069168" lon="26.457853">
<ele>115.936584</ele>
<time>2010-08-29T12:43:50Z</time>
<desc>lat.=56.069168, lon.=26.457853, Alt.=115.936584m. Speed=0.468000m/h.</desc>
<speed>0.130000</speed>
</trkpt>
<trkpt lat="56.069168" lon="26.457855">
<ele>116.012756</ele>
<time>2010-08-29T12:43:51Z</time>
<desc>lat.=56.069168, lon.=26.457855, Alt.=116.012756m. Speed=0.504000m/h.</desc>
<speed>0.140000</speed>
</trkpt>
<trkpt lat="56.069168" lon="26.457857">
<ele>116.092834</ele>
<time>2010-08-29T12:43:52Z</time>
<desc>lat.=56.069168, lon.=26.457857, Alt.=116.092834m. Speed=0.540000m/h.</desc>
<speed>0.150000</speed>
</trkpt>
<trkpt lat="56.069168" lon="26.457859">
<ele>116.170959</ele>
<time>2010-08-29T12:43:53Z</time>
<desc>lat.=56.069168, lon.=26.457859, Alt.=116.170959m. Speed=0.576000m/h.</desc>
<speed>0.160000</speed>
</trkpt>
<trkpt lat="56.069168" lon="26.457863">
<ele>116.249084</ele>
<time>2010-08-29T12:43:54Z</time>
<desc>lat.=56.069168, lon.=26.457863, Alt.=116.249084m. Speed=0.576000m/h.</desc>
<speed>0.160000</speed>
</trkpt>
<trkpt lat="56.069168" lon="26.457865">
<ele>116.329163</ele>
<time>2010-08-29T12:43:55Z</time>
<desc>lat.=56.069168, lon.=26.457865, Alt.=116.329163m. Speed=0.540000m/h.</desc>
<speed>0.150000</speed>
</trkpt>
<trkpt lat="56.069168" lon="26.457867">
<ele>116.407288</ele>
<time>2010-08-29T12:43:56Z</time>
<desc>lat.=56.069168, lon.=26.457867, Alt.=116.407288m. Speed=0.468000m/h.</desc>
<speed>0.130000</speed>
</trkpt>
<trkpt lat="56.069168" lon="26.457869">
<ele>116.487366</ele>
<time>2010-08-29T12:43:57Z</time>
<desc>lat.=56.069168, lon.=26.457869, Alt.=116.487366m. Speed=0.396000m/h.</desc>
<speed>0.110000</speed>
</trkpt>
<trkpt lat="56.069168" lon="26.457870">
<ele>116.567444</ele>
<time>2010-08-29T12:43:58Z</time>
<desc>lat.=56.069168, lon.=26.457870, Alt.=116.567444m. Speed=0.360000m/h.</desc>
<speed>0.100000</speed>
</trkpt>
<trkpt lat="56.069168" lon="26.457872">
<ele>116.649475</ele>
<time>2010-08-29T12:43:59Z</time>
<desc>lat.=56.069168, lon.=26.457872, Alt.=116.649475m. Speed=0.324000m/h.</desc>
<speed>0.090000</speed>
</trkpt>
<trkpt lat="56.069168" lon="26.457874">
<ele>116.731506</ele>
<time>2010-08-29T12:44:00Z</time>
<desc>lat.=56.069168, lon.=26.457874, Alt.=116.731506m. Speed=0.324000m/h.</desc>
<speed>0.090000</speed>
</trkpt>
<trkpt lat="56.069168" lon="26.457874">
<ele>116.815491</ele>
<time>2010-08-29T12:44:01Z</time>
<desc>lat.=56.069168, lon.=26.457874, Alt.=116.815491m. Speed=0.324000m/h.</desc>
<speed>0.090000</speed>
</trkpt>
<trkpt lat="56.069164" lon="26.457876">
<ele>116.897522</ele>
<time>2010-08-29T12:44:02Z</time>
<desc>lat.=56.069164, lon.=26.457876, Alt.=116.897522m. Speed=0.288000m/h.</desc>
<speed>0.080000</speed>
</trkpt>
<trkpt lat="56.069164" lon="26.457878">
<ele>116.981506</ele>
<time>2010-08-29T12:44:03Z</time>
<desc>lat.=56.069164, lon.=26.457878, Alt.=116.981506m. Speed=0.288000m/h.</desc>
<speed>0.080000</speed>
</trkpt>
<trkpt lat="56.069164" lon="26.457878">
<ele>117.069397</ele>
<time>2010-08-29T12:44:04Z</time>
<desc>lat.=56.069164, lon.=26.457878, Alt.=117.069397m. Speed=0.252000m/h.</desc>
<speed>0.070000</speed>
</trkpt>
<trkpt lat="56.069164" lon="26.457878">
<ele>117.159241</ele>
<time>2010-08-29T12:44:05Z</time>
<desc>lat.=56.069164, lon.=26.457878, Alt.=117.159241m. Speed=0.252000m/h.</desc>
<speed>0.070000</speed>
</trkpt>
<trkpt lat="56.069164" lon="26.457878">
<ele>117.251038</ele>
<time>2010-08-29T12:44:06Z</time>
<desc>lat.=56.069164, lon.=26.457878, Alt.=117.251038m. Speed=0.216000m/h.</desc>
<speed>0.060000</speed>
</trkpt>
<trkpt lat="56.069164" lon="26.457876">
<ele>117.342834</ele>
<time>2010-08-29T12:44:07Z</time>
<desc>lat.=56.069164, lon.=26.457876, Alt.=117.342834m. Speed=0.288000m/h.</desc>
<speed>0.080000</speed>
</trkpt>
<trkpt lat="56.069160" lon="26.457876">
<ele>117.438538</ele>
<time>2010-08-29T12:44:08Z</time>
<desc>lat.=56.069160, lon.=26.457876, Alt.=117.438538m. Speed=0.324000m/h.</desc>
<speed>0.090000</speed>
</trkpt>
<trkpt lat="56.069160" lon="26.457876">
<ele>117.532288</ele>
<time>2010-08-29T12:44:09Z</time>
<desc>lat.=56.069160, lon.=26.457876, Alt.=117.532288m. Speed=0.396000m/h.</desc>
<speed>0.110000</speed>
</trkpt>
<trkpt lat="56.069160" lon="26.457874">
<ele>117.627991</ele>
<time>2010-08-29T12:44:10Z</time>
<desc>lat.=56.069160, lon.=26.457874, Alt.=117.627991m. Speed=0.504000m/h.</desc>
<speed>0.140000</speed>
</trkpt>
<trkpt lat="56.069160" lon="26.457872">
<ele>117.727600</ele>
<time>2010-08-29T12:44:11Z</time>
<desc>lat.=56.069160, lon.=26.457872, Alt.=117.727600m. Speed=0.612000m/h.</desc>
<speed>0.170000</speed>
</trkpt>
<trkpt lat="56.069157" lon="26.457870">
<ele>117.825256</ele>
<time>2010-08-29T12:44:12Z</time>
<desc>lat.=56.069157, lon.=26.457870, Alt.=117.825256m. Speed=0.684000m/h.</desc>
<speed>0.190000</speed>
</trkpt>
<trkpt lat="56.069157" lon="26.457869">
<ele>117.922913</ele>
<time>2010-08-29T12:44:13Z</time>
<desc>lat.=56.069157, lon.=26.457869, Alt.=117.922913m. Speed=0.756000m/h.</desc>
<speed>0.210000</speed>
</trkpt>
<trkpt lat="56.069157" lon="26.457865">
<ele>118.024475</ele>
<time>2010-08-29T12:44:14Z</time>
<desc>lat.=56.069157, lon.=26.457865, Alt.=118.024475m. Speed=0.864000m/h.</desc>
<speed>0.240000</speed>
</trkpt>
<trkpt lat="56.069153" lon="26.457863">
<ele>118.126038</ele>
<time>2010-08-29T12:44:15Z</time>
<desc>lat.=56.069153, lon.=26.457863, Alt.=118.126038m. Speed=0.900000m/h.</desc>
<speed>0.250000</speed>
</trkpt>
<trkpt lat="56.069153" lon="26.457859">
<ele>118.229553</ele>
<time>2010-08-29T12:44:16Z</time>
<desc>lat.=56.069153, lon.=26.457859, Alt.=118.229553m. Speed=0.936000m/h.</desc>
<speed>0.260000</speed>
</trkpt>
<trkpt lat="56.069149" lon="26.457857">
<ele>118.335022</ele>
<time>2010-08-29T12:44:17Z</time>
<desc>lat.=56.069149, lon.=26.457857, Alt.=118.335022m. Speed=0.972000m/h.</desc>
<speed>0.270000</speed>
</trkpt>
<trkpt lat="56.069149" lon="26.457853">
<ele>118.440491</ele>
<time>2010-08-29T12:44:18Z</time>
<desc>lat.=56.069149, lon.=26.457853, Alt.=118.440491m. Speed=1.044000m/h.</desc>
<speed>0.290000</speed>
</trkpt>
<trkpt lat="56.069145" lon="26.457850">
<ele>118.547913</ele>
<time>2010-08-29T12:44:19Z</time>
<desc>lat.=56.069145, lon.=26.457850, Alt.=118.547913m. Speed=1.080000m/h.</desc>
<speed>0.300000</speed>
</trkpt>
<trkpt lat="56.069138" lon="26.457844">
<ele>118.852600</ele>
<time>2010-08-29T12:44:20Z</time>
<desc>lat.=56.069138, lon.=26.457844, Alt.=118.852600m. Speed=1.116000m/h.</desc>
<speed>0.310000</speed>
</trkpt>
<trkpt lat="56.069134" lon="26.457834">
<ele>119.202209</ele>
<time>2010-08-29T12:44:21Z</time>
<desc>lat.=56.069134, lon.=26.457834, Alt.=119.202209m. Speed=1.116000m/h.</desc>
<speed>0.310000</speed>
</trkpt>
<trkpt lat="56.069130" lon="26.457823">
<ele>119.506897</ele>
<time>2010-08-29T12:44:22Z</time>
<desc>lat.=56.069130, lon.=26.457823, Alt.=119.506897m. Speed=1.188000m/h.</desc>
<speed>0.330000</speed>
</trkpt>
<trkpt lat="56.069126" lon="26.457813">
<ele>119.803772</ele>
<time>2010-08-29T12:44:23Z</time>
<desc>lat.=56.069126, lon.=26.457813, Alt.=119.803772m. Speed=1.224000m/h.</desc>
<speed>0.340000</speed>
</trkpt>
<trkpt lat="56.069126" lon="26.457796">
<ele>120.092834</ele>
<time>2010-08-29T12:44:24Z</time>
<desc>lat.=56.069126, lon.=26.457796, Alt.=120.092834m. Speed=1.296000m/h.</desc>
<speed>0.360000</speed>
</trkpt>
<trkpt lat="56.069118" lon="26.457792">
<ele>120.258850</ele>
<time>2010-08-29T12:44:25Z</time>
<desc>lat.=56.069118, lon.=26.457792, Alt.=120.258850m. Speed=1.296000m/h.</desc>
<speed>0.360000</speed>
</trkpt>
<trkpt lat="56.069115" lon="26.457794">
<ele>120.420959</ele>
<time>2010-08-29T12:44:26Z</time>
<desc>lat.=56.069115, lon.=26.457794, Alt.=120.420959m. Speed=1.260000m/h.</desc>
<speed>0.350000</speed>
</trkpt>
<trkpt lat="56.069111" lon="26.457788">
<ele>120.622131</ele>
<time>2010-08-29T12:44:27Z</time>
<desc>lat.=56.069111, lon.=26.457788, Alt.=120.622131m. Speed=1.260000m/h.</desc>
<speed>0.350000</speed>
</trkpt>
<trkpt lat="56.069103" lon="26.457790">
<ele>120.905334</ele>
<time>2010-08-29T12:44:28Z</time>
<desc>lat.=56.069103, lon.=26.457790, Alt.=120.905334m. Speed=1.224000m/h.</desc>
<speed>0.340000</speed>
</trkpt>
<trkpt lat="56.069099" lon="26.457790">
<ele>121.104553</ele>
<time>2010-08-29T12:44:29Z</time>
<desc>lat.=56.069099, lon.=26.457790, Alt.=121.104553m. Speed=1.152000m/h.</desc>
<speed>0.320000</speed>
</trkpt>
<trkpt lat="56.069096" lon="26.457798">
<ele>121.344788</ele>
<time>2010-08-29T12:44:30Z</time>
<desc>lat.=56.069096, lon.=26.457798, Alt.=121.344788m. Speed=1.080000m/h.</desc>
<speed>0.300000</speed>
</trkpt>
<trkpt lat="56.069096" lon="26.457790">
<ele>121.594788</ele>
<time>2010-08-29T12:44:31Z</time>
<desc>lat.=56.069096, lon.=26.457790, Alt.=121.594788m. Speed=1.080000m/h.</desc>
<speed>0.300000</speed>
</trkpt>
<trkpt lat="56.069092" lon="26.457785">
<ele>121.860413</ele>
<time>2010-08-29T12:44:32Z</time>
<desc>lat.=56.069092, lon.=26.457785, Alt.=121.860413m. Speed=0.900000m/h.</desc>
<speed>0.250000</speed>
</trkpt>
<trkpt lat="56.069092" lon="26.457790">
<ele>122.045959</ele>
<time>2010-08-29T12:44:33Z</time>
<desc>lat.=56.069092, lon.=26.457790, Alt.=122.045959m. Speed=0.828000m/h.</desc>
<speed>0.230000</speed>
</trkpt>
<trkpt lat="56.069099" lon="26.457794">
<ele>122.211975</ele>
<time>2010-08-29T12:44:34Z</time>
<desc>lat.=56.069099, lon.=26.457794, Alt.=122.211975m. Speed=0.648000m/h.</desc>
<speed>0.180000</speed>
</trkpt>
<trkpt lat="56.069096" lon="26.457792">
<ele>122.473694</ele>
<time>2010-08-29T12:44:35Z</time>
<desc>lat.=56.069096, lon.=26.457792, Alt.=122.473694m. Speed=0.720000m/h.</desc>
<speed>0.200000</speed>
</trkpt>
<trkpt lat="56.069096" lon="26.457790">
<ele>122.606506</ele>
<time>2010-08-29T12:44:36Z</time>
<desc>lat.=56.069096, lon.=26.457790, Alt.=122.606506m. Speed=0.720000m/h.</desc>
<speed>0.200000</speed>
</trkpt>
<trkpt lat="56.069092" lon="26.457788">
<ele>122.741272</ele>
<time>2010-08-29T12:44:37Z</time>
<desc>lat.=56.069092, lon.=26.457788, Alt.=122.741272m. Speed=0.648000m/h.</desc>
<speed>0.180000</speed>
</trkpt>
<trkpt lat="56.069092" lon="26.457787">
<ele>122.874084</ele>
<time>2010-08-29T12:44:38Z</time>
<desc>lat.=56.069092, lon.=26.457787, Alt.=122.874084m. Speed=0.612000m/h.</desc>
<speed>0.170000</speed>
</trkpt>
<trkpt lat="56.069092" lon="26.457785">
<ele>123.006897</ele>
<time>2010-08-29T12:44:39Z</time>
<desc>lat.=56.069092, lon.=26.457785, Alt.=123.006897m. Speed=0.576000m/h.</desc>
<speed>0.160000</speed>
</trkpt>
<trkpt lat="56.069092" lon="26.457783">
<ele>123.141663</ele>
<time>2010-08-29T12:44:40Z</time>
<desc>lat.=56.069092, lon.=26.457783, Alt.=123.141663m. Speed=0.540000m/h.</desc>
<speed>0.150000</speed>
</trkpt>
<trkpt lat="56.069088" lon="26.457783">
<ele>123.278381</ele>
<time>2010-08-29T12:44:41Z</time>
<desc>lat.=56.069088, lon.=26.457783, Alt.=123.278381m. Speed=0.720000m/h.</desc>
<speed>0.200000</speed>
</trkpt>
<trkpt lat="56.069088" lon="26.457783">
<ele>123.415100</ele>
<time>2010-08-29T12:44:42Z</time>
<desc>lat.=56.069088, lon.=26.457783, Alt.=123.415100m. Speed=0.792000m/h.</desc>
<speed>0.220000</speed>
</trkpt>
<trkpt lat="56.069084" lon="26.457783">
<ele>123.551819</ele>
<time>2010-08-29T12:44:43Z</time>
<desc>lat.=56.069084, lon.=26.457783, Alt.=123.551819m. Speed=0.936000m/h.</desc>
<speed>0.260000</speed>
</trkpt>
<trkpt lat="56.069080" lon="26.457785">
<ele>123.690491</ele>
<time>2010-08-29T12:44:44Z</time>
<desc>lat.=56.069080, lon.=26.457785, Alt.=123.690491m. Speed=1.224000m/h.</desc>
<speed>0.340000</speed>
</trkpt>
<trkpt lat="56.069077" lon="26.457794">
<ele>123.932678</ele>
<time>2010-08-29T12:44:45Z</time>
<desc>lat.=56.069077, lon.=26.457794, Alt.=123.932678m. Speed=1.260000m/h.</desc>
<speed>0.350000</speed>
</trkpt>
<trkpt lat="56.069069" lon="26.457811">
<ele>123.997131</ele>
<time>2010-08-29T12:44:46Z</time>
<desc>lat.=56.069069, lon.=26.457811, Alt.=123.997131m. Speed=1.404000m/h.</desc>
<speed>0.390000</speed>
</trkpt>
<trkpt lat="56.069061" lon="26.457821">
<ele>124.139709</ele>
<time>2010-08-29T12:44:47Z</time>
<desc>lat.=56.069061, lon.=26.457821, Alt.=124.139709m. Speed=1.404000m/h.</desc>
<speed>0.390000</speed>
</trkpt>
<trkpt lat="56.069054" lon="26.457829">
<ele>124.467834</ele>
<time>2010-08-29T12:44:48Z</time>
<desc>lat.=56.069054, lon.=26.457829, Alt.=124.467834m. Speed=1.440000m/h.</desc>
<speed>0.400000</speed>
</trkpt>
<trkpt lat="56.069050" lon="26.457829">
<ele>124.674866</ele>
<time>2010-08-29T12:44:49Z</time>
<desc>lat.=56.069050, lon.=26.457829, Alt.=124.674866m. Speed=1.332000m/h.</desc>
<speed>0.370000</speed>
</trkpt>
<trkpt lat="56.069054" lon="26.457829">
<ele>124.809631</ele>
<time>2010-08-29T12:44:50Z</time>
<desc>lat.=56.069054, lon.=26.457829, Alt.=124.809631m. Speed=1.008000m/h.</desc>
<speed>0.280000</speed>
</trkpt>
<trkpt lat="56.069054" lon="26.457836">
<ele>125.114319</ele>
<time>2010-08-29T12:44:51Z</time>
<desc>lat.=56.069054, lon.=26.457836, Alt.=125.114319m. Speed=1.044000m/h.</desc>
<speed>0.290000</speed>
</trkpt>
<trkpt lat="56.069046" lon="26.457844">
<ele>125.538147</ele>
<time>2010-08-29T12:44:52Z</time>
<desc>lat.=56.069046, lon.=26.457844, Alt.=125.538147m. Speed=1.080000m/h.</desc>
<speed>0.300000</speed>
</trkpt>
<trkpt lat="56.069035" lon="26.457857">
<ele>125.434631</ele>
<time>2010-08-29T12:44:53Z</time>
<desc>lat.=56.069035, lon.=26.457857, Alt.=125.434631m. Speed=1.188000m/h.</desc>
<speed>0.330000</speed>
</trkpt>
<trkpt lat="56.069035" lon="26.457867">
<ele>125.583069</ele>
<time>2010-08-29T12:44:54Z</time>
<desc>lat.=56.069035, lon.=26.457867, Alt.=125.583069m. Speed=1.224000m/h.</desc>
<speed>0.340000</speed>
</trkpt>
<trkpt lat="56.069031" lon="26.457867">
<ele>125.721741</ele>
<time>2010-08-29T12:44:55Z</time>
<desc>lat.=56.069031, lon.=26.457867, Alt.=125.721741m. Speed=1.152000m/h.</desc>
<speed>0.320000</speed>
</trkpt>
<trkpt lat="56.069027" lon="26.457865">
<ele>125.758850</ele>
<time>2010-08-29T12:44:56Z</time>
<desc>lat.=56.069027, lon.=26.457865, Alt.=125.758850m. Speed=1.080000m/h.</desc>
<speed>0.300000</speed>
</trkpt>
<trkpt lat="56.069027" lon="26.457857">
<ele>125.813538</ele>
<time>2010-08-29T12:44:57Z</time>
<desc>lat.=56.069027, lon.=26.457857, Alt.=125.813538m. Speed=0.972000m/h.</desc>
<speed>0.270000</speed>
</trkpt>
<trkpt lat="56.069027" lon="26.457850">
<ele>125.915100</ele>
<time>2010-08-29T12:44:58Z</time>
<desc>lat.=56.069027, lon.=26.457850, Alt.=125.915100m. Speed=0.936000m/h.</desc>
<speed>0.260000</speed>
</trkpt>
<trkpt lat="56.069023" lon="26.457850">
<ele>126.081116</ele>
<time>2010-08-29T12:44:59Z</time>
<desc>lat.=56.069023, lon.=26.457850, Alt.=126.081116m. Speed=0.864000m/h.</desc>
<speed>0.240000</speed>
</trkpt>
<trkpt lat="56.069023" lon="26.457850">
<ele>126.231506</ele>
<time>2010-08-29T12:45:00Z</time>
<desc>lat.=56.069023, lon.=26.457850, Alt.=126.231506m. Speed=0.864000m/h.</desc>
<speed>0.240000</speed>
</trkpt>
<trkpt lat="56.069019" lon="26.457850">
<ele>126.385803</ele>
<time>2010-08-29T12:45:01Z</time>
<desc>lat.=56.069019, lon.=26.457850, Alt.=126.385803m. Speed=0.792000m/h.</desc>
<speed>0.220000</speed>
</trkpt>
<trkpt lat="56.069019" lon="26.457850">
<ele>126.544006</ele>
<time>2010-08-29T12:45:02Z</time>
<desc>lat.=56.069019, lon.=26.457850, Alt.=126.544006m. Speed=0.756000m/h.</desc>
<speed>0.210000</speed>
</trkpt>
<trkpt lat="56.069016" lon="26.457851">
<ele>126.698303</ele>
<time>2010-08-29T12:45:03Z</time>
<desc>lat.=56.069016, lon.=26.457851, Alt.=126.698303m. Speed=0.684000m/h.</desc>
<speed>0.190000</speed>
</trkpt>
<trkpt lat="56.069016" lon="26.457851">
<ele>126.850647</ele>
<time>2010-08-29T12:45:04Z</time>
<desc>lat.=56.069016, lon.=26.457851, Alt.=126.850647m. Speed=0.792000m/h.</desc>
<speed>0.220000</speed>
</trkpt>
<trkpt lat="56.069012" lon="26.457851">
<ele>126.995178</ele>
<time>2010-08-29T12:45:05Z</time>
<desc>lat.=56.069012, lon.=26.457851, Alt.=126.995178m. Speed=0.864000m/h.</desc>
<speed>0.240000</speed>
</trkpt>
<trkpt lat="56.069008" lon="26.457851">
<ele>127.120178</ele>
<time>2010-08-29T12:45:06Z</time>
<desc>lat.=56.069008, lon.=26.457851, Alt.=127.120178m. Speed=0.972000m/h.</desc>
<speed>0.270000</speed>
</trkpt>
<trkpt lat="56.069008" lon="26.457851">
<ele>127.243225</ele>
<time>2010-08-29T12:45:07Z</time>
<desc>lat.=56.069008, lon.=26.457851, Alt.=127.243225m. Speed=1.152000m/h.</desc>
<speed>0.320000</speed>
</trkpt>
<trkpt lat="56.069004" lon="26.457846">
<ele>127.182678</ele>
<time>2010-08-29T12:45:08Z</time>
<desc>lat.=56.069004, lon.=26.457846, Alt.=127.182678m. Speed=1.224000m/h.</desc>
<speed>0.340000</speed>
</trkpt>
<trkpt lat="56.068996" lon="26.457846">
<ele>127.106506</ele>
<time>2010-08-29T12:45:09Z</time>
<desc>lat.=56.068996, lon.=26.457846, Alt.=127.106506m. Speed=1.260000m/h.</desc>
<speed>0.350000</speed>
</trkpt>
<trkpt lat="56.068993" lon="26.457850">
<ele>126.950256</ele>
<time>2010-08-29T12:45:10Z</time>
<desc>lat.=56.068993, lon.=26.457850, Alt.=126.950256m. Speed=1.296000m/h.</desc>
<speed>0.360000</speed>
</trkpt>
<trkpt lat="56.068989" lon="26.457853">
<ele>126.983459</ele>
<time>2010-08-29T12:45:11Z</time>
<desc>lat.=56.068989, lon.=26.457853, Alt.=126.983459m. Speed=1.296000m/h.</desc>
<speed>0.360000</speed>
</trkpt>
<trkpt lat="56.068989" lon="26.457859">
<ele>126.889709</ele>
<time>2010-08-29T12:45:12Z</time>
<desc>lat.=56.068989, lon.=26.457859, Alt.=126.889709m. Speed=1.260000m/h.</desc>
<speed>0.350000</speed>
</trkpt>
<trkpt lat="56.068985" lon="26.457878">
<ele>126.823303</ele>
<time>2010-08-29T12:45:13Z</time>
<desc>lat.=56.068985, lon.=26.457878, Alt.=126.823303m. Speed=1.188000m/h.</desc>
<speed>0.330000</speed>
</trkpt>
<trkpt lat="56.068985" lon="26.457886">
<ele>126.713928</ele>
<time>2010-08-29T12:45:14Z</time>
<desc>lat.=56.068985, lon.=26.457886, Alt.=126.713928m. Speed=1.116000m/h.</desc>
<speed>0.310000</speed>
</trkpt>
<trkpt lat="56.068989" lon="26.457901">
<ele>126.467834</ele>
<time>2010-08-29T12:45:15Z</time>
<desc>lat.=56.068989, lon.=26.457901, Alt.=126.467834m. Speed=0.972000m/h.</desc>
<speed>0.270000</speed>
</trkpt>
<trkpt lat="56.068996" lon="26.457903">
<ele>126.194397</ele>
<time>2010-08-29T12:45:16Z</time>
<desc>lat.=56.068996, lon.=26.457903, Alt.=126.194397m. Speed=0.828000m/h.</desc>
<speed>0.230000</speed>
</trkpt>
<trkpt lat="56.068996" lon="26.457903">
<ele>125.741272</ele>
<time>2010-08-29T12:45:17Z</time>
<desc>lat.=56.068996, lon.=26.457903, Alt.=125.741272m. Speed=0.828000m/h.</desc>
<speed>0.230000</speed>
</trkpt>
<trkpt lat="56.069008" lon="26.457897">
<ele>125.825256</ele>
<time>2010-08-29T12:45:18Z</time>
<desc>lat.=56.069008, lon.=26.457897, Alt.=125.825256m. Speed=0.612000m/h.</desc>
<speed>0.170000</speed>
</trkpt>
<trkpt lat="56.069008" lon="26.457897">
<ele>125.930725</ele>
<time>2010-08-29T12:45:19Z</time>
<desc>lat.=56.069008, lon.=26.457897, Alt.=125.930725m. Speed=0.396000m/h.</desc>
<speed>0.110000</speed>
</trkpt>
<trkpt lat="56.069008" lon="26.457899">
<ele>126.032288</ele>
<time>2010-08-29T12:45:20Z</time>
<desc>lat.=56.069008, lon.=26.457899, Alt.=126.032288m. Speed=0.144000m/h.</desc>
<speed>0.040000</speed>
</trkpt>
<trkpt lat="56.069008" lon="26.457899">
<ele>126.133850</ele>
<time>2010-08-29T12:45:21Z</time>
<desc>lat.=56.069008, lon.=26.457899, Alt.=126.133850m. Speed=0.072000m/h.</desc>
<speed>0.020000</speed>
</trkpt>
<trkpt lat="56.069008" lon="26.457899">
<ele>126.243225</ele>
<time>2010-08-29T12:45:22Z</time>
<desc>lat.=56.069008, lon.=26.457899, Alt.=126.243225m. Speed=0.036000m/h.</desc>
<speed>0.010000</speed>
</trkpt>
<trkpt lat="56.069008" lon="26.457899">
<ele>126.350647</ele>
<time>2010-08-29T12:45:23Z</time>
<desc>lat.=56.069008, lon.=26.457899, Alt.=126.350647m. Speed=0.252000m/h.</desc>
<speed>0.070000</speed>
</trkpt>
<trkpt lat="56.069008" lon="26.457899">
<ele>126.456116</ele>
<time>2010-08-29T12:45:24Z</time>
<desc>lat.=56.069008, lon.=26.457899, Alt.=126.456116m. Speed=0.108000m/h.</desc>
<speed>0.030000</speed>
</trkpt>
<trkpt lat="56.069008" lon="26.457899">
<ele>126.561584</ele>
<time>2010-08-29T12:45:25Z</time>
<desc>lat.=56.069008, lon.=26.457899, Alt.=126.561584m. Speed=0.108000m/h.</desc>
<speed>0.030000</speed>
</trkpt>
<trkpt lat="56.069012" lon="26.457899">
<ele>126.657288</ele>
<time>2010-08-29T12:45:26Z</time>
<desc>lat.=56.069012, lon.=26.457899, Alt.=126.657288m. Speed=0.252000m/h.</desc>
<speed>0.070000</speed>
</trkpt>
<trkpt lat="56.069012" lon="26.457899">
<ele>126.758850</ele>
<time>2010-08-29T12:45:27Z</time>
<desc>lat.=56.069012, lon.=26.457899, Alt.=126.758850m. Speed=0.360000m/h.</desc>
<speed>0.100000</speed>
</trkpt>
<trkpt lat="56.069012" lon="26.457899">
<ele>126.844788</ele>
<time>2010-08-29T12:45:28Z</time>
<desc>lat.=56.069012, lon.=26.457899, Alt.=126.844788m. Speed=0.396000m/h.</desc>
<speed>0.110000</speed>
</trkpt>
<trkpt lat="56.069012" lon="26.457899">
<ele>126.930725</ele>
<time>2010-08-29T12:45:29Z</time>
<desc>lat.=56.069012, lon.=26.457899, Alt.=126.930725m. Speed=0.216000m/h.</desc>
<speed>0.060000</speed>
</trkpt>
<trkpt lat="56.069012" lon="26.457901">
<ele>127.010803</ele>
<time>2010-08-29T12:45:30Z</time>
<desc>lat.=56.069012, lon.=26.457901, Alt.=127.010803m. Speed=0.216000m/h.</desc>
<speed>0.060000</speed>
</trkpt>
<trkpt lat="56.069016" lon="26.457899">
<ele>127.079163</ele>
<time>2010-08-29T12:45:31Z</time>
<desc>lat.=56.069016, lon.=26.457899, Alt.=127.079163m. Speed=0.216000m/h.</desc>
<speed>0.060000</speed>
</trkpt>
<trkpt lat="56.069016" lon="26.457899">
<ele>127.133850</ele>
<time>2010-08-29T12:45:32Z</time>
<desc>lat.=56.069016, lon.=26.457899, Alt.=127.133850m. Speed=0.396000m/h.</desc>
<speed>0.110000</speed>
</trkpt>
<trkpt lat="56.069016" lon="26.457899">
<ele>127.184631</ele>
<time>2010-08-29T12:45:33Z</time>
<desc>lat.=56.069016, lon.=26.457899, Alt.=127.184631m. Speed=0.396000m/h.</desc>
<speed>0.110000</speed>
</trkpt>
<trkpt lat="56.069016" lon="26.457899">
<ele>127.223694</ele>
<time>2010-08-29T12:45:34Z</time>
<desc>lat.=56.069016, lon.=26.457899, Alt.=127.223694m. Speed=0.468000m/h.</desc>
<speed>0.130000</speed>
</trkpt>
<trkpt lat="56.069019" lon="26.457901">
<ele>127.258850</ele>
<time>2010-08-29T12:45:35Z</time>
<desc>lat.=56.069019, lon.=26.457901, Alt.=127.258850m. Speed=0.540000m/h.</desc>
<speed>0.150000</speed>
</trkpt>
<trkpt lat="56.069019" lon="26.457901">
<ele>127.276428</ele>
<time>2010-08-29T12:45:36Z</time>
<desc>lat.=56.069019, lon.=26.457901, Alt.=127.276428m. Speed=0.792000m/h.</desc>
<speed>0.220000</speed>
</trkpt>
<trkpt lat="56.069023" lon="26.457901">
<ele>127.292053</ele>
<time>2010-08-29T12:45:37Z</time>
<desc>lat.=56.069023, lon.=26.457901, Alt.=127.292053m. Speed=0.864000m/h.</desc>
<speed>0.240000</speed>
</trkpt>
<trkpt lat="56.069023" lon="26.457901">
<ele>127.303772</ele>
<time>2010-08-29T12:45:38Z</time>
<desc>lat.=56.069023, lon.=26.457901, Alt.=127.303772m. Speed=0.936000m/h.</desc>
<speed>0.260000</speed>
</trkpt>
<trkpt lat="56.069027" lon="26.457901">
<ele>127.319397</ele>
<time>2010-08-29T12:45:39Z</time>
<desc>lat.=56.069027, lon.=26.457901, Alt.=127.319397m. Speed=1.080000m/h.</desc>
<speed>0.300000</speed>
</trkpt>
<trkpt lat="56.069027" lon="26.457897">
<ele>127.153381</ele>
<time>2010-08-29T12:45:40Z</time>
<desc>lat.=56.069027, lon.=26.457897, Alt.=127.153381m. Speed=1.008000m/h.</desc>
<speed>0.280000</speed>
</trkpt>
<trkpt lat="56.069035" lon="26.457891">
<ele>126.284241</ele>
<time>2010-08-29T12:45:41Z</time>
<desc>lat.=56.069035, lon.=26.457891, Alt.=126.284241m. Speed=1.008000m/h.</desc>
<speed>0.280000</speed>
</trkpt>
<trkpt lat="56.069050" lon="26.457886">
<ele>125.645569</ele>
<time>2010-08-29T12:45:42Z</time>
<desc>lat.=56.069050, lon.=26.457886, Alt.=125.645569m. Speed=1.080000m/h.</desc>
<speed>0.300000</speed>
</trkpt>
<trkpt lat="56.069065" lon="26.457882">
<ele>124.794006</ele>
<time>2010-08-29T12:45:43Z</time>
<desc>lat.=56.069065, lon.=26.457882, Alt.=124.794006m. Speed=1.116000m/h.</desc>
<speed>0.310000</speed>
</trkpt>
<trkpt lat="56.069069" lon="26.457880">
<ele>124.194397</ele>
<time>2010-08-29T12:45:44Z</time>
<desc>lat.=56.069069, lon.=26.457880, Alt.=124.194397m. Speed=1.080000m/h.</desc>
<speed>0.300000</speed>
</trkpt>
<trkpt lat="56.069073" lon="26.457876">
<ele>124.010803</ele>
<time>2010-08-29T12:45:45Z</time>
<desc>lat.=56.069073, lon.=26.457876, Alt.=124.010803m. Speed=1.008000m/h.</desc>
<speed>0.280000</speed>
</trkpt>
<trkpt lat="56.069077" lon="26.457869">
<ele>123.594788</ele>
<time>2010-08-29T12:45:46Z</time>
<desc>lat.=56.069077, lon.=26.457869, Alt.=123.594788m. Speed=0.972000m/h.</desc>
<speed>0.270000</speed>
</trkpt>
<trkpt lat="56.069077" lon="26.457855">
<ele>123.286194</ele>
<time>2010-08-29T12:45:47Z</time>
<desc>lat.=56.069077, lon.=26.457855, Alt.=123.286194m. Speed=0.864000m/h.</desc>
<speed>0.240000</speed>
</trkpt>
<trkpt lat="56.069069" lon="26.457846">
<ele>123.352600</ele>
<time>2010-08-29T12:45:48Z</time>
<desc>lat.=56.069069, lon.=26.457846, Alt.=123.352600m. Speed=0.576000m/h.</desc>
<speed>0.160000</speed>
</trkpt>
<trkpt lat="56.069073" lon="26.457846">
<ele>123.372131</ele>
<time>2010-08-29T12:45:49Z</time>
<desc>lat.=56.069073, lon.=26.457846, Alt.=123.372131m. Speed=0.432000m/h.</desc>
<speed>0.120000</speed>
</trkpt>
<trkpt lat="56.069073" lon="26.457846">
<ele>123.383850</ele>
<time>2010-08-29T12:45:50Z</time>
<desc>lat.=56.069073, lon.=26.457846, Alt.=123.383850m. Speed=0.288000m/h.</desc>
<speed>0.080000</speed>
</trkpt>
<trkpt lat="56.069073" lon="26.457844">
<ele>123.393616</ele>
<time>2010-08-29T12:45:51Z</time>
<desc>lat.=56.069073, lon.=26.457844, Alt.=123.393616m. Speed=0.216000m/h.</desc>
<speed>0.060000</speed>
</trkpt>
<trkpt lat="56.069073" lon="26.457844">
<ele>123.399475</ele>
<time>2010-08-29T12:45:52Z</time>
<desc>lat.=56.069073, lon.=26.457844, Alt.=123.399475m. Speed=0.144000m/h.</desc>
<speed>0.040000</speed>
</trkpt>
<trkpt lat="56.069073" lon="26.457844">
<ele>123.407288</ele>
<time>2010-08-29T12:45:53Z</time>
<desc>lat.=56.069073, lon.=26.457844, Alt.=123.407288m. Speed=0.072000m/h.</desc>
<speed>0.020000</speed>
</trkpt>
<trkpt lat="56.069073" lon="26.457844">
<ele>123.413147</ele>
<time>2010-08-29T12:45:54Z</time>
<desc>lat.=56.069073, lon.=26.457844, Alt.=123.413147m. Speed=0.036000m/h.</desc>
<speed>0.010000</speed>
</trkpt>
<trkpt lat="56.069073" lon="26.457844">
<ele>123.419006</ele>
<time>2010-08-29T12:45:55Z</time>
<desc>lat.=56.069073, lon.=26.457844, Alt.=123.419006m. Speed=0.108000m/h.</desc>
<speed>0.030000</speed>
</trkpt>
<trkpt lat="56.069073" lon="26.457844">
<ele>123.420959</ele>
<time>2010-08-29T12:45:56Z</time>
<desc>lat.=56.069073, lon.=26.457844, Alt.=123.420959m. Speed=0.216000m/h.</desc>
<speed>0.060000</speed>
</trkpt>
<trkpt lat="56.069073" lon="26.457846">
<ele>123.422913</ele>
<time>2010-08-29T12:45:57Z</time>
<desc>lat.=56.069073, lon.=26.457846, Alt.=123.422913m. Speed=0.216000m/h.</desc>
<speed>0.060000</speed>
</trkpt>
<trkpt lat="56.069073" lon="26.457848">
<ele>123.422913</ele>
<time>2010-08-29T12:45:58Z</time>
<desc>lat.=56.069073, lon.=26.457848, Alt.=123.422913m. Speed=0.216000m/h.</desc>
<speed>0.060000</speed>
</trkpt>
<trkpt lat="56.069073" lon="26.457848">
<ele>123.419006</ele>
<time>2010-08-29T12:45:59Z</time>
<desc>lat.=56.069073, lon.=26.457848, Alt.=123.419006m. Speed=0.108000m/h.</desc>
<speed>0.030000</speed>
</trkpt>
<trkpt lat="56.069073" lon="26.457848">
<ele>123.415100</ele>
<time>2010-08-29T12:46:00Z</time>
<desc>lat.=56.069073, lon.=26.457848, Alt.=123.415100m. Speed=0.108000m/h.</desc>
<speed>0.030000</speed>
</trkpt>
<trkpt lat="56.069073" lon="26.457850">
<ele>123.405334</ele>
<time>2010-08-29T12:46:01Z</time>
<desc>lat.=56.069073, lon.=26.457850, Alt.=123.405334m. Speed=0.072000m/h.</desc>
<speed>0.020000</speed>
</trkpt>
<trkpt lat="56.069073" lon="26.457850">
<ele>123.387756</ele>
<time>2010-08-29T12:46:02Z</time>
<desc>lat.=56.069073, lon.=26.457850, Alt.=123.387756m. Speed=0.216000m/h.</desc>
<speed>0.060000</speed>
</trkpt>
<trkpt lat="56.069077" lon="26.457848">
<ele>123.374084</ele>
<time>2010-08-29T12:46:03Z</time>
<desc>lat.=56.069077, lon.=26.457848, Alt.=123.374084m. Speed=0.360000m/h.</desc>
<speed>0.100000</speed>
</trkpt>
<trkpt lat="56.069077" lon="26.457848">
<ele>123.358459</ele>
<time>2010-08-29T12:46:04Z</time>
<desc>lat.=56.069077, lon.=26.457848, Alt.=123.358459m. Speed=0.036000m/h.</desc>
<speed>0.010000</speed>
</trkpt>
<trkpt lat="56.069077" lon="26.457848">
<ele>123.348694</ele>
<time>2010-08-29T12:46:05Z</time>
<desc>lat.=56.069077, lon.=26.457848, Alt.=123.348694m. Speed=0.072000m/h.</desc>
<speed>0.020000</speed>
</trkpt>
<trkpt lat="56.069077" lon="26.457848">
<ele>123.335022</ele>
<time>2010-08-29T12:46:06Z</time>
<desc>lat.=56.069077, lon.=26.457848, Alt.=123.335022m. Speed=0.072000m/h.</desc>
<speed>0.020000</speed>
</trkpt>
<trkpt lat="56.069077" lon="26.457848">
<ele>123.321350</ele>
<time>2010-08-29T12:46:07Z</time>
<desc>lat.=56.069077, lon.=26.457848, Alt.=123.321350m. Speed=0.036000m/h.</desc>
<speed>0.010000</speed>
</trkpt>
<trkpt lat="56.069077" lon="26.457848">
<ele>123.313538</ele>
<time>2010-08-29T12:46:08Z</time>
<desc>lat.=56.069077, lon.=26.457848, Alt.=123.313538m. Speed=0.108000m/h.</desc>
<speed>0.030000</speed>
</trkpt>
<trkpt lat="56.069077" lon="26.457848">
<ele>123.307678</ele>
<time>2010-08-29T12:46:09Z</time>
<desc>lat.=56.069077, lon.=26.457848, Alt.=123.307678m. Speed=0.108000m/h.</desc>
<speed>0.030000</speed>
</trkpt>
<trkpt lat="56.069077" lon="26.457848">
<ele>123.305725</ele>
<time>2010-08-29T12:46:10Z</time>
<desc>lat.=56.069077, lon.=26.457848, Alt.=123.305725m. Speed=0.072000m/h.</desc>
<speed>0.020000</speed>
</trkpt>
<trkpt lat="56.069077" lon="26.457848">
<ele>123.297913</ele>
<time>2010-08-29T12:46:11Z</time>
<desc>lat.=56.069077, lon.=26.457848, Alt.=123.297913m. Speed=0.108000m/h.</desc>
<speed>0.030000</speed>
</trkpt>
<trkpt lat="56.069077" lon="26.457848">
<ele>123.284241</ele>
<time>2010-08-29T12:46:12Z</time>
<desc>lat.=56.069077, lon.=26.457848, Alt.=123.284241m. Speed=0.036000m/h.</desc>
<speed>0.010000</speed>
</trkpt>
<trkpt lat="56.069077" lon="26.457848">
<ele>123.270569</ele>
<time>2010-08-29T12:46:13Z</time>
<desc>lat.=56.069077, lon.=26.457848, Alt.=123.270569m. Speed=0.108000m/h.</desc>
<speed>0.030000</speed>
</trkpt>
<trkpt lat="56.069077" lon="26.457848">
<ele>123.258850</ele>
<time>2010-08-29T12:46:14Z</time>
<desc>lat.=56.069077, lon.=26.457848, Alt.=123.258850m. Speed=0.072000m/h.</desc>
<speed>0.020000</speed>
</trkpt>
<trkpt lat="56.069077" lon="26.457848">
<ele>123.241272</ele>
<time>2010-08-29T12:46:15Z</time>
<desc>lat.=56.069077, lon.=26.457848, Alt.=123.241272m. Speed=0.180000m/h.</desc>
<speed>0.050000</speed>
</trkpt>
<trkpt lat="56.069077" lon="26.457848">
<ele>123.223694</ele>
<time>2010-08-29T12:46:16Z</time>
<desc>lat.=56.069077, lon.=26.457848, Alt.=123.223694m. Speed=0.144000m/h.</desc>
<speed>0.040000</speed>
</trkpt>
<trkpt lat="56.069077" lon="26.457848">
<ele>123.217834</ele>
<time>2010-08-29T12:46:17Z</time>
<desc>lat.=56.069077, lon.=26.457848, Alt.=123.217834m. Speed=0.216000m/h.</desc>
<speed>0.060000</speed>
</trkpt>
<trkpt lat="56.069077" lon="26.457848">
<ele>123.208069</ele>
<time>2010-08-29T12:46:18Z</time>
<desc>lat.=56.069077, lon.=26.457848, Alt.=123.208069m. Speed=0.036000m/h.</desc>
<speed>0.010000</speed>
</trkpt>
<trkpt lat="56.069077" lon="26.457848">
<ele>123.202209</ele>
<time>2010-08-29T12:46:19Z</time>
<desc>lat.=56.069077, lon.=26.457848, Alt.=123.202209m. Speed=0.108000m/h.</desc>
<speed>0.030000</speed>
</trkpt>
<trkpt lat="56.069077" lon="26.457848">
<ele>123.196350</ele>
<time>2010-08-29T12:46:20Z</time>
<desc>lat.=56.069077, lon.=26.457848, Alt.=123.196350m. Speed=0.036000m/h.</desc>
<speed>0.010000</speed>
</trkpt>
<trkpt lat="56.069077" lon="26.457848">
<ele>123.192444</ele>
<time>2010-08-29T12:46:21Z</time>
<desc>lat.=56.069077, lon.=26.457848, Alt.=123.192444m. Speed=0.180000m/h.</desc>
<speed>0.050000</speed>
</trkpt>
<trkpt lat="56.069077" lon="26.457848">
<ele>123.184631</ele>
<time>2010-08-29T12:46:22Z</time>
<desc>lat.=56.069077, lon.=26.457848, Alt.=123.184631m. Speed=0.108000m/h.</desc>
<speed>0.030000</speed>
</trkpt>
<trkpt lat="56.069077" lon="26.457848">
<ele>123.176819</ele>
<time>2010-08-29T12:46:23Z</time>
<desc>lat.=56.069077, lon.=26.457848, Alt.=123.176819m. Speed=0.144000m/h.</desc>
<speed>0.040000</speed>
</trkpt>
<trkpt lat="56.069077" lon="26.457848">
<ele>123.170959</ele>
<time>2010-08-29T12:46:24Z</time>
<desc>lat.=56.069077, lon.=26.457848, Alt.=123.170959m. Speed=0.072000m/h.</desc>
<speed>0.020000</speed>
</trkpt>
<trkpt lat="56.069077" lon="26.457848">
<ele>123.165100</ele>
<time>2010-08-29T12:46:25Z</time>
<desc>lat.=56.069077, lon.=26.457848, Alt.=123.165100m. Speed=0.072000m/h.</desc>
<speed>0.020000</speed>
</trkpt>
<trkpt lat="56.069077" lon="26.457848">
<ele>123.165100</ele>
<time>2010-08-29T12:46:26Z</time>
<desc>lat.=56.069077, lon.=26.457848, Alt.=123.165100m. Speed=0.036000m/h.</desc>
<speed>0.010000</speed>
</trkpt>
<trkpt lat="56.069077" lon="26.457848">
<ele>123.155334</ele>
<time>2010-08-29T12:46:27Z</time>
<desc>lat.=56.069077, lon.=26.457848, Alt.=123.155334m. Speed=0.036000m/h.</desc>
<speed>0.010000</speed>
</trkpt>
<trkpt lat="56.069077" lon="26.457848">
<ele>123.149475</ele>
<time>2010-08-29T12:46:28Z</time>
<desc>lat.=56.069077, lon.=26.457848, Alt.=123.149475m. Speed=0.072000m/h.</desc>
<speed>0.020000</speed>
</trkpt>
<trkpt lat="56.069077" lon="26.457850">
<ele>123.141663</ele>
<time>2010-08-29T12:46:29Z</time>
<desc>lat.=56.069077, lon.=26.457850, Alt.=123.141663m. Speed=0.072000m/h.</desc>
<speed>0.020000</speed>
</trkpt>
<trkpt lat="56.069077" lon="26.457850">
<ele>123.127991</ele>
<time>2010-08-29T12:46:30Z</time>
<desc>lat.=56.069077, lon.=26.457850, Alt.=123.127991m. Speed=0.108000m/h.</desc>
<speed>0.030000</speed>
</trkpt>
<trkpt lat="56.069077" lon="26.457850">
<ele>123.114319</ele>
<time>2010-08-29T12:46:31Z</time>
<desc>lat.=56.069077, lon.=26.457850, Alt.=123.114319m. Speed=0.072000m/h.</desc>
<speed>0.020000</speed>
</trkpt>
<trkpt lat="56.069080" lon="26.457848">
<ele>123.092834</ele>
<time>2010-08-29T12:46:32Z</time>
<desc>lat.=56.069080, lon.=26.457848, Alt.=123.092834m. Speed=0.108000m/h.</desc>
<speed>0.030000</speed>
</trkpt>
<trkpt lat="56.069080" lon="26.457848">
<ele>123.077209</ele>
<time>2010-08-29T12:46:33Z</time>
<desc>lat.=56.069080, lon.=26.457848, Alt.=123.077209m. Speed=0.072000m/h.</desc>
<speed>0.020000</speed>
</trkpt>
<trkpt lat="56.069080" lon="26.457848">
<ele>123.063538</ele>
<time>2010-08-29T12:46:34Z</time>
<desc>lat.=56.069080, lon.=26.457848, Alt.=123.063538m. Speed=0.036000m/h.</desc>
<speed>0.010000</speed>
</trkpt>
<trkpt lat="56.069080" lon="26.457850">
<ele>123.051819</ele>
<time>2010-08-29T12:46:35Z</time>
<desc>lat.=56.069080, lon.=26.457850, Alt.=123.051819m. Speed=0.180000m/h.</desc>
<speed>0.050000</speed>
</trkpt>
<trkpt lat="56.069080" lon="26.457850">
<ele>123.040100</ele>
<time>2010-08-29T12:46:36Z</time>
<desc>lat.=56.069080, lon.=26.457850, Alt.=123.040100m. Speed=0.180000m/h.</desc>
<speed>0.050000</speed>
</trkpt>
<trkpt lat="56.069080" lon="26.457850">
<ele>123.028381</ele>
<time>2010-08-29T12:46:37Z</time>
<desc>lat.=56.069080, lon.=26.457850, Alt.=123.028381m. Speed=0.108000m/h.</desc>
<speed>0.030000</speed>
</trkpt>
<trkpt lat="56.069080" lon="26.457850">
<ele>123.006897</ele>
<time>2010-08-29T12:46:38Z</time>
<desc>lat.=56.069080, lon.=26.457850, Alt.=123.006897m. Speed=0.108000m/h.</desc>
<speed>0.030000</speed>
</trkpt>
<trkpt lat="56.069080" lon="26.457850">
<ele>122.993225</ele>
<time>2010-08-29T12:46:39Z</time>
<desc>lat.=56.069080, lon.=26.457850, Alt.=122.993225m. Speed=0.072000m/h.</desc>
<speed>0.020000</speed>
</trkpt>
<trkpt lat="56.069080" lon="26.457850">
<ele>122.975647</ele>
<time>2010-08-29T12:46:40Z</time>
<desc>lat.=56.069080, lon.=26.457850, Alt.=122.975647m. Speed=0.072000m/h.</desc>
<speed>0.020000</speed>
</trkpt>
<trkpt lat="56.069080" lon="26.457850">
<ele>122.958069</ele>
<time>2010-08-29T12:46:41Z</time>
<desc>lat.=56.069080, lon.=26.457850, Alt.=122.958069m. Speed=0.036000m/h.</desc>
<speed>0.010000</speed>
</trkpt>
<trkpt lat="56.069080" lon="26.457850">
<ele>122.940491</ele>
<time>2010-08-29T12:46:42Z</time>
<desc>lat.=56.069080, lon.=26.457850, Alt.=122.940491m. Speed=0.108000m/h.</desc>
<speed>0.030000</speed>
</trkpt>
<trkpt lat="56.069080" lon="26.457850">
<ele>122.924866</ele>
<time>2010-08-29T12:46:43Z</time>
<desc>lat.=56.069080, lon.=26.457850, Alt.=122.924866m. Speed=0.108000m/h.</desc>
<speed>0.030000</speed>
</trkpt>
<trkpt lat="56.069080" lon="26.457850">
<ele>122.907288</ele>
<time>2010-08-29T12:46:44Z</time>
<desc>lat.=56.069080, lon.=26.457850, Alt.=122.907288m. Speed=0.036000m/h.</desc>
<speed>0.010000</speed>
</trkpt>
<trkpt lat="56.069080" lon="26.457850">
<ele>122.893616</ele>
<time>2010-08-29T12:46:45Z</time>
<desc>lat.=56.069080, lon.=26.457850, Alt.=122.893616m. Speed=0.144000m/h.</desc>
<speed>0.040000</speed>
</trkpt>
<trkpt lat="56.069080" lon="26.457850">
<ele>122.877991</ele>
<time>2010-08-29T12:46:46Z</time>
<desc>lat.=56.069080, lon.=26.457850, Alt.=122.877991m. Speed=0.036000m/h.</desc>
<speed>0.010000</speed>
</trkpt>
<trkpt lat="56.069080" lon="26.457850">
<ele>122.862366</ele>
<time>2010-08-29T12:46:47Z</time>
<desc>lat.=56.069080, lon.=26.457850, Alt.=122.862366m. Speed=0.108000m/h.</desc>
<speed>0.030000</speed>
</trkpt>
<trkpt lat="56.069080" lon="26.457850">
<ele>122.846741</ele>
<time>2010-08-29T12:46:48Z</time>
<desc>lat.=56.069080, lon.=26.457850, Alt.=122.846741m. Speed=0.072000m/h.</desc>
<speed>0.020000</speed>
</trkpt>
<trkpt lat="56.069080" lon="26.457850">
<ele>122.825256</ele>
<time>2010-08-29T12:46:49Z</time>
<desc>lat.=56.069080, lon.=26.457850, Alt.=122.825256m. Speed=0.108000m/h.</desc>
<speed>0.030000</speed>
</trkpt>
<trkpt lat="56.069080" lon="26.457850">
<ele>122.811584</ele>
<time>2010-08-29T12:46:50Z</time>
<desc>lat.=56.069080, lon.=26.457850, Alt.=122.811584m. Speed=0.144000m/h.</desc>
<speed>0.040000</speed>
</trkpt>
<trkpt lat="56.069080" lon="26.457850">
<ele>122.794006</ele>
<time>2010-08-29T12:46:51Z</time>
<desc>lat.=56.069080, lon.=26.457850, Alt.=122.794006m. Speed=0.180000m/h.</desc>
<speed>0.050000</speed>
</trkpt>
<trkpt lat="56.069080" lon="26.457850">
<ele>122.780334</ele>
<time>2010-08-29T12:46:52Z</time>
<desc>lat.=56.069080, lon.=26.457850, Alt.=122.780334m. Speed=0.180000m/h.</desc>
<speed>0.050000</speed>
</trkpt>
<trkpt lat="56.069080" lon="26.457850">
<ele>122.766663</ele>
<time>2010-08-29T12:46:53Z</time>
<desc>lat.=56.069080, lon.=26.457850, Alt.=122.766663m. Speed=0.144000m/h.</desc>
<speed>0.040000</speed>
</trkpt>
<trkpt lat="56.069080" lon="26.457850">
<ele>122.756897</ele>
<time>2010-08-29T12:46:54Z</time>
<desc>lat.=56.069080, lon.=26.457850, Alt.=122.756897m. Speed=0.108000m/h.</desc>
<speed>0.030000</speed>
</trkpt>
<trkpt lat="56.069084" lon="26.457850">
<ele>122.743225</ele>
<time>2010-08-29T12:46:55Z</time>
<desc>lat.=56.069084, lon.=26.457850, Alt.=122.743225m. Speed=0.252000m/h.</desc>
<speed>0.070000</speed>
</trkpt>
<trkpt lat="56.069084" lon="26.457851">
<ele>122.737366</ele>
<time>2010-08-29T12:46:56Z</time>
<desc>lat.=56.069084, lon.=26.457851, Alt.=122.737366m. Speed=0.180000m/h.</desc>
<speed>0.050000</speed>
</trkpt>
<trkpt lat="56.069084" lon="26.457851">
<ele>122.723694</ele>
<time>2010-08-29T12:46:57Z</time>
<desc>lat.=56.069084, lon.=26.457851, Alt.=122.723694m. Speed=0.252000m/h.</desc>
<speed>0.070000</speed>
</trkpt>
<trkpt lat="56.069084" lon="26.457851">
<ele>122.713928</ele>
<time>2010-08-29T12:46:58Z</time>
<desc>lat.=56.069084, lon.=26.457851, Alt.=122.713928m. Speed=0.180000m/h.</desc>
<speed>0.050000</speed>
</trkpt>
<trkpt lat="56.069084" lon="26.457851">
<ele>122.704163</ele>
<time>2010-08-29T12:46:59Z</time>
<desc>lat.=56.069084, lon.=26.457851, Alt.=122.704163m. Speed=0.144000m/h.</desc>
<speed>0.040000</speed>
</trkpt>
<trkpt lat="56.069084" lon="26.457851">
<ele>122.690491</ele>
<time>2010-08-29T12:47:00Z</time>
<desc>lat.=56.069084, lon.=26.457851, Alt.=122.690491m. Speed=0.144000m/h.</desc>
<speed>0.040000</speed>
</trkpt>
<trkpt lat="56.069084" lon="26.457851">
<ele>122.686584</ele>
<time>2010-08-29T12:47:01Z</time>
<desc>lat.=56.069084, lon.=26.457851, Alt.=122.686584m. Speed=0.108000m/h.</desc>
<speed>0.030000</speed>
</trkpt>
<trkpt lat="56.069084" lon="26.457851">
<ele>122.682678</ele>
<time>2010-08-29T12:47:02Z</time>
<desc>lat.=56.069084, lon.=26.457851, Alt.=122.682678m. Speed=0.144000m/h.</desc>
<speed>0.040000</speed>
</trkpt>
<trkpt lat="56.069084" lon="26.457853">
<ele>122.676819</ele>
<time>2010-08-29T12:47:03Z</time>
<desc>lat.=56.069084, lon.=26.457853, Alt.=122.676819m. Speed=0.180000m/h.</desc>
<speed>0.050000</speed>
</trkpt>
<trkpt lat="56.069084" lon="26.457853">
<ele>122.667053</ele>
<time>2010-08-29T12:47:04Z</time>
<desc>lat.=56.069084, lon.=26.457853, Alt.=122.667053m. Speed=0.180000m/h.</desc>
<speed>0.050000</speed>
</trkpt>
<trkpt lat="56.069084" lon="26.457853">
<ele>122.657288</ele>
<time>2010-08-29T12:47:05Z</time>
<desc>lat.=56.069084, lon.=26.457853, Alt.=122.657288m. Speed=0.144000m/h.</desc>
<speed>0.040000</speed>
</trkpt>
<trkpt lat="56.069084" lon="26.457853">
<ele>122.647522</ele>
<time>2010-08-29T12:47:06Z</time>
<desc>lat.=56.069084, lon.=26.457853, Alt.=122.647522m. Speed=0.072000m/h.</desc>
<speed>0.020000</speed>
</trkpt>
<trkpt lat="56.069084" lon="26.457853">
<ele>122.637756</ele>
<time>2010-08-29T12:47:07Z</time>
<desc>lat.=56.069084, lon.=26.457853, Alt.=122.637756m. Speed=0.036000m/h.</desc>
<speed>0.010000</speed>
</trkpt>
<trkpt lat="56.069084" lon="26.457853">
<ele>122.624084</ele>
<time>2010-08-29T12:47:08Z</time>
<desc>lat.=56.069084, lon.=26.457853, Alt.=122.624084m. Speed=0.216000m/h.</desc>
<speed>0.060000</speed>
</trkpt>
<trkpt lat="56.069084" lon="26.457853">
<ele>122.618225</ele>
<time>2010-08-29T12:47:09Z</time>
<desc>lat.=56.069084, lon.=26.457853, Alt.=122.618225m. Speed=0.144000m/h.</desc>
<speed>0.040000</speed>
</trkpt>
<trkpt lat="56.069084" lon="26.457853">
<ele>122.612366</ele>
<time>2010-08-29T12:47:10Z</time>
<desc>lat.=56.069084, lon.=26.457853, Alt.=122.612366m. Speed=0.180000m/h.</desc>
<speed>0.050000</speed>
</trkpt>
<trkpt lat="56.069088" lon="26.457853">
<ele>122.610413</ele>
<time>2010-08-29T12:47:11Z</time>
<desc>lat.=56.069088, lon.=26.457853, Alt.=122.610413m. Speed=0.072000m/h.</desc>
<speed>0.020000</speed>
</trkpt>
<trkpt lat="56.069088" lon="26.457853">
<ele>122.604553</ele>
<time>2010-08-29T12:47:12Z</time>
<desc>lat.=56.069088, lon.=26.457853, Alt.=122.604553m. Speed=0.216000m/h.</desc>
<speed>0.060000</speed>
</trkpt>
<trkpt lat="56.069088" lon="26.457853">
<ele>122.602600</ele>
<time>2010-08-29T12:47:13Z</time>
<desc>lat.=56.069088, lon.=26.457853, Alt.=122.602600m. Speed=0.180000m/h.</desc>
<speed>0.050000</speed>
</trkpt>
<trkpt lat="56.069088" lon="26.457853">
<ele>122.598694</ele>
<time>2010-08-29T12:47:14Z</time>
<desc>lat.=56.069088, lon.=26.457853, Alt.=122.598694m. Speed=0.108000m/h.</desc>
<speed>0.030000</speed>
</trkpt>
<trkpt lat="56.069088" lon="26.457853">
<ele>122.594788</ele>
<time>2010-08-29T12:47:15Z</time>
<desc>lat.=56.069088, lon.=26.457853, Alt.=122.594788m. Speed=0.108000m/h.</desc>
<speed>0.030000</speed>
</trkpt>
<trkpt lat="56.069088" lon="26.457853">
<ele>122.588928</ele>
<time>2010-08-29T12:47:16Z</time>
<desc>lat.=56.069088, lon.=26.457853, Alt.=122.588928m. Speed=0.072000m/h.</desc>
<speed>0.020000</speed>
</trkpt>
<trkpt lat="56.069088" lon="26.457853">
<ele>122.583069</ele>
<time>2010-08-29T12:47:17Z</time>
<desc>lat.=56.069088, lon.=26.457853, Alt.=122.583069m. Speed=0.072000m/h.</desc>
<speed>0.020000</speed>
</trkpt>
<trkpt lat="56.069088" lon="26.457853">
<ele>122.583069</ele>
<time>2010-08-29T12:47:18Z</time>
<desc>lat.=56.069088, lon.=26.457853, Alt.=122.583069m. Speed=0.072000m/h.</desc>
<speed>0.020000</speed>
</trkpt>
<trkpt lat="56.069088" lon="26.457853">
<ele>122.577209</ele>
<time>2010-08-29T12:47:19Z</time>
<desc>lat.=56.069088, lon.=26.457853, Alt.=122.577209m. Speed=0.216000m/h.</desc>
<speed>0.060000</speed>
</trkpt>
<trkpt lat="56.069088" lon="26.457853">
<ele>122.565491</ele>
<time>2010-08-29T12:47:20Z</time>
<desc>lat.=56.069088, lon.=26.457853, Alt.=122.565491m. Speed=0.180000m/h.</desc>
<speed>0.050000</speed>
</trkpt>
<trkpt lat="56.069088" lon="26.457853">
<ele>122.555725</ele>
<time>2010-08-29T12:47:21Z</time>
<desc>lat.=56.069088, lon.=26.457853, Alt.=122.555725m. Speed=0.108000m/h.</desc>
<speed>0.030000</speed>
</trkpt>
<trkpt lat="56.069088" lon="26.457853">
<ele>122.547913</ele>
<time>2010-08-29T12:47:22Z</time>
<desc>lat.=56.069088, lon.=26.457853, Alt.=122.547913m. Speed=0.216000m/h.</desc>
<speed>0.060000</speed>
</trkpt>
<trkpt lat="56.069088" lon="26.457851">
<ele>122.536194</ele>
<time>2010-08-29T12:47:23Z</time>
<desc>lat.=56.069088, lon.=26.457851, Alt.=122.536194m. Speed=0.108000m/h.</desc>
<speed>0.030000</speed>
</trkpt>
<trkpt lat="56.069088" lon="26.457851">
<ele>122.524475</ele>
<time>2010-08-29T12:47:24Z</time>
<desc>lat.=56.069088, lon.=26.457851, Alt.=122.524475m. Speed=0.252000m/h.</desc>
<speed>0.070000</speed>
</trkpt>
<trkpt lat="56.069088" lon="26.457851">
<ele>122.522522</ele>
<time>2010-08-29T12:47:25Z</time>
<desc>lat.=56.069088, lon.=26.457851, Alt.=122.522522m. Speed=0.108000m/h.</desc>
<speed>0.030000</speed>
</trkpt>
<trkpt lat="56.069088" lon="26.457851">
<ele>122.510803</ele>
<time>2010-08-29T12:47:26Z</time>
<desc>lat.=56.069088, lon.=26.457851, Alt.=122.510803m. Speed=0.108000m/h.</desc>
<speed>0.030000</speed>
</trkpt>
<trkpt lat="56.069088" lon="26.457851">
<ele>122.508850</ele>
<time>2010-08-29T12:47:27Z</time>
<desc>lat.=56.069088, lon.=26.457851, Alt.=122.508850m. Speed=0.108000m/h.</desc>
<speed>0.030000</speed>
</trkpt>
<trkpt lat="56.069088" lon="26.457851">
<ele>122.502991</ele>
<time>2010-08-29T12:47:28Z</time>
<desc>lat.=56.069088, lon.=26.457851, Alt.=122.502991m. Speed=0.144000m/h.</desc>
<speed>0.040000</speed>
</trkpt>
<trkpt lat="56.069088" lon="26.457851">
<ele>122.495178</ele>
<time>2010-08-29T12:47:29Z</time>
<desc>lat.=56.069088, lon.=26.457851, Alt.=122.495178m. Speed=0.036000m/h.</desc>
<speed>0.010000</speed>
</trkpt>
<trkpt lat="56.069088" lon="26.457851">
<ele>122.487366</ele>
<time>2010-08-29T12:47:30Z</time>
<desc>lat.=56.069088, lon.=26.457851, Alt.=122.487366m. Speed=0.108000m/h.</desc>
<speed>0.030000</speed>
</trkpt>
<trkpt lat="56.069088" lon="26.457851">
<ele>122.481506</ele>
<time>2010-08-29T12:47:31Z</time>
<desc>lat.=56.069088, lon.=26.457851, Alt.=122.481506m. Speed=0.108000m/h.</desc>
<speed>0.030000</speed>
</trkpt>
<trkpt lat="56.069088" lon="26.457851">
<ele>122.469788</ele>
<time>2010-08-29T12:47:32Z</time>
<desc>lat.=56.069088, lon.=26.457851, Alt.=122.469788m. Speed=0.108000m/h.</desc>
<speed>0.030000</speed>
</trkpt>
<trkpt lat="56.069088" lon="26.457850">
<ele>122.463928</ele>
<time>2010-08-29T12:47:33Z</time>
<desc>lat.=56.069088, lon.=26.457850, Alt.=122.463928m. Speed=0.072000m/h.</desc>
<speed>0.020000</speed>
</trkpt>
<trkpt lat="56.069088" lon="26.457850">
<ele>122.458069</ele>
<time>2010-08-29T12:47:34Z</time>
<desc>lat.=56.069088, lon.=26.457850, Alt.=122.458069m. Speed=0.108000m/h.</desc>
<speed>0.030000</speed>
</trkpt>
<trkpt lat="56.069088" lon="26.457850">
<ele>122.446350</ele>
<time>2010-08-29T12:47:35Z</time>
<desc>lat.=56.069088, lon.=26.457850, Alt.=122.446350m. Speed=0.036000m/h.</desc>
<speed>0.010000</speed>
</trkpt>
<trkpt lat="56.069088" lon="26.457850">
<ele>122.430725</ele>
<time>2010-08-29T12:47:36Z</time>
<desc>lat.=56.069088, lon.=26.457850, Alt.=122.430725m. Speed=0.072000m/h.</desc>
<speed>0.020000</speed>
</trkpt>
<trkpt lat="56.069088" lon="26.457850">
<ele>122.420959</ele>
<time>2010-08-29T12:47:37Z</time>
<desc>lat.=56.069088, lon.=26.457850, Alt.=122.420959m. Speed=0.036000m/h.</desc>
<speed>0.010000</speed>
</trkpt>
<trkpt lat="56.069092" lon="26.457850">
<ele>122.407288</ele>
<time>2010-08-29T12:47:38Z</time>
<desc>lat.=56.069092, lon.=26.457850, Alt.=122.407288m. Speed=0.144000m/h.</desc>
<speed>0.040000</speed>
</trkpt>
<trkpt lat="56.069092" lon="26.457850">
<ele>122.395569</ele>
<time>2010-08-29T12:47:39Z</time>
<desc>lat.=56.069092, lon.=26.457850, Alt.=122.395569m. Speed=0.036000m/h.</desc>
<speed>0.010000</speed>
</trkpt>
<trkpt lat="56.069092" lon="26.457850">
<ele>122.383850</ele>
<time>2010-08-29T12:47:40Z</time>
<desc>lat.=56.069092, lon.=26.457850, Alt.=122.383850m. Speed=0.000000m/h.</desc>
<speed>0.000000</speed>
</trkpt>
<trkpt lat="56.069092" lon="26.457850">
<ele>122.377991</ele>
<time>2010-08-29T12:47:41Z</time>
<desc>lat.=56.069092, lon.=26.457850, Alt.=122.377991m. Speed=0.000000m/h.</desc>
<speed>0.000000</speed>
</trkpt>
<trkpt lat="56.069092" lon="26.457850">
<ele>122.372131</ele>
<time>2010-08-29T12:47:42Z</time>
<desc>lat.=56.069092, lon.=26.457850, Alt.=122.372131m. Speed=0.036000m/h.</desc>
<speed>0.010000</speed>
</trkpt>
<trkpt lat="56.069092" lon="26.457850">
<ele>122.362366</ele>
<time>2010-08-29T12:47:43Z</time>
<desc>lat.=56.069092, lon.=26.457850, Alt.=122.362366m. Speed=0.072000m/h.</desc>
<speed>0.020000</speed>
</trkpt>
<trkpt lat="56.069092" lon="26.457850">
<ele>122.358459</ele>
<time>2010-08-29T12:47:44Z</time>
<desc>lat.=56.069092, lon.=26.457850, Alt.=122.358459m. Speed=0.036000m/h.</desc>
<speed>0.010000</speed>
</trkpt>
<trkpt lat="56.069092" lon="26.457850">
<ele>122.352600</ele>
<time>2010-08-29T12:47:45Z</time>
<desc>lat.=56.069092, lon.=26.457850, Alt.=122.352600m. Speed=0.036000m/h.</desc>
<speed>0.010000</speed>
</trkpt>
<trkpt lat="56.069092" lon="26.457850">
<ele>122.348694</ele>
<time>2010-08-29T12:47:46Z</time>
<desc>lat.=56.069092, lon.=26.457850, Alt.=122.348694m. Speed=0.072000m/h.</desc>
<speed>0.020000</speed>
</trkpt>
<trkpt lat="56.069092" lon="26.457850">
<ele>122.342834</ele>
<time>2010-08-29T12:47:47Z</time>
<desc>lat.=56.069092, lon.=26.457850, Alt.=122.342834m. Speed=0.072000m/h.</desc>
<speed>0.020000</speed>
</trkpt>
<trkpt lat="56.069092" lon="26.457850">
<ele>122.336975</ele>
<time>2010-08-29T12:47:48Z</time>
<desc>lat.=56.069092, lon.=26.457850, Alt.=122.336975m. Speed=0.180000m/h.</desc>
<speed>0.050000</speed>
</trkpt>
<trkpt lat="56.069092" lon="26.457848">
<ele>122.327209</ele>
<time>2010-08-29T12:47:49Z</time>
<desc>lat.=56.069092, lon.=26.457848, Alt.=122.327209m. Speed=0.288000m/h.</desc>
<speed>0.080000</speed>
</trkpt>
<trkpt lat="56.069092" lon="26.457848">
<ele>122.317444</ele>
<time>2010-08-29T12:47:50Z</time>
<desc>lat.=56.069092, lon.=26.457848, Alt.=122.317444m. Speed=0.360000m/h.</desc>
<speed>0.100000</speed>
</trkpt>
<trkpt lat="56.069092" lon="26.457848">
<ele>122.309631</ele>
<time>2010-08-29T12:47:51Z</time>
<desc>lat.=56.069092, lon.=26.457848, Alt.=122.309631m. Speed=0.360000m/h.</desc>
<speed>0.100000</speed>
</trkpt>
<trkpt lat="56.069096" lon="26.457848">
<ele>122.297913</ele>
<time>2010-08-29T12:47:52Z</time>
<desc>lat.=56.069096, lon.=26.457848, Alt.=122.297913m. Speed=0.360000m/h.</desc>
<speed>0.100000</speed>
</trkpt>
<trkpt lat="56.069096" lon="26.457846">
<ele>122.288147</ele>
<time>2010-08-29T12:47:53Z</time>
<desc>lat.=56.069096, lon.=26.457846, Alt.=122.288147m. Speed=0.432000m/h.</desc>
<speed>0.120000</speed>
</trkpt>
<trkpt lat="56.069096" lon="26.457846">
<ele>122.266663</ele>
<time>2010-08-29T12:47:54Z</time>
<desc>lat.=56.069096, lon.=26.457846, Alt.=122.266663m. Speed=0.468000m/h.</desc>
<speed>0.130000</speed>
</trkpt>
<trkpt lat="56.069096" lon="26.457846">
<ele>122.249084</ele>
<time>2010-08-29T12:47:55Z</time>
<desc>lat.=56.069096, lon.=26.457846, Alt.=122.249084m. Speed=0.504000m/h.</desc>
<speed>0.140000</speed>
</trkpt>
<trkpt lat="56.069099" lon="26.457844">
<ele>122.219788</ele>
<time>2010-08-29T12:47:56Z</time>
<desc>lat.=56.069099, lon.=26.457844, Alt.=122.219788m. Speed=0.576000m/h.</desc>
<speed>0.160000</speed>
</trkpt>
<trkpt lat="56.069099" lon="26.457844">
<ele>122.190491</ele>
<time>2010-08-29T12:47:57Z</time>
<desc>lat.=56.069099, lon.=26.457844, Alt.=122.190491m. Speed=0.468000m/h.</desc>
<speed>0.130000</speed>
</trkpt>
<trkpt lat="56.069099" lon="26.457842">
<ele>122.157288</ele>
<time>2010-08-29T12:47:58Z</time>
<desc>lat.=56.069099, lon.=26.457842, Alt.=122.157288m. Speed=0.432000m/h.</desc>
<speed>0.120000</speed>
</trkpt>
<trkpt lat="56.069103" lon="26.457840">
<ele>122.124084</ele>
<time>2010-08-29T12:47:59Z</time>
<desc>lat.=56.069103, lon.=26.457840, Alt.=122.124084m. Speed=0.540000m/h.</desc>
<speed>0.150000</speed>
</trkpt>
<trkpt lat="56.069103" lon="26.457838">
<ele>122.083069</ele>
<time>2010-08-29T12:48:00Z</time>
<desc>lat.=56.069103, lon.=26.457838, Alt.=122.083069m. Speed=0.648000m/h.</desc>
<speed>0.180000</speed>
</trkpt>
<trkpt lat="56.069103" lon="26.457836">
<ele>122.028381</ele>
<time>2010-08-29T12:48:01Z</time>
<desc>lat.=56.069103, lon.=26.457836, Alt.=122.028381m. Speed=0.684000m/h.</desc>
<speed>0.190000</speed>
</trkpt>
<trkpt lat="56.069107" lon="26.457836">
<ele>121.961975</ele>
<time>2010-08-29T12:48:02Z</time>
<desc>lat.=56.069107, lon.=26.457836, Alt.=121.961975m. Speed=0.756000m/h.</desc>
<speed>0.210000</speed>
</trkpt>
<trkpt lat="56.069107" lon="26.457834">
<ele>121.893616</ele>
<time>2010-08-29T12:48:03Z</time>
<desc>lat.=56.069107, lon.=26.457834, Alt.=121.893616m. Speed=0.828000m/h.</desc>
<speed>0.230000</speed>
</trkpt>
<trkpt lat="56.069111" lon="26.457832">
<ele>121.819397</ele>
<time>2010-08-29T12:48:04Z</time>
<desc>lat.=56.069111, lon.=26.457832, Alt.=121.819397m. Speed=0.900000m/h.</desc>
<speed>0.250000</speed>
</trkpt>
<trkpt lat="56.069115" lon="26.457832">
<ele>121.741272</ele>
<time>2010-08-29T12:48:05Z</time>
<desc>lat.=56.069115, lon.=26.457832, Alt.=121.741272m. Speed=1.008000m/h.</desc>
<speed>0.280000</speed>
</trkpt>
<trkpt lat="56.069115" lon="26.457832">
<ele>121.667053</ele>
<time>2010-08-29T12:48:06Z</time>
<desc>lat.=56.069115, lon.=26.457832, Alt.=121.667053m. Speed=1.224000m/h.</desc>
<speed>0.340000</speed>
</trkpt>
<trkpt lat="56.069141" lon="26.457853">
<ele>121.094788</ele>
<time>2010-08-29T12:48:07Z</time>
<desc>lat.=56.069141, lon.=26.457853, Alt.=121.094788m. Speed=1.476000m/h.</desc>
<speed>0.410000</speed>
</trkpt>
<trkpt lat="56.069153" lon="26.457859">
<ele>120.497131</ele>
<time>2010-08-29T12:48:08Z</time>
<desc>lat.=56.069153, lon.=26.457859, Alt.=120.497131m. Speed=1.548000m/h.</desc>
<speed>0.430000</speed>
</trkpt>
<trkpt lat="56.069164" lon="26.457870">
<ele>120.186584</ele>
<time>2010-08-29T12:48:09Z</time>
<desc>lat.=56.069164, lon.=26.457870, Alt.=120.186584m. Speed=1.584000m/h.</desc>
<speed>0.440000</speed>
</trkpt>
<trkpt lat="56.069183" lon="26.457893">
<ele>119.690491</ele>
<time>2010-08-29T12:48:10Z</time>
<desc>lat.=56.069183, lon.=26.457893, Alt.=119.690491m. Speed=1.548000m/h.</desc>
<speed>0.430000</speed>
</trkpt>
<trkpt lat="56.069191" lon="26.457905">
<ele>119.284241</ele>
<time>2010-08-29T12:48:11Z</time>
<desc>lat.=56.069191, lon.=26.457905, Alt.=119.284241m. Speed=1.440000m/h.</desc>
<speed>0.400000</speed>
</trkpt>
<trkpt lat="56.069187" lon="26.457905">
<ele>119.149475</ele>
<time>2010-08-29T12:48:12Z</time>
<desc>lat.=56.069187, lon.=26.457905, Alt.=119.149475m. Speed=1.152000m/h.</desc>
<speed>0.320000</speed>
</trkpt>
<trkpt lat="56.069183" lon="26.457907">
<ele>118.590881</ele>
<time>2010-08-29T12:48:13Z</time>
<desc>lat.=56.069183, lon.=26.457907, Alt.=118.590881m. Speed=0.756000m/h.</desc>
<speed>0.210000</speed>
</trkpt>
<trkpt lat="56.069183" lon="26.457916">
<ele>118.012756</ele>
<time>2010-08-29T12:48:14Z</time>
<desc>lat.=56.069183, lon.=26.457916, Alt.=118.012756m. Speed=0.684000m/h.</desc>
<speed>0.190000</speed>
</trkpt>
<trkpt lat="56.069183" lon="26.457924">
<ele>117.602600</ele>
<time>2010-08-29T12:48:15Z</time>
<desc>lat.=56.069183, lon.=26.457924, Alt.=117.602600m. Speed=0.612000m/h.</desc>
<speed>0.170000</speed>
</trkpt>
<trkpt lat="56.069191" lon="26.457930">
<ele>117.659241</ele>
<time>2010-08-29T12:48:16Z</time>
<desc>lat.=56.069191, lon.=26.457930, Alt.=117.659241m. Speed=0.612000m/h.</desc>
<speed>0.170000</speed>
</trkpt>
<trkpt lat="56.069191" lon="26.457932">
<ele>117.561584</ele>
<time>2010-08-29T12:48:17Z</time>
<desc>lat.=56.069191, lon.=26.457932, Alt.=117.561584m. Speed=0.468000m/h.</desc>
<speed>0.130000</speed>
</trkpt>
<trkpt lat="56.069191" lon="26.457933">
<ele>117.465881</ele>
<time>2010-08-29T12:48:18Z</time>
<desc>lat.=56.069191, lon.=26.457933, Alt.=117.465881m. Speed=0.360000m/h.</desc>
<speed>0.100000</speed>
</trkpt>
<trkpt lat="56.069191" lon="26.457935">
<ele>117.360413</ele>
<time>2010-08-29T12:48:19Z</time>
<desc>lat.=56.069191, lon.=26.457935, Alt.=117.360413m. Speed=0.432000m/h.</desc>
<speed>0.120000</speed>
</trkpt>
<trkpt lat="56.069191" lon="26.457937">
<ele>117.258850</ele>
<time>2010-08-29T12:48:20Z</time>
<desc>lat.=56.069191, lon.=26.457937, Alt.=117.258850m. Speed=0.216000m/h.</desc>
<speed>0.060000</speed>
</trkpt>
<trkpt lat="56.069191" lon="26.457937">
<ele>117.149475</ele>
<time>2010-08-29T12:48:21Z</time>
<desc>lat.=56.069191, lon.=26.457937, Alt.=117.149475m. Speed=0.288000m/h.</desc>
<speed>0.080000</speed>
</trkpt>
<trkpt lat="56.069191" lon="26.457939">
<ele>117.042053</ele>
<time>2010-08-29T12:48:22Z</time>
<desc>lat.=56.069191, lon.=26.457939, Alt.=117.042053m. Speed=0.288000m/h.</desc>
<speed>0.080000</speed>
</trkpt>
<trkpt lat="56.069191" lon="26.457939">
<ele>116.944397</ele>
<time>2010-08-29T12:48:23Z</time>
<desc>lat.=56.069191, lon.=26.457939, Alt.=116.944397m. Speed=0.648000m/h.</desc>
<speed>0.180000</speed>
</trkpt>
<trkpt lat="56.069191" lon="26.457943">
<ele>116.838928</ele>
<time>2010-08-29T12:48:24Z</time>
<desc>lat.=56.069191, lon.=26.457943, Alt.=116.838928m. Speed=0.720000m/h.</desc>
<speed>0.200000</speed>
</trkpt>
<trkpt lat="56.069191" lon="26.457947">
<ele>116.735413</ele>
<time>2010-08-29T12:48:25Z</time>
<desc>lat.=56.069191, lon.=26.457947, Alt.=116.735413m. Speed=0.684000m/h.</desc>
<speed>0.190000</speed>
</trkpt>
<trkpt lat="56.069187" lon="26.457949">
<ele>116.626038</ele>
<time>2010-08-29T12:48:26Z</time>
<desc>lat.=56.069187, lon.=26.457949, Alt.=116.626038m. Speed=0.684000m/h.</desc>
<speed>0.190000</speed>
</trkpt>
<trkpt lat="56.069187" lon="26.457952">
<ele>116.520569</ele>
<time>2010-08-29T12:48:27Z</time>
<desc>lat.=56.069187, lon.=26.457952, Alt.=116.520569m. Speed=0.828000m/h.</desc>
<speed>0.230000</speed>
</trkpt>
<trkpt lat="56.069187" lon="26.457954">
<ele>116.407288</ele>
<time>2010-08-29T12:48:28Z</time>
<desc>lat.=56.069187, lon.=26.457954, Alt.=116.407288m. Speed=0.720000m/h.</desc>
<speed>0.200000</speed>
</trkpt>
<trkpt lat="56.069183" lon="26.457956">
<ele>116.292053</ele>
<time>2010-08-29T12:48:29Z</time>
<desc>lat.=56.069183, lon.=26.457956, Alt.=116.292053m. Speed=0.900000m/h.</desc>
<speed>0.250000</speed>
</trkpt>
<trkpt lat="56.069183" lon="26.457960">
<ele>116.176819</ele>
<time>2010-08-29T12:48:30Z</time>
<desc>lat.=56.069183, lon.=26.457960, Alt.=116.176819m. Speed=0.936000m/h.</desc>
<speed>0.260000</speed>
</trkpt>
<trkpt lat="56.069180" lon="26.457962">
<ele>116.059631</ele>
<time>2010-08-29T12:48:31Z</time>
<desc>lat.=56.069180, lon.=26.457962, Alt.=116.059631m. Speed=0.936000m/h.</desc>
<speed>0.260000</speed>
</trkpt>
<trkpt lat="56.069180" lon="26.457966">
<ele>115.948303</ele>
<time>2010-08-29T12:48:32Z</time>
<desc>lat.=56.069180, lon.=26.457966, Alt.=115.948303m. Speed=0.864000m/h.</desc>
<speed>0.240000</speed>
</trkpt>
<trkpt lat="56.069176" lon="26.457968">
<ele>115.833069</ele>
<time>2010-08-29T12:48:33Z</time>
<desc>lat.=56.069176, lon.=26.457968, Alt.=115.833069m. Speed=1.044000m/h.</desc>
<speed>0.290000</speed>
</trkpt>
<trkpt lat="56.069176" lon="26.457972">
<ele>115.717834</ele>
<time>2010-08-29T12:48:34Z</time>
<desc>lat.=56.069176, lon.=26.457972, Alt.=115.717834m. Speed=1.080000m/h.</desc>
<speed>0.300000</speed>
</trkpt>
<trkpt lat="56.069168" lon="26.457977">
<ele>115.499084</ele>
<time>2010-08-29T12:48:35Z</time>
<desc>lat.=56.069168, lon.=26.457977, Alt.=115.499084m. Speed=1.080000m/h.</desc>
<speed>0.300000</speed>
</trkpt>
<trkpt lat="56.069164" lon="26.457985">
<ele>115.038147</ele>
<time>2010-08-29T12:48:36Z</time>
<desc>lat.=56.069164, lon.=26.457985, Alt.=115.038147m. Speed=1.008000m/h.</desc>
<speed>0.280000</speed>
</trkpt>
<trkpt lat="56.069164" lon="26.457994">
<ele>114.571350</ele>
<time>2010-08-29T12:48:37Z</time>
<desc>lat.=56.069164, lon.=26.457994, Alt.=114.571350m. Speed=0.972000m/h.</desc>
<speed>0.270000</speed>
</trkpt>
<trkpt lat="56.069160" lon="26.457996">
<ele>114.178772</ele>
<time>2010-08-29T12:48:38Z</time>
<desc>lat.=56.069160, lon.=26.457996, Alt.=114.178772m. Speed=1.044000m/h.</desc>
<speed>0.290000</speed>
</trkpt>
<trkpt lat="56.069157" lon="26.457996">
<ele>114.001038</ele>
<time>2010-08-29T12:48:39Z</time>
<desc>lat.=56.069157, lon.=26.457996, Alt.=114.001038m. Speed=0.972000m/h.</desc>
<speed>0.270000</speed>
</trkpt>
<trkpt lat="56.069157" lon="26.458000">
<ele>113.876038</ele>
<time>2010-08-29T12:48:40Z</time>
<desc>lat.=56.069157, lon.=26.458000, Alt.=113.876038m. Speed=0.756000m/h.</desc>
<speed>0.210000</speed>
</trkpt>
<trkpt lat="56.069153" lon="26.458002">
<ele>113.754944</ele>
<time>2010-08-29T12:48:41Z</time>
<desc>lat.=56.069153, lon.=26.458002, Alt.=113.754944m. Speed=0.612000m/h.</desc>
<speed>0.170000</speed>
</trkpt>
<trkpt lat="56.069153" lon="26.458004">
<ele>113.631897</ele>
<time>2010-08-29T12:48:42Z</time>
<desc>lat.=56.069153, lon.=26.458004, Alt.=113.631897m. Speed=0.504000m/h.</desc>
<speed>0.140000</speed>
</trkpt>
<trkpt lat="56.069153" lon="26.458006">
<ele>113.506897</ele>
<time>2010-08-29T12:48:43Z</time>
<desc>lat.=56.069153, lon.=26.458006, Alt.=113.506897m. Speed=0.396000m/h.</desc>
<speed>0.110000</speed>
</trkpt>
<trkpt lat="56.069153" lon="26.458006">
<ele>113.383850</ele>
<time>2010-08-29T12:48:44Z</time>
<desc>lat.=56.069153, lon.=26.458006, Alt.=113.383850m. Speed=0.324000m/h.</desc>
<speed>0.090000</speed>
</trkpt>
<trkpt lat="56.069149" lon="26.458008">
<ele>113.251038</ele>
<time>2010-08-29T12:48:45Z</time>
<desc>lat.=56.069149, lon.=26.458008, Alt.=113.251038m. Speed=0.468000m/h.</desc>
<speed>0.130000</speed>
</trkpt>
<trkpt lat="56.069149" lon="26.458008">
<ele>113.124084</ele>
<time>2010-08-29T12:48:46Z</time>
<desc>lat.=56.069149, lon.=26.458008, Alt.=113.124084m. Speed=0.324000m/h.</desc>
<speed>0.090000</speed>
</trkpt>
<trkpt lat="56.069149" lon="26.458010">
<ele>113.006897</ele>
<time>2010-08-29T12:48:47Z</time>
<desc>lat.=56.069149, lon.=26.458010, Alt.=113.006897m. Speed=0.180000m/h.</desc>
<speed>0.050000</speed>
</trkpt>
<trkpt lat="56.069149" lon="26.458010">
<ele>112.899475</ele>
<time>2010-08-29T12:48:48Z</time>
<desc>lat.=56.069149, lon.=26.458010, Alt.=112.899475m. Speed=0.072000m/h.</desc>
<speed>0.020000</speed>
</trkpt>
<trkpt lat="56.069149" lon="26.458010">
<ele>112.795959</ele>
<time>2010-08-29T12:48:49Z</time>
<desc>lat.=56.069149, lon.=26.458010, Alt.=112.795959m. Speed=0.036000m/h.</desc>
<speed>0.010000</speed>
</trkpt>
<trkpt lat="56.069149" lon="26.458010">
<ele>112.698303</ele>
<time>2010-08-29T12:48:50Z</time>
<desc>lat.=56.069149, lon.=26.458010, Alt.=112.698303m. Speed=0.108000m/h.</desc>
<speed>0.030000</speed>
</trkpt>
<trkpt lat="56.069149" lon="26.458010">
<ele>112.606506</ele>
<time>2010-08-29T12:48:51Z</time>
<desc>lat.=56.069149, lon.=26.458010, Alt.=112.606506m. Speed=0.036000m/h.</desc>
<speed>0.010000</speed>
</trkpt>
<trkpt lat="56.069149" lon="26.458010">
<ele>112.524475</ele>
<time>2010-08-29T12:48:52Z</time>
<desc>lat.=56.069149, lon.=26.458010, Alt.=112.524475m. Speed=0.252000m/h.</desc>
<speed>0.070000</speed>
</trkpt>
<trkpt lat="56.069149" lon="26.458008">
<ele>112.452209</ele>
<time>2010-08-29T12:48:53Z</time>
<desc>lat.=56.069149, lon.=26.458008, Alt.=112.452209m. Speed=0.252000m/h.</desc>
<speed>0.070000</speed>
</trkpt>
<trkpt lat="56.069149" lon="26.458008">
<ele>112.395569</ele>
<time>2010-08-29T12:48:54Z</time>
<desc>lat.=56.069149, lon.=26.458008, Alt.=112.395569m. Speed=0.396000m/h.</desc>
<speed>0.110000</speed>
</trkpt>
<trkpt lat="56.069149" lon="26.458006">
<ele>112.346741</ele>
<time>2010-08-29T12:48:55Z</time>
<desc>lat.=56.069149, lon.=26.458006, Alt.=112.346741m. Speed=0.360000m/h.</desc>
<speed>0.100000</speed>
</trkpt>
<trkpt lat="56.069149" lon="26.458004">
<ele>112.305725</ele>
<time>2010-08-29T12:48:56Z</time>
<desc>lat.=56.069149, lon.=26.458004, Alt.=112.305725m. Speed=0.468000m/h.</desc>
<speed>0.130000</speed>
</trkpt>
<trkpt lat="56.069153" lon="26.458004">
<ele>112.276428</ele>
<time>2010-08-29T12:48:57Z</time>
<desc>lat.=56.069153, lon.=26.458004, Alt.=112.276428m. Speed=0.324000m/h.</desc>
<speed>0.090000</speed>
</trkpt>
<trkpt lat="56.069153" lon="26.458004">
<ele>112.258850</ele>
<time>2010-08-29T12:48:58Z</time>
<desc>lat.=56.069153, lon.=26.458004, Alt.=112.258850m. Speed=0.252000m/h.</desc>
<speed>0.070000</speed>
</trkpt>
<trkpt lat="56.069153" lon="26.458004">
<ele>112.245178</ele>
<time>2010-08-29T12:48:59Z</time>
<desc>lat.=56.069153, lon.=26.458004, Alt.=112.245178m. Speed=0.288000m/h.</desc>
<speed>0.080000</speed>
</trkpt>
<trkpt lat="56.069153" lon="26.458002">
<ele>112.229553</ele>
<time>2010-08-29T12:49:00Z</time>
<desc>lat.=56.069153, lon.=26.458002, Alt.=112.229553m. Speed=0.396000m/h.</desc>
<speed>0.110000</speed>
</trkpt>
<trkpt lat="56.069153" lon="26.458000">
<ele>112.217834</ele>
<time>2010-08-29T12:49:01Z</time>
<desc>lat.=56.069153, lon.=26.458000, Alt.=112.217834m. Speed=0.504000m/h.</desc>
<speed>0.140000</speed>
</trkpt>
<trkpt lat="56.069153" lon="26.457998">
<ele>112.210022</ele>
<time>2010-08-29T12:49:02Z</time>
<desc>lat.=56.069153, lon.=26.457998, Alt.=112.210022m. Speed=0.252000m/h.</desc>
<speed>0.070000</speed>
</trkpt>
<trkpt lat="56.069153" lon="26.457998">
<ele>112.206116</ele>
<time>2010-08-29T12:49:03Z</time>
<desc>lat.=56.069153, lon.=26.457998, Alt.=112.206116m. Speed=0.180000m/h.</desc>
<speed>0.050000</speed>
</trkpt>
<trkpt lat="56.069153" lon="26.457996">
<ele>112.208069</ele>
<time>2010-08-29T12:49:04Z</time>
<desc>lat.=56.069153, lon.=26.457996, Alt.=112.208069m. Speed=0.144000m/h.</desc>
<speed>0.040000</speed>
</trkpt>
<trkpt lat="56.069153" lon="26.457996">
<ele>112.219788</ele>
<time>2010-08-29T12:49:05Z</time>
<desc>lat.=56.069153, lon.=26.457996, Alt.=112.219788m. Speed=0.396000m/h.</desc>
<speed>0.110000</speed>
</trkpt>
<trkpt lat="56.069153" lon="26.457996">
<ele>112.239319</ele>
<time>2010-08-29T12:49:06Z</time>
<desc>lat.=56.069153, lon.=26.457996, Alt.=112.239319m. Speed=0.576000m/h.</desc>
<speed>0.160000</speed>
</trkpt>
<trkpt lat="56.069149" lon="26.457994">
<ele>112.268616</ele>
<time>2010-08-29T12:49:07Z</time>
<desc>lat.=56.069149, lon.=26.457994, Alt.=112.268616m. Speed=0.864000m/h.</desc>
<speed>0.240000</speed>
</trkpt>
<trkpt lat="56.069149" lon="26.457993">
<ele>112.305725</ele>
<time>2010-08-29T12:49:08Z</time>
<desc>lat.=56.069149, lon.=26.457993, Alt.=112.305725m. Speed=0.792000m/h.</desc>
<speed>0.220000</speed>
</trkpt>
<trkpt lat="56.069145" lon="26.457991">
<ele>112.350647</ele>
<time>2010-08-29T12:49:09Z</time>
<desc>lat.=56.069145, lon.=26.457991, Alt.=112.350647m. Speed=0.792000m/h.</desc>
<speed>0.220000</speed>
</trkpt>
<trkpt lat="56.069145" lon="26.457989">
<ele>112.403381</ele>
<time>2010-08-29T12:49:10Z</time>
<desc>lat.=56.069145, lon.=26.457989, Alt.=112.403381m. Speed=0.900000m/h.</desc>
<speed>0.250000</speed>
</trkpt>
<trkpt lat="56.069145" lon="26.457985">
<ele>112.456116</ele>
<time>2010-08-29T12:49:11Z</time>
<desc>lat.=56.069145, lon.=26.457985, Alt.=112.456116m. Speed=0.828000m/h.</desc>
<speed>0.230000</speed>
</trkpt>
<trkpt lat="56.069141" lon="26.457981">
<ele>112.512756</ele>
<time>2010-08-29T12:49:12Z</time>
<desc>lat.=56.069141, lon.=26.457981, Alt.=112.512756m. Speed=0.684000m/h.</desc>
<speed>0.190000</speed>
</trkpt>
<trkpt lat="56.069141" lon="26.457979">
<ele>112.573303</ele>
<time>2010-08-29T12:49:13Z</time>
<desc>lat.=56.069141, lon.=26.457979, Alt.=112.573303m. Speed=0.468000m/h.</desc>
<speed>0.130000</speed>
</trkpt>
<trkpt lat="56.069141" lon="26.457977">
<ele>112.635803</ele>
<time>2010-08-29T12:49:14Z</time>
<desc>lat.=56.069141, lon.=26.457977, Alt.=112.635803m. Speed=0.396000m/h.</desc>
<speed>0.110000</speed>
</trkpt>
<trkpt lat="56.069141" lon="26.457975">
<ele>112.700256</ele>
<time>2010-08-29T12:49:15Z</time>
<desc>lat.=56.069141, lon.=26.457975, Alt.=112.700256m. Speed=0.432000m/h.</desc>
<speed>0.120000</speed>
</trkpt>
<trkpt lat="56.069141" lon="26.457972">
<ele>112.768616</ele>
<time>2010-08-29T12:49:16Z</time>
<desc>lat.=56.069141, lon.=26.457972, Alt.=112.768616m. Speed=0.360000m/h.</desc>
<speed>0.100000</speed>
</trkpt>
<trkpt lat="56.069141" lon="26.457970">
<ele>112.844788</ele>
<time>2010-08-29T12:49:17Z</time>
<desc>lat.=56.069141, lon.=26.457970, Alt.=112.844788m. Speed=0.540000m/h.</desc>
<speed>0.150000</speed>
</trkpt>
<trkpt lat="56.069141" lon="26.457968">
<ele>112.924866</ele>
<time>2010-08-29T12:49:18Z</time>
<desc>lat.=56.069141, lon.=26.457968, Alt.=112.924866m. Speed=0.612000m/h.</desc>
<speed>0.170000</speed>
</trkpt>
<trkpt lat="56.069141" lon="26.457966">
<ele>113.004944</ele>
<time>2010-08-29T12:49:19Z</time>
<desc>lat.=56.069141, lon.=26.457966, Alt.=113.004944m. Speed=0.792000m/h.</desc>
<speed>0.220000</speed>
</trkpt>
<trkpt lat="56.069145" lon="26.457962">
<ele>113.088928</ele>
<time>2010-08-29T12:49:20Z</time>
<desc>lat.=56.069145, lon.=26.457962, Alt.=113.088928m. Speed=0.792000m/h.</desc>
<speed>0.220000</speed>
</trkpt>
<trkpt lat="56.069145" lon="26.457958">
<ele>113.170959</ele>
<time>2010-08-29T12:49:21Z</time>
<desc>lat.=56.069145, lon.=26.457958, Alt.=113.170959m. Speed=0.936000m/h.</desc>
<speed>0.260000</speed>
</trkpt>
<trkpt lat="56.069145" lon="26.457952">
<ele>113.249084</ele>
<time>2010-08-29T12:49:22Z</time>
<desc>lat.=56.069145, lon.=26.457952, Alt.=113.249084m. Speed=0.972000m/h.</desc>
<speed>0.270000</speed>
</trkpt>
<trkpt lat="56.069145" lon="26.457949">
<ele>113.323303</ele>
<time>2010-08-29T12:49:23Z</time>
<desc>lat.=56.069145, lon.=26.457949, Alt.=113.323303m. Speed=1.080000m/h.</desc>
<speed>0.300000</speed>
</trkpt>
<trkpt lat="56.069145" lon="26.457935">
<ele>113.102600</ele>
<time>2010-08-29T12:49:24Z</time>
<desc>lat.=56.069145, lon.=26.457935, Alt.=113.102600m. Speed=0.972000m/h.</desc>
<speed>0.270000</speed>
</trkpt>
<trkpt lat="56.069145" lon="26.457924">
<ele>113.331116</ele>
<time>2010-08-29T12:49:25Z</time>
<desc>lat.=56.069145, lon.=26.457924, Alt.=113.331116m. Speed=0.936000m/h.</desc>
<speed>0.260000</speed>
</trkpt>
<trkpt lat="56.069145" lon="26.457916">
<ele>113.510803</ele>
<time>2010-08-29T12:49:26Z</time>
<desc>lat.=56.069145, lon.=26.457916, Alt.=113.510803m. Speed=0.900000m/h.</desc>
<speed>0.250000</speed>
</trkpt>
<trkpt lat="56.069149" lon="26.457909">
<ele>113.948303</ele>
<time>2010-08-29T12:49:27Z</time>
<desc>lat.=56.069149, lon.=26.457909, Alt.=113.948303m. Speed=0.828000m/h.</desc>
<speed>0.230000</speed>
</trkpt>
<trkpt lat="56.069149" lon="26.457905">
<ele>114.034241</ele>
<time>2010-08-29T12:49:28Z</time>
<desc>lat.=56.069149, lon.=26.457905, Alt.=114.034241m. Speed=0.612000m/h.</desc>
<speed>0.170000</speed>
</trkpt>
<trkpt lat="56.069149" lon="26.457903">
<ele>114.122131</ele>
<time>2010-08-29T12:49:29Z</time>
<desc>lat.=56.069149, lon.=26.457903, Alt.=114.122131m. Speed=0.504000m/h.</desc>
<speed>0.140000</speed>
</trkpt>
<trkpt lat="56.069149" lon="26.457901">
<ele>114.213928</ele>
<time>2010-08-29T12:49:30Z</time>
<desc>lat.=56.069149, lon.=26.457901, Alt.=114.213928m. Speed=0.504000m/h.</desc>
<speed>0.140000</speed>
</trkpt>
<trkpt lat="56.069153" lon="26.457899">
<ele>114.309631</ele>
<time>2010-08-29T12:49:31Z</time>
<desc>lat.=56.069153, lon.=26.457899, Alt.=114.309631m. Speed=0.612000m/h.</desc>
<speed>0.170000</speed>
</trkpt>
<trkpt lat="56.069153" lon="26.457897">
<ele>114.409241</ele>
<time>2010-08-29T12:49:32Z</time>
<desc>lat.=56.069153, lon.=26.457897, Alt.=114.409241m. Speed=0.648000m/h.</desc>
<speed>0.180000</speed>
</trkpt>
<trkpt lat="56.069157" lon="26.457897">
<ele>114.512756</ele>
<time>2010-08-29T12:49:33Z</time>
<desc>lat.=56.069157, lon.=26.457897, Alt.=114.512756m. Speed=0.432000m/h.</desc>
<speed>0.120000</speed>
</trkpt>
<trkpt lat="56.069157" lon="26.457897">
<ele>114.622131</ele>
<time>2010-08-29T12:49:34Z</time>
<desc>lat.=56.069157, lon.=26.457897, Alt.=114.622131m. Speed=0.216000m/h.</desc>
<speed>0.060000</speed>
</trkpt>
<trkpt lat="56.069157" lon="26.457897">
<ele>114.739319</ele>
<time>2010-08-29T12:49:35Z</time>
<desc>lat.=56.069157, lon.=26.457897, Alt.=114.739319m. Speed=0.504000m/h.</desc>
<speed>0.140000</speed>
</trkpt>
<trkpt lat="56.069157" lon="26.457895">
<ele>114.864319</ele>
<time>2010-08-29T12:49:36Z</time>
<desc>lat.=56.069157, lon.=26.457895, Alt.=114.864319m. Speed=0.720000m/h.</desc>
<speed>0.200000</speed>
</trkpt>
<trkpt lat="56.069160" lon="26.457893">
<ele>114.995178</ele>
<time>2010-08-29T12:49:37Z</time>
<desc>lat.=56.069160, lon.=26.457893, Alt.=114.995178m. Speed=0.792000m/h.</desc>
<speed>0.220000</speed>
</trkpt>
<trkpt lat="56.069160" lon="26.457893">
<ele>115.137756</ele>
<time>2010-08-29T12:49:38Z</time>
<desc>lat.=56.069160, lon.=26.457893, Alt.=115.137756m. Speed=0.972000m/h.</desc>
<speed>0.270000</speed>
</trkpt>
<trkpt lat="56.069164" lon="26.457891">
<ele>115.284241</ele>
<time>2010-08-29T12:49:39Z</time>
<desc>lat.=56.069164, lon.=26.457891, Alt.=115.284241m. Speed=0.936000m/h.</desc>
<speed>0.260000</speed>
</trkpt>
<trkpt lat="56.069168" lon="26.457893">
<ele>115.440491</ele>
<time>2010-08-29T12:49:40Z</time>
<desc>lat.=56.069168, lon.=26.457893, Alt.=115.440491m. Speed=1.116000m/h.</desc>
<speed>0.310000</speed>
</trkpt>
<trkpt lat="56.069180" lon="26.457897">
<ele>116.188538</ele>
<time>2010-08-29T12:49:41Z</time>
<desc>lat.=56.069180, lon.=26.457897, Alt.=116.188538m. Speed=1.332000m/h.</desc>
<speed>0.370000</speed>
</trkpt>
<trkpt lat="56.069180" lon="26.457895">
<ele>116.743225</ele>
<time>2010-08-29T12:49:42Z</time>
<desc>lat.=56.069180, lon.=26.457895, Alt.=116.743225m. Speed=1.044000m/h.</desc>
<speed>0.290000</speed>
</trkpt>
<trkpt lat="56.069183" lon="26.457890">
<ele>117.360413</ele>
<time>2010-08-29T12:49:43Z</time>
<desc>lat.=56.069183, lon.=26.457890, Alt.=117.360413m. Speed=0.972000m/h.</desc>
<speed>0.270000</speed>
</trkpt>
<trkpt lat="56.069202" lon="26.457886">
<ele>117.686584</ele>
<time>2010-08-29T12:49:44Z</time>
<desc>lat.=56.069202, lon.=26.457886, Alt.=117.686584m. Speed=1.368000m/h.</desc>
<speed>0.380000</speed>
</trkpt>
<trkpt lat="56.069214" lon="26.457888">
<ele>118.362366</ele>
<time>2010-08-29T12:49:45Z</time>
<desc>lat.=56.069214, lon.=26.457888, Alt.=118.362366m. Speed=1.440000m/h.</desc>
<speed>0.400000</speed>
</trkpt>
<trkpt lat="56.069218" lon="26.457890">
<ele>119.059631</ele>
<time>2010-08-29T12:49:46Z</time>
<desc>lat.=56.069218, lon.=26.457890, Alt.=119.059631m. Speed=1.404000m/h.</desc>
<speed>0.390000</speed>
</trkpt>
<trkpt lat="56.069214" lon="26.457884">
<ele>119.694397</ele>
<time>2010-08-29T12:49:47Z</time>
<desc>lat.=56.069214, lon.=26.457884, Alt.=119.694397m. Speed=1.152000m/h.</desc>
<speed>0.320000</speed>
</trkpt>
<trkpt lat="56.069214" lon="26.457890">
<ele>119.899475</ele>
<time>2010-08-29T12:49:48Z</time>
<desc>lat.=56.069214, lon.=26.457890, Alt.=119.899475m. Speed=1.008000m/h.</desc>
<speed>0.280000</speed>
</trkpt>
<trkpt lat="56.069210" lon="26.457895">
<ele>120.223694</ele>
<time>2010-08-29T12:49:49Z</time>
<desc>lat.=56.069210, lon.=26.457895, Alt.=120.223694m. Speed=0.648000m/h.</desc>
<speed>0.180000</speed>
</trkpt>
<trkpt lat="56.069210" lon="26.457912">
<ele>119.672913</ele>
<time>2010-08-29T12:49:50Z</time>
<desc>lat.=56.069210, lon.=26.457912, Alt.=119.672913m. Speed=0.540000m/h.</desc>
<speed>0.150000</speed>
</trkpt>
<trkpt lat="56.069214" lon="26.457932">
<ele>119.682678</ele>
<time>2010-08-29T12:49:51Z</time>
<desc>lat.=56.069214, lon.=26.457932, Alt.=119.682678m. Speed=0.684000m/h.</desc>
<speed>0.190000</speed>
</trkpt>
<trkpt lat="56.069214" lon="26.457935">
<ele>119.831116</ele>
<time>2010-08-29T12:49:52Z</time>
<desc>lat.=56.069214, lon.=26.457935, Alt.=119.831116m. Speed=0.864000m/h.</desc>
<speed>0.240000</speed>
</trkpt>
<trkpt lat="56.069214" lon="26.457937">
<ele>119.989319</ele>
<time>2010-08-29T12:49:53Z</time>
<desc>lat.=56.069214, lon.=26.457937, Alt.=119.989319m. Speed=0.792000m/h.</desc>
<speed>0.220000</speed>
</trkpt>
<trkpt lat="56.069218" lon="26.457941">
<ele>120.143616</ele>
<time>2010-08-29T12:49:54Z</time>
<desc>lat.=56.069218, lon.=26.457941, Alt.=120.143616m. Speed=0.864000m/h.</desc>
<speed>0.240000</speed>
</trkpt>
<trkpt lat="56.069218" lon="26.457943">
<ele>120.299866</ele>
<time>2010-08-29T12:49:55Z</time>
<desc>lat.=56.069218, lon.=26.457943, Alt.=120.299866m. Speed=0.828000m/h.</desc>
<speed>0.230000</speed>
</trkpt>
<trkpt lat="56.069218" lon="26.457947">
<ele>120.452209</ele>
<time>2010-08-29T12:49:56Z</time>
<desc>lat.=56.069218, lon.=26.457947, Alt.=120.452209m. Speed=0.828000m/h.</desc>
<speed>0.230000</speed>
</trkpt>
<trkpt lat="56.069218" lon="26.457951">
<ele>120.600647</ele>
<time>2010-08-29T12:49:57Z</time>
<desc>lat.=56.069218, lon.=26.457951, Alt.=120.600647m. Speed=0.648000m/h.</desc>
<speed>0.180000</speed>
</trkpt>
<trkpt lat="56.069218" lon="26.457952">
<ele>120.729553</ele>
<time>2010-08-29T12:49:58Z</time>
<desc>lat.=56.069218, lon.=26.457952, Alt.=120.729553m. Speed=0.684000m/h.</desc>
<speed>0.190000</speed>
</trkpt>
<trkpt lat="56.069221" lon="26.457956">
<ele>120.862366</ele>
<time>2010-08-29T12:49:59Z</time>
<desc>lat.=56.069221, lon.=26.457956, Alt.=120.862366m. Speed=0.648000m/h.</desc>
<speed>0.180000</speed>
</trkpt>
<trkpt lat="56.069218" lon="26.457958">
<ele>120.995178</ele>
<time>2010-08-29T12:50:00Z</time>
<desc>lat.=56.069218, lon.=26.457958, Alt.=120.995178m. Speed=0.720000m/h.</desc>
<speed>0.200000</speed>
</trkpt>
<trkpt lat="56.069218" lon="26.457960">
<ele>121.133850</ele>
<time>2010-08-29T12:50:01Z</time>
<desc>lat.=56.069218, lon.=26.457960, Alt.=121.133850m. Speed=0.504000m/h.</desc>
<speed>0.140000</speed>
</trkpt>
<trkpt lat="56.069218" lon="26.457962">
<ele>121.276428</ele>
<time>2010-08-29T12:50:02Z</time>
<desc>lat.=56.069218, lon.=26.457962, Alt.=121.276428m. Speed=0.468000m/h.</desc>
<speed>0.130000</speed>
</trkpt>
<trkpt lat="56.069218" lon="26.457962">
<ele>121.419006</ele>
<time>2010-08-29T12:50:03Z</time>
<desc>lat.=56.069218, lon.=26.457962, Alt.=121.419006m. Speed=0.432000m/h.</desc>
<speed>0.120000</speed>
</trkpt>
<trkpt lat="56.069214" lon="26.457964">
<ele>121.559631</ele>
<time>2010-08-29T12:50:04Z</time>
<desc>lat.=56.069214, lon.=26.457964, Alt.=121.559631m. Speed=0.540000m/h.</desc>
<speed>0.150000</speed>
</trkpt>
<trkpt lat="56.069214" lon="26.457964">
<ele>121.694397</ele>
<time>2010-08-29T12:50:05Z</time>
<desc>lat.=56.069214, lon.=26.457964, Alt.=121.694397m. Speed=0.612000m/h.</desc>
<speed>0.170000</speed>
</trkpt>
<trkpt lat="56.069210" lon="26.457962">
<ele>121.827209</ele>
<time>2010-08-29T12:50:06Z</time>
<desc>lat.=56.069210, lon.=26.457962, Alt.=121.827209m. Speed=0.936000m/h.</desc>
<speed>0.260000</speed>
</trkpt>
<trkpt lat="56.069210" lon="26.457960">
<ele>121.963928</ele>
<time>2010-08-29T12:50:07Z</time>
<desc>lat.=56.069210, lon.=26.457960, Alt.=121.963928m. Speed=1.152000m/h.</desc>
<speed>0.320000</speed>
</trkpt>
<trkpt lat="56.069199" lon="26.457952">
<ele>122.278381</ele>
<time>2010-08-29T12:50:08Z</time>
<desc>lat.=56.069199, lon.=26.457952, Alt.=122.278381m. Speed=1.116000m/h.</desc>
<speed>0.310000</speed>
</trkpt>
<trkpt lat="56.069183" lon="26.457945">
<ele>122.270569</ele>
<time>2010-08-29T12:50:09Z</time>
<desc>lat.=56.069183, lon.=26.457945, Alt.=122.270569m. Speed=1.332000m/h.</desc>
<speed>0.370000</speed>
</trkpt>
<trkpt lat="56.069176" lon="26.457939">
<ele>122.401428</ele>
<time>2010-08-29T12:50:10Z</time>
<desc>lat.=56.069176, lon.=26.457939, Alt.=122.401428m. Speed=1.476000m/h.</desc>
<speed>0.410000</speed>
</trkpt>
<trkpt lat="56.069164" lon="26.457930">
<ele>122.731506</ele>
<time>2010-08-29T12:50:11Z</time>
<desc>lat.=56.069164, lon.=26.457930, Alt.=122.731506m. Speed=1.584000m/h.</desc>
<speed>0.440000</speed>
</trkpt>
<trkpt lat="56.069149" lon="26.457922">
<ele>122.618225</ele>
<time>2010-08-29T12:50:12Z</time>
<desc>lat.=56.069149, lon.=26.457922, Alt.=122.618225m. Speed=1.800000m/h.</desc>
<speed>0.500000</speed>
</trkpt>
<trkpt lat="56.069138" lon="26.457914">
<ele>122.961975</ele>
<time>2010-08-29T12:50:13Z</time>
<desc>lat.=56.069138, lon.=26.457914, Alt.=122.961975m. Speed=1.944000m/h.</desc>
<speed>0.540000</speed>
</trkpt>
<trkpt lat="56.069130" lon="26.457909">
<ele>123.333069</ele>
<time>2010-08-29T12:50:14Z</time>
<desc>lat.=56.069130, lon.=26.457909, Alt.=123.333069m. Speed=1.944000m/h.</desc>
<speed>0.540000</speed>
</trkpt>
<trkpt lat="56.069122" lon="26.457905">
<ele>123.549866</ele>
<time>2010-08-29T12:50:15Z</time>
<desc>lat.=56.069122, lon.=26.457905, Alt.=123.549866m. Speed=1.944000m/h.</desc>
<speed>0.540000</speed>
</trkpt>
<trkpt lat="56.069107" lon="26.457901">
<ele>123.803772</ele>
<time>2010-08-29T12:50:16Z</time>
<desc>lat.=56.069107, lon.=26.457901, Alt.=123.803772m. Speed=2.052000m/h.</desc>
<speed>0.570000</speed>
</trkpt>
<trkpt lat="56.069099" lon="26.457893">
<ele>124.219788</ele>
<time>2010-08-29T12:50:17Z</time>
<desc>lat.=56.069099, lon.=26.457893, Alt.=124.219788m. Speed=1.908000m/h.</desc>
<speed>0.530000</speed>
</trkpt>
<trkpt lat="56.069088" lon="26.457901">
<ele>124.586975</ele>
<time>2010-08-29T12:50:18Z</time>
<desc>lat.=56.069088, lon.=26.457901, Alt.=124.586975m. Speed=1.908000m/h.</desc>
<speed>0.530000</speed>
</trkpt>
<trkpt lat="56.069077" lon="26.457911">
<ele>124.770569</ele>
<time>2010-08-29T12:50:19Z</time>
<desc>lat.=56.069077, lon.=26.457911, Alt.=124.770569m. Speed=1.872000m/h.</desc>
<speed>0.520000</speed>
</trkpt>
<trkpt lat="56.069073" lon="26.457928">
<ele>124.938538</ele>
<time>2010-08-29T12:50:20Z</time>
<desc>lat.=56.069073, lon.=26.457928, Alt.=124.938538m. Speed=1.764000m/h.</desc>
<speed>0.490000</speed>
</trkpt>
<trkpt lat="56.069069" lon="26.457933">
<ele>125.018616</ele>
<time>2010-08-29T12:50:21Z</time>
<desc>lat.=56.069069, lon.=26.457933, Alt.=125.018616m. Speed=1.620000m/h.</desc>
<speed>0.450000</speed>
</trkpt>
<trkpt lat="56.069069" lon="26.457930">
<ele>125.086975</ele>
<time>2010-08-29T12:50:22Z</time>
<desc>lat.=56.069069, lon.=26.457930, Alt.=125.086975m. Speed=1.476000m/h.</desc>
<speed>0.410000</speed>
</trkpt>
<trkpt lat="56.069073" lon="26.457930">
<ele>125.067444</ele>
<time>2010-08-29T12:50:23Z</time>
<desc>lat.=56.069073, lon.=26.457930, Alt.=125.067444m. Speed=1.188000m/h.</desc>
<speed>0.330000</speed>
</trkpt>
<trkpt lat="56.069073" lon="26.457933">
<ele>125.219788</ele>
<time>2010-08-29T12:50:24Z</time>
<desc>lat.=56.069073, lon.=26.457933, Alt.=125.219788m. Speed=1.008000m/h.</desc>
<speed>0.280000</speed>
</trkpt>
<trkpt lat="56.069080" lon="26.457926">
<ele>125.360413</ele>
<time>2010-08-29T12:50:25Z</time>
<desc>lat.=56.069080, lon.=26.457926, Alt.=125.360413m. Speed=1.080000m/h.</desc>
<speed>0.300000</speed>
</trkpt>
<trkpt lat="56.069084" lon="26.457930">
<ele>125.499084</ele>
<time>2010-08-29T12:50:26Z</time>
<desc>lat.=56.069084, lon.=26.457930, Alt.=125.499084m. Speed=0.900000m/h.</desc>
<speed>0.250000</speed>
</trkpt>
<trkpt lat="56.069092" lon="26.457932">
<ele>125.647522</ele>
<time>2010-08-29T12:50:27Z</time>
<desc>lat.=56.069092, lon.=26.457932, Alt.=125.647522m. Speed=0.792000m/h.</desc>
<speed>0.220000</speed>
</trkpt>
<trkpt lat="56.069099" lon="26.457935">
<ele>125.741272</ele>
<time>2010-08-29T12:50:28Z</time>
<desc>lat.=56.069099, lon.=26.457935, Alt.=125.741272m. Speed=0.684000m/h.</desc>
<speed>0.190000</speed>
</trkpt>
<trkpt lat="56.069111" lon="26.457941">
<ele>125.766663</ele>
<time>2010-08-29T12:50:29Z</time>
<desc>lat.=56.069111, lon.=26.457941, Alt.=125.766663m. Speed=0.648000m/h.</desc>
<speed>0.180000</speed>
</trkpt>
<trkpt lat="56.069111" lon="26.457939">
<ele>125.885803</ele>
<time>2010-08-29T12:50:30Z</time>
<desc>lat.=56.069111, lon.=26.457939, Alt.=125.885803m. Speed=0.684000m/h.</desc>
<speed>0.190000</speed>
</trkpt>
<trkpt lat="56.069111" lon="26.457937">
<ele>126.004944</ele>
<time>2010-08-29T12:50:31Z</time>
<desc>lat.=56.069111, lon.=26.457937, Alt.=126.004944m. Speed=0.864000m/h.</desc>
<speed>0.240000</speed>
</trkpt>
<trkpt lat="56.069115" lon="26.457935">
<ele>126.124084</ele>
<time>2010-08-29T12:50:32Z</time>
<desc>lat.=56.069115, lon.=26.457935, Alt.=126.124084m. Speed=1.188000m/h.</desc>
<speed>0.330000</speed>
</trkpt>
<trkpt lat="56.069118" lon="26.457935">
<ele>126.239319</ele>
<time>2010-08-29T12:50:33Z</time>
<desc>lat.=56.069118, lon.=26.457935, Alt.=126.239319m. Speed=1.044000m/h.</desc>
<speed>0.290000</speed>
</trkpt>
<trkpt lat="56.069126" lon="26.457935">
<ele>126.108459</ele>
<time>2010-08-29T12:50:34Z</time>
<desc>lat.=56.069126, lon.=26.457935, Alt.=126.108459m. Speed=1.116000m/h.</desc>
<speed>0.310000</speed>
</trkpt>
<trkpt lat="56.069134" lon="26.457941">
<ele>126.299866</ele>
<time>2010-08-29T12:50:35Z</time>
<desc>lat.=56.069134, lon.=26.457941, Alt.=126.299866m. Speed=1.260000m/h.</desc>
<speed>0.350000</speed>
</trkpt>
<trkpt lat="56.069141" lon="26.457943">
<ele>126.391663</ele>
<time>2010-08-29T12:50:36Z</time>
<desc>lat.=56.069141, lon.=26.457943, Alt.=126.391663m. Speed=1.584000m/h.</desc>
<speed>0.440000</speed>
</trkpt>
<trkpt lat="56.069153" lon="26.457947">
<ele>126.526428</ele>
<time>2010-08-29T12:50:37Z</time>
<desc>lat.=56.069153, lon.=26.457947, Alt.=126.526428m. Speed=1.980000m/h.</desc>
<speed>0.550000</speed>
</trkpt>
<trkpt lat="56.069160" lon="26.457952">
<ele>126.569397</ele>
<time>2010-08-29T12:50:38Z</time>
<desc>lat.=56.069160, lon.=26.457952, Alt.=126.569397m. Speed=2.052000m/h.</desc>
<speed>0.570000</speed>
</trkpt>
<trkpt lat="56.069168" lon="26.457954">
<ele>126.663147</ele>
<time>2010-08-29T12:50:39Z</time>
<desc>lat.=56.069168, lon.=26.457954, Alt.=126.663147m. Speed=1.836000m/h.</desc>
<speed>0.510000</speed>
</trkpt>
<trkpt lat="56.069176" lon="26.457960">
<ele>126.776428</ele>
<time>2010-08-29T12:50:40Z</time>
<desc>lat.=56.069176, lon.=26.457960, Alt.=126.776428m. Speed=2.016000m/h.</desc>
<speed>0.560000</speed>
</trkpt>
<trkpt lat="56.069187" lon="26.457970">
<ele>126.665100</ele>
<time>2010-08-29T12:50:41Z</time>
<desc>lat.=56.069187, lon.=26.457970, Alt.=126.665100m. Speed=2.088000m/h.</desc>
<speed>0.580000</speed>
</trkpt>
<trkpt lat="56.069195" lon="26.457985">
<ele>126.592834</ele>
<time>2010-08-29T12:50:42Z</time>
<desc>lat.=56.069195, lon.=26.457985, Alt.=126.592834m. Speed=1.800000m/h.</desc>
<speed>0.500000</speed>
</trkpt>
<trkpt lat="56.069202" lon="26.457991">
<ele>126.612366</ele>
<time>2010-08-29T12:50:43Z</time>
<desc>lat.=56.069202, lon.=26.457991, Alt.=126.612366m. Speed=1.728000m/h.</desc>
<speed>0.480000</speed>
</trkpt>
<trkpt lat="56.069214" lon="26.457998">
<ele>126.526428</ele>
<time>2010-08-29T12:50:44Z</time>
<desc>lat.=56.069214, lon.=26.457998, Alt.=126.526428m. Speed=2.556000m/h.</desc>
<speed>0.710000</speed>
</trkpt>
<trkpt lat="56.069221" lon="26.458002">
<ele>126.588928</ele>
<time>2010-08-29T12:50:45Z</time>
<desc>lat.=56.069221, lon.=26.458002, Alt.=126.588928m. Speed=2.304000m/h.</desc>
<speed>0.640000</speed>
</trkpt>
<trkpt lat="56.069229" lon="26.458008">
<ele>126.661194</ele>
<time>2010-08-29T12:50:46Z</time>
<desc>lat.=56.069229, lon.=26.458008, Alt.=126.661194m. Speed=2.268000m/h.</desc>
<speed>0.630000</speed>
</trkpt>
<trkpt lat="56.069237" lon="26.458017">
<ele>126.708069</ele>
<time>2010-08-29T12:50:47Z</time>
<desc>lat.=56.069237, lon.=26.458017, Alt.=126.708069m. Speed=2.304000m/h.</desc>
<speed>0.640000</speed>
</trkpt>
<trkpt lat="56.069244" lon="26.458021">
<ele>126.782288</ele>
<time>2010-08-29T12:50:48Z</time>
<desc>lat.=56.069244, lon.=26.458021, Alt.=126.782288m. Speed=1.872000m/h.</desc>
<speed>0.520000</speed>
</trkpt>
<trkpt lat="56.069260" lon="26.458021">
<ele>126.795959</ele>
<time>2010-08-29T12:50:49Z</time>
<desc>lat.=56.069260, lon.=26.458021, Alt.=126.795959m. Speed=1.656000m/h.</desc>
<speed>0.460000</speed>
</trkpt>
<trkpt lat="56.069271" lon="26.458033">
<ele>126.940491</ele>
<time>2010-08-29T12:50:50Z</time>
<desc>lat.=56.069271, lon.=26.458033, Alt.=126.940491m. Speed=1.764000m/h.</desc>
<speed>0.490000</speed>
</trkpt>
<trkpt lat="56.069283" lon="26.458038">
<ele>126.715881</ele>
<time>2010-08-29T12:50:51Z</time>
<desc>lat.=56.069283, lon.=26.458038, Alt.=126.715881m. Speed=1.908000m/h.</desc>
<speed>0.530000</speed>
</trkpt>
<trkpt lat="56.069302" lon="26.458035">
<ele>126.934631</ele>
<time>2010-08-29T12:50:52Z</time>
<desc>lat.=56.069302, lon.=26.458035, Alt.=126.934631m. Speed=2.772000m/h.</desc>
<speed>0.770000</speed>
</trkpt>
<trkpt lat="56.069313" lon="26.458036">
<ele>127.231506</ele>
<time>2010-08-29T12:50:53Z</time>
<desc>lat.=56.069313, lon.=26.458036, Alt.=127.231506m. Speed=3.024000m/h.</desc>
<speed>0.840000</speed>
</trkpt>
<trkpt lat="56.069324" lon="26.458040">
<ele>127.147522</ele>
<time>2010-08-29T12:50:54Z</time>
<desc>lat.=56.069324, lon.=26.458040, Alt.=127.147522m. Speed=2.880000m/h.</desc>
<speed>0.800000</speed>
</trkpt>
<trkpt lat="56.069347" lon="26.458010">
<ele>127.169006</ele>
<time>2010-08-29T12:50:55Z</time>
<desc>lat.=56.069347, lon.=26.458010, Alt.=127.169006m. Speed=4.572000m/h.</desc>
<speed>1.270000</speed>
</trkpt>
<trkpt lat="56.069359" lon="26.458014">
<ele>127.190491</ele>
<time>2010-08-29T12:50:56Z</time>
<desc>lat.=56.069359, lon.=26.458014, Alt.=127.190491m. Speed=3.924000m/h.</desc>
<speed>1.090000</speed>
</trkpt>
<trkpt lat="56.069378" lon="26.458012">
<ele>127.188538</ele>
<time>2010-08-29T12:50:57Z</time>
<desc>lat.=56.069378, lon.=26.458012, Alt.=127.188538m. Speed=3.780000m/h.</desc>
<speed>1.050000</speed>
</trkpt>
<trkpt lat="56.069389" lon="26.458021">
<ele>127.208069</ele>
<time>2010-08-29T12:50:58Z</time>
<desc>lat.=56.069389, lon.=26.458021, Alt.=127.208069m. Speed=3.456000m/h.</desc>
<speed>0.960000</speed>
</trkpt>
<trkpt lat="56.069405" lon="26.458029">
<ele>127.221741</ele>
<time>2010-08-29T12:50:59Z</time>
<desc>lat.=56.069405, lon.=26.458029, Alt.=127.221741m. Speed=2.772000m/h.</desc>
<speed>0.770000</speed>
</trkpt>
<trkpt lat="56.069431" lon="26.458042">
<ele>127.317444</ele>
<time>2010-08-29T12:51:00Z</time>
<desc>lat.=56.069431, lon.=26.458042, Alt.=127.317444m. Speed=2.592000m/h.</desc>
<speed>0.720000</speed>
</trkpt>
<trkpt lat="56.069454" lon="26.458038">
<ele>127.051819</ele>
<time>2010-08-29T12:51:01Z</time>
<desc>lat.=56.069454, lon.=26.458038, Alt.=127.051819m. Speed=2.196000m/h.</desc>
<speed>0.610000</speed>
</trkpt>
<trkpt lat="56.069477" lon="26.458057">
<ele>126.786194</ele>
<time>2010-08-29T12:51:02Z</time>
<desc>lat.=56.069477, lon.=26.458057, Alt.=126.786194m. Speed=2.700000m/h.</desc>
<speed>0.750000</speed>
</trkpt>
<trkpt lat="56.069492" lon="26.458067">
<ele>126.766663</ele>
<time>2010-08-29T12:51:03Z</time>
<desc>lat.=56.069492, lon.=26.458067, Alt.=126.766663m. Speed=2.412000m/h.</desc>
<speed>0.670000</speed>
</trkpt>
<trkpt lat="56.069504" lon="26.458080">
<ele>127.016663</ele>
<time>2010-08-29T12:51:04Z</time>
<desc>lat.=56.069504, lon.=26.458080, Alt.=127.016663m. Speed=2.520000m/h.</desc>
<speed>0.700000</speed>
</trkpt>
<trkpt lat="56.069527" lon="26.458134">
<ele>126.708069</ele>
<time>2010-08-29T12:51:05Z</time>
<desc>lat.=56.069527, lon.=26.458134, Alt.=126.708069m. Speed=2.952000m/h.</desc>
<speed>0.820000</speed>
</trkpt>
<trkpt lat="56.069538" lon="26.458139">
<ele>126.602600</ele>
<time>2010-08-29T12:51:06Z</time>
<desc>lat.=56.069538, lon.=26.458139, Alt.=126.602600m. Speed=1.944000m/h.</desc>
<speed>0.540000</speed>
</trkpt>
<trkpt lat="56.069550" lon="26.458155">
<ele>126.522522</ele>
<time>2010-08-29T12:51:07Z</time>
<desc>lat.=56.069550, lon.=26.458155, Alt.=126.522522m. Speed=2.844000m/h.</desc>
<speed>0.790000</speed>
</trkpt>
<trkpt lat="56.069561" lon="26.458164">
<ele>126.655334</ele>
<time>2010-08-29T12:51:08Z</time>
<desc>lat.=56.069561, lon.=26.458164, Alt.=126.655334m. Speed=2.376000m/h.</desc>
<speed>0.660000</speed>
</trkpt>
<trkpt lat="56.069569" lon="26.458174">
<ele>126.774475</ele>
<time>2010-08-29T12:51:09Z</time>
<desc>lat.=56.069569, lon.=26.458174, Alt.=126.774475m. Speed=2.664000m/h.</desc>
<speed>0.740000</speed>
</trkpt>
<trkpt lat="56.069576" lon="26.458181">
<ele>126.792053</ele>
<time>2010-08-29T12:51:10Z</time>
<desc>lat.=56.069576, lon.=26.458181, Alt.=126.792053m. Speed=2.412000m/h.</desc>
<speed>0.670000</speed>
</trkpt>
<trkpt lat="56.069584" lon="26.458185">
<ele>127.077209</ele>
<time>2010-08-29T12:51:11Z</time>
<desc>lat.=56.069584, lon.=26.458185, Alt.=127.077209m. Speed=2.376000m/h.</desc>
<speed>0.660000</speed>
</trkpt>
<trkpt lat="56.069588" lon="26.458181">
<ele>127.235413</ele>
<time>2010-08-29T12:51:12Z</time>
<desc>lat.=56.069588, lon.=26.458181, Alt.=127.235413m. Speed=1.800000m/h.</desc>
<speed>0.500000</speed>
</trkpt>
<trkpt lat="56.069588" lon="26.458179">
<ele>127.489319</ele>
<time>2010-08-29T12:51:13Z</time>
<desc>lat.=56.069588, lon.=26.458179, Alt.=127.489319m. Speed=1.332000m/h.</desc>
<speed>0.370000</speed>
</trkpt>
<trkpt lat="56.069599" lon="26.458178">
<ele>127.620178</ele>
<time>2010-08-29T12:51:14Z</time>
<desc>lat.=56.069599, lon.=26.458178, Alt.=127.620178m. Speed=3.060000m/h.</desc>
<speed>0.850000</speed>
</trkpt>
<trkpt lat="56.069603" lon="26.458176">
<ele>127.506897</ele>
<time>2010-08-29T12:51:15Z</time>
<desc>lat.=56.069603, lon.=26.458176, Alt.=127.506897m. Speed=1.872000m/h.</desc>
<speed>0.520000</speed>
</trkpt>
<trkpt lat="56.069614" lon="26.458170">
<ele>127.643616</ele>
<time>2010-08-29T12:51:16Z</time>
<desc>lat.=56.069614, lon.=26.458170, Alt.=127.643616m. Speed=2.340000m/h.</desc>
<speed>0.650000</speed>
</trkpt>
<trkpt lat="56.069622" lon="26.458172">
<ele>127.713928</ele>
<time>2010-08-29T12:51:17Z</time>
<desc>lat.=56.069622, lon.=26.458172, Alt.=127.713928m. Speed=1.944000m/h.</desc>
<speed>0.540000</speed>
</trkpt>
<trkpt lat="56.069630" lon="26.458174">
<ele>127.719788</ele>
<time>2010-08-29T12:51:18Z</time>
<desc>lat.=56.069630, lon.=26.458174, Alt.=127.719788m. Speed=1.872000m/h.</desc>
<speed>0.520000</speed>
</trkpt>
<trkpt lat="56.069637" lon="26.458178">
<ele>127.846741</ele>
<time>2010-08-29T12:51:19Z</time>
<desc>lat.=56.069637, lon.=26.458178, Alt.=127.846741m. Speed=1.944000m/h.</desc>
<speed>0.540000</speed>
</trkpt>
<trkpt lat="56.069645" lon="26.458176">
<ele>127.997131</ele>
<time>2010-08-29T12:51:20Z</time>
<desc>lat.=56.069645, lon.=26.458176, Alt.=127.997131m. Speed=1.980000m/h.</desc>
<speed>0.550000</speed>
</trkpt>
<trkpt lat="56.069653" lon="26.458178">
<ele>127.942444</ele>
<time>2010-08-29T12:51:21Z</time>
<desc>lat.=56.069653, lon.=26.458178, Alt.=127.942444m. Speed=1.836000m/h.</desc>
<speed>0.510000</speed>
</trkpt>
<trkpt lat="56.069668" lon="26.458191">
<ele>127.756897</ele>
<time>2010-08-29T12:51:22Z</time>
<desc>lat.=56.069668, lon.=26.458191, Alt.=127.756897m. Speed=3.564000m/h.</desc>
<speed>0.990000</speed>
</trkpt>
<trkpt lat="56.069683" lon="26.458199">
<ele>127.725647</ele>
<time>2010-08-29T12:51:23Z</time>
<desc>lat.=56.069683, lon.=26.458199, Alt.=127.725647m. Speed=3.600000m/h.</desc>
<speed>1.000000</speed>
</trkpt>
<trkpt lat="56.069695" lon="26.458204">
<ele>127.627991</ele>
<time>2010-08-29T12:51:24Z</time>
<desc>lat.=56.069695, lon.=26.458204, Alt.=127.627991m. Speed=3.384000m/h.</desc>
<speed>0.940000</speed>
</trkpt>
<trkpt lat="56.069706" lon="26.458202">
<ele>127.698303</ele>
<time>2010-08-29T12:51:25Z</time>
<desc>lat.=56.069706, lon.=26.458202, Alt.=127.698303m. Speed=2.484000m/h.</desc>
<speed>0.690000</speed>
</trkpt>
<trkpt lat="56.069714" lon="26.458208">
<ele>127.836975</ele>
<time>2010-08-29T12:51:26Z</time>
<desc>lat.=56.069714, lon.=26.458208, Alt.=127.836975m. Speed=2.772000m/h.</desc>
<speed>0.770000</speed>
</trkpt>
<trkpt lat="56.069721" lon="26.458208">
<ele>128.029419</ele>
<time>2010-08-29T12:51:27Z</time>
<desc>lat.=56.069721, lon.=26.458208, Alt.=128.029419m. Speed=2.808000m/h.</desc>
<speed>0.780000</speed>
</trkpt>
<trkpt lat="56.069729" lon="26.458212">
<ele>128.154419</ele>
<time>2010-08-29T12:51:28Z</time>
<desc>lat.=56.069729, lon.=26.458212, Alt.=128.154419m. Speed=2.628000m/h.</desc>
<speed>0.730000</speed>
</trkpt>
<trkpt lat="56.069736" lon="26.458223">
<ele>128.224731</ele>
<time>2010-08-29T12:51:29Z</time>
<desc>lat.=56.069736, lon.=26.458223, Alt.=128.224731m. Speed=3.924000m/h.</desc>
<speed>1.090000</speed>
</trkpt>
<trkpt lat="56.069748" lon="26.458233">
<ele>128.263794</ele>
<time>2010-08-29T12:51:30Z</time>
<desc>lat.=56.069748, lon.=26.458233, Alt.=128.263794m. Speed=3.780000m/h.</desc>
<speed>1.050000</speed>
</trkpt>
<trkpt lat="56.069752" lon="26.458242">
<ele>128.185669</ele>
<time>2010-08-29T12:51:31Z</time>
<desc>lat.=56.069752, lon.=26.458242, Alt.=128.185669m. Speed=3.060000m/h.</desc>
<speed>0.850000</speed>
</trkpt>
<trkpt lat="56.069763" lon="26.458246">
<ele>128.177856</ele>
<time>2010-08-29T12:51:32Z</time>
<desc>lat.=56.069763, lon.=26.458246, Alt.=128.177856m. Speed=3.060000m/h.</desc>
<speed>0.850000</speed>
</trkpt>
<trkpt lat="56.069778" lon="26.458244">
<ele>128.154419</ele>
<time>2010-08-29T12:51:33Z</time>
<desc>lat.=56.069778, lon.=26.458244, Alt.=128.154419m. Speed=2.880000m/h.</desc>
<speed>0.800000</speed>
</trkpt>
<trkpt lat="56.069790" lon="26.458248">
<ele>128.263794</ele>
<time>2010-08-29T12:51:34Z</time>
<desc>lat.=56.069790, lon.=26.458248, Alt.=128.263794m. Speed=3.204000m/h.</desc>
<speed>0.890000</speed>
</trkpt>
<trkpt lat="56.069794" lon="26.458248">
<ele>128.048950</ele>
<time>2010-08-29T12:51:35Z</time>
<desc>lat.=56.069794, lon.=26.458248, Alt.=128.048950m. Speed=4.428000m/h.</desc>
<speed>1.230000</speed>
</trkpt>
<trkpt lat="56.069805" lon="26.458256">
<ele>128.447388</ele>
<time>2010-08-29T12:51:36Z</time>
<desc>lat.=56.069805, lon.=26.458256, Alt.=128.447388m. Speed=3.744000m/h.</desc>
<speed>1.040000</speed>
</trkpt>
<trkpt lat="56.069817" lon="26.458260">
<ele>128.627075</ele>
<time>2010-08-29T12:51:37Z</time>
<desc>lat.=56.069817, lon.=26.458260, Alt.=128.627075m. Speed=3.780000m/h.</desc>
<speed>1.050000</speed>
</trkpt>
<trkpt lat="56.069843" lon="26.458250">
<ele>128.556763</ele>
<time>2010-08-29T12:51:38Z</time>
<desc>lat.=56.069843, lon.=26.458250, Alt.=128.556763m. Speed=4.068000m/h.</desc>
<speed>1.130000</speed>
</trkpt>
<trkpt lat="56.069859" lon="26.458279">
<ele>128.420044</ele>
<time>2010-08-29T12:51:39Z</time>
<desc>lat.=56.069859, lon.=26.458279, Alt.=128.420044m. Speed=3.672000m/h.</desc>
<speed>1.020000</speed>
</trkpt>
<trkpt lat="56.069885" lon="26.458303">
<ele>128.025513</ele>
<time>2010-08-29T12:51:40Z</time>
<desc>lat.=56.069885, lon.=26.458303, Alt.=128.025513m. Speed=3.096000m/h.</desc>
<speed>0.860000</speed>
</trkpt>
<trkpt lat="56.069893" lon="26.458311">
<ele>127.911194</ele>
<time>2010-08-29T12:51:41Z</time>
<desc>lat.=56.069893, lon.=26.458311, Alt.=127.911194m. Speed=2.772000m/h.</desc>
<speed>0.770000</speed>
</trkpt>
<trkpt lat="56.069893" lon="26.458305">
<ele>127.924866</ele>
<time>2010-08-29T12:51:42Z</time>
<desc>lat.=56.069893, lon.=26.458305, Alt.=127.924866m. Speed=2.412000m/h.</desc>
<speed>0.670000</speed>
</trkpt>
<trkpt lat="56.069897" lon="26.458298">
<ele>127.827209</ele>
<time>2010-08-29T12:51:43Z</time>
<desc>lat.=56.069897, lon.=26.458298, Alt.=127.827209m. Speed=2.052000m/h.</desc>
<speed>0.570000</speed>
</trkpt>
<trkpt lat="56.069901" lon="26.458296">
<ele>127.932678</ele>
<time>2010-08-29T12:51:44Z</time>
<desc>lat.=56.069901, lon.=26.458296, Alt.=127.932678m. Speed=1.872000m/h.</desc>
<speed>0.520000</speed>
</trkpt>
<trkpt lat="56.069904" lon="26.458305">
<ele>127.225647</ele>
<time>2010-08-29T12:51:45Z</time>
<desc>lat.=56.069904, lon.=26.458305, Alt.=127.225647m. Speed=1.872000m/h.</desc>
<speed>0.520000</speed>
</trkpt>
<trkpt lat="56.069908" lon="26.458307">
<ele>127.268616</ele>
<time>2010-08-29T12:51:46Z</time>
<desc>lat.=56.069908, lon.=26.458307, Alt.=127.268616m. Speed=1.656000m/h.</desc>
<speed>0.460000</speed>
</trkpt>
<trkpt lat="56.069904" lon="26.458305">
<ele>127.190491</ele>
<time>2010-08-29T12:51:47Z</time>
<desc>lat.=56.069904, lon.=26.458305, Alt.=127.190491m. Speed=1.080000m/h.</desc>
<speed>0.300000</speed>
</trkpt>
<trkpt lat="56.069908" lon="26.458305">
<ele>127.323303</ele>
<time>2010-08-29T12:51:48Z</time>
<desc>lat.=56.069908, lon.=26.458305, Alt.=127.323303m. Speed=1.008000m/h.</desc>
<speed>0.280000</speed>
</trkpt>
<trkpt lat="56.069904" lon="26.458300">
<ele>127.313538</ele>
<time>2010-08-29T12:51:49Z</time>
<desc>lat.=56.069904, lon.=26.458300, Alt.=127.313538m. Speed=0.972000m/h.</desc>
<speed>0.270000</speed>
</trkpt>
<trkpt lat="56.069893" lon="26.458298">
<ele>127.182678</ele>
<time>2010-08-29T12:51:50Z</time>
<desc>lat.=56.069893, lon.=26.458298, Alt.=127.182678m. Speed=0.828000m/h.</desc>
<speed>0.230000</speed>
</trkpt>
<trkpt lat="56.069881" lon="26.458305">
<ele>127.161194</ele>
<time>2010-08-29T12:51:51Z</time>
<desc>lat.=56.069881, lon.=26.458305, Alt.=127.161194m. Speed=1.440000m/h.</desc>
<speed>0.400000</speed>
</trkpt>
<trkpt lat="56.069874" lon="26.458307">
<ele>127.286194</ele>
<time>2010-08-29T12:51:52Z</time>
<desc>lat.=56.069874, lon.=26.458307, Alt.=127.286194m. Speed=1.116000m/h.</desc>
<speed>0.310000</speed>
</trkpt>
<trkpt lat="56.069855" lon="26.458303">
<ele>127.223694</ele>
<time>2010-08-29T12:51:53Z</time>
<desc>lat.=56.069855, lon.=26.458303, Alt.=127.223694m. Speed=0.828000m/h.</desc>
<speed>0.230000</speed>
</trkpt>
<trkpt lat="56.069843" lon="26.458313">
<ele>127.088928</ele>
<time>2010-08-29T12:51:54Z</time>
<desc>lat.=56.069843, lon.=26.458313, Alt.=127.088928m. Speed=1.116000m/h.</desc>
<speed>0.310000</speed>
</trkpt>
<trkpt lat="56.069839" lon="26.458313">
<ele>127.163147</ele>
<time>2010-08-29T12:51:55Z</time>
<desc>lat.=56.069839, lon.=26.458313, Alt.=127.163147m. Speed=0.684000m/h.</desc>
<speed>0.190000</speed>
</trkpt>
<trkpt lat="56.069843" lon="26.458323">
<ele>127.376038</ele>
<time>2010-08-29T12:51:56Z</time>
<desc>lat.=56.069843, lon.=26.458323, Alt.=127.376038m. Speed=0.900000m/h.</desc>
<speed>0.250000</speed>
</trkpt>
<trkpt lat="56.069839" lon="26.458326">
<ele>127.327209</ele>
<time>2010-08-29T12:51:57Z</time>
<desc>lat.=56.069839, lon.=26.458326, Alt.=127.327209m. Speed=1.080000m/h.</desc>
<speed>0.300000</speed>
</trkpt>
<trkpt lat="56.069843" lon="26.458328">
<ele>127.419006</ele>
<time>2010-08-29T12:51:58Z</time>
<desc>lat.=56.069843, lon.=26.458328, Alt.=127.419006m. Speed=0.720000m/h.</desc>
<speed>0.200000</speed>
</trkpt>
<trkpt lat="56.069851" lon="26.458326">
<ele>127.389709</ele>
<time>2010-08-29T12:51:59Z</time>
<desc>lat.=56.069851, lon.=26.458326, Alt.=127.389709m. Speed=0.576000m/h.</desc>
<speed>0.160000</speed>
</trkpt>
<trkpt lat="56.069866" lon="26.458317">
<ele>127.544006</ele>
<time>2010-08-29T12:52:00Z</time>
<desc>lat.=56.069866, lon.=26.458317, Alt.=127.544006m. Speed=3.384000m/h.</desc>
<speed>0.940000</speed>
</trkpt>
<trkpt lat="56.069878" lon="26.458315">
<ele>127.456116</ele>
<time>2010-08-29T12:52:01Z</time>
<desc>lat.=56.069878, lon.=26.458315, Alt.=127.456116m. Speed=3.528000m/h.</desc>
<speed>0.980000</speed>
</trkpt>
<trkpt lat="56.069889" lon="26.458311">
<ele>127.297913</ele>
<time>2010-08-29T12:52:02Z</time>
<desc>lat.=56.069889, lon.=26.458311, Alt.=127.297913m. Speed=3.852000m/h.</desc>
<speed>1.070000</speed>
</trkpt>
<trkpt lat="56.069904" lon="26.458309">
<ele>127.194397</ele>
<time>2010-08-29T12:52:03Z</time>
<desc>lat.=56.069904, lon.=26.458309, Alt.=127.194397m. Speed=3.852000m/h.</desc>
<speed>1.070000</speed>
</trkpt>
<trkpt lat="56.069927" lon="26.458315">
<ele>126.930725</ele>
<time>2010-08-29T12:52:04Z</time>
<desc>lat.=56.069927, lon.=26.458315, Alt.=126.930725m. Speed=4.140000m/h.</desc>
<speed>1.150000</speed>
</trkpt>
<trkpt lat="56.069950" lon="26.458334">
<ele>126.704163</ele>
<time>2010-08-29T12:52:05Z</time>
<desc>lat.=56.069950, lon.=26.458334, Alt.=126.704163m. Speed=4.428000m/h.</desc>
<speed>1.230000</speed>
</trkpt>
<trkpt lat="56.069969" lon="26.458345">
<ele>126.262756</ele>
<time>2010-08-29T12:52:06Z</time>
<desc>lat.=56.069969, lon.=26.458345, Alt.=126.262756m. Speed=4.248000m/h.</desc>
<speed>1.180000</speed>
</trkpt>
<trkpt lat="56.069992" lon="26.458338">
<ele>125.928772</ele>
<time>2010-08-29T12:52:07Z</time>
<desc>lat.=56.069992, lon.=26.458338, Alt.=125.928772m. Speed=4.320000m/h.</desc>
<speed>1.200000</speed>
</trkpt>
<trkpt lat="56.070007" lon="26.458344">
<ele>125.952209</ele>
<time>2010-08-29T12:52:08Z</time>
<desc>lat.=56.070007, lon.=26.458344, Alt.=125.952209m. Speed=3.780000m/h.</desc>
<speed>1.050000</speed>
</trkpt>
<trkpt lat="56.070023" lon="26.458344">
<ele>125.901428</ele>
<time>2010-08-29T12:52:09Z</time>
<desc>lat.=56.070023, lon.=26.458344, Alt.=125.901428m. Speed=3.672000m/h.</desc>
<speed>1.020000</speed>
</trkpt>
<trkpt lat="56.070038" lon="26.458342">
<ele>125.920959</ele>
<time>2010-08-29T12:52:10Z</time>
<desc>lat.=56.070038, lon.=26.458342, Alt.=125.920959m. Speed=3.348000m/h.</desc>
<speed>0.930000</speed>
</trkpt>
<trkpt lat="56.070057" lon="26.458349">
<ele>125.665100</ele>
<time>2010-08-29T12:52:11Z</time>
<desc>lat.=56.070057, lon.=26.458349, Alt.=125.665100m. Speed=2.952000m/h.</desc>
<speed>0.820000</speed>
</trkpt>
<trkpt lat="56.070084" lon="26.458349">
<ele>125.319397</ele>
<time>2010-08-29T12:52:12Z</time>
<desc>lat.=56.070084, lon.=26.458349, Alt.=125.319397m. Speed=2.160000m/h.</desc>
<speed>0.600000</speed>
</trkpt>
<trkpt lat="56.070110" lon="26.458345">
<ele>124.438538</ele>
<time>2010-08-29T12:52:13Z</time>
<desc>lat.=56.070110, lon.=26.458345, Alt.=124.438538m. Speed=0.576000m/h.</desc>
<speed>0.160000</speed>
</trkpt>
<trkpt lat="56.070129" lon="26.458336">
<ele>124.530334</ele>
<time>2010-08-29T12:52:14Z</time>
<desc>lat.=56.070129, lon.=26.458336, Alt.=124.530334m. Speed=0.468000m/h.</desc>
<speed>0.130000</speed>
</trkpt>
<trkpt lat="56.070137" lon="26.458336">
<ele>124.461975</ele>
<time>2010-08-29T12:52:15Z</time>
<desc>lat.=56.070137, lon.=26.458336, Alt.=124.461975m. Speed=0.504000m/h.</desc>
<speed>0.140000</speed>
</trkpt>
<trkpt lat="56.070152" lon="26.458330">
<ele>124.436584</ele>
<time>2010-08-29T12:52:16Z</time>
<desc>lat.=56.070152, lon.=26.458330, Alt.=124.436584m. Speed=0.828000m/h.</desc>
<speed>0.230000</speed>
</trkpt>
<trkpt lat="56.070152" lon="26.458330">
<ele>124.454163</ele>
<time>2010-08-29T12:52:17Z</time>
<desc>lat.=56.070152, lon.=26.458330, Alt.=124.454163m. Speed=1.800000m/h.</desc>
<speed>0.500000</speed>
</trkpt>
<trkpt lat="56.070168" lon="26.458328">
<ele>124.239319</ele>
<time>2010-08-29T12:52:18Z</time>
<desc>lat.=56.070168, lon.=26.458328, Alt.=124.239319m. Speed=1.944000m/h.</desc>
<speed>0.540000</speed>
</trkpt>
<trkpt lat="56.070175" lon="26.458334">
<ele>124.415100</ele>
<time>2010-08-29T12:52:19Z</time>
<desc>lat.=56.070175, lon.=26.458334, Alt.=124.415100m. Speed=1.728000m/h.</desc>
<speed>0.480000</speed>
</trkpt>
<trkpt lat="56.070183" lon="26.458340">
<ele>124.502991</ele>
<time>2010-08-29T12:52:20Z</time>
<desc>lat.=56.070183, lon.=26.458340, Alt.=124.502991m. Speed=1.620000m/h.</desc>
<speed>0.450000</speed>
</trkpt>
<trkpt lat="56.070190" lon="26.458345">
<ele>124.436584</ele>
<time>2010-08-29T12:52:21Z</time>
<desc>lat.=56.070190, lon.=26.458345, Alt.=124.436584m. Speed=1.800000m/h.</desc>
<speed>0.500000</speed>
</trkpt>
<trkpt lat="56.070198" lon="26.458353">
<ele>124.610413</ele>
<time>2010-08-29T12:52:22Z</time>
<desc>lat.=56.070198, lon.=26.458353, Alt.=124.610413m. Speed=1.908000m/h.</desc>
<speed>0.530000</speed>
</trkpt>
<trkpt lat="56.070202" lon="26.458359">
<ele>124.670959</ele>
<time>2010-08-29T12:52:23Z</time>
<desc>lat.=56.070202, lon.=26.458359, Alt.=124.670959m. Speed=1.908000m/h.</desc>
<speed>0.530000</speed>
</trkpt>
<trkpt lat="56.070210" lon="26.458370">
<ele>124.772522</ele>
<time>2010-08-29T12:52:24Z</time>
<desc>lat.=56.070210, lon.=26.458370, Alt.=124.772522m. Speed=2.052000m/h.</desc>
<speed>0.570000</speed>
</trkpt>
<trkpt lat="56.070217" lon="26.458372">
<ele>124.583069</ele>
<time>2010-08-29T12:52:25Z</time>
<desc>lat.=56.070217, lon.=26.458372, Alt.=124.583069m. Speed=1.908000m/h.</desc>
<speed>0.530000</speed>
</trkpt>
<trkpt lat="56.070221" lon="26.458382">
<ele>124.379944</ele>
<time>2010-08-29T12:52:26Z</time>
<desc>lat.=56.070221, lon.=26.458382, Alt.=124.379944m. Speed=1.944000m/h.</desc>
<speed>0.540000</speed>
</trkpt>
<trkpt lat="56.070229" lon="26.458389">
<ele>124.450256</ele>
<time>2010-08-29T12:52:27Z</time>
<desc>lat.=56.070229, lon.=26.458389, Alt.=124.450256m. Speed=2.124000m/h.</desc>
<speed>0.590000</speed>
</trkpt>
<trkpt lat="56.070232" lon="26.458393">
<ele>124.489319</ele>
<time>2010-08-29T12:52:28Z</time>
<desc>lat.=56.070232, lon.=26.458393, Alt.=124.489319m. Speed=2.052000m/h.</desc>
<speed>0.570000</speed>
</trkpt>
<trkpt lat="56.070240" lon="26.458399">
<ele>124.553772</ele>
<time>2010-08-29T12:52:29Z</time>
<desc>lat.=56.070240, lon.=26.458399, Alt.=124.553772m. Speed=2.160000m/h.</desc>
<speed>0.600000</speed>
</trkpt>
<trkpt lat="56.070240" lon="26.458405">
<ele>124.430725</ele>
<time>2010-08-29T12:52:30Z</time>
<desc>lat.=56.070240, lon.=26.458405, Alt.=124.430725m. Speed=1.980000m/h.</desc>
<speed>0.550000</speed>
</trkpt>
<trkpt lat="56.070248" lon="26.458416">
<ele>123.967834</ele>
<time>2010-08-29T12:52:31Z</time>
<desc>lat.=56.070248, lon.=26.458416, Alt.=123.967834m. Speed=1.980000m/h.</desc>
<speed>0.550000</speed>
</trkpt>
<trkpt lat="56.070255" lon="26.458416">
<ele>124.055725</ele>
<time>2010-08-29T12:52:32Z</time>
<desc>lat.=56.070255, lon.=26.458416, Alt.=124.055725m. Speed=2.340000m/h.</desc>
<speed>0.650000</speed>
</trkpt>
<trkpt lat="56.070267" lon="26.458431">
<ele>124.090881</ele>
<time>2010-08-29T12:52:33Z</time>
<desc>lat.=56.070267, lon.=26.458431, Alt.=124.090881m. Speed=3.204000m/h.</desc>
<speed>0.890000</speed>
</trkpt>
<trkpt lat="56.070282" lon="26.458454">
<ele>123.807678</ele>
<time>2010-08-29T12:52:34Z</time>
<desc>lat.=56.070282, lon.=26.458454, Alt.=123.807678m. Speed=3.564000m/h.</desc>
<speed>0.990000</speed>
</trkpt>
<trkpt lat="56.070297" lon="26.458464">
<ele>123.790100</ele>
<time>2010-08-29T12:52:35Z</time>
<desc>lat.=56.070297, lon.=26.458464, Alt.=123.790100m. Speed=3.924000m/h.</desc>
<speed>1.090000</speed>
</trkpt>
<trkpt lat="56.070305" lon="26.458473">
<ele>123.762756</ele>
<time>2010-08-29T12:52:36Z</time>
<desc>lat.=56.070305, lon.=26.458473, Alt.=123.762756m. Speed=3.636000m/h.</desc>
<speed>1.010000</speed>
</trkpt>
<trkpt lat="56.070309" lon="26.458481">
<ele>123.811584</ele>
<time>2010-08-29T12:52:37Z</time>
<desc>lat.=56.070309, lon.=26.458481, Alt.=123.811584m. Speed=3.456000m/h.</desc>
<speed>0.960000</speed>
</trkpt>
<trkpt lat="56.070320" lon="26.458492">
<ele>123.747131</ele>
<time>2010-08-29T12:52:38Z</time>
<desc>lat.=56.070320, lon.=26.458492, Alt.=123.747131m. Speed=3.888000m/h.</desc>
<speed>1.080000</speed>
</trkpt>
<trkpt lat="56.070313" lon="26.458487">
<ele>123.360413</ele>
<time>2010-08-29T12:52:39Z</time>
<desc>lat.=56.070313, lon.=26.458487, Alt.=123.360413m. Speed=4.104000m/h.</desc>
<speed>1.140000</speed>
</trkpt>
<trkpt lat="56.070320" lon="26.458492">
<ele>123.579163</ele>
<time>2010-08-29T12:52:40Z</time>
<desc>lat.=56.070320, lon.=26.458492, Alt.=123.579163m. Speed=3.744000m/h.</desc>
<speed>1.040000</speed>
</trkpt>
<trkpt lat="56.070328" lon="26.458496">
<ele>123.260803</ele>
<time>2010-08-29T12:52:41Z</time>
<desc>lat.=56.070328, lon.=26.458496, Alt.=123.260803m. Speed=3.384000m/h.</desc>
<speed>0.940000</speed>
</trkpt>
<trkpt lat="56.070335" lon="26.458500">
<ele>123.294006</ele>
<time>2010-08-29T12:52:42Z</time>
<desc>lat.=56.070335, lon.=26.458500, Alt.=123.294006m. Speed=2.988000m/h.</desc>
<speed>0.830000</speed>
</trkpt>
<trkpt lat="56.070328" lon="26.458500">
<ele>123.126038</ele>
<time>2010-08-29T12:52:43Z</time>
<desc>lat.=56.070328, lon.=26.458500, Alt.=123.126038m. Speed=2.736000m/h.</desc>
<speed>0.760000</speed>
</trkpt>
<trkpt lat="56.070324" lon="26.458487">
<ele>123.411194</ele>
<time>2010-08-29T12:52:44Z</time>
<desc>lat.=56.070324, lon.=26.458487, Alt.=123.411194m. Speed=2.232000m/h.</desc>
<speed>0.620000</speed>
</trkpt>
<trkpt lat="56.070328" lon="26.458490">
<ele>123.461975</ele>
<time>2010-08-29T12:52:45Z</time>
<desc>lat.=56.070328, lon.=26.458490, Alt.=123.461975m. Speed=2.448000m/h.</desc>
<speed>0.680000</speed>
</trkpt>
<trkpt lat="56.070324" lon="26.458488">
<ele>123.266663</ele>
<time>2010-08-29T12:52:46Z</time>
<desc>lat.=56.070324, lon.=26.458488, Alt.=123.266663m. Speed=2.880000m/h.</desc>
<speed>0.800000</speed>
</trkpt>
<trkpt lat="56.070324" lon="26.458498">
<ele>123.251038</ele>
<time>2010-08-29T12:52:47Z</time>
<desc>lat.=56.070324, lon.=26.458498, Alt.=123.251038m. Speed=2.700000m/h.</desc>
<speed>0.750000</speed>
</trkpt>
<trkpt lat="56.070332" lon="26.458513">
<ele>123.815491</ele>
<time>2010-08-29T12:52:48Z</time>
<desc>lat.=56.070332, lon.=26.458513, Alt.=123.815491m. Speed=2.700000m/h.</desc>
<speed>0.750000</speed>
</trkpt>
<trkpt lat="56.070332" lon="26.458517">
<ele>124.139709</ele>
<time>2010-08-29T12:52:49Z</time>
<desc>lat.=56.070332, lon.=26.458517, Alt.=124.139709m. Speed=2.124000m/h.</desc>
<speed>0.590000</speed>
</trkpt>
<trkpt lat="56.070335" lon="26.458529">
<ele>124.276428</ele>
<time>2010-08-29T12:52:50Z</time>
<desc>lat.=56.070335, lon.=26.458529, Alt.=124.276428m. Speed=1.656000m/h.</desc>
<speed>0.460000</speed>
</trkpt>
<trkpt lat="56.070339" lon="26.458542">
<ele>124.360413</ele>
<time>2010-08-29T12:52:51Z</time>
<desc>lat.=56.070339, lon.=26.458542, Alt.=124.360413m. Speed=1.872000m/h.</desc>
<speed>0.520000</speed>
</trkpt>
<trkpt lat="56.070343" lon="26.458549">
<ele>124.426819</ele>
<time>2010-08-29T12:52:52Z</time>
<desc>lat.=56.070343, lon.=26.458549, Alt.=124.426819m. Speed=1.980000m/h.</desc>
<speed>0.550000</speed>
</trkpt>
<trkpt lat="56.070347" lon="26.458561">
<ele>124.575256</ele>
<time>2010-08-29T12:52:53Z</time>
<desc>lat.=56.070347, lon.=26.458561, Alt.=124.575256m. Speed=2.196000m/h.</desc>
<speed>0.610000</speed>
</trkpt>
<trkpt lat="56.070351" lon="26.458569">
<ele>124.637756</ele>
<time>2010-08-29T12:52:54Z</time>
<desc>lat.=56.070351, lon.=26.458569, Alt.=124.637756m. Speed=2.556000m/h.</desc>
<speed>0.710000</speed>
</trkpt>
<trkpt lat="56.070362" lon="26.458578">
<ele>124.815491</ele>
<time>2010-08-29T12:52:55Z</time>
<desc>lat.=56.070362, lon.=26.458578, Alt.=124.815491m. Speed=3.348000m/h.</desc>
<speed>0.930000</speed>
</trkpt>
<trkpt lat="56.070347" lon="26.458616">
<ele>124.924866</ele>
<time>2010-08-29T12:52:56Z</time>
<desc>lat.=56.070347, lon.=26.458616, Alt.=124.924866m. Speed=4.032000m/h.</desc>
<speed>1.120000</speed>
</trkpt>
<trkpt lat="56.070343" lon="26.458639">
<ele>124.752991</ele>
<time>2010-08-29T12:52:57Z</time>
<desc>lat.=56.070343, lon.=26.458639, Alt.=124.752991m. Speed=4.752000m/h.</desc>
<speed>1.320000</speed>
</trkpt>
<trkpt lat="56.070343" lon="26.458660">
<ele>124.655334</ele>
<time>2010-08-29T12:52:58Z</time>
<desc>lat.=56.070343, lon.=26.458660, Alt.=124.655334m. Speed=5.436000m/h.</desc>
<speed>1.510000</speed>
</trkpt>
<trkpt lat="56.070351" lon="26.458677">
<ele>124.713928</ele>
<time>2010-08-29T12:52:59Z</time>
<desc>lat.=56.070351, lon.=26.458677, Alt.=124.713928m. Speed=2.628000m/h.</desc>
<speed>0.730000</speed>
</trkpt>
<trkpt lat="56.070358" lon="26.458689">
<ele>124.840881</ele>
<time>2010-08-29T12:53:00Z</time>
<desc>lat.=56.070358, lon.=26.458689, Alt.=124.840881m. Speed=3.060000m/h.</desc>
<speed>0.850000</speed>
</trkpt>
<trkpt lat="56.070366" lon="26.458694">
<ele>124.963928</ele>
<time>2010-08-29T12:53:01Z</time>
<desc>lat.=56.070366, lon.=26.458694, Alt.=124.963928m. Speed=2.268000m/h.</desc>
<speed>0.630000</speed>
</trkpt>
<trkpt lat="56.070374" lon="26.458706">
<ele>125.104553</ele>
<time>2010-08-29T12:53:02Z</time>
<desc>lat.=56.070374, lon.=26.458706, Alt.=125.104553m. Speed=2.880000m/h.</desc>
<speed>0.800000</speed>
</trkpt>
<trkpt lat="56.070377" lon="26.458725">
<ele>124.926819</ele>
<time>2010-08-29T12:53:03Z</time>
<desc>lat.=56.070377, lon.=26.458725, Alt.=124.926819m. Speed=3.132000m/h.</desc>
<speed>0.870000</speed>
</trkpt>
<trkpt lat="56.070381" lon="26.458744">
<ele>125.180725</ele>
<time>2010-08-29T12:53:04Z</time>
<desc>lat.=56.070381, lon.=26.458744, Alt.=125.180725m. Speed=3.528000m/h.</desc>
<speed>0.980000</speed>
</trkpt>
<trkpt lat="56.070389" lon="26.458755">
<ele>125.340881</ele>
<time>2010-08-29T12:53:05Z</time>
<desc>lat.=56.070389, lon.=26.458755, Alt.=125.340881m. Speed=2.448000m/h.</desc>
<speed>0.680000</speed>
</trkpt>
<trkpt lat="56.070400" lon="26.458755">
<ele>125.501038</ele>
<time>2010-08-29T12:53:06Z</time>
<desc>lat.=56.070400, lon.=26.458755, Alt.=125.501038m. Speed=2.340000m/h.</desc>
<speed>0.650000</speed>
</trkpt>
<trkpt lat="56.070408" lon="26.458782">
<ele>125.083069</ele>
<time>2010-08-29T12:53:07Z</time>
<desc>lat.=56.070408, lon.=26.458782, Alt.=125.083069m. Speed=2.232000m/h.</desc>
<speed>0.620000</speed>
</trkpt>
<trkpt lat="56.070415" lon="26.458788">
<ele>125.045959</ele>
<time>2010-08-29T12:53:08Z</time>
<desc>lat.=56.070415, lon.=26.458788, Alt.=125.045959m. Speed=1.944000m/h.</desc>
<speed>0.540000</speed>
</trkpt>
<trkpt lat="56.070423" lon="26.458792">
<ele>125.182678</ele>
<time>2010-08-29T12:53:09Z</time>
<desc>lat.=56.070423, lon.=26.458792, Alt.=125.182678m. Speed=2.088000m/h.</desc>
<speed>0.580000</speed>
</trkpt>
<trkpt lat="56.070427" lon="26.458799">
<ele>125.313538</ele>
<time>2010-08-29T12:53:10Z</time>
<desc>lat.=56.070427, lon.=26.458799, Alt.=125.313538m. Speed=2.160000m/h.</desc>
<speed>0.600000</speed>
</trkpt>
<trkpt lat="56.070431" lon="26.458807">
<ele>125.432678</ele>
<time>2010-08-29T12:53:11Z</time>
<desc>lat.=56.070431, lon.=26.458807, Alt.=125.432678m. Speed=1.944000m/h.</desc>
<speed>0.540000</speed>
</trkpt>
<trkpt lat="56.070435" lon="26.458818">
<ele>125.583069</ele>
<time>2010-08-29T12:53:12Z</time>
<desc>lat.=56.070435, lon.=26.458818, Alt.=125.583069m. Speed=2.232000m/h.</desc>
<speed>0.620000</speed>
</trkpt>
<trkpt lat="56.070431" lon="26.458834">
<ele>125.723694</ele>
<time>2010-08-29T12:53:13Z</time>
<desc>lat.=56.070431, lon.=26.458834, Alt.=125.723694m. Speed=2.088000m/h.</desc>
<speed>0.580000</speed>
</trkpt>
<trkpt lat="56.070431" lon="26.458847">
<ele>125.821350</ele>
<time>2010-08-29T12:53:14Z</time>
<desc>lat.=56.070431, lon.=26.458847, Alt.=125.821350m. Speed=1.980000m/h.</desc>
<speed>0.550000</speed>
</trkpt>
<trkpt lat="56.070431" lon="26.458876">
<ele>125.745178</ele>
<time>2010-08-29T12:53:15Z</time>
<desc>lat.=56.070431, lon.=26.458876, Alt.=125.745178m. Speed=1.548000m/h.</desc>
<speed>0.430000</speed>
</trkpt>
<trkpt lat="56.070427" lon="26.458893">
<ele>125.848694</ele>
<time>2010-08-29T12:53:16Z</time>
<desc>lat.=56.070427, lon.=26.458893, Alt.=125.848694m. Speed=1.944000m/h.</desc>
<speed>0.540000</speed>
</trkpt>
<trkpt lat="56.070427" lon="26.458912">
<ele>125.981506</ele>
<time>2010-08-29T12:53:17Z</time>
<desc>lat.=56.070427, lon.=26.458912, Alt.=125.981506m. Speed=2.016000m/h.</desc>
<speed>0.560000</speed>
</trkpt>
<trkpt lat="56.070427" lon="26.458929">
<ele>126.114319</ele>
<time>2010-08-29T12:53:18Z</time>
<desc>lat.=56.070427, lon.=26.458929, Alt.=126.114319m. Speed=1.980000m/h.</desc>
<speed>0.550000</speed>
</trkpt>
<trkpt lat="56.070438" lon="26.458935">
<ele>126.215881</ele>
<time>2010-08-29T12:53:19Z</time>
<desc>lat.=56.070438, lon.=26.458935, Alt.=126.215881m. Speed=1.800000m/h.</desc>
<speed>0.500000</speed>
</trkpt>
<trkpt lat="56.070446" lon="26.458965">
<ele>126.284241</ele>
<time>2010-08-29T12:53:20Z</time>
<desc>lat.=56.070446, lon.=26.458965, Alt.=126.284241m. Speed=2.376000m/h.</desc>
<speed>0.660000</speed>
</trkpt>
<trkpt lat="56.070446" lon="26.458986">
<ele>126.268616</ele>
<time>2010-08-29T12:53:21Z</time>
<desc>lat.=56.070446, lon.=26.458986, Alt.=126.268616m. Speed=2.232000m/h.</desc>
<speed>0.620000</speed>
</trkpt>
<trkpt lat="56.070457" lon="26.459005">
<ele>126.346741</ele>
<time>2010-08-29T12:53:22Z</time>
<desc>lat.=56.070457, lon.=26.459005, Alt.=126.346741m. Speed=2.484000m/h.</desc>
<speed>0.690000</speed>
</trkpt>
<trkpt lat="56.070465" lon="26.459032">
<ele>126.495178</ele>
<time>2010-08-29T12:53:23Z</time>
<desc>lat.=56.070465, lon.=26.459032, Alt.=126.495178m. Speed=2.952000m/h.</desc>
<speed>0.820000</speed>
</trkpt>
<trkpt lat="56.070477" lon="26.459049">
<ele>126.460022</ele>
<time>2010-08-29T12:53:24Z</time>
<desc>lat.=56.070477, lon.=26.459049, Alt.=126.460022m. Speed=3.132000m/h.</desc>
<speed>0.870000</speed>
</trkpt>
<trkpt lat="56.070484" lon="26.459064">
<ele>126.473694</ele>
<time>2010-08-29T12:53:25Z</time>
<desc>lat.=56.070484, lon.=26.459064, Alt.=126.473694m. Speed=2.952000m/h.</desc>
<speed>0.820000</speed>
</trkpt>
<trkpt lat="56.070496" lon="26.459084">
<ele>126.499084</ele>
<time>2010-08-29T12:53:26Z</time>
<desc>lat.=56.070496, lon.=26.459084, Alt.=126.499084m. Speed=2.952000m/h.</desc>
<speed>0.820000</speed>
</trkpt>
<trkpt lat="56.070511" lon="26.459105">
<ele>126.626038</ele>
<time>2010-08-29T12:53:27Z</time>
<desc>lat.=56.070511, lon.=26.459105, Alt.=126.626038m. Speed=3.240000m/h.</desc>
<speed>0.900000</speed>
</trkpt>
<trkpt lat="56.070515" lon="26.459127">
<ele>126.657288</ele>
<time>2010-08-29T12:53:28Z</time>
<desc>lat.=56.070515, lon.=26.459127, Alt.=126.657288m. Speed=2.916000m/h.</desc>
<speed>0.810000</speed>
</trkpt>
<trkpt lat="56.070526" lon="26.459148">
<ele>126.672913</ele>
<time>2010-08-29T12:53:29Z</time>
<desc>lat.=56.070526, lon.=26.459148, Alt.=126.672913m. Speed=2.808000m/h.</desc>
<speed>0.780000</speed>
</trkpt>
<trkpt lat="56.070526" lon="26.459169">
<ele>126.588928</ele>
<time>2010-08-29T12:53:30Z</time>
<desc>lat.=56.070526, lon.=26.459169, Alt.=126.588928m. Speed=2.268000m/h.</desc>
<speed>0.630000</speed>
</trkpt>
<trkpt lat="56.070526" lon="26.459192">
<ele>126.661194</ele>
<time>2010-08-29T12:53:31Z</time>
<desc>lat.=56.070526, lon.=26.459192, Alt.=126.661194m. Speed=2.124000m/h.</desc>
<speed>0.590000</speed>
</trkpt>
<trkpt lat="56.070534" lon="26.459223">
<ele>126.276428</ele>
<time>2010-08-29T12:53:32Z</time>
<desc>lat.=56.070534, lon.=26.459223, Alt.=126.276428m. Speed=2.412000m/h.</desc>
<speed>0.670000</speed>
</trkpt>
<trkpt lat="56.070541" lon="26.459255">
<ele>126.172913</ele>
<time>2010-08-29T12:53:33Z</time>
<desc>lat.=56.070541, lon.=26.459255, Alt.=126.172913m. Speed=1.980000m/h.</desc>
<speed>0.550000</speed>
</trkpt>
<trkpt lat="56.070541" lon="26.459263">
<ele>126.268616</ele>
<time>2010-08-29T12:53:34Z</time>
<desc>lat.=56.070541, lon.=26.459263, Alt.=126.268616m. Speed=1.440000m/h.</desc>
<speed>0.400000</speed>
</trkpt>
<trkpt lat="56.070541" lon="26.459288">
<ele>126.282288</ele>
<time>2010-08-29T12:53:35Z</time>
<desc>lat.=56.070541, lon.=26.459288, Alt.=126.282288m. Speed=1.044000m/h.</desc>
<speed>0.290000</speed>
</trkpt>
<trkpt lat="56.070545" lon="26.459307">
<ele>126.120178</ele>
<time>2010-08-29T12:53:36Z</time>
<desc>lat.=56.070545, lon.=26.459307, Alt.=126.120178m. Speed=1.152000m/h.</desc>
<speed>0.320000</speed>
</trkpt>
<trkpt lat="56.070545" lon="26.459314">
<ele>126.182678</ele>
<time>2010-08-29T12:53:37Z</time>
<desc>lat.=56.070545, lon.=26.459314, Alt.=126.182678m. Speed=1.008000m/h.</desc>
<speed>0.280000</speed>
</trkpt>
<trkpt lat="56.070549" lon="26.459324">
<ele>126.108459</ele>
<time>2010-08-29T12:53:38Z</time>
<desc>lat.=56.070549, lon.=26.459324, Alt.=126.108459m. Speed=1.080000m/h.</desc>
<speed>0.300000</speed>
</trkpt>
<trkpt lat="56.070530" lon="26.459364">
<ele>126.118225</ele>
<time>2010-08-29T12:53:39Z</time>
<desc>lat.=56.070530, lon.=26.459364, Alt.=126.118225m. Speed=1.476000m/h.</desc>
<speed>0.410000</speed>
</trkpt>
<trkpt lat="56.070534" lon="26.459389">
<ele>126.083069</ele>
<time>2010-08-29T12:53:40Z</time>
<desc>lat.=56.070534, lon.=26.459389, Alt.=126.083069m. Speed=1.512000m/h.</desc>
<speed>0.420000</speed>
</trkpt>
<trkpt lat="56.070534" lon="26.459480">
<ele>126.165100</ele>
<time>2010-08-29T12:53:41Z</time>
<desc>lat.=56.070534, lon.=26.459480, Alt.=126.165100m. Speed=5.580000m/h.</desc>
<speed>1.550000</speed>
</trkpt>
<trkpt lat="56.070530" lon="26.459517">
<ele>126.200256</ele>
<time>2010-08-29T12:53:42Z</time>
<desc>lat.=56.070530, lon.=26.459517, Alt.=126.200256m. Speed=3.888000m/h.</desc>
<speed>1.080000</speed>
</trkpt>
<trkpt lat="56.070534" lon="26.459532">
<ele>126.288147</ele>
<time>2010-08-29T12:53:43Z</time>
<desc>lat.=56.070534, lon.=26.459532, Alt.=126.288147m. Speed=1.368000m/h.</desc>
<speed>0.380000</speed>
</trkpt>
<trkpt lat="56.070541" lon="26.459547">
<ele>126.288147</ele>
<time>2010-08-29T12:53:44Z</time>
<desc>lat.=56.070541, lon.=26.459547, Alt.=126.288147m. Speed=0.324000m/h.</desc>
<speed>0.090000</speed>
</trkpt>
<trkpt lat="56.070545" lon="26.459566">
<ele>126.213928</ele>
<time>2010-08-29T12:53:45Z</time>
<desc>lat.=56.070545, lon.=26.459566, Alt.=126.213928m. Speed=1.656000m/h.</desc>
<speed>0.460000</speed>
</trkpt>
<trkpt lat="56.070545" lon="26.459579">
<ele>126.190491</ele>
<time>2010-08-29T12:53:46Z</time>
<desc>lat.=56.070545, lon.=26.459579, Alt.=126.190491m. Speed=2.448000m/h.</desc>
<speed>0.680000</speed>
</trkpt>
<trkpt lat="56.070545" lon="26.459610">
<ele>125.588928</ele>
<time>2010-08-29T12:53:47Z</time>
<desc>lat.=56.070545, lon.=26.459610, Alt.=125.588928m. Speed=3.420000m/h.</desc>
<speed>0.950000</speed>
</trkpt>
<trkpt lat="56.070541" lon="26.459618">
<ele>125.327209</ele>
<time>2010-08-29T12:53:48Z</time>
<desc>lat.=56.070541, lon.=26.459618, Alt.=125.327209m. Speed=2.340000m/h.</desc>
<speed>0.650000</speed>
</trkpt>
<trkpt lat="56.070507" lon="26.459663">
<ele>125.124084</ele>
<time>2010-08-29T12:53:49Z</time>
<desc>lat.=56.070507, lon.=26.459663, Alt.=125.124084m. Speed=6.336000m/h.</desc>
<speed>1.760000</speed>
</trkpt>
<trkpt lat="56.070503" lon="26.459694">
<ele>125.020569</ele>
<time>2010-08-29T12:53:50Z</time>
<desc>lat.=56.070503, lon.=26.459694, Alt.=125.020569m. Speed=4.716000m/h.</desc>
<speed>1.310000</speed>
</trkpt>
<trkpt lat="56.070507" lon="26.459709">
<ele>124.934631</ele>
<time>2010-08-29T12:53:51Z</time>
<desc>lat.=56.070507, lon.=26.459709, Alt.=124.934631m. Speed=3.996000m/h.</desc>
<speed>1.110000</speed>
</trkpt>
<trkpt lat="56.070522" lon="26.459738">
<ele>124.844788</ele>
<time>2010-08-29T12:53:52Z</time>
<desc>lat.=56.070522, lon.=26.459738, Alt.=124.844788m. Speed=5.220000m/h.</desc>
<speed>1.450000</speed>
</trkpt>
<trkpt lat="56.070530" lon="26.459770">
<ele>124.752991</ele>
<time>2010-08-29T12:53:53Z</time>
<desc>lat.=56.070530, lon.=26.459770, Alt.=124.752991m. Speed=4.896000m/h.</desc>
<speed>1.360000</speed>
</trkpt>
<trkpt lat="56.070538" lon="26.459793">
<ele>124.614319</ele>
<time>2010-08-29T12:53:54Z</time>
<desc>lat.=56.070538, lon.=26.459793, Alt.=124.614319m. Speed=2.376000m/h.</desc>
<speed>0.660000</speed>
</trkpt>
<trkpt lat="56.070541" lon="26.459816">
<ele>124.544006</ele>
<time>2010-08-29T12:53:55Z</time>
<desc>lat.=56.070541, lon.=26.459816, Alt.=124.544006m. Speed=3.132000m/h.</desc>
<speed>0.870000</speed>
</trkpt>
<trkpt lat="56.070545" lon="26.459833">
<ele>124.497131</ele>
<time>2010-08-29T12:53:56Z</time>
<desc>lat.=56.070545, lon.=26.459833, Alt.=124.497131m. Speed=3.132000m/h.</desc>
<speed>0.870000</speed>
</trkpt>
<trkpt lat="56.070553" lon="26.459856">
<ele>124.290100</ele>
<time>2010-08-29T12:53:57Z</time>
<desc>lat.=56.070553, lon.=26.459856, Alt.=124.290100m. Speed=3.276000m/h.</desc>
<speed>0.910000</speed>
</trkpt>
<trkpt lat="56.070568" lon="26.459883">
<ele>124.118225</ele>
<time>2010-08-29T12:53:58Z</time>
<desc>lat.=56.070568, lon.=26.459883, Alt.=124.118225m. Speed=3.312000m/h.</desc>
<speed>0.920000</speed>
</trkpt>
<trkpt lat="56.070564" lon="26.459917">
<ele>123.848694</ele>
<time>2010-08-29T12:53:59Z</time>
<desc>lat.=56.070564, lon.=26.459917, Alt.=123.848694m. Speed=4.140000m/h.</desc>
<speed>1.150000</speed>
</trkpt>
<trkpt lat="56.070557" lon="26.459957">
<ele>123.864319</ele>
<time>2010-08-29T12:54:00Z</time>
<desc>lat.=56.070557, lon.=26.459957, Alt.=123.864319m. Speed=5.256000m/h.</desc>
<speed>1.460000</speed>
</trkpt>
<trkpt lat="56.070572" lon="26.459972">
<ele>123.536194</ele>
<time>2010-08-29T12:54:01Z</time>
<desc>lat.=56.070572, lon.=26.459972, Alt.=123.536194m. Speed=3.924000m/h.</desc>
<speed>1.090000</speed>
</trkpt>
<trkpt lat="56.070580" lon="26.459990">
<ele>123.415100</ele>
<time>2010-08-29T12:54:02Z</time>
<desc>lat.=56.070580, lon.=26.459990, Alt.=123.415100m. Speed=3.276000m/h.</desc>
<speed>0.910000</speed>
</trkpt>
<trkpt lat="56.070576" lon="26.460003">
<ele>123.467834</ele>
<time>2010-08-29T12:54:03Z</time>
<desc>lat.=56.070576, lon.=26.460003, Alt.=123.467834m. Speed=3.096000m/h.</desc>
<speed>0.860000</speed>
</trkpt>
<trkpt lat="56.070572" lon="26.460026">
<ele>123.442444</ele>
<time>2010-08-29T12:54:04Z</time>
<desc>lat.=56.070572, lon.=26.460026, Alt.=123.442444m. Speed=3.456000m/h.</desc>
<speed>0.960000</speed>
</trkpt>
<trkpt lat="56.070572" lon="26.460047">
<ele>123.260803</ele>
<time>2010-08-29T12:54:05Z</time>
<desc>lat.=56.070572, lon.=26.460047, Alt.=123.260803m. Speed=3.312000m/h.</desc>
<speed>0.920000</speed>
</trkpt>
<trkpt lat="56.070568" lon="26.460077">
<ele>122.741272</ele>
<time>2010-08-29T12:54:06Z</time>
<desc>lat.=56.070568, lon.=26.460077, Alt.=122.741272m. Speed=3.780000m/h.</desc>
<speed>1.050000</speed>
</trkpt>
<trkpt lat="56.070564" lon="26.460098">
<ele>122.325256</ele>
<time>2010-08-29T12:54:07Z</time>
<desc>lat.=56.070564, lon.=26.460098, Alt.=122.325256m. Speed=3.204000m/h.</desc>
<speed>0.890000</speed>
</trkpt>
<trkpt lat="56.070557" lon="26.460121">
<ele>122.044006</ele>
<time>2010-08-29T12:54:08Z</time>
<desc>lat.=56.070557, lon.=26.460121, Alt.=122.044006m. Speed=3.204000m/h.</desc>
<speed>0.890000</speed>
</trkpt>
<trkpt lat="56.070538" lon="26.460159">
<ele>121.700256</ele>
<time>2010-08-29T12:54:09Z</time>
<desc>lat.=56.070538, lon.=26.460159, Alt.=121.700256m. Speed=4.212000m/h.</desc>
<speed>1.170000</speed>
</trkpt>
<trkpt lat="56.070484" lon="26.460253">
<ele>121.678772</ele>
<time>2010-08-29T12:54:10Z</time>
<desc>lat.=56.070484, lon.=26.460253, Alt.=121.678772m. Speed=6.912000m/h.</desc>
<speed>1.920000</speed>
</trkpt>
<trkpt lat="56.070477" lon="26.460274">
<ele>121.721741</ele>
<time>2010-08-29T12:54:11Z</time>
<desc>lat.=56.070477, lon.=26.460274, Alt.=121.721741m. Speed=3.996000m/h.</desc>
<speed>1.110000</speed>
</trkpt>
<trkpt lat="56.070461" lon="26.460291">
<ele>121.608459</ele>
<time>2010-08-29T12:54:12Z</time>
<desc>lat.=56.070461, lon.=26.460291, Alt.=121.608459m. Speed=3.348000m/h.</desc>
<speed>0.930000</speed>
</trkpt>
<trkpt lat="56.070454" lon="26.460304">
<ele>121.481506</ele>
<time>2010-08-29T12:54:13Z</time>
<desc>lat.=56.070454, lon.=26.460304, Alt.=121.481506m. Speed=4.680000m/h.</desc>
<speed>1.300000</speed>
</trkpt>
<trkpt lat="56.070446" lon="26.460318">
<ele>121.465881</ele>
<time>2010-08-29T12:54:14Z</time>
<desc>lat.=56.070446, lon.=26.460318, Alt.=121.465881m. Speed=2.808000m/h.</desc>
<speed>0.780000</speed>
</trkpt>
<trkpt lat="56.070438" lon="26.460335">
<ele>121.487366</ele>
<time>2010-08-29T12:54:15Z</time>
<desc>lat.=56.070438, lon.=26.460335, Alt.=121.487366m. Speed=5.076000m/h.</desc>
<speed>1.410000</speed>
</trkpt>
<trkpt lat="56.070431" lon="26.460344">
<ele>121.456116</ele>
<time>2010-08-29T12:54:16Z</time>
<desc>lat.=56.070431, lon.=26.460344, Alt.=121.456116m. Speed=4.032000m/h.</desc>
<speed>1.120000</speed>
</trkpt>
<trkpt lat="56.070431" lon="26.460342">
<ele>121.401428</ele>
<time>2010-08-29T12:54:17Z</time>
<desc>lat.=56.070431, lon.=26.460342, Alt.=121.401428m. Speed=1.368000m/h.</desc>
<speed>0.380000</speed>
</trkpt>
<trkpt lat="56.070431" lon="26.460346">
<ele>121.284241</ele>
<time>2010-08-29T12:54:18Z</time>
<desc>lat.=56.070431, lon.=26.460346, Alt.=121.284241m. Speed=0.396000m/h.</desc>
<speed>0.110000</speed>
</trkpt>
<trkpt lat="56.070442" lon="26.460350">
<ele>121.252991</ele>
<time>2010-08-29T12:54:19Z</time>
<desc>lat.=56.070442, lon.=26.460350, Alt.=121.252991m. Speed=1.188000m/h.</desc>
<speed>0.330000</speed>
</trkpt>
<trkpt lat="56.070450" lon="26.460356">
<ele>121.219788</ele>
<time>2010-08-29T12:54:20Z</time>
<desc>lat.=56.070450, lon.=26.460356, Alt.=121.219788m. Speed=0.972000m/h.</desc>
<speed>0.270000</speed>
</trkpt>
<trkpt lat="56.070454" lon="26.460365">
<ele>121.215881</ele>
<time>2010-08-29T12:54:21Z</time>
<desc>lat.=56.070454, lon.=26.460365, Alt.=121.215881m. Speed=0.936000m/h.</desc>
<speed>0.260000</speed>
</trkpt>
<trkpt lat="56.070454" lon="26.460369">
<ele>121.211975</ele>
<time>2010-08-29T12:54:22Z</time>
<desc>lat.=56.070454, lon.=26.460369, Alt.=121.211975m. Speed=0.576000m/h.</desc>
<speed>0.160000</speed>
</trkpt>
<trkpt lat="56.070450" lon="26.460375">
<ele>120.768616</ele>
<time>2010-08-29T12:54:23Z</time>
<desc>lat.=56.070450, lon.=26.460375, Alt.=120.768616m. Speed=0.468000m/h.</desc>
<speed>0.130000</speed>
</trkpt>
<trkpt lat="56.070450" lon="26.460377">
<ele>120.751038</ele>
<time>2010-08-29T12:54:24Z</time>
<desc>lat.=56.070450, lon.=26.460377, Alt.=120.751038m. Speed=0.396000m/h.</desc>
<speed>0.110000</speed>
</trkpt>
<trkpt lat="56.070450" lon="26.460377">
<ele>120.737366</ele>
<time>2010-08-29T12:54:25Z</time>
<desc>lat.=56.070450, lon.=26.460377, Alt.=120.737366m. Speed=0.252000m/h.</desc>
<speed>0.070000</speed>
</trkpt>
<trkpt lat="56.070450" lon="26.460377">
<ele>120.729553</ele>
<time>2010-08-29T12:54:26Z</time>
<desc>lat.=56.070450, lon.=26.460377, Alt.=120.729553m. Speed=0.072000m/h.</desc>
<speed>0.020000</speed>
</trkpt>
<trkpt lat="56.070450" lon="26.460377">
<ele>120.708069</ele>
<time>2010-08-29T12:54:27Z</time>
<desc>lat.=56.070450, lon.=26.460377, Alt.=120.708069m. Speed=0.180000m/h.</desc>
<speed>0.050000</speed>
</trkpt>
<trkpt lat="56.070450" lon="26.460377">
<ele>120.723694</ele>
<time>2010-08-29T12:54:28Z</time>
<desc>lat.=56.070450, lon.=26.460377, Alt.=120.723694m. Speed=0.144000m/h.</desc>
<speed>0.040000</speed>
</trkpt>
<trkpt lat="56.070450" lon="26.460379">
<ele>120.735413</ele>
<time>2010-08-29T12:54:29Z</time>
<desc>lat.=56.070450, lon.=26.460379, Alt.=120.735413m. Speed=0.000000m/h.</desc>
<speed>0.000000</speed>
</trkpt>
<trkpt lat="56.070450" lon="26.460379">
<ele>120.743225</ele>
<time>2010-08-29T12:54:30Z</time>
<desc>lat.=56.070450, lon.=26.460379, Alt.=120.743225m. Speed=0.036000m/h.</desc>
<speed>0.010000</speed>
</trkpt>
<trkpt lat="56.070450" lon="26.460379">
<ele>120.758850</ele>
<time>2010-08-29T12:54:31Z</time>
<desc>lat.=56.070450, lon.=26.460379, Alt.=120.758850m. Speed=0.072000m/h.</desc>
<speed>0.020000</speed>
</trkpt>
<trkpt lat="56.070450" lon="26.460379">
<ele>120.780334</ele>
<time>2010-08-29T12:54:32Z</time>
<desc>lat.=56.070450, lon.=26.460379, Alt.=120.780334m. Speed=0.000000m/h.</desc>
<speed>0.000000</speed>
</trkpt>
<trkpt lat="56.070450" lon="26.460379">
<ele>120.797913</ele>
<time>2010-08-29T12:54:33Z</time>
<desc>lat.=56.070450, lon.=26.460379, Alt.=120.797913m. Speed=0.072000m/h.</desc>
<speed>0.020000</speed>
</trkpt>
<trkpt lat="56.070450" lon="26.460379">
<ele>120.788147</ele>
<time>2010-08-29T12:54:34Z</time>
<desc>lat.=56.070450, lon.=26.460379, Alt.=120.788147m. Speed=0.108000m/h.</desc>
<speed>0.030000</speed>
</trkpt>
<trkpt lat="56.070450" lon="26.460379">
<ele>120.780334</ele>
<time>2010-08-29T12:54:35Z</time>
<desc>lat.=56.070450, lon.=26.460379, Alt.=120.780334m. Speed=0.036000m/h.</desc>
<speed>0.010000</speed>
</trkpt>
<trkpt lat="56.070450" lon="26.460379">
<ele>120.770569</ele>
<time>2010-08-29T12:54:36Z</time>
<desc>lat.=56.070450, lon.=26.460379, Alt.=120.770569m. Speed=0.072000m/h.</desc>
<speed>0.020000</speed>
</trkpt>
<trkpt lat="56.070450" lon="26.460379">
<ele>120.752991</ele>
<time>2010-08-29T12:54:37Z</time>
<desc>lat.=56.070450, lon.=26.460379, Alt.=120.752991m. Speed=0.036000m/h.</desc>
<speed>0.010000</speed>
</trkpt>
<trkpt lat="56.070450" lon="26.460379">
<ele>120.737366</ele>
<time>2010-08-29T12:54:38Z</time>
<desc>lat.=56.070450, lon.=26.460379, Alt.=120.737366m. Speed=0.000000m/h.</desc>
<speed>0.000000</speed>
</trkpt>
<trkpt lat="56.070450" lon="26.460381">
<ele>120.725647</ele>
<time>2010-08-29T12:54:39Z</time>
<desc>lat.=56.070450, lon.=26.460381, Alt.=120.725647m. Speed=0.000000m/h.</desc>
<speed>0.000000</speed>
</trkpt>
<trkpt lat="56.070450" lon="26.460381">
<ele>120.711975</ele>
<time>2010-08-29T12:54:40Z</time>
<desc>lat.=56.070450, lon.=26.460381, Alt.=120.711975m. Speed=0.000000m/h.</desc>
<speed>0.000000</speed>
</trkpt>
<trkpt lat="56.070450" lon="26.460381">
<ele>120.704163</ele>
<time>2010-08-29T12:54:41Z</time>
<desc>lat.=56.070450, lon.=26.460381, Alt.=120.704163m. Speed=0.000000m/h.</desc>
<speed>0.000000</speed>
</trkpt>
<trkpt lat="56.070450" lon="26.460381">
<ele>120.694397</ele>
<time>2010-08-29T12:54:42Z</time>
<desc>lat.=56.070450, lon.=26.460381, Alt.=120.694397m. Speed=0.000000m/h.</desc>
<speed>0.000000</speed>
</trkpt>
<trkpt lat="56.070450" lon="26.460381">
<ele>120.702209</ele>
<time>2010-08-29T12:54:43Z</time>
<desc>lat.=56.070450, lon.=26.460381, Alt.=120.702209m. Speed=0.036000m/h.</desc>
<speed>0.010000</speed>
</trkpt>
<trkpt lat="56.070450" lon="26.460381">
<ele>120.696350</ele>
<time>2010-08-29T12:54:44Z</time>
<desc>lat.=56.070450, lon.=26.460381, Alt.=120.696350m. Speed=0.000000m/h.</desc>
<speed>0.000000</speed>
</trkpt>
<trkpt lat="56.070450" lon="26.460381">
<ele>120.692444</ele>
<time>2010-08-29T12:54:45Z</time>
<desc>lat.=56.070450, lon.=26.460381, Alt.=120.692444m. Speed=0.000000m/h.</desc>
<speed>0.000000</speed>
</trkpt>
<trkpt lat="56.070450" lon="26.460381">
<ele>120.688538</ele>
<time>2010-08-29T12:54:46Z</time>
<desc>lat.=56.070450, lon.=26.460381, Alt.=120.688538m. Speed=0.072000m/h.</desc>
<speed>0.020000</speed>
</trkpt>
<trkpt lat="56.070450" lon="26.460381">
<ele>120.694397</ele>
<time>2010-08-29T12:54:47Z</time>
<desc>lat.=56.070450, lon.=26.460381, Alt.=120.694397m. Speed=0.036000m/h.</desc>
<speed>0.010000</speed>
</trkpt>
<trkpt lat="56.070450" lon="26.460381">
<ele>120.688538</ele>
<time>2010-08-29T12:54:48Z</time>
<desc>lat.=56.070450, lon.=26.460381, Alt.=120.688538m. Speed=0.036000m/h.</desc>
<speed>0.010000</speed>
</trkpt>
<trkpt lat="56.070450" lon="26.460381">
<ele>120.690491</ele>
<time>2010-08-29T12:54:49Z</time>
<desc>lat.=56.070450, lon.=26.460381, Alt.=120.690491m. Speed=0.000000m/h.</desc>
<speed>0.000000</speed>
</trkpt>
<trkpt lat="56.070450" lon="26.460381">
<ele>120.694397</ele>
<time>2010-08-29T12:54:50Z</time>
<desc>lat.=56.070450, lon.=26.460381, Alt.=120.694397m. Speed=0.000000m/h.</desc>
<speed>0.000000</speed>
</trkpt>
<trkpt lat="56.070450" lon="26.460381">
<ele>120.696350</ele>
<time>2010-08-29T12:54:51Z</time>
<desc>lat.=56.070450, lon.=26.460381, Alt.=120.696350m. Speed=0.072000m/h.</desc>
<speed>0.020000</speed>
</trkpt>
<trkpt lat="56.070446" lon="26.460381">
<ele>120.698303</ele>
<time>2010-08-29T12:54:52Z</time>
<desc>lat.=56.070446, lon.=26.460381, Alt.=120.698303m. Speed=0.000000m/h.</desc>
<speed>0.000000</speed>
</trkpt>
<trkpt lat="56.070446" lon="26.460381">
<ele>120.702209</ele>
<time>2010-08-29T12:54:53Z</time>
<desc>lat.=56.070446, lon.=26.460381, Alt.=120.702209m. Speed=0.072000m/h.</desc>
<speed>0.020000</speed>
</trkpt>
<trkpt lat="56.070446" lon="26.460381">
<ele>120.702209</ele>
<time>2010-08-29T12:54:54Z</time>
<desc>lat.=56.070446, lon.=26.460381, Alt.=120.702209m. Speed=0.072000m/h.</desc>
<speed>0.020000</speed>
</trkpt>
<trkpt lat="56.070446" lon="26.460381">
<ele>120.702209</ele>
<time>2010-08-29T12:54:55Z</time>
<desc>lat.=56.070446, lon.=26.460381, Alt.=120.702209m. Speed=0.000000m/h.</desc>
<speed>0.000000</speed>
</trkpt>
<trkpt lat="56.070446" lon="26.460381">
<ele>120.704163</ele>
<time>2010-08-29T12:54:56Z</time>
<desc>lat.=56.070446, lon.=26.460381, Alt.=120.704163m. Speed=0.000000m/h.</desc>
<speed>0.000000</speed>
</trkpt>
<trkpt lat="56.070446" lon="26.460381">
<ele>120.706116</ele>
<time>2010-08-29T12:54:57Z</time>
<desc>lat.=56.070446, lon.=26.460381, Alt.=120.706116m. Speed=0.000000m/h.</desc>
<speed>0.000000</speed>
</trkpt>
<trkpt lat="56.070446" lon="26.460381">
<ele>120.706116</ele>
<time>2010-08-29T12:54:58Z</time>
<desc>lat.=56.070446, lon.=26.460381, Alt.=120.706116m. Speed=0.000000m/h.</desc>
<speed>0.000000</speed>
</trkpt>
<trkpt lat="56.070446" lon="26.460381">
<ele>120.704163</ele>
<time>2010-08-29T12:54:59Z</time>
<desc>lat.=56.070446, lon.=26.460381, Alt.=120.704163m. Speed=0.000000m/h.</desc>
<speed>0.000000</speed>
</trkpt>
<trkpt lat="56.070446" lon="26.460381">
<ele>120.706116</ele>
<time>2010-08-29T12:55:00Z</time>
<desc>lat.=56.070446, lon.=26.460381, Alt.=120.706116m. Speed=0.000000m/h.</desc>
<speed>0.000000</speed>
</trkpt>
<trkpt lat="56.070446" lon="26.460381">
<ele>120.706116</ele>
<time>2010-08-29T12:55:01Z</time>
<desc>lat.=56.070446, lon.=26.460381, Alt.=120.706116m. Speed=0.036000m/h.</desc>
<speed>0.010000</speed>
</trkpt>
<trkpt lat="56.070446" lon="26.460381">
<ele>120.702209</ele>
<time>2010-08-29T12:55:02Z</time>
<desc>lat.=56.070446, lon.=26.460381, Alt.=120.702209m. Speed=0.000000m/h.</desc>
<speed>0.000000</speed>
</trkpt>
<trkpt lat="56.070446" lon="26.460381">
<ele>120.702209</ele>
<time>2010-08-29T12:55:03Z</time>
<desc>lat.=56.070446, lon.=26.460381, Alt.=120.702209m. Speed=0.000000m/h.</desc>
<speed>0.000000</speed>
</trkpt>
<trkpt lat="56.070446" lon="26.460381">
<ele>120.700256</ele>
<time>2010-08-29T12:55:04Z</time>
<desc>lat.=56.070446, lon.=26.460381, Alt.=120.700256m. Speed=0.180000m/h.</desc>
<speed>0.050000</speed>
</trkpt>
<trkpt lat="56.070446" lon="26.460381">
<ele>120.700256</ele>
<time>2010-08-29T12:55:05Z</time>
<desc>lat.=56.070446, lon.=26.460381, Alt.=120.700256m. Speed=0.072000m/h.</desc>
<speed>0.020000</speed>
</trkpt>
<trkpt lat="56.070446" lon="26.460381">
<ele>120.702209</ele>
<time>2010-08-29T12:55:06Z</time>
<desc>lat.=56.070446, lon.=26.460381, Alt.=120.702209m. Speed=0.036000m/h.</desc>
<speed>0.010000</speed>
</trkpt>
<trkpt lat="56.070446" lon="26.460381">
<ele>120.696350</ele>
<time>2010-08-29T12:55:07Z</time>
<desc>lat.=56.070446, lon.=26.460381, Alt.=120.696350m. Speed=0.108000m/h.</desc>
<speed>0.030000</speed>
</trkpt>
<trkpt lat="56.070446" lon="26.460382">
<ele>120.690491</ele>
<time>2010-08-29T12:55:08Z</time>
<desc>lat.=56.070446, lon.=26.460382, Alt.=120.690491m. Speed=0.180000m/h.</desc>
<speed>0.050000</speed>
</trkpt>
<trkpt lat="56.070446" lon="26.460382">
<ele>120.692444</ele>
<time>2010-08-29T12:55:09Z</time>
<desc>lat.=56.070446, lon.=26.460382, Alt.=120.692444m. Speed=0.540000m/h.</desc>
<speed>0.150000</speed>
</trkpt>
<trkpt lat="56.070446" lon="26.460384">
<ele>120.710022</ele>
<time>2010-08-29T12:55:10Z</time>
<desc>lat.=56.070446, lon.=26.460384, Alt.=120.710022m. Speed=0.900000m/h.</desc>
<speed>0.250000</speed>
</trkpt>
<trkpt lat="56.070446" lon="26.460388">
<ele>120.731506</ele>
<time>2010-08-29T12:55:11Z</time>
<desc>lat.=56.070446, lon.=26.460388, Alt.=120.731506m. Speed=1.296000m/h.</desc>
<speed>0.360000</speed>
</trkpt>
<trkpt lat="56.070446" lon="26.460398">
<ele>120.729553</ele>
<time>2010-08-29T12:55:12Z</time>
<desc>lat.=56.070446, lon.=26.460398, Alt.=120.729553m. Speed=1.332000m/h.</desc>
<speed>0.370000</speed>
</trkpt>
<trkpt lat="56.070435" lon="26.460417">
<ele>120.856506</ele>
<time>2010-08-29T12:55:13Z</time>
<desc>lat.=56.070435, lon.=26.460417, Alt.=120.856506m. Speed=1.728000m/h.</desc>
<speed>0.480000</speed>
</trkpt>
<trkpt lat="56.070431" lon="26.460432">
<ele>120.805725</ele>
<time>2010-08-29T12:55:14Z</time>
<desc>lat.=56.070431, lon.=26.460432, Alt.=120.805725m. Speed=1.944000m/h.</desc>
<speed>0.540000</speed>
</trkpt>
<trkpt lat="56.070427" lon="26.460443">
<ele>120.856506</ele>
<time>2010-08-29T12:55:15Z</time>
<desc>lat.=56.070427, lon.=26.460443, Alt.=120.856506m. Speed=2.052000m/h.</desc>
<speed>0.570000</speed>
</trkpt>
<trkpt lat="56.070423" lon="26.460455">
<ele>120.885803</ele>
<time>2010-08-29T12:55:16Z</time>
<desc>lat.=56.070423, lon.=26.460455, Alt.=120.885803m. Speed=2.088000m/h.</desc>
<speed>0.580000</speed>
</trkpt>
<trkpt lat="56.070419" lon="26.460463">
<ele>120.661194</ele>
<time>2010-08-29T12:55:17Z</time>
<desc>lat.=56.070419, lon.=26.460463, Alt.=120.661194m. Speed=2.124000m/h.</desc>
<speed>0.590000</speed>
</trkpt>
<trkpt lat="56.070412" lon="26.460472">
<ele>120.735413</ele>
<time>2010-08-29T12:55:18Z</time>
<desc>lat.=56.070412, lon.=26.460472, Alt.=120.735413m. Speed=2.160000m/h.</desc>
<speed>0.600000</speed>
</trkpt>
<trkpt lat="56.070408" lon="26.460482">
<ele>120.727600</ele>
<time>2010-08-29T12:55:19Z</time>
<desc>lat.=56.070408, lon.=26.460482, Alt.=120.727600m. Speed=2.196000m/h.</desc>
<speed>0.610000</speed>
</trkpt>
<trkpt lat="56.070400" lon="26.460508">
<ele>120.618225</ele>
<time>2010-08-29T12:55:20Z</time>
<desc>lat.=56.070400, lon.=26.460508, Alt.=120.618225m. Speed=2.592000m/h.</desc>
<speed>0.720000</speed>
</trkpt>
<trkpt lat="56.070396" lon="26.460524">
<ele>120.569397</ele>
<time>2010-08-29T12:55:21Z</time>
<desc>lat.=56.070396, lon.=26.460524, Alt.=120.569397m. Speed=2.232000m/h.</desc>
<speed>0.620000</speed>
</trkpt>
<trkpt lat="56.070396" lon="26.460539">
<ele>120.579163</ele>
<time>2010-08-29T12:55:22Z</time>
<desc>lat.=56.070396, lon.=26.460539, Alt.=120.579163m. Speed=2.160000m/h.</desc>
<speed>0.600000</speed>
</trkpt>
<trkpt lat="56.070396" lon="26.460552">
<ele>120.493225</ele>
<time>2010-08-29T12:55:23Z</time>
<desc>lat.=56.070396, lon.=26.460552, Alt.=120.493225m. Speed=1.800000m/h.</desc>
<speed>0.500000</speed>
</trkpt>
<trkpt lat="56.070377" lon="26.460554">
<ele>120.374084</ele>
<time>2010-08-29T12:55:24Z</time>
<desc>lat.=56.070377, lon.=26.460554, Alt.=120.374084m. Speed=2.016000m/h.</desc>
<speed>0.560000</speed>
</trkpt>
<trkpt lat="56.070370" lon="26.460577">
<ele>120.313538</ele>
<time>2010-08-29T12:55:25Z</time>
<desc>lat.=56.070370, lon.=26.460577, Alt.=120.313538m. Speed=2.196000m/h.</desc>
<speed>0.610000</speed>
</trkpt>
<trkpt lat="56.070374" lon="26.460602">
<ele>120.063538</ele>
<time>2010-08-29T12:55:26Z</time>
<desc>lat.=56.070374, lon.=26.460602, Alt.=120.063538m. Speed=2.268000m/h.</desc>
<speed>0.630000</speed>
</trkpt>
<trkpt lat="56.070381" lon="26.460627">
<ele>119.823303</ele>
<time>2010-08-29T12:55:27Z</time>
<desc>lat.=56.070381, lon.=26.460627, Alt.=119.823303m. Speed=1.872000m/h.</desc>
<speed>0.520000</speed>
</trkpt>
<trkpt lat="56.070381" lon="26.460642">
<ele>119.678772</ele>
<time>2010-08-29T12:55:28Z</time>
<desc>lat.=56.070381, lon.=26.460642, Alt.=119.678772m. Speed=1.764000m/h.</desc>
<speed>0.490000</speed>
</trkpt>
<trkpt lat="56.070381" lon="26.460651">
<ele>119.655334</ele>
<time>2010-08-29T12:55:29Z</time>
<desc>lat.=56.070381, lon.=26.460651, Alt.=119.655334m. Speed=1.476000m/h.</desc>
<speed>0.410000</speed>
</trkpt>
<trkpt lat="56.070377" lon="26.460659">
<ele>119.631897</ele>
<time>2010-08-29T12:55:30Z</time>
<desc>lat.=56.070377, lon.=26.460659, Alt.=119.631897m. Speed=1.476000m/h.</desc>
<speed>0.410000</speed>
</trkpt>
<trkpt lat="56.070370" lon="26.460674">
<ele>119.622131</ele>
<time>2010-08-29T12:55:31Z</time>
<desc>lat.=56.070370, lon.=26.460674, Alt.=119.622131m. Speed=1.692000m/h.</desc>
<speed>0.470000</speed>
</trkpt>
<trkpt lat="56.070316" lon="26.460768">
<ele>119.575256</ele>
<time>2010-08-29T12:55:32Z</time>
<desc>lat.=56.070316, lon.=26.460768, Alt.=119.575256m. Speed=2.988000m/h.</desc>
<speed>0.830000</speed>
</trkpt>
<trkpt lat="56.070309" lon="26.460785">
<ele>119.561584</ele>
<time>2010-08-29T12:55:33Z</time>
<desc>lat.=56.070309, lon.=26.460785, Alt.=119.561584m. Speed=3.024000m/h.</desc>
<speed>0.840000</speed>
</trkpt>
<trkpt lat="56.070297" lon="26.460817">
<ele>119.553772</ele>
<time>2010-08-29T12:55:34Z</time>
<desc>lat.=56.070297, lon.=26.460817, Alt.=119.553772m. Speed=3.636000m/h.</desc>
<speed>1.010000</speed>
</trkpt>
<trkpt lat="56.070293" lon="26.460842">
<ele>119.518616</ele>
<time>2010-08-29T12:55:35Z</time>
<desc>lat.=56.070293, lon.=26.460842, Alt.=119.518616m. Speed=3.672000m/h.</desc>
<speed>1.020000</speed>
</trkpt>
<trkpt lat="56.070290" lon="26.460861">
<ele>119.506897</ele>
<time>2010-08-29T12:55:36Z</time>
<desc>lat.=56.070290, lon.=26.460861, Alt.=119.506897m. Speed=3.492000m/h.</desc>
<speed>0.970000</speed>
</trkpt>
<trkpt lat="56.070286" lon="26.460888">
<ele>119.487366</ele>
<time>2010-08-29T12:55:37Z</time>
<desc>lat.=56.070286, lon.=26.460888, Alt.=119.487366m. Speed=3.744000m/h.</desc>
<speed>1.040000</speed>
</trkpt>
<trkpt lat="56.070290" lon="26.460918">
<ele>119.524475</ele>
<time>2010-08-29T12:55:38Z</time>
<desc>lat.=56.070290, lon.=26.460918, Alt.=119.524475m. Speed=3.528000m/h.</desc>
<speed>0.980000</speed>
</trkpt>
<trkpt lat="56.070290" lon="26.460941">
<ele>119.585022</ele>
<time>2010-08-29T12:55:39Z</time>
<desc>lat.=56.070290, lon.=26.460941, Alt.=119.585022m. Speed=3.312000m/h.</desc>
<speed>0.920000</speed>
</trkpt>
<trkpt lat="56.070293" lon="26.460962">
<ele>119.643616</ele>
<time>2010-08-29T12:55:40Z</time>
<desc>lat.=56.070293, lon.=26.460962, Alt.=119.643616m. Speed=3.204000m/h.</desc>
<speed>0.890000</speed>
</trkpt>
<trkpt lat="56.070293" lon="26.460983">
<ele>119.627991</ele>
<time>2010-08-29T12:55:41Z</time>
<desc>lat.=56.070293, lon.=26.460983, Alt.=119.627991m. Speed=3.312000m/h.</desc>
<speed>0.920000</speed>
</trkpt>
<trkpt lat="56.070286" lon="26.461014">
<ele>119.627991</ele>
<time>2010-08-29T12:55:42Z</time>
<desc>lat.=56.070286, lon.=26.461014, Alt.=119.627991m. Speed=3.564000m/h.</desc>
<speed>0.990000</speed>
</trkpt>
<trkpt lat="56.070278" lon="26.461040">
<ele>119.594788</ele>
<time>2010-08-29T12:55:43Z</time>
<desc>lat.=56.070278, lon.=26.461040, Alt.=119.594788m. Speed=3.636000m/h.</desc>
<speed>1.010000</speed>
</trkpt>
<trkpt lat="56.070274" lon="26.461063">
<ele>119.581116</ele>
<time>2010-08-29T12:55:44Z</time>
<desc>lat.=56.070274, lon.=26.461063, Alt.=119.581116m. Speed=3.600000m/h.</desc>
<speed>1.000000</speed>
</trkpt>
<trkpt lat="56.070271" lon="26.461094">
<ele>119.532288</ele>
<time>2010-08-29T12:55:45Z</time>
<desc>lat.=56.070271, lon.=26.461094, Alt.=119.532288m. Speed=3.924000m/h.</desc>
<speed>1.090000</speed>
</trkpt>
<trkpt lat="56.070274" lon="26.461117">
<ele>119.553772</ele>
<time>2010-08-29T12:55:46Z</time>
<desc>lat.=56.070274, lon.=26.461117, Alt.=119.553772m. Speed=4.140000m/h.</desc>
<speed>1.150000</speed>
</trkpt>
<trkpt lat="56.070274" lon="26.461138">
<ele>119.598694</ele>
<time>2010-08-29T12:55:47Z</time>
<desc>lat.=56.070274, lon.=26.461138, Alt.=119.598694m. Speed=3.924000m/h.</desc>
<speed>1.090000</speed>
</trkpt>
<trkpt lat="56.070271" lon="26.461153">
<ele>119.635803</ele>
<time>2010-08-29T12:55:48Z</time>
<desc>lat.=56.070271, lon.=26.461153, Alt.=119.635803m. Speed=3.384000m/h.</desc>
<speed>0.940000</speed>
</trkpt>
<trkpt lat="56.070267" lon="26.461180">
<ele>119.567444</ele>
<time>2010-08-29T12:55:49Z</time>
<desc>lat.=56.070267, lon.=26.461180, Alt.=119.567444m. Speed=3.528000m/h.</desc>
<speed>0.980000</speed>
</trkpt>
<trkpt lat="56.070255" lon="26.461203">
<ele>119.608459</ele>
<time>2010-08-29T12:55:50Z</time>
<desc>lat.=56.070255, lon.=26.461203, Alt.=119.608459m. Speed=3.276000m/h.</desc>
<speed>0.910000</speed>
</trkpt>
<trkpt lat="56.070248" lon="26.461222">
<ele>119.688538</ele>
<time>2010-08-29T12:55:51Z</time>
<desc>lat.=56.070248, lon.=26.461222, Alt.=119.688538m. Speed=3.132000m/h.</desc>
<speed>0.870000</speed>
</trkpt>
<trkpt lat="56.070244" lon="26.461243">
<ele>119.739319</ele>
<time>2010-08-29T12:55:52Z</time>
<desc>lat.=56.070244, lon.=26.461243, Alt.=119.739319m. Speed=3.060000m/h.</desc>
<speed>0.850000</speed>
</trkpt>
<trkpt lat="56.070240" lon="26.461264">
<ele>119.795959</ele>
<time>2010-08-29T12:55:53Z</time>
<desc>lat.=56.070240, lon.=26.461264, Alt.=119.795959m. Speed=2.880000m/h.</desc>
<speed>0.800000</speed>
</trkpt>
<trkpt lat="56.070217" lon="26.461309">
<ele>119.776428</ele>
<time>2010-08-29T12:55:54Z</time>
<desc>lat.=56.070217, lon.=26.461309, Alt.=119.776428m. Speed=3.132000m/h.</desc>
<speed>0.870000</speed>
</trkpt>
<trkpt lat="56.070213" lon="26.461323">
<ele>119.819397</ele>
<time>2010-08-29T12:55:55Z</time>
<desc>lat.=56.070213, lon.=26.461323, Alt.=119.819397m. Speed=2.448000m/h.</desc>
<speed>0.680000</speed>
</trkpt>
<trkpt lat="56.070217" lon="26.461346">
<ele>119.915100</ele>
<time>2010-08-29T12:55:56Z</time>
<desc>lat.=56.070217, lon.=26.461346, Alt.=119.915100m. Speed=2.700000m/h.</desc>
<speed>0.750000</speed>
</trkpt>
<trkpt lat="56.070217" lon="26.461365">
<ele>119.973694</ele>
<time>2010-08-29T12:55:57Z</time>
<desc>lat.=56.070217, lon.=26.461365, Alt.=119.973694m. Speed=2.700000m/h.</desc>
<speed>0.750000</speed>
</trkpt>
<trkpt lat="56.070221" lon="26.461399">
<ele>119.797913</ele>
<time>2010-08-29T12:55:58Z</time>
<desc>lat.=56.070221, lon.=26.461399, Alt.=119.797913m. Speed=2.952000m/h.</desc>
<speed>0.820000</speed>
</trkpt>
<trkpt lat="56.070217" lon="26.461441">
<ele>119.823303</ele>
<time>2010-08-29T12:55:59Z</time>
<desc>lat.=56.070217, lon.=26.461441, Alt.=119.823303m. Speed=3.996000m/h.</desc>
<speed>1.110000</speed>
</trkpt>
<trkpt lat="56.070213" lon="26.461466">
<ele>119.876038</ele>
<time>2010-08-29T12:56:00Z</time>
<desc>lat.=56.070213, lon.=26.461466, Alt.=119.876038m. Speed=3.708000m/h.</desc>
<speed>1.030000</speed>
</trkpt>
<trkpt lat="56.070213" lon="26.461500">
<ele>119.889709</ele>
<time>2010-08-29T12:56:01Z</time>
<desc>lat.=56.070213, lon.=26.461500, Alt.=119.889709m. Speed=3.636000m/h.</desc>
<speed>1.010000</speed>
</trkpt>
<trkpt lat="56.070217" lon="26.461557">
<ele>119.827209</ele>
<time>2010-08-29T12:56:02Z</time>
<desc>lat.=56.070217, lon.=26.461557, Alt.=119.827209m. Speed=4.716000m/h.</desc>
<speed>1.310000</speed>
</trkpt>
<trkpt lat="56.070221" lon="26.461594">
<ele>119.887756</ele>
<time>2010-08-29T12:56:03Z</time>
<desc>lat.=56.070221, lon.=26.461594, Alt.=119.887756m. Speed=4.608000m/h.</desc>
<speed>1.280000</speed>
</trkpt>
<trkpt lat="56.070168" lon="26.461676">
<ele>119.827209</ele>
<time>2010-08-29T12:56:04Z</time>
<desc>lat.=56.070168, lon.=26.461676, Alt.=119.827209m. Speed=5.400000m/h.</desc>
<speed>1.500000</speed>
</trkpt>
<trkpt lat="56.070168" lon="26.461710">
<ele>119.907288</ele>
<time>2010-08-29T12:56:05Z</time>
<desc>lat.=56.070168, lon.=26.461710, Alt.=119.907288m. Speed=4.536000m/h.</desc>
<speed>1.260000</speed>
</trkpt>
<trkpt lat="56.070168" lon="26.461744">
<ele>119.895569</ele>
<time>2010-08-29T12:56:06Z</time>
<desc>lat.=56.070168, lon.=26.461744, Alt.=119.895569m. Speed=3.672000m/h.</desc>
<speed>1.020000</speed>
</trkpt>
<trkpt lat="56.070179" lon="26.461782">
<ele>120.045959</ele>
<time>2010-08-29T12:56:07Z</time>
<desc>lat.=56.070179, lon.=26.461782, Alt.=120.045959m. Speed=4.860000m/h.</desc>
<speed>1.350000</speed>
</trkpt>
<trkpt lat="56.070179" lon="26.461813">
<ele>120.233459</ele>
<time>2010-08-29T12:56:08Z</time>
<desc>lat.=56.070179, lon.=26.461813, Alt.=120.233459m. Speed=3.780000m/h.</desc>
<speed>1.050000</speed>
</trkpt>
<trkpt lat="56.070133" lon="26.461891">
<ele>120.032288</ele>
<time>2010-08-29T12:56:09Z</time>
<desc>lat.=56.070133, lon.=26.461891, Alt.=120.032288m. Speed=6.840000m/h.</desc>
<speed>1.900000</speed>
</trkpt>
<trkpt lat="56.070118" lon="26.461943">
<ele>120.071350</ele>
<time>2010-08-29T12:56:10Z</time>
<desc>lat.=56.070118, lon.=26.461943, Alt.=120.071350m. Speed=4.896000m/h.</desc>
<speed>1.360000</speed>
</trkpt>
<trkpt lat="56.070110" lon="26.461981">
<ele>119.938538</ele>
<time>2010-08-29T12:56:11Z</time>
<desc>lat.=56.070110, lon.=26.461981, Alt.=119.938538m. Speed=4.932000m/h.</desc>
<speed>1.370000</speed>
</trkpt>
<trkpt lat="56.070110" lon="26.462017">
<ele>120.151428</ele>
<time>2010-08-29T12:56:12Z</time>
<desc>lat.=56.070110, lon.=26.462017, Alt.=120.151428m. Speed=4.680000m/h.</desc>
<speed>1.300000</speed>
</trkpt>
<trkpt lat="56.070114" lon="26.462067">
<ele>120.159241</ele>
<time>2010-08-29T12:56:13Z</time>
<desc>lat.=56.070114, lon.=26.462067, Alt.=120.159241m. Speed=4.896000m/h.</desc>
<speed>1.360000</speed>
</trkpt>
<trkpt lat="56.070133" lon="26.462112">
<ele>120.290100</ele>
<time>2010-08-29T12:56:14Z</time>
<desc>lat.=56.070133, lon.=26.462112, Alt.=120.290100m. Speed=4.752000m/h.</desc>
<speed>1.320000</speed>
</trkpt>
<trkpt lat="56.070137" lon="26.462151">
<ele>120.313538</ele>
<time>2010-08-29T12:56:15Z</time>
<desc>lat.=56.070137, lon.=26.462151, Alt.=120.313538m. Speed=3.852000m/h.</desc>
<speed>1.070000</speed>
</trkpt>
<trkpt lat="56.070133" lon="26.462191">
<ele>120.413147</ele>
<time>2010-08-29T12:56:16Z</time>
<desc>lat.=56.070133, lon.=26.462191, Alt.=120.413147m. Speed=6.372000m/h.</desc>
<speed>1.770000</speed>
</trkpt>
<trkpt lat="56.070126" lon="26.462248">
<ele>120.426819</ele>
<time>2010-08-29T12:56:17Z</time>
<desc>lat.=56.070126, lon.=26.462248, Alt.=120.426819m. Speed=6.444000m/h.</desc>
<speed>1.790000</speed>
</trkpt>
<trkpt lat="56.070133" lon="26.462288">
<ele>120.569397</ele>
<time>2010-08-29T12:56:18Z</time>
<desc>lat.=56.070133, lon.=26.462288, Alt.=120.569397m. Speed=5.544000m/h.</desc>
<speed>1.540000</speed>
</trkpt>
<trkpt lat="56.070133" lon="26.462326">
<ele>120.655334</ele>
<time>2010-08-29T12:56:19Z</time>
<desc>lat.=56.070133, lon.=26.462326, Alt.=120.655334m. Speed=6.516000m/h.</desc>
<speed>1.810000</speed>
</trkpt>
<trkpt lat="56.070118" lon="26.462370">
<ele>120.614319</ele>
<time>2010-08-29T12:56:20Z</time>
<desc>lat.=56.070118, lon.=26.462370, Alt.=120.614319m. Speed=8.604000m/h.</desc>
<speed>2.390000</speed>
</trkpt>
<trkpt lat="56.070129" lon="26.462486">
<ele>120.840881</ele>
<time>2010-08-29T12:56:21Z</time>
<desc>lat.=56.070129, lon.=26.462486, Alt.=120.840881m. Speed=9.036000m/h.</desc>
<speed>2.510000</speed>
</trkpt>
<trkpt lat="56.070129" lon="26.462532">
<ele>121.085022</ele>
<time>2010-08-29T12:56:22Z</time>
<desc>lat.=56.070129, lon.=26.462532, Alt.=121.085022m. Speed=7.812000m/h.</desc>
<speed>2.170000</speed>
</trkpt>
<trkpt lat="56.070129" lon="26.462561">
<ele>121.208069</ele>
<time>2010-08-29T12:56:23Z</time>
<desc>lat.=56.070129, lon.=26.462561, Alt.=121.208069m. Speed=3.960000m/h.</desc>
<speed>1.100000</speed>
</trkpt>
<trkpt lat="56.070145" lon="26.462599">
<ele>121.022522</ele>
<time>2010-08-29T12:56:24Z</time>
<desc>lat.=56.070145, lon.=26.462599, Alt.=121.022522m. Speed=1.512000m/h.</desc>
<speed>0.420000</speed>
</trkpt>
<trkpt lat="56.070171" lon="26.462631">
<ele>121.360413</ele>
<time>2010-08-29T12:56:25Z</time>
<desc>lat.=56.070171, lon.=26.462631, Alt.=121.360413m. Speed=1.116000m/h.</desc>
<speed>0.310000</speed>
</trkpt>
<trkpt lat="56.070175" lon="26.462635">
<ele>121.346741</ele>
<time>2010-08-29T12:56:26Z</time>
<desc>lat.=56.070175, lon.=26.462635, Alt.=121.346741m. Speed=1.404000m/h.</desc>
<speed>0.390000</speed>
</trkpt>
<trkpt lat="56.070206" lon="26.462671">
<ele>121.583069</ele>
<time>2010-08-29T12:56:27Z</time>
<desc>lat.=56.070206, lon.=26.462671, Alt.=121.583069m. Speed=2.160000m/h.</desc>
<speed>0.600000</speed>
</trkpt>
<trkpt lat="56.070217" lon="26.462694">
<ele>120.786194</ele>
<time>2010-08-29T12:56:28Z</time>
<desc>lat.=56.070217, lon.=26.462694, Alt.=120.786194m. Speed=1.476000m/h.</desc>
<speed>0.410000</speed>
</trkpt>
<trkpt lat="56.070210" lon="26.462711">
<ele>120.608459</ele>
<time>2010-08-29T12:56:29Z</time>
<desc>lat.=56.070210, lon.=26.462711, Alt.=120.608459m. Speed=1.620000m/h.</desc>
<speed>0.450000</speed>
</trkpt>
<trkpt lat="56.070206" lon="26.462730">
<ele>120.629944</ele>
<time>2010-08-29T12:56:30Z</time>
<desc>lat.=56.070206, lon.=26.462730, Alt.=120.629944m. Speed=2.124000m/h.</desc>
<speed>0.590000</speed>
</trkpt>
<trkpt lat="56.070206" lon="26.462751">
<ele>120.678772</ele>
<time>2010-08-29T12:56:31Z</time>
<desc>lat.=56.070206, lon.=26.462751, Alt.=120.678772m. Speed=2.556000m/h.</desc>
<speed>0.710000</speed>
</trkpt>
<trkpt lat="56.070202" lon="26.462770">
<ele>120.745178</ele>
<time>2010-08-29T12:56:32Z</time>
<desc>lat.=56.070202, lon.=26.462770, Alt.=120.745178m. Speed=2.916000m/h.</desc>
<speed>0.810000</speed>
</trkpt>
<trkpt lat="56.070198" lon="26.462807">
<ele>120.549866</ele>
<time>2010-08-29T12:56:33Z</time>
<desc>lat.=56.070198, lon.=26.462807, Alt.=120.549866m. Speed=2.772000m/h.</desc>
<speed>0.770000</speed>
</trkpt>
<trkpt lat="56.070194" lon="26.462851">
<ele>120.254944</ele>
<time>2010-08-29T12:56:34Z</time>
<desc>lat.=56.070194, lon.=26.462851, Alt.=120.254944m. Speed=3.240000m/h.</desc>
<speed>0.900000</speed>
</trkpt>
<trkpt lat="56.070190" lon="26.462881">
<ele>119.862366</ele>
<time>2010-08-29T12:56:35Z</time>
<desc>lat.=56.070190, lon.=26.462881, Alt.=119.862366m. Speed=3.456000m/h.</desc>
<speed>0.960000</speed>
</trkpt>
<trkpt lat="56.070187" lon="26.462915">
<ele>119.766663</ele>
<time>2010-08-29T12:56:36Z</time>
<desc>lat.=56.070187, lon.=26.462915, Alt.=119.766663m. Speed=3.672000m/h.</desc>
<speed>1.020000</speed>
</trkpt>
<trkpt lat="56.070190" lon="26.462931">
<ele>119.813538</ele>
<time>2010-08-29T12:56:37Z</time>
<desc>lat.=56.070190, lon.=26.462931, Alt.=119.813538m. Speed=3.384000m/h.</desc>
<speed>0.940000</speed>
</trkpt>
<trkpt lat="56.070198" lon="26.462954">
<ele>119.581116</ele>
<time>2010-08-29T12:56:38Z</time>
<desc>lat.=56.070198, lon.=26.462954, Alt.=119.581116m. Speed=3.672000m/h.</desc>
<speed>1.020000</speed>
</trkpt>
<trkpt lat="56.070198" lon="26.462969">
<ele>119.256897</ele>
<time>2010-08-29T12:56:39Z</time>
<desc>lat.=56.070198, lon.=26.462969, Alt.=119.256897m. Speed=2.916000m/h.</desc>
<speed>0.810000</speed>
</trkpt>
<trkpt lat="56.070206" lon="26.462988">
<ele>119.456116</ele>
<time>2010-08-29T12:56:40Z</time>
<desc>lat.=56.070206, lon.=26.462988, Alt.=119.456116m. Speed=2.376000m/h.</desc>
<speed>0.660000</speed>
</trkpt>
<trkpt lat="56.070206" lon="26.463003">
<ele>119.325256</ele>
<time>2010-08-29T12:56:41Z</time>
<desc>lat.=56.070206, lon.=26.463003, Alt.=119.325256m. Speed=1.908000m/h.</desc>
<speed>0.530000</speed>
</trkpt>
<trkpt lat="56.070221" lon="26.463026">
<ele>119.524475</ele>
<time>2010-08-29T12:56:42Z</time>
<desc>lat.=56.070221, lon.=26.463026, Alt.=119.524475m. Speed=1.980000m/h.</desc>
<speed>0.550000</speed>
</trkpt>
<trkpt lat="56.070221" lon="26.463034">
<ele>119.225647</ele>
<time>2010-08-29T12:56:43Z</time>
<desc>lat.=56.070221, lon.=26.463034, Alt.=119.225647m. Speed=1.404000m/h.</desc>
<speed>0.390000</speed>
</trkpt>
<trkpt lat="56.070225" lon="26.463037">
<ele>119.112366</ele>
<time>2010-08-29T12:56:44Z</time>
<desc>lat.=56.070225, lon.=26.463037, Alt.=119.112366m. Speed=1.044000m/h.</desc>
<speed>0.290000</speed>
</trkpt>
<trkpt lat="56.070210" lon="26.463049">
<ele>119.118225</ele>
<time>2010-08-29T12:56:45Z</time>
<desc>lat.=56.070210, lon.=26.463049, Alt.=119.118225m. Speed=0.828000m/h.</desc>
<speed>0.230000</speed>
</trkpt>
<trkpt lat="56.070206" lon="26.463060">
<ele>118.604553</ele>
<time>2010-08-29T12:56:46Z</time>
<desc>lat.=56.070206, lon.=26.463060, Alt.=118.604553m. Speed=0.936000m/h.</desc>
<speed>0.260000</speed>
</trkpt>
<trkpt lat="56.070202" lon="26.463076">
<ele>118.506897</ele>
<time>2010-08-29T12:56:47Z</time>
<desc>lat.=56.070202, lon.=26.463076, Alt.=118.506897m. Speed=1.044000m/h.</desc>
<speed>0.290000</speed>
</trkpt>
<trkpt lat="56.070206" lon="26.463081">
<ele>118.538147</ele>
<time>2010-08-29T12:56:48Z</time>
<desc>lat.=56.070206, lon.=26.463081, Alt.=118.538147m. Speed=1.188000m/h.</desc>
<speed>0.330000</speed>
</trkpt>
<trkpt lat="56.070213" lon="26.463083">
<ele>118.370178</ele>
<time>2010-08-29T12:56:49Z</time>
<desc>lat.=56.070213, lon.=26.463083, Alt.=118.370178m. Speed=1.044000m/h.</desc>
<speed>0.290000</speed>
</trkpt>
<trkpt lat="56.070225" lon="26.463083">
<ele>118.243225</ele>
<time>2010-08-29T12:56:50Z</time>
<desc>lat.=56.070225, lon.=26.463083, Alt.=118.243225m. Speed=1.224000m/h.</desc>
<speed>0.340000</speed>
</trkpt>
<trkpt lat="56.070225" lon="26.463091">
<ele>117.780334</ele>
<time>2010-08-29T12:56:51Z</time>
<desc>lat.=56.070225, lon.=26.463091, Alt.=117.780334m. Speed=1.080000m/h.</desc>
<speed>0.300000</speed>
</trkpt>
<trkpt lat="56.070225" lon="26.463121">
<ele>117.278381</ele>
<time>2010-08-29T12:56:52Z</time>
<desc>lat.=56.070225, lon.=26.463121, Alt.=117.278381m. Speed=2.088000m/h.</desc>
<speed>0.580000</speed>
</trkpt>
<trkpt lat="56.070221" lon="26.463144">
<ele>116.768616</ele>
<time>2010-08-29T12:56:53Z</time>
<desc>lat.=56.070221, lon.=26.463144, Alt.=116.768616m. Speed=2.304000m/h.</desc>
<speed>0.640000</speed>
</trkpt>
<trkpt lat="56.070225" lon="26.463163">
<ele>116.366272</ele>
<time>2010-08-29T12:56:54Z</time>
<desc>lat.=56.070225, lon.=26.463163, Alt.=116.366272m. Speed=2.628000m/h.</desc>
<speed>0.730000</speed>
</trkpt>
<trkpt lat="56.070221" lon="26.463188">
<ele>116.096741</ele>
<time>2010-08-29T12:56:55Z</time>
<desc>lat.=56.070221, lon.=26.463188, Alt.=116.096741m. Speed=2.340000m/h.</desc>
<speed>0.650000</speed>
</trkpt>
<trkpt lat="56.070217" lon="26.463203">
<ele>116.065491</ele>
<time>2010-08-29T12:56:56Z</time>
<desc>lat.=56.070217, lon.=26.463203, Alt.=116.065491m. Speed=1.944000m/h.</desc>
<speed>0.540000</speed>
</trkpt>
<trkpt lat="56.070217" lon="26.463209">
<ele>116.092834</ele>
<time>2010-08-29T12:56:57Z</time>
<desc>lat.=56.070217, lon.=26.463209, Alt.=116.092834m. Speed=1.944000m/h.</desc>
<speed>0.540000</speed>
</trkpt>
<trkpt lat="56.070213" lon="26.463230">
<ele>116.090881</ele>
<time>2010-08-29T12:56:58Z</time>
<desc>lat.=56.070213, lon.=26.463230, Alt.=116.090881m. Speed=1.188000m/h.</desc>
<speed>0.330000</speed>
</trkpt>
<trkpt lat="56.070213" lon="26.463243">
<ele>116.067444</ele>
<time>2010-08-29T12:56:59Z</time>
<desc>lat.=56.070213, lon.=26.463243, Alt.=116.067444m. Speed=2.340000m/h.</desc>
<speed>0.650000</speed>
</trkpt>
<trkpt lat="56.070213" lon="26.463259">
<ele>115.647522</ele>
<time>2010-08-29T12:57:00Z</time>
<desc>lat.=56.070213, lon.=26.463259, Alt.=115.647522m. Speed=2.268000m/h.</desc>
<speed>0.630000</speed>
</trkpt>
<trkpt lat="56.070206" lon="26.463268">
<ele>115.426819</ele>
<time>2010-08-29T12:57:01Z</time>
<desc>lat.=56.070206, lon.=26.463268, Alt.=115.426819m. Speed=1.800000m/h.</desc>
<speed>0.500000</speed>
</trkpt>
<trkpt lat="56.070202" lon="26.463284">
<ele>114.961975</ele>
<time>2010-08-29T12:57:02Z</time>
<desc>lat.=56.070202, lon.=26.463284, Alt.=114.961975m. Speed=1.368000m/h.</desc>
<speed>0.380000</speed>
</trkpt>
<trkpt lat="56.070217" lon="26.463287">
<ele>114.506897</ele>
<time>2010-08-29T12:57:03Z</time>
<desc>lat.=56.070217, lon.=26.463287, Alt.=114.506897m. Speed=0.864000m/h.</desc>
<speed>0.240000</speed>
</trkpt>
<trkpt lat="56.070217" lon="26.463284">
<ele>114.467834</ele>
<time>2010-08-29T12:57:04Z</time>
<desc>lat.=56.070217, lon.=26.463284, Alt.=114.467834m. Speed=0.288000m/h.</desc>
<speed>0.080000</speed>
</trkpt>
<trkpt lat="56.070217" lon="26.463291">
<ele>114.452209</ele>
<time>2010-08-29T12:57:05Z</time>
<desc>lat.=56.070217, lon.=26.463291, Alt.=114.452209m. Speed=2.376000m/h.</desc>
<speed>0.660000</speed>
</trkpt>
<trkpt lat="56.070221" lon="26.463305">
<ele>114.419006</ele>
<time>2010-08-29T12:57:06Z</time>
<desc>lat.=56.070221, lon.=26.463305, Alt.=114.419006m. Speed=2.196000m/h.</desc>
<speed>0.610000</speed>
</trkpt>
<trkpt lat="56.070225" lon="26.463318">
<ele>114.415100</ele>
<time>2010-08-29T12:57:07Z</time>
<desc>lat.=56.070225, lon.=26.463318, Alt.=114.415100m. Speed=1.332000m/h.</desc>
<speed>0.370000</speed>
</trkpt>
<trkpt lat="56.070225" lon="26.463322">
<ele>114.393616</ele>
<time>2010-08-29T12:57:08Z</time>
<desc>lat.=56.070225, lon.=26.463322, Alt.=114.393616m. Speed=1.152000m/h.</desc>
<speed>0.320000</speed>
</trkpt>
<trkpt lat="56.070221" lon="26.463326">
<ele>114.370178</ele>
<time>2010-08-29T12:57:09Z</time>
<desc>lat.=56.070221, lon.=26.463326, Alt.=114.370178m. Speed=0.936000m/h.</desc>
<speed>0.260000</speed>
</trkpt>
<trkpt lat="56.070232" lon="26.463327">
<ele>114.354553</ele>
<time>2010-08-29T12:57:10Z</time>
<desc>lat.=56.070232, lon.=26.463327, Alt.=114.354553m. Speed=0.468000m/h.</desc>
<speed>0.130000</speed>
</trkpt>
<trkpt lat="56.070232" lon="26.463329">
<ele>114.264709</ele>
<time>2010-08-29T12:57:11Z</time>
<desc>lat.=56.070232, lon.=26.463329, Alt.=114.264709m. Speed=0.360000m/h.</desc>
<speed>0.100000</speed>
</trkpt>
<trkpt lat="56.070240" lon="26.463341">
<ele>114.225647</ele>
<time>2010-08-29T12:57:12Z</time>
<desc>lat.=56.070240, lon.=26.463341, Alt.=114.225647m. Speed=1.332000m/h.</desc>
<speed>0.370000</speed>
</trkpt>
<trkpt lat="56.070240" lon="26.463345">
<ele>114.211975</ele>
<time>2010-08-29T12:57:13Z</time>
<desc>lat.=56.070240, lon.=26.463345, Alt.=114.211975m. Speed=1.008000m/h.</desc>
<speed>0.280000</speed>
</trkpt>
<trkpt lat="56.070259" lon="26.463341">
<ele>114.313538</ele>
<time>2010-08-29T12:57:14Z</time>
<desc>lat.=56.070259, lon.=26.463341, Alt.=114.313538m. Speed=1.548000m/h.</desc>
<speed>0.430000</speed>
</trkpt>
<trkpt lat="56.070278" lon="26.463333">
<ele>114.028381</ele>
<time>2010-08-29T12:57:15Z</time>
<desc>lat.=56.070278, lon.=26.463333, Alt.=114.028381m. Speed=0.936000m/h.</desc>
<speed>0.260000</speed>
</trkpt>
<trkpt lat="56.070286" lon="26.463326">
<ele>113.911194</ele>
<time>2010-08-29T12:57:16Z</time>
<desc>lat.=56.070286, lon.=26.463326, Alt.=113.911194m. Speed=0.504000m/h.</desc>
<speed>0.140000</speed>
</trkpt>
<trkpt lat="56.070286" lon="26.463324">
<ele>113.842834</ele>
<time>2010-08-29T12:57:17Z</time>
<desc>lat.=56.070286, lon.=26.463324, Alt.=113.842834m. Speed=0.684000m/h.</desc>
<speed>0.190000</speed>
</trkpt>
<trkpt lat="56.070290" lon="26.463324">
<ele>113.694397</ele>
<time>2010-08-29T12:57:18Z</time>
<desc>lat.=56.070290, lon.=26.463324, Alt.=113.694397m. Speed=0.828000m/h.</desc>
<speed>0.230000</speed>
</trkpt>
<trkpt lat="56.070290" lon="26.463327">
<ele>113.688538</ele>
<time>2010-08-29T12:57:19Z</time>
<desc>lat.=56.070290, lon.=26.463327, Alt.=113.688538m. Speed=0.396000m/h.</desc>
<speed>0.110000</speed>
</trkpt>
<trkpt lat="56.070290" lon="26.463329">
<ele>113.686584</ele>
<time>2010-08-29T12:57:20Z</time>
<desc>lat.=56.070290, lon.=26.463329, Alt.=113.686584m. Speed=0.576000m/h.</desc>
<speed>0.160000</speed>
</trkpt>
<trkpt lat="56.070290" lon="26.463331">
<ele>113.684631</ele>
<time>2010-08-29T12:57:21Z</time>
<desc>lat.=56.070290, lon.=26.463331, Alt.=113.684631m. Speed=1.152000m/h.</desc>
<speed>0.320000</speed>
</trkpt>
<trkpt lat="56.070282" lon="26.463341">
<ele>113.606506</ele>
<time>2010-08-29T12:57:22Z</time>
<desc>lat.=56.070282, lon.=26.463341, Alt.=113.606506m. Speed=2.088000m/h.</desc>
<speed>0.580000</speed>
</trkpt>
<trkpt lat="56.070278" lon="26.463350">
<ele>113.479553</ele>
<time>2010-08-29T12:57:23Z</time>
<desc>lat.=56.070278, lon.=26.463350, Alt.=113.479553m. Speed=2.268000m/h.</desc>
<speed>0.630000</speed>
</trkpt>
<trkpt lat="56.070271" lon="26.463352">
<ele>113.467834</ele>
<time>2010-08-29T12:57:24Z</time>
<desc>lat.=56.070271, lon.=26.463352, Alt.=113.467834m. Speed=1.980000m/h.</desc>
<speed>0.550000</speed>
</trkpt>
<trkpt lat="56.070271" lon="26.463356">
<ele>113.450256</ele>
<time>2010-08-29T12:57:25Z</time>
<desc>lat.=56.070271, lon.=26.463356, Alt.=113.450256m. Speed=2.052000m/h.</desc>
<speed>0.570000</speed>
</trkpt>
<trkpt lat="56.070263" lon="26.463358">
<ele>113.465881</ele>
<time>2010-08-29T12:57:26Z</time>
<desc>lat.=56.070263, lon.=26.463358, Alt.=113.465881m. Speed=1.944000m/h.</desc>
<speed>0.540000</speed>
</trkpt>
<trkpt lat="56.070251" lon="26.463352">
<ele>113.432678</ele>
<time>2010-08-29T12:57:27Z</time>
<desc>lat.=56.070251, lon.=26.463352, Alt.=113.432678m. Speed=2.016000m/h.</desc>
<speed>0.560000</speed>
</trkpt>
<trkpt lat="56.070244" lon="26.463352">
<ele>113.432678</ele>
<time>2010-08-29T12:57:28Z</time>
<desc>lat.=56.070244, lon.=26.463352, Alt.=113.432678m. Speed=2.376000m/h.</desc>
<speed>0.660000</speed>
</trkpt>
<trkpt lat="56.070236" lon="26.463339">
<ele>113.422913</ele>
<time>2010-08-29T12:57:29Z</time>
<desc>lat.=56.070236, lon.=26.463339, Alt.=113.422913m. Speed=2.304000m/h.</desc>
<speed>0.640000</speed>
</trkpt>
<trkpt lat="56.070229" lon="26.463335">
<ele>113.413147</ele>
<time>2010-08-29T12:57:30Z</time>
<desc>lat.=56.070229, lon.=26.463335, Alt.=113.413147m. Speed=2.376000m/h.</desc>
<speed>0.660000</speed>
</trkpt>
<trkpt lat="56.070221" lon="26.463335">
<ele>113.381897</ele>
<time>2010-08-29T12:57:31Z</time>
<desc>lat.=56.070221, lon.=26.463335, Alt.=113.381897m. Speed=2.232000m/h.</desc>
<speed>0.620000</speed>
</trkpt>
<trkpt lat="56.070225" lon="26.463329">
<ele>113.350647</ele>
<time>2010-08-29T12:57:32Z</time>
<desc>lat.=56.070225, lon.=26.463329, Alt.=113.350647m. Speed=1.692000m/h.</desc>
<speed>0.470000</speed>
</trkpt>
<trkpt lat="56.070225" lon="26.463308">
<ele>113.358459</ele>
<time>2010-08-29T12:57:33Z</time>
<desc>lat.=56.070225, lon.=26.463308, Alt.=113.358459m. Speed=1.800000m/h.</desc>
<speed>0.500000</speed>
</trkpt>
<trkpt lat="56.070210" lon="26.463289">
<ele>113.446350</ele>
<time>2010-08-29T12:57:34Z</time>
<desc>lat.=56.070210, lon.=26.463289, Alt.=113.446350m. Speed=1.944000m/h.</desc>
<speed>0.540000</speed>
</trkpt>
<trkpt lat="56.070206" lon="26.463272">
<ele>113.506897</ele>
<time>2010-08-29T12:57:35Z</time>
<desc>lat.=56.070206, lon.=26.463272, Alt.=113.506897m. Speed=2.124000m/h.</desc>
<speed>0.590000</speed>
</trkpt>
<trkpt lat="56.070202" lon="26.463270">
<ele>113.532288</ele>
<time>2010-08-29T12:57:36Z</time>
<desc>lat.=56.070202, lon.=26.463270, Alt.=113.532288m. Speed=1.692000m/h.</desc>
<speed>0.470000</speed>
</trkpt>
<trkpt lat="56.070190" lon="26.463264">
<ele>113.458069</ele>
<time>2010-08-29T12:57:37Z</time>
<desc>lat.=56.070190, lon.=26.463264, Alt.=113.458069m. Speed=1.224000m/h.</desc>
<speed>0.340000</speed>
</trkpt>
<trkpt lat="56.070148" lon="26.463238">
<ele>112.999084</ele>
<time>2010-08-29T12:57:38Z</time>
<desc>lat.=56.070148, lon.=26.463238, Alt.=112.999084m. Speed=1.476000m/h.</desc>
<speed>0.410000</speed>
</trkpt>
<trkpt lat="56.070145" lon="26.463245">
<ele>113.028381</ele>
<time>2010-08-29T12:57:39Z</time>
<desc>lat.=56.070145, lon.=26.463245, Alt.=113.028381m. Speed=1.800000m/h.</desc>
<speed>0.500000</speed>
</trkpt>
<trkpt lat="56.070141" lon="26.463249">
<ele>113.071350</ele>
<time>2010-08-29T12:57:40Z</time>
<desc>lat.=56.070141, lon.=26.463249, Alt.=113.071350m. Speed=1.404000m/h.</desc>
<speed>0.390000</speed>
</trkpt>
<trkpt lat="56.070129" lon="26.463249">
<ele>112.999084</ele>
<time>2010-08-29T12:57:41Z</time>
<desc>lat.=56.070129, lon.=26.463249, Alt.=112.999084m. Speed=1.440000m/h.</desc>
<speed>0.400000</speed>
</trkpt>
<trkpt lat="56.070110" lon="26.463284">
<ele>113.018616</ele>
<time>2010-08-29T12:57:42Z</time>
<desc>lat.=56.070110, lon.=26.463284, Alt.=113.018616m. Speed=2.124000m/h.</desc>
<speed>0.590000</speed>
</trkpt>
<trkpt lat="56.070107" lon="26.463291">
<ele>113.034241</ele>
<time>2010-08-29T12:57:43Z</time>
<desc>lat.=56.070107, lon.=26.463291, Alt.=113.034241m. Speed=1.584000m/h.</desc>
<speed>0.440000</speed>
</trkpt>
<trkpt lat="56.070103" lon="26.463295">
<ele>113.032288</ele>
<time>2010-08-29T12:57:44Z</time>
<desc>lat.=56.070103, lon.=26.463295, Alt.=113.032288m. Speed=1.440000m/h.</desc>
<speed>0.400000</speed>
</trkpt>
<trkpt lat="56.070095" lon="26.463295">
<ele>113.071350</ele>
<time>2010-08-29T12:57:45Z</time>
<desc>lat.=56.070095, lon.=26.463295, Alt.=113.071350m. Speed=1.368000m/h.</desc>
<speed>0.380000</speed>
</trkpt>
<trkpt lat="56.070091" lon="26.463295">
<ele>113.085022</ele>
<time>2010-08-29T12:57:46Z</time>
<desc>lat.=56.070091, lon.=26.463295, Alt.=113.085022m. Speed=1.152000m/h.</desc>
<speed>0.320000</speed>
</trkpt>
<trkpt lat="56.070084" lon="26.463285">
<ele>113.096741</ele>
<time>2010-08-29T12:57:47Z</time>
<desc>lat.=56.070084, lon.=26.463285, Alt.=113.096741m. Speed=1.332000m/h.</desc>
<speed>0.370000</speed>
</trkpt>
<trkpt lat="56.070080" lon="26.463280">
<ele>113.108459</ele>
<time>2010-08-29T12:57:48Z</time>
<desc>lat.=56.070080, lon.=26.463280, Alt.=113.108459m. Speed=1.728000m/h.</desc>
<speed>0.480000</speed>
</trkpt>
<trkpt lat="56.070068" lon="26.463280">
<ele>113.145569</ele>
<time>2010-08-29T12:57:49Z</time>
<desc>lat.=56.070068, lon.=26.463280, Alt.=113.145569m. Speed=1.836000m/h.</desc>
<speed>0.510000</speed>
</trkpt>
<trkpt lat="56.070061" lon="26.463282">
<ele>113.170959</ele>
<time>2010-08-29T12:57:50Z</time>
<desc>lat.=56.070061, lon.=26.463282, Alt.=113.170959m. Speed=1.872000m/h.</desc>
<speed>0.520000</speed>
</trkpt>
<trkpt lat="56.070049" lon="26.463274">
<ele>113.172913</ele>
<time>2010-08-29T12:57:51Z</time>
<desc>lat.=56.070049, lon.=26.463274, Alt.=113.172913m. Speed=1.800000m/h.</desc>
<speed>0.500000</speed>
</trkpt>
<trkpt lat="56.070049" lon="26.463272">
<ele>113.229553</ele>
<time>2010-08-29T12:57:52Z</time>
<desc>lat.=56.070049, lon.=26.463272, Alt.=113.229553m. Speed=1.872000m/h.</desc>
<speed>0.520000</speed>
</trkpt>
<trkpt lat="56.070038" lon="26.463274">
<ele>112.993225</ele>
<time>2010-08-29T12:57:53Z</time>
<desc>lat.=56.070038, lon.=26.463274, Alt.=112.993225m. Speed=1.800000m/h.</desc>
<speed>0.500000</speed>
</trkpt>
<trkpt lat="56.070030" lon="26.463272">
<ele>112.919006</ele>
<time>2010-08-29T12:57:54Z</time>
<desc>lat.=56.070030, lon.=26.463272, Alt.=112.919006m. Speed=1.800000m/h.</desc>
<speed>0.500000</speed>
</trkpt>
<trkpt lat="56.070030" lon="26.463274">
<ele>112.948303</ele>
<time>2010-08-29T12:57:55Z</time>
<desc>lat.=56.070030, lon.=26.463274, Alt.=112.948303m. Speed=1.620000m/h.</desc>
<speed>0.450000</speed>
</trkpt>
<trkpt lat="56.070026" lon="26.463276">
<ele>112.971741</ele>
<time>2010-08-29T12:57:56Z</time>
<desc>lat.=56.070026, lon.=26.463276, Alt.=112.971741m. Speed=1.476000m/h.</desc>
<speed>0.410000</speed>
</trkpt>
<trkpt lat="56.070015" lon="26.463282">
<ele>112.624084</ele>
<time>2010-08-29T12:57:57Z</time>
<desc>lat.=56.070015, lon.=26.463282, Alt.=112.624084m. Speed=1.584000m/h.</desc>
<speed>0.440000</speed>
</trkpt>
<trkpt lat="56.070011" lon="26.463285">
<ele>112.592834</ele>
<time>2010-08-29T12:57:58Z</time>
<desc>lat.=56.070011, lon.=26.463285, Alt.=112.592834m. Speed=1.980000m/h.</desc>
<speed>0.550000</speed>
</trkpt>
<trkpt lat="56.070000" lon="26.463287">
<ele>112.559631</ele>
<time>2010-08-29T12:57:59Z</time>
<desc>lat.=56.070000, lon.=26.463287, Alt.=112.559631m. Speed=2.808000m/h.</desc>
<speed>0.780000</speed>
</trkpt>
<trkpt lat="56.069984" lon="26.463291">
<ele>112.598694</ele>
<time>2010-08-29T12:58:00Z</time>
<desc>lat.=56.069984, lon.=26.463291, Alt.=112.598694m. Speed=3.204000m/h.</desc>
<speed>0.890000</speed>
</trkpt>
<trkpt lat="56.069981" lon="26.463299">
<ele>112.672913</ele>
<time>2010-08-29T12:58:01Z</time>
<desc>lat.=56.069981, lon.=26.463299, Alt.=112.672913m. Speed=3.096000m/h.</desc>
<speed>0.860000</speed>
</trkpt>
<trkpt lat="56.069988" lon="26.463318">
<ele>112.696350</ele>
<time>2010-08-29T12:58:02Z</time>
<desc>lat.=56.069988, lon.=26.463318, Alt.=112.696350m. Speed=2.952000m/h.</desc>
<speed>0.820000</speed>
</trkpt>
<trkpt lat="56.069977" lon="26.463331">
<ele>112.770569</ele>
<time>2010-08-29T12:58:03Z</time>
<desc>lat.=56.069977, lon.=26.463331, Alt.=112.770569m. Speed=1.908000m/h.</desc>
<speed>0.530000</speed>
</trkpt>
<trkpt lat="56.069973" lon="26.463333">
<ele>112.831116</ele>
<time>2010-08-29T12:58:04Z</time>
<desc>lat.=56.069973, lon.=26.463333, Alt.=112.831116m. Speed=1.728000m/h.</desc>
<speed>0.480000</speed>
</trkpt>
<trkpt lat="56.069981" lon="26.463341">
<ele>112.555725</ele>
<time>2010-08-29T12:58:05Z</time>
<desc>lat.=56.069981, lon.=26.463341, Alt.=112.555725m. Speed=1.044000m/h.</desc>
<speed>0.290000</speed>
</trkpt>
<trkpt lat="56.069977" lon="26.463339">
<ele>112.600647</ele>
<time>2010-08-29T12:58:06Z</time>
<desc>lat.=56.069977, lon.=26.463339, Alt.=112.600647m. Speed=0.864000m/h.</desc>
<speed>0.240000</speed>
</trkpt>
<trkpt lat="56.069981" lon="26.463337">
<ele>112.622131</ele>
<time>2010-08-29T12:58:07Z</time>
<desc>lat.=56.069981, lon.=26.463337, Alt.=112.622131m. Speed=0.648000m/h.</desc>
<speed>0.180000</speed>
</trkpt>
<trkpt lat="56.069981" lon="26.463341">
<ele>112.477600</ele>
<time>2010-08-29T12:58:08Z</time>
<desc>lat.=56.069981, lon.=26.463341, Alt.=112.477600m. Speed=0.684000m/h.</desc>
<speed>0.190000</speed>
</trkpt>
<trkpt lat="56.069977" lon="26.463345">
<ele>112.508850</ele>
<time>2010-08-29T12:58:09Z</time>
<desc>lat.=56.069977, lon.=26.463345, Alt.=112.508850m. Speed=0.612000m/h.</desc>
<speed>0.170000</speed>
</trkpt>
<trkpt lat="56.069977" lon="26.463348">
<ele>112.534241</ele>
<time>2010-08-29T12:58:10Z</time>
<desc>lat.=56.069977, lon.=26.463348, Alt.=112.534241m. Speed=0.396000m/h.</desc>
<speed>0.110000</speed>
</trkpt>
<trkpt lat="56.069977" lon="26.463348">
<ele>112.563538</ele>
<time>2010-08-29T12:58:11Z</time>
<desc>lat.=56.069977, lon.=26.463348, Alt.=112.563538m. Speed=0.036000m/h.</desc>
<speed>0.010000</speed>
</trkpt>
<trkpt lat="56.069977" lon="26.463350">
<ele>112.583069</ele>
<time>2010-08-29T12:58:12Z</time>
<desc>lat.=56.069977, lon.=26.463350, Alt.=112.583069m. Speed=0.216000m/h.</desc>
<speed>0.060000</speed>
</trkpt>
<trkpt lat="56.069977" lon="26.463350">
<ele>112.606506</ele>
<time>2010-08-29T12:58:13Z</time>
<desc>lat.=56.069977, lon.=26.463350, Alt.=112.606506m. Speed=0.144000m/h.</desc>
<speed>0.040000</speed>
</trkpt>
<trkpt lat="56.069977" lon="26.463350">
<ele>112.624084</ele>
<time>2010-08-29T12:58:14Z</time>
<desc>lat.=56.069977, lon.=26.463350, Alt.=112.624084m. Speed=0.288000m/h.</desc>
<speed>0.080000</speed>
</trkpt>
<trkpt lat="56.069977" lon="26.463350">
<ele>112.641663</ele>
<time>2010-08-29T12:58:15Z</time>
<desc>lat.=56.069977, lon.=26.463350, Alt.=112.641663m. Speed=0.396000m/h.</desc>
<speed>0.110000</speed>
</trkpt>
<trkpt lat="56.069977" lon="26.463350">
<ele>112.663147</ele>
<time>2010-08-29T12:58:16Z</time>
<desc>lat.=56.069977, lon.=26.463350, Alt.=112.663147m. Speed=0.396000m/h.</desc>
<speed>0.110000</speed>
</trkpt>
<trkpt lat="56.069973" lon="26.463350">
<ele>112.682678</ele>
<time>2010-08-29T12:58:17Z</time>
<desc>lat.=56.069973, lon.=26.463350, Alt.=112.682678m. Speed=0.360000m/h.</desc>
<speed>0.100000</speed>
</trkpt>
<trkpt lat="56.069973" lon="26.463350">
<ele>112.692444</ele>
<time>2010-08-29T12:58:18Z</time>
<desc>lat.=56.069973, lon.=26.463350, Alt.=112.692444m. Speed=0.504000m/h.</desc>
<speed>0.140000</speed>
</trkpt>
<trkpt lat="56.069973" lon="26.463350">
<ele>112.708069</ele>
<time>2010-08-29T12:58:19Z</time>
<desc>lat.=56.069973, lon.=26.463350, Alt.=112.708069m. Speed=0.648000m/h.</desc>
<speed>0.180000</speed>
</trkpt>
<trkpt lat="56.069969" lon="26.463348">
<ele>112.717834</ele>
<time>2010-08-29T12:58:20Z</time>
<desc>lat.=56.069969, lon.=26.463348, Alt.=112.717834m. Speed=1.332000m/h.</desc>
<speed>0.370000</speed>
</trkpt>
<trkpt lat="56.069962" lon="26.463352">
<ele>112.393616</ele>
<time>2010-08-29T12:58:21Z</time>
<desc>lat.=56.069962, lon.=26.463352, Alt.=112.393616m. Speed=1.440000m/h.</desc>
<speed>0.400000</speed>
</trkpt>
<trkpt lat="56.069962" lon="26.463348">
<ele>112.395569</ele>
<time>2010-08-29T12:58:22Z</time>
<desc>lat.=56.069962, lon.=26.463348, Alt.=112.395569m. Speed=1.080000m/h.</desc>
<speed>0.300000</speed>
</trkpt>
<trkpt lat="56.069962" lon="26.463346">
<ele>112.331116</ele>
<time>2010-08-29T12:58:23Z</time>
<desc>lat.=56.069962, lon.=26.463346, Alt.=112.331116m. Speed=1.188000m/h.</desc>
<speed>0.330000</speed>
</trkpt>
<trkpt lat="56.069958" lon="26.463343">
<ele>112.454163</ele>
<time>2010-08-29T12:58:24Z</time>
<desc>lat.=56.069958, lon.=26.463343, Alt.=112.454163m. Speed=0.756000m/h.</desc>
<speed>0.210000</speed>
</trkpt>
<trkpt lat="56.069950" lon="26.463341">
<ele>112.510803</ele>
<time>2010-08-29T12:58:25Z</time>
<desc>lat.=56.069950, lon.=26.463341, Alt.=112.510803m. Speed=0.504000m/h.</desc>
<speed>0.140000</speed>
</trkpt>
<trkpt lat="56.069950" lon="26.463335">
<ele>112.463928</ele>
<time>2010-08-29T12:58:26Z</time>
<desc>lat.=56.069950, lon.=26.463335, Alt.=112.463928m. Speed=0.756000m/h.</desc>
<speed>0.210000</speed>
</trkpt>
<trkpt lat="56.069946" lon="26.463335">
<ele>112.352600</ele>
<time>2010-08-29T12:58:27Z</time>
<desc>lat.=56.069946, lon.=26.463335, Alt.=112.352600m. Speed=0.612000m/h.</desc>
<speed>0.170000</speed>
</trkpt>
<trkpt lat="56.069946" lon="26.463335">
<ele>112.358459</ele>
<time>2010-08-29T12:58:28Z</time>
<desc>lat.=56.069946, lon.=26.463335, Alt.=112.358459m. Speed=0.108000m/h.</desc>
<speed>0.030000</speed>
</trkpt>
<trkpt lat="56.069946" lon="26.463337">
<ele>112.362366</ele>
<time>2010-08-29T12:58:29Z</time>
<desc>lat.=56.069946, lon.=26.463337, Alt.=112.362366m. Speed=2.628000m/h.</desc>
<speed>0.730000</speed>
</trkpt>
<trkpt lat="56.069962" lon="26.463314">
<ele>112.237366</ele>
<time>2010-08-29T12:58:30Z</time>
<desc>lat.=56.069962, lon.=26.463314, Alt.=112.237366m. Speed=1.296000m/h.</desc>
<speed>0.360000</speed>
</trkpt>
<trkpt lat="56.069962" lon="26.463312">
<ele>112.182678</ele>
<time>2010-08-29T12:58:31Z</time>
<desc>lat.=56.069962, lon.=26.463312, Alt.=112.182678m. Speed=0.684000m/h.</desc>
<speed>0.190000</speed>
</trkpt>
<trkpt lat="56.069965" lon="26.463312">
<ele>112.067444</ele>
<time>2010-08-29T12:58:32Z</time>
<desc>lat.=56.069965, lon.=26.463312, Alt.=112.067444m. Speed=0.108000m/h.</desc>
<speed>0.030000</speed>
</trkpt>
<trkpt lat="56.069965" lon="26.463308">
<ele>111.993225</ele>
<time>2010-08-29T12:58:33Z</time>
<desc>lat.=56.069965, lon.=26.463308, Alt.=111.993225m. Speed=0.324000m/h.</desc>
<speed>0.090000</speed>
</trkpt>
<trkpt lat="56.069954" lon="26.463303">
<ele>111.565491</ele>
<time>2010-08-29T12:58:34Z</time>
<desc>lat.=56.069954, lon.=26.463303, Alt.=111.565491m. Speed=0.936000m/h.</desc>
<speed>0.260000</speed>
</trkpt>
<trkpt lat="56.069954" lon="26.463301">
<ele>111.557678</ele>
<time>2010-08-29T12:58:35Z</time>
<desc>lat.=56.069954, lon.=26.463301, Alt.=111.557678m. Speed=0.468000m/h.</desc>
<speed>0.130000</speed>
</trkpt>
<trkpt lat="56.069950" lon="26.463301">
<ele>111.549866</ele>
<time>2010-08-29T12:58:36Z</time>
<desc>lat.=56.069950, lon.=26.463301, Alt.=111.549866m. Speed=0.540000m/h.</desc>
<speed>0.150000</speed>
</trkpt>
<trkpt lat="56.069950" lon="26.463303">
<ele>111.551819</ele>
<time>2010-08-29T12:58:37Z</time>
<desc>lat.=56.069950, lon.=26.463303, Alt.=111.551819m. Speed=0.576000m/h.</desc>
<speed>0.160000</speed>
</trkpt>
<trkpt lat="56.069950" lon="26.463303">
<ele>111.555725</ele>
<time>2010-08-29T12:58:38Z</time>
<desc>lat.=56.069950, lon.=26.463303, Alt.=111.555725m. Speed=0.648000m/h.</desc>
<speed>0.180000</speed>
</trkpt>
<trkpt lat="56.069946" lon="26.463303">
<ele>111.559631</ele>
<time>2010-08-29T12:58:39Z</time>
<desc>lat.=56.069946, lon.=26.463303, Alt.=111.559631m. Speed=0.396000m/h.</desc>
<speed>0.110000</speed>
</trkpt>
<trkpt lat="56.069946" lon="26.463301">
<ele>111.565491</ele>
<time>2010-08-29T12:58:40Z</time>
<desc>lat.=56.069946, lon.=26.463301, Alt.=111.565491m. Speed=0.252000m/h.</desc>
<speed>0.070000</speed>
</trkpt>
<trkpt lat="56.069946" lon="26.463301">
<ele>111.575256</ele>
<time>2010-08-29T12:58:41Z</time>
<desc>lat.=56.069946, lon.=26.463301, Alt.=111.575256m. Speed=1.656000m/h.</desc>
<speed>0.460000</speed>
</trkpt>
<trkpt lat="56.069942" lon="26.463301">
<ele>111.555725</ele>
<time>2010-08-29T12:58:42Z</time>
<desc>lat.=56.069942, lon.=26.463301, Alt.=111.555725m. Speed=0.792000m/h.</desc>
<speed>0.220000</speed>
</trkpt>
<trkpt lat="56.069935" lon="26.463297">
<ele>110.887756</ele>
<time>2010-08-29T12:58:43Z</time>
<desc>lat.=56.069935, lon.=26.463297, Alt.=110.887756m. Speed=1.080000m/h.</desc>
<speed>0.300000</speed>
</trkpt>
<trkpt lat="56.069931" lon="26.463299">
<ele>110.836975</ele>
<time>2010-08-29T12:58:44Z</time>
<desc>lat.=56.069931, lon.=26.463299, Alt.=110.836975m. Speed=1.044000m/h.</desc>
<speed>0.290000</speed>
</trkpt>
<trkpt lat="56.069923" lon="26.463299">
<ele>110.835022</ele>
<time>2010-08-29T12:58:45Z</time>
<desc>lat.=56.069923, lon.=26.463299, Alt.=110.835022m. Speed=1.332000m/h.</desc>
<speed>0.370000</speed>
</trkpt>
<trkpt lat="56.069916" lon="26.463308">
<ele>110.799866</ele>
<time>2010-08-29T12:58:46Z</time>
<desc>lat.=56.069916, lon.=26.463308, Alt.=110.799866m. Speed=1.656000m/h.</desc>
<speed>0.460000</speed>
</trkpt>
<trkpt lat="56.069897" lon="26.463327">
<ele>110.788147</ele>
<time>2010-08-29T12:58:47Z</time>
<desc>lat.=56.069897, lon.=26.463327, Alt.=110.788147m. Speed=2.592000m/h.</desc>
<speed>0.720000</speed>
</trkpt>
<trkpt lat="56.069885" lon="26.463333">
<ele>110.729553</ele>
<time>2010-08-29T12:58:48Z</time>
<desc>lat.=56.069885, lon.=26.463333, Alt.=110.729553m. Speed=2.988000m/h.</desc>
<speed>0.830000</speed>
</trkpt>
<trkpt lat="56.069878" lon="26.463335">
<ele>110.739319</ele>
<time>2010-08-29T12:58:49Z</time>
<desc>lat.=56.069878, lon.=26.463335, Alt.=110.739319m. Speed=2.628000m/h.</desc>
<speed>0.730000</speed>
</trkpt>
<trkpt lat="56.069847" lon="26.463371">
<ele>110.360413</ele>
<time>2010-08-29T12:58:50Z</time>
<desc>lat.=56.069847, lon.=26.463371, Alt.=110.360413m. Speed=3.564000m/h.</desc>
<speed>0.990000</speed>
</trkpt>
<trkpt lat="56.069836" lon="26.463377">
<ele>109.831116</ele>
<time>2010-08-29T12:58:51Z</time>
<desc>lat.=56.069836, lon.=26.463377, Alt.=109.831116m. Speed=3.168000m/h.</desc>
<speed>0.880000</speed>
</trkpt>
<trkpt lat="56.069820" lon="26.463379">
<ele>109.934631</ele>
<time>2010-08-29T12:58:52Z</time>
<desc>lat.=56.069820, lon.=26.463379, Alt.=109.934631m. Speed=2.160000m/h.</desc>
<speed>0.600000</speed>
</trkpt>
<trkpt lat="56.069805" lon="26.463387">
<ele>109.792053</ele>
<time>2010-08-29T12:58:53Z</time>
<desc>lat.=56.069805, lon.=26.463387, Alt.=109.792053m. Speed=1.656000m/h.</desc>
<speed>0.460000</speed>
</trkpt>
<trkpt lat="56.069786" lon="26.463383">
<ele>110.026428</ele>
<time>2010-08-29T12:58:54Z</time>
<desc>lat.=56.069786, lon.=26.463383, Alt.=110.026428m. Speed=1.404000m/h.</desc>
<speed>0.390000</speed>
</trkpt>
<trkpt lat="56.069771" lon="26.463375">
<ele>110.247131</ele>
<time>2010-08-29T12:58:55Z</time>
<desc>lat.=56.069771, lon.=26.463375, Alt.=110.247131m. Speed=1.584000m/h.</desc>
<speed>0.440000</speed>
</trkpt>
<trkpt lat="56.069759" lon="26.463366">
<ele>110.471741</ele>
<time>2010-08-29T12:58:56Z</time>
<desc>lat.=56.069759, lon.=26.463366, Alt.=110.471741m. Speed=1.368000m/h.</desc>
<speed>0.380000</speed>
</trkpt>
<trkpt lat="56.069756" lon="26.463362">
<ele>110.485413</ele>
<time>2010-08-29T12:58:57Z</time>
<desc>lat.=56.069756, lon.=26.463362, Alt.=110.485413m. Speed=1.332000m/h.</desc>
<speed>0.370000</speed>
</trkpt>
<trkpt lat="56.069752" lon="26.463354">
<ele>110.555725</ele>
<time>2010-08-29T12:58:58Z</time>
<desc>lat.=56.069752, lon.=26.463354, Alt.=110.555725m. Speed=1.512000m/h.</desc>
<speed>0.420000</speed>
</trkpt>
<trkpt lat="56.069752" lon="26.463343">
<ele>110.530334</ele>
<time>2010-08-29T12:58:59Z</time>
<desc>lat.=56.069752, lon.=26.463343, Alt.=110.530334m. Speed=1.332000m/h.</desc>
<speed>0.370000</speed>
</trkpt>
<trkpt lat="56.069756" lon="26.463327">
<ele>110.467834</ele>
<time>2010-08-29T12:59:00Z</time>
<desc>lat.=56.069756, lon.=26.463327, Alt.=110.467834m. Speed=1.476000m/h.</desc>
<speed>0.410000</speed>
</trkpt>
<trkpt lat="56.069763" lon="26.463326">
<ele>110.325256</ele>
<time>2010-08-29T12:59:01Z</time>
<desc>lat.=56.069763, lon.=26.463326, Alt.=110.325256m. Speed=0.864000m/h.</desc>
<speed>0.240000</speed>
</trkpt>
<trkpt lat="56.069763" lon="26.463324">
<ele>110.245178</ele>
<time>2010-08-29T12:59:02Z</time>
<desc>lat.=56.069763, lon.=26.463324, Alt.=110.245178m. Speed=0.792000m/h.</desc>
<speed>0.220000</speed>
</trkpt>
<trkpt lat="56.069771" lon="26.463312">
<ele>110.192444</ele>
<time>2010-08-29T12:59:03Z</time>
<desc>lat.=56.069771, lon.=26.463312, Alt.=110.192444m. Speed=0.684000m/h.</desc>
<speed>0.190000</speed>
</trkpt>
<trkpt lat="56.069782" lon="26.463303">
<ele>110.292053</ele>
<time>2010-08-29T12:59:04Z</time>
<desc>lat.=56.069782, lon.=26.463303, Alt.=110.292053m. Speed=0.720000m/h.</desc>
<speed>0.200000</speed>
</trkpt>
<trkpt lat="56.069782" lon="26.463299">
<ele>110.307678</ele>
<time>2010-08-29T12:59:05Z</time>
<desc>lat.=56.069782, lon.=26.463299, Alt.=110.307678m. Speed=0.360000m/h.</desc>
<speed>0.100000</speed>
</trkpt>
<trkpt lat="56.069782" lon="26.463297">
<ele>110.319397</ele>
<time>2010-08-29T12:59:06Z</time>
<desc>lat.=56.069782, lon.=26.463297, Alt.=110.319397m. Speed=0.252000m/h.</desc>
<speed>0.070000</speed>
</trkpt>
<trkpt lat="56.069782" lon="26.463297">
<ele>110.327209</ele>
<time>2010-08-29T12:59:07Z</time>
<desc>lat.=56.069782, lon.=26.463297, Alt.=110.327209m. Speed=0.216000m/h.</desc>
<speed>0.060000</speed>
</trkpt>
<trkpt lat="56.069782" lon="26.463297">
<ele>110.336975</ele>
<time>2010-08-29T12:59:08Z</time>
<desc>lat.=56.069782, lon.=26.463297, Alt.=110.336975m. Speed=0.216000m/h.</desc>
<speed>0.060000</speed>
</trkpt>
<trkpt lat="56.069782" lon="26.463297">
<ele>110.348694</ele>
<time>2010-08-29T12:59:09Z</time>
<desc>lat.=56.069782, lon.=26.463297, Alt.=110.348694m. Speed=0.360000m/h.</desc>
<speed>0.100000</speed>
</trkpt>
<trkpt lat="56.069786" lon="26.463297">
<ele>110.358459</ele>
<time>2010-08-29T12:59:10Z</time>
<desc>lat.=56.069786, lon.=26.463297, Alt.=110.358459m. Speed=0.576000m/h.</desc>
<speed>0.160000</speed>
</trkpt>
<trkpt lat="56.069786" lon="26.463297">
<ele>110.372131</ele>
<time>2010-08-29T12:59:11Z</time>
<desc>lat.=56.069786, lon.=26.463297, Alt.=110.372131m. Speed=0.468000m/h.</desc>
<speed>0.130000</speed>
</trkpt>
<trkpt lat="56.069786" lon="26.463295">
<ele>110.387756</ele>
<time>2010-08-29T12:59:12Z</time>
<desc>lat.=56.069786, lon.=26.463295, Alt.=110.387756m. Speed=0.468000m/h.</desc>
<speed>0.130000</speed>
</trkpt>
<trkpt lat="56.069790" lon="26.463295">
<ele>110.407288</ele>
<time>2010-08-29T12:59:13Z</time>
<desc>lat.=56.069790, lon.=26.463295, Alt.=110.407288m. Speed=0.072000m/h.</desc>
<speed>0.020000</speed>
</trkpt>
<trkpt lat="56.069790" lon="26.463295">
<ele>110.426819</ele>
<time>2010-08-29T12:59:14Z</time>
<desc>lat.=56.069790, lon.=26.463295, Alt.=110.426819m. Speed=0.288000m/h.</desc>
<speed>0.080000</speed>
</trkpt>
<trkpt lat="56.069790" lon="26.463297">
<ele>110.446350</ele>
<time>2010-08-29T12:59:15Z</time>
<desc>lat.=56.069790, lon.=26.463297, Alt.=110.446350m. Speed=0.360000m/h.</desc>
<speed>0.100000</speed>
</trkpt>
<trkpt lat="56.069790" lon="26.463297">
<ele>110.465881</ele>
<time>2010-08-29T12:59:16Z</time>
<desc>lat.=56.069790, lon.=26.463297, Alt.=110.465881m. Speed=0.612000m/h.</desc>
<speed>0.170000</speed>
</trkpt>
<trkpt lat="56.069790" lon="26.463301">
<ele>110.485413</ele>
<time>2010-08-29T12:59:17Z</time>
<desc>lat.=56.069790, lon.=26.463301, Alt.=110.485413m. Speed=0.936000m/h.</desc>
<speed>0.260000</speed>
</trkpt>
<trkpt lat="56.069794" lon="26.463303">
<ele>110.504944</ele>
<time>2010-08-29T12:59:18Z</time>
<desc>lat.=56.069794, lon.=26.463303, Alt.=110.504944m. Speed=1.692000m/h.</desc>
<speed>0.470000</speed>
</trkpt>
<trkpt lat="56.069809" lon="26.463301">
<ele>110.499084</ele>
<time>2010-08-29T12:59:19Z</time>
<desc>lat.=56.069809, lon.=26.463301, Alt.=110.499084m. Speed=1.980000m/h.</desc>
<speed>0.550000</speed>
</trkpt>
<trkpt lat="56.069832" lon="26.463329">
<ele>110.243225</ele>
<time>2010-08-29T12:59:20Z</time>
<desc>lat.=56.069832, lon.=26.463329, Alt.=110.243225m. Speed=1.764000m/h.</desc>
<speed>0.490000</speed>
</trkpt>
<trkpt lat="56.069839" lon="26.463327">
<ele>109.813538</ele>
<time>2010-08-29T12:59:21Z</time>
<desc>lat.=56.069839, lon.=26.463327, Alt.=109.813538m. Speed=1.368000m/h.</desc>
<speed>0.380000</speed>
</trkpt>
<trkpt lat="56.069839" lon="26.463322">
<ele>110.006897</ele>
<time>2010-08-29T12:59:22Z</time>
<desc>lat.=56.069839, lon.=26.463322, Alt.=110.006897m. Speed=1.260000m/h.</desc>
<speed>0.350000</speed>
</trkpt>
<trkpt lat="56.069847" lon="26.463322">
<ele>109.936584</ele>
<time>2010-08-29T12:59:23Z</time>
<desc>lat.=56.069847, lon.=26.463322, Alt.=109.936584m. Speed=1.296000m/h.</desc>
<speed>0.360000</speed>
</trkpt>
<trkpt lat="56.069847" lon="26.463312">
<ele>109.956116</ele>
<time>2010-08-29T12:59:24Z</time>
<desc>lat.=56.069847, lon.=26.463312, Alt.=109.956116m. Speed=1.512000m/h.</desc>
<speed>0.420000</speed>
</trkpt>
<trkpt lat="56.069847" lon="26.463297">
<ele>109.764709</ele>
<time>2010-08-29T12:59:25Z</time>
<desc>lat.=56.069847, lon.=26.463297, Alt.=109.764709m. Speed=1.188000m/h.</desc>
<speed>0.330000</speed>
</trkpt>
<trkpt lat="56.069843" lon="26.463289">
<ele>109.790100</ele>
<time>2010-08-29T12:59:26Z</time>
<desc>lat.=56.069843, lon.=26.463289, Alt.=109.790100m. Speed=1.008000m/h.</desc>
<speed>0.280000</speed>
</trkpt>
<trkpt lat="56.069843" lon="26.463284">
<ele>109.836975</ele>
<time>2010-08-29T12:59:27Z</time>
<desc>lat.=56.069843, lon.=26.463284, Alt.=109.836975m. Speed=0.468000m/h.</desc>
<speed>0.130000</speed>
</trkpt>
<trkpt lat="56.069839" lon="26.463284">
<ele>109.893616</ele>
<time>2010-08-29T12:59:28Z</time>
<desc>lat.=56.069839, lon.=26.463284, Alt.=109.893616m. Speed=0.288000m/h.</desc>
<speed>0.080000</speed>
</trkpt>
<trkpt lat="56.069847" lon="26.463278">
<ele>109.877991</ele>
<time>2010-08-29T12:59:29Z</time>
<desc>lat.=56.069847, lon.=26.463278, Alt.=109.877991m. Speed=0.648000m/h.</desc>
<speed>0.180000</speed>
</trkpt>
<trkpt lat="56.069847" lon="26.463274">
<ele>109.919006</ele>
<time>2010-08-29T12:59:30Z</time>
<desc>lat.=56.069847, lon.=26.463274, Alt.=109.919006m. Speed=0.720000m/h.</desc>
<speed>0.200000</speed>
</trkpt>
<trkpt lat="56.069847" lon="26.463270">
<ele>109.960022</ele>
<time>2010-08-29T12:59:31Z</time>
<desc>lat.=56.069847, lon.=26.463270, Alt.=109.960022m. Speed=0.828000m/h.</desc>
<speed>0.230000</speed>
</trkpt>
<trkpt lat="56.069847" lon="26.463266">
<ele>109.989319</ele>
<time>2010-08-29T12:59:32Z</time>
<desc>lat.=56.069847, lon.=26.463266, Alt.=109.989319m. Speed=0.720000m/h.</desc>
<speed>0.200000</speed>
</trkpt>
<trkpt lat="56.069847" lon="26.463264">
<ele>110.016663</ele>
<time>2010-08-29T12:59:33Z</time>
<desc>lat.=56.069847, lon.=26.463264, Alt.=110.016663m. Speed=1.008000m/h.</desc>
<speed>0.280000</speed>
</trkpt>
<trkpt lat="56.069847" lon="26.463261">
<ele>110.051819</ele>
<time>2010-08-29T12:59:34Z</time>
<desc>lat.=56.069847, lon.=26.463261, Alt.=110.051819m. Speed=1.080000m/h.</desc>
<speed>0.300000</speed>
</trkpt>
<trkpt lat="56.069839" lon="26.463255">
<ele>110.085022</ele>
<time>2010-08-29T12:59:35Z</time>
<desc>lat.=56.069839, lon.=26.463255, Alt.=110.085022m. Speed=1.548000m/h.</desc>
<speed>0.430000</speed>
</trkpt>
<trkpt lat="56.069836" lon="26.463259">
<ele>110.124084</ele>
<time>2010-08-29T12:59:36Z</time>
<desc>lat.=56.069836, lon.=26.463259, Alt.=110.124084m. Speed=1.692000m/h.</desc>
<speed>0.470000</speed>
</trkpt>
<trkpt lat="56.069832" lon="26.463253">
<ele>110.026428</ele>
<time>2010-08-29T12:59:37Z</time>
<desc>lat.=56.069832, lon.=26.463253, Alt.=110.026428m. Speed=1.548000m/h.</desc>
<speed>0.430000</speed>
</trkpt>
<trkpt lat="56.069836" lon="26.463243">
<ele>110.061584</ele>
<time>2010-08-29T12:59:38Z</time>
<desc>lat.=56.069836, lon.=26.463243, Alt.=110.061584m. Speed=1.440000m/h.</desc>
<speed>0.400000</speed>
</trkpt>
<trkpt lat="56.069847" lon="26.463226">
<ele>110.098694</ele>
<time>2010-08-29T12:59:39Z</time>
<desc>lat.=56.069847, lon.=26.463226, Alt.=110.098694m. Speed=1.188000m/h.</desc>
<speed>0.330000</speed>
</trkpt>
<trkpt lat="56.069847" lon="26.463223">
<ele>110.227600</ele>
<time>2010-08-29T12:59:40Z</time>
<desc>lat.=56.069847, lon.=26.463223, Alt.=110.227600m. Speed=0.396000m/h.</desc>
<speed>0.110000</speed>
</trkpt>
<trkpt lat="56.069847" lon="26.463215">
<ele>110.155334</ele>
<time>2010-08-29T12:59:41Z</time>
<desc>lat.=56.069847, lon.=26.463215, Alt.=110.155334m. Speed=0.180000m/h.</desc>
<speed>0.050000</speed>
</trkpt>
<trkpt lat="56.069851" lon="26.463215">
<ele>110.211975</ele>
<time>2010-08-29T12:59:42Z</time>
<desc>lat.=56.069851, lon.=26.463215, Alt.=110.211975m. Speed=0.108000m/h.</desc>
<speed>0.030000</speed>
</trkpt>
<trkpt lat="56.069843" lon="26.463205">
<ele>110.012756</ele>
<time>2010-08-29T12:59:43Z</time>
<desc>lat.=56.069843, lon.=26.463205, Alt.=110.012756m. Speed=0.144000m/h.</desc>
<speed>0.040000</speed>
</trkpt>
<trkpt lat="56.069843" lon="26.463205">
<ele>110.038147</ele>
<time>2010-08-29T12:59:44Z</time>
<desc>lat.=56.069843, lon.=26.463205, Alt.=110.038147m. Speed=0.612000m/h.</desc>
<speed>0.170000</speed>
</trkpt>
<trkpt lat="56.069843" lon="26.463205">
<ele>110.065491</ele>
<time>2010-08-29T12:59:45Z</time>
<desc>lat.=56.069843, lon.=26.463205, Alt.=110.065491m. Speed=0.432000m/h.</desc>
<speed>0.120000</speed>
</trkpt>
<trkpt lat="56.069839" lon="26.463203">
<ele>110.085022</ele>
<time>2010-08-29T12:59:46Z</time>
<desc>lat.=56.069839, lon.=26.463203, Alt.=110.085022m. Speed=0.540000m/h.</desc>
<speed>0.150000</speed>
</trkpt>
<trkpt lat="56.069839" lon="26.463202">
<ele>110.106506</ele>
<time>2010-08-29T12:59:47Z</time>
<desc>lat.=56.069839, lon.=26.463202, Alt.=110.106506m. Speed=0.720000m/h.</desc>
<speed>0.200000</speed>
</trkpt>
<trkpt lat="56.069839" lon="26.463202">
<ele>110.120178</ele>
<time>2010-08-29T12:59:48Z</time>
<desc>lat.=56.069839, lon.=26.463202, Alt.=110.120178m. Speed=0.432000m/h.</desc>
<speed>0.120000</speed>
</trkpt>
<trkpt lat="56.069836" lon="26.463200">
<ele>110.135803</ele>
<time>2010-08-29T12:59:49Z</time>
<desc>lat.=56.069836, lon.=26.463200, Alt.=110.135803m. Speed=0.252000m/h.</desc>
<speed>0.070000</speed>
</trkpt>
<trkpt lat="56.069836" lon="26.463200">
<ele>110.141663</ele>
<time>2010-08-29T12:59:50Z</time>
<desc>lat.=56.069836, lon.=26.463200, Alt.=110.141663m. Speed=0.324000m/h.</desc>
<speed>0.090000</speed>
</trkpt>
<trkpt lat="56.069836" lon="26.463200">
<ele>110.149475</ele>
<time>2010-08-29T12:59:51Z</time>
<desc>lat.=56.069836, lon.=26.463200, Alt.=110.149475m. Speed=0.108000m/h.</desc>
<speed>0.030000</speed>
</trkpt>
<trkpt lat="56.069836" lon="26.463200">
<ele>110.165100</ele>
<time>2010-08-29T12:59:52Z</time>
<desc>lat.=56.069836, lon.=26.463200, Alt.=110.165100m. Speed=0.144000m/h.</desc>
<speed>0.040000</speed>
</trkpt>
<trkpt lat="56.069836" lon="26.463200">
<ele>110.192444</ele>
<time>2010-08-29T12:59:53Z</time>
<desc>lat.=56.069836, lon.=26.463200, Alt.=110.192444m. Speed=0.540000m/h.</desc>
<speed>0.150000</speed>
</trkpt>
<trkpt lat="56.069836" lon="26.463198">
<ele>110.196350</ele>
<time>2010-08-29T12:59:54Z</time>
<desc>lat.=56.069836, lon.=26.463198, Alt.=110.196350m. Speed=0.504000m/h.</desc>
<speed>0.140000</speed>
</trkpt>
<trkpt lat="56.069832" lon="26.463196">
<ele>110.198303</ele>
<time>2010-08-29T12:59:55Z</time>
<desc>lat.=56.069832, lon.=26.463196, Alt.=110.198303m. Speed=0.504000m/h.</desc>
<speed>0.140000</speed>
</trkpt>
<trkpt lat="56.069832" lon="26.463194">
<ele>110.200256</ele>
<time>2010-08-29T12:59:56Z</time>
<desc>lat.=56.069832, lon.=26.463194, Alt.=110.200256m. Speed=0.468000m/h.</desc>
<speed>0.130000</speed>
</trkpt>
<trkpt lat="56.069832" lon="26.463194">
<ele>110.202209</ele>
<time>2010-08-29T12:59:57Z</time>
<desc>lat.=56.069832, lon.=26.463194, Alt.=110.202209m. Speed=0.324000m/h.</desc>
<speed>0.090000</speed>
</trkpt>
<trkpt lat="56.069832" lon="26.463192">
<ele>110.204163</ele>
<time>2010-08-29T12:59:58Z</time>
<desc>lat.=56.069832, lon.=26.463192, Alt.=110.204163m. Speed=0.324000m/h.</desc>
<speed>0.090000</speed>
</trkpt>
<trkpt lat="56.069828" lon="26.463192">
<ele>110.206116</ele>
<time>2010-08-29T12:59:59Z</time>
<desc>lat.=56.069828, lon.=26.463192, Alt.=110.206116m. Speed=0.540000m/h.</desc>
<speed>0.150000</speed>
</trkpt>
<trkpt lat="56.069828" lon="26.463190">
<ele>110.210022</ele>
<time>2010-08-29T13:00:00Z</time>
<desc>lat.=56.069828, lon.=26.463190, Alt.=110.210022m. Speed=0.684000m/h.</desc>
<speed>0.190000</speed>
</trkpt>
<trkpt lat="56.069828" lon="26.463186">
<ele>110.213928</ele>
<time>2010-08-29T13:00:01Z</time>
<desc>lat.=56.069828, lon.=26.463186, Alt.=110.213928m. Speed=0.540000m/h.</desc>
<speed>0.150000</speed>
</trkpt>
<trkpt lat="56.069828" lon="26.463184">
<ele>110.219788</ele>
<time>2010-08-29T13:00:02Z</time>
<desc>lat.=56.069828, lon.=26.463184, Alt.=110.219788m. Speed=0.648000m/h.</desc>
<speed>0.180000</speed>
</trkpt>
<trkpt lat="56.069828" lon="26.463182">
<ele>110.225647</ele>
<time>2010-08-29T13:00:03Z</time>
<desc>lat.=56.069828, lon.=26.463182, Alt.=110.225647m. Speed=0.900000m/h.</desc>
<speed>0.250000</speed>
</trkpt>
<trkpt lat="56.069824" lon="26.463179">
<ele>110.233459</ele>
<time>2010-08-29T13:00:04Z</time>
<desc>lat.=56.069824, lon.=26.463179, Alt.=110.233459m. Speed=0.828000m/h.</desc>
<speed>0.230000</speed>
</trkpt>
<trkpt lat="56.069824" lon="26.463175">
<ele>110.243225</ele>
<time>2010-08-29T13:00:05Z</time>
<desc>lat.=56.069824, lon.=26.463175, Alt.=110.243225m. Speed=0.792000m/h.</desc>
<speed>0.220000</speed>
</trkpt>
<trkpt lat="56.069824" lon="26.463173">
<ele>110.270569</ele>
<time>2010-08-29T13:00:06Z</time>
<desc>lat.=56.069824, lon.=26.463173, Alt.=110.270569m. Speed=0.468000m/h.</desc>
<speed>0.130000</speed>
</trkpt>
<trkpt lat="56.069824" lon="26.463175">
<ele>110.309631</ele>
<time>2010-08-29T13:00:07Z</time>
<desc>lat.=56.069824, lon.=26.463175, Alt.=110.309631m. Speed=0.432000m/h.</desc>
<speed>0.120000</speed>
</trkpt>
<trkpt lat="56.069820" lon="26.463175">
<ele>110.342834</ele>
<time>2010-08-29T13:00:08Z</time>
<desc>lat.=56.069820, lon.=26.463175, Alt.=110.342834m. Speed=0.576000m/h.</desc>
<speed>0.160000</speed>
</trkpt>
<trkpt lat="56.069824" lon="26.463179">
<ele>110.350647</ele>
<time>2010-08-29T13:00:09Z</time>
<desc>lat.=56.069824, lon.=26.463179, Alt.=110.350647m. Speed=0.720000m/h.</desc>
<speed>0.200000</speed>
</trkpt>
<trkpt lat="56.069824" lon="26.463181">
<ele>110.360413</ele>
<time>2010-08-29T13:00:10Z</time>
<desc>lat.=56.069824, lon.=26.463181, Alt.=110.360413m. Speed=0.792000m/h.</desc>
<speed>0.220000</speed>
</trkpt>
<trkpt lat="56.069824" lon="26.463184">
<ele>110.370178</ele>
<time>2010-08-29T13:00:11Z</time>
<desc>lat.=56.069824, lon.=26.463184, Alt.=110.370178m. Speed=0.684000m/h.</desc>
<speed>0.190000</speed>
</trkpt>
<trkpt lat="56.069824" lon="26.463188">
<ele>110.377991</ele>
<time>2010-08-29T13:00:12Z</time>
<desc>lat.=56.069824, lon.=26.463188, Alt.=110.377991m. Speed=0.324000m/h.</desc>
<speed>0.090000</speed>
</trkpt>
<trkpt lat="56.069824" lon="26.463190">
<ele>110.385803</ele>
<time>2010-08-29T13:00:13Z</time>
<desc>lat.=56.069824, lon.=26.463190, Alt.=110.385803m. Speed=0.144000m/h.</desc>
<speed>0.040000</speed>
</trkpt>
<trkpt lat="56.069824" lon="26.463190">
<ele>110.403381</ele>
<time>2010-08-29T13:00:14Z</time>
<desc>lat.=56.069824, lon.=26.463190, Alt.=110.403381m. Speed=0.360000m/h.</desc>
<speed>0.100000</speed>
</trkpt>
<trkpt lat="56.069824" lon="26.463188">
<ele>110.438538</ele>
<time>2010-08-29T13:00:15Z</time>
<desc>lat.=56.069824, lon.=26.463188, Alt.=110.438538m. Speed=1.692000m/h.</desc>
<speed>0.470000</speed>
</trkpt>
<trkpt lat="56.069801" lon="26.463207">
<ele>110.471741</ele>
<time>2010-08-29T13:00:16Z</time>
<desc>lat.=56.069801, lon.=26.463207, Alt.=110.471741m. Speed=3.744000m/h.</desc>
<speed>1.040000</speed>
</trkpt>
<trkpt lat="56.069790" lon="26.463217">
<ele>110.524475</ele>
<time>2010-08-29T13:00:17Z</time>
<desc>lat.=56.069790, lon.=26.463217, Alt.=110.524475m. Speed=3.744000m/h.</desc>
<speed>1.040000</speed>
</trkpt>
<trkpt lat="56.069778" lon="26.463228">
<ele>110.555725</ele>
<time>2010-08-29T13:00:18Z</time>
<desc>lat.=56.069778, lon.=26.463228, Alt.=110.555725m. Speed=3.456000m/h.</desc>
<speed>0.960000</speed>
</trkpt>
<trkpt lat="56.069775" lon="26.463236">
<ele>110.581116</ele>
<time>2010-08-29T13:00:19Z</time>
<desc>lat.=56.069775, lon.=26.463236, Alt.=110.581116m. Speed=3.312000m/h.</desc>
<speed>0.920000</speed>
</trkpt>
<trkpt lat="56.069767" lon="26.463240">
<ele>110.653381</ele>
<time>2010-08-29T13:00:20Z</time>
<desc>lat.=56.069767, lon.=26.463240, Alt.=110.653381m. Speed=1.944000m/h.</desc>
<speed>0.540000</speed>
</trkpt>
<trkpt lat="56.069763" lon="26.463249">
<ele>110.715881</ele>
<time>2010-08-29T13:00:21Z</time>
<desc>lat.=56.069763, lon.=26.463249, Alt.=110.715881m. Speed=1.476000m/h.</desc>
<speed>0.410000</speed>
</trkpt>
<trkpt lat="56.069759" lon="26.463253">
<ele>110.719788</ele>
<time>2010-08-29T13:00:22Z</time>
<desc>lat.=56.069759, lon.=26.463253, Alt.=110.719788m. Speed=2.196000m/h.</desc>
<speed>0.610000</speed>
</trkpt>
<trkpt lat="56.069748" lon="26.463259">
<ele>110.737366</ele>
<time>2010-08-29T13:00:23Z</time>
<desc>lat.=56.069748, lon.=26.463259, Alt.=110.737366m. Speed=2.448000m/h.</desc>
<speed>0.680000</speed>
</trkpt>
<trkpt lat="56.069744" lon="26.463264">
<ele>110.792053</ele>
<time>2010-08-29T13:00:24Z</time>
<desc>lat.=56.069744, lon.=26.463264, Alt.=110.792053m. Speed=2.448000m/h.</desc>
<speed>0.680000</speed>
</trkpt>
<trkpt lat="56.069740" lon="26.463270">
<ele>110.872131</ele>
<time>2010-08-29T13:00:25Z</time>
<desc>lat.=56.069740, lon.=26.463270, Alt.=110.872131m. Speed=2.196000m/h.</desc>
<speed>0.610000</speed>
</trkpt>
<trkpt lat="56.069736" lon="26.463274">
<ele>110.915100</ele>
<time>2010-08-29T13:00:26Z</time>
<desc>lat.=56.069736, lon.=26.463274, Alt.=110.915100m. Speed=2.052000m/h.</desc>
<speed>0.570000</speed>
</trkpt>
<trkpt lat="56.069736" lon="26.463280">
<ele>110.989319</ele>
<time>2010-08-29T13:00:27Z</time>
<desc>lat.=56.069736, lon.=26.463280, Alt.=110.989319m. Speed=1.908000m/h.</desc>
<speed>0.530000</speed>
</trkpt>
<trkpt lat="56.069733" lon="26.463284">
<ele>111.067444</ele>
<time>2010-08-29T13:00:28Z</time>
<desc>lat.=56.069733, lon.=26.463284, Alt.=111.067444m. Speed=1.980000m/h.</desc>
<speed>0.550000</speed>
</trkpt>
<trkpt lat="56.069729" lon="26.463287">
<ele>111.155334</ele>
<time>2010-08-29T13:00:29Z</time>
<desc>lat.=56.069729, lon.=26.463287, Alt.=111.155334m. Speed=1.872000m/h.</desc>
<speed>0.520000</speed>
</trkpt>
<trkpt lat="56.069729" lon="26.463299">
<ele>111.219788</ele>
<time>2010-08-29T13:00:30Z</time>
<desc>lat.=56.069729, lon.=26.463299, Alt.=111.219788m. Speed=2.088000m/h.</desc>
<speed>0.580000</speed>
</trkpt>
<trkpt lat="56.069729" lon="26.463299">
<ele>111.288147</ele>
<time>2010-08-29T13:00:31Z</time>
<desc>lat.=56.069729, lon.=26.463299, Alt.=111.288147m. Speed=1.548000m/h.</desc>
<speed>0.430000</speed>
</trkpt>
<trkpt lat="56.069725" lon="26.463301">
<ele>111.366272</ele>
<time>2010-08-29T13:00:32Z</time>
<desc>lat.=56.069725, lon.=26.463301, Alt.=111.366272m. Speed=1.404000m/h.</desc>
<speed>0.390000</speed>
</trkpt>
<trkpt lat="56.069714" lon="26.463303">
<ele>111.493225</ele>
<time>2010-08-29T13:00:33Z</time>
<desc>lat.=56.069714, lon.=26.463303, Alt.=111.493225m. Speed=1.152000m/h.</desc>
<speed>0.320000</speed>
</trkpt>
<trkpt lat="56.069717" lon="26.463299">
<ele>111.553772</ele>
<time>2010-08-29T13:00:34Z</time>
<desc>lat.=56.069717, lon.=26.463299, Alt.=111.553772m. Speed=0.612000m/h.</desc>
<speed>0.170000</speed>
</trkpt>
<trkpt lat="56.069714" lon="26.463297">
<ele>111.512756</ele>
<time>2010-08-29T13:00:35Z</time>
<desc>lat.=56.069714, lon.=26.463297, Alt.=111.512756m. Speed=0.252000m/h.</desc>
<speed>0.070000</speed>
</trkpt>
<trkpt lat="56.069710" lon="26.463291">
<ele>111.514709</ele>
<time>2010-08-29T13:00:36Z</time>
<desc>lat.=56.069710, lon.=26.463291, Alt.=111.514709m. Speed=0.144000m/h.</desc>
<speed>0.040000</speed>
</trkpt>
<trkpt lat="56.069698" lon="26.463289">
<ele>111.458069</ele>
<time>2010-08-29T13:00:37Z</time>
<desc>lat.=56.069698, lon.=26.463289, Alt.=111.458069m. Speed=0.324000m/h.</desc>
<speed>0.090000</speed>
</trkpt>
<trkpt lat="56.069698" lon="26.463291">
<ele>111.510803</ele>
<time>2010-08-29T13:00:38Z</time>
<desc>lat.=56.069698, lon.=26.463291, Alt.=111.510803m. Speed=0.900000m/h.</desc>
<speed>0.250000</speed>
</trkpt>
<trkpt lat="56.069695" lon="26.463289">
<ele>111.585022</ele>
<time>2010-08-29T13:00:39Z</time>
<desc>lat.=56.069695, lon.=26.463289, Alt.=111.585022m. Speed=0.612000m/h.</desc>
<speed>0.170000</speed>
</trkpt>
<trkpt lat="56.069695" lon="26.463289">
<ele>111.635803</ele>
<time>2010-08-29T13:00:40Z</time>
<desc>lat.=56.069695, lon.=26.463289, Alt.=111.635803m. Speed=0.612000m/h.</desc>
<speed>0.170000</speed>
</trkpt>
<trkpt lat="56.069691" lon="26.463287">
<ele>111.682678</ele>
<time>2010-08-29T13:00:41Z</time>
<desc>lat.=56.069691, lon.=26.463287, Alt.=111.682678m. Speed=0.612000m/h.</desc>
<speed>0.170000</speed>
</trkpt>
<trkpt lat="56.069691" lon="26.463287">
<ele>111.708069</ele>
<time>2010-08-29T13:00:42Z</time>
<desc>lat.=56.069691, lon.=26.463287, Alt.=111.708069m. Speed=1.080000m/h.</desc>
<speed>0.300000</speed>
</trkpt>
<trkpt lat="56.069668" lon="26.463268">
<ele>111.864319</ele>
<time>2010-08-29T13:00:43Z</time>
<desc>lat.=56.069668, lon.=26.463268, Alt.=111.864319m. Speed=1.188000m/h.</desc>
<speed>0.330000</speed>
</trkpt>
<trkpt lat="56.069664" lon="26.463261">
<ele>111.979553</ele>
<time>2010-08-29T13:00:44Z</time>
<desc>lat.=56.069664, lon.=26.463261, Alt.=111.979553m. Speed=1.260000m/h.</desc>
<speed>0.350000</speed>
</trkpt>
<trkpt lat="56.069660" lon="26.463259">
<ele>112.100647</ele>
<time>2010-08-29T13:00:45Z</time>
<desc>lat.=56.069660, lon.=26.463259, Alt.=112.100647m. Speed=0.900000m/h.</desc>
<speed>0.250000</speed>
</trkpt>
<trkpt lat="56.069664" lon="26.463253">
<ele>112.057678</ele>
<time>2010-08-29T13:00:46Z</time>
<desc>lat.=56.069664, lon.=26.463253, Alt.=112.057678m. Speed=0.612000m/h.</desc>
<speed>0.170000</speed>
</trkpt>
<trkpt lat="56.069664" lon="26.463255">
<ele>112.118225</ele>
<time>2010-08-29T13:00:47Z</time>
<desc>lat.=56.069664, lon.=26.463255, Alt.=112.118225m. Speed=0.252000m/h.</desc>
<speed>0.070000</speed>
</trkpt>
<trkpt lat="56.069660" lon="26.463259">
<ele>112.159241</ele>
<time>2010-08-29T13:00:48Z</time>
<desc>lat.=56.069660, lon.=26.463259, Alt.=112.159241m. Speed=0.252000m/h.</desc>
<speed>0.070000</speed>
</trkpt>
<trkpt lat="56.069660" lon="26.463259">
<ele>112.176819</ele>
<time>2010-08-29T13:00:49Z</time>
<desc>lat.=56.069660, lon.=26.463259, Alt.=112.176819m. Speed=0.396000m/h.</desc>
<speed>0.110000</speed>
</trkpt>
<trkpt lat="56.069660" lon="26.463259">
<ele>112.190491</ele>
<time>2010-08-29T13:00:50Z</time>
<desc>lat.=56.069660, lon.=26.463259, Alt.=112.190491m. Speed=0.576000m/h.</desc>
<speed>0.160000</speed>
</trkpt>
<trkpt lat="56.069656" lon="26.463261">
<ele>112.202209</ele>
<time>2010-08-29T13:00:51Z</time>
<desc>lat.=56.069656, lon.=26.463261, Alt.=112.202209m. Speed=0.432000m/h.</desc>
<speed>0.120000</speed>
</trkpt>
<trkpt lat="56.069656" lon="26.463261">
<ele>112.215881</ele>
<time>2010-08-29T13:00:52Z</time>
<desc>lat.=56.069656, lon.=26.463261, Alt.=112.215881m. Speed=0.072000m/h.</desc>
<speed>0.020000</speed>
</trkpt>
<trkpt lat="56.069656" lon="26.463261">
<ele>112.231506</ele>
<time>2010-08-29T13:00:53Z</time>
<desc>lat.=56.069656, lon.=26.463261, Alt.=112.231506m. Speed=0.036000m/h.</desc>
<speed>0.010000</speed>
</trkpt>
<trkpt lat="56.069656" lon="26.463261">
<ele>112.245178</ele>
<time>2010-08-29T13:00:54Z</time>
<desc>lat.=56.069656, lon.=26.463261, Alt.=112.245178m. Speed=0.072000m/h.</desc>
<speed>0.020000</speed>
</trkpt>
<trkpt lat="56.069656" lon="26.463261">
<ele>112.264709</ele>
<time>2010-08-29T13:00:55Z</time>
<desc>lat.=56.069656, lon.=26.463261, Alt.=112.264709m. Speed=0.108000m/h.</desc>
<speed>0.030000</speed>
</trkpt>
<trkpt lat="56.069656" lon="26.463261">
<ele>112.266663</ele>
<time>2010-08-29T13:00:56Z</time>
<desc>lat.=56.069656, lon.=26.463261, Alt.=112.266663m. Speed=0.036000m/h.</desc>
<speed>0.010000</speed>
</trkpt>
<trkpt lat="56.069656" lon="26.463261">
<ele>112.282288</ele>
<time>2010-08-29T13:00:57Z</time>
<desc>lat.=56.069656, lon.=26.463261, Alt.=112.282288m. Speed=0.036000m/h.</desc>
<speed>0.010000</speed>
</trkpt>
<trkpt lat="56.069656" lon="26.463261">
<ele>112.297913</ele>
<time>2010-08-29T13:00:58Z</time>
<desc>lat.=56.069656, lon.=26.463261, Alt.=112.297913m. Speed=0.108000m/h.</desc>
<speed>0.030000</speed>
</trkpt>
<trkpt lat="56.069656" lon="26.463261">
<ele>112.301819</ele>
<time>2010-08-29T13:00:59Z</time>
<desc>lat.=56.069656, lon.=26.463261, Alt.=112.301819m. Speed=0.036000m/h.</desc>
<speed>0.010000</speed>
</trkpt>
<trkpt lat="56.069656" lon="26.463261">
<ele>112.301819</ele>
<time>2010-08-29T13:01:00Z</time>
<desc>lat.=56.069656, lon.=26.463261, Alt.=112.301819m. Speed=0.072000m/h.</desc>
<speed>0.020000</speed>
</trkpt>
<trkpt lat="56.069656" lon="26.463261">
<ele>112.284241</ele>
<time>2010-08-29T13:01:01Z</time>
<desc>lat.=56.069656, lon.=26.463261, Alt.=112.284241m. Speed=0.108000m/h.</desc>
<speed>0.030000</speed>
</trkpt>
<trkpt lat="56.069656" lon="26.463261">
<ele>112.284241</ele>
<time>2010-08-29T13:01:02Z</time>
<desc>lat.=56.069656, lon.=26.463261, Alt.=112.284241m. Speed=0.108000m/h.</desc>
<speed>0.030000</speed>
</trkpt>
<trkpt lat="56.069653" lon="26.463261">
<ele>112.282288</ele>
<time>2010-08-29T13:01:03Z</time>
<desc>lat.=56.069653, lon.=26.463261, Alt.=112.282288m. Speed=0.252000m/h.</desc>
<speed>0.070000</speed>
</trkpt>
<trkpt lat="56.069653" lon="26.463261">
<ele>112.282288</ele>
<time>2010-08-29T13:01:04Z</time>
<desc>lat.=56.069653, lon.=26.463261, Alt.=112.282288m. Speed=0.072000m/h.</desc>
<speed>0.020000</speed>
</trkpt>
<trkpt lat="56.069653" lon="26.463261">
<ele>112.284241</ele>
<time>2010-08-29T13:01:05Z</time>
<desc>lat.=56.069653, lon.=26.463261, Alt.=112.284241m. Speed=0.000000m/h.</desc>
<speed>0.000000</speed>
</trkpt>
<trkpt lat="56.069653" lon="26.463261">
<ele>112.284241</ele>
<time>2010-08-29T13:01:06Z</time>
<desc>lat.=56.069653, lon.=26.463261, Alt.=112.284241m. Speed=0.000000m/h.</desc>
<speed>0.000000</speed>
</trkpt>
<trkpt lat="56.069653" lon="26.463261">
<ele>112.284241</ele>
<time>2010-08-29T13:01:07Z</time>
<desc>lat.=56.069653, lon.=26.463261, Alt.=112.284241m. Speed=0.000000m/h.</desc>
<speed>0.000000</speed>
</trkpt>
<trkpt lat="56.069653" lon="26.463261">
<ele>112.284241</ele>
<time>2010-08-29T13:01:08Z</time>
<desc>lat.=56.069653, lon.=26.463261, Alt.=112.284241m. Speed=0.000000m/h.</desc>
<speed>0.000000</speed>
</trkpt>
<trkpt lat="56.069653" lon="26.463261">
<ele>112.282288</ele>
<time>2010-08-29T13:01:09Z</time>
<desc>lat.=56.069653, lon.=26.463261, Alt.=112.282288m. Speed=0.000000m/h.</desc>
<speed>0.000000</speed>
</trkpt>
<trkpt lat="56.069653" lon="26.463261">
<ele>112.282288</ele>
<time>2010-08-29T13:01:10Z</time>
<desc>lat.=56.069653, lon.=26.463261, Alt.=112.282288m. Speed=0.000000m/h.</desc>
<speed>0.000000</speed>
</trkpt>
<trkpt lat="56.069653" lon="26.463261">
<ele>112.282288</ele>
<time>2010-08-29T13:01:11Z</time>
<desc>lat.=56.069653, lon.=26.463261, Alt.=112.282288m. Speed=0.000000m/h.</desc>
<speed>0.000000</speed>
</trkpt>
<trkpt lat="56.069653" lon="26.463261">
<ele>112.282288</ele>
<time>2010-08-29T13:01:12Z</time>
<desc>lat.=56.069653, lon.=26.463261, Alt.=112.282288m. Speed=0.000000m/h.</desc>
<speed>0.000000</speed>
</trkpt>
<trkpt lat="56.069653" lon="26.463261">
<ele>112.282288</ele>
<time>2010-08-29T13:01:13Z</time>
<desc>lat.=56.069653, lon.=26.463261, Alt.=112.282288m. Speed=0.000000m/h.</desc>
<speed>0.000000</speed>
</trkpt>
<trkpt lat="56.069653" lon="26.463261">
<ele>112.282288</ele>
<time>2010-08-29T13:01:14Z</time>
<desc>lat.=56.069653, lon.=26.463261, Alt.=112.282288m. Speed=0.000000m/h.</desc>
<speed>0.000000</speed>
</trkpt>
<trkpt lat="56.069653" lon="26.463261">
<ele>112.280334</ele>
<time>2010-08-29T13:01:15Z</time>
<desc>lat.=56.069653, lon.=26.463261, Alt.=112.280334m. Speed=0.000000m/h.</desc>
<speed>0.000000</speed>
</trkpt>
<trkpt lat="56.069653" lon="26.463261">
<ele>112.280334</ele>
<time>2010-08-29T13:01:16Z</time>
<desc>lat.=56.069653, lon.=26.463261, Alt.=112.280334m. Speed=0.000000m/h.</desc>
<speed>0.000000</speed>
</trkpt>
<trkpt lat="56.069653" lon="26.463261">
<ele>112.280334</ele>
<time>2010-08-29T13:01:17Z</time>
<desc>lat.=56.069653, lon.=26.463261, Alt.=112.280334m. Speed=0.036000m/h.</desc>
<speed>0.010000</speed>
</trkpt>
<trkpt lat="56.069653" lon="26.463263">
<ele>112.280334</ele>
<time>2010-08-29T13:01:18Z</time>
<desc>lat.=56.069653, lon.=26.463263, Alt.=112.280334m. Speed=0.036000m/h.</desc>
<speed>0.010000</speed>
</trkpt>
<trkpt lat="56.069653" lon="26.463263">
<ele>112.280334</ele>
<time>2010-08-29T13:01:19Z</time>
<desc>lat.=56.069653, lon.=26.463263, Alt.=112.280334m. Speed=0.072000m/h.</desc>
<speed>0.020000</speed>
</trkpt>
<trkpt lat="56.069653" lon="26.463263">
<ele>112.280334</ele>
<time>2010-08-29T13:01:20Z</time>
<desc>lat.=56.069653, lon.=26.463263, Alt.=112.280334m. Speed=0.072000m/h.</desc>
<speed>0.020000</speed>
</trkpt>
<trkpt lat="56.069653" lon="26.463263">
<ele>112.282288</ele>
<time>2010-08-29T13:01:21Z</time>
<desc>lat.=56.069653, lon.=26.463263, Alt.=112.282288m. Speed=0.144000m/h.</desc>
<speed>0.040000</speed>
</trkpt>
<trkpt lat="56.069653" lon="26.463264">
<ele>112.282288</ele>
<time>2010-08-29T13:01:22Z</time>
<desc>lat.=56.069653, lon.=26.463264, Alt.=112.282288m. Speed=0.216000m/h.</desc>
<speed>0.060000</speed>
</trkpt>
<trkpt lat="56.069653" lon="26.463264">
<ele>112.282288</ele>
<time>2010-08-29T13:01:23Z</time>
<desc>lat.=56.069653, lon.=26.463264, Alt.=112.282288m. Speed=0.216000m/h.</desc>
<speed>0.060000</speed>
</trkpt>
<trkpt lat="56.069653" lon="26.463266">
<ele>112.282288</ele>
<time>2010-08-29T13:01:24Z</time>
<desc>lat.=56.069653, lon.=26.463266, Alt.=112.282288m. Speed=0.288000m/h.</desc>
<speed>0.080000</speed>
</trkpt>
<trkpt lat="56.069653" lon="26.463266">
<ele>112.284241</ele>
<time>2010-08-29T13:01:25Z</time>
<desc>lat.=56.069653, lon.=26.463266, Alt.=112.284241m. Speed=0.288000m/h.</desc>
<speed>0.080000</speed>
</trkpt>
<trkpt lat="56.069656" lon="26.463268">
<ele>112.284241</ele>
<time>2010-08-29T13:01:26Z</time>
<desc>lat.=56.069656, lon.=26.463268, Alt.=112.284241m. Speed=0.324000m/h.</desc>
<speed>0.090000</speed>
</trkpt>
<trkpt lat="56.069656" lon="26.463270">
<ele>112.286194</ele>
<time>2010-08-29T13:01:27Z</time>
<desc>lat.=56.069656, lon.=26.463270, Alt.=112.286194m. Speed=0.468000m/h.</desc>
<speed>0.130000</speed>
</trkpt>
<trkpt lat="56.069656" lon="26.463272">
<ele>112.288147</ele>
<time>2010-08-29T13:01:28Z</time>
<desc>lat.=56.069656, lon.=26.463272, Alt.=112.288147m. Speed=0.540000m/h.</desc>
<speed>0.150000</speed>
</trkpt>
<trkpt lat="56.069656" lon="26.463276">
<ele>112.288147</ele>
<time>2010-08-29T13:01:29Z</time>
<desc>lat.=56.069656, lon.=26.463276, Alt.=112.288147m. Speed=0.612000m/h.</desc>
<speed>0.170000</speed>
</trkpt>
<trkpt lat="56.069656" lon="26.463278">
<ele>112.290100</ele>
<time>2010-08-29T13:01:30Z</time>
<desc>lat.=56.069656, lon.=26.463278, Alt.=112.290100m. Speed=0.972000m/h.</desc>
<speed>0.270000</speed>
</trkpt>
<trkpt lat="56.069656" lon="26.463284">
<ele>112.292053</ele>
<time>2010-08-29T13:01:31Z</time>
<desc>lat.=56.069656, lon.=26.463284, Alt.=112.292053m. Speed=1.224000m/h.</desc>
<speed>0.340000</speed>
</trkpt>
<trkpt lat="56.069664" lon="26.463303">
<ele>112.237366</ele>
<time>2010-08-29T13:01:32Z</time>
<desc>lat.=56.069664, lon.=26.463303, Alt.=112.237366m. Speed=1.404000m/h.</desc>
<speed>0.390000</speed>
</trkpt>
<trkpt lat="56.069664" lon="26.463316">
<ele>112.270569</ele>
<time>2010-08-29T13:01:33Z</time>
<desc>lat.=56.069664, lon.=26.463316, Alt.=112.270569m. Speed=1.476000m/h.</desc>
<speed>0.410000</speed>
</trkpt>
<trkpt lat="56.069664" lon="26.463333">
<ele>112.297913</ele>
<time>2010-08-29T13:01:34Z</time>
<desc>lat.=56.069664, lon.=26.463333, Alt.=112.297913m. Speed=1.584000m/h.</desc>
<speed>0.440000</speed>
</trkpt>
<trkpt lat="56.069668" lon="26.463341">
<ele>112.323303</ele>
<time>2010-08-29T13:01:35Z</time>
<desc>lat.=56.069668, lon.=26.463341, Alt.=112.323303m. Speed=1.620000m/h.</desc>
<speed>0.450000</speed>
</trkpt>
<trkpt lat="56.069675" lon="26.463352">
<ele>112.350647</ele>
<time>2010-08-29T13:01:36Z</time>
<desc>lat.=56.069675, lon.=26.463352, Alt.=112.350647m. Speed=1.692000m/h.</desc>
<speed>0.470000</speed>
</trkpt>
<trkpt lat="56.069675" lon="26.463367">
<ele>112.381897</ele>
<time>2010-08-29T13:01:37Z</time>
<desc>lat.=56.069675, lon.=26.463367, Alt.=112.381897m. Speed=1.800000m/h.</desc>
<speed>0.500000</speed>
</trkpt>
<trkpt lat="56.069675" lon="26.463375">
<ele>112.411194</ele>
<time>2010-08-29T13:01:38Z</time>
<desc>lat.=56.069675, lon.=26.463375, Alt.=112.411194m. Speed=1.764000m/h.</desc>
<speed>0.490000</speed>
</trkpt>
<trkpt lat="56.069675" lon="26.463388">
<ele>112.444397</ele>
<time>2010-08-29T13:01:39Z</time>
<desc>lat.=56.069675, lon.=26.463388, Alt.=112.444397m. Speed=1.728000m/h.</desc>
<speed>0.480000</speed>
</trkpt>
<trkpt lat="56.069679" lon="26.463406">
<ele>112.450256</ele>
<time>2010-08-29T13:01:40Z</time>
<desc>lat.=56.069679, lon.=26.463406, Alt.=112.450256m. Speed=1.764000m/h.</desc>
<speed>0.490000</speed>
</trkpt>
<trkpt lat="56.069687" lon="26.463417">
<ele>112.477600</ele>
<time>2010-08-29T13:01:41Z</time>
<desc>lat.=56.069687, lon.=26.463417, Alt.=112.477600m. Speed=1.872000m/h.</desc>
<speed>0.520000</speed>
</trkpt>
<trkpt lat="56.069695" lon="26.463428">
<ele>112.501038</ele>
<time>2010-08-29T13:01:42Z</time>
<desc>lat.=56.069695, lon.=26.463428, Alt.=112.501038m. Speed=1.908000m/h.</desc>
<speed>0.530000</speed>
</trkpt>
<trkpt lat="56.069714" lon="26.463446">
<ele>112.444397</ele>
<time>2010-08-29T13:01:43Z</time>
<desc>lat.=56.069714, lon.=26.463446, Alt.=112.444397m. Speed=2.088000m/h.</desc>
<speed>0.580000</speed>
</trkpt>
<trkpt lat="56.069725" lon="26.463457">
<ele>112.399475</ele>
<time>2010-08-29T13:01:44Z</time>
<desc>lat.=56.069725, lon.=26.463457, Alt.=112.399475m. Speed=2.088000m/h.</desc>
<speed>0.580000</speed>
</trkpt>
<trkpt lat="56.069740" lon="26.463469">
<ele>112.360413</ele>
<time>2010-08-29T13:01:45Z</time>
<desc>lat.=56.069740, lon.=26.463469, Alt.=112.360413m. Speed=2.124000m/h.</desc>
<speed>0.590000</speed>
</trkpt>
<trkpt lat="56.069756" lon="26.463484">
<ele>112.292053</ele>
<time>2010-08-29T13:01:46Z</time>
<desc>lat.=56.069756, lon.=26.463484, Alt.=112.292053m. Speed=2.232000m/h.</desc>
<speed>0.620000</speed>
</trkpt>
<trkpt lat="56.069763" lon="26.463495">
<ele>112.292053</ele>
<time>2010-08-29T13:01:47Z</time>
<desc>lat.=56.069763, lon.=26.463495, Alt.=112.292053m. Speed=2.340000m/h.</desc>
<speed>0.650000</speed>
</trkpt>
<trkpt lat="56.069771" lon="26.463507">
<ele>112.295959</ele>
<time>2010-08-29T13:01:48Z</time>
<desc>lat.=56.069771, lon.=26.463507, Alt.=112.295959m. Speed=2.412000m/h.</desc>
<speed>0.670000</speed>
</trkpt>
<trkpt lat="56.069771" lon="26.463518">
<ele>112.323303</ele>
<time>2010-08-29T13:01:49Z</time>
<desc>lat.=56.069771, lon.=26.463518, Alt.=112.323303m. Speed=2.448000m/h.</desc>
<speed>0.680000</speed>
</trkpt>
<trkpt lat="56.069801" lon="26.463537">
<ele>112.270569</ele>
<time>2010-08-29T13:01:50Z</time>
<desc>lat.=56.069801, lon.=26.463537, Alt.=112.270569m. Speed=3.348000m/h.</desc>
<speed>0.930000</speed>
</trkpt>
<trkpt lat="56.069824" lon="26.463554">
<ele>112.264709</ele>
<time>2010-08-29T13:01:51Z</time>
<desc>lat.=56.069824, lon.=26.463554, Alt.=112.264709m. Speed=4.464000m/h.</desc>
<speed>1.240000</speed>
</trkpt>
<trkpt lat="56.069817" lon="26.463570">
<ele>112.301819</ele>
<time>2010-08-29T13:01:52Z</time>
<desc>lat.=56.069817, lon.=26.463570, Alt.=112.301819m. Speed=4.104000m/h.</desc>
<speed>1.140000</speed>
</trkpt>
<trkpt lat="56.069820" lon="26.463587">
<ele>112.350647</ele>
<time>2010-08-29T13:01:53Z</time>
<desc>lat.=56.069820, lon.=26.463587, Alt.=112.350647m. Speed=3.744000m/h.</desc>
<speed>1.040000</speed>
</trkpt>
<trkpt lat="56.069836" lon="26.463531">
<ele>112.624084</ele>
<time>2010-08-29T13:01:54Z</time>
<desc>lat.=56.069836, lon.=26.463531, Alt.=112.624084m. Speed=2.016000m/h.</desc>
<speed>0.560000</speed>
</trkpt>
<trkpt lat="56.069836" lon="26.463511">
<ele>112.731506</ele>
<time>2010-08-29T13:01:55Z</time>
<desc>lat.=56.069836, lon.=26.463511, Alt.=112.731506m. Speed=0.396000m/h.</desc>
<speed>0.110000</speed>
</trkpt>
<trkpt lat="56.069843" lon="26.463509">
<ele>112.956116</ele>
<time>2010-08-29T13:01:56Z</time>
<desc>lat.=56.069843, lon.=26.463509, Alt.=112.956116m. Speed=0.396000m/h.</desc>
<speed>0.110000</speed>
</trkpt>
<trkpt lat="56.069847" lon="26.463509">
<ele>113.206116</ele>
<time>2010-08-29T13:01:57Z</time>
<desc>lat.=56.069847, lon.=26.463509, Alt.=113.206116m. Speed=0.252000m/h.</desc>
<speed>0.070000</speed>
</trkpt>
<trkpt lat="56.069855" lon="26.463514">
<ele>113.362366</ele>
<time>2010-08-29T13:01:58Z</time>
<desc>lat.=56.069855, lon.=26.463514, Alt.=113.362366m. Speed=0.360000m/h.</desc>
<speed>0.100000</speed>
</trkpt>
<trkpt lat="56.069855" lon="26.463512">
<ele>113.463928</ele>
<time>2010-08-29T13:01:59Z</time>
<desc>lat.=56.069855, lon.=26.463512, Alt.=113.463928m. Speed=0.216000m/h.</desc>
<speed>0.060000</speed>
</trkpt>
<trkpt lat="56.069855" lon="26.463512">
<ele>113.559631</ele>
<time>2010-08-29T13:02:00Z</time>
<desc>lat.=56.069855, lon.=26.463512, Alt.=113.559631m. Speed=0.324000m/h.</desc>
<speed>0.090000</speed>
</trkpt>
<trkpt lat="56.069855" lon="26.463512">
<ele>113.659241</ele>
<time>2010-08-29T13:02:01Z</time>
<desc>lat.=56.069855, lon.=26.463512, Alt.=113.659241m. Speed=0.252000m/h.</desc>
<speed>0.070000</speed>
</trkpt>
<trkpt lat="56.069855" lon="26.463512">
<ele>113.760803</ele>
<time>2010-08-29T13:02:02Z</time>
<desc>lat.=56.069855, lon.=26.463512, Alt.=113.760803m. Speed=0.288000m/h.</desc>
<speed>0.080000</speed>
</trkpt>
<trkpt lat="56.069851" lon="26.463512">
<ele>113.858459</ele>
<time>2010-08-29T13:02:03Z</time>
<desc>lat.=56.069851, lon.=26.463512, Alt.=113.858459m. Speed=0.288000m/h.</desc>
<speed>0.080000</speed>
</trkpt>
<trkpt lat="56.069851" lon="26.463512">
<ele>113.950256</ele>
<time>2010-08-29T13:02:04Z</time>
<desc>lat.=56.069851, lon.=26.463512, Alt.=113.950256m. Speed=0.216000m/h.</desc>
<speed>0.060000</speed>
</trkpt>
<trkpt lat="56.069851" lon="26.463512">
<ele>114.040100</ele>
<time>2010-08-29T13:02:05Z</time>
<desc>lat.=56.069851, lon.=26.463512, Alt.=114.040100m. Speed=0.252000m/h.</desc>
<speed>0.070000</speed>
</trkpt>
<trkpt lat="56.069851" lon="26.463512">
<ele>114.124084</ele>
<time>2010-08-29T13:02:06Z</time>
<desc>lat.=56.069851, lon.=26.463512, Alt.=114.124084m. Speed=0.216000m/h.</desc>
<speed>0.060000</speed>
</trkpt>
<trkpt lat="56.069851" lon="26.463511">
<ele>114.192444</ele>
<time>2010-08-29T13:02:07Z</time>
<desc>lat.=56.069851, lon.=26.463511, Alt.=114.192444m. Speed=0.180000m/h.</desc>
<speed>0.050000</speed>
</trkpt>
<trkpt lat="56.069851" lon="26.463511">
<ele>114.251038</ele>
<time>2010-08-29T13:02:08Z</time>
<desc>lat.=56.069851, lon.=26.463511, Alt.=114.251038m. Speed=0.216000m/h.</desc>
<speed>0.060000</speed>
</trkpt>
<trkpt lat="56.069851" lon="26.463511">
<ele>114.301819</ele>
<time>2010-08-29T13:02:09Z</time>
<desc>lat.=56.069851, lon.=26.463511, Alt.=114.301819m. Speed=0.072000m/h.</desc>
<speed>0.020000</speed>
</trkpt>
<trkpt lat="56.069847" lon="26.463511">
<ele>114.340881</ele>
<time>2010-08-29T13:02:10Z</time>
<desc>lat.=56.069847, lon.=26.463511, Alt.=114.340881m. Speed=0.180000m/h.</desc>
<speed>0.050000</speed>
</trkpt>
<trkpt lat="56.069847" lon="26.463511">
<ele>114.379944</ele>
<time>2010-08-29T13:02:11Z</time>
<desc>lat.=56.069847, lon.=26.463511, Alt.=114.379944m. Speed=0.108000m/h.</desc>
<speed>0.030000</speed>
</trkpt>
<trkpt lat="56.069847" lon="26.463511">
<ele>114.383850</ele>
<time>2010-08-29T13:02:12Z</time>
<desc>lat.=56.069847, lon.=26.463511, Alt.=114.383850m. Speed=0.072000m/h.</desc>
<speed>0.020000</speed>
</trkpt>
<trkpt lat="56.069847" lon="26.463511">
<ele>114.385803</ele>
<time>2010-08-29T13:02:13Z</time>
<desc>lat.=56.069847, lon.=26.463511, Alt.=114.385803m. Speed=0.036000m/h.</desc>
<speed>0.010000</speed>
</trkpt>
<trkpt lat="56.069847" lon="26.463511">
<ele>114.387756</ele>
<time>2010-08-29T13:02:14Z</time>
<desc>lat.=56.069847, lon.=26.463511, Alt.=114.387756m. Speed=0.000000m/h.</desc>
<speed>0.000000</speed>
</trkpt>
<trkpt lat="56.069847" lon="26.463511">
<ele>114.387756</ele>
<time>2010-08-29T13:02:15Z</time>
<desc>lat.=56.069847, lon.=26.463511, Alt.=114.387756m. Speed=0.000000m/h.</desc>
<speed>0.000000</speed>
</trkpt>
<trkpt lat="56.069847" lon="26.463511">
<ele>114.389709</ele>
<time>2010-08-29T13:02:16Z</time>
<desc>lat.=56.069847, lon.=26.463511, Alt.=114.389709m. Speed=0.000000m/h.</desc>
<speed>0.000000</speed>
</trkpt>
<trkpt lat="56.069847" lon="26.463511">
<ele>114.391663</ele>
<time>2010-08-29T13:02:17Z</time>
<desc>lat.=56.069847, lon.=26.463511, Alt.=114.391663m. Speed=0.036000m/h.</desc>
<speed>0.010000</speed>
</trkpt>
<trkpt lat="56.069847" lon="26.463511">
<ele>114.387756</ele>
<time>2010-08-29T13:02:18Z</time>
<desc>lat.=56.069847, lon.=26.463511, Alt.=114.387756m. Speed=0.000000m/h.</desc>
<speed>0.000000</speed>
</trkpt>
<trkpt lat="56.069847" lon="26.463511">
<ele>114.387756</ele>
<time>2010-08-29T13:02:19Z</time>
<desc>lat.=56.069847, lon.=26.463511, Alt.=114.387756m. Speed=0.000000m/h.</desc>
<speed>0.000000</speed>
</trkpt>
<trkpt lat="56.069847" lon="26.463511">
<ele>114.391663</ele>
<time>2010-08-29T13:02:20Z</time>
<desc>lat.=56.069847, lon.=26.463511, Alt.=114.391663m. Speed=0.036000m/h.</desc>
<speed>0.010000</speed>
</trkpt>
<trkpt lat="56.069847" lon="26.463511">
<ele>114.399475</ele>
<time>2010-08-29T13:02:21Z</time>
<desc>lat.=56.069847, lon.=26.463511, Alt.=114.399475m. Speed=0.000000m/h.</desc>
<speed>0.000000</speed>
</trkpt>
<trkpt lat="56.069847" lon="26.463511">
<ele>114.417053</ele>
<time>2010-08-29T13:02:22Z</time>
<desc>lat.=56.069847, lon.=26.463511, Alt.=114.417053m. Speed=0.036000m/h.</desc>
<speed>0.010000</speed>
</trkpt>
<trkpt lat="56.069847" lon="26.463511">
<ele>114.426819</ele>
<time>2010-08-29T13:02:23Z</time>
<desc>lat.=56.069847, lon.=26.463511, Alt.=114.426819m. Speed=0.036000m/h.</desc>
<speed>0.010000</speed>
</trkpt>
<trkpt lat="56.069847" lon="26.463511">
<ele>114.428772</ele>
<time>2010-08-29T13:02:24Z</time>
<desc>lat.=56.069847, lon.=26.463511, Alt.=114.428772m. Speed=0.000000m/h.</desc>
<speed>0.000000</speed>
</trkpt>
<trkpt lat="56.069847" lon="26.463511">
<ele>114.436584</ele>
<time>2010-08-29T13:02:25Z</time>
<desc>lat.=56.069847, lon.=26.463511, Alt.=114.436584m. Speed=0.036000m/h.</desc>
<speed>0.010000</speed>
</trkpt>
<trkpt lat="56.069847" lon="26.463511">
<ele>114.436584</ele>
<time>2010-08-29T13:02:26Z</time>
<desc>lat.=56.069847, lon.=26.463511, Alt.=114.436584m. Speed=0.000000m/h.</desc>
<speed>0.000000</speed>
</trkpt>
<trkpt lat="56.069847" lon="26.463511">
<ele>114.438538</ele>
<time>2010-08-29T13:02:27Z</time>
<desc>lat.=56.069847, lon.=26.463511, Alt.=114.438538m. Speed=0.000000m/h.</desc>
<speed>0.000000</speed>
</trkpt>
<trkpt lat="56.069847" lon="26.463511">
<ele>114.442444</ele>
<time>2010-08-29T13:02:28Z</time>
<desc>lat.=56.069847, lon.=26.463511, Alt.=114.442444m. Speed=0.000000m/h.</desc>
<speed>0.000000</speed>
</trkpt>
<trkpt lat="56.069847" lon="26.463511">
<ele>114.448303</ele>
<time>2010-08-29T13:02:29Z</time>
<desc>lat.=56.069847, lon.=26.463511, Alt.=114.448303m. Speed=0.000000m/h.</desc>
<speed>0.000000</speed>
</trkpt>
<trkpt lat="56.069847" lon="26.463511">
<ele>114.452209</ele>
<time>2010-08-29T13:02:30Z</time>
<desc>lat.=56.069847, lon.=26.463511, Alt.=114.452209m. Speed=0.036000m/h.</desc>
<speed>0.010000</speed>
</trkpt>
<trkpt lat="56.069847" lon="26.463511">
<ele>114.456116</ele>
<time>2010-08-29T13:02:31Z</time>
<desc>lat.=56.069847, lon.=26.463511, Alt.=114.456116m. Speed=0.000000m/h.</desc>
<speed>0.000000</speed>
</trkpt>
<trkpt lat="56.069847" lon="26.463511">
<ele>114.463928</ele>
<time>2010-08-29T13:02:32Z</time>
<desc>lat.=56.069847, lon.=26.463511, Alt.=114.463928m. Speed=0.000000m/h.</desc>
<speed>0.000000</speed>
</trkpt>
<trkpt lat="56.069847" lon="26.463511">
<ele>114.467834</ele>
<time>2010-08-29T13:02:33Z</time>
<desc>lat.=56.069847, lon.=26.463511, Alt.=114.467834m. Speed=0.000000m/h.</desc>
<speed>0.000000</speed>
</trkpt>
<trkpt lat="56.069847" lon="26.463511">
<ele>114.471741</ele>
<time>2010-08-29T13:02:34Z</time>
<desc>lat.=56.069847, lon.=26.463511, Alt.=114.471741m. Speed=0.072000m/h.</desc>
<speed>0.020000</speed>
</trkpt>
<trkpt lat="56.069847" lon="26.463511">
<ele>114.469788</ele>
<time>2010-08-29T13:02:35Z</time>
<desc>lat.=56.069847, lon.=26.463511, Alt.=114.469788m. Speed=0.036000m/h.</desc>
<speed>0.010000</speed>
</trkpt>
<trkpt lat="56.069847" lon="26.463511">
<ele>114.473694</ele>
<time>2010-08-29T13:02:36Z</time>
<desc>lat.=56.069847, lon.=26.463511, Alt.=114.473694m. Speed=0.000000m/h.</desc>
<speed>0.000000</speed>
</trkpt>
<trkpt lat="56.069847" lon="26.463511">
<ele>114.475647</ele>
<time>2010-08-29T13:02:37Z</time>
<desc>lat.=56.069847, lon.=26.463511, Alt.=114.475647m. Speed=0.036000m/h.</desc>
<speed>0.010000</speed>
</trkpt>
<trkpt lat="56.069847" lon="26.463511">
<ele>114.477600</ele>
<time>2010-08-29T13:02:38Z</time>
<desc>lat.=56.069847, lon.=26.463511, Alt.=114.477600m. Speed=0.000000m/h.</desc>
<speed>0.000000</speed>
</trkpt>
<trkpt lat="56.069847" lon="26.463511">
<ele>114.477600</ele>
<time>2010-08-29T13:02:39Z</time>
<desc>lat.=56.069847, lon.=26.463511, Alt.=114.477600m. Speed=0.000000m/h.</desc>
<speed>0.000000</speed>
</trkpt>
<trkpt lat="56.069847" lon="26.463509">
<ele>114.479553</ele>
<time>2010-08-29T13:02:40Z</time>
<desc>lat.=56.069847, lon.=26.463509, Alt.=114.479553m. Speed=0.000000m/h.</desc>
<speed>0.000000</speed>
</trkpt>
<trkpt lat="56.069847" lon="26.463509">
<ele>114.477600</ele>
<time>2010-08-29T13:02:41Z</time>
<desc>lat.=56.069847, lon.=26.463509, Alt.=114.477600m. Speed=0.036000m/h.</desc>
<speed>0.010000</speed>
</trkpt>
<trkpt lat="56.069847" lon="26.463509">
<ele>114.473694</ele>
<time>2010-08-29T13:02:42Z</time>
<desc>lat.=56.069847, lon.=26.463509, Alt.=114.473694m. Speed=0.000000m/h.</desc>
<speed>0.000000</speed>
</trkpt>
<trkpt lat="56.069847" lon="26.463509">
<ele>114.467834</ele>
<time>2010-08-29T13:02:43Z</time>
<desc>lat.=56.069847, lon.=26.463509, Alt.=114.467834m. Speed=0.036000m/h.</desc>
<speed>0.010000</speed>
</trkpt>
<trkpt lat="56.069847" lon="26.463509">
<ele>114.460022</ele>
<time>2010-08-29T13:02:44Z</time>
<desc>lat.=56.069847, lon.=26.463509, Alt.=114.460022m. Speed=0.036000m/h.</desc>
<speed>0.010000</speed>
</trkpt>
<trkpt lat="56.069847" lon="26.463509">
<ele>114.458069</ele>
<time>2010-08-29T13:02:45Z</time>
<desc>lat.=56.069847, lon.=26.463509, Alt.=114.458069m. Speed=0.036000m/h.</desc>
<speed>0.010000</speed>
</trkpt>
<trkpt lat="56.069847" lon="26.463509">
<ele>114.456116</ele>
<time>2010-08-29T13:02:46Z</time>
<desc>lat.=56.069847, lon.=26.463509, Alt.=114.456116m. Speed=0.000000m/h.</desc>
<speed>0.000000</speed>
</trkpt>
<trkpt lat="56.069847" lon="26.463509">
<ele>114.446350</ele>
<time>2010-08-29T13:02:47Z</time>
<desc>lat.=56.069847, lon.=26.463509, Alt.=114.446350m. Speed=0.000000m/h.</desc>
<speed>0.000000</speed>
</trkpt>
<trkpt lat="56.069847" lon="26.463509">
<ele>114.436584</ele>
<time>2010-08-29T13:02:48Z</time>
<desc>lat.=56.069847, lon.=26.463509, Alt.=114.436584m. Speed=0.036000m/h.</desc>
<speed>0.010000</speed>
</trkpt>
<trkpt lat="56.069847" lon="26.463509">
<ele>114.430725</ele>
<time>2010-08-29T13:02:49Z</time>
<desc>lat.=56.069847, lon.=26.463509, Alt.=114.430725m. Speed=0.036000m/h.</desc>
<speed>0.010000</speed>
</trkpt>
<trkpt lat="56.069847" lon="26.463509">
<ele>114.426819</ele>
<time>2010-08-29T13:02:50Z</time>
<desc>lat.=56.069847, lon.=26.463509, Alt.=114.426819m. Speed=0.000000m/h.</desc>
<speed>0.000000</speed>
</trkpt>
<trkpt lat="56.069847" lon="26.463509">
<ele>114.420959</ele>
<time>2010-08-29T13:02:51Z</time>
<desc>lat.=56.069847, lon.=26.463509, Alt.=114.420959m. Speed=0.000000m/h.</desc>
<speed>0.000000</speed>
</trkpt>
<trkpt lat="56.069847" lon="26.463509">
<ele>114.417053</ele>
<time>2010-08-29T13:02:52Z</time>
<desc>lat.=56.069847, lon.=26.463509, Alt.=114.417053m. Speed=0.036000m/h.</desc>
<speed>0.010000</speed>
</trkpt>
<trkpt lat="56.069847" lon="26.463509">
<ele>114.415100</ele>
<time>2010-08-29T13:02:53Z</time>
<desc>lat.=56.069847, lon.=26.463509, Alt.=114.415100m. Speed=0.000000m/h.</desc>
<speed>0.000000</speed>
</trkpt>
<trkpt lat="56.069847" lon="26.463509">
<ele>114.417053</ele>
<time>2010-08-29T13:02:54Z</time>
<desc>lat.=56.069847, lon.=26.463509, Alt.=114.417053m. Speed=0.000000m/h.</desc>
<speed>0.000000</speed>
</trkpt>
<trkpt lat="56.069847" lon="26.463509">
<ele>114.419006</ele>
<time>2010-08-29T13:02:55Z</time>
<desc>lat.=56.069847, lon.=26.463509, Alt.=114.419006m. Speed=0.000000m/h.</desc>
<speed>0.000000</speed>
</trkpt>
<trkpt lat="56.069847" lon="26.463509">
<ele>114.419006</ele>
<time>2010-08-29T13:02:56Z</time>
<desc>lat.=56.069847, lon.=26.463509, Alt.=114.419006m. Speed=0.000000m/h.</desc>
<speed>0.000000</speed>
</trkpt>
<trkpt lat="56.069847" lon="26.463509">
<ele>114.419006</ele>
<time>2010-08-29T13:02:57Z</time>
<desc>lat.=56.069847, lon.=26.463509, Alt.=114.419006m. Speed=0.000000m/h.</desc>
<speed>0.000000</speed>
</trkpt>
<trkpt lat="56.069847" lon="26.463509">
<ele>114.419006</ele>
<time>2010-08-29T13:02:58Z</time>
<desc>lat.=56.069847, lon.=26.463509, Alt.=114.419006m. Speed=0.000000m/h.</desc>
<speed>0.000000</speed>
</trkpt>
<trkpt lat="56.069847" lon="26.463509">
<ele>114.420959</ele>
<time>2010-08-29T13:02:59Z</time>
<desc>lat.=56.069847, lon.=26.463509, Alt.=114.420959m. Speed=0.000000m/h.</desc>
<speed>0.000000</speed>
</trkpt>
<trkpt lat="56.069847" lon="26.463509">
<ele>114.420959</ele>
<time>2010-08-29T13:03:00Z</time>
<desc>lat.=56.069847, lon.=26.463509, Alt.=114.420959m. Speed=0.000000m/h.</desc>
<speed>0.000000</speed>
</trkpt>
<trkpt lat="56.069847" lon="26.463509">
<ele>114.420959</ele>
<time>2010-08-29T13:03:01Z</time>
<desc>lat.=56.069847, lon.=26.463509, Alt.=114.420959m. Speed=0.000000m/h.</desc>
<speed>0.000000</speed>
</trkpt>
<trkpt lat="56.069847" lon="26.463509">
<ele>114.422913</ele>
<time>2010-08-29T13:03:02Z</time>
<desc>lat.=56.069847, lon.=26.463509, Alt.=114.422913m. Speed=0.000000m/h.</desc>
<speed>0.000000</speed>
</trkpt>
<trkpt lat="56.069847" lon="26.463509">
<ele>114.424866</ele>
<time>2010-08-29T13:03:03Z</time>
<desc>lat.=56.069847, lon.=26.463509, Alt.=114.424866m. Speed=0.000000m/h.</desc>
<speed>0.000000</speed>
</trkpt>
<trkpt lat="56.069847" lon="26.463509">
<ele>114.426819</ele>
<time>2010-08-29T13:03:04Z</time>
<desc>lat.=56.069847, lon.=26.463509, Alt.=114.426819m. Speed=0.000000m/h.</desc>
<speed>0.000000</speed>
</trkpt>
<trkpt lat="56.069847" lon="26.463509">
<ele>114.426819</ele>
<time>2010-08-29T13:03:05Z</time>
<desc>lat.=56.069847, lon.=26.463509, Alt.=114.426819m. Speed=0.000000m/h.</desc>
<speed>0.000000</speed>
</trkpt>
<trkpt lat="56.069847" lon="26.463509">
<ele>114.428772</ele>
<time>2010-08-29T13:03:06Z</time>
<desc>lat.=56.069847, lon.=26.463509, Alt.=114.428772m. Speed=0.000000m/h.</desc>
<speed>0.000000</speed>
</trkpt>
<trkpt lat="56.069847" lon="26.463509">
<ele>114.430725</ele>
<time>2010-08-29T13:03:07Z</time>
<desc>lat.=56.069847, lon.=26.463509, Alt.=114.430725m. Speed=0.000000m/h.</desc>
<speed>0.000000</speed>
</trkpt>
<trkpt lat="56.069847" lon="26.463509">
<ele>114.428772</ele>
<time>2010-08-29T13:03:08Z</time>
<desc>lat.=56.069847, lon.=26.463509, Alt.=114.428772m. Speed=0.000000m/h.</desc>
<speed>0.000000</speed>
</trkpt>
<trkpt lat="56.069847" lon="26.463509">
<ele>114.428772</ele>
<time>2010-08-29T13:03:09Z</time>
<desc>lat.=56.069847, lon.=26.463509, Alt.=114.428772m. Speed=0.000000m/h.</desc>
<speed>0.000000</speed>
</trkpt>
<trkpt lat="56.069847" lon="26.463509">
<ele>114.428772</ele>
<time>2010-08-29T13:03:10Z</time>
<desc>lat.=56.069847, lon.=26.463509, Alt.=114.428772m. Speed=0.036000m/h.</desc>
<speed>0.010000</speed>
</trkpt>
<trkpt lat="56.069847" lon="26.463509">
<ele>114.428772</ele>
<time>2010-08-29T13:03:11Z</time>
<desc>lat.=56.069847, lon.=26.463509, Alt.=114.428772m. Speed=0.036000m/h.</desc>
<speed>0.010000</speed>
</trkpt>
<trkpt lat="56.069847" lon="26.463509">
<ele>114.426819</ele>
<time>2010-08-29T13:03:12Z</time>
<desc>lat.=56.069847, lon.=26.463509, Alt.=114.426819m. Speed=0.000000m/h.</desc>
<speed>0.000000</speed>
</trkpt>
<trkpt lat="56.069847" lon="26.463509">
<ele>114.426819</ele>
<time>2010-08-29T13:03:13Z</time>
<desc>lat.=56.069847, lon.=26.463509, Alt.=114.426819m. Speed=0.000000m/h.</desc>
<speed>0.000000</speed>
</trkpt>
<trkpt lat="56.069847" lon="26.463509">
<ele>114.428772</ele>
<time>2010-08-29T13:03:14Z</time>
<desc>lat.=56.069847, lon.=26.463509, Alt.=114.428772m. Speed=0.000000m/h.</desc>
<speed>0.000000</speed>
</trkpt>
<trkpt lat="56.069847" lon="26.463509">
<ele>114.428772</ele>
<time>2010-08-29T13:03:15Z</time>
<desc>lat.=56.069847, lon.=26.463509, Alt.=114.428772m. Speed=0.000000m/h.</desc>
<speed>0.000000</speed>
</trkpt>
<trkpt lat="56.069847" lon="26.463507">
<ele>114.430725</ele>
<time>2010-08-29T13:03:16Z</time>
<desc>lat.=56.069847, lon.=26.463507, Alt.=114.430725m. Speed=0.000000m/h.</desc>
<speed>0.000000</speed>
</trkpt>
<trkpt lat="56.069847" lon="26.463507">
<ele>114.432678</ele>
<time>2010-08-29T13:03:17Z</time>
<desc>lat.=56.069847, lon.=26.463507, Alt.=114.432678m. Speed=0.000000m/h.</desc>
<speed>0.000000</speed>
</trkpt>
<trkpt lat="56.069847" lon="26.463507">
<ele>114.434631</ele>
<time>2010-08-29T13:03:18Z</time>
<desc>lat.=56.069847, lon.=26.463507, Alt.=114.434631m. Speed=0.000000m/h.</desc>
<speed>0.000000</speed>
</trkpt>
<trkpt lat="56.069847" lon="26.463507">
<ele>114.436584</ele>
<time>2010-08-29T13:03:19Z</time>
<desc>lat.=56.069847, lon.=26.463507, Alt.=114.436584m. Speed=0.000000m/h.</desc>
<speed>0.000000</speed>
</trkpt>
<trkpt lat="56.069847" lon="26.463507">
<ele>114.438538</ele>
<time>2010-08-29T13:03:20Z</time>
<desc>lat.=56.069847, lon.=26.463507, Alt.=114.438538m. Speed=0.000000m/h.</desc>
<speed>0.000000</speed>
</trkpt>
<trkpt lat="56.069847" lon="26.463507">
<ele>114.440491</ele>
<time>2010-08-29T13:03:21Z</time>
<desc>lat.=56.069847, lon.=26.463507, Alt.=114.440491m. Speed=0.036000m/h.</desc>
<speed>0.010000</speed>
</trkpt>
<trkpt lat="56.069847" lon="26.463507">
<ele>114.440491</ele>
<time>2010-08-29T13:03:22Z</time>
<desc>lat.=56.069847, lon.=26.463507, Alt.=114.440491m. Speed=0.216000m/h.</desc>
<speed>0.060000</speed>
</trkpt>
<trkpt lat="56.069847" lon="26.463507">
<ele>114.442444</ele>
<time>2010-08-29T13:03:23Z</time>
<desc>lat.=56.069847, lon.=26.463507, Alt.=114.442444m. Speed=0.036000m/h.</desc>
<speed>0.010000</speed>
</trkpt>
<trkpt lat="56.069847" lon="26.463507">
<ele>114.440491</ele>
<time>2010-08-29T13:03:24Z</time>
<desc>lat.=56.069847, lon.=26.463507, Alt.=114.440491m. Speed=0.108000m/h.</desc>
<speed>0.030000</speed>
</trkpt>
<trkpt lat="56.069847" lon="26.463507">
<ele>114.442444</ele>
<time>2010-08-29T13:03:25Z</time>
<desc>lat.=56.069847, lon.=26.463507, Alt.=114.442444m. Speed=0.036000m/h.</desc>
<speed>0.010000</speed>
</trkpt>
<trkpt lat="56.069847" lon="26.463507">
<ele>114.442444</ele>
<time>2010-08-29T13:03:26Z</time>
<desc>lat.=56.069847, lon.=26.463507, Alt.=114.442444m. Speed=0.000000m/h.</desc>
<speed>0.000000</speed>
</trkpt>
<trkpt lat="56.069847" lon="26.463507">
<ele>114.442444</ele>
<time>2010-08-29T13:03:27Z</time>
<desc>lat.=56.069847, lon.=26.463507, Alt.=114.442444m. Speed=0.072000m/h.</desc>
<speed>0.020000</speed>
</trkpt>
<trkpt lat="56.069847" lon="26.463507">
<ele>114.442444</ele>
<time>2010-08-29T13:03:28Z</time>
<desc>lat.=56.069847, lon.=26.463507, Alt.=114.442444m. Speed=0.036000m/h.</desc>
<speed>0.010000</speed>
</trkpt>
<trkpt lat="56.069847" lon="26.463507">
<ele>114.442444</ele>
<time>2010-08-29T13:03:29Z</time>
<desc>lat.=56.069847, lon.=26.463507, Alt.=114.442444m. Speed=0.108000m/h.</desc>
<speed>0.030000</speed>
</trkpt>
<trkpt lat="56.069847" lon="26.463509">
<ele>114.444397</ele>
<time>2010-08-29T13:03:30Z</time>
<desc>lat.=56.069847, lon.=26.463509, Alt.=114.444397m. Speed=0.108000m/h.</desc>
<speed>0.030000</speed>
</trkpt>
<trkpt lat="56.069847" lon="26.463509">
<ele>114.444397</ele>
<time>2010-08-29T13:03:31Z</time>
<desc>lat.=56.069847, lon.=26.463509, Alt.=114.444397m. Speed=0.108000m/h.</desc>
<speed>0.030000</speed>
</trkpt>
<trkpt lat="56.069847" lon="26.463509">
<ele>114.446350</ele>
<time>2010-08-29T13:03:32Z</time>
<desc>lat.=56.069847, lon.=26.463509, Alt.=114.446350m. Speed=0.108000m/h.</desc>
<speed>0.030000</speed>
</trkpt>
<trkpt lat="56.069847" lon="26.463509">
<ele>114.446350</ele>
<time>2010-08-29T13:03:33Z</time>
<desc>lat.=56.069847, lon.=26.463509, Alt.=114.446350m. Speed=0.108000m/h.</desc>
<speed>0.030000</speed>
</trkpt>
<trkpt lat="56.069847" lon="26.463511">
<ele>114.448303</ele>
<time>2010-08-29T13:03:34Z</time>
<desc>lat.=56.069847, lon.=26.463511, Alt.=114.448303m. Speed=0.108000m/h.</desc>
<speed>0.030000</speed>
</trkpt>
<trkpt lat="56.069847" lon="26.463511">
<ele>114.448303</ele>
<time>2010-08-29T13:03:35Z</time>
<desc>lat.=56.069847, lon.=26.463511, Alt.=114.448303m. Speed=0.360000m/h.</desc>
<speed>0.100000</speed>
</trkpt>
<trkpt lat="56.069847" lon="26.463512">
<ele>114.452209</ele>
<time>2010-08-29T13:03:36Z</time>
<desc>lat.=56.069847, lon.=26.463512, Alt.=114.452209m. Speed=0.288000m/h.</desc>
<speed>0.080000</speed>
</trkpt>
<trkpt lat="56.069847" lon="26.463512">
<ele>114.452209</ele>
<time>2010-08-29T13:03:37Z</time>
<desc>lat.=56.069847, lon.=26.463512, Alt.=114.452209m. Speed=0.396000m/h.</desc>
<speed>0.110000</speed>
</trkpt>
<trkpt lat="56.069847" lon="26.463512">
<ele>114.452209</ele>
<time>2010-08-29T13:03:38Z</time>
<desc>lat.=56.069847, lon.=26.463512, Alt.=114.452209m. Speed=0.324000m/h.</desc>
<speed>0.090000</speed>
</trkpt>
<trkpt lat="56.069847" lon="26.463512">
<ele>114.452209</ele>
<time>2010-08-29T13:03:39Z</time>
<desc>lat.=56.069847, lon.=26.463512, Alt.=114.452209m. Speed=0.360000m/h.</desc>
<speed>0.100000</speed>
</trkpt>
<trkpt lat="56.069851" lon="26.463514">
<ele>114.452209</ele>
<time>2010-08-29T13:03:40Z</time>
<desc>lat.=56.069851, lon.=26.463514, Alt.=114.452209m. Speed=0.504000m/h.</desc>
<speed>0.140000</speed>
</trkpt>
<trkpt lat="56.069851" lon="26.463514">
<ele>114.452209</ele>
<time>2010-08-29T13:03:41Z</time>
<desc>lat.=56.069851, lon.=26.463514, Alt.=114.452209m. Speed=0.396000m/h.</desc>
<speed>0.110000</speed>
</trkpt>
<trkpt lat="56.069851" lon="26.463516">
<ele>114.454163</ele>
<time>2010-08-29T13:03:42Z</time>
<desc>lat.=56.069851, lon.=26.463516, Alt.=114.454163m. Speed=0.432000m/h.</desc>
<speed>0.120000</speed>
</trkpt>
<trkpt lat="56.069855" lon="26.463516">
<ele>114.454163</ele>
<time>2010-08-29T13:03:43Z</time>
<desc>lat.=56.069855, lon.=26.463516, Alt.=114.454163m. Speed=0.504000m/h.</desc>
<speed>0.140000</speed>
</trkpt>
<trkpt lat="56.069855" lon="26.463516">
<ele>114.454163</ele>
<time>2010-08-29T13:03:44Z</time>
<desc>lat.=56.069855, lon.=26.463516, Alt.=114.454163m. Speed=0.576000m/h.</desc>
<speed>0.160000</speed>
</trkpt>
<trkpt lat="56.069855" lon="26.463516">
<ele>114.454163</ele>
<time>2010-08-29T13:03:45Z</time>
<desc>lat.=56.069855, lon.=26.463516, Alt.=114.454163m. Speed=0.576000m/h.</desc>
<speed>0.160000</speed>
</trkpt>
<trkpt lat="56.069859" lon="26.463516">
<ele>114.454163</ele>
<time>2010-08-29T13:03:46Z</time>
<desc>lat.=56.069859, lon.=26.463516, Alt.=114.454163m. Speed=0.612000m/h.</desc>
<speed>0.170000</speed>
</trkpt>
<trkpt lat="56.069859" lon="26.463514">
<ele>114.452209</ele>
<time>2010-08-29T13:03:47Z</time>
<desc>lat.=56.069859, lon.=26.463514, Alt.=114.452209m. Speed=0.648000m/h.</desc>
<speed>0.180000</speed>
</trkpt>
<trkpt lat="56.069862" lon="26.463514">
<ele>114.452209</ele>
<time>2010-08-29T13:03:48Z</time>
<desc>lat.=56.069862, lon.=26.463514, Alt.=114.452209m. Speed=0.720000m/h.</desc>
<speed>0.200000</speed>
</trkpt>
<trkpt lat="56.069862" lon="26.463512">
<ele>114.452209</ele>
<time>2010-08-29T13:03:49Z</time>
<desc>lat.=56.069862, lon.=26.463512, Alt.=114.452209m. Speed=0.756000m/h.</desc>
<speed>0.210000</speed>
</trkpt>
<trkpt lat="56.069862" lon="26.463512">
<ele>114.452209</ele>
<time>2010-08-29T13:03:50Z</time>
<desc>lat.=56.069862, lon.=26.463512, Alt.=114.452209m. Speed=0.792000m/h.</desc>
<speed>0.220000</speed>
</trkpt>
<trkpt lat="56.069866" lon="26.463511">
<ele>114.452209</ele>
<time>2010-08-29T13:03:51Z</time>
<desc>lat.=56.069866, lon.=26.463511, Alt.=114.452209m. Speed=0.900000m/h.</desc>
<speed>0.250000</speed>
</trkpt>
<trkpt lat="56.069870" lon="26.463509">
<ele>114.454163</ele>
<time>2010-08-29T13:03:52Z</time>
<desc>lat.=56.069870, lon.=26.463509, Alt.=114.454163m. Speed=0.936000m/h.</desc>
<speed>0.260000</speed>
</trkpt>
<trkpt lat="56.069870" lon="26.463507">
<ele>114.454163</ele>
<time>2010-08-29T13:03:53Z</time>
<desc>lat.=56.069870, lon.=26.463507, Alt.=114.454163m. Speed=1.116000m/h.</desc>
<speed>0.310000</speed>
</trkpt>
<trkpt lat="56.069874" lon="26.463505">
<ele>114.516663</ele>
<time>2010-08-29T13:03:54Z</time>
<desc>lat.=56.069874, lon.=26.463505, Alt.=114.516663m. Speed=1.116000m/h.</desc>
<speed>0.310000</speed>
</trkpt>
<trkpt lat="56.069881" lon="26.463495">
<ele>114.528381</ele>
<time>2010-08-29T13:03:55Z</time>
<desc>lat.=56.069881, lon.=26.463495, Alt.=114.528381m. Speed=1.188000m/h.</desc>
<speed>0.330000</speed>
</trkpt>
<trkpt lat="56.069889" lon="26.463488">
<ele>114.526428</ele>
<time>2010-08-29T13:03:56Z</time>
<desc>lat.=56.069889, lon.=26.463488, Alt.=114.526428m. Speed=1.296000m/h.</desc>
<speed>0.360000</speed>
</trkpt>
<trkpt lat="56.069893" lon="26.463476">
<ele>114.551819</ele>
<time>2010-08-29T13:03:57Z</time>
<desc>lat.=56.069893, lon.=26.463476, Alt.=114.551819m. Speed=1.368000m/h.</desc>
<speed>0.380000</speed>
</trkpt>
<trkpt lat="56.069897" lon="26.463469">
<ele>114.557678</ele>
<time>2010-08-29T13:03:58Z</time>
<desc>lat.=56.069897, lon.=26.463469, Alt.=114.557678m. Speed=1.368000m/h.</desc>
<speed>0.380000</speed>
</trkpt>
<trkpt lat="56.069901" lon="26.463459">
<ele>114.602600</ele>
<time>2010-08-29T13:03:59Z</time>
<desc>lat.=56.069901, lon.=26.463459, Alt.=114.602600m. Speed=1.368000m/h.</desc>
<speed>0.380000</speed>
</trkpt>
<trkpt lat="56.069904" lon="26.463448">
<ele>114.637756</ele>
<time>2010-08-29T13:04:00Z</time>
<desc>lat.=56.069904, lon.=26.463448, Alt.=114.637756m. Speed=1.404000m/h.</desc>
<speed>0.390000</speed>
</trkpt>
<trkpt lat="56.069912" lon="26.463436">
<ele>114.626038</ele>
<time>2010-08-29T13:04:01Z</time>
<desc>lat.=56.069912, lon.=26.463436, Alt.=114.626038m. Speed=1.440000m/h.</desc>
<speed>0.400000</speed>
</trkpt>
<trkpt lat="56.069923" lon="26.463421">
<ele>114.622131</ele>
<time>2010-08-29T13:04:02Z</time>
<desc>lat.=56.069923, lon.=26.463421, Alt.=114.622131m. Speed=1.584000m/h.</desc>
<speed>0.440000</speed>
</trkpt>
<trkpt lat="56.069935" lon="26.463425">
<ele>114.653381</ele>
<time>2010-08-29T13:04:03Z</time>
<desc>lat.=56.069935, lon.=26.463425, Alt.=114.653381m. Speed=1.692000m/h.</desc>
<speed>0.470000</speed>
</trkpt>
<trkpt lat="56.069912" lon="26.463430">
<ele>114.692444</ele>
<time>2010-08-29T13:04:04Z</time>
<desc>lat.=56.069912, lon.=26.463430, Alt.=114.692444m. Speed=0.108000m/h.</desc>
<speed>0.030000</speed>
</trkpt>
<trkpt lat="56.069916" lon="26.463417">
<ele>114.688538</ele>
<time>2010-08-29T13:04:05Z</time>
<desc>lat.=56.069916, lon.=26.463417, Alt.=114.688538m. Speed=0.756000m/h.</desc>
<speed>0.210000</speed>
</trkpt>
<trkpt lat="56.069923" lon="26.463406">
<ele>114.674866</ele>
<time>2010-08-29T13:04:06Z</time>
<desc>lat.=56.069923, lon.=26.463406, Alt.=114.674866m. Speed=0.756000m/h.</desc>
<speed>0.210000</speed>
</trkpt>
<trkpt lat="56.069920" lon="26.463385">
<ele>114.555725</ele>
<time>2010-08-29T13:04:07Z</time>
<desc>lat.=56.069920, lon.=26.463385, Alt.=114.555725m. Speed=0.720000m/h.</desc>
<speed>0.200000</speed>
</trkpt>
<trkpt lat="56.069923" lon="26.463385">
<ele>114.544006</ele>
<time>2010-08-29T13:04:08Z</time>
<desc>lat.=56.069923, lon.=26.463385, Alt.=114.544006m. Speed=0.720000m/h.</desc>
<speed>0.200000</speed>
</trkpt>
<trkpt lat="56.069923" lon="26.463383">
<ele>114.536194</ele>
<time>2010-08-29T13:04:09Z</time>
<desc>lat.=56.069923, lon.=26.463383, Alt.=114.536194m. Speed=0.504000m/h.</desc>
<speed>0.140000</speed>
</trkpt>
<trkpt lat="56.069927" lon="26.463383">
<ele>114.530334</ele>
<time>2010-08-29T13:04:10Z</time>
<desc>lat.=56.069927, lon.=26.463383, Alt.=114.530334m. Speed=0.000000m/h.</desc>
<speed>0.000000</speed>
</trkpt>
<trkpt lat="56.069927" lon="26.463383">
<ele>114.522522</ele>
<time>2010-08-29T13:04:11Z</time>
<desc>lat.=56.069927, lon.=26.463383, Alt.=114.522522m. Speed=0.036000m/h.</desc>
<speed>0.010000</speed>
</trkpt>
<trkpt lat="56.069927" lon="26.463383">
<ele>114.512756</ele>
<time>2010-08-29T13:04:12Z</time>
<desc>lat.=56.069927, lon.=26.463383, Alt.=114.512756m. Speed=0.036000m/h.</desc>
<speed>0.010000</speed>
</trkpt>
<trkpt lat="56.069927" lon="26.463385">
<ele>114.501038</ele>
<time>2010-08-29T13:04:13Z</time>
<desc>lat.=56.069927, lon.=26.463385, Alt.=114.501038m. Speed=0.036000m/h.</desc>
<speed>0.010000</speed>
</trkpt>
<trkpt lat="56.069927" lon="26.463385">
<ele>114.491272</ele>
<time>2010-08-29T13:04:14Z</time>
<desc>lat.=56.069927, lon.=26.463385, Alt.=114.491272m. Speed=0.000000m/h.</desc>
<speed>0.000000</speed>
</trkpt>
<trkpt lat="56.069927" lon="26.463385">
<ele>114.477600</ele>
<time>2010-08-29T13:04:15Z</time>
<desc>lat.=56.069927, lon.=26.463385, Alt.=114.477600m. Speed=0.072000m/h.</desc>
<speed>0.020000</speed>
</trkpt>
<trkpt lat="56.069927" lon="26.463385">
<ele>114.461975</ele>
<time>2010-08-29T13:04:16Z</time>
<desc>lat.=56.069927, lon.=26.463385, Alt.=114.461975m. Speed=0.072000m/h.</desc>
<speed>0.020000</speed>
</trkpt>
<trkpt lat="56.069927" lon="26.463385">
<ele>114.448303</ele>
<time>2010-08-29T13:04:17Z</time>
<desc>lat.=56.069927, lon.=26.463385, Alt.=114.448303m. Speed=0.108000m/h.</desc>
<speed>0.030000</speed>
</trkpt>
<trkpt lat="56.069927" lon="26.463385">
<ele>114.432678</ele>
<time>2010-08-29T13:04:18Z</time>
<desc>lat.=56.069927, lon.=26.463385, Alt.=114.432678m. Speed=0.072000m/h.</desc>
<speed>0.020000</speed>
</trkpt>
<trkpt lat="56.069927" lon="26.463385">
<ele>114.419006</ele>
<time>2010-08-29T13:04:19Z</time>
<desc>lat.=56.069927, lon.=26.463385, Alt.=114.419006m. Speed=0.036000m/h.</desc>
<speed>0.010000</speed>
</trkpt>
<trkpt lat="56.069927" lon="26.463385">
<ele>114.403381</ele>
<time>2010-08-29T13:04:20Z</time>
<desc>lat.=56.069927, lon.=26.463385, Alt.=114.403381m. Speed=0.072000m/h.</desc>
<speed>0.020000</speed>
</trkpt>
<trkpt lat="56.069927" lon="26.463385">
<ele>114.389709</ele>
<time>2010-08-29T13:04:21Z</time>
<desc>lat.=56.069927, lon.=26.463385, Alt.=114.389709m. Speed=0.108000m/h.</desc>
<speed>0.030000</speed>
</trkpt>
<trkpt lat="56.069927" lon="26.463385">
<ele>114.374084</ele>
<time>2010-08-29T13:04:22Z</time>
<desc>lat.=56.069927, lon.=26.463385, Alt.=114.374084m. Speed=0.144000m/h.</desc>
<speed>0.040000</speed>
</trkpt>
<trkpt lat="56.069927" lon="26.463383">
<ele>114.360413</ele>
<time>2010-08-29T13:04:23Z</time>
<desc>lat.=56.069927, lon.=26.463383, Alt.=114.360413m. Speed=0.216000m/h.</desc>
<speed>0.060000</speed>
</trkpt>
<trkpt lat="56.069927" lon="26.463383">
<ele>114.344788</ele>
<time>2010-08-29T13:04:24Z</time>
<desc>lat.=56.069927, lon.=26.463383, Alt.=114.344788m. Speed=0.396000m/h.</desc>
<speed>0.110000</speed>
</trkpt>
<trkpt lat="56.069931" lon="26.463381">
<ele>114.331116</ele>
<time>2010-08-29T13:04:25Z</time>
<desc>lat.=56.069931, lon.=26.463381, Alt.=114.331116m. Speed=0.432000m/h.</desc>
<speed>0.120000</speed>
</trkpt>
<trkpt lat="56.069931" lon="26.463379">
<ele>114.317444</ele>
<time>2010-08-29T13:04:26Z</time>
<desc>lat.=56.069931, lon.=26.463379, Alt.=114.317444m. Speed=0.468000m/h.</desc>
<speed>0.130000</speed>
</trkpt>
<trkpt lat="56.069931" lon="26.463379">
<ele>114.301819</ele>
<time>2010-08-29T13:04:27Z</time>
<desc>lat.=56.069931, lon.=26.463379, Alt.=114.301819m. Speed=0.432000m/h.</desc>
<speed>0.120000</speed>
</trkpt>
<trkpt lat="56.069931" lon="26.463377">
<ele>114.284241</ele>
<time>2010-08-29T13:04:28Z</time>
<desc>lat.=56.069931, lon.=26.463377, Alt.=114.284241m. Speed=0.432000m/h.</desc>
<speed>0.120000</speed>
</trkpt>
<trkpt lat="56.069931" lon="26.463375">
<ele>114.268616</ele>
<time>2010-08-29T13:04:29Z</time>
<desc>lat.=56.069931, lon.=26.463375, Alt.=114.268616m. Speed=0.324000m/h.</desc>
<speed>0.090000</speed>
</trkpt>
<trkpt lat="56.069935" lon="26.463375">
<ele>114.251038</ele>
<time>2010-08-29T13:04:30Z</time>
<desc>lat.=56.069935, lon.=26.463375, Alt.=114.251038m. Speed=0.324000m/h.</desc>
<speed>0.090000</speed>
</trkpt>
<trkpt lat="56.069935" lon="26.463373">
<ele>114.235413</ele>
<time>2010-08-29T13:04:31Z</time>
<desc>lat.=56.069935, lon.=26.463373, Alt.=114.235413m. Speed=0.396000m/h.</desc>
<speed>0.110000</speed>
</trkpt>
<trkpt lat="56.069935" lon="26.463373">
<ele>114.221741</ele>
<time>2010-08-29T13:04:32Z</time>
<desc>lat.=56.069935, lon.=26.463373, Alt.=114.221741m. Speed=0.648000m/h.</desc>
<speed>0.180000</speed>
</trkpt>
<trkpt lat="56.069939" lon="26.463371">
<ele>114.206116</ele>
<time>2010-08-29T13:04:33Z</time>
<desc>lat.=56.069939, lon.=26.463371, Alt.=114.206116m. Speed=0.792000m/h.</desc>
<speed>0.220000</speed>
</trkpt>
<trkpt lat="56.069939" lon="26.463369">
<ele>114.190491</ele>
<time>2010-08-29T13:04:34Z</time>
<desc>lat.=56.069939, lon.=26.463369, Alt.=114.190491m. Speed=0.864000m/h.</desc>
<speed>0.240000</speed>
</trkpt>
<trkpt lat="56.069939" lon="26.463367">
<ele>114.176819</ele>
<time>2010-08-29T13:04:35Z</time>
<desc>lat.=56.069939, lon.=26.463367, Alt.=114.176819m. Speed=0.900000m/h.</desc>
<speed>0.250000</speed>
</trkpt>
<trkpt lat="56.069942" lon="26.463364">
<ele>114.161194</ele>
<time>2010-08-29T13:04:36Z</time>
<desc>lat.=56.069942, lon.=26.463364, Alt.=114.161194m. Speed=0.936000m/h.</desc>
<speed>0.260000</speed>
</trkpt>
<trkpt lat="56.069946" lon="26.463362">
<ele>114.145569</ele>
<time>2010-08-29T13:04:37Z</time>
<desc>lat.=56.069946, lon.=26.463362, Alt.=114.145569m. Speed=1.224000m/h.</desc>
<speed>0.340000</speed>
</trkpt>
<trkpt lat="56.069950" lon="26.463360">
<ele>114.151428</ele>
<time>2010-08-29T13:04:38Z</time>
<desc>lat.=56.069950, lon.=26.463360, Alt.=114.151428m. Speed=1.260000m/h.</desc>
<speed>0.350000</speed>
</trkpt>
<trkpt lat="56.069954" lon="26.463356">
<ele>114.135803</ele>
<time>2010-08-29T13:04:39Z</time>
<desc>lat.=56.069954, lon.=26.463356, Alt.=114.135803m. Speed=1.260000m/h.</desc>
<speed>0.350000</speed>
</trkpt>
<trkpt lat="56.069962" lon="26.463346">
<ele>114.124084</ele>
<time>2010-08-29T13:04:40Z</time>
<desc>lat.=56.069962, lon.=26.463346, Alt.=114.124084m. Speed=1.332000m/h.</desc>
<speed>0.370000</speed>
</trkpt>
<trkpt lat="56.069969" lon="26.463345">
<ele>114.127991</ele>
<time>2010-08-29T13:04:41Z</time>
<desc>lat.=56.069969, lon.=26.463345, Alt.=114.127991m. Speed=1.404000m/h.</desc>
<speed>0.390000</speed>
</trkpt>
<trkpt lat="56.069977" lon="26.463335">
<ele>114.124084</ele>
<time>2010-08-29T13:04:42Z</time>
<desc>lat.=56.069977, lon.=26.463335, Alt.=114.124084m. Speed=1.476000m/h.</desc>
<speed>0.410000</speed>
</trkpt>
<trkpt lat="56.069984" lon="26.463333">
<ele>114.124084</ele>
<time>2010-08-29T13:04:43Z</time>
<desc>lat.=56.069984, lon.=26.463333, Alt.=114.124084m. Speed=1.512000m/h.</desc>
<speed>0.420000</speed>
</trkpt>
<trkpt lat="56.069992" lon="26.463327">
<ele>114.126038</ele>
<time>2010-08-29T13:04:44Z</time>
<desc>lat.=56.069992, lon.=26.463327, Alt.=114.126038m. Speed=1.584000m/h.</desc>
<speed>0.440000</speed>
</trkpt>
<trkpt lat="56.070000" lon="26.463320">
<ele>114.116272</ele>
<time>2010-08-29T13:04:45Z</time>
<desc>lat.=56.070000, lon.=26.463320, Alt.=114.116272m. Speed=1.656000m/h.</desc>
<speed>0.460000</speed>
</trkpt>
<trkpt lat="56.070007" lon="26.463314">
<ele>114.108459</ele>
<time>2010-08-29T13:04:46Z</time>
<desc>lat.=56.070007, lon.=26.463314, Alt.=114.108459m. Speed=1.692000m/h.</desc>
<speed>0.470000</speed>
</trkpt>
<trkpt lat="56.070015" lon="26.463306">
<ele>114.108459</ele>
<time>2010-08-29T13:04:47Z</time>
<desc>lat.=56.070015, lon.=26.463306, Alt.=114.108459m. Speed=1.764000m/h.</desc>
<speed>0.490000</speed>
</trkpt>
<trkpt lat="56.070034" lon="26.463282">
<ele>114.092834</ele>
<time>2010-08-29T13:04:48Z</time>
<desc>lat.=56.070034, lon.=26.463282, Alt.=114.092834m. Speed=1.980000m/h.</desc>
<speed>0.550000</speed>
</trkpt>
<trkpt lat="56.070042" lon="26.463253">
<ele>114.090881</ele>
<time>2010-08-29T13:04:49Z</time>
<desc>lat.=56.070042, lon.=26.463253, Alt.=114.090881m. Speed=2.016000m/h.</desc>
<speed>0.560000</speed>
</trkpt>
<trkpt lat="56.070042" lon="26.463221">
<ele>114.129944</ele>
<time>2010-08-29T13:04:50Z</time>
<desc>lat.=56.070042, lon.=26.463221, Alt.=114.129944m. Speed=1.944000m/h.</desc>
<speed>0.540000</speed>
</trkpt>
<trkpt lat="56.070053" lon="26.463192">
<ele>114.159241</ele>
<time>2010-08-29T13:04:51Z</time>
<desc>lat.=56.070053, lon.=26.463192, Alt.=114.159241m. Speed=1.620000m/h.</desc>
<speed>0.450000</speed>
</trkpt>
<trkpt lat="56.070065" lon="26.463181">
<ele>114.196350</ele>
<time>2010-08-29T13:04:52Z</time>
<desc>lat.=56.070065, lon.=26.463181, Alt.=114.196350m. Speed=1.404000m/h.</desc>
<speed>0.390000</speed>
</trkpt>
<trkpt lat="56.070053" lon="26.463181">
<ele>114.225647</ele>
<time>2010-08-29T13:04:53Z</time>
<desc>lat.=56.070053, lon.=26.463181, Alt.=114.225647m. Speed=0.216000m/h.</desc>
<speed>0.060000</speed>
</trkpt>
<trkpt lat="56.070049" lon="26.463160">
<ele>114.260803</ele>
<time>2010-08-29T13:04:54Z</time>
<desc>lat.=56.070049, lon.=26.463160, Alt.=114.260803m. Speed=0.000000m/h.</desc>
<speed>0.000000</speed>
</trkpt>
<trkpt lat="56.070045" lon="26.463140">
<ele>114.127991</ele>
<time>2010-08-29T13:04:55Z</time>
<desc>lat.=56.070045, lon.=26.463140, Alt.=114.127991m. Speed=0.180000m/h.</desc>
<speed>0.050000</speed>
</trkpt>
<trkpt lat="56.070042" lon="26.463123">
<ele>114.092834</ele>
<time>2010-08-29T13:04:56Z</time>
<desc>lat.=56.070042, lon.=26.463123, Alt.=114.092834m. Speed=0.360000m/h.</desc>
<speed>0.100000</speed>
</trkpt>
<trkpt lat="56.070042" lon="26.463123">
<ele>114.075256</ele>
<time>2010-08-29T13:04:57Z</time>
<desc>lat.=56.070042, lon.=26.463123, Alt.=114.075256m. Speed=0.720000m/h.</desc>
<speed>0.200000</speed>
</trkpt>
<trkpt lat="56.070038" lon="26.463121">
<ele>114.055725</ele>
<time>2010-08-29T13:04:58Z</time>
<desc>lat.=56.070038, lon.=26.463121, Alt.=114.055725m. Speed=0.720000m/h.</desc>
<speed>0.200000</speed>
</trkpt>
<trkpt lat="56.070038" lon="26.463120">
<ele>114.036194</ele>
<time>2010-08-29T13:04:59Z</time>
<desc>lat.=56.070038, lon.=26.463120, Alt.=114.036194m. Speed=0.756000m/h.</desc>
<speed>0.210000</speed>
</trkpt>
<trkpt lat="56.070034" lon="26.463118">
<ele>114.016663</ele>
<time>2010-08-29T13:05:00Z</time>
<desc>lat.=56.070034, lon.=26.463118, Alt.=114.016663m. Speed=0.864000m/h.</desc>
<speed>0.240000</speed>
</trkpt>
<trkpt lat="56.070034" lon="26.463118">
<ele>113.997131</ele>
<time>2010-08-29T13:05:01Z</time>
<desc>lat.=56.070034, lon.=26.463118, Alt.=113.997131m. Speed=0.504000m/h.</desc>
<speed>0.140000</speed>
</trkpt>
<trkpt lat="56.070034" lon="26.463116">
<ele>113.979553</ele>
<time>2010-08-29T13:05:02Z</time>
<desc>lat.=56.070034, lon.=26.463116, Alt.=113.979553m. Speed=0.468000m/h.</desc>
<speed>0.130000</speed>
</trkpt>
<trkpt lat="56.070030" lon="26.463116">
<ele>113.961975</ele>
<time>2010-08-29T13:05:03Z</time>
<desc>lat.=56.070030, lon.=26.463116, Alt.=113.961975m. Speed=0.468000m/h.</desc>
<speed>0.130000</speed>
</trkpt>
<trkpt lat="56.070030" lon="26.463116">
<ele>113.942444</ele>
<time>2010-08-29T13:05:04Z</time>
<desc>lat.=56.070030, lon.=26.463116, Alt.=113.942444m. Speed=0.468000m/h.</desc>
<speed>0.130000</speed>
</trkpt>
<trkpt lat="56.070030" lon="26.463116">
<ele>113.924866</ele>
<time>2010-08-29T13:05:05Z</time>
<desc>lat.=56.070030, lon.=26.463116, Alt.=113.924866m. Speed=0.720000m/h.</desc>
<speed>0.200000</speed>
</trkpt>
<trkpt lat="56.070026" lon="26.463116">
<ele>113.911194</ele>
<time>2010-08-29T13:05:06Z</time>
<desc>lat.=56.070026, lon.=26.463116, Alt.=113.911194m. Speed=0.720000m/h.</desc>
<speed>0.200000</speed>
</trkpt>
<trkpt lat="56.070026" lon="26.463116">
<ele>113.899475</ele>
<time>2010-08-29T13:05:07Z</time>
<desc>lat.=56.070026, lon.=26.463116, Alt.=113.899475m. Speed=0.720000m/h.</desc>
<speed>0.200000</speed>
</trkpt>
<trkpt lat="56.070023" lon="26.463114">
<ele>113.885803</ele>
<time>2010-08-29T13:05:08Z</time>
<desc>lat.=56.070023, lon.=26.463114, Alt.=113.885803m. Speed=0.648000m/h.</desc>
<speed>0.180000</speed>
</trkpt>
<trkpt lat="56.070023" lon="26.463114">
<ele>113.874084</ele>
<time>2010-08-29T13:05:09Z</time>
<desc>lat.=56.070023, lon.=26.463114, Alt.=113.874084m. Speed=0.576000m/h.</desc>
<speed>0.160000</speed>
</trkpt>
<trkpt lat="56.070023" lon="26.463116">
<ele>113.862366</ele>
<time>2010-08-29T13:05:10Z</time>
<desc>lat.=56.070023, lon.=26.463116, Alt.=113.862366m. Speed=0.576000m/h.</desc>
<speed>0.160000</speed>
</trkpt>
<trkpt lat="56.070019" lon="26.463118">
<ele>113.848694</ele>
<time>2010-08-29T13:05:11Z</time>
<desc>lat.=56.070019, lon.=26.463118, Alt.=113.848694m. Speed=0.540000m/h.</desc>
<speed>0.150000</speed>
</trkpt>
<trkpt lat="56.070019" lon="26.463120">
<ele>113.838928</ele>
<time>2010-08-29T13:05:12Z</time>
<desc>lat.=56.070019, lon.=26.463120, Alt.=113.838928m. Speed=0.468000m/h.</desc>
<speed>0.130000</speed>
</trkpt>
<trkpt lat="56.070019" lon="26.463121">
<ele>113.829163</ele>
<time>2010-08-29T13:05:13Z</time>
<desc>lat.=56.070019, lon.=26.463121, Alt.=113.829163m. Speed=0.504000m/h.</desc>
<speed>0.140000</speed>
</trkpt>
<trkpt lat="56.070019" lon="26.463121">
<ele>113.815491</ele>
<time>2010-08-29T13:05:14Z</time>
<desc>lat.=56.070019, lon.=26.463121, Alt.=113.815491m. Speed=0.000000m/h.</desc>
<speed>0.000000</speed>
</trkpt>
<trkpt lat="56.070019" lon="26.463121">
<ele>113.803772</ele>
<time>2010-08-29T13:05:15Z</time>
<desc>lat.=56.070019, lon.=26.463121, Alt.=113.803772m. Speed=0.036000m/h.</desc>
<speed>0.010000</speed>
</trkpt>
<trkpt lat="56.070019" lon="26.463123">
<ele>113.795959</ele>
<time>2010-08-29T13:05:16Z</time>
<desc>lat.=56.070019, lon.=26.463123, Alt.=113.795959m. Speed=0.180000m/h.</desc>
<speed>0.050000</speed>
</trkpt>
<trkpt lat="56.070019" lon="26.463123">
<ele>113.782288</ele>
<time>2010-08-29T13:05:17Z</time>
<desc>lat.=56.070019, lon.=26.463123, Alt.=113.782288m. Speed=0.036000m/h.</desc>
<speed>0.010000</speed>
</trkpt>
<trkpt lat="56.070019" lon="26.463123">
<ele>113.766663</ele>
<time>2010-08-29T13:05:18Z</time>
<desc>lat.=56.070019, lon.=26.463123, Alt.=113.766663m. Speed=0.108000m/h.</desc>
<speed>0.030000</speed>
</trkpt>
<trkpt lat="56.070019" lon="26.463125">
<ele>113.752991</ele>
<time>2010-08-29T13:05:19Z</time>
<desc>lat.=56.070019, lon.=26.463125, Alt.=113.752991m. Speed=0.072000m/h.</desc>
<speed>0.020000</speed>
</trkpt>
<trkpt lat="56.070019" lon="26.463125">
<ele>113.741272</ele>
<time>2010-08-29T13:05:20Z</time>
<desc>lat.=56.070019, lon.=26.463125, Alt.=113.741272m. Speed=0.036000m/h.</desc>
<speed>0.010000</speed>
</trkpt>
<trkpt lat="56.070019" lon="26.463125">
<ele>113.725647</ele>
<time>2010-08-29T13:05:21Z</time>
<desc>lat.=56.070019, lon.=26.463125, Alt.=113.725647m. Speed=0.108000m/h.</desc>
<speed>0.030000</speed>
</trkpt>
<trkpt lat="56.070019" lon="26.463125">
<ele>113.711975</ele>
<time>2010-08-29T13:05:22Z</time>
<desc>lat.=56.070019, lon.=26.463125, Alt.=113.711975m. Speed=0.216000m/h.</desc>
<speed>0.060000</speed>
</trkpt>
<trkpt lat="56.070019" lon="26.463123">
<ele>113.698303</ele>
<time>2010-08-29T13:05:23Z</time>
<desc>lat.=56.070019, lon.=26.463123, Alt.=113.698303m. Speed=0.252000m/h.</desc>
<speed>0.070000</speed>
</trkpt>
<trkpt lat="56.070019" lon="26.463121">
<ele>113.678772</ele>
<time>2010-08-29T13:05:24Z</time>
<desc>lat.=56.070019, lon.=26.463121, Alt.=113.678772m. Speed=1.152000m/h.</desc>
<speed>0.320000</speed>
</trkpt>
<trkpt lat="56.070023" lon="26.463118">
<ele>113.659241</ele>
<time>2010-08-29T13:05:25Z</time>
<desc>lat.=56.070023, lon.=26.463118, Alt.=113.659241m. Speed=1.152000m/h.</desc>
<speed>0.320000</speed>
</trkpt>
<trkpt lat="56.070030" lon="26.463116">
<ele>113.631897</ele>
<time>2010-08-29T13:05:26Z</time>
<desc>lat.=56.070030, lon.=26.463116, Alt.=113.631897m. Speed=1.152000m/h.</desc>
<speed>0.320000</speed>
</trkpt>
<trkpt lat="56.070049" lon="26.463099">
<ele>113.710022</ele>
<time>2010-08-29T13:05:27Z</time>
<desc>lat.=56.070049, lon.=26.463099, Alt.=113.710022m. Speed=1.224000m/h.</desc>
<speed>0.340000</speed>
</trkpt>
<trkpt lat="56.070068" lon="26.463099">
<ele>113.690491</ele>
<time>2010-08-29T13:05:28Z</time>
<desc>lat.=56.070068, lon.=26.463099, Alt.=113.690491m. Speed=1.224000m/h.</desc>
<speed>0.340000</speed>
</trkpt>
<trkpt lat="56.070091" lon="26.463087">
<ele>113.637756</ele>
<time>2010-08-29T13:05:29Z</time>
<desc>lat.=56.070091, lon.=26.463087, Alt.=113.637756m. Speed=1.332000m/h.</desc>
<speed>0.370000</speed>
</trkpt>
<trkpt lat="56.070103" lon="26.463091">
<ele>113.620178</ele>
<time>2010-08-29T13:05:30Z</time>
<desc>lat.=56.070103, lon.=26.463091, Alt.=113.620178m. Speed=1.080000m/h.</desc>
<speed>0.300000</speed>
</trkpt>
<trkpt lat="56.070103" lon="26.463089">
<ele>113.698303</ele>
<time>2010-08-29T13:05:31Z</time>
<desc>lat.=56.070103, lon.=26.463089, Alt.=113.698303m. Speed=0.936000m/h.</desc>
<speed>0.260000</speed>
</trkpt>
<trkpt lat="56.070107" lon="26.463087">
<ele>113.696350</ele>
<time>2010-08-29T13:05:32Z</time>
<desc>lat.=56.070107, lon.=26.463087, Alt.=113.696350m. Speed=1.080000m/h.</desc>
<speed>0.300000</speed>
</trkpt>
<trkpt lat="56.070114" lon="26.463099">
<ele>113.432678</ele>
<time>2010-08-29T13:05:33Z</time>
<desc>lat.=56.070114, lon.=26.463099, Alt.=113.432678m. Speed=0.864000m/h.</desc>
<speed>0.240000</speed>
</trkpt>
<trkpt lat="56.070118" lon="26.463100">
<ele>113.145569</ele>
<time>2010-08-29T13:05:34Z</time>
<desc>lat.=56.070118, lon.=26.463100, Alt.=113.145569m. Speed=0.720000m/h.</desc>
<speed>0.200000</speed>
</trkpt>
<trkpt lat="56.070118" lon="26.463110">
<ele>112.946350</ele>
<time>2010-08-29T13:05:35Z</time>
<desc>lat.=56.070118, lon.=26.463110, Alt.=112.946350m. Speed=0.252000m/h.</desc>
<speed>0.070000</speed>
</trkpt>
<trkpt lat="56.070110" lon="26.463108">
<ele>112.667053</ele>
<time>2010-08-29T13:05:36Z</time>
<desc>lat.=56.070110, lon.=26.463108, Alt.=112.667053m. Speed=0.216000m/h.</desc>
<speed>0.060000</speed>
</trkpt>
<trkpt lat="56.070110" lon="26.463108">
<ele>112.620178</ele>
<time>2010-08-29T13:05:37Z</time>
<desc>lat.=56.070110, lon.=26.463108, Alt.=112.620178m. Speed=0.216000m/h.</desc>
<speed>0.060000</speed>
</trkpt>
<trkpt lat="56.070110" lon="26.463108">
<ele>112.575256</ele>
<time>2010-08-29T13:05:38Z</time>
<desc>lat.=56.070110, lon.=26.463108, Alt.=112.575256m. Speed=0.216000m/h.</desc>
<speed>0.060000</speed>
</trkpt>
<trkpt lat="56.070110" lon="26.463108">
<ele>112.538147</ele>
<time>2010-08-29T13:05:39Z</time>
<desc>lat.=56.070110, lon.=26.463108, Alt.=112.538147m. Speed=0.180000m/h.</desc>
<speed>0.050000</speed>
</trkpt>
<trkpt lat="56.070107" lon="26.463108">
<ele>112.499084</ele>
<time>2010-08-29T13:05:40Z</time>
<desc>lat.=56.070107, lon.=26.463108, Alt.=112.499084m. Speed=0.144000m/h.</desc>
<speed>0.040000</speed>
</trkpt>
<trkpt lat="56.070107" lon="26.463106">
<ele>112.465881</ele>
<time>2010-08-29T13:05:41Z</time>
<desc>lat.=56.070107, lon.=26.463106, Alt.=112.465881m. Speed=0.216000m/h.</desc>
<speed>0.060000</speed>
</trkpt>
<trkpt lat="56.070107" lon="26.463106">
<ele>112.434631</ele>
<time>2010-08-29T13:05:42Z</time>
<desc>lat.=56.070107, lon.=26.463106, Alt.=112.434631m. Speed=0.252000m/h.</desc>
<speed>0.070000</speed>
</trkpt>
<trkpt lat="56.070107" lon="26.463104">
<ele>112.403381</ele>
<time>2010-08-29T13:05:43Z</time>
<desc>lat.=56.070107, lon.=26.463104, Alt.=112.403381m. Speed=0.324000m/h.</desc>
<speed>0.090000</speed>
</trkpt>
<trkpt lat="56.070107" lon="26.463104">
<ele>112.370178</ele>
<time>2010-08-29T13:05:44Z</time>
<desc>lat.=56.070107, lon.=26.463104, Alt.=112.370178m. Speed=0.180000m/h.</desc>
<speed>0.050000</speed>
</trkpt>
<trkpt lat="56.070107" lon="26.463104">
<ele>112.329163</ele>
<time>2010-08-29T13:05:45Z</time>
<desc>lat.=56.070107, lon.=26.463104, Alt.=112.329163m. Speed=0.432000m/h.</desc>
<speed>0.120000</speed>
</trkpt>
<trkpt lat="56.070107" lon="26.463106">
<ele>112.299866</ele>
<time>2010-08-29T13:05:46Z</time>
<desc>lat.=56.070107, lon.=26.463106, Alt.=112.299866m. Speed=0.468000m/h.</desc>
<speed>0.130000</speed>
</trkpt>
<trkpt lat="56.070107" lon="26.463108">
<ele>112.272522</ele>
<time>2010-08-29T13:05:47Z</time>
<desc>lat.=56.070107, lon.=26.463108, Alt.=112.272522m. Speed=0.504000m/h.</desc>
<speed>0.140000</speed>
</trkpt>
<trkpt lat="56.070107" lon="26.463112">
<ele>112.243225</ele>
<time>2010-08-29T13:05:48Z</time>
<desc>lat.=56.070107, lon.=26.463112, Alt.=112.243225m. Speed=0.468000m/h.</desc>
<speed>0.130000</speed>
</trkpt>
<trkpt lat="56.070107" lon="26.463114">
<ele>112.217834</ele>
<time>2010-08-29T13:05:49Z</time>
<desc>lat.=56.070107, lon.=26.463114, Alt.=112.217834m. Speed=0.360000m/h.</desc>
<speed>0.100000</speed>
</trkpt>
<trkpt lat="56.070107" lon="26.463114">
<ele>112.194397</ele>
<time>2010-08-29T13:05:50Z</time>
<desc>lat.=56.070107, lon.=26.463114, Alt.=112.194397m. Speed=0.288000m/h.</desc>
<speed>0.080000</speed>
</trkpt>
<trkpt lat="56.070107" lon="26.463116">
<ele>112.174866</ele>
<time>2010-08-29T13:05:51Z</time>
<desc>lat.=56.070107, lon.=26.463116, Alt.=112.174866m. Speed=0.180000m/h.</desc>
<speed>0.050000</speed>
</trkpt>
<trkpt lat="56.070107" lon="26.463118">
<ele>112.153381</ele>
<time>2010-08-29T13:05:52Z</time>
<desc>lat.=56.070107, lon.=26.463118, Alt.=112.153381m. Speed=0.252000m/h.</desc>
<speed>0.070000</speed>
</trkpt>
<trkpt lat="56.070107" lon="26.463118">
<ele>112.137756</ele>
<time>2010-08-29T13:05:53Z</time>
<desc>lat.=56.070107, lon.=26.463118, Alt.=112.137756m. Speed=0.252000m/h.</desc>
<speed>0.070000</speed>
</trkpt>
<trkpt lat="56.070103" lon="26.463120">
<ele>112.126038</ele>
<time>2010-08-29T13:05:54Z</time>
<desc>lat.=56.070103, lon.=26.463120, Alt.=112.126038m. Speed=1.044000m/h.</desc>
<speed>0.290000</speed>
</trkpt>
<trkpt lat="56.070103" lon="26.463118">
<ele>112.116272</ele>
<time>2010-08-29T13:05:55Z</time>
<desc>lat.=56.070103, lon.=26.463118, Alt.=112.116272m. Speed=1.008000m/h.</desc>
<speed>0.280000</speed>
</trkpt>
<trkpt lat="56.070099" lon="26.463116">
<ele>112.110413</ele>
<time>2010-08-29T13:05:56Z</time>
<desc>lat.=56.070099, lon.=26.463116, Alt.=112.110413m. Speed=1.008000m/h.</desc>
<speed>0.280000</speed>
</trkpt>
<trkpt lat="56.070099" lon="26.463114">
<ele>112.104553</ele>
<time>2010-08-29T13:05:57Z</time>
<desc>lat.=56.070099, lon.=26.463114, Alt.=112.104553m. Speed=1.044000m/h.</desc>
<speed>0.290000</speed>
</trkpt>
<trkpt lat="56.070095" lon="26.463114">
<ele>112.098694</ele>
<time>2010-08-29T13:05:58Z</time>
<desc>lat.=56.070095, lon.=26.463114, Alt.=112.098694m. Speed=1.080000m/h.</desc>
<speed>0.300000</speed>
</trkpt>
<trkpt lat="56.070095" lon="26.463116">
<ele>111.756897</ele>
<time>2010-08-29T13:05:59Z</time>
<desc>lat.=56.070095, lon.=26.463116, Alt.=111.756897m. Speed=1.008000m/h.</desc>
<speed>0.280000</speed>
</trkpt>
<trkpt lat="56.070099" lon="26.463102">
<ele>111.795959</ele>
<time>2010-08-29T13:06:00Z</time>
<desc>lat.=56.070099, lon.=26.463102, Alt.=111.795959m. Speed=0.756000m/h.</desc>
<speed>0.210000</speed>
</trkpt>
<trkpt lat="56.070099" lon="26.463099">
<ele>111.725647</ele>
<time>2010-08-29T13:06:01Z</time>
<desc>lat.=56.070099, lon.=26.463099, Alt.=111.725647m. Speed=0.720000m/h.</desc>
<speed>0.200000</speed>
</trkpt>
<trkpt lat="56.070099" lon="26.463095">
<ele>111.780334</ele>
<time>2010-08-29T13:06:02Z</time>
<desc>lat.=56.070099, lon.=26.463095, Alt.=111.780334m. Speed=0.648000m/h.</desc>
<speed>0.180000</speed>
</trkpt>
<trkpt lat="56.070099" lon="26.463093">
<ele>111.768616</ele>
<time>2010-08-29T13:06:03Z</time>
<desc>lat.=56.070099, lon.=26.463093, Alt.=111.768616m. Speed=0.648000m/h.</desc>
<speed>0.180000</speed>
</trkpt>
<trkpt lat="56.070095" lon="26.463089">
<ele>111.756897</ele>
<time>2010-08-29T13:06:04Z</time>
<desc>lat.=56.070095, lon.=26.463089, Alt.=111.756897m. Speed=0.792000m/h.</desc>
<speed>0.220000</speed>
</trkpt>
<trkpt lat="56.070095" lon="26.463087">
<ele>111.747131</ele>
<time>2010-08-29T13:06:05Z</time>
<desc>lat.=56.070095, lon.=26.463087, Alt.=111.747131m. Speed=0.756000m/h.</desc>
<speed>0.210000</speed>
</trkpt>
<trkpt lat="56.070095" lon="26.463083">
<ele>111.737366</ele>
<time>2010-08-29T13:06:06Z</time>
<desc>lat.=56.070095, lon.=26.463083, Alt.=111.737366m. Speed=0.684000m/h.</desc>
<speed>0.190000</speed>
</trkpt>
<trkpt lat="56.070095" lon="26.463081">
<ele>111.729553</ele>
<time>2010-08-29T13:06:07Z</time>
<desc>lat.=56.070095, lon.=26.463081, Alt.=111.729553m. Speed=0.468000m/h.</desc>
<speed>0.130000</speed>
</trkpt>
<trkpt lat="56.070095" lon="26.463079">
<ele>111.717834</ele>
<time>2010-08-29T13:06:08Z</time>
<desc>lat.=56.070095, lon.=26.463079, Alt.=111.717834m. Speed=0.432000m/h.</desc>
<speed>0.120000</speed>
</trkpt>
<trkpt lat="56.070095" lon="26.463078">
<ele>111.717834</ele>
<time>2010-08-29T13:06:09Z</time>
<desc>lat.=56.070095, lon.=26.463078, Alt.=111.717834m. Speed=0.180000m/h.</desc>
<speed>0.050000</speed>
</trkpt>
<trkpt lat="56.070095" lon="26.463078">
<ele>111.719788</ele>
<time>2010-08-29T13:06:10Z</time>
<desc>lat.=56.070095, lon.=26.463078, Alt.=111.719788m. Speed=0.504000m/h.</desc>
<speed>0.140000</speed>
</trkpt>
<trkpt lat="56.070095" lon="26.463078">
<ele>111.717834</ele>
<time>2010-08-29T13:06:11Z</time>
<desc>lat.=56.070095, lon.=26.463078, Alt.=111.717834m. Speed=0.144000m/h.</desc>
<speed>0.040000</speed>
</trkpt>
<trkpt lat="56.070095" lon="26.463078">
<ele>111.704163</ele>
<time>2010-08-29T13:06:12Z</time>
<desc>lat.=56.070095, lon.=26.463078, Alt.=111.704163m. Speed=0.144000m/h.</desc>
<speed>0.040000</speed>
</trkpt>
<trkpt lat="56.070095" lon="26.463078">
<ele>111.692444</ele>
<time>2010-08-29T13:06:13Z</time>
<desc>lat.=56.070095, lon.=26.463078, Alt.=111.692444m. Speed=0.108000m/h.</desc>
<speed>0.030000</speed>
</trkpt>
<trkpt lat="56.070095" lon="26.463076">
<ele>111.684631</ele>
<time>2010-08-29T13:06:14Z</time>
<desc>lat.=56.070095, lon.=26.463076, Alt.=111.684631m. Speed=0.144000m/h.</desc>
<speed>0.040000</speed>
</trkpt>
<trkpt lat="56.070095" lon="26.463076">
<ele>111.676819</ele>
<time>2010-08-29T13:06:15Z</time>
<desc>lat.=56.070095, lon.=26.463076, Alt.=111.676819m. Speed=0.180000m/h.</desc>
<speed>0.050000</speed>
</trkpt>
<trkpt lat="56.070095" lon="26.463076">
<ele>111.672913</ele>
<time>2010-08-29T13:06:16Z</time>
<desc>lat.=56.070095, lon.=26.463076, Alt.=111.672913m. Speed=0.180000m/h.</desc>
<speed>0.050000</speed>
</trkpt>
<trkpt lat="56.070095" lon="26.463074">
<ele>111.667053</ele>
<time>2010-08-29T13:06:17Z</time>
<desc>lat.=56.070095, lon.=26.463074, Alt.=111.667053m. Speed=0.216000m/h.</desc>
<speed>0.060000</speed>
</trkpt>
<trkpt lat="56.070095" lon="26.463074">
<ele>111.659241</ele>
<time>2010-08-29T13:06:18Z</time>
<desc>lat.=56.070095, lon.=26.463074, Alt.=111.659241m. Speed=0.216000m/h.</desc>
<speed>0.060000</speed>
</trkpt>
<trkpt lat="56.070099" lon="26.463072">
<ele>111.659241</ele>
<time>2010-08-29T13:06:19Z</time>
<desc>lat.=56.070099, lon.=26.463072, Alt.=111.659241m. Speed=0.288000m/h.</desc>
<speed>0.080000</speed>
</trkpt>
<trkpt lat="56.070099" lon="26.463072">
<ele>111.661194</ele>
<time>2010-08-29T13:06:20Z</time>
<desc>lat.=56.070099, lon.=26.463072, Alt.=111.661194m. Speed=0.360000m/h.</desc>
<speed>0.100000</speed>
</trkpt>
<trkpt lat="56.070099" lon="26.463070">
<ele>111.665100</ele>
<time>2010-08-29T13:06:21Z</time>
<desc>lat.=56.070099, lon.=26.463070, Alt.=111.665100m. Speed=0.432000m/h.</desc>
<speed>0.120000</speed>
</trkpt>
<trkpt lat="56.070099" lon="26.463068">
<ele>111.672913</ele>
<time>2010-08-29T13:06:22Z</time>
<desc>lat.=56.070099, lon.=26.463068, Alt.=111.672913m. Speed=0.432000m/h.</desc>
<speed>0.120000</speed>
</trkpt>
<trkpt lat="56.070099" lon="26.463068">
<ele>111.684631</ele>
<time>2010-08-29T13:06:23Z</time>
<desc>lat.=56.070099, lon.=26.463068, Alt.=111.684631m. Speed=0.540000m/h.</desc>
<speed>0.150000</speed>
</trkpt>
<trkpt lat="56.070103" lon="26.463066">
<ele>111.688538</ele>
<time>2010-08-29T13:06:24Z</time>
<desc>lat.=56.070103, lon.=26.463066, Alt.=111.688538m. Speed=0.504000m/h.</desc>
<speed>0.140000</speed>
</trkpt>
<trkpt lat="56.070103" lon="26.463066">
<ele>111.702209</ele>
<time>2010-08-29T13:06:25Z</time>
<desc>lat.=56.070103, lon.=26.463066, Alt.=111.702209m. Speed=0.576000m/h.</desc>
<speed>0.160000</speed>
</trkpt>
<trkpt lat="56.070107" lon="26.463064">
<ele>111.717834</ele>
<time>2010-08-29T13:06:26Z</time>
<desc>lat.=56.070107, lon.=26.463064, Alt.=111.717834m. Speed=0.864000m/h.</desc>
<speed>0.240000</speed>
</trkpt>
<trkpt lat="56.070107" lon="26.463062">
<ele>111.735413</ele>
<time>2010-08-29T13:06:27Z</time>
<desc>lat.=56.070107, lon.=26.463062, Alt.=111.735413m. Speed=0.828000m/h.</desc>
<speed>0.230000</speed>
</trkpt>
<trkpt lat="56.070107" lon="26.463060">
<ele>111.754944</ele>
<time>2010-08-29T13:06:28Z</time>
<desc>lat.=56.070107, lon.=26.463060, Alt.=111.754944m. Speed=0.828000m/h.</desc>
<speed>0.230000</speed>
</trkpt>
<trkpt lat="56.070110" lon="26.463057">
<ele>111.774475</ele>
<time>2010-08-29T13:06:29Z</time>
<desc>lat.=56.070110, lon.=26.463057, Alt.=111.774475m. Speed=0.792000m/h.</desc>
<speed>0.220000</speed>
</trkpt>
<trkpt lat="56.070110" lon="26.463055">
<ele>111.797913</ele>
<time>2010-08-29T13:06:30Z</time>
<desc>lat.=56.070110, lon.=26.463055, Alt.=111.797913m. Speed=0.648000m/h.</desc>
<speed>0.180000</speed>
</trkpt>
<trkpt lat="56.070114" lon="26.463053">
<ele>111.821350</ele>
<time>2010-08-29T13:06:31Z</time>
<desc>lat.=56.070114, lon.=26.463053, Alt.=111.821350m. Speed=0.360000m/h.</desc>
<speed>0.100000</speed>
</trkpt>
<trkpt lat="56.070114" lon="26.463055">
<ele>111.842834</ele>
<time>2010-08-29T13:06:32Z</time>
<desc>lat.=56.070114, lon.=26.463055, Alt.=111.842834m. Speed=0.576000m/h.</desc>
<speed>0.160000</speed>
</trkpt>
<trkpt lat="56.070114" lon="26.463058">
<ele>111.860413</ele>
<time>2010-08-29T13:06:33Z</time>
<desc>lat.=56.070114, lon.=26.463058, Alt.=111.860413m. Speed=0.792000m/h.</desc>
<speed>0.220000</speed>
</trkpt>
<trkpt lat="56.070114" lon="26.463060">
<ele>111.881897</ele>
<time>2010-08-29T13:06:34Z</time>
<desc>lat.=56.070114, lon.=26.463060, Alt.=111.881897m. Speed=0.504000m/h.</desc>
<speed>0.140000</speed>
</trkpt>
<trkpt lat="56.070114" lon="26.463062">
<ele>111.901428</ele>
<time>2010-08-29T13:06:35Z</time>
<desc>lat.=56.070114, lon.=26.463062, Alt.=111.901428m. Speed=1.296000m/h.</desc>
<speed>0.360000</speed>
</trkpt>
<trkpt lat="56.070126" lon="26.463072">
<ele>111.985413</ele>
<time>2010-08-29T13:06:36Z</time>
<desc>lat.=56.070126, lon.=26.463072, Alt.=111.985413m. Speed=1.656000m/h.</desc>
<speed>0.460000</speed>
</trkpt>
<trkpt lat="56.070118" lon="26.463068">
<ele>112.096741</ele>
<time>2010-08-29T13:06:37Z</time>
<desc>lat.=56.070118, lon.=26.463068, Alt.=112.096741m. Speed=1.404000m/h.</desc>
<speed>0.390000</speed>
</trkpt>
<trkpt lat="56.070122" lon="26.463070">
<ele>112.006897</ele>
<time>2010-08-29T13:06:38Z</time>
<desc>lat.=56.070122, lon.=26.463070, Alt.=112.006897m. Speed=1.224000m/h.</desc>
<speed>0.340000</speed>
</trkpt>
<trkpt lat="56.070141" lon="26.463049">
<ele>112.038147</ele>
<time>2010-08-29T13:06:39Z</time>
<desc>lat.=56.070141, lon.=26.463049, Alt.=112.038147m. Speed=1.260000m/h.</desc>
<speed>0.350000</speed>
</trkpt>
<trkpt lat="56.070160" lon="26.463030">
<ele>111.706116</ele>
<time>2010-08-29T13:06:40Z</time>
<desc>lat.=56.070160, lon.=26.463030, Alt.=111.706116m. Speed=1.188000m/h.</desc>
<speed>0.330000</speed>
</trkpt>
<trkpt lat="56.070168" lon="26.463036">
<ele>111.801819</ele>
<time>2010-08-29T13:06:41Z</time>
<desc>lat.=56.070168, lon.=26.463036, Alt.=111.801819m. Speed=1.368000m/h.</desc>
<speed>0.380000</speed>
</trkpt>
<trkpt lat="56.070168" lon="26.463039">
<ele>111.577209</ele>
<time>2010-08-29T13:06:42Z</time>
<desc>lat.=56.070168, lon.=26.463039, Alt.=111.577209m. Speed=1.512000m/h.</desc>
<speed>0.420000</speed>
</trkpt>
<trkpt lat="56.070187" lon="26.463053">
<ele>111.616272</ele>
<time>2010-08-29T13:06:43Z</time>
<desc>lat.=56.070187, lon.=26.463053, Alt.=111.616272m. Speed=1.764000m/h.</desc>
<speed>0.490000</speed>
</trkpt>
<trkpt lat="56.070194" lon="26.463055">
<ele>111.809631</ele>
<time>2010-08-29T13:06:44Z</time>
<desc>lat.=56.070194, lon.=26.463055, Alt.=111.809631m. Speed=1.944000m/h.</desc>
<speed>0.540000</speed>
</trkpt>
<trkpt lat="56.070198" lon="26.463057">
<ele>111.833069</ele>
<time>2010-08-29T13:06:45Z</time>
<desc>lat.=56.070198, lon.=26.463057, Alt.=111.833069m. Speed=2.088000m/h.</desc>
<speed>0.580000</speed>
</trkpt>
<trkpt lat="56.070190" lon="26.463051">
<ele>111.999084</ele>
<time>2010-08-29T13:06:46Z</time>
<desc>lat.=56.070190, lon.=26.463051, Alt.=111.999084m. Speed=1.656000m/h.</desc>
<speed>0.460000</speed>
</trkpt>
<trkpt lat="56.070206" lon="26.463074">
<ele>112.387756</ele>
<time>2010-08-29T13:06:47Z</time>
<desc>lat.=56.070206, lon.=26.463074, Alt.=112.387756m. Speed=1.980000m/h.</desc>
<speed>0.550000</speed>
</trkpt>
<trkpt lat="56.070210" lon="26.463072">
<ele>112.399475</ele>
<time>2010-08-29T13:06:48Z</time>
<desc>lat.=56.070210, lon.=26.463072, Alt.=112.399475m. Speed=2.088000m/h.</desc>
<speed>0.580000</speed>
</trkpt>
<trkpt lat="56.070213" lon="26.463076">
<ele>112.329163</ele>
<time>2010-08-29T13:06:49Z</time>
<desc>lat.=56.070213, lon.=26.463076, Alt.=112.329163m. Speed=1.980000m/h.</desc>
<speed>0.550000</speed>
</trkpt>
<trkpt lat="56.070217" lon="26.463078">
<ele>112.432678</ele>
<time>2010-08-29T13:06:50Z</time>
<desc>lat.=56.070217, lon.=26.463078, Alt.=112.432678m. Speed=1.944000m/h.</desc>
<speed>0.540000</speed>
</trkpt>
<trkpt lat="56.070225" lon="26.463087">
<ele>112.852600</ele>
<time>2010-08-29T13:06:51Z</time>
<desc>lat.=56.070225, lon.=26.463087, Alt.=112.852600m. Speed=1.656000m/h.</desc>
<speed>0.460000</speed>
</trkpt>
<trkpt lat="56.070236" lon="26.463091">
<ele>113.260803</ele>
<time>2010-08-29T13:06:52Z</time>
<desc>lat.=56.070236, lon.=26.463091, Alt.=113.260803m. Speed=1.584000m/h.</desc>
<speed>0.440000</speed>
</trkpt>
<trkpt lat="56.070244" lon="26.463102">
<ele>113.729553</ele>
<time>2010-08-29T13:06:53Z</time>
<desc>lat.=56.070244, lon.=26.463102, Alt.=113.729553m. Speed=1.548000m/h.</desc>
<speed>0.430000</speed>
</trkpt>
<trkpt lat="56.070251" lon="26.463108">
<ele>113.997131</ele>
<time>2010-08-29T13:06:54Z</time>
<desc>lat.=56.070251, lon.=26.463108, Alt.=113.997131m. Speed=0.828000m/h.</desc>
<speed>0.230000</speed>
</trkpt>
<trkpt lat="56.070251" lon="26.463108">
<ele>114.153381</ele>
<time>2010-08-29T13:06:55Z</time>
<desc>lat.=56.070251, lon.=26.463108, Alt.=114.153381m. Speed=0.540000m/h.</desc>
<speed>0.150000</speed>
</trkpt>
<trkpt lat="56.070255" lon="26.463116">
<ele>114.372131</ele>
<time>2010-08-29T13:06:56Z</time>
<desc>lat.=56.070255, lon.=26.463116, Alt.=114.372131m. Speed=0.180000m/h.</desc>
<speed>0.050000</speed>
</trkpt>
<trkpt lat="56.070259" lon="26.463125">
<ele>114.405334</ele>
<time>2010-08-29T13:06:57Z</time>
<desc>lat.=56.070259, lon.=26.463125, Alt.=114.405334m. Speed=0.432000m/h.</desc>
<speed>0.120000</speed>
</trkpt>
<trkpt lat="56.070255" lon="26.463125">
<ele>114.458069</ele>
<time>2010-08-29T13:06:58Z</time>
<desc>lat.=56.070255, lon.=26.463125, Alt.=114.458069m. Speed=0.576000m/h.</desc>
<speed>0.160000</speed>
</trkpt>
<trkpt lat="56.070255" lon="26.463125">
<ele>114.506897</ele>
<time>2010-08-29T13:06:59Z</time>
<desc>lat.=56.070255, lon.=26.463125, Alt.=114.506897m. Speed=0.036000m/h.</desc>
<speed>0.010000</speed>
</trkpt>
<trkpt lat="56.070255" lon="26.463127">
<ele>114.536194</ele>
<time>2010-08-29T13:07:00Z</time>
<desc>lat.=56.070255, lon.=26.463127, Alt.=114.536194m. Speed=0.144000m/h.</desc>
<speed>0.040000</speed>
</trkpt>
<trkpt lat="56.070255" lon="26.463127">
<ele>114.573303</ele>
<time>2010-08-29T13:07:01Z</time>
<desc>lat.=56.070255, lon.=26.463127, Alt.=114.573303m. Speed=0.144000m/h.</desc>
<speed>0.040000</speed>
</trkpt>
<trkpt lat="56.070255" lon="26.463127">
<ele>114.602600</ele>
<time>2010-08-29T13:07:02Z</time>
<desc>lat.=56.070255, lon.=26.463127, Alt.=114.602600m. Speed=0.072000m/h.</desc>
<speed>0.020000</speed>
</trkpt>
<trkpt lat="56.070255" lon="26.463127">
<ele>114.633850</ele>
<time>2010-08-29T13:07:03Z</time>
<desc>lat.=56.070255, lon.=26.463127, Alt.=114.633850m. Speed=0.108000m/h.</desc>
<speed>0.030000</speed>
</trkpt>
<trkpt lat="56.070255" lon="26.463129">
<ele>114.659241</ele>
<time>2010-08-29T13:07:04Z</time>
<desc>lat.=56.070255, lon.=26.463129, Alt.=114.659241m. Speed=0.036000m/h.</desc>
<speed>0.010000</speed>
</trkpt>
<trkpt lat="56.070255" lon="26.463129">
<ele>114.684631</ele>
<time>2010-08-29T13:07:05Z</time>
<desc>lat.=56.070255, lon.=26.463129, Alt.=114.684631m. Speed=0.108000m/h.</desc>
<speed>0.030000</speed>
</trkpt>
<trkpt lat="56.070255" lon="26.463129">
<ele>114.713928</ele>
<time>2010-08-29T13:07:06Z</time>
<desc>lat.=56.070255, lon.=26.463129, Alt.=114.713928m. Speed=0.000000m/h.</desc>
<speed>0.000000</speed>
</trkpt>
<trkpt lat="56.070255" lon="26.463129">
<ele>114.715881</ele>
<time>2010-08-29T13:07:07Z</time>
<desc>lat.=56.070255, lon.=26.463129, Alt.=114.715881m. Speed=0.036000m/h.</desc>
<speed>0.010000</speed>
</trkpt>
<trkpt lat="56.070255" lon="26.463129">
<ele>114.717834</ele>
<time>2010-08-29T13:07:08Z</time>
<desc>lat.=56.070255, lon.=26.463129, Alt.=114.717834m. Speed=0.036000m/h.</desc>
<speed>0.010000</speed>
</trkpt>
<trkpt lat="56.070255" lon="26.463129">
<ele>114.708069</ele>
<time>2010-08-29T13:07:09Z</time>
<desc>lat.=56.070255, lon.=26.463129, Alt.=114.708069m. Speed=0.108000m/h.</desc>
<speed>0.030000</speed>
</trkpt>
<trkpt lat="56.070255" lon="26.463129">
<ele>114.715881</ele>
<time>2010-08-29T13:07:10Z</time>
<desc>lat.=56.070255, lon.=26.463129, Alt.=114.715881m. Speed=0.000000m/h.</desc>
<speed>0.000000</speed>
</trkpt>
<trkpt lat="56.070255" lon="26.463129">
<ele>114.708069</ele>
<time>2010-08-29T13:07:11Z</time>
<desc>lat.=56.070255, lon.=26.463129, Alt.=114.708069m. Speed=0.000000m/h.</desc>
<speed>0.000000</speed>
</trkpt>
<trkpt lat="56.070255" lon="26.463129">
<ele>114.710022</ele>
<time>2010-08-29T13:07:12Z</time>
<desc>lat.=56.070255, lon.=26.463129, Alt.=114.710022m. Speed=0.000000m/h.</desc>
<speed>0.000000</speed>
</trkpt>
<trkpt lat="56.070255" lon="26.463129">
<ele>114.727600</ele>
<time>2010-08-29T13:07:13Z</time>
<desc>lat.=56.070255, lon.=26.463129, Alt.=114.727600m. Speed=0.036000m/h.</desc>
<speed>0.010000</speed>
</trkpt>
<trkpt lat="56.070255" lon="26.463131">
<ele>114.735413</ele>
<time>2010-08-29T13:07:14Z</time>
<desc>lat.=56.070255, lon.=26.463131, Alt.=114.735413m. Speed=0.072000m/h.</desc>
<speed>0.020000</speed>
</trkpt>
<trkpt lat="56.070255" lon="26.463131">
<ele>114.735413</ele>
<time>2010-08-29T13:07:15Z</time>
<desc>lat.=56.070255, lon.=26.463131, Alt.=114.735413m. Speed=0.108000m/h.</desc>
<speed>0.030000</speed>
</trkpt>
<trkpt lat="56.070255" lon="26.463131">
<ele>114.743225</ele>
<time>2010-08-29T13:07:16Z</time>
<desc>lat.=56.070255, lon.=26.463131, Alt.=114.743225m. Speed=0.036000m/h.</desc>
<speed>0.010000</speed>
</trkpt>
<trkpt lat="56.070255" lon="26.463131">
<ele>114.747131</ele>
<time>2010-08-29T13:07:17Z</time>
<desc>lat.=56.070255, lon.=26.463131, Alt.=114.747131m. Speed=0.000000m/h.</desc>
<speed>0.000000</speed>
</trkpt>
<trkpt lat="56.070255" lon="26.463131">
<ele>114.751038</ele>
<time>2010-08-29T13:07:18Z</time>
<desc>lat.=56.070255, lon.=26.463131, Alt.=114.751038m. Speed=0.036000m/h.</desc>
<speed>0.010000</speed>
</trkpt>
<trkpt lat="56.070255" lon="26.463131">
<ele>114.758850</ele>
<time>2010-08-29T13:07:19Z</time>
<desc>lat.=56.070255, lon.=26.463131, Alt.=114.758850m. Speed=0.000000m/h.</desc>
<speed>0.000000</speed>
</trkpt>
<trkpt lat="56.070255" lon="26.463131">
<ele>114.760803</ele>
<time>2010-08-29T13:07:20Z</time>
<desc>lat.=56.070255, lon.=26.463131, Alt.=114.760803m. Speed=0.036000m/h.</desc>
<speed>0.010000</speed>
</trkpt>
<trkpt lat="56.070255" lon="26.463131">
<ele>114.762756</ele>
<time>2010-08-29T13:07:21Z</time>
<desc>lat.=56.070255, lon.=26.463131, Alt.=114.762756m. Speed=0.000000m/h.</desc>
<speed>0.000000</speed>
</trkpt>
<trkpt lat="56.070255" lon="26.463131">
<ele>114.764709</ele>
<time>2010-08-29T13:07:22Z</time>
<desc>lat.=56.070255, lon.=26.463131, Alt.=114.764709m. Speed=0.000000m/h.</desc>
<speed>0.000000</speed>
</trkpt>
<trkpt lat="56.070255" lon="26.463131">
<ele>114.768616</ele>
<time>2010-08-29T13:07:23Z</time>
<desc>lat.=56.070255, lon.=26.463131, Alt.=114.768616m. Speed=0.000000m/h.</desc>
<speed>0.000000</speed>
</trkpt>
<trkpt lat="56.070259" lon="26.463131">
<ele>114.766663</ele>
<time>2010-08-29T13:07:24Z</time>
<desc>lat.=56.070259, lon.=26.463131, Alt.=114.766663m. Speed=0.000000m/h.</desc>
<speed>0.000000</speed>
</trkpt>
<trkpt lat="56.070259" lon="26.463131">
<ele>114.774475</ele>
<time>2010-08-29T13:07:25Z</time>
<desc>lat.=56.070259, lon.=26.463131, Alt.=114.774475m. Speed=0.036000m/h.</desc>
<speed>0.010000</speed>
</trkpt>
<trkpt lat="56.070259" lon="26.463131">
<ele>114.776428</ele>
<time>2010-08-29T13:07:26Z</time>
<desc>lat.=56.070259, lon.=26.463131, Alt.=114.776428m. Speed=0.072000m/h.</desc>
<speed>0.020000</speed>
</trkpt>
<trkpt lat="56.070259" lon="26.463131">
<ele>114.778381</ele>
<time>2010-08-29T13:07:27Z</time>
<desc>lat.=56.070259, lon.=26.463131, Alt.=114.778381m. Speed=0.000000m/h.</desc>
<speed>0.000000</speed>
</trkpt>
<trkpt lat="56.070259" lon="26.463131">
<ele>114.778381</ele>
<time>2010-08-29T13:07:28Z</time>
<desc>lat.=56.070259, lon.=26.463131, Alt.=114.778381m. Speed=0.180000m/h.</desc>
<speed>0.050000</speed>
</trkpt>
<trkpt lat="56.070259" lon="26.463131">
<ele>114.782288</ele>
<time>2010-08-29T13:07:29Z</time>
<desc>lat.=56.070259, lon.=26.463131, Alt.=114.782288m. Speed=0.000000m/h.</desc>
<speed>0.000000</speed>
</trkpt>
<trkpt lat="56.070259" lon="26.463131">
<ele>114.792053</ele>
<time>2010-08-29T13:07:30Z</time>
<desc>lat.=56.070259, lon.=26.463131, Alt.=114.792053m. Speed=0.072000m/h.</desc>
<speed>0.020000</speed>
</trkpt>
<trkpt lat="56.070259" lon="26.463131">
<ele>114.794006</ele>
<time>2010-08-29T13:07:31Z</time>
<desc>lat.=56.070259, lon.=26.463131, Alt.=114.794006m. Speed=0.036000m/h.</desc>
<speed>0.010000</speed>
</trkpt>
<trkpt lat="56.070259" lon="26.463131">
<ele>114.801819</ele>
<time>2010-08-29T13:07:32Z</time>
<desc>lat.=56.070259, lon.=26.463131, Alt.=114.801819m. Speed=0.072000m/h.</desc>
<speed>0.020000</speed>
</trkpt>
<trkpt lat="56.070259" lon="26.463131">
<ele>114.799866</ele>
<time>2010-08-29T13:07:33Z</time>
<desc>lat.=56.070259, lon.=26.463131, Alt.=114.799866m. Speed=0.036000m/h.</desc>
<speed>0.010000</speed>
</trkpt>
<trkpt lat="56.070259" lon="26.463131">
<ele>114.799866</ele>
<time>2010-08-29T13:07:34Z</time>
<desc>lat.=56.070259, lon.=26.463131, Alt.=114.799866m. Speed=0.036000m/h.</desc>
<speed>0.010000</speed>
</trkpt>
<trkpt lat="56.070259" lon="26.463131">
<ele>114.799866</ele>
<time>2010-08-29T13:07:35Z</time>
<desc>lat.=56.070259, lon.=26.463131, Alt.=114.799866m. Speed=0.036000m/h.</desc>
<speed>0.010000</speed>
</trkpt>
<trkpt lat="56.070259" lon="26.463131">
<ele>114.797913</ele>
<time>2010-08-29T13:07:36Z</time>
<desc>lat.=56.070259, lon.=26.463131, Alt.=114.797913m. Speed=0.072000m/h.</desc>
<speed>0.020000</speed>
</trkpt>
<trkpt lat="56.070259" lon="26.463131">
<ele>114.805725</ele>
<time>2010-08-29T13:07:37Z</time>
<desc>lat.=56.070259, lon.=26.463131, Alt.=114.805725m. Speed=0.000000m/h.</desc>
<speed>0.000000</speed>
</trkpt>
<trkpt lat="56.070259" lon="26.463133">
<ele>114.819397</ele>
<time>2010-08-29T13:07:38Z</time>
<desc>lat.=56.070259, lon.=26.463133, Alt.=114.819397m. Speed=0.000000m/h.</desc>
<speed>0.000000</speed>
</trkpt>
<trkpt lat="56.070259" lon="26.463133">
<ele>114.821350</ele>
<time>2010-08-29T13:07:39Z</time>
<desc>lat.=56.070259, lon.=26.463133, Alt.=114.821350m. Speed=0.000000m/h.</desc>
<speed>0.000000</speed>
</trkpt>
<trkpt lat="56.070259" lon="26.463133">
<ele>114.823303</ele>
<time>2010-08-29T13:07:40Z</time>
<desc>lat.=56.070259, lon.=26.463133, Alt.=114.823303m. Speed=0.000000m/h.</desc>
<speed>0.000000</speed>
</trkpt>
<trkpt lat="56.070259" lon="26.463135">
<ele>114.821350</ele>
<time>2010-08-29T13:07:41Z</time>
<desc>lat.=56.070259, lon.=26.463135, Alt.=114.821350m. Speed=0.036000m/h.</desc>
<speed>0.010000</speed>
</trkpt>
<trkpt lat="56.070259" lon="26.463135">
<ele>114.831116</ele>
<time>2010-08-29T13:07:42Z</time>
<desc>lat.=56.070259, lon.=26.463135, Alt.=114.831116m. Speed=0.036000m/h.</desc>
<speed>0.010000</speed>
</trkpt>
<trkpt lat="56.070259" lon="26.463135">
<ele>114.840881</ele>
<time>2010-08-29T13:07:43Z</time>
<desc>lat.=56.070259, lon.=26.463135, Alt.=114.840881m. Speed=0.000000m/h.</desc>
<speed>0.000000</speed>
</trkpt>
<trkpt lat="56.070259" lon="26.463135">
<ele>114.846741</ele>
<time>2010-08-29T13:07:44Z</time>
<desc>lat.=56.070259, lon.=26.463135, Alt.=114.846741m. Speed=0.000000m/h.</desc>
<speed>0.000000</speed>
</trkpt>
<trkpt lat="56.070259" lon="26.463135">
<ele>114.846741</ele>
<time>2010-08-29T13:07:45Z</time>
<desc>lat.=56.070259, lon.=26.463135, Alt.=114.846741m. Speed=0.000000m/h.</desc>
<speed>0.000000</speed>
</trkpt>
<trkpt lat="56.070259" lon="26.463135">
<ele>114.846741</ele>
<time>2010-08-29T13:07:46Z</time>
<desc>lat.=56.070259, lon.=26.463135, Alt.=114.846741m. Speed=0.108000m/h.</desc>
<speed>0.030000</speed>
</trkpt>
<trkpt lat="56.070259" lon="26.463135">
<ele>114.844788</ele>
<time>2010-08-29T13:07:47Z</time>
<desc>lat.=56.070259, lon.=26.463135, Alt.=114.844788m. Speed=0.000000m/h.</desc>
<speed>0.000000</speed>
</trkpt>
<trkpt lat="56.070259" lon="26.463137">
<ele>114.852600</ele>
<time>2010-08-29T13:07:48Z</time>
<desc>lat.=56.070259, lon.=26.463137, Alt.=114.852600m. Speed=0.180000m/h.</desc>
<speed>0.050000</speed>
</trkpt>
<trkpt lat="56.070259" lon="26.463137">
<ele>114.856506</ele>
<time>2010-08-29T13:07:49Z</time>
<desc>lat.=56.070259, lon.=26.463137, Alt.=114.856506m. Speed=0.072000m/h.</desc>
<speed>0.020000</speed>
</trkpt>
<trkpt lat="56.070259" lon="26.463137">
<ele>114.858459</ele>
<time>2010-08-29T13:07:50Z</time>
<desc>lat.=56.070259, lon.=26.463137, Alt.=114.858459m. Speed=0.036000m/h.</desc>
<speed>0.010000</speed>
</trkpt>
<trkpt lat="56.070259" lon="26.463137">
<ele>114.864319</ele>
<time>2010-08-29T13:07:51Z</time>
<desc>lat.=56.070259, lon.=26.463137, Alt.=114.864319m. Speed=0.036000m/h.</desc>
<speed>0.010000</speed>
</trkpt>
<trkpt lat="56.070259" lon="26.463137">
<ele>114.874084</ele>
<time>2010-08-29T13:07:52Z</time>
<desc>lat.=56.070259, lon.=26.463137, Alt.=114.874084m. Speed=0.036000m/h.</desc>
<speed>0.010000</speed>
</trkpt>
<trkpt lat="56.070259" lon="26.463137">
<ele>114.883850</ele>
<time>2010-08-29T13:07:53Z</time>
<desc>lat.=56.070259, lon.=26.463137, Alt.=114.883850m. Speed=0.000000m/h.</desc>
<speed>0.000000</speed>
</trkpt>
<trkpt lat="56.070259" lon="26.463137">
<ele>114.885803</ele>
<time>2010-08-29T13:07:54Z</time>
<desc>lat.=56.070259, lon.=26.463137, Alt.=114.885803m. Speed=0.036000m/h.</desc>
<speed>0.010000</speed>
</trkpt>
<trkpt lat="56.070259" lon="26.463137">
<ele>114.887756</ele>
<time>2010-08-29T13:07:55Z</time>
<desc>lat.=56.070259, lon.=26.463137, Alt.=114.887756m. Speed=0.000000m/h.</desc>
<speed>0.000000</speed>
</trkpt>
<trkpt lat="56.070259" lon="26.463137">
<ele>114.897522</ele>
<time>2010-08-29T13:07:56Z</time>
<desc>lat.=56.070259, lon.=26.463137, Alt.=114.897522m. Speed=0.000000m/h.</desc>
<speed>0.000000</speed>
</trkpt>
<trkpt lat="56.070259" lon="26.463137">
<ele>114.907288</ele>
<time>2010-08-29T13:07:57Z</time>
<desc>lat.=56.070259, lon.=26.463137, Alt.=114.907288m. Speed=0.036000m/h.</desc>
<speed>0.010000</speed>
</trkpt>
<trkpt lat="56.070259" lon="26.463137">
<ele>114.915100</ele>
<time>2010-08-29T13:07:58Z</time>
<desc>lat.=56.070259, lon.=26.463137, Alt.=114.915100m. Speed=0.036000m/h.</desc>
<speed>0.010000</speed>
</trkpt>
<trkpt lat="56.070259" lon="26.463137">
<ele>114.917053</ele>
<time>2010-08-29T13:07:59Z</time>
<desc>lat.=56.070259, lon.=26.463137, Alt.=114.917053m. Speed=0.000000m/h.</desc>
<speed>0.000000</speed>
</trkpt>
<trkpt lat="56.070259" lon="26.463137">
<ele>114.922913</ele>
<time>2010-08-29T13:08:00Z</time>
<desc>lat.=56.070259, lon.=26.463137, Alt.=114.922913m. Speed=0.036000m/h.</desc>
<speed>0.010000</speed>
</trkpt>
<trkpt lat="56.070259" lon="26.463139">
<ele>114.930725</ele>
<time>2010-08-29T13:08:01Z</time>
<desc>lat.=56.070259, lon.=26.463139, Alt.=114.930725m. Speed=0.036000m/h.</desc>
<speed>0.010000</speed>
</trkpt>
<trkpt lat="56.070259" lon="26.463139">
<ele>114.936584</ele>
<time>2010-08-29T13:08:02Z</time>
<desc>lat.=56.070259, lon.=26.463139, Alt.=114.936584m. Speed=0.000000m/h.</desc>
<speed>0.000000</speed>
</trkpt>
<trkpt lat="56.070259" lon="26.463139">
<ele>114.940491</ele>
<time>2010-08-29T13:08:03Z</time>
<desc>lat.=56.070259, lon.=26.463139, Alt.=114.940491m. Speed=0.000000m/h.</desc>
<speed>0.000000</speed>
</trkpt>
<trkpt lat="56.070259" lon="26.463139">
<ele>114.946350</ele>
<time>2010-08-29T13:08:04Z</time>
<desc>lat.=56.070259, lon.=26.463139, Alt.=114.946350m. Speed=0.000000m/h.</desc>
<speed>0.000000</speed>
</trkpt>
<trkpt lat="56.070259" lon="26.463139">
<ele>114.954163</ele>
<time>2010-08-29T13:08:05Z</time>
<desc>lat.=56.070259, lon.=26.463139, Alt.=114.954163m. Speed=0.036000m/h.</desc>
<speed>0.010000</speed>
</trkpt>
<trkpt lat="56.070259" lon="26.463139">
<ele>114.965881</ele>
<time>2010-08-29T13:08:06Z</time>
<desc>lat.=56.070259, lon.=26.463139, Alt.=114.965881m. Speed=0.000000m/h.</desc>
<speed>0.000000</speed>
</trkpt>
<trkpt lat="56.070259" lon="26.463139">
<ele>114.973694</ele>
<time>2010-08-29T13:08:07Z</time>
<desc>lat.=56.070259, lon.=26.463139, Alt.=114.973694m. Speed=0.000000m/h.</desc>
<speed>0.000000</speed>
</trkpt>
<trkpt lat="56.070259" lon="26.463139">
<ele>114.977600</ele>
<time>2010-08-29T13:08:08Z</time>
<desc>lat.=56.070259, lon.=26.463139, Alt.=114.977600m. Speed=0.000000m/h.</desc>
<speed>0.000000</speed>
</trkpt>
<trkpt lat="56.070259" lon="26.463139">
<ele>114.989319</ele>
<time>2010-08-29T13:08:09Z</time>
<desc>lat.=56.070259, lon.=26.463139, Alt.=114.989319m. Speed=0.000000m/h.</desc>
<speed>0.000000</speed>
</trkpt>
<trkpt lat="56.070263" lon="26.463139">
<ele>115.001038</ele>
<time>2010-08-29T13:08:10Z</time>
<desc>lat.=56.070263, lon.=26.463139, Alt.=115.001038m. Speed=0.000000m/h.</desc>
<speed>0.000000</speed>
</trkpt>
<trkpt lat="56.070259" lon="26.463139">
<ele>115.004944</ele>
<time>2010-08-29T13:08:11Z</time>
<desc>lat.=56.070259, lon.=26.463139, Alt.=115.004944m. Speed=0.000000m/h.</desc>
<speed>0.000000</speed>
</trkpt>
<trkpt lat="56.070263" lon="26.463139">
<ele>115.008850</ele>
<time>2010-08-29T13:08:12Z</time>
<desc>lat.=56.070263, lon.=26.463139, Alt.=115.008850m. Speed=0.072000m/h.</desc>
<speed>0.020000</speed>
</trkpt>
<trkpt lat="56.070263" lon="26.463139">
<ele>115.020569</ele>
<time>2010-08-29T13:08:13Z</time>
<desc>lat.=56.070263, lon.=26.463139, Alt.=115.020569m. Speed=0.000000m/h.</desc>
<speed>0.000000</speed>
</trkpt>
<trkpt lat="56.070263" lon="26.463139">
<ele>115.024475</ele>
<time>2010-08-29T13:08:14Z</time>
<desc>lat.=56.070263, lon.=26.463139, Alt.=115.024475m. Speed=0.000000m/h.</desc>
<speed>0.000000</speed>
</trkpt>
<trkpt lat="56.070263" lon="26.463139">
<ele>115.034241</ele>
<time>2010-08-29T13:08:15Z</time>
<desc>lat.=56.070263, lon.=26.463139, Alt.=115.034241m. Speed=0.000000m/h.</desc>
<speed>0.000000</speed>
</trkpt>
<trkpt lat="56.070263" lon="26.463139">
<ele>115.036194</ele>
<time>2010-08-29T13:08:16Z</time>
<desc>lat.=56.070263, lon.=26.463139, Alt.=115.036194m. Speed=0.000000m/h.</desc>
<speed>0.000000</speed>
</trkpt>
<trkpt lat="56.070259" lon="26.463139">
<ele>115.038147</ele>
<time>2010-08-29T13:08:17Z</time>
<desc>lat.=56.070259, lon.=26.463139, Alt.=115.038147m. Speed=0.000000m/h.</desc>
<speed>0.000000</speed>
</trkpt>
<trkpt lat="56.070259" lon="26.463139">
<ele>115.047913</ele>
<time>2010-08-29T13:08:18Z</time>
<desc>lat.=56.070259, lon.=26.463139, Alt.=115.047913m. Speed=0.000000m/h.</desc>
<speed>0.000000</speed>
</trkpt>
<trkpt lat="56.070259" lon="26.463140">
<ele>115.053772</ele>
<time>2010-08-29T13:08:19Z</time>
<desc>lat.=56.070259, lon.=26.463140, Alt.=115.053772m. Speed=0.036000m/h.</desc>
<speed>0.010000</speed>
</trkpt>
<trkpt lat="56.070259" lon="26.463140">
<ele>115.055725</ele>
<time>2010-08-29T13:08:20Z</time>
<desc>lat.=56.070259, lon.=26.463140, Alt.=115.055725m. Speed=0.000000m/h.</desc>
<speed>0.000000</speed>
</trkpt>
<trkpt lat="56.070259" lon="26.463140">
<ele>115.061584</ele>
<time>2010-08-29T13:08:21Z</time>
<desc>lat.=56.070259, lon.=26.463140, Alt.=115.061584m. Speed=0.000000m/h.</desc>
<speed>0.000000</speed>
</trkpt>
<trkpt lat="56.070259" lon="26.463140">
<ele>115.067444</ele>
<time>2010-08-29T13:08:22Z</time>
<desc>lat.=56.070259, lon.=26.463140, Alt.=115.067444m. Speed=0.036000m/h.</desc>
<speed>0.010000</speed>
</trkpt>
<trkpt lat="56.070259" lon="26.463140">
<ele>115.069397</ele>
<time>2010-08-29T13:08:23Z</time>
<desc>lat.=56.070259, lon.=26.463140, Alt.=115.069397m. Speed=0.000000m/h.</desc>
<speed>0.000000</speed>
</trkpt>
<trkpt lat="56.070259" lon="26.463140">
<ele>115.071350</ele>
<time>2010-08-29T13:08:24Z</time>
<desc>lat.=56.070259, lon.=26.463140, Alt.=115.071350m. Speed=0.000000m/h.</desc>
<speed>0.000000</speed>
</trkpt>
<trkpt lat="56.070259" lon="26.463140">
<ele>115.075256</ele>
<time>2010-08-29T13:08:25Z</time>
<desc>lat.=56.070259, lon.=26.463140, Alt.=115.075256m. Speed=0.036000m/h.</desc>
<speed>0.010000</speed>
</trkpt>
<trkpt lat="56.070259" lon="26.463140">
<ele>115.081116</ele>
<time>2010-08-29T13:08:26Z</time>
<desc>lat.=56.070259, lon.=26.463140, Alt.=115.081116m. Speed=0.072000m/h.</desc>
<speed>0.020000</speed>
</trkpt>
<trkpt lat="56.070259" lon="26.463140">
<ele>115.085022</ele>
<time>2010-08-29T13:08:27Z</time>
<desc>lat.=56.070259, lon.=26.463140, Alt.=115.085022m. Speed=0.000000m/h.</desc>
<speed>0.000000</speed>
</trkpt>
<trkpt lat="56.070259" lon="26.463140">
<ele>115.086975</ele>
<time>2010-08-29T13:08:28Z</time>
<desc>lat.=56.070259, lon.=26.463140, Alt.=115.086975m. Speed=0.000000m/h.</desc>
<speed>0.000000</speed>
</trkpt>
<trkpt lat="56.070259" lon="26.463140">
<ele>115.090881</ele>
<time>2010-08-29T13:08:29Z</time>
<desc>lat.=56.070259, lon.=26.463140, Alt.=115.090881m. Speed=0.000000m/h.</desc>
<speed>0.000000</speed>
</trkpt>
<trkpt lat="56.070259" lon="26.463140">
<ele>115.096741</ele>
<time>2010-08-29T13:08:30Z</time>
<desc>lat.=56.070259, lon.=26.463140, Alt.=115.096741m. Speed=0.000000m/h.</desc>
<speed>0.000000</speed>
</trkpt>
<trkpt lat="56.070259" lon="26.463140">
<ele>115.100647</ele>
<time>2010-08-29T13:08:31Z</time>
<desc>lat.=56.070259, lon.=26.463140, Alt.=115.100647m. Speed=0.000000m/h.</desc>
<speed>0.000000</speed>
</trkpt>
<trkpt lat="56.070259" lon="26.463140">
<ele>115.104553</ele>
<time>2010-08-29T13:08:32Z</time>
<desc>lat.=56.070259, lon.=26.463140, Alt.=115.104553m. Speed=0.000000m/h.</desc>
<speed>0.000000</speed>
</trkpt>
<trkpt lat="56.070259" lon="26.463140">
<ele>115.112366</ele>
<time>2010-08-29T13:08:33Z</time>
<desc>lat.=56.070259, lon.=26.463140, Alt.=115.112366m. Speed=0.000000m/h.</desc>
<speed>0.000000</speed>
</trkpt>
<trkpt lat="56.070259" lon="26.463140">
<ele>115.116272</ele>
<time>2010-08-29T13:08:34Z</time>
<desc>lat.=56.070259, lon.=26.463140, Alt.=115.116272m. Speed=0.000000m/h.</desc>
<speed>0.000000</speed>
</trkpt>
<trkpt lat="56.070259" lon="26.463140">
<ele>115.120178</ele>
<time>2010-08-29T13:08:35Z</time>
<desc>lat.=56.070259, lon.=26.463140, Alt.=115.120178m. Speed=0.000000m/h.</desc>
<speed>0.000000</speed>
</trkpt>
<trkpt lat="56.070259" lon="26.463140">
<ele>115.126038</ele>
<time>2010-08-29T13:08:36Z</time>
<desc>lat.=56.070259, lon.=26.463140, Alt.=115.126038m. Speed=0.000000m/h.</desc>
<speed>0.000000</speed>
</trkpt>
<trkpt lat="56.070259" lon="26.463140">
<ele>115.129944</ele>
<time>2010-08-29T13:08:37Z</time>
<desc>lat.=56.070259, lon.=26.463140, Alt.=115.129944m. Speed=0.000000m/h.</desc>
<speed>0.000000</speed>
</trkpt>
<trkpt lat="56.070259" lon="26.463140">
<ele>115.131897</ele>
<time>2010-08-29T13:08:38Z</time>
<desc>lat.=56.070259, lon.=26.463140, Alt.=115.131897m. Speed=0.000000m/h.</desc>
<speed>0.000000</speed>
</trkpt>
<trkpt lat="56.070259" lon="26.463140">
<ele>115.133850</ele>
<time>2010-08-29T13:08:39Z</time>
<desc>lat.=56.070259, lon.=26.463140, Alt.=115.133850m. Speed=0.000000m/h.</desc>
<speed>0.000000</speed>
</trkpt>
<trkpt lat="56.070259" lon="26.463140">
<ele>115.135803</ele>
<time>2010-08-29T13:08:40Z</time>
<desc>lat.=56.070259, lon.=26.463140, Alt.=115.135803m. Speed=0.000000m/h.</desc>
<speed>0.000000</speed>
</trkpt>
<trkpt lat="56.070259" lon="26.463140">
<ele>115.141663</ele>
<time>2010-08-29T13:08:41Z</time>
<desc>lat.=56.070259, lon.=26.463140, Alt.=115.141663m. Speed=0.036000m/h.</desc>
<speed>0.010000</speed>
</trkpt>
<trkpt lat="56.070259" lon="26.463140">
<ele>115.143616</ele>
<time>2010-08-29T13:08:42Z</time>
<desc>lat.=56.070259, lon.=26.463140, Alt.=115.143616m. Speed=0.000000m/h.</desc>
<speed>0.000000</speed>
</trkpt>
<trkpt lat="56.070259" lon="26.463140">
<ele>115.143616</ele>
<time>2010-08-29T13:08:43Z</time>
<desc>lat.=56.070259, lon.=26.463140, Alt.=115.143616m. Speed=0.000000m/h.</desc>
<speed>0.000000</speed>
</trkpt>
<trkpt lat="56.070259" lon="26.463140">
<ele>115.151428</ele>
<time>2010-08-29T13:08:44Z</time>
<desc>lat.=56.070259, lon.=26.463140, Alt.=115.151428m. Speed=0.000000m/h.</desc>
<speed>0.000000</speed>
</trkpt>
<trkpt lat="56.070259" lon="26.463140">
<ele>115.153381</ele>
<time>2010-08-29T13:08:45Z</time>
<desc>lat.=56.070259, lon.=26.463140, Alt.=115.153381m. Speed=0.000000m/h.</desc>
<speed>0.000000</speed>
</trkpt>
<trkpt lat="56.070259" lon="26.463140">
<ele>115.155334</ele>
<time>2010-08-29T13:08:46Z</time>
<desc>lat.=56.070259, lon.=26.463140, Alt.=115.155334m. Speed=0.000000m/h.</desc>
<speed>0.000000</speed>
</trkpt>
<trkpt lat="56.070259" lon="26.463140">
<ele>115.157288</ele>
<time>2010-08-29T13:08:47Z</time>
<desc>lat.=56.070259, lon.=26.463140, Alt.=115.157288m. Speed=0.000000m/h.</desc>
<speed>0.000000</speed>
</trkpt>
<trkpt lat="56.070259" lon="26.463140">
<ele>115.163147</ele>
<time>2010-08-29T13:08:48Z</time>
<desc>lat.=56.070259, lon.=26.463140, Alt.=115.163147m. Speed=0.036000m/h.</desc>
<speed>0.010000</speed>
</trkpt>
<trkpt lat="56.070259" lon="26.463140">
<ele>115.165100</ele>
<time>2010-08-29T13:08:49Z</time>
<desc>lat.=56.070259, lon.=26.463140, Alt.=115.165100m. Speed=0.000000m/h.</desc>
<speed>0.000000</speed>
</trkpt>
<trkpt lat="56.070259" lon="26.463140">
<ele>115.169006</ele>
<time>2010-08-29T13:08:50Z</time>
<desc>lat.=56.070259, lon.=26.463140, Alt.=115.169006m. Speed=0.072000m/h.</desc>
<speed>0.020000</speed>
</trkpt>
<trkpt lat="56.070259" lon="26.463140">
<ele>115.174866</ele>
<time>2010-08-29T13:08:51Z</time>
<desc>lat.=56.070259, lon.=26.463140, Alt.=115.174866m. Speed=0.900000m/h.</desc>
<speed>0.250000</speed>
</trkpt>
<trkpt lat="56.070259" lon="26.463140">
<ele>115.184631</ele>
<time>2010-08-29T13:08:52Z</time>
<desc>lat.=56.070259, lon.=26.463140, Alt.=115.184631m. Speed=2.880000m/h.</desc>
<speed>0.800000</speed>
</trkpt>
<trkpt lat="56.070255" lon="26.463144">
<ele>115.739319</ele>
<time>2010-08-29T13:08:53Z</time>
<desc>lat.=56.070255, lon.=26.463144, Alt.=115.739319m. Speed=1.188000m/h.</desc>
<speed>0.330000</speed>
</trkpt>
<trkpt lat="56.070251" lon="26.463148">
<ele>116.116272</ele>
<time>2010-08-29T13:08:54Z</time>
<desc>lat.=56.070251, lon.=26.463148, Alt.=116.116272m. Speed=3.708000m/h.</desc>
<speed>1.030000</speed>
</trkpt>
<trkpt lat="56.070244" lon="26.463154">
<ele>116.626038</ele>
<time>2010-08-29T13:08:55Z</time>
<desc>lat.=56.070244, lon.=26.463154, Alt.=116.626038m. Speed=3.348000m/h.</desc>
<speed>0.930000</speed>
</trkpt>
<trkpt lat="56.070236" lon="26.463156">
<ele>117.063538</ele>
<time>2010-08-29T13:08:56Z</time>
<desc>lat.=56.070236, lon.=26.463156, Alt.=117.063538m. Speed=4.248000m/h.</desc>
<speed>1.180000</speed>
</trkpt>
<trkpt lat="56.070225" lon="26.463156">
<ele>116.963928</ele>
<time>2010-08-29T13:08:57Z</time>
<desc>lat.=56.070225, lon.=26.463156, Alt.=116.963928m. Speed=4.032000m/h.</desc>
<speed>1.120000</speed>
</trkpt>
<trkpt lat="56.070217" lon="26.463150">
<ele>116.479553</ele>
<time>2010-08-29T13:08:58Z</time>
<desc>lat.=56.070217, lon.=26.463150, Alt.=116.479553m. Speed=2.592000m/h.</desc>
<speed>0.720000</speed>
</trkpt>
<trkpt lat="56.070210" lon="26.463144">
<ele>116.458069</ele>
<time>2010-08-29T13:08:59Z</time>
<desc>lat.=56.070210, lon.=26.463144, Alt.=116.458069m. Speed=2.160000m/h.</desc>
<speed>0.600000</speed>
</trkpt>
<trkpt lat="56.070206" lon="26.463140">
<ele>116.479553</ele>
<time>2010-08-29T13:09:00Z</time>
<desc>lat.=56.070206, lon.=26.463140, Alt.=116.479553m. Speed=1.440000m/h.</desc>
<speed>0.400000</speed>
</trkpt>
<trkpt lat="56.070206" lon="26.463133">
<ele>116.473694</ele>
<time>2010-08-29T13:09:01Z</time>
<desc>lat.=56.070206, lon.=26.463133, Alt.=116.473694m. Speed=1.548000m/h.</desc>
<speed>0.430000</speed>
</trkpt>
<trkpt lat="56.070206" lon="26.463129">
<ele>116.471741</ele>
<time>2010-08-29T13:09:02Z</time>
<desc>lat.=56.070206, lon.=26.463129, Alt.=116.471741m. Speed=0.396000m/h.</desc>
<speed>0.110000</speed>
</trkpt>
<trkpt lat="56.070210" lon="26.463123">
<ele>116.387756</ele>
<time>2010-08-29T13:09:03Z</time>
<desc>lat.=56.070210, lon.=26.463123, Alt.=116.387756m. Speed=0.288000m/h.</desc>
<speed>0.080000</speed>
</trkpt>
<trkpt lat="56.070213" lon="26.463118">
<ele>116.432678</ele>
<time>2010-08-29T13:09:04Z</time>
<desc>lat.=56.070213, lon.=26.463118, Alt.=116.432678m. Speed=0.324000m/h.</desc>
<speed>0.090000</speed>
</trkpt>
<trkpt lat="56.070217" lon="26.463114">
<ele>116.465881</ele>
<time>2010-08-29T13:09:05Z</time>
<desc>lat.=56.070217, lon.=26.463114, Alt.=116.465881m. Speed=0.468000m/h.</desc>
<speed>0.130000</speed>
</trkpt>
<trkpt lat="56.070217" lon="26.463114">
<ele>116.627991</ele>
<time>2010-08-29T13:09:06Z</time>
<desc>lat.=56.070217, lon.=26.463114, Alt.=116.627991m. Speed=0.180000m/h.</desc>
<speed>0.050000</speed>
</trkpt>
<trkpt lat="56.070217" lon="26.463114">
<ele>116.715881</ele>
<time>2010-08-29T13:09:07Z</time>
<desc>lat.=56.070217, lon.=26.463114, Alt.=116.715881m. Speed=0.108000m/h.</desc>
<speed>0.030000</speed>
</trkpt>
<trkpt lat="56.070217" lon="26.463114">
<ele>116.772522</ele>
<time>2010-08-29T13:09:08Z</time>
<desc>lat.=56.070217, lon.=26.463114, Alt.=116.772522m. Speed=0.072000m/h.</desc>
<speed>0.020000</speed>
</trkpt>
<trkpt lat="56.070217" lon="26.463114">
<ele>116.807678</ele>
<time>2010-08-29T13:09:09Z</time>
<desc>lat.=56.070217, lon.=26.463114, Alt.=116.807678m. Speed=0.972000m/h.</desc>
<speed>0.270000</speed>
</trkpt>
<trkpt lat="56.070217" lon="26.463114">
<ele>116.868225</ele>
<time>2010-08-29T13:09:10Z</time>
<desc>lat.=56.070217, lon.=26.463114, Alt.=116.868225m. Speed=2.664000m/h.</desc>
<speed>0.740000</speed>
</trkpt>
<trkpt lat="56.070213" lon="26.463114">
<ele>116.715881</ele>
<time>2010-08-29T13:09:11Z</time>
<desc>lat.=56.070213, lon.=26.463114, Alt.=116.715881m. Speed=0.576000m/h.</desc>
<speed>0.160000</speed>
</trkpt>
<trkpt lat="56.070210" lon="26.463116">
<ele>116.610413</ele>
<time>2010-08-29T13:09:12Z</time>
<desc>lat.=56.070210, lon.=26.463116, Alt.=116.610413m. Speed=0.612000m/h.</desc>
<speed>0.170000</speed>
</trkpt>
<trkpt lat="56.070206" lon="26.463114">
<ele>116.376038</ele>
<time>2010-08-29T13:09:13Z</time>
<desc>lat.=56.070206, lon.=26.463114, Alt.=116.376038m. Speed=2.160000m/h.</desc>
<speed>0.600000</speed>
</trkpt>
<trkpt lat="56.070202" lon="26.463116">
<ele>116.301819</ele>
<time>2010-08-29T13:09:14Z</time>
<desc>lat.=56.070202, lon.=26.463116, Alt.=116.301819m. Speed=1.512000m/h.</desc>
<speed>0.420000</speed>
</trkpt>
<trkpt lat="56.070206" lon="26.463114">
<ele>116.696350</ele>
<time>2010-08-29T13:09:15Z</time>
<desc>lat.=56.070206, lon.=26.463114, Alt.=116.696350m. Speed=2.016000m/h.</desc>
<speed>0.560000</speed>
</trkpt>
<trkpt lat="56.070202" lon="26.463120">
<ele>116.776428</ele>
<time>2010-08-29T13:09:16Z</time>
<desc>lat.=56.070202, lon.=26.463120, Alt.=116.776428m. Speed=3.312000m/h.</desc>
<speed>0.920000</speed>
</trkpt>
<trkpt lat="56.070198" lon="26.463129">
<ele>116.565491</ele>
<time>2010-08-29T13:09:17Z</time>
<desc>lat.=56.070198, lon.=26.463129, Alt.=116.565491m. Speed=3.276000m/h.</desc>
<speed>0.910000</speed>
</trkpt>
<trkpt lat="56.070190" lon="26.463131">
<ele>116.627991</ele>
<time>2010-08-29T13:09:18Z</time>
<desc>lat.=56.070190, lon.=26.463131, Alt.=116.627991m. Speed=2.772000m/h.</desc>
<speed>0.770000</speed>
</trkpt>
<trkpt lat="56.070187" lon="26.463131">
<ele>116.756897</ele>
<time>2010-08-29T13:09:19Z</time>
<desc>lat.=56.070187, lon.=26.463131, Alt.=116.756897m. Speed=1.980000m/h.</desc>
<speed>0.550000</speed>
</trkpt>
<trkpt lat="56.070183" lon="26.463131">
<ele>116.510803</ele>
<time>2010-08-29T13:09:20Z</time>
<desc>lat.=56.070183, lon.=26.463131, Alt.=116.510803m. Speed=0.720000m/h.</desc>
<speed>0.200000</speed>
</trkpt>
<trkpt lat="56.070183" lon="26.463127">
<ele>116.469788</ele>
<time>2010-08-29T13:09:21Z</time>
<desc>lat.=56.070183, lon.=26.463127, Alt.=116.469788m. Speed=0.072000m/h.</desc>
<speed>0.020000</speed>
</trkpt>
<trkpt lat="56.070179" lon="26.463121">
<ele>116.483459</ele>
<time>2010-08-29T13:09:22Z</time>
<desc>lat.=56.070179, lon.=26.463121, Alt.=116.483459m. Speed=0.000000m/h.</desc>
<speed>0.000000</speed>
</trkpt>
<trkpt lat="56.070175" lon="26.463116">
<ele>116.370178</ele>
<time>2010-08-29T13:09:23Z</time>
<desc>lat.=56.070175, lon.=26.463116, Alt.=116.370178m. Speed=0.036000m/h.</desc>
<speed>0.010000</speed>
</trkpt>
<trkpt lat="56.070175" lon="26.463116">
<ele>116.364319</ele>
<time>2010-08-29T13:09:24Z</time>
<desc>lat.=56.070175, lon.=26.463116, Alt.=116.364319m. Speed=0.000000m/h.</desc>
<speed>0.000000</speed>
</trkpt>
<trkpt lat="56.070175" lon="26.463114">
<ele>116.364319</ele>
<time>2010-08-29T13:09:25Z</time>
<desc>lat.=56.070175, lon.=26.463114, Alt.=116.364319m. Speed=0.072000m/h.</desc>
<speed>0.020000</speed>
</trkpt>
<trkpt lat="56.070175" lon="26.463116">
<ele>116.360413</ele>
<time>2010-08-29T13:09:26Z</time>
<desc>lat.=56.070175, lon.=26.463116, Alt.=116.360413m. Speed=1.944000m/h.</desc>
<speed>0.540000</speed>
</trkpt>
<trkpt lat="56.070175" lon="26.463121">
<ele>116.336975</ele>
<time>2010-08-29T13:09:27Z</time>
<desc>lat.=56.070175, lon.=26.463121, Alt.=116.336975m. Speed=1.440000m/h.</desc>
<speed>0.400000</speed>
</trkpt>
<trkpt lat="56.070175" lon="26.463129">
<ele>116.321350</ele>
<time>2010-08-29T13:09:28Z</time>
<desc>lat.=56.070175, lon.=26.463129, Alt.=116.321350m. Speed=2.520000m/h.</desc>
<speed>0.700000</speed>
</trkpt>
<trkpt lat="56.070171" lon="26.463135">
<ele>116.420959</ele>
<time>2010-08-29T13:09:29Z</time>
<desc>lat.=56.070171, lon.=26.463135, Alt.=116.420959m. Speed=1.908000m/h.</desc>
<speed>0.530000</speed>
</trkpt>
<trkpt lat="56.070171" lon="26.463137">
<ele>116.551819</ele>
<time>2010-08-29T13:09:30Z</time>
<desc>lat.=56.070171, lon.=26.463137, Alt.=116.551819m. Speed=1.044000m/h.</desc>
<speed>0.290000</speed>
</trkpt>
<trkpt lat="56.070171" lon="26.463140">
<ele>116.667053</ele>
<time>2010-08-29T13:09:31Z</time>
<desc>lat.=56.070171, lon.=26.463140, Alt.=116.667053m. Speed=1.044000m/h.</desc>
<speed>0.290000</speed>
</trkpt>
<trkpt lat="56.070168" lon="26.463152">
<ele>116.758850</ele>
<time>2010-08-29T13:09:32Z</time>
<desc>lat.=56.070168, lon.=26.463152, Alt.=116.758850m. Speed=1.836000m/h.</desc>
<speed>0.510000</speed>
</trkpt>
<trkpt lat="56.070156" lon="26.463160">
<ele>116.795959</ele>
<time>2010-08-29T13:09:33Z</time>
<desc>lat.=56.070156, lon.=26.463160, Alt.=116.795959m. Speed=2.916000m/h.</desc>
<speed>0.810000</speed>
</trkpt>
<trkpt lat="56.070152" lon="26.463163">
<ele>116.827209</ele>
<time>2010-08-29T13:09:34Z</time>
<desc>lat.=56.070152, lon.=26.463163, Alt.=116.827209m. Speed=2.988000m/h.</desc>
<speed>0.830000</speed>
</trkpt>
<trkpt lat="56.070141" lon="26.463158">
<ele>117.040100</ele>
<time>2010-08-29T13:09:35Z</time>
<desc>lat.=56.070141, lon.=26.463158, Alt.=117.040100m. Speed=1.512000m/h.</desc>
<speed>0.420000</speed>
</trkpt>
<trkpt lat="56.070137" lon="26.463156">
<ele>117.178772</ele>
<time>2010-08-29T13:09:36Z</time>
<desc>lat.=56.070137, lon.=26.463156, Alt.=117.178772m. Speed=0.864000m/h.</desc>
<speed>0.240000</speed>
</trkpt>
<trkpt lat="56.070133" lon="26.463154">
<ele>117.215881</ele>
<time>2010-08-29T13:09:37Z</time>
<desc>lat.=56.070133, lon.=26.463154, Alt.=117.215881m. Speed=0.252000m/h.</desc>
<speed>0.070000</speed>
</trkpt>
<trkpt lat="56.070129" lon="26.463152">
<ele>117.215881</ele>
<time>2010-08-29T13:09:38Z</time>
<desc>lat.=56.070129, lon.=26.463152, Alt.=117.215881m. Speed=0.648000m/h.</desc>
<speed>0.180000</speed>
</trkpt>
<trkpt lat="56.070133" lon="26.463154">
<ele>117.245178</ele>
<time>2010-08-29T13:09:39Z</time>
<desc>lat.=56.070133, lon.=26.463154, Alt.=117.245178m. Speed=0.252000m/h.</desc>
<speed>0.070000</speed>
</trkpt>
<trkpt lat="56.070133" lon="26.463156">
<ele>117.385803</ele>
<time>2010-08-29T13:09:40Z</time>
<desc>lat.=56.070133, lon.=26.463156, Alt.=117.385803m. Speed=0.180000m/h.</desc>
<speed>0.050000</speed>
</trkpt>
<trkpt lat="56.070133" lon="26.463156">
<ele>117.469788</ele>
<time>2010-08-29T13:09:41Z</time>
<desc>lat.=56.070133, lon.=26.463156, Alt.=117.469788m. Speed=0.144000m/h.</desc>
<speed>0.040000</speed>
</trkpt>
<trkpt lat="56.070133" lon="26.463156">
<ele>117.538147</ele>
<time>2010-08-29T13:09:42Z</time>
<desc>lat.=56.070133, lon.=26.463156, Alt.=117.538147m. Speed=0.072000m/h.</desc>
<speed>0.020000</speed>
</trkpt>
<trkpt lat="56.070133" lon="26.463154">
<ele>117.598694</ele>
<time>2010-08-29T13:09:43Z</time>
<desc>lat.=56.070133, lon.=26.463154, Alt.=117.598694m. Speed=0.288000m/h.</desc>
<speed>0.080000</speed>
</trkpt>
<trkpt lat="56.070133" lon="26.463156">
<ele>117.672913</ele>
<time>2010-08-29T13:09:44Z</time>
<desc>lat.=56.070133, lon.=26.463156, Alt.=117.672913m. Speed=3.816000m/h.</desc>
<speed>1.060000</speed>
</trkpt>
<trkpt lat="56.070126" lon="26.463140">
<ele>117.596741</ele>
<time>2010-08-29T13:09:45Z</time>
<desc>lat.=56.070126, lon.=26.463140, Alt.=117.596741m. Speed=4.212000m/h.</desc>
<speed>1.170000</speed>
</trkpt>
<trkpt lat="56.070126" lon="26.463133">
<ele>117.608459</ele>
<time>2010-08-29T13:09:46Z</time>
<desc>lat.=56.070126, lon.=26.463133, Alt.=117.608459m. Speed=0.360000m/h.</desc>
<speed>0.100000</speed>
</trkpt>
<trkpt lat="56.070129" lon="26.463131">
<ele>117.573303</ele>
<time>2010-08-29T13:09:47Z</time>
<desc>lat.=56.070129, lon.=26.463131, Alt.=117.573303m. Speed=0.288000m/h.</desc>
<speed>0.080000</speed>
</trkpt>
<trkpt lat="56.070129" lon="26.463131">
<ele>117.157288</ele>
<time>2010-08-29T13:09:48Z</time>
<desc>lat.=56.070129, lon.=26.463131, Alt.=117.157288m. Speed=0.036000m/h.</desc>
<speed>0.010000</speed>
</trkpt>
<trkpt lat="56.070129" lon="26.463129">
<ele>117.126038</ele>
<time>2010-08-29T13:09:49Z</time>
<desc>lat.=56.070129, lon.=26.463129, Alt.=117.126038m. Speed=0.072000m/h.</desc>
<speed>0.020000</speed>
</trkpt>
<trkpt lat="56.070129" lon="26.463129">
<ele>117.127991</ele>
<time>2010-08-29T13:09:50Z</time>
<desc>lat.=56.070129, lon.=26.463129, Alt.=117.127991m. Speed=0.000000m/h.</desc>
<speed>0.000000</speed>
</trkpt>
<trkpt lat="56.070129" lon="26.463129">
<ele>117.141663</ele>
<time>2010-08-29T13:09:51Z</time>
<desc>lat.=56.070129, lon.=26.463129, Alt.=117.141663m. Speed=0.036000m/h.</desc>
<speed>0.010000</speed>
</trkpt>
<trkpt lat="56.070129" lon="26.463129">
<ele>117.157288</ele>
<time>2010-08-29T13:09:52Z</time>
<desc>lat.=56.070129, lon.=26.463129, Alt.=117.157288m. Speed=0.000000m/h.</desc>
<speed>0.000000</speed>
</trkpt>
<trkpt lat="56.070129" lon="26.463129">
<ele>117.165100</ele>
<time>2010-08-29T13:09:53Z</time>
<desc>lat.=56.070129, lon.=26.463129, Alt.=117.165100m. Speed=0.000000m/h.</desc>
<speed>0.000000</speed>
</trkpt>
<trkpt lat="56.070129" lon="26.463129">
<ele>117.165100</ele>
<time>2010-08-29T13:09:54Z</time>
<desc>lat.=56.070129, lon.=26.463129, Alt.=117.165100m. Speed=0.144000m/h.</desc>
<speed>0.040000</speed>
</trkpt>
<trkpt lat="56.070129" lon="26.463129">
<ele>117.190491</ele>
<time>2010-08-29T13:09:55Z</time>
<desc>lat.=56.070129, lon.=26.463129, Alt.=117.190491m. Speed=0.720000m/h.</desc>
<speed>0.200000</speed>
</trkpt>
<trkpt lat="56.070126" lon="26.463131">
<ele>117.252991</ele>
<time>2010-08-29T13:09:56Z</time>
<desc>lat.=56.070126, lon.=26.463131, Alt.=117.252991m. Speed=3.024000m/h.</desc>
<speed>0.840000</speed>
</trkpt>
<trkpt lat="56.070122" lon="26.463140">
<ele>117.467834</ele>
<time>2010-08-29T13:09:57Z</time>
<desc>lat.=56.070122, lon.=26.463140, Alt.=117.467834m. Speed=3.456000m/h.</desc>
<speed>0.960000</speed>
</trkpt>
<trkpt lat="56.070122" lon="26.463161">
<ele>117.805725</ele>
<time>2010-08-29T13:09:58Z</time>
<desc>lat.=56.070122, lon.=26.463161, Alt.=117.805725m. Speed=6.372000m/h.</desc>
<speed>1.770000</speed>
</trkpt>
<trkpt lat="56.070122" lon="26.463186">
<ele>118.172913</ele>
<time>2010-08-29T13:09:59Z</time>
<desc>lat.=56.070122, lon.=26.463186, Alt.=118.172913m. Speed=5.364000m/h.</desc>
<speed>1.490000</speed>
</trkpt>
<trkpt lat="56.070122" lon="26.463203">
<ele>118.495178</ele>
<time>2010-08-29T13:10:00Z</time>
<desc>lat.=56.070122, lon.=26.463203, Alt.=118.495178m. Speed=3.852000m/h.</desc>
<speed>1.070000</speed>
</trkpt>
<trkpt lat="56.070114" lon="26.463223">
<ele>118.768616</ele>
<time>2010-08-29T13:10:01Z</time>
<desc>lat.=56.070114, lon.=26.463223, Alt.=118.768616m. Speed=4.536000m/h.</desc>
<speed>1.260000</speed>
</trkpt>
<trkpt lat="56.070114" lon="26.463230">
<ele>119.090881</ele>
<time>2010-08-29T13:10:02Z</time>
<desc>lat.=56.070114, lon.=26.463230, Alt.=119.090881m. Speed=2.988000m/h.</desc>
<speed>0.830000</speed>
</trkpt>
<trkpt lat="56.070118" lon="26.463245">
<ele>119.545959</ele>
<time>2010-08-29T13:10:03Z</time>
<desc>lat.=56.070118, lon.=26.463245, Alt.=119.545959m. Speed=3.276000m/h.</desc>
<speed>0.910000</speed>
</trkpt>
<trkpt lat="56.070126" lon="26.463255">
<ele>120.044006</ele>
<time>2010-08-29T13:10:04Z</time>
<desc>lat.=56.070126, lon.=26.463255, Alt.=120.044006m. Speed=2.304000m/h.</desc>
<speed>0.640000</speed>
</trkpt>
<trkpt lat="56.070141" lon="26.463249">
<ele>120.272522</ele>
<time>2010-08-29T13:10:05Z</time>
<desc>lat.=56.070141, lon.=26.463249, Alt.=120.272522m. Speed=6.048000m/h.</desc>
<speed>1.680000</speed>
</trkpt>
<trkpt lat="56.070118" lon="26.463232">
<ele>120.252991</ele>
<time>2010-08-29T13:10:06Z</time>
<desc>lat.=56.070118, lon.=26.463232, Alt.=120.252991m. Speed=2.484000m/h.</desc>
<speed>0.690000</speed>
</trkpt>
<trkpt lat="56.070114" lon="26.463240">
<ele>120.585022</ele>
<time>2010-08-29T13:10:07Z</time>
<desc>lat.=56.070114, lon.=26.463240, Alt.=120.585022m. Speed=2.376000m/h.</desc>
<speed>0.660000</speed>
</trkpt>
<trkpt lat="56.070118" lon="26.463253">
<ele>120.727600</ele>
<time>2010-08-29T13:10:08Z</time>
<desc>lat.=56.070118, lon.=26.463253, Alt.=120.727600m. Speed=2.628000m/h.</desc>
<speed>0.730000</speed>
</trkpt>
<trkpt lat="56.070118" lon="26.463268">
<ele>121.010803</ele>
<time>2010-08-29T13:10:09Z</time>
<desc>lat.=56.070118, lon.=26.463268, Alt.=121.010803m. Speed=2.988000m/h.</desc>
<speed>0.830000</speed>
</trkpt>
<trkpt lat="56.070110" lon="26.463289">
<ele>120.895569</ele>
<time>2010-08-29T13:10:10Z</time>
<desc>lat.=56.070110, lon.=26.463289, Alt.=120.895569m. Speed=3.096000m/h.</desc>
<speed>0.860000</speed>
</trkpt>
<trkpt lat="56.070107" lon="26.463303">
<ele>120.760803</ele>
<time>2010-08-29T13:10:11Z</time>
<desc>lat.=56.070107, lon.=26.463303, Alt.=120.760803m. Speed=2.736000m/h.</desc>
<speed>0.760000</speed>
</trkpt>
<trkpt lat="56.070095" lon="26.463316">
<ele>120.866272</ele>
<time>2010-08-29T13:10:12Z</time>
<desc>lat.=56.070095, lon.=26.463316, Alt.=120.866272m. Speed=2.016000m/h.</desc>
<speed>0.560000</speed>
</trkpt>
<trkpt lat="56.070095" lon="26.463331">
<ele>121.409241</ele>
<time>2010-08-29T13:10:13Z</time>
<desc>lat.=56.070095, lon.=26.463331, Alt.=121.409241m. Speed=2.772000m/h.</desc>
<speed>0.770000</speed>
</trkpt>
<trkpt lat="56.070091" lon="26.463348">
<ele>121.479553</ele>
<time>2010-08-29T13:10:14Z</time>
<desc>lat.=56.070091, lon.=26.463348, Alt.=121.479553m. Speed=3.132000m/h.</desc>
<speed>0.870000</speed>
</trkpt>
<trkpt lat="56.070095" lon="26.463367">
<ele>121.743225</ele>
<time>2010-08-29T13:10:15Z</time>
<desc>lat.=56.070095, lon.=26.463367, Alt.=121.743225m. Speed=1.728000m/h.</desc>
<speed>0.480000</speed>
</trkpt>
<trkpt lat="56.070087" lon="26.463369">
<ele>122.036194</ele>
<time>2010-08-29T13:10:16Z</time>
<desc>lat.=56.070087, lon.=26.463369, Alt.=122.036194m. Speed=1.476000m/h.</desc>
<speed>0.410000</speed>
</trkpt>
<trkpt lat="56.070091" lon="26.463379">
<ele>121.645569</ele>
<time>2010-08-29T13:10:17Z</time>
<desc>lat.=56.070091, lon.=26.463379, Alt.=121.645569m. Speed=1.332000m/h.</desc>
<speed>0.370000</speed>
</trkpt>
<trkpt lat="56.070095" lon="26.463375">
<ele>121.639709</ele>
<time>2010-08-29T13:10:18Z</time>
<desc>lat.=56.070095, lon.=26.463375, Alt.=121.639709m. Speed=0.396000m/h.</desc>
<speed>0.110000</speed>
</trkpt>
<trkpt lat="56.070091" lon="26.463371">
<ele>121.731506</ele>
<time>2010-08-29T13:10:19Z</time>
<desc>lat.=56.070091, lon.=26.463371, Alt.=121.731506m. Speed=0.360000m/h.</desc>
<speed>0.100000</speed>
</trkpt>
<trkpt lat="56.070091" lon="26.463373">
<ele>121.833069</ele>
<time>2010-08-29T13:10:20Z</time>
<desc>lat.=56.070091, lon.=26.463373, Alt.=121.833069m. Speed=0.468000m/h.</desc>
<speed>0.130000</speed>
</trkpt>
<trkpt lat="56.070087" lon="26.463369">
<ele>121.860413</ele>
<time>2010-08-29T13:10:21Z</time>
<desc>lat.=56.070087, lon.=26.463369, Alt.=121.860413m. Speed=1.188000m/h.</desc>
<speed>0.330000</speed>
</trkpt>
<trkpt lat="56.070084" lon="26.463366">
<ele>121.885803</ele>
<time>2010-08-29T13:10:22Z</time>
<desc>lat.=56.070084, lon.=26.463366, Alt.=121.885803m. Speed=1.692000m/h.</desc>
<speed>0.470000</speed>
</trkpt>
<trkpt lat="56.070080" lon="26.463362">
<ele>122.024475</ele>
<time>2010-08-29T13:10:23Z</time>
<desc>lat.=56.070080, lon.=26.463362, Alt.=122.024475m. Speed=0.972000m/h.</desc>
<speed>0.270000</speed>
</trkpt>
<trkpt lat="56.070084" lon="26.463362">
<ele>121.895569</ele>
<time>2010-08-29T13:10:24Z</time>
<desc>lat.=56.070084, lon.=26.463362, Alt.=121.895569m. Speed=0.828000m/h.</desc>
<speed>0.230000</speed>
</trkpt>
<trkpt lat="56.070099" lon="26.463356">
<ele>121.922913</ele>
<time>2010-08-29T13:10:25Z</time>
<desc>lat.=56.070099, lon.=26.463356, Alt.=121.922913m. Speed=2.484000m/h.</desc>
<speed>0.690000</speed>
</trkpt>
<trkpt lat="56.070095" lon="26.463345">
<ele>123.186584</ele>
<time>2010-08-29T13:10:26Z</time>
<desc>lat.=56.070095, lon.=26.463345, Alt.=123.186584m. Speed=3.420000m/h.</desc>
<speed>0.950000</speed>
</trkpt>
<trkpt lat="56.070095" lon="26.463335">
<ele>123.743225</ele>
<time>2010-08-29T13:10:27Z</time>
<desc>lat.=56.070095, lon.=26.463335, Alt.=123.743225m. Speed=0.792000m/h.</desc>
<speed>0.220000</speed>
</trkpt>
<trkpt lat="56.070099" lon="26.463333">
<ele>124.122131</ele>
<time>2010-08-29T13:10:28Z</time>
<desc>lat.=56.070099, lon.=26.463333, Alt.=124.122131m. Speed=1.440000m/h.</desc>
<speed>0.400000</speed>
</trkpt>
<trkpt lat="56.070095" lon="26.463335">
<ele>124.411194</ele>
<time>2010-08-29T13:10:29Z</time>
<desc>lat.=56.070095, lon.=26.463335, Alt.=124.411194m. Speed=1.152000m/h.</desc>
<speed>0.320000</speed>
</trkpt>
<trkpt lat="56.070095" lon="26.463343">
<ele>124.860413</ele>
<time>2010-08-29T13:10:30Z</time>
<desc>lat.=56.070095, lon.=26.463343, Alt.=124.860413m. Speed=0.792000m/h.</desc>
<speed>0.220000</speed>
</trkpt>
<trkpt lat="56.070095" lon="26.463337">
<ele>124.385803</ele>
<time>2010-08-29T13:10:31Z</time>
<desc>lat.=56.070095, lon.=26.463337, Alt.=124.385803m. Speed=0.576000m/h.</desc>
<speed>0.160000</speed>
</trkpt>
<trkpt lat="56.070084" lon="26.463346">
<ele>124.565491</ele>
<time>2010-08-29T13:10:32Z</time>
<desc>lat.=56.070084, lon.=26.463346, Alt.=124.565491m. Speed=1.080000m/h.</desc>
<speed>0.300000</speed>
</trkpt>
<trkpt lat="56.070084" lon="26.463350">
<ele>124.374084</ele>
<time>2010-08-29T13:10:33Z</time>
<desc>lat.=56.070084, lon.=26.463350, Alt.=124.374084m. Speed=1.224000m/h.</desc>
<speed>0.340000</speed>
</trkpt>
<trkpt lat="56.070068" lon="26.463358">
<ele>124.586975</ele>
<time>2010-08-29T13:10:34Z</time>
<desc>lat.=56.070068, lon.=26.463358, Alt.=124.586975m. Speed=1.692000m/h.</desc>
<speed>0.470000</speed>
</trkpt>
<trkpt lat="56.070053" lon="26.463369">
<ele>124.710022</ele>
<time>2010-08-29T13:10:35Z</time>
<desc>lat.=56.070053, lon.=26.463369, Alt.=124.710022m. Speed=2.628000m/h.</desc>
<speed>0.730000</speed>
</trkpt>
<trkpt lat="56.070042" lon="26.463388">
<ele>124.854553</ele>
<time>2010-08-29T13:10:36Z</time>
<desc>lat.=56.070042, lon.=26.463388, Alt.=124.854553m. Speed=7.740000m/h.</desc>
<speed>2.150000</speed>
</trkpt>
<trkpt lat="56.070034" lon="26.463415">
<ele>124.889709</ele>
<time>2010-08-29T13:10:37Z</time>
<desc>lat.=56.070034, lon.=26.463415, Alt.=124.889709m. Speed=4.932000m/h.</desc>
<speed>1.370000</speed>
</trkpt>
<trkpt lat="56.070019" lon="26.463430">
<ele>124.946350</ele>
<time>2010-08-29T13:10:38Z</time>
<desc>lat.=56.070019, lon.=26.463430, Alt.=124.946350m. Speed=3.384000m/h.</desc>
<speed>0.940000</speed>
</trkpt>
<trkpt lat="56.070011" lon="26.463430">
<ele>125.120178</ele>
<time>2010-08-29T13:10:39Z</time>
<desc>lat.=56.070011, lon.=26.463430, Alt.=125.120178m. Speed=2.520000m/h.</desc>
<speed>0.700000</speed>
</trkpt>
<trkpt lat="56.070007" lon="26.463432">
<ele>125.389709</ele>
<time>2010-08-29T13:10:40Z</time>
<desc>lat.=56.070007, lon.=26.463432, Alt.=125.389709m. Speed=2.412000m/h.</desc>
<speed>0.670000</speed>
</trkpt>
<trkpt lat="56.070000" lon="26.463434">
<ele>125.569397</ele>
<time>2010-08-29T13:10:41Z</time>
<desc>lat.=56.070000, lon.=26.463434, Alt.=125.569397m. Speed=2.520000m/h.</desc>
<speed>0.700000</speed>
</trkpt>
<trkpt lat="56.069996" lon="26.463434">
<ele>126.028381</ele>
<time>2010-08-29T13:10:42Z</time>
<desc>lat.=56.069996, lon.=26.463434, Alt.=126.028381m. Speed=2.376000m/h.</desc>
<speed>0.660000</speed>
</trkpt>
<trkpt lat="56.069988" lon="26.463428">
<ele>126.264709</ele>
<time>2010-08-29T13:10:43Z</time>
<desc>lat.=56.069988, lon.=26.463428, Alt.=126.264709m. Speed=2.052000m/h.</desc>
<speed>0.570000</speed>
</trkpt>
<trkpt lat="56.069992" lon="26.463421">
<ele>126.544006</ele>
<time>2010-08-29T13:10:44Z</time>
<desc>lat.=56.069992, lon.=26.463421, Alt.=126.544006m. Speed=1.620000m/h.</desc>
<speed>0.450000</speed>
</trkpt>
<trkpt lat="56.069988" lon="26.463411">
<ele>126.577209</ele>
<time>2010-08-29T13:10:45Z</time>
<desc>lat.=56.069988, lon.=26.463411, Alt.=126.577209m. Speed=1.512000m/h.</desc>
<speed>0.420000</speed>
</trkpt>
<trkpt lat="56.069965" lon="26.463411">
<ele>125.960022</ele>
<time>2010-08-29T13:10:46Z</time>
<desc>lat.=56.069965, lon.=26.463411, Alt.=125.960022m. Speed=2.988000m/h.</desc>
<speed>0.830000</speed>
</trkpt>
<trkpt lat="56.069958" lon="26.463408">
<ele>126.036194</ele>
<time>2010-08-29T13:10:47Z</time>
<desc>lat.=56.069958, lon.=26.463408, Alt.=126.036194m. Speed=3.564000m/h.</desc>
<speed>0.990000</speed>
</trkpt>
<trkpt lat="56.069950" lon="26.463390">
<ele>126.092834</ele>
<time>2010-08-29T13:10:48Z</time>
<desc>lat.=56.069950, lon.=26.463390, Alt.=126.092834m. Speed=4.644000m/h.</desc>
<speed>1.290000</speed>
</trkpt>
<trkpt lat="56.069912" lon="26.463379">
<ele>125.891663</ele>
<time>2010-08-29T13:10:49Z</time>
<desc>lat.=56.069912, lon.=26.463379, Alt.=125.891663m. Speed=17.856001m/h.</desc>
<speed>4.960000</speed>
</trkpt>
<trkpt lat="56.069866" lon="26.463377">
<ele>125.342834</ele>
<time>2010-08-29T13:10:50Z</time>
<desc>lat.=56.069866, lon.=26.463377, Alt.=125.342834m. Speed=10.800000m/h.</desc>
<speed>3.000000</speed>
</trkpt>
<trkpt lat="56.069855" lon="26.463379">
<ele>125.358459</ele>
<time>2010-08-29T13:10:51Z</time>
<desc>lat.=56.069855, lon.=26.463379, Alt.=125.358459m. Speed=5.076000m/h.</desc>
<speed>1.410000</speed>
</trkpt>
<trkpt lat="56.069847" lon="26.463383">
<ele>125.471741</ele>
<time>2010-08-29T13:10:52Z</time>
<desc>lat.=56.069847, lon.=26.463383, Alt.=125.471741m. Speed=3.960000m/h.</desc>
<speed>1.100000</speed>
</trkpt>
<trkpt lat="56.069843" lon="26.463383">
<ele>125.692444</ele>
<time>2010-08-29T13:10:53Z</time>
<desc>lat.=56.069843, lon.=26.463383, Alt.=125.692444m. Speed=0.756000m/h.</desc>
<speed>0.210000</speed>
</trkpt>
<trkpt lat="56.069839" lon="26.463381">
<ele>125.530334</ele>
<time>2010-08-29T13:10:54Z</time>
<desc>lat.=56.069839, lon.=26.463381, Alt.=125.530334m. Speed=2.052000m/h.</desc>
<speed>0.570000</speed>
</trkpt>
<trkpt lat="56.069832" lon="26.463367">
<ele>125.758850</ele>
<time>2010-08-29T13:10:55Z</time>
<desc>lat.=56.069832, lon.=26.463367, Alt.=125.758850m. Speed=3.600000m/h.</desc>
<speed>1.000000</speed>
</trkpt>
<trkpt lat="56.069832" lon="26.463352">
<ele>125.948303</ele>
<time>2010-08-29T13:10:56Z</time>
<desc>lat.=56.069832, lon.=26.463352, Alt.=125.948303m. Speed=3.744000m/h.</desc>
<speed>1.040000</speed>
</trkpt>
<trkpt lat="56.069836" lon="26.463335">
<ele>126.034241</ele>
<time>2010-08-29T13:10:57Z</time>
<desc>lat.=56.069836, lon.=26.463335, Alt.=126.034241m. Speed=2.664000m/h.</desc>
<speed>0.740000</speed>
</trkpt>
<trkpt lat="56.069836" lon="26.463318">
<ele>126.055725</ele>
<time>2010-08-29T13:10:58Z</time>
<desc>lat.=56.069836, lon.=26.463318, Alt.=126.055725m. Speed=2.592000m/h.</desc>
<speed>0.720000</speed>
</trkpt>
<trkpt lat="56.069820" lon="26.463301">
<ele>125.897522</ele>
<time>2010-08-29T13:10:59Z</time>
<desc>lat.=56.069820, lon.=26.463301, Alt.=125.897522m. Speed=2.412000m/h.</desc>
<speed>0.670000</speed>
</trkpt>
<trkpt lat="56.069817" lon="26.463274">
<ele>125.889709</ele>
<time>2010-08-29T13:11:00Z</time>
<desc>lat.=56.069817, lon.=26.463274, Alt.=125.889709m. Speed=1.620000m/h.</desc>
<speed>0.450000</speed>
</trkpt>
<trkpt lat="56.069820" lon="26.463264">
<ele>126.051819</ele>
<time>2010-08-29T13:11:01Z</time>
<desc>lat.=56.069820, lon.=26.463264, Alt.=126.051819m. Speed=1.224000m/h.</desc>
<speed>0.340000</speed>
</trkpt>
<trkpt lat="56.069824" lon="26.463255">
<ele>126.149475</ele>
<time>2010-08-29T13:11:02Z</time>
<desc>lat.=56.069824, lon.=26.463255, Alt.=126.149475m. Speed=0.900000m/h.</desc>
<speed>0.250000</speed>
</trkpt>
<trkpt lat="56.069824" lon="26.463272">
<ele>126.036194</ele>
<time>2010-08-29T13:11:03Z</time>
<desc>lat.=56.069824, lon.=26.463272, Alt.=126.036194m. Speed=1.476000m/h.</desc>
<speed>0.410000</speed>
</trkpt>
<trkpt lat="56.069824" lon="26.463278">
<ele>126.227600</ele>
<time>2010-08-29T13:11:04Z</time>
<desc>lat.=56.069824, lon.=26.463278, Alt.=126.227600m. Speed=1.800000m/h.</desc>
<speed>0.500000</speed>
</trkpt>
<trkpt lat="56.069828" lon="26.463285">
<ele>126.260803</ele>
<time>2010-08-29T13:11:05Z</time>
<desc>lat.=56.069828, lon.=26.463285, Alt.=126.260803m. Speed=2.952000m/h.</desc>
<speed>0.820000</speed>
</trkpt>
<trkpt lat="56.069832" lon="26.463295">
<ele>126.297913</ele>
<time>2010-08-29T13:11:06Z</time>
<desc>lat.=56.069832, lon.=26.463295, Alt.=126.297913m. Speed=3.996000m/h.</desc>
<speed>1.110000</speed>
</trkpt>
<trkpt lat="56.069836" lon="26.463291">
<ele>126.225647</ele>
<time>2010-08-29T13:11:07Z</time>
<desc>lat.=56.069836, lon.=26.463291, Alt.=126.225647m. Speed=3.204000m/h.</desc>
<speed>0.890000</speed>
</trkpt>
<trkpt lat="56.069828" lon="26.463303">
<ele>126.194397</ele>
<time>2010-08-29T13:11:08Z</time>
<desc>lat.=56.069828, lon.=26.463303, Alt.=126.194397m. Speed=9.900000m/h.</desc>
<speed>2.750000</speed>
</trkpt>
<trkpt lat="56.069817" lon="26.463306">
<ele>125.926819</ele>
<time>2010-08-29T13:11:09Z</time>
<desc>lat.=56.069817, lon.=26.463306, Alt.=125.926819m. Speed=1.908000m/h.</desc>
<speed>0.530000</speed>
</trkpt>
<trkpt lat="56.069809" lon="26.463303">
<ele>125.887756</ele>
<time>2010-08-29T13:11:10Z</time>
<desc>lat.=56.069809, lon.=26.463303, Alt.=125.887756m. Speed=3.096000m/h.</desc>
<speed>0.860000</speed>
</trkpt>
<trkpt lat="56.069805" lon="26.463305">
<ele>125.905334</ele>
<time>2010-08-29T13:11:11Z</time>
<desc>lat.=56.069805, lon.=26.463305, Alt.=125.905334m. Speed=4.752000m/h.</desc>
<speed>1.320000</speed>
</trkpt>
<trkpt lat="56.069801" lon="26.463303">
<ele>125.745178</ele>
<time>2010-08-29T13:11:12Z</time>
<desc>lat.=56.069801, lon.=26.463303, Alt.=125.745178m. Speed=1.980000m/h.</desc>
<speed>0.550000</speed>
</trkpt>
<trkpt lat="56.069798" lon="26.463299">
<ele>125.635803</ele>
<time>2010-08-29T13:11:13Z</time>
<desc>lat.=56.069798, lon.=26.463299, Alt.=125.635803m. Speed=3.096000m/h.</desc>
<speed>0.860000</speed>
</trkpt>
<trkpt lat="56.069817" lon="26.463284">
<ele>125.809631</ele>
<time>2010-08-29T13:11:14Z</time>
<desc>lat.=56.069817, lon.=26.463284, Alt.=125.809631m. Speed=1.512000m/h.</desc>
<speed>0.420000</speed>
</trkpt>
<trkpt lat="56.069820" lon="26.463278">
<ele>126.012756</ele>
<time>2010-08-29T13:11:15Z</time>
<desc>lat.=56.069820, lon.=26.463278, Alt.=126.012756m. Speed=1.188000m/h.</desc>
<speed>0.330000</speed>
</trkpt>
<trkpt lat="56.069813" lon="26.463287">
<ele>126.020569</ele>
<time>2010-08-29T13:11:16Z</time>
<desc>lat.=56.069813, lon.=26.463287, Alt.=126.020569m. Speed=1.152000m/h.</desc>
<speed>0.320000</speed>
</trkpt>
<trkpt lat="56.069813" lon="26.463285">
<ele>125.913147</ele>
<time>2010-08-29T13:11:17Z</time>
<desc>lat.=56.069813, lon.=26.463285, Alt.=125.913147m. Speed=1.368000m/h.</desc>
<speed>0.380000</speed>
</trkpt>
<trkpt lat="56.069809" lon="26.463280">
<ele>126.100647</ele>
<time>2010-08-29T13:11:18Z</time>
<desc>lat.=56.069809, lon.=26.463280, Alt.=126.100647m. Speed=1.800000m/h.</desc>
<speed>0.500000</speed>
</trkpt>
<trkpt lat="56.069813" lon="26.463284">
<ele>126.452209</ele>
<time>2010-08-29T13:11:19Z</time>
<desc>lat.=56.069813, lon.=26.463284, Alt.=126.452209m. Speed=0.504000m/h.</desc>
<speed>0.140000</speed>
</trkpt>
<trkpt lat="56.069824" lon="26.463289">
<ele>126.754944</ele>
<time>2010-08-29T13:11:20Z</time>
<desc>lat.=56.069824, lon.=26.463289, Alt.=126.754944m. Speed=0.792000m/h.</desc>
<speed>0.220000</speed>
</trkpt>
<trkpt lat="56.069817" lon="26.463291">
<ele>126.749084</ele>
<time>2010-08-29T13:11:21Z</time>
<desc>lat.=56.069817, lon.=26.463291, Alt.=126.749084m. Speed=0.792000m/h.</desc>
<speed>0.220000</speed>
</trkpt>
<trkpt lat="56.069809" lon="26.463293">
<ele>126.631897</ele>
<time>2010-08-29T13:11:22Z</time>
<desc>lat.=56.069809, lon.=26.463293, Alt.=126.631897m. Speed=0.108000m/h.</desc>
<speed>0.030000</speed>
</trkpt>
<trkpt lat="56.069809" lon="26.463295">
<ele>126.772522</ele>
<time>2010-08-29T13:11:23Z</time>
<desc>lat.=56.069809, lon.=26.463295, Alt.=126.772522m. Speed=0.216000m/h.</desc>
<speed>0.060000</speed>
</trkpt>
<trkpt lat="56.069809" lon="26.463295">
<ele>126.903381</ele>
<time>2010-08-29T13:11:24Z</time>
<desc>lat.=56.069809, lon.=26.463295, Alt.=126.903381m. Speed=2.052000m/h.</desc>
<speed>0.570000</speed>
</trkpt>
<trkpt lat="56.069805" lon="26.463301">
<ele>127.024475</ele>
<time>2010-08-29T13:11:25Z</time>
<desc>lat.=56.069805, lon.=26.463301, Alt.=127.024475m. Speed=1.692000m/h.</desc>
<speed>0.470000</speed>
</trkpt>
<trkpt lat="56.069801" lon="26.463306">
<ele>127.147522</ele>
<time>2010-08-29T13:11:26Z</time>
<desc>lat.=56.069801, lon.=26.463306, Alt.=127.147522m. Speed=2.520000m/h.</desc>
<speed>0.700000</speed>
</trkpt>
<trkpt lat="56.069798" lon="26.463316">
<ele>127.290100</ele>
<time>2010-08-29T13:11:27Z</time>
<desc>lat.=56.069798, lon.=26.463316, Alt.=127.290100m. Speed=2.772000m/h.</desc>
<speed>0.770000</speed>
</trkpt>
<trkpt lat="56.069798" lon="26.463322">
<ele>127.180725</ele>
<time>2010-08-29T13:11:28Z</time>
<desc>lat.=56.069798, lon.=26.463322, Alt.=127.180725m. Speed=0.360000m/h.</desc>
<speed>0.100000</speed>
</trkpt>
<trkpt lat="56.069798" lon="26.463335">
<ele>127.133850</ele>
<time>2010-08-29T13:11:29Z</time>
<desc>lat.=56.069798, lon.=26.463335, Alt.=127.133850m. Speed=2.304000m/h.</desc>
<speed>0.640000</speed>
</trkpt>
<trkpt lat="56.069798" lon="26.463345">
<ele>127.127991</ele>
<time>2010-08-29T13:11:30Z</time>
<desc>lat.=56.069798, lon.=26.463345, Alt.=127.127991m. Speed=1.620000m/h.</desc>
<speed>0.450000</speed>
</trkpt>
<trkpt lat="56.069801" lon="26.463350">
<ele>127.317444</ele>
<time>2010-08-29T13:11:31Z</time>
<desc>lat.=56.069801, lon.=26.463350, Alt.=127.317444m. Speed=0.396000m/h.</desc>
<speed>0.110000</speed>
</trkpt>
<trkpt lat="56.069801" lon="26.463350">
<ele>127.333069</ele>
<time>2010-08-29T13:11:32Z</time>
<desc>lat.=56.069801, lon.=26.463350, Alt.=127.333069m. Speed=0.144000m/h.</desc>
<speed>0.040000</speed>
</trkpt>
<trkpt lat="56.069801" lon="26.463352">
<ele>127.368225</ele>
<time>2010-08-29T13:11:33Z</time>
<desc>lat.=56.069801, lon.=26.463352, Alt.=127.368225m. Speed=0.180000m/h.</desc>
<speed>0.050000</speed>
</trkpt>
<trkpt lat="56.069801" lon="26.463356">
<ele>127.393616</ele>
<time>2010-08-29T13:11:34Z</time>
<desc>lat.=56.069801, lon.=26.463356, Alt.=127.393616m. Speed=0.144000m/h.</desc>
<speed>0.040000</speed>
</trkpt>
<trkpt lat="56.069801" lon="26.463356">
<ele>127.481506</ele>
<time>2010-08-29T13:11:35Z</time>
<desc>lat.=56.069801, lon.=26.463356, Alt.=127.481506m. Speed=0.036000m/h.</desc>
<speed>0.010000</speed>
</trkpt>
<trkpt lat="56.069801" lon="26.463358">
<ele>127.551819</ele>
<time>2010-08-29T13:11:36Z</time>
<desc>lat.=56.069801, lon.=26.463358, Alt.=127.551819m. Speed=0.072000m/h.</desc>
<speed>0.020000</speed>
</trkpt>
<trkpt lat="56.069801" lon="26.463358">
<ele>127.563538</ele>
<time>2010-08-29T13:11:37Z</time>
<desc>lat.=56.069801, lon.=26.463358, Alt.=127.563538m. Speed=0.036000m/h.</desc>
<speed>0.010000</speed>
</trkpt>
<trkpt lat="56.069801" lon="26.463358">
<ele>127.571350</ele>
<time>2010-08-29T13:11:38Z</time>
<desc>lat.=56.069801, lon.=26.463358, Alt.=127.571350m. Speed=0.000000m/h.</desc>
<speed>0.000000</speed>
</trkpt>
<trkpt lat="56.069801" lon="26.463358">
<ele>127.579163</ele>
<time>2010-08-29T13:11:39Z</time>
<desc>lat.=56.069801, lon.=26.463358, Alt.=127.579163m. Speed=0.036000m/h.</desc>
<speed>0.010000</speed>
</trkpt>
<trkpt lat="56.069801" lon="26.463358">
<ele>127.598694</ele>
<time>2010-08-29T13:11:40Z</time>
<desc>lat.=56.069801, lon.=26.463358, Alt.=127.598694m. Speed=0.936000m/h.</desc>
<speed>0.260000</speed>
</trkpt>
<trkpt lat="56.069801" lon="26.463362">
<ele>127.516663</ele>
<time>2010-08-29T13:11:41Z</time>
<desc>lat.=56.069801, lon.=26.463362, Alt.=127.516663m. Speed=2.160000m/h.</desc>
<speed>0.600000</speed>
</trkpt>
<trkpt lat="56.069798" lon="26.463373">
<ele>127.348694</ele>
<time>2010-08-29T13:11:42Z</time>
<desc>lat.=56.069798, lon.=26.463373, Alt.=127.348694m. Speed=2.052000m/h.</desc>
<speed>0.570000</speed>
</trkpt>
<trkpt lat="56.069794" lon="26.463381">
<ele>127.458069</ele>
<time>2010-08-29T13:11:43Z</time>
<desc>lat.=56.069794, lon.=26.463381, Alt.=127.458069m. Speed=0.900000m/h.</desc>
<speed>0.250000</speed>
</trkpt>
<trkpt lat="56.069794" lon="26.463387">
<ele>127.598694</ele>
<time>2010-08-29T13:11:44Z</time>
<desc>lat.=56.069794, lon.=26.463387, Alt.=127.598694m. Speed=2.196000m/h.</desc>
<speed>0.610000</speed>
</trkpt>
<trkpt lat="56.069786" lon="26.463394">
<ele>127.649475</ele>
<time>2010-08-29T13:11:45Z</time>
<desc>lat.=56.069786, lon.=26.463394, Alt.=127.649475m. Speed=2.916000m/h.</desc>
<speed>0.810000</speed>
</trkpt>
<trkpt lat="56.069775" lon="26.463396">
<ele>127.872131</ele>
<time>2010-08-29T13:11:46Z</time>
<desc>lat.=56.069775, lon.=26.463396, Alt.=127.872131m. Speed=3.816000m/h.</desc>
<speed>1.060000</speed>
</trkpt>
<trkpt lat="56.069775" lon="26.463404">
<ele>128.107544</ele>
<time>2010-08-29T13:11:47Z</time>
<desc>lat.=56.069775, lon.=26.463404, Alt.=128.107544m. Speed=2.448000m/h.</desc>
<speed>0.680000</speed>
</trkpt>
<trkpt lat="56.069775" lon="26.463415">
<ele>128.291138</ele>
<time>2010-08-29T13:11:48Z</time>
<desc>lat.=56.069775, lon.=26.463415, Alt.=128.291138m. Speed=2.304000m/h.</desc>
<speed>0.640000</speed>
</trkpt>
<trkpt lat="56.069778" lon="26.463421">
<ele>128.509888</ele>
<time>2010-08-29T13:11:49Z</time>
<desc>lat.=56.069778, lon.=26.463421, Alt.=128.509888m. Speed=1.980000m/h.</desc>
<speed>0.550000</speed>
</trkpt>
<trkpt lat="56.069782" lon="26.463423">
<ele>128.736450</ele>
<time>2010-08-29T13:11:50Z</time>
<desc>lat.=56.069782, lon.=26.463423, Alt.=128.736450m. Speed=1.872000m/h.</desc>
<speed>0.520000</speed>
</trkpt>
<trkpt lat="56.069790" lon="26.463427">
<ele>128.982544</ele>
<time>2010-08-29T13:11:51Z</time>
<desc>lat.=56.069790, lon.=26.463427, Alt.=128.982544m. Speed=1.800000m/h.</desc>
<speed>0.500000</speed>
</trkpt>
<trkpt lat="56.069794" lon="26.463430">
<ele>129.189575</ele>
<time>2010-08-29T13:11:52Z</time>
<desc>lat.=56.069794, lon.=26.463430, Alt.=129.189575m. Speed=1.728000m/h.</desc>
<speed>0.480000</speed>
</trkpt>
<trkpt lat="56.069801" lon="26.463438">
<ele>129.400513</ele>
<time>2010-08-29T13:11:53Z</time>
<desc>lat.=56.069801, lon.=26.463438, Alt.=129.400513m. Speed=2.520000m/h.</desc>
<speed>0.700000</speed>
</trkpt>
<trkpt lat="56.069813" lon="26.463444">
<ele>129.275513</ele>
<time>2010-08-29T13:11:54Z</time>
<desc>lat.=56.069813, lon.=26.463444, Alt.=129.275513m. Speed=2.772000m/h.</desc>
<speed>0.770000</speed>
</trkpt>
<trkpt lat="56.069820" lon="26.463444">
<ele>129.459106</ele>
<time>2010-08-29T13:11:55Z</time>
<desc>lat.=56.069820, lon.=26.463444, Alt.=129.459106m. Speed=2.808000m/h.</desc>
<speed>0.780000</speed>
</trkpt>
<trkpt lat="56.069828" lon="26.463444">
<ele>129.654419</ele>
<time>2010-08-29T13:11:56Z</time>
<desc>lat.=56.069828, lon.=26.463444, Alt.=129.654419m. Speed=3.888000m/h.</desc>
<speed>1.080000</speed>
</trkpt>
<trkpt lat="56.069824" lon="26.463423">
<ele>129.400513</ele>
<time>2010-08-29T13:11:57Z</time>
<desc>lat.=56.069824, lon.=26.463423, Alt.=129.400513m. Speed=1.836000m/h.</desc>
<speed>0.510000</speed>
</trkpt>
<trkpt lat="56.069836" lon="26.463419">
<ele>129.283325</ele>
<time>2010-08-29T13:11:58Z</time>
<desc>lat.=56.069836, lon.=26.463419, Alt.=129.283325m. Speed=3.132000m/h.</desc>
<speed>0.870000</speed>
</trkpt>
<trkpt lat="56.069847" lon="26.463425">
<ele>129.287231</ele>
<time>2010-08-29T13:11:59Z</time>
<desc>lat.=56.069847, lon.=26.463425, Alt.=129.287231m. Speed=2.196000m/h.</desc>
<speed>0.610000</speed>
</trkpt>
<trkpt lat="56.069851" lon="26.463417">
<ele>129.361450</ele>
<time>2010-08-29T13:12:00Z</time>
<desc>lat.=56.069851, lon.=26.463417, Alt.=129.361450m. Speed=2.772000m/h.</desc>
<speed>0.770000</speed>
</trkpt>
<trkpt lat="56.069843" lon="26.463436">
<ele>129.588013</ele>
<time>2010-08-29T13:12:01Z</time>
<desc>lat.=56.069843, lon.=26.463436, Alt.=129.588013m. Speed=9.828000m/h.</desc>
<speed>2.730000</speed>
</trkpt>
<trkpt lat="56.069847" lon="26.463430">
<ele>129.537231</ele>
<time>2010-08-29T13:12:02Z</time>
<desc>lat.=56.069847, lon.=26.463430, Alt.=129.537231m. Speed=5.364000m/h.</desc>
<speed>1.490000</speed>
</trkpt>
<trkpt lat="56.069855" lon="26.463411">
<ele>129.791138</ele>
<time>2010-08-29T13:12:03Z</time>
<desc>lat.=56.069855, lon.=26.463411, Alt.=129.791138m. Speed=3.528000m/h.</desc>
<speed>0.980000</speed>
</trkpt>
<trkpt lat="56.069855" lon="26.463392">
<ele>130.115356</ele>
<time>2010-08-29T13:12:04Z</time>
<desc>lat.=56.069855, lon.=26.463392, Alt.=130.115356m. Speed=3.852000m/h.</desc>
<speed>1.070000</speed>
</trkpt>
<trkpt lat="56.069855" lon="26.463377">
<ele>130.357544</ele>
<time>2010-08-29T13:12:05Z</time>
<desc>lat.=56.069855, lon.=26.463377, Alt.=130.357544m. Speed=3.348000m/h.</desc>
<speed>0.930000</speed>
</trkpt>
<trkpt lat="56.069855" lon="26.463360">
<ele>130.064575</ele>
<time>2010-08-29T13:12:06Z</time>
<desc>lat.=56.069855, lon.=26.463360, Alt.=130.064575m. Speed=4.356000m/h.</desc>
<speed>1.210000</speed>
</trkpt>
<trkpt lat="56.069855" lon="26.463345">
<ele>130.365356</ele>
<time>2010-08-29T13:12:07Z</time>
<desc>lat.=56.069855, lon.=26.463345, Alt.=130.365356m. Speed=3.528000m/h.</desc>
<speed>0.980000</speed>
</trkpt>
<trkpt lat="56.069859" lon="26.463331">
<ele>130.396606</ele>
<time>2010-08-29T13:12:08Z</time>
<desc>lat.=56.069859, lon.=26.463331, Alt.=130.396606m. Speed=4.824000m/h.</desc>
<speed>1.340000</speed>
</trkpt>
<trkpt lat="56.069859" lon="26.463310">
<ele>130.427856</ele>
<time>2010-08-29T13:12:09Z</time>
<desc>lat.=56.069859, lon.=26.463310, Alt.=130.427856m. Speed=3.492000m/h.</desc>
<speed>0.970000</speed>
</trkpt>
<trkpt lat="56.069859" lon="26.463295">
<ele>130.642700</ele>
<time>2010-08-29T13:12:10Z</time>
<desc>lat.=56.069859, lon.=26.463295, Alt.=130.642700m. Speed=2.412000m/h.</desc>
<speed>0.670000</speed>
</trkpt>
<trkpt lat="56.069855" lon="26.463289">
<ele>130.943481</ele>
<time>2010-08-29T13:12:11Z</time>
<desc>lat.=56.069855, lon.=26.463289, Alt.=130.943481m. Speed=1.404000m/h.</desc>
<speed>0.390000</speed>
</trkpt>
<trkpt lat="56.069847" lon="26.463289">
<ele>131.216919</ele>
<time>2010-08-29T13:12:12Z</time>
<desc>lat.=56.069847, lon.=26.463289, Alt.=131.216919m. Speed=0.864000m/h.</desc>
<speed>0.240000</speed>
</trkpt>
<trkpt lat="56.069839" lon="26.463291">
<ele>131.068481</ele>
<time>2010-08-29T13:12:13Z</time>
<desc>lat.=56.069839, lon.=26.463291, Alt.=131.068481m. Speed=0.828000m/h.</desc>
<speed>0.230000</speed>
</trkpt>
<trkpt lat="56.069832" lon="26.463289">
<ele>130.904419</ele>
<time>2010-08-29T13:12:14Z</time>
<desc>lat.=56.069832, lon.=26.463289, Alt.=130.904419m. Speed=1.296000m/h.</desc>
<speed>0.360000</speed>
</trkpt>
<trkpt lat="56.069809" lon="26.463285">
<ele>130.955200</ele>
<time>2010-08-29T13:12:15Z</time>
<desc>lat.=56.069809, lon.=26.463285, Alt.=130.955200m. Speed=3.456000m/h.</desc>
<speed>0.960000</speed>
</trkpt>
<trkpt lat="56.069801" lon="26.463284">
<ele>130.759888</ele>
<time>2010-08-29T13:12:16Z</time>
<desc>lat.=56.069801, lon.=26.463284, Alt.=130.759888m. Speed=3.492000m/h.</desc>
<speed>0.970000</speed>
</trkpt>
<trkpt lat="56.069798" lon="26.463284">
<ele>131.189575</ele>
<time>2010-08-29T13:12:17Z</time>
<desc>lat.=56.069798, lon.=26.463284, Alt.=131.189575m. Speed=0.432000m/h.</desc>
<speed>0.120000</speed>
</trkpt>
<trkpt lat="56.069805" lon="26.463278">
<ele>130.732544</ele>
<time>2010-08-29T13:12:18Z</time>
<desc>lat.=56.069805, lon.=26.463278, Alt.=130.732544m. Speed=1.260000m/h.</desc>
<speed>0.350000</speed>
</trkpt>
<trkpt lat="56.069817" lon="26.463270">
<ele>130.685669</ele>
<time>2010-08-29T13:12:19Z</time>
<desc>lat.=56.069817, lon.=26.463270, Alt.=130.685669m. Speed=0.072000m/h.</desc>
<speed>0.020000</speed>
</trkpt>
<trkpt lat="56.069813" lon="26.463270">
<ele>130.728638</ele>
<time>2010-08-29T13:12:20Z</time>
<desc>lat.=56.069813, lon.=26.463270, Alt.=130.728638m. Speed=0.144000m/h.</desc>
<speed>0.040000</speed>
</trkpt>
<trkpt lat="56.069809" lon="26.463270">
<ele>130.705200</ele>
<time>2010-08-29T13:12:21Z</time>
<desc>lat.=56.069809, lon.=26.463270, Alt.=130.705200m. Speed=2.448000m/h.</desc>
<speed>0.680000</speed>
</trkpt>
<trkpt lat="56.069805" lon="26.463274">
<ele>130.595825</ele>
<time>2010-08-29T13:12:22Z</time>
<desc>lat.=56.069805, lon.=26.463274, Alt.=130.595825m. Speed=1.260000m/h.</desc>
<speed>0.350000</speed>
</trkpt>
<trkpt lat="56.069805" lon="26.463274">
<ele>130.611450</ele>
<time>2010-08-29T13:12:23Z</time>
<desc>lat.=56.069805, lon.=26.463274, Alt.=130.611450m. Speed=0.288000m/h.</desc>
<speed>0.080000</speed>
</trkpt>
<trkpt lat="56.069801" lon="26.463274">
<ele>130.607544</ele>
<time>2010-08-29T13:12:24Z</time>
<desc>lat.=56.069801, lon.=26.463274, Alt.=130.607544m. Speed=0.468000m/h.</desc>
<speed>0.130000</speed>
</trkpt>
<trkpt lat="56.069798" lon="26.463268">
<ele>130.576294</ele>
<time>2010-08-29T13:12:25Z</time>
<desc>lat.=56.069798, lon.=26.463268, Alt.=130.576294m. Speed=0.828000m/h.</desc>
<speed>0.230000</speed>
</trkpt>
<trkpt lat="56.069798" lon="26.463266">
<ele>130.502075</ele>
<time>2010-08-29T13:12:26Z</time>
<desc>lat.=56.069798, lon.=26.463266, Alt.=130.502075m. Speed=0.540000m/h.</desc>
<speed>0.150000</speed>
</trkpt>
<trkpt lat="56.069798" lon="26.463268">
<ele>130.599731</ele>
<time>2010-08-29T13:12:27Z</time>
<desc>lat.=56.069798, lon.=26.463268, Alt.=130.599731m. Speed=0.864000m/h.</desc>
<speed>0.240000</speed>
</trkpt>
<trkpt lat="56.069794" lon="26.463270">
<ele>130.650513</ele>
<time>2010-08-29T13:12:28Z</time>
<desc>lat.=56.069794, lon.=26.463270, Alt.=130.650513m. Speed=1.044000m/h.</desc>
<speed>0.290000</speed>
</trkpt>
<trkpt lat="56.069794" lon="26.463274">
<ele>130.685669</ele>
<time>2010-08-29T13:12:29Z</time>
<desc>lat.=56.069794, lon.=26.463274, Alt.=130.685669m. Speed=0.756000m/h.</desc>
<speed>0.210000</speed>
</trkpt>
<trkpt lat="56.069790" lon="26.463276">
<ele>130.720825</ele>
<time>2010-08-29T13:12:30Z</time>
<desc>lat.=56.069790, lon.=26.463276, Alt.=130.720825m. Speed=1.116000m/h.</desc>
<speed>0.310000</speed>
</trkpt>
<trkpt lat="56.069782" lon="26.463268">
<ele>130.552856</ele>
<time>2010-08-29T13:12:31Z</time>
<desc>lat.=56.069782, lon.=26.463268, Alt.=130.552856m. Speed=1.440000m/h.</desc>
<speed>0.400000</speed>
</trkpt>
<trkpt lat="56.069778" lon="26.463257">
<ele>130.552856</ele>
<time>2010-08-29T13:12:32Z</time>
<desc>lat.=56.069778, lon.=26.463257, Alt.=130.552856m. Speed=1.908000m/h.</desc>
<speed>0.530000</speed>
</trkpt>
<trkpt lat="56.069778" lon="26.463266">
<ele>130.533325</ele>
<time>2010-08-29T13:12:33Z</time>
<desc>lat.=56.069778, lon.=26.463266, Alt.=130.533325m. Speed=2.016000m/h.</desc>
<speed>0.560000</speed>
</trkpt>
<trkpt lat="56.069756" lon="26.463253">
<ele>130.404419</ele>
<time>2010-08-29T13:12:34Z</time>
<desc>lat.=56.069756, lon.=26.463253, Alt.=130.404419m. Speed=3.636000m/h.</desc>
<speed>1.010000</speed>
</trkpt>
<trkpt lat="56.069748" lon="26.463255">
<ele>130.439575</ele>
<time>2010-08-29T13:12:35Z</time>
<desc>lat.=56.069748, lon.=26.463255, Alt.=130.439575m. Speed=3.060000m/h.</desc>
<speed>0.850000</speed>
</trkpt>
<trkpt lat="56.069740" lon="26.463255">
<ele>130.236450</ele>
<time>2010-08-29T13:12:36Z</time>
<desc>lat.=56.069740, lon.=26.463255, Alt.=130.236450m. Speed=1.800000m/h.</desc>
<speed>0.500000</speed>
</trkpt>
<trkpt lat="56.069740" lon="26.463249">
<ele>130.283325</ele>
<time>2010-08-29T13:12:37Z</time>
<desc>lat.=56.069740, lon.=26.463249, Alt.=130.283325m. Speed=1.908000m/h.</desc>
<speed>0.530000</speed>
</trkpt>
<trkpt lat="56.069744" lon="26.463255">
<ele>130.291138</ele>
<time>2010-08-29T13:12:38Z</time>
<desc>lat.=56.069744, lon.=26.463255, Alt.=130.291138m. Speed=2.160000m/h.</desc>
<speed>0.600000</speed>
</trkpt>
<trkpt lat="56.069733" lon="26.463249">
<ele>130.455200</ele>
<time>2010-08-29T13:12:39Z</time>
<desc>lat.=56.069733, lon.=26.463249, Alt.=130.455200m. Speed=2.448000m/h.</desc>
<speed>0.680000</speed>
</trkpt>
<trkpt lat="56.069729" lon="26.463259">
<ele>130.591919</ele>
<time>2010-08-29T13:12:40Z</time>
<desc>lat.=56.069729, lon.=26.463259, Alt.=130.591919m. Speed=2.088000m/h.</desc>
<speed>0.580000</speed>
</trkpt>
<trkpt lat="56.069725" lon="26.463259">
<ele>130.646606</ele>
<time>2010-08-29T13:12:41Z</time>
<desc>lat.=56.069725, lon.=26.463259, Alt.=130.646606m. Speed=1.692000m/h.</desc>
<speed>0.470000</speed>
</trkpt>
<trkpt lat="56.069717" lon="26.463263">
<ele>130.697388</ele>
<time>2010-08-29T13:12:42Z</time>
<desc>lat.=56.069717, lon.=26.463263, Alt.=130.697388m. Speed=2.916000m/h.</desc>
<speed>0.810000</speed>
</trkpt>
<trkpt lat="56.069714" lon="26.463266">
<ele>130.716919</ele>
<time>2010-08-29T13:12:43Z</time>
<desc>lat.=56.069714, lon.=26.463266, Alt.=130.716919m. Speed=2.916000m/h.</desc>
<speed>0.810000</speed>
</trkpt>
<trkpt lat="56.069702" lon="26.463266">
<ele>130.838013</ele>
<time>2010-08-29T13:12:44Z</time>
<desc>lat.=56.069702, lon.=26.463266, Alt.=130.838013m. Speed=2.664000m/h.</desc>
<speed>0.740000</speed>
</trkpt>
<trkpt lat="56.069691" lon="26.463261">
<ele>130.978638</ele>
<time>2010-08-29T13:12:45Z</time>
<desc>lat.=56.069691, lon.=26.463261, Alt.=130.978638m. Speed=2.304000m/h.</desc>
<speed>0.640000</speed>
</trkpt>
<trkpt lat="56.069679" lon="26.463251">
<ele>131.021606</ele>
<time>2010-08-29T13:12:46Z</time>
<desc>lat.=56.069679, lon.=26.463251, Alt.=131.021606m. Speed=2.952000m/h.</desc>
<speed>0.820000</speed>
</trkpt>
<trkpt lat="56.069641" lon="26.463207">
<ele>130.037231</ele>
<time>2010-08-29T13:12:47Z</time>
<desc>lat.=56.069641, lon.=26.463207, Alt.=130.037231m. Speed=2.844000m/h.</desc>
<speed>0.790000</speed>
</trkpt>
<trkpt lat="56.069637" lon="26.463198">
<ele>129.935669</ele>
<time>2010-08-29T13:12:48Z</time>
<desc>lat.=56.069637, lon.=26.463198, Alt.=129.935669m. Speed=0.864000m/h.</desc>
<speed>0.240000</speed>
</trkpt>
<trkpt lat="56.069630" lon="26.463192">
<ele>129.380981</ele>
<time>2010-08-29T13:12:49Z</time>
<desc>lat.=56.069630, lon.=26.463192, Alt.=129.380981m. Speed=0.000000m/h.</desc>
<speed>0.000000</speed>
</trkpt>
<trkpt lat="56.069622" lon="26.463179">
<ele>129.013794</ele>
<time>2010-08-29T13:12:50Z</time>
<desc>lat.=56.069622, lon.=26.463179, Alt.=129.013794m. Speed=0.360000m/h.</desc>
<speed>0.100000</speed>
</trkpt>
<trkpt lat="56.069611" lon="26.463167">
<ele>128.724731</ele>
<time>2010-08-29T13:12:51Z</time>
<desc>lat.=56.069611, lon.=26.463167, Alt.=128.724731m. Speed=0.180000m/h.</desc>
<speed>0.050000</speed>
</trkpt>
<trkpt lat="56.069611" lon="26.463167">
<ele>128.752075</ele>
<time>2010-08-29T13:12:52Z</time>
<desc>lat.=56.069611, lon.=26.463167, Alt.=128.752075m. Speed=0.000000m/h.</desc>
<speed>0.000000</speed>
</trkpt>
<trkpt lat="56.069611" lon="26.463167">
<ele>128.771606</ele>
<time>2010-08-29T13:12:53Z</time>
<desc>lat.=56.069611, lon.=26.463167, Alt.=128.771606m. Speed=0.036000m/h.</desc>
<speed>0.010000</speed>
</trkpt>
<trkpt lat="56.069611" lon="26.463167">
<ele>128.783325</ele>
<time>2010-08-29T13:12:54Z</time>
<desc>lat.=56.069611, lon.=26.463167, Alt.=128.783325m. Speed=0.252000m/h.</desc>
<speed>0.070000</speed>
</trkpt>
<trkpt lat="56.069611" lon="26.463167">
<ele>128.810669</ele>
<time>2010-08-29T13:12:55Z</time>
<desc>lat.=56.069611, lon.=26.463167, Alt.=128.810669m. Speed=0.972000m/h.</desc>
<speed>0.270000</speed>
</trkpt>
<trkpt lat="56.069607" lon="26.463167">
<ele>128.861450</ele>
<time>2010-08-29T13:12:56Z</time>
<desc>lat.=56.069607, lon.=26.463167, Alt.=128.861450m. Speed=3.672000m/h.</desc>
<speed>1.020000</speed>
</trkpt>
<trkpt lat="56.069599" lon="26.463169">
<ele>128.959106</ele>
<time>2010-08-29T13:12:57Z</time>
<desc>lat.=56.069599, lon.=26.463169, Alt.=128.959106m. Speed=3.240000m/h.</desc>
<speed>0.900000</speed>
</trkpt>
<trkpt lat="56.069580" lon="26.463163">
<ele>128.689575</ele>
<time>2010-08-29T13:12:58Z</time>
<desc>lat.=56.069580, lon.=26.463163, Alt.=128.689575m. Speed=5.148000m/h.</desc>
<speed>1.430000</speed>
</trkpt>
<trkpt lat="56.069569" lon="26.463156">
<ele>128.505981</ele>
<time>2010-08-29T13:12:59Z</time>
<desc>lat.=56.069569, lon.=26.463156, Alt.=128.505981m. Speed=3.888000m/h.</desc>
<speed>1.080000</speed>
</trkpt>
<trkpt lat="56.069557" lon="26.463146">
<ele>128.377075</ele>
<time>2010-08-29T13:13:00Z</time>
<desc>lat.=56.069557, lon.=26.463146, Alt.=128.377075m. Speed=3.096000m/h.</desc>
<speed>0.860000</speed>
</trkpt>
<trkpt lat="56.069553" lon="26.463133">
<ele>128.080200</ele>
<time>2010-08-29T13:13:01Z</time>
<desc>lat.=56.069553, lon.=26.463133, Alt.=128.080200m. Speed=2.340000m/h.</desc>
<speed>0.650000</speed>
</trkpt>
<trkpt lat="56.069557" lon="26.463146">
<ele>127.799866</ele>
<time>2010-08-29T13:13:02Z</time>
<desc>lat.=56.069557, lon.=26.463146, Alt.=127.799866m. Speed=0.288000m/h.</desc>
<speed>0.080000</speed>
</trkpt>
<trkpt lat="56.069553" lon="26.463140">
<ele>127.491272</ele>
<time>2010-08-29T13:13:03Z</time>
<desc>lat.=56.069553, lon.=26.463140, Alt.=127.491272m. Speed=0.216000m/h.</desc>
<speed>0.060000</speed>
</trkpt>
<trkpt lat="56.069553" lon="26.463137">
<ele>127.098694</ele>
<time>2010-08-29T13:13:04Z</time>
<desc>lat.=56.069553, lon.=26.463137, Alt.=127.098694m. Speed=0.144000m/h.</desc>
<speed>0.040000</speed>
</trkpt>
<trkpt lat="56.069550" lon="26.463135">
<ele>126.745178</ele>
<time>2010-08-29T13:13:05Z</time>
<desc>lat.=56.069550, lon.=26.463135, Alt.=126.745178m. Speed=0.072000m/h.</desc>
<speed>0.020000</speed>
</trkpt>
<trkpt lat="56.069550" lon="26.463135">
<ele>126.731506</ele>
<time>2010-08-29T13:13:06Z</time>
<desc>lat.=56.069550, lon.=26.463135, Alt.=126.731506m. Speed=0.036000m/h.</desc>
<speed>0.010000</speed>
</trkpt>
<trkpt lat="56.069550" lon="26.463135">
<ele>126.715881</ele>
<time>2010-08-29T13:13:07Z</time>
<desc>lat.=56.069550, lon.=26.463135, Alt.=126.715881m. Speed=0.000000m/h.</desc>
<speed>0.000000</speed>
</trkpt>
<trkpt lat="56.069550" lon="26.463135">
<ele>126.704163</ele>
<time>2010-08-29T13:13:08Z</time>
<desc>lat.=56.069550, lon.=26.463135, Alt.=126.704163m. Speed=0.036000m/h.</desc>
<speed>0.010000</speed>
</trkpt>
<trkpt lat="56.069550" lon="26.463135">
<ele>126.690491</ele>
<time>2010-08-29T13:13:09Z</time>
<desc>lat.=56.069550, lon.=26.463135, Alt.=126.690491m. Speed=0.000000m/h.</desc>
<speed>0.000000</speed>
</trkpt>
<trkpt lat="56.069550" lon="26.463135">
<ele>126.682678</ele>
<time>2010-08-29T13:13:10Z</time>
<desc>lat.=56.069550, lon.=26.463135, Alt.=126.682678m. Speed=0.000000m/h.</desc>
<speed>0.000000</speed>
</trkpt>
<trkpt lat="56.069550" lon="26.463135">
<ele>126.680725</ele>
<time>2010-08-29T13:13:11Z</time>
<desc>lat.=56.069550, lon.=26.463135, Alt.=126.680725m. Speed=0.000000m/h.</desc>
<speed>0.000000</speed>
</trkpt>
<trkpt lat="56.069550" lon="26.463135">
<ele>126.680725</ele>
<time>2010-08-29T13:13:12Z</time>
<desc>lat.=56.069550, lon.=26.463135, Alt.=126.680725m. Speed=0.036000m/h.</desc>
<speed>0.010000</speed>
</trkpt>
<trkpt lat="56.069550" lon="26.463135">
<ele>126.690491</ele>
<time>2010-08-29T13:13:13Z</time>
<desc>lat.=56.069550, lon.=26.463135, Alt.=126.690491m. Speed=0.360000m/h.</desc>
<speed>0.100000</speed>
</trkpt>
<trkpt lat="56.069550" lon="26.463133">
<ele>126.717834</ele>
<time>2010-08-29T13:13:14Z</time>
<desc>lat.=56.069550, lon.=26.463133, Alt.=126.717834m. Speed=4.032000m/h.</desc>
<speed>1.120000</speed>
</trkpt>
<trkpt lat="56.069546" lon="26.463114">
<ele>127.008850</ele>
<time>2010-08-29T13:13:15Z</time>
<desc>lat.=56.069546, lon.=26.463114, Alt.=127.008850m. Speed=1.836000m/h.</desc>
<speed>0.510000</speed>
</trkpt>
<trkpt lat="56.069542" lon="26.463102">
<ele>127.143616</ele>
<time>2010-08-29T13:13:16Z</time>
<desc>lat.=56.069542, lon.=26.463102, Alt.=127.143616m. Speed=3.204000m/h.</desc>
<speed>0.890000</speed>
</trkpt>
<trkpt lat="56.069538" lon="26.463091">
<ele>127.137756</ele>
<time>2010-08-29T13:13:17Z</time>
<desc>lat.=56.069538, lon.=26.463091, Alt.=127.137756m. Speed=2.808000m/h.</desc>
<speed>0.780000</speed>
</trkpt>
<trkpt lat="56.069530" lon="26.463087">
<ele>127.100647</ele>
<time>2010-08-29T13:13:18Z</time>
<desc>lat.=56.069530, lon.=26.463087, Alt.=127.100647m. Speed=3.276000m/h.</desc>
<speed>0.910000</speed>
</trkpt>
<trkpt lat="56.069527" lon="26.463085">
<ele>126.711975</ele>
<time>2010-08-29T13:13:19Z</time>
<desc>lat.=56.069527, lon.=26.463085, Alt.=126.711975m. Speed=1.872000m/h.</desc>
<speed>0.520000</speed>
</trkpt>
<trkpt lat="56.069527" lon="26.463091">
<ele>126.567444</ele>
<time>2010-08-29T13:13:20Z</time>
<desc>lat.=56.069527, lon.=26.463091, Alt.=126.567444m. Speed=0.216000m/h.</desc>
<speed>0.060000</speed>
</trkpt>
<trkpt lat="56.069530" lon="26.463099">
<ele>126.331116</ele>
<time>2010-08-29T13:13:21Z</time>
<desc>lat.=56.069530, lon.=26.463099, Alt.=126.331116m. Speed=0.144000m/h.</desc>
<speed>0.040000</speed>
</trkpt>
<trkpt lat="56.069534" lon="26.463099">
<ele>126.208069</ele>
<time>2010-08-29T13:13:22Z</time>
<desc>lat.=56.069534, lon.=26.463099, Alt.=126.208069m. Speed=0.180000m/h.</desc>
<speed>0.050000</speed>
</trkpt>
<trkpt lat="56.069534" lon="26.463100">
<ele>126.219788</ele>
<time>2010-08-29T13:13:23Z</time>
<desc>lat.=56.069534, lon.=26.463100, Alt.=126.219788m. Speed=0.108000m/h.</desc>
<speed>0.030000</speed>
</trkpt>
<trkpt lat="56.069534" lon="26.463100">
<ele>126.274475</ele>
<time>2010-08-29T13:13:24Z</time>
<desc>lat.=56.069534, lon.=26.463100, Alt.=126.274475m. Speed=0.468000m/h.</desc>
<speed>0.130000</speed>
</trkpt>
<trkpt lat="56.069534" lon="26.463099">
<ele>126.155334</ele>
<time>2010-08-29T13:13:25Z</time>
<desc>lat.=56.069534, lon.=26.463099, Alt.=126.155334m. Speed=0.792000m/h.</desc>
<speed>0.220000</speed>
</trkpt>
<trkpt lat="56.069534" lon="26.463095">
<ele>126.502991</ele>
<time>2010-08-29T13:13:26Z</time>
<desc>lat.=56.069534, lon.=26.463095, Alt.=126.502991m. Speed=3.816000m/h.</desc>
<speed>1.060000</speed>
</trkpt>
<trkpt lat="56.069527" lon="26.463087">
<ele>126.399475</ele>
<time>2010-08-29T13:13:27Z</time>
<desc>lat.=56.069527, lon.=26.463087, Alt.=126.399475m. Speed=3.780000m/h.</desc>
<speed>1.050000</speed>
</trkpt>
<trkpt lat="56.069519" lon="26.463079">
<ele>126.081116</ele>
<time>2010-08-29T13:13:28Z</time>
<desc>lat.=56.069519, lon.=26.463079, Alt.=126.081116m. Speed=3.096000m/h.</desc>
<speed>0.860000</speed>
</trkpt>
<trkpt lat="56.069511" lon="26.463074">
<ele>126.344788</ele>
<time>2010-08-29T13:13:29Z</time>
<desc>lat.=56.069511, lon.=26.463074, Alt.=126.344788m. Speed=0.936000m/h.</desc>
<speed>0.260000</speed>
</trkpt>
<trkpt lat="56.069511" lon="26.463076">
<ele>126.735413</ele>
<time>2010-08-29T13:13:30Z</time>
<desc>lat.=56.069511, lon.=26.463076, Alt.=126.735413m. Speed=2.268000m/h.</desc>
<speed>0.630000</speed>
</trkpt>
<trkpt lat="56.069508" lon="26.463068">
<ele>127.073303</ele>
<time>2010-08-29T13:13:31Z</time>
<desc>lat.=56.069508, lon.=26.463068, Alt.=127.073303m. Speed=2.088000m/h.</desc>
<speed>0.580000</speed>
</trkpt>
<trkpt lat="56.069508" lon="26.463072">
<ele>127.377991</ele>
<time>2010-08-29T13:13:32Z</time>
<desc>lat.=56.069508, lon.=26.463072, Alt.=127.377991m. Speed=1.044000m/h.</desc>
<speed>0.290000</speed>
</trkpt>
<trkpt lat="56.069508" lon="26.463066">
<ele>127.545959</ele>
<time>2010-08-29T13:13:33Z</time>
<desc>lat.=56.069508, lon.=26.463066, Alt.=127.545959m. Speed=1.008000m/h.</desc>
<speed>0.280000</speed>
</trkpt>
<trkpt lat="56.069511" lon="26.463062">
<ele>127.940491</ele>
<time>2010-08-29T13:13:34Z</time>
<desc>lat.=56.069511, lon.=26.463062, Alt.=127.940491m. Speed=0.936000m/h.</desc>
<speed>0.260000</speed>
</trkpt>
<trkpt lat="56.069511" lon="26.463058">
<ele>128.384888</ele>
<time>2010-08-29T13:13:35Z</time>
<desc>lat.=56.069511, lon.=26.463058, Alt.=128.384888m. Speed=0.756000m/h.</desc>
<speed>0.210000</speed>
</trkpt>
<trkpt lat="56.069515" lon="26.463057">
<ele>128.740356</ele>
<time>2010-08-29T13:13:36Z</time>
<desc>lat.=56.069515, lon.=26.463057, Alt.=128.740356m. Speed=0.864000m/h.</desc>
<speed>0.240000</speed>
</trkpt>
<trkpt lat="56.069515" lon="26.463053">
<ele>129.088013</ele>
<time>2010-08-29T13:13:37Z</time>
<desc>lat.=56.069515, lon.=26.463053, Alt.=129.088013m. Speed=0.576000m/h.</desc>
<speed>0.160000</speed>
</trkpt>
<trkpt lat="56.069515" lon="26.463051">
<ele>129.439575</ele>
<time>2010-08-29T13:13:38Z</time>
<desc>lat.=56.069515, lon.=26.463051, Alt.=129.439575m. Speed=1.656000m/h.</desc>
<speed>0.460000</speed>
</trkpt>
<trkpt lat="56.069508" lon="26.463053">
<ele>129.568481</ele>
<time>2010-08-29T13:13:39Z</time>
<desc>lat.=56.069508, lon.=26.463053, Alt.=129.568481m. Speed=1.980000m/h.</desc>
<speed>0.550000</speed>
</trkpt>
<trkpt lat="56.069500" lon="26.463062">
<ele>129.779419</ele>
<time>2010-08-29T13:13:40Z</time>
<desc>lat.=56.069500, lon.=26.463062, Alt.=129.779419m. Speed=5.328000m/h.</desc>
<speed>1.480000</speed>
</trkpt>
<trkpt lat="56.069477" lon="26.463087">
<ele>129.466919</ele>
<time>2010-08-29T13:13:41Z</time>
<desc>lat.=56.069477, lon.=26.463087, Alt.=129.466919m. Speed=4.140000m/h.</desc>
<speed>1.150000</speed>
</trkpt>
<trkpt lat="56.069477" lon="26.463100">
<ele>128.650513</ele>
<time>2010-08-29T13:13:42Z</time>
<desc>lat.=56.069477, lon.=26.463100, Alt.=128.650513m. Speed=3.816000m/h.</desc>
<speed>1.060000</speed>
</trkpt>
<trkpt lat="56.069481" lon="26.463104">
<ele>128.959106</ele>
<time>2010-08-29T13:13:43Z</time>
<desc>lat.=56.069481, lon.=26.463104, Alt.=128.959106m. Speed=3.672000m/h.</desc>
<speed>1.020000</speed>
</trkpt>
<trkpt lat="56.069485" lon="26.463106">
<ele>129.072388</ele>
<time>2010-08-29T13:13:44Z</time>
<desc>lat.=56.069485, lon.=26.463106, Alt.=129.072388m. Speed=1.800000m/h.</desc>
<speed>0.500000</speed>
</trkpt>
<trkpt lat="56.069473" lon="26.463120">
<ele>129.654419</ele>
<time>2010-08-29T13:13:45Z</time>
<desc>lat.=56.069473, lon.=26.463120, Alt.=129.654419m. Speed=3.096000m/h.</desc>
<speed>0.860000</speed>
</trkpt>
<trkpt lat="56.069466" lon="26.463116">
<ele>129.189575</ele>
<time>2010-08-29T13:13:46Z</time>
<desc>lat.=56.069466, lon.=26.463116, Alt.=129.189575m. Speed=1.152000m/h.</desc>
<speed>0.320000</speed>
</trkpt>
<trkpt lat="56.069462" lon="26.463116">
<ele>129.138794</ele>
<time>2010-08-29T13:13:47Z</time>
<desc>lat.=56.069462, lon.=26.463116, Alt.=129.138794m. Speed=0.720000m/h.</desc>
<speed>0.200000</speed>
</trkpt>
<trkpt lat="56.069454" lon="26.463116">
<ele>128.759888</ele>
<time>2010-08-29T13:13:48Z</time>
<desc>lat.=56.069454, lon.=26.463116, Alt.=128.759888m. Speed=0.180000m/h.</desc>
<speed>0.050000</speed>
</trkpt>
<trkpt lat="56.069443" lon="26.463114">
<ele>128.388794</ele>
<time>2010-08-29T13:13:49Z</time>
<desc>lat.=56.069443, lon.=26.463114, Alt.=128.388794m. Speed=0.792000m/h.</desc>
<speed>0.220000</speed>
</trkpt>
<trkpt lat="56.069439" lon="26.463108">
<ele>127.895569</ele>
<time>2010-08-29T13:13:50Z</time>
<desc>lat.=56.069439, lon.=26.463108, Alt.=127.895569m. Speed=0.432000m/h.</desc>
<speed>0.120000</speed>
</trkpt>
<trkpt lat="56.069439" lon="26.463108">
<ele>127.915100</ele>
<time>2010-08-29T13:13:51Z</time>
<desc>lat.=56.069439, lon.=26.463108, Alt.=127.915100m. Speed=0.396000m/h.</desc>
<speed>0.110000</speed>
</trkpt>
<trkpt lat="56.069439" lon="26.463110">
<ele>127.920959</ele>
<time>2010-08-29T13:13:52Z</time>
<desc>lat.=56.069439, lon.=26.463110, Alt.=127.920959m. Speed=0.216000m/h.</desc>
<speed>0.060000</speed>
</trkpt>
<trkpt lat="56.069435" lon="26.463110">
<ele>127.936584</ele>
<time>2010-08-29T13:13:53Z</time>
<desc>lat.=56.069435, lon.=26.463110, Alt.=127.936584m. Speed=0.036000m/h.</desc>
<speed>0.010000</speed>
</trkpt>
<trkpt lat="56.069435" lon="26.463110">
<ele>127.946350</ele>
<time>2010-08-29T13:13:54Z</time>
<desc>lat.=56.069435, lon.=26.463110, Alt.=127.946350m. Speed=0.000000m/h.</desc>
<speed>0.000000</speed>
</trkpt>
<trkpt lat="56.069435" lon="26.463110">
<ele>127.950256</ele>
<time>2010-08-29T13:13:55Z</time>
<desc>lat.=56.069435, lon.=26.463110, Alt.=127.950256m. Speed=0.180000m/h.</desc>
<speed>0.050000</speed>
</trkpt>
<trkpt lat="56.069435" lon="26.463110">
<ele>127.950256</ele>
<time>2010-08-29T13:13:56Z</time>
<desc>lat.=56.069435, lon.=26.463110, Alt.=127.950256m. Speed=0.036000m/h.</desc>
<speed>0.010000</speed>
</trkpt>
<trkpt lat="56.069435" lon="26.463110">
<ele>127.960022</ele>
<time>2010-08-29T13:13:57Z</time>
<desc>lat.=56.069435, lon.=26.463110, Alt.=127.960022m. Speed=0.000000m/h.</desc>
<speed>0.000000</speed>
</trkpt>
<trkpt lat="56.069435" lon="26.463110">
<ele>127.975647</ele>
<time>2010-08-29T13:13:58Z</time>
<desc>lat.=56.069435, lon.=26.463110, Alt.=127.975647m. Speed=0.036000m/h.</desc>
<speed>0.010000</speed>
</trkpt>
<trkpt lat="56.069435" lon="26.463110">
<ele>127.971741</ele>
<time>2010-08-29T13:13:59Z</time>
<desc>lat.=56.069435, lon.=26.463110, Alt.=127.971741m. Speed=0.072000m/h.</desc>
<speed>0.020000</speed>
</trkpt>
<trkpt lat="56.069435" lon="26.463110">
<ele>127.961975</ele>
<time>2010-08-29T13:14:00Z</time>
<desc>lat.=56.069435, lon.=26.463110, Alt.=127.961975m. Speed=0.036000m/h.</desc>
<speed>0.010000</speed>
</trkpt>
<trkpt lat="56.069435" lon="26.463110">
<ele>127.960022</ele>
<time>2010-08-29T13:14:01Z</time>
<desc>lat.=56.069435, lon.=26.463110, Alt.=127.960022m. Speed=0.072000m/h.</desc>
<speed>0.020000</speed>
</trkpt>
<trkpt lat="56.069435" lon="26.463110">
<ele>127.954163</ele>
<time>2010-08-29T13:14:02Z</time>
<desc>lat.=56.069435, lon.=26.463110, Alt.=127.954163m. Speed=0.036000m/h.</desc>
<speed>0.010000</speed>
</trkpt>
<trkpt lat="56.069435" lon="26.463110">
<ele>127.946350</ele>
<time>2010-08-29T13:14:03Z</time>
<desc>lat.=56.069435, lon.=26.463110, Alt.=127.946350m. Speed=0.108000m/h.</desc>
<speed>0.030000</speed>
</trkpt>
<trkpt lat="56.069435" lon="26.463110">
<ele>127.936584</ele>
<time>2010-08-29T13:14:04Z</time>
<desc>lat.=56.069435, lon.=26.463110, Alt.=127.936584m. Speed=0.360000m/h.</desc>
<speed>0.100000</speed>
</trkpt>
<trkpt lat="56.069435" lon="26.463112">
<ele>127.895569</ele>
<time>2010-08-29T13:14:05Z</time>
<desc>lat.=56.069435, lon.=26.463112, Alt.=127.895569m. Speed=2.376000m/h.</desc>
<speed>0.660000</speed>
</trkpt>
<trkpt lat="56.069427" lon="26.463116">
<ele>127.743225</ele>
<time>2010-08-29T13:14:06Z</time>
<desc>lat.=56.069427, lon.=26.463116, Alt.=127.743225m. Speed=4.104000m/h.</desc>
<speed>1.140000</speed>
</trkpt>
<trkpt lat="56.069412" lon="26.463127">
<ele>127.920959</ele>
<time>2010-08-29T13:14:07Z</time>
<desc>lat.=56.069412, lon.=26.463127, Alt.=127.920959m. Speed=3.564000m/h.</desc>
<speed>0.990000</speed>
</trkpt>
<trkpt lat="56.069405" lon="26.463133">
<ele>128.232544</ele>
<time>2010-08-29T13:14:08Z</time>
<desc>lat.=56.069405, lon.=26.463133, Alt.=128.232544m. Speed=3.096000m/h.</desc>
<speed>0.860000</speed>
</trkpt>
<trkpt lat="56.069393" lon="26.463144">
<ele>128.138794</ele>
<time>2010-08-29T13:14:09Z</time>
<desc>lat.=56.069393, lon.=26.463144, Alt.=128.138794m. Speed=2.664000m/h.</desc>
<speed>0.740000</speed>
</trkpt>
<trkpt lat="56.069393" lon="26.463139">
<ele>129.064575</ele>
<time>2010-08-29T13:14:10Z</time>
<desc>lat.=56.069393, lon.=26.463139, Alt.=129.064575m. Speed=0.432000m/h.</desc>
<speed>0.120000</speed>
</trkpt>
<trkpt lat="56.069382" lon="26.463140">
<ele>129.154419</ele>
<time>2010-08-29T13:14:11Z</time>
<desc>lat.=56.069382, lon.=26.463140, Alt.=129.154419m. Speed=0.756000m/h.</desc>
<speed>0.210000</speed>
</trkpt>
<trkpt lat="56.069374" lon="26.463142">
<ele>129.052856</ele>
<time>2010-08-29T13:14:12Z</time>
<desc>lat.=56.069374, lon.=26.463142, Alt.=129.052856m. Speed=0.468000m/h.</desc>
<speed>0.130000</speed>
</trkpt>
<trkpt lat="56.069366" lon="26.463140">
<ele>129.088013</ele>
<time>2010-08-29T13:14:13Z</time>
<desc>lat.=56.069366, lon.=26.463140, Alt.=129.088013m. Speed=0.252000m/h.</desc>
<speed>0.070000</speed>
</trkpt>
<trkpt lat="56.069366" lon="26.463140">
<ele>129.259888</ele>
<time>2010-08-29T13:14:14Z</time>
<desc>lat.=56.069366, lon.=26.463140, Alt.=129.259888m. Speed=0.072000m/h.</desc>
<speed>0.020000</speed>
</trkpt>
<trkpt lat="56.069366" lon="26.463140">
<ele>129.295044</ele>
<time>2010-08-29T13:14:15Z</time>
<desc>lat.=56.069366, lon.=26.463140, Alt.=129.295044m. Speed=0.000000m/h.</desc>
<speed>0.000000</speed>
</trkpt>
<trkpt lat="56.069366" lon="26.463140">
<ele>129.314575</ele>
<time>2010-08-29T13:14:16Z</time>
<desc>lat.=56.069366, lon.=26.463140, Alt.=129.314575m. Speed=0.000000m/h.</desc>
<speed>0.000000</speed>
</trkpt>
<trkpt lat="56.069366" lon="26.463140">
<ele>129.306763</ele>
<time>2010-08-29T13:14:17Z</time>
<desc>lat.=56.069366, lon.=26.463140, Alt.=129.306763m. Speed=0.036000m/h.</desc>
<speed>0.010000</speed>
</trkpt>
<trkpt lat="56.069366" lon="26.463140">
<ele>129.318481</ele>
<time>2010-08-29T13:14:18Z</time>
<desc>lat.=56.069366, lon.=26.463140, Alt.=129.318481m. Speed=0.324000m/h.</desc>
<speed>0.090000</speed>
</trkpt>
<trkpt lat="56.069366" lon="26.463140">
<ele>129.400513</ele>
<time>2010-08-29T13:14:19Z</time>
<desc>lat.=56.069366, lon.=26.463140, Alt.=129.400513m. Speed=0.108000m/h.</desc>
<speed>0.030000</speed>
</trkpt>
<trkpt lat="56.069366" lon="26.463140">
<ele>129.463013</ele>
<time>2010-08-29T13:14:20Z</time>
<desc>lat.=56.069366, lon.=26.463140, Alt.=129.463013m. Speed=0.108000m/h.</desc>
<speed>0.030000</speed>
</trkpt>
<trkpt lat="56.069366" lon="26.463140">
<ele>129.513794</ele>
<time>2010-08-29T13:14:21Z</time>
<desc>lat.=56.069366, lon.=26.463140, Alt.=129.513794m. Speed=0.036000m/h.</desc>
<speed>0.010000</speed>
</trkpt>
<trkpt lat="56.069366" lon="26.463140">
<ele>129.552856</ele>
<time>2010-08-29T13:14:22Z</time>
<desc>lat.=56.069366, lon.=26.463140, Alt.=129.552856m. Speed=0.036000m/h.</desc>
<speed>0.010000</speed>
</trkpt>
<trkpt lat="56.069366" lon="26.463140">
<ele>129.580200</ele>
<time>2010-08-29T13:14:23Z</time>
<desc>lat.=56.069366, lon.=26.463140, Alt.=129.580200m. Speed=0.036000m/h.</desc>
<speed>0.010000</speed>
</trkpt>
<trkpt lat="56.069366" lon="26.463140">
<ele>129.611450</ele>
<time>2010-08-29T13:14:24Z</time>
<desc>lat.=56.069366, lon.=26.463140, Alt.=129.611450m. Speed=0.036000m/h.</desc>
<speed>0.010000</speed>
</trkpt>
<trkpt lat="56.069366" lon="26.463140">
<ele>129.623169</ele>
<time>2010-08-29T13:14:25Z</time>
<desc>lat.=56.069366, lon.=26.463140, Alt.=129.623169m. Speed=0.000000m/h.</desc>
<speed>0.000000</speed>
</trkpt>
<trkpt lat="56.069366" lon="26.463140">
<ele>129.627075</ele>
<time>2010-08-29T13:14:26Z</time>
<desc>lat.=56.069366, lon.=26.463140, Alt.=129.627075m. Speed=0.000000m/h.</desc>
<speed>0.000000</speed>
</trkpt>
<trkpt lat="56.069366" lon="26.463140">
<ele>129.642700</ele>
<time>2010-08-29T13:14:27Z</time>
<desc>lat.=56.069366, lon.=26.463140, Alt.=129.642700m. Speed=0.036000m/h.</desc>
<speed>0.010000</speed>
</trkpt>
<trkpt lat="56.069366" lon="26.463140">
<ele>129.666138</ele>
<time>2010-08-29T13:14:28Z</time>
<desc>lat.=56.069366, lon.=26.463140, Alt.=129.666138m. Speed=0.036000m/h.</desc>
<speed>0.010000</speed>
</trkpt>
<trkpt lat="56.069366" lon="26.463140">
<ele>129.685669</ele>
<time>2010-08-29T13:14:29Z</time>
<desc>lat.=56.069366, lon.=26.463140, Alt.=129.685669m. Speed=0.036000m/h.</desc>
<speed>0.010000</speed>
</trkpt>
<trkpt lat="56.069366" lon="26.463140">
<ele>129.705200</ele>
<time>2010-08-29T13:14:30Z</time>
<desc>lat.=56.069366, lon.=26.463140, Alt.=129.705200m. Speed=0.000000m/h.</desc>
<speed>0.000000</speed>
</trkpt>
<trkpt lat="56.069366" lon="26.463140">
<ele>129.720825</ele>
<time>2010-08-29T13:14:31Z</time>
<desc>lat.=56.069366, lon.=26.463140, Alt.=129.720825m. Speed=0.036000m/h.</desc>
<speed>0.010000</speed>
</trkpt>
<trkpt lat="56.069366" lon="26.463140">
<ele>129.728638</ele>
<time>2010-08-29T13:14:32Z</time>
<desc>lat.=56.069366, lon.=26.463140, Alt.=129.728638m. Speed=0.036000m/h.</desc>
<speed>0.010000</speed>
</trkpt>
<trkpt lat="56.069366" lon="26.463140">
<ele>129.736450</ele>
<time>2010-08-29T13:14:33Z</time>
<desc>lat.=56.069366, lon.=26.463140, Alt.=129.736450m. Speed=0.000000m/h.</desc>
<speed>0.000000</speed>
</trkpt>
<trkpt lat="56.069366" lon="26.463140">
<ele>129.740356</ele>
<time>2010-08-29T13:14:34Z</time>
<desc>lat.=56.069366, lon.=26.463140, Alt.=129.740356m. Speed=0.036000m/h.</desc>
<speed>0.010000</speed>
</trkpt>
<trkpt lat="56.069366" lon="26.463140">
<ele>129.748169</ele>
<time>2010-08-29T13:14:35Z</time>
<desc>lat.=56.069366, lon.=26.463140, Alt.=129.748169m. Speed=0.036000m/h.</desc>
<speed>0.010000</speed>
</trkpt>
<trkpt lat="56.069366" lon="26.463140">
<ele>129.744263</ele>
<time>2010-08-29T13:14:36Z</time>
<desc>lat.=56.069366, lon.=26.463140, Alt.=129.744263m. Speed=0.036000m/h.</desc>
<speed>0.010000</speed>
</trkpt>
<trkpt lat="56.069366" lon="26.463140">
<ele>129.736450</ele>
<time>2010-08-29T13:14:37Z</time>
<desc>lat.=56.069366, lon.=26.463140, Alt.=129.736450m. Speed=0.036000m/h.</desc>
<speed>0.010000</speed>
</trkpt>
<trkpt lat="56.069366" lon="26.463140">
<ele>129.744263</ele>
<time>2010-08-29T13:14:38Z</time>
<desc>lat.=56.069366, lon.=26.463140, Alt.=129.744263m. Speed=0.036000m/h.</desc>
<speed>0.010000</speed>
</trkpt>
<trkpt lat="56.069366" lon="26.463140">
<ele>129.759888</ele>
<time>2010-08-29T13:14:39Z</time>
<desc>lat.=56.069366, lon.=26.463140, Alt.=129.759888m. Speed=0.108000m/h.</desc>
<speed>0.030000</speed>
</trkpt>
<trkpt lat="56.069366" lon="26.463140">
<ele>129.787231</ele>
<time>2010-08-29T13:14:40Z</time>
<desc>lat.=56.069366, lon.=26.463140, Alt.=129.787231m. Speed=0.108000m/h.</desc>
<speed>0.030000</speed>
</trkpt>
<trkpt lat="56.069366" lon="26.463140">
<ele>129.826294</ele>
<time>2010-08-29T13:14:41Z</time>
<desc>lat.=56.069366, lon.=26.463140, Alt.=129.826294m. Speed=0.216000m/h.</desc>
<speed>0.060000</speed>
</trkpt>
<trkpt lat="56.069366" lon="26.463140">
<ele>129.853638</ele>
<time>2010-08-29T13:14:42Z</time>
<desc>lat.=56.069366, lon.=26.463140, Alt.=129.853638m. Speed=0.144000m/h.</desc>
<speed>0.040000</speed>
</trkpt>
<trkpt lat="56.069366" lon="26.463140">
<ele>129.877075</ele>
<time>2010-08-29T13:14:43Z</time>
<desc>lat.=56.069366, lon.=26.463140, Alt.=129.877075m. Speed=0.072000m/h.</desc>
<speed>0.020000</speed>
</trkpt>
<trkpt lat="56.069366" lon="26.463142">
<ele>129.892700</ele>
<time>2010-08-29T13:14:44Z</time>
<desc>lat.=56.069366, lon.=26.463142, Alt.=129.892700m. Speed=0.108000m/h.</desc>
<speed>0.030000</speed>
</trkpt>
<trkpt lat="56.069366" lon="26.463142">
<ele>129.912231</ele>
<time>2010-08-29T13:14:45Z</time>
<desc>lat.=56.069366, lon.=26.463142, Alt.=129.912231m. Speed=0.072000m/h.</desc>
<speed>0.020000</speed>
</trkpt>
<trkpt lat="56.069366" lon="26.463140">
<ele>129.931763</ele>
<time>2010-08-29T13:14:46Z</time>
<desc>lat.=56.069366, lon.=26.463140, Alt.=129.931763m. Speed=0.072000m/h.</desc>
<speed>0.020000</speed>
</trkpt>
<trkpt lat="56.069366" lon="26.463140">
<ele>129.947388</ele>
<time>2010-08-29T13:14:47Z</time>
<desc>lat.=56.069366, lon.=26.463140, Alt.=129.947388m. Speed=0.396000m/h.</desc>
<speed>0.110000</speed>
</trkpt>
<trkpt lat="56.069366" lon="26.463139">
<ele>129.963013</ele>
<time>2010-08-29T13:14:48Z</time>
<desc>lat.=56.069366, lon.=26.463139, Alt.=129.963013m. Speed=0.648000m/h.</desc>
<speed>0.180000</speed>
</trkpt>
<trkpt lat="56.069366" lon="26.463137">
<ele>129.978638</ele>
<time>2010-08-29T13:14:49Z</time>
<desc>lat.=56.069366, lon.=26.463137, Alt.=129.978638m. Speed=0.828000m/h.</desc>
<speed>0.230000</speed>
</trkpt>
<trkpt lat="56.069366" lon="26.463133">
<ele>129.990356</ele>
<time>2010-08-29T13:14:50Z</time>
<desc>lat.=56.069366, lon.=26.463133, Alt.=129.990356m. Speed=0.972000m/h.</desc>
<speed>0.270000</speed>
</trkpt>
<trkpt lat="56.069366" lon="26.463129">
<ele>130.005981</ele>
<time>2010-08-29T13:14:51Z</time>
<desc>lat.=56.069366, lon.=26.463129, Alt.=130.005981m. Speed=0.972000m/h.</desc>
<speed>0.270000</speed>
</trkpt>
<trkpt lat="56.069366" lon="26.463123">
<ele>130.021606</ele>
<time>2010-08-29T13:14:52Z</time>
<desc>lat.=56.069366, lon.=26.463123, Alt.=130.021606m. Speed=0.108000m/h.</desc>
<speed>0.030000</speed>
</trkpt>
<trkpt lat="56.069366" lon="26.463123">
<ele>130.045044</ele>
<time>2010-08-29T13:14:53Z</time>
<desc>lat.=56.069366, lon.=26.463123, Alt.=130.045044m. Speed=0.108000m/h.</desc>
<speed>0.030000</speed>
</trkpt>
<trkpt lat="56.069366" lon="26.463123">
<ele>130.076294</ele>
<time>2010-08-29T13:14:54Z</time>
<desc>lat.=56.069366, lon.=26.463123, Alt.=130.076294m. Speed=0.000000m/h.</desc>
<speed>0.000000</speed>
</trkpt>
<trkpt lat="56.069366" lon="26.463123">
<ele>130.088013</ele>
<time>2010-08-29T13:14:55Z</time>
<desc>lat.=56.069366, lon.=26.463123, Alt.=130.088013m. Speed=0.000000m/h.</desc>
<speed>0.000000</speed>
</trkpt>
<trkpt lat="56.069366" lon="26.463123">
<ele>130.099731</ele>
<time>2010-08-29T13:14:56Z</time>
<desc>lat.=56.069366, lon.=26.463123, Alt.=130.099731m. Speed=0.036000m/h.</desc>
<speed>0.010000</speed>
</trkpt>
<trkpt lat="56.069366" lon="26.463123">
<ele>130.088013</ele>
<time>2010-08-29T13:14:57Z</time>
<desc>lat.=56.069366, lon.=26.463123, Alt.=130.088013m. Speed=0.036000m/h.</desc>
<speed>0.010000</speed>
</trkpt>
<trkpt lat="56.069366" lon="26.463123">
<ele>130.091919</ele>
<time>2010-08-29T13:14:58Z</time>
<desc>lat.=56.069366, lon.=26.463123, Alt.=130.091919m. Speed=0.000000m/h.</desc>
<speed>0.000000</speed>
</trkpt>
<trkpt lat="56.069366" lon="26.463123">
<ele>130.099731</ele>
<time>2010-08-29T13:14:59Z</time>
<desc>lat.=56.069366, lon.=26.463123, Alt.=130.099731m. Speed=0.000000m/h.</desc>
<speed>0.000000</speed>
</trkpt>
<trkpt lat="56.069366" lon="26.463123">
<ele>130.099731</ele>
<time>2010-08-29T13:15:00Z</time>
<desc>lat.=56.069366, lon.=26.463123, Alt.=130.099731m. Speed=0.000000m/h.</desc>
<speed>0.000000</speed>
</trkpt>
<trkpt lat="56.069366" lon="26.463123">
<ele>130.107544</ele>
<time>2010-08-29T13:15:01Z</time>
<desc>lat.=56.069366, lon.=26.463123, Alt.=130.107544m. Speed=0.000000m/h.</desc>
<speed>0.000000</speed>
</trkpt>
<trkpt lat="56.069366" lon="26.463123">
<ele>130.107544</ele>
<time>2010-08-29T13:15:02Z</time>
<desc>lat.=56.069366, lon.=26.463123, Alt.=130.107544m. Speed=0.000000m/h.</desc>
<speed>0.000000</speed>
</trkpt>
<trkpt lat="56.069366" lon="26.463123">
<ele>130.099731</ele>
<time>2010-08-29T13:15:03Z</time>
<desc>lat.=56.069366, lon.=26.463123, Alt.=130.099731m. Speed=0.000000m/h.</desc>
<speed>0.000000</speed>
</trkpt>
<trkpt lat="56.069366" lon="26.463123">
<ele>130.088013</ele>
<time>2010-08-29T13:15:04Z</time>
<desc>lat.=56.069366, lon.=26.463123, Alt.=130.088013m. Speed=0.000000m/h.</desc>
<speed>0.000000</speed>
</trkpt>
<trkpt lat="56.069366" lon="26.463123">
<ele>130.091919</ele>
<time>2010-08-29T13:15:05Z</time>
<desc>lat.=56.069366, lon.=26.463123, Alt.=130.091919m. Speed=0.036000m/h.</desc>
<speed>0.010000</speed>
</trkpt>
<trkpt lat="56.069366" lon="26.463123">
<ele>130.111450</ele>
<time>2010-08-29T13:15:06Z</time>
<desc>lat.=56.069366, lon.=26.463123, Alt.=130.111450m. Speed=0.036000m/h.</desc>
<speed>0.010000</speed>
</trkpt>
<trkpt lat="56.069366" lon="26.463123">
<ele>130.123169</ele>
<time>2010-08-29T13:15:07Z</time>
<desc>lat.=56.069366, lon.=26.463123, Alt.=130.123169m. Speed=0.072000m/h.</desc>
<speed>0.020000</speed>
</trkpt>
<trkpt lat="56.069366" lon="26.463123">
<ele>130.130981</ele>
<time>2010-08-29T13:15:08Z</time>
<desc>lat.=56.069366, lon.=26.463123, Alt.=130.130981m. Speed=0.000000m/h.</desc>
<speed>0.000000</speed>
</trkpt>
<trkpt lat="56.069366" lon="26.463123">
<ele>130.166138</ele>
<time>2010-08-29T13:15:09Z</time>
<desc>lat.=56.069366, lon.=26.463123, Alt.=130.166138m. Speed=0.288000m/h.</desc>
<speed>0.080000</speed>
</trkpt>
<trkpt lat="56.069366" lon="26.463121">
<ele>130.185669</ele>
<time>2010-08-29T13:15:10Z</time>
<desc>lat.=56.069366, lon.=26.463121, Alt.=130.185669m. Speed=0.360000m/h.</desc>
<speed>0.100000</speed>
</trkpt>
<trkpt lat="56.069366" lon="26.463121">
<ele>130.220825</ele>
<time>2010-08-29T13:15:11Z</time>
<desc>lat.=56.069366, lon.=26.463121, Alt.=130.220825m. Speed=0.288000m/h.</desc>
<speed>0.080000</speed>
</trkpt>
<trkpt lat="56.069366" lon="26.463121">
<ele>130.248169</ele>
<time>2010-08-29T13:15:12Z</time>
<desc>lat.=56.069366, lon.=26.463121, Alt.=130.248169m. Speed=0.180000m/h.</desc>
<speed>0.050000</speed>
</trkpt>
<trkpt lat="56.069366" lon="26.463121">
<ele>130.255981</ele>
<time>2010-08-29T13:15:13Z</time>
<desc>lat.=56.069366, lon.=26.463121, Alt.=130.255981m. Speed=0.108000m/h.</desc>
<speed>0.030000</speed>
</trkpt>
<trkpt lat="56.069363" lon="26.463121">
<ele>130.275513</ele>
<time>2010-08-29T13:15:14Z</time>
<desc>lat.=56.069363, lon.=26.463121, Alt.=130.275513m. Speed=0.036000m/h.</desc>
<speed>0.010000</speed>
</trkpt>
<trkpt lat="56.069363" lon="26.463121">
<ele>130.275513</ele>
<time>2010-08-29T13:15:15Z</time>
<desc>lat.=56.069363, lon.=26.463121, Alt.=130.275513m. Speed=0.000000m/h.</desc>
<speed>0.000000</speed>
</trkpt>
<trkpt lat="56.069363" lon="26.463121">
<ele>130.275513</ele>
<time>2010-08-29T13:15:16Z</time>
<desc>lat.=56.069363, lon.=26.463121, Alt.=130.275513m. Speed=0.000000m/h.</desc>
<speed>0.000000</speed>
</trkpt>
<trkpt lat="56.069363" lon="26.463121">
<ele>130.267700</ele>
<time>2010-08-29T13:15:17Z</time>
<desc>lat.=56.069363, lon.=26.463121, Alt.=130.267700m. Speed=0.360000m/h.</desc>
<speed>0.100000</speed>
</trkpt>
<trkpt lat="56.069363" lon="26.463123">
<ele>130.306763</ele>
<time>2010-08-29T13:15:18Z</time>
<desc>lat.=56.069363, lon.=26.463123, Alt.=130.306763m. Speed=2.664000m/h.</desc>
<speed>0.740000</speed>
</trkpt>
<trkpt lat="56.069355" lon="26.463123">
<ele>130.252075</ele>
<time>2010-08-29T13:15:19Z</time>
<desc>lat.=56.069355, lon.=26.463123, Alt.=130.252075m. Speed=2.124000m/h.</desc>
<speed>0.590000</speed>
</trkpt>
<trkpt lat="56.069344" lon="26.463135">
<ele>130.037231</ele>
<time>2010-08-29T13:15:20Z</time>
<desc>lat.=56.069344, lon.=26.463135, Alt.=130.037231m. Speed=1.656000m/h.</desc>
<speed>0.460000</speed>
</trkpt>
<trkpt lat="56.069336" lon="26.463131">
<ele>129.709106</ele>
<time>2010-08-29T13:15:21Z</time>
<desc>lat.=56.069336, lon.=26.463131, Alt.=129.709106m. Speed=0.936000m/h.</desc>
<speed>0.260000</speed>
</trkpt>
<trkpt lat="56.069332" lon="26.463133">
<ele>129.802856</ele>
<time>2010-08-29T13:15:22Z</time>
<desc>lat.=56.069332, lon.=26.463133, Alt.=129.802856m. Speed=0.360000m/h.</desc>
<speed>0.100000</speed>
</trkpt>
<trkpt lat="56.069336" lon="26.463139">
<ele>130.084106</ele>
<time>2010-08-29T13:15:23Z</time>
<desc>lat.=56.069336, lon.=26.463139, Alt.=130.084106m. Speed=0.180000m/h.</desc>
<speed>0.050000</speed>
</trkpt>
<trkpt lat="56.069336" lon="26.463139">
<ele>130.181763</ele>
<time>2010-08-29T13:15:24Z</time>
<desc>lat.=56.069336, lon.=26.463139, Alt.=130.181763m. Speed=0.252000m/h.</desc>
<speed>0.070000</speed>
</trkpt>
<trkpt lat="56.069336" lon="26.463137">
<ele>130.283325</ele>
<time>2010-08-29T13:15:25Z</time>
<desc>lat.=56.069336, lon.=26.463137, Alt.=130.283325m. Speed=0.072000m/h.</desc>
<speed>0.020000</speed>
</trkpt>
<trkpt lat="56.069336" lon="26.463137">
<ele>130.365356</ele>
<time>2010-08-29T13:15:26Z</time>
<desc>lat.=56.069336, lon.=26.463137, Alt.=130.365356m. Speed=0.036000m/h.</desc>
<speed>0.010000</speed>
</trkpt>
<trkpt lat="56.069336" lon="26.463137">
<ele>130.423950</ele>
<time>2010-08-29T13:15:27Z</time>
<desc>lat.=56.069336, lon.=26.463137, Alt.=130.423950m. Speed=0.036000m/h.</desc>
<speed>0.010000</speed>
</trkpt>
<trkpt lat="56.069336" lon="26.463137">
<ele>130.478638</ele>
<time>2010-08-29T13:15:28Z</time>
<desc>lat.=56.069336, lon.=26.463137, Alt.=130.478638m. Speed=0.108000m/h.</desc>
<speed>0.030000</speed>
</trkpt>
<trkpt lat="56.069336" lon="26.463137">
<ele>130.505981</ele>
<time>2010-08-29T13:15:29Z</time>
<desc>lat.=56.069336, lon.=26.463137, Alt.=130.505981m. Speed=0.036000m/h.</desc>
<speed>0.010000</speed>
</trkpt>
<trkpt lat="56.069336" lon="26.463137">
<ele>130.509888</ele>
<time>2010-08-29T13:15:30Z</time>
<desc>lat.=56.069336, lon.=26.463137, Alt.=130.509888m. Speed=0.036000m/h.</desc>
<speed>0.010000</speed>
</trkpt>
<trkpt lat="56.069336" lon="26.463137">
<ele>130.529419</ele>
<time>2010-08-29T13:15:31Z</time>
<desc>lat.=56.069336, lon.=26.463137, Alt.=130.529419m. Speed=0.000000m/h.</desc>
<speed>0.000000</speed>
</trkpt>
<trkpt lat="56.069336" lon="26.463137">
<ele>130.545044</ele>
<time>2010-08-29T13:15:32Z</time>
<desc>lat.=56.069336, lon.=26.463137, Alt.=130.545044m. Speed=0.072000m/h.</desc>
<speed>0.020000</speed>
</trkpt>
<trkpt lat="56.069340" lon="26.463137">
<ele>130.568481</ele>
<time>2010-08-29T13:15:33Z</time>
<desc>lat.=56.069340, lon.=26.463137, Alt.=130.568481m. Speed=0.000000m/h.</desc>
<speed>0.000000</speed>
</trkpt>
<trkpt lat="56.069340" lon="26.463137">
<ele>130.576294</ele>
<time>2010-08-29T13:15:34Z</time>
<desc>lat.=56.069340, lon.=26.463137, Alt.=130.576294m. Speed=0.036000m/h.</desc>
<speed>0.010000</speed>
</trkpt>
<trkpt lat="56.069340" lon="26.463137">
<ele>130.588013</ele>
<time>2010-08-29T13:15:35Z</time>
<desc>lat.=56.069340, lon.=26.463137, Alt.=130.588013m. Speed=0.000000m/h.</desc>
<speed>0.000000</speed>
</trkpt>
<trkpt lat="56.069340" lon="26.463137">
<ele>130.599731</ele>
<time>2010-08-29T13:15:36Z</time>
<desc>lat.=56.069340, lon.=26.463137, Alt.=130.599731m. Speed=0.000000m/h.</desc>
<speed>0.000000</speed>
</trkpt>
<trkpt lat="56.069340" lon="26.463137">
<ele>130.603638</ele>
<time>2010-08-29T13:15:37Z</time>
<desc>lat.=56.069340, lon.=26.463137, Alt.=130.603638m. Speed=0.000000m/h.</desc>
<speed>0.000000</speed>
</trkpt>
<trkpt lat="56.069340" lon="26.463137">
<ele>130.611450</ele>
<time>2010-08-29T13:15:38Z</time>
<desc>lat.=56.069340, lon.=26.463137, Alt.=130.611450m. Speed=0.036000m/h.</desc>
<speed>0.010000</speed>
</trkpt>
<trkpt lat="56.069340" lon="26.463137">
<ele>130.623169</ele>
<time>2010-08-29T13:15:39Z</time>
<desc>lat.=56.069340, lon.=26.463137, Alt.=130.623169m. Speed=0.288000m/h.</desc>
<speed>0.080000</speed>
</trkpt>
<trkpt lat="56.069340" lon="26.463137">
<ele>130.630981</ele>
<time>2010-08-29T13:15:40Z</time>
<desc>lat.=56.069340, lon.=26.463137, Alt.=130.630981m. Speed=0.252000m/h.</desc>
<speed>0.070000</speed>
</trkpt>
<trkpt lat="56.069340" lon="26.463137">
<ele>130.603638</ele>
<time>2010-08-29T13:15:41Z</time>
<desc>lat.=56.069340, lon.=26.463137, Alt.=130.603638m. Speed=0.108000m/h.</desc>
<speed>0.030000</speed>
</trkpt>
<trkpt lat="56.069340" lon="26.463137">
<ele>130.588013</ele>
<time>2010-08-29T13:15:42Z</time>
<desc>lat.=56.069340, lon.=26.463137, Alt.=130.588013m. Speed=0.180000m/h.</desc>
<speed>0.050000</speed>
</trkpt>
<trkpt lat="56.069340" lon="26.463139">
<ele>130.560669</ele>
<time>2010-08-29T13:15:43Z</time>
<desc>lat.=56.069340, lon.=26.463139, Alt.=130.560669m. Speed=0.072000m/h.</desc>
<speed>0.020000</speed>
</trkpt>
<trkpt lat="56.069340" lon="26.463137">
<ele>130.560669</ele>
<time>2010-08-29T13:15:44Z</time>
<desc>lat.=56.069340, lon.=26.463137, Alt.=130.560669m. Speed=0.036000m/h.</desc>
<speed>0.010000</speed>
</trkpt>
<trkpt lat="56.069340" lon="26.463137">
<ele>130.552856</ele>
<time>2010-08-29T13:15:45Z</time>
<desc>lat.=56.069340, lon.=26.463137, Alt.=130.552856m. Speed=0.000000m/h.</desc>
<speed>0.000000</speed>
</trkpt>
<trkpt lat="56.069340" lon="26.463139">
<ele>130.548950</ele>
<time>2010-08-29T13:15:46Z</time>
<desc>lat.=56.069340, lon.=26.463139, Alt.=130.548950m. Speed=0.360000m/h.</desc>
<speed>0.100000</speed>
</trkpt>
<trkpt lat="56.069340" lon="26.463139">
<ele>130.517700</ele>
<time>2010-08-29T13:15:47Z</time>
<desc>lat.=56.069340, lon.=26.463139, Alt.=130.517700m. Speed=0.144000m/h.</desc>
<speed>0.040000</speed>
</trkpt>
<trkpt lat="56.069340" lon="26.463140">
<ele>130.529419</ele>
<time>2010-08-29T13:15:48Z</time>
<desc>lat.=56.069340, lon.=26.463140, Alt.=130.529419m. Speed=0.108000m/h.</desc>
<speed>0.030000</speed>
</trkpt>
<trkpt lat="56.069340" lon="26.463140">
<ele>130.541138</ele>
<time>2010-08-29T13:15:49Z</time>
<desc>lat.=56.069340, lon.=26.463140, Alt.=130.541138m. Speed=0.144000m/h.</desc>
<speed>0.040000</speed>
</trkpt>
<trkpt lat="56.069340" lon="26.463140">
<ele>130.572388</ele>
<time>2010-08-29T13:15:50Z</time>
<desc>lat.=56.069340, lon.=26.463140, Alt.=130.572388m. Speed=0.252000m/h.</desc>
<speed>0.070000</speed>
</trkpt>
<trkpt lat="56.069340" lon="26.463140">
<ele>130.576294</ele>
<time>2010-08-29T13:15:51Z</time>
<desc>lat.=56.069340, lon.=26.463140, Alt.=130.576294m. Speed=0.036000m/h.</desc>
<speed>0.010000</speed>
</trkpt>
<trkpt lat="56.069340" lon="26.463140">
<ele>130.576294</ele>
<time>2010-08-29T13:15:52Z</time>
<desc>lat.=56.069340, lon.=26.463140, Alt.=130.576294m. Speed=0.108000m/h.</desc>
<speed>0.030000</speed>
</trkpt>
<trkpt lat="56.069340" lon="26.463140">
<ele>130.572388</ele>
<time>2010-08-29T13:15:53Z</time>
<desc>lat.=56.069340, lon.=26.463140, Alt.=130.572388m. Speed=0.000000m/h.</desc>
<speed>0.000000</speed>
</trkpt>
<trkpt lat="56.069340" lon="26.463140">
<ele>130.564575</ele>
<time>2010-08-29T13:15:54Z</time>
<desc>lat.=56.069340, lon.=26.463140, Alt.=130.564575m. Speed=0.036000m/h.</desc>
<speed>0.010000</speed>
</trkpt>
<trkpt lat="56.069340" lon="26.463140">
<ele>130.560669</ele>
<time>2010-08-29T13:15:55Z</time>
<desc>lat.=56.069340, lon.=26.463140, Alt.=130.560669m. Speed=0.036000m/h.</desc>
<speed>0.010000</speed>
</trkpt>
<trkpt lat="56.069340" lon="26.463140">
<ele>130.552856</ele>
<time>2010-08-29T13:15:56Z</time>
<desc>lat.=56.069340, lon.=26.463140, Alt.=130.552856m. Speed=0.000000m/h.</desc>
<speed>0.000000</speed>
</trkpt>
<trkpt lat="56.069340" lon="26.463140">
<ele>130.548950</ele>
<time>2010-08-29T13:15:57Z</time>
<desc>lat.=56.069340, lon.=26.463140, Alt.=130.548950m. Speed=0.036000m/h.</desc>
<speed>0.010000</speed>
</trkpt>
<trkpt lat="56.069340" lon="26.463140">
<ele>130.552856</ele>
<time>2010-08-29T13:15:58Z</time>
<desc>lat.=56.069340, lon.=26.463140, Alt.=130.552856m. Speed=0.036000m/h.</desc>
<speed>0.010000</speed>
</trkpt>
<trkpt lat="56.069340" lon="26.463140">
<ele>130.568481</ele>
<time>2010-08-29T13:15:59Z</time>
<desc>lat.=56.069340, lon.=26.463140, Alt.=130.568481m. Speed=0.000000m/h.</desc>
<speed>0.000000</speed>
</trkpt>
<trkpt lat="56.069336" lon="26.463140">
<ele>130.568481</ele>
<time>2010-08-29T13:16:00Z</time>
<desc>lat.=56.069336, lon.=26.463140, Alt.=130.568481m. Speed=0.036000m/h.</desc>
<speed>0.010000</speed>
</trkpt>
<trkpt lat="56.069336" lon="26.463140">
<ele>130.568481</ele>
<time>2010-08-29T13:16:01Z</time>
<desc>lat.=56.069336, lon.=26.463140, Alt.=130.568481m. Speed=0.180000m/h.</desc>
<speed>0.050000</speed>
</trkpt>
<trkpt lat="56.069336" lon="26.463140">
<ele>130.556763</ele>
<time>2010-08-29T13:16:02Z</time>
<desc>lat.=56.069336, lon.=26.463140, Alt.=130.556763m. Speed=0.288000m/h.</desc>
<speed>0.080000</speed>
</trkpt>
<trkpt lat="56.069336" lon="26.463140">
<ele>130.541138</ele>
<time>2010-08-29T13:16:03Z</time>
<desc>lat.=56.069336, lon.=26.463140, Alt.=130.541138m. Speed=0.360000m/h.</desc>
<speed>0.100000</speed>
</trkpt>
<trkpt lat="56.069336" lon="26.463142">
<ele>130.545044</ele>
<time>2010-08-29T13:16:04Z</time>
<desc>lat.=56.069336, lon.=26.463142, Alt.=130.545044m. Speed=1.116000m/h.</desc>
<speed>0.310000</speed>
</trkpt>
<trkpt lat="56.069336" lon="26.463148">
<ele>130.283325</ele>
<time>2010-08-29T13:16:05Z</time>
<desc>lat.=56.069336, lon.=26.463148, Alt.=130.283325m. Speed=1.944000m/h.</desc>
<speed>0.540000</speed>
</trkpt>
<trkpt lat="56.069332" lon="26.463150">
<ele>130.295044</ele>
<time>2010-08-29T13:16:06Z</time>
<desc>lat.=56.069332, lon.=26.463150, Alt.=130.295044m. Speed=0.936000m/h.</desc>
<speed>0.260000</speed>
</trkpt>
<trkpt lat="56.069332" lon="26.463152">
<ele>130.271606</ele>
<time>2010-08-29T13:16:07Z</time>
<desc>lat.=56.069332, lon.=26.463152, Alt.=130.271606m. Speed=0.324000m/h.</desc>
<speed>0.090000</speed>
</trkpt>
<trkpt lat="56.069332" lon="26.463156">
<ele>130.068481</ele>
<time>2010-08-29T13:16:08Z</time>
<desc>lat.=56.069332, lon.=26.463156, Alt.=130.068481m. Speed=1.944000m/h.</desc>
<speed>0.540000</speed>
</trkpt>
<trkpt lat="56.069332" lon="26.463163">
<ele>129.830200</ele>
<time>2010-08-29T13:16:09Z</time>
<desc>lat.=56.069332, lon.=26.463163, Alt.=129.830200m. Speed=2.124000m/h.</desc>
<speed>0.590000</speed>
</trkpt>
<trkpt lat="56.069324" lon="26.463167">
<ele>129.830200</ele>
<time>2010-08-29T13:16:10Z</time>
<desc>lat.=56.069324, lon.=26.463167, Alt.=129.830200m. Speed=1.224000m/h.</desc>
<speed>0.340000</speed>
</trkpt>
<trkpt lat="56.069321" lon="26.463169">
<ele>129.377075</ele>
<time>2010-08-29T13:16:11Z</time>
<desc>lat.=56.069321, lon.=26.463169, Alt.=129.377075m. Speed=0.756000m/h.</desc>
<speed>0.210000</speed>
</trkpt>
<trkpt lat="56.069313" lon="26.463175">
<ele>129.291138</ele>
<time>2010-08-29T13:16:12Z</time>
<desc>lat.=56.069313, lon.=26.463175, Alt.=129.291138m. Speed=0.360000m/h.</desc>
<speed>0.100000</speed>
</trkpt>
<trkpt lat="56.069313" lon="26.463177">
<ele>129.134888</ele>
<time>2010-08-29T13:16:13Z</time>
<desc>lat.=56.069313, lon.=26.463177, Alt.=129.134888m. Speed=0.288000m/h.</desc>
<speed>0.080000</speed>
</trkpt>
<trkpt lat="56.069313" lon="26.463175">
<ele>129.045044</ele>
<time>2010-08-29T13:16:14Z</time>
<desc>lat.=56.069313, lon.=26.463175, Alt.=129.045044m. Speed=0.396000m/h.</desc>
<speed>0.110000</speed>
</trkpt>
<trkpt lat="56.069313" lon="26.463175">
<ele>129.009888</ele>
<time>2010-08-29T13:16:15Z</time>
<desc>lat.=56.069313, lon.=26.463175, Alt.=129.009888m. Speed=0.108000m/h.</desc>
<speed>0.030000</speed>
</trkpt>
<trkpt lat="56.069313" lon="26.463175">
<ele>128.986450</ele>
<time>2010-08-29T13:16:16Z</time>
<desc>lat.=56.069313, lon.=26.463175, Alt.=128.986450m. Speed=0.108000m/h.</desc>
<speed>0.030000</speed>
</trkpt>
<trkpt lat="56.069313" lon="26.463175">
<ele>128.963013</ele>
<time>2010-08-29T13:16:17Z</time>
<desc>lat.=56.069313, lon.=26.463175, Alt.=128.963013m. Speed=0.468000m/h.</desc>
<speed>0.130000</speed>
</trkpt>
<trkpt lat="56.069309" lon="26.463175">
<ele>128.939575</ele>
<time>2010-08-29T13:16:18Z</time>
<desc>lat.=56.069309, lon.=26.463175, Alt.=128.939575m. Speed=0.468000m/h.</desc>
<speed>0.130000</speed>
</trkpt>
<trkpt lat="56.069309" lon="26.463173">
<ele>128.923950</ele>
<time>2010-08-29T13:16:19Z</time>
<desc>lat.=56.069309, lon.=26.463173, Alt.=128.923950m. Speed=0.576000m/h.</desc>
<speed>0.160000</speed>
</trkpt>
<trkpt lat="56.069309" lon="26.463171">
<ele>128.916138</ele>
<time>2010-08-29T13:16:20Z</time>
<desc>lat.=56.069309, lon.=26.463171, Alt.=128.916138m. Speed=1.728000m/h.</desc>
<speed>0.480000</speed>
</trkpt>
<trkpt lat="56.069302" lon="26.463173">
<ele>128.861450</ele>
<time>2010-08-29T13:16:21Z</time>
<desc>lat.=56.069302, lon.=26.463173, Alt.=128.861450m. Speed=3.492000m/h.</desc>
<speed>0.970000</speed>
</trkpt>
<trkpt lat="56.069283" lon="26.463163">
<ele>128.990356</ele>
<time>2010-08-29T13:16:22Z</time>
<desc>lat.=56.069283, lon.=26.463163, Alt.=128.990356m. Speed=4.212000m/h.</desc>
<speed>1.170000</speed>
</trkpt>
<trkpt lat="56.069275" lon="26.463165">
<ele>128.920044</ele>
<time>2010-08-29T13:16:23Z</time>
<desc>lat.=56.069275, lon.=26.463165, Alt.=128.920044m. Speed=1.620000m/h.</desc>
<speed>0.450000</speed>
</trkpt>
<trkpt lat="56.069271" lon="26.463163">
<ele>128.912231</ele>
<time>2010-08-29T13:16:24Z</time>
<desc>lat.=56.069271, lon.=26.463163, Alt.=128.912231m. Speed=1.764000m/h.</desc>
<speed>0.490000</speed>
</trkpt>
<trkpt lat="56.069263" lon="26.463160">
<ele>128.795044</ele>
<time>2010-08-29T13:16:25Z</time>
<desc>lat.=56.069263, lon.=26.463160, Alt.=128.795044m. Speed=2.988000m/h.</desc>
<speed>0.830000</speed>
</trkpt>
<trkpt lat="56.069252" lon="26.463158">
<ele>128.783325</ele>
<time>2010-08-29T13:16:26Z</time>
<desc>lat.=56.069252, lon.=26.463158, Alt.=128.783325m. Speed=2.844000m/h.</desc>
<speed>0.790000</speed>
</trkpt>
<trkpt lat="56.069244" lon="26.463154">
<ele>128.654419</ele>
<time>2010-08-29T13:16:27Z</time>
<desc>lat.=56.069244, lon.=26.463154, Alt.=128.654419m. Speed=2.700000m/h.</desc>
<speed>0.750000</speed>
</trkpt>
<trkpt lat="56.069241" lon="26.463167">
<ele>128.548950</ele>
<time>2010-08-29T13:16:28Z</time>
<desc>lat.=56.069241, lon.=26.463167, Alt.=128.548950m. Speed=2.664000m/h.</desc>
<speed>0.740000</speed>
</trkpt>
<trkpt lat="56.069256" lon="26.463205">
<ele>128.509888</ele>
<time>2010-08-29T13:16:29Z</time>
<desc>lat.=56.069256, lon.=26.463205, Alt.=128.509888m. Speed=2.664000m/h.</desc>
<speed>0.740000</speed>
</trkpt>
<trkpt lat="56.069241" lon="26.463200">
<ele>128.502075</ele>
<time>2010-08-29T13:16:30Z</time>
<desc>lat.=56.069241, lon.=26.463200, Alt.=128.502075m. Speed=3.384000m/h.</desc>
<speed>0.940000</speed>
</trkpt>
<trkpt lat="56.069229" lon="26.463196">
<ele>128.611450</ele>
<time>2010-08-29T13:16:31Z</time>
<desc>lat.=56.069229, lon.=26.463196, Alt.=128.611450m. Speed=4.140000m/h.</desc>
<speed>1.150000</speed>
</trkpt>
<trkpt lat="56.069225" lon="26.463190">
<ele>128.658325</ele>
<time>2010-08-29T13:16:32Z</time>
<desc>lat.=56.069225, lon.=26.463190, Alt.=128.658325m. Speed=0.936000m/h.</desc>
<speed>0.260000</speed>
</trkpt>
<trkpt lat="56.069218" lon="26.463196">
<ele>128.888794</ele>
<time>2010-08-29T13:16:33Z</time>
<desc>lat.=56.069218, lon.=26.463196, Alt.=128.888794m. Speed=2.448000m/h.</desc>
<speed>0.680000</speed>
</trkpt>
<trkpt lat="56.069210" lon="26.463203">
<ele>129.045044</ele>
<time>2010-08-29T13:16:34Z</time>
<desc>lat.=56.069210, lon.=26.463203, Alt.=129.045044m. Speed=3.132000m/h.</desc>
<speed>0.870000</speed>
</trkpt>
<trkpt lat="56.069199" lon="26.463213">
<ele>129.068481</ele>
<time>2010-08-29T13:16:35Z</time>
<desc>lat.=56.069199, lon.=26.463213, Alt.=129.068481m. Speed=4.176000m/h.</desc>
<speed>1.160000</speed>
</trkpt>
<trkpt lat="56.069214" lon="26.463224">
<ele>129.287231</ele>
<time>2010-08-29T13:16:36Z</time>
<desc>lat.=56.069214, lon.=26.463224, Alt.=129.287231m. Speed=1.512000m/h.</desc>
<speed>0.420000</speed>
</trkpt>
<trkpt lat="56.069202" lon="26.463215">
<ele>129.170044</ele>
<time>2010-08-29T13:16:37Z</time>
<desc>lat.=56.069202, lon.=26.463215, Alt.=129.170044m. Speed=1.296000m/h.</desc>
<speed>0.360000</speed>
</trkpt>
<trkpt lat="56.069187" lon="26.463205">
<ele>129.091919</ele>
<time>2010-08-29T13:16:38Z</time>
<desc>lat.=56.069187, lon.=26.463205, Alt.=129.091919m. Speed=0.828000m/h.</desc>
<speed>0.230000</speed>
</trkpt>
<trkpt lat="56.069191" lon="26.463207">
<ele>129.068481</ele>
<time>2010-08-29T13:16:39Z</time>
<desc>lat.=56.069191, lon.=26.463207, Alt.=129.068481m. Speed=0.900000m/h.</desc>
<speed>0.250000</speed>
</trkpt>
<trkpt lat="56.069183" lon="26.463209">
<ele>128.740356</ele>
<time>2010-08-29T13:16:40Z</time>
<desc>lat.=56.069183, lon.=26.463209, Alt.=128.740356m. Speed=1.152000m/h.</desc>
<speed>0.320000</speed>
</trkpt>
<trkpt lat="56.069183" lon="26.463205">
<ele>128.798950</ele>
<time>2010-08-29T13:16:41Z</time>
<desc>lat.=56.069183, lon.=26.463205, Alt.=128.798950m. Speed=2.340000m/h.</desc>
<speed>0.650000</speed>
</trkpt>
<trkpt lat="56.069183" lon="26.463198">
<ele>128.865356</ele>
<time>2010-08-29T13:16:42Z</time>
<desc>lat.=56.069183, lon.=26.463198, Alt.=128.865356m. Speed=2.052000m/h.</desc>
<speed>0.570000</speed>
</trkpt>
<trkpt lat="56.069183" lon="26.463198">
<ele>128.373169</ele>
<time>2010-08-29T13:16:43Z</time>
<desc>lat.=56.069183, lon.=26.463198, Alt.=128.373169m. Speed=3.816000m/h.</desc>
<speed>1.060000</speed>
</trkpt>
<trkpt lat="56.069180" lon="26.463194">
<ele>127.862366</ele>
<time>2010-08-29T13:16:44Z</time>
<desc>lat.=56.069180, lon.=26.463194, Alt.=127.862366m. Speed=4.428000m/h.</desc>
<speed>1.230000</speed>
</trkpt>
<trkpt lat="56.069180" lon="26.463186">
<ele>127.917053</ele>
<time>2010-08-29T13:16:45Z</time>
<desc>lat.=56.069180, lon.=26.463186, Alt.=127.917053m. Speed=2.376000m/h.</desc>
<speed>0.660000</speed>
</trkpt>
<trkpt lat="56.069176" lon="26.463175">
<ele>128.056763</ele>
<time>2010-08-29T13:16:46Z</time>
<desc>lat.=56.069176, lon.=26.463175, Alt.=128.056763m. Speed=2.916000m/h.</desc>
<speed>0.810000</speed>
</trkpt>
<trkpt lat="56.069168" lon="26.463173">
<ele>127.854553</ele>
<time>2010-08-29T13:16:47Z</time>
<desc>lat.=56.069168, lon.=26.463173, Alt.=127.854553m. Speed=2.376000m/h.</desc>
<speed>0.660000</speed>
</trkpt>
<trkpt lat="56.069164" lon="26.463179">
<ele>127.719788</ele>
<time>2010-08-29T13:16:48Z</time>
<desc>lat.=56.069164, lon.=26.463179, Alt.=127.719788m. Speed=0.648000m/h.</desc>
<speed>0.180000</speed>
</trkpt>
<trkpt lat="56.069157" lon="26.463190">
<ele>127.114319</ele>
<time>2010-08-29T13:16:49Z</time>
<desc>lat.=56.069157, lon.=26.463190, Alt.=127.114319m. Speed=0.972000m/h.</desc>
<speed>0.270000</speed>
</trkpt>
<trkpt lat="56.069168" lon="26.463184">
<ele>126.846741</ele>
<time>2010-08-29T13:16:50Z</time>
<desc>lat.=56.069168, lon.=26.463184, Alt.=126.846741m. Speed=0.684000m/h.</desc>
<speed>0.190000</speed>
</trkpt>
<trkpt lat="56.069168" lon="26.463190">
<ele>126.237366</ele>
<time>2010-08-29T13:16:51Z</time>
<desc>lat.=56.069168, lon.=26.463190, Alt.=126.237366m. Speed=0.468000m/h.</desc>
<speed>0.130000</speed>
</trkpt>
<trkpt lat="56.069168" lon="26.463190">
<ele>126.290100</ele>
<time>2010-08-29T13:16:52Z</time>
<desc>lat.=56.069168, lon.=26.463190, Alt.=126.290100m. Speed=1.764000m/h.</desc>
<speed>0.490000</speed>
</trkpt>
<trkpt lat="56.069160" lon="26.463186">
<ele>126.374084</ele>
<time>2010-08-29T13:16:53Z</time>
<desc>lat.=56.069160, lon.=26.463186, Alt.=126.374084m. Speed=2.772000m/h.</desc>
<speed>0.770000</speed>
</trkpt>
<trkpt lat="56.069157" lon="26.463184">
<ele>126.366272</ele>
<time>2010-08-29T13:16:54Z</time>
<desc>lat.=56.069157, lon.=26.463184, Alt.=126.366272m. Speed=1.296000m/h.</desc>
<speed>0.360000</speed>
</trkpt>
<trkpt lat="56.069149" lon="26.463179">
<ele>126.426819</ele>
<time>2010-08-29T13:16:55Z</time>
<desc>lat.=56.069149, lon.=26.463179, Alt.=126.426819m. Speed=3.672000m/h.</desc>
<speed>1.020000</speed>
</trkpt>
<trkpt lat="56.069153" lon="26.463158">
<ele>126.512756</ele>
<time>2010-08-29T13:16:56Z</time>
<desc>lat.=56.069153, lon.=26.463158, Alt.=126.512756m. Speed=3.132000m/h.</desc>
<speed>0.870000</speed>
</trkpt>
<trkpt lat="56.069145" lon="26.463152">
<ele>126.239319</ele>
<time>2010-08-29T13:16:57Z</time>
<desc>lat.=56.069145, lon.=26.463152, Alt.=126.239319m. Speed=2.304000m/h.</desc>
<speed>0.640000</speed>
</trkpt>
<trkpt lat="56.069141" lon="26.463150">
<ele>126.352600</ele>
<time>2010-08-29T13:16:58Z</time>
<desc>lat.=56.069141, lon.=26.463150, Alt.=126.352600m. Speed=1.368000m/h.</desc>
<speed>0.380000</speed>
</trkpt>
<trkpt lat="56.069138" lon="26.463146">
<ele>126.475647</ele>
<time>2010-08-29T13:16:59Z</time>
<desc>lat.=56.069138, lon.=26.463146, Alt.=126.475647m. Speed=0.720000m/h.</desc>
<speed>0.200000</speed>
</trkpt>
<trkpt lat="56.069134" lon="26.463148">
<ele>126.403381</ele>
<time>2010-08-29T13:17:00Z</time>
<desc>lat.=56.069134, lon.=26.463148, Alt.=126.403381m. Speed=0.396000m/h.</desc>
<speed>0.110000</speed>
</trkpt>
<trkpt lat="56.069134" lon="26.463150">
<ele>126.331116</ele>
<time>2010-08-29T13:17:01Z</time>
<desc>lat.=56.069134, lon.=26.463150, Alt.=126.331116m. Speed=0.396000m/h.</desc>
<speed>0.110000</speed>
</trkpt>
<trkpt lat="56.069138" lon="26.463148">
<ele>126.251038</ele>
<time>2010-08-29T13:17:02Z</time>
<desc>lat.=56.069138, lon.=26.463148, Alt.=126.251038m. Speed=1.548000m/h.</desc>
<speed>0.430000</speed>
</trkpt>
<trkpt lat="56.069134" lon="26.463152">
<ele>125.965881</ele>
<time>2010-08-29T13:17:03Z</time>
<desc>lat.=56.069134, lon.=26.463152, Alt.=125.965881m. Speed=1.980000m/h.</desc>
<speed>0.550000</speed>
</trkpt>
<trkpt lat="56.069138" lon="26.463148">
<ele>126.047913</ele>
<time>2010-08-29T13:17:04Z</time>
<desc>lat.=56.069138, lon.=26.463148, Alt.=126.047913m. Speed=2.700000m/h.</desc>
<speed>0.750000</speed>
</trkpt>
<trkpt lat="56.069145" lon="26.463142">
<ele>126.085022</ele>
<time>2010-08-29T13:17:05Z</time>
<desc>lat.=56.069145, lon.=26.463142, Alt.=126.085022m. Speed=2.556000m/h.</desc>
<speed>0.710000</speed>
</trkpt>
<trkpt lat="56.069145" lon="26.463135">
<ele>126.102600</ele>
<time>2010-08-29T13:17:06Z</time>
<desc>lat.=56.069145, lon.=26.463135, Alt.=126.102600m. Speed=3.636000m/h.</desc>
<speed>1.010000</speed>
</trkpt>
<trkpt lat="56.069145" lon="26.463114">
<ele>126.063538</ele>
<time>2010-08-29T13:17:07Z</time>
<desc>lat.=56.069145, lon.=26.463114, Alt.=126.063538m. Speed=3.168000m/h.</desc>
<speed>0.880000</speed>
</trkpt>
<trkpt lat="56.069145" lon="26.463099">
<ele>125.991272</ele>
<time>2010-08-29T13:17:08Z</time>
<desc>lat.=56.069145, lon.=26.463099, Alt.=125.991272m. Speed=3.924000m/h.</desc>
<speed>1.090000</speed>
</trkpt>
<trkpt lat="56.069141" lon="26.463081">
<ele>126.075256</ele>
<time>2010-08-29T13:17:09Z</time>
<desc>lat.=56.069141, lon.=26.463081, Alt.=126.075256m. Speed=2.952000m/h.</desc>
<speed>0.820000</speed>
</trkpt>
<trkpt lat="56.069141" lon="26.463066">
<ele>126.788147</ele>
<time>2010-08-29T13:17:10Z</time>
<desc>lat.=56.069141, lon.=26.463066, Alt.=126.788147m. Speed=2.880000m/h.</desc>
<speed>0.800000</speed>
</trkpt>
<trkpt lat="56.069153" lon="26.463036">
<ele>127.145569</ele>
<time>2010-08-29T13:17:11Z</time>
<desc>lat.=56.069153, lon.=26.463036, Alt.=127.145569m. Speed=5.076000m/h.</desc>
<speed>1.410000</speed>
</trkpt>
<trkpt lat="56.069149" lon="26.463015">
<ele>127.626038</ele>
<time>2010-08-29T13:17:12Z</time>
<desc>lat.=56.069149, lon.=26.463015, Alt.=127.626038m. Speed=3.060000m/h.</desc>
<speed>0.850000</speed>
</trkpt>
<trkpt lat="56.069145" lon="26.462996">
<ele>128.373169</ele>
<time>2010-08-29T13:17:13Z</time>
<desc>lat.=56.069145, lon.=26.462996, Alt.=128.373169m. Speed=2.484000m/h.</desc>
<speed>0.690000</speed>
</trkpt>
<trkpt lat="56.069160" lon="26.462965">
<ele>128.431763</ele>
<time>2010-08-29T13:17:14Z</time>
<desc>lat.=56.069160, lon.=26.462965, Alt.=128.431763m. Speed=3.852000m/h.</desc>
<speed>1.070000</speed>
</trkpt>
<trkpt lat="56.069157" lon="26.462954">
<ele>128.912231</ele>
<time>2010-08-29T13:17:15Z</time>
<desc>lat.=56.069157, lon.=26.462954, Alt.=128.912231m. Speed=2.736000m/h.</desc>
<speed>0.760000</speed>
</trkpt>
<trkpt lat="56.069149" lon="26.462944">
<ele>129.341919</ele>
<time>2010-08-29T13:17:16Z</time>
<desc>lat.=56.069149, lon.=26.462944, Alt.=129.341919m. Speed=2.088000m/h.</desc>
<speed>0.580000</speed>
</trkpt>
<trkpt lat="56.069153" lon="26.462931">
<ele>129.588013</ele>
<time>2010-08-29T13:17:17Z</time>
<desc>lat.=56.069153, lon.=26.462931, Alt.=129.588013m. Speed=1.692000m/h.</desc>
<speed>0.470000</speed>
</trkpt>
<trkpt lat="56.069160" lon="26.462929">
<ele>130.084106</ele>
<time>2010-08-29T13:17:18Z</time>
<desc>lat.=56.069160, lon.=26.462929, Alt.=130.084106m. Speed=1.980000m/h.</desc>
<speed>0.550000</speed>
</trkpt>
<trkpt lat="56.069160" lon="26.462933">
<ele>130.275513</ele>
<time>2010-08-29T13:17:19Z</time>
<desc>lat.=56.069160, lon.=26.462933, Alt.=130.275513m. Speed=1.116000m/h.</desc>
<speed>0.310000</speed>
</trkpt>
<trkpt lat="56.069153" lon="26.462936">
<ele>129.826294</ele>
<time>2010-08-29T13:17:20Z</time>
<desc>lat.=56.069153, lon.=26.462936, Alt.=129.826294m. Speed=1.440000m/h.</desc>
<speed>0.400000</speed>
</trkpt>
<trkpt lat="56.069141" lon="26.462921">
<ele>129.236450</ele>
<time>2010-08-29T13:17:21Z</time>
<desc>lat.=56.069141, lon.=26.462921, Alt.=129.236450m. Speed=0.324000m/h.</desc>
<speed>0.090000</speed>
</trkpt>
<trkpt lat="56.069141" lon="26.462919">
<ele>129.216919</ele>
<time>2010-08-29T13:17:22Z</time>
<desc>lat.=56.069141, lon.=26.462919, Alt.=129.216919m. Speed=0.720000m/h.</desc>
<speed>0.200000</speed>
</trkpt>
<trkpt lat="56.069138" lon="26.462917">
<ele>128.939575</ele>
<time>2010-08-29T13:17:23Z</time>
<desc>lat.=56.069138, lon.=26.462917, Alt.=128.939575m. Speed=0.756000m/h.</desc>
<speed>0.210000</speed>
</trkpt>
<trkpt lat="56.069138" lon="26.462915">
<ele>128.873169</ele>
<time>2010-08-29T13:17:24Z</time>
<desc>lat.=56.069138, lon.=26.462915, Alt.=128.873169m. Speed=0.720000m/h.</desc>
<speed>0.200000</speed>
</trkpt>
<trkpt lat="56.069138" lon="26.462914">
<ele>129.029419</ele>
<time>2010-08-29T13:17:25Z</time>
<desc>lat.=56.069138, lon.=26.462914, Alt.=129.029419m. Speed=0.648000m/h.</desc>
<speed>0.180000</speed>
</trkpt>
<trkpt lat="56.069134" lon="26.462912">
<ele>129.154419</ele>
<time>2010-08-29T13:17:26Z</time>
<desc>lat.=56.069134, lon.=26.462912, Alt.=129.154419m. Speed=0.792000m/h.</desc>
<speed>0.220000</speed>
</trkpt>
<trkpt lat="56.069134" lon="26.462910">
<ele>129.259888</ele>
<time>2010-08-29T13:17:27Z</time>
<desc>lat.=56.069134, lon.=26.462910, Alt.=129.259888m. Speed=0.612000m/h.</desc>
<speed>0.170000</speed>
</trkpt>
<trkpt lat="56.069130" lon="26.462910">
<ele>129.341919</ele>
<time>2010-08-29T13:17:28Z</time>
<desc>lat.=56.069130, lon.=26.462910, Alt.=129.341919m. Speed=1.188000m/h.</desc>
<speed>0.330000</speed>
</trkpt>
<trkpt lat="56.069126" lon="26.462904">
<ele>129.263794</ele>
<time>2010-08-29T13:17:29Z</time>
<desc>lat.=56.069126, lon.=26.462904, Alt.=129.263794m. Speed=1.224000m/h.</desc>
<speed>0.340000</speed>
</trkpt>
<trkpt lat="56.069122" lon="26.462898">
<ele>129.005981</ele>
<time>2010-08-29T13:17:30Z</time>
<desc>lat.=56.069122, lon.=26.462898, Alt.=129.005981m. Speed=0.720000m/h.</desc>
<speed>0.200000</speed>
</trkpt>
<trkpt lat="56.069122" lon="26.462896">
<ele>128.986450</ele>
<time>2010-08-29T13:17:31Z</time>
<desc>lat.=56.069122, lon.=26.462896, Alt.=128.986450m. Speed=0.540000m/h.</desc>
<speed>0.150000</speed>
</trkpt>
<trkpt lat="56.069122" lon="26.462893">
<ele>128.884888</ele>
<time>2010-08-29T13:17:32Z</time>
<desc>lat.=56.069122, lon.=26.462893, Alt.=128.884888m. Speed=0.612000m/h.</desc>
<speed>0.170000</speed>
</trkpt>
<trkpt lat="56.069122" lon="26.462879">
<ele>128.767700</ele>
<time>2010-08-29T13:17:33Z</time>
<desc>lat.=56.069122, lon.=26.462879, Alt.=128.767700m. Speed=1.296000m/h.</desc>
<speed>0.360000</speed>
</trkpt>
<trkpt lat="56.069126" lon="26.462873">
<ele>128.755981</ele>
<time>2010-08-29T13:17:34Z</time>
<desc>lat.=56.069126, lon.=26.462873, Alt.=128.755981m. Speed=1.080000m/h.</desc>
<speed>0.300000</speed>
</trkpt>
<trkpt lat="56.069126" lon="26.462872">
<ele>128.810669</ele>
<time>2010-08-29T13:17:35Z</time>
<desc>lat.=56.069126, lon.=26.462872, Alt.=128.810669m. Speed=0.756000m/h.</desc>
<speed>0.210000</speed>
</trkpt>
<trkpt lat="56.069126" lon="26.462872">
<ele>128.814575</ele>
<time>2010-08-29T13:17:36Z</time>
<desc>lat.=56.069126, lon.=26.462872, Alt.=128.814575m. Speed=0.288000m/h.</desc>
<speed>0.080000</speed>
</trkpt>
<trkpt lat="56.069126" lon="26.462868">
<ele>128.755981</ele>
<time>2010-08-29T13:17:37Z</time>
<desc>lat.=56.069126, lon.=26.462868, Alt.=128.755981m. Speed=0.324000m/h.</desc>
<speed>0.090000</speed>
</trkpt>
<trkpt lat="56.069126" lon="26.462860">
<ele>128.662231</ele>
<time>2010-08-29T13:17:38Z</time>
<desc>lat.=56.069126, lon.=26.462860, Alt.=128.662231m. Speed=0.612000m/h.</desc>
<speed>0.170000</speed>
</trkpt>
<trkpt lat="56.069130" lon="26.462858">
<ele>128.685669</ele>
<time>2010-08-29T13:17:39Z</time>
<desc>lat.=56.069130, lon.=26.462858, Alt.=128.685669m. Speed=0.540000m/h.</desc>
<speed>0.150000</speed>
</trkpt>
<trkpt lat="56.069130" lon="26.462854">
<ele>128.713013</ele>
<time>2010-08-29T13:17:40Z</time>
<desc>lat.=56.069130, lon.=26.462854, Alt.=128.713013m. Speed=0.756000m/h.</desc>
<speed>0.210000</speed>
</trkpt>
<trkpt lat="56.069126" lon="26.462852">
<ele>128.748169</ele>
<time>2010-08-29T13:17:41Z</time>
<desc>lat.=56.069126, lon.=26.462852, Alt.=128.748169m. Speed=0.936000m/h.</desc>
<speed>0.260000</speed>
</trkpt>
<trkpt lat="56.069130" lon="26.462852">
<ele>128.740356</ele>
<time>2010-08-29T13:17:42Z</time>
<desc>lat.=56.069130, lon.=26.462852, Alt.=128.740356m. Speed=0.612000m/h.</desc>
<speed>0.170000</speed>
</trkpt>
<trkpt lat="56.069130" lon="26.462854">
<ele>128.728638</ele>
<time>2010-08-29T13:17:43Z</time>
<desc>lat.=56.069130, lon.=26.462854, Alt.=128.728638m. Speed=1.080000m/h.</desc>
<speed>0.300000</speed>
</trkpt>
<trkpt lat="56.069145" lon="26.462839">
<ele>128.634888</ele>
<time>2010-08-29T13:17:44Z</time>
<desc>lat.=56.069145, lon.=26.462839, Alt.=128.634888m. Speed=0.684000m/h.</desc>
<speed>0.190000</speed>
</trkpt>
<trkpt lat="56.069153" lon="26.462824">
<ele>128.720825</ele>
<time>2010-08-29T13:17:45Z</time>
<desc>lat.=56.069153, lon.=26.462824, Alt.=128.720825m. Speed=0.648000m/h.</desc>
<speed>0.180000</speed>
</trkpt>
<trkpt lat="56.069149" lon="26.462820">
<ele>128.798950</ele>
<time>2010-08-29T13:17:46Z</time>
<desc>lat.=56.069149, lon.=26.462820, Alt.=128.798950m. Speed=0.180000m/h.</desc>
<speed>0.050000</speed>
</trkpt>
<trkpt lat="56.069145" lon="26.462809">
<ele>128.845825</ele>
<time>2010-08-29T13:17:47Z</time>
<desc>lat.=56.069145, lon.=26.462809, Alt.=128.845825m. Speed=2.484000m/h.</desc>
<speed>0.690000</speed>
</trkpt>
<trkpt lat="56.069141" lon="26.462799">
<ele>128.795044</ele>
<time>2010-08-29T13:17:48Z</time>
<desc>lat.=56.069141, lon.=26.462799, Alt.=128.795044m. Speed=1.656000m/h.</desc>
<speed>0.460000</speed>
</trkpt>
<trkpt lat="56.069134" lon="26.462761">
<ele>127.915100</ele>
<time>2010-08-29T13:17:49Z</time>
<desc>lat.=56.069134, lon.=26.462761, Alt.=127.915100m. Speed=1.224000m/h.</desc>
<speed>0.340000</speed>
</trkpt>
<trkpt lat="56.069138" lon="26.462746">
<ele>127.995178</ele>
<time>2010-08-29T13:17:50Z</time>
<desc>lat.=56.069138, lon.=26.462746, Alt.=127.995178m. Speed=0.576000m/h.</desc>
<speed>0.160000</speed>
</trkpt>
<trkpt lat="56.069141" lon="26.462742">
<ele>127.946350</ele>
<time>2010-08-29T13:17:51Z</time>
<desc>lat.=56.069141, lon.=26.462742, Alt.=127.946350m. Speed=0.432000m/h.</desc>
<speed>0.120000</speed>
</trkpt>
<trkpt lat="56.069138" lon="26.462734">
<ele>128.002075</ele>
<time>2010-08-29T13:17:52Z</time>
<desc>lat.=56.069138, lon.=26.462734, Alt.=128.002075m. Speed=1.944000m/h.</desc>
<speed>0.540000</speed>
</trkpt>
<trkpt lat="56.069134" lon="26.462719">
<ele>128.119263</ele>
<time>2010-08-29T13:17:53Z</time>
<desc>lat.=56.069134, lon.=26.462719, Alt.=128.119263m. Speed=3.672000m/h.</desc>
<speed>1.020000</speed>
</trkpt>
<trkpt lat="56.069122" lon="26.462715">
<ele>128.185669</ele>
<time>2010-08-29T13:17:54Z</time>
<desc>lat.=56.069122, lon.=26.462715, Alt.=128.185669m. Speed=2.124000m/h.</desc>
<speed>0.590000</speed>
</trkpt>
<trkpt lat="56.069118" lon="26.462706">
<ele>128.338013</ele>
<time>2010-08-29T13:17:55Z</time>
<desc>lat.=56.069118, lon.=26.462706, Alt.=128.338013m. Speed=2.340000m/h.</desc>
<speed>0.650000</speed>
</trkpt>
<trkpt lat="56.069111" lon="26.462688">
<ele>128.646606</ele>
<time>2010-08-29T13:17:56Z</time>
<desc>lat.=56.069111, lon.=26.462688, Alt.=128.646606m. Speed=2.196000m/h.</desc>
<speed>0.610000</speed>
</trkpt>
<trkpt lat="56.069103" lon="26.462683">
<ele>128.923950</ele>
<time>2010-08-29T13:17:57Z</time>
<desc>lat.=56.069103, lon.=26.462683, Alt.=128.923950m. Speed=2.448000m/h.</desc>
<speed>0.680000</speed>
</trkpt>
<trkpt lat="56.069099" lon="26.462677">
<ele>128.982544</ele>
<time>2010-08-29T13:17:58Z</time>
<desc>lat.=56.069099, lon.=26.462677, Alt.=128.982544m. Speed=1.548000m/h.</desc>
<speed>0.430000</speed>
</trkpt>
<trkpt lat="56.069096" lon="26.462673">
<ele>128.720825</ele>
<time>2010-08-29T13:17:59Z</time>
<desc>lat.=56.069096, lon.=26.462673, Alt.=128.720825m. Speed=0.072000m/h.</desc>
<speed>0.020000</speed>
</trkpt>
<trkpt lat="56.069096" lon="26.462662">
<ele>127.983459</ele>
<time>2010-08-29T13:18:00Z</time>
<desc>lat.=56.069096, lon.=26.462662, Alt.=127.983459m. Speed=0.432000m/h.</desc>
<speed>0.120000</speed>
</trkpt>
<trkpt lat="56.069096" lon="26.462658">
<ele>127.915100</ele>
<time>2010-08-29T13:18:01Z</time>
<desc>lat.=56.069096, lon.=26.462658, Alt.=127.915100m. Speed=0.216000m/h.</desc>
<speed>0.060000</speed>
</trkpt>
<trkpt lat="56.069099" lon="26.462650">
<ele>127.741272</ele>
<time>2010-08-29T13:18:02Z</time>
<desc>lat.=56.069099, lon.=26.462650, Alt.=127.741272m. Speed=0.036000m/h.</desc>
<speed>0.010000</speed>
</trkpt>
<trkpt lat="56.069099" lon="26.462650">
<ele>127.758850</ele>
<time>2010-08-29T13:18:03Z</time>
<desc>lat.=56.069099, lon.=26.462650, Alt.=127.758850m. Speed=0.036000m/h.</desc>
<speed>0.010000</speed>
</trkpt>
<trkpt lat="56.069099" lon="26.462650">
<ele>127.754944</ele>
<time>2010-08-29T13:18:04Z</time>
<desc>lat.=56.069099, lon.=26.462650, Alt.=127.754944m. Speed=0.000000m/h.</desc>
<speed>0.000000</speed>
</trkpt>
<trkpt lat="56.069099" lon="26.462650">
<ele>127.758850</ele>
<time>2010-08-29T13:18:05Z</time>
<desc>lat.=56.069099, lon.=26.462650, Alt.=127.758850m. Speed=0.000000m/h.</desc>
<speed>0.000000</speed>
</trkpt>
<trkpt lat="56.069099" lon="26.462650">
<ele>127.758850</ele>
<time>2010-08-29T13:18:06Z</time>
<desc>lat.=56.069099, lon.=26.462650, Alt.=127.758850m. Speed=0.072000m/h.</desc>
<speed>0.020000</speed>
</trkpt>
<trkpt lat="56.069099" lon="26.462650">
<ele>127.788147</ele>
<time>2010-08-29T13:18:07Z</time>
<desc>lat.=56.069099, lon.=26.462650, Alt.=127.788147m. Speed=0.648000m/h.</desc>
<speed>0.180000</speed>
</trkpt>
<trkpt lat="56.069099" lon="26.462654">
<ele>127.815491</ele>
<time>2010-08-29T13:18:08Z</time>
<desc>lat.=56.069099, lon.=26.462654, Alt.=127.815491m. Speed=0.684000m/h.</desc>
<speed>0.190000</speed>
</trkpt>
<trkpt lat="56.069099" lon="26.462656">
<ele>127.854553</ele>
<time>2010-08-29T13:18:09Z</time>
<desc>lat.=56.069099, lon.=26.462656, Alt.=127.854553m. Speed=0.468000m/h.</desc>
<speed>0.130000</speed>
</trkpt>
<trkpt lat="56.069096" lon="26.462658">
<ele>127.891663</ele>
<time>2010-08-29T13:18:10Z</time>
<desc>lat.=56.069096, lon.=26.462658, Alt.=127.891663m. Speed=0.396000m/h.</desc>
<speed>0.110000</speed>
</trkpt>
<trkpt lat="56.069096" lon="26.462660">
<ele>127.922913</ele>
<time>2010-08-29T13:18:11Z</time>
<desc>lat.=56.069096, lon.=26.462660, Alt.=127.922913m. Speed=0.576000m/h.</desc>
<speed>0.160000</speed>
</trkpt>
<trkpt lat="56.069096" lon="26.462662">
<ele>127.948303</ele>
<time>2010-08-29T13:18:12Z</time>
<desc>lat.=56.069096, lon.=26.462662, Alt.=127.948303m. Speed=0.504000m/h.</desc>
<speed>0.140000</speed>
</trkpt>
<trkpt lat="56.069096" lon="26.462662">
<ele>127.967834</ele>
<time>2010-08-29T13:18:13Z</time>
<desc>lat.=56.069096, lon.=26.462662, Alt.=127.967834m. Speed=0.612000m/h.</desc>
<speed>0.170000</speed>
</trkpt>
<trkpt lat="56.069092" lon="26.462664">
<ele>127.987366</ele>
<time>2010-08-29T13:18:14Z</time>
<desc>lat.=56.069092, lon.=26.462664, Alt.=127.987366m. Speed=1.008000m/h.</desc>
<speed>0.280000</speed>
</trkpt>
<trkpt lat="56.069092" lon="26.462664">
<ele>128.002075</ele>
<time>2010-08-29T13:18:15Z</time>
<desc>lat.=56.069092, lon.=26.462664, Alt.=128.002075m. Speed=0.828000m/h.</desc>
<speed>0.230000</speed>
</trkpt>
<trkpt lat="56.069088" lon="26.462666">
<ele>128.013794</ele>
<time>2010-08-29T13:18:16Z</time>
<desc>lat.=56.069088, lon.=26.462666, Alt.=128.013794m. Speed=1.080000m/h.</desc>
<speed>0.300000</speed>
</trkpt>
<trkpt lat="56.069080" lon="26.462669">
<ele>128.072388</ele>
<time>2010-08-29T13:18:17Z</time>
<desc>lat.=56.069080, lon.=26.462669, Alt.=128.072388m. Speed=1.404000m/h.</desc>
<speed>0.390000</speed>
</trkpt>
<trkpt lat="56.069080" lon="26.462671">
<ele>128.119263</ele>
<time>2010-08-29T13:18:18Z</time>
<desc>lat.=56.069080, lon.=26.462671, Alt.=128.119263m. Speed=1.260000m/h.</desc>
<speed>0.350000</speed>
</trkpt>
<trkpt lat="56.069077" lon="26.462667">
<ele>128.142700</ele>
<time>2010-08-29T13:18:19Z</time>
<desc>lat.=56.069077, lon.=26.462667, Alt.=128.142700m. Speed=1.188000m/h.</desc>
<speed>0.330000</speed>
</trkpt>
<trkpt lat="56.069069" lon="26.462666">
<ele>128.177856</ele>
<time>2010-08-29T13:18:20Z</time>
<desc>lat.=56.069069, lon.=26.462666, Alt.=128.177856m. Speed=1.440000m/h.</desc>
<speed>0.400000</speed>
</trkpt>
<trkpt lat="56.069057" lon="26.462669">
<ele>128.138794</ele>
<time>2010-08-29T13:18:21Z</time>
<desc>lat.=56.069057, lon.=26.462669, Alt.=128.138794m. Speed=1.620000m/h.</desc>
<speed>0.450000</speed>
</trkpt>
<trkpt lat="56.069050" lon="26.462664">
<ele>128.142700</ele>
<time>2010-08-29T13:18:22Z</time>
<desc>lat.=56.069050, lon.=26.462664, Alt.=128.142700m. Speed=1.584000m/h.</desc>
<speed>0.440000</speed>
</trkpt>
<trkpt lat="56.069042" lon="26.462667">
<ele>128.154419</ele>
<time>2010-08-29T13:18:23Z</time>
<desc>lat.=56.069042, lon.=26.462667, Alt.=128.154419m. Speed=1.728000m/h.</desc>
<speed>0.480000</speed>
</trkpt>
<trkpt lat="56.069035" lon="26.462671">
<ele>128.162231</ele>
<time>2010-08-29T13:18:24Z</time>
<desc>lat.=56.069035, lon.=26.462671, Alt.=128.162231m. Speed=1.800000m/h.</desc>
<speed>0.500000</speed>
</trkpt>
<trkpt lat="56.069027" lon="26.462667">
<ele>128.154419</ele>
<time>2010-08-29T13:18:25Z</time>
<desc>lat.=56.069027, lon.=26.462667, Alt.=128.154419m. Speed=1.908000m/h.</desc>
<speed>0.530000</speed>
</trkpt>
<trkpt lat="56.069016" lon="26.462669">
<ele>128.115356</ele>
<time>2010-08-29T13:18:26Z</time>
<desc>lat.=56.069016, lon.=26.462669, Alt.=128.115356m. Speed=1.908000m/h.</desc>
<speed>0.530000</speed>
</trkpt>
<trkpt lat="56.068993" lon="26.462681">
<ele>128.162231</ele>
<time>2010-08-29T13:18:27Z</time>
<desc>lat.=56.068993, lon.=26.462681, Alt.=128.162231m. Speed=2.484000m/h.</desc>
<speed>0.690000</speed>
</trkpt>
<trkpt lat="56.068985" lon="26.462677">
<ele>128.170044</ele>
<time>2010-08-29T13:18:28Z</time>
<desc>lat.=56.068985, lon.=26.462677, Alt.=128.170044m. Speed=2.448000m/h.</desc>
<speed>0.680000</speed>
</trkpt>
<trkpt lat="56.068977" lon="26.462671">
<ele>128.154419</ele>
<time>2010-08-29T13:18:29Z</time>
<desc>lat.=56.068977, lon.=26.462671, Alt.=128.154419m. Speed=2.196000m/h.</desc>
<speed>0.610000</speed>
</trkpt>
<trkpt lat="56.068970" lon="26.462667">
<ele>128.142700</ele>
<time>2010-08-29T13:18:30Z</time>
<desc>lat.=56.068970, lon.=26.462667, Alt.=128.142700m. Speed=2.052000m/h.</desc>
<speed>0.570000</speed>
</trkpt>
<trkpt lat="56.068966" lon="26.462666">
<ele>128.142700</ele>
<time>2010-08-29T13:18:31Z</time>
<desc>lat.=56.068966, lon.=26.462666, Alt.=128.142700m. Speed=1.836000m/h.</desc>
<speed>0.510000</speed>
</trkpt>
<trkpt lat="56.068966" lon="26.462660">
<ele>128.091919</ele>
<time>2010-08-29T13:18:32Z</time>
<desc>lat.=56.068966, lon.=26.462660, Alt.=128.091919m. Speed=1.692000m/h.</desc>
<speed>0.470000</speed>
</trkpt>
<trkpt lat="56.068962" lon="26.462652">
<ele>128.088013</ele>
<time>2010-08-29T13:18:33Z</time>
<desc>lat.=56.068962, lon.=26.462652, Alt.=128.088013m. Speed=1.728000m/h.</desc>
<speed>0.480000</speed>
</trkpt>
<trkpt lat="56.068954" lon="26.462645">
<ele>128.033325</ele>
<time>2010-08-29T13:18:34Z</time>
<desc>lat.=56.068954, lon.=26.462645, Alt.=128.033325m. Speed=2.052000m/h.</desc>
<speed>0.570000</speed>
</trkpt>
<trkpt lat="56.069000" lon="26.462639">
<ele>127.983459</ele>
<time>2010-08-29T13:18:35Z</time>
<desc>lat.=56.069000, lon.=26.462639, Alt.=127.983459m. Speed=0.828000m/h.</desc>
<speed>0.230000</speed>
</trkpt>
<trkpt lat="56.068993" lon="26.462650">
<ele>127.592834</ele>
<time>2010-08-29T13:18:36Z</time>
<desc>lat.=56.068993, lon.=26.462650, Alt.=127.592834m. Speed=0.720000m/h.</desc>
<speed>0.200000</speed>
</trkpt>
<trkpt lat="56.068985" lon="26.462637">
<ele>127.563538</ele>
<time>2010-08-29T13:18:37Z</time>
<desc>lat.=56.068985, lon.=26.462637, Alt.=127.563538m. Speed=0.504000m/h.</desc>
<speed>0.140000</speed>
</trkpt>
<trkpt lat="56.068974" lon="26.462637">
<ele>127.516663</ele>
<time>2010-08-29T13:18:38Z</time>
<desc>lat.=56.068974, lon.=26.462637, Alt.=127.516663m. Speed=0.828000m/h.</desc>
<speed>0.230000</speed>
</trkpt>
<trkpt lat="56.068974" lon="26.462637">
<ele>127.485413</ele>
<time>2010-08-29T13:18:39Z</time>
<desc>lat.=56.068974, lon.=26.462637, Alt.=127.485413m. Speed=1.116000m/h.</desc>
<speed>0.310000</speed>
</trkpt>
<trkpt lat="56.068954" lon="26.462629">
<ele>127.454163</ele>
<time>2010-08-29T13:18:40Z</time>
<desc>lat.=56.068954, lon.=26.462629, Alt.=127.454163m. Speed=1.404000m/h.</desc>
<speed>0.390000</speed>
</trkpt>
<trkpt lat="56.068951" lon="26.462622">
<ele>127.397522</ele>
<time>2010-08-29T13:18:41Z</time>
<desc>lat.=56.068951, lon.=26.462622, Alt.=127.397522m. Speed=1.368000m/h.</desc>
<speed>0.380000</speed>
</trkpt>
<trkpt lat="56.068947" lon="26.462587">
<ele>127.485413</ele>
<time>2010-08-29T13:18:42Z</time>
<desc>lat.=56.068947, lon.=26.462587, Alt.=127.485413m. Speed=1.980000m/h.</desc>
<speed>0.550000</speed>
</trkpt>
<trkpt lat="56.068932" lon="26.462578">
<ele>127.377991</ele>
<time>2010-08-29T13:18:43Z</time>
<desc>lat.=56.068932, lon.=26.462578, Alt.=127.377991m. Speed=2.052000m/h.</desc>
<speed>0.570000</speed>
</trkpt>
<trkpt lat="56.068913" lon="26.462561">
<ele>127.301819</ele>
<time>2010-08-29T13:18:44Z</time>
<desc>lat.=56.068913, lon.=26.462561, Alt.=127.301819m. Speed=2.160000m/h.</desc>
<speed>0.600000</speed>
</trkpt>
<trkpt lat="56.068905" lon="26.462551">
<ele>127.215881</ele>
<time>2010-08-29T13:18:45Z</time>
<desc>lat.=56.068905, lon.=26.462551, Alt.=127.215881m. Speed=2.196000m/h.</desc>
<speed>0.610000</speed>
</trkpt>
<trkpt lat="56.068863" lon="26.462574">
<ele>127.127991</ele>
<time>2010-08-29T13:18:46Z</time>
<desc>lat.=56.068863, lon.=26.462574, Alt.=127.127991m. Speed=1.584000m/h.</desc>
<speed>0.440000</speed>
</trkpt>
<trkpt lat="56.068855" lon="26.462584">
<ele>127.001038</ele>
<time>2010-08-29T13:18:47Z</time>
<desc>lat.=56.068855, lon.=26.462584, Alt.=127.001038m. Speed=1.332000m/h.</desc>
<speed>0.370000</speed>
</trkpt>
<trkpt lat="56.068787" lon="26.462593">
<ele>126.803772</ele>
<time>2010-08-29T13:18:48Z</time>
<desc>lat.=56.068787, lon.=26.462593, Alt.=126.803772m. Speed=3.276000m/h.</desc>
<speed>0.910000</speed>
</trkpt>
<trkpt lat="56.068764" lon="26.462593">
<ele>126.372131</ele>
<time>2010-08-29T13:18:49Z</time>
<desc>lat.=56.068764, lon.=26.462593, Alt.=126.372131m. Speed=2.880000m/h.</desc>
<speed>0.800000</speed>
</trkpt>
<trkpt lat="56.068752" lon="26.462582">
<ele>126.215881</ele>
<time>2010-08-29T13:18:50Z</time>
<desc>lat.=56.068752, lon.=26.462582, Alt.=126.215881m. Speed=2.088000m/h.</desc>
<speed>0.580000</speed>
</trkpt>
<trkpt lat="56.068741" lon="26.462576">
<ele>126.016663</ele>
<time>2010-08-29T13:18:51Z</time>
<desc>lat.=56.068741, lon.=26.462576, Alt.=126.016663m. Speed=2.340000m/h.</desc>
<speed>0.650000</speed>
</trkpt>
<trkpt lat="56.068729" lon="26.462570">
<ele>125.864319</ele>
<time>2010-08-29T13:18:52Z</time>
<desc>lat.=56.068729, lon.=26.462570, Alt.=125.864319m. Speed=2.520000m/h.</desc>
<speed>0.700000</speed>
</trkpt>
<trkpt lat="56.068718" lon="26.462568">
<ele>125.700256</ele>
<time>2010-08-29T13:18:53Z</time>
<desc>lat.=56.068718, lon.=26.462568, Alt.=125.700256m. Speed=2.196000m/h.</desc>
<speed>0.610000</speed>
</trkpt>
<trkpt lat="56.068703" lon="26.462559">
<ele>125.545959</ele>
<time>2010-08-29T13:18:54Z</time>
<desc>lat.=56.068703, lon.=26.462559, Alt.=125.545959m. Speed=1.152000m/h.</desc>
<speed>0.320000</speed>
</trkpt>
<trkpt lat="56.068687" lon="26.462543">
<ele>125.272522</ele>
<time>2010-08-29T13:18:55Z</time>
<desc>lat.=56.068687, lon.=26.462543, Alt.=125.272522m. Speed=1.296000m/h.</desc>
<speed>0.360000</speed>
</trkpt>
<trkpt lat="56.068676" lon="26.462532">
<ele>124.803772</ele>
<time>2010-08-29T13:18:56Z</time>
<desc>lat.=56.068676, lon.=26.462532, Alt.=124.803772m. Speed=2.304000m/h.</desc>
<speed>0.640000</speed>
</trkpt>
<trkpt lat="56.068680" lon="26.462536">
<ele>124.401428</ele>
<time>2010-08-29T13:18:57Z</time>
<desc>lat.=56.068680, lon.=26.462536, Alt.=124.401428m. Speed=1.404000m/h.</desc>
<speed>0.390000</speed>
</trkpt>
<trkpt lat="56.068680" lon="26.462542">
<ele>124.569397</ele>
<time>2010-08-29T13:18:58Z</time>
<desc>lat.=56.068680, lon.=26.462542, Alt.=124.569397m. Speed=1.656000m/h.</desc>
<speed>0.460000</speed>
</trkpt>
<trkpt lat="56.068607" lon="26.462587">
<ele>124.510803</ele>
<time>2010-08-29T13:18:59Z</time>
<desc>lat.=56.068607, lon.=26.462587, Alt.=124.510803m. Speed=5.220000m/h.</desc>
<speed>1.450000</speed>
</trkpt>
<trkpt lat="56.068581" lon="26.462595">
<ele>123.971741</ele>
<time>2010-08-29T13:19:00Z</time>
<desc>lat.=56.068581, lon.=26.462595, Alt.=123.971741m. Speed=3.276000m/h.</desc>
<speed>0.910000</speed>
</trkpt>
<trkpt lat="56.068573" lon="26.462582">
<ele>123.542053</ele>
<time>2010-08-29T13:19:01Z</time>
<desc>lat.=56.068573, lon.=26.462582, Alt.=123.542053m. Speed=4.212000m/h.</desc>
<speed>1.170000</speed>
</trkpt>
<trkpt lat="56.068569" lon="26.462568">
<ele>123.157288</ele>
<time>2010-08-29T13:19:02Z</time>
<desc>lat.=56.068569, lon.=26.462568, Alt.=123.157288m. Speed=2.664000m/h.</desc>
<speed>0.740000</speed>
</trkpt>
<trkpt lat="56.068558" lon="26.462559">
<ele>122.344788</ele>
<time>2010-08-29T13:19:03Z</time>
<desc>lat.=56.068558, lon.=26.462559, Alt.=122.344788m. Speed=3.600000m/h.</desc>
<speed>1.000000</speed>
</trkpt>
<trkpt lat="56.068558" lon="26.462551">
<ele>121.901428</ele>
<time>2010-08-29T13:19:04Z</time>
<desc>lat.=56.068558, lon.=26.462551, Alt.=121.901428m. Speed=2.160000m/h.</desc>
<speed>0.600000</speed>
</trkpt>
<trkpt lat="56.068550" lon="26.462538">
<ele>121.803772</ele>
<time>2010-08-29T13:19:05Z</time>
<desc>lat.=56.068550, lon.=26.462538, Alt.=121.803772m. Speed=3.168000m/h.</desc>
<speed>0.880000</speed>
</trkpt>
<trkpt lat="56.068542" lon="26.462521">
<ele>121.497131</ele>
<time>2010-08-29T13:19:06Z</time>
<desc>lat.=56.068542, lon.=26.462521, Alt.=121.497131m. Speed=2.736000m/h.</desc>
<speed>0.760000</speed>
</trkpt>
<trkpt lat="56.068504" lon="26.462498">
<ele>121.624084</ele>
<time>2010-08-29T13:19:07Z</time>
<desc>lat.=56.068504, lon.=26.462498, Alt.=121.624084m. Speed=3.060000m/h.</desc>
<speed>0.850000</speed>
</trkpt>
<trkpt lat="56.068474" lon="26.462473">
<ele>121.555725</ele>
<time>2010-08-29T13:19:08Z</time>
<desc>lat.=56.068474, lon.=26.462473, Alt.=121.555725m. Speed=5.796000m/h.</desc>
<speed>1.610000</speed>
</trkpt>
<trkpt lat="56.068459" lon="26.462461">
<ele>121.190491</ele>
<time>2010-08-29T13:19:09Z</time>
<desc>lat.=56.068459, lon.=26.462461, Alt.=121.190491m. Speed=4.824000m/h.</desc>
<speed>1.340000</speed>
</trkpt>
<trkpt lat="56.068447" lon="26.462463">
<ele>120.385803</ele>
<time>2010-08-29T13:19:10Z</time>
<desc>lat.=56.068447, lon.=26.462463, Alt.=120.385803m. Speed=5.040000m/h.</desc>
<speed>1.400000</speed>
</trkpt>
<trkpt lat="56.068417" lon="26.462452">
<ele>119.524475</ele>
<time>2010-08-29T13:19:11Z</time>
<desc>lat.=56.068417, lon.=26.462452, Alt.=119.524475m. Speed=6.336000m/h.</desc>
<speed>1.760000</speed>
</trkpt>
<trkpt lat="56.068398" lon="26.462463">
<ele>118.934631</ele>
<time>2010-08-29T13:19:12Z</time>
<desc>lat.=56.068398, lon.=26.462463, Alt.=118.934631m. Speed=6.264000m/h.</desc>
<speed>1.740000</speed>
</trkpt>
<trkpt lat="56.068378" lon="26.462477">
<ele>118.299866</ele>
<time>2010-08-29T13:19:13Z</time>
<desc>lat.=56.068378, lon.=26.462477, Alt.=118.299866m. Speed=6.048000m/h.</desc>
<speed>1.680000</speed>
</trkpt>
<trkpt lat="56.068367" lon="26.462488">
<ele>117.692444</ele>
<time>2010-08-29T13:19:14Z</time>
<desc>lat.=56.068367, lon.=26.462488, Alt.=117.692444m. Speed=3.708000m/h.</desc>
<speed>1.030000</speed>
</trkpt>
<trkpt lat="56.068356" lon="26.462505">
<ele>117.268616</ele>
<time>2010-08-29T13:19:15Z</time>
<desc>lat.=56.068356, lon.=26.462505, Alt.=117.268616m. Speed=5.580000m/h.</desc>
<speed>1.550000</speed>
</trkpt>
<trkpt lat="56.068348" lon="26.462523">
<ele>116.821350</ele>
<time>2010-08-29T13:19:16Z</time>
<desc>lat.=56.068348, lon.=26.462523, Alt.=116.821350m. Speed=2.988000m/h.</desc>
<speed>0.830000</speed>
</trkpt>
<trkpt lat="56.068340" lon="26.462540">
<ele>116.202209</ele>
<time>2010-08-29T13:19:17Z</time>
<desc>lat.=56.068340, lon.=26.462540, Alt.=116.202209m. Speed=5.148000m/h.</desc>
<speed>1.430000</speed>
</trkpt>
<trkpt lat="56.068321" lon="26.462563">
<ele>115.704163</ele>
<time>2010-08-29T13:19:18Z</time>
<desc>lat.=56.068321, lon.=26.462563, Alt.=115.704163m. Speed=6.048000m/h.</desc>
<speed>1.680000</speed>
</trkpt>
<trkpt lat="56.068321" lon="26.462582">
<ele>115.071350</ele>
<time>2010-08-29T13:19:19Z</time>
<desc>lat.=56.068321, lon.=26.462582, Alt.=115.071350m. Speed=5.508000m/h.</desc>
<speed>1.530000</speed>
</trkpt>
<trkpt lat="56.068317" lon="26.462601">
<ele>114.336975</ele>
<time>2010-08-29T13:19:20Z</time>
<desc>lat.=56.068317, lon.=26.462601, Alt.=114.336975m. Speed=5.652000m/h.</desc>
<speed>1.570000</speed>
</trkpt>
<trkpt lat="56.068317" lon="26.462616">
<ele>113.598694</ele>
<time>2010-08-29T13:19:21Z</time>
<desc>lat.=56.068317, lon.=26.462616, Alt.=113.598694m. Speed=3.564000m/h.</desc>
<speed>0.990000</speed>
</trkpt>
<trkpt lat="56.068283" lon="26.462620">
<ele>113.055725</ele>
<time>2010-08-29T13:19:22Z</time>
<desc>lat.=56.068283, lon.=26.462620, Alt.=113.055725m. Speed=3.456000m/h.</desc>
<speed>0.960000</speed>
</trkpt>
<trkpt lat="56.068268" lon="26.462645">
<ele>112.817444</ele>
<time>2010-08-29T13:19:23Z</time>
<desc>lat.=56.068268, lon.=26.462645, Alt.=112.817444m. Speed=7.236000m/h.</desc>
<speed>2.010000</speed>
</trkpt>
<trkpt lat="56.068218" lon="26.462660">
<ele>112.360413</ele>
<time>2010-08-29T13:19:24Z</time>
<desc>lat.=56.068218, lon.=26.462660, Alt.=112.360413m. Speed=5.004000m/h.</desc>
<speed>1.390000</speed>
</trkpt>
<trkpt lat="56.068176" lon="26.462664">
<ele>111.831116</ele>
<time>2010-08-29T13:19:25Z</time>
<desc>lat.=56.068176, lon.=26.462664, Alt.=111.831116m. Speed=3.960000m/h.</desc>
<speed>1.100000</speed>
</trkpt>
<trkpt lat="56.068169" lon="26.462673">
<ele>111.178772</ele>
<time>2010-08-29T13:19:26Z</time>
<desc>lat.=56.068169, lon.=26.462673, Alt.=111.178772m. Speed=3.852000m/h.</desc>
<speed>1.070000</speed>
</trkpt>
<trkpt lat="56.068161" lon="26.462681">
<ele>110.501038</ele>
<time>2010-08-29T13:19:27Z</time>
<desc>lat.=56.068161, lon.=26.462681, Alt.=110.501038m. Speed=3.888000m/h.</desc>
<speed>1.080000</speed>
</trkpt>
<trkpt lat="56.068150" lon="26.462685">
<ele>109.790100</ele>
<time>2010-08-29T13:19:28Z</time>
<desc>lat.=56.068150, lon.=26.462685, Alt.=109.790100m. Speed=3.600000m/h.</desc>
<speed>1.000000</speed>
</trkpt>
<trkpt lat="56.068142" lon="26.462690">
<ele>108.745178</ele>
<time>2010-08-29T13:19:29Z</time>
<desc>lat.=56.068142, lon.=26.462690, Alt.=108.745178m. Speed=2.808000m/h.</desc>
<speed>0.780000</speed>
</trkpt>
<trkpt lat="56.068130" lon="26.462700">
<ele>108.014709</ele>
<time>2010-08-29T13:19:30Z</time>
<desc>lat.=56.068130, lon.=26.462700, Alt.=108.014709m. Speed=2.376000m/h.</desc>
<speed>0.660000</speed>
</trkpt>
<trkpt lat="56.068127" lon="26.462711">
<ele>107.942444</ele>
<time>2010-08-29T13:19:31Z</time>
<desc>lat.=56.068127, lon.=26.462711, Alt.=107.942444m. Speed=1.512000m/h.</desc>
<speed>0.420000</speed>
</trkpt>
<trkpt lat="56.068119" lon="26.462725">
<ele>107.321350</ele>
<time>2010-08-29T13:19:32Z</time>
<desc>lat.=56.068119, lon.=26.462725, Alt.=107.321350m. Speed=2.448000m/h.</desc>
<speed>0.680000</speed>
</trkpt>
<trkpt lat="56.068115" lon="26.462748">
<ele>107.836975</ele>
<time>2010-08-29T13:19:33Z</time>
<desc>lat.=56.068115, lon.=26.462748, Alt.=107.836975m. Speed=2.484000m/h.</desc>
<speed>0.690000</speed>
</trkpt>
<trkpt lat="56.068104" lon="26.462824">
<ele>107.719788</ele>
<time>2010-08-29T13:19:34Z</time>
<desc>lat.=56.068104, lon.=26.462824, Alt.=107.719788m. Speed=6.660000m/h.</desc>
<speed>1.850000</speed>
</trkpt>
<trkpt lat="56.068104" lon="26.462858">
<ele>107.454163</ele>
<time>2010-08-29T13:19:35Z</time>
<desc>lat.=56.068104, lon.=26.462858, Alt.=107.454163m. Speed=5.724000m/h.</desc>
<speed>1.590000</speed>
</trkpt>
<trkpt lat="56.068089" lon="26.462885">
<ele>107.100647</ele>
<time>2010-08-29T13:19:36Z</time>
<desc>lat.=56.068089, lon.=26.462885, Alt.=107.100647m. Speed=4.428000m/h.</desc>
<speed>1.230000</speed>
</trkpt>
<trkpt lat="56.068085" lon="26.462906">
<ele>106.649475</ele>
<time>2010-08-29T13:19:37Z</time>
<desc>lat.=56.068085, lon.=26.462906, Alt.=106.649475m. Speed=3.204000m/h.</desc>
<speed>0.890000</speed>
</trkpt>
<trkpt lat="56.068077" lon="26.462931">
<ele>106.139709</ele>
<time>2010-08-29T13:19:38Z</time>
<desc>lat.=56.068077, lon.=26.462931, Alt.=106.139709m. Speed=4.644000m/h.</desc>
<speed>1.290000</speed>
</trkpt>
<trkpt lat="56.068062" lon="26.462959">
<ele>105.499084</ele>
<time>2010-08-29T13:19:39Z</time>
<desc>lat.=56.068062, lon.=26.462959, Alt.=105.499084m. Speed=3.384000m/h.</desc>
<speed>0.940000</speed>
</trkpt>
<trkpt lat="56.068054" lon="26.462982">
<ele>105.094788</ele>
<time>2010-08-29T13:19:40Z</time>
<desc>lat.=56.068054, lon.=26.462982, Alt.=105.094788m. Speed=3.168000m/h.</desc>
<speed>0.880000</speed>
</trkpt>
<trkpt lat="56.068031" lon="26.463003">
<ele>104.801819</ele>
<time>2010-08-29T13:19:41Z</time>
<desc>lat.=56.068031, lon.=26.463003, Alt.=104.801819m. Speed=4.284000m/h.</desc>
<speed>1.190000</speed>
</trkpt>
<trkpt lat="56.068012" lon="26.463024">
<ele>104.745178</ele>
<time>2010-08-29T13:19:42Z</time>
<desc>lat.=56.068012, lon.=26.463024, Alt.=104.745178m. Speed=2.556000m/h.</desc>
<speed>0.710000</speed>
</trkpt>
<trkpt lat="56.067997" lon="26.463043">
<ele>104.487366</ele>
<time>2010-08-29T13:19:43Z</time>
<desc>lat.=56.067997, lon.=26.463043, Alt.=104.487366m. Speed=3.168000m/h.</desc>
<speed>0.880000</speed>
</trkpt>
<trkpt lat="56.067982" lon="26.463076">
<ele>105.153381</ele>
<time>2010-08-29T13:19:44Z</time>
<desc>lat.=56.067982, lon.=26.463076, Alt.=105.153381m. Speed=4.896000m/h.</desc>
<speed>1.360000</speed>
</trkpt>
<trkpt lat="56.067978" lon="26.463097">
<ele>104.792053</ele>
<time>2010-08-29T13:19:45Z</time>
<desc>lat.=56.067978, lon.=26.463097, Alt.=104.792053m. Speed=5.220000m/h.</desc>
<speed>1.450000</speed>
</trkpt>
<trkpt lat="56.067963" lon="26.463135">
<ele>105.266663</ele>
<time>2010-08-29T13:19:46Z</time>
<desc>lat.=56.067963, lon.=26.463135, Alt.=105.266663m. Speed=5.364000m/h.</desc>
<speed>1.490000</speed>
</trkpt>
<trkpt lat="56.067951" lon="26.463158">
<ele>105.085022</ele>
<time>2010-08-29T13:19:47Z</time>
<desc>lat.=56.067951, lon.=26.463158, Alt.=105.085022m. Speed=1.764000m/h.</desc>
<speed>0.490000</speed>
</trkpt>
<trkpt lat="56.067883" lon="26.463219">
<ele>104.977600</ele>
<time>2010-08-29T13:19:48Z</time>
<desc>lat.=56.067883, lon.=26.463219, Alt.=104.977600m. Speed=4.068000m/h.</desc>
<speed>1.130000</speed>
</trkpt>
<trkpt lat="56.067856" lon="26.463240">
<ele>105.846741</ele>
<time>2010-08-29T13:19:49Z</time>
<desc>lat.=56.067856, lon.=26.463240, Alt.=105.846741m. Speed=6.696000m/h.</desc>
<speed>1.860000</speed>
</trkpt>
<trkpt lat="56.067829" lon="26.463263">
<ele>106.335022</ele>
<time>2010-08-29T13:19:50Z</time>
<desc>lat.=56.067829, lon.=26.463263, Alt.=106.335022m. Speed=11.700000m/h.</desc>
<speed>3.250000</speed>
</trkpt>
<trkpt lat="56.067795" lon="26.463289">
<ele>106.907288</ele>
<time>2010-08-29T13:19:51Z</time>
<desc>lat.=56.067795, lon.=26.463289, Alt.=106.907288m. Speed=12.348000m/h.</desc>
<speed>3.430000</speed>
</trkpt>
<trkpt lat="56.067772" lon="26.463310">
<ele>107.194397</ele>
<time>2010-08-29T13:19:52Z</time>
<desc>lat.=56.067772, lon.=26.463310, Alt.=107.194397m. Speed=9.828000m/h.</desc>
<speed>2.730000</speed>
</trkpt>
<trkpt lat="56.067764" lon="26.463348">
<ele>107.887756</ele>
<time>2010-08-29T13:19:53Z</time>
<desc>lat.=56.067764, lon.=26.463348, Alt.=107.887756m. Speed=7.200000m/h.</desc>
<speed>2.000000</speed>
</trkpt>
<trkpt lat="56.067760" lon="26.463367">
<ele>107.909241</ele>
<time>2010-08-29T13:19:54Z</time>
<desc>lat.=56.067760, lon.=26.463367, Alt.=107.909241m. Speed=6.840000m/h.</desc>
<speed>1.900000</speed>
</trkpt>
<trkpt lat="56.067757" lon="26.463373">
<ele>107.741272</ele>
<time>2010-08-29T13:19:55Z</time>
<desc>lat.=56.067757, lon.=26.463373, Alt.=107.741272m. Speed=3.096000m/h.</desc>
<speed>0.860000</speed>
</trkpt>
<trkpt lat="56.067738" lon="26.463383">
<ele>106.856506</ele>
<time>2010-08-29T13:19:56Z</time>
<desc>lat.=56.067738, lon.=26.463383, Alt.=106.856506m. Speed=6.012000m/h.</desc>
<speed>1.670000</speed>
</trkpt>
<trkpt lat="56.067730" lon="26.463381">
<ele>106.667053</ele>
<time>2010-08-29T13:19:57Z</time>
<desc>lat.=56.067730, lon.=26.463381, Alt.=106.667053m. Speed=5.580000m/h.</desc>
<speed>1.550000</speed>
</trkpt>
<trkpt lat="56.067715" lon="26.463388">
<ele>106.708069</ele>
<time>2010-08-29T13:19:58Z</time>
<desc>lat.=56.067715, lon.=26.463388, Alt.=106.708069m. Speed=5.688000m/h.</desc>
<speed>1.580000</speed>
</trkpt>
<trkpt lat="56.067696" lon="26.463408">
<ele>106.807678</ele>
<time>2010-08-29T13:19:59Z</time>
<desc>lat.=56.067696, lon.=26.463408, Alt.=106.807678m. Speed=4.644000m/h.</desc>
<speed>1.290000</speed>
</trkpt>
<trkpt lat="56.067692" lon="26.463408">
<ele>106.915100</ele>
<time>2010-08-29T13:20:00Z</time>
<desc>lat.=56.067692, lon.=26.463408, Alt.=106.915100m. Speed=1.044000m/h.</desc>
<speed>0.290000</speed>
</trkpt>
<trkpt lat="56.067688" lon="26.463413">
<ele>107.313538</ele>
<time>2010-08-29T13:20:01Z</time>
<desc>lat.=56.067688, lon.=26.463413, Alt.=107.313538m. Speed=0.900000m/h.</desc>
<speed>0.250000</speed>
</trkpt>
<trkpt lat="56.067688" lon="26.463404">
<ele>108.045959</ele>
<time>2010-08-29T13:20:02Z</time>
<desc>lat.=56.067688, lon.=26.463404, Alt.=108.045959m. Speed=1.296000m/h.</desc>
<speed>0.360000</speed>
</trkpt>
<trkpt lat="56.067684" lon="26.463402">
<ele>108.340881</ele>
<time>2010-08-29T13:20:03Z</time>
<desc>lat.=56.067684, lon.=26.463402, Alt.=108.340881m. Speed=1.260000m/h.</desc>
<speed>0.350000</speed>
</trkpt>
<trkpt lat="56.067680" lon="26.463413">
<ele>108.401428</ele>
<time>2010-08-29T13:20:04Z</time>
<desc>lat.=56.067680, lon.=26.463413, Alt.=108.401428m. Speed=0.648000m/h.</desc>
<speed>0.180000</speed>
</trkpt>
<trkpt lat="56.067684" lon="26.463417">
<ele>108.426819</ele>
<time>2010-08-29T13:20:05Z</time>
<desc>lat.=56.067684, lon.=26.463417, Alt.=108.426819m. Speed=0.216000m/h.</desc>
<speed>0.060000</speed>
</trkpt>
<trkpt lat="56.067677" lon="26.463408">
<ele>108.391663</ele>
<time>2010-08-29T13:20:06Z</time>
<desc>lat.=56.067677, lon.=26.463408, Alt.=108.391663m. Speed=1.116000m/h.</desc>
<speed>0.310000</speed>
</trkpt>
<trkpt lat="56.067665" lon="26.463408">
<ele>108.301819</ele>
<time>2010-08-29T13:20:07Z</time>
<desc>lat.=56.067665, lon.=26.463408, Alt.=108.301819m. Speed=1.548000m/h.</desc>
<speed>0.430000</speed>
</trkpt>
<trkpt lat="56.067661" lon="26.463404">
<ele>108.659241</ele>
<time>2010-08-29T13:20:08Z</time>
<desc>lat.=56.067661, lon.=26.463404, Alt.=108.659241m. Speed=1.296000m/h.</desc>
<speed>0.360000</speed>
</trkpt>
<trkpt lat="56.067654" lon="26.463408">
<ele>108.838928</ele>
<time>2010-08-29T13:20:09Z</time>
<desc>lat.=56.067654, lon.=26.463408, Alt.=108.838928m. Speed=1.548000m/h.</desc>
<speed>0.430000</speed>
</trkpt>
<trkpt lat="56.067654" lon="26.463419">
<ele>108.708069</ele>
<time>2010-08-29T13:20:10Z</time>
<desc>lat.=56.067654, lon.=26.463419, Alt.=108.708069m. Speed=2.268000m/h.</desc>
<speed>0.630000</speed>
</trkpt>
<trkpt lat="56.067646" lon="26.463434">
<ele>109.549866</ele>
<time>2010-08-29T13:20:11Z</time>
<desc>lat.=56.067646, lon.=26.463434, Alt.=109.549866m. Speed=3.780000m/h.</desc>
<speed>1.050000</speed>
</trkpt>
<trkpt lat="56.067650" lon="26.463444">
<ele>109.848694</ele>
<time>2010-08-29T13:20:12Z</time>
<desc>lat.=56.067650, lon.=26.463444, Alt.=109.848694m. Speed=0.504000m/h.</desc>
<speed>0.140000</speed>
</trkpt>
<trkpt lat="56.067635" lon="26.463453">
<ele>109.616272</ele>
<time>2010-08-29T13:20:13Z</time>
<desc>lat.=56.067635, lon.=26.463453, Alt.=109.616272m. Speed=2.340000m/h.</desc>
<speed>0.650000</speed>
</trkpt>
<trkpt lat="56.067619" lon="26.463472">
<ele>109.708069</ele>
<time>2010-08-29T13:20:14Z</time>
<desc>lat.=56.067619, lon.=26.463472, Alt.=109.708069m. Speed=3.996000m/h.</desc>
<speed>1.110000</speed>
</trkpt>
<trkpt lat="56.067608" lon="26.463493">
<ele>109.590881</ele>
<time>2010-08-29T13:20:15Z</time>
<desc>lat.=56.067608, lon.=26.463493, Alt.=109.590881m. Speed=4.032000m/h.</desc>
<speed>1.120000</speed>
</trkpt>
<trkpt lat="56.067604" lon="26.463503">
<ele>109.788147</ele>
<time>2010-08-29T13:20:16Z</time>
<desc>lat.=56.067604, lon.=26.463503, Alt.=109.788147m. Speed=3.528000m/h.</desc>
<speed>0.980000</speed>
</trkpt>
<trkpt lat="56.067616" lon="26.463512">
<ele>109.473694</ele>
<time>2010-08-29T13:20:17Z</time>
<desc>lat.=56.067616, lon.=26.463512, Alt.=109.473694m. Speed=3.564000m/h.</desc>
<speed>0.990000</speed>
</trkpt>
<trkpt lat="56.067616" lon="26.463528">
<ele>108.981506</ele>
<time>2010-08-29T13:20:18Z</time>
<desc>lat.=56.067616, lon.=26.463528, Alt.=108.981506m. Speed=3.744000m/h.</desc>
<speed>1.040000</speed>
</trkpt>
<trkpt lat="56.067627" lon="26.463539">
<ele>108.694397</ele>
<time>2010-08-29T13:20:19Z</time>
<desc>lat.=56.067627, lon.=26.463539, Alt.=108.694397m. Speed=6.588000m/h.</desc>
<speed>1.830000</speed>
</trkpt>
<trkpt lat="56.067619" lon="26.463560">
<ele>108.217834</ele>
<time>2010-08-29T13:20:20Z</time>
<desc>lat.=56.067619, lon.=26.463560, Alt.=108.217834m. Speed=5.076000m/h.</desc>
<speed>1.410000</speed>
</trkpt>
<trkpt lat="56.067619" lon="26.463579">
<ele>107.926819</ele>
<time>2010-08-29T13:20:21Z</time>
<desc>lat.=56.067619, lon.=26.463579, Alt.=107.926819m. Speed=5.400000m/h.</desc>
<speed>1.500000</speed>
</trkpt>
<trkpt lat="56.067616" lon="26.463598">
<ele>107.737366</ele>
<time>2010-08-29T13:20:22Z</time>
<desc>lat.=56.067616, lon.=26.463598, Alt.=107.737366m. Speed=4.896000m/h.</desc>
<speed>1.360000</speed>
</trkpt>
<trkpt lat="56.067604" lon="26.463623">
<ele>107.467834</ele>
<time>2010-08-29T13:20:23Z</time>
<desc>lat.=56.067604, lon.=26.463623, Alt.=107.467834m. Speed=7.164000m/h.</desc>
<speed>1.990000</speed>
</trkpt>
<trkpt lat="56.067596" lon="26.463642">
<ele>106.993225</ele>
<time>2010-08-29T13:20:24Z</time>
<desc>lat.=56.067596, lon.=26.463642, Alt.=106.993225m. Speed=4.464000m/h.</desc>
<speed>1.240000</speed>
</trkpt>
<trkpt lat="56.067585" lon="26.463663">
<ele>106.047913</ele>
<time>2010-08-29T13:20:25Z</time>
<desc>lat.=56.067585, lon.=26.463663, Alt.=106.047913m. Speed=2.052000m/h.</desc>
<speed>0.570000</speed>
</trkpt>
<trkpt lat="56.067581" lon="26.463671">
<ele>106.075256</ele>
<time>2010-08-29T13:20:26Z</time>
<desc>lat.=56.067581, lon.=26.463671, Alt.=106.075256m. Speed=3.060000m/h.</desc>
<speed>0.850000</speed>
</trkpt>
<trkpt lat="56.067574" lon="26.463680">
<ele>105.960022</ele>
<time>2010-08-29T13:20:27Z</time>
<desc>lat.=56.067574, lon.=26.463680, Alt.=105.960022m. Speed=3.312000m/h.</desc>
<speed>0.920000</speed>
</trkpt>
<trkpt lat="56.067562" lon="26.463699">
<ele>105.528381</ele>
<time>2010-08-29T13:20:28Z</time>
<desc>lat.=56.067562, lon.=26.463699, Alt.=105.528381m. Speed=4.752000m/h.</desc>
<speed>1.320000</speed>
</trkpt>
<trkpt lat="56.067554" lon="26.463703">
<ele>105.252991</ele>
<time>2010-08-29T13:20:29Z</time>
<desc>lat.=56.067554, lon.=26.463703, Alt.=105.252991m. Speed=3.420000m/h.</desc>
<speed>0.950000</speed>
</trkpt>
<trkpt lat="56.067547" lon="26.463705">
<ele>104.860413</ele>
<time>2010-08-29T13:20:30Z</time>
<desc>lat.=56.067547, lon.=26.463705, Alt.=104.860413m. Speed=2.592000m/h.</desc>
<speed>0.720000</speed>
</trkpt>
<trkpt lat="56.067547" lon="26.463705">
<ele>104.407288</ele>
<time>2010-08-29T13:20:31Z</time>
<desc>lat.=56.067547, lon.=26.463705, Alt.=104.407288m. Speed=0.252000m/h.</desc>
<speed>0.070000</speed>
</trkpt>
<trkpt lat="56.067551" lon="26.463703">
<ele>104.540100</ele>
<time>2010-08-29T13:20:32Z</time>
<desc>lat.=56.067551, lon.=26.463703, Alt.=104.540100m. Speed=0.144000m/h.</desc>
<speed>0.040000</speed>
</trkpt>
<trkpt lat="56.067547" lon="26.463707">
<ele>104.657288</ele>
<time>2010-08-29T13:20:33Z</time>
<desc>lat.=56.067547, lon.=26.463707, Alt.=104.657288m. Speed=0.828000m/h.</desc>
<speed>0.230000</speed>
</trkpt>
<trkpt lat="56.067543" lon="26.463701">
<ele>104.260803</ele>
<time>2010-08-29T13:20:34Z</time>
<desc>lat.=56.067543, lon.=26.463701, Alt.=104.260803m. Speed=0.756000m/h.</desc>
<speed>0.210000</speed>
</trkpt>
<trkpt lat="56.067547" lon="26.463701">
<ele>104.028381</ele>
<time>2010-08-29T13:20:35Z</time>
<desc>lat.=56.067547, lon.=26.463701, Alt.=104.028381m. Speed=1.044000m/h.</desc>
<speed>0.290000</speed>
</trkpt>
<trkpt lat="56.067547" lon="26.463705">
<ele>103.790100</ele>
<time>2010-08-29T13:20:36Z</time>
<desc>lat.=56.067547, lon.=26.463705, Alt.=103.790100m. Speed=1.008000m/h.</desc>
<speed>0.280000</speed>
</trkpt>
<trkpt lat="56.067551" lon="26.463705">
<ele>103.557678</ele>
<time>2010-08-29T13:20:37Z</time>
<desc>lat.=56.067551, lon.=26.463705, Alt.=103.557678m. Speed=0.828000m/h.</desc>
<speed>0.230000</speed>
</trkpt>
<trkpt lat="56.067554" lon="26.463705">
<ele>103.342834</ele>
<time>2010-08-29T13:20:38Z</time>
<desc>lat.=56.067554, lon.=26.463705, Alt.=103.342834m. Speed=0.972000m/h.</desc>
<speed>0.270000</speed>
</trkpt>
<trkpt lat="56.067554" lon="26.463705">
<ele>103.114319</ele>
<time>2010-08-29T13:20:39Z</time>
<desc>lat.=56.067554, lon.=26.463705, Alt.=103.114319m. Speed=1.188000m/h.</desc>
<speed>0.330000</speed>
</trkpt>
<trkpt lat="56.067551" lon="26.463711">
<ele>102.506897</ele>
<time>2010-08-29T13:20:40Z</time>
<desc>lat.=56.067551, lon.=26.463711, Alt.=102.506897m. Speed=1.044000m/h.</desc>
<speed>0.290000</speed>
</trkpt>
<trkpt lat="56.067551" lon="26.463713">
<ele>101.600647</ele>
<time>2010-08-29T13:20:41Z</time>
<desc>lat.=56.067551, lon.=26.463713, Alt.=101.600647m. Speed=0.972000m/h.</desc>
<speed>0.270000</speed>
</trkpt>
<trkpt lat="56.067547" lon="26.463713">
<ele>100.813538</ele>
<time>2010-08-29T13:20:42Z</time>
<desc>lat.=56.067547, lon.=26.463713, Alt.=100.813538m. Speed=1.080000m/h.</desc>
<speed>0.300000</speed>
</trkpt>
<trkpt lat="56.067539" lon="26.463715">
<ele>99.381897</ele>
<time>2010-08-29T13:20:43Z</time>
<desc>lat.=56.067539, lon.=26.463715, Alt.=99.381897m. Speed=1.332000m/h.</desc>
<speed>0.370000</speed>
</trkpt>
<trkpt lat="56.067535" lon="26.463717">
<ele>98.237366</ele>
<time>2010-08-29T13:20:44Z</time>
<desc>lat.=56.067535, lon.=26.463717, Alt.=98.237366m. Speed=1.224000m/h.</desc>
<speed>0.340000</speed>
</trkpt>
<trkpt lat="56.067532" lon="26.463718">
<ele>97.151428</ele>
<time>2010-08-29T13:20:45Z</time>
<desc>lat.=56.067532, lon.=26.463718, Alt.=97.151428m. Speed=1.332000m/h.</desc>
<speed>0.370000</speed>
</trkpt>
<trkpt lat="56.067528" lon="26.463720">
<ele>96.137756</ele>
<time>2010-08-29T13:20:46Z</time>
<desc>lat.=56.067528, lon.=26.463720, Alt.=96.137756m. Speed=1.296000m/h.</desc>
<speed>0.360000</speed>
</trkpt>
<trkpt lat="56.067524" lon="26.463722">
<ele>95.256897</ele>
<time>2010-08-29T13:20:47Z</time>
<desc>lat.=56.067524, lon.=26.463722, Alt.=95.256897m. Speed=1.224000m/h.</desc>
<speed>0.340000</speed>
</trkpt>
<trkpt lat="56.067520" lon="26.463724">
<ele>94.473694</ele>
<time>2010-08-29T13:20:48Z</time>
<desc>lat.=56.067520, lon.=26.463724, Alt.=94.473694m. Speed=1.116000m/h.</desc>
<speed>0.310000</speed>
</trkpt>
<trkpt lat="56.067516" lon="26.463722">
<ele>93.551819</ele>
<time>2010-08-29T13:20:49Z</time>
<desc>lat.=56.067516, lon.=26.463722, Alt.=93.551819m. Speed=1.152000m/h.</desc>
<speed>0.320000</speed>
</trkpt>
<trkpt lat="56.067509" lon="26.463720">
<ele>92.495178</ele>
<time>2010-08-29T13:20:50Z</time>
<desc>lat.=56.067509, lon.=26.463720, Alt.=92.495178m. Speed=1.080000m/h.</desc>
<speed>0.300000</speed>
</trkpt>
<trkpt lat="56.067501" lon="26.463718">
<ele>91.274475</ele>
<time>2010-08-29T13:20:51Z</time>
<desc>lat.=56.067501, lon.=26.463718, Alt.=91.274475m. Speed=1.008000m/h.</desc>
<speed>0.280000</speed>
</trkpt>
<trkpt lat="56.067493" lon="26.463715">
<ele>90.682678</ele>
<time>2010-08-29T13:20:52Z</time>
<desc>lat.=56.067493, lon.=26.463715, Alt.=90.682678m. Speed=0.864000m/h.</desc>
<speed>0.240000</speed>
</trkpt>
<trkpt lat="56.067490" lon="26.463713">
<ele>89.961975</ele>
<time>2010-08-29T13:20:53Z</time>
<desc>lat.=56.067490, lon.=26.463713, Alt.=89.961975m. Speed=0.936000m/h.</desc>
<speed>0.260000</speed>
</trkpt>
<trkpt lat="56.067482" lon="26.463711">
<ele>89.581116</ele>
<time>2010-08-29T13:20:54Z</time>
<desc>lat.=56.067482, lon.=26.463711, Alt.=89.581116m. Speed=0.900000m/h.</desc>
<speed>0.250000</speed>
</trkpt>
<trkpt lat="56.067486" lon="26.463711">
<ele>89.376038</ele>
<time>2010-08-29T13:20:55Z</time>
<desc>lat.=56.067486, lon.=26.463711, Alt.=89.376038m. Speed=0.792000m/h.</desc>
<speed>0.220000</speed>
</trkpt>
<trkpt lat="56.067490" lon="26.463711">
<ele>89.190491</ele>
<time>2010-08-29T13:20:56Z</time>
<desc>lat.=56.067490, lon.=26.463711, Alt.=89.190491m. Speed=0.684000m/h.</desc>
<speed>0.190000</speed>
</trkpt>
<trkpt lat="56.067490" lon="26.463711">
<ele>89.022522</ele>
<time>2010-08-29T13:20:57Z</time>
<desc>lat.=56.067490, lon.=26.463711, Alt.=89.022522m. Speed=0.648000m/h.</desc>
<speed>0.180000</speed>
</trkpt>
<trkpt lat="56.067490" lon="26.463711">
<ele>88.874084</ele>
<time>2010-08-29T13:20:58Z</time>
<desc>lat.=56.067490, lon.=26.463711, Alt.=88.874084m. Speed=0.396000m/h.</desc>
<speed>0.110000</speed>
</trkpt>
<trkpt lat="56.067490" lon="26.463709">
<ele>88.751038</ele>
<time>2010-08-29T13:20:59Z</time>
<desc>lat.=56.067490, lon.=26.463709, Alt.=88.751038m. Speed=0.396000m/h.</desc>
<speed>0.110000</speed>
</trkpt>
<trkpt lat="56.067493" lon="26.463709">
<ele>88.651428</ele>
<time>2010-08-29T13:21:00Z</time>
<desc>lat.=56.067493, lon.=26.463709, Alt.=88.651428m. Speed=0.324000m/h.</desc>
<speed>0.090000</speed>
</trkpt>
<trkpt lat="56.067493" lon="26.463709">
<ele>88.573303</ele>
<time>2010-08-29T13:21:01Z</time>
<desc>lat.=56.067493, lon.=26.463709, Alt.=88.573303m. Speed=0.252000m/h.</desc>
<speed>0.070000</speed>
</trkpt>
<trkpt lat="56.067493" lon="26.463709">
<ele>88.516663</ele>
<time>2010-08-29T13:21:02Z</time>
<desc>lat.=56.067493, lon.=26.463709, Alt.=88.516663m. Speed=0.072000m/h.</desc>
<speed>0.020000</speed>
</trkpt>
<trkpt lat="56.067493" lon="26.463709">
<ele>88.489319</ele>
<time>2010-08-29T13:21:03Z</time>
<desc>lat.=56.067493, lon.=26.463709, Alt.=88.489319m. Speed=0.036000m/h.</desc>
<speed>0.010000</speed>
</trkpt>
<trkpt lat="56.067493" lon="26.463709">
<ele>88.475647</ele>
<time>2010-08-29T13:21:04Z</time>
<desc>lat.=56.067493, lon.=26.463709, Alt.=88.475647m. Speed=0.036000m/h.</desc>
<speed>0.010000</speed>
</trkpt>
<trkpt lat="56.067493" lon="26.463709">
<ele>88.465881</ele>
<time>2010-08-29T13:21:05Z</time>
<desc>lat.=56.067493, lon.=26.463709, Alt.=88.465881m. Speed=0.000000m/h.</desc>
<speed>0.000000</speed>
</trkpt>
<trkpt lat="56.067493" lon="26.463709">
<ele>88.461975</ele>
<time>2010-08-29T13:21:06Z</time>
<desc>lat.=56.067493, lon.=26.463709, Alt.=88.461975m. Speed=0.036000m/h.</desc>
<speed>0.010000</speed>
</trkpt>
<trkpt lat="56.067493" lon="26.463709">
<ele>88.473694</ele>
<time>2010-08-29T13:21:07Z</time>
<desc>lat.=56.067493, lon.=26.463709, Alt.=88.473694m. Speed=0.000000m/h.</desc>
<speed>0.000000</speed>
</trkpt>
<trkpt lat="56.067493" lon="26.463709">
<ele>88.514709</ele>
<time>2010-08-29T13:21:08Z</time>
<desc>lat.=56.067493, lon.=26.463709, Alt.=88.514709m. Speed=0.252000m/h.</desc>
<speed>0.070000</speed>
</trkpt>
<trkpt lat="56.067493" lon="26.463709">
<ele>88.575256</ele>
<time>2010-08-29T13:21:09Z</time>
<desc>lat.=56.067493, lon.=26.463709, Alt.=88.575256m. Speed=0.324000m/h.</desc>
<speed>0.090000</speed>
</trkpt>
<trkpt lat="56.067490" lon="26.463709">
<ele>88.653381</ele>
<time>2010-08-29T13:21:10Z</time>
<desc>lat.=56.067490, lon.=26.463709, Alt.=88.653381m. Speed=0.396000m/h.</desc>
<speed>0.110000</speed>
</trkpt>
<trkpt lat="56.067490" lon="26.463709">
<ele>88.741272</ele>
<time>2010-08-29T13:21:11Z</time>
<desc>lat.=56.067490, lon.=26.463709, Alt.=88.741272m. Speed=0.360000m/h.</desc>
<speed>0.100000</speed>
</trkpt>
<trkpt lat="56.067490" lon="26.463709">
<ele>88.840881</ele>
<time>2010-08-29T13:21:12Z</time>
<desc>lat.=56.067490, lon.=26.463709, Alt.=88.840881m. Speed=0.432000m/h.</desc>
<speed>0.120000</speed>
</trkpt>
<trkpt lat="56.067490" lon="26.463709">
<ele>88.944397</ele>
<time>2010-08-29T13:21:13Z</time>
<desc>lat.=56.067490, lon.=26.463709, Alt.=88.944397m. Speed=0.432000m/h.</desc>
<speed>0.120000</speed>
</trkpt>
<trkpt lat="56.067486" lon="26.463709">
<ele>89.079163</ele>
<time>2010-08-29T13:21:14Z</time>
<desc>lat.=56.067486, lon.=26.463709, Alt.=89.079163m. Speed=0.396000m/h.</desc>
<speed>0.110000</speed>
</trkpt>
<trkpt lat="56.067486" lon="26.463707">
<ele>89.233459</ele>
<time>2010-08-29T13:21:15Z</time>
<desc>lat.=56.067486, lon.=26.463707, Alt.=89.233459m. Speed=0.216000m/h.</desc>
<speed>0.060000</speed>
</trkpt>
<trkpt lat="56.067490" lon="26.463707">
<ele>89.377991</ele>
<time>2010-08-29T13:21:16Z</time>
<desc>lat.=56.067490, lon.=26.463707, Alt.=89.377991m. Speed=0.612000m/h.</desc>
<speed>0.170000</speed>
</trkpt>
<trkpt lat="56.067490" lon="26.463709">
<ele>89.504944</ele>
<time>2010-08-29T13:21:17Z</time>
<desc>lat.=56.067490, lon.=26.463709, Alt.=89.504944m. Speed=1.044000m/h.</desc>
<speed>0.290000</speed>
</trkpt>
<trkpt lat="56.067490" lon="26.463713">
<ele>89.631897</ele>
<time>2010-08-29T13:21:18Z</time>
<desc>lat.=56.067490, lon.=26.463713, Alt.=89.631897m. Speed=1.332000m/h.</desc>
<speed>0.370000</speed>
</trkpt>
<trkpt lat="56.067493" lon="26.463726">
<ele>89.977600</ele>
<time>2010-08-29T13:21:19Z</time>
<desc>lat.=56.067493, lon.=26.463726, Alt.=89.977600m. Speed=1.908000m/h.</desc>
<speed>0.530000</speed>
</trkpt>
<trkpt lat="56.067478" lon="26.463760">
<ele>90.126038</ele>
<time>2010-08-29T13:21:20Z</time>
<desc>lat.=56.067478, lon.=26.463760, Alt.=90.126038m. Speed=6.084000m/h.</desc>
<speed>1.690000</speed>
</trkpt>
<trkpt lat="56.067474" lon="26.463789">
<ele>90.430725</ele>
<time>2010-08-29T13:21:21Z</time>
<desc>lat.=56.067474, lon.=26.463789, Alt.=90.430725m. Speed=7.272000m/h.</desc>
<speed>2.020000</speed>
</trkpt>
<trkpt lat="56.067474" lon="26.463816">
<ele>90.756897</ele>
<time>2010-08-29T13:21:22Z</time>
<desc>lat.=56.067474, lon.=26.463816, Alt.=90.756897m. Speed=4.680000m/h.</desc>
<speed>1.300000</speed>
</trkpt>
<trkpt lat="56.067471" lon="26.463839">
<ele>91.200256</ele>
<time>2010-08-29T13:21:23Z</time>
<desc>lat.=56.067471, lon.=26.463839, Alt.=91.200256m. Speed=6.516000m/h.</desc>
<speed>1.810000</speed>
</trkpt>
<trkpt lat="56.067463" lon="26.463871">
<ele>91.827209</ele>
<time>2010-08-29T13:21:24Z</time>
<desc>lat.=56.067463, lon.=26.463871, Alt.=91.827209m. Speed=8.244000m/h.</desc>
<speed>2.290000</speed>
</trkpt>
<trkpt lat="56.067455" lon="26.463902">
<ele>92.297913</ele>
<time>2010-08-29T13:21:25Z</time>
<desc>lat.=56.067455, lon.=26.463902, Alt.=92.297913m. Speed=7.128000m/h.</desc>
<speed>1.980000</speed>
</trkpt>
<trkpt lat="56.067451" lon="26.463936">
<ele>92.747131</ele>
<time>2010-08-29T13:21:26Z</time>
<desc>lat.=56.067451, lon.=26.463936, Alt.=92.747131m. Speed=7.920000m/h.</desc>
<speed>2.200000</speed>
</trkpt>
<trkpt lat="56.067455" lon="26.463964">
<ele>93.055725</ele>
<time>2010-08-29T13:21:27Z</time>
<desc>lat.=56.067455, lon.=26.463964, Alt.=93.055725m. Speed=6.624000m/h.</desc>
<speed>1.840000</speed>
</trkpt>
<trkpt lat="56.067463" lon="26.463993">
<ele>93.323303</ele>
<time>2010-08-29T13:21:28Z</time>
<desc>lat.=56.067463, lon.=26.463993, Alt.=93.323303m. Speed=6.228000m/h.</desc>
<speed>1.730000</speed>
</trkpt>
<trkpt lat="56.067459" lon="26.464014">
<ele>93.874084</ele>
<time>2010-08-29T13:21:29Z</time>
<desc>lat.=56.067459, lon.=26.464014, Alt.=93.874084m. Speed=3.780000m/h.</desc>
<speed>1.050000</speed>
</trkpt>
<trkpt lat="56.067455" lon="26.464048">
<ele>94.411194</ele>
<time>2010-08-29T13:21:30Z</time>
<desc>lat.=56.067455, lon.=26.464048, Alt.=94.411194m. Speed=6.840000m/h.</desc>
<speed>1.900000</speed>
</trkpt>
<trkpt lat="56.067459" lon="26.464090">
<ele>94.594788</ele>
<time>2010-08-29T13:21:31Z</time>
<desc>lat.=56.067459, lon.=26.464090, Alt.=94.594788m. Speed=6.480000m/h.</desc>
<speed>1.800000</speed>
</trkpt>
<trkpt lat="56.067463" lon="26.464115">
<ele>94.864319</ele>
<time>2010-08-29T13:21:32Z</time>
<desc>lat.=56.067463, lon.=26.464115, Alt.=94.864319m. Speed=4.428000m/h.</desc>
<speed>1.230000</speed>
</trkpt>
<trkpt lat="56.067467" lon="26.464136">
<ele>95.204163</ele>
<time>2010-08-29T13:21:33Z</time>
<desc>lat.=56.067467, lon.=26.464136, Alt.=95.204163m. Speed=3.960000m/h.</desc>
<speed>1.100000</speed>
</trkpt>
<trkpt lat="56.067467" lon="26.464157">
<ele>95.690491</ele>
<time>2010-08-29T13:21:34Z</time>
<desc>lat.=56.067467, lon.=26.464157, Alt.=95.690491m. Speed=3.564000m/h.</desc>
<speed>0.990000</speed>
</trkpt>
<trkpt lat="56.067463" lon="26.464178">
<ele>96.184631</ele>
<time>2010-08-29T13:21:35Z</time>
<desc>lat.=56.067463, lon.=26.464178, Alt.=96.184631m. Speed=3.312000m/h.</desc>
<speed>0.920000</speed>
</trkpt>
<trkpt lat="56.067459" lon="26.464214">
<ele>96.583069</ele>
<time>2010-08-29T13:21:36Z</time>
<desc>lat.=56.067459, lon.=26.464214, Alt.=96.583069m. Speed=5.724000m/h.</desc>
<speed>1.590000</speed>
</trkpt>
<trkpt lat="56.067471" lon="26.464235">
<ele>97.014709</ele>
<time>2010-08-29T13:21:37Z</time>
<desc>lat.=56.067471, lon.=26.464235, Alt.=97.014709m. Speed=3.852000m/h.</desc>
<speed>1.070000</speed>
</trkpt>
<trkpt lat="56.067471" lon="26.464266">
<ele>97.569397</ele>
<time>2010-08-29T13:21:38Z</time>
<desc>lat.=56.067471, lon.=26.464266, Alt.=97.569397m. Speed=6.696000m/h.</desc>
<speed>1.860000</speed>
</trkpt>
<trkpt lat="56.067478" lon="26.464298">
<ele>97.940491</ele>
<time>2010-08-29T13:21:39Z</time>
<desc>lat.=56.067478, lon.=26.464298, Alt.=97.940491m. Speed=7.020000m/h.</desc>
<speed>1.950000</speed>
</trkpt>
<trkpt lat="56.067478" lon="26.464344">
<ele>98.481506</ele>
<time>2010-08-29T13:21:40Z</time>
<desc>lat.=56.067478, lon.=26.464344, Alt.=98.481506m. Speed=7.596000m/h.</desc>
<speed>2.110000</speed>
</trkpt>
<trkpt lat="56.067486" lon="26.464388">
<ele>98.731506</ele>
<time>2010-08-29T13:21:41Z</time>
<desc>lat.=56.067486, lon.=26.464388, Alt.=98.731506m. Speed=8.856000m/h.</desc>
<speed>2.460000</speed>
</trkpt>
<trkpt lat="56.067493" lon="26.464430">
<ele>99.016663</ele>
<time>2010-08-29T13:21:42Z</time>
<desc>lat.=56.067493, lon.=26.464430, Alt.=99.016663m. Speed=7.920000m/h.</desc>
<speed>2.200000</speed>
</trkpt>
<trkpt lat="56.067501" lon="26.464466">
<ele>99.258850</ele>
<time>2010-08-29T13:21:43Z</time>
<desc>lat.=56.067501, lon.=26.464466, Alt.=99.258850m. Speed=7.380000m/h.</desc>
<speed>2.050000</speed>
</trkpt>
<trkpt lat="56.067501" lon="26.464510">
<ele>99.502991</ele>
<time>2010-08-29T13:21:44Z</time>
<desc>lat.=56.067501, lon.=26.464510, Alt.=99.502991m. Speed=7.020000m/h.</desc>
<speed>1.950000</speed>
</trkpt>
<trkpt lat="56.067505" lon="26.464546">
<ele>99.868225</ele>
<time>2010-08-29T13:21:45Z</time>
<desc>lat.=56.067505, lon.=26.464546, Alt.=99.868225m. Speed=6.696000m/h.</desc>
<speed>1.860000</speed>
</trkpt>
<trkpt lat="56.067513" lon="26.464575">
<ele>100.407288</ele>
<time>2010-08-29T13:21:46Z</time>
<desc>lat.=56.067513, lon.=26.464575, Alt.=100.407288m. Speed=4.392000m/h.</desc>
<speed>1.220000</speed>
</trkpt>
<trkpt lat="56.067513" lon="26.464611">
<ele>100.641663</ele>
<time>2010-08-29T13:21:47Z</time>
<desc>lat.=56.067513, lon.=26.464611, Alt.=100.641663m. Speed=5.868000m/h.</desc>
<speed>1.630000</speed>
</trkpt>
<trkpt lat="56.067516" lon="26.464649">
<ele>100.897522</ele>
<time>2010-08-29T13:21:48Z</time>
<desc>lat.=56.067516, lon.=26.464649, Alt.=100.897522m. Speed=6.300000m/h.</desc>
<speed>1.750000</speed>
</trkpt>
<trkpt lat="56.067513" lon="26.464712">
<ele>100.831116</ele>
<time>2010-08-29T13:21:49Z</time>
<desc>lat.=56.067513, lon.=26.464712, Alt.=100.831116m. Speed=7.344000m/h.</desc>
<speed>2.040000</speed>
</trkpt>
<trkpt lat="56.067497" lon="26.464785">
<ele>100.622131</ele>
<time>2010-08-29T13:21:50Z</time>
<desc>lat.=56.067497, lon.=26.464785, Alt.=100.622131m. Speed=7.308000m/h.</desc>
<speed>2.030000</speed>
</trkpt>
<trkpt lat="56.067486" lon="26.464834">
<ele>100.444397</ele>
<time>2010-08-29T13:21:51Z</time>
<desc>lat.=56.067486, lon.=26.464834, Alt.=100.444397m. Speed=4.932000m/h.</desc>
<speed>1.370000</speed>
</trkpt>
<trkpt lat="56.067490" lon="26.464855">
<ele>100.549866</ele>
<time>2010-08-29T13:21:52Z</time>
<desc>lat.=56.067490, lon.=26.464855, Alt.=100.549866m. Speed=1.152000m/h.</desc>
<speed>0.320000</speed>
</trkpt>
<trkpt lat="56.067471" lon="26.464886">
<ele>100.762756</ele>
<time>2010-08-29T13:21:53Z</time>
<desc>lat.=56.067471, lon.=26.464886, Alt.=100.762756m. Speed=1.260000m/h.</desc>
<speed>0.350000</speed>
</trkpt>
<trkpt lat="56.067467" lon="26.464890">
<ele>100.643616</ele>
<time>2010-08-29T13:21:54Z</time>
<desc>lat.=56.067467, lon.=26.464890, Alt.=100.643616m. Speed=1.188000m/h.</desc>
<speed>0.330000</speed>
</trkpt>
<trkpt lat="56.067467" lon="26.464888">
<ele>100.711975</ele>
<time>2010-08-29T13:21:55Z</time>
<desc>lat.=56.067467, lon.=26.464888, Alt.=100.711975m. Speed=0.792000m/h.</desc>
<speed>0.220000</speed>
</trkpt>
<trkpt lat="56.067463" lon="26.464903">
<ele>100.065491</ele>
<time>2010-08-29T13:21:56Z</time>
<desc>lat.=56.067463, lon.=26.464903, Alt.=100.065491m. Speed=0.792000m/h.</desc>
<speed>0.220000</speed>
</trkpt>
<trkpt lat="56.067459" lon="26.464916">
<ele>100.374084</ele>
<time>2010-08-29T13:21:57Z</time>
<desc>lat.=56.067459, lon.=26.464916, Alt.=100.374084m. Speed=0.900000m/h.</desc>
<speed>0.250000</speed>
</trkpt>
<trkpt lat="56.067459" lon="26.464918">
<ele>100.729553</ele>
<time>2010-08-29T13:21:58Z</time>
<desc>lat.=56.067459, lon.=26.464918, Alt.=100.729553m. Speed=0.792000m/h.</desc>
<speed>0.220000</speed>
</trkpt>
<trkpt lat="56.067455" lon="26.464916">
<ele>100.696350</ele>
<time>2010-08-29T13:21:59Z</time>
<desc>lat.=56.067455, lon.=26.464916, Alt.=100.696350m. Speed=1.332000m/h.</desc>
<speed>0.370000</speed>
</trkpt>
<trkpt lat="56.067451" lon="26.464939">
<ele>100.627991</ele>
<time>2010-08-29T13:22:00Z</time>
<desc>lat.=56.067451, lon.=26.464939, Alt.=100.627991m. Speed=0.720000m/h.</desc>
<speed>0.200000</speed>
</trkpt>
<trkpt lat="56.067444" lon="26.464952">
<ele>100.717834</ele>
<time>2010-08-29T13:22:01Z</time>
<desc>lat.=56.067444, lon.=26.464952, Alt.=100.717834m. Speed=0.360000m/h.</desc>
<speed>0.100000</speed>
</trkpt>
<trkpt lat="56.067451" lon="26.464945">
<ele>100.864319</ele>
<time>2010-08-29T13:22:02Z</time>
<desc>lat.=56.067451, lon.=26.464945, Alt.=100.864319m. Speed=0.648000m/h.</desc>
<speed>0.180000</speed>
</trkpt>
<trkpt lat="56.067451" lon="26.464939">
<ele>100.858459</ele>
<time>2010-08-29T13:22:03Z</time>
<desc>lat.=56.067451, lon.=26.464939, Alt.=100.858459m. Speed=0.756000m/h.</desc>
<speed>0.210000</speed>
</trkpt>
<trkpt lat="56.067455" lon="26.464935">
<ele>100.809631</ele>
<time>2010-08-29T13:22:04Z</time>
<desc>lat.=56.067455, lon.=26.464935, Alt.=100.809631m. Speed=1.368000m/h.</desc>
<speed>0.380000</speed>
</trkpt>
<trkpt lat="56.067455" lon="26.464935">
<ele>100.694397</ele>
<time>2010-08-29T13:22:05Z</time>
<desc>lat.=56.067455, lon.=26.464935, Alt.=100.694397m. Speed=1.152000m/h.</desc>
<speed>0.320000</speed>
</trkpt>
<trkpt lat="56.067459" lon="26.464937">
<ele>100.530334</ele>
<time>2010-08-29T13:22:06Z</time>
<desc>lat.=56.067459, lon.=26.464937, Alt.=100.530334m. Speed=2.016000m/h.</desc>
<speed>0.560000</speed>
</trkpt>
<trkpt lat="56.067455" lon="26.464943">
<ele>100.188538</ele>
<time>2010-08-29T13:22:07Z</time>
<desc>lat.=56.067455, lon.=26.464943, Alt.=100.188538m. Speed=0.576000m/h.</desc>
<speed>0.160000</speed>
</trkpt>
<trkpt lat="56.067471" lon="26.464941">
<ele>100.270569</ele>
<time>2010-08-29T13:22:08Z</time>
<desc>lat.=56.067471, lon.=26.464941, Alt.=100.270569m. Speed=0.468000m/h.</desc>
<speed>0.130000</speed>
</trkpt>
<trkpt lat="56.067467" lon="26.464947">
<ele>100.280334</ele>
<time>2010-08-29T13:22:09Z</time>
<desc>lat.=56.067467, lon.=26.464947, Alt.=100.280334m. Speed=0.216000m/h.</desc>
<speed>0.060000</speed>
</trkpt>
<trkpt lat="56.067467" lon="26.464956">
<ele>100.368225</ele>
<time>2010-08-29T13:22:10Z</time>
<desc>lat.=56.067467, lon.=26.464956, Alt.=100.368225m. Speed=0.756000m/h.</desc>
<speed>0.210000</speed>
</trkpt>
<trkpt lat="56.067467" lon="26.464960">
<ele>100.315491</ele>
<time>2010-08-29T13:22:11Z</time>
<desc>lat.=56.067467, lon.=26.464960, Alt.=100.315491m. Speed=1.980000m/h.</desc>
<speed>0.550000</speed>
</trkpt>
<trkpt lat="56.067463" lon="26.464991">
<ele>100.211975</ele>
<time>2010-08-29T13:22:12Z</time>
<desc>lat.=56.067463, lon.=26.464991, Alt.=100.211975m. Speed=3.600000m/h.</desc>
<speed>1.000000</speed>
</trkpt>
<trkpt lat="56.067463" lon="26.465012">
<ele>100.178772</ele>
<time>2010-08-29T13:22:13Z</time>
<desc>lat.=56.067463, lon.=26.465012, Alt.=100.178772m. Speed=3.996000m/h.</desc>
<speed>1.110000</speed>
</trkpt>
<trkpt lat="56.067455" lon="26.465055">
<ele>100.079163</ele>
<time>2010-08-29T13:22:14Z</time>
<desc>lat.=56.067455, lon.=26.465055, Alt.=100.079163m. Speed=5.616000m/h.</desc>
<speed>1.560000</speed>
</trkpt>
<trkpt lat="56.067448" lon="26.465096">
<ele>99.932678</ele>
<time>2010-08-29T13:22:15Z</time>
<desc>lat.=56.067448, lon.=26.465096, Alt.=99.932678m. Speed=7.200000m/h.</desc>
<speed>2.000000</speed>
</trkpt>
<trkpt lat="56.067444" lon="26.465134">
<ele>99.682678</ele>
<time>2010-08-29T13:22:16Z</time>
<desc>lat.=56.067444, lon.=26.465134, Alt.=99.682678m. Speed=5.940000m/h.</desc>
<speed>1.650000</speed>
</trkpt>
<trkpt lat="56.067432" lon="26.465176">
<ele>99.608459</ele>
<time>2010-08-29T13:22:17Z</time>
<desc>lat.=56.067432, lon.=26.465176, Alt.=99.608459m. Speed=8.100000m/h.</desc>
<speed>2.250000</speed>
</trkpt>
<trkpt lat="56.067436" lon="26.465210">
<ele>99.469788</ele>
<time>2010-08-29T13:22:18Z</time>
<desc>lat.=56.067436, lon.=26.465210, Alt.=99.469788m. Speed=6.804000m/h.</desc>
<speed>1.890000</speed>
</trkpt>
<trkpt lat="56.067436" lon="26.465260">
<ele>99.118225</ele>
<time>2010-08-29T13:22:19Z</time>
<desc>lat.=56.067436, lon.=26.465260, Alt.=99.118225m. Speed=9.072000m/h.</desc>
<speed>2.520000</speed>
</trkpt>
<trkpt lat="56.067417" lon="26.465311">
<ele>98.794006</ele>
<time>2010-08-29T13:22:20Z</time>
<desc>lat.=56.067417, lon.=26.465311, Alt.=98.794006m. Speed=8.244000m/h.</desc>
<speed>2.290000</speed>
</trkpt>
<trkpt lat="56.067417" lon="26.465357">
<ele>98.805725</ele>
<time>2010-08-29T13:22:21Z</time>
<desc>lat.=56.067417, lon.=26.465357, Alt.=98.805725m. Speed=9.900000m/h.</desc>
<speed>2.750000</speed>
</trkpt>
<trkpt lat="56.067421" lon="26.465397">
<ele>98.510803</ele>
<time>2010-08-29T13:22:22Z</time>
<desc>lat.=56.067421, lon.=26.465397, Alt.=98.510803m. Speed=10.152000m/h.</desc>
<speed>2.820000</speed>
</trkpt>
<trkpt lat="56.067432" lon="26.465452">
<ele>97.844788</ele>
<time>2010-08-29T13:22:23Z</time>
<desc>lat.=56.067432, lon.=26.465452, Alt.=97.844788m. Speed=10.332000m/h.</desc>
<speed>2.870000</speed>
</trkpt>
<trkpt lat="56.067432" lon="26.465511">
<ele>97.210022</ele>
<time>2010-08-29T13:22:24Z</time>
<desc>lat.=56.067432, lon.=26.465511, Alt.=97.210022m. Speed=11.232000m/h.</desc>
<speed>3.120000</speed>
</trkpt>
<trkpt lat="56.067425" lon="26.465569">
<ele>96.458069</ele>
<time>2010-08-29T13:22:25Z</time>
<desc>lat.=56.067425, lon.=26.465569, Alt.=96.458069m. Speed=10.188000m/h.</desc>
<speed>2.830000</speed>
</trkpt>
<trkpt lat="56.067417" lon="26.465618">
<ele>95.721741</ele>
<time>2010-08-29T13:22:26Z</time>
<desc>lat.=56.067417, lon.=26.465618, Alt.=95.721741m. Speed=11.124000m/h.</desc>
<speed>3.090000</speed>
</trkpt>
<trkpt lat="56.067417" lon="26.465668">
<ele>95.475647</ele>
<time>2010-08-29T13:22:27Z</time>
<desc>lat.=56.067417, lon.=26.465668, Alt.=95.475647m. Speed=8.892000m/h.</desc>
<speed>2.470000</speed>
</trkpt>
<trkpt lat="56.067413" lon="26.465719">
<ele>95.295959</ele>
<time>2010-08-29T13:22:28Z</time>
<desc>lat.=56.067413, lon.=26.465719, Alt.=95.295959m. Speed=11.556000m/h.</desc>
<speed>3.210000</speed>
</trkpt>
<trkpt lat="56.067413" lon="26.465773">
<ele>94.981506</ele>
<time>2010-08-29T13:22:29Z</time>
<desc>lat.=56.067413, lon.=26.465773, Alt.=94.981506m. Speed=10.080000m/h.</desc>
<speed>2.800000</speed>
</trkpt>
<trkpt lat="56.067417" lon="26.465826">
<ele>94.586975</ele>
<time>2010-08-29T13:22:30Z</time>
<desc>lat.=56.067417, lon.=26.465826, Alt.=94.586975m. Speed=11.268000m/h.</desc>
<speed>3.130000</speed>
</trkpt>
<trkpt lat="56.067413" lon="26.465895">
<ele>94.532288</ele>
<time>2010-08-29T13:22:31Z</time>
<desc>lat.=56.067413, lon.=26.465895, Alt.=94.532288m. Speed=12.168000m/h.</desc>
<speed>3.380000</speed>
</trkpt>
<trkpt lat="56.067417" lon="26.465952">
<ele>94.145569</ele>
<time>2010-08-29T13:22:32Z</time>
<desc>lat.=56.067417, lon.=26.465952, Alt.=94.145569m. Speed=10.656000m/h.</desc>
<speed>2.960000</speed>
</trkpt>
<trkpt lat="56.067417" lon="26.466005">
<ele>93.555725</ele>
<time>2010-08-29T13:22:33Z</time>
<desc>lat.=56.067417, lon.=26.466005, Alt.=93.555725m. Speed=11.268000m/h.</desc>
<speed>3.130000</speed>
</trkpt>
<trkpt lat="56.067410" lon="26.466066">
<ele>92.889709</ele>
<time>2010-08-29T13:22:34Z</time>
<desc>lat.=56.067410, lon.=26.466066, Alt.=92.889709m. Speed=11.124000m/h.</desc>
<speed>3.090000</speed>
</trkpt>
<trkpt lat="56.067406" lon="26.466120">
<ele>92.276428</ele>
<time>2010-08-29T13:22:35Z</time>
<desc>lat.=56.067406, lon.=26.466120, Alt.=92.276428m. Speed=11.052000m/h.</desc>
<speed>3.070000</speed>
</trkpt>
<trkpt lat="56.067421" lon="26.466185">
<ele>92.694397</ele>
<time>2010-08-29T13:22:36Z</time>
<desc>lat.=56.067421, lon.=26.466185, Alt.=92.694397m. Speed=12.708000m/h.</desc>
<speed>3.530000</speed>
</trkpt>
<trkpt lat="56.067421" lon="26.466244">
<ele>91.868225</ele>
<time>2010-08-29T13:22:37Z</time>
<desc>lat.=56.067421, lon.=26.466244, Alt.=91.868225m. Speed=11.268000m/h.</desc>
<speed>3.130000</speed>
</trkpt>
<trkpt lat="56.067417" lon="26.466305">
<ele>91.301819</ele>
<time>2010-08-29T13:22:38Z</time>
<desc>lat.=56.067417, lon.=26.466305, Alt.=91.301819m. Speed=12.348000m/h.</desc>
<speed>3.430000</speed>
</trkpt>
<trkpt lat="56.067417" lon="26.466364">
<ele>90.749084</ele>
<time>2010-08-29T13:22:39Z</time>
<desc>lat.=56.067417, lon.=26.466364, Alt.=90.749084m. Speed=12.132000m/h.</desc>
<speed>3.370000</speed>
</trkpt>
<trkpt lat="56.067432" lon="26.466444">
<ele>91.065491</ele>
<time>2010-08-29T13:22:40Z</time>
<desc>lat.=56.067432, lon.=26.466444, Alt.=91.065491m. Speed=12.996000m/h.</desc>
<speed>3.610000</speed>
</trkpt>
<trkpt lat="56.067436" lon="26.466511">
<ele>90.547913</ele>
<time>2010-08-29T13:22:41Z</time>
<desc>lat.=56.067436, lon.=26.466511, Alt.=90.547913m. Speed=13.140000m/h.</desc>
<speed>3.650000</speed>
</trkpt>
<trkpt lat="56.067436" lon="26.466570">
<ele>89.864319</ele>
<time>2010-08-29T13:22:42Z</time>
<desc>lat.=56.067436, lon.=26.466570, Alt.=89.864319m. Speed=12.924000m/h.</desc>
<speed>3.590000</speed>
</trkpt>
<trkpt lat="56.067444" lon="26.466633">
<ele>89.131897</ele>
<time>2010-08-29T13:22:43Z</time>
<desc>lat.=56.067444, lon.=26.466633, Alt.=89.131897m. Speed=12.960000m/h.</desc>
<speed>3.600000</speed>
</trkpt>
<trkpt lat="56.067448" lon="26.466686">
<ele>88.352600</ele>
<time>2010-08-29T13:22:44Z</time>
<desc>lat.=56.067448, lon.=26.466686, Alt.=88.352600m. Speed=11.592000m/h.</desc>
<speed>3.220000</speed>
</trkpt>
<trkpt lat="56.067459" lon="26.466742">
<ele>87.782288</ele>
<time>2010-08-29T13:22:45Z</time>
<desc>lat.=56.067459, lon.=26.466742, Alt.=87.782288m. Speed=11.916000m/h.</desc>
<speed>3.310000</speed>
</trkpt>
<trkpt lat="56.067467" lon="26.466797">
<ele>86.995178</ele>
<time>2010-08-29T13:22:46Z</time>
<desc>lat.=56.067467, lon.=26.466797, Alt.=86.995178m. Speed=10.872000m/h.</desc>
<speed>3.020000</speed>
</trkpt>
<trkpt lat="56.067471" lon="26.466858">
<ele>86.385803</ele>
<time>2010-08-29T13:22:47Z</time>
<desc>lat.=56.067471, lon.=26.466858, Alt.=86.385803m. Speed=10.188000m/h.</desc>
<speed>2.830000</speed>
</trkpt>
<trkpt lat="56.067478" lon="26.466919">
<ele>85.786194</ele>
<time>2010-08-29T13:22:48Z</time>
<desc>lat.=56.067478, lon.=26.466919, Alt.=85.786194m. Speed=11.340000m/h.</desc>
<speed>3.150000</speed>
</trkpt>
<trkpt lat="56.067490" lon="26.466976">
<ele>85.258850</ele>
<time>2010-08-29T13:22:49Z</time>
<desc>lat.=56.067490, lon.=26.466976, Alt.=85.258850m. Speed=11.700000m/h.</desc>
<speed>3.250000</speed>
</trkpt>
<trkpt lat="56.067505" lon="26.467022">
<ele>84.766663</ele>
<time>2010-08-29T13:22:50Z</time>
<desc>lat.=56.067505, lon.=26.467022, Alt.=84.766663m. Speed=11.952000m/h.</desc>
<speed>3.320000</speed>
</trkpt>
<trkpt lat="56.067516" lon="26.467075">
<ele>84.358459</ele>
<time>2010-08-29T13:22:51Z</time>
<desc>lat.=56.067516, lon.=26.467075, Alt.=84.358459m. Speed=12.564000m/h.</desc>
<speed>3.490000</speed>
</trkpt>
<trkpt lat="56.067524" lon="26.467138">
<ele>83.874084</ele>
<time>2010-08-29T13:22:52Z</time>
<desc>lat.=56.067524, lon.=26.467138, Alt.=83.874084m. Speed=12.960000m/h.</desc>
<speed>3.600000</speed>
</trkpt>
<trkpt lat="56.067532" lon="26.467192">
<ele>83.219788</ele>
<time>2010-08-29T13:22:53Z</time>
<desc>lat.=56.067532, lon.=26.467192, Alt.=83.219788m. Speed=11.124000m/h.</desc>
<speed>3.090000</speed>
</trkpt>
<trkpt lat="56.067554" lon="26.467241">
<ele>82.758850</ele>
<time>2010-08-29T13:22:54Z</time>
<desc>lat.=56.067554, lon.=26.467241, Alt.=82.758850m. Speed=10.764000m/h.</desc>
<speed>2.990000</speed>
</trkpt>
<trkpt lat="56.067574" lon="26.467287">
<ele>81.977600</ele>
<time>2010-08-29T13:22:55Z</time>
<desc>lat.=56.067574, lon.=26.467287, Alt.=81.977600m. Speed=8.532000m/h.</desc>
<speed>2.370000</speed>
</trkpt>
<trkpt lat="56.067585" lon="26.467316">
<ele>81.715881</ele>
<time>2010-08-29T13:22:56Z</time>
<desc>lat.=56.067585, lon.=26.467316, Alt.=81.715881m. Speed=8.424000m/h.</desc>
<speed>2.340000</speed>
</trkpt>
<trkpt lat="56.067596" lon="26.467350">
<ele>81.124084</ele>
<time>2010-08-29T13:22:57Z</time>
<desc>lat.=56.067596, lon.=26.467350, Alt.=81.124084m. Speed=9.072000m/h.</desc>
<speed>2.520000</speed>
</trkpt>
<trkpt lat="56.067600" lon="26.467392">
<ele>80.237366</ele>
<time>2010-08-29T13:22:58Z</time>
<desc>lat.=56.067600, lon.=26.467392, Alt.=80.237366m. Speed=9.756000m/h.</desc>
<speed>2.710000</speed>
</trkpt>
<trkpt lat="56.067635" lon="26.467466">
<ele>82.694397</ele>
<time>2010-08-29T13:22:59Z</time>
<desc>lat.=56.067635, lon.=26.467466, Alt.=82.694397m. Speed=11.052000m/h.</desc>
<speed>3.070000</speed>
</trkpt>
<trkpt lat="56.067661" lon="26.467535">
<ele>83.954163</ele>
<time>2010-08-29T13:23:00Z</time>
<desc>lat.=56.067661, lon.=26.467535, Alt.=83.954163m. Speed=11.016000m/h.</desc>
<speed>3.060000</speed>
</trkpt>
<trkpt lat="56.067684" lon="26.467600">
<ele>85.897522</ele>
<time>2010-08-29T13:23:01Z</time>
<desc>lat.=56.067684, lon.=26.467600, Alt.=85.897522m. Speed=11.304000m/h.</desc>
<speed>3.140000</speed>
</trkpt>
<trkpt lat="56.067707" lon="26.467682">
<ele>88.086975</ele>
<time>2010-08-29T13:23:02Z</time>
<desc>lat.=56.067707, lon.=26.467682, Alt.=88.086975m. Speed=12.132000m/h.</desc>
<speed>3.370000</speed>
</trkpt>
<trkpt lat="56.067722" lon="26.467768">
<ele>89.413147</ele>
<time>2010-08-29T13:23:03Z</time>
<desc>lat.=56.067722, lon.=26.467768, Alt.=89.413147m. Speed=13.536000m/h.</desc>
<speed>3.760000</speed>
</trkpt>
<trkpt lat="56.067738" lon="26.467834">
<ele>90.487366</ele>
<time>2010-08-29T13:23:04Z</time>
<desc>lat.=56.067738, lon.=26.467834, Alt.=90.487366m. Speed=13.680000m/h.</desc>
<speed>3.800000</speed>
</trkpt>
<trkpt lat="56.067753" lon="26.467886">
<ele>91.838928</ele>
<time>2010-08-29T13:23:05Z</time>
<desc>lat.=56.067753, lon.=26.467886, Alt.=91.838928m. Speed=11.916000m/h.</desc>
<speed>3.310000</speed>
</trkpt>
<trkpt lat="56.067764" lon="26.467951">
<ele>92.292053</ele>
<time>2010-08-29T13:23:06Z</time>
<desc>lat.=56.067764, lon.=26.467951, Alt.=92.292053m. Speed=11.124000m/h.</desc>
<speed>3.090000</speed>
</trkpt>
<trkpt lat="56.067780" lon="26.467999">
<ele>92.971741</ele>
<time>2010-08-29T13:23:07Z</time>
<desc>lat.=56.067780, lon.=26.467999, Alt.=92.971741m. Speed=10.944000m/h.</desc>
<speed>3.040000</speed>
</trkpt>
<trkpt lat="56.067787" lon="26.468050">
<ele>93.149475</ele>
<time>2010-08-29T13:23:08Z</time>
<desc>lat.=56.067787, lon.=26.468050, Alt.=93.149475m. Speed=10.404000m/h.</desc>
<speed>2.890000</speed>
</trkpt>
<trkpt lat="56.067795" lon="26.468098">
<ele>92.756897</ele>
<time>2010-08-29T13:23:09Z</time>
<desc>lat.=56.067795, lon.=26.468098, Alt.=92.756897m. Speed=10.512000m/h.</desc>
<speed>2.920000</speed>
</trkpt>
<trkpt lat="56.067802" lon="26.468140">
<ele>92.530334</ele>
<time>2010-08-29T13:23:10Z</time>
<desc>lat.=56.067802, lon.=26.468140, Alt.=92.530334m. Speed=9.720000m/h.</desc>
<speed>2.700000</speed>
</trkpt>
<trkpt lat="56.067810" lon="26.468185">
<ele>92.055725</ele>
<time>2010-08-29T13:23:11Z</time>
<desc>lat.=56.067810, lon.=26.468185, Alt.=92.055725m. Speed=9.756000m/h.</desc>
<speed>2.710000</speed>
</trkpt>
<trkpt lat="56.067822" lon="26.468231">
<ele>91.829163</ele>
<time>2010-08-29T13:23:12Z</time>
<desc>lat.=56.067822, lon.=26.468231, Alt.=91.829163m. Speed=9.108000m/h.</desc>
<speed>2.530000</speed>
</trkpt>
<trkpt lat="56.067837" lon="26.468281">
<ele>91.770569</ele>
<time>2010-08-29T13:23:13Z</time>
<desc>lat.=56.067837, lon.=26.468281, Alt.=91.770569m. Speed=9.540000m/h.</desc>
<speed>2.650000</speed>
</trkpt>
<trkpt lat="56.067852" lon="26.468334">
<ele>91.893616</ele>
<time>2010-08-29T13:23:14Z</time>
<desc>lat.=56.067852, lon.=26.468334, Alt.=91.893616m. Speed=11.088000m/h.</desc>
<speed>3.080000</speed>
</trkpt>
<trkpt lat="56.067867" lon="26.468386">
<ele>91.415100</ele>
<time>2010-08-29T13:23:15Z</time>
<desc>lat.=56.067867, lon.=26.468386, Alt.=91.415100m. Speed=10.620000m/h.</desc>
<speed>2.950000</speed>
</trkpt>
<trkpt lat="56.067886" lon="26.468443">
<ele>92.131897</ele>
<time>2010-08-29T13:23:16Z</time>
<desc>lat.=56.067886, lon.=26.468443, Alt.=92.131897m. Speed=11.124000m/h.</desc>
<speed>3.090000</speed>
</trkpt>
<trkpt lat="56.067902" lon="26.468496">
<ele>91.831116</ele>
<time>2010-08-29T13:23:17Z</time>
<desc>lat.=56.067902, lon.=26.468496, Alt.=91.831116m. Speed=11.808000m/h.</desc>
<speed>3.280000</speed>
</trkpt>
<trkpt lat="56.067909" lon="26.468552">
<ele>92.182678</ele>
<time>2010-08-29T13:23:18Z</time>
<desc>lat.=56.067909, lon.=26.468552, Alt.=92.182678m. Speed=12.060000m/h.</desc>
<speed>3.350000</speed>
</trkpt>
<trkpt lat="56.067924" lon="26.468611">
<ele>92.116272</ele>
<time>2010-08-29T13:23:19Z</time>
<desc>lat.=56.067924, lon.=26.468611, Alt.=92.116272m. Speed=11.988000m/h.</desc>
<speed>3.330000</speed>
</trkpt>
<trkpt lat="56.067936" lon="26.468662">
<ele>91.163147</ele>
<time>2010-08-29T13:23:20Z</time>
<desc>lat.=56.067936, lon.=26.468662, Alt.=91.163147m. Speed=11.520000m/h.</desc>
<speed>3.200000</speed>
</trkpt>
<trkpt lat="56.067947" lon="26.468719">
<ele>91.577209</ele>
<time>2010-08-29T13:23:21Z</time>
<desc>lat.=56.067947, lon.=26.468719, Alt.=91.577209m. Speed=12.132000m/h.</desc>
<speed>3.370000</speed>
</trkpt>
<trkpt lat="56.067959" lon="26.468775">
<ele>91.432678</ele>
<time>2010-08-29T13:23:22Z</time>
<desc>lat.=56.067959, lon.=26.468775, Alt.=91.432678m. Speed=11.988000m/h.</desc>
<speed>3.330000</speed>
</trkpt>
<trkpt lat="56.067970" lon="26.468830">
<ele>91.370178</ele>
<time>2010-08-29T13:23:23Z</time>
<desc>lat.=56.067970, lon.=26.468830, Alt.=91.370178m. Speed=12.996000m/h.</desc>
<speed>3.610000</speed>
</trkpt>
<trkpt lat="56.067982" lon="26.468884">
<ele>91.286194</ele>
<time>2010-08-29T13:23:24Z</time>
<desc>lat.=56.067982, lon.=26.468884, Alt.=91.286194m. Speed=13.356000m/h.</desc>
<speed>3.710000</speed>
</trkpt>
<trkpt lat="56.067993" lon="26.468943">
<ele>90.958069</ele>
<time>2010-08-29T13:23:25Z</time>
<desc>lat.=56.067993, lon.=26.468943, Alt.=90.958069m. Speed=13.068000m/h.</desc>
<speed>3.630000</speed>
</trkpt>
<trkpt lat="56.068008" lon="26.469002">
<ele>91.088928</ele>
<time>2010-08-29T13:23:26Z</time>
<desc>lat.=56.068008, lon.=26.469002, Alt.=91.088928m. Speed=13.212000m/h.</desc>
<speed>3.670000</speed>
</trkpt>
<trkpt lat="56.068039" lon="26.469074">
<ele>92.586975</ele>
<time>2010-08-29T13:23:27Z</time>
<desc>lat.=56.068039, lon.=26.469074, Alt.=92.586975m. Speed=14.076000m/h.</desc>
<speed>3.910000</speed>
</trkpt>
<trkpt lat="56.068054" lon="26.469133">
<ele>92.669006</ele>
<time>2010-08-29T13:23:28Z</time>
<desc>lat.=56.068054, lon.=26.469133, Alt.=92.669006m. Speed=14.832000m/h.</desc>
<speed>4.120000</speed>
</trkpt>
<trkpt lat="56.068073" lon="26.469193">
<ele>93.032288</ele>
<time>2010-08-29T13:23:29Z</time>
<desc>lat.=56.068073, lon.=26.469193, Alt.=93.032288m. Speed=14.256000m/h.</desc>
<speed>3.960000</speed>
</trkpt>
<trkpt lat="56.068096" lon="26.469255">
<ele>93.333069</ele>
<time>2010-08-29T13:23:30Z</time>
<desc>lat.=56.068096, lon.=26.469255, Alt.=93.333069m. Speed=14.364000m/h.</desc>
<speed>3.990000</speed>
</trkpt>
<trkpt lat="56.068123" lon="26.469324">
<ele>94.407288</ele>
<time>2010-08-29T13:23:31Z</time>
<desc>lat.=56.068123, lon.=26.469324, Alt.=94.407288m. Speed=13.716000m/h.</desc>
<speed>3.810000</speed>
</trkpt>
<trkpt lat="56.068142" lon="26.469381">
<ele>94.670959</ele>
<time>2010-08-29T13:23:32Z</time>
<desc>lat.=56.068142, lon.=26.469381, Alt.=94.670959m. Speed=12.996000m/h.</desc>
<speed>3.610000</speed>
</trkpt>
<trkpt lat="56.068165" lon="26.469431">
<ele>95.422913</ele>
<time>2010-08-29T13:23:33Z</time>
<desc>lat.=56.068165, lon.=26.469431, Alt.=95.422913m. Speed=12.672000m/h.</desc>
<speed>3.520000</speed>
</trkpt>
<trkpt lat="56.068184" lon="26.469481">
<ele>95.581116</ele>
<time>2010-08-29T13:23:34Z</time>
<desc>lat.=56.068184, lon.=26.469481, Alt.=95.581116m. Speed=11.412000m/h.</desc>
<speed>3.170000</speed>
</trkpt>
<trkpt lat="56.068203" lon="26.469530">
<ele>96.295959</ele>
<time>2010-08-29T13:23:35Z</time>
<desc>lat.=56.068203, lon.=26.469530, Alt.=96.295959m. Speed=11.340000m/h.</desc>
<speed>3.150000</speed>
</trkpt>
<trkpt lat="56.068222" lon="26.469578">
<ele>96.961975</ele>
<time>2010-08-29T13:23:36Z</time>
<desc>lat.=56.068222, lon.=26.469578, Alt.=96.961975m. Speed=11.916000m/h.</desc>
<speed>3.310000</speed>
</trkpt>
<trkpt lat="56.068241" lon="26.469633">
<ele>97.098694</ele>
<time>2010-08-29T13:23:37Z</time>
<desc>lat.=56.068241, lon.=26.469633, Alt.=97.098694m. Speed=12.780000m/h.</desc>
<speed>3.550000</speed>
</trkpt>
<trkpt lat="56.068253" lon="26.469685">
<ele>97.225647</ele>
<time>2010-08-29T13:23:38Z</time>
<desc>lat.=56.068253, lon.=26.469685, Alt.=97.225647m. Speed=13.572000m/h.</desc>
<speed>3.770000</speed>
</trkpt>
<trkpt lat="56.068268" lon="26.469738">
<ele>97.090881</ele>
<time>2010-08-29T13:23:39Z</time>
<desc>lat.=56.068268, lon.=26.469738, Alt.=97.090881m. Speed=13.752000m/h.</desc>
<speed>3.820000</speed>
</trkpt>
<trkpt lat="56.068291" lon="26.469797">
<ele>98.120178</ele>
<time>2010-08-29T13:23:40Z</time>
<desc>lat.=56.068291, lon.=26.469797, Alt.=98.120178m. Speed=13.284000m/h.</desc>
<speed>3.690000</speed>
</trkpt>
<trkpt lat="56.068306" lon="26.469854">
<ele>98.626038</ele>
<time>2010-08-29T13:23:41Z</time>
<desc>lat.=56.068306, lon.=26.469854, Alt.=98.626038m. Speed=12.852000m/h.</desc>
<speed>3.570000</speed>
</trkpt>
<trkpt lat="56.068321" lon="26.469902">
<ele>99.126038</ele>
<time>2010-08-29T13:23:42Z</time>
<desc>lat.=56.068321, lon.=26.469902, Alt.=99.126038m. Speed=11.988000m/h.</desc>
<speed>3.330000</speed>
</trkpt>
<trkpt lat="56.068336" lon="26.469954">
<ele>99.631897</ele>
<time>2010-08-29T13:23:43Z</time>
<desc>lat.=56.068336, lon.=26.469954, Alt.=99.631897m. Speed=10.872000m/h.</desc>
<speed>3.020000</speed>
</trkpt>
<trkpt lat="56.068348" lon="26.470001">
<ele>99.790100</ele>
<time>2010-08-29T13:23:44Z</time>
<desc>lat.=56.068348, lon.=26.470001, Alt.=99.790100m. Speed=10.908000m/h.</desc>
<speed>3.030000</speed>
</trkpt>
<trkpt lat="56.068363" lon="26.470057">
<ele>100.586975</ele>
<time>2010-08-29T13:23:45Z</time>
<desc>lat.=56.068363, lon.=26.470057, Alt.=100.586975m. Speed=11.016000m/h.</desc>
<speed>3.060000</speed>
</trkpt>
<trkpt lat="56.068375" lon="26.470112">
<ele>100.344788</ele>
<time>2010-08-29T13:23:46Z</time>
<desc>lat.=56.068375, lon.=26.470112, Alt.=100.344788m. Speed=11.736000m/h.</desc>
<speed>3.260000</speed>
</trkpt>
<trkpt lat="56.068386" lon="26.470167">
<ele>100.588928</ele>
<time>2010-08-29T13:23:47Z</time>
<desc>lat.=56.068386, lon.=26.470167, Alt.=100.588928m. Speed=12.456000m/h.</desc>
<speed>3.460000</speed>
</trkpt>
<trkpt lat="56.068401" lon="26.470222">
<ele>101.055725</ele>
<time>2010-08-29T13:23:48Z</time>
<desc>lat.=56.068401, lon.=26.470222, Alt.=101.055725m. Speed=12.456000m/h.</desc>
<speed>3.460000</speed>
</trkpt>
<trkpt lat="56.068417" lon="26.470274">
<ele>101.583069</ele>
<time>2010-08-29T13:23:49Z</time>
<desc>lat.=56.068417, lon.=26.470274, Alt.=101.583069m. Speed=12.780000m/h.</desc>
<speed>3.550000</speed>
</trkpt>
<trkpt lat="56.068432" lon="26.470325">
<ele>101.698303</ele>
<time>2010-08-29T13:23:50Z</time>
<desc>lat.=56.068432, lon.=26.470325, Alt.=101.698303m. Speed=12.816000m/h.</desc>
<speed>3.560000</speed>
</trkpt>
<trkpt lat="56.068451" lon="26.470373">
<ele>102.405334</ele>
<time>2010-08-29T13:23:51Z</time>
<desc>lat.=56.068451, lon.=26.470373, Alt.=102.405334m. Speed=12.384000m/h.</desc>
<speed>3.440000</speed>
</trkpt>
<trkpt lat="56.068470" lon="26.470423">
<ele>103.012756</ele>
<time>2010-08-29T13:23:52Z</time>
<desc>lat.=56.068470, lon.=26.470423, Alt.=103.012756m. Speed=12.276000m/h.</desc>
<speed>3.410000</speed>
</trkpt>
<trkpt lat="56.068485" lon="26.470469">
<ele>103.333069</ele>
<time>2010-08-29T13:23:53Z</time>
<desc>lat.=56.068485, lon.=26.470469, Alt.=103.333069m. Speed=11.484000m/h.</desc>
<speed>3.190000</speed>
</trkpt>
<trkpt lat="56.068497" lon="26.470516">
<ele>103.594788</ele>
<time>2010-08-29T13:23:54Z</time>
<desc>lat.=56.068497, lon.=26.470516, Alt.=103.594788m. Speed=11.052000m/h.</desc>
<speed>3.070000</speed>
</trkpt>
<trkpt lat="56.068504" lon="26.470564">
<ele>104.184631</ele>
<time>2010-08-29T13:23:55Z</time>
<desc>lat.=56.068504, lon.=26.470564, Alt.=104.184631m. Speed=10.620000m/h.</desc>
<speed>2.950000</speed>
</trkpt>
<trkpt lat="56.068512" lon="26.470606">
<ele>104.278381</ele>
<time>2010-08-29T13:23:56Z</time>
<desc>lat.=56.068512, lon.=26.470606, Alt.=104.278381m. Speed=9.900000m/h.</desc>
<speed>2.750000</speed>
</trkpt>
<trkpt lat="56.068523" lon="26.470644">
<ele>103.708069</ele>
<time>2010-08-29T13:23:57Z</time>
<desc>lat.=56.068523, lon.=26.470644, Alt.=103.708069m. Speed=7.992000m/h.</desc>
<speed>2.220000</speed>
</trkpt>
<trkpt lat="56.068531" lon="26.470671">
<ele>103.694397</ele>
<time>2010-08-29T13:23:58Z</time>
<desc>lat.=56.068531, lon.=26.470671, Alt.=103.694397m. Speed=6.372000m/h.</desc>
<speed>1.770000</speed>
</trkpt>
<trkpt lat="56.068539" lon="26.470699">
<ele>103.903381</ele>
<time>2010-08-29T13:23:59Z</time>
<desc>lat.=56.068539, lon.=26.470699, Alt.=103.903381m. Speed=4.896000m/h.</desc>
<speed>1.360000</speed>
</trkpt>
<trkpt lat="56.068546" lon="26.470713">
<ele>103.848694</ele>
<time>2010-08-29T13:24:00Z</time>
<desc>lat.=56.068546, lon.=26.470713, Alt.=103.848694m. Speed=4.824000m/h.</desc>
<speed>1.340000</speed>
</trkpt>
<trkpt lat="56.068554" lon="26.470732">
<ele>104.069397</ele>
<time>2010-08-29T13:24:01Z</time>
<desc>lat.=56.068554, lon.=26.470732, Alt.=104.069397m. Speed=5.148000m/h.</desc>
<speed>1.430000</speed>
</trkpt>
<trkpt lat="56.068565" lon="26.470745">
<ele>104.042053</ele>
<time>2010-08-29T13:24:02Z</time>
<desc>lat.=56.068565, lon.=26.470745, Alt.=104.042053m. Speed=4.752000m/h.</desc>
<speed>1.320000</speed>
</trkpt>
<trkpt lat="56.068577" lon="26.470753">
<ele>104.376038</ele>
<time>2010-08-29T13:24:03Z</time>
<desc>lat.=56.068577, lon.=26.470753, Alt.=104.376038m. Speed=5.112000m/h.</desc>
<speed>1.420000</speed>
</trkpt>
<trkpt lat="56.068592" lon="26.470751">
<ele>104.321350</ele>
<time>2010-08-29T13:24:04Z</time>
<desc>lat.=56.068592, lon.=26.470751, Alt.=104.321350m. Speed=6.408000m/h.</desc>
<speed>1.780000</speed>
</trkpt>
<trkpt lat="56.068615" lon="26.470737">
<ele>104.403381</ele>
<time>2010-08-29T13:24:05Z</time>
<desc>lat.=56.068615, lon.=26.470737, Alt.=104.403381m. Speed=9.288000m/h.</desc>
<speed>2.580000</speed>
</trkpt>
<trkpt lat="56.068638" lon="26.470707">
<ele>104.788147</ele>
<time>2010-08-29T13:24:06Z</time>
<desc>lat.=56.068638, lon.=26.470707, Alt.=104.788147m. Speed=11.304000m/h.</desc>
<speed>3.140000</speed>
</trkpt>
<trkpt lat="56.068661" lon="26.470678">
<ele>104.446350</ele>
<time>2010-08-29T13:24:07Z</time>
<desc>lat.=56.068661, lon.=26.470678, Alt.=104.446350m. Speed=11.448000m/h.</desc>
<speed>3.180000</speed>
</trkpt>
<trkpt lat="56.068684" lon="26.470654">
<ele>104.655334</ele>
<time>2010-08-29T13:24:08Z</time>
<desc>lat.=56.068684, lon.=26.470654, Alt.=104.655334m. Speed=10.872000m/h.</desc>
<speed>3.020000</speed>
</trkpt>
<trkpt lat="56.068714" lon="26.470629">
<ele>104.627991</ele>
<time>2010-08-29T13:24:09Z</time>
<desc>lat.=56.068714, lon.=26.470629, Alt.=104.627991m. Speed=13.212000m/h.</desc>
<speed>3.670000</speed>
</trkpt>
<trkpt lat="56.068745" lon="26.470608">
<ele>104.581116</ele>
<time>2010-08-29T13:24:10Z</time>
<desc>lat.=56.068745, lon.=26.470608, Alt.=104.581116m. Speed=12.096000m/h.</desc>
<speed>3.360000</speed>
</trkpt>
<trkpt lat="56.068771" lon="26.470598">
<ele>104.301819</ele>
<time>2010-08-29T13:24:11Z</time>
<desc>lat.=56.068771, lon.=26.470598, Alt.=104.301819m. Speed=13.788000m/h.</desc>
<speed>3.830000</speed>
</trkpt>
<trkpt lat="56.068806" lon="26.470589">
<ele>103.911194</ele>
<time>2010-08-29T13:24:12Z</time>
<desc>lat.=56.068806, lon.=26.470589, Alt.=103.911194m. Speed=12.888000m/h.</desc>
<speed>3.580000</speed>
</trkpt>
<trkpt lat="56.068840" lon="26.470581">
<ele>103.930725</ele>
<time>2010-08-29T13:24:13Z</time>
<desc>lat.=56.068840, lon.=26.470581, Alt.=103.930725m. Speed=12.816000m/h.</desc>
<speed>3.560000</speed>
</trkpt>
<trkpt lat="56.068874" lon="26.470572">
<ele>104.131897</ele>
<time>2010-08-29T13:24:14Z</time>
<desc>lat.=56.068874, lon.=26.470572, Alt.=104.131897m. Speed=14.400000m/h.</desc>
<speed>4.000000</speed>
</trkpt>
<trkpt lat="56.068909" lon="26.470570">
<ele>105.090881</ele>
<time>2010-08-29T13:24:15Z</time>
<desc>lat.=56.068909, lon.=26.470570, Alt.=105.090881m. Speed=13.392000m/h.</desc>
<speed>3.720000</speed>
</trkpt>
<trkpt lat="56.068939" lon="26.470568">
<ele>104.823303</ele>
<time>2010-08-29T13:24:16Z</time>
<desc>lat.=56.068939, lon.=26.470568, Alt.=104.823303m. Speed=12.060000m/h.</desc>
<speed>3.350000</speed>
</trkpt>
<trkpt lat="56.068974" lon="26.470564">
<ele>104.465881</ele>
<time>2010-08-29T13:24:17Z</time>
<desc>lat.=56.068974, lon.=26.470564, Alt.=104.465881m. Speed=13.248000m/h.</desc>
<speed>3.680000</speed>
</trkpt>
<trkpt lat="56.069012" lon="26.470562">
<ele>103.805725</ele>
<time>2010-08-29T13:24:18Z</time>
<desc>lat.=56.069012, lon.=26.470562, Alt.=103.805725m. Speed=14.112000m/h.</desc>
<speed>3.920000</speed>
</trkpt>
<trkpt lat="56.069046" lon="26.470560">
<ele>103.565491</ele>
<time>2010-08-29T13:24:19Z</time>
<desc>lat.=56.069046, lon.=26.470560, Alt.=103.565491m. Speed=14.148000m/h.</desc>
<speed>3.930000</speed>
</trkpt>
<trkpt lat="56.069080" lon="26.470554">
<ele>103.483459</ele>
<time>2010-08-29T13:24:20Z</time>
<desc>lat.=56.069080, lon.=26.470554, Alt.=103.483459m. Speed=13.140000m/h.</desc>
<speed>3.650000</speed>
</trkpt>
<trkpt lat="56.069115" lon="26.470551">
<ele>103.752991</ele>
<time>2010-08-29T13:24:21Z</time>
<desc>lat.=56.069115, lon.=26.470551, Alt.=103.752991m. Speed=12.492000m/h.</desc>
<speed>3.470000</speed>
</trkpt>
<trkpt lat="56.069153" lon="26.470549">
<ele>103.903381</ele>
<time>2010-08-29T13:24:22Z</time>
<desc>lat.=56.069153, lon.=26.470549, Alt.=103.903381m. Speed=12.348000m/h.</desc>
<speed>3.430000</speed>
</trkpt>
<trkpt lat="56.069191" lon="26.470560">
<ele>105.137756</ele>
<time>2010-08-29T13:24:23Z</time>
<desc>lat.=56.069191, lon.=26.470560, Alt.=105.137756m. Speed=11.376000m/h.</desc>
<speed>3.160000</speed>
</trkpt>
<trkpt lat="56.069218" lon="26.470566">
<ele>105.122131</ele>
<time>2010-08-29T13:24:24Z</time>
<desc>lat.=56.069218, lon.=26.470566, Alt.=105.122131m. Speed=7.992000m/h.</desc>
<speed>2.220000</speed>
</trkpt>
<trkpt lat="56.069237" lon="26.470573">
<ele>104.920959</ele>
<time>2010-08-29T13:24:25Z</time>
<desc>lat.=56.069237, lon.=26.470573, Alt.=104.920959m. Speed=6.768000m/h.</desc>
<speed>1.880000</speed>
</trkpt>
<trkpt lat="56.069252" lon="26.470589">
<ele>104.737366</ele>
<time>2010-08-29T13:24:26Z</time>
<desc>lat.=56.069252, lon.=26.470589, Alt.=104.737366m. Speed=6.876000m/h.</desc>
<speed>1.910000</speed>
</trkpt>
<trkpt lat="56.069275" lon="26.470598">
<ele>105.026428</ele>
<time>2010-08-29T13:24:27Z</time>
<desc>lat.=56.069275, lon.=26.470598, Alt.=105.026428m. Speed=6.984000m/h.</desc>
<speed>1.940000</speed>
</trkpt>
<trkpt lat="56.069290" lon="26.470596">
<ele>104.637756</ele>
<time>2010-08-29T13:24:28Z</time>
<desc>lat.=56.069290, lon.=26.470596, Alt.=104.637756m. Speed=7.056000m/h.</desc>
<speed>1.960000</speed>
</trkpt>
<trkpt lat="56.069309" lon="26.470587">
<ele>105.116272</ele>
<time>2010-08-29T13:24:29Z</time>
<desc>lat.=56.069309, lon.=26.470587, Alt.=105.116272m. Speed=7.704000m/h.</desc>
<speed>2.140000</speed>
</trkpt>
<trkpt lat="56.069332" lon="26.470579">
<ele>105.522522</ele>
<time>2010-08-29T13:24:30Z</time>
<desc>lat.=56.069332, lon.=26.470579, Alt.=105.522522m. Speed=8.928000m/h.</desc>
<speed>2.480000</speed>
</trkpt>
<trkpt lat="56.069355" lon="26.470573">
<ele>105.417053</ele>
<time>2010-08-29T13:24:31Z</time>
<desc>lat.=56.069355, lon.=26.470573, Alt.=105.417053m. Speed=9.720000m/h.</desc>
<speed>2.700000</speed>
</trkpt>
<trkpt lat="56.069378" lon="26.470564">
<ele>106.397522</ele>
<time>2010-08-29T13:24:32Z</time>
<desc>lat.=56.069378, lon.=26.470564, Alt.=106.397522m. Speed=7.668000m/h.</desc>
<speed>2.130000</speed>
</trkpt>
<trkpt lat="56.069397" lon="26.470556">
<ele>106.329163</ele>
<time>2010-08-29T13:24:33Z</time>
<desc>lat.=56.069397, lon.=26.470556, Alt.=106.329163m. Speed=9.072000m/h.</desc>
<speed>2.520000</speed>
</trkpt>
<trkpt lat="56.069412" lon="26.470547">
<ele>105.354553</ele>
<time>2010-08-29T13:24:34Z</time>
<desc>lat.=56.069412, lon.=26.470547, Alt.=105.354553m. Speed=10.116000m/h.</desc>
<speed>2.810000</speed>
</trkpt>
<trkpt lat="56.069435" lon="26.470545">
<ele>104.545959</ele>
<time>2010-08-29T13:24:35Z</time>
<desc>lat.=56.069435, lon.=26.470545, Alt.=104.545959m. Speed=10.656000m/h.</desc>
<speed>2.960000</speed>
</trkpt>
<trkpt lat="56.069454" lon="26.470539">
<ele>102.772522</ele>
<time>2010-08-29T13:24:36Z</time>
<desc>lat.=56.069454, lon.=26.470539, Alt.=102.772522m. Speed=10.980000m/h.</desc>
<speed>3.050000</speed>
</trkpt>
<trkpt lat="56.069481" lon="26.470547">
<ele>102.114319</ele>
<time>2010-08-29T13:24:37Z</time>
<desc>lat.=56.069481, lon.=26.470547, Alt.=102.114319m. Speed=11.340000m/h.</desc>
<speed>3.150000</speed>
</trkpt>
<trkpt lat="56.069508" lon="26.470556">
<ele>101.967834</ele>
<time>2010-08-29T13:24:38Z</time>
<desc>lat.=56.069508, lon.=26.470556, Alt.=101.967834m. Speed=11.628000m/h.</desc>
<speed>3.230000</speed>
</trkpt>
<trkpt lat="56.069542" lon="26.470558">
<ele>102.188538</ele>
<time>2010-08-29T13:24:39Z</time>
<desc>lat.=56.069542, lon.=26.470558, Alt.=102.188538m. Speed=10.908000m/h.</desc>
<speed>3.030000</speed>
</trkpt>
<trkpt lat="56.069569" lon="26.470554">
<ele>102.321350</ele>
<time>2010-08-29T13:24:40Z</time>
<desc>lat.=56.069569, lon.=26.470554, Alt.=102.321350m. Speed=10.080000m/h.</desc>
<speed>2.800000</speed>
</trkpt>
<trkpt lat="56.069588" lon="26.470547">
<ele>101.821350</ele>
<time>2010-08-29T13:24:41Z</time>
<desc>lat.=56.069588, lon.=26.470547, Alt.=101.821350m. Speed=6.228000m/h.</desc>
<speed>1.730000</speed>
</trkpt>
<trkpt lat="56.069603" lon="26.470543">
<ele>101.297913</ele>
<time>2010-08-29T13:24:42Z</time>
<desc>lat.=56.069603, lon.=26.470543, Alt.=101.297913m. Speed=7.776000m/h.</desc>
<speed>2.160000</speed>
</trkpt>
<trkpt lat="56.069622" lon="26.470543">
<ele>101.866272</ele>
<time>2010-08-29T13:24:43Z</time>
<desc>lat.=56.069622, lon.=26.470543, Alt.=101.866272m. Speed=8.316000m/h.</desc>
<speed>2.310000</speed>
</trkpt>
<trkpt lat="56.069653" lon="26.470543">
<ele>103.065491</ele>
<time>2010-08-29T13:24:44Z</time>
<desc>lat.=56.069653, lon.=26.470543, Alt.=103.065491m. Speed=9.144000m/h.</desc>
<speed>2.540000</speed>
</trkpt>
<trkpt lat="56.069679" lon="26.470541">
<ele>103.266663</ele>
<time>2010-08-29T13:24:45Z</time>
<desc>lat.=56.069679, lon.=26.470541, Alt.=103.266663m. Speed=11.016000m/h.</desc>
<speed>3.060000</speed>
</trkpt>
<trkpt lat="56.069706" lon="26.470537">
<ele>103.508850</ele>
<time>2010-08-29T13:24:46Z</time>
<desc>lat.=56.069706, lon.=26.470537, Alt.=103.508850m. Speed=11.592000m/h.</desc>
<speed>3.220000</speed>
</trkpt>
<trkpt lat="56.069729" lon="26.470535">
<ele>103.305725</ele>
<time>2010-08-29T13:24:47Z</time>
<desc>lat.=56.069729, lon.=26.470535, Alt.=103.305725m. Speed=10.980000m/h.</desc>
<speed>3.050000</speed>
</trkpt>
<trkpt lat="56.069756" lon="26.470531">
<ele>103.014709</ele>
<time>2010-08-29T13:24:48Z</time>
<desc>lat.=56.069756, lon.=26.470531, Alt.=103.014709m. Speed=11.412000m/h.</desc>
<speed>3.170000</speed>
</trkpt>
<trkpt lat="56.069778" lon="26.470526">
<ele>103.174866</ele>
<time>2010-08-29T13:24:49Z</time>
<desc>lat.=56.069778, lon.=26.470526, Alt.=103.174866m. Speed=11.088000m/h.</desc>
<speed>3.080000</speed>
</trkpt>
<trkpt lat="56.069805" lon="26.470524">
<ele>103.008850</ele>
<time>2010-08-29T13:24:50Z</time>
<desc>lat.=56.069805, lon.=26.470524, Alt.=103.008850m. Speed=11.088000m/h.</desc>
<speed>3.080000</speed>
</trkpt>
<trkpt lat="56.069839" lon="26.470522">
<ele>102.592834</ele>
<time>2010-08-29T13:24:51Z</time>
<desc>lat.=56.069839, lon.=26.470522, Alt.=102.592834m. Speed=12.924000m/h.</desc>
<speed>3.590000</speed>
</trkpt>
<trkpt lat="56.069874" lon="26.470524">
<ele>102.639709</ele>
<time>2010-08-29T13:24:52Z</time>
<desc>lat.=56.069874, lon.=26.470524, Alt.=102.639709m. Speed=12.744000m/h.</desc>
<speed>3.540000</speed>
</trkpt>
<trkpt lat="56.069904" lon="26.470531">
<ele>102.512756</ele>
<time>2010-08-29T13:24:53Z</time>
<desc>lat.=56.069904, lon.=26.470531, Alt.=102.512756m. Speed=11.952000m/h.</desc>
<speed>3.320000</speed>
</trkpt>
<trkpt lat="56.069931" lon="26.470537">
<ele>102.354553</ele>
<time>2010-08-29T13:24:54Z</time>
<desc>lat.=56.069931, lon.=26.470537, Alt.=102.354553m. Speed=10.476000m/h.</desc>
<speed>2.910000</speed>
</trkpt>
<trkpt lat="56.069958" lon="26.470539">
<ele>101.899475</ele>
<time>2010-08-29T13:24:55Z</time>
<desc>lat.=56.069958, lon.=26.470539, Alt.=101.899475m. Speed=9.576000m/h.</desc>
<speed>2.660000</speed>
</trkpt>
<trkpt lat="56.069984" lon="26.470539">
<ele>101.575256</ele>
<time>2010-08-29T13:24:56Z</time>
<desc>lat.=56.069984, lon.=26.470539, Alt.=101.575256m. Speed=10.368000m/h.</desc>
<speed>2.880000</speed>
</trkpt>
<trkpt lat="56.070011" lon="26.470539">
<ele>101.268616</ele>
<time>2010-08-29T13:24:57Z</time>
<desc>lat.=56.070011, lon.=26.470539, Alt.=101.268616m. Speed=11.196000m/h.</desc>
<speed>3.110000</speed>
</trkpt>
<trkpt lat="56.070045" lon="26.470539">
<ele>101.077209</ele>
<time>2010-08-29T13:24:58Z</time>
<desc>lat.=56.070045, lon.=26.470539, Alt.=101.077209m. Speed=12.240000m/h.</desc>
<speed>3.400000</speed>
</trkpt>
<trkpt lat="56.070080" lon="26.470541">
<ele>101.083069</ele>
<time>2010-08-29T13:24:59Z</time>
<desc>lat.=56.070080, lon.=26.470541, Alt.=101.083069m. Speed=14.436000m/h.</desc>
<speed>4.010000</speed>
</trkpt>
<trkpt lat="56.070114" lon="26.470545">
<ele>100.856506</ele>
<time>2010-08-29T13:25:00Z</time>
<desc>lat.=56.070114, lon.=26.470545, Alt.=100.856506m. Speed=12.888000m/h.</desc>
<speed>3.580000</speed>
</trkpt>
<trkpt lat="56.070148" lon="26.470551">
<ele>101.245178</ele>
<time>2010-08-29T13:25:01Z</time>
<desc>lat.=56.070148, lon.=26.470551, Alt.=101.245178m. Speed=12.924000m/h.</desc>
<speed>3.590000</speed>
</trkpt>
<trkpt lat="56.070179" lon="26.470554">
<ele>101.870178</ele>
<time>2010-08-29T13:25:02Z</time>
<desc>lat.=56.070179, lon.=26.470554, Alt.=101.870178m. Speed=13.176000m/h.</desc>
<speed>3.660000</speed>
</trkpt>
<trkpt lat="56.070213" lon="26.470566">
<ele>102.510803</ele>
<time>2010-08-29T13:25:03Z</time>
<desc>lat.=56.070213, lon.=26.470566, Alt.=102.510803m. Speed=14.904000m/h.</desc>
<speed>4.140000</speed>
</trkpt>
<trkpt lat="56.070255" lon="26.470573">
<ele>102.776428</ele>
<time>2010-08-29T13:25:04Z</time>
<desc>lat.=56.070255, lon.=26.470573, Alt.=102.776428m. Speed=15.156000m/h.</desc>
<speed>4.210000</speed>
</trkpt>
<trkpt lat="56.070293" lon="26.470583">
<ele>102.827209</ele>
<time>2010-08-29T13:25:05Z</time>
<desc>lat.=56.070293, lon.=26.470583, Alt.=102.827209m. Speed=16.128000m/h.</desc>
<speed>4.480000</speed>
</trkpt>
<trkpt lat="56.070332" lon="26.470594">
<ele>102.635803</ele>
<time>2010-08-29T13:25:06Z</time>
<desc>lat.=56.070332, lon.=26.470594, Alt.=102.635803m. Speed=15.948000m/h.</desc>
<speed>4.430000</speed>
</trkpt>
<trkpt lat="56.070370" lon="26.470604">
<ele>102.497131</ele>
<time>2010-08-29T13:25:07Z</time>
<desc>lat.=56.070370, lon.=26.470604, Alt.=102.497131m. Speed=15.552000m/h.</desc>
<speed>4.320000</speed>
</trkpt>
<trkpt lat="56.070412" lon="26.470617">
<ele>102.928772</ele>
<time>2010-08-29T13:25:08Z</time>
<desc>lat.=56.070412, lon.=26.470617, Alt.=102.928772m. Speed=15.444000m/h.</desc>
<speed>4.290000</speed>
</trkpt>
<trkpt lat="56.070450" lon="26.470631">
<ele>102.403381</ele>
<time>2010-08-29T13:25:09Z</time>
<desc>lat.=56.070450, lon.=26.470631, Alt.=102.403381m. Speed=15.264000m/h.</desc>
<speed>4.240000</speed>
</trkpt>
<trkpt lat="56.070484" lon="26.470644">
<ele>102.340881</ele>
<time>2010-08-29T13:25:10Z</time>
<desc>lat.=56.070484, lon.=26.470644, Alt.=102.340881m. Speed=15.192000m/h.</desc>
<speed>4.220000</speed>
</trkpt>
<trkpt lat="56.070522" lon="26.470655">
<ele>102.342834</ele>
<time>2010-08-29T13:25:11Z</time>
<desc>lat.=56.070522, lon.=26.470655, Alt.=102.342834m. Speed=14.544000m/h.</desc>
<speed>4.040000</speed>
</trkpt>
<trkpt lat="56.070560" lon="26.470667">
<ele>102.288147</ele>
<time>2010-08-29T13:25:12Z</time>
<desc>lat.=56.070560, lon.=26.470667, Alt.=102.288147m. Speed=14.652000m/h.</desc>
<speed>4.070000</speed>
</trkpt>
<trkpt lat="56.070595" lon="26.470680">
<ele>102.249084</ele>
<time>2010-08-29T13:25:13Z</time>
<desc>lat.=56.070595, lon.=26.470680, Alt.=102.249084m. Speed=14.652000m/h.</desc>
<speed>4.070000</speed>
</trkpt>
<trkpt lat="56.070629" lon="26.470695">
<ele>102.127991</ele>
<time>2010-08-29T13:25:14Z</time>
<desc>lat.=56.070629, lon.=26.470695, Alt.=102.127991m. Speed=14.328000m/h.</desc>
<speed>3.980000</speed>
</trkpt>
<trkpt lat="56.070667" lon="26.470705">
<ele>102.086975</ele>
<time>2010-08-29T13:25:15Z</time>
<desc>lat.=56.070667, lon.=26.470705, Alt.=102.086975m. Speed=13.320000m/h.</desc>
<speed>3.700000</speed>
</trkpt>
<trkpt lat="56.070698" lon="26.470709">
<ele>101.952209</ele>
<time>2010-08-29T13:25:16Z</time>
<desc>lat.=56.070698, lon.=26.470709, Alt.=101.952209m. Speed=12.924000m/h.</desc>
<speed>3.590000</speed>
</trkpt>
<trkpt lat="56.070724" lon="26.470713">
<ele>101.919006</ele>
<time>2010-08-29T13:25:17Z</time>
<desc>lat.=56.070724, lon.=26.470713, Alt.=101.919006m. Speed=11.880000m/h.</desc>
<speed>3.300000</speed>
</trkpt>
<trkpt lat="56.070751" lon="26.470722">
<ele>101.858459</ele>
<time>2010-08-29T13:25:18Z</time>
<desc>lat.=56.070751, lon.=26.470722, Alt.=101.858459m. Speed=11.304000m/h.</desc>
<speed>3.140000</speed>
</trkpt>
<trkpt lat="56.070778" lon="26.470732">
<ele>101.872131</ele>
<time>2010-08-29T13:25:19Z</time>
<desc>lat.=56.070778, lon.=26.470732, Alt.=101.872131m. Speed=10.584000m/h.</desc>
<speed>2.940000</speed>
</trkpt>
<trkpt lat="56.070805" lon="26.470737">
<ele>101.768616</ele>
<time>2010-08-29T13:25:20Z</time>
<desc>lat.=56.070805, lon.=26.470737, Alt.=101.768616m. Speed=10.620000m/h.</desc>
<speed>2.950000</speed>
</trkpt>
<trkpt lat="56.070831" lon="26.470749">
<ele>101.868225</ele>
<time>2010-08-29T13:25:21Z</time>
<desc>lat.=56.070831, lon.=26.470749, Alt.=101.868225m. Speed=11.232000m/h.</desc>
<speed>3.120000</speed>
</trkpt>
<trkpt lat="56.070858" lon="26.470757">
<ele>101.981506</ele>
<time>2010-08-29T13:25:22Z</time>
<desc>lat.=56.070858, lon.=26.470757, Alt.=101.981506m. Speed=9.504000m/h.</desc>
<speed>2.640000</speed>
</trkpt>
<trkpt lat="56.070877" lon="26.470764">
<ele>101.788147</ele>
<time>2010-08-29T13:25:23Z</time>
<desc>lat.=56.070877, lon.=26.470764, Alt.=101.788147m. Speed=8.892000m/h.</desc>
<speed>2.470000</speed>
</trkpt>
<trkpt lat="56.070900" lon="26.470772">
<ele>101.874084</ele>
<time>2010-08-29T13:25:24Z</time>
<desc>lat.=56.070900, lon.=26.470772, Alt.=101.874084m. Speed=8.568000m/h.</desc>
<speed>2.380000</speed>
</trkpt>
<trkpt lat="56.070919" lon="26.470776">
<ele>101.782288</ele>
<time>2010-08-29T13:25:25Z</time>
<desc>lat.=56.070919, lon.=26.470776, Alt.=101.782288m. Speed=8.352000m/h.</desc>
<speed>2.320000</speed>
</trkpt>
<trkpt lat="56.070938" lon="26.470785">
<ele>101.774475</ele>
<time>2010-08-29T13:25:26Z</time>
<desc>lat.=56.070938, lon.=26.470785, Alt.=101.774475m. Speed=8.136000m/h.</desc>
<speed>2.260000</speed>
</trkpt>
<trkpt lat="56.070953" lon="26.470797">
<ele>101.612366</ele>
<time>2010-08-29T13:25:27Z</time>
<desc>lat.=56.070953, lon.=26.470797, Alt.=101.612366m. Speed=7.560000m/h.</desc>
<speed>2.100000</speed>
</trkpt>
<trkpt lat="56.070976" lon="26.470802">
<ele>101.620178</ele>
<time>2010-08-29T13:25:28Z</time>
<desc>lat.=56.070976, lon.=26.470802, Alt.=101.620178m. Speed=9.288000m/h.</desc>
<speed>2.580000</speed>
</trkpt>
<trkpt lat="56.070995" lon="26.470806">
<ele>101.211975</ele>
<time>2010-08-29T13:25:29Z</time>
<desc>lat.=56.070995, lon.=26.470806, Alt.=101.211975m. Speed=10.368000m/h.</desc>
<speed>2.880000</speed>
</trkpt>
<trkpt lat="56.071022" lon="26.470814">
<ele>100.862366</ele>
<time>2010-08-29T13:25:30Z</time>
<desc>lat.=56.071022, lon.=26.470814, Alt.=100.862366m. Speed=10.188000m/h.</desc>
<speed>2.830000</speed>
</trkpt>
<trkpt lat="56.071045" lon="26.470823">
<ele>100.665100</ele>
<time>2010-08-29T13:25:31Z</time>
<desc>lat.=56.071045, lon.=26.470823, Alt.=100.665100m. Speed=9.936000m/h.</desc>
<speed>2.760000</speed>
</trkpt>
<trkpt lat="56.071075" lon="26.470833">
<ele>100.590881</ele>
<time>2010-08-29T13:25:32Z</time>
<desc>lat.=56.071075, lon.=26.470833, Alt.=100.590881m. Speed=11.340000m/h.</desc>
<speed>3.150000</speed>
</trkpt>
<trkpt lat="56.071102" lon="26.470842">
<ele>100.278381</ele>
<time>2010-08-29T13:25:33Z</time>
<desc>lat.=56.071102, lon.=26.470842, Alt.=100.278381m. Speed=13.392000m/h.</desc>
<speed>3.720000</speed>
</trkpt>
<trkpt lat="56.071136" lon="26.470854">
<ele>100.184631</ele>
<time>2010-08-29T13:25:34Z</time>
<desc>lat.=56.071136, lon.=26.470854, Alt.=100.184631m. Speed=14.580000m/h.</desc>
<speed>4.050000</speed>
</trkpt>
<trkpt lat="56.071175" lon="26.470865">
<ele>100.100647</ele>
<time>2010-08-29T13:25:35Z</time>
<desc>lat.=56.071175, lon.=26.470865, Alt.=100.100647m. Speed=13.968000m/h.</desc>
<speed>3.880000</speed>
</trkpt>
<trkpt lat="56.071209" lon="26.470877">
<ele>100.301819</ele>
<time>2010-08-29T13:25:36Z</time>
<desc>lat.=56.071209, lon.=26.470877, Alt.=100.301819m. Speed=12.528000m/h.</desc>
<speed>3.480000</speed>
</trkpt>
<trkpt lat="56.071236" lon="26.470886">
<ele>100.219788</ele>
<time>2010-08-29T13:25:37Z</time>
<desc>lat.=56.071236, lon.=26.470886, Alt.=100.219788m. Speed=12.528000m/h.</desc>
<speed>3.480000</speed>
</trkpt>
<trkpt lat="56.071262" lon="26.470901">
<ele>100.286194</ele>
<time>2010-08-29T13:25:38Z</time>
<desc>lat.=56.071262, lon.=26.470901, Alt.=100.286194m. Speed=11.376000m/h.</desc>
<speed>3.160000</speed>
</trkpt>
<trkpt lat="56.071297" lon="26.470922">
<ele>100.327209</ele>
<time>2010-08-29T13:25:39Z</time>
<desc>lat.=56.071297, lon.=26.470922, Alt.=100.327209m. Speed=12.024000m/h.</desc>
<speed>3.340000</speed>
</trkpt>
<trkpt lat="56.071327" lon="26.470934">
<ele>99.719788</ele>
<time>2010-08-29T13:25:40Z</time>
<desc>lat.=56.071327, lon.=26.470934, Alt.=99.719788m. Speed=12.528000m/h.</desc>
<speed>3.480000</speed>
</trkpt>
<trkpt lat="56.071365" lon="26.470947">
<ele>100.086975</ele>
<time>2010-08-29T13:25:41Z</time>
<desc>lat.=56.071365, lon.=26.470947, Alt.=100.086975m. Speed=11.448000m/h.</desc>
<speed>3.180000</speed>
</trkpt>
<trkpt lat="56.071392" lon="26.470953">
<ele>100.200256</ele>
<time>2010-08-29T13:25:42Z</time>
<desc>lat.=56.071392, lon.=26.470953, Alt.=100.200256m. Speed=10.296000m/h.</desc>
<speed>2.860000</speed>
</trkpt>
<trkpt lat="56.071423" lon="26.470963">
<ele>100.327209</ele>
<time>2010-08-29T13:25:43Z</time>
<desc>lat.=56.071423, lon.=26.470963, Alt.=100.327209m. Speed=10.800000m/h.</desc>
<speed>3.000000</speed>
</trkpt>
<trkpt lat="56.071445" lon="26.470970">
<ele>100.364319</ele>
<time>2010-08-29T13:25:44Z</time>
<desc>lat.=56.071445, lon.=26.470970, Alt.=100.364319m. Speed=11.124000m/h.</desc>
<speed>3.090000</speed>
</trkpt>
<trkpt lat="56.071476" lon="26.470982">
<ele>100.364319</ele>
<time>2010-08-29T13:25:45Z</time>
<desc>lat.=56.071476, lon.=26.470982, Alt.=100.364319m. Speed=12.204000m/h.</desc>
<speed>3.390000</speed>
</trkpt>
<trkpt lat="56.071507" lon="26.470991">
<ele>100.227600</ele>
<time>2010-08-29T13:25:46Z</time>
<desc>lat.=56.071507, lon.=26.470991, Alt.=100.227600m. Speed=12.960000m/h.</desc>
<speed>3.600000</speed>
</trkpt>
<trkpt lat="56.071541" lon="26.470999">
<ele>100.456116</ele>
<time>2010-08-29T13:25:47Z</time>
<desc>lat.=56.071541, lon.=26.470999, Alt.=100.456116m. Speed=13.716000m/h.</desc>
<speed>3.810000</speed>
</trkpt>
<trkpt lat="56.071575" lon="26.471001">
<ele>100.534241</ele>
<time>2010-08-29T13:25:48Z</time>
<desc>lat.=56.071575, lon.=26.471001, Alt.=100.534241m. Speed=13.500000m/h.</desc>
<speed>3.750000</speed>
</trkpt>
<trkpt lat="56.071609" lon="26.471003">
<ele>100.836975</ele>
<time>2010-08-29T13:25:49Z</time>
<desc>lat.=56.071609, lon.=26.471003, Alt.=100.836975m. Speed=11.916000m/h.</desc>
<speed>3.310000</speed>
</trkpt>
<trkpt lat="56.071640" lon="26.471020">
<ele>101.223694</ele>
<time>2010-08-29T13:25:50Z</time>
<desc>lat.=56.071640, lon.=26.471020, Alt.=101.223694m. Speed=12.600000m/h.</desc>
<speed>3.500000</speed>
</trkpt>
<trkpt lat="56.071671" lon="26.471035">
<ele>101.389709</ele>
<time>2010-08-29T13:25:51Z</time>
<desc>lat.=56.071671, lon.=26.471035, Alt.=101.389709m. Speed=13.140000m/h.</desc>
<speed>3.650000</speed>
</trkpt>
<trkpt lat="56.071701" lon="26.471052">
<ele>101.590881</ele>
<time>2010-08-29T13:25:52Z</time>
<desc>lat.=56.071701, lon.=26.471052, Alt.=101.590881m. Speed=13.716000m/h.</desc>
<speed>3.810000</speed>
</trkpt>
<trkpt lat="56.071739" lon="26.471075">
<ele>101.528381</ele>
<time>2010-08-29T13:25:53Z</time>
<desc>lat.=56.071739, lon.=26.471075, Alt.=101.528381m. Speed=14.724000m/h.</desc>
<speed>4.090000</speed>
</trkpt>
<trkpt lat="56.071777" lon="26.471094">
<ele>101.381897</ele>
<time>2010-08-29T13:25:54Z</time>
<desc>lat.=56.071777, lon.=26.471094, Alt.=101.381897m. Speed=13.932000m/h.</desc>
<speed>3.870000</speed>
</trkpt>
<trkpt lat="56.071808" lon="26.471111">
<ele>101.376038</ele>
<time>2010-08-29T13:25:55Z</time>
<desc>lat.=56.071808, lon.=26.471111, Alt.=101.376038m. Speed=13.464000m/h.</desc>
<speed>3.740000</speed>
</trkpt>
<trkpt lat="56.071838" lon="26.471127">
<ele>101.186584</ele>
<time>2010-08-29T13:25:56Z</time>
<desc>lat.=56.071838, lon.=26.471127, Alt.=101.186584m. Speed=12.564000m/h.</desc>
<speed>3.490000</speed>
</trkpt>
<trkpt lat="56.071865" lon="26.471144">
<ele>101.172913</ele>
<time>2010-08-29T13:25:57Z</time>
<desc>lat.=56.071865, lon.=26.471144, Alt.=101.172913m. Speed=13.968000m/h.</desc>
<speed>3.880000</speed>
</trkpt>
<trkpt lat="56.071903" lon="26.471167">
<ele>101.122131</ele>
<time>2010-08-29T13:25:58Z</time>
<desc>lat.=56.071903, lon.=26.471167, Alt.=101.122131m. Speed=15.228000m/h.</desc>
<speed>4.230000</speed>
</trkpt>
<trkpt lat="56.071934" lon="26.471184">
<ele>100.940491</ele>
<time>2010-08-29T13:25:59Z</time>
<desc>lat.=56.071934, lon.=26.471184, Alt.=100.940491m. Speed=13.320000m/h.</desc>
<speed>3.700000</speed>
</trkpt>
<trkpt lat="56.071968" lon="26.471199">
<ele>101.063538</ele>
<time>2010-08-29T13:26:00Z</time>
<desc>lat.=56.071968, lon.=26.471199, Alt.=101.063538m. Speed=12.744000m/h.</desc>
<speed>3.540000</speed>
</trkpt>
<trkpt lat="56.071999" lon="26.471212">
<ele>101.180725</ele>
<time>2010-08-29T13:26:01Z</time>
<desc>lat.=56.071999, lon.=26.471212, Alt.=101.180725m. Speed=12.492000m/h.</desc>
<speed>3.470000</speed>
</trkpt>
<trkpt lat="56.072033" lon="26.471230">
<ele>101.126038</ele>
<time>2010-08-29T13:26:02Z</time>
<desc>lat.=56.072033, lon.=26.471230, Alt.=101.126038m. Speed=13.500000m/h.</desc>
<speed>3.750000</speed>
</trkpt>
<trkpt lat="56.072060" lon="26.471241">
<ele>101.419006</ele>
<time>2010-08-29T13:26:03Z</time>
<desc>lat.=56.072060, lon.=26.471241, Alt.=101.419006m. Speed=13.392000m/h.</desc>
<speed>3.720000</speed>
</trkpt>
<trkpt lat="56.072094" lon="26.471258">
<ele>101.641663</ele>
<time>2010-08-29T13:26:04Z</time>
<desc>lat.=56.072094, lon.=26.471258, Alt.=101.641663m. Speed=13.536000m/h.</desc>
<speed>3.760000</speed>
</trkpt>
<trkpt lat="56.072132" lon="26.471266">
<ele>101.934631</ele>
<time>2010-08-29T13:26:05Z</time>
<desc>lat.=56.072132, lon.=26.471266, Alt.=101.934631m. Speed=14.076000m/h.</desc>
<speed>3.910000</speed>
</trkpt>
<trkpt lat="56.072166" lon="26.471275">
<ele>102.042053</ele>
<time>2010-08-29T13:26:06Z</time>
<desc>lat.=56.072166, lon.=26.471275, Alt.=102.042053m. Speed=13.428000m/h.</desc>
<speed>3.730000</speed>
</trkpt>
<trkpt lat="56.072193" lon="26.471279">
<ele>102.155334</ele>
<time>2010-08-29T13:26:07Z</time>
<desc>lat.=56.072193, lon.=26.471279, Alt.=102.155334m. Speed=11.124000m/h.</desc>
<speed>3.090000</speed>
</trkpt>
<trkpt lat="56.072220" lon="26.471287">
<ele>102.247131</ele>
<time>2010-08-29T13:26:08Z</time>
<desc>lat.=56.072220, lon.=26.471287, Alt.=102.247131m. Speed=11.736000m/h.</desc>
<speed>3.260000</speed>
</trkpt>
<trkpt lat="56.072250" lon="26.471306">
<ele>102.329163</ele>
<time>2010-08-29T13:26:09Z</time>
<desc>lat.=56.072250, lon.=26.471306, Alt.=102.329163m. Speed=12.420000m/h.</desc>
<speed>3.450000</speed>
</trkpt>
<trkpt lat="56.072277" lon="26.471329">
<ele>102.573303</ele>
<time>2010-08-29T13:26:10Z</time>
<desc>lat.=56.072277, lon.=26.471329, Alt.=102.573303m. Speed=10.188000m/h.</desc>
<speed>2.830000</speed>
</trkpt>
<trkpt lat="56.072300" lon="26.471350">
<ele>102.594788</ele>
<time>2010-08-29T13:26:11Z</time>
<desc>lat.=56.072300, lon.=26.471350, Alt.=102.594788m. Speed=10.620000m/h.</desc>
<speed>2.950000</speed>
</trkpt>
<trkpt lat="56.072323" lon="26.471367">
<ele>102.719788</ele>
<time>2010-08-29T13:26:12Z</time>
<desc>lat.=56.072323, lon.=26.471367, Alt.=102.719788m. Speed=8.604000m/h.</desc>
<speed>2.390000</speed>
</trkpt>
<trkpt lat="56.072334" lon="26.471380">
<ele>102.901428</ele>
<time>2010-08-29T13:26:13Z</time>
<desc>lat.=56.072334, lon.=26.471380, Alt.=102.901428m. Speed=3.636000m/h.</desc>
<speed>1.010000</speed>
</trkpt>
<trkpt lat="56.072342" lon="26.471388">
<ele>102.463928</ele>
<time>2010-08-29T13:26:14Z</time>
<desc>lat.=56.072342, lon.=26.471388, Alt.=102.463928m. Speed=1.872000m/h.</desc>
<speed>0.520000</speed>
</trkpt>
<trkpt lat="56.072346" lon="26.471390">
<ele>102.217834</ele>
<time>2010-08-29T13:26:15Z</time>
<desc>lat.=56.072346, lon.=26.471390, Alt.=102.217834m. Speed=0.576000m/h.</desc>
<speed>0.160000</speed>
</trkpt>
<trkpt lat="56.072346" lon="26.471394">
<ele>102.413147</ele>
<time>2010-08-29T13:26:16Z</time>
<desc>lat.=56.072346, lon.=26.471394, Alt.=102.413147m. Speed=0.540000m/h.</desc>
<speed>0.150000</speed>
</trkpt>
<trkpt lat="56.072342" lon="26.471394">
<ele>102.672913</ele>
<time>2010-08-29T13:26:17Z</time>
<desc>lat.=56.072342, lon.=26.471394, Alt.=102.672913m. Speed=0.396000m/h.</desc>
<speed>0.110000</speed>
</trkpt>
<trkpt lat="56.072342" lon="26.471395">
<ele>102.678772</ele>
<time>2010-08-29T13:26:18Z</time>
<desc>lat.=56.072342, lon.=26.471395, Alt.=102.678772m. Speed=0.252000m/h.</desc>
<speed>0.070000</speed>
</trkpt>
<trkpt lat="56.072346" lon="26.471395">
<ele>102.743225</ele>
<time>2010-08-29T13:26:19Z</time>
<desc>lat.=56.072346, lon.=26.471395, Alt.=102.743225m. Speed=0.180000m/h.</desc>
<speed>0.050000</speed>
</trkpt>
<trkpt lat="56.072346" lon="26.471397">
<ele>102.776428</ele>
<time>2010-08-29T13:26:20Z</time>
<desc>lat.=56.072346, lon.=26.471397, Alt.=102.776428m. Speed=0.180000m/h.</desc>
<speed>0.050000</speed>
</trkpt>
<trkpt lat="56.072346" lon="26.471395">
<ele>102.774475</ele>
<time>2010-08-29T13:26:21Z</time>
<desc>lat.=56.072346, lon.=26.471395, Alt.=102.774475m. Speed=0.180000m/h.</desc>
<speed>0.050000</speed>
</trkpt>
<trkpt lat="56.072346" lon="26.471397">
<ele>102.774475</ele>
<time>2010-08-29T13:26:22Z</time>
<desc>lat.=56.072346, lon.=26.471397, Alt.=102.774475m. Speed=0.000000m/h.</desc>
<speed>0.000000</speed>
</trkpt>
<trkpt lat="56.072346" lon="26.471397">
<ele>102.760803</ele>
<time>2010-08-29T13:26:23Z</time>
<desc>lat.=56.072346, lon.=26.471397, Alt.=102.760803m. Speed=0.324000m/h.</desc>
<speed>0.090000</speed>
</trkpt>
<trkpt lat="56.072346" lon="26.471397">
<ele>102.756897</ele>
<time>2010-08-29T13:26:24Z</time>
<desc>lat.=56.072346, lon.=26.471397, Alt.=102.756897m. Speed=0.000000m/h.</desc>
<speed>0.000000</speed>
</trkpt>
<trkpt lat="56.072346" lon="26.471397">
<ele>102.756897</ele>
<time>2010-08-29T13:26:25Z</time>
<desc>lat.=56.072346, lon.=26.471397, Alt.=102.756897m. Speed=0.000000m/h.</desc>
<speed>0.000000</speed>
</trkpt>
<trkpt lat="56.072346" lon="26.471397">
<ele>102.751038</ele>
<time>2010-08-29T13:26:26Z</time>
<desc>lat.=56.072346, lon.=26.471397, Alt.=102.751038m. Speed=0.000000m/h.</desc>
<speed>0.000000</speed>
</trkpt>
<trkpt lat="56.072346" lon="26.471397">
<ele>102.749084</ele>
<time>2010-08-29T13:26:27Z</time>
<desc>lat.=56.072346, lon.=26.471397, Alt.=102.749084m. Speed=0.000000m/h.</desc>
<speed>0.000000</speed>
</trkpt>
<trkpt lat="56.072346" lon="26.471397">
<ele>102.749084</ele>
<time>2010-08-29T13:26:28Z</time>
<desc>lat.=56.072346, lon.=26.471397, Alt.=102.749084m. Speed=0.000000m/h.</desc>
<speed>0.000000</speed>
</trkpt>
<trkpt lat="56.072346" lon="26.471397">
<ele>102.758850</ele>
<time>2010-08-29T13:26:29Z</time>
<desc>lat.=56.072346, lon.=26.471397, Alt.=102.758850m. Speed=0.000000m/h.</desc>
<speed>0.000000</speed>
</trkpt>
<trkpt lat="56.072346" lon="26.471397">
<ele>102.758850</ele>
<time>2010-08-29T13:26:30Z</time>
<desc>lat.=56.072346, lon.=26.471397, Alt.=102.758850m. Speed=0.036000m/h.</desc>
<speed>0.010000</speed>
</trkpt>
<trkpt lat="56.072346" lon="26.471397">
<ele>102.751038</ele>
<time>2010-08-29T13:26:31Z</time>
<desc>lat.=56.072346, lon.=26.471397, Alt.=102.751038m. Speed=0.036000m/h.</desc>
<speed>0.010000</speed>
</trkpt>
<trkpt lat="56.072346" lon="26.471397">
<ele>102.735413</ele>
<time>2010-08-29T13:26:32Z</time>
<desc>lat.=56.072346, lon.=26.471397, Alt.=102.735413m. Speed=0.000000m/h.</desc>
<speed>0.000000</speed>
</trkpt>
<trkpt lat="56.072346" lon="26.471397">
<ele>102.708069</ele>
<time>2010-08-29T13:26:33Z</time>
<desc>lat.=56.072346, lon.=26.471397, Alt.=102.708069m. Speed=0.072000m/h.</desc>
<speed>0.020000</speed>
</trkpt>
<trkpt lat="56.072346" lon="26.471397">
<ele>102.690491</ele>
<time>2010-08-29T13:26:34Z</time>
<desc>lat.=56.072346, lon.=26.471397, Alt.=102.690491m. Speed=0.216000m/h.</desc>
<speed>0.060000</speed>
</trkpt>
<trkpt lat="56.072346" lon="26.471395">
<ele>102.665100</ele>
<time>2010-08-29T13:26:35Z</time>
<desc>lat.=56.072346, lon.=26.471395, Alt.=102.665100m. Speed=0.036000m/h.</desc>
<speed>0.010000</speed>
</trkpt>
<trkpt lat="56.072346" lon="26.471395">
<ele>102.649475</ele>
<time>2010-08-29T13:26:36Z</time>
<desc>lat.=56.072346, lon.=26.471395, Alt.=102.649475m. Speed=0.288000m/h.</desc>
<speed>0.080000</speed>
</trkpt>
<trkpt lat="56.072346" lon="26.471395">
<ele>102.641663</ele>
<time>2010-08-29T13:26:37Z</time>
<desc>lat.=56.072346, lon.=26.471395, Alt.=102.641663m. Speed=0.144000m/h.</desc>
<speed>0.040000</speed>
</trkpt>
<trkpt lat="56.072346" lon="26.471397">
<ele>102.631897</ele>
<time>2010-08-29T13:26:38Z</time>
<desc>lat.=56.072346, lon.=26.471397, Alt.=102.631897m. Speed=0.252000m/h.</desc>
<speed>0.070000</speed>
</trkpt>
<trkpt lat="56.072346" lon="26.471395">
<ele>102.629944</ele>
<time>2010-08-29T13:26:39Z</time>
<desc>lat.=56.072346, lon.=26.471395, Alt.=102.629944m. Speed=0.432000m/h.</desc>
<speed>0.120000</speed>
</trkpt>
<trkpt lat="56.072346" lon="26.471397">
<ele>102.633850</ele>
<time>2010-08-29T13:26:40Z</time>
<desc>lat.=56.072346, lon.=26.471397, Alt.=102.633850m. Speed=0.360000m/h.</desc>
<speed>0.100000</speed>
</trkpt>
<trkpt lat="56.072346" lon="26.471395">
<ele>102.618225</ele>
<time>2010-08-29T13:26:41Z</time>
<desc>lat.=56.072346, lon.=26.471395, Alt.=102.618225m. Speed=0.756000m/h.</desc>
<speed>0.210000</speed>
</trkpt>
<trkpt lat="56.072346" lon="26.471397">
<ele>102.600647</ele>
<time>2010-08-29T13:26:42Z</time>
<desc>lat.=56.072346, lon.=26.471397, Alt.=102.600647m. Speed=0.396000m/h.</desc>
<speed>0.110000</speed>
</trkpt>
<trkpt lat="56.072350" lon="26.471399">
<ele>102.598694</ele>
<time>2010-08-29T13:26:43Z</time>
<desc>lat.=56.072350, lon.=26.471399, Alt.=102.598694m. Speed=0.324000m/h.</desc>
<speed>0.090000</speed>
</trkpt>
<trkpt lat="56.072346" lon="26.471397">
<ele>102.608459</ele>
<time>2010-08-29T13:26:44Z</time>
<desc>lat.=56.072346, lon.=26.471397, Alt.=102.608459m. Speed=0.360000m/h.</desc>
<speed>0.100000</speed>
</trkpt>
<trkpt lat="56.072346" lon="26.471397">
<ele>102.629944</ele>
<time>2010-08-29T13:26:45Z</time>
<desc>lat.=56.072346, lon.=26.471397, Alt.=102.629944m. Speed=0.684000m/h.</desc>
<speed>0.190000</speed>
</trkpt>
<trkpt lat="56.072346" lon="26.471399">
<ele>102.659241</ele>
<time>2010-08-29T13:26:46Z</time>
<desc>lat.=56.072346, lon.=26.471399, Alt.=102.659241m. Speed=0.576000m/h.</desc>
<speed>0.160000</speed>
</trkpt>
<trkpt lat="56.072342" lon="26.471399">
<ele>102.700256</ele>
<time>2010-08-29T13:26:47Z</time>
<desc>lat.=56.072342, lon.=26.471399, Alt.=102.700256m. Speed=0.900000m/h.</desc>
<speed>0.250000</speed>
</trkpt>
<trkpt lat="56.072342" lon="26.471399">
<ele>102.751038</ele>
<time>2010-08-29T13:26:48Z</time>
<desc>lat.=56.072342, lon.=26.471399, Alt.=102.751038m. Speed=1.044000m/h.</desc>
<speed>0.290000</speed>
</trkpt>
<trkpt lat="56.072338" lon="26.471399">
<ele>102.795959</ele>
<time>2010-08-29T13:26:49Z</time>
<desc>lat.=56.072338, lon.=26.471399, Alt.=102.795959m. Speed=0.936000m/h.</desc>
<speed>0.260000</speed>
</trkpt>
<trkpt lat="56.072334" lon="26.471397">
<ele>102.833069</ele>
<time>2010-08-29T13:26:50Z</time>
<desc>lat.=56.072334, lon.=26.471397, Alt.=102.833069m. Speed=0.900000m/h.</desc>
<speed>0.250000</speed>
</trkpt>
<trkpt lat="56.072334" lon="26.471399">
<ele>102.874084</ele>
<time>2010-08-29T13:26:51Z</time>
<desc>lat.=56.072334, lon.=26.471399, Alt.=102.874084m. Speed=0.576000m/h.</desc>
<speed>0.160000</speed>
</trkpt>
<trkpt lat="56.072330" lon="26.471399">
<ele>102.911194</ele>
<time>2010-08-29T13:26:52Z</time>
<desc>lat.=56.072330, lon.=26.471399, Alt.=102.911194m. Speed=0.288000m/h.</desc>
<speed>0.080000</speed>
</trkpt>
<trkpt lat="56.072330" lon="26.471399">
<ele>102.950256</ele>
<time>2010-08-29T13:26:53Z</time>
<desc>lat.=56.072330, lon.=26.471399, Alt.=102.950256m. Speed=0.324000m/h.</desc>
<speed>0.090000</speed>
</trkpt>
<trkpt lat="56.072330" lon="26.471399">
<ele>102.993225</ele>
<time>2010-08-29T13:26:54Z</time>
<desc>lat.=56.072330, lon.=26.471399, Alt.=102.993225m. Speed=0.144000m/h.</desc>
<speed>0.040000</speed>
</trkpt>
<trkpt lat="56.072330" lon="26.471401">
<ele>103.040100</ele>
<time>2010-08-29T13:26:55Z</time>
<desc>lat.=56.072330, lon.=26.471401, Alt.=103.040100m. Speed=0.000000m/h.</desc>
<speed>0.000000</speed>
</trkpt>
<trkpt lat="56.072330" lon="26.471401">
<ele>103.086975</ele>
<time>2010-08-29T13:26:56Z</time>
<desc>lat.=56.072330, lon.=26.471401, Alt.=103.086975m. Speed=0.072000m/h.</desc>
<speed>0.020000</speed>
</trkpt>
<trkpt lat="56.072330" lon="26.471399">
<ele>103.129944</ele>
<time>2010-08-29T13:26:57Z</time>
<desc>lat.=56.072330, lon.=26.471399, Alt.=103.129944m. Speed=0.216000m/h.</desc>
<speed>0.060000</speed>
</trkpt>
<trkpt lat="56.072330" lon="26.471401">
<ele>103.176819</ele>
<time>2010-08-29T13:26:58Z</time>
<desc>lat.=56.072330, lon.=26.471401, Alt.=103.176819m. Speed=0.648000m/h.</desc>
<speed>0.180000</speed>
</trkpt>
<trkpt lat="56.072330" lon="26.471403">
<ele>103.237366</ele>
<time>2010-08-29T13:26:59Z</time>
<desc>lat.=56.072330, lon.=26.471403, Alt.=103.237366m. Speed=0.360000m/h.</desc>
<speed>0.100000</speed>
</trkpt>
<trkpt lat="56.072330" lon="26.471403">
<ele>103.292053</ele>
<time>2010-08-29T13:27:00Z</time>
<desc>lat.=56.072330, lon.=26.471403, Alt.=103.292053m. Speed=0.396000m/h.</desc>
<speed>0.110000</speed>
</trkpt>
<trkpt lat="56.072327" lon="26.471403">
<ele>103.344788</ele>
<time>2010-08-29T13:27:01Z</time>
<desc>lat.=56.072327, lon.=26.471403, Alt.=103.344788m. Speed=0.396000m/h.</desc>
<speed>0.110000</speed>
</trkpt>
<trkpt lat="56.072327" lon="26.471403">
<ele>103.407288</ele>
<time>2010-08-29T13:27:02Z</time>
<desc>lat.=56.072327, lon.=26.471403, Alt.=103.407288m. Speed=0.576000m/h.</desc>
<speed>0.160000</speed>
</trkpt>
<trkpt lat="56.072327" lon="26.471403">
<ele>103.467834</ele>
<time>2010-08-29T13:27:03Z</time>
<desc>lat.=56.072327, lon.=26.471403, Alt.=103.467834m. Speed=0.864000m/h.</desc>
<speed>0.240000</speed>
</trkpt>
<trkpt lat="56.072323" lon="26.471405">
<ele>103.520569</ele>
<time>2010-08-29T13:27:04Z</time>
<desc>lat.=56.072323, lon.=26.471405, Alt.=103.520569m. Speed=0.576000m/h.</desc>
<speed>0.160000</speed>
</trkpt>
<trkpt lat="56.072323" lon="26.471407">
<ele>103.565491</ele>
<time>2010-08-29T13:27:05Z</time>
<desc>lat.=56.072323, lon.=26.471407, Alt.=103.565491m. Speed=1.296000m/h.</desc>
<speed>0.360000</speed>
</trkpt>
<trkpt lat="56.072323" lon="26.471413">
<ele>103.608459</ele>
<time>2010-08-29T13:27:06Z</time>
<desc>lat.=56.072323, lon.=26.471413, Alt.=103.608459m. Speed=3.312000m/h.</desc>
<speed>0.920000</speed>
</trkpt>
<trkpt lat="56.072330" lon="26.471426">
<ele>103.659241</ele>
<time>2010-08-29T13:27:07Z</time>
<desc>lat.=56.072330, lon.=26.471426, Alt.=103.659241m. Speed=4.212000m/h.</desc>
<speed>1.170000</speed>
</trkpt>
<trkpt lat="56.072346" lon="26.471439">
<ele>103.678772</ele>
<time>2010-08-29T13:27:08Z</time>
<desc>lat.=56.072346, lon.=26.471439, Alt.=103.678772m. Speed=4.788000m/h.</desc>
<speed>1.330000</speed>
</trkpt>
<trkpt lat="56.072357" lon="26.471441">
<ele>103.624084</ele>
<time>2010-08-29T13:27:09Z</time>
<desc>lat.=56.072357, lon.=26.471441, Alt.=103.624084m. Speed=5.436000m/h.</desc>
<speed>1.510000</speed>
</trkpt>
<trkpt lat="56.072372" lon="26.471457">
<ele>103.741272</ele>
<time>2010-08-29T13:27:10Z</time>
<desc>lat.=56.072372, lon.=26.471457, Alt.=103.741272m. Speed=5.904000m/h.</desc>
<speed>1.640000</speed>
</trkpt>
<trkpt lat="56.072388" lon="26.471464">
<ele>103.913147</ele>
<time>2010-08-29T13:27:11Z</time>
<desc>lat.=56.072388, lon.=26.471464, Alt.=103.913147m. Speed=5.868000m/h.</desc>
<speed>1.630000</speed>
</trkpt>
<trkpt lat="56.072392" lon="26.471487">
<ele>104.174866</ele>
<time>2010-08-29T13:27:12Z</time>
<desc>lat.=56.072392, lon.=26.471487, Alt.=104.174866m. Speed=3.780000m/h.</desc>
<speed>1.050000</speed>
</trkpt>
<trkpt lat="56.072403" lon="26.471500">
<ele>104.356506</ele>
<time>2010-08-29T13:27:13Z</time>
<desc>lat.=56.072403, lon.=26.471500, Alt.=104.356506m. Speed=5.796000m/h.</desc>
<speed>1.610000</speed>
</trkpt>
<trkpt lat="56.072411" lon="26.471523">
<ele>104.491272</ele>
<time>2010-08-29T13:27:14Z</time>
<desc>lat.=56.072411, lon.=26.471523, Alt.=104.491272m. Speed=6.228000m/h.</desc>
<speed>1.730000</speed>
</trkpt>
<trkpt lat="56.072426" lon="26.471546">
<ele>104.588928</ele>
<time>2010-08-29T13:27:15Z</time>
<desc>lat.=56.072426, lon.=26.471546, Alt.=104.588928m. Speed=9.756000m/h.</desc>
<speed>2.710000</speed>
</trkpt>
<trkpt lat="56.072449" lon="26.471581">
<ele>105.315491</ele>
<time>2010-08-29T13:27:16Z</time>
<desc>lat.=56.072449, lon.=26.471581, Alt.=105.315491m. Speed=7.308000m/h.</desc>
<speed>2.030000</speed>
</trkpt>
<trkpt lat="56.072456" lon="26.471603">
<ele>105.542053</ele>
<time>2010-08-29T13:27:17Z</time>
<desc>lat.=56.072456, lon.=26.471603, Alt.=105.542053m. Speed=7.920000m/h.</desc>
<speed>2.200000</speed>
</trkpt>
<trkpt lat="56.072475" lon="26.471634">
<ele>105.676819</ele>
<time>2010-08-29T13:27:18Z</time>
<desc>lat.=56.072475, lon.=26.471634, Alt.=105.676819m. Speed=9.468000m/h.</desc>
<speed>2.630000</speed>
</trkpt>
<trkpt lat="56.072495" lon="26.471661">
<ele>105.969788</ele>
<time>2010-08-29T13:27:19Z</time>
<desc>lat.=56.072495, lon.=26.471661, Alt.=105.969788m. Speed=7.956000m/h.</desc>
<speed>2.210000</speed>
</trkpt>
<trkpt lat="56.072514" lon="26.471684">
<ele>106.262756</ele>
<time>2010-08-29T13:27:20Z</time>
<desc>lat.=56.072514, lon.=26.471684, Alt.=106.262756m. Speed=8.244000m/h.</desc>
<speed>2.290000</speed>
</trkpt>
<trkpt lat="56.072536" lon="26.471708">
<ele>106.592834</ele>
<time>2010-08-29T13:27:21Z</time>
<desc>lat.=56.072536, lon.=26.471708, Alt.=106.592834m. Speed=7.452000m/h.</desc>
<speed>2.070000</speed>
</trkpt>
<trkpt lat="56.072559" lon="26.471750">
<ele>106.180725</ele>
<time>2010-08-29T13:27:22Z</time>
<desc>lat.=56.072559, lon.=26.471750, Alt.=106.180725m. Speed=10.368000m/h.</desc>
<speed>2.880000</speed>
</trkpt>
<trkpt lat="56.072582" lon="26.471767">
<ele>106.391663</ele>
<time>2010-08-29T13:27:23Z</time>
<desc>lat.=56.072582, lon.=26.471767, Alt.=106.391663m. Speed=9.072000m/h.</desc>
<speed>2.520000</speed>
</trkpt>
<trkpt lat="56.072594" lon="26.471798">
<ele>106.708069</ele>
<time>2010-08-29T13:27:24Z</time>
<desc>lat.=56.072594, lon.=26.471798, Alt.=106.708069m. Speed=7.308000m/h.</desc>
<speed>2.030000</speed>
</trkpt>
<trkpt lat="56.072605" lon="26.471828">
<ele>107.208069</ele>
<time>2010-08-29T13:27:25Z</time>
<desc>lat.=56.072605, lon.=26.471828, Alt.=107.208069m. Speed=7.488000m/h.</desc>
<speed>2.080000</speed>
</trkpt>
<trkpt lat="56.072617" lon="26.471849">
<ele>107.627991</ele>
<time>2010-08-29T13:27:26Z</time>
<desc>lat.=56.072617, lon.=26.471849, Alt.=107.627991m. Speed=8.064000m/h.</desc>
<speed>2.240000</speed>
</trkpt>
<trkpt lat="56.072636" lon="26.471876">
<ele>107.991272</ele>
<time>2010-08-29T13:27:27Z</time>
<desc>lat.=56.072636, lon.=26.471876, Alt.=107.991272m. Speed=8.496000m/h.</desc>
<speed>2.360000</speed>
</trkpt>
<trkpt lat="56.072647" lon="26.471903">
<ele>108.497131</ele>
<time>2010-08-29T13:27:28Z</time>
<desc>lat.=56.072647, lon.=26.471903, Alt.=108.497131m. Speed=8.676000m/h.</desc>
<speed>2.410000</speed>
</trkpt>
<trkpt lat="56.072651" lon="26.471954">
<ele>109.217834</ele>
<time>2010-08-29T13:27:29Z</time>
<desc>lat.=56.072651, lon.=26.471954, Alt.=109.217834m. Speed=8.460000m/h.</desc>
<speed>2.350000</speed>
</trkpt>
<trkpt lat="56.072662" lon="26.471996">
<ele>110.245178</ele>
<time>2010-08-29T13:27:30Z</time>
<desc>lat.=56.072662, lon.=26.471996, Alt.=110.245178m. Speed=9.144000m/h.</desc>
<speed>2.540000</speed>
</trkpt>
<trkpt lat="56.072670" lon="26.472025">
<ele>110.934631</ele>
<time>2010-08-29T13:27:31Z</time>
<desc>lat.=56.072670, lon.=26.472025, Alt.=110.934631m. Speed=4.932000m/h.</desc>
<speed>1.370000</speed>
</trkpt>
<trkpt lat="56.072678" lon="26.472052">
<ele>111.360413</ele>
<time>2010-08-29T13:27:32Z</time>
<desc>lat.=56.072678, lon.=26.472052, Alt.=111.360413m. Speed=6.300000m/h.</desc>
<speed>1.750000</speed>
</trkpt>
<trkpt lat="56.072716" lon="26.472115">
<ele>113.870178</ele>
<time>2010-08-29T13:27:33Z</time>
<desc>lat.=56.072716, lon.=26.472115, Alt.=113.870178m. Speed=8.136000m/h.</desc>
<speed>2.260000</speed>
</trkpt>
<trkpt lat="56.072723" lon="26.472139">
<ele>114.461975</ele>
<time>2010-08-29T13:27:34Z</time>
<desc>lat.=56.072723, lon.=26.472139, Alt.=114.461975m. Speed=4.680000m/h.</desc>
<speed>1.300000</speed>
</trkpt>
<trkpt lat="56.072735" lon="26.472158">
<ele>115.157288</ele>
<time>2010-08-29T13:27:35Z</time>
<desc>lat.=56.072735, lon.=26.472158, Alt.=115.157288m. Speed=6.336000m/h.</desc>
<speed>1.760000</speed>
</trkpt>
<trkpt lat="56.072754" lon="26.472189">
<ele>116.145569</ele>
<time>2010-08-29T13:27:36Z</time>
<desc>lat.=56.072754, lon.=26.472189, Alt.=116.145569m. Speed=8.496000m/h.</desc>
<speed>2.360000</speed>
</trkpt>
<trkpt lat="56.072762" lon="26.472214">
<ele>116.868225</ele>
<time>2010-08-29T13:27:37Z</time>
<desc>lat.=56.072762, lon.=26.472214, Alt.=116.868225m. Speed=5.076000m/h.</desc>
<speed>1.410000</speed>
</trkpt>
<trkpt lat="56.072781" lon="26.472263">
<ele>118.491272</ele>
<time>2010-08-29T13:27:38Z</time>
<desc>lat.=56.072781, lon.=26.472263, Alt.=118.491272m. Speed=5.616000m/h.</desc>
<speed>1.560000</speed>
</trkpt>
<trkpt lat="56.072781" lon="26.472282">
<ele>119.251038</ele>
<time>2010-08-29T13:27:39Z</time>
<desc>lat.=56.072781, lon.=26.472282, Alt.=119.251038m. Speed=4.536000m/h.</desc>
<speed>1.260000</speed>
</trkpt>
<trkpt lat="56.072788" lon="26.472300">
<ele>119.948303</ele>
<time>2010-08-29T13:27:40Z</time>
<desc>lat.=56.072788, lon.=26.472300, Alt.=119.948303m. Speed=2.376000m/h.</desc>
<speed>0.660000</speed>
</trkpt>
<trkpt lat="56.072792" lon="26.472311">
<ele>120.411194</ele>
<time>2010-08-29T13:27:41Z</time>
<desc>lat.=56.072792, lon.=26.472311, Alt.=120.411194m. Speed=2.412000m/h.</desc>
<speed>0.670000</speed>
</trkpt>
<trkpt lat="56.072800" lon="26.472332">
<ele>119.288147</ele>
<time>2010-08-29T13:27:42Z</time>
<desc>lat.=56.072800, lon.=26.472332, Alt.=119.288147m. Speed=4.320000m/h.</desc>
<speed>1.200000</speed>
</trkpt>
<trkpt lat="56.072823" lon="26.472342">
<ele>119.678772</ele>
<time>2010-08-29T13:27:43Z</time>
<desc>lat.=56.072823, lon.=26.472342, Alt.=119.678772m. Speed=6.552000m/h.</desc>
<speed>1.820000</speed>
</trkpt>
<trkpt lat="56.072830" lon="26.472345">
<ele>120.155334</ele>
<time>2010-08-29T13:27:44Z</time>
<desc>lat.=56.072830, lon.=26.472345, Alt.=120.155334m. Speed=3.852000m/h.</desc>
<speed>1.070000</speed>
</trkpt>
<trkpt lat="56.072853" lon="26.472353">
<ele>120.610413</ele>
<time>2010-08-29T13:27:45Z</time>
<desc>lat.=56.072853, lon.=26.472353, Alt.=120.610413m. Speed=7.668000m/h.</desc>
<speed>2.130000</speed>
</trkpt>
<trkpt lat="56.072868" lon="26.472359">
<ele>121.395569</ele>
<time>2010-08-29T13:27:46Z</time>
<desc>lat.=56.072868, lon.=26.472359, Alt.=121.395569m. Speed=4.500000m/h.</desc>
<speed>1.250000</speed>
</trkpt>
<trkpt lat="56.072884" lon="26.472364">
<ele>121.530334</ele>
<time>2010-08-29T13:27:47Z</time>
<desc>lat.=56.072884, lon.=26.472364, Alt.=121.530334m. Speed=3.492000m/h.</desc>
<speed>0.970000</speed>
</trkpt>
<trkpt lat="56.072918" lon="26.472380">
<ele>119.686584</ele>
<time>2010-08-29T13:27:48Z</time>
<desc>lat.=56.072918, lon.=26.472380, Alt.=119.686584m. Speed=5.760000m/h.</desc>
<speed>1.600000</speed>
</trkpt>
<trkpt lat="56.072952" lon="26.472410">
<ele>120.489319</ele>
<time>2010-08-29T13:27:49Z</time>
<desc>lat.=56.072952, lon.=26.472410, Alt.=120.489319m. Speed=6.840000m/h.</desc>
<speed>1.900000</speed>
</trkpt>
<trkpt lat="56.073025" lon="26.472452">
<ele>121.987366</ele>
<time>2010-08-29T13:27:50Z</time>
<desc>lat.=56.073025, lon.=26.472452, Alt.=121.987366m. Speed=9.252000m/h.</desc>
<speed>2.570000</speed>
</trkpt>
<trkpt lat="56.073048" lon="26.472466">
<ele>122.592834</ele>
<time>2010-08-29T13:27:51Z</time>
<desc>lat.=56.073048, lon.=26.472466, Alt.=122.592834m. Speed=5.796000m/h.</desc>
<speed>1.610000</speed>
</trkpt>
<trkpt lat="56.073063" lon="26.472475">
<ele>123.188538</ele>
<time>2010-08-29T13:27:52Z</time>
<desc>lat.=56.073063, lon.=26.472475, Alt.=123.188538m. Speed=4.680000m/h.</desc>
<speed>1.300000</speed>
</trkpt>
<trkpt lat="56.073090" lon="26.472488">
<ele>122.200256</ele>
<time>2010-08-29T13:27:53Z</time>
<desc>lat.=56.073090, lon.=26.472488, Alt.=122.200256m. Speed=2.448000m/h.</desc>
<speed>0.680000</speed>
</trkpt>
<trkpt lat="56.073093" lon="26.472483">
<ele>122.444397</ele>
<time>2010-08-29T13:27:54Z</time>
<desc>lat.=56.073093, lon.=26.472483, Alt.=122.444397m. Speed=1.440000m/h.</desc>
<speed>0.400000</speed>
</trkpt>
<trkpt lat="56.073109" lon="26.472477">
<ele>122.991272</ele>
<time>2010-08-29T13:27:55Z</time>
<desc>lat.=56.073109, lon.=26.472477, Alt.=122.991272m. Speed=3.672000m/h.</desc>
<speed>1.020000</speed>
</trkpt>
<trkpt lat="56.073116" lon="26.472473">
<ele>123.544006</ele>
<time>2010-08-29T13:27:56Z</time>
<desc>lat.=56.073116, lon.=26.472473, Alt.=123.544006m. Speed=3.024000m/h.</desc>
<speed>0.840000</speed>
</trkpt>
<trkpt lat="56.073124" lon="26.472492">
<ele>124.071350</ele>
<time>2010-08-29T13:27:57Z</time>
<desc>lat.=56.073124, lon.=26.472492, Alt.=124.071350m. Speed=2.664000m/h.</desc>
<speed>0.740000</speed>
</trkpt>
<trkpt lat="56.073116" lon="26.472492">
<ele>122.686584</ele>
<time>2010-08-29T13:27:58Z</time>
<desc>lat.=56.073116, lon.=26.472492, Alt.=122.686584m. Speed=2.880000m/h.</desc>
<speed>0.800000</speed>
</trkpt>
<trkpt lat="56.073124" lon="26.472486">
<ele>122.588928</ele>
<time>2010-08-29T13:27:59Z</time>
<desc>lat.=56.073124, lon.=26.472486, Alt.=122.588928m. Speed=2.520000m/h.</desc>
<speed>0.700000</speed>
</trkpt>
<trkpt lat="56.073132" lon="26.472488">
<ele>123.024475</ele>
<time>2010-08-29T13:28:00Z</time>
<desc>lat.=56.073132, lon.=26.472488, Alt.=123.024475m. Speed=2.304000m/h.</desc>
<speed>0.640000</speed>
</trkpt>
<trkpt lat="56.073135" lon="26.472481">
<ele>123.389709</ele>
<time>2010-08-29T13:28:01Z</time>
<desc>lat.=56.073135, lon.=26.472481, Alt.=123.389709m. Speed=1.944000m/h.</desc>
<speed>0.540000</speed>
</trkpt>
<trkpt lat="56.073135" lon="26.472481">
<ele>123.764709</ele>
<time>2010-08-29T13:28:02Z</time>
<desc>lat.=56.073135, lon.=26.472481, Alt.=123.764709m. Speed=1.224000m/h.</desc>
<speed>0.340000</speed>
</trkpt>
<trkpt lat="56.073143" lon="26.472479">
<ele>124.145569</ele>
<time>2010-08-29T13:28:03Z</time>
<desc>lat.=56.073143, lon.=26.472479, Alt.=124.145569m. Speed=1.152000m/h.</desc>
<speed>0.320000</speed>
</trkpt>
<trkpt lat="56.073132" lon="26.472467">
<ele>122.567444</ele>
<time>2010-08-29T13:28:04Z</time>
<desc>lat.=56.073132, lon.=26.472467, Alt.=122.567444m. Speed=0.324000m/h.</desc>
<speed>0.090000</speed>
</trkpt>
<trkpt lat="56.073132" lon="26.472466">
<ele>122.795959</ele>
<time>2010-08-29T13:28:05Z</time>
<desc>lat.=56.073132, lon.=26.472466, Alt.=122.795959m. Speed=0.288000m/h.</desc>
<speed>0.080000</speed>
</trkpt>
<trkpt lat="56.073132" lon="26.472464">
<ele>121.987366</ele>
<time>2010-08-29T13:28:06Z</time>
<desc>lat.=56.073132, lon.=26.472464, Alt.=121.987366m. Speed=0.108000m/h.</desc>
<speed>0.030000</speed>
</trkpt>
<trkpt lat="56.073135" lon="26.472466">
<ele>121.981506</ele>
<time>2010-08-29T13:28:07Z</time>
<desc>lat.=56.073135, lon.=26.472466, Alt.=121.981506m. Speed=0.072000m/h.</desc>
<speed>0.020000</speed>
</trkpt>
<trkpt lat="56.073135" lon="26.472466">
<ele>122.163147</ele>
<time>2010-08-29T13:28:08Z</time>
<desc>lat.=56.073135, lon.=26.472466, Alt.=122.163147m. Speed=0.144000m/h.</desc>
<speed>0.040000</speed>
</trkpt>
<trkpt lat="56.073135" lon="26.472467">
<ele>122.346741</ele>
<time>2010-08-29T13:28:09Z</time>
<desc>lat.=56.073135, lon.=26.472467, Alt.=122.346741m. Speed=0.144000m/h.</desc>
<speed>0.040000</speed>
</trkpt>
<trkpt lat="56.073135" lon="26.472467">
<ele>122.526428</ele>
<time>2010-08-29T13:28:10Z</time>
<desc>lat.=56.073135, lon.=26.472467, Alt.=122.526428m. Speed=0.252000m/h.</desc>
<speed>0.070000</speed>
</trkpt>
<trkpt lat="56.073135" lon="26.472467">
<ele>122.708069</ele>
<time>2010-08-29T13:28:11Z</time>
<desc>lat.=56.073135, lon.=26.472467, Alt.=122.708069m. Speed=1.332000m/h.</desc>
<speed>0.370000</speed>
</trkpt>
<trkpt lat="56.073143" lon="26.472473">
<ele>123.010803</ele>
<time>2010-08-29T13:28:12Z</time>
<desc>lat.=56.073143, lon.=26.472473, Alt.=123.010803m. Speed=1.332000m/h.</desc>
<speed>0.370000</speed>
</trkpt>
<trkpt lat="56.073147" lon="26.472475">
<ele>123.221741</ele>
<time>2010-08-29T13:28:13Z</time>
<desc>lat.=56.073147, lon.=26.472475, Alt.=123.221741m. Speed=1.368000m/h.</desc>
<speed>0.380000</speed>
</trkpt>
<trkpt lat="56.073151" lon="26.472477">
<ele>123.495178</ele>
<time>2010-08-29T13:28:14Z</time>
<desc>lat.=56.073151, lon.=26.472477, Alt.=123.495178m. Speed=1.404000m/h.</desc>
<speed>0.390000</speed>
</trkpt>
<trkpt lat="56.073154" lon="26.472479">
<ele>123.768616</ele>
<time>2010-08-29T13:28:15Z</time>
<desc>lat.=56.073154, lon.=26.472479, Alt.=123.768616m. Speed=1.440000m/h.</desc>
<speed>0.400000</speed>
</trkpt>
<trkpt lat="56.073166" lon="26.472496">
<ele>124.139709</ele>
<time>2010-08-29T13:28:16Z</time>
<desc>lat.=56.073166, lon.=26.472496, Alt.=124.139709m. Speed=1.800000m/h.</desc>
<speed>0.500000</speed>
</trkpt>
<trkpt lat="56.073174" lon="26.472500">
<ele>123.989319</ele>
<time>2010-08-29T13:28:17Z</time>
<desc>lat.=56.073174, lon.=26.472500, Alt.=123.989319m. Speed=2.304000m/h.</desc>
<speed>0.640000</speed>
</trkpt>
<trkpt lat="56.073189" lon="26.472521">
<ele>123.717834</ele>
<time>2010-08-29T13:28:18Z</time>
<desc>lat.=56.073189, lon.=26.472521, Alt.=123.717834m. Speed=1.620000m/h.</desc>
<speed>0.450000</speed>
</trkpt>
<trkpt lat="56.073193" lon="26.472530">
<ele>123.993225</ele>
<time>2010-08-29T13:28:19Z</time>
<desc>lat.=56.073193, lon.=26.472530, Alt.=123.993225m. Speed=1.368000m/h.</desc>
<speed>0.380000</speed>
</trkpt>
<trkpt lat="56.073200" lon="26.472551">
<ele>124.151428</ele>
<time>2010-08-29T13:28:20Z</time>
<desc>lat.=56.073200, lon.=26.472551, Alt.=124.151428m. Speed=1.368000m/h.</desc>
<speed>0.380000</speed>
</trkpt>
<trkpt lat="56.073204" lon="26.472561">
<ele>124.188538</ele>
<time>2010-08-29T13:28:21Z</time>
<desc>lat.=56.073204, lon.=26.472561, Alt.=124.188538m. Speed=1.584000m/h.</desc>
<speed>0.440000</speed>
</trkpt>
<trkpt lat="56.073204" lon="26.472569">
<ele>124.239319</ele>
<time>2010-08-29T13:28:22Z</time>
<desc>lat.=56.073204, lon.=26.472569, Alt.=124.239319m. Speed=1.404000m/h.</desc>
<speed>0.390000</speed>
</trkpt>
<trkpt lat="56.073208" lon="26.472574">
<ele>123.987366</ele>
<time>2010-08-29T13:28:23Z</time>
<desc>lat.=56.073208, lon.=26.472574, Alt.=123.987366m. Speed=0.864000m/h.</desc>
<speed>0.240000</speed>
</trkpt>
<trkpt lat="56.073208" lon="26.472582">
<ele>122.991272</ele>
<time>2010-08-29T13:28:24Z</time>
<desc>lat.=56.073208, lon.=26.472582, Alt.=122.991272m. Speed=0.360000m/h.</desc>
<speed>0.100000</speed>
</trkpt>
<trkpt lat="56.073208" lon="26.472588">
<ele>122.448303</ele>
<time>2010-08-29T13:28:25Z</time>
<desc>lat.=56.073208, lon.=26.472588, Alt.=122.448303m. Speed=0.288000m/h.</desc>
<speed>0.080000</speed>
</trkpt>
<trkpt lat="56.073208" lon="26.472593">
<ele>122.151428</ele>
<time>2010-08-29T13:28:26Z</time>
<desc>lat.=56.073208, lon.=26.472593, Alt.=122.151428m. Speed=0.360000m/h.</desc>
<speed>0.100000</speed>
</trkpt>
<trkpt lat="56.073208" lon="26.472593">
<ele>122.260803</ele>
<time>2010-08-29T13:28:27Z</time>
<desc>lat.=56.073208, lon.=26.472593, Alt.=122.260803m. Speed=0.288000m/h.</desc>
<speed>0.080000</speed>
</trkpt>
<trkpt lat="56.073208" lon="26.472595">
<ele>122.340881</ele>
<time>2010-08-29T13:28:28Z</time>
<desc>lat.=56.073208, lon.=26.472595, Alt.=122.340881m. Speed=0.144000m/h.</desc>
<speed>0.040000</speed>
</trkpt>
<trkpt lat="56.073208" lon="26.472595">
<ele>122.403381</ele>
<time>2010-08-29T13:28:29Z</time>
<desc>lat.=56.073208, lon.=26.472595, Alt.=122.403381m. Speed=0.576000m/h.</desc>
<speed>0.160000</speed>
</trkpt>
<trkpt lat="56.073208" lon="26.472597">
<ele>122.463928</ele>
<time>2010-08-29T13:28:30Z</time>
<desc>lat.=56.073208, lon.=26.472597, Alt.=122.463928m. Speed=0.468000m/h.</desc>
<speed>0.130000</speed>
</trkpt>
<trkpt lat="56.073212" lon="26.472599">
<ele>122.524475</ele>
<time>2010-08-29T13:28:31Z</time>
<desc>lat.=56.073212, lon.=26.472599, Alt.=122.524475m. Speed=0.144000m/h.</desc>
<speed>0.040000</speed>
</trkpt>
<trkpt lat="56.073208" lon="26.472599">
<ele>122.575256</ele>
<time>2010-08-29T13:28:32Z</time>
<desc>lat.=56.073208, lon.=26.472599, Alt.=122.575256m. Speed=0.576000m/h.</desc>
<speed>0.160000</speed>
</trkpt>
<trkpt lat="56.073212" lon="26.472601">
<ele>122.606506</ele>
<time>2010-08-29T13:28:33Z</time>
<desc>lat.=56.073212, lon.=26.472601, Alt.=122.606506m. Speed=0.576000m/h.</desc>
<speed>0.160000</speed>
</trkpt>
<trkpt lat="56.073212" lon="26.472601">
<ele>122.629944</ele>
<time>2010-08-29T13:28:34Z</time>
<desc>lat.=56.073212, lon.=26.472601, Alt.=122.629944m. Speed=0.684000m/h.</desc>
<speed>0.190000</speed>
</trkpt>
<trkpt lat="56.073215" lon="26.472603">
<ele>122.651428</ele>
<time>2010-08-29T13:28:35Z</time>
<desc>lat.=56.073215, lon.=26.472603, Alt.=122.651428m. Speed=0.612000m/h.</desc>
<speed>0.170000</speed>
</trkpt>
<trkpt lat="56.073215" lon="26.472605">
<ele>122.672913</ele>
<time>2010-08-29T13:28:36Z</time>
<desc>lat.=56.073215, lon.=26.472605, Alt.=122.672913m. Speed=0.540000m/h.</desc>
<speed>0.150000</speed>
</trkpt>
<trkpt lat="56.073215" lon="26.472607">
<ele>122.686584</ele>
<time>2010-08-29T13:28:37Z</time>
<desc>lat.=56.073215, lon.=26.472607, Alt.=122.686584m. Speed=1.044000m/h.</desc>
<speed>0.290000</speed>
</trkpt>
<trkpt lat="56.073215" lon="26.472612">
<ele>122.704163</ele>
<time>2010-08-29T13:28:38Z</time>
<desc>lat.=56.073215, lon.=26.472612, Alt.=122.704163m. Speed=2.664000m/h.</desc>
<speed>0.740000</speed>
</trkpt>
<trkpt lat="56.073223" lon="26.472620">
<ele>122.795959</ele>
<time>2010-08-29T13:28:39Z</time>
<desc>lat.=56.073223, lon.=26.472620, Alt.=122.795959m. Speed=2.376000m/h.</desc>
<speed>0.660000</speed>
</trkpt>
<trkpt lat="56.073219" lon="26.472641">
<ele>122.311584</ele>
<time>2010-08-29T13:28:40Z</time>
<desc>lat.=56.073219, lon.=26.472641, Alt.=122.311584m. Speed=2.340000m/h.</desc>
<speed>0.650000</speed>
</trkpt>
<trkpt lat="56.073227" lon="26.472656">
<ele>121.922913</ele>
<time>2010-08-29T13:28:41Z</time>
<desc>lat.=56.073227, lon.=26.472656, Alt.=121.922913m. Speed=2.340000m/h.</desc>
<speed>0.650000</speed>
</trkpt>
<trkpt lat="56.073227" lon="26.472666">
<ele>121.729553</ele>
<time>2010-08-29T13:28:42Z</time>
<desc>lat.=56.073227, lon.=26.472666, Alt.=121.729553m. Speed=1.908000m/h.</desc>
<speed>0.530000</speed>
</trkpt>
<trkpt lat="56.073238" lon="26.472670">
<ele>121.544006</ele>
<time>2010-08-29T13:28:43Z</time>
<desc>lat.=56.073238, lon.=26.472670, Alt.=121.544006m. Speed=1.980000m/h.</desc>
<speed>0.550000</speed>
</trkpt>
<trkpt lat="56.073242" lon="26.472683">
<ele>121.497131</ele>
<time>2010-08-29T13:28:44Z</time>
<desc>lat.=56.073242, lon.=26.472683, Alt.=121.497131m. Speed=2.160000m/h.</desc>
<speed>0.600000</speed>
</trkpt>
<trkpt lat="56.073242" lon="26.472692">
<ele>121.442444</ele>
<time>2010-08-29T13:28:45Z</time>
<desc>lat.=56.073242, lon.=26.472692, Alt.=121.442444m. Speed=1.908000m/h.</desc>
<speed>0.530000</speed>
</trkpt>
<trkpt lat="56.073250" lon="26.472702">
<ele>121.372131</ele>
<time>2010-08-29T13:28:46Z</time>
<desc>lat.=56.073250, lon.=26.472702, Alt.=121.372131m. Speed=1.908000m/h.</desc>
<speed>0.530000</speed>
</trkpt>
<trkpt lat="56.073261" lon="26.472717">
<ele>121.235413</ele>
<time>2010-08-29T13:28:47Z</time>
<desc>lat.=56.073261, lon.=26.472717, Alt.=121.235413m. Speed=2.340000m/h.</desc>
<speed>0.650000</speed>
</trkpt>
<trkpt lat="56.073273" lon="26.472725">
<ele>120.969788</ele>
<time>2010-08-29T13:28:48Z</time>
<desc>lat.=56.073273, lon.=26.472725, Alt.=120.969788m. Speed=2.772000m/h.</desc>
<speed>0.770000</speed>
</trkpt>
<trkpt lat="56.073284" lon="26.472723">
<ele>120.596741</ele>
<time>2010-08-29T13:28:49Z</time>
<desc>lat.=56.073284, lon.=26.472723, Alt.=120.596741m. Speed=2.916000m/h.</desc>
<speed>0.810000</speed>
</trkpt>
<trkpt lat="56.073299" lon="26.472717">
<ele>120.407288</ele>
<time>2010-08-29T13:28:50Z</time>
<desc>lat.=56.073299, lon.=26.472717, Alt.=120.407288m. Speed=2.952000m/h.</desc>
<speed>0.820000</speed>
</trkpt>
<trkpt lat="56.073315" lon="26.472721">
<ele>120.188538</ele>
<time>2010-08-29T13:28:51Z</time>
<desc>lat.=56.073315, lon.=26.472721, Alt.=120.188538m. Speed=3.276000m/h.</desc>
<speed>0.910000</speed>
</trkpt>
<trkpt lat="56.073341" lon="26.472729">
<ele>119.874084</ele>
<time>2010-08-29T13:28:52Z</time>
<desc>lat.=56.073341, lon.=26.472729, Alt.=119.874084m. Speed=3.780000m/h.</desc>
<speed>1.050000</speed>
</trkpt>
<trkpt lat="56.073364" lon="26.472734">
<ele>119.641663</ele>
<time>2010-08-29T13:28:53Z</time>
<desc>lat.=56.073364, lon.=26.472734, Alt.=119.641663m. Speed=4.248000m/h.</desc>
<speed>1.180000</speed>
</trkpt>
<trkpt lat="56.073380" lon="26.472729">
<ele>119.526428</ele>
<time>2010-08-29T13:28:54Z</time>
<desc>lat.=56.073380, lon.=26.472729, Alt.=119.526428m. Speed=4.248000m/h.</desc>
<speed>1.180000</speed>
</trkpt>
<trkpt lat="56.073391" lon="26.472734">
<ele>119.454163</ele>
<time>2010-08-29T13:28:55Z</time>
<desc>lat.=56.073391, lon.=26.472734, Alt.=119.454163m. Speed=4.428000m/h.</desc>
<speed>1.230000</speed>
</trkpt>
<trkpt lat="56.073421" lon="26.472746">
<ele>119.266663</ele>
<time>2010-08-29T13:28:56Z</time>
<desc>lat.=56.073421, lon.=26.472746, Alt.=119.266663m. Speed=4.896000m/h.</desc>
<speed>1.360000</speed>
</trkpt>
<trkpt lat="56.073452" lon="26.472790">
<ele>120.176819</ele>
<time>2010-08-29T13:28:57Z</time>
<desc>lat.=56.073452, lon.=26.472790, Alt.=120.176819m. Speed=4.572000m/h.</desc>
<speed>1.270000</speed>
</trkpt>
<trkpt lat="56.073463" lon="26.472807">
<ele>120.366272</ele>
<time>2010-08-29T13:28:58Z</time>
<desc>lat.=56.073463, lon.=26.472807, Alt.=120.366272m. Speed=4.140000m/h.</desc>
<speed>1.150000</speed>
</trkpt>
<trkpt lat="56.073486" lon="26.472815">
<ele>120.127991</ele>
<time>2010-08-29T13:28:59Z</time>
<desc>lat.=56.073486, lon.=26.472815, Alt.=120.127991m. Speed=4.284000m/h.</desc>
<speed>1.190000</speed>
</trkpt>
<trkpt lat="56.073509" lon="26.472818">
<ele>119.831116</ele>
<time>2010-08-29T13:29:00Z</time>
<desc>lat.=56.073509, lon.=26.472818, Alt.=119.831116m. Speed=4.428000m/h.</desc>
<speed>1.230000</speed>
</trkpt>
<trkpt lat="56.073532" lon="26.472820">
<ele>119.536194</ele>
<time>2010-08-29T13:29:01Z</time>
<desc>lat.=56.073532, lon.=26.472820, Alt.=119.536194m. Speed=4.464000m/h.</desc>
<speed>1.240000</speed>
</trkpt>
<trkpt lat="56.073547" lon="26.472818">
<ele>119.323303</ele>
<time>2010-08-29T13:29:02Z</time>
<desc>lat.=56.073547, lon.=26.472818, Alt.=119.323303m. Speed=3.852000m/h.</desc>
<speed>1.070000</speed>
</trkpt>
<trkpt lat="56.073566" lon="26.472816">
<ele>119.122131</ele>
<time>2010-08-29T13:29:03Z</time>
<desc>lat.=56.073566, lon.=26.472816, Alt.=119.122131m. Speed=4.176000m/h.</desc>
<speed>1.160000</speed>
</trkpt>
<trkpt lat="56.073582" lon="26.472815">
<ele>118.604553</ele>
<time>2010-08-29T13:29:04Z</time>
<desc>lat.=56.073582, lon.=26.472815, Alt.=118.604553m. Speed=5.328000m/h.</desc>
<speed>1.480000</speed>
</trkpt>
<trkpt lat="56.073601" lon="26.472815">
<ele>118.436584</ele>
<time>2010-08-29T13:29:05Z</time>
<desc>lat.=56.073601, lon.=26.472815, Alt.=118.436584m. Speed=5.904000m/h.</desc>
<speed>1.640000</speed>
</trkpt>
<trkpt lat="56.073620" lon="26.472813">
<ele>118.055725</ele>
<time>2010-08-29T13:29:06Z</time>
<desc>lat.=56.073620, lon.=26.472813, Alt.=118.055725m. Speed=8.820000m/h.</desc>
<speed>2.450000</speed>
</trkpt>
<trkpt lat="56.073647" lon="26.472813">
<ele>117.794006</ele>
<time>2010-08-29T13:29:07Z</time>
<desc>lat.=56.073647, lon.=26.472813, Alt.=117.794006m. Speed=9.468000m/h.</desc>
<speed>2.630000</speed>
</trkpt>
<trkpt lat="56.073673" lon="26.472805">
<ele>117.542053</ele>
<time>2010-08-29T13:29:08Z</time>
<desc>lat.=56.073673, lon.=26.472805, Alt.=117.542053m. Speed=6.444000m/h.</desc>
<speed>1.790000</speed>
</trkpt>
<trkpt lat="56.073692" lon="26.472801">
<ele>117.487366</ele>
<time>2010-08-29T13:29:09Z</time>
<desc>lat.=56.073692, lon.=26.472801, Alt.=117.487366m. Speed=6.948000m/h.</desc>
<speed>1.930000</speed>
</trkpt>
<trkpt lat="56.073708" lon="26.472782">
<ele>117.272522</ele>
<time>2010-08-29T13:29:10Z</time>
<desc>lat.=56.073708, lon.=26.472782, Alt.=117.272522m. Speed=7.632000m/h.</desc>
<speed>2.120000</speed>
</trkpt>
<trkpt lat="56.073727" lon="26.472780">
<ele>116.913147</ele>
<time>2010-08-29T13:29:11Z</time>
<desc>lat.=56.073727, lon.=26.472780, Alt.=116.913147m. Speed=4.932000m/h.</desc>
<speed>1.370000</speed>
</trkpt>
<trkpt lat="56.073734" lon="26.472801">
<ele>116.094788</ele>
<time>2010-08-29T13:29:12Z</time>
<desc>lat.=56.073734, lon.=26.472801, Alt.=116.094788m. Speed=9.720000m/h.</desc>
<speed>2.700000</speed>
</trkpt>
<trkpt lat="56.073780" lon="26.472803">
<ele>115.727600</ele>
<time>2010-08-29T13:29:13Z</time>
<desc>lat.=56.073780, lon.=26.472803, Alt.=115.727600m. Speed=12.024000m/h.</desc>
<speed>3.340000</speed>
</trkpt>
<trkpt lat="56.073811" lon="26.472832">
<ele>115.432678</ele>
<time>2010-08-29T13:29:14Z</time>
<desc>lat.=56.073811, lon.=26.472832, Alt.=115.432678m. Speed=12.924000m/h.</desc>
<speed>3.590000</speed>
</trkpt>
<trkpt lat="56.073841" lon="26.472860">
<ele>115.208069</ele>
<time>2010-08-29T13:29:15Z</time>
<desc>lat.=56.073841, lon.=26.472860, Alt.=115.208069m. Speed=14.940000m/h.</desc>
<speed>4.150000</speed>
</trkpt>
<trkpt lat="56.073868" lon="26.472906">
<ele>115.047913</ele>
<time>2010-08-29T13:29:16Z</time>
<desc>lat.=56.073868, lon.=26.472906, Alt.=115.047913m. Speed=11.664000m/h.</desc>
<speed>3.240000</speed>
</trkpt>
<trkpt lat="56.073902" lon="26.472973">
<ele>114.995178</ele>
<time>2010-08-29T13:29:17Z</time>
<desc>lat.=56.073902, lon.=26.472973, Alt.=114.995178m. Speed=11.952000m/h.</desc>
<speed>3.320000</speed>
</trkpt>
<trkpt lat="56.073925" lon="26.473024">
<ele>115.026428</ele>
<time>2010-08-29T13:29:18Z</time>
<desc>lat.=56.073925, lon.=26.473024, Alt.=115.026428m. Speed=10.872000m/h.</desc>
<speed>3.020000</speed>
</trkpt>
<trkpt lat="56.073952" lon="26.473082">
<ele>114.711975</ele>
<time>2010-08-29T13:29:19Z</time>
<desc>lat.=56.073952, lon.=26.473082, Alt.=114.711975m. Speed=11.052000m/h.</desc>
<speed>3.070000</speed>
</trkpt>
<trkpt lat="56.073975" lon="26.473125">
<ele>114.573303</ele>
<time>2010-08-29T13:29:20Z</time>
<desc>lat.=56.073975, lon.=26.473125, Alt.=114.573303m. Speed=8.388000m/h.</desc>
<speed>2.330000</speed>
</trkpt>
<trkpt lat="56.074005" lon="26.473183">
<ele>114.169006</ele>
<time>2010-08-29T13:29:21Z</time>
<desc>lat.=56.074005, lon.=26.473183, Alt.=114.169006m. Speed=9.756000m/h.</desc>
<speed>2.710000</speed>
</trkpt>
<trkpt lat="56.074036" lon="26.473232">
<ele>113.877991</ele>
<time>2010-08-29T13:29:22Z</time>
<desc>lat.=56.074036, lon.=26.473232, Alt.=113.877991m. Speed=9.972000m/h.</desc>
<speed>2.770000</speed>
</trkpt>
<trkpt lat="56.074055" lon="26.473276">
<ele>113.438538</ele>
<time>2010-08-29T13:29:23Z</time>
<desc>lat.=56.074055, lon.=26.473276, Alt.=113.438538m. Speed=10.584000m/h.</desc>
<speed>2.940000</speed>
</trkpt>
<trkpt lat="56.074085" lon="26.473324">
<ele>113.133850</ele>
<time>2010-08-29T13:29:24Z</time>
<desc>lat.=56.074085, lon.=26.473324, Alt.=113.133850m. Speed=11.880000m/h.</desc>
<speed>3.300000</speed>
</trkpt>
<trkpt lat="56.074112" lon="26.473379">
<ele>113.147522</ele>
<time>2010-08-29T13:29:25Z</time>
<desc>lat.=56.074112, lon.=26.473379, Alt.=113.147522m. Speed=11.628000m/h.</desc>
<speed>3.230000</speed>
</trkpt>
<trkpt lat="56.074131" lon="26.473440">
<ele>113.198303</ele>
<time>2010-08-29T13:29:26Z</time>
<desc>lat.=56.074131, lon.=26.473440, Alt.=113.198303m. Speed=12.636000m/h.</desc>
<speed>3.510000</speed>
</trkpt>
<trkpt lat="56.074162" lon="26.473480">
<ele>111.635803</ele>
<time>2010-08-29T13:29:27Z</time>
<desc>lat.=56.074162, lon.=26.473480, Alt.=111.635803m. Speed=13.248000m/h.</desc>
<speed>3.680000</speed>
</trkpt>
<trkpt lat="56.074184" lon="26.473524">
<ele>111.325256</ele>
<time>2010-08-29T13:29:28Z</time>
<desc>lat.=56.074184, lon.=26.473524, Alt.=111.325256m. Speed=11.556000m/h.</desc>
<speed>3.210000</speed>
</trkpt>
<trkpt lat="56.074234" lon="26.473572">
<ele>111.071350</ele>
<time>2010-08-29T13:29:29Z</time>
<desc>lat.=56.074234, lon.=26.473572, Alt.=111.071350m. Speed=9.468000m/h.</desc>
<speed>2.630000</speed>
</trkpt>
<trkpt lat="56.074272" lon="26.473625">
<ele>111.549866</ele>
<time>2010-08-29T13:29:30Z</time>
<desc>lat.=56.074272, lon.=26.473625, Alt.=111.549866m. Speed=8.532000m/h.</desc>
<speed>2.370000</speed>
</trkpt>
<trkpt lat="56.074280" lon="26.473658">
<ele>110.551819</ele>
<time>2010-08-29T13:29:31Z</time>
<desc>lat.=56.074280, lon.=26.473658, Alt.=110.551819m. Speed=5.616000m/h.</desc>
<speed>1.560000</speed>
</trkpt>
<trkpt lat="56.074303" lon="26.473694">
<ele>110.085022</ele>
<time>2010-08-29T13:29:32Z</time>
<desc>lat.=56.074303, lon.=26.473694, Alt.=110.085022m. Speed=8.532000m/h.</desc>
<speed>2.370000</speed>
</trkpt>
<trkpt lat="56.074326" lon="26.473732">
<ele>110.133850</ele>
<time>2010-08-29T13:29:33Z</time>
<desc>lat.=56.074326, lon.=26.473732, Alt.=110.133850m. Speed=9.180000m/h.</desc>
<speed>2.550000</speed>
</trkpt>
<trkpt lat="56.074348" lon="26.473780">
<ele>109.227600</ele>
<time>2010-08-29T13:29:34Z</time>
<desc>lat.=56.074348, lon.=26.473780, Alt.=109.227600m. Speed=10.008000m/h.</desc>
<speed>2.780000</speed>
</trkpt>
<trkpt lat="56.074345" lon="26.473824">
<ele>106.436584</ele>
<time>2010-08-29T13:29:35Z</time>
<desc>lat.=56.074345, lon.=26.473824, Alt.=106.436584m. Speed=10.080000m/h.</desc>
<speed>2.800000</speed>
</trkpt>
<trkpt lat="56.074368" lon="26.473871">
<ele>105.936584</ele>
<time>2010-08-29T13:29:36Z</time>
<desc>lat.=56.074368, lon.=26.473871, Alt.=105.936584m. Speed=10.512000m/h.</desc>
<speed>2.920000</speed>
</trkpt>
<trkpt lat="56.074406" lon="26.473930">
<ele>106.920959</ele>
<time>2010-08-29T13:29:37Z</time>
<desc>lat.=56.074406, lon.=26.473930, Alt.=106.920959m. Speed=12.636000m/h.</desc>
<speed>3.510000</speed>
</trkpt>
<trkpt lat="56.074432" lon="26.473969">
<ele>106.489319</ele>
<time>2010-08-29T13:29:38Z</time>
<desc>lat.=56.074432, lon.=26.473969, Alt.=106.489319m. Speed=10.620000m/h.</desc>
<speed>2.950000</speed>
</trkpt>
<trkpt lat="56.074451" lon="26.474020">
<ele>106.002991</ele>
<time>2010-08-29T13:29:39Z</time>
<desc>lat.=56.074451, lon.=26.474020, Alt.=106.002991m. Speed=10.836000m/h.</desc>
<speed>3.010000</speed>
</trkpt>
<trkpt lat="56.074467" lon="26.474083">
<ele>106.051819</ele>
<time>2010-08-29T13:29:40Z</time>
<desc>lat.=56.074467, lon.=26.474083, Alt.=106.051819m. Speed=9.252000m/h.</desc>
<speed>2.570000</speed>
</trkpt>
<trkpt lat="56.074486" lon="26.474123">
<ele>105.813538</ele>
<time>2010-08-29T13:29:41Z</time>
<desc>lat.=56.074486, lon.=26.474123, Alt.=105.813538m. Speed=9.720000m/h.</desc>
<speed>2.700000</speed>
</trkpt>
<trkpt lat="56.074497" lon="26.474155">
<ele>104.311584</ele>
<time>2010-08-29T13:29:42Z</time>
<desc>lat.=56.074497, lon.=26.474155, Alt.=104.311584m. Speed=9.684000m/h.</desc>
<speed>2.690000</speed>
</trkpt>
<trkpt lat="56.074516" lon="26.474184">
<ele>103.667053</ele>
<time>2010-08-29T13:29:43Z</time>
<desc>lat.=56.074516, lon.=26.474184, Alt.=103.667053m. Speed=9.468000m/h.</desc>
<speed>2.630000</speed>
</trkpt>
<trkpt lat="56.074532" lon="26.474207">
<ele>103.085022</ele>
<time>2010-08-29T13:29:44Z</time>
<desc>lat.=56.074532, lon.=26.474207, Alt.=103.085022m. Speed=7.920000m/h.</desc>
<speed>2.200000</speed>
</trkpt>
<trkpt lat="56.074554" lon="26.474236">
<ele>103.053772</ele>
<time>2010-08-29T13:29:45Z</time>
<desc>lat.=56.074554, lon.=26.474236, Alt.=103.053772m. Speed=7.560000m/h.</desc>
<speed>2.100000</speed>
</trkpt>
<trkpt lat="56.074574" lon="26.474270">
<ele>103.696350</ele>
<time>2010-08-29T13:29:46Z</time>
<desc>lat.=56.074574, lon.=26.474270, Alt.=103.696350m. Speed=9.216000m/h.</desc>
<speed>2.560000</speed>
</trkpt>
<trkpt lat="56.074593" lon="26.474298">
<ele>103.774475</ele>
<time>2010-08-29T13:29:47Z</time>
<desc>lat.=56.074593, lon.=26.474298, Alt.=103.774475m. Speed=8.640000m/h.</desc>
<speed>2.400000</speed>
</trkpt>
<trkpt lat="56.074642" lon="26.474344">
<ele>108.145569</ele>
<time>2010-08-29T13:29:48Z</time>
<desc>lat.=56.074642, lon.=26.474344, Alt.=108.145569m. Speed=8.892000m/h.</desc>
<speed>2.470000</speed>
</trkpt>
<trkpt lat="56.074673" lon="26.474382">
<ele>111.358459</ele>
<time>2010-08-29T13:29:49Z</time>
<desc>lat.=56.074673, lon.=26.474382, Alt.=111.358459m. Speed=8.388000m/h.</desc>
<speed>2.330000</speed>
</trkpt>
<trkpt lat="56.074696" lon="26.474407">
<ele>112.008850</ele>
<time>2010-08-29T13:29:50Z</time>
<desc>lat.=56.074696, lon.=26.474407, Alt.=112.008850m. Speed=8.244000m/h.</desc>
<speed>2.290000</speed>
</trkpt>
<trkpt lat="56.074696" lon="26.474428">
<ele>110.598694</ele>
<time>2010-08-29T13:29:51Z</time>
<desc>lat.=56.074696, lon.=26.474428, Alt.=110.598694m. Speed=6.120000m/h.</desc>
<speed>1.700000</speed>
</trkpt>
<trkpt lat="56.074715" lon="26.474455">
<ele>111.301819</ele>
<time>2010-08-29T13:29:52Z</time>
<desc>lat.=56.074715, lon.=26.474455, Alt.=111.301819m. Speed=7.092000m/h.</desc>
<speed>1.970000</speed>
</trkpt>
<trkpt lat="56.074734" lon="26.474483">
<ele>111.794006</ele>
<time>2010-08-29T13:29:53Z</time>
<desc>lat.=56.074734, lon.=26.474483, Alt.=111.794006m. Speed=7.704000m/h.</desc>
<speed>2.140000</speed>
</trkpt>
<trkpt lat="56.074753" lon="26.474508">
<ele>112.530334</ele>
<time>2010-08-29T13:29:54Z</time>
<desc>lat.=56.074753, lon.=26.474508, Alt.=112.530334m. Speed=7.200000m/h.</desc>
<speed>2.000000</speed>
</trkpt>
<trkpt lat="56.074772" lon="26.474539">
<ele>113.557678</ele>
<time>2010-08-29T13:29:55Z</time>
<desc>lat.=56.074772, lon.=26.474539, Alt.=113.557678m. Speed=8.964000m/h.</desc>
<speed>2.490000</speed>
</trkpt>
<trkpt lat="56.074799" lon="26.474581">
<ele>115.116272</ele>
<time>2010-08-29T13:29:56Z</time>
<desc>lat.=56.074799, lon.=26.474581, Alt.=115.116272m. Speed=10.404000m/h.</desc>
<speed>2.890000</speed>
</trkpt>
<trkpt lat="56.074818" lon="26.474609">
<ele>115.604553</ele>
<time>2010-08-29T13:29:57Z</time>
<desc>lat.=56.074818, lon.=26.474609, Alt.=115.604553m. Speed=9.360000m/h.</desc>
<speed>2.600000</speed>
</trkpt>
<trkpt lat="56.074841" lon="26.474640">
<ele>116.692444</ele>
<time>2010-08-29T13:29:58Z</time>
<desc>lat.=56.074841, lon.=26.474640, Alt.=116.692444m. Speed=8.964000m/h.</desc>
<speed>2.490000</speed>
</trkpt>
<trkpt lat="56.074860" lon="26.474670">
<ele>117.342834</ele>
<time>2010-08-29T13:29:59Z</time>
<desc>lat.=56.074860, lon.=26.474670, Alt.=117.342834m. Speed=8.676000m/h.</desc>
<speed>2.410000</speed>
</trkpt>
<trkpt lat="56.074879" lon="26.474697">
<ele>117.598694</ele>
<time>2010-08-29T13:30:00Z</time>
<desc>lat.=56.074879, lon.=26.474697, Alt.=117.598694m. Speed=9.684000m/h.</desc>
<speed>2.690000</speed>
</trkpt>
<trkpt lat="56.074890" lon="26.474741">
<ele>118.889709</ele>
<time>2010-08-29T13:30:01Z</time>
<desc>lat.=56.074890, lon.=26.474741, Alt.=118.889709m. Speed=10.044000m/h.</desc>
<speed>2.790000</speed>
</trkpt>
<trkpt lat="56.074905" lon="26.474791">
<ele>120.399475</ele>
<time>2010-08-29T13:30:02Z</time>
<desc>lat.=56.074905, lon.=26.474791, Alt.=120.399475m. Speed=10.080000m/h.</desc>
<speed>2.800000</speed>
</trkpt>
<trkpt lat="56.074928" lon="26.474846">
<ele>122.036194</ele>
<time>2010-08-29T13:30:03Z</time>
<desc>lat.=56.074928, lon.=26.474846, Alt.=122.036194m. Speed=12.060000m/h.</desc>
<speed>3.350000</speed>
</trkpt>
<trkpt lat="56.074936" lon="26.474894">
<ele>121.719788</ele>
<time>2010-08-29T13:30:04Z</time>
<desc>lat.=56.074936, lon.=26.474894, Alt.=121.719788m. Speed=10.008000m/h.</desc>
<speed>2.780000</speed>
</trkpt>
<trkpt lat="56.074940" lon="26.474945">
<ele>121.051819</ele>
<time>2010-08-29T13:30:05Z</time>
<desc>lat.=56.074940, lon.=26.474945, Alt.=121.051819m. Speed=8.712000m/h.</desc>
<speed>2.420000</speed>
</trkpt>
<trkpt lat="56.074947" lon="26.474998">
<ele>121.004944</ele>
<time>2010-08-29T13:30:06Z</time>
<desc>lat.=56.074947, lon.=26.474998, Alt.=121.004944m. Speed=8.748000m/h.</desc>
<speed>2.430000</speed>
</trkpt>
<trkpt lat="56.074959" lon="26.475044">
<ele>120.586975</ele>
<time>2010-08-29T13:30:07Z</time>
<desc>lat.=56.074959, lon.=26.475044, Alt.=120.586975m. Speed=9.972000m/h.</desc>
<speed>2.770000</speed>
</trkpt>
<trkpt lat="56.074974" lon="26.475103">
<ele>121.772522</ele>
<time>2010-08-29T13:30:08Z</time>
<desc>lat.=56.074974, lon.=26.475103, Alt.=121.772522m. Speed=10.980000m/h.</desc>
<speed>3.050000</speed>
</trkpt>
<trkpt lat="56.074986" lon="26.475155">
<ele>123.004944</ele>
<time>2010-08-29T13:30:09Z</time>
<desc>lat.=56.074986, lon.=26.475155, Alt.=123.004944m. Speed=10.368000m/h.</desc>
<speed>2.880000</speed>
</trkpt>
<trkpt lat="56.075005" lon="26.475208">
<ele>123.356506</ele>
<time>2010-08-29T13:30:10Z</time>
<desc>lat.=56.075005, lon.=26.475208, Alt.=123.356506m. Speed=10.872000m/h.</desc>
<speed>3.020000</speed>
</trkpt>
<trkpt lat="56.075027" lon="26.475260">
<ele>125.083069</ele>
<time>2010-08-29T13:30:11Z</time>
<desc>lat.=56.075027, lon.=26.475260, Alt.=125.083069m. Speed=9.000000m/h.</desc>
<speed>2.500000</speed>
</trkpt>
<trkpt lat="56.075054" lon="26.475296">
<ele>126.012756</ele>
<time>2010-08-29T13:30:12Z</time>
<desc>lat.=56.075054, lon.=26.475296, Alt.=126.012756m. Speed=10.548000m/h.</desc>
<speed>2.930000</speed>
</trkpt>
<trkpt lat="56.075077" lon="26.475332">
<ele>126.895569</ele>
<time>2010-08-29T13:30:13Z</time>
<desc>lat.=56.075077, lon.=26.475332, Alt.=126.895569m. Speed=9.360000m/h.</desc>
<speed>2.600000</speed>
</trkpt>
<trkpt lat="56.075081" lon="26.475363">
<ele>127.135803</ele>
<time>2010-08-29T13:30:14Z</time>
<desc>lat.=56.075081, lon.=26.475363, Alt.=127.135803m. Speed=6.444000m/h.</desc>
<speed>1.790000</speed>
</trkpt>
<trkpt lat="56.075108" lon="26.475403">
<ele>128.466919</ele>
<time>2010-08-29T13:30:15Z</time>
<desc>lat.=56.075108, lon.=26.475403, Alt.=128.466919m. Speed=9.360000m/h.</desc>
<speed>2.600000</speed>
</trkpt>
<trkpt lat="56.075130" lon="26.475435">
<ele>128.505981</ele>
<time>2010-08-29T13:30:16Z</time>
<desc>lat.=56.075130, lon.=26.475435, Alt.=128.505981m. Speed=9.216000m/h.</desc>
<speed>2.560000</speed>
</trkpt>
<trkpt lat="56.075153" lon="26.475458">
<ele>129.138794</ele>
<time>2010-08-29T13:30:17Z</time>
<desc>lat.=56.075153, lon.=26.475458, Alt.=129.138794m. Speed=7.992000m/h.</desc>
<speed>2.220000</speed>
</trkpt>
<trkpt lat="56.075172" lon="26.475485">
<ele>129.189575</ele>
<time>2010-08-29T13:30:18Z</time>
<desc>lat.=56.075172, lon.=26.475485, Alt.=129.189575m. Speed=10.332000m/h.</desc>
<speed>2.870000</speed>
</trkpt>
<trkpt lat="56.075184" lon="26.475527">
<ele>127.370178</ele>
<time>2010-08-29T13:30:19Z</time>
<desc>lat.=56.075184, lon.=26.475527, Alt.=127.370178m. Speed=8.784000m/h.</desc>
<speed>2.440000</speed>
</trkpt>
<trkpt lat="56.075207" lon="26.475561">
<ele>126.292053</ele>
<time>2010-08-29T13:30:20Z</time>
<desc>lat.=56.075207, lon.=26.475561, Alt.=126.292053m. Speed=8.712000m/h.</desc>
<speed>2.420000</speed>
</trkpt>
<trkpt lat="56.075226" lon="26.475588">
<ele>125.292053</ele>
<time>2010-08-29T13:30:21Z</time>
<desc>lat.=56.075226, lon.=26.475588, Alt.=125.292053m. Speed=6.984000m/h.</desc>
<speed>1.940000</speed>
</trkpt>
<trkpt lat="56.075237" lon="26.475615">
<ele>123.764709</ele>
<time>2010-08-29T13:30:22Z</time>
<desc>lat.=56.075237, lon.=26.475615, Alt.=123.764709m. Speed=8.964000m/h.</desc>
<speed>2.490000</speed>
</trkpt>
<trkpt lat="56.075241" lon="26.475643">
<ele>122.333069</ele>
<time>2010-08-29T13:30:23Z</time>
<desc>lat.=56.075241, lon.=26.475643, Alt.=122.333069m. Speed=7.524000m/h.</desc>
<speed>2.090000</speed>
</trkpt>
<trkpt lat="56.075253" lon="26.475668">
<ele>120.948303</ele>
<time>2010-08-29T13:30:24Z</time>
<desc>lat.=56.075253, lon.=26.475668, Alt.=120.948303m. Speed=6.192000m/h.</desc>
<speed>1.720000</speed>
</trkpt>
<trkpt lat="56.075256" lon="26.475672">
<ele>118.706116</ele>
<time>2010-08-29T13:30:25Z</time>
<desc>lat.=56.075256, lon.=26.475672, Alt.=118.706116m. Speed=6.480000m/h.</desc>
<speed>1.800000</speed>
</trkpt>
<trkpt lat="56.075264" lon="26.475693">
<ele>117.848694</ele>
<time>2010-08-29T13:30:26Z</time>
<desc>lat.=56.075264, lon.=26.475693, Alt.=117.848694m. Speed=5.868000m/h.</desc>
<speed>1.630000</speed>
</trkpt>
<trkpt lat="56.075272" lon="26.475704">
<ele>117.241272</ele>
<time>2010-08-29T13:30:27Z</time>
<desc>lat.=56.075272, lon.=26.475704, Alt.=117.241272m. Speed=2.844000m/h.</desc>
<speed>0.790000</speed>
</trkpt>
<trkpt lat="56.075275" lon="26.475708">
<ele>115.956116</ele>
<time>2010-08-29T13:30:28Z</time>
<desc>lat.=56.075275, lon.=26.475708, Alt.=115.956116m. Speed=0.972000m/h.</desc>
<speed>0.270000</speed>
</trkpt>
<trkpt lat="56.075275" lon="26.475712">
<ele>114.920959</ele>
<time>2010-08-29T13:30:29Z</time>
<desc>lat.=56.075275, lon.=26.475712, Alt.=114.920959m. Speed=0.252000m/h.</desc>
<speed>0.070000</speed>
</trkpt>
<trkpt lat="56.075275" lon="26.475721">
<ele>113.752991</ele>
<time>2010-08-29T13:30:30Z</time>
<desc>lat.=56.075275, lon.=26.475721, Alt.=113.752991m. Speed=0.828000m/h.</desc>
<speed>0.230000</speed>
</trkpt>
<trkpt lat="56.075275" lon="26.475731">
<ele>112.784241</ele>
<time>2010-08-29T13:30:31Z</time>
<desc>lat.=56.075275, lon.=26.475731, Alt.=112.784241m. Speed=0.360000m/h.</desc>
<speed>0.100000</speed>
</trkpt>
<trkpt lat="56.075272" lon="26.475731">
<ele>112.792053</ele>
<time>2010-08-29T13:30:32Z</time>
<desc>lat.=56.075272, lon.=26.475731, Alt.=112.792053m. Speed=0.144000m/h.</desc>
<speed>0.040000</speed>
</trkpt>
<trkpt lat="56.075272" lon="26.475731">
<ele>112.795959</ele>
<time>2010-08-29T13:30:33Z</time>
<desc>lat.=56.075272, lon.=26.475731, Alt.=112.795959m. Speed=0.000000m/h.</desc>
<speed>0.000000</speed>
</trkpt>
<trkpt lat="56.075272" lon="26.475731">
<ele>112.786194</ele>
<time>2010-08-29T13:30:34Z</time>
<desc>lat.=56.075272, lon.=26.475731, Alt.=112.786194m. Speed=0.000000m/h.</desc>
<speed>0.000000</speed>
</trkpt>
<trkpt lat="56.075272" lon="26.475731">
<ele>112.770569</ele>
<time>2010-08-29T13:30:35Z</time>
<desc>lat.=56.075272, lon.=26.475731, Alt.=112.770569m. Speed=0.000000m/h.</desc>
<speed>0.000000</speed>
</trkpt>
<trkpt lat="56.075272" lon="26.475731">
<ele>112.737366</ele>
<time>2010-08-29T13:30:36Z</time>
<desc>lat.=56.075272, lon.=26.475731, Alt.=112.737366m. Speed=0.000000m/h.</desc>
<speed>0.000000</speed>
</trkpt>
<trkpt lat="56.075272" lon="26.475731">
<ele>112.710022</ele>
<time>2010-08-29T13:30:37Z</time>
<desc>lat.=56.075272, lon.=26.475731, Alt.=112.710022m. Speed=0.000000m/h.</desc>
<speed>0.000000</speed>
</trkpt>
<trkpt lat="56.075272" lon="26.475731">
<ele>112.690491</ele>
<time>2010-08-29T13:30:38Z</time>
<desc>lat.=56.075272, lon.=26.475731, Alt.=112.690491m. Speed=0.000000m/h.</desc>
<speed>0.000000</speed>
</trkpt>
<trkpt lat="56.075272" lon="26.475731">
<ele>112.676819</ele>
<time>2010-08-29T13:30:39Z</time>
<desc>lat.=56.075272, lon.=26.475731, Alt.=112.676819m. Speed=0.036000m/h.</desc>
<speed>0.010000</speed>
</trkpt>
<trkpt lat="56.075272" lon="26.475731">
<ele>112.667053</ele>
<time>2010-08-29T13:30:40Z</time>
<desc>lat.=56.075272, lon.=26.475731, Alt.=112.667053m. Speed=0.000000m/h.</desc>
<speed>0.000000</speed>
</trkpt>
<trkpt lat="56.075272" lon="26.475731">
<ele>112.649475</ele>
<time>2010-08-29T13:30:41Z</time>
<desc>lat.=56.075272, lon.=26.475731, Alt.=112.649475m. Speed=0.000000m/h.</desc>
<speed>0.000000</speed>
</trkpt>
<trkpt lat="56.075272" lon="26.475731">
<ele>112.631897</ele>
<time>2010-08-29T13:30:42Z</time>
<desc>lat.=56.075272, lon.=26.475731, Alt.=112.631897m. Speed=0.000000m/h.</desc>
<speed>0.000000</speed>
</trkpt>
<trkpt lat="56.075272" lon="26.475731">
<ele>112.616272</ele>
<time>2010-08-29T13:30:43Z</time>
<desc>lat.=56.075272, lon.=26.475731, Alt.=112.616272m. Speed=0.000000m/h.</desc>
<speed>0.000000</speed>
</trkpt>
<trkpt lat="56.075272" lon="26.475731">
<ele>112.600647</ele>
<time>2010-08-29T13:30:44Z</time>
<desc>lat.=56.075272, lon.=26.475731, Alt.=112.600647m. Speed=0.000000m/h.</desc>
<speed>0.000000</speed>
</trkpt>
<trkpt lat="56.075272" lon="26.475731">
<ele>112.592834</ele>
<time>2010-08-29T13:30:45Z</time>
<desc>lat.=56.075272, lon.=26.475731, Alt.=112.592834m. Speed=0.072000m/h.</desc>
<speed>0.020000</speed>
</trkpt>
<trkpt lat="56.075272" lon="26.475731">
<ele>112.585022</ele>
<time>2010-08-29T13:30:46Z</time>
<desc>lat.=56.075272, lon.=26.475731, Alt.=112.585022m. Speed=0.108000m/h.</desc>
<speed>0.030000</speed>
</trkpt>
<trkpt lat="56.075272" lon="26.475729">
<ele>112.575256</ele>
<time>2010-08-29T13:30:47Z</time>
<desc>lat.=56.075272, lon.=26.475729, Alt.=112.575256m. Speed=0.252000m/h.</desc>
<speed>0.070000</speed>
</trkpt>
<trkpt lat="56.075272" lon="26.475731">
<ele>112.569397</ele>
<time>2010-08-29T13:30:48Z</time>
<desc>lat.=56.075272, lon.=26.475731, Alt.=112.569397m. Speed=0.432000m/h.</desc>
<speed>0.120000</speed>
</trkpt>
<trkpt lat="56.075272" lon="26.475731">
<ele>112.569397</ele>
<time>2010-08-29T13:30:49Z</time>
<desc>lat.=56.075272, lon.=26.475731, Alt.=112.569397m. Speed=0.036000m/h.</desc>
<speed>0.010000</speed>
</trkpt>
<trkpt lat="56.075272" lon="26.475731">
<ele>112.569397</ele>
<time>2010-08-29T13:30:50Z</time>
<desc>lat.=56.075272, lon.=26.475731, Alt.=112.569397m. Speed=0.180000m/h.</desc>
<speed>0.050000</speed>
</trkpt>
<trkpt lat="56.075272" lon="26.475731">
<ele>112.569397</ele>
<time>2010-08-29T13:30:51Z</time>
<desc>lat.=56.075272, lon.=26.475731, Alt.=112.569397m. Speed=0.396000m/h.</desc>
<speed>0.110000</speed>
</trkpt>
<trkpt lat="56.075272" lon="26.475731">
<ele>112.567444</ele>
<time>2010-08-29T13:30:52Z</time>
<desc>lat.=56.075272, lon.=26.475731, Alt.=112.567444m. Speed=1.044000m/h.</desc>
<speed>0.290000</speed>
</trkpt>
<trkpt lat="56.075275" lon="26.475735">
<ele>112.567444</ele>
<time>2010-08-29T13:30:53Z</time>
<desc>lat.=56.075275, lon.=26.475735, Alt.=112.567444m. Speed=2.160000m/h.</desc>
<speed>0.600000</speed>
</trkpt>
<trkpt lat="56.075283" lon="26.475746">
<ele>112.577209</ele>
<time>2010-08-29T13:30:54Z</time>
<desc>lat.=56.075283, lon.=26.475746, Alt.=112.577209m. Speed=2.880000m/h.</desc>
<speed>0.800000</speed>
</trkpt>
<trkpt lat="56.075287" lon="26.475760">
<ele>112.557678</ele>
<time>2010-08-29T13:30:55Z</time>
<desc>lat.=56.075287, lon.=26.475760, Alt.=112.557678m. Speed=3.420000m/h.</desc>
<speed>0.950000</speed>
</trkpt>
<trkpt lat="56.075298" lon="26.475780">
<ele>112.469788</ele>
<time>2010-08-29T13:30:56Z</time>
<desc>lat.=56.075298, lon.=26.475780, Alt.=112.469788m. Speed=4.212000m/h.</desc>
<speed>1.170000</speed>
</trkpt>
<trkpt lat="56.075310" lon="26.475805">
<ele>112.463928</ele>
<time>2010-08-29T13:30:57Z</time>
<desc>lat.=56.075310, lon.=26.475805, Alt.=112.463928m. Speed=5.148000m/h.</desc>
<speed>1.430000</speed>
</trkpt>
<trkpt lat="56.075314" lon="26.475842">
<ele>112.473694</ele>
<time>2010-08-29T13:30:58Z</time>
<desc>lat.=56.075314, lon.=26.475842, Alt.=112.473694m. Speed=6.120000m/h.</desc>
<speed>1.700000</speed>
</trkpt>
<trkpt lat="56.075325" lon="26.475876">
<ele>112.508850</ele>
<time>2010-08-29T13:30:59Z</time>
<desc>lat.=56.075325, lon.=26.475876, Alt.=112.508850m. Speed=8.568000m/h.</desc>
<speed>2.380000</speed>
</trkpt>
<trkpt lat="56.075344" lon="26.475916">
<ele>112.547913</ele>
<time>2010-08-29T13:31:00Z</time>
<desc>lat.=56.075344, lon.=26.475916, Alt.=112.547913m. Speed=10.368000m/h.</desc>
<speed>2.880000</speed>
</trkpt>
<trkpt lat="56.075367" lon="26.475954">
<ele>112.565491</ele>
<time>2010-08-29T13:31:01Z</time>
<desc>lat.=56.075367, lon.=26.475954, Alt.=112.565491m. Speed=12.204000m/h.</desc>
<speed>3.390000</speed>
</trkpt>
<trkpt lat="56.075394" lon="26.476009">
<ele>112.588928</ele>
<time>2010-08-29T13:31:02Z</time>
<desc>lat.=56.075394, lon.=26.476009, Alt.=112.588928m. Speed=15.480000m/h.</desc>
<speed>4.300000</speed>
</trkpt>
<trkpt lat="56.075420" lon="26.476059">
<ele>112.627991</ele>
<time>2010-08-29T13:31:03Z</time>
<desc>lat.=56.075420, lon.=26.476059, Alt.=112.627991m. Speed=12.816000m/h.</desc>
<speed>3.560000</speed>
</trkpt>
<trkpt lat="56.075459" lon="26.476114">
<ele>112.672913</ele>
<time>2010-08-29T13:31:04Z</time>
<desc>lat.=56.075459, lon.=26.476114, Alt.=112.672913m. Speed=14.508000m/h.</desc>
<speed>4.030000</speed>
</trkpt>
<trkpt lat="56.075493" lon="26.476170">
<ele>112.768616</ele>
<time>2010-08-29T13:31:05Z</time>
<desc>lat.=56.075493, lon.=26.476170, Alt.=112.768616m. Speed=14.904000m/h.</desc>
<speed>4.140000</speed>
</trkpt>
<trkpt lat="56.075531" lon="26.476233">
<ele>112.846741</ele>
<time>2010-08-29T13:31:06Z</time>
<desc>lat.=56.075531, lon.=26.476233, Alt.=112.846741m. Speed=15.768000m/h.</desc>
<speed>4.380000</speed>
</trkpt>
<trkpt lat="56.075562" lon="26.476284">
<ele>112.954163</ele>
<time>2010-08-29T13:31:07Z</time>
<desc>lat.=56.075562, lon.=26.476284, Alt.=112.954163m. Speed=14.688000m/h.</desc>
<speed>4.080000</speed>
</trkpt>
<trkpt lat="56.075592" lon="26.476337">
<ele>113.069397</ele>
<time>2010-08-29T13:31:08Z</time>
<desc>lat.=56.075592, lon.=26.476337, Alt.=113.069397m. Speed=13.716000m/h.</desc>
<speed>3.810000</speed>
</trkpt>
<trkpt lat="56.075619" lon="26.476385">
<ele>113.254944</ele>
<time>2010-08-29T13:31:09Z</time>
<desc>lat.=56.075619, lon.=26.476385, Alt.=113.254944m. Speed=16.271999m/h.</desc>
<speed>4.520000</speed>
</trkpt>
<trkpt lat="56.075657" lon="26.476435">
<ele>113.487366</ele>
<time>2010-08-29T13:31:10Z</time>
<desc>lat.=56.075657, lon.=26.476435, Alt.=113.487366m. Speed=15.876000m/h.</desc>
<speed>4.410000</speed>
</trkpt>
<trkpt lat="56.075699" lon="26.476480">
<ele>113.731506</ele>
<time>2010-08-29T13:31:11Z</time>
<desc>lat.=56.075699, lon.=26.476480, Alt.=113.731506m. Speed=14.940000m/h.</desc>
<speed>4.150000</speed>
</trkpt>
<trkpt lat="56.075722" lon="26.476545">
<ele>114.059631</ele>
<time>2010-08-29T13:31:12Z</time>
<desc>lat.=56.075722, lon.=26.476545, Alt.=114.059631m. Speed=15.516000m/h.</desc>
<speed>4.310000</speed>
</trkpt>
<trkpt lat="56.075756" lon="26.476603">
<ele>114.196350</ele>
<time>2010-08-29T13:31:13Z</time>
<desc>lat.=56.075756, lon.=26.476603, Alt.=114.196350m. Speed=15.660000m/h.</desc>
<speed>4.350000</speed>
</trkpt>
<trkpt lat="56.075802" lon="26.476648">
<ele>114.350647</ele>
<time>2010-08-29T13:31:14Z</time>
<desc>lat.=56.075802, lon.=26.476648, Alt.=114.350647m. Speed=15.876000m/h.</desc>
<speed>4.410000</speed>
</trkpt>
<trkpt lat="56.075840" lon="26.476694">
<ele>114.483459</ele>
<time>2010-08-29T13:31:15Z</time>
<desc>lat.=56.075840, lon.=26.476694, Alt.=114.483459m. Speed=15.660000m/h.</desc>
<speed>4.350000</speed>
</trkpt>
<trkpt lat="56.075874" lon="26.476725">
<ele>114.592834</ele>
<time>2010-08-29T13:31:16Z</time>
<desc>lat.=56.075874, lon.=26.476725, Alt.=114.592834m. Speed=15.336000m/h.</desc>
<speed>4.260000</speed>
</trkpt>
<trkpt lat="56.075909" lon="26.476761">
<ele>114.735413</ele>
<time>2010-08-29T13:31:17Z</time>
<desc>lat.=56.075909, lon.=26.476761, Alt.=114.735413m. Speed=15.552000m/h.</desc>
<speed>4.320000</speed>
</trkpt>
<trkpt lat="56.075935" lon="26.476810">
<ele>114.792053</ele>
<time>2010-08-29T13:31:18Z</time>
<desc>lat.=56.075935, lon.=26.476810, Alt.=114.792053m. Speed=15.948000m/h.</desc>
<speed>4.430000</speed>
</trkpt>
<trkpt lat="56.075970" lon="26.476856">
<ele>115.047913</ele>
<time>2010-08-29T13:31:19Z</time>
<desc>lat.=56.075970, lon.=26.476856, Alt.=115.047913m. Speed=15.912000m/h.</desc>
<speed>4.420000</speed>
</trkpt>
<trkpt lat="56.076004" lon="26.476896">
<ele>115.335022</ele>
<time>2010-08-29T13:31:20Z</time>
<desc>lat.=56.076004, lon.=26.476896, Alt.=115.335022m. Speed=15.696000m/h.</desc>
<speed>4.360000</speed>
</trkpt>
<trkpt lat="56.076038" lon="26.476938">
<ele>115.620178</ele>
<time>2010-08-29T13:31:21Z</time>
<desc>lat.=56.076038, lon.=26.476938, Alt.=115.620178m. Speed=16.020000m/h.</desc>
<speed>4.450000</speed>
</trkpt>
<trkpt lat="56.076073" lon="26.476984">
<ele>115.911194</ele>
<time>2010-08-29T13:31:22Z</time>
<desc>lat.=56.076073, lon.=26.476984, Alt.=115.911194m. Speed=16.632000m/h.</desc>
<speed>4.620000</speed>
</trkpt>
<trkpt lat="56.076099" lon="26.477037">
<ele>116.127991</ele>
<time>2010-08-29T13:31:23Z</time>
<desc>lat.=56.076099, lon.=26.477037, Alt.=116.127991m. Speed=17.604000m/h.</desc>
<speed>4.890000</speed>
</trkpt>
<trkpt lat="56.076126" lon="26.477091">
<ele>116.430725</ele>
<time>2010-08-29T13:31:24Z</time>
<desc>lat.=56.076126, lon.=26.477091, Alt.=116.430725m. Speed=16.632000m/h.</desc>
<speed>4.620000</speed>
</trkpt>
<trkpt lat="56.076145" lon="26.477161">
<ele>116.237366</ele>
<time>2010-08-29T13:31:25Z</time>
<desc>lat.=56.076145, lon.=26.477161, Alt.=116.237366m. Speed=16.200001m/h.</desc>
<speed>4.500000</speed>
</trkpt>
<trkpt lat="56.076176" lon="26.477215">
<ele>116.526428</ele>
<time>2010-08-29T13:31:26Z</time>
<desc>lat.=56.076176, lon.=26.477215, Alt.=116.526428m. Speed=16.632000m/h.</desc>
<speed>4.620000</speed>
</trkpt>
<trkpt lat="56.076206" lon="26.477247">
<ele>116.651428</ele>
<time>2010-08-29T13:31:27Z</time>
<desc>lat.=56.076206, lon.=26.477247, Alt.=116.651428m. Speed=14.832000m/h.</desc>
<speed>4.120000</speed>
</trkpt>
<trkpt lat="56.076237" lon="26.477289">
<ele>117.008850</ele>
<time>2010-08-29T13:31:28Z</time>
<desc>lat.=56.076237, lon.=26.477289, Alt.=117.008850m. Speed=14.580000m/h.</desc>
<speed>4.050000</speed>
</trkpt>
<trkpt lat="56.076252" lon="26.477333">
<ele>116.879944</ele>
<time>2010-08-29T13:31:29Z</time>
<desc>lat.=56.076252, lon.=26.477333, Alt.=116.879944m. Speed=14.328000m/h.</desc>
<speed>3.980000</speed>
</trkpt>
<trkpt lat="56.076279" lon="26.477365">
<ele>116.895569</ele>
<time>2010-08-29T13:31:30Z</time>
<desc>lat.=56.076279, lon.=26.477365, Alt.=116.895569m. Speed=15.264000m/h.</desc>
<speed>4.240000</speed>
</trkpt>
<trkpt lat="56.076305" lon="26.477415">
<ele>116.544006</ele>
<time>2010-08-29T13:31:31Z</time>
<desc>lat.=56.076305, lon.=26.477415, Alt.=116.544006m. Speed=15.876000m/h.</desc>
<speed>4.410000</speed>
</trkpt>
<trkpt lat="56.076328" lon="26.477478">
<ele>115.725647</ele>
<time>2010-08-29T13:31:32Z</time>
<desc>lat.=56.076328, lon.=26.477478, Alt.=115.725647m. Speed=15.372000m/h.</desc>
<speed>4.270000</speed>
</trkpt>
<trkpt lat="56.076355" lon="26.477526">
<ele>115.299866</ele>
<time>2010-08-29T13:31:33Z</time>
<desc>lat.=56.076355, lon.=26.477526, Alt.=115.299866m. Speed=15.516000m/h.</desc>
<speed>4.310000</speed>
</trkpt>
<trkpt lat="56.076382" lon="26.477573">
<ele>115.045959</ele>
<time>2010-08-29T13:31:34Z</time>
<desc>lat.=56.076382, lon.=26.477573, Alt.=115.045959m. Speed=14.040000m/h.</desc>
<speed>3.900000</speed>
</trkpt>
<trkpt lat="56.076405" lon="26.477615">
<ele>114.661194</ele>
<time>2010-08-29T13:31:35Z</time>
<desc>lat.=56.076405, lon.=26.477615, Alt.=114.661194m. Speed=14.508000m/h.</desc>
<speed>4.030000</speed>
</trkpt>
<trkpt lat="56.076424" lon="26.477663">
<ele>114.024475</ele>
<time>2010-08-29T13:31:36Z</time>
<desc>lat.=56.076424, lon.=26.477663, Alt.=114.024475m. Speed=14.436000m/h.</desc>
<speed>4.010000</speed>
</trkpt>
<trkpt lat="56.076447" lon="26.477705">
<ele>113.512756</ele>
<time>2010-08-29T13:31:37Z</time>
<desc>lat.=56.076447, lon.=26.477705, Alt.=113.512756m. Speed=14.832000m/h.</desc>
<speed>4.120000</speed>
</trkpt>
<trkpt lat="56.076473" lon="26.477757">
<ele>113.174866</ele>
<time>2010-08-29T13:31:38Z</time>
<desc>lat.=56.076473, lon.=26.477757, Alt.=113.174866m. Speed=15.480000m/h.</desc>
<speed>4.300000</speed>
</trkpt>
<trkpt lat="56.076500" lon="26.477800">
<ele>112.706116</ele>
<time>2010-08-29T13:31:39Z</time>
<desc>lat.=56.076500, lon.=26.477800, Alt.=112.706116m. Speed=17.172001m/h.</desc>
<speed>4.770000</speed>
</trkpt>
<trkpt lat="56.076530" lon="26.477844">
<ele>112.331116</ele>
<time>2010-08-29T13:31:40Z</time>
<desc>lat.=56.076530, lon.=26.477844, Alt.=112.331116m. Speed=16.920000m/h.</desc>
<speed>4.700000</speed>
</trkpt>
<trkpt lat="56.076557" lon="26.477884">
<ele>112.231506</ele>
<time>2010-08-29T13:31:41Z</time>
<desc>lat.=56.076557, lon.=26.477884, Alt.=112.231506m. Speed=15.336000m/h.</desc>
<speed>4.260000</speed>
</trkpt>
<trkpt lat="56.076584" lon="26.477938">
<ele>111.579163</ele>
<time>2010-08-29T13:31:42Z</time>
<desc>lat.=56.076584, lon.=26.477938, Alt.=111.579163m. Speed=13.860000m/h.</desc>
<speed>3.850000</speed>
</trkpt>
<trkpt lat="56.076607" lon="26.477985">
<ele>110.661194</ele>
<time>2010-08-29T13:31:43Z</time>
<desc>lat.=56.076607, lon.=26.477985, Alt.=110.661194m. Speed=13.968000m/h.</desc>
<speed>3.880000</speed>
</trkpt>
<trkpt lat="56.076626" lon="26.478043">
<ele>110.360413</ele>
<time>2010-08-29T13:31:44Z</time>
<desc>lat.=56.076626, lon.=26.478043, Alt.=110.360413m. Speed=15.552000m/h.</desc>
<speed>4.320000</speed>
</trkpt>
<trkpt lat="56.076649" lon="26.478100">
<ele>109.877991</ele>
<time>2010-08-29T13:31:45Z</time>
<desc>lat.=56.076649, lon.=26.478100, Alt.=109.877991m. Speed=15.048000m/h.</desc>
<speed>4.180000</speed>
</trkpt>
<trkpt lat="56.076679" lon="26.478170">
<ele>109.512756</ele>
<time>2010-08-29T13:31:46Z</time>
<desc>lat.=56.076679, lon.=26.478170, Alt.=109.512756m. Speed=15.552000m/h.</desc>
<speed>4.320000</speed>
</trkpt>
<trkpt lat="56.076706" lon="26.478233">
<ele>109.217834</ele>
<time>2010-08-29T13:31:47Z</time>
<desc>lat.=56.076706, lon.=26.478233, Alt.=109.217834m. Speed=16.632000m/h.</desc>
<speed>4.620000</speed>
</trkpt>
<trkpt lat="56.076729" lon="26.478292">
<ele>108.641663</ele>
<time>2010-08-29T13:31:48Z</time>
<desc>lat.=56.076729, lon.=26.478292, Alt.=108.641663m. Speed=15.624000m/h.</desc>
<speed>4.340000</speed>
</trkpt>
<trkpt lat="56.076752" lon="26.478354">
<ele>107.792053</ele>
<time>2010-08-29T13:31:49Z</time>
<desc>lat.=56.076752, lon.=26.478354, Alt.=107.792053m. Speed=15.516000m/h.</desc>
<speed>4.310000</speed>
</trkpt>
<trkpt lat="56.076778" lon="26.478422">
<ele>107.702209</ele>
<time>2010-08-29T13:31:50Z</time>
<desc>lat.=56.076778, lon.=26.478422, Alt.=107.702209m. Speed=14.328000m/h.</desc>
<speed>3.980000</speed>
</trkpt>
<trkpt lat="56.076790" lon="26.478466">
<ele>106.499084</ele>
<time>2010-08-29T13:31:51Z</time>
<desc>lat.=56.076790, lon.=26.478466, Alt.=106.499084m. Speed=14.256000m/h.</desc>
<speed>3.960000</speed>
</trkpt>
<trkpt lat="56.076813" lon="26.478519">
<ele>105.960022</ele>
<time>2010-08-29T13:31:52Z</time>
<desc>lat.=56.076813, lon.=26.478519, Alt.=105.960022m. Speed=14.940000m/h.</desc>
<speed>4.150000</speed>
</trkpt>
<trkpt lat="56.076836" lon="26.478575">
<ele>104.975647</ele>
<time>2010-08-29T13:31:53Z</time>
<desc>lat.=56.076836, lon.=26.478575, Alt.=104.975647m. Speed=16.524000m/h.</desc>
<speed>4.590000</speed>
</trkpt>
<trkpt lat="56.076866" lon="26.478632">
<ele>104.442444</ele>
<time>2010-08-29T13:31:54Z</time>
<desc>lat.=56.076866, lon.=26.478632, Alt.=104.442444m. Speed=17.243999m/h.</desc>
<speed>4.790000</speed>
</trkpt>
<trkpt lat="56.076885" lon="26.478678">
<ele>103.368225</ele>
<time>2010-08-29T13:31:55Z</time>
<desc>lat.=56.076885, lon.=26.478678, Alt.=103.368225m. Speed=15.876000m/h.</desc>
<speed>4.410000</speed>
</trkpt>
<trkpt lat="56.076908" lon="26.478739">
<ele>102.852600</ele>
<time>2010-08-29T13:31:56Z</time>
<desc>lat.=56.076908, lon.=26.478739, Alt.=102.852600m. Speed=17.172001m/h.</desc>
<speed>4.770000</speed>
</trkpt>
<trkpt lat="56.076935" lon="26.478806">
<ele>102.612366</ele>
<time>2010-08-29T13:31:57Z</time>
<desc>lat.=56.076935, lon.=26.478806, Alt.=102.612366m. Speed=17.459999m/h.</desc>
<speed>4.850000</speed>
</trkpt>
<trkpt lat="56.076954" lon="26.478868">
<ele>101.987366</ele>
<time>2010-08-29T13:31:58Z</time>
<desc>lat.=56.076954, lon.=26.478868, Alt.=101.987366m. Speed=16.271999m/h.</desc>
<speed>4.520000</speed>
</trkpt>
<trkpt lat="56.076977" lon="26.478931">
<ele>101.532288</ele>
<time>2010-08-29T13:31:59Z</time>
<desc>lat.=56.076977, lon.=26.478931, Alt.=101.532288m. Speed=15.696000m/h.</desc>
<speed>4.360000</speed>
</trkpt>
<trkpt lat="56.076992" lon="26.478994">
<ele>101.036194</ele>
<time>2010-08-29T13:32:00Z</time>
<desc>lat.=56.076992, lon.=26.478994, Alt.=101.036194m. Speed=15.156000m/h.</desc>
<speed>4.210000</speed>
</trkpt>
<trkpt lat="56.077007" lon="26.479052">
<ele>100.612366</ele>
<time>2010-08-29T13:32:01Z</time>
<desc>lat.=56.077007, lon.=26.479052, Alt.=100.612366m. Speed=14.400000m/h.</desc>
<speed>4.000000</speed>
</trkpt>
<trkpt lat="56.077023" lon="26.479107">
<ele>100.520569</ele>
<time>2010-08-29T13:32:02Z</time>
<desc>lat.=56.077023, lon.=26.479107, Alt.=100.520569m. Speed=12.384000m/h.</desc>
<speed>3.440000</speed>
</trkpt>
<trkpt lat="56.077038" lon="26.479155">
<ele>100.295959</ele>
<time>2010-08-29T13:32:03Z</time>
<desc>lat.=56.077038, lon.=26.479155, Alt.=100.295959m. Speed=12.024000m/h.</desc>
<speed>3.340000</speed>
</trkpt>
<trkpt lat="56.077049" lon="26.479204">
<ele>99.809631</ele>
<time>2010-08-29T13:32:04Z</time>
<desc>lat.=56.077049, lon.=26.479204, Alt.=99.809631m. Speed=11.376000m/h.</desc>
<speed>3.160000</speed>
</trkpt>
<trkpt lat="56.077065" lon="26.479252">
<ele>99.639709</ele>
<time>2010-08-29T13:32:05Z</time>
<desc>lat.=56.077065, lon.=26.479252, Alt.=99.639709m. Speed=10.260000m/h.</desc>
<speed>2.850000</speed>
</trkpt>
<trkpt lat="56.077076" lon="26.479300">
<ele>99.436584</ele>
<time>2010-08-29T13:32:06Z</time>
<desc>lat.=56.077076, lon.=26.479300, Alt.=99.436584m. Speed=11.160000m/h.</desc>
<speed>3.100000</speed>
</trkpt>
<trkpt lat="56.077091" lon="26.479361">
<ele>98.696350</ele>
<time>2010-08-29T13:32:07Z</time>
<desc>lat.=56.077091, lon.=26.479361, Alt.=98.696350m. Speed=13.212000m/h.</desc>
<speed>3.670000</speed>
</trkpt>
<trkpt lat="56.077114" lon="26.479412">
<ele>98.286194</ele>
<time>2010-08-29T13:32:08Z</time>
<desc>lat.=56.077114, lon.=26.479412, Alt.=98.286194m. Speed=12.924000m/h.</desc>
<speed>3.590000</speed>
</trkpt>
<trkpt lat="56.077137" lon="26.479454">
<ele>98.012756</ele>
<time>2010-08-29T13:32:09Z</time>
<desc>lat.=56.077137, lon.=26.479454, Alt.=98.012756m. Speed=9.972000m/h.</desc>
<speed>2.770000</speed>
</trkpt>
<trkpt lat="56.077156" lon="26.479481">
<ele>97.649475</ele>
<time>2010-08-29T13:32:10Z</time>
<desc>lat.=56.077156, lon.=26.479481, Alt.=97.649475m. Speed=9.360000m/h.</desc>
<speed>2.600000</speed>
</trkpt>
<trkpt lat="56.077168" lon="26.479506">
<ele>97.040100</ele>
<time>2010-08-29T13:32:11Z</time>
<desc>lat.=56.077168, lon.=26.479506, Alt.=97.040100m. Speed=10.224000m/h.</desc>
<speed>2.840000</speed>
</trkpt>
<trkpt lat="56.077187" lon="26.479534">
<ele>96.383850</ele>
<time>2010-08-29T13:32:12Z</time>
<desc>lat.=56.077187, lon.=26.479534, Alt.=96.383850m. Speed=12.672000m/h.</desc>
<speed>3.520000</speed>
</trkpt>
<trkpt lat="56.077209" lon="26.479572">
<ele>96.182678</ele>
<time>2010-08-29T13:32:13Z</time>
<desc>lat.=56.077209, lon.=26.479572, Alt.=96.182678m. Speed=12.564000m/h.</desc>
<speed>3.490000</speed>
</trkpt>
<trkpt lat="56.077244" lon="26.479618">
<ele>96.301819</ele>
<time>2010-08-29T13:32:14Z</time>
<desc>lat.=56.077244, lon.=26.479618, Alt.=96.301819m. Speed=13.032000m/h.</desc>
<speed>3.620000</speed>
</trkpt>
<trkpt lat="56.077271" lon="26.479654">
<ele>95.922913</ele>
<time>2010-08-29T13:32:15Z</time>
<desc>lat.=56.077271, lon.=26.479654, Alt.=95.922913m. Speed=13.104000m/h.</desc>
<speed>3.640000</speed>
</trkpt>
<trkpt lat="56.077293" lon="26.479685">
<ele>95.627991</ele>
<time>2010-08-29T13:32:16Z</time>
<desc>lat.=56.077293, lon.=26.479685, Alt.=95.627991m. Speed=12.204000m/h.</desc>
<speed>3.390000</speed>
</trkpt>
<trkpt lat="56.077316" lon="26.479721">
<ele>94.362366</ele>
<time>2010-08-29T13:32:17Z</time>
<desc>lat.=56.077316, lon.=26.479721, Alt.=94.362366m. Speed=11.772000m/h.</desc>
<speed>3.270000</speed>
</trkpt>
<trkpt lat="56.077332" lon="26.479753">
<ele>93.383850</ele>
<time>2010-08-29T13:32:18Z</time>
<desc>lat.=56.077332, lon.=26.479753, Alt.=93.383850m. Speed=11.124000m/h.</desc>
<speed>3.090000</speed>
</trkpt>
<trkpt lat="56.077351" lon="26.479792">
<ele>93.016663</ele>
<time>2010-08-29T13:32:19Z</time>
<desc>lat.=56.077351, lon.=26.479792, Alt.=93.016663m. Speed=11.808000m/h.</desc>
<speed>3.280000</speed>
</trkpt>
<trkpt lat="56.077370" lon="26.479832">
<ele>92.965881</ele>
<time>2010-08-29T13:32:20Z</time>
<desc>lat.=56.077370, lon.=26.479832, Alt.=92.965881m. Speed=11.592000m/h.</desc>
<speed>3.220000</speed>
</trkpt>
<trkpt lat="56.077396" lon="26.479877">
<ele>93.510803</ele>
<time>2010-08-29T13:32:21Z</time>
<desc>lat.=56.077396, lon.=26.479877, Alt.=93.510803m. Speed=11.484000m/h.</desc>
<speed>3.190000</speed>
</trkpt>
<trkpt lat="56.077412" lon="26.479923">
<ele>93.133850</ele>
<time>2010-08-29T13:32:22Z</time>
<desc>lat.=56.077412, lon.=26.479923, Alt.=93.133850m. Speed=12.528000m/h.</desc>
<speed>3.480000</speed>
</trkpt>
<trkpt lat="56.077427" lon="26.479971">
<ele>93.108459</ele>
<time>2010-08-29T13:32:23Z</time>
<desc>lat.=56.077427, lon.=26.479971, Alt.=93.108459m. Speed=12.636000m/h.</desc>
<speed>3.510000</speed>
</trkpt>
<trkpt lat="56.077446" lon="26.480011">
<ele>93.001038</ele>
<time>2010-08-29T13:32:24Z</time>
<desc>lat.=56.077446, lon.=26.480011, Alt.=93.001038m. Speed=12.240000m/h.</desc>
<speed>3.400000</speed>
</trkpt>
<trkpt lat="56.077465" lon="26.480057">
<ele>92.973694</ele>
<time>2010-08-29T13:32:25Z</time>
<desc>lat.=56.077465, lon.=26.480057, Alt.=92.973694m. Speed=12.024000m/h.</desc>
<speed>3.340000</speed>
</trkpt>
<trkpt lat="56.077480" lon="26.480104">
<ele>92.624084</ele>
<time>2010-08-29T13:32:26Z</time>
<desc>lat.=56.077480, lon.=26.480104, Alt.=92.624084m. Speed=12.924000m/h.</desc>
<speed>3.590000</speed>
</trkpt>
<trkpt lat="56.077499" lon="26.480158">
<ele>92.631897</ele>
<time>2010-08-29T13:32:27Z</time>
<desc>lat.=56.077499, lon.=26.480158, Alt.=92.631897m. Speed=12.600000m/h.</desc>
<speed>3.500000</speed>
</trkpt>
<trkpt lat="56.077515" lon="26.480211">
<ele>92.688538</ele>
<time>2010-08-29T13:32:28Z</time>
<desc>lat.=56.077515, lon.=26.480211, Alt.=92.688538m. Speed=12.672000m/h.</desc>
<speed>3.520000</speed>
</trkpt>
<trkpt lat="56.077534" lon="26.480270">
<ele>92.989319</ele>
<time>2010-08-29T13:32:29Z</time>
<desc>lat.=56.077534, lon.=26.480270, Alt.=92.989319m. Speed=12.852000m/h.</desc>
<speed>3.570000</speed>
</trkpt>
<trkpt lat="56.077553" lon="26.480324">
<ele>93.204163</ele>
<time>2010-08-29T13:32:30Z</time>
<desc>lat.=56.077553, lon.=26.480324, Alt.=93.204163m. Speed=12.816000m/h.</desc>
<speed>3.560000</speed>
</trkpt>
<trkpt lat="56.077568" lon="26.480375">
<ele>92.747131</ele>
<time>2010-08-29T13:32:31Z</time>
<desc>lat.=56.077568, lon.=26.480375, Alt.=92.747131m. Speed=14.076000m/h.</desc>
<speed>3.910000</speed>
</trkpt>
<trkpt lat="56.077591" lon="26.480429">
<ele>92.844788</ele>
<time>2010-08-29T13:32:32Z</time>
<desc>lat.=56.077591, lon.=26.480429, Alt.=92.844788m. Speed=13.068000m/h.</desc>
<speed>3.630000</speed>
</trkpt>
<trkpt lat="56.077614" lon="26.480488">
<ele>92.956116</ele>
<time>2010-08-29T13:32:33Z</time>
<desc>lat.=56.077614, lon.=26.480488, Alt.=92.956116m. Speed=13.824000m/h.</desc>
<speed>3.840000</speed>
</trkpt>
<trkpt lat="56.077633" lon="26.480547">
<ele>93.340881</ele>
<time>2010-08-29T13:32:34Z</time>
<desc>lat.=56.077633, lon.=26.480547, Alt.=93.340881m. Speed=12.744000m/h.</desc>
<speed>3.540000</speed>
</trkpt>
<trkpt lat="56.077648" lon="26.480598">
<ele>92.969788</ele>
<time>2010-08-29T13:32:35Z</time>
<desc>lat.=56.077648, lon.=26.480598, Alt.=92.969788m. Speed=12.852000m/h.</desc>
<speed>3.570000</speed>
</trkpt>
<trkpt lat="56.077663" lon="26.480642">
<ele>93.047913</ele>
<time>2010-08-29T13:32:36Z</time>
<desc>lat.=56.077663, lon.=26.480642, Alt.=93.047913m. Speed=12.420000m/h.</desc>
<speed>3.450000</speed>
</trkpt>
<trkpt lat="56.077686" lon="26.480688">
<ele>93.475647</ele>
<time>2010-08-29T13:32:37Z</time>
<desc>lat.=56.077686, lon.=26.480688, Alt.=93.475647m. Speed=12.708000m/h.</desc>
<speed>3.530000</speed>
</trkpt>
<trkpt lat="56.077705" lon="26.480747">
<ele>93.581116</ele>
<time>2010-08-29T13:32:38Z</time>
<desc>lat.=56.077705, lon.=26.480747, Alt.=93.581116m. Speed=11.160000m/h.</desc>
<speed>3.100000</speed>
</trkpt>
<trkpt lat="56.077721" lon="26.480801">
<ele>93.776428</ele>
<time>2010-08-29T13:32:39Z</time>
<desc>lat.=56.077721, lon.=26.480801, Alt.=93.776428m. Speed=10.836000m/h.</desc>
<speed>3.010000</speed>
</trkpt>
<trkpt lat="56.077736" lon="26.480846">
<ele>93.778381</ele>
<time>2010-08-29T13:32:40Z</time>
<desc>lat.=56.077736, lon.=26.480846, Alt.=93.778381m. Speed=12.348000m/h.</desc>
<speed>3.430000</speed>
</trkpt>
<trkpt lat="56.077759" lon="26.480894">
<ele>94.026428</ele>
<time>2010-08-29T13:32:41Z</time>
<desc>lat.=56.077759, lon.=26.480894, Alt.=94.026428m. Speed=12.816000m/h.</desc>
<speed>3.560000</speed>
</trkpt>
<trkpt lat="56.077782" lon="26.480944">
<ele>94.085022</ele>
<time>2010-08-29T13:32:42Z</time>
<desc>lat.=56.077782, lon.=26.480944, Alt.=94.085022m. Speed=12.348000m/h.</desc>
<speed>3.430000</speed>
</trkpt>
<trkpt lat="56.077801" lon="26.480989">
<ele>94.059631</ele>
<time>2010-08-29T13:32:43Z</time>
<desc>lat.=56.077801, lon.=26.480989, Alt.=94.059631m. Speed=12.960000m/h.</desc>
<speed>3.600000</speed>
</trkpt>
<trkpt lat="56.077816" lon="26.481031">
<ele>93.581116</ele>
<time>2010-08-29T13:32:44Z</time>
<desc>lat.=56.077816, lon.=26.481031, Alt.=93.581116m. Speed=12.924000m/h.</desc>
<speed>3.590000</speed>
</trkpt>
<trkpt lat="56.077839" lon="26.481081">
<ele>93.655334</ele>
<time>2010-08-29T13:32:45Z</time>
<desc>lat.=56.077839, lon.=26.481081, Alt.=93.655334m. Speed=12.276000m/h.</desc>
<speed>3.410000</speed>
</trkpt>
<trkpt lat="56.077850" lon="26.481133">
<ele>93.635803</ele>
<time>2010-08-29T13:32:46Z</time>
<desc>lat.=56.077850, lon.=26.481133, Alt.=93.635803m. Speed=11.808000m/h.</desc>
<speed>3.280000</speed>
</trkpt>
<trkpt lat="56.077866" lon="26.481176">
<ele>93.555725</ele>
<time>2010-08-29T13:32:47Z</time>
<desc>lat.=56.077866, lon.=26.481176, Alt.=93.555725m. Speed=12.492000m/h.</desc>
<speed>3.470000</speed>
</trkpt>
<trkpt lat="56.077877" lon="26.481236">
<ele>93.694397</ele>
<time>2010-08-29T13:32:48Z</time>
<desc>lat.=56.077877, lon.=26.481236, Alt.=93.694397m. Speed=11.952000m/h.</desc>
<speed>3.320000</speed>
</trkpt>
<trkpt lat="56.077892" lon="26.481285">
<ele>93.819397</ele>
<time>2010-08-29T13:32:49Z</time>
<desc>lat.=56.077892, lon.=26.481285, Alt.=93.819397m. Speed=11.376000m/h.</desc>
<speed>3.160000</speed>
</trkpt>
<trkpt lat="56.077908" lon="26.481331">
<ele>93.905334</ele>
<time>2010-08-29T13:32:50Z</time>
<desc>lat.=56.077908, lon.=26.481331, Alt.=93.905334m. Speed=11.016000m/h.</desc>
<speed>3.060000</speed>
</trkpt>
<trkpt lat="56.077915" lon="26.481379">
<ele>93.883850</ele>
<time>2010-08-29T13:32:51Z</time>
<desc>lat.=56.077915, lon.=26.481379, Alt.=93.883850m. Speed=11.160000m/h.</desc>
<speed>3.100000</speed>
</trkpt>
<trkpt lat="56.077930" lon="26.481436">
<ele>94.608459</ele>
<time>2010-08-29T13:32:52Z</time>
<desc>lat.=56.077930, lon.=26.481436, Alt.=94.608459m. Speed=11.736000m/h.</desc>
<speed>3.260000</speed>
</trkpt>
<trkpt lat="56.077934" lon="26.481495">
<ele>94.219788</ele>
<time>2010-08-29T13:32:53Z</time>
<desc>lat.=56.077934, lon.=26.481495, Alt.=94.219788m. Speed=11.988000m/h.</desc>
<speed>3.330000</speed>
</trkpt>
<trkpt lat="56.077946" lon="26.481564">
<ele>94.508850</ele>
<time>2010-08-29T13:32:54Z</time>
<desc>lat.=56.077946, lon.=26.481564, Alt.=94.508850m. Speed=12.780000m/h.</desc>
<speed>3.550000</speed>
</trkpt>
<trkpt lat="56.077953" lon="26.481632">
<ele>94.649475</ele>
<time>2010-08-29T13:32:55Z</time>
<desc>lat.=56.077953, lon.=26.481632, Alt.=94.649475m. Speed=13.284000m/h.</desc>
<speed>3.690000</speed>
</trkpt>
<trkpt lat="56.077961" lon="26.481693">
<ele>94.694397</ele>
<time>2010-08-29T13:32:56Z</time>
<desc>lat.=56.077961, lon.=26.481693, Alt.=94.694397m. Speed=11.340000m/h.</desc>
<speed>3.150000</speed>
</trkpt>
<trkpt lat="56.077969" lon="26.481749">
<ele>94.942444</ele>
<time>2010-08-29T13:32:57Z</time>
<desc>lat.=56.077969, lon.=26.481749, Alt.=94.942444m. Speed=10.476000m/h.</desc>
<speed>2.910000</speed>
</trkpt>
<trkpt lat="56.077984" lon="26.481796">
<ele>95.133850</ele>
<time>2010-08-29T13:32:58Z</time>
<desc>lat.=56.077984, lon.=26.481796, Alt.=95.133850m. Speed=10.296000m/h.</desc>
<speed>2.860000</speed>
</trkpt>
<trkpt lat="56.077991" lon="26.481833">
<ele>95.635803</ele>
<time>2010-08-29T13:32:59Z</time>
<desc>lat.=56.077991, lon.=26.481833, Alt.=95.635803m. Speed=6.984000m/h.</desc>
<speed>1.940000</speed>
</trkpt>
<trkpt lat="56.078007" lon="26.481867">
<ele>95.583069</ele>
<time>2010-08-29T13:33:00Z</time>
<desc>lat.=56.078007, lon.=26.481867, Alt.=95.583069m. Speed=8.676000m/h.</desc>
<speed>2.410000</speed>
</trkpt>
<trkpt lat="56.078033" lon="26.481905">
<ele>95.807678</ele>
<time>2010-08-29T13:33:01Z</time>
<desc>lat.=56.078033, lon.=26.481905, Alt.=95.807678m. Speed=8.136000m/h.</desc>
<speed>2.260000</speed>
</trkpt>
<trkpt lat="56.078072" lon="26.481951">
<ele>96.596741</ele>
<time>2010-08-29T13:33:02Z</time>
<desc>lat.=56.078072, lon.=26.481951, Alt.=96.596741m. Speed=9.684000m/h.</desc>
<speed>2.690000</speed>
</trkpt>
<trkpt lat="56.078098" lon="26.481995">
<ele>96.885803</ele>
<time>2010-08-29T13:33:03Z</time>
<desc>lat.=56.078098, lon.=26.481995, Alt.=96.885803m. Speed=10.260000m/h.</desc>
<speed>2.850000</speed>
</trkpt>
<trkpt lat="56.078121" lon="26.482018">
<ele>97.252991</ele>
<time>2010-08-29T13:33:04Z</time>
<desc>lat.=56.078121, lon.=26.482018, Alt.=97.252991m. Speed=8.424000m/h.</desc>
<speed>2.340000</speed>
</trkpt>
<trkpt lat="56.078140" lon="26.482035">
<ele>97.221741</ele>
<time>2010-08-29T13:33:05Z</time>
<desc>lat.=56.078140, lon.=26.482035, Alt.=97.221741m. Speed=6.984000m/h.</desc>
<speed>1.940000</speed>
</trkpt>
<trkpt lat="56.078167" lon="26.482067">
<ele>97.846741</ele>
<time>2010-08-29T13:33:06Z</time>
<desc>lat.=56.078167, lon.=26.482067, Alt.=97.846741m. Speed=7.668000m/h.</desc>
<speed>2.130000</speed>
</trkpt>
<trkpt lat="56.078194" lon="26.482094">
<ele>98.690491</ele>
<time>2010-08-29T13:33:07Z</time>
<desc>lat.=56.078194, lon.=26.482094, Alt.=98.690491m. Speed=7.704000m/h.</desc>
<speed>2.140000</speed>
</trkpt>
<trkpt lat="56.078217" lon="26.482103">
<ele>99.219788</ele>
<time>2010-08-29T13:33:08Z</time>
<desc>lat.=56.078217, lon.=26.482103, Alt.=99.219788m. Speed=8.280000m/h.</desc>
<speed>2.300000</speed>
</trkpt>
<trkpt lat="56.078236" lon="26.482101">
<ele>99.499084</ele>
<time>2010-08-29T13:33:09Z</time>
<desc>lat.=56.078236, lon.=26.482101, Alt.=99.499084m. Speed=9.144000m/h.</desc>
<speed>2.540000</speed>
</trkpt>
<trkpt lat="56.078262" lon="26.482098">
<ele>99.528381</ele>
<time>2010-08-29T13:33:10Z</time>
<desc>lat.=56.078262, lon.=26.482098, Alt.=99.528381m. Speed=11.592000m/h.</desc>
<speed>3.220000</speed>
</trkpt>
<trkpt lat="56.078308" lon="26.482100">
<ele>100.473694</ele>
<time>2010-08-29T13:33:11Z</time>
<desc>lat.=56.078308, lon.=26.482100, Alt.=100.473694m. Speed=12.636000m/h.</desc>
<speed>3.510000</speed>
</trkpt>
<trkpt lat="56.078350" lon="26.482090">
<ele>99.456116</ele>
<time>2010-08-29T13:33:12Z</time>
<desc>lat.=56.078350, lon.=26.482090, Alt.=99.456116m. Speed=14.256000m/h.</desc>
<speed>3.960000</speed>
</trkpt>
<trkpt lat="56.078377" lon="26.482082">
<ele>99.252991</ele>
<time>2010-08-29T13:33:13Z</time>
<desc>lat.=56.078377, lon.=26.482082, Alt.=99.252991m. Speed=13.860000m/h.</desc>
<speed>3.850000</speed>
</trkpt>
<trkpt lat="56.078411" lon="26.482082">
<ele>99.610413</ele>
<time>2010-08-29T13:33:14Z</time>
<desc>lat.=56.078411, lon.=26.482082, Alt.=99.610413m. Speed=12.204000m/h.</desc>
<speed>3.390000</speed>
</trkpt>
<trkpt lat="56.078442" lon="26.482082">
<ele>99.053772</ele>
<time>2010-08-29T13:33:15Z</time>
<desc>lat.=56.078442, lon.=26.482082, Alt.=99.053772m. Speed=14.220000m/h.</desc>
<speed>3.950000</speed>
</trkpt>
<trkpt lat="56.078472" lon="26.482067">
<ele>98.635803</ele>
<time>2010-08-29T13:33:16Z</time>
<desc>lat.=56.078472, lon.=26.482067, Alt.=98.635803m. Speed=13.824000m/h.</desc>
<speed>3.840000</speed>
</trkpt>
<trkpt lat="56.078514" lon="26.482059">
<ele>98.344788</ele>
<time>2010-08-29T13:33:17Z</time>
<desc>lat.=56.078514, lon.=26.482059, Alt.=98.344788m. Speed=14.184000m/h.</desc>
<speed>3.940000</speed>
</trkpt>
<trkpt lat="56.078552" lon="26.482046">
<ele>97.696350</ele>
<time>2010-08-29T13:33:18Z</time>
<desc>lat.=56.078552, lon.=26.482046, Alt.=97.696350m. Speed=12.924000m/h.</desc>
<speed>3.590000</speed>
</trkpt>
<trkpt lat="56.078587" lon="26.482038">
<ele>97.460022</ele>
<time>2010-08-29T13:33:19Z</time>
<desc>lat.=56.078587, lon.=26.482038, Alt.=97.460022m. Speed=14.616000m/h.</desc>
<speed>4.060000</speed>
</trkpt>
<trkpt lat="56.078629" lon="26.482033">
<ele>97.415100</ele>
<time>2010-08-29T13:33:20Z</time>
<desc>lat.=56.078629, lon.=26.482033, Alt.=97.415100m. Speed=14.760000m/h.</desc>
<speed>4.100000</speed>
</trkpt>
<trkpt lat="56.078671" lon="26.482029">
<ele>98.016663</ele>
<time>2010-08-29T13:33:21Z</time>
<desc>lat.=56.078671, lon.=26.482029, Alt.=98.016663m. Speed=15.588000m/h.</desc>
<speed>4.330000</speed>
</trkpt>
<trkpt lat="56.078709" lon="26.482021">
<ele>98.751038</ele>
<time>2010-08-29T13:33:22Z</time>
<desc>lat.=56.078709, lon.=26.482021, Alt.=98.751038m. Speed=14.976000m/h.</desc>
<speed>4.160000</speed>
</trkpt>
<trkpt lat="56.078751" lon="26.482018">
<ele>98.323303</ele>
<time>2010-08-29T13:33:23Z</time>
<desc>lat.=56.078751, lon.=26.482018, Alt.=98.323303m. Speed=15.192000m/h.</desc>
<speed>4.220000</speed>
</trkpt>
<trkpt lat="56.078785" lon="26.482016">
<ele>98.223694</ele>
<time>2010-08-29T13:33:24Z</time>
<desc>lat.=56.078785, lon.=26.482016, Alt.=98.223694m. Speed=14.256000m/h.</desc>
<speed>3.960000</speed>
</trkpt>
<trkpt lat="56.078823" lon="26.482014">
<ele>98.141663</ele>
<time>2010-08-29T13:33:25Z</time>
<desc>lat.=56.078823, lon.=26.482014, Alt.=98.141663m. Speed=13.536000m/h.</desc>
<speed>3.760000</speed>
</trkpt>
<trkpt lat="56.078861" lon="26.482010">
<ele>97.280334</ele>
<time>2010-08-29T13:33:26Z</time>
<desc>lat.=56.078861, lon.=26.482010, Alt.=97.280334m. Speed=14.148000m/h.</desc>
<speed>3.930000</speed>
</trkpt>
<trkpt lat="56.078899" lon="26.482014">
<ele>96.670959</ele>
<time>2010-08-29T13:33:27Z</time>
<desc>lat.=56.078899, lon.=26.482014, Alt.=96.670959m. Speed=13.968000m/h.</desc>
<speed>3.880000</speed>
</trkpt>
<trkpt lat="56.078941" lon="26.482016">
<ele>95.729553</ele>
<time>2010-08-29T13:33:28Z</time>
<desc>lat.=56.078941, lon.=26.482016, Alt.=95.729553m. Speed=14.364000m/h.</desc>
<speed>3.990000</speed>
</trkpt>
<trkpt lat="56.078979" lon="26.482031">
<ele>97.155334</ele>
<time>2010-08-29T13:33:29Z</time>
<desc>lat.=56.078979, lon.=26.482031, Alt.=97.155334m. Speed=13.752000m/h.</desc>
<speed>3.820000</speed>
</trkpt>
<trkpt lat="56.079014" lon="26.482038">
<ele>97.280334</ele>
<time>2010-08-29T13:33:30Z</time>
<desc>lat.=56.079014, lon.=26.482038, Alt.=97.280334m. Speed=14.544000m/h.</desc>
<speed>4.040000</speed>
</trkpt>
<trkpt lat="56.079048" lon="26.482046">
<ele>96.627991</ele>
<time>2010-08-29T13:33:31Z</time>
<desc>lat.=56.079048, lon.=26.482046, Alt.=96.627991m. Speed=14.436000m/h.</desc>
<speed>4.010000</speed>
</trkpt>
<trkpt lat="56.079082" lon="26.482044">
<ele>96.030334</ele>
<time>2010-08-29T13:33:32Z</time>
<desc>lat.=56.079082, lon.=26.482044, Alt.=96.030334m. Speed=13.212000m/h.</desc>
<speed>3.670000</speed>
</trkpt>
<trkpt lat="56.079121" lon="26.482050">
<ele>98.038147</ele>
<time>2010-08-29T13:33:33Z</time>
<desc>lat.=56.079121, lon.=26.482050, Alt.=98.038147m. Speed=14.508000m/h.</desc>
<speed>4.030000</speed>
</trkpt>
<trkpt lat="56.079163" lon="26.482058">
<ele>99.600647</ele>
<time>2010-08-29T13:33:34Z</time>
<desc>lat.=56.079163, lon.=26.482058, Alt.=99.600647m. Speed=12.564000m/h.</desc>
<speed>3.490000</speed>
</trkpt>
<trkpt lat="56.079189" lon="26.482061">
<ele>99.356506</ele>
<time>2010-08-29T13:33:35Z</time>
<desc>lat.=56.079189, lon.=26.482061, Alt.=99.356506m. Speed=11.700000m/h.</desc>
<speed>3.250000</speed>
</trkpt>
<trkpt lat="56.079216" lon="26.482065">
<ele>99.018616</ele>
<time>2010-08-29T13:33:36Z</time>
<desc>lat.=56.079216, lon.=26.482065, Alt.=99.018616m. Speed=11.232000m/h.</desc>
<speed>3.120000</speed>
</trkpt>
<trkpt lat="56.079247" lon="26.482069">
<ele>98.618225</ele>
<time>2010-08-29T13:33:37Z</time>
<desc>lat.=56.079247, lon.=26.482069, Alt.=98.618225m. Speed=12.636000m/h.</desc>
<speed>3.510000</speed>
</trkpt>
<trkpt lat="56.079285" lon="26.482067">
<ele>98.952209</ele>
<time>2010-08-29T13:33:38Z</time>
<desc>lat.=56.079285, lon.=26.482067, Alt.=98.952209m. Speed=13.248000m/h.</desc>
<speed>3.680000</speed>
</trkpt>
<trkpt lat="56.079323" lon="26.482063">
<ele>100.377991</ele>
<time>2010-08-29T13:33:39Z</time>
<desc>lat.=56.079323, lon.=26.482063, Alt.=100.377991m. Speed=13.752000m/h.</desc>
<speed>3.820000</speed>
</trkpt>
<trkpt lat="56.079361" lon="26.482065">
<ele>102.147522</ele>
<time>2010-08-29T13:33:40Z</time>
<desc>lat.=56.079361, lon.=26.482065, Alt.=102.147522m. Speed=12.672000m/h.</desc>
<speed>3.520000</speed>
</trkpt>
<trkpt lat="56.079403" lon="26.482069">
<ele>102.555725</ele>
<time>2010-08-29T13:33:41Z</time>
<desc>lat.=56.079403, lon.=26.482069, Alt.=102.555725m. Speed=14.472000m/h.</desc>
<speed>4.020000</speed>
</trkpt>
<trkpt lat="56.079437" lon="26.482065">
<ele>102.614319</ele>
<time>2010-08-29T13:33:42Z</time>
<desc>lat.=56.079437, lon.=26.482065, Alt.=102.614319m. Speed=13.572000m/h.</desc>
<speed>3.770000</speed>
</trkpt>
<trkpt lat="56.079475" lon="26.482067">
<ele>103.407288</ele>
<time>2010-08-29T13:33:43Z</time>
<desc>lat.=56.079475, lon.=26.482067, Alt.=103.407288m. Speed=13.464000m/h.</desc>
<speed>3.740000</speed>
</trkpt>
<trkpt lat="56.079510" lon="26.482063">
<ele>102.733459</ele>
<time>2010-08-29T13:33:44Z</time>
<desc>lat.=56.079510, lon.=26.482063, Alt.=102.733459m. Speed=12.852000m/h.</desc>
<speed>3.570000</speed>
</trkpt>
<trkpt lat="56.079544" lon="26.482063">
<ele>103.315491</ele>
<time>2010-08-29T13:33:45Z</time>
<desc>lat.=56.079544, lon.=26.482063, Alt.=103.315491m. Speed=13.788000m/h.</desc>
<speed>3.830000</speed>
</trkpt>
<trkpt lat="56.079578" lon="26.482067">
<ele>103.463928</ele>
<time>2010-08-29T13:33:46Z</time>
<desc>lat.=56.079578, lon.=26.482067, Alt.=103.463928m. Speed=13.140000m/h.</desc>
<speed>3.650000</speed>
</trkpt>
<trkpt lat="56.079613" lon="26.482073">
<ele>103.538147</ele>
<time>2010-08-29T13:33:47Z</time>
<desc>lat.=56.079613, lon.=26.482073, Alt.=103.538147m. Speed=12.888000m/h.</desc>
<speed>3.580000</speed>
</trkpt>
<trkpt lat="56.079636" lon="26.482071">
<ele>102.932678</ele>
<time>2010-08-29T13:33:48Z</time>
<desc>lat.=56.079636, lon.=26.482071, Alt.=102.932678m. Speed=9.684000m/h.</desc>
<speed>2.690000</speed>
</trkpt>
<trkpt lat="56.079659" lon="26.482067">
<ele>102.446350</ele>
<time>2010-08-29T13:33:49Z</time>
<desc>lat.=56.079659, lon.=26.482067, Alt.=102.446350m. Speed=8.532000m/h.</desc>
<speed>2.370000</speed>
</trkpt>
<trkpt lat="56.079681" lon="26.482067">
<ele>103.120178</ele>
<time>2010-08-29T13:33:50Z</time>
<desc>lat.=56.079681, lon.=26.482067, Alt.=103.120178m. Speed=8.064000m/h.</desc>
<speed>2.240000</speed>
</trkpt>
<trkpt lat="56.079704" lon="26.482075">
<ele>103.708069</ele>
<time>2010-08-29T13:33:51Z</time>
<desc>lat.=56.079704, lon.=26.482075, Alt.=103.708069m. Speed=7.668000m/h.</desc>
<speed>2.130000</speed>
</trkpt>
<trkpt lat="56.079723" lon="26.482077">
<ele>104.186584</ele>
<time>2010-08-29T13:33:52Z</time>
<desc>lat.=56.079723, lon.=26.482077, Alt.=104.186584m. Speed=5.796000m/h.</desc>
<speed>1.610000</speed>
</trkpt>
<trkpt lat="56.079731" lon="26.482071">
<ele>103.635803</ele>
<time>2010-08-29T13:33:53Z</time>
<desc>lat.=56.079731, lon.=26.482071, Alt.=103.635803m. Speed=3.672000m/h.</desc>
<speed>1.020000</speed>
</trkpt>
<trkpt lat="56.079742" lon="26.482067">
<ele>102.452209</ele>
<time>2010-08-29T13:33:54Z</time>
<desc>lat.=56.079742, lon.=26.482067, Alt.=102.452209m. Speed=1.692000m/h.</desc>
<speed>0.470000</speed>
</trkpt>
<trkpt lat="56.079742" lon="26.482067">
<ele>101.688538</ele>
<time>2010-08-29T13:33:55Z</time>
<desc>lat.=56.079742, lon.=26.482067, Alt.=101.688538m. Speed=0.828000m/h.</desc>
<speed>0.230000</speed>
</trkpt>
<trkpt lat="56.079739" lon="26.482058">
<ele>101.813538</ele>
<time>2010-08-29T13:33:56Z</time>
<desc>lat.=56.079739, lon.=26.482058, Alt.=101.813538m. Speed=1.224000m/h.</desc>
<speed>0.340000</speed>
</trkpt>
<trkpt lat="56.079739" lon="26.482058">
<ele>101.815491</ele>
<time>2010-08-29T13:33:57Z</time>
<desc>lat.=56.079739, lon.=26.482058, Alt.=101.815491m. Speed=0.036000m/h.</desc>
<speed>0.010000</speed>
</trkpt>
<trkpt lat="56.079739" lon="26.482058">
<ele>101.786194</ele>
<time>2010-08-29T13:33:58Z</time>
<desc>lat.=56.079739, lon.=26.482058, Alt.=101.786194m. Speed=0.036000m/h.</desc>
<speed>0.010000</speed>
</trkpt>
<trkpt lat="56.079739" lon="26.482058">
<ele>101.772522</ele>
<time>2010-08-29T13:33:59Z</time>
<desc>lat.=56.079739, lon.=26.482058, Alt.=101.772522m. Speed=0.000000m/h.</desc>
<speed>0.000000</speed>
</trkpt>
<trkpt lat="56.079739" lon="26.482058">
<ele>101.762756</ele>
<time>2010-08-29T13:34:00Z</time>
<desc>lat.=56.079739, lon.=26.482058, Alt.=101.762756m. Speed=0.000000m/h.</desc>
<speed>0.000000</speed>
</trkpt>
<trkpt lat="56.079739" lon="26.482058">
<ele>101.780334</ele>
<time>2010-08-29T13:34:01Z</time>
<desc>lat.=56.079739, lon.=26.482058, Alt.=101.780334m. Speed=0.072000m/h.</desc>
<speed>0.020000</speed>
</trkpt>
<trkpt lat="56.079739" lon="26.482058">
<ele>101.762756</ele>
<time>2010-08-29T13:34:02Z</time>
<desc>lat.=56.079739, lon.=26.482058, Alt.=101.762756m. Speed=0.000000m/h.</desc>
<speed>0.000000</speed>
</trkpt>
<trkpt lat="56.079739" lon="26.482058">
<ele>101.768616</ele>
<time>2010-08-29T13:34:03Z</time>
<desc>lat.=56.079739, lon.=26.482058, Alt.=101.768616m. Speed=0.036000m/h.</desc>
<speed>0.010000</speed>
</trkpt>
<trkpt lat="56.079739" lon="26.482056">
<ele>101.756897</ele>
<time>2010-08-29T13:34:04Z</time>
<desc>lat.=56.079739, lon.=26.482056, Alt.=101.756897m. Speed=0.000000m/h.</desc>
<speed>0.000000</speed>
</trkpt>
<trkpt lat="56.079739" lon="26.482058">
<ele>101.764709</ele>
<time>2010-08-29T13:34:05Z</time>
<desc>lat.=56.079739, lon.=26.482058, Alt.=101.764709m. Speed=0.000000m/h.</desc>
<speed>0.000000</speed>
</trkpt>
<trkpt lat="56.079739" lon="26.482058">
<ele>101.778381</ele>
<time>2010-08-29T13:34:06Z</time>
<desc>lat.=56.079739, lon.=26.482058, Alt.=101.778381m. Speed=0.000000m/h.</desc>
<speed>0.000000</speed>
</trkpt>
<trkpt lat="56.079739" lon="26.482058">
<ele>101.784241</ele>
<time>2010-08-29T13:34:07Z</time>
<desc>lat.=56.079739, lon.=26.482058, Alt.=101.784241m. Speed=0.000000m/h.</desc>
<speed>0.000000</speed>
</trkpt>
<trkpt lat="56.079739" lon="26.482058">
<ele>101.784241</ele>
<time>2010-08-29T13:34:08Z</time>
<desc>lat.=56.079739, lon.=26.482058, Alt.=101.784241m. Speed=0.036000m/h.</desc>
<speed>0.010000</speed>
</trkpt>
<trkpt lat="56.079739" lon="26.482058">
<ele>101.803772</ele>
<time>2010-08-29T13:34:09Z</time>
<desc>lat.=56.079739, lon.=26.482058, Alt.=101.803772m. Speed=0.000000m/h.</desc>
<speed>0.000000</speed>
</trkpt>
<trkpt lat="56.079739" lon="26.482058">
<ele>101.809631</ele>
<time>2010-08-29T13:34:10Z</time>
<desc>lat.=56.079739, lon.=26.482058, Alt.=101.809631m. Speed=0.000000m/h.</desc>
<speed>0.000000</speed>
</trkpt>
<trkpt lat="56.079739" lon="26.482056">
<ele>101.815491</ele>
<time>2010-08-29T13:34:11Z</time>
<desc>lat.=56.079739, lon.=26.482056, Alt.=101.815491m. Speed=0.036000m/h.</desc>
<speed>0.010000</speed>
</trkpt>
<trkpt lat="56.079739" lon="26.482058">
<ele>101.827209</ele>
<time>2010-08-29T13:34:12Z</time>
<desc>lat.=56.079739, lon.=26.482058, Alt.=101.827209m. Speed=0.036000m/h.</desc>
<speed>0.010000</speed>
</trkpt>
<trkpt lat="56.079739" lon="26.482058">
<ele>101.842834</ele>
<time>2010-08-29T13:34:13Z</time>
<desc>lat.=56.079739, lon.=26.482058, Alt.=101.842834m. Speed=0.000000m/h.</desc>
<speed>0.000000</speed>
</trkpt>
<trkpt lat="56.079739" lon="26.482058">
<ele>101.848694</ele>
<time>2010-08-29T13:34:14Z</time>
<desc>lat.=56.079739, lon.=26.482058, Alt.=101.848694m. Speed=0.000000m/h.</desc>
<speed>0.000000</speed>
</trkpt>
<trkpt lat="56.079739" lon="26.482058">
<ele>101.870178</ele>
<time>2010-08-29T13:34:15Z</time>
<desc>lat.=56.079739, lon.=26.482058, Alt.=101.870178m. Speed=0.072000m/h.</desc>
<speed>0.020000</speed>
</trkpt>
<trkpt lat="56.079739" lon="26.482058">
<ele>101.889709</ele>
<time>2010-08-29T13:34:16Z</time>
<desc>lat.=56.079739, lon.=26.482058, Alt.=101.889709m. Speed=0.000000m/h.</desc>
<speed>0.000000</speed>
</trkpt>
<trkpt lat="56.079739" lon="26.482058">
<ele>101.899475</ele>
<time>2010-08-29T13:34:17Z</time>
<desc>lat.=56.079739, lon.=26.482058, Alt.=101.899475m. Speed=0.000000m/h.</desc>
<speed>0.000000</speed>
</trkpt>
<trkpt lat="56.079739" lon="26.482058">
<ele>101.924866</ele>
<time>2010-08-29T13:34:18Z</time>
<desc>lat.=56.079739, lon.=26.482058, Alt.=101.924866m. Speed=0.000000m/h.</desc>
<speed>0.000000</speed>
</trkpt>
<trkpt lat="56.079739" lon="26.482058">
<ele>101.942444</ele>
<time>2010-08-29T13:34:19Z</time>
<desc>lat.=56.079739, lon.=26.482058, Alt.=101.942444m. Speed=0.036000m/h.</desc>
<speed>0.010000</speed>
</trkpt>
<trkpt lat="56.079739" lon="26.482058">
<ele>101.967834</ele>
<time>2010-08-29T13:34:20Z</time>
<desc>lat.=56.079739, lon.=26.482058, Alt.=101.967834m. Speed=0.036000m/h.</desc>
<speed>0.010000</speed>
</trkpt>
<trkpt lat="56.079739" lon="26.482058">
<ele>101.985413</ele>
<time>2010-08-29T13:34:21Z</time>
<desc>lat.=56.079739, lon.=26.482058, Alt.=101.985413m. Speed=0.036000m/h.</desc>
<speed>0.010000</speed>
</trkpt>
<trkpt lat="56.079739" lon="26.482058">
<ele>102.001038</ele>
<time>2010-08-29T13:34:22Z</time>
<desc>lat.=56.079739, lon.=26.482058, Alt.=102.001038m. Speed=0.000000m/h.</desc>
<speed>0.000000</speed>
</trkpt>
<trkpt lat="56.079739" lon="26.482058">
<ele>102.024475</ele>
<time>2010-08-29T13:34:23Z</time>
<desc>lat.=56.079739, lon.=26.482058, Alt.=102.024475m. Speed=0.036000m/h.</desc>
<speed>0.010000</speed>
</trkpt>
<trkpt lat="56.079739" lon="26.482058">
<ele>102.036194</ele>
<time>2010-08-29T13:34:24Z</time>
<desc>lat.=56.079739, lon.=26.482058, Alt.=102.036194m. Speed=0.036000m/h.</desc>
<speed>0.010000</speed>
</trkpt>
<trkpt lat="56.079739" lon="26.482058">
<ele>102.069397</ele>
<time>2010-08-29T13:34:25Z</time>
<desc>lat.=56.079739, lon.=26.482058, Alt.=102.069397m. Speed=0.000000m/h.</desc>
<speed>0.000000</speed>
</trkpt>
<trkpt lat="56.079739" lon="26.482058">
<ele>102.088928</ele>
<time>2010-08-29T13:34:26Z</time>
<desc>lat.=56.079739, lon.=26.482058, Alt.=102.088928m. Speed=0.036000m/h.</desc>
<speed>0.010000</speed>
</trkpt>
<trkpt lat="56.079739" lon="26.482058">
<ele>102.114319</ele>
<time>2010-08-29T13:34:27Z</time>
<desc>lat.=56.079739, lon.=26.482058, Alt.=102.114319m. Speed=0.000000m/h.</desc>
<speed>0.000000</speed>
</trkpt>
<trkpt lat="56.079739" lon="26.482058">
<ele>102.122131</ele>
<time>2010-08-29T13:34:28Z</time>
<desc>lat.=56.079739, lon.=26.482058, Alt.=102.122131m. Speed=0.108000m/h.</desc>
<speed>0.030000</speed>
</trkpt>
<trkpt lat="56.079739" lon="26.482058">
<ele>102.155334</ele>
<time>2010-08-29T13:34:29Z</time>
<desc>lat.=56.079739, lon.=26.482058, Alt.=102.155334m. Speed=0.324000m/h.</desc>
<speed>0.090000</speed>
</trkpt>
<trkpt lat="56.079739" lon="26.482059">
<ele>102.178772</ele>
<time>2010-08-29T13:34:30Z</time>
<desc>lat.=56.079739, lon.=26.482059, Alt.=102.178772m. Speed=0.180000m/h.</desc>
<speed>0.050000</speed>
</trkpt>
<trkpt lat="56.079739" lon="26.482059">
<ele>102.202209</ele>
<time>2010-08-29T13:34:31Z</time>
<desc>lat.=56.079739, lon.=26.482059, Alt.=102.202209m. Speed=0.720000m/h.</desc>
<speed>0.200000</speed>
</trkpt>
<trkpt lat="56.079739" lon="26.482059">
<ele>102.208069</ele>
<time>2010-08-29T13:34:32Z</time>
<desc>lat.=56.079739, lon.=26.482059, Alt.=102.208069m. Speed=0.216000m/h.</desc>
<speed>0.060000</speed>
</trkpt>
<trkpt lat="56.079739" lon="26.482059">
<ele>102.208069</ele>
<time>2010-08-29T13:34:33Z</time>
<desc>lat.=56.079739, lon.=26.482059, Alt.=102.208069m. Speed=0.144000m/h.</desc>
<speed>0.040000</speed>
</trkpt>
<trkpt lat="56.079739" lon="26.482059">
<ele>102.210022</ele>
<time>2010-08-29T13:34:34Z</time>
<desc>lat.=56.079739, lon.=26.482059, Alt.=102.210022m. Speed=0.180000m/h.</desc>
<speed>0.050000</speed>
</trkpt>
<trkpt lat="56.079739" lon="26.482059">
<ele>102.210022</ele>
<time>2010-08-29T13:34:35Z</time>
<desc>lat.=56.079739, lon.=26.482059, Alt.=102.210022m. Speed=0.000000m/h.</desc>
<speed>0.000000</speed>
</trkpt>
<trkpt lat="56.079739" lon="26.482059">
<ele>102.211975</ele>
<time>2010-08-29T13:34:36Z</time>
<desc>lat.=56.079739, lon.=26.482059, Alt.=102.211975m. Speed=0.072000m/h.</desc>
<speed>0.020000</speed>
</trkpt>
<trkpt lat="56.079739" lon="26.482059">
<ele>102.210022</ele>
<time>2010-08-29T13:34:37Z</time>
<desc>lat.=56.079739, lon.=26.482059, Alt.=102.210022m. Speed=0.036000m/h.</desc>
<speed>0.010000</speed>
</trkpt>
<trkpt lat="56.079739" lon="26.482059">
<ele>102.202209</ele>
<time>2010-08-29T13:34:38Z</time>
<desc>lat.=56.079739, lon.=26.482059, Alt.=102.202209m. Speed=0.036000m/h.</desc>
<speed>0.010000</speed>
</trkpt>
<trkpt lat="56.079739" lon="26.482059">
<ele>102.208069</ele>
<time>2010-08-29T13:34:39Z</time>
<desc>lat.=56.079739, lon.=26.482059, Alt.=102.208069m. Speed=0.468000m/h.</desc>
<speed>0.130000</speed>
</trkpt>
<trkpt lat="56.079739" lon="26.482061">
<ele>102.215881</ele>
<time>2010-08-29T13:34:40Z</time>
<desc>lat.=56.079739, lon.=26.482061, Alt.=102.215881m. Speed=0.864000m/h.</desc>
<speed>0.240000</speed>
</trkpt>
<trkpt lat="56.079739" lon="26.482065">
<ele>102.342834</ele>
<time>2010-08-29T13:34:41Z</time>
<desc>lat.=56.079739, lon.=26.482065, Alt.=102.342834m. Speed=2.484000m/h.</desc>
<speed>0.690000</speed>
</trkpt>
<trkpt lat="56.079739" lon="26.482077">
<ele>102.428772</ele>
<time>2010-08-29T13:34:42Z</time>
<desc>lat.=56.079739, lon.=26.482077, Alt.=102.428772m. Speed=3.780000m/h.</desc>
<speed>1.050000</speed>
</trkpt>
<trkpt lat="56.079739" lon="26.482101">
<ele>102.399475</ele>
<time>2010-08-29T13:34:43Z</time>
<desc>lat.=56.079739, lon.=26.482101, Alt.=102.399475m. Speed=5.760000m/h.</desc>
<speed>1.600000</speed>
</trkpt>
<trkpt lat="56.079739" lon="26.482124">
<ele>102.485413</ele>
<time>2010-08-29T13:34:44Z</time>
<desc>lat.=56.079739, lon.=26.482124, Alt.=102.485413m. Speed=5.364000m/h.</desc>
<speed>1.490000</speed>
</trkpt>
<trkpt lat="56.079742" lon="26.482149">
<ele>102.717834</ele>
<time>2010-08-29T13:34:45Z</time>
<desc>lat.=56.079742, lon.=26.482149, Alt.=102.717834m. Speed=6.516000m/h.</desc>
<speed>1.810000</speed>
</trkpt>
<trkpt lat="56.079735" lon="26.482183">
<ele>103.022522</ele>
<time>2010-08-29T13:34:46Z</time>
<desc>lat.=56.079735, lon.=26.482183, Alt.=103.022522m. Speed=7.956000m/h.</desc>
<speed>2.210000</speed>
</trkpt>
<trkpt lat="56.079739" lon="26.482218">
<ele>103.274475</ele>
<time>2010-08-29T13:34:47Z</time>
<desc>lat.=56.079739, lon.=26.482218, Alt.=103.274475m. Speed=8.640000m/h.</desc>
<speed>2.400000</speed>
</trkpt>
<trkpt lat="56.079742" lon="26.482250">
<ele>103.684631</ele>
<time>2010-08-29T13:34:48Z</time>
<desc>lat.=56.079742, lon.=26.482250, Alt.=103.684631m. Speed=8.280000m/h.</desc>
<speed>2.300000</speed>
</trkpt>
<trkpt lat="56.079746" lon="26.482286">
<ele>104.280334</ele>
<time>2010-08-29T13:34:49Z</time>
<desc>lat.=56.079746, lon.=26.482286, Alt.=104.280334m. Speed=8.388000m/h.</desc>
<speed>2.330000</speed>
</trkpt>
<trkpt lat="56.079746" lon="26.482323">
<ele>105.014709</ele>
<time>2010-08-29T13:34:50Z</time>
<desc>lat.=56.079746, lon.=26.482323, Alt.=105.014709m. Speed=8.460000m/h.</desc>
<speed>2.350000</speed>
</trkpt>
<trkpt lat="56.079746" lon="26.482359">
<ele>104.858459</ele>
<time>2010-08-29T13:34:51Z</time>
<desc>lat.=56.079746, lon.=26.482359, Alt.=104.858459m. Speed=8.856000m/h.</desc>
<speed>2.460000</speed>
</trkpt>
<trkpt lat="56.079750" lon="26.482393">
<ele>105.141663</ele>
<time>2010-08-29T13:34:52Z</time>
<desc>lat.=56.079750, lon.=26.482393, Alt.=105.141663m. Speed=7.632000m/h.</desc>
<speed>2.120000</speed>
</trkpt>
<trkpt lat="56.079750" lon="26.482420">
<ele>105.241272</ele>
<time>2010-08-29T13:34:53Z</time>
<desc>lat.=56.079750, lon.=26.482420, Alt.=105.241272m. Speed=7.272000m/h.</desc>
<speed>2.020000</speed>
</trkpt>
<trkpt lat="56.079742" lon="26.482435">
<ele>105.323303</ele>
<time>2010-08-29T13:34:54Z</time>
<desc>lat.=56.079742, lon.=26.482435, Alt.=105.323303m. Speed=6.660000m/h.</desc>
<speed>1.850000</speed>
</trkpt>
<trkpt lat="56.079739" lon="26.482462">
<ele>105.669006</ele>
<time>2010-08-29T13:34:55Z</time>
<desc>lat.=56.079739, lon.=26.482462, Alt.=105.669006m. Speed=8.136000m/h.</desc>
<speed>2.260000</speed>
</trkpt>
<trkpt lat="56.079735" lon="26.482489">
<ele>106.249084</ele>
<time>2010-08-29T13:34:56Z</time>
<desc>lat.=56.079735, lon.=26.482489, Alt.=106.249084m. Speed=7.020000m/h.</desc>
<speed>1.950000</speed>
</trkpt>
<trkpt lat="56.079735" lon="26.482510">
<ele>106.696350</ele>
<time>2010-08-29T13:34:57Z</time>
<desc>lat.=56.079735, lon.=26.482510, Alt.=106.696350m. Speed=7.812000m/h.</desc>
<speed>2.170000</speed>
</trkpt>
<trkpt lat="56.079739" lon="26.482534">
<ele>106.899475</ele>
<time>2010-08-29T13:34:58Z</time>
<desc>lat.=56.079739, lon.=26.482534, Alt.=106.899475m. Speed=6.300000m/h.</desc>
<speed>1.750000</speed>
</trkpt>
<trkpt lat="56.079735" lon="26.482559">
<ele>107.196350</ele>
<time>2010-08-29T13:34:59Z</time>
<desc>lat.=56.079735, lon.=26.482559, Alt.=107.196350m. Speed=6.444000m/h.</desc>
<speed>1.790000</speed>
</trkpt>
<trkpt lat="56.079731" lon="26.482590">
<ele>107.030334</ele>
<time>2010-08-29T13:35:00Z</time>
<desc>lat.=56.079731, lon.=26.482590, Alt.=107.030334m. Speed=7.236000m/h.</desc>
<speed>2.010000</speed>
</trkpt>
<trkpt lat="56.079731" lon="26.482622">
<ele>107.333069</ele>
<time>2010-08-29T13:35:01Z</time>
<desc>lat.=56.079731, lon.=26.482622, Alt.=107.333069m. Speed=8.136000m/h.</desc>
<speed>2.260000</speed>
</trkpt>
<trkpt lat="56.079731" lon="26.482658">
<ele>107.827209</ele>
<time>2010-08-29T13:35:02Z</time>
<desc>lat.=56.079731, lon.=26.482658, Alt.=107.827209m. Speed=9.468000m/h.</desc>
<speed>2.630000</speed>
</trkpt>
<trkpt lat="56.079739" lon="26.482700">
<ele>108.342834</ele>
<time>2010-08-29T13:35:03Z</time>
<desc>lat.=56.079739, lon.=26.482700, Alt.=108.342834m. Speed=9.936000m/h.</desc>
<speed>2.760000</speed>
</trkpt>
<trkpt lat="56.079739" lon="26.482746">
<ele>108.629944</ele>
<time>2010-08-29T13:35:04Z</time>
<desc>lat.=56.079739, lon.=26.482746, Alt.=108.629944m. Speed=11.952000m/h.</desc>
<speed>3.320000</speed>
</trkpt>
<trkpt lat="56.079735" lon="26.482798">
<ele>108.456116</ele>
<time>2010-08-29T13:35:05Z</time>
<desc>lat.=56.079735, lon.=26.482798, Alt.=108.456116m. Speed=13.032000m/h.</desc>
<speed>3.620000</speed>
</trkpt>
<trkpt lat="56.079727" lon="26.482845">
<ele>107.981506</ele>
<time>2010-08-29T13:35:06Z</time>
<desc>lat.=56.079727, lon.=26.482845, Alt.=107.981506m. Speed=12.672000m/h.</desc>
<speed>3.520000</speed>
</trkpt>
<trkpt lat="56.079716" lon="26.482895">
<ele>107.131897</ele>
<time>2010-08-29T13:35:07Z</time>
<desc>lat.=56.079716, lon.=26.482895, Alt.=107.131897m. Speed=13.032000m/h.</desc>
<speed>3.620000</speed>
</trkpt>
<trkpt lat="56.079708" lon="26.482948">
<ele>107.270569</ele>
<time>2010-08-29T13:35:08Z</time>
<desc>lat.=56.079708, lon.=26.482948, Alt.=107.270569m. Speed=12.600000m/h.</desc>
<speed>3.500000</speed>
</trkpt>
<trkpt lat="56.079704" lon="26.482998">
<ele>106.481506</ele>
<time>2010-08-29T13:35:09Z</time>
<desc>lat.=56.079704, lon.=26.482998, Alt.=106.481506m. Speed=12.960000m/h.</desc>
<speed>3.600000</speed>
</trkpt>
<trkpt lat="56.079693" lon="26.483044">
<ele>105.715881</ele>
<time>2010-08-29T13:35:10Z</time>
<desc>lat.=56.079693, lon.=26.483044, Alt.=105.715881m. Speed=12.816000m/h.</desc>
<speed>3.560000</speed>
</trkpt>
<trkpt lat="56.079681" lon="26.483091">
<ele>104.928772</ele>
<time>2010-08-29T13:35:11Z</time>
<desc>lat.=56.079681, lon.=26.483091, Alt.=104.928772m. Speed=12.780000m/h.</desc>
<speed>3.550000</speed>
</trkpt>
<trkpt lat="56.079674" lon="26.483141">
<ele>104.108459</ele>
<time>2010-08-29T13:35:12Z</time>
<desc>lat.=56.079674, lon.=26.483141, Alt.=104.108459m. Speed=12.708000m/h.</desc>
<speed>3.530000</speed>
</trkpt>
<trkpt lat="56.079670" lon="26.483194">
<ele>103.831116</ele>
<time>2010-08-29T13:35:13Z</time>
<desc>lat.=56.079670, lon.=26.483194, Alt.=103.831116m. Speed=13.428000m/h.</desc>
<speed>3.730000</speed>
</trkpt>
<trkpt lat="56.079662" lon="26.483236">
<ele>103.090881</ele>
<time>2010-08-29T13:35:14Z</time>
<desc>lat.=56.079662, lon.=26.483236, Alt.=103.090881m. Speed=13.572000m/h.</desc>
<speed>3.770000</speed>
</trkpt>
<trkpt lat="56.079659" lon="26.483295">
<ele>103.266663</ele>
<time>2010-08-29T13:35:15Z</time>
<desc>lat.=56.079659, lon.=26.483295, Alt.=103.266663m. Speed=13.068000m/h.</desc>
<speed>3.630000</speed>
</trkpt>
<trkpt lat="56.079651" lon="26.483360">
<ele>103.690491</ele>
<time>2010-08-29T13:35:16Z</time>
<desc>lat.=56.079651, lon.=26.483360, Alt.=103.690491m. Speed=13.248000m/h.</desc>
<speed>3.680000</speed>
</trkpt>
<trkpt lat="56.079639" lon="26.483414">
<ele>103.932678</ele>
<time>2010-08-29T13:35:17Z</time>
<desc>lat.=56.079639, lon.=26.483414, Alt.=103.932678m. Speed=12.492000m/h.</desc>
<speed>3.470000</speed>
</trkpt>
<trkpt lat="56.079624" lon="26.483461">
<ele>103.674866</ele>
<time>2010-08-29T13:35:18Z</time>
<desc>lat.=56.079624, lon.=26.483461, Alt.=103.674866m. Speed=12.024000m/h.</desc>
<speed>3.340000</speed>
</trkpt>
<trkpt lat="56.079613" lon="26.483507">
<ele>103.100647</ele>
<time>2010-08-29T13:35:19Z</time>
<desc>lat.=56.079613, lon.=26.483507, Alt.=103.100647m. Speed=11.160000m/h.</desc>
<speed>3.100000</speed>
</trkpt>
<trkpt lat="56.079613" lon="26.483555">
<ele>103.153381</ele>
<time>2010-08-29T13:35:20Z</time>
<desc>lat.=56.079613, lon.=26.483555, Alt.=103.153381m. Speed=9.828000m/h.</desc>
<speed>2.730000</speed>
</trkpt>
<trkpt lat="56.079613" lon="26.483603">
<ele>103.311584</ele>
<time>2010-08-29T13:35:21Z</time>
<desc>lat.=56.079613, lon.=26.483603, Alt.=103.311584m. Speed=10.188000m/h.</desc>
<speed>2.830000</speed>
</trkpt>
<trkpt lat="56.079613" lon="26.483648">
<ele>102.934631</ele>
<time>2010-08-29T13:35:22Z</time>
<desc>lat.=56.079613, lon.=26.483648, Alt.=102.934631m. Speed=11.412000m/h.</desc>
<speed>3.170000</speed>
</trkpt>
<trkpt lat="56.079613" lon="26.483709">
<ele>102.999084</ele>
<time>2010-08-29T13:35:23Z</time>
<desc>lat.=56.079613, lon.=26.483709, Alt.=102.999084m. Speed=12.132000m/h.</desc>
<speed>3.370000</speed>
</trkpt>
<trkpt lat="56.079605" lon="26.483759">
<ele>103.126038</ele>
<time>2010-08-29T13:35:24Z</time>
<desc>lat.=56.079605, lon.=26.483759, Alt.=103.126038m. Speed=11.088000m/h.</desc>
<speed>3.080000</speed>
</trkpt>
<trkpt lat="56.079601" lon="26.483818">
<ele>103.641663</ele>
<time>2010-08-29T13:35:25Z</time>
<desc>lat.=56.079601, lon.=26.483818, Alt.=103.641663m. Speed=12.420000m/h.</desc>
<speed>3.450000</speed>
</trkpt>
<trkpt lat="56.079594" lon="26.483875">
<ele>103.553772</ele>
<time>2010-08-29T13:35:26Z</time>
<desc>lat.=56.079594, lon.=26.483875, Alt.=103.553772m. Speed=12.888000m/h.</desc>
<speed>3.580000</speed>
</trkpt>
<trkpt lat="56.079582" lon="26.483940">
<ele>103.719788</ele>
<time>2010-08-29T13:35:27Z</time>
<desc>lat.=56.079582, lon.=26.483940, Alt.=103.719788m. Speed=11.880000m/h.</desc>
<speed>3.300000</speed>
</trkpt>
<trkpt lat="56.079575" lon="26.483999">
<ele>103.723694</ele>
<time>2010-08-29T13:35:28Z</time>
<desc>lat.=56.079575, lon.=26.483999, Alt.=103.723694m. Speed=13.824000m/h.</desc>
<speed>3.840000</speed>
</trkpt>
<trkpt lat="56.079567" lon="26.484055">
<ele>103.313538</ele>
<time>2010-08-29T13:35:29Z</time>
<desc>lat.=56.079567, lon.=26.484055, Alt.=103.313538m. Speed=12.852000m/h.</desc>
<speed>3.570000</speed>
</trkpt>
<trkpt lat="56.079559" lon="26.484106">
<ele>103.348694</ele>
<time>2010-08-29T13:35:30Z</time>
<desc>lat.=56.079559, lon.=26.484106, Alt.=103.348694m. Speed=11.520000m/h.</desc>
<speed>3.200000</speed>
</trkpt>
<trkpt lat="56.079552" lon="26.484154">
<ele>103.030334</ele>
<time>2010-08-29T13:35:31Z</time>
<desc>lat.=56.079552, lon.=26.484154, Alt.=103.030334m. Speed=10.980000m/h.</desc>
<speed>3.050000</speed>
</trkpt>
<trkpt lat="56.079544" lon="26.484203">
<ele>102.395569</ele>
<time>2010-08-29T13:35:32Z</time>
<desc>lat.=56.079544, lon.=26.484203, Alt.=102.395569m. Speed=10.872000m/h.</desc>
<speed>3.020000</speed>
</trkpt>
<trkpt lat="56.079536" lon="26.484255">
<ele>102.047913</ele>
<time>2010-08-29T13:35:33Z</time>
<desc>lat.=56.079536, lon.=26.484255, Alt.=102.047913m. Speed=10.872000m/h.</desc>
<speed>3.020000</speed>
</trkpt>
<trkpt lat="56.079529" lon="26.484295">
<ele>101.184631</ele>
<time>2010-08-29T13:35:34Z</time>
<desc>lat.=56.079529, lon.=26.484295, Alt.=101.184631m. Speed=8.892000m/h.</desc>
<speed>2.470000</speed>
</trkpt>
<trkpt lat="56.079529" lon="26.484335">
<ele>101.225647</ele>
<time>2010-08-29T13:35:35Z</time>
<desc>lat.=56.079529, lon.=26.484335, Alt.=101.225647m. Speed=9.252000m/h.</desc>
<speed>2.570000</speed>
</trkpt>
<trkpt lat="56.079525" lon="26.484385">
<ele>101.432678</ele>
<time>2010-08-29T13:35:36Z</time>
<desc>lat.=56.079525, lon.=26.484385, Alt.=101.432678m. Speed=10.296000m/h.</desc>
<speed>2.860000</speed>
</trkpt>
<trkpt lat="56.079521" lon="26.484428">
<ele>100.967834</ele>
<time>2010-08-29T13:35:37Z</time>
<desc>lat.=56.079521, lon.=26.484428, Alt.=100.967834m. Speed=7.272000m/h.</desc>
<speed>2.020000</speed>
</trkpt>
<trkpt lat="56.079510" lon="26.484463">
<ele>100.114319</ele>
<time>2010-08-29T13:35:38Z</time>
<desc>lat.=56.079510, lon.=26.484463, Alt.=100.114319m. Speed=10.800000m/h.</desc>
<speed>3.000000</speed>
</trkpt>
<trkpt lat="56.079498" lon="26.484514">
<ele>98.104553</ele>
<time>2010-08-29T13:35:39Z</time>
<desc>lat.=56.079498, lon.=26.484514, Alt.=98.104553m. Speed=12.492000m/h.</desc>
<speed>3.470000</speed>
</trkpt>
<trkpt lat="56.079494" lon="26.484581">
<ele>97.286194</ele>
<time>2010-08-29T13:35:40Z</time>
<desc>lat.=56.079494, lon.=26.484581, Alt.=97.286194m. Speed=14.436000m/h.</desc>
<speed>4.010000</speed>
</trkpt>
<trkpt lat="56.079506" lon="26.484661">
<ele>97.825256</ele>
<time>2010-08-29T13:35:41Z</time>
<desc>lat.=56.079506, lon.=26.484661, Alt.=97.825256m. Speed=14.328000m/h.</desc>
<speed>3.980000</speed>
</trkpt>
<trkpt lat="56.079506" lon="26.484747">
<ele>98.274475</ele>
<time>2010-08-29T13:35:42Z</time>
<desc>lat.=56.079506, lon.=26.484747, Alt.=98.274475m. Speed=17.351999m/h.</desc>
<speed>4.820000</speed>
</trkpt>
<trkpt lat="56.079506" lon="26.484856">
<ele>99.858459</ele>
<time>2010-08-29T13:35:43Z</time>
<desc>lat.=56.079506, lon.=26.484856, Alt.=99.858459m. Speed=17.316000m/h.</desc>
<speed>4.810000</speed>
</trkpt>
<trkpt lat="56.079510" lon="26.484955">
<ele>101.225647</ele>
<time>2010-08-29T13:35:44Z</time>
<desc>lat.=56.079510, lon.=26.484955, Alt.=101.225647m. Speed=17.208000m/h.</desc>
<speed>4.780000</speed>
</trkpt>
<trkpt lat="56.079517" lon="26.485046">
<ele>101.538147</ele>
<time>2010-08-29T13:35:45Z</time>
<desc>lat.=56.079517, lon.=26.485046, Alt.=101.538147m. Speed=16.884001m/h.</desc>
<speed>4.690000</speed>
</trkpt>
<trkpt lat="56.079517" lon="26.485134">
<ele>102.161194</ele>
<time>2010-08-29T13:35:46Z</time>
<desc>lat.=56.079517, lon.=26.485134, Alt.=102.161194m. Speed=15.408000m/h.</desc>
<speed>4.280000</speed>
</trkpt>
<trkpt lat="56.079517" lon="26.485210">
<ele>101.899475</ele>
<time>2010-08-29T13:35:47Z</time>
<desc>lat.=56.079517, lon.=26.485210, Alt.=101.899475m. Speed=14.328000m/h.</desc>
<speed>3.980000</speed>
</trkpt>
<trkpt lat="56.079521" lon="26.485273">
<ele>101.598694</ele>
<time>2010-08-29T13:35:48Z</time>
<desc>lat.=56.079521, lon.=26.485273, Alt.=101.598694m. Speed=13.104000m/h.</desc>
<speed>3.640000</speed>
</trkpt>
<trkpt lat="56.079517" lon="26.485329">
<ele>101.190491</ele>
<time>2010-08-29T13:35:49Z</time>
<desc>lat.=56.079517, lon.=26.485329, Alt.=101.190491m. Speed=13.428000m/h.</desc>
<speed>3.730000</speed>
</trkpt>
<trkpt lat="56.079525" lon="26.485394">
<ele>102.202209</ele>
<time>2010-08-29T13:35:50Z</time>
<desc>lat.=56.079525, lon.=26.485394, Alt.=102.202209m. Speed=13.248000m/h.</desc>
<speed>3.680000</speed>
</trkpt>
<trkpt lat="56.079514" lon="26.485455">
<ele>101.581116</ele>
<time>2010-08-29T13:35:51Z</time>
<desc>lat.=56.079514, lon.=26.485455, Alt.=101.581116m. Speed=13.824000m/h.</desc>
<speed>3.840000</speed>
</trkpt>
<trkpt lat="56.079506" lon="26.485519">
<ele>101.085022</ele>
<time>2010-08-29T13:35:52Z</time>
<desc>lat.=56.079506, lon.=26.485519, Alt.=101.085022m. Speed=14.976000m/h.</desc>
<speed>4.160000</speed>
</trkpt>
<trkpt lat="56.079494" lon="26.485579">
<ele>100.167053</ele>
<time>2010-08-29T13:35:53Z</time>
<desc>lat.=56.079494, lon.=26.485579, Alt.=100.167053m. Speed=15.120000m/h.</desc>
<speed>4.200000</speed>
</trkpt>
<trkpt lat="56.079498" lon="26.485662">
<ele>101.131897</ele>
<time>2010-08-29T13:35:54Z</time>
<desc>lat.=56.079498, lon.=26.485662, Alt.=101.131897m. Speed=16.632000m/h.</desc>
<speed>4.620000</speed>
</trkpt>
<trkpt lat="56.079498" lon="26.485748">
<ele>101.977600</ele>
<time>2010-08-29T13:35:55Z</time>
<desc>lat.=56.079498, lon.=26.485748, Alt.=101.977600m. Speed=17.712000m/h.</desc>
<speed>4.920000</speed>
</trkpt>
<trkpt lat="56.079494" lon="26.485828">
<ele>101.649475</ele>
<time>2010-08-29T13:35:56Z</time>
<desc>lat.=56.079494, lon.=26.485828, Alt.=101.649475m. Speed=18.864000m/h.</desc>
<speed>5.240000</speed>
</trkpt>
<trkpt lat="56.079491" lon="26.485918">
<ele>101.649475</ele>
<time>2010-08-29T13:35:57Z</time>
<desc>lat.=56.079491, lon.=26.485918, Alt.=101.649475m. Speed=17.927999m/h.</desc>
<speed>4.980000</speed>
</trkpt>
<trkpt lat="56.079483" lon="26.486000">
<ele>101.311584</ele>
<time>2010-08-29T13:35:58Z</time>
<desc>lat.=56.079483, lon.=26.486000, Alt.=101.311584m. Speed=17.136000m/h.</desc>
<speed>4.760000</speed>
</trkpt>
<trkpt lat="56.079479" lon="26.486080">
<ele>101.958069</ele>
<time>2010-08-29T13:35:59Z</time>
<desc>lat.=56.079479, lon.=26.486080, Alt.=101.958069m. Speed=16.056000m/h.</desc>
<speed>4.460000</speed>
</trkpt>
<trkpt lat="56.079475" lon="26.486156">
<ele>101.858459</ele>
<time>2010-08-29T13:36:00Z</time>
<desc>lat.=56.079475, lon.=26.486156, Alt.=101.858459m. Speed=15.084000m/h.</desc>
<speed>4.190000</speed>
</trkpt>
<trkpt lat="56.079464" lon="26.486221">
<ele>101.788147</ele>
<time>2010-08-29T13:36:01Z</time>
<desc>lat.=56.079464, lon.=26.486221, Alt.=101.788147m. Speed=14.544000m/h.</desc>
<speed>4.040000</speed>
</trkpt>
<trkpt lat="56.079460" lon="26.486300">
<ele>101.985413</ele>
<time>2010-08-29T13:36:02Z</time>
<desc>lat.=56.079460, lon.=26.486300, Alt.=101.985413m. Speed=16.164000m/h.</desc>
<speed>4.490000</speed>
</trkpt>
<trkpt lat="56.079453" lon="26.486376">
<ele>101.977600</ele>
<time>2010-08-29T13:36:03Z</time>
<desc>lat.=56.079453, lon.=26.486376, Alt.=101.977600m. Speed=18.000000m/h.</desc>
<speed>5.000000</speed>
</trkpt>
<trkpt lat="56.079453" lon="26.486460">
<ele>101.991272</ele>
<time>2010-08-29T13:36:04Z</time>
<desc>lat.=56.079453, lon.=26.486460, Alt.=101.991272m. Speed=18.000000m/h.</desc>
<speed>5.000000</speed>
</trkpt>
<trkpt lat="56.079456" lon="26.486536">
<ele>101.399475</ele>
<time>2010-08-29T13:36:05Z</time>
<desc>lat.=56.079456, lon.=26.486536, Alt.=101.399475m. Speed=17.784000m/h.</desc>
<speed>4.940000</speed>
</trkpt>
<trkpt lat="56.079456" lon="26.486618">
<ele>101.551819</ele>
<time>2010-08-29T13:36:06Z</time>
<desc>lat.=56.079456, lon.=26.486618, Alt.=101.551819m. Speed=16.452000m/h.</desc>
<speed>4.570000</speed>
</trkpt>
<trkpt lat="56.079460" lon="26.486689">
<ele>101.883850</ele>
<time>2010-08-29T13:36:07Z</time>
<desc>lat.=56.079460, lon.=26.486689, Alt.=101.883850m. Speed=13.536000m/h.</desc>
<speed>3.760000</speed>
</trkpt>
<trkpt lat="56.079456" lon="26.486763">
<ele>102.051819</ele>
<time>2010-08-29T13:36:08Z</time>
<desc>lat.=56.079456, lon.=26.486763, Alt.=102.051819m. Speed=16.091999m/h.</desc>
<speed>4.470000</speed>
</trkpt>
<trkpt lat="56.079445" lon="26.486847">
<ele>101.251038</ele>
<time>2010-08-29T13:36:09Z</time>
<desc>lat.=56.079445, lon.=26.486847, Alt.=101.251038m. Speed=17.172001m/h.</desc>
<speed>4.770000</speed>
</trkpt>
<trkpt lat="56.079441" lon="26.486942">
<ele>100.899475</ele>
<time>2010-08-29T13:36:10Z</time>
<desc>lat.=56.079441, lon.=26.486942, Alt.=100.899475m. Speed=17.927999m/h.</desc>
<speed>4.980000</speed>
</trkpt>
<trkpt lat="56.079430" lon="26.487015">
<ele>99.278381</ele>
<time>2010-08-29T13:36:11Z</time>
<desc>lat.=56.079430, lon.=26.487015, Alt.=99.278381m. Speed=17.712000m/h.</desc>
<speed>4.920000</speed>
</trkpt>
<trkpt lat="56.079422" lon="26.487091">
<ele>98.356506</ele>
<time>2010-08-29T13:36:12Z</time>
<desc>lat.=56.079422, lon.=26.487091, Alt.=98.356506m. Speed=17.532000m/h.</desc>
<speed>4.870000</speed>
</trkpt>
<trkpt lat="56.079422" lon="26.487173">
<ele>97.745178</ele>
<time>2010-08-29T13:36:13Z</time>
<desc>lat.=56.079422, lon.=26.487173, Alt.=97.745178m. Speed=17.388000m/h.</desc>
<speed>4.830000</speed>
</trkpt>
<trkpt lat="56.079422" lon="26.487259">
<ele>98.350647</ele>
<time>2010-08-29T13:36:14Z</time>
<desc>lat.=56.079422, lon.=26.487259, Alt.=98.350647m. Speed=18.288000m/h.</desc>
<speed>5.080000</speed>
</trkpt>
<trkpt lat="56.079422" lon="26.487337">
<ele>97.965881</ele>
<time>2010-08-29T13:36:15Z</time>
<desc>lat.=56.079422, lon.=26.487337, Alt.=97.965881m. Speed=16.488001m/h.</desc>
<speed>4.580000</speed>
</trkpt>
<trkpt lat="56.079411" lon="26.487404">
<ele>96.881897</ele>
<time>2010-08-29T13:36:16Z</time>
<desc>lat.=56.079411, lon.=26.487404, Alt.=96.881897m. Speed=16.271999m/h.</desc>
<speed>4.520000</speed>
</trkpt>
<trkpt lat="56.079407" lon="26.487476">
<ele>96.165100</ele>
<time>2010-08-29T13:36:17Z</time>
<desc>lat.=56.079407, lon.=26.487476, Alt.=96.165100m. Speed=15.552000m/h.</desc>
<speed>4.320000</speed>
</trkpt>
<trkpt lat="56.079399" lon="26.487549">
<ele>95.688538</ele>
<time>2010-08-29T13:36:18Z</time>
<desc>lat.=56.079399, lon.=26.487549, Alt.=95.688538m. Speed=14.796000m/h.</desc>
<speed>4.110000</speed>
</trkpt>
<trkpt lat="56.079391" lon="26.487608">
<ele>94.848694</ele>
<time>2010-08-29T13:36:19Z</time>
<desc>lat.=56.079391, lon.=26.487608, Alt.=94.848694m. Speed=13.644000m/h.</desc>
<speed>3.790000</speed>
</trkpt>
<trkpt lat="56.079376" lon="26.487659">
<ele>93.645569</ele>
<time>2010-08-29T13:36:20Z</time>
<desc>lat.=56.079376, lon.=26.487659, Alt.=93.645569m. Speed=12.744000m/h.</desc>
<speed>3.540000</speed>
</trkpt>
<trkpt lat="56.079372" lon="26.487715">
<ele>93.241272</ele>
<time>2010-08-29T13:36:21Z</time>
<desc>lat.=56.079372, lon.=26.487715, Alt.=93.241272m. Speed=11.520000m/h.</desc>
<speed>3.200000</speed>
</trkpt>
<trkpt lat="56.079372" lon="26.487766">
<ele>92.961975</ele>
<time>2010-08-29T13:36:22Z</time>
<desc>lat.=56.079372, lon.=26.487766, Alt.=92.961975m. Speed=11.016000m/h.</desc>
<speed>3.060000</speed>
</trkpt>
<trkpt lat="56.079376" lon="26.487827">
<ele>93.210022</ele>
<time>2010-08-29T13:36:23Z</time>
<desc>lat.=56.079376, lon.=26.487827, Alt.=93.210022m. Speed=13.500000m/h.</desc>
<speed>3.750000</speed>
</trkpt>
<trkpt lat="56.079380" lon="26.487896">
<ele>93.495178</ele>
<time>2010-08-29T13:36:24Z</time>
<desc>lat.=56.079380, lon.=26.487896, Alt.=93.495178m. Speed=14.256000m/h.</desc>
<speed>3.960000</speed>
</trkpt>
<trkpt lat="56.079384" lon="26.487965">
<ele>93.551819</ele>
<time>2010-08-29T13:36:25Z</time>
<desc>lat.=56.079384, lon.=26.487965, Alt.=93.551819m. Speed=13.896000m/h.</desc>
<speed>3.860000</speed>
</trkpt>
<trkpt lat="56.079384" lon="26.488043">
<ele>93.860413</ele>
<time>2010-08-29T13:36:26Z</time>
<desc>lat.=56.079384, lon.=26.488043, Alt.=93.860413m. Speed=15.624000m/h.</desc>
<speed>4.340000</speed>
</trkpt>
<trkpt lat="56.079384" lon="26.488110">
<ele>93.542053</ele>
<time>2010-08-29T13:36:27Z</time>
<desc>lat.=56.079384, lon.=26.488110, Alt.=93.542053m. Speed=13.860000m/h.</desc>
<speed>3.850000</speed>
</trkpt>
<trkpt lat="56.079388" lon="26.488184">
<ele>93.598694</ele>
<time>2010-08-29T13:36:28Z</time>
<desc>lat.=56.079388, lon.=26.488184, Alt.=93.598694m. Speed=14.940000m/h.</desc>
<speed>4.150000</speed>
</trkpt>
<trkpt lat="56.079391" lon="26.488266">
<ele>93.917053</ele>
<time>2010-08-29T13:36:29Z</time>
<desc>lat.=56.079391, lon.=26.488266, Alt.=93.917053m. Speed=16.091999m/h.</desc>
<speed>4.470000</speed>
</trkpt>
<trkpt lat="56.079388" lon="26.488340">
<ele>93.149475</ele>
<time>2010-08-29T13:36:30Z</time>
<desc>lat.=56.079388, lon.=26.488340, Alt.=93.149475m. Speed=16.596001m/h.</desc>
<speed>4.610000</speed>
</trkpt>
<trkpt lat="56.079388" lon="26.488420">
<ele>93.264709</ele>
<time>2010-08-29T13:36:31Z</time>
<desc>lat.=56.079388, lon.=26.488420, Alt.=93.264709m. Speed=16.920000m/h.</desc>
<speed>4.700000</speed>
</trkpt>
<trkpt lat="56.079384" lon="26.488485">
<ele>92.573303</ele>
<time>2010-08-29T13:36:32Z</time>
<desc>lat.=56.079384, lon.=26.488485, Alt.=92.573303m. Speed=17.351999m/h.</desc>
<speed>4.820000</speed>
</trkpt>
<trkpt lat="56.079384" lon="26.488565">
<ele>92.487366</ele>
<time>2010-08-29T13:36:33Z</time>
<desc>lat.=56.079384, lon.=26.488565, Alt.=92.487366m. Speed=17.532000m/h.</desc>
<speed>4.870000</speed>
</trkpt>
<trkpt lat="56.079384" lon="26.488651">
<ele>92.206116</ele>
<time>2010-08-29T13:36:34Z</time>
<desc>lat.=56.079384, lon.=26.488651, Alt.=92.206116m. Speed=17.568001m/h.</desc>
<speed>4.880000</speed>
</trkpt>
<trkpt lat="56.079395" lon="26.488745">
<ele>92.653381</ele>
<time>2010-08-29T13:36:35Z</time>
<desc>lat.=56.079395, lon.=26.488745, Alt.=92.653381m. Speed=18.684000m/h.</desc>
<speed>5.190000</speed>
</trkpt>
<trkpt lat="56.079395" lon="26.488829">
<ele>92.186584</ele>
<time>2010-08-29T13:36:36Z</time>
<desc>lat.=56.079395, lon.=26.488829, Alt.=92.186584m. Speed=19.656000m/h.</desc>
<speed>5.460000</speed>
</trkpt>
<trkpt lat="56.079399" lon="26.488913">
<ele>91.381897</ele>
<time>2010-08-29T13:36:37Z</time>
<desc>lat.=56.079399, lon.=26.488913, Alt.=91.381897m. Speed=18.504000m/h.</desc>
<speed>5.140000</speed>
</trkpt>
<trkpt lat="56.079403" lon="26.489000">
<ele>90.838928</ele>
<time>2010-08-29T13:36:38Z</time>
<desc>lat.=56.079403, lon.=26.489000, Alt.=90.838928m. Speed=20.160000m/h.</desc>
<speed>5.600000</speed>
</trkpt>
<trkpt lat="56.079403" lon="26.489094">
<ele>90.350647</ele>
<time>2010-08-29T13:36:39Z</time>
<desc>lat.=56.079403, lon.=26.489094, Alt.=90.350647m. Speed=21.167999m/h.</desc>
<speed>5.880000</speed>
</trkpt>
<trkpt lat="56.079407" lon="26.489195">
<ele>89.969788</ele>
<time>2010-08-29T13:36:40Z</time>
<desc>lat.=56.079407, lon.=26.489195, Alt.=89.969788m. Speed=22.320000m/h.</desc>
<speed>6.200000</speed>
</trkpt>
<trkpt lat="56.079411" lon="26.489302">
<ele>89.612366</ele>
<time>2010-08-29T13:36:41Z</time>
<desc>lat.=56.079411, lon.=26.489302, Alt.=89.612366m. Speed=22.968000m/h.</desc>
<speed>6.380000</speed>
</trkpt>
<trkpt lat="56.079414" lon="26.489412">
<ele>89.846741</ele>
<time>2010-08-29T13:36:42Z</time>
<desc>lat.=56.079414, lon.=26.489412, Alt.=89.846741m. Speed=22.680000m/h.</desc>
<speed>6.300000</speed>
</trkpt>
<trkpt lat="56.079414" lon="26.489515">
<ele>89.655334</ele>
<time>2010-08-29T13:36:43Z</time>
<desc>lat.=56.079414, lon.=26.489515, Alt.=89.655334m. Speed=22.643999m/h.</desc>
<speed>6.290000</speed>
</trkpt>
<trkpt lat="56.079418" lon="26.489618">
<ele>89.651428</ele>
<time>2010-08-29T13:36:44Z</time>
<desc>lat.=56.079418, lon.=26.489618, Alt.=89.651428m. Speed=22.176001m/h.</desc>
<speed>6.160000</speed>
</trkpt>
<trkpt lat="56.079430" lon="26.489719">
<ele>90.821350</ele>
<time>2010-08-29T13:36:45Z</time>
<desc>lat.=56.079430, lon.=26.489719, Alt.=90.821350m. Speed=22.068001m/h.</desc>
<speed>6.130000</speed>
</trkpt>
<trkpt lat="56.079433" lon="26.489817">
<ele>90.786194</ele>
<time>2010-08-29T13:36:46Z</time>
<desc>lat.=56.079433, lon.=26.489817, Alt.=90.786194m. Speed=21.743999m/h.</desc>
<speed>6.040000</speed>
</trkpt>
<trkpt lat="56.079437" lon="26.489916">
<ele>90.842834</ele>
<time>2010-08-29T13:36:47Z</time>
<desc>lat.=56.079437, lon.=26.489916, Alt.=90.842834m. Speed=20.879999m/h.</desc>
<speed>5.800000</speed>
</trkpt>
<trkpt lat="56.079441" lon="26.490017">
<ele>91.165100</ele>
<time>2010-08-29T13:36:48Z</time>
<desc>lat.=56.079441, lon.=26.490017, Alt.=91.165100m. Speed=21.492001m/h.</desc>
<speed>5.970000</speed>
</trkpt>
<trkpt lat="56.079441" lon="26.490112">
<ele>90.885803</ele>
<time>2010-08-29T13:36:49Z</time>
<desc>lat.=56.079441, lon.=26.490112, Alt.=90.885803m. Speed=19.224001m/h.</desc>
<speed>5.340000</speed>
</trkpt>
<trkpt lat="56.079441" lon="26.490200">
<ele>90.126038</ele>
<time>2010-08-29T13:36:50Z</time>
<desc>lat.=56.079441, lon.=26.490200, Alt.=90.126038m. Speed=18.648001m/h.</desc>
<speed>5.180000</speed>
</trkpt>
<trkpt lat="56.079441" lon="26.490292">
<ele>89.469788</ele>
<time>2010-08-29T13:36:51Z</time>
<desc>lat.=56.079441, lon.=26.490292, Alt.=89.469788m. Speed=18.864000m/h.</desc>
<speed>5.240000</speed>
</trkpt>
<trkpt lat="56.079449" lon="26.490385">
<ele>89.536194</ele>
<time>2010-08-29T13:36:52Z</time>
<desc>lat.=56.079449, lon.=26.490385, Alt.=89.536194m. Speed=20.771999m/h.</desc>
<speed>5.770000</speed>
</trkpt>
<trkpt lat="56.079460" lon="26.490471">
<ele>89.672913</ele>
<time>2010-08-29T13:36:53Z</time>
<desc>lat.=56.079460, lon.=26.490471, Alt.=89.672913m. Speed=17.568001m/h.</desc>
<speed>4.880000</speed>
</trkpt>
<trkpt lat="56.079472" lon="26.490551">
<ele>90.536194</ele>
<time>2010-08-29T13:36:54Z</time>
<desc>lat.=56.079472, lon.=26.490551, Alt.=90.536194m. Speed=17.639999m/h.</desc>
<speed>4.900000</speed>
</trkpt>
<trkpt lat="56.079475" lon="26.490635">
<ele>90.854553</ele>
<time>2010-08-29T13:36:55Z</time>
<desc>lat.=56.079475, lon.=26.490635, Alt.=90.854553m. Speed=18.396000m/h.</desc>
<speed>5.110000</speed>
</trkpt>
<trkpt lat="56.079475" lon="26.490709">
<ele>90.268616</ele>
<time>2010-08-29T13:36:56Z</time>
<desc>lat.=56.079475, lon.=26.490709, Alt.=90.268616m. Speed=15.840000m/h.</desc>
<speed>4.400000</speed>
</trkpt>
<trkpt lat="56.079491" lon="26.490807">
<ele>92.194397</ele>
<time>2010-08-29T13:36:57Z</time>
<desc>lat.=56.079491, lon.=26.490807, Alt.=92.194397m. Speed=18.576000m/h.</desc>
<speed>5.160000</speed>
</trkpt>
<trkpt lat="56.079494" lon="26.490881">
<ele>91.979553</ele>
<time>2010-08-29T13:36:58Z</time>
<desc>lat.=56.079494, lon.=26.490881, Alt.=91.979553m. Speed=14.724000m/h.</desc>
<speed>4.090000</speed>
</trkpt>
<trkpt lat="56.079494" lon="26.490948">
<ele>92.393616</ele>
<time>2010-08-29T13:36:59Z</time>
<desc>lat.=56.079494, lon.=26.490948, Alt.=92.393616m. Speed=13.896000m/h.</desc>
<speed>3.860000</speed>
</trkpt>
<trkpt lat="56.079502" lon="26.491018">
<ele>93.643616</ele>
<time>2010-08-29T13:37:00Z</time>
<desc>lat.=56.079502, lon.=26.491018, Alt.=93.643616m. Speed=13.896000m/h.</desc>
<speed>3.860000</speed>
</trkpt>
<trkpt lat="56.079502" lon="26.491081">
<ele>94.044006</ele>
<time>2010-08-29T13:37:01Z</time>
<desc>lat.=56.079502, lon.=26.491081, Alt.=94.044006m. Speed=12.672000m/h.</desc>
<speed>3.520000</speed>
</trkpt>
<trkpt lat="56.079506" lon="26.491142">
<ele>94.670959</ele>
<time>2010-08-29T13:37:02Z</time>
<desc>lat.=56.079506, lon.=26.491142, Alt.=94.670959m. Speed=12.096000m/h.</desc>
<speed>3.360000</speed>
</trkpt>
<trkpt lat="56.079510" lon="26.491186">
<ele>94.741272</ele>
<time>2010-08-29T13:37:03Z</time>
<desc>lat.=56.079510, lon.=26.491186, Alt.=94.741272m. Speed=11.196000m/h.</desc>
<speed>3.110000</speed>
</trkpt>
<trkpt lat="56.079514" lon="26.491241">
<ele>95.303772</ele>
<time>2010-08-29T13:37:04Z</time>
<desc>lat.=56.079514, lon.=26.491241, Alt.=95.303772m. Speed=11.592000m/h.</desc>
<speed>3.220000</speed>
</trkpt>
<trkpt lat="56.079517" lon="26.491295">
<ele>95.510803</ele>
<time>2010-08-29T13:37:05Z</time>
<desc>lat.=56.079517, lon.=26.491295, Alt.=95.510803m. Speed=11.916000m/h.</desc>
<speed>3.310000</speed>
</trkpt>
<trkpt lat="56.079510" lon="26.491337">
<ele>95.137756</ele>
<time>2010-08-29T13:37:06Z</time>
<desc>lat.=56.079510, lon.=26.491337, Alt.=95.137756m. Speed=10.368000m/h.</desc>
<speed>2.880000</speed>
</trkpt>
<trkpt lat="56.079510" lon="26.491396">
<ele>95.143616</ele>
<time>2010-08-29T13:37:07Z</time>
<desc>lat.=56.079510, lon.=26.491396, Alt.=95.143616m. Speed=13.536000m/h.</desc>
<speed>3.760000</speed>
</trkpt>
<trkpt lat="56.079506" lon="26.491446">
<ele>94.663147</ele>
<time>2010-08-29T13:37:08Z</time>
<desc>lat.=56.079506, lon.=26.491446, Alt.=94.663147m. Speed=11.088000m/h.</desc>
<speed>3.080000</speed>
</trkpt>
<trkpt lat="56.079510" lon="26.491501">
<ele>94.850647</ele>
<time>2010-08-29T13:37:09Z</time>
<desc>lat.=56.079510, lon.=26.491501, Alt.=94.850647m. Speed=10.548000m/h.</desc>
<speed>2.930000</speed>
</trkpt>
<trkpt lat="56.079517" lon="26.491554">
<ele>95.782288</ele>
<time>2010-08-29T13:37:10Z</time>
<desc>lat.=56.079517, lon.=26.491554, Alt.=95.782288m. Speed=11.484000m/h.</desc>
<speed>3.190000</speed>
</trkpt>
<trkpt lat="56.079521" lon="26.491606">
<ele>96.028381</ele>
<time>2010-08-29T13:37:11Z</time>
<desc>lat.=56.079521, lon.=26.491606, Alt.=96.028381m. Speed=11.052000m/h.</desc>
<speed>3.070000</speed>
</trkpt>
<trkpt lat="56.079529" lon="26.491667">
<ele>96.954163</ele>
<time>2010-08-29T13:37:12Z</time>
<desc>lat.=56.079529, lon.=26.491667, Alt.=96.954163m. Speed=10.476000m/h.</desc>
<speed>2.910000</speed>
</trkpt>
<trkpt lat="56.079529" lon="26.491711">
<ele>97.059631</ele>
<time>2010-08-29T13:37:13Z</time>
<desc>lat.=56.079529, lon.=26.491711, Alt.=97.059631m. Speed=10.188000m/h.</desc>
<speed>2.830000</speed>
</trkpt>
<trkpt lat="56.079529" lon="26.491758">
<ele>97.315491</ele>
<time>2010-08-29T13:37:14Z</time>
<desc>lat.=56.079529, lon.=26.491758, Alt.=97.315491m. Speed=11.484000m/h.</desc>
<speed>3.190000</speed>
</trkpt>
<trkpt lat="56.079533" lon="26.491810">
<ele>97.792053</ele>
<time>2010-08-29T13:37:15Z</time>
<desc>lat.=56.079533, lon.=26.491810, Alt.=97.792053m. Speed=11.700000m/h.</desc>
<speed>3.250000</speed>
</trkpt>
<trkpt lat="56.079529" lon="26.491858">
<ele>97.407288</ele>
<time>2010-08-29T13:37:16Z</time>
<desc>lat.=56.079529, lon.=26.491858, Alt.=97.407288m. Speed=11.160000m/h.</desc>
<speed>3.100000</speed>
</trkpt>
<trkpt lat="56.079533" lon="26.491919">
<ele>98.122131</ele>
<time>2010-08-29T13:37:17Z</time>
<desc>lat.=56.079533, lon.=26.491919, Alt.=98.122131m. Speed=11.160000m/h.</desc>
<speed>3.100000</speed>
</trkpt>
<trkpt lat="56.079533" lon="26.491970">
<ele>98.151428</ele>
<time>2010-08-29T13:37:18Z</time>
<desc>lat.=56.079533, lon.=26.491970, Alt.=98.151428m. Speed=11.340000m/h.</desc>
<speed>3.150000</speed>
</trkpt>
<trkpt lat="56.079536" lon="26.492033">
<ele>98.971741</ele>
<time>2010-08-29T13:37:19Z</time>
<desc>lat.=56.079536, lon.=26.492033, Alt.=98.971741m. Speed=12.780000m/h.</desc>
<speed>3.550000</speed>
</trkpt>
<trkpt lat="56.079536" lon="26.492088">
<ele>98.739319</ele>
<time>2010-08-29T13:37:20Z</time>
<desc>lat.=56.079536, lon.=26.492088, Alt.=98.739319m. Speed=13.248000m/h.</desc>
<speed>3.680000</speed>
</trkpt>
<trkpt lat="56.079536" lon="26.492136">
<ele>98.551819</ele>
<time>2010-08-29T13:37:21Z</time>
<desc>lat.=56.079536, lon.=26.492136, Alt.=98.551819m. Speed=12.384000m/h.</desc>
<speed>3.440000</speed>
</trkpt>
<trkpt lat="56.079536" lon="26.492188">
<ele>98.254944</ele>
<time>2010-08-29T13:37:22Z</time>
<desc>lat.=56.079536, lon.=26.492188, Alt.=98.254944m. Speed=11.808000m/h.</desc>
<speed>3.280000</speed>
</trkpt>
<trkpt lat="56.079540" lon="26.492239">
<ele>98.596741</ele>
<time>2010-08-29T13:37:23Z</time>
<desc>lat.=56.079540, lon.=26.492239, Alt.=98.596741m. Speed=10.872000m/h.</desc>
<speed>3.020000</speed>
</trkpt>
<trkpt lat="56.079544" lon="26.492300">
<ele>98.948303</ele>
<time>2010-08-29T13:37:24Z</time>
<desc>lat.=56.079544, lon.=26.492300, Alt.=98.948303m. Speed=11.664000m/h.</desc>
<speed>3.240000</speed>
</trkpt>
<trkpt lat="56.079544" lon="26.492350">
<ele>99.477600</ele>
<time>2010-08-29T13:37:25Z</time>
<desc>lat.=56.079544, lon.=26.492350, Alt.=99.477600m. Speed=10.116000m/h.</desc>
<speed>2.810000</speed>
</trkpt>
<trkpt lat="56.079540" lon="26.492392">
<ele>99.663147</ele>
<time>2010-08-29T13:37:26Z</time>
<desc>lat.=56.079540, lon.=26.492392, Alt.=99.663147m. Speed=9.324000m/h.</desc>
<speed>2.590000</speed>
</trkpt>
<trkpt lat="56.079533" lon="26.492422">
<ele>98.948303</ele>
<time>2010-08-29T13:37:27Z</time>
<desc>lat.=56.079533, lon.=26.492422, Alt.=98.948303m. Speed=7.668000m/h.</desc>
<speed>2.130000</speed>
</trkpt>
<trkpt lat="56.079529" lon="26.492458">
<ele>98.295959</ele>
<time>2010-08-29T13:37:28Z</time>
<desc>lat.=56.079529, lon.=26.492458, Alt.=98.295959m. Speed=9.252000m/h.</desc>
<speed>2.570000</speed>
</trkpt>
<trkpt lat="56.079521" lon="26.492500">
<ele>97.788147</ele>
<time>2010-08-29T13:37:29Z</time>
<desc>lat.=56.079521, lon.=26.492500, Alt.=97.788147m. Speed=8.748000m/h.</desc>
<speed>2.430000</speed>
</trkpt>
<trkpt lat="56.079529" lon="26.492546">
<ele>98.346741</ele>
<time>2010-08-29T13:37:30Z</time>
<desc>lat.=56.079529, lon.=26.492546, Alt.=98.346741m. Speed=7.920000m/h.</desc>
<speed>2.200000</speed>
</trkpt>
<trkpt lat="56.079533" lon="26.492588">
<ele>98.760803</ele>
<time>2010-08-29T13:37:31Z</time>
<desc>lat.=56.079533, lon.=26.492588, Alt.=98.760803m. Speed=8.100000m/h.</desc>
<speed>2.250000</speed>
</trkpt>
<trkpt lat="56.079536" lon="26.492619">
<ele>98.674866</ele>
<time>2010-08-29T13:37:32Z</time>
<desc>lat.=56.079536, lon.=26.492619, Alt.=98.674866m. Speed=7.128000m/h.</desc>
<speed>1.980000</speed>
</trkpt>
<trkpt lat="56.079540" lon="26.492649">
<ele>98.458069</ele>
<time>2010-08-29T13:37:33Z</time>
<desc>lat.=56.079540, lon.=26.492649, Alt.=98.458069m. Speed=7.920000m/h.</desc>
<speed>2.200000</speed>
</trkpt>
<trkpt lat="56.079552" lon="26.492689">
<ele>98.377991</ele>
<time>2010-08-29T13:37:34Z</time>
<desc>lat.=56.079552, lon.=26.492689, Alt.=98.377991m. Speed=8.064000m/h.</desc>
<speed>2.240000</speed>
</trkpt>
<trkpt lat="56.079556" lon="26.492727">
<ele>98.473694</ele>
<time>2010-08-29T13:37:35Z</time>
<desc>lat.=56.079556, lon.=26.492727, Alt.=98.473694m. Speed=8.496000m/h.</desc>
<speed>2.360000</speed>
</trkpt>
<trkpt lat="56.079556" lon="26.492764">
<ele>97.801819</ele>
<time>2010-08-29T13:37:36Z</time>
<desc>lat.=56.079556, lon.=26.492764, Alt.=97.801819m. Speed=8.388000m/h.</desc>
<speed>2.330000</speed>
</trkpt>
<trkpt lat="56.079556" lon="26.492804">
<ele>97.219788</ele>
<time>2010-08-29T13:37:37Z</time>
<desc>lat.=56.079556, lon.=26.492804, Alt.=97.219788m. Speed=8.100000m/h.</desc>
<speed>2.250000</speed>
</trkpt>
<trkpt lat="56.079563" lon="26.492855">
<ele>98.104553</ele>
<time>2010-08-29T13:37:38Z</time>
<desc>lat.=56.079563, lon.=26.492855, Alt.=98.104553m. Speed=9.468000m/h.</desc>
<speed>2.630000</speed>
</trkpt>
<trkpt lat="56.079563" lon="26.492905">
<ele>98.110413</ele>
<time>2010-08-29T13:37:39Z</time>
<desc>lat.=56.079563, lon.=26.492905, Alt.=98.110413m. Speed=9.756000m/h.</desc>
<speed>2.710000</speed>
</trkpt>
<trkpt lat="56.079563" lon="26.492949">
<ele>97.981506</ele>
<time>2010-08-29T13:37:40Z</time>
<desc>lat.=56.079563, lon.=26.492949, Alt.=97.981506m. Speed=9.648000m/h.</desc>
<speed>2.680000</speed>
</trkpt>
<trkpt lat="56.079571" lon="26.493000">
<ele>98.602600</ele>
<time>2010-08-29T13:37:41Z</time>
<desc>lat.=56.079571, lon.=26.493000, Alt.=98.602600m. Speed=9.576000m/h.</desc>
<speed>2.660000</speed>
</trkpt>
<trkpt lat="56.079575" lon="26.493046">
<ele>98.405334</ele>
<time>2010-08-29T13:37:42Z</time>
<desc>lat.=56.079575, lon.=26.493046, Alt.=98.405334m. Speed=10.260000m/h.</desc>
<speed>2.850000</speed>
</trkpt>
<trkpt lat="56.079578" lon="26.493095">
<ele>97.817444</ele>
<time>2010-08-29T13:37:43Z</time>
<desc>lat.=56.079578, lon.=26.493095, Alt.=97.817444m. Speed=10.944000m/h.</desc>
<speed>3.040000</speed>
</trkpt>
<trkpt lat="56.079582" lon="26.493149">
<ele>98.002991</ele>
<time>2010-08-29T13:37:44Z</time>
<desc>lat.=56.079582, lon.=26.493149, Alt.=98.002991m. Speed=10.764000m/h.</desc>
<speed>2.990000</speed>
</trkpt>
<trkpt lat="56.079582" lon="26.493208">
<ele>98.153381</ele>
<time>2010-08-29T13:37:45Z</time>
<desc>lat.=56.079582, lon.=26.493208, Alt.=98.153381m. Speed=12.672000m/h.</desc>
<speed>3.520000</speed>
</trkpt>
<trkpt lat="56.079590" lon="26.493273">
<ele>98.356506</ele>
<time>2010-08-29T13:37:46Z</time>
<desc>lat.=56.079590, lon.=26.493273, Alt.=98.356506m. Speed=14.040000m/h.</desc>
<speed>3.900000</speed>
</trkpt>
<trkpt lat="56.079594" lon="26.493340">
<ele>98.221741</ele>
<time>2010-08-29T13:37:47Z</time>
<desc>lat.=56.079594, lon.=26.493340, Alt.=98.221741m. Speed=14.112000m/h.</desc>
<speed>3.920000</speed>
</trkpt>
<trkpt lat="56.079594" lon="26.493408">
<ele>98.188538</ele>
<time>2010-08-29T13:37:48Z</time>
<desc>lat.=56.079594, lon.=26.493408, Alt.=98.188538m. Speed=15.912000m/h.</desc>
<speed>4.420000</speed>
</trkpt>
<trkpt lat="56.079597" lon="26.493481">
<ele>97.497131</ele>
<time>2010-08-29T13:37:49Z</time>
<desc>lat.=56.079597, lon.=26.493481, Alt.=97.497131m. Speed=15.228000m/h.</desc>
<speed>4.230000</speed>
</trkpt>
<trkpt lat="56.079601" lon="26.493549">
<ele>97.165100</ele>
<time>2010-08-29T13:37:50Z</time>
<desc>lat.=56.079601, lon.=26.493549, Alt.=97.165100m. Speed=17.208000m/h.</desc>
<speed>4.780000</speed>
</trkpt>
<trkpt lat="56.079609" lon="26.493631">
<ele>96.979553</ele>
<time>2010-08-29T13:37:51Z</time>
<desc>lat.=56.079609, lon.=26.493631, Alt.=96.979553m. Speed=17.892000m/h.</desc>
<speed>4.970000</speed>
</trkpt>
<trkpt lat="56.079617" lon="26.493721">
<ele>97.225647</ele>
<time>2010-08-29T13:37:52Z</time>
<desc>lat.=56.079617, lon.=26.493721, Alt.=97.225647m. Speed=18.323999m/h.</desc>
<speed>5.090000</speed>
</trkpt>
<trkpt lat="56.079624" lon="26.493803">
<ele>97.319397</ele>
<time>2010-08-29T13:37:53Z</time>
<desc>lat.=56.079624, lon.=26.493803, Alt.=97.319397m. Speed=18.468000m/h.</desc>
<speed>5.130000</speed>
</trkpt>
<trkpt lat="56.079636" lon="26.493902">
<ele>98.794006</ele>
<time>2010-08-29T13:37:54Z</time>
<desc>lat.=56.079636, lon.=26.493902, Alt.=98.794006m. Speed=19.403999m/h.</desc>
<speed>5.390000</speed>
</trkpt>
<trkpt lat="56.079643" lon="26.493992">
<ele>98.487366</ele>
<time>2010-08-29T13:37:55Z</time>
<desc>lat.=56.079643, lon.=26.493992, Alt.=98.487366m. Speed=19.980000m/h.</desc>
<speed>5.550000</speed>
</trkpt>
<trkpt lat="56.079655" lon="26.494081">
<ele>98.368225</ele>
<time>2010-08-29T13:37:56Z</time>
<desc>lat.=56.079655, lon.=26.494081, Alt.=98.368225m. Speed=19.980000m/h.</desc>
<speed>5.550000</speed>
</trkpt>
<trkpt lat="56.079662" lon="26.494181">
<ele>98.149475</ele>
<time>2010-08-29T13:37:57Z</time>
<desc>lat.=56.079662, lon.=26.494181, Alt.=98.149475m. Speed=21.024000m/h.</desc>
<speed>5.840000</speed>
</trkpt>
<trkpt lat="56.079670" lon="26.494278">
<ele>97.866272</ele>
<time>2010-08-29T13:37:58Z</time>
<desc>lat.=56.079670, lon.=26.494278, Alt.=97.866272m. Speed=21.455999m/h.</desc>
<speed>5.960000</speed>
</trkpt>
<trkpt lat="56.079674" lon="26.494371">
<ele>97.377991</ele>
<time>2010-08-29T13:37:59Z</time>
<desc>lat.=56.079674, lon.=26.494371, Alt.=97.377991m. Speed=22.320000m/h.</desc>
<speed>6.200000</speed>
</trkpt>
<trkpt lat="56.079681" lon="26.494471">
<ele>96.897522</ele>
<time>2010-08-29T13:38:00Z</time>
<desc>lat.=56.079681, lon.=26.494471, Alt.=96.897522m. Speed=23.112000m/h.</desc>
<speed>6.420000</speed>
</trkpt>
<trkpt lat="56.079689" lon="26.494577">
<ele>96.919006</ele>
<time>2010-08-29T13:38:01Z</time>
<desc>lat.=56.079689, lon.=26.494577, Alt.=96.919006m. Speed=24.011999m/h.</desc>
<speed>6.670000</speed>
</trkpt>
<trkpt lat="56.079697" lon="26.494682">
<ele>96.743225</ele>
<time>2010-08-29T13:38:02Z</time>
<desc>lat.=56.079697, lon.=26.494682, Alt.=96.743225m. Speed=24.048000m/h.</desc>
<speed>6.680000</speed>
</trkpt>
<trkpt lat="56.079704" lon="26.494787">
<ele>96.377991</ele>
<time>2010-08-29T13:38:03Z</time>
<desc>lat.=56.079704, lon.=26.494787, Alt.=96.377991m. Speed=24.084000m/h.</desc>
<speed>6.690000</speed>
</trkpt>
<trkpt lat="56.079716" lon="26.494892">
<ele>96.100647</ele>
<time>2010-08-29T13:38:04Z</time>
<desc>lat.=56.079716, lon.=26.494892, Alt.=96.100647m. Speed=23.903999m/h.</desc>
<speed>6.640000</speed>
</trkpt>
<trkpt lat="56.079720" lon="26.494999">
<ele>95.928772</ele>
<time>2010-08-29T13:38:05Z</time>
<desc>lat.=56.079720, lon.=26.494999, Alt.=95.928772m. Speed=23.040001m/h.</desc>
<speed>6.400000</speed>
</trkpt>
<trkpt lat="56.079727" lon="26.495100">
<ele>95.864319</ele>
<time>2010-08-29T13:38:06Z</time>
<desc>lat.=56.079727, lon.=26.495100, Alt.=95.864319m. Speed=22.752001m/h.</desc>
<speed>6.320000</speed>
</trkpt>
<trkpt lat="56.079739" lon="26.495201">
<ele>95.547913</ele>
<time>2010-08-29T13:38:07Z</time>
<desc>lat.=56.079739, lon.=26.495201, Alt.=95.547913m. Speed=22.823999m/h.</desc>
<speed>6.340000</speed>
</trkpt>
<trkpt lat="56.079754" lon="26.495295">
<ele>94.983459</ele>
<time>2010-08-29T13:38:08Z</time>
<desc>lat.=56.079754, lon.=26.495295, Alt.=94.983459m. Speed=20.700001m/h.</desc>
<speed>5.750000</speed>
</trkpt>
<trkpt lat="56.079765" lon="26.495382">
<ele>94.879944</ele>
<time>2010-08-29T13:38:09Z</time>
<desc>lat.=56.079765, lon.=26.495382, Alt.=94.879944m. Speed=19.548000m/h.</desc>
<speed>5.430000</speed>
</trkpt>
<trkpt lat="56.079777" lon="26.495464">
<ele>94.676819</ele>
<time>2010-08-29T13:38:10Z</time>
<desc>lat.=56.079777, lon.=26.495464, Alt.=94.676819m. Speed=19.007999m/h.</desc>
<speed>5.280000</speed>
</trkpt>
<trkpt lat="56.079784" lon="26.495552">
<ele>93.567444</ele>
<time>2010-08-29T13:38:11Z</time>
<desc>lat.=56.079784, lon.=26.495552, Alt.=93.567444m. Speed=17.604000m/h.</desc>
<speed>4.890000</speed>
</trkpt>
<trkpt lat="56.079792" lon="26.495625">
<ele>93.227600</ele>
<time>2010-08-29T13:38:12Z</time>
<desc>lat.=56.079792, lon.=26.495625, Alt.=93.227600m. Speed=15.804000m/h.</desc>
<speed>4.390000</speed>
</trkpt>
<trkpt lat="56.079807" lon="26.495693">
<ele>94.104553</ele>
<time>2010-08-29T13:38:13Z</time>
<desc>lat.=56.079807, lon.=26.495693, Alt.=94.104553m. Speed=16.200001m/h.</desc>
<speed>4.500000</speed>
</trkpt>
<trkpt lat="56.079815" lon="26.495762">
<ele>93.891663</ele>
<time>2010-08-29T13:38:14Z</time>
<desc>lat.=56.079815, lon.=26.495762, Alt.=93.891663m. Speed=15.588000m/h.</desc>
<speed>4.330000</speed>
</trkpt>
<trkpt lat="56.079823" lon="26.495829">
<ele>93.547913</ele>
<time>2010-08-29T13:38:15Z</time>
<desc>lat.=56.079823, lon.=26.495829, Alt.=93.547913m. Speed=15.264000m/h.</desc>
<speed>4.240000</speed>
</trkpt>
<trkpt lat="56.079842" lon="26.495895">
<ele>93.336975</ele>
<time>2010-08-29T13:38:16Z</time>
<desc>lat.=56.079842, lon.=26.495895, Alt.=93.336975m. Speed=14.868000m/h.</desc>
<speed>4.130000</speed>
</trkpt>
<trkpt lat="56.079857" lon="26.495953">
<ele>93.469788</ele>
<time>2010-08-29T13:38:17Z</time>
<desc>lat.=56.079857, lon.=26.495953, Alt.=93.469788m. Speed=13.932000m/h.</desc>
<speed>3.870000</speed>
</trkpt>
<trkpt lat="56.079868" lon="26.496008">
<ele>93.372131</ele>
<time>2010-08-29T13:38:18Z</time>
<desc>lat.=56.079868, lon.=26.496008, Alt.=93.372131m. Speed=13.572000m/h.</desc>
<speed>3.770000</speed>
</trkpt>
<trkpt lat="56.079884" lon="26.496063">
<ele>93.600647</ele>
<time>2010-08-29T13:38:19Z</time>
<desc>lat.=56.079884, lon.=26.496063, Alt.=93.600647m. Speed=13.968000m/h.</desc>
<speed>3.880000</speed>
</trkpt>
<trkpt lat="56.079899" lon="26.496128">
<ele>94.235413</ele>
<time>2010-08-29T13:38:20Z</time>
<desc>lat.=56.079899, lon.=26.496128, Alt.=94.235413m. Speed=14.292000m/h.</desc>
<speed>3.970000</speed>
</trkpt>
<trkpt lat="56.079914" lon="26.496193">
<ele>94.180725</ele>
<time>2010-08-29T13:38:21Z</time>
<desc>lat.=56.079914, lon.=26.496193, Alt.=94.180725m. Speed=14.652000m/h.</desc>
<speed>4.070000</speed>
</trkpt>
<trkpt lat="56.079922" lon="26.496262">
<ele>93.903381</ele>
<time>2010-08-29T13:38:22Z</time>
<desc>lat.=56.079922, lon.=26.496262, Alt.=93.903381m. Speed=14.904000m/h.</desc>
<speed>4.140000</speed>
</trkpt>
<trkpt lat="56.079933" lon="26.496328">
<ele>93.934631</ele>
<time>2010-08-29T13:38:23Z</time>
<desc>lat.=56.079933, lon.=26.496328, Alt.=93.934631m. Speed=14.436000m/h.</desc>
<speed>4.010000</speed>
</trkpt>
<trkpt lat="56.079941" lon="26.496389">
<ele>93.794006</ele>
<time>2010-08-29T13:38:24Z</time>
<desc>lat.=56.079941, lon.=26.496389, Alt.=93.794006m. Speed=14.436000m/h.</desc>
<speed>4.010000</speed>
</trkpt>
<trkpt lat="56.079952" lon="26.496454">
<ele>93.967834</ele>
<time>2010-08-29T13:38:25Z</time>
<desc>lat.=56.079952, lon.=26.496454, Alt.=93.967834m. Speed=15.084000m/h.</desc>
<speed>4.190000</speed>
</trkpt>
<trkpt lat="56.079964" lon="26.496519">
<ele>94.184631</ele>
<time>2010-08-29T13:38:26Z</time>
<desc>lat.=56.079964, lon.=26.496519, Alt.=94.184631m. Speed=15.192000m/h.</desc>
<speed>4.220000</speed>
</trkpt>
<trkpt lat="56.079979" lon="26.496590">
<ele>94.454163</ele>
<time>2010-08-29T13:38:27Z</time>
<desc>lat.=56.079979, lon.=26.496590, Alt.=94.454163m. Speed=14.904000m/h.</desc>
<speed>4.140000</speed>
</trkpt>
<trkpt lat="56.079990" lon="26.496651">
<ele>94.167053</ele>
<time>2010-08-29T13:38:28Z</time>
<desc>lat.=56.079990, lon.=26.496651, Alt.=94.167053m. Speed=15.408000m/h.</desc>
<speed>4.280000</speed>
</trkpt>
<trkpt lat="56.080006" lon="26.496719">
<ele>94.014709</ele>
<time>2010-08-29T13:38:29Z</time>
<desc>lat.=56.080006, lon.=26.496719, Alt.=94.014709m. Speed=15.300000m/h.</desc>
<speed>4.250000</speed>
</trkpt>
<trkpt lat="56.080021" lon="26.496784">
<ele>93.590881</ele>
<time>2010-08-29T13:38:30Z</time>
<desc>lat.=56.080021, lon.=26.496784, Alt.=93.590881m. Speed=16.128000m/h.</desc>
<speed>4.480000</speed>
</trkpt>
<trkpt lat="56.080036" lon="26.496849">
<ele>92.874084</ele>
<time>2010-08-29T13:38:31Z</time>
<desc>lat.=56.080036, lon.=26.496849, Alt.=92.874084m. Speed=15.876000m/h.</desc>
<speed>4.410000</speed>
</trkpt>
<trkpt lat="56.080055" lon="26.496914">
<ele>92.686584</ele>
<time>2010-08-29T13:38:32Z</time>
<desc>lat.=56.080055, lon.=26.496914, Alt.=92.686584m. Speed=16.128000m/h.</desc>
<speed>4.480000</speed>
</trkpt>
<trkpt lat="56.080067" lon="26.496984">
<ele>92.821350</ele>
<time>2010-08-29T13:38:33Z</time>
<desc>lat.=56.080067, lon.=26.496984, Alt.=92.821350m. Speed=16.596001m/h.</desc>
<speed>4.610000</speed>
</trkpt>
<trkpt lat="56.080082" lon="26.497053">
<ele>92.895569</ele>
<time>2010-08-29T13:38:34Z</time>
<desc>lat.=56.080082, lon.=26.497053, Alt.=92.895569m. Speed=16.740000m/h.</desc>
<speed>4.650000</speed>
</trkpt>
<trkpt lat="56.080101" lon="26.497128">
<ele>93.249084</ele>
<time>2010-08-29T13:38:35Z</time>
<desc>lat.=56.080101, lon.=26.497128, Alt.=93.249084m. Speed=15.732000m/h.</desc>
<speed>4.370000</speed>
</trkpt>
<trkpt lat="56.080112" lon="26.497194">
<ele>93.272522</ele>
<time>2010-08-29T13:38:36Z</time>
<desc>lat.=56.080112, lon.=26.497194, Alt.=93.272522m. Speed=14.724000m/h.</desc>
<speed>4.090000</speed>
</trkpt>
<trkpt lat="56.080128" lon="26.497265">
<ele>94.188538</ele>
<time>2010-08-29T13:38:37Z</time>
<desc>lat.=56.080128, lon.=26.497265, Alt.=94.188538m. Speed=15.264000m/h.</desc>
<speed>4.240000</speed>
</trkpt>
<trkpt lat="56.080139" lon="26.497326">
<ele>93.643616</ele>
<time>2010-08-29T13:38:38Z</time>
<desc>lat.=56.080139, lon.=26.497326, Alt.=93.643616m. Speed=15.084000m/h.</desc>
<speed>4.190000</speed>
</trkpt>
<trkpt lat="56.080154" lon="26.497393">
<ele>93.510803</ele>
<time>2010-08-29T13:38:39Z</time>
<desc>lat.=56.080154, lon.=26.497393, Alt.=93.510803m. Speed=15.912000m/h.</desc>
<speed>4.420000</speed>
</trkpt>
<trkpt lat="56.080162" lon="26.497458">
<ele>92.577209</ele>
<time>2010-08-29T13:38:40Z</time>
<desc>lat.=56.080162, lon.=26.497458, Alt.=92.577209m. Speed=15.120000m/h.</desc>
<speed>4.200000</speed>
</trkpt>
<trkpt lat="56.080177" lon="26.497528">
<ele>92.614319</ele>
<time>2010-08-29T13:38:41Z</time>
<desc>lat.=56.080177, lon.=26.497528, Alt.=92.614319m. Speed=15.192000m/h.</desc>
<speed>4.220000</speed>
</trkpt>
<trkpt lat="56.080196" lon="26.497595">
<ele>92.504944</ele>
<time>2010-08-29T13:38:42Z</time>
<desc>lat.=56.080196, lon.=26.497595, Alt.=92.504944m. Speed=17.028000m/h.</desc>
<speed>4.730000</speed>
</trkpt>
<trkpt lat="56.080215" lon="26.497663">
<ele>92.469788</ele>
<time>2010-08-29T13:38:43Z</time>
<desc>lat.=56.080215, lon.=26.497663, Alt.=92.469788m. Speed=17.172001m/h.</desc>
<speed>4.770000</speed>
</trkpt>
<trkpt lat="56.080238" lon="26.497742">
<ele>92.592834</ele>
<time>2010-08-29T13:38:44Z</time>
<desc>lat.=56.080238, lon.=26.497742, Alt.=92.592834m. Speed=19.152000m/h.</desc>
<speed>5.320000</speed>
</trkpt>
<trkpt lat="56.080257" lon="26.497826">
<ele>92.965881</ele>
<time>2010-08-29T13:38:45Z</time>
<desc>lat.=56.080257, lon.=26.497826, Alt.=92.965881m. Speed=17.784000m/h.</desc>
<speed>4.940000</speed>
</trkpt>
<trkpt lat="56.080273" lon="26.497908">
<ele>92.932678</ele>
<time>2010-08-29T13:38:46Z</time>
<desc>lat.=56.080273, lon.=26.497908, Alt.=92.932678m. Speed=19.152000m/h.</desc>
<speed>5.320000</speed>
</trkpt>
<trkpt lat="56.080296" lon="26.497995">
<ele>93.606506</ele>
<time>2010-08-29T13:38:47Z</time>
<desc>lat.=56.080296, lon.=26.497995, Alt.=93.606506m. Speed=19.152000m/h.</desc>
<speed>5.320000</speed>
</trkpt>
<trkpt lat="56.080318" lon="26.498081">
<ele>94.100647</ele>
<time>2010-08-29T13:38:48Z</time>
<desc>lat.=56.080318, lon.=26.498081, Alt.=94.100647m. Speed=17.856001m/h.</desc>
<speed>4.960000</speed>
</trkpt>
<trkpt lat="56.080338" lon="26.498167">
<ele>94.573303</ele>
<time>2010-08-29T13:38:49Z</time>
<desc>lat.=56.080338, lon.=26.498167, Alt.=94.573303m. Speed=18.792000m/h.</desc>
<speed>5.220000</speed>
</trkpt>
<trkpt lat="56.080353" lon="26.498241">
<ele>94.592834</ele>
<time>2010-08-29T13:38:50Z</time>
<desc>lat.=56.080353, lon.=26.498241, Alt.=94.592834m. Speed=17.172001m/h.</desc>
<speed>4.770000</speed>
</trkpt>
<trkpt lat="56.080372" lon="26.498323">
<ele>95.122131</ele>
<time>2010-08-29T13:38:51Z</time>
<desc>lat.=56.080372, lon.=26.498323, Alt.=95.122131m. Speed=17.424000m/h.</desc>
<speed>4.840000</speed>
</trkpt>
<trkpt lat="56.080391" lon="26.498396">
<ele>95.085022</ele>
<time>2010-08-29T13:38:52Z</time>
<desc>lat.=56.080391, lon.=26.498396, Alt.=95.085022m. Speed=18.072001m/h.</desc>
<speed>5.020000</speed>
</trkpt>
<trkpt lat="56.080406" lon="26.498474">
<ele>94.905334</ele>
<time>2010-08-29T13:38:53Z</time>
<desc>lat.=56.080406, lon.=26.498474, Alt.=94.905334m. Speed=19.152000m/h.</desc>
<speed>5.320000</speed>
</trkpt>
<trkpt lat="56.080425" lon="26.498547">
<ele>94.135803</ele>
<time>2010-08-29T13:38:54Z</time>
<desc>lat.=56.080425, lon.=26.498547, Alt.=94.135803m. Speed=18.323999m/h.</desc>
<speed>5.090000</speed>
</trkpt>
<trkpt lat="56.080448" lon="26.498631">
<ele>94.366272</ele>
<time>2010-08-29T13:38:55Z</time>
<desc>lat.=56.080448, lon.=26.498631, Alt.=94.366272m. Speed=18.143999m/h.</desc>
<speed>5.040000</speed>
</trkpt>
<trkpt lat="56.080467" lon="26.498709">
<ele>95.315491</ele>
<time>2010-08-29T13:38:56Z</time>
<desc>lat.=56.080467, lon.=26.498709, Alt.=95.315491m. Speed=17.568001m/h.</desc>
<speed>4.880000</speed>
</trkpt>
<trkpt lat="56.080486" lon="26.498789">
<ele>95.463928</ele>
<time>2010-08-29T13:38:57Z</time>
<desc>lat.=56.080486, lon.=26.498789, Alt.=95.463928m. Speed=17.243999m/h.</desc>
<speed>4.790000</speed>
</trkpt>
<trkpt lat="56.080502" lon="26.498861">
<ele>95.344788</ele>
<time>2010-08-29T13:38:58Z</time>
<desc>lat.=56.080502, lon.=26.498861, Alt.=95.344788m. Speed=16.524000m/h.</desc>
<speed>4.590000</speed>
</trkpt>
<trkpt lat="56.080521" lon="26.498934">
<ele>95.254944</ele>
<time>2010-08-29T13:38:59Z</time>
<desc>lat.=56.080521, lon.=26.498934, Alt.=95.254944m. Speed=16.667999m/h.</desc>
<speed>4.630000</speed>
</trkpt>
<trkpt lat="56.080536" lon="26.499002">
<ele>95.442444</ele>
<time>2010-08-29T13:39:00Z</time>
<desc>lat.=56.080536, lon.=26.499002, Alt.=95.442444m. Speed=16.452000m/h.</desc>
<speed>4.570000</speed>
</trkpt>
<trkpt lat="56.080547" lon="26.499063">
<ele>95.741272</ele>
<time>2010-08-29T13:39:01Z</time>
<desc>lat.=56.080547, lon.=26.499063, Alt.=95.741272m. Speed=16.091999m/h.</desc>
<speed>4.470000</speed>
</trkpt>
<trkpt lat="56.080563" lon="26.499132">
<ele>96.169006</ele>
<time>2010-08-29T13:39:02Z</time>
<desc>lat.=56.080563, lon.=26.499132, Alt.=96.169006m. Speed=16.955999m/h.</desc>
<speed>4.710000</speed>
</trkpt>
<trkpt lat="56.080582" lon="26.499203">
<ele>96.590881</ele>
<time>2010-08-29T13:39:03Z</time>
<desc>lat.=56.080582, lon.=26.499203, Alt.=96.590881m. Speed=16.200001m/h.</desc>
<speed>4.500000</speed>
</trkpt>
<trkpt lat="56.080593" lon="26.499269">
<ele>96.045959</ele>
<time>2010-08-29T13:39:04Z</time>
<desc>lat.=56.080593, lon.=26.499269, Alt.=96.045959m. Speed=16.596001m/h.</desc>
<speed>4.610000</speed>
</trkpt>
<trkpt lat="56.080624" lon="26.499323">
<ele>95.385803</ele>
<time>2010-08-29T13:39:05Z</time>
<desc>lat.=56.080624, lon.=26.499323, Alt.=95.385803m. Speed=15.048000m/h.</desc>
<speed>4.180000</speed>
</trkpt>
<trkpt lat="56.080643" lon="26.499374">
<ele>95.051819</ele>
<time>2010-08-29T13:39:06Z</time>
<desc>lat.=56.080643, lon.=26.499374, Alt.=95.051819m. Speed=14.832000m/h.</desc>
<speed>4.120000</speed>
</trkpt>
<trkpt lat="56.080669" lon="26.499432">
<ele>94.645569</ele>
<time>2010-08-29T13:39:07Z</time>
<desc>lat.=56.080669, lon.=26.499432, Alt.=94.645569m. Speed=14.868000m/h.</desc>
<speed>4.130000</speed>
</trkpt>
<trkpt lat="56.080700" lon="26.499489">
<ele>94.280334</ele>
<time>2010-08-29T13:39:08Z</time>
<desc>lat.=56.080700, lon.=26.499489, Alt.=94.280334m. Speed=15.588000m/h.</desc>
<speed>4.330000</speed>
</trkpt>
<trkpt lat="56.080727" lon="26.499544">
<ele>93.794006</ele>
<time>2010-08-29T13:39:09Z</time>
<desc>lat.=56.080727, lon.=26.499544, Alt.=93.794006m. Speed=15.012000m/h.</desc>
<speed>4.170000</speed>
</trkpt>
<trkpt lat="56.080753" lon="26.499596">
<ele>93.487366</ele>
<time>2010-08-29T13:39:10Z</time>
<desc>lat.=56.080753, lon.=26.499596, Alt.=93.487366m. Speed=14.832000m/h.</desc>
<speed>4.120000</speed>
</trkpt>
<trkpt lat="56.080772" lon="26.499680">
<ele>94.409241</ele>
<time>2010-08-29T13:39:11Z</time>
<desc>lat.=56.080772, lon.=26.499680, Alt.=94.409241m. Speed=14.868000m/h.</desc>
<speed>4.130000</speed>
</trkpt>
<trkpt lat="56.080795" lon="26.499739">
<ele>94.194397</ele>
<time>2010-08-29T13:39:12Z</time>
<desc>lat.=56.080795, lon.=26.499739, Alt.=94.194397m. Speed=15.624000m/h.</desc>
<speed>4.340000</speed>
</trkpt>
<trkpt lat="56.080811" lon="26.499798">
<ele>93.491272</ele>
<time>2010-08-29T13:39:13Z</time>
<desc>lat.=56.080811, lon.=26.499798, Alt.=93.491272m. Speed=14.580000m/h.</desc>
<speed>4.050000</speed>
</trkpt>
<trkpt lat="56.080833" lon="26.499853">
<ele>92.872131</ele>
<time>2010-08-29T13:39:14Z</time>
<desc>lat.=56.080833, lon.=26.499853, Alt.=92.872131m. Speed=15.660000m/h.</desc>
<speed>4.350000</speed>
</trkpt>
<trkpt lat="56.080853" lon="26.499914">
<ele>92.188538</ele>
<time>2010-08-29T13:39:15Z</time>
<desc>lat.=56.080853, lon.=26.499914, Alt.=92.188538m. Speed=14.976000m/h.</desc>
<speed>4.160000</speed>
</trkpt>
<trkpt lat="56.080879" lon="26.499977">
<ele>91.739319</ele>
<time>2010-08-29T13:39:16Z</time>
<desc>lat.=56.080879, lon.=26.499977, Alt.=91.739319m. Speed=15.912000m/h.</desc>
<speed>4.420000</speed>
</trkpt>
<trkpt lat="56.080906" lon="26.500044">
<ele>92.126038</ele>
<time>2010-08-29T13:39:17Z</time>
<desc>lat.=56.080906, lon.=26.500044, Alt.=92.126038m. Speed=14.976000m/h.</desc>
<speed>4.160000</speed>
</trkpt>
<trkpt lat="56.080933" lon="26.500105">
<ele>92.190491</ele>
<time>2010-08-29T13:39:18Z</time>
<desc>lat.=56.080933, lon.=26.500105, Alt.=92.190491m. Speed=15.012000m/h.</desc>
<speed>4.170000</speed>
</trkpt>
<trkpt lat="56.080963" lon="26.500175">
<ele>94.127991</ele>
<time>2010-08-29T13:39:19Z</time>
<desc>lat.=56.080963, lon.=26.500175, Alt.=94.127991m. Speed=14.004000m/h.</desc>
<speed>3.890000</speed>
</trkpt>
<trkpt lat="56.080978" lon="26.500219">
<ele>94.133850</ele>
<time>2010-08-29T13:39:20Z</time>
<desc>lat.=56.080978, lon.=26.500219, Alt.=94.133850m. Speed=11.556000m/h.</desc>
<speed>3.210000</speed>
</trkpt>
<trkpt lat="56.080997" lon="26.500265">
<ele>94.047913</ele>
<time>2010-08-29T13:39:21Z</time>
<desc>lat.=56.080997, lon.=26.500265, Alt.=94.047913m. Speed=11.304000m/h.</desc>
<speed>3.140000</speed>
</trkpt>
<trkpt lat="56.081017" lon="26.500311">
<ele>94.053772</ele>
<time>2010-08-29T13:39:22Z</time>
<desc>lat.=56.081017, lon.=26.500311, Alt.=94.053772m. Speed=12.924000m/h.</desc>
<speed>3.590000</speed>
</trkpt>
<trkpt lat="56.081039" lon="26.500357">
<ele>94.311584</ele>
<time>2010-08-29T13:39:23Z</time>
<desc>lat.=56.081039, lon.=26.500357, Alt.=94.311584m. Speed=12.744000m/h.</desc>
<speed>3.540000</speed>
</trkpt>
<trkpt lat="56.081062" lon="26.500422">
<ele>95.233459</ele>
<time>2010-08-29T13:39:24Z</time>
<desc>lat.=56.081062, lon.=26.500422, Alt.=95.233459m. Speed=13.428000m/h.</desc>
<speed>3.730000</speed>
</trkpt>
<trkpt lat="56.081085" lon="26.500471">
<ele>95.471741</ele>
<time>2010-08-29T13:39:25Z</time>
<desc>lat.=56.081085, lon.=26.500471, Alt.=95.471741m. Speed=13.932000m/h.</desc>
<speed>3.870000</speed>
</trkpt>
<trkpt lat="56.081108" lon="26.500528">
<ele>94.960022</ele>
<time>2010-08-29T13:39:26Z</time>
<desc>lat.=56.081108, lon.=26.500528, Alt.=94.960022m. Speed=14.904000m/h.</desc>
<speed>4.140000</speed>
</trkpt>
<trkpt lat="56.081127" lon="26.500584">
<ele>94.811584</ele>
<time>2010-08-29T13:39:27Z</time>
<desc>lat.=56.081127, lon.=26.500584, Alt.=94.811584m. Speed=15.264000m/h.</desc>
<speed>4.240000</speed>
</trkpt>
<trkpt lat="56.081150" lon="26.500643">
<ele>94.624084</ele>
<time>2010-08-29T13:39:28Z</time>
<desc>lat.=56.081150, lon.=26.500643, Alt.=94.624084m. Speed=16.488001m/h.</desc>
<speed>4.580000</speed>
</trkpt>
<trkpt lat="56.081173" lon="26.500698">
<ele>94.676819</ele>
<time>2010-08-29T13:39:29Z</time>
<desc>lat.=56.081173, lon.=26.500698, Alt.=94.676819m. Speed=15.732000m/h.</desc>
<speed>4.370000</speed>
</trkpt>
<trkpt lat="56.081196" lon="26.500755">
<ele>94.817444</ele>
<time>2010-08-29T13:39:30Z</time>
<desc>lat.=56.081196, lon.=26.500755, Alt.=94.817444m. Speed=14.472000m/h.</desc>
<speed>4.020000</speed>
</trkpt>
<trkpt lat="56.081215" lon="26.500807">
<ele>95.374084</ele>
<time>2010-08-29T13:39:31Z</time>
<desc>lat.=56.081215, lon.=26.500807, Alt.=95.374084m. Speed=12.996000m/h.</desc>
<speed>3.610000</speed>
</trkpt>
<trkpt lat="56.081230" lon="26.500856">
<ele>95.083069</ele>
<time>2010-08-29T13:39:32Z</time>
<desc>lat.=56.081230, lon.=26.500856, Alt.=95.083069m. Speed=12.348000m/h.</desc>
<speed>3.430000</speed>
</trkpt>
<trkpt lat="56.081245" lon="26.500902">
<ele>95.327209</ele>
<time>2010-08-29T13:39:33Z</time>
<desc>lat.=56.081245, lon.=26.500902, Alt.=95.327209m. Speed=11.772000m/h.</desc>
<speed>3.270000</speed>
</trkpt>
<trkpt lat="56.081261" lon="26.500950">
<ele>95.204163</ele>
<time>2010-08-29T13:39:34Z</time>
<desc>lat.=56.081261, lon.=26.500950, Alt.=95.204163m. Speed=11.628000m/h.</desc>
<speed>3.230000</speed>
</trkpt>
<trkpt lat="56.081276" lon="26.500994">
<ele>95.350647</ele>
<time>2010-08-29T13:39:35Z</time>
<desc>lat.=56.081276, lon.=26.500994, Alt.=95.350647m. Speed=11.088000m/h.</desc>
<speed>3.080000</speed>
</trkpt>
<trkpt lat="56.081291" lon="26.501038">
<ele>95.370178</ele>
<time>2010-08-29T13:39:36Z</time>
<desc>lat.=56.081291, lon.=26.501038, Alt.=95.370178m. Speed=10.692000m/h.</desc>
<speed>2.970000</speed>
</trkpt>
<trkpt lat="56.081306" lon="26.501078">
<ele>95.508850</ele>
<time>2010-08-29T13:39:37Z</time>
<desc>lat.=56.081306, lon.=26.501078, Alt.=95.508850m. Speed=10.008000m/h.</desc>
<speed>2.780000</speed>
</trkpt>
<trkpt lat="56.081318" lon="26.501118">
<ele>95.835022</ele>
<time>2010-08-29T13:39:38Z</time>
<desc>lat.=56.081318, lon.=26.501118, Alt.=95.835022m. Speed=8.784000m/h.</desc>
<speed>2.440000</speed>
</trkpt>
<trkpt lat="56.081333" lon="26.501158">
<ele>95.922913</ele>
<time>2010-08-29T13:39:39Z</time>
<desc>lat.=56.081333, lon.=26.501158, Alt.=95.922913m. Speed=8.388000m/h.</desc>
<speed>2.330000</speed>
</trkpt>
<trkpt lat="56.081341" lon="26.501188">
<ele>96.018616</ele>
<time>2010-08-29T13:39:40Z</time>
<desc>lat.=56.081341, lon.=26.501188, Alt.=96.018616m. Speed=7.020000m/h.</desc>
<speed>1.950000</speed>
</trkpt>
<trkpt lat="56.081356" lon="26.501211">
<ele>96.276428</ele>
<time>2010-08-29T13:39:41Z</time>
<desc>lat.=56.081356, lon.=26.501211, Alt.=96.276428m. Speed=6.444000m/h.</desc>
<speed>1.790000</speed>
</trkpt>
<trkpt lat="56.081367" lon="26.501234">
<ele>96.627991</ele>
<time>2010-08-29T13:39:42Z</time>
<desc>lat.=56.081367, lon.=26.501234, Alt.=96.627991m. Speed=5.760000m/h.</desc>
<speed>1.600000</speed>
</trkpt>
<trkpt lat="56.081379" lon="26.501257">
<ele>96.993225</ele>
<time>2010-08-29T13:39:43Z</time>
<desc>lat.=56.081379, lon.=26.501257, Alt.=96.993225m. Speed=5.472000m/h.</desc>
<speed>1.520000</speed>
</trkpt>
<trkpt lat="56.081387" lon="26.501282">
<ele>97.180725</ele>
<time>2010-08-29T13:39:44Z</time>
<desc>lat.=56.081387, lon.=26.501282, Alt.=97.180725m. Speed=6.264000m/h.</desc>
<speed>1.740000</speed>
</trkpt>
<trkpt lat="56.081394" lon="26.501314">
<ele>97.340881</ele>
<time>2010-08-29T13:39:45Z</time>
<desc>lat.=56.081394, lon.=26.501314, Alt.=97.340881m. Speed=8.172000m/h.</desc>
<speed>2.270000</speed>
</trkpt>
<trkpt lat="56.081406" lon="26.501350">
<ele>97.374084</ele>
<time>2010-08-29T13:39:46Z</time>
<desc>lat.=56.081406, lon.=26.501350, Alt.=97.374084m. Speed=7.524000m/h.</desc>
<speed>2.090000</speed>
</trkpt>
<trkpt lat="56.081413" lon="26.501383">
<ele>97.377991</ele>
<time>2010-08-29T13:39:47Z</time>
<desc>lat.=56.081413, lon.=26.501383, Alt.=97.377991m. Speed=7.956000m/h.</desc>
<speed>2.210000</speed>
</trkpt>
<trkpt lat="56.081429" lon="26.501423">
<ele>97.452209</ele>
<time>2010-08-29T13:39:48Z</time>
<desc>lat.=56.081429, lon.=26.501423, Alt.=97.452209m. Speed=9.468000m/h.</desc>
<speed>2.630000</speed>
</trkpt>
<trkpt lat="56.081444" lon="26.501469">
<ele>97.653381</ele>
<time>2010-08-29T13:39:49Z</time>
<desc>lat.=56.081444, lon.=26.501469, Alt.=97.653381m. Speed=9.360000m/h.</desc>
<speed>2.600000</speed>
</trkpt>
<trkpt lat="56.081459" lon="26.501518">
<ele>97.846741</ele>
<time>2010-08-29T13:39:50Z</time>
<desc>lat.=56.081459, lon.=26.501518, Alt.=97.846741m. Speed=11.232000m/h.</desc>
<speed>3.120000</speed>
</trkpt>
<trkpt lat="56.081470" lon="26.501558">
<ele>97.997131</ele>
<time>2010-08-29T13:39:51Z</time>
<desc>lat.=56.081470, lon.=26.501558, Alt.=97.997131m. Speed=12.060000m/h.</desc>
<speed>3.350000</speed>
</trkpt>
<trkpt lat="56.081490" lon="26.501606">
<ele>98.319397</ele>
<time>2010-08-29T13:39:52Z</time>
<desc>lat.=56.081490, lon.=26.501606, Alt.=98.319397m. Speed=13.320000m/h.</desc>
<speed>3.700000</speed>
</trkpt>
<trkpt lat="56.081505" lon="26.501656">
<ele>98.622131</ele>
<time>2010-08-29T13:39:53Z</time>
<desc>lat.=56.081505, lon.=26.501656, Alt.=98.622131m. Speed=13.032000m/h.</desc>
<speed>3.620000</speed>
</trkpt>
<trkpt lat="56.081520" lon="26.501703">
<ele>98.499084</ele>
<time>2010-08-29T13:39:54Z</time>
<desc>lat.=56.081520, lon.=26.501703, Alt.=98.499084m. Speed=13.212000m/h.</desc>
<speed>3.670000</speed>
</trkpt>
<trkpt lat="56.081547" lon="26.501755">
<ele>98.958069</ele>
<time>2010-08-29T13:39:55Z</time>
<desc>lat.=56.081547, lon.=26.501755, Alt.=98.958069m. Speed=13.752000m/h.</desc>
<speed>3.820000</speed>
</trkpt>
<trkpt lat="56.081570" lon="26.501804">
<ele>98.963928</ele>
<time>2010-08-29T13:39:56Z</time>
<desc>lat.=56.081570, lon.=26.501804, Alt.=98.963928m. Speed=12.888000m/h.</desc>
<speed>3.580000</speed>
</trkpt>
<trkpt lat="56.081585" lon="26.501854">
<ele>99.112366</ele>
<time>2010-08-29T13:39:57Z</time>
<desc>lat.=56.081585, lon.=26.501854, Alt.=99.112366m. Speed=13.284000m/h.</desc>
<speed>3.690000</speed>
</trkpt>
<trkpt lat="56.081600" lon="26.501909">
<ele>99.508850</ele>
<time>2010-08-29T13:39:58Z</time>
<desc>lat.=56.081600, lon.=26.501909, Alt.=99.508850m. Speed=13.104000m/h.</desc>
<speed>3.640000</speed>
</trkpt>
<trkpt lat="56.081619" lon="26.501959">
<ele>99.715881</ele>
<time>2010-08-29T13:39:59Z</time>
<desc>lat.=56.081619, lon.=26.501959, Alt.=99.715881m. Speed=13.320000m/h.</desc>
<speed>3.700000</speed>
</trkpt>
<trkpt lat="56.081638" lon="26.502010">
<ele>99.850647</ele>
<time>2010-08-29T13:40:00Z</time>
<desc>lat.=56.081638, lon.=26.502010, Alt.=99.850647m. Speed=13.068000m/h.</desc>
<speed>3.630000</speed>
</trkpt>
<trkpt lat="56.081661" lon="26.502056">
<ele>99.891663</ele>
<time>2010-08-29T13:40:01Z</time>
<desc>lat.=56.081661, lon.=26.502056, Alt.=99.891663m. Speed=12.672000m/h.</desc>
<speed>3.520000</speed>
</trkpt>
<trkpt lat="56.081680" lon="26.502106">
<ele>99.774475</ele>
<time>2010-08-29T13:40:02Z</time>
<desc>lat.=56.081680, lon.=26.502106, Alt.=99.774475m. Speed=12.708000m/h.</desc>
<speed>3.530000</speed>
</trkpt>
<trkpt lat="56.081707" lon="26.502151">
<ele>98.915100</ele>
<time>2010-08-29T13:40:03Z</time>
<desc>lat.=56.081707, lon.=26.502151, Alt.=98.915100m. Speed=13.464000m/h.</desc>
<speed>3.740000</speed>
</trkpt>
<trkpt lat="56.081726" lon="26.502203">
<ele>98.794006</ele>
<time>2010-08-29T13:40:04Z</time>
<desc>lat.=56.081726, lon.=26.502203, Alt.=98.794006m. Speed=14.220000m/h.</desc>
<speed>3.950000</speed>
</trkpt>
<trkpt lat="56.081749" lon="26.502253">
<ele>98.877991</ele>
<time>2010-08-29T13:40:05Z</time>
<desc>lat.=56.081749, lon.=26.502253, Alt.=98.877991m. Speed=13.428000m/h.</desc>
<speed>3.730000</speed>
</trkpt>
<trkpt lat="56.081776" lon="26.502310">
<ele>99.405334</ele>
<time>2010-08-29T13:40:06Z</time>
<desc>lat.=56.081776, lon.=26.502310, Alt.=99.405334m. Speed=15.840000m/h.</desc>
<speed>4.400000</speed>
</trkpt>
<trkpt lat="56.081799" lon="26.502361">
<ele>99.588928</ele>
<time>2010-08-29T13:40:07Z</time>
<desc>lat.=56.081799, lon.=26.502361, Alt.=99.588928m. Speed=14.832000m/h.</desc>
<speed>4.120000</speed>
</trkpt>
<trkpt lat="56.081821" lon="26.502419">
<ele>99.752991</ele>
<time>2010-08-29T13:40:08Z</time>
<desc>lat.=56.081821, lon.=26.502419, Alt.=99.752991m. Speed=14.796000m/h.</desc>
<speed>4.110000</speed>
</trkpt>
<trkpt lat="56.081837" lon="26.502480">
<ele>99.577209</ele>
<time>2010-08-29T13:40:09Z</time>
<desc>lat.=56.081837, lon.=26.502480, Alt.=99.577209m. Speed=15.084000m/h.</desc>
<speed>4.190000</speed>
</trkpt>
<trkpt lat="56.081856" lon="26.502539">
<ele>99.727600</ele>
<time>2010-08-29T13:40:10Z</time>
<desc>lat.=56.081856, lon.=26.502539, Alt.=99.727600m. Speed=15.948000m/h.</desc>
<speed>4.430000</speed>
</trkpt>
<trkpt lat="56.081879" lon="26.502598">
<ele>100.194397</ele>
<time>2010-08-29T13:40:11Z</time>
<desc>lat.=56.081879, lon.=26.502598, Alt.=100.194397m. Speed=15.012000m/h.</desc>
<speed>4.170000</speed>
</trkpt>
<trkpt lat="56.081898" lon="26.502659">
<ele>100.454163</ele>
<time>2010-08-29T13:40:12Z</time>
<desc>lat.=56.081898, lon.=26.502659, Alt.=100.454163m. Speed=15.336000m/h.</desc>
<speed>4.260000</speed>
</trkpt>
<trkpt lat="56.081921" lon="26.502716">
<ele>100.735413</ele>
<time>2010-08-29T13:40:13Z</time>
<desc>lat.=56.081921, lon.=26.502716, Alt.=100.735413m. Speed=14.184000m/h.</desc>
<speed>3.940000</speed>
</trkpt>
<trkpt lat="56.081936" lon="26.502773">
<ele>100.467834</ele>
<time>2010-08-29T13:40:14Z</time>
<desc>lat.=56.081936, lon.=26.502773, Alt.=100.467834m. Speed=14.760000m/h.</desc>
<speed>4.100000</speed>
</trkpt>
<trkpt lat="56.081951" lon="26.502838">
<ele>100.876038</ele>
<time>2010-08-29T13:40:15Z</time>
<desc>lat.=56.081951, lon.=26.502838, Alt.=100.876038m. Speed=13.356000m/h.</desc>
<speed>3.710000</speed>
</trkpt>
<trkpt lat="56.081970" lon="26.502893">
<ele>100.639709</ele>
<time>2010-08-29T13:40:16Z</time>
<desc>lat.=56.081970, lon.=26.502893, Alt.=100.639709m. Speed=11.196000m/h.</desc>
<speed>3.110000</speed>
</trkpt>
<trkpt lat="56.081985" lon="26.502943">
<ele>100.961975</ele>
<time>2010-08-29T13:40:17Z</time>
<desc>lat.=56.081985, lon.=26.502943, Alt.=100.961975m. Speed=8.640000m/h.</desc>
<speed>2.400000</speed>
</trkpt>
<trkpt lat="56.081993" lon="26.502977">
<ele>101.333069</ele>
<time>2010-08-29T13:40:18Z</time>
<desc>lat.=56.081993, lon.=26.502977, Alt.=101.333069m. Speed=6.264000m/h.</desc>
<speed>1.740000</speed>
</trkpt>
<trkpt lat="56.082005" lon="26.503004">
<ele>101.307678</ele>
<time>2010-08-29T13:40:19Z</time>
<desc>lat.=56.082005, lon.=26.503004, Alt.=101.307678m. Speed=5.652000m/h.</desc>
<speed>1.570000</speed>
</trkpt>
<trkpt lat="56.082012" lon="26.503023">
<ele>101.112366</ele>
<time>2010-08-29T13:40:20Z</time>
<desc>lat.=56.082012, lon.=26.503023, Alt.=101.112366m. Speed=4.428000m/h.</desc>
<speed>1.230000</speed>
</trkpt>
<trkpt lat="56.082020" lon="26.503046">
<ele>100.737366</ele>
<time>2010-08-29T13:40:21Z</time>
<desc>lat.=56.082020, lon.=26.503046, Alt.=100.737366m. Speed=4.392000m/h.</desc>
<speed>1.220000</speed>
</trkpt>
<trkpt lat="56.082020" lon="26.503063">
<ele>100.286194</ele>
<time>2010-08-29T13:40:22Z</time>
<desc>lat.=56.082020, lon.=26.503063, Alt.=100.286194m. Speed=4.860000m/h.</desc>
<speed>1.350000</speed>
</trkpt>
<trkpt lat="56.082027" lon="26.503086">
<ele>100.196350</ele>
<time>2010-08-29T13:40:23Z</time>
<desc>lat.=56.082027, lon.=26.503086, Alt.=100.196350m. Speed=4.680000m/h.</desc>
<speed>1.300000</speed>
</trkpt>
<trkpt lat="56.082039" lon="26.503113">
<ele>100.249084</ele>
<time>2010-08-29T13:40:24Z</time>
<desc>lat.=56.082039, lon.=26.503113, Alt.=100.249084m. Speed=6.156000m/h.</desc>
<speed>1.710000</speed>
</trkpt>
<trkpt lat="56.082043" lon="26.503126">
<ele>100.108459</ele>
<time>2010-08-29T13:40:25Z</time>
<desc>lat.=56.082043, lon.=26.503126, Alt.=100.108459m. Speed=5.076000m/h.</desc>
<speed>1.410000</speed>
</trkpt>
<trkpt lat="56.082050" lon="26.503151">
<ele>100.167053</ele>
<time>2010-08-29T13:40:26Z</time>
<desc>lat.=56.082050, lon.=26.503151, Alt.=100.167053m. Speed=4.608000m/h.</desc>
<speed>1.280000</speed>
</trkpt>
<trkpt lat="56.082050" lon="26.503170">
<ele>99.938538</ele>
<time>2010-08-29T13:40:27Z</time>
<desc>lat.=56.082050, lon.=26.503170, Alt.=99.938538m. Speed=3.564000m/h.</desc>
<speed>0.990000</speed>
</trkpt>
<trkpt lat="56.082050" lon="26.503181">
<ele>99.678772</ele>
<time>2010-08-29T13:40:28Z</time>
<desc>lat.=56.082050, lon.=26.503181, Alt.=99.678772m. Speed=1.116000m/h.</desc>
<speed>0.310000</speed>
</trkpt>
<trkpt lat="56.082047" lon="26.503180">
<ele>99.778381</ele>
<time>2010-08-29T13:40:29Z</time>
<desc>lat.=56.082047, lon.=26.503180, Alt.=99.778381m. Speed=0.792000m/h.</desc>
<speed>0.220000</speed>
</trkpt>
<trkpt lat="56.082047" lon="26.503176">
<ele>99.948303</ele>
<time>2010-08-29T13:40:30Z</time>
<desc>lat.=56.082047, lon.=26.503176, Alt.=99.948303m. Speed=0.612000m/h.</desc>
<speed>0.170000</speed>
</trkpt>
<trkpt lat="56.082043" lon="26.503174">
<ele>99.905334</ele>
<time>2010-08-29T13:40:31Z</time>
<desc>lat.=56.082043, lon.=26.503174, Alt.=99.905334m. Speed=0.468000m/h.</desc>
<speed>0.130000</speed>
</trkpt>
<trkpt lat="56.082043" lon="26.503170">
<ele>99.876038</ele>
<time>2010-08-29T13:40:32Z</time>
<desc>lat.=56.082043, lon.=26.503170, Alt.=99.876038m. Speed=0.540000m/h.</desc>
<speed>0.150000</speed>
</trkpt>
<trkpt lat="56.082043" lon="26.503168">
<ele>99.850647</ele>
<time>2010-08-29T13:40:33Z</time>
<desc>lat.=56.082043, lon.=26.503168, Alt.=99.850647m. Speed=0.396000m/h.</desc>
<speed>0.110000</speed>
</trkpt>
<trkpt lat="56.082043" lon="26.503166">
<ele>99.833069</ele>
<time>2010-08-29T13:40:34Z</time>
<desc>lat.=56.082043, lon.=26.503166, Alt.=99.833069m. Speed=0.108000m/h.</desc>
<speed>0.030000</speed>
</trkpt>
<trkpt lat="56.082043" lon="26.503166">
<ele>99.805725</ele>
<time>2010-08-29T13:40:35Z</time>
<desc>lat.=56.082043, lon.=26.503166, Alt.=99.805725m. Speed=0.036000m/h.</desc>
<speed>0.010000</speed>
</trkpt>
<trkpt lat="56.082043" lon="26.503166">
<ele>99.792053</ele>
<time>2010-08-29T13:40:36Z</time>
<desc>lat.=56.082043, lon.=26.503166, Alt.=99.792053m. Speed=0.036000m/h.</desc>
<speed>0.010000</speed>
</trkpt>
<trkpt lat="56.082043" lon="26.503166">
<ele>99.772522</ele>
<time>2010-08-29T13:40:37Z</time>
<desc>lat.=56.082043, lon.=26.503166, Alt.=99.772522m. Speed=0.108000m/h.</desc>
<speed>0.030000</speed>
</trkpt>
<trkpt lat="56.082043" lon="26.503166">
<ele>99.764709</ele>
<time>2010-08-29T13:40:38Z</time>
<desc>lat.=56.082043, lon.=26.503166, Alt.=99.764709m. Speed=0.072000m/h.</desc>
<speed>0.020000</speed>
</trkpt>
<trkpt lat="56.082043" lon="26.503166">
<ele>99.768616</ele>
<time>2010-08-29T13:40:39Z</time>
<desc>lat.=56.082043, lon.=26.503166, Alt.=99.768616m. Speed=0.324000m/h.</desc>
<speed>0.090000</speed>
</trkpt>
<trkpt lat="56.082043" lon="26.503166">
<ele>99.762756</ele>
<time>2010-08-29T13:40:40Z</time>
<desc>lat.=56.082043, lon.=26.503166, Alt.=99.762756m. Speed=0.036000m/h.</desc>
<speed>0.010000</speed>
</trkpt>
<trkpt lat="56.082043" lon="26.503166">
<ele>99.764709</ele>
<time>2010-08-29T13:40:41Z</time>
<desc>lat.=56.082043, lon.=26.503166, Alt.=99.764709m. Speed=0.036000m/h.</desc>
<speed>0.010000</speed>
</trkpt>
<trkpt lat="56.082043" lon="26.503166">
<ele>99.760803</ele>
<time>2010-08-29T13:40:42Z</time>
<desc>lat.=56.082043, lon.=26.503166, Alt.=99.760803m. Speed=0.216000m/h.</desc>
<speed>0.060000</speed>
</trkpt>
<trkpt lat="56.082043" lon="26.503166">
<ele>99.764709</ele>
<time>2010-08-29T13:40:43Z</time>
<desc>lat.=56.082043, lon.=26.503166, Alt.=99.764709m. Speed=0.180000m/h.</desc>
<speed>0.050000</speed>
</trkpt>
<trkpt lat="56.082047" lon="26.503166">
<ele>99.752991</ele>
<time>2010-08-29T13:40:44Z</time>
<desc>lat.=56.082047, lon.=26.503166, Alt.=99.752991m. Speed=0.180000m/h.</desc>
<speed>0.050000</speed>
</trkpt>
<trkpt lat="56.082043" lon="26.503164">
<ele>99.751038</ele>
<time>2010-08-29T13:40:45Z</time>
<desc>lat.=56.082043, lon.=26.503164, Alt.=99.751038m. Speed=0.036000m/h.</desc>
<speed>0.010000</speed>
</trkpt>
<trkpt lat="56.082043" lon="26.503164">
<ele>99.739319</ele>
<time>2010-08-29T13:40:46Z</time>
<desc>lat.=56.082043, lon.=26.503164, Alt.=99.739319m. Speed=0.036000m/h.</desc>
<speed>0.010000</speed>
</trkpt>
<trkpt lat="56.082043" lon="26.503164">
<ele>99.737366</ele>
<time>2010-08-29T13:40:47Z</time>
<desc>lat.=56.082043, lon.=26.503164, Alt.=99.737366m. Speed=0.216000m/h.</desc>
<speed>0.060000</speed>
</trkpt>
<trkpt lat="56.082043" lon="26.503164">
<ele>99.751038</ele>
<time>2010-08-29T13:40:48Z</time>
<desc>lat.=56.082043, lon.=26.503164, Alt.=99.751038m. Speed=0.144000m/h.</desc>
<speed>0.040000</speed>
</trkpt>
<trkpt lat="56.082043" lon="26.503166">
<ele>99.756897</ele>
<time>2010-08-29T13:40:49Z</time>
<desc>lat.=56.082043, lon.=26.503166, Alt.=99.756897m. Speed=0.036000m/h.</desc>
<speed>0.010000</speed>
</trkpt>
<trkpt lat="56.082043" lon="26.503164">
<ele>99.764709</ele>
<time>2010-08-29T13:40:50Z</time>
<desc>lat.=56.082043, lon.=26.503164, Alt.=99.764709m. Speed=0.108000m/h.</desc>
<speed>0.030000</speed>
</trkpt>
<trkpt lat="56.082043" lon="26.503164">
<ele>99.735413</ele>
<time>2010-08-29T13:40:51Z</time>
<desc>lat.=56.082043, lon.=26.503164, Alt.=99.735413m. Speed=0.036000m/h.</desc>
<speed>0.010000</speed>
</trkpt>
<trkpt lat="56.082043" lon="26.503164">
<ele>99.745178</ele>
<time>2010-08-29T13:40:52Z</time>
<desc>lat.=56.082043, lon.=26.503164, Alt.=99.745178m. Speed=0.144000m/h.</desc>
<speed>0.040000</speed>
</trkpt>
<trkpt lat="56.082043" lon="26.503166">
<ele>99.776428</ele>
<time>2010-08-29T13:40:53Z</time>
<desc>lat.=56.082043, lon.=26.503166, Alt.=99.776428m. Speed=2.016000m/h.</desc>
<speed>0.560000</speed>
</trkpt>
<trkpt lat="56.082047" lon="26.503174">
<ele>99.772522</ele>
<time>2010-08-29T13:40:54Z</time>
<desc>lat.=56.082047, lon.=26.503174, Alt.=99.772522m. Speed=3.600000m/h.</desc>
<speed>1.000000</speed>
</trkpt>
<trkpt lat="56.082054" lon="26.503191">
<ele>99.907288</ele>
<time>2010-08-29T13:40:55Z</time>
<desc>lat.=56.082054, lon.=26.503191, Alt.=99.907288m. Speed=3.348000m/h.</desc>
<speed>0.930000</speed>
</trkpt>
<trkpt lat="56.082062" lon="26.503212">
<ele>100.012756</ele>
<time>2010-08-29T13:40:56Z</time>
<desc>lat.=56.082062, lon.=26.503212, Alt.=100.012756m. Speed=6.588000m/h.</desc>
<speed>1.830000</speed>
</trkpt>
<trkpt lat="56.082073" lon="26.503242">
<ele>100.297913</ele>
<time>2010-08-29T13:40:57Z</time>
<desc>lat.=56.082073, lon.=26.503242, Alt.=100.297913m. Speed=7.668000m/h.</desc>
<speed>2.130000</speed>
</trkpt>
<trkpt lat="56.082085" lon="26.503273">
<ele>100.616272</ele>
<time>2010-08-29T13:40:58Z</time>
<desc>lat.=56.082085, lon.=26.503273, Alt.=100.616272m. Speed=6.372000m/h.</desc>
<speed>1.770000</speed>
</trkpt>
<trkpt lat="56.082100" lon="26.503309">
<ele>100.936584</ele>
<time>2010-08-29T13:40:59Z</time>
<desc>lat.=56.082100, lon.=26.503309, Alt.=100.936584m. Speed=8.928000m/h.</desc>
<speed>2.480000</speed>
</trkpt>
<trkpt lat="56.082111" lon="26.503349">
<ele>101.133850</ele>
<time>2010-08-29T13:41:00Z</time>
<desc>lat.=56.082111, lon.=26.503349, Alt.=101.133850m. Speed=8.676000m/h.</desc>
<speed>2.410000</speed>
</trkpt>
<trkpt lat="56.082123" lon="26.503386">
<ele>101.551819</ele>
<time>2010-08-29T13:41:01Z</time>
<desc>lat.=56.082123, lon.=26.503386, Alt.=101.551819m. Speed=9.036000m/h.</desc>
<speed>2.510000</speed>
</trkpt>
<trkpt lat="56.082130" lon="26.503428">
<ele>101.520569</ele>
<time>2010-08-29T13:41:02Z</time>
<desc>lat.=56.082130, lon.=26.503428, Alt.=101.520569m. Speed=9.432000m/h.</desc>
<speed>2.620000</speed>
</trkpt>
<trkpt lat="56.082142" lon="26.503469">
<ele>101.284241</ele>
<time>2010-08-29T13:41:03Z</time>
<desc>lat.=56.082142, lon.=26.503469, Alt.=101.284241m. Speed=9.936000m/h.</desc>
<speed>2.760000</speed>
</trkpt>
<trkpt lat="56.082153" lon="26.503517">
<ele>101.397522</ele>
<time>2010-08-29T13:41:04Z</time>
<desc>lat.=56.082153, lon.=26.503517, Alt.=101.397522m. Speed=10.836000m/h.</desc>
<speed>3.010000</speed>
</trkpt>
<trkpt lat="56.082165" lon="26.503565">
<ele>101.135803</ele>
<time>2010-08-29T13:41:05Z</time>
<desc>lat.=56.082165, lon.=26.503565, Alt.=101.135803m. Speed=11.016000m/h.</desc>
<speed>3.060000</speed>
</trkpt>
<trkpt lat="56.082180" lon="26.503613">
<ele>101.542053</ele>
<time>2010-08-29T13:41:06Z</time>
<desc>lat.=56.082180, lon.=26.503613, Alt.=101.542053m. Speed=11.592000m/h.</desc>
<speed>3.220000</speed>
</trkpt>
<trkpt lat="56.082199" lon="26.503654">
<ele>101.756897</ele>
<time>2010-08-29T13:41:07Z</time>
<desc>lat.=56.082199, lon.=26.503654, Alt.=101.756897m. Speed=10.980000m/h.</desc>
<speed>3.050000</speed>
</trkpt>
<trkpt lat="56.082214" lon="26.503702">
<ele>101.669006</ele>
<time>2010-08-29T13:41:08Z</time>
<desc>lat.=56.082214, lon.=26.503702, Alt.=101.669006m. Speed=11.268000m/h.</desc>
<speed>3.130000</speed>
</trkpt>
<trkpt lat="56.082230" lon="26.503756">
<ele>101.737366</ele>
<time>2010-08-29T13:41:09Z</time>
<desc>lat.=56.082230, lon.=26.503756, Alt.=101.737366m. Speed=12.096000m/h.</desc>
<speed>3.360000</speed>
</trkpt>
<trkpt lat="56.082245" lon="26.503809">
<ele>101.901428</ele>
<time>2010-08-29T13:41:10Z</time>
<desc>lat.=56.082245, lon.=26.503809, Alt.=101.901428m. Speed=13.032000m/h.</desc>
<speed>3.620000</speed>
</trkpt>
<trkpt lat="56.082253" lon="26.503859">
<ele>101.692444</ele>
<time>2010-08-29T13:41:11Z</time>
<desc>lat.=56.082253, lon.=26.503859, Alt.=101.692444m. Speed=12.780000m/h.</desc>
<speed>3.550000</speed>
</trkpt>
<trkpt lat="56.082260" lon="26.503916">
<ele>101.860413</ele>
<time>2010-08-29T13:41:12Z</time>
<desc>lat.=56.082260, lon.=26.503916, Alt.=101.860413m. Speed=12.672000m/h.</desc>
<speed>3.520000</speed>
</trkpt>
<trkpt lat="56.082268" lon="26.503967">
<ele>101.514709</ele>
<time>2010-08-29T13:41:13Z</time>
<desc>lat.=56.082268, lon.=26.503967, Alt.=101.514709m. Speed=12.492000m/h.</desc>
<speed>3.470000</speed>
</trkpt>
<trkpt lat="56.082275" lon="26.504021">
<ele>101.501038</ele>
<time>2010-08-29T13:41:14Z</time>
<desc>lat.=56.082275, lon.=26.504021, Alt.=101.501038m. Speed=11.844000m/h.</desc>
<speed>3.290000</speed>
</trkpt>
<trkpt lat="56.082279" lon="26.504068">
<ele>101.301819</ele>
<time>2010-08-29T13:41:15Z</time>
<desc>lat.=56.082279, lon.=26.504068, Alt.=101.301819m. Speed=11.268000m/h.</desc>
<speed>3.130000</speed>
</trkpt>
<trkpt lat="56.082275" lon="26.504116">
<ele>100.905334</ele>
<time>2010-08-29T13:41:16Z</time>
<desc>lat.=56.082275, lon.=26.504116, Alt.=100.905334m. Speed=11.448000m/h.</desc>
<speed>3.180000</speed>
</trkpt>
<trkpt lat="56.082272" lon="26.504173">
<ele>100.870178</ele>
<time>2010-08-29T13:41:17Z</time>
<desc>lat.=56.082272, lon.=26.504173, Alt.=100.870178m. Speed=12.528000m/h.</desc>
<speed>3.480000</speed>
</trkpt>
<trkpt lat="56.082264" lon="26.504229">
<ele>100.702209</ele>
<time>2010-08-29T13:41:18Z</time>
<desc>lat.=56.082264, lon.=26.504229, Alt.=100.702209m. Speed=14.256000m/h.</desc>
<speed>3.960000</speed>
</trkpt>
<trkpt lat="56.082253" lon="26.504276">
<ele>101.377991</ele>
<time>2010-08-29T13:41:19Z</time>
<desc>lat.=56.082253, lon.=26.504276, Alt.=101.377991m. Speed=12.708000m/h.</desc>
<speed>3.530000</speed>
</trkpt>
<trkpt lat="56.082241" lon="26.504326">
<ele>101.346741</ele>
<time>2010-08-29T13:41:20Z</time>
<desc>lat.=56.082241, lon.=26.504326, Alt.=101.346741m. Speed=11.340000m/h.</desc>
<speed>3.150000</speed>
</trkpt>
<trkpt lat="56.082222" lon="26.504368">
<ele>101.583069</ele>
<time>2010-08-29T13:41:21Z</time>
<desc>lat.=56.082222, lon.=26.504368, Alt.=101.583069m. Speed=11.988000m/h.</desc>
<speed>3.330000</speed>
</trkpt>
<trkpt lat="56.082203" lon="26.504412">
<ele>102.194397</ele>
<time>2010-08-29T13:41:22Z</time>
<desc>lat.=56.082203, lon.=26.504412, Alt.=102.194397m. Speed=12.564000m/h.</desc>
<speed>3.490000</speed>
</trkpt>
<trkpt lat="56.082180" lon="26.504436">
<ele>102.551819</ele>
<time>2010-08-29T13:41:23Z</time>
<desc>lat.=56.082180, lon.=26.504436, Alt.=102.551819m. Speed=11.664000m/h.</desc>
<speed>3.240000</speed>
</trkpt>
<trkpt lat="56.082153" lon="26.504469">
<ele>102.172913</ele>
<time>2010-08-29T13:41:24Z</time>
<desc>lat.=56.082153, lon.=26.504469, Alt.=102.172913m. Speed=12.960000m/h.</desc>
<speed>3.600000</speed>
</trkpt>
<trkpt lat="56.082123" lon="26.504505">
<ele>102.758850</ele>
<time>2010-08-29T13:41:25Z</time>
<desc>lat.=56.082123, lon.=26.504505, Alt.=102.758850m. Speed=12.924000m/h.</desc>
<speed>3.590000</speed>
</trkpt>
<trkpt lat="56.082096" lon="26.504539">
<ele>102.661194</ele>
<time>2010-08-29T13:41:26Z</time>
<desc>lat.=56.082096, lon.=26.504539, Alt.=102.661194m. Speed=12.420000m/h.</desc>
<speed>3.450000</speed>
</trkpt>
<trkpt lat="56.082062" lon="26.504570">
<ele>102.307678</ele>
<time>2010-08-29T13:41:27Z</time>
<desc>lat.=56.082062, lon.=26.504570, Alt.=102.307678m. Speed=12.276000m/h.</desc>
<speed>3.410000</speed>
</trkpt>
<trkpt lat="56.082035" lon="26.504593">
<ele>101.848694</ele>
<time>2010-08-29T13:41:28Z</time>
<desc>lat.=56.082035, lon.=26.504593, Alt.=101.848694m. Speed=13.680000m/h.</desc>
<speed>3.800000</speed>
</trkpt>
<trkpt lat="56.082001" lon="26.504612">
<ele>101.458069</ele>
<time>2010-08-29T13:41:29Z</time>
<desc>lat.=56.082001, lon.=26.504612, Alt.=101.458069m. Speed=14.940000m/h.</desc>
<speed>4.150000</speed>
</trkpt>
<trkpt lat="56.081966" lon="26.504627">
<ele>101.254944</ele>
<time>2010-08-29T13:41:30Z</time>
<desc>lat.=56.081966, lon.=26.504627, Alt.=101.254944m. Speed=14.724000m/h.</desc>
<speed>4.090000</speed>
</trkpt>
<trkpt lat="56.081936" lon="26.504644">
<ele>100.762756</ele>
<time>2010-08-29T13:41:31Z</time>
<desc>lat.=56.081936, lon.=26.504644, Alt.=100.762756m. Speed=15.228000m/h.</desc>
<speed>4.230000</speed>
</trkpt>
<trkpt lat="56.081898" lon="26.504667">
<ele>101.479553</ele>
<time>2010-08-29T13:41:32Z</time>
<desc>lat.=56.081898, lon.=26.504667, Alt.=101.479553m. Speed=14.652000m/h.</desc>
<speed>4.070000</speed>
</trkpt>
<trkpt lat="56.081863" lon="26.504690">
<ele>101.522522</ele>
<time>2010-08-29T13:41:33Z</time>
<desc>lat.=56.081863, lon.=26.504690, Alt.=101.522522m. Speed=14.868000m/h.</desc>
<speed>4.130000</speed>
</trkpt>
<trkpt lat="56.081829" lon="26.504723">
<ele>101.502991</ele>
<time>2010-08-29T13:41:34Z</time>
<desc>lat.=56.081829, lon.=26.504723, Alt.=101.502991m. Speed=14.004000m/h.</desc>
<speed>3.890000</speed>
</trkpt>
<trkpt lat="56.081802" lon="26.504749">
<ele>102.163147</ele>
<time>2010-08-29T13:41:35Z</time>
<desc>lat.=56.081802, lon.=26.504749, Alt.=102.163147m. Speed=12.960000m/h.</desc>
<speed>3.600000</speed>
</trkpt>
<trkpt lat="56.081772" lon="26.504776">
<ele>102.502991</ele>
<time>2010-08-29T13:41:36Z</time>
<desc>lat.=56.081772, lon.=26.504776, Alt.=102.502991m. Speed=14.652000m/h.</desc>
<speed>4.070000</speed>
</trkpt>
<trkpt lat="56.081734" lon="26.504801">
<ele>102.879944</ele>
<time>2010-08-29T13:41:37Z</time>
<desc>lat.=56.081734, lon.=26.504801, Alt.=102.879944m. Speed=14.724000m/h.</desc>
<speed>4.090000</speed>
</trkpt>
<trkpt lat="56.081699" lon="26.504820">
<ele>103.120178</ele>
<time>2010-08-29T13:41:38Z</time>
<desc>lat.=56.081699, lon.=26.504820, Alt.=103.120178m. Speed=14.580000m/h.</desc>
<speed>4.050000</speed>
</trkpt>
<trkpt lat="56.081665" lon="26.504847">
<ele>103.313538</ele>
<time>2010-08-29T13:41:39Z</time>
<desc>lat.=56.081665, lon.=26.504847, Alt.=103.313538m. Speed=14.832000m/h.</desc>
<speed>4.120000</speed>
</trkpt>
<trkpt lat="56.081623" lon="26.504871">
<ele>103.403381</ele>
<time>2010-08-29T13:41:40Z</time>
<desc>lat.=56.081623, lon.=26.504871, Alt.=103.403381m. Speed=16.200001m/h.</desc>
<speed>4.500000</speed>
</trkpt>
<trkpt lat="56.081589" lon="26.504894">
<ele>103.428772</ele>
<time>2010-08-29T13:41:41Z</time>
<desc>lat.=56.081589, lon.=26.504894, Alt.=103.428772m. Speed=15.300000m/h.</desc>
<speed>4.250000</speed>
</trkpt>
<trkpt lat="56.081551" lon="26.504915">
<ele>103.313538</ele>
<time>2010-08-29T13:41:42Z</time>
<desc>lat.=56.081551, lon.=26.504915, Alt.=103.313538m. Speed=15.264000m/h.</desc>
<speed>4.240000</speed>
</trkpt>
<trkpt lat="56.081516" lon="26.504950">
<ele>103.116272</ele>
<time>2010-08-29T13:41:43Z</time>
<desc>lat.=56.081516, lon.=26.504950, Alt.=103.116272m. Speed=15.876000m/h.</desc>
<speed>4.410000</speed>
</trkpt>
<trkpt lat="56.081482" lon="26.504984">
<ele>102.920959</ele>
<time>2010-08-29T13:41:44Z</time>
<desc>lat.=56.081482, lon.=26.504984, Alt.=102.920959m. Speed=15.588000m/h.</desc>
<speed>4.330000</speed>
</trkpt>
<trkpt lat="56.081444" lon="26.505020">
<ele>102.803772</ele>
<time>2010-08-29T13:41:45Z</time>
<desc>lat.=56.081444, lon.=26.505020, Alt.=102.803772m. Speed=16.200001m/h.</desc>
<speed>4.500000</speed>
</trkpt>
<trkpt lat="56.081409" lon="26.505051">
<ele>102.920959</ele>
<time>2010-08-29T13:41:46Z</time>
<desc>lat.=56.081409, lon.=26.505051, Alt.=102.920959m. Speed=14.904000m/h.</desc>
<speed>4.140000</speed>
</trkpt>
<trkpt lat="56.081375" lon="26.505081">
<ele>102.797913</ele>
<time>2010-08-29T13:41:47Z</time>
<desc>lat.=56.081375, lon.=26.505081, Alt.=102.797913m. Speed=16.236000m/h.</desc>
<speed>4.510000</speed>
</trkpt>
<trkpt lat="56.081333" lon="26.505112">
<ele>103.028381</ele>
<time>2010-08-29T13:41:48Z</time>
<desc>lat.=56.081333, lon.=26.505112, Alt.=103.028381m. Speed=17.316000m/h.</desc>
<speed>4.810000</speed>
</trkpt>
<trkpt lat="56.081295" lon="26.505150">
<ele>103.544006</ele>
<time>2010-08-29T13:41:49Z</time>
<desc>lat.=56.081295, lon.=26.505150, Alt.=103.544006m. Speed=17.063999m/h.</desc>
<speed>4.740000</speed>
</trkpt>
<trkpt lat="56.081253" lon="26.505184">
<ele>103.833069</ele>
<time>2010-08-29T13:41:50Z</time>
<desc>lat.=56.081253, lon.=26.505184, Alt.=103.833069m. Speed=17.568001m/h.</desc>
<speed>4.880000</speed>
</trkpt>
<trkpt lat="56.081211" lon="26.505211">
<ele>104.161194</ele>
<time>2010-08-29T13:41:51Z</time>
<desc>lat.=56.081211, lon.=26.505211, Alt.=104.161194m. Speed=16.379999m/h.</desc>
<speed>4.550000</speed>
</trkpt>
<trkpt lat="56.081177" lon="26.505239">
<ele>104.104553</ele>
<time>2010-08-29T13:41:52Z</time>
<desc>lat.=56.081177, lon.=26.505239, Alt.=104.104553m. Speed=15.336000m/h.</desc>
<speed>4.260000</speed>
</trkpt>
<trkpt lat="56.081139" lon="26.505266">
<ele>103.926819</ele>
<time>2010-08-29T13:41:53Z</time>
<desc>lat.=56.081139, lon.=26.505266, Alt.=103.926819m. Speed=14.724000m/h.</desc>
<speed>4.090000</speed>
</trkpt>
<trkpt lat="56.081104" lon="26.505295">
<ele>103.883850</ele>
<time>2010-08-29T13:41:54Z</time>
<desc>lat.=56.081104, lon.=26.505295, Alt.=103.883850m. Speed=14.580000m/h.</desc>
<speed>4.050000</speed>
</trkpt>
<trkpt lat="56.081062" lon="26.505327">
<ele>104.180725</ele>
<time>2010-08-29T13:41:55Z</time>
<desc>lat.=56.081062, lon.=26.505327, Alt.=104.180725m. Speed=15.372000m/h.</desc>
<speed>4.270000</speed>
</trkpt>
<trkpt lat="56.081028" lon="26.505350">
<ele>104.055725</ele>
<time>2010-08-29T13:41:56Z</time>
<desc>lat.=56.081028, lon.=26.505350, Alt.=104.055725m. Speed=14.940000m/h.</desc>
<speed>4.150000</speed>
</trkpt>
<trkpt lat="56.080994" lon="26.505375">
<ele>104.098694</ele>
<time>2010-08-29T13:41:57Z</time>
<desc>lat.=56.080994, lon.=26.505375, Alt.=104.098694m. Speed=15.120000m/h.</desc>
<speed>4.200000</speed>
</trkpt>
<trkpt lat="56.080959" lon="26.505402">
<ele>104.733459</ele>
<time>2010-08-29T13:41:58Z</time>
<desc>lat.=56.080959, lon.=26.505402, Alt.=104.733459m. Speed=15.408000m/h.</desc>
<speed>4.280000</speed>
</trkpt>
<trkpt lat="56.080925" lon="26.505428">
<ele>104.696350</ele>
<time>2010-08-29T13:41:59Z</time>
<desc>lat.=56.080925, lon.=26.505428, Alt.=104.696350m. Speed=15.444000m/h.</desc>
<speed>4.290000</speed>
</trkpt>
<trkpt lat="56.080894" lon="26.505465">
<ele>104.885803</ele>
<time>2010-08-29T13:42:00Z</time>
<desc>lat.=56.080894, lon.=26.505465, Alt.=104.885803m. Speed=15.480000m/h.</desc>
<speed>4.300000</speed>
</trkpt>
<trkpt lat="56.080860" lon="26.505491">
<ele>105.288147</ele>
<time>2010-08-29T13:42:01Z</time>
<desc>lat.=56.080860, lon.=26.505491, Alt.=105.288147m. Speed=16.128000m/h.</desc>
<speed>4.480000</speed>
</trkpt>
<trkpt lat="56.080826" lon="26.505516">
<ele>105.471741</ele>
<time>2010-08-29T13:42:02Z</time>
<desc>lat.=56.080826, lon.=26.505516, Alt.=105.471741m. Speed=16.164000m/h.</desc>
<speed>4.490000</speed>
</trkpt>
<trkpt lat="56.080791" lon="26.505545">
<ele>105.934631</ele>
<time>2010-08-29T13:42:03Z</time>
<desc>lat.=56.080791, lon.=26.505545, Alt.=105.934631m. Speed=16.200001m/h.</desc>
<speed>4.500000</speed>
</trkpt>
<trkpt lat="56.080753" lon="26.505573">
<ele>105.622131</ele>
<time>2010-08-29T13:42:04Z</time>
<desc>lat.=56.080753, lon.=26.505573, Alt.=105.622131m. Speed=16.271999m/h.</desc>
<speed>4.520000</speed>
</trkpt>
<trkpt lat="56.080719" lon="26.505600">
<ele>105.465881</ele>
<time>2010-08-29T13:42:05Z</time>
<desc>lat.=56.080719, lon.=26.505600, Alt.=105.465881m. Speed=15.048000m/h.</desc>
<speed>4.180000</speed>
</trkpt>
<trkpt lat="56.080685" lon="26.505615">
<ele>105.022522</ele>
<time>2010-08-29T13:42:06Z</time>
<desc>lat.=56.080685, lon.=26.505615, Alt.=105.022522m. Speed=14.904000m/h.</desc>
<speed>4.140000</speed>
</trkpt>
<trkpt lat="56.080650" lon="26.505640">
<ele>105.891663</ele>
<time>2010-08-29T13:42:07Z</time>
<desc>lat.=56.080650, lon.=26.505640, Alt.=105.891663m. Speed=14.760000m/h.</desc>
<speed>4.100000</speed>
</trkpt>
<trkpt lat="56.080616" lon="26.505674">
<ele>106.512756</ele>
<time>2010-08-29T13:42:08Z</time>
<desc>lat.=56.080616, lon.=26.505674, Alt.=106.512756m. Speed=15.912000m/h.</desc>
<speed>4.420000</speed>
</trkpt>
<trkpt lat="56.080578" lon="26.505705">
<ele>106.887756</ele>
<time>2010-08-29T13:42:09Z</time>
<desc>lat.=56.080578, lon.=26.505705, Alt.=106.887756m. Speed=16.704000m/h.</desc>
<speed>4.640000</speed>
</trkpt>
<trkpt lat="56.080540" lon="26.505739">
<ele>107.251038</ele>
<time>2010-08-29T13:42:10Z</time>
<desc>lat.=56.080540, lon.=26.505739, Alt.=107.251038m. Speed=16.992001m/h.</desc>
<speed>4.720000</speed>
</trkpt>
<trkpt lat="56.080505" lon="26.505774">
<ele>106.823303</ele>
<time>2010-08-29T13:42:11Z</time>
<desc>lat.=56.080505, lon.=26.505774, Alt.=106.823303m. Speed=17.100000m/h.</desc>
<speed>4.750000</speed>
</trkpt>
<trkpt lat="56.080463" lon="26.505804">
<ele>106.491272</ele>
<time>2010-08-29T13:42:12Z</time>
<desc>lat.=56.080463, lon.=26.505804, Alt.=106.491272m. Speed=17.856001m/h.</desc>
<speed>4.960000</speed>
</trkpt>
<trkpt lat="56.080421" lon="26.505833">
<ele>106.704163</ele>
<time>2010-08-29T13:42:13Z</time>
<desc>lat.=56.080421, lon.=26.505833, Alt.=106.704163m. Speed=17.820000m/h.</desc>
<speed>4.950000</speed>
</trkpt>
<trkpt lat="56.080379" lon="26.505863">
<ele>106.876038</ele>
<time>2010-08-29T13:42:14Z</time>
<desc>lat.=56.080379, lon.=26.505863, Alt.=106.876038m. Speed=17.927999m/h.</desc>
<speed>4.980000</speed>
</trkpt>
<trkpt lat="56.080338" lon="26.505890">
<ele>106.954163</ele>
<time>2010-08-29T13:42:15Z</time>
<desc>lat.=56.080338, lon.=26.505890, Alt.=106.954163m. Speed=15.804000m/h.</desc>
<speed>4.390000</speed>
</trkpt>
<trkpt lat="56.080299" lon="26.505922">
<ele>106.741272</ele>
<time>2010-08-29T13:42:16Z</time>
<desc>lat.=56.080299, lon.=26.505922, Alt.=106.741272m. Speed=16.704000m/h.</desc>
<speed>4.640000</speed>
</trkpt>
<trkpt lat="56.080257" lon="26.505945">
<ele>106.147522</ele>
<time>2010-08-29T13:42:17Z</time>
<desc>lat.=56.080257, lon.=26.505945, Alt.=106.147522m. Speed=17.063999m/h.</desc>
<speed>4.740000</speed>
</trkpt>
<trkpt lat="56.080219" lon="26.505974">
<ele>105.694397</ele>
<time>2010-08-29T13:42:18Z</time>
<desc>lat.=56.080219, lon.=26.505974, Alt.=105.694397m. Speed=17.676001m/h.</desc>
<speed>4.910000</speed>
</trkpt>
<trkpt lat="56.080181" lon="26.506012">
<ele>106.057678</ele>
<time>2010-08-29T13:42:19Z</time>
<desc>lat.=56.080181, lon.=26.506012, Alt.=106.057678m. Speed=17.892000m/h.</desc>
<speed>4.970000</speed>
</trkpt>
<trkpt lat="56.080139" lon="26.506044">
<ele>106.141663</ele>
<time>2010-08-29T13:42:20Z</time>
<desc>lat.=56.080139, lon.=26.506044, Alt.=106.141663m. Speed=17.964001m/h.</desc>
<speed>4.990000</speed>
</trkpt>
<trkpt lat="56.080101" lon="26.506079">
<ele>106.159241</ele>
<time>2010-08-29T13:42:21Z</time>
<desc>lat.=56.080101, lon.=26.506079, Alt.=106.159241m. Speed=16.812000m/h.</desc>
<speed>4.670000</speed>
</trkpt>
<trkpt lat="56.080059" lon="26.506109">
<ele>106.499084</ele>
<time>2010-08-29T13:42:22Z</time>
<desc>lat.=56.080059, lon.=26.506109, Alt.=106.499084m. Speed=16.884001m/h.</desc>
<speed>4.690000</speed>
</trkpt>
<trkpt lat="56.080017" lon="26.506140">
<ele>106.524475</ele>
<time>2010-08-29T13:42:23Z</time>
<desc>lat.=56.080017, lon.=26.506140, Alt.=106.524475m. Speed=18.396000m/h.</desc>
<speed>5.110000</speed>
</trkpt>
<trkpt lat="56.079979" lon="26.506166">
<ele>106.862366</ele>
<time>2010-08-29T13:42:24Z</time>
<desc>lat.=56.079979, lon.=26.506166, Alt.=106.862366m. Speed=15.804000m/h.</desc>
<speed>4.390000</speed>
</trkpt>
<trkpt lat="56.079945" lon="26.506193">
<ele>107.059631</ele>
<time>2010-08-29T13:42:25Z</time>
<desc>lat.=56.079945, lon.=26.506193, Alt.=107.059631m. Speed=16.955999m/h.</desc>
<speed>4.710000</speed>
</trkpt>
<trkpt lat="56.079910" lon="26.506222">
<ele>107.290100</ele>
<time>2010-08-29T13:42:26Z</time>
<desc>lat.=56.079910, lon.=26.506222, Alt.=107.290100m. Speed=14.472000m/h.</desc>
<speed>4.020000</speed>
</trkpt>
<trkpt lat="56.079876" lon="26.506252">
<ele>107.356506</ele>
<time>2010-08-29T13:42:27Z</time>
<desc>lat.=56.079876, lon.=26.506252, Alt.=107.356506m. Speed=15.120000m/h.</desc>
<speed>4.200000</speed>
</trkpt>
<trkpt lat="56.079838" lon="26.506273">
<ele>106.754944</ele>
<time>2010-08-29T13:42:28Z</time>
<desc>lat.=56.079838, lon.=26.506273, Alt.=106.754944m. Speed=16.200001m/h.</desc>
<speed>4.500000</speed>
</trkpt>
<trkpt lat="56.079803" lon="26.506302">
<ele>106.594788</ele>
<time>2010-08-29T13:42:29Z</time>
<desc>lat.=56.079803, lon.=26.506302, Alt.=106.594788m. Speed=15.696000m/h.</desc>
<speed>4.360000</speed>
</trkpt>
<trkpt lat="56.079769" lon="26.506346">
<ele>107.608459</ele>
<time>2010-08-29T13:42:30Z</time>
<desc>lat.=56.079769, lon.=26.506346, Alt.=107.608459m. Speed=14.688000m/h.</desc>
<speed>4.080000</speed>
</trkpt>
<trkpt lat="56.079731" lon="26.506372">
<ele>106.901428</ele>
<time>2010-08-29T13:42:31Z</time>
<desc>lat.=56.079731, lon.=26.506372, Alt.=106.901428m. Speed=15.444000m/h.</desc>
<speed>4.290000</speed>
</trkpt>
<trkpt lat="56.079697" lon="26.506399">
<ele>107.002991</ele>
<time>2010-08-29T13:42:32Z</time>
<desc>lat.=56.079697, lon.=26.506399, Alt.=107.002991m. Speed=15.336000m/h.</desc>
<speed>4.260000</speed>
</trkpt>
<trkpt lat="56.079662" lon="26.506424">
<ele>106.758850</ele>
<time>2010-08-29T13:42:33Z</time>
<desc>lat.=56.079662, lon.=26.506424, Alt.=106.758850m. Speed=16.056000m/h.</desc>
<speed>4.460000</speed>
</trkpt>
<trkpt lat="56.079624" lon="26.506453">
<ele>106.368225</ele>
<time>2010-08-29T13:42:34Z</time>
<desc>lat.=56.079624, lon.=26.506453, Alt.=106.368225m. Speed=16.308001m/h.</desc>
<speed>4.530000</speed>
</trkpt>
<trkpt lat="56.079582" lon="26.506479">
<ele>106.147522</ele>
<time>2010-08-29T13:42:35Z</time>
<desc>lat.=56.079582, lon.=26.506479, Alt.=106.147522m. Speed=16.128000m/h.</desc>
<speed>4.480000</speed>
</trkpt>
<trkpt lat="56.079552" lon="26.506504">
<ele>105.172913</ele>
<time>2010-08-29T13:42:36Z</time>
<desc>lat.=56.079552, lon.=26.506504, Alt.=105.172913m. Speed=14.292000m/h.</desc>
<speed>3.970000</speed>
</trkpt>
<trkpt lat="56.079521" lon="26.506535">
<ele>105.376038</ele>
<time>2010-08-29T13:42:37Z</time>
<desc>lat.=56.079521, lon.=26.506535, Alt.=105.376038m. Speed=15.768000m/h.</desc>
<speed>4.380000</speed>
</trkpt>
<trkpt lat="56.079487" lon="26.506565">
<ele>105.833069</ele>
<time>2010-08-29T13:42:38Z</time>
<desc>lat.=56.079487, lon.=26.506565, Alt.=105.833069m. Speed=16.271999m/h.</desc>
<speed>4.520000</speed>
</trkpt>
<trkpt lat="56.079449" lon="26.506599">
<ele>105.547913</ele>
<time>2010-08-29T13:42:39Z</time>
<desc>lat.=56.079449, lon.=26.506599, Alt.=105.547913m. Speed=15.876000m/h.</desc>
<speed>4.410000</speed>
</trkpt>
<trkpt lat="56.079407" lon="26.506622">
<ele>104.583069</ele>
<time>2010-08-29T13:42:40Z</time>
<desc>lat.=56.079407, lon.=26.506622, Alt.=104.583069m. Speed=15.696000m/h.</desc>
<speed>4.360000</speed>
</trkpt>
<trkpt lat="56.079365" lon="26.506649">
<ele>103.756897</ele>
<time>2010-08-29T13:42:41Z</time>
<desc>lat.=56.079365, lon.=26.506649, Alt.=103.756897m. Speed=16.596001m/h.</desc>
<speed>4.610000</speed>
</trkpt>
<trkpt lat="56.079323" lon="26.506676">
<ele>103.940491</ele>
<time>2010-08-29T13:42:42Z</time>
<desc>lat.=56.079323, lon.=26.506676, Alt.=103.940491m. Speed=16.091999m/h.</desc>
<speed>4.470000</speed>
</trkpt>
<trkpt lat="56.079285" lon="26.506716">
<ele>104.124084</ele>
<time>2010-08-29T13:42:43Z</time>
<desc>lat.=56.079285, lon.=26.506716, Alt.=104.124084m. Speed=16.632000m/h.</desc>
<speed>4.620000</speed>
</trkpt>
<trkpt lat="56.079247" lon="26.506756">
<ele>104.713928</ele>
<time>2010-08-29T13:42:44Z</time>
<desc>lat.=56.079247, lon.=26.506756, Alt.=104.713928m. Speed=17.820000m/h.</desc>
<speed>4.950000</speed>
</trkpt>
<trkpt lat="56.079212" lon="26.506800">
<ele>105.922913</ele>
<time>2010-08-29T13:42:45Z</time>
<desc>lat.=56.079212, lon.=26.506800, Alt.=105.922913m. Speed=16.164000m/h.</desc>
<speed>4.490000</speed>
</trkpt>
<trkpt lat="56.079174" lon="26.506832">
<ele>106.020569</ele>
<time>2010-08-29T13:42:46Z</time>
<desc>lat.=56.079174, lon.=26.506832, Alt.=106.020569m. Speed=15.588000m/h.</desc>
<speed>4.330000</speed>
</trkpt>
<trkpt lat="56.079140" lon="26.506863">
<ele>105.522522</ele>
<time>2010-08-29T13:42:47Z</time>
<desc>lat.=56.079140, lon.=26.506863, Alt.=105.522522m. Speed=14.148000m/h.</desc>
<speed>3.930000</speed>
</trkpt>
<trkpt lat="56.079105" lon="26.506893">
<ele>105.424866</ele>
<time>2010-08-29T13:42:48Z</time>
<desc>lat.=56.079105, lon.=26.506893, Alt.=105.424866m. Speed=13.716000m/h.</desc>
<speed>3.810000</speed>
</trkpt>
<trkpt lat="56.079075" lon="26.506926">
<ele>105.524475</ele>
<time>2010-08-29T13:42:49Z</time>
<desc>lat.=56.079075, lon.=26.506926, Alt.=105.524475m. Speed=14.004000m/h.</desc>
<speed>3.890000</speed>
</trkpt>
<trkpt lat="56.079041" lon="26.506960">
<ele>105.669006</ele>
<time>2010-08-29T13:42:50Z</time>
<desc>lat.=56.079041, lon.=26.506960, Alt.=105.669006m. Speed=15.264000m/h.</desc>
<speed>4.240000</speed>
</trkpt>
<trkpt lat="56.078999" lon="26.506994">
<ele>105.934631</ele>
<time>2010-08-29T13:42:51Z</time>
<desc>lat.=56.078999, lon.=26.506994, Alt.=105.934631m. Speed=17.028000m/h.</desc>
<speed>4.730000</speed>
</trkpt>
<trkpt lat="56.078960" lon="26.507034">
<ele>106.092834</ele>
<time>2010-08-29T13:42:52Z</time>
<desc>lat.=56.078960, lon.=26.507034, Alt.=106.092834m. Speed=17.063999m/h.</desc>
<speed>4.740000</speed>
</trkpt>
<trkpt lat="56.078922" lon="26.507080">
<ele>106.553772</ele>
<time>2010-08-29T13:42:53Z</time>
<desc>lat.=56.078922, lon.=26.507080, Alt.=106.553772m. Speed=16.524000m/h.</desc>
<speed>4.590000</speed>
</trkpt>
<trkpt lat="56.078884" lon="26.507124">
<ele>106.676819</ele>
<time>2010-08-29T13:42:54Z</time>
<desc>lat.=56.078884, lon.=26.507124, Alt.=106.676819m. Speed=16.091999m/h.</desc>
<speed>4.470000</speed>
</trkpt>
<trkpt lat="56.078861" lon="26.507158">
<ele>104.795959</ele>
<time>2010-08-29T13:42:55Z</time>
<desc>lat.=56.078861, lon.=26.507158, Alt.=104.795959m. Speed=15.192000m/h.</desc>
<speed>4.220000</speed>
</trkpt>
<trkpt lat="56.078831" lon="26.507198">
<ele>104.760803</ele>
<time>2010-08-29T13:42:56Z</time>
<desc>lat.=56.078831, lon.=26.507198, Alt.=104.760803m. Speed=14.580000m/h.</desc>
<speed>4.050000</speed>
</trkpt>
<trkpt lat="56.078800" lon="26.507233">
<ele>104.782288</ele>
<time>2010-08-29T13:42:57Z</time>
<desc>lat.=56.078800, lon.=26.507233, Alt.=104.782288m. Speed=13.896000m/h.</desc>
<speed>3.860000</speed>
</trkpt>
<trkpt lat="56.078773" lon="26.507263">
<ele>104.592834</ele>
<time>2010-08-29T13:42:58Z</time>
<desc>lat.=56.078773, lon.=26.507263, Alt.=104.592834m. Speed=13.248000m/h.</desc>
<speed>3.680000</speed>
</trkpt>
<trkpt lat="56.078743" lon="26.507294">
<ele>104.483459</ele>
<time>2010-08-29T13:42:59Z</time>
<desc>lat.=56.078743, lon.=26.507294, Alt.=104.483459m. Speed=12.708000m/h.</desc>
<speed>3.530000</speed>
</trkpt>
<trkpt lat="56.078716" lon="26.507326">
<ele>104.180725</ele>
<time>2010-08-29T13:43:00Z</time>
<desc>lat.=56.078716, lon.=26.507326, Alt.=104.180725m. Speed=11.988000m/h.</desc>
<speed>3.330000</speed>
</trkpt>
<trkpt lat="56.078690" lon="26.507359">
<ele>104.098694</ele>
<time>2010-08-29T13:43:01Z</time>
<desc>lat.=56.078690, lon.=26.507359, Alt.=104.098694m. Speed=11.160000m/h.</desc>
<speed>3.100000</speed>
</trkpt>
<trkpt lat="56.078671" lon="26.507389">
<ele>104.022522</ele>
<time>2010-08-29T13:43:02Z</time>
<desc>lat.=56.078671, lon.=26.507389, Alt.=104.022522m. Speed=10.440000m/h.</desc>
<speed>2.900000</speed>
</trkpt>
<trkpt lat="56.078648" lon="26.507418">
<ele>103.960022</ele>
<time>2010-08-29T13:43:03Z</time>
<desc>lat.=56.078648, lon.=26.507418, Alt.=103.960022m. Speed=9.756000m/h.</desc>
<speed>2.710000</speed>
</trkpt>
<trkpt lat="56.078629" lon="26.507444">
<ele>103.985413</ele>
<time>2010-08-29T13:43:04Z</time>
<desc>lat.=56.078629, lon.=26.507444, Alt.=103.985413m. Speed=9.252000m/h.</desc>
<speed>2.570000</speed>
</trkpt>
<trkpt lat="56.078609" lon="26.507467">
<ele>103.917053</ele>
<time>2010-08-29T13:43:05Z</time>
<desc>lat.=56.078609, lon.=26.507467, Alt.=103.917053m. Speed=8.928000m/h.</desc>
<speed>2.480000</speed>
</trkpt>
<trkpt lat="56.078590" lon="26.507488">
<ele>103.919006</ele>
<time>2010-08-29T13:43:06Z</time>
<desc>lat.=56.078590, lon.=26.507488, Alt.=103.919006m. Speed=8.424000m/h.</desc>
<speed>2.340000</speed>
</trkpt>
<trkpt lat="56.078575" lon="26.507511">
<ele>103.862366</ele>
<time>2010-08-29T13:43:07Z</time>
<desc>lat.=56.078575, lon.=26.507511, Alt.=103.862366m. Speed=7.812000m/h.</desc>
<speed>2.170000</speed>
</trkpt>
<trkpt lat="56.078564" lon="26.507538">
<ele>104.001038</ele>
<time>2010-08-29T13:43:08Z</time>
<desc>lat.=56.078564, lon.=26.507538, Alt.=104.001038m. Speed=8.460000m/h.</desc>
<speed>2.350000</speed>
</trkpt>
<trkpt lat="56.078548" lon="26.507563">
<ele>104.092834</ele>
<time>2010-08-29T13:43:09Z</time>
<desc>lat.=56.078548, lon.=26.507563, Alt.=104.092834m. Speed=9.072000m/h.</desc>
<speed>2.520000</speed>
</trkpt>
<trkpt lat="56.078529" lon="26.507584">
<ele>104.094788</ele>
<time>2010-08-29T13:43:10Z</time>
<desc>lat.=56.078529, lon.=26.507584, Alt.=104.094788m. Speed=10.188000m/h.</desc>
<speed>2.830000</speed>
</trkpt>
<trkpt lat="56.078506" lon="26.507610">
<ele>104.247131</ele>
<time>2010-08-29T13:43:11Z</time>
<desc>lat.=56.078506, lon.=26.507610, Alt.=104.247131m. Speed=11.340000m/h.</desc>
<speed>3.150000</speed>
</trkpt>
<trkpt lat="56.078480" lon="26.507637">
<ele>104.297913</ele>
<time>2010-08-29T13:43:12Z</time>
<desc>lat.=56.078480, lon.=26.507637, Alt.=104.297913m. Speed=12.636000m/h.</desc>
<speed>3.510000</speed>
</trkpt>
<trkpt lat="56.078453" lon="26.507669">
<ele>104.403381</ele>
<time>2010-08-29T13:43:13Z</time>
<desc>lat.=56.078453, lon.=26.507669, Alt.=104.403381m. Speed=13.464000m/h.</desc>
<speed>3.740000</speed>
</trkpt>
<trkpt lat="56.078426" lon="26.507698">
<ele>104.368225</ele>
<time>2010-08-29T13:43:14Z</time>
<desc>lat.=56.078426, lon.=26.507698, Alt.=104.368225m. Speed=13.968000m/h.</desc>
<speed>3.880000</speed>
</trkpt>
<trkpt lat="56.078396" lon="26.507732">
<ele>104.389709</ele>
<time>2010-08-29T13:43:15Z</time>
<desc>lat.=56.078396, lon.=26.507732, Alt.=104.389709m. Speed=14.760000m/h.</desc>
<speed>4.100000</speed>
</trkpt>
<trkpt lat="56.078362" lon="26.507771">
<ele>104.331116</ele>
<time>2010-08-29T13:43:16Z</time>
<desc>lat.=56.078362, lon.=26.507771, Alt.=104.331116m. Speed=15.444000m/h.</desc>
<speed>4.290000</speed>
</trkpt>
<trkpt lat="56.078331" lon="26.507811">
<ele>104.309631</ele>
<time>2010-08-29T13:43:17Z</time>
<desc>lat.=56.078331, lon.=26.507811, Alt.=104.309631m. Speed=15.768000m/h.</desc>
<speed>4.380000</speed>
</trkpt>
<trkpt lat="56.078297" lon="26.507853">
<ele>104.251038</ele>
<time>2010-08-29T13:43:18Z</time>
<desc>lat.=56.078297, lon.=26.507853, Alt.=104.251038m. Speed=16.091999m/h.</desc>
<speed>4.470000</speed>
</trkpt>
<trkpt lat="56.078262" lon="26.507895">
<ele>104.329163</ele>
<time>2010-08-29T13:43:19Z</time>
<desc>lat.=56.078262, lon.=26.507895, Alt.=104.329163m. Speed=16.488001m/h.</desc>
<speed>4.580000</speed>
</trkpt>
<trkpt lat="56.078228" lon="26.507942">
<ele>104.252991</ele>
<time>2010-08-29T13:43:20Z</time>
<desc>lat.=56.078228, lon.=26.507942, Alt.=104.252991m. Speed=16.848000m/h.</desc>
<speed>4.680000</speed>
</trkpt>
<trkpt lat="56.078197" lon="26.507986">
<ele>104.204163</ele>
<time>2010-08-29T13:43:21Z</time>
<desc>lat.=56.078197, lon.=26.507986, Alt.=104.204163m. Speed=17.172001m/h.</desc>
<speed>4.770000</speed>
</trkpt>
<trkpt lat="56.078159" lon="26.508030">
<ele>104.272522</ele>
<time>2010-08-29T13:43:22Z</time>
<desc>lat.=56.078159, lon.=26.508030, Alt.=104.272522m. Speed=17.424000m/h.</desc>
<speed>4.840000</speed>
</trkpt>
<trkpt lat="56.078125" lon="26.508074">
<ele>104.280334</ele>
<time>2010-08-29T13:43:23Z</time>
<desc>lat.=56.078125, lon.=26.508074, Alt.=104.280334m. Speed=16.848000m/h.</desc>
<speed>4.680000</speed>
</trkpt>
<trkpt lat="56.078091" lon="26.508116">
<ele>104.190491</ele>
<time>2010-08-29T13:43:24Z</time>
<desc>lat.=56.078091, lon.=26.508116, Alt.=104.190491m. Speed=16.308001m/h.</desc>
<speed>4.530000</speed>
</trkpt>
<trkpt lat="56.078056" lon="26.508163">
<ele>104.278381</ele>
<time>2010-08-29T13:43:25Z</time>
<desc>lat.=56.078056, lon.=26.508163, Alt.=104.278381m. Speed=15.624000m/h.</desc>
<speed>4.340000</speed>
</trkpt>
<trkpt lat="56.078022" lon="26.508207">
<ele>104.319397</ele>
<time>2010-08-29T13:43:26Z</time>
<desc>lat.=56.078022, lon.=26.508207, Alt.=104.319397m. Speed=14.796000m/h.</desc>
<speed>4.110000</speed>
</trkpt>
<trkpt lat="56.077995" lon="26.508247">
<ele>104.420959</ele>
<time>2010-08-29T13:43:27Z</time>
<desc>lat.=56.077995, lon.=26.508247, Alt.=104.420959m. Speed=15.264000m/h.</desc>
<speed>4.240000</speed>
</trkpt>
<trkpt lat="56.077961" lon="26.508289">
<ele>104.602600</ele>
<time>2010-08-29T13:43:28Z</time>
<desc>lat.=56.077961, lon.=26.508289, Alt.=104.602600m. Speed=15.876000m/h.</desc>
<speed>4.410000</speed>
</trkpt>
<trkpt lat="56.077930" lon="26.508331">
<ele>104.823303</ele>
<time>2010-08-29T13:43:29Z</time>
<desc>lat.=56.077930, lon.=26.508331, Alt.=104.823303m. Speed=15.912000m/h.</desc>
<speed>4.420000</speed>
</trkpt>
<trkpt lat="56.077900" lon="26.508377">
<ele>105.073303</ele>
<time>2010-08-29T13:43:30Z</time>
<desc>lat.=56.077900, lon.=26.508377, Alt.=105.073303m. Speed=16.812000m/h.</desc>
<speed>4.670000</speed>
</trkpt>
<trkpt lat="56.077866" lon="26.508417">
<ele>105.331116</ele>
<time>2010-08-29T13:43:31Z</time>
<desc>lat.=56.077866, lon.=26.508417, Alt.=105.331116m. Speed=15.840000m/h.</desc>
<speed>4.400000</speed>
</trkpt>
<trkpt lat="56.077835" lon="26.508461">
<ele>105.569397</ele>
<time>2010-08-29T13:43:32Z</time>
<desc>lat.=56.077835, lon.=26.508461, Alt.=105.569397m. Speed=16.308001m/h.</desc>
<speed>4.530000</speed>
</trkpt>
<trkpt lat="56.077805" lon="26.508507">
<ele>105.917053</ele>
<time>2010-08-29T13:43:33Z</time>
<desc>lat.=56.077805, lon.=26.508507, Alt.=105.917053m. Speed=15.948000m/h.</desc>
<speed>4.430000</speed>
</trkpt>
<trkpt lat="56.077770" lon="26.508551">
<ele>106.188538</ele>
<time>2010-08-29T13:43:34Z</time>
<desc>lat.=56.077770, lon.=26.508551, Alt.=106.188538m. Speed=17.568001m/h.</desc>
<speed>4.880000</speed>
</trkpt>
<trkpt lat="56.077736" lon="26.508600">
<ele>106.362366</ele>
<time>2010-08-29T13:43:35Z</time>
<desc>lat.=56.077736, lon.=26.508600, Alt.=106.362366m. Speed=16.632000m/h.</desc>
<speed>4.620000</speed>
</trkpt>
<trkpt lat="56.077702" lon="26.508650">
<ele>106.827209</ele>
<time>2010-08-29T13:43:36Z</time>
<desc>lat.=56.077702, lon.=26.508650, Alt.=106.827209m. Speed=19.152000m/h.</desc>
<speed>5.320000</speed>
</trkpt>
<trkpt lat="56.077663" lon="26.508699">
<ele>107.180725</ele>
<time>2010-08-29T13:43:37Z</time>
<desc>lat.=56.077663, lon.=26.508699, Alt.=107.180725m. Speed=18.108000m/h.</desc>
<speed>5.030000</speed>
</trkpt>
<trkpt lat="56.077629" lon="26.508749">
<ele>107.678772</ele>
<time>2010-08-29T13:43:38Z</time>
<desc>lat.=56.077629, lon.=26.508749, Alt.=107.678772m. Speed=18.000000m/h.</desc>
<speed>5.000000</speed>
</trkpt>
<trkpt lat="56.077595" lon="26.508799">
<ele>108.317444</ele>
<time>2010-08-29T13:43:39Z</time>
<desc>lat.=56.077595, lon.=26.508799, Alt.=108.317444m. Speed=17.676001m/h.</desc>
<speed>4.910000</speed>
</trkpt>
<trkpt lat="56.077564" lon="26.508844">
<ele>108.915100</ele>
<time>2010-08-29T13:43:40Z</time>
<desc>lat.=56.077564, lon.=26.508844, Alt.=108.915100m. Speed=15.192000m/h.</desc>
<speed>4.220000</speed>
</trkpt>
<trkpt lat="56.077534" lon="26.508881">
<ele>110.534241</ele>
<time>2010-08-29T13:43:41Z</time>
<desc>lat.=56.077534, lon.=26.508881, Alt.=110.534241m. Speed=15.948000m/h.</desc>
<speed>4.430000</speed>
</trkpt>
<trkpt lat="56.077499" lon="26.508926">
<ele>110.534241</ele>
<time>2010-08-29T13:43:42Z</time>
<desc>lat.=56.077499, lon.=26.508926, Alt.=110.534241m. Speed=17.604000m/h.</desc>
<speed>4.890000</speed>
</trkpt>
<trkpt lat="56.077457" lon="26.508978">
<ele>111.059631</ele>
<time>2010-08-29T13:43:43Z</time>
<desc>lat.=56.077457, lon.=26.508978, Alt.=111.059631m. Speed=20.844000m/h.</desc>
<speed>5.790000</speed>
</trkpt>
<trkpt lat="56.077419" lon="26.509033">
<ele>111.499084</ele>
<time>2010-08-29T13:43:44Z</time>
<desc>lat.=56.077419, lon.=26.509033, Alt.=111.499084m. Speed=18.612000m/h.</desc>
<speed>5.170000</speed>
</trkpt>
<trkpt lat="56.077385" lon="26.509079">
<ele>111.909241</ele>
<time>2010-08-29T13:43:45Z</time>
<desc>lat.=56.077385, lon.=26.509079, Alt.=111.909241m. Speed=17.172001m/h.</desc>
<speed>4.770000</speed>
</trkpt>
<trkpt lat="56.077347" lon="26.509125">
<ele>111.956116</ele>
<time>2010-08-29T13:43:46Z</time>
<desc>lat.=56.077347, lon.=26.509125, Alt.=111.956116m. Speed=18.035999m/h.</desc>
<speed>5.010000</speed>
</trkpt>
<trkpt lat="56.077312" lon="26.509171">
<ele>112.637756</ele>
<time>2010-08-29T13:43:47Z</time>
<desc>lat.=56.077312, lon.=26.509171, Alt.=112.637756m. Speed=15.768000m/h.</desc>
<speed>4.380000</speed>
</trkpt>
<trkpt lat="56.077278" lon="26.509214">
<ele>113.030334</ele>
<time>2010-08-29T13:43:48Z</time>
<desc>lat.=56.077278, lon.=26.509214, Alt.=113.030334m. Speed=16.164000m/h.</desc>
<speed>4.490000</speed>
</trkpt>
<trkpt lat="56.077248" lon="26.509254">
<ele>113.506897</ele>
<time>2010-08-29T13:43:49Z</time>
<desc>lat.=56.077248, lon.=26.509254, Alt.=113.506897m. Speed=15.984000m/h.</desc>
<speed>4.440000</speed>
</trkpt>
<trkpt lat="56.077217" lon="26.509298">
<ele>114.098694</ele>
<time>2010-08-29T13:43:50Z</time>
<desc>lat.=56.077217, lon.=26.509298, Alt.=114.098694m. Speed=15.120000m/h.</desc>
<speed>4.200000</speed>
</trkpt>
<trkpt lat="56.077190" lon="26.509342">
<ele>114.749084</ele>
<time>2010-08-29T13:43:51Z</time>
<desc>lat.=56.077190, lon.=26.509342, Alt.=114.749084m. Speed=14.688000m/h.</desc>
<speed>4.080000</speed>
</trkpt>
<trkpt lat="56.077160" lon="26.509386">
<ele>115.165100</ele>
<time>2010-08-29T13:43:52Z</time>
<desc>lat.=56.077160, lon.=26.509386, Alt.=115.165100m. Speed=16.488001m/h.</desc>
<speed>4.580000</speed>
</trkpt>
<trkpt lat="56.077122" lon="26.509422">
<ele>115.198303</ele>
<time>2010-08-29T13:43:53Z</time>
<desc>lat.=56.077122, lon.=26.509422, Alt.=115.198303m. Speed=15.696000m/h.</desc>
<speed>4.360000</speed>
</trkpt>
<trkpt lat="56.077095" lon="26.509441">
<ele>115.022522</ele>
<time>2010-08-29T13:43:54Z</time>
<desc>lat.=56.077095, lon.=26.509441, Alt.=115.022522m. Speed=13.068000m/h.</desc>
<speed>3.630000</speed>
</trkpt>
<trkpt lat="56.077065" lon="26.509476">
<ele>115.551819</ele>
<time>2010-08-29T13:43:55Z</time>
<desc>lat.=56.077065, lon.=26.509476, Alt.=115.551819m. Speed=13.752000m/h.</desc>
<speed>3.820000</speed>
</trkpt>
<trkpt lat="56.077045" lon="26.509518">
<ele>116.182678</ele>
<time>2010-08-29T13:43:56Z</time>
<desc>lat.=56.077045, lon.=26.509518, Alt.=116.182678m. Speed=12.564000m/h.</desc>
<speed>3.490000</speed>
</trkpt>
<trkpt lat="56.077034" lon="26.509577">
<ele>116.616272</ele>
<time>2010-08-29T13:43:57Z</time>
<desc>lat.=56.077034, lon.=26.509577, Alt.=116.616272m. Speed=13.320000m/h.</desc>
<speed>3.700000</speed>
</trkpt>
<trkpt lat="56.077023" lon="26.509619">
<ele>116.860413</ele>
<time>2010-08-29T13:43:58Z</time>
<desc>lat.=56.077023, lon.=26.509619, Alt.=116.860413m. Speed=13.032000m/h.</desc>
<speed>3.620000</speed>
</trkpt>
<trkpt lat="56.077000" lon="26.509661">
<ele>117.360413</ele>
<time>2010-08-29T13:43:59Z</time>
<desc>lat.=56.077000, lon.=26.509661, Alt.=117.360413m. Speed=12.276000m/h.</desc>
<speed>3.410000</speed>
</trkpt>
<trkpt lat="56.076973" lon="26.509693">
<ele>117.770569</ele>
<time>2010-08-29T13:44:00Z</time>
<desc>lat.=56.076973, lon.=26.509693, Alt.=117.770569m. Speed=12.924000m/h.</desc>
<speed>3.590000</speed>
</trkpt>
<trkpt lat="56.076950" lon="26.509743">
<ele>118.276428</ele>
<time>2010-08-29T13:44:01Z</time>
<desc>lat.=56.076950, lon.=26.509743, Alt.=118.276428m. Speed=13.896000m/h.</desc>
<speed>3.860000</speed>
</trkpt>
<trkpt lat="56.076931" lon="26.509781">
<ele>118.528381</ele>
<time>2010-08-29T13:44:02Z</time>
<desc>lat.=56.076931, lon.=26.509781, Alt.=118.528381m. Speed=15.660000m/h.</desc>
<speed>4.350000</speed>
</trkpt>
<trkpt lat="56.076904" lon="26.509838">
<ele>118.883850</ele>
<time>2010-08-29T13:44:03Z</time>
<desc>lat.=56.076904, lon.=26.509838, Alt.=118.883850m. Speed=17.316000m/h.</desc>
<speed>4.810000</speed>
</trkpt>
<trkpt lat="56.076881" lon="26.509926">
<ele>118.565491</ele>
<time>2010-08-29T13:44:04Z</time>
<desc>lat.=56.076881, lon.=26.509926, Alt.=118.565491m. Speed=17.784000m/h.</desc>
<speed>4.940000</speed>
</trkpt>
<trkpt lat="56.076859" lon="26.510036">
<ele>118.063538</ele>
<time>2010-08-29T13:44:05Z</time>
<desc>lat.=56.076859, lon.=26.510036, Alt.=118.063538m. Speed=18.900000m/h.</desc>
<speed>5.250000</speed>
</trkpt>
<trkpt lat="56.076832" lon="26.510134">
<ele>117.575256</ele>
<time>2010-08-29T13:44:06Z</time>
<desc>lat.=56.076832, lon.=26.510134, Alt.=117.575256m. Speed=21.132000m/h.</desc>
<speed>5.870000</speed>
</trkpt>
<trkpt lat="56.076805" lon="26.510220">
<ele>116.924866</ele>
<time>2010-08-29T13:44:07Z</time>
<desc>lat.=56.076805, lon.=26.510220, Alt.=116.924866m. Speed=21.924000m/h.</desc>
<speed>6.090000</speed>
</trkpt>
<trkpt lat="56.076778" lon="26.510296">
<ele>116.485413</ele>
<time>2010-08-29T13:44:08Z</time>
<desc>lat.=56.076778, lon.=26.510296, Alt.=116.485413m. Speed=20.412001m/h.</desc>
<speed>5.670000</speed>
</trkpt>
<trkpt lat="56.076748" lon="26.510376">
<ele>116.684631</ele>
<time>2010-08-29T13:44:09Z</time>
<desc>lat.=56.076748, lon.=26.510376, Alt.=116.684631m. Speed=21.312000m/h.</desc>
<speed>5.920000</speed>
</trkpt>
<trkpt lat="56.076717" lon="26.510454">
<ele>116.502991</ele>
<time>2010-08-29T13:44:10Z</time>
<desc>lat.=56.076717, lon.=26.510454, Alt.=116.502991m. Speed=21.600000m/h.</desc>
<speed>6.000000</speed>
</trkpt>
<trkpt lat="56.076691" lon="26.510521">
<ele>115.725647</ele>
<time>2010-08-29T13:44:11Z</time>
<desc>lat.=56.076691, lon.=26.510521, Alt.=115.725647m. Speed=19.584000m/h.</desc>
<speed>5.440000</speed>
</trkpt>
<trkpt lat="56.076664" lon="26.510584">
<ele>114.946350</ele>
<time>2010-08-29T13:44:12Z</time>
<desc>lat.=56.076664, lon.=26.510584, Alt.=114.946350m. Speed=18.936001m/h.</desc>
<speed>5.260000</speed>
</trkpt>
<trkpt lat="56.076633" lon="26.510637">
<ele>113.950256</ele>
<time>2010-08-29T13:44:13Z</time>
<desc>lat.=56.076633, lon.=26.510637, Alt.=113.950256m. Speed=18.072001m/h.</desc>
<speed>5.020000</speed>
</trkpt>
<trkpt lat="56.076614" lon="26.510708">
<ele>113.745178</ele>
<time>2010-08-29T13:44:14Z</time>
<desc>lat.=56.076614, lon.=26.510708, Alt.=113.745178m. Speed=17.712000m/h.</desc>
<speed>4.920000</speed>
</trkpt>
<trkpt lat="56.076588" lon="26.510782">
<ele>113.233459</ele>
<time>2010-08-29T13:44:15Z</time>
<desc>lat.=56.076588, lon.=26.510782, Alt.=113.233459m. Speed=18.719999m/h.</desc>
<speed>5.200000</speed>
</trkpt>
<trkpt lat="56.076557" lon="26.510849">
<ele>112.610413</ele>
<time>2010-08-29T13:44:16Z</time>
<desc>lat.=56.076557, lon.=26.510849, Alt.=112.610413m. Speed=19.332001m/h.</desc>
<speed>5.370000</speed>
</trkpt>
<trkpt lat="56.076523" lon="26.510937">
<ele>111.833069</ele>
<time>2010-08-29T13:44:17Z</time>
<desc>lat.=56.076523, lon.=26.510937, Alt.=111.833069m. Speed=19.872000m/h.</desc>
<speed>5.520000</speed>
</trkpt>
<trkpt lat="56.076492" lon="26.511015">
<ele>111.495178</ele>
<time>2010-08-29T13:44:18Z</time>
<desc>lat.=56.076492, lon.=26.511015, Alt.=111.495178m. Speed=19.548000m/h.</desc>
<speed>5.430000</speed>
</trkpt>
<trkpt lat="56.076466" lon="26.511089">
<ele>111.075256</ele>
<time>2010-08-29T13:44:19Z</time>
<desc>lat.=56.076466, lon.=26.511089, Alt.=111.075256m. Speed=18.756001m/h.</desc>
<speed>5.210000</speed>
</trkpt>
<trkpt lat="56.076439" lon="26.511156">
<ele>110.549866</ele>
<time>2010-08-29T13:44:20Z</time>
<desc>lat.=56.076439, lon.=26.511156, Alt.=110.549866m. Speed=18.540001m/h.</desc>
<speed>5.150000</speed>
</trkpt>
<trkpt lat="56.076416" lon="26.511229">
<ele>109.897522</ele>
<time>2010-08-29T13:44:21Z</time>
<desc>lat.=56.076416, lon.=26.511229, Alt.=109.897522m. Speed=17.892000m/h.</desc>
<speed>4.970000</speed>
</trkpt>
<trkpt lat="56.076389" lon="26.511295">
<ele>109.667053</ele>
<time>2010-08-29T13:44:22Z</time>
<desc>lat.=56.076389, lon.=26.511295, Alt.=109.667053m. Speed=17.568001m/h.</desc>
<speed>4.880000</speed>
</trkpt>
<trkpt lat="56.076359" lon="26.511360">
<ele>109.114319</ele>
<time>2010-08-29T13:44:23Z</time>
<desc>lat.=56.076359, lon.=26.511360, Alt.=109.114319m. Speed=17.172001m/h.</desc>
<speed>4.770000</speed>
</trkpt>
<trkpt lat="56.076332" lon="26.511415">
<ele>108.321350</ele>
<time>2010-08-29T13:44:24Z</time>
<desc>lat.=56.076332, lon.=26.511415, Alt.=108.321350m. Speed=16.164000m/h.</desc>
<speed>4.490000</speed>
</trkpt>
<trkpt lat="56.076302" lon="26.511463">
<ele>108.374084</ele>
<time>2010-08-29T13:44:25Z</time>
<desc>lat.=56.076302, lon.=26.511463, Alt.=108.374084m. Speed=16.812000m/h.</desc>
<speed>4.670000</speed>
</trkpt>
<trkpt lat="56.076275" lon="26.511517">
<ele>108.016663</ele>
<time>2010-08-29T13:44:26Z</time>
<desc>lat.=56.076275, lon.=26.511517, Alt.=108.016663m. Speed=15.264000m/h.</desc>
<speed>4.240000</speed>
</trkpt>
<trkpt lat="56.076252" lon="26.511570">
<ele>107.434631</ele>
<time>2010-08-29T13:44:27Z</time>
<desc>lat.=56.076252, lon.=26.511570, Alt.=107.434631m. Speed=15.480000m/h.</desc>
<speed>4.300000</speed>
</trkpt>
<trkpt lat="56.076229" lon="26.511627">
<ele>106.629944</ele>
<time>2010-08-29T13:44:28Z</time>
<desc>lat.=56.076229, lon.=26.511627, Alt.=106.629944m. Speed=14.580000m/h.</desc>
<speed>4.050000</speed>
</trkpt>
<trkpt lat="56.076210" lon="26.511683">
<ele>106.274475</ele>
<time>2010-08-29T13:44:29Z</time>
<desc>lat.=56.076210, lon.=26.511683, Alt.=106.274475m. Speed=14.796000m/h.</desc>
<speed>4.110000</speed>
</trkpt>
<trkpt lat="56.076187" lon="26.511734">
<ele>105.833069</ele>
<time>2010-08-29T13:44:30Z</time>
<desc>lat.=56.076187, lon.=26.511734, Alt.=105.833069m. Speed=14.760000m/h.</desc>
<speed>4.100000</speed>
</trkpt>
<trkpt lat="56.076164" lon="26.511791">
<ele>105.454163</ele>
<time>2010-08-29T13:44:31Z</time>
<desc>lat.=56.076164, lon.=26.511791, Alt.=105.454163m. Speed=15.768000m/h.</desc>
<speed>4.380000</speed>
</trkpt>
<trkpt lat="56.076141" lon="26.511847">
<ele>105.108459</ele>
<time>2010-08-29T13:44:32Z</time>
<desc>lat.=56.076141, lon.=26.511847, Alt.=105.108459m. Speed=15.876000m/h.</desc>
<speed>4.410000</speed>
</trkpt>
<trkpt lat="56.076115" lon="26.511898">
<ele>104.770569</ele>
<time>2010-08-29T13:44:33Z</time>
<desc>lat.=56.076115, lon.=26.511898, Alt.=104.770569m. Speed=17.568001m/h.</desc>
<speed>4.880000</speed>
</trkpt>
<trkpt lat="56.076088" lon="26.511959">
<ele>104.874084</ele>
<time>2010-08-29T13:44:34Z</time>
<desc>lat.=56.076088, lon.=26.511959, Alt.=104.874084m. Speed=18.216000m/h.</desc>
<speed>5.060000</speed>
</trkpt>
<trkpt lat="56.076061" lon="26.512030">
<ele>104.928772</ele>
<time>2010-08-29T13:44:35Z</time>
<desc>lat.=56.076061, lon.=26.512030, Alt.=104.928772m. Speed=18.504000m/h.</desc>
<speed>5.140000</speed>
</trkpt>
<trkpt lat="56.076035" lon="26.512102">
<ele>105.020569</ele>
<time>2010-08-29T13:44:36Z</time>
<desc>lat.=56.076035, lon.=26.512102, Alt.=105.020569m. Speed=17.316000m/h.</desc>
<speed>4.810000</speed>
</trkpt>
<trkpt lat="56.076008" lon="26.512167">
<ele>105.083069</ele>
<time>2010-08-29T13:44:37Z</time>
<desc>lat.=56.076008, lon.=26.512167, Alt.=105.083069m. Speed=16.992001m/h.</desc>
<speed>4.720000</speed>
</trkpt>
<trkpt lat="56.075989" lon="26.512224">
<ele>105.186584</ele>
<time>2010-08-29T13:44:38Z</time>
<desc>lat.=56.075989, lon.=26.512224, Alt.=105.186584m. Speed=16.344000m/h.</desc>
<speed>4.540000</speed>
</trkpt>
<trkpt lat="56.075966" lon="26.512281">
<ele>105.356506</ele>
<time>2010-08-29T13:44:39Z</time>
<desc>lat.=56.075966, lon.=26.512281, Alt.=105.356506m. Speed=15.876000m/h.</desc>
<speed>4.410000</speed>
</trkpt>
<trkpt lat="56.075939" lon="26.512350">
<ele>105.096741</ele>
<time>2010-08-29T13:44:40Z</time>
<desc>lat.=56.075939, lon.=26.512350, Alt.=105.096741m. Speed=15.336000m/h.</desc>
<speed>4.260000</speed>
</trkpt>
<trkpt lat="56.075920" lon="26.512403">
<ele>105.602600</ele>
<time>2010-08-29T13:44:41Z</time>
<desc>lat.=56.075920, lon.=26.512403, Alt.=105.602600m. Speed=16.128000m/h.</desc>
<speed>4.480000</speed>
</trkpt>
<trkpt lat="56.075897" lon="26.512468">
<ele>104.993225</ele>
<time>2010-08-29T13:44:42Z</time>
<desc>lat.=56.075897, lon.=26.512468, Alt.=104.993225m. Speed=18.035999m/h.</desc>
<speed>5.010000</speed>
</trkpt>
<trkpt lat="56.075871" lon="26.512527">
<ele>104.811584</ele>
<time>2010-08-29T13:44:43Z</time>
<desc>lat.=56.075871, lon.=26.512527, Alt.=104.811584m. Speed=18.360001m/h.</desc>
<speed>5.100000</speed>
</trkpt>
<trkpt lat="56.075844" lon="26.512604">
<ele>104.434631</ele>
<time>2010-08-29T13:44:44Z</time>
<desc>lat.=56.075844, lon.=26.512604, Alt.=104.434631m. Speed=17.820000m/h.</desc>
<speed>4.950000</speed>
</trkpt>
<trkpt lat="56.075813" lon="26.512669">
<ele>103.708069</ele>
<time>2010-08-29T13:44:45Z</time>
<desc>lat.=56.075813, lon.=26.512669, Alt.=103.708069m. Speed=17.604000m/h.</desc>
<speed>4.890000</speed>
</trkpt>
<trkpt lat="56.075787" lon="26.512720">
<ele>103.417053</ele>
<time>2010-08-29T13:44:46Z</time>
<desc>lat.=56.075787, lon.=26.512720, Alt.=103.417053m. Speed=16.848000m/h.</desc>
<speed>4.680000</speed>
</trkpt>
<trkpt lat="56.075760" lon="26.512777">
<ele>103.112366</ele>
<time>2010-08-29T13:44:47Z</time>
<desc>lat.=56.075760, lon.=26.512777, Alt.=103.112366m. Speed=15.768000m/h.</desc>
<speed>4.380000</speed>
</trkpt>
<trkpt lat="56.075741" lon="26.512833">
<ele>102.854553</ele>
<time>2010-08-29T13:44:48Z</time>
<desc>lat.=56.075741, lon.=26.512833, Alt.=102.854553m. Speed=15.048000m/h.</desc>
<speed>4.180000</speed>
</trkpt>
<trkpt lat="56.075718" lon="26.512890">
<ele>102.809631</ele>
<time>2010-08-29T13:44:49Z</time>
<desc>lat.=56.075718, lon.=26.512890, Alt.=102.809631m. Speed=14.940000m/h.</desc>
<speed>4.150000</speed>
</trkpt>
<trkpt lat="56.075699" lon="26.512945">
<ele>102.608459</ele>
<time>2010-08-29T13:44:50Z</time>
<desc>lat.=56.075699, lon.=26.512945, Alt.=102.608459m. Speed=14.544000m/h.</desc>
<speed>4.040000</speed>
</trkpt>
<trkpt lat="56.075676" lon="26.512999">
<ele>103.893616</ele>
<time>2010-08-29T13:44:51Z</time>
<desc>lat.=56.075676, lon.=26.512999, Alt.=103.893616m. Speed=14.508000m/h.</desc>
<speed>4.030000</speed>
</trkpt>
<trkpt lat="56.075649" lon="26.513063">
<ele>104.430725</ele>
<time>2010-08-29T13:44:52Z</time>
<desc>lat.=56.075649, lon.=26.513063, Alt.=104.430725m. Speed=15.912000m/h.</desc>
<speed>4.420000</speed>
</trkpt>
<trkpt lat="56.075623" lon="26.513136">
<ele>104.526428</ele>
<time>2010-08-29T13:44:53Z</time>
<desc>lat.=56.075623, lon.=26.513136, Alt.=104.526428m. Speed=16.704000m/h.</desc>
<speed>4.640000</speed>
</trkpt>
<trkpt lat="56.075600" lon="26.513201">
<ele>104.196350</ele>
<time>2010-08-29T13:44:54Z</time>
<desc>lat.=56.075600, lon.=26.513201, Alt.=104.196350m. Speed=18.396000m/h.</desc>
<speed>5.110000</speed>
</trkpt>
<trkpt lat="56.075573" lon="26.513264">
<ele>104.049866</ele>
<time>2010-08-29T13:44:55Z</time>
<desc>lat.=56.075573, lon.=26.513264, Alt.=104.049866m. Speed=18.576000m/h.</desc>
<speed>5.160000</speed>
</trkpt>
<trkpt lat="56.075546" lon="26.513327">
<ele>103.948303</ele>
<time>2010-08-29T13:44:56Z</time>
<desc>lat.=56.075546, lon.=26.513327, Alt.=103.948303m. Speed=17.351999m/h.</desc>
<speed>4.820000</speed>
</trkpt>
<trkpt lat="56.075520" lon="26.513388">
<ele>103.354553</ele>
<time>2010-08-29T13:44:57Z</time>
<desc>lat.=56.075520, lon.=26.513388, Alt.=103.354553m. Speed=16.848000m/h.</desc>
<speed>4.680000</speed>
</trkpt>
<trkpt lat="56.075489" lon="26.513453">
<ele>102.901428</ele>
<time>2010-08-29T13:44:58Z</time>
<desc>lat.=56.075489, lon.=26.513453, Alt.=102.901428m. Speed=18.108000m/h.</desc>
<speed>5.030000</speed>
</trkpt>
<trkpt lat="56.075462" lon="26.513531">
<ele>102.756897</ele>
<time>2010-08-29T13:44:59Z</time>
<desc>lat.=56.075462, lon.=26.513531, Alt.=102.756897m. Speed=21.132000m/h.</desc>
<speed>5.870000</speed>
</trkpt>
<trkpt lat="56.075432" lon="26.513611">
<ele>102.495178</ele>
<time>2010-08-29T13:45:00Z</time>
<desc>lat.=56.075432, lon.=26.513611, Alt.=102.495178m. Speed=20.988001m/h.</desc>
<speed>5.830000</speed>
</trkpt>
<trkpt lat="56.075401" lon="26.513685">
<ele>102.284241</ele>
<time>2010-08-29T13:45:01Z</time>
<desc>lat.=56.075401, lon.=26.513685, Alt.=102.284241m. Speed=19.799999m/h.</desc>
<speed>5.500000</speed>
</trkpt>
<trkpt lat="56.075371" lon="26.513760">
<ele>102.288147</ele>
<time>2010-08-29T13:45:02Z</time>
<desc>lat.=56.075371, lon.=26.513760, Alt.=102.288147m. Speed=19.152000m/h.</desc>
<speed>5.320000</speed>
</trkpt>
<trkpt lat="56.075344" lon="26.513828">
<ele>102.040100</ele>
<time>2010-08-29T13:45:03Z</time>
<desc>lat.=56.075344, lon.=26.513828, Alt.=102.040100m. Speed=18.612000m/h.</desc>
<speed>5.170000</speed>
</trkpt>
<trkpt lat="56.075317" lon="26.513897">
<ele>101.762756</ele>
<time>2010-08-29T13:45:04Z</time>
<desc>lat.=56.075317, lon.=26.513897, Alt.=101.762756m. Speed=18.035999m/h.</desc>
<speed>5.010000</speed>
</trkpt>
<trkpt lat="56.075291" lon="26.513964">
<ele>101.366272</ele>
<time>2010-08-29T13:45:05Z</time>
<desc>lat.=56.075291, lon.=26.513964, Alt.=101.366272m. Speed=17.639999m/h.</desc>
<speed>4.900000</speed>
</trkpt>
<trkpt lat="56.075264" lon="26.514021">
<ele>101.516663</ele>
<time>2010-08-29T13:45:06Z</time>
<desc>lat.=56.075264, lon.=26.514021, Alt.=101.516663m. Speed=16.812000m/h.</desc>
<speed>4.670000</speed>
</trkpt>
<trkpt lat="56.075241" lon="26.514090">
<ele>101.571350</ele>
<time>2010-08-29T13:45:07Z</time>
<desc>lat.=56.075241, lon.=26.514090, Alt.=101.571350m. Speed=16.559999m/h.</desc>
<speed>4.600000</speed>
</trkpt>
<trkpt lat="56.075218" lon="26.514149">
<ele>101.553772</ele>
<time>2010-08-29T13:45:08Z</time>
<desc>lat.=56.075218, lon.=26.514149, Alt.=101.553772m. Speed=15.300000m/h.</desc>
<speed>4.250000</speed>
</trkpt>
<trkpt lat="56.075199" lon="26.514198">
<ele>101.672913</ele>
<time>2010-08-29T13:45:09Z</time>
<desc>lat.=56.075199, lon.=26.514198, Alt.=101.672913m. Speed=15.480000m/h.</desc>
<speed>4.300000</speed>
</trkpt>
<trkpt lat="56.075176" lon="26.514254">
<ele>101.145569</ele>
<time>2010-08-29T13:45:10Z</time>
<desc>lat.=56.075176, lon.=26.514254, Alt.=101.145569m. Speed=16.236000m/h.</desc>
<speed>4.510000</speed>
</trkpt>
<trkpt lat="56.075150" lon="26.514307">
<ele>100.872131</ele>
<time>2010-08-29T13:45:11Z</time>
<desc>lat.=56.075150, lon.=26.514307, Alt.=100.872131m. Speed=15.984000m/h.</desc>
<speed>4.440000</speed>
</trkpt>
<trkpt lat="56.075127" lon="26.514359">
<ele>100.784241</ele>
<time>2010-08-29T13:45:12Z</time>
<desc>lat.=56.075127, lon.=26.514359, Alt.=100.784241m. Speed=16.596001m/h.</desc>
<speed>4.610000</speed>
</trkpt>
<trkpt lat="56.075096" lon="26.514412">
<ele>100.294006</ele>
<time>2010-08-29T13:45:13Z</time>
<desc>lat.=56.075096, lon.=26.514412, Alt.=100.294006m. Speed=16.740000m/h.</desc>
<speed>4.650000</speed>
</trkpt>
<trkpt lat="56.075069" lon="26.514475">
<ele>100.245178</ele>
<time>2010-08-29T13:45:14Z</time>
<desc>lat.=56.075069, lon.=26.514475, Alt.=100.245178m. Speed=17.136000m/h.</desc>
<speed>4.760000</speed>
</trkpt>
<trkpt lat="56.075050" lon="26.514536">
<ele>99.922913</ele>
<time>2010-08-29T13:45:15Z</time>
<desc>lat.=56.075050, lon.=26.514536, Alt.=99.922913m. Speed=16.848000m/h.</desc>
<speed>4.680000</speed>
</trkpt>
<trkpt lat="56.075024" lon="26.514587">
<ele>100.073303</ele>
<time>2010-08-29T13:45:16Z</time>
<desc>lat.=56.075024, lon.=26.514587, Alt.=100.073303m. Speed=16.056000m/h.</desc>
<speed>4.460000</speed>
</trkpt>
<trkpt lat="56.075005" lon="26.514656">
<ele>101.372131</ele>
<time>2010-08-29T13:45:17Z</time>
<desc>lat.=56.075005, lon.=26.514656, Alt.=101.372131m. Speed=16.632000m/h.</desc>
<speed>4.620000</speed>
</trkpt>
<trkpt lat="56.074986" lon="26.514727">
<ele>102.024475</ele>
<time>2010-08-29T13:45:18Z</time>
<desc>lat.=56.074986, lon.=26.514727, Alt.=102.024475m. Speed=17.280001m/h.</desc>
<speed>4.800000</speed>
</trkpt>
<trkpt lat="56.074963" lon="26.514797">
<ele>102.752991</ele>
<time>2010-08-29T13:45:19Z</time>
<desc>lat.=56.074963, lon.=26.514797, Alt.=102.752991m. Speed=17.316000m/h.</desc>
<speed>4.810000</speed>
</trkpt>
<trkpt lat="56.074940" lon="26.514864">
<ele>102.790100</ele>
<time>2010-08-29T13:45:20Z</time>
<desc>lat.=56.074940, lon.=26.514864, Alt.=102.790100m. Speed=17.856001m/h.</desc>
<speed>4.960000</speed>
</trkpt>
<trkpt lat="56.074913" lon="26.514925">
<ele>102.766663</ele>
<time>2010-08-29T13:45:21Z</time>
<desc>lat.=56.074913, lon.=26.514925, Alt.=102.766663m. Speed=16.164000m/h.</desc>
<speed>4.490000</speed>
</trkpt>
<trkpt lat="56.074886" lon="26.514982">
<ele>102.649475</ele>
<time>2010-08-29T13:45:22Z</time>
<desc>lat.=56.074886, lon.=26.514982, Alt.=102.649475m. Speed=16.056000m/h.</desc>
<speed>4.460000</speed>
</trkpt>
<trkpt lat="56.074863" lon="26.515043">
<ele>103.215881</ele>
<time>2010-08-29T13:45:23Z</time>
<desc>lat.=56.074863, lon.=26.515043, Alt.=103.215881m. Speed=16.020000m/h.</desc>
<speed>4.450000</speed>
</trkpt>
<trkpt lat="56.074841" lon="26.515106">
<ele>103.360413</ele>
<time>2010-08-29T13:45:24Z</time>
<desc>lat.=56.074841, lon.=26.515106, Alt.=103.360413m. Speed=17.208000m/h.</desc>
<speed>4.780000</speed>
</trkpt>
<trkpt lat="56.074821" lon="26.515171">
<ele>102.965881</ele>
<time>2010-08-29T13:45:25Z</time>
<desc>lat.=56.074821, lon.=26.515171, Alt.=102.965881m. Speed=16.667999m/h.</desc>
<speed>4.630000</speed>
</trkpt>
<trkpt lat="56.074802" lon="26.515234">
<ele>103.008850</ele>
<time>2010-08-29T13:45:26Z</time>
<desc>lat.=56.074802, lon.=26.515234, Alt.=103.008850m. Speed=16.128000m/h.</desc>
<speed>4.480000</speed>
</trkpt>
<trkpt lat="56.074787" lon="26.515297">
<ele>103.026428</ele>
<time>2010-08-29T13:45:27Z</time>
<desc>lat.=56.074787, lon.=26.515297, Alt.=103.026428m. Speed=15.732000m/h.</desc>
<speed>4.370000</speed>
</trkpt>
<trkpt lat="56.074772" lon="26.515354">
<ele>103.877991</ele>
<time>2010-08-29T13:45:28Z</time>
<desc>lat.=56.074772, lon.=26.515354, Alt.=103.877991m. Speed=15.228000m/h.</desc>
<speed>4.230000</speed>
</trkpt>
<trkpt lat="56.074753" lon="26.515413">
<ele>103.928772</ele>
<time>2010-08-29T13:45:29Z</time>
<desc>lat.=56.074753, lon.=26.515413, Alt.=103.928772m. Speed=16.091999m/h.</desc>
<speed>4.470000</speed>
</trkpt>
<trkpt lat="56.074738" lon="26.515476">
<ele>103.852600</ele>
<time>2010-08-29T13:45:30Z</time>
<desc>lat.=56.074738, lon.=26.515476, Alt.=103.852600m. Speed=14.868000m/h.</desc>
<speed>4.130000</speed>
</trkpt>
<trkpt lat="56.074718" lon="26.515543">
<ele>104.473694</ele>
<time>2010-08-29T13:45:31Z</time>
<desc>lat.=56.074718, lon.=26.515543, Alt.=104.473694m. Speed=15.624000m/h.</desc>
<speed>4.340000</speed>
</trkpt>
<trkpt lat="56.074699" lon="26.515604">
<ele>104.602600</ele>
<time>2010-08-29T13:45:32Z</time>
<desc>lat.=56.074699, lon.=26.515604, Alt.=104.602600m. Speed=15.444000m/h.</desc>
<speed>4.290000</speed>
</trkpt>
<trkpt lat="56.074677" lon="26.515650">
<ele>105.038147</ele>
<time>2010-08-29T13:45:33Z</time>
<desc>lat.=56.074677, lon.=26.515650, Alt.=105.038147m. Speed=14.688000m/h.</desc>
<speed>4.080000</speed>
</trkpt>
<trkpt lat="56.074650" lon="26.515696">
<ele>105.063538</ele>
<time>2010-08-29T13:45:34Z</time>
<desc>lat.=56.074650, lon.=26.515696, Alt.=105.063538m. Speed=14.256000m/h.</desc>
<speed>3.960000</speed>
</trkpt>
<trkpt lat="56.074623" lon="26.515747">
<ele>104.405334</ele>
<time>2010-08-29T13:45:35Z</time>
<desc>lat.=56.074623, lon.=26.515747, Alt.=104.405334m. Speed=15.084000m/h.</desc>
<speed>4.190000</speed>
</trkpt>
<trkpt lat="56.074604" lon="26.515806">
<ele>104.079163</ele>
<time>2010-08-29T13:45:36Z</time>
<desc>lat.=56.074604, lon.=26.515806, Alt.=104.079163m. Speed=15.624000m/h.</desc>
<speed>4.340000</speed>
</trkpt>
<trkpt lat="56.074581" lon="26.515867">
<ele>103.182678</ele>
<time>2010-08-29T13:45:37Z</time>
<desc>lat.=56.074581, lon.=26.515867, Alt.=103.182678m. Speed=16.559999m/h.</desc>
<speed>4.600000</speed>
</trkpt>
<trkpt lat="56.074558" lon="26.515928">
<ele>102.876038</ele>
<time>2010-08-29T13:45:38Z</time>
<desc>lat.=56.074558, lon.=26.515928, Alt.=102.876038m. Speed=17.351999m/h.</desc>
<speed>4.820000</speed>
</trkpt>
<trkpt lat="56.074532" lon="26.515989">
<ele>102.840881</ele>
<time>2010-08-29T13:45:39Z</time>
<desc>lat.=56.074532, lon.=26.515989, Alt.=102.840881m. Speed=17.424000m/h.</desc>
<speed>4.840000</speed>
</trkpt>
<trkpt lat="56.074505" lon="26.516052">
<ele>102.827209</ele>
<time>2010-08-29T13:45:40Z</time>
<desc>lat.=56.074505, lon.=26.516052, Alt.=102.827209m. Speed=18.072001m/h.</desc>
<speed>5.020000</speed>
</trkpt>
<trkpt lat="56.074474" lon="26.516111">
<ele>102.383850</ele>
<time>2010-08-29T13:45:41Z</time>
<desc>lat.=56.074474, lon.=26.516111, Alt.=102.383850m. Speed=18.288000m/h.</desc>
<speed>5.080000</speed>
</trkpt>
<trkpt lat="56.074444" lon="26.516174">
<ele>102.204163</ele>
<time>2010-08-29T13:45:42Z</time>
<desc>lat.=56.074444, lon.=26.516174, Alt.=102.204163m. Speed=18.180000m/h.</desc>
<speed>5.050000</speed>
</trkpt>
<trkpt lat="56.074417" lon="26.516241">
<ele>102.071350</ele>
<time>2010-08-29T13:45:43Z</time>
<desc>lat.=56.074417, lon.=26.516241, Alt.=102.071350m. Speed=17.676001m/h.</desc>
<speed>4.910000</speed>
</trkpt>
<trkpt lat="56.074390" lon="26.516310">
<ele>102.004944</ele>
<time>2010-08-29T13:45:44Z</time>
<desc>lat.=56.074390, lon.=26.516310, Alt.=102.004944m. Speed=17.208000m/h.</desc>
<speed>4.780000</speed>
</trkpt>
<trkpt lat="56.074368" lon="26.516365">
<ele>102.210022</ele>
<time>2010-08-29T13:45:45Z</time>
<desc>lat.=56.074368, lon.=26.516365, Alt.=102.210022m. Speed=16.596001m/h.</desc>
<speed>4.610000</speed>
</trkpt>
<trkpt lat="56.074341" lon="26.516424">
<ele>101.776428</ele>
<time>2010-08-29T13:45:46Z</time>
<desc>lat.=56.074341, lon.=26.516424, Alt.=101.776428m. Speed=16.667999m/h.</desc>
<speed>4.630000</speed>
</trkpt>
<trkpt lat="56.074314" lon="26.516483">
<ele>101.569397</ele>
<time>2010-08-29T13:45:47Z</time>
<desc>lat.=56.074314, lon.=26.516483, Alt.=101.569397m. Speed=16.128000m/h.</desc>
<speed>4.480000</speed>
</trkpt>
<trkpt lat="56.074287" lon="26.516539">
<ele>101.180725</ele>
<time>2010-08-29T13:45:48Z</time>
<desc>lat.=56.074287, lon.=26.516539, Alt.=101.180725m. Speed=15.228000m/h.</desc>
<speed>4.230000</speed>
</trkpt>
<trkpt lat="56.074261" lon="26.516592">
<ele>101.022522</ele>
<time>2010-08-29T13:45:49Z</time>
<desc>lat.=56.074261, lon.=26.516592, Alt.=101.022522m. Speed=15.480000m/h.</desc>
<speed>4.300000</speed>
</trkpt>
<trkpt lat="56.074238" lon="26.516638">
<ele>101.231506</ele>
<time>2010-08-29T13:45:50Z</time>
<desc>lat.=56.074238, lon.=26.516638, Alt.=101.231506m. Speed=14.256000m/h.</desc>
<speed>3.960000</speed>
</trkpt>
<trkpt lat="56.074211" lon="26.516685">
<ele>101.118225</ele>
<time>2010-08-29T13:45:51Z</time>
<desc>lat.=56.074211, lon.=26.516685, Alt.=101.118225m. Speed=14.616000m/h.</desc>
<speed>4.060000</speed>
</trkpt>
<trkpt lat="56.074184" lon="26.516729">
<ele>100.784241</ele>
<time>2010-08-29T13:45:52Z</time>
<desc>lat.=56.074184, lon.=26.516729, Alt.=100.784241m. Speed=14.652000m/h.</desc>
<speed>4.070000</speed>
</trkpt>
<trkpt lat="56.074158" lon="26.516769">
<ele>100.663147</ele>
<time>2010-08-29T13:45:53Z</time>
<desc>lat.=56.074158, lon.=26.516769, Alt.=100.663147m. Speed=15.624000m/h.</desc>
<speed>4.340000</speed>
</trkpt>
<trkpt lat="56.074123" lon="26.516809">
<ele>100.377991</ele>
<time>2010-08-29T13:45:54Z</time>
<desc>lat.=56.074123, lon.=26.516809, Alt.=100.377991m. Speed=17.243999m/h.</desc>
<speed>4.790000</speed>
</trkpt>
<trkpt lat="56.074089" lon="26.516859">
<ele>100.657288</ele>
<time>2010-08-29T13:45:55Z</time>
<desc>lat.=56.074089, lon.=26.516859, Alt.=100.657288m. Speed=17.820000m/h.</desc>
<speed>4.950000</speed>
</trkpt>
<trkpt lat="56.074055" lon="26.516905">
<ele>100.708069</ele>
<time>2010-08-29T13:45:56Z</time>
<desc>lat.=56.074055, lon.=26.516905, Alt.=100.708069m. Speed=17.747999m/h.</desc>
<speed>4.930000</speed>
</trkpt>
<trkpt lat="56.074020" lon="26.516949">
<ele>100.678772</ele>
<time>2010-08-29T13:45:57Z</time>
<desc>lat.=56.074020, lon.=26.516949, Alt.=100.678772m. Speed=18.360001m/h.</desc>
<speed>5.100000</speed>
</trkpt>
<trkpt lat="56.073978" lon="26.516985">
<ele>100.274475</ele>
<time>2010-08-29T13:45:58Z</time>
<desc>lat.=56.073978, lon.=26.516985, Alt.=100.274475m. Speed=18.396000m/h.</desc>
<speed>5.110000</speed>
</trkpt>
<trkpt lat="56.073933" lon="26.517006">
<ele>100.098694</ele>
<time>2010-08-29T13:45:59Z</time>
<desc>lat.=56.073933, lon.=26.517006, Alt.=100.098694m. Speed=18.072001m/h.</desc>
<speed>5.020000</speed>
</trkpt>
<trkpt lat="56.073891" lon="26.517023">
<ele>99.733459</ele>
<time>2010-08-29T13:46:00Z</time>
<desc>lat.=56.073891, lon.=26.517023, Alt.=99.733459m. Speed=17.927999m/h.</desc>
<speed>4.980000</speed>
</trkpt>
<trkpt lat="56.073845" lon="26.517048">
<ele>99.405334</ele>
<time>2010-08-29T13:46:01Z</time>
<desc>lat.=56.073845, lon.=26.517048, Alt.=99.405334m. Speed=18.468000m/h.</desc>
<speed>5.130000</speed>
</trkpt>
<trkpt lat="56.073799" lon="26.517069">
<ele>99.588928</ele>
<time>2010-08-29T13:46:02Z</time>
<desc>lat.=56.073799, lon.=26.517069, Alt.=99.588928m. Speed=18.612000m/h.</desc>
<speed>5.170000</speed>
</trkpt>
<trkpt lat="56.073757" lon="26.517084">
<ele>99.848694</ele>
<time>2010-08-29T13:46:03Z</time>
<desc>lat.=56.073757, lon.=26.517084, Alt.=99.848694m. Speed=19.152000m/h.</desc>
<speed>5.320000</speed>
</trkpt>
<trkpt lat="56.073708" lon="26.517090">
<ele>99.618225</ele>
<time>2010-08-29T13:46:04Z</time>
<desc>lat.=56.073708, lon.=26.517090, Alt.=99.618225m. Speed=19.620001m/h.</desc>
<speed>5.450000</speed>
</trkpt>
<trkpt lat="56.073658" lon="26.517086">
<ele>99.241272</ele>
<time>2010-08-29T13:46:05Z</time>
<desc>lat.=56.073658, lon.=26.517086, Alt.=99.241272m. Speed=20.087999m/h.</desc>
<speed>5.580000</speed>
</trkpt>
<trkpt lat="56.073608" lon="26.517086">
<ele>99.405334</ele>
<time>2010-08-29T13:46:06Z</time>
<desc>lat.=56.073608, lon.=26.517086, Alt.=99.405334m. Speed=17.639999m/h.</desc>
<speed>4.900000</speed>
</trkpt>
<trkpt lat="56.073566" lon="26.517090">
<ele>99.438538</ele>
<time>2010-08-29T13:46:07Z</time>
<desc>lat.=56.073566, lon.=26.517090, Alt.=99.438538m. Speed=16.344000m/h.</desc>
<speed>4.540000</speed>
</trkpt>
<trkpt lat="56.073524" lon="26.517090">
<ele>99.278381</ele>
<time>2010-08-29T13:46:08Z</time>
<desc>lat.=56.073524, lon.=26.517090, Alt.=99.278381m. Speed=17.136000m/h.</desc>
<speed>4.760000</speed>
</trkpt>
<trkpt lat="56.073479" lon="26.517088">
<ele>99.169006</ele>
<time>2010-08-29T13:46:09Z</time>
<desc>lat.=56.073479, lon.=26.517088, Alt.=99.169006m. Speed=18.072001m/h.</desc>
<speed>5.020000</speed>
</trkpt>
<trkpt lat="56.073437" lon="26.517084">
<ele>98.915100</ele>
<time>2010-08-29T13:46:10Z</time>
<desc>lat.=56.073437, lon.=26.517084, Alt.=98.915100m. Speed=18.612000m/h.</desc>
<speed>5.170000</speed>
</trkpt>
<trkpt lat="56.073387" lon="26.517078">
<ele>98.237366</ele>
<time>2010-08-29T13:46:11Z</time>
<desc>lat.=56.073387, lon.=26.517078, Alt.=98.237366m. Speed=19.872000m/h.</desc>
<speed>5.520000</speed>
</trkpt>
<trkpt lat="56.073341" lon="26.517080">
<ele>98.272522</ele>
<time>2010-08-29T13:46:12Z</time>
<desc>lat.=56.073341, lon.=26.517080, Alt.=98.272522m. Speed=18.719999m/h.</desc>
<speed>5.200000</speed>
</trkpt>
<trkpt lat="56.073292" lon="26.517084">
<ele>97.774475</ele>
<time>2010-08-29T13:46:13Z</time>
<desc>lat.=56.073292, lon.=26.517084, Alt.=97.774475m. Speed=19.332001m/h.</desc>
<speed>5.370000</speed>
</trkpt>
<trkpt lat="56.073246" lon="26.517090">
<ele>97.899475</ele>
<time>2010-08-29T13:46:14Z</time>
<desc>lat.=56.073246, lon.=26.517090, Alt.=97.899475m. Speed=19.080000m/h.</desc>
<speed>5.300000</speed>
</trkpt>
<trkpt lat="56.073196" lon="26.517099">
<ele>97.864319</ele>
<time>2010-08-29T13:46:15Z</time>
<desc>lat.=56.073196, lon.=26.517099, Alt.=97.864319m. Speed=19.476000m/h.</desc>
<speed>5.410000</speed>
</trkpt>
<trkpt lat="56.073151" lon="26.517099">
<ele>98.036194</ele>
<time>2010-08-29T13:46:16Z</time>
<desc>lat.=56.073151, lon.=26.517099, Alt.=98.036194m. Speed=19.764000m/h.</desc>
<speed>5.490000</speed>
</trkpt>
<trkpt lat="56.073097" lon="26.517105">
<ele>98.399475</ele>
<time>2010-08-29T13:46:17Z</time>
<desc>lat.=56.073097, lon.=26.517105, Alt.=98.399475m. Speed=20.879999m/h.</desc>
<speed>5.800000</speed>
</trkpt>
<trkpt lat="56.073048" lon="26.517109">
<ele>98.026428</ele>
<time>2010-08-29T13:46:18Z</time>
<desc>lat.=56.073048, lon.=26.517109, Alt.=98.026428m. Speed=20.952000m/h.</desc>
<speed>5.820000</speed>
</trkpt>
<trkpt lat="56.072998" lon="26.517111">
<ele>97.899475</ele>
<time>2010-08-29T13:46:19Z</time>
<desc>lat.=56.072998, lon.=26.517111, Alt.=97.899475m. Speed=19.872000m/h.</desc>
<speed>5.520000</speed>
</trkpt>
<trkpt lat="56.072952" lon="26.517120">
<ele>98.376038</ele>
<time>2010-08-29T13:46:20Z</time>
<desc>lat.=56.072952, lon.=26.517120, Alt.=98.376038m. Speed=20.052000m/h.</desc>
<speed>5.570000</speed>
</trkpt>
<trkpt lat="56.072903" lon="26.517132">
<ele>98.346741</ele>
<time>2010-08-29T13:46:21Z</time>
<desc>lat.=56.072903, lon.=26.517132, Alt.=98.346741m. Speed=20.988001m/h.</desc>
<speed>5.830000</speed>
</trkpt>
<trkpt lat="56.072849" lon="26.517139">
<ele>98.512756</ele>
<time>2010-08-29T13:46:22Z</time>
<desc>lat.=56.072849, lon.=26.517139, Alt.=98.512756m. Speed=21.240000m/h.</desc>
<speed>5.900000</speed>
</trkpt>
<trkpt lat="56.072800" lon="26.517143">
<ele>97.993225</ele>
<time>2010-08-29T13:46:23Z</time>
<desc>lat.=56.072800, lon.=26.517143, Alt.=97.993225m. Speed=21.851999m/h.</desc>
<speed>6.070000</speed>
</trkpt>
<trkpt lat="56.072746" lon="26.517149">
<ele>98.260803</ele>
<time>2010-08-29T13:46:24Z</time>
<desc>lat.=56.072746, lon.=26.517149, Alt.=98.260803m. Speed=19.728001m/h.</desc>
<speed>5.480000</speed>
</trkpt>
<trkpt lat="56.072697" lon="26.517151">
<ele>97.969788</ele>
<time>2010-08-29T13:46:25Z</time>
<desc>lat.=56.072697, lon.=26.517151, Alt.=97.969788m. Speed=20.520000m/h.</desc>
<speed>5.700000</speed>
</trkpt>
<trkpt lat="56.072643" lon="26.517151">
<ele>98.141663</ele>
<time>2010-08-29T13:46:26Z</time>
<desc>lat.=56.072643, lon.=26.517151, Alt.=98.141663m. Speed=20.340000m/h.</desc>
<speed>5.650000</speed>
</trkpt>
<trkpt lat="56.072594" lon="26.517151">
<ele>97.919006</ele>
<time>2010-08-29T13:46:27Z</time>
<desc>lat.=56.072594, lon.=26.517151, Alt.=97.919006m. Speed=19.691999m/h.</desc>
<speed>5.470000</speed>
</trkpt>
<trkpt lat="56.072548" lon="26.517159">
<ele>97.696350</ele>
<time>2010-08-29T13:46:28Z</time>
<desc>lat.=56.072548, lon.=26.517159, Alt.=97.696350m. Speed=18.936001m/h.</desc>
<speed>5.260000</speed>
</trkpt>
<trkpt lat="56.072502" lon="26.517159">
<ele>97.114319</ele>
<time>2010-08-29T13:46:29Z</time>
<desc>lat.=56.072502, lon.=26.517159, Alt.=97.114319m. Speed=18.143999m/h.</desc>
<speed>5.040000</speed>
</trkpt>
<trkpt lat="56.072456" lon="26.517164">
<ele>96.542053</ele>
<time>2010-08-29T13:46:30Z</time>
<desc>lat.=56.072456, lon.=26.517164, Alt.=96.542053m. Speed=17.747999m/h.</desc>
<speed>4.930000</speed>
</trkpt>
<trkpt lat="56.072411" lon="26.517170">
<ele>96.385803</ele>
<time>2010-08-29T13:46:31Z</time>
<desc>lat.=56.072411, lon.=26.517170, Alt.=96.385803m. Speed=17.424000m/h.</desc>
<speed>4.840000</speed>
</trkpt>
<trkpt lat="56.072369" lon="26.517172">
<ele>96.840881</ele>
<time>2010-08-29T13:46:32Z</time>
<desc>lat.=56.072369, lon.=26.517172, Alt.=96.840881m. Speed=17.243999m/h.</desc>
<speed>4.790000</speed>
</trkpt>
<trkpt lat="56.072327" lon="26.517176">
<ele>97.065491</ele>
<time>2010-08-29T13:46:33Z</time>
<desc>lat.=56.072327, lon.=26.517176, Alt.=97.065491m. Speed=16.091999m/h.</desc>
<speed>4.470000</speed>
</trkpt>
<trkpt lat="56.072289" lon="26.517178">
<ele>97.333069</ele>
<time>2010-08-29T13:46:34Z</time>
<desc>lat.=56.072289, lon.=26.517178, Alt.=97.333069m. Speed=16.091999m/h.</desc>
<speed>4.470000</speed>
</trkpt>
<trkpt lat="56.072250" lon="26.517176">
<ele>98.116272</ele>
<time>2010-08-29T13:46:35Z</time>
<desc>lat.=56.072250, lon.=26.517176, Alt.=98.116272m. Speed=15.516000m/h.</desc>
<speed>4.310000</speed>
</trkpt>
<trkpt lat="56.072212" lon="26.517181">
<ele>98.686584</ele>
<time>2010-08-29T13:46:36Z</time>
<desc>lat.=56.072212, lon.=26.517181, Alt.=98.686584m. Speed=15.804000m/h.</desc>
<speed>4.390000</speed>
</trkpt>
<trkpt lat="56.072174" lon="26.517183">
<ele>98.850647</ele>
<time>2010-08-29T13:46:37Z</time>
<desc>lat.=56.072174, lon.=26.517183, Alt.=98.850647m. Speed=15.588000m/h.</desc>
<speed>4.330000</speed>
</trkpt>
<trkpt lat="56.072132" lon="26.517189">
<ele>98.690491</ele>
<time>2010-08-29T13:46:38Z</time>
<desc>lat.=56.072132, lon.=26.517189, Alt.=98.690491m. Speed=15.804000m/h.</desc>
<speed>4.390000</speed>
</trkpt>
<trkpt lat="56.072090" lon="26.517197">
<ele>99.032288</ele>
<time>2010-08-29T13:46:39Z</time>
<desc>lat.=56.072090, lon.=26.517197, Alt.=99.032288m. Speed=18.035999m/h.</desc>
<speed>5.010000</speed>
</trkpt>
<trkpt lat="56.072048" lon="26.517197">
<ele>98.739319</ele>
<time>2010-08-29T13:46:40Z</time>
<desc>lat.=56.072048, lon.=26.517197, Alt.=98.739319m. Speed=17.604000m/h.</desc>
<speed>4.890000</speed>
</trkpt>
<trkpt lat="56.072002" lon="26.517202">
<ele>98.920959</ele>
<time>2010-08-29T13:46:41Z</time>
<desc>lat.=56.072002, lon.=26.517202, Alt.=98.920959m. Speed=18.252001m/h.</desc>
<speed>5.070000</speed>
</trkpt>
<trkpt lat="56.071953" lon="26.517210">
<ele>99.327209</ele>
<time>2010-08-29T13:46:42Z</time>
<desc>lat.=56.071953, lon.=26.517210, Alt.=99.327209m. Speed=18.000000m/h.</desc>
<speed>5.000000</speed>
</trkpt>
<trkpt lat="56.071907" lon="26.517220">
<ele>98.903381</ele>
<time>2010-08-29T13:46:43Z</time>
<desc>lat.=56.071907, lon.=26.517220, Alt.=98.903381m. Speed=18.035999m/h.</desc>
<speed>5.010000</speed>
</trkpt>
<trkpt lat="56.071861" lon="26.517227">
<ele>98.645569</ele>
<time>2010-08-29T13:46:44Z</time>
<desc>lat.=56.071861, lon.=26.517227, Alt.=98.645569m. Speed=18.504000m/h.</desc>
<speed>5.140000</speed>
</trkpt>
<trkpt lat="56.071819" lon="26.517239">
<ele>98.813538</ele>
<time>2010-08-29T13:46:45Z</time>
<desc>lat.=56.071819, lon.=26.517239, Alt.=98.813538m. Speed=18.612000m/h.</desc>
<speed>5.170000</speed>
</trkpt>
<trkpt lat="56.071774" lon="26.517246">
<ele>99.545959</ele>
<time>2010-08-29T13:46:46Z</time>
<desc>lat.=56.071774, lon.=26.517246, Alt.=99.545959m. Speed=18.972000m/h.</desc>
<speed>5.270000</speed>
</trkpt>
<trkpt lat="56.071728" lon="26.517250">
<ele>99.407288</ele>
<time>2010-08-29T13:46:47Z</time>
<desc>lat.=56.071728, lon.=26.517250, Alt.=99.407288m. Speed=18.684000m/h.</desc>
<speed>5.190000</speed>
</trkpt>
<trkpt lat="56.071678" lon="26.517256">
<ele>99.069397</ele>
<time>2010-08-29T13:46:48Z</time>
<desc>lat.=56.071678, lon.=26.517256, Alt.=99.069397m. Speed=18.792000m/h.</desc>
<speed>5.220000</speed>
</trkpt>
<trkpt lat="56.071632" lon="26.517267">
<ele>98.836975</ele>
<time>2010-08-29T13:46:49Z</time>
<desc>lat.=56.071632, lon.=26.517267, Alt.=98.836975m. Speed=19.044001m/h.</desc>
<speed>5.290000</speed>
</trkpt>
<trkpt lat="56.071583" lon="26.517281">
<ele>98.856506</ele>
<time>2010-08-29T13:46:50Z</time>
<desc>lat.=56.071583, lon.=26.517281, Alt.=98.856506m. Speed=19.872000m/h.</desc>
<speed>5.520000</speed>
</trkpt>
<trkpt lat="56.071533" lon="26.517288">
<ele>98.272522</ele>
<time>2010-08-29T13:46:51Z</time>
<desc>lat.=56.071533, lon.=26.517288, Alt.=98.272522m. Speed=19.044001m/h.</desc>
<speed>5.290000</speed>
</trkpt>
<trkpt lat="56.071491" lon="26.517302">
<ele>97.840881</ele>
<time>2010-08-29T13:46:52Z</time>
<desc>lat.=56.071491, lon.=26.517302, Alt.=97.840881m. Speed=18.143999m/h.</desc>
<speed>5.040000</speed>
</trkpt>
<trkpt lat="56.071445" lon="26.517317">
<ele>97.708069</ele>
<time>2010-08-29T13:46:53Z</time>
<desc>lat.=56.071445, lon.=26.517317, Alt.=97.708069m. Speed=16.884001m/h.</desc>
<speed>4.690000</speed>
</trkpt>
<trkpt lat="56.071404" lon="26.517334">
<ele>97.682678</ele>
<time>2010-08-29T13:46:54Z</time>
<desc>lat.=56.071404, lon.=26.517334, Alt.=97.682678m. Speed=15.660000m/h.</desc>
<speed>4.350000</speed>
</trkpt>
<trkpt lat="56.071373" lon="26.517353">
<ele>97.594788</ele>
<time>2010-08-29T13:46:55Z</time>
<desc>lat.=56.071373, lon.=26.517353, Alt.=97.594788m. Speed=13.608000m/h.</desc>
<speed>3.780000</speed>
</trkpt>
<trkpt lat="56.071339" lon="26.517374">
<ele>97.288147</ele>
<time>2010-08-29T13:46:56Z</time>
<desc>lat.=56.071339, lon.=26.517374, Alt.=97.288147m. Speed=15.156000m/h.</desc>
<speed>4.210000</speed>
</trkpt>
<trkpt lat="56.071301" lon="26.517393">
<ele>97.002991</ele>
<time>2010-08-29T13:46:57Z</time>
<desc>lat.=56.071301, lon.=26.517393, Alt.=97.002991m. Speed=15.084000m/h.</desc>
<speed>4.190000</speed>
</trkpt>
<trkpt lat="56.071262" lon="26.517429">
<ele>96.930725</ele>
<time>2010-08-29T13:46:58Z</time>
<desc>lat.=56.071262, lon.=26.517429, Alt.=96.930725m. Speed=17.856001m/h.</desc>
<speed>4.960000</speed>
</trkpt>
<trkpt lat="56.071224" lon="26.517454">
<ele>96.960022</ele>
<time>2010-08-29T13:46:59Z</time>
<desc>lat.=56.071224, lon.=26.517454, Alt.=96.960022m. Speed=17.243999m/h.</desc>
<speed>4.790000</speed>
</trkpt>
<trkpt lat="56.071182" lon="26.517475">
<ele>96.559631</ele>
<time>2010-08-29T13:47:00Z</time>
<desc>lat.=56.071182, lon.=26.517475, Alt.=96.559631m. Speed=17.639999m/h.</desc>
<speed>4.900000</speed>
</trkpt>
<trkpt lat="56.071140" lon="26.517498">
<ele>96.260803</ele>
<time>2010-08-29T13:47:01Z</time>
<desc>lat.=56.071140, lon.=26.517498, Alt.=96.260803m. Speed=17.532000m/h.</desc>
<speed>4.870000</speed>
</trkpt>
<trkpt lat="56.071102" lon="26.517521">
<ele>96.321350</ele>
<time>2010-08-29T13:47:02Z</time>
<desc>lat.=56.071102, lon.=26.517521, Alt.=96.321350m. Speed=17.820000m/h.</desc>
<speed>4.950000</speed>
</trkpt>
<trkpt lat="56.071056" lon="26.517542">
<ele>96.151428</ele>
<time>2010-08-29T13:47:03Z</time>
<desc>lat.=56.071056, lon.=26.517542, Alt.=96.151428m. Speed=18.468000m/h.</desc>
<speed>5.130000</speed>
</trkpt>
<trkpt lat="56.071011" lon="26.517565">
<ele>95.776428</ele>
<time>2010-08-29T13:47:04Z</time>
<desc>lat.=56.071011, lon.=26.517565, Alt.=95.776428m. Speed=19.296000m/h.</desc>
<speed>5.360000</speed>
</trkpt>
<trkpt lat="56.070961" lon="26.517586">
<ele>95.688538</ele>
<time>2010-08-29T13:47:05Z</time>
<desc>lat.=56.070961, lon.=26.517586, Alt.=95.688538m. Speed=19.440001m/h.</desc>
<speed>5.400000</speed>
</trkpt>
<trkpt lat="56.070915" lon="26.517614">
<ele>95.989319</ele>
<time>2010-08-29T13:47:06Z</time>
<desc>lat.=56.070915, lon.=26.517614, Alt.=95.989319m. Speed=20.195999m/h.</desc>
<speed>5.610000</speed>
</trkpt>
<trkpt lat="56.070866" lon="26.517639">
<ele>95.485413</ele>
<time>2010-08-29T13:47:07Z</time>
<desc>lat.=56.070866, lon.=26.517639, Alt.=95.485413m. Speed=19.728001m/h.</desc>
<speed>5.480000</speed>
</trkpt>
<trkpt lat="56.070824" lon="26.517672">
<ele>94.870178</ele>
<time>2010-08-29T13:47:08Z</time>
<desc>lat.=56.070824, lon.=26.517672, Alt.=94.870178m. Speed=18.972000m/h.</desc>
<speed>5.270000</speed>
</trkpt>
<trkpt lat="56.070782" lon="26.517710">
<ele>94.723694</ele>
<time>2010-08-29T13:47:09Z</time>
<desc>lat.=56.070782, lon.=26.517710, Alt.=94.723694m. Speed=20.916000m/h.</desc>
<speed>5.810000</speed>
</trkpt>
<trkpt lat="56.070728" lon="26.517746">
<ele>95.577209</ele>
<time>2010-08-29T13:47:10Z</time>
<desc>lat.=56.070728, lon.=26.517746, Alt.=95.577209m. Speed=22.716000m/h.</desc>
<speed>6.310000</speed>
</trkpt>
<trkpt lat="56.070679" lon="26.517790">
<ele>95.708069</ele>
<time>2010-08-29T13:47:11Z</time>
<desc>lat.=56.070679, lon.=26.517790, Alt.=95.708069m. Speed=20.375999m/h.</desc>
<speed>5.660000</speed>
</trkpt>
<trkpt lat="56.070633" lon="26.517824">
<ele>96.317444</ele>
<time>2010-08-29T13:47:12Z</time>
<desc>lat.=56.070633, lon.=26.517824, Alt.=96.317444m. Speed=20.087999m/h.</desc>
<speed>5.580000</speed>
</trkpt>
<trkpt lat="56.070583" lon="26.517855">
<ele>97.420959</ele>
<time>2010-08-29T13:47:13Z</time>
<desc>lat.=56.070583, lon.=26.517855, Alt.=97.420959m. Speed=19.476000m/h.</desc>
<speed>5.410000</speed>
</trkpt>
<trkpt lat="56.070538" lon="26.517878">
<ele>98.372131</ele>
<time>2010-08-29T13:47:14Z</time>
<desc>lat.=56.070538, lon.=26.517878, Alt.=98.372131m. Speed=18.108000m/h.</desc>
<speed>5.030000</speed>
</trkpt>
<trkpt lat="56.070496" lon="26.517899">
<ele>99.456116</ele>
<time>2010-08-29T13:47:15Z</time>
<desc>lat.=56.070496, lon.=26.517899, Alt.=99.456116m. Speed=16.632000m/h.</desc>
<speed>4.620000</speed>
</trkpt>
<trkpt lat="56.070454" lon="26.517920">
<ele>99.424866</ele>
<time>2010-08-29T13:47:16Z</time>
<desc>lat.=56.070454, lon.=26.517920, Alt.=99.424866m. Speed=16.848000m/h.</desc>
<speed>4.680000</speed>
</trkpt>
<trkpt lat="56.070412" lon="26.517941">
<ele>99.512756</ele>
<time>2010-08-29T13:47:17Z</time>
<desc>lat.=56.070412, lon.=26.517941, Alt.=99.512756m. Speed=16.308001m/h.</desc>
<speed>4.530000</speed>
</trkpt>
<trkpt lat="56.070374" lon="26.517963">
<ele>99.809631</ele>
<time>2010-08-29T13:47:18Z</time>
<desc>lat.=56.070374, lon.=26.517963, Alt.=99.809631m. Speed=15.804000m/h.</desc>
<speed>4.390000</speed>
</trkpt>
<trkpt lat="56.070335" lon="26.517984">
<ele>99.778381</ele>
<time>2010-08-29T13:47:19Z</time>
<desc>lat.=56.070335, lon.=26.517984, Alt.=99.778381m. Speed=14.868000m/h.</desc>
<speed>4.130000</speed>
</trkpt>
<trkpt lat="56.070301" lon="26.518005">
<ele>98.788147</ele>
<time>2010-08-29T13:47:20Z</time>
<desc>lat.=56.070301, lon.=26.518005, Alt.=98.788147m. Speed=13.464000m/h.</desc>
<speed>3.740000</speed>
</trkpt>
<trkpt lat="56.070271" lon="26.518034">
<ele>98.256897</ele>
<time>2010-08-29T13:47:21Z</time>
<desc>lat.=56.070271, lon.=26.518034, Alt.=98.256897m. Speed=13.392000m/h.</desc>
<speed>3.720000</speed>
</trkpt>
<trkpt lat="56.070240" lon="26.518063">
<ele>98.526428</ele>
<time>2010-08-29T13:47:22Z</time>
<desc>lat.=56.070240, lon.=26.518063, Alt.=98.526428m. Speed=12.276000m/h.</desc>
<speed>3.410000</speed>
</trkpt>
<trkpt lat="56.070213" lon="26.518087">
<ele>98.483459</ele>
<time>2010-08-29T13:47:23Z</time>
<desc>lat.=56.070213, lon.=26.518087, Alt.=98.483459m. Speed=11.412000m/h.</desc>
<speed>3.170000</speed>
</trkpt>
<trkpt lat="56.070190" lon="26.518110">
<ele>98.362366</ele>
<time>2010-08-29T13:47:24Z</time>
<desc>lat.=56.070190, lon.=26.518110, Alt.=98.362366m. Speed=10.404000m/h.</desc>
<speed>2.890000</speed>
</trkpt>
<trkpt lat="56.070168" lon="26.518129">
<ele>98.387756</ele>
<time>2010-08-29T13:47:25Z</time>
<desc>lat.=56.070168, lon.=26.518129, Alt.=98.387756m. Speed=9.360000m/h.</desc>
<speed>2.600000</speed>
</trkpt>
<trkpt lat="56.070145" lon="26.518141">
<ele>98.360413</ele>
<time>2010-08-29T13:47:26Z</time>
<desc>lat.=56.070145, lon.=26.518141, Alt.=98.360413m. Speed=7.920000m/h.</desc>
<speed>2.200000</speed>
</trkpt>
<trkpt lat="56.070126" lon="26.518152">
<ele>98.260803</ele>
<time>2010-08-29T13:47:27Z</time>
<desc>lat.=56.070126, lon.=26.518152, Alt.=98.260803m. Speed=6.408000m/h.</desc>
<speed>1.780000</speed>
</trkpt>
<trkpt lat="56.070110" lon="26.518166">
<ele>98.102600</ele>
<time>2010-08-29T13:47:28Z</time>
<desc>lat.=56.070110, lon.=26.518166, Alt.=98.102600m. Speed=5.076000m/h.</desc>
<speed>1.410000</speed>
</trkpt>
<trkpt lat="56.070099" lon="26.518173">
<ele>98.016663</ele>
<time>2010-08-29T13:47:29Z</time>
<desc>lat.=56.070099, lon.=26.518173, Alt.=98.016663m. Speed=5.436000m/h.</desc>
<speed>1.510000</speed>
</trkpt>
<trkpt lat="56.070087" lon="26.518181">
<ele>98.014709</ele>
<time>2010-08-29T13:47:30Z</time>
<desc>lat.=56.070087, lon.=26.518181, Alt.=98.014709m. Speed=5.652000m/h.</desc>
<speed>1.570000</speed>
</trkpt>
<trkpt lat="56.070072" lon="26.518194">
<ele>98.088928</ele>
<time>2010-08-29T13:47:31Z</time>
<desc>lat.=56.070072, lon.=26.518194, Alt.=98.088928m. Speed=5.904000m/h.</desc>
<speed>1.640000</speed>
</trkpt>
<trkpt lat="56.070061" lon="26.518208">
<ele>97.985413</ele>
<time>2010-08-29T13:47:32Z</time>
<desc>lat.=56.070061, lon.=26.518208, Alt.=97.985413m. Speed=6.552000m/h.</desc>
<speed>1.820000</speed>
</trkpt>
<trkpt lat="56.070045" lon="26.518227">
<ele>97.698303</ele>
<time>2010-08-29T13:47:33Z</time>
<desc>lat.=56.070045, lon.=26.518227, Alt.=97.698303m. Speed=6.516000m/h.</desc>
<speed>1.810000</speed>
</trkpt>
<trkpt lat="56.070030" lon="26.518238">
<ele>97.647522</ele>
<time>2010-08-29T13:47:34Z</time>
<desc>lat.=56.070030, lon.=26.518238, Alt.=97.647522m. Speed=5.436000m/h.</desc>
<speed>1.510000</speed>
</trkpt>
<trkpt lat="56.070023" lon="26.518251">
<ele>97.805725</ele>
<time>2010-08-29T13:47:35Z</time>
<desc>lat.=56.070023, lon.=26.518251, Alt.=97.805725m. Speed=2.520000m/h.</desc>
<speed>0.700000</speed>
</trkpt>
<trkpt lat="56.070023" lon="26.518259">
<ele>97.930725</ele>
<time>2010-08-29T13:47:36Z</time>
<desc>lat.=56.070023, lon.=26.518259, Alt.=97.930725m. Speed=0.252000m/h.</desc>
<speed>0.070000</speed>
</trkpt>
<trkpt lat="56.070023" lon="26.518257">
<ele>97.881897</ele>
<time>2010-08-29T13:47:37Z</time>
<desc>lat.=56.070023, lon.=26.518257, Alt.=97.881897m. Speed=0.180000m/h.</desc>
<speed>0.050000</speed>
</trkpt>
<trkpt lat="56.070023" lon="26.518257">
<ele>97.930725</ele>
<time>2010-08-29T13:47:38Z</time>
<desc>lat.=56.070023, lon.=26.518257, Alt.=97.930725m. Speed=0.180000m/h.</desc>
<speed>0.050000</speed>
</trkpt>
<trkpt lat="56.070023" lon="26.518257">
<ele>97.954163</ele>
<time>2010-08-29T13:47:39Z</time>
<desc>lat.=56.070023, lon.=26.518257, Alt.=97.954163m. Speed=0.180000m/h.</desc>
<speed>0.050000</speed>
</trkpt>
<trkpt lat="56.070023" lon="26.518255">
<ele>97.985413</ele>
<time>2010-08-29T13:47:40Z</time>
<desc>lat.=56.070023, lon.=26.518255, Alt.=97.985413m. Speed=0.036000m/h.</desc>
<speed>0.010000</speed>
</trkpt>
<trkpt lat="56.070023" lon="26.518255">
<ele>97.997131</ele>
<time>2010-08-29T13:47:41Z</time>
<desc>lat.=56.070023, lon.=26.518255, Alt.=97.997131m. Speed=0.072000m/h.</desc>
<speed>0.020000</speed>
</trkpt>
<trkpt lat="56.070023" lon="26.518255">
<ele>98.024475</ele>
<time>2010-08-29T13:47:42Z</time>
<desc>lat.=56.070023, lon.=26.518255, Alt.=98.024475m. Speed=0.000000m/h.</desc>
<speed>0.000000</speed>
</trkpt>
<trkpt lat="56.070023" lon="26.518255">
<ele>98.036194</ele>
<time>2010-08-29T13:47:43Z</time>
<desc>lat.=56.070023, lon.=26.518255, Alt.=98.036194m. Speed=0.000000m/h.</desc>
<speed>0.000000</speed>
</trkpt>
<trkpt lat="56.070023" lon="26.518255">
<ele>98.036194</ele>
<time>2010-08-29T13:47:44Z</time>
<desc>lat.=56.070023, lon.=26.518255, Alt.=98.036194m. Speed=0.072000m/h.</desc>
<speed>0.020000</speed>
</trkpt>
<trkpt lat="56.070023" lon="26.518255">
<ele>98.034241</ele>
<time>2010-08-29T13:47:45Z</time>
<desc>lat.=56.070023, lon.=26.518255, Alt.=98.034241m. Speed=1.800000m/h.</desc>
<speed>0.500000</speed>
</trkpt>
<trkpt lat="56.070019" lon="26.518251">
<ele>97.864319</ele>
<time>2010-08-29T13:47:46Z</time>
<desc>lat.=56.070019, lon.=26.518251, Alt.=97.864319m. Speed=0.000000m/h.</desc>
<speed>0.000000</speed>
</trkpt>
<trkpt lat="56.070019" lon="26.518251">
<ele>97.866272</ele>
<time>2010-08-29T13:47:47Z</time>
<desc>lat.=56.070019, lon.=26.518251, Alt.=97.866272m. Speed=0.000000m/h.</desc>
<speed>0.000000</speed>
</trkpt>
<trkpt lat="56.070019" lon="26.518251">
<ele>97.860413</ele>
<time>2010-08-29T13:47:48Z</time>
<desc>lat.=56.070019, lon.=26.518251, Alt.=97.860413m. Speed=0.036000m/h.</desc>
<speed>0.010000</speed>
</trkpt>
<trkpt lat="56.070015" lon="26.518251">
<ele>97.876038</ele>
<time>2010-08-29T13:47:49Z</time>
<desc>lat.=56.070015, lon.=26.518251, Alt.=97.876038m. Speed=0.036000m/h.</desc>
<speed>0.010000</speed>
</trkpt>
<trkpt lat="56.070015" lon="26.518251">
<ele>97.887756</ele>
<time>2010-08-29T13:47:50Z</time>
<desc>lat.=56.070015, lon.=26.518251, Alt.=97.887756m. Speed=0.108000m/h.</desc>
<speed>0.030000</speed>
</trkpt>
<trkpt lat="56.070015" lon="26.518251">
<ele>97.926819</ele>
<time>2010-08-29T13:47:51Z</time>
<desc>lat.=56.070015, lon.=26.518251, Alt.=97.926819m. Speed=0.036000m/h.</desc>
<speed>0.010000</speed>
</trkpt>
<trkpt lat="56.070015" lon="26.518251">
<ele>97.940491</ele>
<time>2010-08-29T13:47:52Z</time>
<desc>lat.=56.070015, lon.=26.518251, Alt.=97.940491m. Speed=0.144000m/h.</desc>
<speed>0.040000</speed>
</trkpt>
<trkpt lat="56.070015" lon="26.518251">
<ele>97.975647</ele>
<time>2010-08-29T13:47:53Z</time>
<desc>lat.=56.070015, lon.=26.518251, Alt.=97.975647m. Speed=0.108000m/h.</desc>
<speed>0.030000</speed>
</trkpt>
<trkpt lat="56.070015" lon="26.518251">
<ele>98.016663</ele>
<time>2010-08-29T13:47:54Z</time>
<desc>lat.=56.070015, lon.=26.518251, Alt.=98.016663m. Speed=0.180000m/h.</desc>
<speed>0.050000</speed>
</trkpt>
<trkpt lat="56.070015" lon="26.518250">
<ele>98.065491</ele>
<time>2010-08-29T13:47:55Z</time>
<desc>lat.=56.070015, lon.=26.518250, Alt.=98.065491m. Speed=0.360000m/h.</desc>
<speed>0.100000</speed>
</trkpt>
<trkpt lat="56.070015" lon="26.518250">
<ele>98.157288</ele>
<time>2010-08-29T13:47:56Z</time>
<desc>lat.=56.070015, lon.=26.518250, Alt.=98.157288m. Speed=0.252000m/h.</desc>
<speed>0.070000</speed>
</trkpt>
<trkpt lat="56.070015" lon="26.518248">
<ele>98.245178</ele>
<time>2010-08-29T13:47:57Z</time>
<desc>lat.=56.070015, lon.=26.518248, Alt.=98.245178m. Speed=0.396000m/h.</desc>
<speed>0.110000</speed>
</trkpt>
<trkpt lat="56.070015" lon="26.518248">
<ele>98.284241</ele>
<time>2010-08-29T13:47:58Z</time>
<desc>lat.=56.070015, lon.=26.518248, Alt.=98.284241m. Speed=0.252000m/h.</desc>
<speed>0.070000</speed>
</trkpt>
<trkpt lat="56.070015" lon="26.518248">
<ele>98.309631</ele>
<time>2010-08-29T13:47:59Z</time>
<desc>lat.=56.070015, lon.=26.518248, Alt.=98.309631m. Speed=1.512000m/h.</desc>
<speed>0.420000</speed>
</trkpt>
<trkpt lat="56.070011" lon="26.518244">
<ele>98.256897</ele>
<time>2010-08-29T13:48:00Z</time>
<desc>lat.=56.070011, lon.=26.518244, Alt.=98.256897m. Speed=0.540000m/h.</desc>
<speed>0.150000</speed>
</trkpt>
<trkpt lat="56.070011" lon="26.518242">
<ele>98.391663</ele>
<time>2010-08-29T13:48:01Z</time>
<desc>lat.=56.070011, lon.=26.518242, Alt.=98.391663m. Speed=0.432000m/h.</desc>
<speed>0.120000</speed>
</trkpt>
<trkpt lat="56.070011" lon="26.518240">
<ele>98.563538</ele>
<time>2010-08-29T13:48:02Z</time>
<desc>lat.=56.070011, lon.=26.518240, Alt.=98.563538m. Speed=0.180000m/h.</desc>
<speed>0.050000</speed>
</trkpt>
<trkpt lat="56.070011" lon="26.518240">
<ele>98.696350</ele>
<time>2010-08-29T13:48:03Z</time>
<desc>lat.=56.070011, lon.=26.518240, Alt.=98.696350m. Speed=0.612000m/h.</desc>
<speed>0.170000</speed>
</trkpt>
<trkpt lat="56.070011" lon="26.518238">
<ele>98.790100</ele>
<time>2010-08-29T13:48:04Z</time>
<desc>lat.=56.070011, lon.=26.518238, Alt.=98.790100m. Speed=1.080000m/h.</desc>
<speed>0.300000</speed>
</trkpt>
<trkpt lat="56.070007" lon="26.518242">
<ele>98.895569</ele>
<time>2010-08-29T13:48:05Z</time>
<desc>lat.=56.070007, lon.=26.518242, Alt.=98.895569m. Speed=3.132000m/h.</desc>
<speed>0.870000</speed>
</trkpt>
<trkpt lat="56.070004" lon="26.518251">
<ele>99.001038</ele>
<time>2010-08-29T13:48:06Z</time>
<desc>lat.=56.070004, lon.=26.518251, Alt.=99.001038m. Speed=5.400000m/h.</desc>
<speed>1.500000</speed>
</trkpt>
<trkpt lat="56.070000" lon="26.518278">
<ele>99.038147</ele>
<time>2010-08-29T13:48:07Z</time>
<desc>lat.=56.070000, lon.=26.518278, Alt.=99.038147m. Speed=6.264000m/h.</desc>
<speed>1.740000</speed>
</trkpt>
<trkpt lat="56.070000" lon="26.518318">
<ele>99.169006</ele>
<time>2010-08-29T13:48:08Z</time>
<desc>lat.=56.070000, lon.=26.518318, Alt.=99.169006m. Speed=7.128000m/h.</desc>
<speed>1.980000</speed>
</trkpt>
<trkpt lat="56.070007" lon="26.518354">
<ele>99.200256</ele>
<time>2010-08-29T13:48:09Z</time>
<desc>lat.=56.070007, lon.=26.518354, Alt.=99.200256m. Speed=5.724000m/h.</desc>
<speed>1.590000</speed>
</trkpt>
<trkpt lat="56.070015" lon="26.518389">
<ele>99.163147</ele>
<time>2010-08-29T13:48:10Z</time>
<desc>lat.=56.070015, lon.=26.518389, Alt.=99.163147m. Speed=5.472000m/h.</desc>
<speed>1.520000</speed>
</trkpt>
<trkpt lat="56.070023" lon="26.518412">
<ele>99.336975</ele>
<time>2010-08-29T13:48:11Z</time>
<desc>lat.=56.070023, lon.=26.518412, Alt.=99.336975m. Speed=4.392000m/h.</desc>
<speed>1.220000</speed>
</trkpt>
<trkpt lat="56.070026" lon="26.518435">
<ele>99.178772</ele>
<time>2010-08-29T13:48:12Z</time>
<desc>lat.=56.070026, lon.=26.518435, Alt.=99.178772m. Speed=3.456000m/h.</desc>
<speed>0.960000</speed>
</trkpt>
<trkpt lat="56.070034" lon="26.518452">
<ele>98.581116</ele>
<time>2010-08-29T13:48:13Z</time>
<desc>lat.=56.070034, lon.=26.518452, Alt.=98.581116m. Speed=3.708000m/h.</desc>
<speed>1.030000</speed>
</trkpt>
<trkpt lat="56.070038" lon="26.518467">
<ele>98.461975</ele>
<time>2010-08-29T13:48:14Z</time>
<desc>lat.=56.070038, lon.=26.518467, Alt.=98.461975m. Speed=3.276000m/h.</desc>
<speed>0.910000</speed>
</trkpt>
<trkpt lat="56.070045" lon="26.518480">
<ele>98.311584</ele>
<time>2010-08-29T13:48:15Z</time>
<desc>lat.=56.070045, lon.=26.518480, Alt.=98.311584m. Speed=3.204000m/h.</desc>
<speed>0.890000</speed>
</trkpt>
<trkpt lat="56.070053" lon="26.518490">
<ele>98.235413</ele>
<time>2010-08-29T13:48:16Z</time>
<desc>lat.=56.070053, lon.=26.518490, Alt.=98.235413m. Speed=3.708000m/h.</desc>
<speed>1.030000</speed>
</trkpt>
<trkpt lat="56.070065" lon="26.518494">
<ele>98.633850</ele>
<time>2010-08-29T13:48:17Z</time>
<desc>lat.=56.070065, lon.=26.518494, Alt.=98.633850m. Speed=5.904000m/h.</desc>
<speed>1.640000</speed>
</trkpt>
<trkpt lat="56.070080" lon="26.518503">
<ele>99.028381</ele>
<time>2010-08-29T13:48:18Z</time>
<desc>lat.=56.070080, lon.=26.518503, Alt.=99.028381m. Speed=6.336000m/h.</desc>
<speed>1.760000</speed>
</trkpt>
<trkpt lat="56.070087" lon="26.518520">
<ele>99.192444</ele>
<time>2010-08-29T13:48:19Z</time>
<desc>lat.=56.070087, lon.=26.518520, Alt.=99.192444m. Speed=6.336000m/h.</desc>
<speed>1.760000</speed>
</trkpt>
<trkpt lat="56.070099" lon="26.518547">
<ele>99.247131</ele>
<time>2010-08-29T13:48:20Z</time>
<desc>lat.=56.070099, lon.=26.518547, Alt.=99.247131m. Speed=8.028000m/h.</desc>
<speed>2.230000</speed>
</trkpt>
<trkpt lat="56.070110" lon="26.518589">
<ele>99.672913</ele>
<time>2010-08-29T13:48:21Z</time>
<desc>lat.=56.070110, lon.=26.518589, Alt.=99.672913m. Speed=12.132000m/h.</desc>
<speed>3.370000</speed>
</trkpt>
<trkpt lat="56.070126" lon="26.518629">
<ele>99.993225</ele>
<time>2010-08-29T13:48:22Z</time>
<desc>lat.=56.070126, lon.=26.518629, Alt.=99.993225m. Speed=11.736000m/h.</desc>
<speed>3.260000</speed>
</trkpt>
<trkpt lat="56.070141" lon="26.518671">
<ele>100.377991</ele>
<time>2010-08-29T13:48:23Z</time>
<desc>lat.=56.070141, lon.=26.518671, Alt.=100.377991m. Speed=13.140000m/h.</desc>
<speed>3.650000</speed>
</trkpt>
<trkpt lat="56.070156" lon="26.518726">
<ele>100.725647</ele>
<time>2010-08-29T13:48:24Z</time>
<desc>lat.=56.070156, lon.=26.518726, Alt.=100.725647m. Speed=14.724000m/h.</desc>
<speed>4.090000</speed>
</trkpt>
<trkpt lat="56.070171" lon="26.518789">
<ele>101.042053</ele>
<time>2010-08-29T13:48:25Z</time>
<desc>lat.=56.070171, lon.=26.518789, Alt.=101.042053m. Speed=16.200001m/h.</desc>
<speed>4.500000</speed>
</trkpt>
<trkpt lat="56.070194" lon="26.518847">
<ele>101.096741</ele>
<time>2010-08-29T13:48:26Z</time>
<desc>lat.=56.070194, lon.=26.518847, Alt.=101.096741m. Speed=17.639999m/h.</desc>
<speed>4.900000</speed>
</trkpt>
<trkpt lat="56.070221" lon="26.518908">
<ele>101.417053</ele>
<time>2010-08-29T13:48:27Z</time>
<desc>lat.=56.070221, lon.=26.518908, Alt.=101.417053m. Speed=18.540001m/h.</desc>
<speed>5.150000</speed>
</trkpt>
<trkpt lat="56.070248" lon="26.518965">
<ele>101.450256</ele>
<time>2010-08-29T13:48:28Z</time>
<desc>lat.=56.070248, lon.=26.518965, Alt.=101.450256m. Speed=18.504000m/h.</desc>
<speed>5.140000</speed>
</trkpt>
<trkpt lat="56.070274" lon="26.519026">
<ele>101.131897</ele>
<time>2010-08-29T13:48:29Z</time>
<desc>lat.=56.070274, lon.=26.519026, Alt.=101.131897m. Speed=19.260000m/h.</desc>
<speed>5.350000</speed>
</trkpt>
<trkpt lat="56.070301" lon="26.519094">
<ele>101.065491</ele>
<time>2010-08-29T13:48:30Z</time>
<desc>lat.=56.070301, lon.=26.519094, Alt.=101.065491m. Speed=20.016001m/h.</desc>
<speed>5.560000</speed>
</trkpt>
<trkpt lat="56.070332" lon="26.519165">
<ele>101.010803</ele>
<time>2010-08-29T13:48:31Z</time>
<desc>lat.=56.070332, lon.=26.519165, Alt.=101.010803m. Speed=20.736000m/h.</desc>
<speed>5.760000</speed>
</trkpt>
<trkpt lat="56.070366" lon="26.519234">
<ele>100.805725</ele>
<time>2010-08-29T13:48:32Z</time>
<desc>lat.=56.070366, lon.=26.519234, Alt.=100.805725m. Speed=21.059999m/h.</desc>
<speed>5.850000</speed>
</trkpt>
<trkpt lat="56.070396" lon="26.519304">
<ele>100.897522</ele>
<time>2010-08-29T13:48:33Z</time>
<desc>lat.=56.070396, lon.=26.519304, Alt.=100.897522m. Speed=20.340000m/h.</desc>
<speed>5.650000</speed>
</trkpt>
<trkpt lat="56.070427" lon="26.519375">
<ele>100.692444</ele>
<time>2010-08-29T13:48:34Z</time>
<desc>lat.=56.070427, lon.=26.519375, Alt.=100.692444m. Speed=19.296000m/h.</desc>
<speed>5.360000</speed>
</trkpt>
<trkpt lat="56.070450" lon="26.519442">
<ele>99.870178</ele>
<time>2010-08-29T13:48:35Z</time>
<desc>lat.=56.070450, lon.=26.519442, Alt.=99.870178m. Speed=18.180000m/h.</desc>
<speed>5.050000</speed>
</trkpt>
<trkpt lat="56.070477" lon="26.519506">
<ele>99.688538</ele>
<time>2010-08-29T13:48:36Z</time>
<desc>lat.=56.070477, lon.=26.519506, Alt.=99.688538m. Speed=17.172001m/h.</desc>
<speed>4.770000</speed>
</trkpt>
<trkpt lat="56.070496" lon="26.519569">
<ele>98.797913</ele>
<time>2010-08-29T13:48:37Z</time>
<desc>lat.=56.070496, lon.=26.519569, Alt.=98.797913m. Speed=16.200001m/h.</desc>
<speed>4.500000</speed>
</trkpt>
<trkpt lat="56.070518" lon="26.519629">
<ele>98.833069</ele>
<time>2010-08-29T13:48:38Z</time>
<desc>lat.=56.070518, lon.=26.519629, Alt.=98.833069m. Speed=15.120000m/h.</desc>
<speed>4.200000</speed>
</trkpt>
<trkpt lat="56.070541" lon="26.519684">
<ele>98.770569</ele>
<time>2010-08-29T13:48:39Z</time>
<desc>lat.=56.070541, lon.=26.519684, Alt.=98.770569m. Speed=15.192000m/h.</desc>
<speed>4.220000</speed>
</trkpt>
<trkpt lat="56.070564" lon="26.519739">
<ele>98.706116</ele>
<time>2010-08-29T13:48:40Z</time>
<desc>lat.=56.070564, lon.=26.519739, Alt.=98.706116m. Speed=15.408000m/h.</desc>
<speed>4.280000</speed>
</trkpt>
<trkpt lat="56.070587" lon="26.519789">
<ele>98.477600</ele>
<time>2010-08-29T13:48:41Z</time>
<desc>lat.=56.070587, lon.=26.519789, Alt.=98.477600m. Speed=16.308001m/h.</desc>
<speed>4.530000</speed>
</trkpt>
<trkpt lat="56.070606" lon="26.519848">
<ele>98.141663</ele>
<time>2010-08-29T13:48:42Z</time>
<desc>lat.=56.070606, lon.=26.519848, Alt.=98.141663m. Speed=16.452000m/h.</desc>
<speed>4.570000</speed>
</trkpt>
<trkpt lat="56.070629" lon="26.519918">
<ele>98.483459</ele>
<time>2010-08-29T13:48:43Z</time>
<desc>lat.=56.070629, lon.=26.519918, Alt.=98.483459m. Speed=17.351999m/h.</desc>
<speed>4.820000</speed>
</trkpt>
<trkpt lat="56.070652" lon="26.519983">
<ele>98.383850</ele>
<time>2010-08-29T13:48:44Z</time>
<desc>lat.=56.070652, lon.=26.519983, Alt.=98.383850m. Speed=17.712000m/h.</desc>
<speed>4.920000</speed>
</trkpt>
<trkpt lat="56.070671" lon="26.520048">
<ele>98.012756</ele>
<time>2010-08-29T13:48:45Z</time>
<desc>lat.=56.070671, lon.=26.520048, Alt.=98.012756m. Speed=18.000000m/h.</desc>
<speed>5.000000</speed>
</trkpt>
<trkpt lat="56.070694" lon="26.520121">
<ele>97.868225</ele>
<time>2010-08-29T13:48:46Z</time>
<desc>lat.=56.070694, lon.=26.520121, Alt.=97.868225m. Speed=18.936001m/h.</desc>
<speed>5.260000</speed>
</trkpt>
<trkpt lat="56.070721" lon="26.520193">
<ele>97.428772</ele>
<time>2010-08-29T13:48:47Z</time>
<desc>lat.=56.070721, lon.=26.520193, Alt.=97.428772m. Speed=18.035999m/h.</desc>
<speed>5.010000</speed>
</trkpt>
<trkpt lat="56.070747" lon="26.520264">
<ele>97.227600</ele>
<time>2010-08-29T13:48:48Z</time>
<desc>lat.=56.070747, lon.=26.520264, Alt.=97.227600m. Speed=18.936001m/h.</desc>
<speed>5.260000</speed>
</trkpt>
<trkpt lat="56.070770" lon="26.520336">
<ele>97.141663</ele>
<time>2010-08-29T13:48:49Z</time>
<desc>lat.=56.070770, lon.=26.520336, Alt.=97.141663m. Speed=19.440001m/h.</desc>
<speed>5.400000</speed>
</trkpt>
<trkpt lat="56.070805" lon="26.520411">
<ele>97.088928</ele>
<time>2010-08-29T13:48:50Z</time>
<desc>lat.=56.070805, lon.=26.520411, Alt.=97.088928m. Speed=21.528000m/h.</desc>
<speed>5.980000</speed>
</trkpt>
<trkpt lat="56.070835" lon="26.520493">
<ele>97.170959</ele>
<time>2010-08-29T13:48:51Z</time>
<desc>lat.=56.070835, lon.=26.520493, Alt.=97.170959m. Speed=21.780001m/h.</desc>
<speed>6.050000</speed>
</trkpt>
<trkpt lat="56.070869" lon="26.520571">
<ele>96.860413</ele>
<time>2010-08-29T13:48:52Z</time>
<desc>lat.=56.070869, lon.=26.520571, Alt.=96.860413m. Speed=20.879999m/h.</desc>
<speed>5.800000</speed>
</trkpt>
<trkpt lat="56.070900" lon="26.520643">
<ele>96.946350</ele>
<time>2010-08-29T13:48:53Z</time>
<desc>lat.=56.070900, lon.=26.520643, Alt.=96.946350m. Speed=21.059999m/h.</desc>
<speed>5.850000</speed>
</trkpt>
<trkpt lat="56.070934" lon="26.520718">
<ele>96.922913</ele>
<time>2010-08-29T13:48:54Z</time>
<desc>lat.=56.070934, lon.=26.520718, Alt.=96.922913m. Speed=20.628000m/h.</desc>
<speed>5.730000</speed>
</trkpt>
<trkpt lat="56.070965" lon="26.520792">
<ele>96.930725</ele>
<time>2010-08-29T13:48:55Z</time>
<desc>lat.=56.070965, lon.=26.520792, Alt.=96.930725m. Speed=19.332001m/h.</desc>
<speed>5.370000</speed>
</trkpt>
<trkpt lat="56.070988" lon="26.520859">
<ele>97.311584</ele>
<time>2010-08-29T13:48:56Z</time>
<desc>lat.=56.070988, lon.=26.520859, Alt.=97.311584m. Speed=19.332001m/h.</desc>
<speed>5.370000</speed>
</trkpt>
<trkpt lat="56.071018" lon="26.520922">
<ele>97.313538</ele>
<time>2010-08-29T13:48:57Z</time>
<desc>lat.=56.071018, lon.=26.520922, Alt.=97.313538m. Speed=18.431999m/h.</desc>
<speed>5.120000</speed>
</trkpt>
<trkpt lat="56.071041" lon="26.520983">
<ele>97.276428</ele>
<time>2010-08-29T13:48:58Z</time>
<desc>lat.=56.071041, lon.=26.520983, Alt.=97.276428m. Speed=16.416000m/h.</desc>
<speed>4.560000</speed>
</trkpt>
<trkpt lat="56.071064" lon="26.521038">
<ele>96.997131</ele>
<time>2010-08-29T13:48:59Z</time>
<desc>lat.=56.071064, lon.=26.521038, Alt.=96.997131m. Speed=16.775999m/h.</desc>
<speed>4.660000</speed>
</trkpt>
<trkpt lat="56.071091" lon="26.521095">
<ele>97.387756</ele>
<time>2010-08-29T13:49:00Z</time>
<desc>lat.=56.071091, lon.=26.521095, Alt.=97.387756m. Speed=16.524000m/h.</desc>
<speed>4.590000</speed>
</trkpt>
<trkpt lat="56.071110" lon="26.521168">
<ele>96.711975</ele>
<time>2010-08-29T13:49:01Z</time>
<desc>lat.=56.071110, lon.=26.521168, Alt.=96.711975m. Speed=20.700001m/h.</desc>
<speed>5.750000</speed>
</trkpt>
<trkpt lat="56.071136" lon="26.521244">
<ele>96.758850</ele>
<time>2010-08-29T13:49:02Z</time>
<desc>lat.=56.071136, lon.=26.521244, Alt.=96.758850m. Speed=20.556000m/h.</desc>
<speed>5.710000</speed>
</trkpt>
<trkpt lat="56.071167" lon="26.521318">
<ele>96.704163</ele>
<time>2010-08-29T13:49:03Z</time>
<desc>lat.=56.071167, lon.=26.521318, Alt.=96.704163m. Speed=21.888000m/h.</desc>
<speed>6.080000</speed>
</trkpt>
<trkpt lat="56.071198" lon="26.521408">
<ele>95.975647</ele>
<time>2010-08-29T13:49:04Z</time>
<desc>lat.=56.071198, lon.=26.521408, Alt.=95.975647m. Speed=20.988001m/h.</desc>
<speed>5.830000</speed>
</trkpt>
<trkpt lat="56.071220" lon="26.521484">
<ele>95.499084</ele>
<time>2010-08-29T13:49:05Z</time>
<desc>lat.=56.071220, lon.=26.521484, Alt.=95.499084m. Speed=19.872000m/h.</desc>
<speed>5.520000</speed>
</trkpt>
<trkpt lat="56.071247" lon="26.521557">
<ele>95.129944</ele>
<time>2010-08-29T13:49:06Z</time>
<desc>lat.=56.071247, lon.=26.521557, Alt.=95.129944m. Speed=19.080000m/h.</desc>
<speed>5.300000</speed>
</trkpt>
<trkpt lat="56.071278" lon="26.521620">
<ele>94.393616</ele>
<time>2010-08-29T13:49:07Z</time>
<desc>lat.=56.071278, lon.=26.521620, Alt.=94.393616m. Speed=18.827999m/h.</desc>
<speed>5.230000</speed>
</trkpt>
<trkpt lat="56.071304" lon="26.521675">
<ele>93.954163</ele>
<time>2010-08-29T13:49:08Z</time>
<desc>lat.=56.071304, lon.=26.521675, Alt.=93.954163m. Speed=18.792000m/h.</desc>
<speed>5.220000</speed>
</trkpt>
<trkpt lat="56.071327" lon="26.521748">
<ele>94.040100</ele>
<time>2010-08-29T13:49:09Z</time>
<desc>lat.=56.071327, lon.=26.521748, Alt.=94.040100m. Speed=20.808001m/h.</desc>
<speed>5.780000</speed>
</trkpt>
<trkpt lat="56.071358" lon="26.521824">
<ele>93.590881</ele>
<time>2010-08-29T13:49:10Z</time>
<desc>lat.=56.071358, lon.=26.521824, Alt.=93.590881m. Speed=22.572001m/h.</desc>
<speed>6.270000</speed>
</trkpt>
<trkpt lat="56.071392" lon="26.521904">
<ele>93.104553</ele>
<time>2010-08-29T13:49:11Z</time>
<desc>lat.=56.071392, lon.=26.521904, Alt.=93.104553m. Speed=24.048000m/h.</desc>
<speed>6.680000</speed>
</trkpt>
<trkpt lat="56.071426" lon="26.521992">
<ele>93.057678</ele>
<time>2010-08-29T13:49:12Z</time>
<desc>lat.=56.071426, lon.=26.521992, Alt.=93.057678m. Speed=25.164000m/h.</desc>
<speed>6.990000</speed>
</trkpt>
<trkpt lat="56.071468" lon="26.522079">
<ele>92.706116</ele>
<time>2010-08-29T13:49:13Z</time>
<desc>lat.=56.071468, lon.=26.522079, Alt.=92.706116m. Speed=24.948000m/h.</desc>
<speed>6.930000</speed>
</trkpt>
<trkpt lat="56.071514" lon="26.522173">
<ele>93.096741</ele>
<time>2010-08-29T13:49:14Z</time>
<desc>lat.=56.071514, lon.=26.522173, Alt.=93.096741m. Speed=24.408001m/h.</desc>
<speed>6.780000</speed>
</trkpt>
<trkpt lat="56.071548" lon="26.522257">
<ele>92.928772</ele>
<time>2010-08-29T13:49:15Z</time>
<desc>lat.=56.071548, lon.=26.522257, Alt.=92.928772m. Speed=23.940001m/h.</desc>
<speed>6.650000</speed>
</trkpt>
<trkpt lat="56.071587" lon="26.522339">
<ele>92.749084</ele>
<time>2010-08-29T13:49:16Z</time>
<desc>lat.=56.071587, lon.=26.522339, Alt.=92.749084m. Speed=23.832001m/h.</desc>
<speed>6.620000</speed>
</trkpt>
<trkpt lat="56.071625" lon="26.522429">
<ele>92.735413</ele>
<time>2010-08-29T13:49:17Z</time>
<desc>lat.=56.071625, lon.=26.522429, Alt.=92.735413m. Speed=24.948000m/h.</desc>
<speed>6.930000</speed>
</trkpt>
<trkpt lat="56.071659" lon="26.522528">
<ele>92.624084</ele>
<time>2010-08-29T13:49:18Z</time>
<desc>lat.=56.071659, lon.=26.522528, Alt.=92.624084m. Speed=24.804001m/h.</desc>
<speed>6.890000</speed>
</trkpt>
<trkpt lat="56.071693" lon="26.522621">
<ele>92.536194</ele>
<time>2010-08-29T13:49:19Z</time>
<desc>lat.=56.071693, lon.=26.522621, Alt.=92.536194m. Speed=23.976000m/h.</desc>
<speed>6.660000</speed>
</trkpt>
<trkpt lat="56.071732" lon="26.522711">
<ele>92.895569</ele>
<time>2010-08-29T13:49:20Z</time>
<desc>lat.=56.071732, lon.=26.522711, Alt.=92.895569m. Speed=23.580000m/h.</desc>
<speed>6.550000</speed>
</trkpt>
<trkpt lat="56.071766" lon="26.522799">
<ele>93.034241</ele>
<time>2010-08-29T13:49:21Z</time>
<desc>lat.=56.071766, lon.=26.522799, Alt.=93.034241m. Speed=23.760000m/h.</desc>
<speed>6.600000</speed>
</trkpt>
<trkpt lat="56.071804" lon="26.522882">
<ele>92.940491</ele>
<time>2010-08-29T13:49:22Z</time>
<desc>lat.=56.071804, lon.=26.522882, Alt.=92.940491m. Speed=23.364000m/h.</desc>
<speed>6.490000</speed>
</trkpt>
<trkpt lat="56.071838" lon="26.522963">
<ele>92.829163</ele>
<time>2010-08-29T13:49:23Z</time>
<desc>lat.=56.071838, lon.=26.522963, Alt.=92.829163m. Speed=22.860001m/h.</desc>
<speed>6.350000</speed>
</trkpt>
<trkpt lat="56.071869" lon="26.523050">
<ele>93.045959</ele>
<time>2010-08-29T13:49:24Z</time>
<desc>lat.=56.071869, lon.=26.523050, Alt.=93.045959m. Speed=22.680000m/h.</desc>
<speed>6.300000</speed>
</trkpt>
<trkpt lat="56.071903" lon="26.523130">
<ele>93.059631</ele>
<time>2010-08-29T13:49:25Z</time>
<desc>lat.=56.071903, lon.=26.523130, Alt.=93.059631m. Speed=22.212000m/h.</desc>
<speed>6.170000</speed>
</trkpt>
<trkpt lat="56.071934" lon="26.523212">
<ele>92.764709</ele>
<time>2010-08-29T13:49:26Z</time>
<desc>lat.=56.071934, lon.=26.523212, Alt.=92.764709m. Speed=21.924000m/h.</desc>
<speed>6.090000</speed>
</trkpt>
<trkpt lat="56.071964" lon="26.523289">
<ele>92.721741</ele>
<time>2010-08-29T13:49:27Z</time>
<desc>lat.=56.071964, lon.=26.523289, Alt.=92.721741m. Speed=21.275999m/h.</desc>
<speed>5.910000</speed>
</trkpt>
<trkpt lat="56.071995" lon="26.523363">
<ele>92.506897</ele>
<time>2010-08-29T13:49:28Z</time>
<desc>lat.=56.071995, lon.=26.523363, Alt.=92.506897m. Speed=20.771999m/h.</desc>
<speed>5.770000</speed>
</trkpt>
<trkpt lat="56.072025" lon="26.523438">
<ele>92.311584</ele>
<time>2010-08-29T13:49:29Z</time>
<desc>lat.=56.072025, lon.=26.523438, Alt.=92.311584m. Speed=20.268000m/h.</desc>
<speed>5.630000</speed>
</trkpt>
<trkpt lat="56.072060" lon="26.523516">
<ele>92.809631</ele>
<time>2010-08-29T13:49:30Z</time>
<desc>lat.=56.072060, lon.=26.523516, Alt.=92.809631m. Speed=19.980000m/h.</desc>
<speed>5.550000</speed>
</trkpt>
<trkpt lat="56.072090" lon="26.523586">
<ele>92.620178</ele>
<time>2010-08-29T13:49:31Z</time>
<desc>lat.=56.072090, lon.=26.523586, Alt.=92.620178m. Speed=19.548000m/h.</desc>
<speed>5.430000</speed>
</trkpt>
<trkpt lat="56.072121" lon="26.523651">
<ele>92.210022</ele>
<time>2010-08-29T13:49:32Z</time>
<desc>lat.=56.072121, lon.=26.523651, Alt.=92.210022m. Speed=19.728001m/h.</desc>
<speed>5.480000</speed>
</trkpt>
<trkpt lat="56.072147" lon="26.523716">
<ele>91.637756</ele>
<time>2010-08-29T13:49:33Z</time>
<desc>lat.=56.072147, lon.=26.523716, Alt.=91.637756m. Speed=20.448000m/h.</desc>
<speed>5.680000</speed>
</trkpt>
<trkpt lat="56.072178" lon="26.523787">
<ele>91.090881</ele>
<time>2010-08-29T13:49:34Z</time>
<desc>lat.=56.072178, lon.=26.523787, Alt.=91.090881m. Speed=20.195999m/h.</desc>
<speed>5.610000</speed>
</trkpt>
<trkpt lat="56.072208" lon="26.523861">
<ele>91.083069</ele>
<time>2010-08-29T13:49:35Z</time>
<desc>lat.=56.072208, lon.=26.523861, Alt.=91.083069m. Speed=19.836000m/h.</desc>
<speed>5.510000</speed>
</trkpt>
<trkpt lat="56.072231" lon="26.523933">
<ele>90.258850</ele>
<time>2010-08-29T13:49:36Z</time>
<desc>lat.=56.072231, lon.=26.523933, Alt.=90.258850m. Speed=20.628000m/h.</desc>
<speed>5.730000</speed>
</trkpt>
<trkpt lat="56.072262" lon="26.524006">
<ele>90.169006</ele>
<time>2010-08-29T13:49:37Z</time>
<desc>lat.=56.072262, lon.=26.524006, Alt.=90.169006m. Speed=19.080000m/h.</desc>
<speed>5.300000</speed>
</trkpt>
<trkpt lat="56.072289" lon="26.524088">
<ele>90.120178</ele>
<time>2010-08-29T13:49:38Z</time>
<desc>lat.=56.072289, lon.=26.524088, Alt.=90.120178m. Speed=19.728001m/h.</desc>
<speed>5.480000</speed>
</trkpt>
<trkpt lat="56.072319" lon="26.524158">
<ele>89.909241</ele>
<time>2010-08-29T13:49:39Z</time>
<desc>lat.=56.072319, lon.=26.524158, Alt.=89.909241m. Speed=17.784000m/h.</desc>
<speed>4.940000</speed>
</trkpt>
<trkpt lat="56.072353" lon="26.524231">
<ele>90.850647</ele>
<time>2010-08-29T13:49:40Z</time>
<desc>lat.=56.072353, lon.=26.524231, Alt.=90.850647m. Speed=19.044001m/h.</desc>
<speed>5.290000</speed>
</trkpt>
<trkpt lat="56.072380" lon="26.524300">
<ele>90.784241</ele>
<time>2010-08-29T13:49:41Z</time>
<desc>lat.=56.072380, lon.=26.524300, Alt.=90.784241m. Speed=19.836000m/h.</desc>
<speed>5.510000</speed>
</trkpt>
<trkpt lat="56.072411" lon="26.524372">
<ele>90.965881</ele>
<time>2010-08-29T13:49:42Z</time>
<desc>lat.=56.072411, lon.=26.524372, Alt.=90.965881m. Speed=19.368000m/h.</desc>
<speed>5.380000</speed>
</trkpt>
<trkpt lat="56.072433" lon="26.524441">
<ele>91.006897</ele>
<time>2010-08-29T13:49:43Z</time>
<desc>lat.=56.072433, lon.=26.524441, Alt.=91.006897m. Speed=19.764000m/h.</desc>
<speed>5.490000</speed>
</trkpt>
<trkpt lat="56.072464" lon="26.524521">
<ele>91.774475</ele>
<time>2010-08-29T13:49:44Z</time>
<desc>lat.=56.072464, lon.=26.524521, Alt.=91.774475m. Speed=21.780001m/h.</desc>
<speed>6.050000</speed>
</trkpt>
<trkpt lat="56.072495" lon="26.524590">
<ele>91.889709</ele>
<time>2010-08-29T13:49:45Z</time>
<desc>lat.=56.072495, lon.=26.524590, Alt.=91.889709m. Speed=20.556000m/h.</desc>
<speed>5.710000</speed>
</trkpt>
<trkpt lat="56.072525" lon="26.524664">
<ele>91.975647</ele>
<time>2010-08-29T13:49:46Z</time>
<desc>lat.=56.072525, lon.=26.524664, Alt.=91.975647m. Speed=20.808001m/h.</desc>
<speed>5.780000</speed>
</trkpt>
<trkpt lat="56.072556" lon="26.524740">
<ele>91.602600</ele>
<time>2010-08-29T13:49:47Z</time>
<desc>lat.=56.072556, lon.=26.524740, Alt.=91.602600m. Speed=21.167999m/h.</desc>
<speed>5.880000</speed>
</trkpt>
<trkpt lat="56.072586" lon="26.524815">
<ele>91.434631</ele>
<time>2010-08-29T13:49:48Z</time>
<desc>lat.=56.072586, lon.=26.524815, Alt.=91.434631m. Speed=19.691999m/h.</desc>
<speed>5.470000</speed>
</trkpt>
<trkpt lat="56.072617" lon="26.524895">
<ele>91.528381</ele>
<time>2010-08-29T13:49:49Z</time>
<desc>lat.=56.072617, lon.=26.524895, Alt.=91.528381m. Speed=21.996000m/h.</desc>
<speed>6.110000</speed>
</trkpt>
<trkpt lat="56.072647" lon="26.524981">
<ele>91.626038</ele>
<time>2010-08-29T13:49:50Z</time>
<desc>lat.=56.072647, lon.=26.524981, Alt.=91.626038m. Speed=22.823999m/h.</desc>
<speed>6.340000</speed>
</trkpt>
<trkpt lat="56.072685" lon="26.525066">
<ele>91.762756</ele>
<time>2010-08-29T13:49:51Z</time>
<desc>lat.=56.072685, lon.=26.525066, Alt.=91.762756m. Speed=23.256001m/h.</desc>
<speed>6.460000</speed>
</trkpt>
<trkpt lat="56.072720" lon="26.525150">
<ele>92.020569</ele>
<time>2010-08-29T13:49:52Z</time>
<desc>lat.=56.072720, lon.=26.525150, Alt.=92.020569m. Speed=22.608000m/h.</desc>
<speed>6.280000</speed>
</trkpt>
<trkpt lat="56.072758" lon="26.525238">
<ele>92.422913</ele>
<time>2010-08-29T13:49:53Z</time>
<desc>lat.=56.072758, lon.=26.525238, Alt.=92.422913m. Speed=22.896000m/h.</desc>
<speed>6.360000</speed>
</trkpt>
<trkpt lat="56.072792" lon="26.525322">
<ele>92.819397</ele>
<time>2010-08-29T13:49:54Z</time>
<desc>lat.=56.072792, lon.=26.525322, Alt.=92.819397m. Speed=21.384001m/h.</desc>
<speed>5.940000</speed>
</trkpt>
<trkpt lat="56.072819" lon="26.525402">
<ele>92.581116</ele>
<time>2010-08-29T13:49:55Z</time>
<desc>lat.=56.072819, lon.=26.525402, Alt.=92.581116m. Speed=21.600000m/h.</desc>
<speed>6.000000</speed>
</trkpt>
<trkpt lat="56.072845" lon="26.525480">
<ele>92.260803</ele>
<time>2010-08-29T13:49:56Z</time>
<desc>lat.=56.072845, lon.=26.525480, Alt.=92.260803m. Speed=20.304001m/h.</desc>
<speed>5.640000</speed>
</trkpt>
<trkpt lat="56.072880" lon="26.525555">
<ele>92.940491</ele>
<time>2010-08-29T13:49:57Z</time>
<desc>lat.=56.072880, lon.=26.525555, Alt.=92.940491m. Speed=20.087999m/h.</desc>
<speed>5.580000</speed>
</trkpt>
<trkpt lat="56.072906" lon="26.525627">
<ele>93.262756</ele>
<time>2010-08-29T13:49:58Z</time>
<desc>lat.=56.072906, lon.=26.525627, Alt.=93.262756m. Speed=21.059999m/h.</desc>
<speed>5.850000</speed>
</trkpt>
<trkpt lat="56.072937" lon="26.525700">
<ele>92.354553</ele>
<time>2010-08-29T13:49:59Z</time>
<desc>lat.=56.072937, lon.=26.525700, Alt.=92.354553m. Speed=20.988001m/h.</desc>
<speed>5.830000</speed>
</trkpt>
<trkpt lat="56.072968" lon="26.525778">
<ele>91.688538</ele>
<time>2010-08-29T13:50:00Z</time>
<desc>lat.=56.072968, lon.=26.525778, Alt.=91.688538m. Speed=22.284000m/h.</desc>
<speed>6.190000</speed>
</trkpt>
<trkpt lat="56.072998" lon="26.525858">
<ele>91.495178</ele>
<time>2010-08-29T13:50:01Z</time>
<desc>lat.=56.072998, lon.=26.525858, Alt.=91.495178m. Speed=22.823999m/h.</desc>
<speed>6.340000</speed>
</trkpt>
<trkpt lat="56.073036" lon="26.525942">
<ele>91.592834</ele>
<time>2010-08-29T13:50:02Z</time>
<desc>lat.=56.073036, lon.=26.525942, Alt.=91.592834m. Speed=23.400000m/h.</desc>
<speed>6.500000</speed>
</trkpt>
<trkpt lat="56.073071" lon="26.526030">
<ele>91.383850</ele>
<time>2010-08-29T13:50:03Z</time>
<desc>lat.=56.073071, lon.=26.526030, Alt.=91.383850m. Speed=25.236000m/h.</desc>
<speed>7.010000</speed>
</trkpt>
<trkpt lat="56.073109" lon="26.526117">
<ele>91.190491</ele>
<time>2010-08-29T13:50:04Z</time>
<desc>lat.=56.073109, lon.=26.526117, Alt.=91.190491m. Speed=25.632000m/h.</desc>
<speed>7.120000</speed>
</trkpt>
<trkpt lat="56.073147" lon="26.526197">
<ele>90.549866</ele>
<time>2010-08-29T13:50:05Z</time>
<desc>lat.=56.073147, lon.=26.526197, Alt.=90.549866m. Speed=23.796000m/h.</desc>
<speed>6.610000</speed>
</trkpt>
<trkpt lat="56.073185" lon="26.526278">
<ele>90.565491</ele>
<time>2010-08-29T13:50:06Z</time>
<desc>lat.=56.073185, lon.=26.526278, Alt.=90.565491m. Speed=22.068001m/h.</desc>
<speed>6.130000</speed>
</trkpt>
<trkpt lat="56.073219" lon="26.526356">
<ele>90.612366</ele>
<time>2010-08-29T13:50:07Z</time>
<desc>lat.=56.073219, lon.=26.526356, Alt.=90.612366m. Speed=21.240000m/h.</desc>
<speed>5.900000</speed>
</trkpt>
<trkpt lat="56.073250" lon="26.526430">
<ele>90.682678</ele>
<time>2010-08-29T13:50:08Z</time>
<desc>lat.=56.073250, lon.=26.526430, Alt.=90.682678m. Speed=19.080000m/h.</desc>
<speed>5.300000</speed>
</trkpt>
<trkpt lat="56.073284" lon="26.526510">
<ele>90.829163</ele>
<time>2010-08-29T13:50:09Z</time>
<desc>lat.=56.073284, lon.=26.526510, Alt.=90.829163m. Speed=20.988001m/h.</desc>
<speed>5.830000</speed>
</trkpt>
<trkpt lat="56.073315" lon="26.526581">
<ele>90.112366</ele>
<time>2010-08-29T13:50:10Z</time>
<desc>lat.=56.073315, lon.=26.526581, Alt.=90.112366m. Speed=19.152000m/h.</desc>
<speed>5.320000</speed>
</trkpt>
<trkpt lat="56.073341" lon="26.526648">
<ele>89.088928</ele>
<time>2010-08-29T13:50:11Z</time>
<desc>lat.=56.073341, lon.=26.526648, Alt.=89.088928m. Speed=18.360001m/h.</desc>
<speed>5.100000</speed>
</trkpt>
<trkpt lat="56.073364" lon="26.526712">
<ele>88.430725</ele>
<time>2010-08-29T13:50:12Z</time>
<desc>lat.=56.073364, lon.=26.526712, Alt.=88.430725m. Speed=17.496000m/h.</desc>
<speed>4.860000</speed>
</trkpt>
<trkpt lat="56.073391" lon="26.526775">
<ele>87.940491</ele>
<time>2010-08-29T13:50:13Z</time>
<desc>lat.=56.073391, lon.=26.526775, Alt.=87.940491m. Speed=16.164000m/h.</desc>
<speed>4.490000</speed>
</trkpt>
<trkpt lat="56.073418" lon="26.526840">
<ele>87.770569</ele>
<time>2010-08-29T13:50:14Z</time>
<desc>lat.=56.073418, lon.=26.526840, Alt.=87.770569m. Speed=16.775999m/h.</desc>
<speed>4.660000</speed>
</trkpt>
<trkpt lat="56.073444" lon="26.526901">
<ele>87.393616</ele>
<time>2010-08-29T13:50:15Z</time>
<desc>lat.=56.073444, lon.=26.526901, Alt.=87.393616m. Speed=16.164000m/h.</desc>
<speed>4.490000</speed>
</trkpt>
<trkpt lat="56.073471" lon="26.526953">
<ele>86.805725</ele>
<time>2010-08-29T13:50:16Z</time>
<desc>lat.=56.073471, lon.=26.526953, Alt.=86.805725m. Speed=19.403999m/h.</desc>
<speed>5.390000</speed>
</trkpt>
<trkpt lat="56.073513" lon="26.527035">
<ele>87.782288</ele>
<time>2010-08-29T13:50:17Z</time>
<desc>lat.=56.073513, lon.=26.527035, Alt.=87.782288m. Speed=20.340000m/h.</desc>
<speed>5.650000</speed>
</trkpt>
<trkpt lat="56.073547" lon="26.527113">
<ele>87.989319</ele>
<time>2010-08-29T13:50:18Z</time>
<desc>lat.=56.073547, lon.=26.527113, Alt.=87.989319m. Speed=19.908001m/h.</desc>
<speed>5.530000</speed>
</trkpt>
<trkpt lat="56.073578" lon="26.527187">
<ele>87.514709</ele>
<time>2010-08-29T13:50:19Z</time>
<desc>lat.=56.073578, lon.=26.527187, Alt.=87.514709m. Speed=19.224001m/h.</desc>
<speed>5.340000</speed>
</trkpt>
<trkpt lat="56.073608" lon="26.527269">
<ele>86.983459</ele>
<time>2010-08-29T13:50:20Z</time>
<desc>lat.=56.073608, lon.=26.527269, Alt.=86.983459m. Speed=21.132000m/h.</desc>
<speed>5.870000</speed>
</trkpt>
<trkpt lat="56.073647" lon="26.527370">
<ele>86.901428</ele>
<time>2010-08-29T13:50:21Z</time>
<desc>lat.=56.073647, lon.=26.527370, Alt.=86.901428m. Speed=22.608000m/h.</desc>
<speed>6.280000</speed>
</trkpt>
<trkpt lat="56.073673" lon="26.527466">
<ele>85.653381</ele>
<time>2010-08-29T13:50:22Z</time>
<desc>lat.=56.073673, lon.=26.527466, Alt.=85.653381m. Speed=20.087999m/h.</desc>
<speed>5.580000</speed>
</trkpt>
<trkpt lat="56.073711" lon="26.527557">
<ele>86.022522</ele>
<time>2010-08-29T13:50:23Z</time>
<desc>lat.=56.073711, lon.=26.527557, Alt.=86.022522m. Speed=21.312000m/h.</desc>
<speed>5.920000</speed>
</trkpt>
<trkpt lat="56.073746" lon="26.527634">
<ele>86.106506</ele>
<time>2010-08-29T13:50:24Z</time>
<desc>lat.=56.073746, lon.=26.527634, Alt.=86.106506m. Speed=18.936001m/h.</desc>
<speed>5.260000</speed>
</trkpt>
<trkpt lat="56.073776" lon="26.527700">
<ele>86.653381</ele>
<time>2010-08-29T13:50:25Z</time>
<desc>lat.=56.073776, lon.=26.527700, Alt.=86.653381m. Speed=16.920000m/h.</desc>
<speed>4.700000</speed>
</trkpt>
<trkpt lat="56.073811" lon="26.527792">
<ele>87.325256</ele>
<time>2010-08-29T13:50:26Z</time>
<desc>lat.=56.073811, lon.=26.527792, Alt.=87.325256m. Speed=21.240000m/h.</desc>
<speed>5.900000</speed>
</trkpt>
<trkpt lat="56.073868" lon="26.527920">
<ele>90.258850</ele>
<time>2010-08-29T13:50:27Z</time>
<desc>lat.=56.073868, lon.=26.527920, Alt.=90.258850m. Speed=22.139999m/h.</desc>
<speed>6.150000</speed>
</trkpt>
<trkpt lat="56.073902" lon="26.528013">
<ele>91.530334</ele>
<time>2010-08-29T13:50:28Z</time>
<desc>lat.=56.073902, lon.=26.528013, Alt.=91.530334m. Speed=21.096001m/h.</desc>
<speed>5.860000</speed>
</trkpt>
<trkpt lat="56.073940" lon="26.528088">
<ele>92.174866</ele>
<time>2010-08-29T13:50:29Z</time>
<desc>lat.=56.073940, lon.=26.528088, Alt.=92.174866m. Speed=19.620001m/h.</desc>
<speed>5.450000</speed>
</trkpt>
<trkpt lat="56.073975" lon="26.528158">
<ele>93.323303</ele>
<time>2010-08-29T13:50:30Z</time>
<desc>lat.=56.073975, lon.=26.528158, Alt.=93.323303m. Speed=18.323999m/h.</desc>
<speed>5.090000</speed>
</trkpt>
<trkpt lat="56.074009" lon="26.528238">
<ele>94.667053</ele>
<time>2010-08-29T13:50:31Z</time>
<desc>lat.=56.074009, lon.=26.528238, Alt.=94.667053m. Speed=17.351999m/h.</desc>
<speed>4.820000</speed>
</trkpt>
<trkpt lat="56.074036" lon="26.528305">
<ele>94.633850</ele>
<time>2010-08-29T13:50:32Z</time>
<desc>lat.=56.074036, lon.=26.528305, Alt.=94.633850m. Speed=17.927999m/h.</desc>
<speed>4.980000</speed>
</trkpt>
<trkpt lat="56.074055" lon="26.528372">
<ele>93.581116</ele>
<time>2010-08-29T13:50:33Z</time>
<desc>lat.=56.074055, lon.=26.528372, Alt.=93.581116m. Speed=16.416000m/h.</desc>
<speed>4.560000</speed>
</trkpt>
<trkpt lat="56.074078" lon="26.528433">
<ele>93.504944</ele>
<time>2010-08-29T13:50:34Z</time>
<desc>lat.=56.074078, lon.=26.528433, Alt.=93.504944m. Speed=16.416000m/h.</desc>
<speed>4.560000</speed>
</trkpt>
<trkpt lat="56.074108" lon="26.528490">
<ele>94.075256</ele>
<time>2010-08-29T13:50:35Z</time>
<desc>lat.=56.074108, lon.=26.528490, Alt.=94.075256m. Speed=13.032000m/h.</desc>
<speed>3.620000</speed>
</trkpt>
<trkpt lat="56.074135" lon="26.528542">
<ele>95.626038</ele>
<time>2010-08-29T13:50:36Z</time>
<desc>lat.=56.074135, lon.=26.528542, Alt.=95.626038m. Speed=13.068000m/h.</desc>
<speed>3.630000</speed>
</trkpt>
<trkpt lat="56.074154" lon="26.528599">
<ele>95.805725</ele>
<time>2010-08-29T13:50:37Z</time>
<desc>lat.=56.074154, lon.=26.528599, Alt.=95.805725m. Speed=16.559999m/h.</desc>
<speed>4.600000</speed>
</trkpt>
<trkpt lat="56.074173" lon="26.528669">
<ele>95.557678</ele>
<time>2010-08-29T13:50:38Z</time>
<desc>lat.=56.074173, lon.=26.528669, Alt.=95.557678m. Speed=13.644000m/h.</desc>
<speed>3.790000</speed>
</trkpt>
<trkpt lat="56.074188" lon="26.528727">
<ele>95.211975</ele>
<time>2010-08-29T13:50:39Z</time>
<desc>lat.=56.074188, lon.=26.528727, Alt.=95.211975m. Speed=12.924000m/h.</desc>
<speed>3.590000</speed>
</trkpt>
<trkpt lat="56.074211" lon="26.528793">
<ele>94.444397</ele>
<time>2010-08-29T13:50:40Z</time>
<desc>lat.=56.074211, lon.=26.528793, Alt.=94.444397m. Speed=15.264000m/h.</desc>
<speed>4.240000</speed>
</trkpt>
<trkpt lat="56.074230" lon="26.528831">
<ele>94.002991</ele>
<time>2010-08-29T13:50:41Z</time>
<desc>lat.=56.074230, lon.=26.528831, Alt.=94.002991m. Speed=8.496000m/h.</desc>
<speed>2.360000</speed>
</trkpt>
<trkpt lat="56.074261" lon="26.528875">
<ele>93.948303</ele>
<time>2010-08-29T13:50:42Z</time>
<desc>lat.=56.074261, lon.=26.528875, Alt.=93.948303m. Speed=14.364000m/h.</desc>
<speed>3.990000</speed>
</trkpt>
<trkpt lat="56.074284" lon="26.528923">
<ele>94.182678</ele>
<time>2010-08-29T13:50:43Z</time>
<desc>lat.=56.074284, lon.=26.528923, Alt.=94.182678m. Speed=12.312000m/h.</desc>
<speed>3.420000</speed>
</trkpt>
<trkpt lat="56.074306" lon="26.528971">
<ele>93.485413</ele>
<time>2010-08-29T13:50:44Z</time>
<desc>lat.=56.074306, lon.=26.528971, Alt.=93.485413m. Speed=14.292000m/h.</desc>
<speed>3.970000</speed>
</trkpt>
<trkpt lat="56.074326" lon="26.529028">
<ele>93.006897</ele>
<time>2010-08-29T13:50:45Z</time>
<desc>lat.=56.074326, lon.=26.529028, Alt.=93.006897m. Speed=13.680000m/h.</desc>
<speed>3.800000</speed>
</trkpt>
<trkpt lat="56.074356" lon="26.529089">
<ele>93.481506</ele>
<time>2010-08-29T13:50:46Z</time>
<desc>lat.=56.074356, lon.=26.529089, Alt.=93.481506m. Speed=17.459999m/h.</desc>
<speed>4.850000</speed>
</trkpt>
<trkpt lat="56.074379" lon="26.529150">
<ele>92.872131</ele>
<time>2010-08-29T13:50:47Z</time>
<desc>lat.=56.074379, lon.=26.529150, Alt.=92.872131m. Speed=15.228000m/h.</desc>
<speed>4.230000</speed>
</trkpt>
<trkpt lat="56.074402" lon="26.529217">
<ele>92.940491</ele>
<time>2010-08-29T13:50:48Z</time>
<desc>lat.=56.074402, lon.=26.529217, Alt.=92.940491m. Speed=14.724000m/h.</desc>
<speed>4.090000</speed>
</trkpt>
<trkpt lat="56.074429" lon="26.529287">
<ele>93.694397</ele>
<time>2010-08-29T13:50:49Z</time>
<desc>lat.=56.074429, lon.=26.529287, Alt.=93.694397m. Speed=15.912000m/h.</desc>
<speed>4.420000</speed>
</trkpt>
<trkpt lat="56.074451" lon="26.529345">
<ele>93.735413</ele>
<time>2010-08-29T13:50:50Z</time>
<desc>lat.=56.074451, lon.=26.529345, Alt.=93.735413m. Speed=13.176000m/h.</desc>
<speed>3.660000</speed>
</trkpt>
<trkpt lat="56.074471" lon="26.529404">
<ele>93.946350</ele>
<time>2010-08-29T13:50:51Z</time>
<desc>lat.=56.074471, lon.=26.529404, Alt.=93.946350m. Speed=12.096000m/h.</desc>
<speed>3.360000</speed>
</trkpt>
<trkpt lat="56.074497" lon="26.529484">
<ele>94.544006</ele>
<time>2010-08-29T13:50:52Z</time>
<desc>lat.=56.074497, lon.=26.529484, Alt.=94.544006m. Speed=14.832000m/h.</desc>
<speed>4.120000</speed>
</trkpt>
<trkpt lat="56.074520" lon="26.529539">
<ele>94.340881</ele>
<time>2010-08-29T13:50:53Z</time>
<desc>lat.=56.074520, lon.=26.529539, Alt.=94.340881m. Speed=17.280001m/h.</desc>
<speed>4.800000</speed>
</trkpt>
<trkpt lat="56.074543" lon="26.529615">
<ele>94.184631</ele>
<time>2010-08-29T13:50:54Z</time>
<desc>lat.=56.074543, lon.=26.529615, Alt.=94.184631m. Speed=17.208000m/h.</desc>
<speed>4.780000</speed>
</trkpt>
<trkpt lat="56.074566" lon="26.529697">
<ele>94.098694</ele>
<time>2010-08-29T13:50:55Z</time>
<desc>lat.=56.074566, lon.=26.529697, Alt.=94.098694m. Speed=18.108000m/h.</desc>
<speed>5.030000</speed>
</trkpt>
<trkpt lat="56.074593" lon="26.529785">
<ele>94.176819</ele>
<time>2010-08-29T13:50:56Z</time>
<desc>lat.=56.074593, lon.=26.529785, Alt.=94.176819m. Speed=15.912000m/h.</desc>
<speed>4.420000</speed>
</trkpt>
<trkpt lat="56.074615" lon="26.529886">
<ele>93.725647</ele>
<time>2010-08-29T13:50:57Z</time>
<desc>lat.=56.074615, lon.=26.529886, Alt.=93.725647m. Speed=16.056000m/h.</desc>
<speed>4.460000</speed>
</trkpt>
<trkpt lat="56.074650" lon="26.529980">
<ele>93.534241</ele>
<time>2010-08-29T13:50:58Z</time>
<desc>lat.=56.074650, lon.=26.529980, Alt.=93.534241m. Speed=16.884001m/h.</desc>
<speed>4.690000</speed>
</trkpt>
<trkpt lat="56.074680" lon="26.530035">
<ele>93.467834</ele>
<time>2010-08-29T13:50:59Z</time>
<desc>lat.=56.074680, lon.=26.530035, Alt.=93.467834m. Speed=17.028000m/h.</desc>
<speed>4.730000</speed>
</trkpt>
<trkpt lat="56.074703" lon="26.530096">
<ele>93.428772</ele>
<time>2010-08-29T13:51:00Z</time>
<desc>lat.=56.074703, lon.=26.530096, Alt.=93.428772m. Speed=17.459999m/h.</desc>
<speed>4.850000</speed>
</trkpt>
<trkpt lat="56.074738" lon="26.530180">
<ele>94.206116</ele>
<time>2010-08-29T13:51:01Z</time>
<desc>lat.=56.074738, lon.=26.530180, Alt.=94.206116m. Speed=15.408000m/h.</desc>
<speed>4.280000</speed>
</trkpt>
<trkpt lat="56.074776" lon="26.530249">
<ele>96.454163</ele>
<time>2010-08-29T13:51:02Z</time>
<desc>lat.=56.074776, lon.=26.530249, Alt.=96.454163m. Speed=13.176000m/h.</desc>
<speed>3.660000</speed>
</trkpt>
<trkpt lat="56.074806" lon="26.530313">
<ele>96.805725</ele>
<time>2010-08-29T13:51:03Z</time>
<desc>lat.=56.074806, lon.=26.530313, Alt.=96.805725m. Speed=13.644000m/h.</desc>
<speed>3.790000</speed>
</trkpt>
<trkpt lat="56.074833" lon="26.530388">
<ele>97.639709</ele>
<time>2010-08-29T13:51:04Z</time>
<desc>lat.=56.074833, lon.=26.530388, Alt.=97.639709m. Speed=11.592000m/h.</desc>
<speed>3.220000</speed>
</trkpt>
<trkpt lat="56.074860" lon="26.530449">
<ele>97.639709</ele>
<time>2010-08-29T13:51:05Z</time>
<desc>lat.=56.074860, lon.=26.530449, Alt.=97.639709m. Speed=12.384000m/h.</desc>
<speed>3.440000</speed>
</trkpt>
<trkpt lat="56.074871" lon="26.530497">
<ele>96.346741</ele>
<time>2010-08-29T13:51:06Z</time>
<desc>lat.=56.074871, lon.=26.530497, Alt.=96.346741m. Speed=10.332000m/h.</desc>
<speed>2.870000</speed>
</trkpt>
<trkpt lat="56.074886" lon="26.530535">
<ele>96.286194</ele>
<time>2010-08-29T13:51:07Z</time>
<desc>lat.=56.074886, lon.=26.530535, Alt.=96.286194m. Speed=10.728000m/h.</desc>
<speed>2.980000</speed>
</trkpt>
<trkpt lat="56.074905" lon="26.530590">
<ele>96.659241</ele>
<time>2010-08-29T13:51:08Z</time>
<desc>lat.=56.074905, lon.=26.530590, Alt.=96.659241m. Speed=10.188000m/h.</desc>
<speed>2.830000</speed>
</trkpt>
<trkpt lat="56.074928" lon="26.530640">
<ele>96.954163</ele>
<time>2010-08-29T13:51:09Z</time>
<desc>lat.=56.074928, lon.=26.530640, Alt.=96.954163m. Speed=11.340000m/h.</desc>
<speed>3.150000</speed>
</trkpt>
<trkpt lat="56.074951" lon="26.530691">
<ele>97.614319</ele>
<time>2010-08-29T13:51:10Z</time>
<desc>lat.=56.074951, lon.=26.530691, Alt.=97.614319m. Speed=12.240000m/h.</desc>
<speed>3.400000</speed>
</trkpt>
<trkpt lat="56.074978" lon="26.530729">
<ele>97.452209</ele>
<time>2010-08-29T13:51:11Z</time>
<desc>lat.=56.074978, lon.=26.530729, Alt.=97.452209m. Speed=11.664000m/h.</desc>
<speed>3.240000</speed>
</trkpt>
<trkpt lat="56.075005" lon="26.530769">
<ele>97.874084</ele>
<time>2010-08-29T13:51:12Z</time>
<desc>lat.=56.075005, lon.=26.530769, Alt.=97.874084m. Speed=12.024000m/h.</desc>
<speed>3.340000</speed>
</trkpt>
<trkpt lat="56.075031" lon="26.530811">
<ele>97.786194</ele>
<time>2010-08-29T13:51:13Z</time>
<desc>lat.=56.075031, lon.=26.530811, Alt.=97.786194m. Speed=12.744000m/h.</desc>
<speed>3.540000</speed>
</trkpt>
<trkpt lat="56.075058" lon="26.530867">
<ele>98.635803</ele>
<time>2010-08-29T13:51:14Z</time>
<desc>lat.=56.075058, lon.=26.530867, Alt.=98.635803m. Speed=13.428000m/h.</desc>
<speed>3.730000</speed>
</trkpt>
<trkpt lat="56.075077" lon="26.530924">
<ele>98.260803</ele>
<time>2010-08-29T13:51:15Z</time>
<desc>lat.=56.075077, lon.=26.530924, Alt.=98.260803m. Speed=13.284000m/h.</desc>
<speed>3.690000</speed>
</trkpt>
<trkpt lat="56.075096" lon="26.530979">
<ele>98.936584</ele>
<time>2010-08-29T13:51:16Z</time>
<desc>lat.=56.075096, lon.=26.530979, Alt.=98.936584m. Speed=13.896000m/h.</desc>
<speed>3.860000</speed>
</trkpt>
<trkpt lat="56.075119" lon="26.531033">
<ele>98.811584</ele>
<time>2010-08-29T13:51:17Z</time>
<desc>lat.=56.075119, lon.=26.531033, Alt.=98.811584m. Speed=13.464000m/h.</desc>
<speed>3.740000</speed>
</trkpt>
<trkpt lat="56.075134" lon="26.531092">
<ele>98.997131</ele>
<time>2010-08-29T13:51:18Z</time>
<desc>lat.=56.075134, lon.=26.531092, Alt.=98.997131m. Speed=14.148000m/h.</desc>
<speed>3.930000</speed>
</trkpt>
<trkpt lat="56.075161" lon="26.531145">
<ele>98.881897</ele>
<time>2010-08-29T13:51:19Z</time>
<desc>lat.=56.075161, lon.=26.531145, Alt.=98.881897m. Speed=14.328000m/h.</desc>
<speed>3.980000</speed>
</trkpt>
<trkpt lat="56.075184" lon="26.531200">
<ele>98.846741</ele>
<time>2010-08-29T13:51:20Z</time>
<desc>lat.=56.075184, lon.=26.531200, Alt.=98.846741m. Speed=14.472000m/h.</desc>
<speed>4.020000</speed>
</trkpt>
<trkpt lat="56.075207" lon="26.531254">
<ele>98.864319</ele>
<time>2010-08-29T13:51:21Z</time>
<desc>lat.=56.075207, lon.=26.531254, Alt.=98.864319m. Speed=14.868000m/h.</desc>
<speed>4.130000</speed>
</trkpt>
<trkpt lat="56.075230" lon="26.531305">
<ele>98.387756</ele>
<time>2010-08-29T13:51:22Z</time>
<desc>lat.=56.075230, lon.=26.531305, Alt.=98.387756m. Speed=14.292000m/h.</desc>
<speed>3.970000</speed>
</trkpt>
<trkpt lat="56.075253" lon="26.531359">
<ele>97.913147</ele>
<time>2010-08-29T13:51:23Z</time>
<desc>lat.=56.075253, lon.=26.531359, Alt.=97.913147m. Speed=14.112000m/h.</desc>
<speed>3.920000</speed>
</trkpt>
<trkpt lat="56.075275" lon="26.531406">
<ele>97.813538</ele>
<time>2010-08-29T13:51:24Z</time>
<desc>lat.=56.075275, lon.=26.531406, Alt.=97.813538m. Speed=14.580000m/h.</desc>
<speed>4.050000</speed>
</trkpt>
<trkpt lat="56.075294" lon="26.531458">
<ele>97.747131</ele>
<time>2010-08-29T13:51:25Z</time>
<desc>lat.=56.075294, lon.=26.531458, Alt.=97.747131m. Speed=14.400000m/h.</desc>
<speed>4.000000</speed>
</trkpt>
<trkpt lat="56.075314" lon="26.531507">
<ele>97.643616</ele>
<time>2010-08-29T13:51:26Z</time>
<desc>lat.=56.075314, lon.=26.531507, Alt.=97.643616m. Speed=14.256000m/h.</desc>
<speed>3.960000</speed>
</trkpt>
<trkpt lat="56.075336" lon="26.531557">
<ele>97.430725</ele>
<time>2010-08-29T13:51:27Z</time>
<desc>lat.=56.075336, lon.=26.531557, Alt.=97.430725m. Speed=14.328000m/h.</desc>
<speed>3.980000</speed>
</trkpt>
<trkpt lat="56.075363" lon="26.531618">
<ele>97.749084</ele>
<time>2010-08-29T13:51:28Z</time>
<desc>lat.=56.075363, lon.=26.531618, Alt.=97.749084m. Speed=14.364000m/h.</desc>
<speed>3.990000</speed>
</trkpt>
<trkpt lat="56.075386" lon="26.531675">
<ele>97.782288</ele>
<time>2010-08-29T13:51:29Z</time>
<desc>lat.=56.075386, lon.=26.531675, Alt.=97.782288m. Speed=15.048000m/h.</desc>
<speed>4.180000</speed>
</trkpt>
<trkpt lat="56.075409" lon="26.531736">
<ele>97.989319</ele>
<time>2010-08-29T13:51:30Z</time>
<desc>lat.=56.075409, lon.=26.531736, Alt.=97.989319m. Speed=15.264000m/h.</desc>
<speed>4.240000</speed>
</trkpt>
<trkpt lat="56.075432" lon="26.531786">
<ele>97.991272</ele>
<time>2010-08-29T13:51:31Z</time>
<desc>lat.=56.075432, lon.=26.531786, Alt.=97.991272m. Speed=15.120000m/h.</desc>
<speed>4.200000</speed>
</trkpt>
<trkpt lat="56.075455" lon="26.531843">
<ele>97.815491</ele>
<time>2010-08-29T13:51:32Z</time>
<desc>lat.=56.075455, lon.=26.531843, Alt.=97.815491m. Speed=15.444000m/h.</desc>
<speed>4.290000</speed>
</trkpt>
<trkpt lat="56.075481" lon="26.531891">
<ele>97.973694</ele>
<time>2010-08-29T13:51:33Z</time>
<desc>lat.=56.075481, lon.=26.531891, Alt.=97.973694m. Speed=13.752000m/h.</desc>
<speed>3.820000</speed>
</trkpt>
<trkpt lat="56.075500" lon="26.531944">
<ele>98.569397</ele>
<time>2010-08-29T13:51:34Z</time>
<desc>lat.=56.075500, lon.=26.531944, Alt.=98.569397m. Speed=14.184000m/h.</desc>
<speed>3.940000</speed>
</trkpt>
<trkpt lat="56.075527" lon="26.532001">
<ele>98.452209</ele>
<time>2010-08-29T13:51:35Z</time>
<desc>lat.=56.075527, lon.=26.532001, Alt.=98.452209m. Speed=16.128000m/h.</desc>
<speed>4.480000</speed>
</trkpt>
<trkpt lat="56.075542" lon="26.532061">
<ele>98.417053</ele>
<time>2010-08-29T13:51:36Z</time>
<desc>lat.=56.075542, lon.=26.532061, Alt.=98.417053m. Speed=15.948000m/h.</desc>
<speed>4.430000</speed>
</trkpt>
<trkpt lat="56.075565" lon="26.532118">
<ele>98.210022</ele>
<time>2010-08-29T13:51:37Z</time>
<desc>lat.=56.075565, lon.=26.532118, Alt.=98.210022m. Speed=16.704000m/h.</desc>
<speed>4.640000</speed>
</trkpt>
<trkpt lat="56.075592" lon="26.532177">
<ele>98.067444</ele>
<time>2010-08-29T13:51:38Z</time>
<desc>lat.=56.075592, lon.=26.532177, Alt.=98.067444m. Speed=16.344000m/h.</desc>
<speed>4.540000</speed>
</trkpt>
<trkpt lat="56.075619" lon="26.532244">
<ele>98.077209</ele>
<time>2010-08-29T13:51:39Z</time>
<desc>lat.=56.075619, lon.=26.532244, Alt.=98.077209m. Speed=16.632000m/h.</desc>
<speed>4.620000</speed>
</trkpt>
<trkpt lat="56.075642" lon="26.532309">
<ele>98.180725</ele>
<time>2010-08-29T13:51:40Z</time>
<desc>lat.=56.075642, lon.=26.532309, Alt.=98.180725m. Speed=15.912000m/h.</desc>
<speed>4.420000</speed>
</trkpt>
<trkpt lat="56.075661" lon="26.532372">
<ele>98.206116</ele>
<time>2010-08-29T13:51:41Z</time>
<desc>lat.=56.075661, lon.=26.532372, Alt.=98.206116m. Speed=16.848000m/h.</desc>
<speed>4.680000</speed>
</trkpt>
<trkpt lat="56.075684" lon="26.532436">
<ele>98.235413</ele>
<time>2010-08-29T13:51:42Z</time>
<desc>lat.=56.075684, lon.=26.532436, Alt.=98.235413m. Speed=16.020000m/h.</desc>
<speed>4.450000</speed>
</trkpt>
<trkpt lat="56.075706" lon="26.532497">
<ele>98.760803</ele>
<time>2010-08-29T13:51:43Z</time>
<desc>lat.=56.075706, lon.=26.532497, Alt.=98.760803m. Speed=15.156000m/h.</desc>
<speed>4.210000</speed>
</trkpt>
<trkpt lat="56.075733" lon="26.532558">
<ele>98.534241</ele>
<time>2010-08-29T13:51:44Z</time>
<desc>lat.=56.075733, lon.=26.532558, Alt.=98.534241m. Speed=16.020000m/h.</desc>
<speed>4.450000</speed>
</trkpt>
<trkpt lat="56.075756" lon="26.532612">
<ele>98.385803</ele>
<time>2010-08-29T13:51:45Z</time>
<desc>lat.=56.075756, lon.=26.532612, Alt.=98.385803m. Speed=14.940000m/h.</desc>
<speed>4.150000</speed>
</trkpt>
<trkpt lat="56.075779" lon="26.532669">
<ele>98.596741</ele>
<time>2010-08-29T13:51:46Z</time>
<desc>lat.=56.075779, lon.=26.532669, Alt.=98.596741m. Speed=15.300000m/h.</desc>
<speed>4.250000</speed>
</trkpt>
<trkpt lat="56.075802" lon="26.532726">
<ele>98.817444</ele>
<time>2010-08-29T13:51:47Z</time>
<desc>lat.=56.075802, lon.=26.532726, Alt.=98.817444m. Speed=14.436000m/h.</desc>
<speed>4.010000</speed>
</trkpt>
<trkpt lat="56.075821" lon="26.532780">
<ele>98.704163</ele>
<time>2010-08-29T13:51:48Z</time>
<desc>lat.=56.075821, lon.=26.532780, Alt.=98.704163m. Speed=15.300000m/h.</desc>
<speed>4.250000</speed>
</trkpt>
<trkpt lat="56.075848" lon="26.532831">
<ele>98.965881</ele>
<time>2010-08-29T13:51:49Z</time>
<desc>lat.=56.075848, lon.=26.532831, Alt.=98.965881m. Speed=14.688000m/h.</desc>
<speed>4.080000</speed>
</trkpt>
<trkpt lat="56.075867" lon="26.532879">
<ele>98.858459</ele>
<time>2010-08-29T13:51:50Z</time>
<desc>lat.=56.075867, lon.=26.532879, Alt.=98.858459m. Speed=14.868000m/h.</desc>
<speed>4.130000</speed>
</trkpt>
<trkpt lat="56.075890" lon="26.532936">
<ele>98.559631</ele>
<time>2010-08-29T13:51:51Z</time>
<desc>lat.=56.075890, lon.=26.532936, Alt.=98.559631m. Speed=15.444000m/h.</desc>
<speed>4.290000</speed>
</trkpt>
<trkpt lat="56.075912" lon="26.532991">
<ele>98.528381</ele>
<time>2010-08-29T13:51:52Z</time>
<desc>lat.=56.075912, lon.=26.532991, Alt.=98.528381m. Speed=15.156000m/h.</desc>
<speed>4.210000</speed>
</trkpt>
<trkpt lat="56.075935" lon="26.533045">
<ele>98.256897</ele>
<time>2010-08-29T13:51:53Z</time>
<desc>lat.=56.075935, lon.=26.533045, Alt.=98.256897m. Speed=15.264000m/h.</desc>
<speed>4.240000</speed>
</trkpt>
<trkpt lat="56.075958" lon="26.533096">
<ele>98.143616</ele>
<time>2010-08-29T13:51:54Z</time>
<desc>lat.=56.075958, lon.=26.533096, Alt.=98.143616m. Speed=15.408000m/h.</desc>
<speed>4.280000</speed>
</trkpt>
<trkpt lat="56.075981" lon="26.533148">
<ele>97.971741</ele>
<time>2010-08-29T13:51:55Z</time>
<desc>lat.=56.075981, lon.=26.533148, Alt.=97.971741m. Speed=15.516000m/h.</desc>
<speed>4.310000</speed>
</trkpt>
<trkpt lat="56.076008" lon="26.533197">
<ele>97.405334</ele>
<time>2010-08-29T13:51:56Z</time>
<desc>lat.=56.076008, lon.=26.533197, Alt.=97.405334m. Speed=16.524000m/h.</desc>
<speed>4.590000</speed>
</trkpt>
<trkpt lat="56.076031" lon="26.533255">
<ele>97.210022</ele>
<time>2010-08-29T13:51:57Z</time>
<desc>lat.=56.076031, lon.=26.533255, Alt.=97.210022m. Speed=16.992001m/h.</desc>
<speed>4.720000</speed>
</trkpt>
<trkpt lat="56.076057" lon="26.533319">
<ele>97.034241</ele>
<time>2010-08-29T13:51:58Z</time>
<desc>lat.=56.076057, lon.=26.533319, Alt.=97.034241m. Speed=15.876000m/h.</desc>
<speed>4.410000</speed>
</trkpt>
<trkpt lat="56.076077" lon="26.533371">
<ele>96.383850</ele>
<time>2010-08-29T13:51:59Z</time>
<desc>lat.=56.076077, lon.=26.533371, Alt.=96.383850m. Speed=13.788000m/h.</desc>
<speed>3.830000</speed>
</trkpt>
<trkpt lat="56.076103" lon="26.533411">
<ele>96.688538</ele>
<time>2010-08-29T13:52:00Z</time>
<desc>lat.=56.076103, lon.=26.533411, Alt.=96.688538m. Speed=12.816000m/h.</desc>
<speed>3.560000</speed>
</trkpt>
<trkpt lat="56.076122" lon="26.533451">
<ele>96.204163</ele>
<time>2010-08-29T13:52:01Z</time>
<desc>lat.=56.076122, lon.=26.533451, Alt.=96.204163m. Speed=12.636000m/h.</desc>
<speed>3.510000</speed>
</trkpt>
<trkpt lat="56.076138" lon="26.533493">
<ele>95.626038</ele>
<time>2010-08-29T13:52:02Z</time>
<desc>lat.=56.076138, lon.=26.533493, Alt.=95.626038m. Speed=14.292000m/h.</desc>
<speed>3.970000</speed>
</trkpt>
<trkpt lat="56.076160" lon="26.533533">
<ele>94.782288</ele>
<time>2010-08-29T13:52:03Z</time>
<desc>lat.=56.076160, lon.=26.533533, Alt.=94.782288m. Speed=12.996000m/h.</desc>
<speed>3.610000</speed>
</trkpt>
<trkpt lat="56.076180" lon="26.533581">
<ele>94.206116</ele>
<time>2010-08-29T13:52:04Z</time>
<desc>lat.=56.076180, lon.=26.533581, Alt.=94.206116m. Speed=13.464000m/h.</desc>
<speed>3.740000</speed>
</trkpt>
<trkpt lat="56.076202" lon="26.533632">
<ele>94.569397</ele>
<time>2010-08-29T13:52:05Z</time>
<desc>lat.=56.076202, lon.=26.533632, Alt.=94.569397m. Speed=14.112000m/h.</desc>
<speed>3.920000</speed>
</trkpt>
<trkpt lat="56.076237" lon="26.533699">
<ele>95.887756</ele>
<time>2010-08-29T13:52:06Z</time>
<desc>lat.=56.076237, lon.=26.533699, Alt.=95.887756m. Speed=14.868000m/h.</desc>
<speed>4.130000</speed>
</trkpt>
<trkpt lat="56.076263" lon="26.533766">
<ele>97.288147</ele>
<time>2010-08-29T13:52:07Z</time>
<desc>lat.=56.076263, lon.=26.533766, Alt.=97.288147m. Speed=15.984000m/h.</desc>
<speed>4.440000</speed>
</trkpt>
<trkpt lat="56.076298" lon="26.533815">
<ele>98.127991</ele>
<time>2010-08-29T13:52:08Z</time>
<desc>lat.=56.076298, lon.=26.533815, Alt.=98.127991m. Speed=16.271999m/h.</desc>
<speed>4.520000</speed>
</trkpt>
<trkpt lat="56.076328" lon="26.533865">
<ele>98.477600</ele>
<time>2010-08-29T13:52:09Z</time>
<desc>lat.=56.076328, lon.=26.533865, Alt.=98.477600m. Speed=15.660000m/h.</desc>
<speed>4.350000</speed>
</trkpt>
<trkpt lat="56.076351" lon="26.533916">
<ele>98.678772</ele>
<time>2010-08-29T13:52:10Z</time>
<desc>lat.=56.076351, lon.=26.533916, Alt.=98.678772m. Speed=15.048000m/h.</desc>
<speed>4.180000</speed>
</trkpt>
<trkpt lat="56.076385" lon="26.533964">
<ele>98.778381</ele>
<time>2010-08-29T13:52:11Z</time>
<desc>lat.=56.076385, lon.=26.533964, Alt.=98.778381m. Speed=15.228000m/h.</desc>
<speed>4.230000</speed>
</trkpt>
<trkpt lat="56.076412" lon="26.534008">
<ele>99.073303</ele>
<time>2010-08-29T13:52:12Z</time>
<desc>lat.=56.076412, lon.=26.534008, Alt.=99.073303m. Speed=13.716000m/h.</desc>
<speed>3.810000</speed>
</trkpt>
<trkpt lat="56.076435" lon="26.534040">
<ele>99.270569</ele>
<time>2010-08-29T13:52:13Z</time>
<desc>lat.=56.076435, lon.=26.534040, Alt.=99.270569m. Speed=10.872000m/h.</desc>
<speed>3.020000</speed>
</trkpt>
<trkpt lat="56.076458" lon="26.534063">
<ele>99.698303</ele>
<time>2010-08-29T13:52:14Z</time>
<desc>lat.=56.076458, lon.=26.534063, Alt.=99.698303m. Speed=9.108000m/h.</desc>
<speed>2.530000</speed>
</trkpt>
<trkpt lat="56.076473" lon="26.534090">
<ele>99.432678</ele>
<time>2010-08-29T13:52:15Z</time>
<desc>lat.=56.076473, lon.=26.534090, Alt.=99.432678m. Speed=8.172000m/h.</desc>
<speed>2.270000</speed>
</trkpt>
<trkpt lat="56.076488" lon="26.534111">
<ele>98.835022</ele>
<time>2010-08-29T13:52:16Z</time>
<desc>lat.=56.076488, lon.=26.534111, Alt.=98.835022m. Speed=7.056000m/h.</desc>
<speed>1.960000</speed>
</trkpt>
<trkpt lat="56.076504" lon="26.534145">
<ele>98.034241</ele>
<time>2010-08-29T13:52:17Z</time>
<desc>lat.=56.076504, lon.=26.534145, Alt.=98.034241m. Speed=8.064000m/h.</desc>
<speed>2.240000</speed>
</trkpt>
<trkpt lat="56.076519" lon="26.534182">
<ele>98.340881</ele>
<time>2010-08-29T13:52:18Z</time>
<desc>lat.=56.076519, lon.=26.534182, Alt.=98.340881m. Speed=9.288000m/h.</desc>
<speed>2.580000</speed>
</trkpt>
<trkpt lat="56.076538" lon="26.534218">
<ele>98.862366</ele>
<time>2010-08-29T13:52:19Z</time>
<desc>lat.=56.076538, lon.=26.534218, Alt.=98.862366m. Speed=10.260000m/h.</desc>
<speed>2.850000</speed>
</trkpt>
<trkpt lat="56.076557" lon="26.534256">
<ele>97.948303</ele>
<time>2010-08-29T13:52:20Z</time>
<desc>lat.=56.076557, lon.=26.534256, Alt.=97.948303m. Speed=11.016000m/h.</desc>
<speed>3.060000</speed>
</trkpt>
<trkpt lat="56.076576" lon="26.534292">
<ele>97.176819</ele>
<time>2010-08-29T13:52:21Z</time>
<desc>lat.=56.076576, lon.=26.534292, Alt.=97.176819m. Speed=12.924000m/h.</desc>
<speed>3.590000</speed>
</trkpt>
<trkpt lat="56.076614" lon="26.534325">
<ele>96.790100</ele>
<time>2010-08-29T13:52:22Z</time>
<desc>lat.=56.076614, lon.=26.534325, Alt.=96.790100m. Speed=14.400000m/h.</desc>
<speed>4.000000</speed>
</trkpt>
<trkpt lat="56.076645" lon="26.534367">
<ele>96.631897</ele>
<time>2010-08-29T13:52:23Z</time>
<desc>lat.=56.076645, lon.=26.534367, Alt.=96.631897m. Speed=13.896000m/h.</desc>
<speed>3.860000</speed>
</trkpt>
<trkpt lat="56.076691" lon="26.534422">
<ele>97.338928</ele>
<time>2010-08-29T13:52:24Z</time>
<desc>lat.=56.076691, lon.=26.534422, Alt.=97.338928m. Speed=15.588000m/h.</desc>
<speed>4.330000</speed>
</trkpt>
<trkpt lat="56.076729" lon="26.534464">
<ele>97.290100</ele>
<time>2010-08-29T13:52:25Z</time>
<desc>lat.=56.076729, lon.=26.534464, Alt.=97.290100m. Speed=16.379999m/h.</desc>
<speed>4.550000</speed>
</trkpt>
<trkpt lat="56.076775" lon="26.534502">
<ele>96.493225</ele>
<time>2010-08-29T13:52:26Z</time>
<desc>lat.=56.076775, lon.=26.534502, Alt.=96.493225m. Speed=16.596001m/h.</desc>
<speed>4.610000</speed>
</trkpt>
<trkpt lat="56.076817" lon="26.534538">
<ele>94.876038</ele>
<time>2010-08-29T13:52:27Z</time>
<desc>lat.=56.076817, lon.=26.534538, Alt.=94.876038m. Speed=14.904000m/h.</desc>
<speed>4.140000</speed>
</trkpt>
<trkpt lat="56.076847" lon="26.534565">
<ele>94.282288</ele>
<time>2010-08-29T13:52:28Z</time>
<desc>lat.=56.076847, lon.=26.534565, Alt.=94.282288m. Speed=13.932000m/h.</desc>
<speed>3.870000</speed>
</trkpt>
<trkpt lat="56.076878" lon="26.534607">
<ele>94.008850</ele>
<time>2010-08-29T13:52:29Z</time>
<desc>lat.=56.076878, lon.=26.534607, Alt.=94.008850m. Speed=13.572000m/h.</desc>
<speed>3.770000</speed>
</trkpt>
<trkpt lat="56.076912" lon="26.534651">
<ele>93.754944</ele>
<time>2010-08-29T13:52:30Z</time>
<desc>lat.=56.076912, lon.=26.534651, Alt.=93.754944m. Speed=12.348000m/h.</desc>
<speed>3.430000</speed>
</trkpt>
<trkpt lat="56.076942" lon="26.534683">
<ele>93.385803</ele>
<time>2010-08-29T13:52:31Z</time>
<desc>lat.=56.076942, lon.=26.534683, Alt.=93.385803m. Speed=12.600000m/h.</desc>
<speed>3.500000</speed>
</trkpt>
<trkpt lat="56.076973" lon="26.534727">
<ele>93.522522</ele>
<time>2010-08-29T13:52:32Z</time>
<desc>lat.=56.076973, lon.=26.534727, Alt.=93.522522m. Speed=11.592000m/h.</desc>
<speed>3.220000</speed>
</trkpt>
<trkpt lat="56.077007" lon="26.534765">
<ele>94.606506</ele>
<time>2010-08-29T13:52:33Z</time>
<desc>lat.=56.077007, lon.=26.534765, Alt.=94.606506m. Speed=13.536000m/h.</desc>
<speed>3.760000</speed>
</trkpt>
<trkpt lat="56.077038" lon="26.534798">
<ele>94.741272</ele>
<time>2010-08-29T13:52:34Z</time>
<desc>lat.=56.077038, lon.=26.534798, Alt.=94.741272m. Speed=14.184000m/h.</desc>
<speed>3.940000</speed>
</trkpt>
<trkpt lat="56.077072" lon="26.534838">
<ele>94.840881</ele>
<time>2010-08-29T13:52:35Z</time>
<desc>lat.=56.077072, lon.=26.534838, Alt.=94.840881m. Speed=14.868000m/h.</desc>
<speed>4.130000</speed>
</trkpt>
<trkpt lat="56.077110" lon="26.534887">
<ele>95.040100</ele>
<time>2010-08-29T13:52:36Z</time>
<desc>lat.=56.077110, lon.=26.534887, Alt.=95.040100m. Speed=14.760000m/h.</desc>
<speed>4.100000</speed>
</trkpt>
<trkpt lat="56.077145" lon="26.534924">
<ele>94.483459</ele>
<time>2010-08-29T13:52:37Z</time>
<desc>lat.=56.077145, lon.=26.534924, Alt.=94.483459m. Speed=15.840000m/h.</desc>
<speed>4.400000</speed>
</trkpt>
<trkpt lat="56.077187" lon="26.534979">
<ele>95.366272</ele>
<time>2010-08-29T13:52:38Z</time>
<desc>lat.=56.077187, lon.=26.534979, Alt.=95.366272m. Speed=16.164000m/h.</desc>
<speed>4.490000</speed>
</trkpt>
<trkpt lat="56.077221" lon="26.535019">
<ele>95.206116</ele>
<time>2010-08-29T13:52:39Z</time>
<desc>lat.=56.077221, lon.=26.535019, Alt.=95.206116m. Speed=15.984000m/h.</desc>
<speed>4.440000</speed>
</trkpt>
<trkpt lat="56.077255" lon="26.535063">
<ele>95.710022</ele>
<time>2010-08-29T13:52:40Z</time>
<desc>lat.=56.077255, lon.=26.535063, Alt.=95.710022m. Speed=15.372000m/h.</desc>
<speed>4.270000</speed>
</trkpt>
<trkpt lat="56.077290" lon="26.535105">
<ele>95.911194</ele>
<time>2010-08-29T13:52:41Z</time>
<desc>lat.=56.077290, lon.=26.535105, Alt.=95.911194m. Speed=15.084000m/h.</desc>
<speed>4.190000</speed>
</trkpt>
<trkpt lat="56.077324" lon="26.535147">
<ele>95.946350</ele>
<time>2010-08-29T13:52:42Z</time>
<desc>lat.=56.077324, lon.=26.535147, Alt.=95.946350m. Speed=14.760000m/h.</desc>
<speed>4.100000</speed>
</trkpt>
<trkpt lat="56.077358" lon="26.535181">
<ele>96.501038</ele>
<time>2010-08-29T13:52:43Z</time>
<desc>lat.=56.077358, lon.=26.535181, Alt.=96.501038m. Speed=14.292000m/h.</desc>
<speed>3.970000</speed>
</trkpt>
<trkpt lat="56.077389" lon="26.535208">
<ele>96.590881</ele>
<time>2010-08-29T13:52:44Z</time>
<desc>lat.=56.077389, lon.=26.535208, Alt.=96.590881m. Speed=13.392000m/h.</desc>
<speed>3.720000</speed>
</trkpt>
<trkpt lat="56.077419" lon="26.535240">
<ele>97.038147</ele>
<time>2010-08-29T13:52:45Z</time>
<desc>lat.=56.077419, lon.=26.535240, Alt.=97.038147m. Speed=13.356000m/h.</desc>
<speed>3.710000</speed>
</trkpt>
<trkpt lat="56.077446" lon="26.535263">
<ele>96.696350</ele>
<time>2010-08-29T13:52:46Z</time>
<desc>lat.=56.077446, lon.=26.535263, Alt.=96.696350m. Speed=12.672000m/h.</desc>
<speed>3.520000</speed>
</trkpt>
<trkpt lat="56.077473" lon="26.535295">
<ele>96.922913</ele>
<time>2010-08-29T13:52:47Z</time>
<desc>lat.=56.077473, lon.=26.535295, Alt.=96.922913m. Speed=12.132000m/h.</desc>
<speed>3.370000</speed>
</trkpt>
<trkpt lat="56.077499" lon="26.535330">
<ele>96.825256</ele>
<time>2010-08-29T13:52:48Z</time>
<desc>lat.=56.077499, lon.=26.535330, Alt.=96.825256m. Speed=11.988000m/h.</desc>
<speed>3.330000</speed>
</trkpt>
<trkpt lat="56.077522" lon="26.535364">
<ele>96.751038</ele>
<time>2010-08-29T13:52:49Z</time>
<desc>lat.=56.077522, lon.=26.535364, Alt.=96.751038m. Speed=10.656000m/h.</desc>
<speed>2.960000</speed>
</trkpt>
<trkpt lat="56.077541" lon="26.535391">
<ele>96.774475</ele>
<time>2010-08-29T13:52:50Z</time>
<desc>lat.=56.077541, lon.=26.535391, Alt.=96.774475m. Speed=9.900000m/h.</desc>
<speed>2.750000</speed>
</trkpt>
<trkpt lat="56.077560" lon="26.535414">
<ele>96.532288</ele>
<time>2010-08-29T13:52:51Z</time>
<desc>lat.=56.077560, lon.=26.535414, Alt.=96.532288m. Speed=9.648000m/h.</desc>
<speed>2.680000</speed>
</trkpt>
<trkpt lat="56.077583" lon="26.535431">
<ele>96.631897</ele>
<time>2010-08-29T13:52:52Z</time>
<desc>lat.=56.077583, lon.=26.535431, Alt.=96.631897m. Speed=8.532000m/h.</desc>
<speed>2.370000</speed>
</trkpt>
<trkpt lat="56.077610" lon="26.535454">
<ele>97.391663</ele>
<time>2010-08-29T13:52:53Z</time>
<desc>lat.=56.077610, lon.=26.535454, Alt.=97.391663m. Speed=8.676000m/h.</desc>
<speed>2.410000</speed>
</trkpt>
<trkpt lat="56.077629" lon="26.535473">
<ele>97.598694</ele>
<time>2010-08-29T13:52:54Z</time>
<desc>lat.=56.077629, lon.=26.535473, Alt.=97.598694m. Speed=7.380000m/h.</desc>
<speed>2.050000</speed>
</trkpt>
<trkpt lat="56.077641" lon="26.535490">
<ele>96.999084</ele>
<time>2010-08-29T13:52:55Z</time>
<desc>lat.=56.077641, lon.=26.535490, Alt.=96.999084m. Speed=6.120000m/h.</desc>
<speed>1.700000</speed>
</trkpt>
<trkpt lat="56.077652" lon="26.535503">
<ele>96.674866</ele>
<time>2010-08-29T13:52:56Z</time>
<desc>lat.=56.077652, lon.=26.535503, Alt.=96.674866m. Speed=5.004000m/h.</desc>
<speed>1.390000</speed>
</trkpt>
<trkpt lat="56.077660" lon="26.535507">
<ele>96.243225</ele>
<time>2010-08-29T13:52:57Z</time>
<desc>lat.=56.077660, lon.=26.535507, Alt.=96.243225m. Speed=4.896000m/h.</desc>
<speed>1.360000</speed>
</trkpt>
<trkpt lat="56.077671" lon="26.535515">
<ele>96.790100</ele>
<time>2010-08-29T13:52:58Z</time>
<desc>lat.=56.077671, lon.=26.535515, Alt.=96.790100m. Speed=4.392000m/h.</desc>
<speed>1.220000</speed>
</trkpt>
<trkpt lat="56.077682" lon="26.535521">
<ele>96.368225</ele>
<time>2010-08-29T13:52:59Z</time>
<desc>lat.=56.077682, lon.=26.535521, Alt.=96.368225m. Speed=3.636000m/h.</desc>
<speed>1.010000</speed>
</trkpt>
<trkpt lat="56.077686" lon="26.535528">
<ele>96.282288</ele>
<time>2010-08-29T13:53:00Z</time>
<desc>lat.=56.077686, lon.=26.535528, Alt.=96.282288m. Speed=3.528000m/h.</desc>
<speed>0.980000</speed>
</trkpt>
<trkpt lat="56.077698" lon="26.535534">
<ele>96.460022</ele>
<time>2010-08-29T13:53:01Z</time>
<desc>lat.=56.077698, lon.=26.535534, Alt.=96.460022m. Speed=4.572000m/h.</desc>
<speed>1.270000</speed>
</trkpt>
<trkpt lat="56.077709" lon="26.535540">
<ele>96.557678</ele>
<time>2010-08-29T13:53:02Z</time>
<desc>lat.=56.077709, lon.=26.535540, Alt.=96.557678m. Speed=5.580000m/h.</desc>
<speed>1.550000</speed>
</trkpt>
<trkpt lat="56.077721" lon="26.535563">
<ele>96.688538</ele>
<time>2010-08-29T13:53:03Z</time>
<desc>lat.=56.077721, lon.=26.535563, Alt.=96.688538m. Speed=6.624000m/h.</desc>
<speed>1.840000</speed>
</trkpt>
<trkpt lat="56.077740" lon="26.535578">
<ele>96.592834</ele>
<time>2010-08-29T13:53:04Z</time>
<desc>lat.=56.077740, lon.=26.535578, Alt.=96.592834m. Speed=7.380000m/h.</desc>
<speed>2.050000</speed>
</trkpt>
<trkpt lat="56.077759" lon="26.535595">
<ele>96.627991</ele>
<time>2010-08-29T13:53:05Z</time>
<desc>lat.=56.077759, lon.=26.535595, Alt.=96.627991m. Speed=8.532000m/h.</desc>
<speed>2.370000</speed>
</trkpt>
<trkpt lat="56.077778" lon="26.535614">
<ele>96.758850</ele>
<time>2010-08-29T13:53:06Z</time>
<desc>lat.=56.077778, lon.=26.535614, Alt.=96.758850m. Speed=9.036000m/h.</desc>
<speed>2.510000</speed>
</trkpt>
<trkpt lat="56.077797" lon="26.535633">
<ele>96.842834</ele>
<time>2010-08-29T13:53:07Z</time>
<desc>lat.=56.077797, lon.=26.535633, Alt.=96.842834m. Speed=8.460000m/h.</desc>
<speed>2.350000</speed>
</trkpt>
<trkpt lat="56.077816" lon="26.535650">
<ele>96.856506</ele>
<time>2010-08-29T13:53:08Z</time>
<desc>lat.=56.077816, lon.=26.535650, Alt.=96.856506m. Speed=7.884000m/h.</desc>
<speed>2.190000</speed>
</trkpt>
<trkpt lat="56.077831" lon="26.535667">
<ele>96.938538</ele>
<time>2010-08-29T13:53:09Z</time>
<desc>lat.=56.077831, lon.=26.535667, Alt.=96.938538m. Speed=8.172000m/h.</desc>
<speed>2.270000</speed>
</trkpt>
<trkpt lat="56.077850" lon="26.535686">
<ele>97.040100</ele>
<time>2010-08-29T13:53:10Z</time>
<desc>lat.=56.077850, lon.=26.535686, Alt.=97.040100m. Speed=7.884000m/h.</desc>
<speed>2.190000</speed>
</trkpt>
<trkpt lat="56.077862" lon="26.535698">
<ele>97.034241</ele>
<time>2010-08-29T13:53:11Z</time>
<desc>lat.=56.077862, lon.=26.535698, Alt.=97.034241m. Speed=7.488000m/h.</desc>
<speed>2.080000</speed>
</trkpt>
<trkpt lat="56.077881" lon="26.535713">
<ele>97.163147</ele>
<time>2010-08-29T13:53:12Z</time>
<desc>lat.=56.077881, lon.=26.535713, Alt.=97.163147m. Speed=7.740000m/h.</desc>
<speed>2.150000</speed>
</trkpt>
<trkpt lat="56.077900" lon="26.535736">
<ele>97.233459</ele>
<time>2010-08-29T13:53:13Z</time>
<desc>lat.=56.077900, lon.=26.535736, Alt.=97.233459m. Speed=10.584000m/h.</desc>
<speed>2.940000</speed>
</trkpt>
<trkpt lat="56.077927" lon="26.535763">
<ele>97.430725</ele>
<time>2010-08-29T13:53:14Z</time>
<desc>lat.=56.077927, lon.=26.535763, Alt.=97.430725m. Speed=9.648000m/h.</desc>
<speed>2.680000</speed>
</trkpt>
<trkpt lat="56.077953" lon="26.535782">
<ele>97.516663</ele>
<time>2010-08-29T13:53:15Z</time>
<desc>lat.=56.077953, lon.=26.535782, Alt.=97.516663m. Speed=10.296000m/h.</desc>
<speed>2.860000</speed>
</trkpt>
<trkpt lat="56.077976" lon="26.535801">
<ele>97.612366</ele>
<time>2010-08-29T13:53:16Z</time>
<desc>lat.=56.077976, lon.=26.535801, Alt.=97.612366m. Speed=9.504000m/h.</desc>
<speed>2.640000</speed>
</trkpt>
<trkpt lat="56.077995" lon="26.535824">
<ele>97.667053</ele>
<time>2010-08-29T13:53:17Z</time>
<desc>lat.=56.077995, lon.=26.535824, Alt.=97.667053m. Speed=9.432000m/h.</desc>
<speed>2.620000</speed>
</trkpt>
<trkpt lat="56.078014" lon="26.535856">
<ele>97.946350</ele>
<time>2010-08-29T13:53:18Z</time>
<desc>lat.=56.078014, lon.=26.535856, Alt.=97.946350m. Speed=8.208000m/h.</desc>
<speed>2.280000</speed>
</trkpt>
<trkpt lat="56.078030" lon="26.535883">
<ele>97.965881</ele>
<time>2010-08-29T13:53:19Z</time>
<desc>lat.=56.078030, lon.=26.535883, Alt.=97.965881m. Speed=8.964000m/h.</desc>
<speed>2.490000</speed>
</trkpt>
<trkpt lat="56.078049" lon="26.535910">
<ele>97.971741</ele>
<time>2010-08-29T13:53:20Z</time>
<desc>lat.=56.078049, lon.=26.535910, Alt.=97.971741m. Speed=10.908000m/h.</desc>
<speed>3.030000</speed>
</trkpt>
<trkpt lat="56.078072" lon="26.535929">
<ele>98.065491</ele>
<time>2010-08-29T13:53:21Z</time>
<desc>lat.=56.078072, lon.=26.535929, Alt.=98.065491m. Speed=11.160000m/h.</desc>
<speed>3.100000</speed>
</trkpt>
<trkpt lat="56.078098" lon="26.535952">
<ele>98.114319</ele>
<time>2010-08-29T13:53:22Z</time>
<desc>lat.=56.078098, lon.=26.535952, Alt.=98.114319m. Speed=11.520000m/h.</desc>
<speed>3.200000</speed>
</trkpt>
<trkpt lat="56.078121" lon="26.535969">
<ele>98.110413</ele>
<time>2010-08-29T13:53:23Z</time>
<desc>lat.=56.078121, lon.=26.535969, Alt.=98.110413m. Speed=11.412000m/h.</desc>
<speed>3.170000</speed>
</trkpt>
<trkpt lat="56.078144" lon="26.535990">
<ele>98.225647</ele>
<time>2010-08-29T13:53:24Z</time>
<desc>lat.=56.078144, lon.=26.535990, Alt.=98.225647m. Speed=9.792000m/h.</desc>
<speed>2.720000</speed>
</trkpt>
<trkpt lat="56.078167" lon="26.536011">
<ele>98.305725</ele>
<time>2010-08-29T13:53:25Z</time>
<desc>lat.=56.078167, lon.=26.536011, Alt.=98.305725m. Speed=10.152000m/h.</desc>
<speed>2.820000</speed>
</trkpt>
<trkpt lat="56.078194" lon="26.536034">
<ele>98.475647</ele>
<time>2010-08-29T13:53:26Z</time>
<desc>lat.=56.078194, lon.=26.536034, Alt.=98.475647m. Speed=11.124000m/h.</desc>
<speed>3.090000</speed>
</trkpt>
<trkpt lat="56.078217" lon="26.536062">
<ele>98.561584</ele>
<time>2010-08-29T13:53:27Z</time>
<desc>lat.=56.078217, lon.=26.536062, Alt.=98.561584m. Speed=12.384000m/h.</desc>
<speed>3.440000</speed>
</trkpt>
<trkpt lat="56.078247" lon="26.536091">
<ele>98.670959</ele>
<time>2010-08-29T13:53:28Z</time>
<desc>lat.=56.078247, lon.=26.536091, Alt.=98.670959m. Speed=13.104000m/h.</desc>
<speed>3.640000</speed>
</trkpt>
<trkpt lat="56.078274" lon="26.536118">
<ele>98.850647</ele>
<time>2010-08-29T13:53:29Z</time>
<desc>lat.=56.078274, lon.=26.536118, Alt.=98.850647m. Speed=13.788000m/h.</desc>
<speed>3.830000</speed>
</trkpt>
<trkpt lat="56.078304" lon="26.536140">
<ele>98.799866</ele>
<time>2010-08-29T13:53:30Z</time>
<desc>lat.=56.078304, lon.=26.536140, Alt.=98.799866m. Speed=14.112000m/h.</desc>
<speed>3.920000</speed>
</trkpt>
<trkpt lat="56.078335" lon="26.536175">
<ele>99.049866</ele>
<time>2010-08-29T13:53:31Z</time>
<desc>lat.=56.078335, lon.=26.536175, Alt.=99.049866m. Speed=15.624000m/h.</desc>
<speed>4.340000</speed>
</trkpt>
<trkpt lat="56.078369" lon="26.536209">
<ele>99.303772</ele>
<time>2010-08-29T13:53:32Z</time>
<desc>lat.=56.078369, lon.=26.536209, Alt.=99.303772m. Speed=16.632000m/h.</desc>
<speed>4.620000</speed>
</trkpt>
<trkpt lat="56.078403" lon="26.536242">
<ele>99.520569</ele>
<time>2010-08-29T13:53:33Z</time>
<desc>lat.=56.078403, lon.=26.536242, Alt.=99.520569m. Speed=15.696000m/h.</desc>
<speed>4.360000</speed>
</trkpt>
<trkpt lat="56.078438" lon="26.536270">
<ele>99.549866</ele>
<time>2010-08-29T13:53:34Z</time>
<desc>lat.=56.078438, lon.=26.536270, Alt.=99.549866m. Speed=16.740000m/h.</desc>
<speed>4.650000</speed>
</trkpt>
<trkpt lat="56.078472" lon="26.536304">
<ele>99.594788</ele>
<time>2010-08-29T13:53:35Z</time>
<desc>lat.=56.078472, lon.=26.536304, Alt.=99.594788m. Speed=16.848000m/h.</desc>
<speed>4.680000</speed>
</trkpt>
<trkpt lat="56.078499" lon="26.536350">
<ele>99.670959</ele>
<time>2010-08-29T13:53:36Z</time>
<desc>lat.=56.078499, lon.=26.536350, Alt.=99.670959m. Speed=16.488001m/h.</desc>
<speed>4.580000</speed>
</trkpt>
<trkpt lat="56.078533" lon="26.536375">
<ele>99.506897</ele>
<time>2010-08-29T13:53:37Z</time>
<desc>lat.=56.078533, lon.=26.536375, Alt.=99.506897m. Speed=16.740000m/h.</desc>
<speed>4.650000</speed>
</trkpt>
<trkpt lat="56.078568" lon="26.536409">
<ele>99.290100</ele>
<time>2010-08-29T13:53:38Z</time>
<desc>lat.=56.078568, lon.=26.536409, Alt.=99.290100m. Speed=16.416000m/h.</desc>
<speed>4.560000</speed>
</trkpt>
<trkpt lat="56.078602" lon="26.536440">
<ele>99.036194</ele>
<time>2010-08-29T13:53:39Z</time>
<desc>lat.=56.078602, lon.=26.536440, Alt.=99.036194m. Speed=15.048000m/h.</desc>
<speed>4.180000</speed>
</trkpt>
<trkpt lat="56.078636" lon="26.536467">
<ele>99.016663</ele>
<time>2010-08-29T13:53:40Z</time>
<desc>lat.=56.078636, lon.=26.536467, Alt.=99.016663m. Speed=14.544000m/h.</desc>
<speed>4.040000</speed>
</trkpt>
<trkpt lat="56.078671" lon="26.536499">
<ele>99.108459</ele>
<time>2010-08-29T13:53:41Z</time>
<desc>lat.=56.078671, lon.=26.536499, Alt.=99.108459m. Speed=15.696000m/h.</desc>
<speed>4.360000</speed>
</trkpt>
<trkpt lat="56.078705" lon="26.536526">
<ele>99.397522</ele>
<time>2010-08-29T13:53:42Z</time>
<desc>lat.=56.078705, lon.=26.536526, Alt.=99.397522m. Speed=14.472000m/h.</desc>
<speed>4.020000</speed>
</trkpt>
<trkpt lat="56.078732" lon="26.536556">
<ele>99.692444</ele>
<time>2010-08-29T13:53:43Z</time>
<desc>lat.=56.078732, lon.=26.536556, Alt.=99.692444m. Speed=12.636000m/h.</desc>
<speed>3.510000</speed>
</trkpt>
<trkpt lat="56.078758" lon="26.536587">
<ele>99.866272</ele>
<time>2010-08-29T13:53:44Z</time>
<desc>lat.=56.078758, lon.=26.536587, Alt.=99.866272m. Speed=12.096000m/h.</desc>
<speed>3.360000</speed>
</trkpt>
<trkpt lat="56.078781" lon="26.536615">
<ele>100.120178</ele>
<time>2010-08-29T13:53:45Z</time>
<desc>lat.=56.078781, lon.=26.536615, Alt.=100.120178m. Speed=11.412000m/h.</desc>
<speed>3.170000</speed>
</trkpt>
<trkpt lat="56.078800" lon="26.536636">
<ele>99.952209</ele>
<time>2010-08-29T13:53:46Z</time>
<desc>lat.=56.078800, lon.=26.536636, Alt.=99.952209m. Speed=10.116000m/h.</desc>
<speed>2.810000</speed>
</trkpt>
<trkpt lat="56.078819" lon="26.536657">
<ele>100.067444</ele>
<time>2010-08-29T13:53:47Z</time>
<desc>lat.=56.078819, lon.=26.536657, Alt.=100.067444m. Speed=10.656000m/h.</desc>
<speed>2.960000</speed>
</trkpt>
<trkpt lat="56.078842" lon="26.536682">
<ele>100.377991</ele>
<time>2010-08-29T13:53:48Z</time>
<desc>lat.=56.078842, lon.=26.536682, Alt.=100.377991m. Speed=9.504000m/h.</desc>
<speed>2.640000</speed>
</trkpt>
<trkpt lat="56.078861" lon="26.536703">
<ele>100.413147</ele>
<time>2010-08-29T13:53:49Z</time>
<desc>lat.=56.078861, lon.=26.536703, Alt.=100.413147m. Speed=8.388000m/h.</desc>
<speed>2.330000</speed>
</trkpt>
<trkpt lat="56.078876" lon="26.536720">
<ele>100.426819</ele>
<time>2010-08-29T13:53:50Z</time>
<desc>lat.=56.078876, lon.=26.536720, Alt.=100.426819m. Speed=7.992000m/h.</desc>
<speed>2.220000</speed>
</trkpt>
<trkpt lat="56.078896" lon="26.536739">
<ele>100.926819</ele>
<time>2010-08-29T13:53:51Z</time>
<desc>lat.=56.078896, lon.=26.536739, Alt.=100.926819m. Speed=7.020000m/h.</desc>
<speed>1.950000</speed>
</trkpt>
<trkpt lat="56.078911" lon="26.536757">
<ele>101.139709</ele>
<time>2010-08-29T13:53:52Z</time>
<desc>lat.=56.078911, lon.=26.536757, Alt.=101.139709m. Speed=6.516000m/h.</desc>
<speed>1.810000</speed>
</trkpt>
<trkpt lat="56.078926" lon="26.536774">
<ele>101.309631</ele>
<time>2010-08-29T13:53:53Z</time>
<desc>lat.=56.078926, lon.=26.536774, Alt.=101.309631m. Speed=6.444000m/h.</desc>
<speed>1.790000</speed>
</trkpt>
<trkpt lat="56.078938" lon="26.536793">
<ele>101.538147</ele>
<time>2010-08-29T13:53:54Z</time>
<desc>lat.=56.078938, lon.=26.536793, Alt.=101.538147m. Speed=6.012000m/h.</desc>
<speed>1.670000</speed>
</trkpt>
<trkpt lat="56.078953" lon="26.536810">
<ele>102.049866</ele>
<time>2010-08-29T13:53:55Z</time>
<desc>lat.=56.078953, lon.=26.536810, Alt.=102.049866m. Speed=5.832000m/h.</desc>
<speed>1.620000</speed>
</trkpt>
<trkpt lat="56.078960" lon="26.536827">
<ele>102.227600</ele>
<time>2010-08-29T13:53:56Z</time>
<desc>lat.=56.078960, lon.=26.536827, Alt.=102.227600m. Speed=5.400000m/h.</desc>
<speed>1.500000</speed>
</trkpt>
<trkpt lat="56.078972" lon="26.536840">
<ele>102.461975</ele>
<time>2010-08-29T13:53:57Z</time>
<desc>lat.=56.078972, lon.=26.536840, Alt.=102.461975m. Speed=5.256000m/h.</desc>
<speed>1.460000</speed>
</trkpt>
<trkpt lat="56.078987" lon="26.536852">
<ele>102.665100</ele>
<time>2010-08-29T13:53:58Z</time>
<desc>lat.=56.078987, lon.=26.536852, Alt.=102.665100m. Speed=5.256000m/h.</desc>
<speed>1.460000</speed>
</trkpt>
<trkpt lat="56.078995" lon="26.536860">
<ele>103.032288</ele>
<time>2010-08-29T13:53:59Z</time>
<desc>lat.=56.078995, lon.=26.536860, Alt.=103.032288m. Speed=6.948000m/h.</desc>
<speed>1.930000</speed>
</trkpt>
<trkpt lat="56.079010" lon="26.536873">
<ele>103.309631</ele>
<time>2010-08-29T13:54:00Z</time>
<desc>lat.=56.079010, lon.=26.536873, Alt.=103.309631m. Speed=6.444000m/h.</desc>
<speed>1.790000</speed>
</trkpt>
<trkpt lat="56.079025" lon="26.536888">
<ele>103.590881</ele>
<time>2010-08-29T13:54:01Z</time>
<desc>lat.=56.079025, lon.=26.536888, Alt.=103.590881m. Speed=6.516000m/h.</desc>
<speed>1.810000</speed>
</trkpt>
<trkpt lat="56.079048" lon="26.536896">
<ele>103.235413</ele>
<time>2010-08-29T13:54:02Z</time>
<desc>lat.=56.079048, lon.=26.536896, Alt.=103.235413m. Speed=6.552000m/h.</desc>
<speed>1.820000</speed>
</trkpt>
<trkpt lat="56.079063" lon="26.536909">
<ele>103.292053</ele>
<time>2010-08-29T13:54:03Z</time>
<desc>lat.=56.079063, lon.=26.536909, Alt.=103.292053m. Speed=6.228000m/h.</desc>
<speed>1.730000</speed>
</trkpt>
<trkpt lat="56.079075" lon="26.536926">
<ele>103.665100</ele>
<time>2010-08-29T13:54:04Z</time>
<desc>lat.=56.079075, lon.=26.536926, Alt.=103.665100m. Speed=6.228000m/h.</desc>
<speed>1.730000</speed>
</trkpt>
<trkpt lat="56.079090" lon="26.536938">
<ele>103.752991</ele>
<time>2010-08-29T13:54:05Z</time>
<desc>lat.=56.079090, lon.=26.536938, Alt.=103.752991m. Speed=6.228000m/h.</desc>
<speed>1.730000</speed>
</trkpt>
<trkpt lat="56.079105" lon="26.536947">
<ele>103.702209</ele>
<time>2010-08-29T13:54:06Z</time>
<desc>lat.=56.079105, lon.=26.536947, Alt.=103.702209m. Speed=6.588000m/h.</desc>
<speed>1.830000</speed>
</trkpt>
<trkpt lat="56.079109" lon="26.536949">
<ele>102.809631</ele>
<time>2010-08-29T13:54:07Z</time>
<desc>lat.=56.079109, lon.=26.536949, Alt.=102.809631m. Speed=5.724000m/h.</desc>
<speed>1.590000</speed>
</trkpt>
<trkpt lat="56.079124" lon="26.536959">
<ele>102.504944</ele>
<time>2010-08-29T13:54:08Z</time>
<desc>lat.=56.079124, lon.=26.536959, Alt.=102.504944m. Speed=6.444000m/h.</desc>
<speed>1.790000</speed>
</trkpt>
<trkpt lat="56.079136" lon="26.536968">
<ele>102.377991</ele>
<time>2010-08-29T13:54:09Z</time>
<desc>lat.=56.079136, lon.=26.536968, Alt.=102.377991m. Speed=5.616000m/h.</desc>
<speed>1.560000</speed>
</trkpt>
<trkpt lat="56.079147" lon="26.536976">
<ele>102.278381</ele>
<time>2010-08-29T13:54:10Z</time>
<desc>lat.=56.079147, lon.=26.536976, Alt.=102.278381m. Speed=5.256000m/h.</desc>
<speed>1.460000</speed>
</trkpt>
<trkpt lat="56.079163" lon="26.536987">
<ele>102.399475</ele>
<time>2010-08-29T13:54:11Z</time>
<desc>lat.=56.079163, lon.=26.536987, Alt.=102.399475m. Speed=5.472000m/h.</desc>
<speed>1.520000</speed>
</trkpt>
<trkpt lat="56.079178" lon="26.536999">
<ele>102.268616</ele>
<time>2010-08-29T13:54:12Z</time>
<desc>lat.=56.079178, lon.=26.536999, Alt.=102.268616m. Speed=5.760000m/h.</desc>
<speed>1.600000</speed>
</trkpt>
<trkpt lat="56.079189" lon="26.537014">
<ele>102.251038</ele>
<time>2010-08-29T13:54:13Z</time>
<desc>lat.=56.079189, lon.=26.537014, Alt.=102.251038m. Speed=5.508000m/h.</desc>
<speed>1.530000</speed>
</trkpt>
<trkpt lat="56.079205" lon="26.537024">
<ele>102.379944</ele>
<time>2010-08-29T13:54:14Z</time>
<desc>lat.=56.079205, lon.=26.537024, Alt.=102.379944m. Speed=6.012000m/h.</desc>
<speed>1.670000</speed>
</trkpt>
<trkpt lat="56.079212" lon="26.537035">
<ele>102.254944</ele>
<time>2010-08-29T13:54:15Z</time>
<desc>lat.=56.079212, lon.=26.537035, Alt.=102.254944m. Speed=4.716000m/h.</desc>
<speed>1.310000</speed>
</trkpt>
<trkpt lat="56.079224" lon="26.537048">
<ele>102.145569</ele>
<time>2010-08-29T13:54:16Z</time>
<desc>lat.=56.079224, lon.=26.537048, Alt.=102.145569m. Speed=5.940000m/h.</desc>
<speed>1.650000</speed>
</trkpt>
<trkpt lat="56.079235" lon="26.537066">
<ele>102.032288</ele>
<time>2010-08-29T13:54:17Z</time>
<desc>lat.=56.079235, lon.=26.537066, Alt.=102.032288m. Speed=5.688000m/h.</desc>
<speed>1.580000</speed>
</trkpt>
<trkpt lat="56.079250" lon="26.537079">
<ele>101.987366</ele>
<time>2010-08-29T13:54:18Z</time>
<desc>lat.=56.079250, lon.=26.537079, Alt.=101.987366m. Speed=6.336000m/h.</desc>
<speed>1.760000</speed>
</trkpt>
<trkpt lat="56.079266" lon="26.537090">
<ele>101.919006</ele>
<time>2010-08-29T13:54:19Z</time>
<desc>lat.=56.079266, lon.=26.537090, Alt.=101.919006m. Speed=6.156000m/h.</desc>
<speed>1.710000</speed>
</trkpt>
<trkpt lat="56.079281" lon="26.537098">
<ele>101.833069</ele>
<time>2010-08-29T13:54:20Z</time>
<desc>lat.=56.079281, lon.=26.537098, Alt.=101.833069m. Speed=6.912000m/h.</desc>
<speed>1.920000</speed>
</trkpt>
<trkpt lat="56.079288" lon="26.537115">
<ele>101.827209</ele>
<time>2010-08-29T13:54:21Z</time>
<desc>lat.=56.079288, lon.=26.537115, Alt.=101.827209m. Speed=9.756000m/h.</desc>
<speed>2.710000</speed>
</trkpt>
<trkpt lat="56.079308" lon="26.537136">
<ele>101.760803</ele>
<time>2010-08-29T13:54:22Z</time>
<desc>lat.=56.079308, lon.=26.537136, Alt.=101.760803m. Speed=9.468000m/h.</desc>
<speed>2.630000</speed>
</trkpt>
<trkpt lat="56.079334" lon="26.537161">
<ele>101.665100</ele>
<time>2010-08-29T13:54:23Z</time>
<desc>lat.=56.079334, lon.=26.537161, Alt.=101.665100m. Speed=12.780000m/h.</desc>
<speed>3.550000</speed>
</trkpt>
<trkpt lat="56.079361" lon="26.537193">
<ele>101.342834</ele>
<time>2010-08-29T13:54:24Z</time>
<desc>lat.=56.079361, lon.=26.537193, Alt.=101.342834m. Speed=15.408000m/h.</desc>
<speed>4.280000</speed>
</trkpt>
<trkpt lat="56.079399" lon="26.537231">
<ele>101.083069</ele>
<time>2010-08-29T13:54:25Z</time>
<desc>lat.=56.079399, lon.=26.537231, Alt.=101.083069m. Speed=16.632000m/h.</desc>
<speed>4.620000</speed>
</trkpt>
<trkpt lat="56.079437" lon="26.537285">
<ele>100.393616</ele>
<time>2010-08-29T13:54:26Z</time>
<desc>lat.=56.079437, lon.=26.537285, Alt.=100.393616m. Speed=17.280001m/h.</desc>
<speed>4.800000</speed>
</trkpt>
<trkpt lat="56.079483" lon="26.537325">
<ele>100.073303</ele>
<time>2010-08-29T13:54:27Z</time>
<desc>lat.=56.079483, lon.=26.537325, Alt.=100.073303m. Speed=18.396000m/h.</desc>
<speed>5.110000</speed>
</trkpt>
<trkpt lat="56.079525" lon="26.537365">
<ele>100.022522</ele>
<time>2010-08-29T13:54:28Z</time>
<desc>lat.=56.079525, lon.=26.537365, Alt.=100.022522m. Speed=19.548000m/h.</desc>
<speed>5.430000</speed>
</trkpt>
<trkpt lat="56.079571" lon="26.537409">
<ele>99.754944</ele>
<time>2010-08-29T13:54:29Z</time>
<desc>lat.=56.079571, lon.=26.537409, Alt.=99.754944m. Speed=19.584000m/h.</desc>
<speed>5.440000</speed>
</trkpt>
<trkpt lat="56.079617" lon="26.537470">
<ele>99.155334</ele>
<time>2010-08-29T13:54:30Z</time>
<desc>lat.=56.079617, lon.=26.537470, Alt.=99.155334m. Speed=19.691999m/h.</desc>
<speed>5.470000</speed>
</trkpt>
<trkpt lat="56.079662" lon="26.537516">
<ele>98.975647</ele>
<time>2010-08-29T13:54:31Z</time>
<desc>lat.=56.079662, lon.=26.537516, Alt.=98.975647m. Speed=20.375999m/h.</desc>
<speed>5.660000</speed>
</trkpt>
<trkpt lat="56.079708" lon="26.537565">
<ele>98.805725</ele>
<time>2010-08-29T13:54:32Z</time>
<desc>lat.=56.079708, lon.=26.537565, Alt.=98.805725m. Speed=20.628000m/h.</desc>
<speed>5.730000</speed>
</trkpt>
<trkpt lat="56.079758" lon="26.537613">
<ele>98.602600</ele>
<time>2010-08-29T13:54:33Z</time>
<desc>lat.=56.079758, lon.=26.537613, Alt.=98.602600m. Speed=20.664000m/h.</desc>
<speed>5.740000</speed>
</trkpt>
<trkpt lat="56.079803" lon="26.537659">
<ele>98.569397</ele>
<time>2010-08-29T13:54:34Z</time>
<desc>lat.=56.079803, lon.=26.537659, Alt.=98.569397m. Speed=19.944000m/h.</desc>
<speed>5.540000</speed>
</trkpt>
<trkpt lat="56.079849" lon="26.537708">
<ele>98.581116</ele>
<time>2010-08-29T13:54:35Z</time>
<desc>lat.=56.079849, lon.=26.537708, Alt.=98.581116m. Speed=20.952000m/h.</desc>
<speed>5.820000</speed>
</trkpt>
<trkpt lat="56.079903" lon="26.537756">
<ele>98.606506</ele>
<time>2010-08-29T13:54:36Z</time>
<desc>lat.=56.079903, lon.=26.537756, Alt.=98.606506m. Speed=21.384001m/h.</desc>
<speed>5.940000</speed>
</trkpt>
<trkpt lat="56.079952" lon="26.537800">
<ele>98.573303</ele>
<time>2010-08-29T13:54:37Z</time>
<desc>lat.=56.079952, lon.=26.537800, Alt.=98.573303m. Speed=21.492001m/h.</desc>
<speed>5.970000</speed>
</trkpt>
<trkpt lat="56.080002" lon="26.537846">
<ele>98.504944</ele>
<time>2010-08-29T13:54:38Z</time>
<desc>lat.=56.080002, lon.=26.537846, Alt.=98.504944m. Speed=21.348000m/h.</desc>
<speed>5.930000</speed>
</trkpt>
<trkpt lat="56.080048" lon="26.537888">
<ele>98.338928</ele>
<time>2010-08-29T13:54:39Z</time>
<desc>lat.=56.080048, lon.=26.537888, Alt.=98.338928m. Speed=20.268000m/h.</desc>
<speed>5.630000</speed>
</trkpt>
<trkpt lat="56.080090" lon="26.537935">
<ele>98.167053</ele>
<time>2010-08-29T13:54:40Z</time>
<desc>lat.=56.080090, lon.=26.537935, Alt.=98.167053m. Speed=20.916000m/h.</desc>
<speed>5.810000</speed>
</trkpt>
<trkpt lat="56.080143" lon="26.537983">
<ele>97.694397</ele>
<time>2010-08-29T13:54:41Z</time>
<desc>lat.=56.080143, lon.=26.537983, Alt.=97.694397m. Speed=21.132000m/h.</desc>
<speed>5.870000</speed>
</trkpt>
<trkpt lat="56.080189" lon="26.538033">
<ele>97.362366</ele>
<time>2010-08-29T13:54:42Z</time>
<desc>lat.=56.080189, lon.=26.538033, Alt.=97.362366m. Speed=21.816000m/h.</desc>
<speed>6.060000</speed>
</trkpt>
<trkpt lat="56.080235" lon="26.538080">
<ele>96.928772</ele>
<time>2010-08-29T13:54:43Z</time>
<desc>lat.=56.080235, lon.=26.538080, Alt.=96.928772m. Speed=21.563999m/h.</desc>
<speed>5.990000</speed>
</trkpt>
<trkpt lat="56.080284" lon="26.538124">
<ele>96.590881</ele>
<time>2010-08-29T13:54:44Z</time>
<desc>lat.=56.080284, lon.=26.538124, Alt.=96.590881m. Speed=20.916000m/h.</desc>
<speed>5.810000</speed>
</trkpt>
<trkpt lat="56.080322" lon="26.538162">
<ele>95.735413</ele>
<time>2010-08-29T13:54:45Z</time>
<desc>lat.=56.080322, lon.=26.538162, Alt.=95.735413m. Speed=21.059999m/h.</desc>
<speed>5.850000</speed>
</trkpt>
<trkpt lat="56.080368" lon="26.538210">
<ele>95.467834</ele>
<time>2010-08-29T13:54:46Z</time>
<desc>lat.=56.080368, lon.=26.538210, Alt.=95.467834m. Speed=22.176001m/h.</desc>
<speed>6.160000</speed>
</trkpt>
<trkpt lat="56.080414" lon="26.538260">
<ele>94.956116</ele>
<time>2010-08-29T13:54:47Z</time>
<desc>lat.=56.080414, lon.=26.538260, Alt.=94.956116m. Speed=20.736000m/h.</desc>
<speed>5.760000</speed>
</trkpt>
<trkpt lat="56.080463" lon="26.538303">
<ele>94.893616</ele>
<time>2010-08-29T13:54:48Z</time>
<desc>lat.=56.080463, lon.=26.538303, Alt.=94.893616m. Speed=20.879999m/h.</desc>
<speed>5.800000</speed>
</trkpt>
<trkpt lat="56.080505" lon="26.538347">
<ele>94.711975</ele>
<time>2010-08-29T13:54:49Z</time>
<desc>lat.=56.080505, lon.=26.538347, Alt.=94.711975m. Speed=19.764000m/h.</desc>
<speed>5.490000</speed>
</trkpt>
<trkpt lat="56.080547" lon="26.538399">
<ele>94.504944</ele>
<time>2010-08-29T13:54:50Z</time>
<desc>lat.=56.080547, lon.=26.538399, Alt.=94.504944m. Speed=19.764000m/h.</desc>
<speed>5.490000</speed>
</trkpt>
<trkpt lat="56.080593" lon="26.538446">
<ele>94.333069</ele>
<time>2010-08-29T13:54:51Z</time>
<desc>lat.=56.080593, lon.=26.538446, Alt.=94.333069m. Speed=20.340000m/h.</desc>
<speed>5.650000</speed>
</trkpt>
<trkpt lat="56.080639" lon="26.538486">
<ele>94.508850</ele>
<time>2010-08-29T13:54:52Z</time>
<desc>lat.=56.080639, lon.=26.538486, Alt.=94.508850m. Speed=19.080000m/h.</desc>
<speed>5.300000</speed>
</trkpt>
<trkpt lat="56.080685" lon="26.538525">
<ele>94.448303</ele>
<time>2010-08-29T13:54:53Z</time>
<desc>lat.=56.080685, lon.=26.538525, Alt.=94.448303m. Speed=19.799999m/h.</desc>
<speed>5.500000</speed>
</trkpt>
<trkpt lat="56.080730" lon="26.538567">
<ele>94.335022</ele>
<time>2010-08-29T13:54:54Z</time>
<desc>lat.=56.080730, lon.=26.538567, Alt.=94.335022m. Speed=19.152000m/h.</desc>
<speed>5.320000</speed>
</trkpt>
<trkpt lat="56.080772" lon="26.538609">
<ele>94.159241</ele>
<time>2010-08-29T13:54:55Z</time>
<desc>lat.=56.080772, lon.=26.538609, Alt.=94.159241m. Speed=19.620001m/h.</desc>
<speed>5.450000</speed>
</trkpt>
<trkpt lat="56.080818" lon="26.538651">
<ele>93.940491</ele>
<time>2010-08-29T13:54:56Z</time>
<desc>lat.=56.080818, lon.=26.538651, Alt.=93.940491m. Speed=20.232000m/h.</desc>
<speed>5.620000</speed>
</trkpt>
<trkpt lat="56.080860" lon="26.538691">
<ele>93.745178</ele>
<time>2010-08-29T13:54:57Z</time>
<desc>lat.=56.080860, lon.=26.538691, Alt.=93.745178m. Speed=19.152000m/h.</desc>
<speed>5.320000</speed>
</trkpt>
<trkpt lat="56.080902" lon="26.538731">
<ele>93.454163</ele>
<time>2010-08-29T13:54:58Z</time>
<desc>lat.=56.080902, lon.=26.538731, Alt.=93.454163m. Speed=18.504000m/h.</desc>
<speed>5.140000</speed>
</trkpt>
<trkpt lat="56.080936" lon="26.538771">
<ele>92.583069</ele>
<time>2010-08-29T13:54:59Z</time>
<desc>lat.=56.080936, lon.=26.538771, Alt.=92.583069m. Speed=20.520000m/h.</desc>
<speed>5.700000</speed>
</trkpt>
<trkpt lat="56.080975" lon="26.538811">
<ele>92.188538</ele>
<time>2010-08-29T13:55:00Z</time>
<desc>lat.=56.080975, lon.=26.538811, Alt.=92.188538m. Speed=19.224001m/h.</desc>
<speed>5.340000</speed>
</trkpt>
<trkpt lat="56.081020" lon="26.538851">
<ele>92.221741</ele>
<time>2010-08-29T13:55:01Z</time>
<desc>lat.=56.081020, lon.=26.538851, Alt.=92.221741m. Speed=18.864000m/h.</desc>
<speed>5.240000</speed>
</trkpt>
<trkpt lat="56.081066" lon="26.538891">
<ele>92.489319</ele>
<time>2010-08-29T13:55:02Z</time>
<desc>lat.=56.081066, lon.=26.538891, Alt.=92.489319m. Speed=18.864000m/h.</desc>
<speed>5.240000</speed>
</trkpt>
<trkpt lat="56.081104" lon="26.538933">
<ele>92.547913</ele>
<time>2010-08-29T13:55:03Z</time>
<desc>lat.=56.081104, lon.=26.538933, Alt.=92.547913m. Speed=18.252001m/h.</desc>
<speed>5.070000</speed>
</trkpt>
<trkpt lat="56.081150" lon="26.538975">
<ele>93.159241</ele>
<time>2010-08-29T13:55:04Z</time>
<desc>lat.=56.081150, lon.=26.538975, Alt.=93.159241m. Speed=17.316000m/h.</desc>
<speed>4.810000</speed>
</trkpt>
<trkpt lat="56.081184" lon="26.539011">
<ele>93.313538</ele>
<time>2010-08-29T13:55:05Z</time>
<desc>lat.=56.081184, lon.=26.539011, Alt.=93.313538m. Speed=15.624000m/h.</desc>
<speed>4.340000</speed>
</trkpt>
<trkpt lat="56.081219" lon="26.539051">
<ele>93.346741</ele>
<time>2010-08-29T13:55:06Z</time>
<desc>lat.=56.081219, lon.=26.539051, Alt.=93.346741m. Speed=16.271999m/h.</desc>
<speed>4.520000</speed>
</trkpt>
<trkpt lat="56.081253" lon="26.539085">
<ele>93.448303</ele>
<time>2010-08-29T13:55:07Z</time>
<desc>lat.=56.081253, lon.=26.539085, Alt.=93.448303m. Speed=18.035999m/h.</desc>
<speed>5.010000</speed>
</trkpt>
<trkpt lat="56.081291" lon="26.539120">
<ele>93.610413</ele>
<time>2010-08-29T13:55:08Z</time>
<desc>lat.=56.081291, lon.=26.539120, Alt.=93.610413m. Speed=17.820000m/h.</desc>
<speed>4.950000</speed>
</trkpt>
<trkpt lat="56.081326" lon="26.539158">
<ele>93.639709</ele>
<time>2010-08-29T13:55:09Z</time>
<desc>lat.=56.081326, lon.=26.539158, Alt.=93.639709m. Speed=17.856001m/h.</desc>
<speed>4.960000</speed>
</trkpt>
<trkpt lat="56.081360" lon="26.539206">
<ele>93.751038</ele>
<time>2010-08-29T13:55:10Z</time>
<desc>lat.=56.081360, lon.=26.539206, Alt.=93.751038m. Speed=19.691999m/h.</desc>
<speed>5.470000</speed>
</trkpt>
<trkpt lat="56.081402" lon="26.539263">
<ele>93.817444</ele>
<time>2010-08-29T13:55:11Z</time>
<desc>lat.=56.081402, lon.=26.539263, Alt.=93.817444m. Speed=20.160000m/h.</desc>
<speed>5.600000</speed>
</trkpt>
<trkpt lat="56.081440" lon="26.539324">
<ele>93.366272</ele>
<time>2010-08-29T13:55:12Z</time>
<desc>lat.=56.081440, lon.=26.539324, Alt.=93.366272m. Speed=21.959999m/h.</desc>
<speed>6.100000</speed>
</trkpt>
<trkpt lat="56.081482" lon="26.539375">
<ele>92.973694</ele>
<time>2010-08-29T13:55:13Z</time>
<desc>lat.=56.081482, lon.=26.539375, Alt.=92.973694m. Speed=19.224001m/h.</desc>
<speed>5.340000</speed>
</trkpt>
<trkpt lat="56.081512" lon="26.539413">
<ele>92.651428</ele>
<time>2010-08-29T13:55:14Z</time>
<desc>lat.=56.081512, lon.=26.539413, Alt.=92.651428m. Speed=15.696000m/h.</desc>
<speed>4.360000</speed>
</trkpt>
<trkpt lat="56.081551" lon="26.539454">
<ele>92.440491</ele>
<time>2010-08-29T13:55:15Z</time>
<desc>lat.=56.081551, lon.=26.539454, Alt.=92.440491m. Speed=17.136000m/h.</desc>
<speed>4.760000</speed>
</trkpt>
<trkpt lat="56.081608" lon="26.539503">
<ele>91.829163</ele>
<time>2010-08-29T13:55:16Z</time>
<desc>lat.=56.081608, lon.=26.539503, Alt.=91.829163m. Speed=22.572001m/h.</desc>
<speed>6.270000</speed>
</trkpt>
<trkpt lat="56.081673" lon="26.539562">
<ele>90.700256</ele>
<time>2010-08-29T13:55:17Z</time>
<desc>lat.=56.081673, lon.=26.539562, Alt.=90.700256m. Speed=25.488001m/h.</desc>
<speed>7.080000</speed>
</trkpt>
<trkpt lat="56.081738" lon="26.539621">
<ele>89.926819</ele>
<time>2010-08-29T13:55:18Z</time>
<desc>lat.=56.081738, lon.=26.539621, Alt.=89.926819m. Speed=24.299999m/h.</desc>
<speed>6.750000</speed>
</trkpt>
<trkpt lat="56.081802" lon="26.539686">
<ele>89.163147</ele>
<time>2010-08-29T13:55:19Z</time>
<desc>lat.=56.081802, lon.=26.539686, Alt.=89.163147m. Speed=24.336000m/h.</desc>
<speed>6.760000</speed>
</trkpt>
<trkpt lat="56.081860" lon="26.539736">
<ele>89.598694</ele>
<time>2010-08-29T13:55:20Z</time>
<desc>lat.=56.081860, lon.=26.539736, Alt.=89.598694m. Speed=22.716000m/h.</desc>
<speed>6.310000</speed>
</trkpt>
<trkpt lat="56.081928" lon="26.539793">
<ele>90.336975</ele>
<time>2010-08-29T13:55:21Z</time>
<desc>lat.=56.081928, lon.=26.539793, Alt.=90.336975m. Speed=22.572001m/h.</desc>
<speed>6.270000</speed>
</trkpt>
<trkpt lat="56.081989" lon="26.539845">
<ele>91.436584</ele>
<time>2010-08-29T13:55:22Z</time>
<desc>lat.=56.081989, lon.=26.539845, Alt.=91.436584m. Speed=22.032000m/h.</desc>
<speed>6.120000</speed>
</trkpt>
<trkpt lat="56.082047" lon="26.539892">
<ele>91.946350</ele>
<time>2010-08-29T13:55:23Z</time>
<desc>lat.=56.082047, lon.=26.539892, Alt.=91.946350m. Speed=20.952000m/h.</desc>
<speed>5.820000</speed>
</trkpt>
<trkpt lat="56.082092" lon="26.539936">
<ele>92.028381</ele>
<time>2010-08-29T13:55:24Z</time>
<desc>lat.=56.082092, lon.=26.539936, Alt.=92.028381m. Speed=20.844000m/h.</desc>
<speed>5.790000</speed>
</trkpt>
<trkpt lat="56.082138" lon="26.539974">
<ele>91.631897</ele>
<time>2010-08-29T13:55:25Z</time>
<desc>lat.=56.082138, lon.=26.539974, Alt.=91.631897m. Speed=19.764000m/h.</desc>
<speed>5.490000</speed>
</trkpt>
<trkpt lat="56.082180" lon="26.540022">
<ele>92.215881</ele>
<time>2010-08-29T13:55:26Z</time>
<desc>lat.=56.082180, lon.=26.540022, Alt.=92.215881m. Speed=19.188000m/h.</desc>
<speed>5.330000</speed>
</trkpt>
<trkpt lat="56.082226" lon="26.540068">
<ele>92.182678</ele>
<time>2010-08-29T13:55:27Z</time>
<desc>lat.=56.082226, lon.=26.540068, Alt.=92.182678m. Speed=21.240000m/h.</desc>
<speed>5.900000</speed>
</trkpt>
<trkpt lat="56.082272" lon="26.540115">
<ele>92.114319</ele>
<time>2010-08-29T13:55:28Z</time>
<desc>lat.=56.082272, lon.=26.540115, Alt.=92.114319m. Speed=20.700001m/h.</desc>
<speed>5.750000</speed>
</trkpt>
<trkpt lat="56.082325" lon="26.540171">
<ele>91.432678</ele>
<time>2010-08-29T13:55:29Z</time>
<desc>lat.=56.082325, lon.=26.540171, Alt.=91.432678m. Speed=23.364000m/h.</desc>
<speed>6.490000</speed>
</trkpt>
<trkpt lat="56.082375" lon="26.540224">
<ele>91.350647</ele>
<time>2010-08-29T13:55:30Z</time>
<desc>lat.=56.082375, lon.=26.540224, Alt.=91.350647m. Speed=24.011999m/h.</desc>
<speed>6.670000</speed>
</trkpt>
<trkpt lat="56.082428" lon="26.540277">
<ele>91.172913</ele>
<time>2010-08-29T13:55:31Z</time>
<desc>lat.=56.082428, lon.=26.540277, Alt.=91.172913m. Speed=23.903999m/h.</desc>
<speed>6.640000</speed>
</trkpt>
<trkpt lat="56.082485" lon="26.540331">
<ele>90.827209</ele>
<time>2010-08-29T13:55:32Z</time>
<desc>lat.=56.082485, lon.=26.540331, Alt.=90.827209m. Speed=24.372000m/h.</desc>
<speed>6.770000</speed>
</trkpt>
<trkpt lat="56.082539" lon="26.540379">
<ele>90.799866</ele>
<time>2010-08-29T13:55:33Z</time>
<desc>lat.=56.082539, lon.=26.540379, Alt.=90.799866m. Speed=23.400000m/h.</desc>
<speed>6.500000</speed>
</trkpt>
<trkpt lat="56.082588" lon="26.540428">
<ele>90.772522</ele>
<time>2010-08-29T13:55:34Z</time>
<desc>lat.=56.082588, lon.=26.540428, Alt.=90.772522m. Speed=21.959999m/h.</desc>
<speed>6.100000</speed>
</trkpt>
<trkpt lat="56.082638" lon="26.540476">
<ele>90.417053</ele>
<time>2010-08-29T13:55:35Z</time>
<desc>lat.=56.082638, lon.=26.540476, Alt.=90.417053m. Speed=21.600000m/h.</desc>
<speed>6.000000</speed>
</trkpt>
<trkpt lat="56.082687" lon="26.540520">
<ele>90.301819</ele>
<time>2010-08-29T13:55:36Z</time>
<desc>lat.=56.082687, lon.=26.540520, Alt.=90.301819m. Speed=21.132000m/h.</desc>
<speed>5.870000</speed>
</trkpt>
<trkpt lat="56.082729" lon="26.540560">
<ele>90.092834</ele>
<time>2010-08-29T13:55:37Z</time>
<desc>lat.=56.082729, lon.=26.540560, Alt.=90.092834m. Speed=20.304001m/h.</desc>
<speed>5.640000</speed>
</trkpt>
<trkpt lat="56.082767" lon="26.540594">
<ele>89.565491</ele>
<time>2010-08-29T13:55:38Z</time>
<desc>lat.=56.082767, lon.=26.540594, Alt.=89.565491m. Speed=19.188000m/h.</desc>
<speed>5.330000</speed>
</trkpt>
<trkpt lat="56.082806" lon="26.540632">
<ele>88.790100</ele>
<time>2010-08-29T13:55:39Z</time>
<desc>lat.=56.082806, lon.=26.540632, Alt.=88.790100m. Speed=19.188000m/h.</desc>
<speed>5.330000</speed>
</trkpt>
<trkpt lat="56.082844" lon="26.540672">
<ele>88.497131</ele>
<time>2010-08-29T13:55:40Z</time>
<desc>lat.=56.082844, lon.=26.540672, Alt.=88.497131m. Speed=17.964001m/h.</desc>
<speed>4.990000</speed>
</trkpt>
<trkpt lat="56.082882" lon="26.540716">
<ele>88.460022</ele>
<time>2010-08-29T13:55:41Z</time>
<desc>lat.=56.082882, lon.=26.540716, Alt.=88.460022m. Speed=18.684000m/h.</desc>
<speed>5.190000</speed>
</trkpt>
<trkpt lat="56.082920" lon="26.540762">
<ele>89.292053</ele>
<time>2010-08-29T13:55:42Z</time>
<desc>lat.=56.082920, lon.=26.540762, Alt.=89.292053m. Speed=16.488001m/h.</desc>
<speed>4.580000</speed>
</trkpt>
<trkpt lat="56.082962" lon="26.540800">
<ele>89.936584</ele>
<time>2010-08-29T13:55:43Z</time>
<desc>lat.=56.082962, lon.=26.540800, Alt.=89.936584m. Speed=17.243999m/h.</desc>
<speed>4.790000</speed>
</trkpt>
<trkpt lat="56.082993" lon="26.540825">
<ele>89.336975</ele>
<time>2010-08-29T13:55:44Z</time>
<desc>lat.=56.082993, lon.=26.540825, Alt.=89.336975m. Speed=15.984000m/h.</desc>
<speed>4.440000</speed>
</trkpt>
<trkpt lat="56.083027" lon="26.540857">
<ele>89.004944</ele>
<time>2010-08-29T13:55:45Z</time>
<desc>lat.=56.083027, lon.=26.540857, Alt.=89.004944m. Speed=14.256000m/h.</desc>
<speed>3.960000</speed>
</trkpt>
<trkpt lat="56.083057" lon="26.540892">
<ele>88.801819</ele>
<time>2010-08-29T13:55:46Z</time>
<desc>lat.=56.083057, lon.=26.540892, Alt.=88.801819m. Speed=14.616000m/h.</desc>
<speed>4.060000</speed>
</trkpt>
<trkpt lat="56.083088" lon="26.540926">
<ele>89.032288</ele>
<time>2010-08-29T13:55:47Z</time>
<desc>lat.=56.083088, lon.=26.540926, Alt.=89.032288m. Speed=13.500000m/h.</desc>
<speed>3.750000</speed>
</trkpt>
<trkpt lat="56.083115" lon="26.540960">
<ele>88.831116</ele>
<time>2010-08-29T13:55:48Z</time>
<desc>lat.=56.083115, lon.=26.540960, Alt.=88.831116m. Speed=14.256000m/h.</desc>
<speed>3.960000</speed>
</trkpt>
<trkpt lat="56.083149" lon="26.540995">
<ele>88.649475</ele>
<time>2010-08-29T13:55:49Z</time>
<desc>lat.=56.083149, lon.=26.540995, Alt.=88.649475m. Speed=15.192000m/h.</desc>
<speed>4.220000</speed>
</trkpt>
<trkpt lat="56.083187" lon="26.541031">
<ele>88.913147</ele>
<time>2010-08-29T13:55:50Z</time>
<desc>lat.=56.083187, lon.=26.541031, Alt.=88.913147m. Speed=16.452000m/h.</desc>
<speed>4.570000</speed>
</trkpt>
<trkpt lat="56.083218" lon="26.541090">
<ele>89.098694</ele>
<time>2010-08-29T13:55:51Z</time>
<desc>lat.=56.083218, lon.=26.541090, Alt.=89.098694m. Speed=17.136000m/h.</desc>
<speed>4.760000</speed>
</trkpt>
<trkpt lat="56.083256" lon="26.541134">
<ele>89.055725</ele>
<time>2010-08-29T13:55:52Z</time>
<desc>lat.=56.083256, lon.=26.541134, Alt.=89.055725m. Speed=17.063999m/h.</desc>
<speed>4.740000</speed>
</trkpt>
<trkpt lat="56.083290" lon="26.541176">
<ele>89.831116</ele>
<time>2010-08-29T13:55:53Z</time>
<desc>lat.=56.083290, lon.=26.541176, Alt.=89.831116m. Speed=15.876000m/h.</desc>
<speed>4.410000</speed>
</trkpt>
<trkpt lat="56.083321" lon="26.541212">
<ele>89.973694</ele>
<time>2010-08-29T13:55:54Z</time>
<desc>lat.=56.083321, lon.=26.541212, Alt.=89.973694m. Speed=15.912000m/h.</desc>
<speed>4.420000</speed>
</trkpt>
<trkpt lat="56.083370" lon="26.541252">
<ele>89.862366</ele>
<time>2010-08-29T13:55:55Z</time>
<desc>lat.=56.083370, lon.=26.541252, Alt.=89.862366m. Speed=16.308001m/h.</desc>
<speed>4.530000</speed>
</trkpt>
<trkpt lat="56.083408" lon="26.541285">
<ele>89.420959</ele>
<time>2010-08-29T13:55:56Z</time>
<desc>lat.=56.083408, lon.=26.541285, Alt.=89.420959m. Speed=15.300000m/h.</desc>
<speed>4.250000</speed>
</trkpt>
<trkpt lat="56.083443" lon="26.541321">
<ele>89.489319</ele>
<time>2010-08-29T13:55:57Z</time>
<desc>lat.=56.083443, lon.=26.541321, Alt.=89.489319m. Speed=14.616000m/h.</desc>
<speed>4.060000</speed>
</trkpt>
<trkpt lat="56.083469" lon="26.541353">
<ele>89.598694</ele>
<time>2010-08-29T13:55:58Z</time>
<desc>lat.=56.083469, lon.=26.541353, Alt.=89.598694m. Speed=13.860000m/h.</desc>
<speed>3.850000</speed>
</trkpt>
<trkpt lat="56.083504" lon="26.541376">
<ele>89.190491</ele>
<time>2010-08-29T13:55:59Z</time>
<desc>lat.=56.083504, lon.=26.541376, Alt.=89.190491m. Speed=13.320000m/h.</desc>
<speed>3.700000</speed>
</trkpt>
<trkpt lat="56.083538" lon="26.541401">
<ele>88.952209</ele>
<time>2010-08-29T13:56:00Z</time>
<desc>lat.=56.083538, lon.=26.541401, Alt.=88.952209m. Speed=12.780000m/h.</desc>
<speed>3.550000</speed>
</trkpt>
<trkpt lat="56.083565" lon="26.541422">
<ele>88.590881</ele>
<time>2010-08-29T13:56:01Z</time>
<desc>lat.=56.083565, lon.=26.541422, Alt.=88.590881m. Speed=12.888000m/h.</desc>
<speed>3.580000</speed>
</trkpt>
<trkpt lat="56.083595" lon="26.541451">
<ele>88.516663</ele>
<time>2010-08-29T13:56:02Z</time>
<desc>lat.=56.083595, lon.=26.541451, Alt.=88.516663m. Speed=14.076000m/h.</desc>
<speed>3.910000</speed>
</trkpt>
<trkpt lat="56.083626" lon="26.541496">
<ele>88.323303</ele>
<time>2010-08-29T13:56:03Z</time>
<desc>lat.=56.083626, lon.=26.541496, Alt.=88.323303m. Speed=15.552000m/h.</desc>
<speed>4.320000</speed>
</trkpt>
<trkpt lat="56.083664" lon="26.541536">
<ele>87.899475</ele>
<time>2010-08-29T13:56:04Z</time>
<desc>lat.=56.083664, lon.=26.541536, Alt.=87.899475m. Speed=15.372000m/h.</desc>
<speed>4.270000</speed>
</trkpt>
<trkpt lat="56.083702" lon="26.541574">
<ele>88.022522</ele>
<time>2010-08-29T13:56:05Z</time>
<desc>lat.=56.083702, lon.=26.541574, Alt.=88.022522m. Speed=15.948000m/h.</desc>
<speed>4.430000</speed>
</trkpt>
<trkpt lat="56.083736" lon="26.541611">
<ele>88.213928</ele>
<time>2010-08-29T13:56:06Z</time>
<desc>lat.=56.083736, lon.=26.541611, Alt.=88.213928m. Speed=17.856001m/h.</desc>
<speed>4.960000</speed>
</trkpt>
<trkpt lat="56.083778" lon="26.541658">
<ele>88.831116</ele>
<time>2010-08-29T13:56:07Z</time>
<desc>lat.=56.083778, lon.=26.541658, Alt.=88.831116m. Speed=18.252001m/h.</desc>
<speed>5.070000</speed>
</trkpt>
<trkpt lat="56.083824" lon="26.541712">
<ele>90.477600</ele>
<time>2010-08-29T13:56:08Z</time>
<desc>lat.=56.083824, lon.=26.541712, Alt.=90.477600m. Speed=17.100000m/h.</desc>
<speed>4.750000</speed>
</trkpt>
<trkpt lat="56.083866" lon="26.541759">
<ele>90.809631</ele>
<time>2010-08-29T13:56:09Z</time>
<desc>lat.=56.083866, lon.=26.541759, Alt.=90.809631m. Speed=16.884001m/h.</desc>
<speed>4.690000</speed>
</trkpt>
<trkpt lat="56.083897" lon="26.541780">
<ele>89.627991</ele>
<time>2010-08-29T13:56:10Z</time>
<desc>lat.=56.083897, lon.=26.541780, Alt.=89.627991m. Speed=15.948000m/h.</desc>
<speed>4.430000</speed>
</trkpt>
<trkpt lat="56.083935" lon="26.541813">
<ele>89.766663</ele>
<time>2010-08-29T13:56:11Z</time>
<desc>lat.=56.083935, lon.=26.541813, Alt.=89.766663m. Speed=15.840000m/h.</desc>
<speed>4.400000</speed>
</trkpt>
<trkpt lat="56.083965" lon="26.541834">
<ele>89.762756</ele>
<time>2010-08-29T13:56:12Z</time>
<desc>lat.=56.083965, lon.=26.541834, Alt.=89.762756m. Speed=14.112000m/h.</desc>
<speed>3.920000</speed>
</trkpt>
<trkpt lat="56.083996" lon="26.541851">
<ele>89.319397</ele>
<time>2010-08-29T13:56:13Z</time>
<desc>lat.=56.083996, lon.=26.541851, Alt.=89.319397m. Speed=14.220000m/h.</desc>
<speed>3.950000</speed>
</trkpt>
<trkpt lat="56.084034" lon="26.541874">
<ele>89.721741</ele>
<time>2010-08-29T13:56:14Z</time>
<desc>lat.=56.084034, lon.=26.541874, Alt.=89.721741m. Speed=14.184000m/h.</desc>
<speed>3.940000</speed>
</trkpt>
<trkpt lat="56.084064" lon="26.541906">
<ele>90.147522</ele>
<time>2010-08-29T13:56:15Z</time>
<desc>lat.=56.084064, lon.=26.541906, Alt.=90.147522m. Speed=13.788000m/h.</desc>
<speed>3.830000</speed>
</trkpt>
<trkpt lat="56.084095" lon="26.541952">
<ele>90.901428</ele>
<time>2010-08-29T13:56:16Z</time>
<desc>lat.=56.084095, lon.=26.541952, Alt.=90.901428m. Speed=13.608000m/h.</desc>
<speed>3.780000</speed>
</trkpt>
<trkpt lat="56.084118" lon="26.541988">
<ele>91.172913</ele>
<time>2010-08-29T13:56:17Z</time>
<desc>lat.=56.084118, lon.=26.541988, Alt.=91.172913m. Speed=13.176000m/h.</desc>
<speed>3.660000</speed>
</trkpt>
<trkpt lat="56.084148" lon="26.542030">
<ele>91.690491</ele>
<time>2010-08-29T13:56:18Z</time>
<desc>lat.=56.084148, lon.=26.542030, Alt.=91.690491m. Speed=13.752000m/h.</desc>
<speed>3.820000</speed>
</trkpt>
<trkpt lat="56.084179" lon="26.542063">
<ele>91.618225</ele>
<time>2010-08-29T13:56:19Z</time>
<desc>lat.=56.084179, lon.=26.542063, Alt.=91.618225m. Speed=14.796000m/h.</desc>
<speed>4.110000</speed>
</trkpt>
<trkpt lat="56.084217" lon="26.542101">
<ele>92.842834</ele>
<time>2010-08-29T13:56:20Z</time>
<desc>lat.=56.084217, lon.=26.542101, Alt.=92.842834m. Speed=16.632000m/h.</desc>
<speed>4.620000</speed>
</trkpt>
<trkpt lat="56.084255" lon="26.542137">
<ele>92.797913</ele>
<time>2010-08-29T13:56:21Z</time>
<desc>lat.=56.084255, lon.=26.542137, Alt.=92.797913m. Speed=17.388000m/h.</desc>
<speed>4.830000</speed>
</trkpt>
<trkpt lat="56.084297" lon="26.542179">
<ele>92.618225</ele>
<time>2010-08-29T13:56:22Z</time>
<desc>lat.=56.084297, lon.=26.542179, Alt.=92.618225m. Speed=17.784000m/h.</desc>
<speed>4.940000</speed>
</trkpt>
<trkpt lat="56.084335" lon="26.542215">
<ele>92.547913</ele>
<time>2010-08-29T13:56:23Z</time>
<desc>lat.=56.084335, lon.=26.542215, Alt.=92.547913m. Speed=17.424000m/h.</desc>
<speed>4.840000</speed>
</trkpt>
<trkpt lat="56.084377" lon="26.542248">
<ele>92.489319</ele>
<time>2010-08-29T13:56:24Z</time>
<desc>lat.=56.084377, lon.=26.542248, Alt.=92.489319m. Speed=17.100000m/h.</desc>
<speed>4.750000</speed>
</trkpt>
<trkpt lat="56.084415" lon="26.542276">
<ele>92.383850</ele>
<time>2010-08-29T13:56:25Z</time>
<desc>lat.=56.084415, lon.=26.542276, Alt.=92.383850m. Speed=15.624000m/h.</desc>
<speed>4.340000</speed>
</trkpt>
<trkpt lat="56.084454" lon="26.542309">
<ele>92.188538</ele>
<time>2010-08-29T13:56:26Z</time>
<desc>lat.=56.084454, lon.=26.542309, Alt.=92.188538m. Speed=15.768000m/h.</desc>
<speed>4.380000</speed>
</trkpt>
<trkpt lat="56.084488" lon="26.542336">
<ele>91.985413</ele>
<time>2010-08-29T13:56:27Z</time>
<desc>lat.=56.084488, lon.=26.542336, Alt.=91.985413m. Speed=14.616000m/h.</desc>
<speed>4.060000</speed>
</trkpt>
<trkpt lat="56.084522" lon="26.542358">
<ele>91.768616</ele>
<time>2010-08-29T13:56:28Z</time>
<desc>lat.=56.084522, lon.=26.542358, Alt.=91.768616m. Speed=14.436000m/h.</desc>
<speed>4.010000</speed>
</trkpt>
<trkpt lat="56.084549" lon="26.542385">
<ele>91.606506</ele>
<time>2010-08-29T13:56:29Z</time>
<desc>lat.=56.084549, lon.=26.542385, Alt.=91.606506m. Speed=13.536000m/h.</desc>
<speed>3.760000</speed>
</trkpt>
<trkpt lat="56.084579" lon="26.542414">
<ele>91.419006</ele>
<time>2010-08-29T13:56:30Z</time>
<desc>lat.=56.084579, lon.=26.542414, Alt.=91.419006m. Speed=13.284000m/h.</desc>
<speed>3.690000</speed>
</trkpt>
<trkpt lat="56.084606" lon="26.542446">
<ele>91.143616</ele>
<time>2010-08-29T13:56:31Z</time>
<desc>lat.=56.084606, lon.=26.542446, Alt.=91.143616m. Speed=12.852000m/h.</desc>
<speed>3.570000</speed>
</trkpt>
<trkpt lat="56.084633" lon="26.542473">
<ele>91.143616</ele>
<time>2010-08-29T13:56:32Z</time>
<desc>lat.=56.084633, lon.=26.542473, Alt.=91.143616m. Speed=12.456000m/h.</desc>
<speed>3.460000</speed>
</trkpt>
<trkpt lat="56.084660" lon="26.542494">
<ele>91.174866</ele>
<time>2010-08-29T13:56:33Z</time>
<desc>lat.=56.084660, lon.=26.542494, Alt.=91.174866m. Speed=12.420000m/h.</desc>
<speed>3.450000</speed>
</trkpt>
<trkpt lat="56.084690" lon="26.542517">
<ele>91.292053</ele>
<time>2010-08-29T13:56:34Z</time>
<desc>lat.=56.084690, lon.=26.542517, Alt.=91.292053m. Speed=12.600000m/h.</desc>
<speed>3.500000</speed>
</trkpt>
<trkpt lat="56.084721" lon="26.542536">
<ele>91.354553</ele>
<time>2010-08-29T13:56:35Z</time>
<desc>lat.=56.084721, lon.=26.542536, Alt.=91.354553m. Speed=12.780000m/h.</desc>
<speed>3.550000</speed>
</trkpt>
<trkpt lat="56.084747" lon="26.542551">
<ele>90.991272</ele>
<time>2010-08-29T13:56:36Z</time>
<desc>lat.=56.084747, lon.=26.542551, Alt.=90.991272m. Speed=13.032000m/h.</desc>
<speed>3.620000</speed>
</trkpt>
<trkpt lat="56.084778" lon="26.542568">
<ele>90.669006</ele>
<time>2010-08-29T13:56:37Z</time>
<desc>lat.=56.084778, lon.=26.542568, Alt.=90.669006m. Speed=14.220000m/h.</desc>
<speed>3.950000</speed>
</trkpt>
<trkpt lat="56.084808" lon="26.542591">
<ele>90.458069</ele>
<time>2010-08-29T13:56:38Z</time>
<desc>lat.=56.084808, lon.=26.542591, Alt.=90.458069m. Speed=14.076000m/h.</desc>
<speed>3.910000</speed>
</trkpt>
<trkpt lat="56.084839" lon="26.542614">
<ele>90.411194</ele>
<time>2010-08-29T13:56:39Z</time>
<desc>lat.=56.084839, lon.=26.542614, Alt.=90.411194m. Speed=14.760000m/h.</desc>
<speed>4.100000</speed>
</trkpt>
<trkpt lat="56.084873" lon="26.542645">
<ele>90.129944</ele>
<time>2010-08-29T13:56:40Z</time>
<desc>lat.=56.084873, lon.=26.542645, Alt.=90.129944m. Speed=15.156000m/h.</desc>
<speed>4.210000</speed>
</trkpt>
<trkpt lat="56.084911" lon="26.542673">
<ele>90.251038</ele>
<time>2010-08-29T13:56:41Z</time>
<desc>lat.=56.084911, lon.=26.542673, Alt.=90.251038m. Speed=15.948000m/h.</desc>
<speed>4.430000</speed>
</trkpt>
<trkpt lat="56.084946" lon="26.542698">
<ele>89.809631</ele>
<time>2010-08-29T13:56:42Z</time>
<desc>lat.=56.084946, lon.=26.542698, Alt.=89.809631m. Speed=15.732000m/h.</desc>
<speed>4.370000</speed>
</trkpt>
<trkpt lat="56.084976" lon="26.542719">
<ele>89.036194</ele>
<time>2010-08-29T13:56:43Z</time>
<desc>lat.=56.084976, lon.=26.542719, Alt.=89.036194m. Speed=16.056000m/h.</desc>
<speed>4.460000</speed>
</trkpt>
<trkpt lat="56.085014" lon="26.542747">
<ele>88.376038</ele>
<time>2010-08-29T13:56:44Z</time>
<desc>lat.=56.085014, lon.=26.542747, Alt.=88.376038m. Speed=16.379999m/h.</desc>
<speed>4.550000</speed>
</trkpt>
<trkpt lat="56.085052" lon="26.542778">
<ele>88.059631</ele>
<time>2010-08-29T13:56:45Z</time>
<desc>lat.=56.085052, lon.=26.542778, Alt.=88.059631m. Speed=15.768000m/h.</desc>
<speed>4.380000</speed>
</trkpt>
<trkpt lat="56.085091" lon="26.542805">
<ele>88.131897</ele>
<time>2010-08-29T13:56:46Z</time>
<desc>lat.=56.085091, lon.=26.542805, Alt.=88.131897m. Speed=16.164000m/h.</desc>
<speed>4.490000</speed>
</trkpt>
<trkpt lat="56.085129" lon="26.542830">
<ele>88.374084</ele>
<time>2010-08-29T13:56:47Z</time>
<desc>lat.=56.085129, lon.=26.542830, Alt.=88.374084m. Speed=15.732000m/h.</desc>
<speed>4.370000</speed>
</trkpt>
<trkpt lat="56.085167" lon="26.542852">
<ele>89.044006</ele>
<time>2010-08-29T13:56:48Z</time>
<desc>lat.=56.085167, lon.=26.542852, Alt.=89.044006m. Speed=16.559999m/h.</desc>
<speed>4.600000</speed>
</trkpt>
<trkpt lat="56.085209" lon="26.542875">
<ele>88.836975</ele>
<time>2010-08-29T13:56:49Z</time>
<desc>lat.=56.085209, lon.=26.542875, Alt.=88.836975m. Speed=16.524000m/h.</desc>
<speed>4.590000</speed>
</trkpt>
<trkpt lat="56.085243" lon="26.542904">
<ele>88.618225</ele>
<time>2010-08-29T13:56:50Z</time>
<desc>lat.=56.085243, lon.=26.542904, Alt.=88.618225m. Speed=16.128000m/h.</desc>
<speed>4.480000</speed>
</trkpt>
<trkpt lat="56.085289" lon="26.542931">
<ele>89.588928</ele>
<time>2010-08-29T13:56:51Z</time>
<desc>lat.=56.085289, lon.=26.542931, Alt.=89.588928m. Speed=16.955999m/h.</desc>
<speed>4.710000</speed>
</trkpt>
<trkpt lat="56.085327" lon="26.542950">
<ele>89.622131</ele>
<time>2010-08-29T13:56:52Z</time>
<desc>lat.=56.085327, lon.=26.542950, Alt.=89.622131m. Speed=16.488001m/h.</desc>
<speed>4.580000</speed>
</trkpt>
<trkpt lat="56.085369" lon="26.542974">
<ele>89.258850</ele>
<time>2010-08-29T13:56:53Z</time>
<desc>lat.=56.085369, lon.=26.542974, Alt.=89.258850m. Speed=15.264000m/h.</desc>
<speed>4.240000</speed>
</trkpt>
<trkpt lat="56.085411" lon="26.542997">
<ele>88.987366</ele>
<time>2010-08-29T13:56:54Z</time>
<desc>lat.=56.085411, lon.=26.542997, Alt.=88.987366m. Speed=16.775999m/h.</desc>
<speed>4.660000</speed>
</trkpt>
<trkpt lat="56.085453" lon="26.543030">
<ele>88.477600</ele>
<time>2010-08-29T13:56:55Z</time>
<desc>lat.=56.085453, lon.=26.543030, Alt.=88.477600m. Speed=16.200001m/h.</desc>
<speed>4.500000</speed>
</trkpt>
<trkpt lat="56.085495" lon="26.543045">
<ele>89.879944</ele>
<time>2010-08-29T13:56:56Z</time>
<desc>lat.=56.085495, lon.=26.543045, Alt.=89.879944m. Speed=16.775999m/h.</desc>
<speed>4.660000</speed>
</trkpt>
<trkpt lat="56.085537" lon="26.543060">
<ele>90.290100</ele>
<time>2010-08-29T13:56:57Z</time>
<desc>lat.=56.085537, lon.=26.543060, Alt.=90.290100m. Speed=16.596001m/h.</desc>
<speed>4.610000</speed>
</trkpt>
<trkpt lat="56.085579" lon="26.543072">
<ele>89.778381</ele>
<time>2010-08-29T13:56:58Z</time>
<desc>lat.=56.085579, lon.=26.543072, Alt.=89.778381m. Speed=17.459999m/h.</desc>
<speed>4.850000</speed>
</trkpt>
<trkpt lat="56.085625" lon="26.543085">
<ele>89.583069</ele>
<time>2010-08-29T13:56:59Z</time>
<desc>lat.=56.085625, lon.=26.543085, Alt.=89.583069m. Speed=17.747999m/h.</desc>
<speed>4.930000</speed>
</trkpt>
<trkpt lat="56.085667" lon="26.543100">
<ele>90.106506</ele>
<time>2010-08-29T13:57:00Z</time>
<desc>lat.=56.085667, lon.=26.543100, Alt.=90.106506m. Speed=17.351999m/h.</desc>
<speed>4.820000</speed>
</trkpt>
<trkpt lat="56.085705" lon="26.543119">
<ele>90.276428</ele>
<time>2010-08-29T13:57:01Z</time>
<desc>lat.=56.085705, lon.=26.543119, Alt.=90.276428m. Speed=16.920000m/h.</desc>
<speed>4.700000</speed>
</trkpt>
<trkpt lat="56.085754" lon="26.543133">
<ele>90.598694</ele>
<time>2010-08-29T13:57:02Z</time>
<desc>lat.=56.085754, lon.=26.543133, Alt.=90.598694m. Speed=18.035999m/h.</desc>
<speed>5.010000</speed>
</trkpt>
<trkpt lat="56.085800" lon="26.543152">
<ele>91.077209</ele>
<time>2010-08-29T13:57:03Z</time>
<desc>lat.=56.085800, lon.=26.543152, Alt.=91.077209m. Speed=18.864000m/h.</desc>
<speed>5.240000</speed>
</trkpt>
<trkpt lat="56.085846" lon="26.543169">
<ele>91.657288</ele>
<time>2010-08-29T13:57:04Z</time>
<desc>lat.=56.085846, lon.=26.543169, Alt.=91.657288m. Speed=18.072001m/h.</desc>
<speed>5.020000</speed>
</trkpt>
<trkpt lat="56.085888" lon="26.543184">
<ele>91.618225</ele>
<time>2010-08-29T13:57:05Z</time>
<desc>lat.=56.085888, lon.=26.543184, Alt.=91.618225m. Speed=17.028000m/h.</desc>
<speed>4.730000</speed>
</trkpt>
<trkpt lat="56.085926" lon="26.543198">
<ele>91.379944</ele>
<time>2010-08-29T13:57:06Z</time>
<desc>lat.=56.085926, lon.=26.543198, Alt.=91.379944m. Speed=15.696000m/h.</desc>
<speed>4.360000</speed>
</trkpt>
<trkpt lat="56.085964" lon="26.543209">
<ele>91.585022</ele>
<time>2010-08-29T13:57:07Z</time>
<desc>lat.=56.085964, lon.=26.543209, Alt.=91.585022m. Speed=14.688000m/h.</desc>
<speed>4.080000</speed>
</trkpt>
<trkpt lat="56.085999" lon="26.543224">
<ele>90.944397</ele>
<time>2010-08-29T13:57:08Z</time>
<desc>lat.=56.085999, lon.=26.543224, Alt.=90.944397m. Speed=14.004000m/h.</desc>
<speed>3.890000</speed>
</trkpt>
<trkpt lat="56.086033" lon="26.543240">
<ele>91.282288</ele>
<time>2010-08-29T13:57:09Z</time>
<desc>lat.=56.086033, lon.=26.543240, Alt.=91.282288m. Speed=12.996000m/h.</desc>
<speed>3.610000</speed>
</trkpt>
<trkpt lat="56.086067" lon="26.543257">
<ele>91.731506</ele>
<time>2010-08-29T13:57:10Z</time>
<desc>lat.=56.086067, lon.=26.543257, Alt.=91.731506m. Speed=13.212000m/h.</desc>
<speed>3.670000</speed>
</trkpt>
<trkpt lat="56.086102" lon="26.543268">
<ele>92.184631</ele>
<time>2010-08-29T13:57:11Z</time>
<desc>lat.=56.086102, lon.=26.543268, Alt.=92.184631m. Speed=13.860000m/h.</desc>
<speed>3.850000</speed>
</trkpt>
<trkpt lat="56.086136" lon="26.543278">
<ele>92.676819</ele>
<time>2010-08-29T13:57:12Z</time>
<desc>lat.=56.086136, lon.=26.543278, Alt.=92.676819m. Speed=14.112000m/h.</desc>
<speed>3.920000</speed>
</trkpt>
<trkpt lat="56.086174" lon="26.543285">
<ele>92.895569</ele>
<time>2010-08-29T13:57:13Z</time>
<desc>lat.=56.086174, lon.=26.543285, Alt.=92.895569m. Speed=15.084000m/h.</desc>
<speed>4.190000</speed>
</trkpt>
<trkpt lat="56.086212" lon="26.543295">
<ele>93.422913</ele>
<time>2010-08-29T13:57:14Z</time>
<desc>lat.=56.086212, lon.=26.543295, Alt.=93.422913m. Speed=15.444000m/h.</desc>
<speed>4.290000</speed>
</trkpt>
<trkpt lat="56.086254" lon="26.543308">
<ele>93.379944</ele>
<time>2010-08-29T13:57:15Z</time>
<desc>lat.=56.086254, lon.=26.543308, Alt.=93.379944m. Speed=15.948000m/h.</desc>
<speed>4.430000</speed>
</trkpt>
<trkpt lat="56.086296" lon="26.543322">
<ele>92.969788</ele>
<time>2010-08-29T13:57:16Z</time>
<desc>lat.=56.086296, lon.=26.543322, Alt.=92.969788m. Speed=16.452000m/h.</desc>
<speed>4.570000</speed>
</trkpt>
<trkpt lat="56.086338" lon="26.543335">
<ele>93.700256</ele>
<time>2010-08-29T13:57:17Z</time>
<desc>lat.=56.086338, lon.=26.543335, Alt.=93.700256m. Speed=16.955999m/h.</desc>
<speed>4.710000</speed>
</trkpt>
<trkpt lat="56.086380" lon="26.543348">
<ele>94.163147</ele>
<time>2010-08-29T13:57:18Z</time>
<desc>lat.=56.086380, lon.=26.543348, Alt.=94.163147m. Speed=17.459999m/h.</desc>
<speed>4.850000</speed>
</trkpt>
<trkpt lat="56.086426" lon="26.543365">
<ele>94.069397</ele>
<time>2010-08-29T13:57:19Z</time>
<desc>lat.=56.086426, lon.=26.543365, Alt.=94.069397m. Speed=18.252001m/h.</desc>
<speed>5.070000</speed>
</trkpt>
<trkpt lat="56.086472" lon="26.543375">
<ele>94.169006</ele>
<time>2010-08-29T13:57:20Z</time>
<desc>lat.=56.086472, lon.=26.543375, Alt.=94.169006m. Speed=18.396000m/h.</desc>
<speed>5.110000</speed>
</trkpt>
<trkpt lat="56.086514" lon="26.543385">
<ele>94.606506</ele>
<time>2010-08-29T13:57:21Z</time>
<desc>lat.=56.086514, lon.=26.543385, Alt.=94.606506m. Speed=17.136000m/h.</desc>
<speed>4.760000</speed>
</trkpt>
<trkpt lat="56.086555" lon="26.543392">
<ele>94.956116</ele>
<time>2010-08-29T13:57:22Z</time>
<desc>lat.=56.086555, lon.=26.543392, Alt.=94.956116m. Speed=16.020000m/h.</desc>
<speed>4.450000</speed>
</trkpt>
<trkpt lat="56.086594" lon="26.543398">
<ele>95.290100</ele>
<time>2010-08-29T13:57:23Z</time>
<desc>lat.=56.086594, lon.=26.543398, Alt.=95.290100m. Speed=14.976000m/h.</desc>
<speed>4.160000</speed>
</trkpt>
<trkpt lat="56.086628" lon="26.543407">
<ele>95.682678</ele>
<time>2010-08-29T13:57:24Z</time>
<desc>lat.=56.086628, lon.=26.543407, Alt.=95.682678m. Speed=14.076000m/h.</desc>
<speed>3.910000</speed>
</trkpt>
<trkpt lat="56.086662" lon="26.543409">
<ele>95.073303</ele>
<time>2010-08-29T13:57:25Z</time>
<desc>lat.=56.086662, lon.=26.543409, Alt.=95.073303m. Speed=13.212000m/h.</desc>
<speed>3.670000</speed>
</trkpt>
<trkpt lat="56.086693" lon="26.543411">
<ele>95.026428</ele>
<time>2010-08-29T13:57:26Z</time>
<desc>lat.=56.086693, lon.=26.543411, Alt.=95.026428m. Speed=12.168000m/h.</desc>
<speed>3.380000</speed>
</trkpt>
<trkpt lat="56.086723" lon="26.543417">
<ele>95.376038</ele>
<time>2010-08-29T13:57:27Z</time>
<desc>lat.=56.086723, lon.=26.543417, Alt.=95.376038m. Speed=11.268000m/h.</desc>
<speed>3.130000</speed>
</trkpt>
<trkpt lat="56.086750" lon="26.543421">
<ele>94.922913</ele>
<time>2010-08-29T13:57:28Z</time>
<desc>lat.=56.086750, lon.=26.543421, Alt.=94.922913m. Speed=10.152000m/h.</desc>
<speed>2.820000</speed>
</trkpt>
<trkpt lat="56.086773" lon="26.543427">
<ele>95.126038</ele>
<time>2010-08-29T13:57:29Z</time>
<desc>lat.=56.086773, lon.=26.543427, Alt.=95.126038m. Speed=8.964000m/h.</desc>
<speed>2.490000</speed>
</trkpt>
<trkpt lat="56.086796" lon="26.543434">
<ele>94.903381</ele>
<time>2010-08-29T13:57:30Z</time>
<desc>lat.=56.086796, lon.=26.543434, Alt.=94.903381m. Speed=8.568000m/h.</desc>
<speed>2.380000</speed>
</trkpt>
<trkpt lat="56.086815" lon="26.543440">
<ele>94.665100</ele>
<time>2010-08-29T13:57:31Z</time>
<desc>lat.=56.086815, lon.=26.543440, Alt.=94.665100m. Speed=7.884000m/h.</desc>
<speed>2.190000</speed>
</trkpt>
<trkpt lat="56.086834" lon="26.543446">
<ele>94.514709</ele>
<time>2010-08-29T13:57:32Z</time>
<desc>lat.=56.086834, lon.=26.543446, Alt.=94.514709m. Speed=6.516000m/h.</desc>
<speed>1.810000</speed>
</trkpt>
<trkpt lat="56.086849" lon="26.543447">
<ele>94.501038</ele>
<time>2010-08-29T13:57:33Z</time>
<desc>lat.=56.086849, lon.=26.543447, Alt.=94.501038m. Speed=6.048000m/h.</desc>
<speed>1.680000</speed>
</trkpt>
<trkpt lat="56.086864" lon="26.543455">
<ele>94.967834</ele>
<time>2010-08-29T13:57:34Z</time>
<desc>lat.=56.086864, lon.=26.543455, Alt.=94.967834m. Speed=5.364000m/h.</desc>
<speed>1.490000</speed>
</trkpt>
<trkpt lat="56.086880" lon="26.543459">
<ele>94.876038</ele>
<time>2010-08-29T13:57:35Z</time>
<desc>lat.=56.086880, lon.=26.543459, Alt.=94.876038m. Speed=5.148000m/h.</desc>
<speed>1.430000</speed>
</trkpt>
<trkpt lat="56.086887" lon="26.543470">
<ele>95.092834</ele>
<time>2010-08-29T13:57:36Z</time>
<desc>lat.=56.086887, lon.=26.543470, Alt.=95.092834m. Speed=6.840000m/h.</desc>
<speed>1.900000</speed>
</trkpt>
<trkpt lat="56.086906" lon="26.543467">
<ele>94.493225</ele>
<time>2010-08-29T13:57:37Z</time>
<desc>lat.=56.086906, lon.=26.543467, Alt.=94.493225m. Speed=8.064000m/h.</desc>
<speed>2.240000</speed>
</trkpt>
<trkpt lat="56.086929" lon="26.543474">
<ele>94.544006</ele>
<time>2010-08-29T13:57:38Z</time>
<desc>lat.=56.086929, lon.=26.543474, Alt.=94.544006m. Speed=9.756000m/h.</desc>
<speed>2.710000</speed>
</trkpt>
<trkpt lat="56.086956" lon="26.543472">
<ele>94.553772</ele>
<time>2010-08-29T13:57:39Z</time>
<desc>lat.=56.086956, lon.=26.543472, Alt.=94.553772m. Speed=11.556000m/h.</desc>
<speed>3.210000</speed>
</trkpt>
<trkpt lat="56.086987" lon="26.543470">
<ele>94.606506</ele>
<time>2010-08-29T13:57:40Z</time>
<desc>lat.=56.086987, lon.=26.543470, Alt.=94.606506m. Speed=11.988000m/h.</desc>
<speed>3.330000</speed>
</trkpt>
<trkpt lat="56.087017" lon="26.543465">
<ele>94.831116</ele>
<time>2010-08-29T13:57:41Z</time>
<desc>lat.=56.087017, lon.=26.543465, Alt.=94.831116m. Speed=13.104000m/h.</desc>
<speed>3.640000</speed>
</trkpt>
<trkpt lat="56.087051" lon="26.543461">
<ele>95.057678</ele>
<time>2010-08-29T13:57:42Z</time>
<desc>lat.=56.087051, lon.=26.543461, Alt.=95.057678m. Speed=13.932000m/h.</desc>
<speed>3.870000</speed>
</trkpt>
<trkpt lat="56.087090" lon="26.543459">
<ele>95.206116</ele>
<time>2010-08-29T13:57:43Z</time>
<desc>lat.=56.087090, lon.=26.543459, Alt.=95.206116m. Speed=14.868000m/h.</desc>
<speed>4.130000</speed>
</trkpt>
<trkpt lat="56.087128" lon="26.543463">
<ele>95.999084</ele>
<time>2010-08-29T13:57:44Z</time>
<desc>lat.=56.087128, lon.=26.543463, Alt.=95.999084m. Speed=15.516000m/h.</desc>
<speed>4.310000</speed>
</trkpt>
<trkpt lat="56.087170" lon="26.543468">
<ele>96.213928</ele>
<time>2010-08-29T13:57:45Z</time>
<desc>lat.=56.087170, lon.=26.543468, Alt.=96.213928m. Speed=16.416000m/h.</desc>
<speed>4.560000</speed>
</trkpt>
<trkpt lat="56.087212" lon="26.543474">
<ele>97.057678</ele>
<time>2010-08-29T13:57:46Z</time>
<desc>lat.=56.087212, lon.=26.543474, Alt.=97.057678m. Speed=16.379999m/h.</desc>
<speed>4.550000</speed>
</trkpt>
<trkpt lat="56.087254" lon="26.543476">
<ele>97.895569</ele>
<time>2010-08-29T13:57:47Z</time>
<desc>lat.=56.087254, lon.=26.543476, Alt.=97.895569m. Speed=16.559999m/h.</desc>
<speed>4.600000</speed>
</trkpt>
<trkpt lat="56.087292" lon="26.543482">
<ele>98.225647</ele>
<time>2010-08-29T13:57:48Z</time>
<desc>lat.=56.087292, lon.=26.543482, Alt.=98.225647m. Speed=17.280001m/h.</desc>
<speed>4.800000</speed>
</trkpt>
<trkpt lat="56.087334" lon="26.543486">
<ele>98.743225</ele>
<time>2010-08-29T13:57:49Z</time>
<desc>lat.=56.087334, lon.=26.543486, Alt.=98.743225m. Speed=17.028000m/h.</desc>
<speed>4.730000</speed>
</trkpt>
<trkpt lat="56.087376" lon="26.543488">
<ele>98.602600</ele>
<time>2010-08-29T13:57:50Z</time>
<desc>lat.=56.087376, lon.=26.543488, Alt.=98.602600m. Speed=17.784000m/h.</desc>
<speed>4.940000</speed>
</trkpt>
<trkpt lat="56.087418" lon="26.543488">
<ele>98.684631</ele>
<time>2010-08-29T13:57:51Z</time>
<desc>lat.=56.087418, lon.=26.543488, Alt.=98.684631m. Speed=16.740000m/h.</desc>
<speed>4.650000</speed>
</trkpt>
<trkpt lat="56.087460" lon="26.543495">
<ele>98.018616</ele>
<time>2010-08-29T13:57:52Z</time>
<desc>lat.=56.087460, lon.=26.543495, Alt.=98.018616m. Speed=17.856001m/h.</desc>
<speed>4.960000</speed>
</trkpt>
<trkpt lat="56.087505" lon="26.543503">
<ele>97.358459</ele>
<time>2010-08-29T13:57:53Z</time>
<desc>lat.=56.087505, lon.=26.543503, Alt.=97.358459m. Speed=17.568001m/h.</desc>
<speed>4.880000</speed>
</trkpt>
<trkpt lat="56.087547" lon="26.543507">
<ele>96.575256</ele>
<time>2010-08-29T13:57:54Z</time>
<desc>lat.=56.087547, lon.=26.543507, Alt.=96.575256m. Speed=18.648001m/h.</desc>
<speed>5.180000</speed>
</trkpt>
<trkpt lat="56.087593" lon="26.543510">
<ele>95.950256</ele>
<time>2010-08-29T13:57:55Z</time>
<desc>lat.=56.087593, lon.=26.543510, Alt.=95.950256m. Speed=18.288000m/h.</desc>
<speed>5.080000</speed>
</trkpt>
<trkpt lat="56.087639" lon="26.543512">
<ele>96.155334</ele>
<time>2010-08-29T13:57:56Z</time>
<desc>lat.=56.087639, lon.=26.543512, Alt.=96.155334m. Speed=18.143999m/h.</desc>
<speed>5.040000</speed>
</trkpt>
<trkpt lat="56.087685" lon="26.543522">
<ele>96.610413</ele>
<time>2010-08-29T13:57:57Z</time>
<desc>lat.=56.087685, lon.=26.543522, Alt.=96.610413m. Speed=18.323999m/h.</desc>
<speed>5.090000</speed>
</trkpt>
<trkpt lat="56.087730" lon="26.543528">
<ele>97.682678</ele>
<time>2010-08-29T13:57:58Z</time>
<desc>lat.=56.087730, lon.=26.543528, Alt.=97.682678m. Speed=18.468000m/h.</desc>
<speed>5.130000</speed>
</trkpt>
<trkpt lat="56.087776" lon="26.543539">
<ele>97.956116</ele>
<time>2010-08-29T13:57:59Z</time>
<desc>lat.=56.087776, lon.=26.543539, Alt.=97.956116m. Speed=18.180000m/h.</desc>
<speed>5.050000</speed>
</trkpt>
<trkpt lat="56.087826" lon="26.543535">
<ele>97.725647</ele>
<time>2010-08-29T13:58:00Z</time>
<desc>lat.=56.087826, lon.=26.543535, Alt.=97.725647m. Speed=18.719999m/h.</desc>
<speed>5.200000</speed>
</trkpt>
<trkpt lat="56.087872" lon="26.543535">
<ele>98.167053</ele>
<time>2010-08-29T13:58:01Z</time>
<desc>lat.=56.087872, lon.=26.543535, Alt.=98.167053m. Speed=17.964001m/h.</desc>
<speed>4.990000</speed>
</trkpt>
<trkpt lat="56.087914" lon="26.543530">
<ele>97.932678</ele>
<time>2010-08-29T13:58:02Z</time>
<desc>lat.=56.087914, lon.=26.543530, Alt.=97.932678m. Speed=18.216000m/h.</desc>
<speed>5.060000</speed>
</trkpt>
<trkpt lat="56.087959" lon="26.543530">
<ele>97.422913</ele>
<time>2010-08-29T13:58:03Z</time>
<desc>lat.=56.087959, lon.=26.543530, Alt.=97.422913m. Speed=17.927999m/h.</desc>
<speed>4.980000</speed>
</trkpt>
<trkpt lat="56.088005" lon="26.543526">
<ele>97.411194</ele>
<time>2010-08-29T13:58:04Z</time>
<desc>lat.=56.088005, lon.=26.543526, Alt.=97.411194m. Speed=17.459999m/h.</desc>
<speed>4.850000</speed>
</trkpt>
<trkpt lat="56.088051" lon="26.543528">
<ele>97.227600</ele>
<time>2010-08-29T13:58:05Z</time>
<desc>lat.=56.088051, lon.=26.543528, Alt.=97.227600m. Speed=16.884001m/h.</desc>
<speed>4.690000</speed>
</trkpt>
<trkpt lat="56.088093" lon="26.543526">
<ele>97.081116</ele>
<time>2010-08-29T13:58:06Z</time>
<desc>lat.=56.088093, lon.=26.543526, Alt.=97.081116m. Speed=17.712000m/h.</desc>
<speed>4.920000</speed>
</trkpt>
<trkpt lat="56.088135" lon="26.543530">
<ele>96.731506</ele>
<time>2010-08-29T13:58:07Z</time>
<desc>lat.=56.088135, lon.=26.543530, Alt.=96.731506m. Speed=17.784000m/h.</desc>
<speed>4.940000</speed>
</trkpt>
<trkpt lat="56.088181" lon="26.543550">
<ele>95.422913</ele>
<time>2010-08-29T13:58:08Z</time>
<desc>lat.=56.088181, lon.=26.543550, Alt.=95.422913m. Speed=18.684000m/h.</desc>
<speed>5.190000</speed>
</trkpt>
<trkpt lat="56.088226" lon="26.543562">
<ele>94.436584</ele>
<time>2010-08-29T13:58:09Z</time>
<desc>lat.=56.088226, lon.=26.543562, Alt.=94.436584m. Speed=18.827999m/h.</desc>
<speed>5.230000</speed>
</trkpt>
<trkpt lat="56.088276" lon="26.543558">
<ele>94.354553</ele>
<time>2010-08-29T13:58:10Z</time>
<desc>lat.=56.088276, lon.=26.543558, Alt.=94.354553m. Speed=19.007999m/h.</desc>
<speed>5.280000</speed>
</trkpt>
<trkpt lat="56.088318" lon="26.543562">
<ele>93.711975</ele>
<time>2010-08-29T13:58:11Z</time>
<desc>lat.=56.088318, lon.=26.543562, Alt.=93.711975m. Speed=16.775999m/h.</desc>
<speed>4.660000</speed>
</trkpt>
<trkpt lat="56.088360" lon="26.543564">
<ele>93.272522</ele>
<time>2010-08-29T13:58:12Z</time>
<desc>lat.=56.088360, lon.=26.543564, Alt.=93.272522m. Speed=16.559999m/h.</desc>
<speed>4.600000</speed>
</trkpt>
<trkpt lat="56.088409" lon="26.543566">
<ele>93.715881</ele>
<time>2010-08-29T13:58:13Z</time>
<desc>lat.=56.088409, lon.=26.543566, Alt.=93.715881m. Speed=18.396000m/h.</desc>
<speed>5.110000</speed>
</trkpt>
<trkpt lat="56.088455" lon="26.543570">
<ele>93.254944</ele>
<time>2010-08-29T13:58:14Z</time>
<desc>lat.=56.088455, lon.=26.543570, Alt.=93.254944m. Speed=19.260000m/h.</desc>
<speed>5.350000</speed>
</trkpt>
<trkpt lat="56.088505" lon="26.543571">
<ele>93.364319</ele>
<time>2010-08-29T13:58:15Z</time>
<desc>lat.=56.088505, lon.=26.543571, Alt.=93.364319m. Speed=19.296000m/h.</desc>
<speed>5.360000</speed>
</trkpt>
<trkpt lat="56.088558" lon="26.543577">
<ele>93.922913</ele>
<time>2010-08-29T13:58:16Z</time>
<desc>lat.=56.088558, lon.=26.543577, Alt.=93.922913m. Speed=18.900000m/h.</desc>
<speed>5.250000</speed>
</trkpt>
<trkpt lat="56.088604" lon="26.543579">
<ele>94.131897</ele>
<time>2010-08-29T13:58:17Z</time>
<desc>lat.=56.088604, lon.=26.543579, Alt.=94.131897m. Speed=17.424000m/h.</desc>
<speed>4.840000</speed>
</trkpt>
<trkpt lat="56.088654" lon="26.543585">
<ele>94.502991</ele>
<time>2010-08-29T13:58:18Z</time>
<desc>lat.=56.088654, lon.=26.543585, Alt.=94.502991m. Speed=15.516000m/h.</desc>
<speed>4.310000</speed>
</trkpt>
<trkpt lat="56.088692" lon="26.543587">
<ele>94.254944</ele>
<time>2010-08-29T13:58:19Z</time>
<desc>lat.=56.088692, lon.=26.543587, Alt.=94.254944m. Speed=15.516000m/h.</desc>
<speed>4.310000</speed>
</trkpt>
<trkpt lat="56.088730" lon="26.543579">
<ele>94.403381</ele>
<time>2010-08-29T13:58:20Z</time>
<desc>lat.=56.088730, lon.=26.543579, Alt.=94.403381m. Speed=16.344000m/h.</desc>
<speed>4.540000</speed>
</trkpt>
<trkpt lat="56.088772" lon="26.543575">
<ele>94.303772</ele>
<time>2010-08-29T13:58:21Z</time>
<desc>lat.=56.088772, lon.=26.543575, Alt.=94.303772m. Speed=15.624000m/h.</desc>
<speed>4.340000</speed>
</trkpt>
<trkpt lat="56.088810" lon="26.543571">
<ele>93.930725</ele>
<time>2010-08-29T13:58:22Z</time>
<desc>lat.=56.088810, lon.=26.543571, Alt.=93.930725m. Speed=15.768000m/h.</desc>
<speed>4.380000</speed>
</trkpt>
<trkpt lat="56.088848" lon="26.543579">
<ele>96.807678</ele>
<time>2010-08-29T13:58:23Z</time>
<desc>lat.=56.088848, lon.=26.543579, Alt.=96.807678m. Speed=15.552000m/h.</desc>
<speed>4.320000</speed>
</trkpt>
<trkpt lat="56.088886" lon="26.543587">
<ele>97.377991</ele>
<time>2010-08-29T13:58:24Z</time>
<desc>lat.=56.088886, lon.=26.543587, Alt.=97.377991m. Speed=15.696000m/h.</desc>
<speed>4.360000</speed>
</trkpt>
<trkpt lat="56.088924" lon="26.543596">
<ele>97.850647</ele>
<time>2010-08-29T13:58:25Z</time>
<desc>lat.=56.088924, lon.=26.543596, Alt.=97.850647m. Speed=15.336000m/h.</desc>
<speed>4.260000</speed>
</trkpt>
<trkpt lat="56.088959" lon="26.543598">
<ele>98.071350</ele>
<time>2010-08-29T13:58:26Z</time>
<desc>lat.=56.088959, lon.=26.543598, Alt.=98.071350m. Speed=15.192000m/h.</desc>
<speed>4.220000</speed>
</trkpt>
<trkpt lat="56.088997" lon="26.543596">
<ele>99.178772</ele>
<time>2010-08-29T13:58:27Z</time>
<desc>lat.=56.088997, lon.=26.543596, Alt.=99.178772m. Speed=14.688000m/h.</desc>
<speed>4.080000</speed>
</trkpt>
<trkpt lat="56.089035" lon="26.543589">
<ele>99.829163</ele>
<time>2010-08-29T13:58:28Z</time>
<desc>lat.=56.089035, lon.=26.543589, Alt.=99.829163m. Speed=16.596001m/h.</desc>
<speed>4.610000</speed>
</trkpt>
<trkpt lat="56.089077" lon="26.543583">
<ele>100.252991</ele>
<time>2010-08-29T13:58:29Z</time>
<desc>lat.=56.089077, lon.=26.543583, Alt.=100.252991m. Speed=15.984000m/h.</desc>
<speed>4.440000</speed>
</trkpt>
<trkpt lat="56.089115" lon="26.543577">
<ele>100.762756</ele>
<time>2010-08-29T13:58:30Z</time>
<desc>lat.=56.089115, lon.=26.543577, Alt.=100.762756m. Speed=15.804000m/h.</desc>
<speed>4.390000</speed>
</trkpt>
<trkpt lat="56.089149" lon="26.543577">
<ele>101.627991</ele>
<time>2010-08-29T13:58:31Z</time>
<desc>lat.=56.089149, lon.=26.543577, Alt.=101.627991m. Speed=12.744000m/h.</desc>
<speed>3.540000</speed>
</trkpt>
<trkpt lat="56.089188" lon="26.543585">
<ele>102.645569</ele>
<time>2010-08-29T13:58:32Z</time>
<desc>lat.=56.089188, lon.=26.543585, Alt.=102.645569m. Speed=13.788000m/h.</desc>
<speed>3.830000</speed>
</trkpt>
<trkpt lat="56.089222" lon="26.543583">
<ele>103.210022</ele>
<time>2010-08-29T13:58:33Z</time>
<desc>lat.=56.089222, lon.=26.543583, Alt.=103.210022m. Speed=13.608000m/h.</desc>
<speed>3.780000</speed>
</trkpt>
<trkpt lat="56.089252" lon="26.543583">
<ele>102.489319</ele>
<time>2010-08-29T13:58:34Z</time>
<desc>lat.=56.089252, lon.=26.543583, Alt.=102.489319m. Speed=13.032000m/h.</desc>
<speed>3.620000</speed>
</trkpt>
<trkpt lat="56.089283" lon="26.543583">
<ele>101.776428</ele>
<time>2010-08-29T13:58:35Z</time>
<desc>lat.=56.089283, lon.=26.543583, Alt.=101.776428m. Speed=12.528000m/h.</desc>
<speed>3.480000</speed>
</trkpt>
<trkpt lat="56.089317" lon="26.543587">
<ele>101.852600</ele>
<time>2010-08-29T13:58:36Z</time>
<desc>lat.=56.089317, lon.=26.543587, Alt.=101.852600m. Speed=13.464000m/h.</desc>
<speed>3.740000</speed>
</trkpt>
<trkpt lat="56.089352" lon="26.543585">
<ele>102.299866</ele>
<time>2010-08-29T13:58:37Z</time>
<desc>lat.=56.089352, lon.=26.543585, Alt.=102.299866m. Speed=13.680000m/h.</desc>
<speed>3.800000</speed>
</trkpt>
<trkpt lat="56.089382" lon="26.543581">
<ele>102.850647</ele>
<time>2010-08-29T13:58:38Z</time>
<desc>lat.=56.089382, lon.=26.543581, Alt.=102.850647m. Speed=12.924000m/h.</desc>
<speed>3.590000</speed>
</trkpt>
<trkpt lat="56.089417" lon="26.543581">
<ele>103.077209</ele>
<time>2010-08-29T13:58:39Z</time>
<desc>lat.=56.089417, lon.=26.543581, Alt.=103.077209m. Speed=13.860000m/h.</desc>
<speed>3.850000</speed>
</trkpt>
<trkpt lat="56.089447" lon="26.543579">
<ele>104.083069</ele>
<time>2010-08-29T13:58:40Z</time>
<desc>lat.=56.089447, lon.=26.543579, Alt.=104.083069m. Speed=13.824000m/h.</desc>
<speed>3.840000</speed>
</trkpt>
<trkpt lat="56.089481" lon="26.543579">
<ele>104.227600</ele>
<time>2010-08-29T13:58:41Z</time>
<desc>lat.=56.089481, lon.=26.543579, Alt.=104.227600m. Speed=13.896000m/h.</desc>
<speed>3.860000</speed>
</trkpt>
<trkpt lat="56.089516" lon="26.543579">
<ele>104.241272</ele>
<time>2010-08-29T13:58:42Z</time>
<desc>lat.=56.089516, lon.=26.543579, Alt.=104.241272m. Speed=15.012000m/h.</desc>
<speed>4.170000</speed>
</trkpt>
<trkpt lat="56.089554" lon="26.543579">
<ele>103.850647</ele>
<time>2010-08-29T13:58:43Z</time>
<desc>lat.=56.089554, lon.=26.543579, Alt.=103.850647m. Speed=14.400000m/h.</desc>
<speed>4.000000</speed>
</trkpt>
<trkpt lat="56.089592" lon="26.543573">
<ele>104.075256</ele>
<time>2010-08-29T13:58:44Z</time>
<desc>lat.=56.089592, lon.=26.543573, Alt.=104.075256m. Speed=14.688000m/h.</desc>
<speed>4.080000</speed>
</trkpt>
<trkpt lat="56.089626" lon="26.543579">
<ele>104.309631</ele>
<time>2010-08-29T13:58:45Z</time>
<desc>lat.=56.089626, lon.=26.543579, Alt.=104.309631m. Speed=14.652000m/h.</desc>
<speed>4.070000</speed>
</trkpt>
<trkpt lat="56.089664" lon="26.543585">
<ele>104.288147</ele>
<time>2010-08-29T13:58:46Z</time>
<desc>lat.=56.089664, lon.=26.543585, Alt.=104.288147m. Speed=13.896000m/h.</desc>
<speed>3.860000</speed>
</trkpt>
<trkpt lat="56.089703" lon="26.543589">
<ele>104.489319</ele>
<time>2010-08-29T13:58:47Z</time>
<desc>lat.=56.089703, lon.=26.543589, Alt.=104.489319m. Speed=14.220000m/h.</desc>
<speed>3.950000</speed>
</trkpt>
<trkpt lat="56.089745" lon="26.543592">
<ele>102.264709</ele>
<time>2010-08-29T13:58:48Z</time>
<desc>lat.=56.089745, lon.=26.543592, Alt.=102.264709m. Speed=14.508000m/h.</desc>
<speed>4.030000</speed>
</trkpt>
<trkpt lat="56.089783" lon="26.543600">
<ele>101.387756</ele>
<time>2010-08-29T13:58:49Z</time>
<desc>lat.=56.089783, lon.=26.543600, Alt.=101.387756m. Speed=14.508000m/h.</desc>
<speed>4.030000</speed>
</trkpt>
<trkpt lat="56.089817" lon="26.543606">
<ele>101.524475</ele>
<time>2010-08-29T13:58:50Z</time>
<desc>lat.=56.089817, lon.=26.543606, Alt.=101.524475m. Speed=14.868000m/h.</desc>
<speed>4.130000</speed>
</trkpt>
<trkpt lat="56.089855" lon="26.543608">
<ele>101.626038</ele>
<time>2010-08-29T13:58:51Z</time>
<desc>lat.=56.089855, lon.=26.543608, Alt.=101.626038m. Speed=14.904000m/h.</desc>
<speed>4.140000</speed>
</trkpt>
<trkpt lat="56.089893" lon="26.543610">
<ele>101.690491</ele>
<time>2010-08-29T13:58:52Z</time>
<desc>lat.=56.089893, lon.=26.543610, Alt.=101.690491m. Speed=15.192000m/h.</desc>
<speed>4.220000</speed>
</trkpt>
<trkpt lat="56.089931" lon="26.543613">
<ele>101.985413</ele>
<time>2010-08-29T13:58:53Z</time>
<desc>lat.=56.089931, lon.=26.543613, Alt.=101.985413m. Speed=13.644000m/h.</desc>
<speed>3.790000</speed>
</trkpt>
<trkpt lat="56.089962" lon="26.543612">
<ele>101.688538</ele>
<time>2010-08-29T13:58:54Z</time>
<desc>lat.=56.089962, lon.=26.543612, Alt.=101.688538m. Speed=12.276000m/h.</desc>
<speed>3.410000</speed>
</trkpt>
<trkpt lat="56.089989" lon="26.543610">
<ele>101.567444</ele>
<time>2010-08-29T13:58:55Z</time>
<desc>lat.=56.089989, lon.=26.543610, Alt.=101.567444m. Speed=11.412000m/h.</desc>
<speed>3.170000</speed>
</trkpt>
<trkpt lat="56.090012" lon="26.543608">
<ele>101.795959</ele>
<time>2010-08-29T13:58:56Z</time>
<desc>lat.=56.090012, lon.=26.543608, Alt.=101.795959m. Speed=9.900000m/h.</desc>
<speed>2.750000</speed>
</trkpt>
<trkpt lat="56.090031" lon="26.543610">
<ele>101.383850</ele>
<time>2010-08-29T13:58:57Z</time>
<desc>lat.=56.090031, lon.=26.543610, Alt.=101.383850m. Speed=9.144000m/h.</desc>
<speed>2.540000</speed>
</trkpt>
<trkpt lat="56.090054" lon="26.543608">
<ele>101.840881</ele>
<time>2010-08-29T13:58:58Z</time>
<desc>lat.=56.090054, lon.=26.543608, Alt.=101.840881m. Speed=8.784000m/h.</desc>
<speed>2.440000</speed>
</trkpt>
<trkpt lat="56.090080" lon="26.543610">
<ele>102.456116</ele>
<time>2010-08-29T13:58:59Z</time>
<desc>lat.=56.090080, lon.=26.543610, Alt.=102.456116m. Speed=10.584000m/h.</desc>
<speed>2.940000</speed>
</trkpt>
<trkpt lat="56.090107" lon="26.543613">
<ele>102.579163</ele>
<time>2010-08-29T13:59:00Z</time>
<desc>lat.=56.090107, lon.=26.543613, Alt.=102.579163m. Speed=11.484000m/h.</desc>
<speed>3.190000</speed>
</trkpt>
<trkpt lat="56.090137" lon="26.543617">
<ele>102.233459</ele>
<time>2010-08-29T13:59:01Z</time>
<desc>lat.=56.090137, lon.=26.543617, Alt.=102.233459m. Speed=12.852000m/h.</desc>
<speed>3.570000</speed>
</trkpt>
<trkpt lat="56.090172" lon="26.543617">
<ele>101.629944</ele>
<time>2010-08-29T13:59:02Z</time>
<desc>lat.=56.090172, lon.=26.543617, Alt.=101.629944m. Speed=13.752000m/h.</desc>
<speed>3.820000</speed>
</trkpt>
<trkpt lat="56.090202" lon="26.543612">
<ele>101.965881</ele>
<time>2010-08-29T13:59:03Z</time>
<desc>lat.=56.090202, lon.=26.543612, Alt.=101.965881m. Speed=11.376000m/h.</desc>
<speed>3.160000</speed>
</trkpt>
<trkpt lat="56.090233" lon="26.543612">
<ele>101.989319</ele>
<time>2010-08-29T13:59:04Z</time>
<desc>lat.=56.090233, lon.=26.543612, Alt.=101.989319m. Speed=13.464000m/h.</desc>
<speed>3.740000</speed>
</trkpt>
<trkpt lat="56.090267" lon="26.543613">
<ele>101.794006</ele>
<time>2010-08-29T13:59:05Z</time>
<desc>lat.=56.090267, lon.=26.543613, Alt.=101.794006m. Speed=14.148000m/h.</desc>
<speed>3.930000</speed>
</trkpt>
<trkpt lat="56.090302" lon="26.543617">
<ele>101.698303</ele>
<time>2010-08-29T13:59:06Z</time>
<desc>lat.=56.090302, lon.=26.543617, Alt.=101.698303m. Speed=13.032000m/h.</desc>
<speed>3.620000</speed>
</trkpt>
<trkpt lat="56.090332" lon="26.543613">
<ele>100.991272</ele>
<time>2010-08-29T13:59:07Z</time>
<desc>lat.=56.090332, lon.=26.543613, Alt.=100.991272m. Speed=13.860000m/h.</desc>
<speed>3.850000</speed>
</trkpt>
<trkpt lat="56.090366" lon="26.543610">
<ele>100.784241</ele>
<time>2010-08-29T13:59:08Z</time>
<desc>lat.=56.090366, lon.=26.543610, Alt.=100.784241m. Speed=13.860000m/h.</desc>
<speed>3.850000</speed>
</trkpt>
<trkpt lat="56.090389" lon="26.543606">
<ele>100.899475</ele>
<time>2010-08-29T13:59:09Z</time>
<desc>lat.=56.090389, lon.=26.543606, Alt.=100.899475m. Speed=11.412000m/h.</desc>
<speed>3.170000</speed>
</trkpt>
<trkpt lat="56.090412" lon="26.543606">
<ele>101.393616</ele>
<time>2010-08-29T13:59:10Z</time>
<desc>lat.=56.090412, lon.=26.543606, Alt.=101.393616m. Speed=11.196000m/h.</desc>
<speed>3.110000</speed>
</trkpt>
<trkpt lat="56.090446" lon="26.543610">
<ele>100.321350</ele>
<time>2010-08-29T13:59:11Z</time>
<desc>lat.=56.090446, lon.=26.543610, Alt.=100.321350m. Speed=12.024000m/h.</desc>
<speed>3.340000</speed>
</trkpt>
<trkpt lat="56.090481" lon="26.543615">
<ele>99.864319</ele>
<time>2010-08-29T13:59:12Z</time>
<desc>lat.=56.090481, lon.=26.543615, Alt.=99.864319m. Speed=10.800000m/h.</desc>
<speed>3.000000</speed>
</trkpt>
<trkpt lat="56.090508" lon="26.543612">
<ele>99.952209</ele>
<time>2010-08-29T13:59:13Z</time>
<desc>lat.=56.090508, lon.=26.543612, Alt.=99.952209m. Speed=10.368000m/h.</desc>
<speed>2.880000</speed>
</trkpt>
<trkpt lat="56.090542" lon="26.543619">
<ele>99.768616</ele>
<time>2010-08-29T13:59:14Z</time>
<desc>lat.=56.090542, lon.=26.543619, Alt.=99.768616m. Speed=9.612000m/h.</desc>
<speed>2.670000</speed>
</trkpt>
<trkpt lat="56.090569" lon="26.543629">
<ele>100.426819</ele>
<time>2010-08-29T13:59:15Z</time>
<desc>lat.=56.090569, lon.=26.543629, Alt.=100.426819m. Speed=9.288000m/h.</desc>
<speed>2.580000</speed>
</trkpt>
<trkpt lat="56.090595" lon="26.543634">
<ele>100.846741</ele>
<time>2010-08-29T13:59:16Z</time>
<desc>lat.=56.090595, lon.=26.543634, Alt.=100.846741m. Speed=10.476000m/h.</desc>
<speed>2.910000</speed>
</trkpt>
<trkpt lat="56.090622" lon="26.543638">
<ele>101.569397</ele>
<time>2010-08-29T13:59:17Z</time>
<desc>lat.=56.090622, lon.=26.543638, Alt.=101.569397m. Speed=10.404000m/h.</desc>
<speed>2.890000</speed>
</trkpt>
<trkpt lat="56.090652" lon="26.543627">
<ele>101.770569</ele>
<time>2010-08-29T13:59:18Z</time>
<desc>lat.=56.090652, lon.=26.543627, Alt.=101.770569m. Speed=11.880000m/h.</desc>
<speed>3.300000</speed>
</trkpt>
<trkpt lat="56.090683" lon="26.543623">
<ele>101.762756</ele>
<time>2010-08-29T13:59:19Z</time>
<desc>lat.=56.090683, lon.=26.543623, Alt.=101.762756m. Speed=12.960000m/h.</desc>
<speed>3.600000</speed>
</trkpt>
<trkpt lat="56.090729" lon="26.543623">
<ele>102.065491</ele>
<time>2010-08-29T13:59:20Z</time>
<desc>lat.=56.090729, lon.=26.543623, Alt.=102.065491m. Speed=13.608000m/h.</desc>
<speed>3.780000</speed>
</trkpt>
<trkpt lat="56.090767" lon="26.543619">
<ele>102.180725</ele>
<time>2010-08-29T13:59:21Z</time>
<desc>lat.=56.090767, lon.=26.543619, Alt.=102.180725m. Speed=14.472000m/h.</desc>
<speed>4.020000</speed>
</trkpt>
<trkpt lat="56.090813" lon="26.543604">
<ele>101.182678</ele>
<time>2010-08-29T13:59:22Z</time>
<desc>lat.=56.090813, lon.=26.543604, Alt.=101.182678m. Speed=15.048000m/h.</desc>
<speed>4.180000</speed>
</trkpt>
<trkpt lat="56.090851" lon="26.543610">
<ele>101.735413</ele>
<time>2010-08-29T13:59:23Z</time>
<desc>lat.=56.090851, lon.=26.543610, Alt.=101.735413m. Speed=15.696000m/h.</desc>
<speed>4.360000</speed>
</trkpt>
<trkpt lat="56.090893" lon="26.543615">
<ele>101.473694</ele>
<time>2010-08-29T13:59:24Z</time>
<desc>lat.=56.090893, lon.=26.543615, Alt.=101.473694m. Speed=15.876000m/h.</desc>
<speed>4.410000</speed>
</trkpt>
<trkpt lat="56.090935" lon="26.543613">
<ele>101.135803</ele>
<time>2010-08-29T13:59:25Z</time>
<desc>lat.=56.090935, lon.=26.543613, Alt.=101.135803m. Speed=16.452000m/h.</desc>
<speed>4.570000</speed>
</trkpt>
<trkpt lat="56.090977" lon="26.543600">
<ele>100.743225</ele>
<time>2010-08-29T13:59:26Z</time>
<desc>lat.=56.090977, lon.=26.543600, Alt.=100.743225m. Speed=16.091999m/h.</desc>
<speed>4.470000</speed>
</trkpt>
<trkpt lat="56.091015" lon="26.543596">
<ele>101.059631</ele>
<time>2010-08-29T13:59:27Z</time>
<desc>lat.=56.091015, lon.=26.543596, Alt.=101.059631m. Speed=14.904000m/h.</desc>
<speed>4.140000</speed>
</trkpt>
<trkpt lat="56.091057" lon="26.543592">
<ele>100.485413</ele>
<time>2010-08-29T13:59:28Z</time>
<desc>lat.=56.091057, lon.=26.543592, Alt.=100.485413m. Speed=15.084000m/h.</desc>
<speed>4.190000</speed>
</trkpt>
<trkpt lat="56.091095" lon="26.543589">
<ele>100.428772</ele>
<time>2010-08-29T13:59:29Z</time>
<desc>lat.=56.091095, lon.=26.543589, Alt.=100.428772m. Speed=15.084000m/h.</desc>
<speed>4.190000</speed>
</trkpt>
<trkpt lat="56.091137" lon="26.543585">
<ele>100.094788</ele>
<time>2010-08-29T13:59:30Z</time>
<desc>lat.=56.091137, lon.=26.543585, Alt.=100.094788m. Speed=15.228000m/h.</desc>
<speed>4.230000</speed>
</trkpt>
<trkpt lat="56.091171" lon="26.543583">
<ele>100.348694</ele>
<time>2010-08-29T13:59:31Z</time>
<desc>lat.=56.091171, lon.=26.543583, Alt.=100.348694m. Speed=16.056000m/h.</desc>
<speed>4.460000</speed>
</trkpt>
<trkpt lat="56.091209" lon="26.543579">
<ele>99.504944</ele>
<time>2010-08-29T13:59:32Z</time>
<desc>lat.=56.091209, lon.=26.543579, Alt.=99.504944m. Speed=15.624000m/h.</desc>
<speed>4.340000</speed>
</trkpt>
<trkpt lat="56.091248" lon="26.543581">
<ele>100.006897</ele>
<time>2010-08-29T13:59:33Z</time>
<desc>lat.=56.091248, lon.=26.543581, Alt.=100.006897m. Speed=14.256000m/h.</desc>
<speed>3.960000</speed>
</trkpt>
<trkpt lat="56.091290" lon="26.543581">
<ele>100.563538</ele>
<time>2010-08-29T13:59:34Z</time>
<desc>lat.=56.091290, lon.=26.543581, Alt.=100.563538m. Speed=15.048000m/h.</desc>
<speed>4.180000</speed>
</trkpt>
<trkpt lat="56.091328" lon="26.543585">
<ele>101.096741</ele>
<time>2010-08-29T13:59:35Z</time>
<desc>lat.=56.091328, lon.=26.543585, Alt.=101.096741m. Speed=15.372000m/h.</desc>
<speed>4.270000</speed>
</trkpt>
<trkpt lat="56.091366" lon="26.543589">
<ele>100.479553</ele>
<time>2010-08-29T13:59:36Z</time>
<desc>lat.=56.091366, lon.=26.543589, Alt.=100.479553m. Speed=13.968000m/h.</desc>
<speed>3.880000</speed>
</trkpt>
<trkpt lat="56.091396" lon="26.543589">
<ele>100.233459</ele>
<time>2010-08-29T13:59:37Z</time>
<desc>lat.=56.091396, lon.=26.543589, Alt.=100.233459m. Speed=11.916000m/h.</desc>
<speed>3.310000</speed>
</trkpt>
<trkpt lat="56.091427" lon="26.543592">
<ele>99.879944</ele>
<time>2010-08-29T13:59:38Z</time>
<desc>lat.=56.091427, lon.=26.543592, Alt.=99.879944m. Speed=11.700000m/h.</desc>
<speed>3.250000</speed>
</trkpt>
<trkpt lat="56.091454" lon="26.543594">
<ele>100.188538</ele>
<time>2010-08-29T13:59:39Z</time>
<desc>lat.=56.091454, lon.=26.543594, Alt.=100.188538m. Speed=11.628000m/h.</desc>
<speed>3.230000</speed>
</trkpt>
<trkpt lat="56.091480" lon="26.543592">
<ele>100.014709</ele>
<time>2010-08-29T13:59:40Z</time>
<desc>lat.=56.091480, lon.=26.543592, Alt.=100.014709m. Speed=12.204000m/h.</desc>
<speed>3.390000</speed>
</trkpt>
<trkpt lat="56.091515" lon="26.543596">
<ele>99.848694</ele>
<time>2010-08-29T13:59:41Z</time>
<desc>lat.=56.091515, lon.=26.543596, Alt.=99.848694m. Speed=12.636000m/h.</desc>
<speed>3.510000</speed>
</trkpt>
<trkpt lat="56.091545" lon="26.543591">
<ele>98.997131</ele>
<time>2010-08-29T13:59:42Z</time>
<desc>lat.=56.091545, lon.=26.543591, Alt.=98.997131m. Speed=11.700000m/h.</desc>
<speed>3.250000</speed>
</trkpt>
<trkpt lat="56.091579" lon="26.543592">
<ele>98.674866</ele>
<time>2010-08-29T13:59:43Z</time>
<desc>lat.=56.091579, lon.=26.543592, Alt.=98.674866m. Speed=12.168000m/h.</desc>
<speed>3.380000</speed>
</trkpt>
<trkpt lat="56.091614" lon="26.543600">
<ele>99.467834</ele>
<time>2010-08-29T13:59:44Z</time>
<desc>lat.=56.091614, lon.=26.543600, Alt.=99.467834m. Speed=11.448000m/h.</desc>
<speed>3.180000</speed>
</trkpt>
<trkpt lat="56.091644" lon="26.543587">
<ele>98.885803</ele>
<time>2010-08-29T13:59:45Z</time>
<desc>lat.=56.091644, lon.=26.543587, Alt.=98.885803m. Speed=10.728000m/h.</desc>
<speed>2.980000</speed>
</trkpt>
<trkpt lat="56.091671" lon="26.543571">
<ele>96.766663</ele>
<time>2010-08-29T13:59:46Z</time>
<desc>lat.=56.091671, lon.=26.543571, Alt.=96.766663m. Speed=11.628000m/h.</desc>
<speed>3.230000</speed>
</trkpt>
<trkpt lat="56.091702" lon="26.543573">
<ele>96.756897</ele>
<time>2010-08-29T13:59:47Z</time>
<desc>lat.=56.091702, lon.=26.543573, Alt.=96.756897m. Speed=13.644000m/h.</desc>
<speed>3.790000</speed>
</trkpt>
<trkpt lat="56.091740" lon="26.543566">
<ele>96.512756</ele>
<time>2010-08-29T13:59:48Z</time>
<desc>lat.=56.091740, lon.=26.543566, Alt.=96.512756m. Speed=15.408000m/h.</desc>
<speed>4.280000</speed>
</trkpt>
<trkpt lat="56.091778" lon="26.543562">
<ele>96.926819</ele>
<time>2010-08-29T13:59:49Z</time>
<desc>lat.=56.091778, lon.=26.543562, Alt.=96.926819m. Speed=17.280001m/h.</desc>
<speed>4.800000</speed>
</trkpt>
<trkpt lat="56.091831" lon="26.543566">
<ele>97.799866</ele>
<time>2010-08-29T13:59:50Z</time>
<desc>lat.=56.091831, lon.=26.543566, Alt.=97.799866m. Speed=18.900000m/h.</desc>
<speed>5.250000</speed>
</trkpt>
<trkpt lat="56.091881" lon="26.543564">
<ele>97.969788</ele>
<time>2010-08-29T13:59:51Z</time>
<desc>lat.=56.091881, lon.=26.543564, Alt.=97.969788m. Speed=19.080000m/h.</desc>
<speed>5.300000</speed>
</trkpt>
<trkpt lat="56.091930" lon="26.543558">
<ele>98.407288</ele>
<time>2010-08-29T13:59:52Z</time>
<desc>lat.=56.091930, lon.=26.543558, Alt.=98.407288m. Speed=19.836000m/h.</desc>
<speed>5.510000</speed>
</trkpt>
<trkpt lat="56.091988" lon="26.543556">
<ele>98.346741</ele>
<time>2010-08-29T13:59:53Z</time>
<desc>lat.=56.091988, lon.=26.543556, Alt.=98.346741m. Speed=20.988001m/h.</desc>
<speed>5.830000</speed>
</trkpt>
<trkpt lat="56.092041" lon="26.543554">
<ele>98.202209</ele>
<time>2010-08-29T13:59:54Z</time>
<desc>lat.=56.092041, lon.=26.543554, Alt.=98.202209m. Speed=22.392000m/h.</desc>
<speed>6.220000</speed>
</trkpt>
<trkpt lat="56.092098" lon="26.543560">
<ele>98.477600</ele>
<time>2010-08-29T13:59:55Z</time>
<desc>lat.=56.092098, lon.=26.543560, Alt.=98.477600m. Speed=21.600000m/h.</desc>
<speed>6.000000</speed>
</trkpt>
<trkpt lat="56.092152" lon="26.543560">
<ele>98.045959</ele>
<time>2010-08-29T13:59:56Z</time>
<desc>lat.=56.092152, lon.=26.543560, Alt.=98.045959m. Speed=21.384001m/h.</desc>
<speed>5.940000</speed>
</trkpt>
<trkpt lat="56.092205" lon="26.543564">
<ele>97.891663</ele>
<time>2010-08-29T13:59:57Z</time>
<desc>lat.=56.092205, lon.=26.543564, Alt.=97.891663m. Speed=21.240000m/h.</desc>
<speed>5.900000</speed>
</trkpt>
<trkpt lat="56.092258" lon="26.543558">
<ele>97.760803</ele>
<time>2010-08-29T13:59:58Z</time>
<desc>lat.=56.092258, lon.=26.543558, Alt.=97.760803m. Speed=20.879999m/h.</desc>
<speed>5.800000</speed>
</trkpt>
<trkpt lat="56.092312" lon="26.543562">
<ele>98.335022</ele>
<time>2010-08-29T13:59:59Z</time>
<desc>lat.=56.092312, lon.=26.543562, Alt.=98.335022m. Speed=20.340000m/h.</desc>
<speed>5.650000</speed>
</trkpt>
<trkpt lat="56.092365" lon="26.543564">
<ele>98.124084</ele>
<time>2010-08-29T14:00:00Z</time>
<desc>lat.=56.092365, lon.=26.543564, Alt.=98.124084m. Speed=21.420000m/h.</desc>
<speed>5.950000</speed>
</trkpt>
<trkpt lat="56.092419" lon="26.543560">
<ele>98.262756</ele>
<time>2010-08-29T14:00:01Z</time>
<desc>lat.=56.092419, lon.=26.543560, Alt.=98.262756m. Speed=22.212000m/h.</desc>
<speed>6.170000</speed>
</trkpt>
<trkpt lat="56.092476" lon="26.543558">
<ele>98.108459</ele>
<time>2010-08-29T14:00:02Z</time>
<desc>lat.=56.092476, lon.=26.543558, Alt.=98.108459m. Speed=23.040001m/h.</desc>
<speed>6.400000</speed>
</trkpt>
<trkpt lat="56.092537" lon="26.543552">
<ele>98.290100</ele>
<time>2010-08-29T14:00:03Z</time>
<desc>lat.=56.092537, lon.=26.543552, Alt.=98.290100m. Speed=23.868000m/h.</desc>
<speed>6.630000</speed>
</trkpt>
<trkpt lat="56.092598" lon="26.543543">
<ele>98.331116</ele>
<time>2010-08-29T14:00:04Z</time>
<desc>lat.=56.092598, lon.=26.543543, Alt.=98.331116m. Speed=23.976000m/h.</desc>
<speed>6.660000</speed>
</trkpt>
<trkpt lat="56.092659" lon="26.543537">
<ele>98.481506</ele>
<time>2010-08-29T14:00:05Z</time>
<desc>lat.=56.092659, lon.=26.543537, Alt.=98.481506m. Speed=23.292000m/h.</desc>
<speed>6.470000</speed>
</trkpt>
<trkpt lat="56.092720" lon="26.543531">
<ele>98.928772</ele>
<time>2010-08-29T14:00:06Z</time>
<desc>lat.=56.092720, lon.=26.543531, Alt.=98.928772m. Speed=22.572001m/h.</desc>
<speed>6.270000</speed>
</trkpt>
<trkpt lat="56.092773" lon="26.543520">
<ele>98.370178</ele>
<time>2010-08-29T14:00:07Z</time>
<desc>lat.=56.092773, lon.=26.543520, Alt.=98.370178m. Speed=21.780001m/h.</desc>
<speed>6.050000</speed>
</trkpt>
<trkpt lat="56.092827" lon="26.543512">
<ele>98.270569</ele>
<time>2010-08-29T14:00:08Z</time>
<desc>lat.=56.092827, lon.=26.543512, Alt.=98.270569m. Speed=21.240000m/h.</desc>
<speed>5.900000</speed>
</trkpt>
<trkpt lat="56.092880" lon="26.543505">
<ele>97.629944</ele>
<time>2010-08-29T14:00:09Z</time>
<desc>lat.=56.092880, lon.=26.543505, Alt.=97.629944m. Speed=21.996000m/h.</desc>
<speed>6.110000</speed>
</trkpt>
<trkpt lat="56.092941" lon="26.543497">
<ele>97.186584</ele>
<time>2010-08-29T14:00:10Z</time>
<desc>lat.=56.092941, lon.=26.543497, Alt.=97.186584m. Speed=24.228001m/h.</desc>
<speed>6.730000</speed>
</trkpt>
<trkpt lat="56.092999" lon="26.543497">
<ele>97.661194</ele>
<time>2010-08-29T14:00:11Z</time>
<desc>lat.=56.092999, lon.=26.543497, Alt.=97.661194m. Speed=23.004000m/h.</desc>
<speed>6.390000</speed>
</trkpt>
<trkpt lat="56.093060" lon="26.543499">
<ele>98.678772</ele>
<time>2010-08-29T14:00:12Z</time>
<desc>lat.=56.093060, lon.=26.543499, Alt.=98.678772m. Speed=23.076000m/h.</desc>
<speed>6.410000</speed>
</trkpt>
<trkpt lat="56.093124" lon="26.543503">
<ele>99.321350</ele>
<time>2010-08-29T14:00:13Z</time>
<desc>lat.=56.093124, lon.=26.543503, Alt.=99.321350m. Speed=23.940001m/h.</desc>
<speed>6.650000</speed>
</trkpt>
<trkpt lat="56.093185" lon="26.543505">
<ele>99.661194</ele>
<time>2010-08-29T14:00:14Z</time>
<desc>lat.=56.093185, lon.=26.543505, Alt.=99.661194m. Speed=23.472000m/h.</desc>
<speed>6.520000</speed>
</trkpt>
<trkpt lat="56.093246" lon="26.543501">
<ele>99.915100</ele>
<time>2010-08-29T14:00:15Z</time>
<desc>lat.=56.093246, lon.=26.543501, Alt.=99.915100m. Speed=23.219999m/h.</desc>
<speed>6.450000</speed>
</trkpt>
<trkpt lat="56.093304" lon="26.543493">
<ele>99.702209</ele>
<time>2010-08-29T14:00:16Z</time>
<desc>lat.=56.093304, lon.=26.543493, Alt.=99.702209m. Speed=22.500000m/h.</desc>
<speed>6.250000</speed>
</trkpt>
<trkpt lat="56.093357" lon="26.543484">
<ele>99.647522</ele>
<time>2010-08-29T14:00:17Z</time>
<desc>lat.=56.093357, lon.=26.543484, Alt.=99.647522m. Speed=21.563999m/h.</desc>
<speed>5.990000</speed>
</trkpt>
<trkpt lat="56.093410" lon="26.543470">
<ele>98.803772</ele>
<time>2010-08-29T14:00:18Z</time>
<desc>lat.=56.093410, lon.=26.543470, Alt.=98.803772m. Speed=21.096001m/h.</desc>
<speed>5.860000</speed>
</trkpt>
<trkpt lat="56.093464" lon="26.543478">
<ele>99.026428</ele>
<time>2010-08-29T14:00:19Z</time>
<desc>lat.=56.093464, lon.=26.543478, Alt.=99.026428m. Speed=20.483999m/h.</desc>
<speed>5.690000</speed>
</trkpt>
<trkpt lat="56.093513" lon="26.543489">
<ele>99.417053</ele>
<time>2010-08-29T14:00:20Z</time>
<desc>lat.=56.093513, lon.=26.543489, Alt.=99.417053m. Speed=20.052000m/h.</desc>
<speed>5.570000</speed>
</trkpt>
<trkpt lat="56.093563" lon="26.543489">
<ele>99.678772</ele>
<time>2010-08-29T14:00:21Z</time>
<desc>lat.=56.093563, lon.=26.543489, Alt.=99.678772m. Speed=19.403999m/h.</desc>
<speed>5.390000</speed>
</trkpt>
<trkpt lat="56.093613" lon="26.543478">
<ele>99.637756</ele>
<time>2010-08-29T14:00:22Z</time>
<desc>lat.=56.093613, lon.=26.543478, Alt.=99.637756m. Speed=19.548000m/h.</desc>
<speed>5.430000</speed>
</trkpt>
<trkpt lat="56.093658" lon="26.543465">
<ele>99.547913</ele>
<time>2010-08-29T14:00:23Z</time>
<desc>lat.=56.093658, lon.=26.543465, Alt.=99.547913m. Speed=19.620001m/h.</desc>
<speed>5.450000</speed>
</trkpt>
<trkpt lat="56.093708" lon="26.543455">
<ele>98.196350</ele>
<time>2010-08-29T14:00:24Z</time>
<desc>lat.=56.093708, lon.=26.543455, Alt.=98.196350m. Speed=20.556000m/h.</desc>
<speed>5.710000</speed>
</trkpt>
<trkpt lat="56.093758" lon="26.543449">
<ele>97.415100</ele>
<time>2010-08-29T14:00:25Z</time>
<desc>lat.=56.093758, lon.=26.543449, Alt.=97.415100m. Speed=21.600000m/h.</desc>
<speed>6.000000</speed>
</trkpt>
<trkpt lat="56.093815" lon="26.543449">
<ele>98.692444</ele>
<time>2010-08-29T14:00:26Z</time>
<desc>lat.=56.093815, lon.=26.543449, Alt.=98.692444m. Speed=21.563999m/h.</desc>
<speed>5.990000</speed>
</trkpt>
<trkpt lat="56.093876" lon="26.543451">
<ele>99.493225</ele>
<time>2010-08-29T14:00:27Z</time>
<desc>lat.=56.093876, lon.=26.543451, Alt.=99.493225m. Speed=21.672001m/h.</desc>
<speed>6.020000</speed>
</trkpt>
<trkpt lat="56.093929" lon="26.543459">
<ele>98.778381</ele>
<time>2010-08-29T14:00:28Z</time>
<desc>lat.=56.093929, lon.=26.543459, Alt.=98.778381m. Speed=22.356001m/h.</desc>
<speed>6.210000</speed>
</trkpt>
<trkpt lat="56.093987" lon="26.543457">
<ele>99.137756</ele>
<time>2010-08-29T14:00:29Z</time>
<desc>lat.=56.093987, lon.=26.543457, Alt.=99.137756m. Speed=22.931999m/h.</desc>
<speed>6.370000</speed>
</trkpt>
<trkpt lat="56.094040" lon="26.543451">
<ele>99.112366</ele>
<time>2010-08-29T14:00:30Z</time>
<desc>lat.=56.094040, lon.=26.543451, Alt.=99.112366m. Speed=21.816000m/h.</desc>
<speed>6.060000</speed>
</trkpt>
<trkpt lat="56.094093" lon="26.543449">
<ele>98.624084</ele>
<time>2010-08-29T14:00:31Z</time>
<desc>lat.=56.094093, lon.=26.543449, Alt.=98.624084m. Speed=20.952000m/h.</desc>
<speed>5.820000</speed>
</trkpt>
<trkpt lat="56.094139" lon="26.543444">
<ele>98.186584</ele>
<time>2010-08-29T14:00:32Z</time>
<desc>lat.=56.094139, lon.=26.543444, Alt.=98.186584m. Speed=20.591999m/h.</desc>
<speed>5.720000</speed>
</trkpt>
<trkpt lat="56.094193" lon="26.543436">
<ele>98.768616</ele>
<time>2010-08-29T14:00:33Z</time>
<desc>lat.=56.094193, lon.=26.543436, Alt.=98.768616m. Speed=20.664000m/h.</desc>
<speed>5.740000</speed>
</trkpt>
<trkpt lat="56.094242" lon="26.543430">
<ele>99.049866</ele>
<time>2010-08-29T14:00:34Z</time>
<desc>lat.=56.094242, lon.=26.543430, Alt.=99.049866m. Speed=22.104000m/h.</desc>
<speed>6.140000</speed>
</trkpt>
<trkpt lat="56.094299" lon="26.543419">
<ele>99.309631</ele>
<time>2010-08-29T14:00:35Z</time>
<desc>lat.=56.094299, lon.=26.543419, Alt.=99.309631m. Speed=21.888000m/h.</desc>
<speed>6.080000</speed>
</trkpt>
<trkpt lat="56.094357" lon="26.543411">
<ele>99.481506</ele>
<time>2010-08-29T14:00:36Z</time>
<desc>lat.=56.094357, lon.=26.543411, Alt.=99.481506m. Speed=23.148001m/h.</desc>
<speed>6.430000</speed>
</trkpt>
<trkpt lat="56.094418" lon="26.543413">
<ele>100.325256</ele>
<time>2010-08-29T14:00:37Z</time>
<desc>lat.=56.094418, lon.=26.543413, Alt.=100.325256m. Speed=23.760000m/h.</desc>
<speed>6.600000</speed>
</trkpt>
<trkpt lat="56.094479" lon="26.543417">
<ele>100.385803</ele>
<time>2010-08-29T14:00:38Z</time>
<desc>lat.=56.094479, lon.=26.543417, Alt.=100.385803m. Speed=22.572001m/h.</desc>
<speed>6.270000</speed>
</trkpt>
<trkpt lat="56.094528" lon="26.543417">
<ele>99.368225</ele>
<time>2010-08-29T14:00:39Z</time>
<desc>lat.=56.094528, lon.=26.543417, Alt.=99.368225m. Speed=21.204000m/h.</desc>
<speed>5.890000</speed>
</trkpt>
<trkpt lat="56.094578" lon="26.543407">
<ele>98.901428</ele>
<time>2010-08-29T14:00:40Z</time>
<desc>lat.=56.094578, lon.=26.543407, Alt.=98.901428m. Speed=20.160000m/h.</desc>
<speed>5.600000</speed>
</trkpt>
<trkpt lat="56.094631" lon="26.543402">
<ele>98.272522</ele>
<time>2010-08-29T14:00:41Z</time>
<desc>lat.=56.094631, lon.=26.543402, Alt.=98.272522m. Speed=20.448000m/h.</desc>
<speed>5.680000</speed>
</trkpt>
<trkpt lat="56.094681" lon="26.543394">
<ele>98.042053</ele>
<time>2010-08-29T14:00:42Z</time>
<desc>lat.=56.094681, lon.=26.543394, Alt.=98.042053m. Speed=21.636000m/h.</desc>
<speed>6.010000</speed>
</trkpt>
<trkpt lat="56.094738" lon="26.543386">
<ele>98.180725</ele>
<time>2010-08-29T14:00:43Z</time>
<desc>lat.=56.094738, lon.=26.543386, Alt.=98.180725m. Speed=22.032000m/h.</desc>
<speed>6.120000</speed>
</trkpt>
<trkpt lat="56.094791" lon="26.543383">
<ele>96.704163</ele>
<time>2010-08-29T14:00:44Z</time>
<desc>lat.=56.094791, lon.=26.543383, Alt.=96.704163m. Speed=23.507999m/h.</desc>
<speed>6.530000</speed>
</trkpt>
<trkpt lat="56.094852" lon="26.543383">
<ele>96.262756</ele>
<time>2010-08-29T14:00:45Z</time>
<desc>lat.=56.094852, lon.=26.543383, Alt.=96.262756m. Speed=23.580000m/h.</desc>
<speed>6.550000</speed>
</trkpt>
<trkpt lat="56.094910" lon="26.543381">
<ele>95.780334</ele>
<time>2010-08-29T14:00:46Z</time>
<desc>lat.=56.094910, lon.=26.543381, Alt.=95.780334m. Speed=23.868000m/h.</desc>
<speed>6.630000</speed>
</trkpt>
<trkpt lat="56.094975" lon="26.543381">
<ele>96.645569</ele>
<time>2010-08-29T14:00:47Z</time>
<desc>lat.=56.094975, lon.=26.543381, Alt.=96.645569m. Speed=23.796000m/h.</desc>
<speed>6.610000</speed>
</trkpt>
<trkpt lat="56.095028" lon="26.543381">
<ele>96.702209</ele>
<time>2010-08-29T14:00:48Z</time>
<desc>lat.=56.095028, lon.=26.543381, Alt.=96.702209m. Speed=22.284000m/h.</desc>
<speed>6.190000</speed>
</trkpt>
<trkpt lat="56.095085" lon="26.543386">
<ele>96.766663</ele>
<time>2010-08-29T14:00:49Z</time>
<desc>lat.=56.095085, lon.=26.543386, Alt.=96.766663m. Speed=21.743999m/h.</desc>
<speed>6.040000</speed>
</trkpt>
<trkpt lat="56.095142" lon="26.543383">
<ele>96.958069</ele>
<time>2010-08-29T14:00:50Z</time>
<desc>lat.=56.095142, lon.=26.543383, Alt.=96.958069m. Speed=22.427999m/h.</desc>
<speed>6.230000</speed>
</trkpt>
<trkpt lat="56.095203" lon="26.543383">
<ele>97.489319</ele>
<time>2010-08-29T14:00:51Z</time>
<desc>lat.=56.095203, lon.=26.543383, Alt.=97.489319m. Speed=23.184000m/h.</desc>
<speed>6.440000</speed>
</trkpt>
<trkpt lat="56.095257" lon="26.543381">
<ele>96.991272</ele>
<time>2010-08-29T14:00:52Z</time>
<desc>lat.=56.095257, lon.=26.543381, Alt.=96.991272m. Speed=21.996000m/h.</desc>
<speed>6.110000</speed>
</trkpt>
<trkpt lat="56.095306" lon="26.543379">
<ele>96.788147</ele>
<time>2010-08-29T14:00:53Z</time>
<desc>lat.=56.095306, lon.=26.543379, Alt.=96.788147m. Speed=21.096001m/h.</desc>
<speed>5.860000</speed>
</trkpt>
<trkpt lat="56.095356" lon="26.543379">
<ele>96.604553</ele>
<time>2010-08-29T14:00:54Z</time>
<desc>lat.=56.095356, lon.=26.543379, Alt.=96.604553m. Speed=20.124001m/h.</desc>
<speed>5.590000</speed>
</trkpt>
<trkpt lat="56.095409" lon="26.543375">
<ele>97.499084</ele>
<time>2010-08-29T14:00:55Z</time>
<desc>lat.=56.095409, lon.=26.543375, Alt.=97.499084m. Speed=19.152000m/h.</desc>
<speed>5.320000</speed>
</trkpt>
<trkpt lat="56.095455" lon="26.543377">
<ele>95.678772</ele>
<time>2010-08-29T14:00:56Z</time>
<desc>lat.=56.095455, lon.=26.543377, Alt.=95.678772m. Speed=18.000000m/h.</desc>
<speed>5.000000</speed>
</trkpt>
<trkpt lat="56.095497" lon="26.543383">
<ele>94.854553</ele>
<time>2010-08-29T14:00:57Z</time>
<desc>lat.=56.095497, lon.=26.543383, Alt.=94.854553m. Speed=17.856001m/h.</desc>
<speed>4.960000</speed>
</trkpt>
<trkpt lat="56.095543" lon="26.543383">
<ele>94.135803</ele>
<time>2010-08-29T14:00:58Z</time>
<desc>lat.=56.095543, lon.=26.543383, Alt.=94.135803m. Speed=18.900000m/h.</desc>
<speed>5.250000</speed>
</trkpt>
<trkpt lat="56.095589" lon="26.543377">
<ele>93.352600</ele>
<time>2010-08-29T14:00:59Z</time>
<desc>lat.=56.095589, lon.=26.543377, Alt.=93.352600m. Speed=19.115999m/h.</desc>
<speed>5.310000</speed>
</trkpt>
<trkpt lat="56.095634" lon="26.543373">
<ele>93.352600</ele>
<time>2010-08-29T14:01:00Z</time>
<desc>lat.=56.095634, lon.=26.543373, Alt.=93.352600m. Speed=19.548000m/h.</desc>
<speed>5.430000</speed>
</trkpt>
<trkpt lat="56.095680" lon="26.543364">
<ele>93.044006</ele>
<time>2010-08-29T14:01:01Z</time>
<desc>lat.=56.095680, lon.=26.543364, Alt.=93.044006m. Speed=19.656000m/h.</desc>
<speed>5.460000</speed>
</trkpt>
<trkpt lat="56.095734" lon="26.543354">
<ele>93.721741</ele>
<time>2010-08-29T14:01:02Z</time>
<desc>lat.=56.095734, lon.=26.543354, Alt.=93.721741m. Speed=20.412001m/h.</desc>
<speed>5.670000</speed>
</trkpt>
<trkpt lat="56.095787" lon="26.543344">
<ele>94.024475</ele>
<time>2010-08-29T14:01:03Z</time>
<desc>lat.=56.095787, lon.=26.543344, Alt.=94.024475m. Speed=20.268000m/h.</desc>
<speed>5.630000</speed>
</trkpt>
<trkpt lat="56.095840" lon="26.543348">
<ele>95.862366</ele>
<time>2010-08-29T14:01:04Z</time>
<desc>lat.=56.095840, lon.=26.543348, Alt.=95.862366m. Speed=20.448000m/h.</desc>
<speed>5.680000</speed>
</trkpt>
<trkpt lat="56.095890" lon="26.543344">
<ele>95.631897</ele>
<time>2010-08-29T14:01:05Z</time>
<desc>lat.=56.095890, lon.=26.543344, Alt.=95.631897m. Speed=20.952000m/h.</desc>
<speed>5.820000</speed>
</trkpt>
<trkpt lat="56.095940" lon="26.543344">
<ele>96.120178</ele>
<time>2010-08-29T14:01:06Z</time>
<desc>lat.=56.095940, lon.=26.543344, Alt.=96.120178m. Speed=20.916000m/h.</desc>
<speed>5.810000</speed>
</trkpt>
<trkpt lat="56.095993" lon="26.543343">
<ele>96.573303</ele>
<time>2010-08-29T14:01:07Z</time>
<desc>lat.=56.095993, lon.=26.543343, Alt.=96.573303m. Speed=21.528000m/h.</desc>
<speed>5.980000</speed>
</trkpt>
<trkpt lat="56.096046" lon="26.543337">
<ele>96.344788</ele>
<time>2010-08-29T14:01:08Z</time>
<desc>lat.=56.096046, lon.=26.543337, Alt.=96.344788m. Speed=21.132000m/h.</desc>
<speed>5.870000</speed>
</trkpt>
<trkpt lat="56.096100" lon="26.543337">
<ele>96.514709</ele>
<time>2010-08-29T14:01:09Z</time>
<desc>lat.=56.096100, lon.=26.543337, Alt.=96.514709m. Speed=20.195999m/h.</desc>
<speed>5.610000</speed>
</trkpt>
<trkpt lat="56.096146" lon="26.543331">
<ele>96.364319</ele>
<time>2010-08-29T14:01:10Z</time>
<desc>lat.=56.096146, lon.=26.543331, Alt.=96.364319m. Speed=19.115999m/h.</desc>
<speed>5.310000</speed>
</trkpt>
<trkpt lat="56.096195" lon="26.543329">
<ele>96.821350</ele>
<time>2010-08-29T14:01:11Z</time>
<desc>lat.=56.096195, lon.=26.543329, Alt.=96.821350m. Speed=18.000000m/h.</desc>
<speed>5.000000</speed>
</trkpt>
<trkpt lat="56.096237" lon="26.543322">
<ele>96.590881</ele>
<time>2010-08-29T14:01:12Z</time>
<desc>lat.=56.096237, lon.=26.543322, Alt.=96.590881m. Speed=16.812000m/h.</desc>
<speed>4.670000</speed>
</trkpt>
<trkpt lat="56.096279" lon="26.543314">
<ele>96.924866</ele>
<time>2010-08-29T14:01:13Z</time>
<desc>lat.=56.096279, lon.=26.543314, Alt.=96.924866m. Speed=16.524000m/h.</desc>
<speed>4.590000</speed>
</trkpt>
<trkpt lat="56.096321" lon="26.543308">
<ele>96.840881</ele>
<time>2010-08-29T14:01:14Z</time>
<desc>lat.=56.096321, lon.=26.543308, Alt.=96.840881m. Speed=16.848000m/h.</desc>
<speed>4.680000</speed>
</trkpt>
<trkpt lat="56.096363" lon="26.543310">
<ele>96.829163</ele>
<time>2010-08-29T14:01:15Z</time>
<desc>lat.=56.096363, lon.=26.543310, Alt.=96.829163m. Speed=16.344000m/h.</desc>
<speed>4.540000</speed>
</trkpt>
<trkpt lat="56.096405" lon="26.543314">
<ele>97.159241</ele>
<time>2010-08-29T14:01:16Z</time>
<desc>lat.=56.096405, lon.=26.543314, Alt.=97.159241m. Speed=15.696000m/h.</desc>
<speed>4.360000</speed>
</trkpt>
<trkpt lat="56.096443" lon="26.543318">
<ele>97.081116</ele>
<time>2010-08-29T14:01:17Z</time>
<desc>lat.=56.096443, lon.=26.543318, Alt.=97.081116m. Speed=16.091999m/h.</desc>
<speed>4.470000</speed>
</trkpt>
<trkpt lat="56.096481" lon="26.543320">
<ele>97.110413</ele>
<time>2010-08-29T14:01:18Z</time>
<desc>lat.=56.096481, lon.=26.543320, Alt.=97.110413m. Speed=15.192000m/h.</desc>
<speed>4.220000</speed>
</trkpt>
<trkpt lat="56.096519" lon="26.543324">
<ele>97.567444</ele>
<time>2010-08-29T14:01:19Z</time>
<desc>lat.=56.096519, lon.=26.543324, Alt.=97.567444m. Speed=15.300000m/h.</desc>
<speed>4.250000</speed>
</trkpt>
<trkpt lat="56.096558" lon="26.543325">
<ele>98.413147</ele>
<time>2010-08-29T14:01:20Z</time>
<desc>lat.=56.096558, lon.=26.543325, Alt.=98.413147m. Speed=14.580000m/h.</desc>
<speed>4.050000</speed>
</trkpt>
<trkpt lat="56.096596" lon="26.543324">
<ele>98.868225</ele>
<time>2010-08-29T14:01:21Z</time>
<desc>lat.=56.096596, lon.=26.543324, Alt.=98.868225m. Speed=15.192000m/h.</desc>
<speed>4.220000</speed>
</trkpt>
<trkpt lat="56.096634" lon="26.543316">
<ele>98.276428</ele>
<time>2010-08-29T14:01:22Z</time>
<desc>lat.=56.096634, lon.=26.543316, Alt.=98.276428m. Speed=14.832000m/h.</desc>
<speed>4.120000</speed>
</trkpt>
<trkpt lat="56.096672" lon="26.543314">
<ele>98.885803</ele>
<time>2010-08-29T14:01:23Z</time>
<desc>lat.=56.096672, lon.=26.543314, Alt.=98.885803m. Speed=15.768000m/h.</desc>
<speed>4.380000</speed>
</trkpt>
<trkpt lat="56.096706" lon="26.543312">
<ele>99.204163</ele>
<time>2010-08-29T14:01:24Z</time>
<desc>lat.=56.096706, lon.=26.543312, Alt.=99.204163m. Speed=15.012000m/h.</desc>
<speed>4.170000</speed>
</trkpt>
<trkpt lat="56.096741" lon="26.543316">
<ele>99.237366</ele>
<time>2010-08-29T14:01:25Z</time>
<desc>lat.=56.096741, lon.=26.543316, Alt.=99.237366m. Speed=14.184000m/h.</desc>
<speed>3.940000</speed>
</trkpt>
<trkpt lat="56.096775" lon="26.543308">
<ele>99.172913</ele>
<time>2010-08-29T14:01:26Z</time>
<desc>lat.=56.096775, lon.=26.543308, Alt.=99.172913m. Speed=15.084000m/h.</desc>
<speed>4.190000</speed>
</trkpt>
<trkpt lat="56.096813" lon="26.543301">
<ele>98.483459</ele>
<time>2010-08-29T14:01:27Z</time>
<desc>lat.=56.096813, lon.=26.543301, Alt.=98.483459m. Speed=14.796000m/h.</desc>
<speed>4.110000</speed>
</trkpt>
<trkpt lat="56.096848" lon="26.543297">
<ele>98.766663</ele>
<time>2010-08-29T14:01:28Z</time>
<desc>lat.=56.096848, lon.=26.543297, Alt.=98.766663m. Speed=13.644000m/h.</desc>
<speed>3.790000</speed>
</trkpt>
<trkpt lat="56.096882" lon="26.543293">
<ele>99.202209</ele>
<time>2010-08-29T14:01:29Z</time>
<desc>lat.=56.096882, lon.=26.543293, Alt.=99.202209m. Speed=14.652000m/h.</desc>
<speed>4.070000</speed>
</trkpt>
<trkpt lat="56.096920" lon="26.543295">
<ele>99.299866</ele>
<time>2010-08-29T14:01:30Z</time>
<desc>lat.=56.096920, lon.=26.543295, Alt.=99.299866m. Speed=13.572000m/h.</desc>
<speed>3.770000</speed>
</trkpt>
<trkpt lat="56.096962" lon="26.543312">
<ele>99.227600</ele>
<time>2010-08-29T14:01:31Z</time>
<desc>lat.=56.096962, lon.=26.543312, Alt.=99.227600m. Speed=15.804000m/h.</desc>
<speed>4.390000</speed>
</trkpt>
<trkpt lat="56.097000" lon="26.543320">
<ele>99.215881</ele>
<time>2010-08-29T14:01:32Z</time>
<desc>lat.=56.097000, lon.=26.543320, Alt.=99.215881m. Speed=14.256000m/h.</desc>
<speed>3.960000</speed>
</trkpt>
<trkpt lat="56.097034" lon="26.543324">
<ele>99.465881</ele>
<time>2010-08-29T14:01:33Z</time>
<desc>lat.=56.097034, lon.=26.543324, Alt.=99.465881m. Speed=14.148000m/h.</desc>
<speed>3.930000</speed>
</trkpt>
<trkpt lat="56.097069" lon="26.543335">
<ele>99.827209</ele>
<time>2010-08-29T14:01:34Z</time>
<desc>lat.=56.097069, lon.=26.543335, Alt.=99.827209m. Speed=13.716000m/h.</desc>
<speed>3.810000</speed>
</trkpt>
<trkpt lat="56.097107" lon="26.543350">
<ele>99.835022</ele>
<time>2010-08-29T14:01:35Z</time>
<desc>lat.=56.097107, lon.=26.543350, Alt.=99.835022m. Speed=13.608000m/h.</desc>
<speed>3.780000</speed>
</trkpt>
<trkpt lat="56.097137" lon="26.543365">
<ele>99.782288</ele>
<time>2010-08-29T14:01:36Z</time>
<desc>lat.=56.097137, lon.=26.543365, Alt.=99.782288m. Speed=12.888000m/h.</desc>
<speed>3.580000</speed>
</trkpt>
<trkpt lat="56.097168" lon="26.543392">
<ele>99.780334</ele>
<time>2010-08-29T14:01:37Z</time>
<desc>lat.=56.097168, lon.=26.543392, Alt.=99.780334m. Speed=12.096000m/h.</desc>
<speed>3.360000</speed>
</trkpt>
<trkpt lat="56.097195" lon="26.543411">
<ele>99.635803</ele>
<time>2010-08-29T14:01:38Z</time>
<desc>lat.=56.097195, lon.=26.543411, Alt.=99.635803m. Speed=11.808000m/h.</desc>
<speed>3.280000</speed>
</trkpt>
<trkpt lat="56.097221" lon="26.543428">
<ele>99.487366</ele>
<time>2010-08-29T14:01:39Z</time>
<desc>lat.=56.097221, lon.=26.543428, Alt.=99.487366m. Speed=10.152000m/h.</desc>
<speed>2.820000</speed>
</trkpt>
<trkpt lat="56.097240" lon="26.543446">
<ele>99.362366</ele>
<time>2010-08-29T14:01:40Z</time>
<desc>lat.=56.097240, lon.=26.543446, Alt.=99.362366m. Speed=9.540000m/h.</desc>
<speed>2.650000</speed>
</trkpt>
<trkpt lat="56.097260" lon="26.543463">
<ele>99.065491</ele>
<time>2010-08-29T14:01:41Z</time>
<desc>lat.=56.097260, lon.=26.543463, Alt.=99.065491m. Speed=8.280000m/h.</desc>
<speed>2.300000</speed>
</trkpt>
<trkpt lat="56.097275" lon="26.543489">
<ele>99.655334</ele>
<time>2010-08-29T14:01:42Z</time>
<desc>lat.=56.097275, lon.=26.543489, Alt.=99.655334m. Speed=6.624000m/h.</desc>
<speed>1.840000</speed>
</trkpt>
<trkpt lat="56.097286" lon="26.543509">
<ele>100.167053</ele>
<time>2010-08-29T14:01:43Z</time>
<desc>lat.=56.097286, lon.=26.543509, Alt.=100.167053m. Speed=4.428000m/h.</desc>
<speed>1.230000</speed>
</trkpt>
<trkpt lat="56.097282" lon="26.543520">
<ele>100.036194</ele>
<time>2010-08-29T14:01:44Z</time>
<desc>lat.=56.097282, lon.=26.543520, Alt.=100.036194m. Speed=3.204000m/h.</desc>
<speed>0.890000</speed>
</trkpt>
<trkpt lat="56.097282" lon="26.543535">
<ele>100.155334</ele>
<time>2010-08-29T14:01:45Z</time>
<desc>lat.=56.097282, lon.=26.543535, Alt.=100.155334m. Speed=3.528000m/h.</desc>
<speed>0.980000</speed>
</trkpt>
<trkpt lat="56.097279" lon="26.543556">
<ele>100.596741</ele>
<time>2010-08-29T14:01:46Z</time>
<desc>lat.=56.097279, lon.=26.543556, Alt.=100.596741m. Speed=4.752000m/h.</desc>
<speed>1.320000</speed>
</trkpt>
<trkpt lat="56.097279" lon="26.543583">
<ele>101.170959</ele>
<time>2010-08-29T14:01:47Z</time>
<desc>lat.=56.097279, lon.=26.543583, Alt.=101.170959m. Speed=6.048000m/h.</desc>
<speed>1.680000</speed>
</trkpt>
<trkpt lat="56.097279" lon="26.543606">
<ele>101.346741</ele>
<time>2010-08-29T14:01:48Z</time>
<desc>lat.=56.097279, lon.=26.543606, Alt.=101.346741m. Speed=5.544000m/h.</desc>
<speed>1.540000</speed>
</trkpt>
<trkpt lat="56.097275" lon="26.543629">
<ele>101.210022</ele>
<time>2010-08-29T14:01:49Z</time>
<desc>lat.=56.097275, lon.=26.543629, Alt.=101.210022m. Speed=6.984000m/h.</desc>
<speed>1.940000</speed>
</trkpt>
<trkpt lat="56.097271" lon="26.543659">
<ele>101.385803</ele>
<time>2010-08-29T14:01:50Z</time>
<desc>lat.=56.097271, lon.=26.543659, Alt.=101.385803m. Speed=7.164000m/h.</desc>
<speed>1.990000</speed>
</trkpt>
<trkpt lat="56.097267" lon="26.543684">
<ele>101.475647</ele>
<time>2010-08-29T14:01:51Z</time>
<desc>lat.=56.097267, lon.=26.543684, Alt.=101.475647m. Speed=7.272000m/h.</desc>
<speed>2.020000</speed>
</trkpt>
<trkpt lat="56.097248" lon="26.543695">
<ele>100.583069</ele>
<time>2010-08-29T14:01:52Z</time>
<desc>lat.=56.097248, lon.=26.543695, Alt.=100.583069m. Speed=6.624000m/h.</desc>
<speed>1.840000</speed>
</trkpt>
<trkpt lat="56.097240" lon="26.543728">
<ele>100.512756</ele>
<time>2010-08-29T14:01:53Z</time>
<desc>lat.=56.097240, lon.=26.543728, Alt.=100.512756m. Speed=9.324000m/h.</desc>
<speed>2.590000</speed>
</trkpt>
<trkpt lat="56.097229" lon="26.543760">
<ele>100.325256</ele>
<time>2010-08-29T14:01:54Z</time>
<desc>lat.=56.097229, lon.=26.543760, Alt.=100.325256m. Speed=10.152000m/h.</desc>
<speed>2.820000</speed>
</trkpt>
<trkpt lat="56.097214" lon="26.543789">
<ele>100.317444</ele>
<time>2010-08-29T14:01:55Z</time>
<desc>lat.=56.097214, lon.=26.543789, Alt.=100.317444m. Speed=9.792000m/h.</desc>
<speed>2.720000</speed>
</trkpt>
<trkpt lat="56.097202" lon="26.543825">
<ele>100.190491</ele>
<time>2010-08-29T14:01:56Z</time>
<desc>lat.=56.097202, lon.=26.543825, Alt.=100.190491m. Speed=10.152000m/h.</desc>
<speed>2.820000</speed>
</trkpt>
<trkpt lat="56.097195" lon="26.543873">
<ele>100.067444</ele>
<time>2010-08-29T14:01:57Z</time>
<desc>lat.=56.097195, lon.=26.543873, Alt.=100.067444m. Speed=10.188000m/h.</desc>
<speed>2.830000</speed>
</trkpt>
<trkpt lat="56.097183" lon="26.543911">
<ele>99.735413</ele>
<time>2010-08-29T14:01:58Z</time>
<desc>lat.=56.097183, lon.=26.543911, Alt.=99.735413m. Speed=10.044000m/h.</desc>
<speed>2.790000</speed>
</trkpt>
<trkpt lat="56.097179" lon="26.543962">
<ele>99.579163</ele>
<time>2010-08-29T14:01:59Z</time>
<desc>lat.=56.097179, lon.=26.543962, Alt.=99.579163m. Speed=10.836000m/h.</desc>
<speed>3.010000</speed>
</trkpt>
<trkpt lat="56.097176" lon="26.544012">
<ele>99.448303</ele>
<time>2010-08-29T14:02:00Z</time>
<desc>lat.=56.097176, lon.=26.544012, Alt.=99.448303m. Speed=10.872000m/h.</desc>
<speed>3.020000</speed>
</trkpt>
<trkpt lat="56.097168" lon="26.544064">
<ele>99.223694</ele>
<time>2010-08-29T14:02:01Z</time>
<desc>lat.=56.097168, lon.=26.544064, Alt.=99.223694m. Speed=11.556000m/h.</desc>
<speed>3.210000</speed>
</trkpt>
<trkpt lat="56.097160" lon="26.544125">
<ele>99.176819</ele>
<time>2010-08-29T14:02:02Z</time>
<desc>lat.=56.097160, lon.=26.544125, Alt.=99.176819m. Speed=13.068000m/h.</desc>
<speed>3.630000</speed>
</trkpt>
<trkpt lat="56.097157" lon="26.544182">
<ele>99.127991</ele>
<time>2010-08-29T14:02:03Z</time>
<desc>lat.=56.097157, lon.=26.544182, Alt.=99.127991m. Speed=13.608000m/h.</desc>
<speed>3.780000</speed>
</trkpt>
<trkpt lat="56.097149" lon="26.544247">
<ele>99.026428</ele>
<time>2010-08-29T14:02:04Z</time>
<desc>lat.=56.097149, lon.=26.544247, Alt.=99.026428m. Speed=14.076000m/h.</desc>
<speed>3.910000</speed>
</trkpt>
<trkpt lat="56.097141" lon="26.544296">
<ele>99.387756</ele>
<time>2010-08-29T14:02:05Z</time>
<desc>lat.=56.097141, lon.=26.544296, Alt.=99.387756m. Speed=9.576000m/h.</desc>
<speed>2.660000</speed>
</trkpt>
<trkpt lat="56.097134" lon="26.544350">
<ele>100.961975</ele>
<time>2010-08-29T14:02:06Z</time>
<desc>lat.=56.097134, lon.=26.544350, Alt.=100.961975m. Speed=10.476000m/h.</desc>
<speed>2.910000</speed>
</trkpt>
<trkpt lat="56.097130" lon="26.544428">
<ele>101.913147</ele>
<time>2010-08-29T14:02:07Z</time>
<desc>lat.=56.097130, lon.=26.544428, Alt.=101.913147m. Speed=15.228000m/h.</desc>
<speed>4.230000</speed>
</trkpt>
<trkpt lat="56.097126" lon="26.544504">
<ele>102.256897</ele>
<time>2010-08-29T14:02:08Z</time>
<desc>lat.=56.097126, lon.=26.544504, Alt.=102.256897m. Speed=15.156000m/h.</desc>
<speed>4.210000</speed>
</trkpt>
<trkpt lat="56.097118" lon="26.544575">
<ele>102.284241</ele>
<time>2010-08-29T14:02:09Z</time>
<desc>lat.=56.097118, lon.=26.544575, Alt.=102.284241m. Speed=16.344000m/h.</desc>
<speed>4.540000</speed>
</trkpt>
<trkpt lat="56.097115" lon="26.544651">
<ele>102.733459</ele>
<time>2010-08-29T14:02:10Z</time>
<desc>lat.=56.097115, lon.=26.544651, Alt.=102.733459m. Speed=14.688000m/h.</desc>
<speed>4.080000</speed>
</trkpt>
<trkpt lat="56.097111" lon="26.544718">
<ele>102.768616</ele>
<time>2010-08-29T14:02:11Z</time>
<desc>lat.=56.097111, lon.=26.544718, Alt.=102.768616m. Speed=14.580000m/h.</desc>
<speed>4.050000</speed>
</trkpt>
<trkpt lat="56.097103" lon="26.544790">
<ele>102.448303</ele>
<time>2010-08-29T14:02:12Z</time>
<desc>lat.=56.097103, lon.=26.544790, Alt.=102.448303m. Speed=13.896000m/h.</desc>
<speed>3.860000</speed>
</trkpt>
<trkpt lat="56.097095" lon="26.544851">
<ele>102.547913</ele>
<time>2010-08-29T14:02:13Z</time>
<desc>lat.=56.097095, lon.=26.544851, Alt.=102.547913m. Speed=14.364000m/h.</desc>
<speed>3.990000</speed>
</trkpt>
<trkpt lat="56.097084" lon="26.544910">
<ele>102.475647</ele>
<time>2010-08-29T14:02:14Z</time>
<desc>lat.=56.097084, lon.=26.544910, Alt.=102.475647m. Speed=14.040000m/h.</desc>
<speed>3.900000</speed>
</trkpt>
<trkpt lat="56.097076" lon="26.544977">
<ele>102.395569</ele>
<time>2010-08-29T14:02:15Z</time>
<desc>lat.=56.097076, lon.=26.544977, Alt.=102.395569m. Speed=14.688000m/h.</desc>
<speed>4.080000</speed>
</trkpt>
<trkpt lat="56.097069" lon="26.545046">
<ele>102.764709</ele>
<time>2010-08-29T14:02:16Z</time>
<desc>lat.=56.097069, lon.=26.545046, Alt.=102.764709m. Speed=14.400000m/h.</desc>
<speed>4.000000</speed>
</trkpt>
<trkpt lat="56.097073" lon="26.545126">
<ele>104.827209</ele>
<time>2010-08-29T14:02:17Z</time>
<desc>lat.=56.097073, lon.=26.545126, Alt.=104.827209m. Speed=13.680000m/h.</desc>
<speed>3.800000</speed>
</trkpt>
<trkpt lat="56.097065" lon="26.545181">
<ele>104.227600</ele>
<time>2010-08-29T14:02:18Z</time>
<desc>lat.=56.097065, lon.=26.545181, Alt.=104.227600m. Speed=14.292000m/h.</desc>
<speed>3.970000</speed>
</trkpt>
<trkpt lat="56.097061" lon="26.545246">
<ele>104.141663</ele>
<time>2010-08-29T14:02:19Z</time>
<desc>lat.=56.097061, lon.=26.545246, Alt.=104.141663m. Speed=13.140000m/h.</desc>
<speed>3.650000</speed>
</trkpt>
<trkpt lat="56.097057" lon="26.545321">
<ele>103.653381</ele>
<time>2010-08-29T14:02:20Z</time>
<desc>lat.=56.097057, lon.=26.545321, Alt.=103.653381m. Speed=14.508000m/h.</desc>
<speed>4.030000</speed>
</trkpt>
<trkpt lat="56.097057" lon="26.545385">
<ele>104.086975</ele>
<time>2010-08-29T14:02:21Z</time>
<desc>lat.=56.097057, lon.=26.545385, Alt.=104.086975m. Speed=14.184000m/h.</desc>
<speed>3.940000</speed>
</trkpt>
<trkpt lat="56.097042" lon="26.545444">
<ele>103.297913</ele>
<time>2010-08-29T14:02:22Z</time>
<desc>lat.=56.097042, lon.=26.545444, Alt.=103.297913m. Speed=14.760000m/h.</desc>
<speed>4.100000</speed>
</trkpt>
<trkpt lat="56.097034" lon="26.545506">
<ele>103.135803</ele>
<time>2010-08-29T14:02:23Z</time>
<desc>lat.=56.097034, lon.=26.545506, Alt.=103.135803m. Speed=14.868000m/h.</desc>
<speed>4.130000</speed>
</trkpt>
<trkpt lat="56.097027" lon="26.545570">
<ele>102.868225</ele>
<time>2010-08-29T14:02:24Z</time>
<desc>lat.=56.097027, lon.=26.545570, Alt.=102.868225m. Speed=15.624000m/h.</desc>
<speed>4.340000</speed>
</trkpt>
<trkpt lat="56.097023" lon="26.545649">
<ele>102.389709</ele>
<time>2010-08-29T14:02:25Z</time>
<desc>lat.=56.097023, lon.=26.545649, Alt.=102.389709m. Speed=15.336000m/h.</desc>
<speed>4.260000</speed>
</trkpt>
<trkpt lat="56.097015" lon="26.545717">
<ele>101.790100</ele>
<time>2010-08-29T14:02:26Z</time>
<desc>lat.=56.097015, lon.=26.545717, Alt.=101.790100m. Speed=14.652000m/h.</desc>
<speed>4.070000</speed>
</trkpt>
<trkpt lat="56.097012" lon="26.545786">
<ele>101.928772</ele>
<time>2010-08-29T14:02:27Z</time>
<desc>lat.=56.097012, lon.=26.545786, Alt.=101.928772m. Speed=14.868000m/h.</desc>
<speed>4.130000</speed>
</trkpt>
<trkpt lat="56.097008" lon="26.545853">
<ele>102.073303</ele>
<time>2010-08-29T14:02:28Z</time>
<desc>lat.=56.097008, lon.=26.545853, Alt.=102.073303m. Speed=13.752000m/h.</desc>
<speed>3.820000</speed>
</trkpt>
<trkpt lat="56.097004" lon="26.545910">
<ele>101.721741</ele>
<time>2010-08-29T14:02:29Z</time>
<desc>lat.=56.097004, lon.=26.545910, Alt.=101.721741m. Speed=13.716000m/h.</desc>
<speed>3.810000</speed>
</trkpt>
<trkpt lat="56.097004" lon="26.545980">
<ele>101.417053</ele>
<time>2010-08-29T14:02:30Z</time>
<desc>lat.=56.097004, lon.=26.545980, Alt.=101.417053m. Speed=13.752000m/h.</desc>
<speed>3.820000</speed>
</trkpt>
<trkpt lat="56.097008" lon="26.546038">
<ele>101.252991</ele>
<time>2010-08-29T14:02:31Z</time>
<desc>lat.=56.097008, lon.=26.546038, Alt.=101.252991m. Speed=12.420000m/h.</desc>
<speed>3.450000</speed>
</trkpt>
<trkpt lat="56.097015" lon="26.546093">
<ele>101.014709</ele>
<time>2010-08-29T14:02:32Z</time>
<desc>lat.=56.097015, lon.=26.546093, Alt.=101.014709m. Speed=11.952000m/h.</desc>
<speed>3.320000</speed>
</trkpt>
<trkpt lat="56.097019" lon="26.546146">
<ele>101.143616</ele>
<time>2010-08-29T14:02:33Z</time>
<desc>lat.=56.097019, lon.=26.546146, Alt.=101.143616m. Speed=11.376000m/h.</desc>
<speed>3.160000</speed>
</trkpt>
<trkpt lat="56.097027" lon="26.546194">
<ele>101.292053</ele>
<time>2010-08-29T14:02:34Z</time>
<desc>lat.=56.097027, lon.=26.546194, Alt.=101.292053m. Speed=10.476000m/h.</desc>
<speed>2.910000</speed>
</trkpt>
<trkpt lat="56.097027" lon="26.546240">
<ele>101.797913</ele>
<time>2010-08-29T14:02:35Z</time>
<desc>lat.=56.097027, lon.=26.546240, Alt.=101.797913m. Speed=11.952000m/h.</desc>
<speed>3.320000</speed>
</trkpt>
<trkpt lat="56.097042" lon="26.546289">
<ele>101.836975</ele>
<time>2010-08-29T14:02:36Z</time>
<desc>lat.=56.097042, lon.=26.546289, Alt.=101.836975m. Speed=12.852000m/h.</desc>
<speed>3.570000</speed>
</trkpt>
<trkpt lat="56.097073" lon="26.546312">
<ele>102.288147</ele>
<time>2010-08-29T14:02:37Z</time>
<desc>lat.=56.097073, lon.=26.546312, Alt.=102.288147m. Speed=14.364000m/h.</desc>
<speed>3.990000</speed>
</trkpt>
<trkpt lat="56.097107" lon="26.546326">
<ele>102.961975</ele>
<time>2010-08-29T14:02:38Z</time>
<desc>lat.=56.097107, lon.=26.546326, Alt.=102.961975m. Speed=12.852000m/h.</desc>
<speed>3.570000</speed>
</trkpt>
<trkpt lat="56.097118" lon="26.546362">
<ele>103.586975</ele>
<time>2010-08-29T14:02:39Z</time>
<desc>lat.=56.097118, lon.=26.546362, Alt.=103.586975m. Speed=9.828000m/h.</desc>
<speed>2.730000</speed>
</trkpt>
<trkpt lat="56.097134" lon="26.546398">
<ele>103.833069</ele>
<time>2010-08-29T14:02:40Z</time>
<desc>lat.=56.097134, lon.=26.546398, Alt.=103.833069m. Speed=9.216000m/h.</desc>
<speed>2.560000</speed>
</trkpt>
<trkpt lat="56.097137" lon="26.546429">
<ele>104.178772</ele>
<time>2010-08-29T14:02:41Z</time>
<desc>lat.=56.097137, lon.=26.546429, Alt.=104.178772m. Speed=5.760000m/h.</desc>
<speed>1.600000</speed>
</trkpt>
<trkpt lat="56.097137" lon="26.546455">
<ele>104.124084</ele>
<time>2010-08-29T14:02:42Z</time>
<desc>lat.=56.097137, lon.=26.546455, Alt.=104.124084m. Speed=4.608000m/h.</desc>
<speed>1.280000</speed>
</trkpt>
<trkpt lat="56.097134" lon="26.546484">
<ele>104.383850</ele>
<time>2010-08-29T14:02:43Z</time>
<desc>lat.=56.097134, lon.=26.546484, Alt.=104.383850m. Speed=7.092000m/h.</desc>
<speed>1.970000</speed>
</trkpt>
<trkpt lat="56.097130" lon="26.546515">
<ele>104.698303</ele>
<time>2010-08-29T14:02:44Z</time>
<desc>lat.=56.097130, lon.=26.546515, Alt.=104.698303m. Speed=6.588000m/h.</desc>
<speed>1.830000</speed>
</trkpt>
<trkpt lat="56.097126" lon="26.546547">
<ele>104.706116</ele>
<time>2010-08-29T14:02:45Z</time>
<desc>lat.=56.097126, lon.=26.546547, Alt.=104.706116m. Speed=6.120000m/h.</desc>
<speed>1.700000</speed>
</trkpt>
<trkpt lat="56.097126" lon="26.546581">
<ele>104.624084</ele>
<time>2010-08-29T14:02:46Z</time>
<desc>lat.=56.097126, lon.=26.546581, Alt.=104.624084m. Speed=8.208000m/h.</desc>
<speed>2.280000</speed>
</trkpt>
<trkpt lat="56.097126" lon="26.546618">
<ele>104.747131</ele>
<time>2010-08-29T14:02:47Z</time>
<desc>lat.=56.097126, lon.=26.546618, Alt.=104.747131m. Speed=7.632000m/h.</desc>
<speed>2.120000</speed>
</trkpt>
<trkpt lat="56.097130" lon="26.546656">
<ele>105.083069</ele>
<time>2010-08-29T14:02:48Z</time>
<desc>lat.=56.097130, lon.=26.546656, Alt.=105.083069m. Speed=7.920000m/h.</desc>
<speed>2.200000</speed>
</trkpt>
<trkpt lat="56.097126" lon="26.546690">
<ele>105.245178</ele>
<time>2010-08-29T14:02:49Z</time>
<desc>lat.=56.097126, lon.=26.546690, Alt.=105.245178m. Speed=6.552000m/h.</desc>
<speed>1.820000</speed>
</trkpt>
<trkpt lat="56.097126" lon="26.546721">
<ele>105.360413</ele>
<time>2010-08-29T14:02:50Z</time>
<desc>lat.=56.097126, lon.=26.546721, Alt.=105.360413m. Speed=5.796000m/h.</desc>
<speed>1.610000</speed>
</trkpt>
<trkpt lat="56.097126" lon="26.546745">
<ele>105.387756</ele>
<time>2010-08-29T14:02:51Z</time>
<desc>lat.=56.097126, lon.=26.546745, Alt.=105.387756m. Speed=3.492000m/h.</desc>
<speed>0.970000</speed>
</trkpt>
<trkpt lat="56.097126" lon="26.546753">
<ele>105.563538</ele>
<time>2010-08-29T14:02:52Z</time>
<desc>lat.=56.097126, lon.=26.546753, Alt.=105.563538m. Speed=1.620000m/h.</desc>
<speed>0.450000</speed>
</trkpt>
<trkpt lat="56.097122" lon="26.546759">
<ele>106.393616</ele>
<time>2010-08-29T14:02:53Z</time>
<desc>lat.=56.097122, lon.=26.546759, Alt.=106.393616m. Speed=0.432000m/h.</desc>
<speed>0.120000</speed>
</trkpt>
<trkpt lat="56.097122" lon="26.546757">
<ele>106.749084</ele>
<time>2010-08-29T14:02:54Z</time>
<desc>lat.=56.097122, lon.=26.546757, Alt.=106.749084m. Speed=1.080000m/h.</desc>
<speed>0.300000</speed>
</trkpt>
<trkpt lat="56.097122" lon="26.546762">
<ele>106.850647</ele>
<time>2010-08-29T14:02:55Z</time>
<desc>lat.=56.097122, lon.=26.546762, Alt.=106.850647m. Speed=0.540000m/h.</desc>
<speed>0.150000</speed>
</trkpt>
<trkpt lat="56.097122" lon="26.546764">
<ele>106.965881</ele>
<time>2010-08-29T14:02:56Z</time>
<desc>lat.=56.097122, lon.=26.546764, Alt.=106.965881m. Speed=1.368000m/h.</desc>
<speed>0.380000</speed>
</trkpt>
<trkpt lat="56.097118" lon="26.546766">
<ele>107.055725</ele>
<time>2010-08-29T14:02:57Z</time>
<desc>lat.=56.097118, lon.=26.546766, Alt.=107.055725m. Speed=2.988000m/h.</desc>
<speed>0.830000</speed>
</trkpt>
<trkpt lat="56.097111" lon="26.546768">
<ele>107.145569</ele>
<time>2010-08-29T14:02:58Z</time>
<desc>lat.=56.097111, lon.=26.546768, Alt.=107.145569m. Speed=0.936000m/h.</desc>
<speed>0.260000</speed>
</trkpt>
<trkpt lat="56.097111" lon="26.546772">
<ele>107.227600</ele>
<time>2010-08-29T14:02:59Z</time>
<desc>lat.=56.097111, lon.=26.546772, Alt.=107.227600m. Speed=2.016000m/h.</desc>
<speed>0.560000</speed>
</trkpt>
<trkpt lat="56.097107" lon="26.546778">
<ele>107.294006</ele>
<time>2010-08-29T14:03:00Z</time>
<desc>lat.=56.097107, lon.=26.546778, Alt.=107.294006m. Speed=1.620000m/h.</desc>
<speed>0.450000</speed>
</trkpt>
<trkpt lat="56.097103" lon="26.546782">
<ele>107.374084</ele>
<time>2010-08-29T14:03:01Z</time>
<desc>lat.=56.097103, lon.=26.546782, Alt.=107.374084m. Speed=1.044000m/h.</desc>
<speed>0.290000</speed>
</trkpt>
<trkpt lat="56.097103" lon="26.546783">
<ele>107.450256</ele>
<time>2010-08-29T14:03:02Z</time>
<desc>lat.=56.097103, lon.=26.546783, Alt.=107.450256m. Speed=0.900000m/h.</desc>
<speed>0.250000</speed>
</trkpt>
<trkpt lat="56.097099" lon="26.546787">
<ele>107.489319</ele>
<time>2010-08-29T14:03:03Z</time>
<desc>lat.=56.097099, lon.=26.546787, Alt.=107.489319m. Speed=0.468000m/h.</desc>
<speed>0.130000</speed>
</trkpt>
<trkpt lat="56.097099" lon="26.546787">
<ele>107.460022</ele>
<time>2010-08-29T14:03:04Z</time>
<desc>lat.=56.097099, lon.=26.546787, Alt.=107.460022m. Speed=0.540000m/h.</desc>
<speed>0.150000</speed>
</trkpt>
<trkpt lat="56.097099" lon="26.546789">
<ele>107.434631</ele>
<time>2010-08-29T14:03:05Z</time>
<desc>lat.=56.097099, lon.=26.546789, Alt.=107.434631m. Speed=0.144000m/h.</desc>
<speed>0.040000</speed>
</trkpt>
<trkpt lat="56.097099" lon="26.546791">
<ele>107.424866</ele>
<time>2010-08-29T14:03:06Z</time>
<desc>lat.=56.097099, lon.=26.546791, Alt.=107.424866m. Speed=0.144000m/h.</desc>
<speed>0.040000</speed>
</trkpt>
<trkpt lat="56.097095" lon="26.546791">
<ele>107.417053</ele>
<time>2010-08-29T14:03:07Z</time>
<desc>lat.=56.097095, lon.=26.546791, Alt.=107.417053m. Speed=0.252000m/h.</desc>
<speed>0.070000</speed>
</trkpt>
<trkpt lat="56.097095" lon="26.546791">
<ele>107.401428</ele>
<time>2010-08-29T14:03:08Z</time>
<desc>lat.=56.097095, lon.=26.546791, Alt.=107.401428m. Speed=0.180000m/h.</desc>
<speed>0.050000</speed>
</trkpt>
<trkpt lat="56.097095" lon="26.546793">
<ele>107.411194</ele>
<time>2010-08-29T14:03:09Z</time>
<desc>lat.=56.097095, lon.=26.546793, Alt.=107.411194m. Speed=0.324000m/h.</desc>
<speed>0.090000</speed>
</trkpt>
<trkpt lat="56.097095" lon="26.546793">
<ele>107.393616</ele>
<time>2010-08-29T14:03:10Z</time>
<desc>lat.=56.097095, lon.=26.546793, Alt.=107.393616m. Speed=0.000000m/h.</desc>
<speed>0.000000</speed>
</trkpt>
<trkpt lat="56.097095" lon="26.546793">
<ele>107.383850</ele>
<time>2010-08-29T14:03:11Z</time>
<desc>lat.=56.097095, lon.=26.546793, Alt.=107.383850m. Speed=0.036000m/h.</desc>
<speed>0.010000</speed>
</trkpt>
<trkpt lat="56.097095" lon="26.546793">
<ele>107.368225</ele>
<time>2010-08-29T14:03:12Z</time>
<desc>lat.=56.097095, lon.=26.546793, Alt.=107.368225m. Speed=0.000000m/h.</desc>
<speed>0.000000</speed>
</trkpt>
<trkpt lat="56.097095" lon="26.546793">
<ele>107.368225</ele>
<time>2010-08-29T14:03:13Z</time>
<desc>lat.=56.097095, lon.=26.546793, Alt.=107.368225m. Speed=0.072000m/h.</desc>
<speed>0.020000</speed>
</trkpt>
<trkpt lat="56.097095" lon="26.546793">
<ele>107.377991</ele>
<time>2010-08-29T14:03:14Z</time>
<desc>lat.=56.097095, lon.=26.546793, Alt.=107.377991m. Speed=0.396000m/h.</desc>
<speed>0.110000</speed>
</trkpt>
<trkpt lat="56.097095" lon="26.546791">
<ele>107.401428</ele>
<time>2010-08-29T14:03:15Z</time>
<desc>lat.=56.097095, lon.=26.546791, Alt.=107.401428m. Speed=0.108000m/h.</desc>
<speed>0.030000</speed>
</trkpt>
<trkpt lat="56.097095" lon="26.546793">
<ele>107.399475</ele>
<time>2010-08-29T14:03:16Z</time>
<desc>lat.=56.097095, lon.=26.546793, Alt.=107.399475m. Speed=0.324000m/h.</desc>
<speed>0.090000</speed>
</trkpt>
<trkpt lat="56.097095" lon="26.546791">
<ele>107.403381</ele>
<time>2010-08-29T14:03:17Z</time>
<desc>lat.=56.097095, lon.=26.546791, Alt.=107.403381m. Speed=0.468000m/h.</desc>
<speed>0.130000</speed>
</trkpt>
<trkpt lat="56.097095" lon="26.546789">
<ele>107.420959</ele>
<time>2010-08-29T14:03:18Z</time>
<desc>lat.=56.097095, lon.=26.546789, Alt.=107.420959m. Speed=0.216000m/h.</desc>
<speed>0.060000</speed>
</trkpt>
<trkpt lat="56.097095" lon="26.546791">
<ele>107.426819</ele>
<time>2010-08-29T14:03:19Z</time>
<desc>lat.=56.097095, lon.=26.546791, Alt.=107.426819m. Speed=0.180000m/h.</desc>
<speed>0.050000</speed>
</trkpt>
<trkpt lat="56.097095" lon="26.546791">
<ele>107.426819</ele>
<time>2010-08-29T14:03:20Z</time>
<desc>lat.=56.097095, lon.=26.546791, Alt.=107.426819m. Speed=0.108000m/h.</desc>
<speed>0.030000</speed>
</trkpt>
<trkpt lat="56.097095" lon="26.546791">
<ele>107.426819</ele>
<time>2010-08-29T14:03:21Z</time>
<desc>lat.=56.097095, lon.=26.546791, Alt.=107.426819m. Speed=0.000000m/h.</desc>
<speed>0.000000</speed>
</trkpt>
<trkpt lat="56.097095" lon="26.546791">
<ele>107.426819</ele>
<time>2010-08-29T14:03:22Z</time>
<desc>lat.=56.097095, lon.=26.546791, Alt.=107.426819m. Speed=0.000000m/h.</desc>
<speed>0.000000</speed>
</trkpt>
<trkpt lat="56.097095" lon="26.546791">
<ele>107.424866</ele>
<time>2010-08-29T14:03:23Z</time>
<desc>lat.=56.097095, lon.=26.546791, Alt.=107.424866m. Speed=0.108000m/h.</desc>
<speed>0.030000</speed>
</trkpt>
<trkpt lat="56.097095" lon="26.546791">
<ele>107.424866</ele>
<time>2010-08-29T14:03:24Z</time>
<desc>lat.=56.097095, lon.=26.546791, Alt.=107.424866m. Speed=0.072000m/h.</desc>
<speed>0.020000</speed>
</trkpt>
<trkpt lat="56.097095" lon="26.546791">
<ele>107.424866</ele>
<time>2010-08-29T14:03:25Z</time>
<desc>lat.=56.097095, lon.=26.546791, Alt.=107.424866m. Speed=0.036000m/h.</desc>
<speed>0.010000</speed>
</trkpt>
<trkpt lat="56.097095" lon="26.546791">
<ele>107.426819</ele>
<time>2010-08-29T14:03:26Z</time>
<desc>lat.=56.097095, lon.=26.546791, Alt.=107.426819m. Speed=0.036000m/h.</desc>
<speed>0.010000</speed>
</trkpt>
<trkpt lat="56.097095" lon="26.546791">
<ele>107.426819</ele>
<time>2010-08-29T14:03:27Z</time>
<desc>lat.=56.097095, lon.=26.546791, Alt.=107.426819m. Speed=0.000000m/h.</desc>
<speed>0.000000</speed>
</trkpt>
<trkpt lat="56.097095" lon="26.546791">
<ele>107.428772</ele>
<time>2010-08-29T14:03:28Z</time>
<desc>lat.=56.097095, lon.=26.546791, Alt.=107.428772m. Speed=0.000000m/h.</desc>
<speed>0.000000</speed>
</trkpt>
<trkpt lat="56.097095" lon="26.546791">
<ele>107.428772</ele>
<time>2010-08-29T14:03:29Z</time>
<desc>lat.=56.097095, lon.=26.546791, Alt.=107.428772m. Speed=0.000000m/h.</desc>
<speed>0.000000</speed>
</trkpt>
<trkpt lat="56.097095" lon="26.546791">
<ele>107.426819</ele>
<time>2010-08-29T14:03:30Z</time>
<desc>lat.=56.097095, lon.=26.546791, Alt.=107.426819m. Speed=0.000000m/h.</desc>
<speed>0.000000</speed>
</trkpt>
<trkpt lat="56.097095" lon="26.546789">
<ele>107.426819</ele>
<time>2010-08-29T14:03:31Z</time>
<desc>lat.=56.097095, lon.=26.546789, Alt.=107.426819m. Speed=0.072000m/h.</desc>
<speed>0.020000</speed>
</trkpt>
<trkpt lat="56.097095" lon="26.546791">
<ele>107.426819</ele>
<time>2010-08-29T14:03:32Z</time>
<desc>lat.=56.097095, lon.=26.546791, Alt.=107.426819m. Speed=0.000000m/h.</desc>
<speed>0.000000</speed>
</trkpt>
<trkpt lat="56.097095" lon="26.546789">
<ele>107.426819</ele>
<time>2010-08-29T14:03:33Z</time>
<desc>lat.=56.097095, lon.=26.546789, Alt.=107.426819m. Speed=0.000000m/h.</desc>
<speed>0.000000</speed>
</trkpt>
<trkpt lat="56.097095" lon="26.546789">
<ele>107.426819</ele>
<time>2010-08-29T14:03:34Z</time>
<desc>lat.=56.097095, lon.=26.546789, Alt.=107.426819m. Speed=0.000000m/h.</desc>
<speed>0.000000</speed>
</trkpt>
<trkpt lat="56.097095" lon="26.546789">
<ele>107.424866</ele>
<time>2010-08-29T14:03:35Z</time>
<desc>lat.=56.097095, lon.=26.546789, Alt.=107.424866m. Speed=0.036000m/h.</desc>
<speed>0.010000</speed>
</trkpt>
<trkpt lat="56.097095" lon="26.546789">
<ele>107.426819</ele>
<time>2010-08-29T14:03:36Z</time>
<desc>lat.=56.097095, lon.=26.546789, Alt.=107.426819m. Speed=0.000000m/h.</desc>
<speed>0.000000</speed>
</trkpt>
<trkpt lat="56.097095" lon="26.546789">
<ele>107.424866</ele>
<time>2010-08-29T14:03:37Z</time>
<desc>lat.=56.097095, lon.=26.546789, Alt.=107.424866m. Speed=0.036000m/h.</desc>
<speed>0.010000</speed>
</trkpt>
<trkpt lat="56.097095" lon="26.546789">
<ele>107.424866</ele>
<time>2010-08-29T14:03:38Z</time>
<desc>lat.=56.097095, lon.=26.546789, Alt.=107.424866m. Speed=0.000000m/h.</desc>
<speed>0.000000</speed>
</trkpt>
<trkpt lat="56.097095" lon="26.546789">
<ele>107.424866</ele>
<time>2010-08-29T14:03:39Z</time>
<desc>lat.=56.097095, lon.=26.546789, Alt.=107.424866m. Speed=0.000000m/h.</desc>
<speed>0.000000</speed>
</trkpt>
<trkpt lat="56.097095" lon="26.546789">
<ele>107.420959</ele>
<time>2010-08-29T14:03:40Z</time>
<desc>lat.=56.097095, lon.=26.546789, Alt.=107.420959m. Speed=0.000000m/h.</desc>
<speed>0.000000</speed>
</trkpt>
<trkpt lat="56.097095" lon="26.546789">
<ele>107.419006</ele>
<time>2010-08-29T14:03:41Z</time>
<desc>lat.=56.097095, lon.=26.546789, Alt.=107.419006m. Speed=0.000000m/h.</desc>
<speed>0.000000</speed>
</trkpt>
<trkpt lat="56.097095" lon="26.546789">
<ele>107.419006</ele>
<time>2010-08-29T14:03:42Z</time>
<desc>lat.=56.097095, lon.=26.546789, Alt.=107.419006m. Speed=0.000000m/h.</desc>
<speed>0.000000</speed>
</trkpt>
<trkpt lat="56.097095" lon="26.546789">
<ele>107.417053</ele>
<time>2010-08-29T14:03:43Z</time>
<desc>lat.=56.097095, lon.=26.546789, Alt.=107.417053m. Speed=0.000000m/h.</desc>
<speed>0.000000</speed>
</trkpt>
<trkpt lat="56.097095" lon="26.546789">
<ele>107.415100</ele>
<time>2010-08-29T14:03:44Z</time>
<desc>lat.=56.097095, lon.=26.546789, Alt.=107.415100m. Speed=0.000000m/h.</desc>
<speed>0.000000</speed>
</trkpt>
<trkpt lat="56.097095" lon="26.546789">
<ele>107.413147</ele>
<time>2010-08-29T14:03:45Z</time>
<desc>lat.=56.097095, lon.=26.546789, Alt.=107.413147m. Speed=0.000000m/h.</desc>
<speed>0.000000</speed>
</trkpt>
<trkpt lat="56.097095" lon="26.546789">
<ele>107.411194</ele>
<time>2010-08-29T14:03:46Z</time>
<desc>lat.=56.097095, lon.=26.546789, Alt.=107.411194m. Speed=0.000000m/h.</desc>
<speed>0.000000</speed>
</trkpt>
<trkpt lat="56.097095" lon="26.546789">
<ele>107.407288</ele>
<time>2010-08-29T14:03:47Z</time>
<desc>lat.=56.097095, lon.=26.546789, Alt.=107.407288m. Speed=0.000000m/h.</desc>
<speed>0.000000</speed>
</trkpt>
<trkpt lat="56.097095" lon="26.546789">
<ele>107.403381</ele>
<time>2010-08-29T14:03:48Z</time>
<desc>lat.=56.097095, lon.=26.546789, Alt.=107.403381m. Speed=0.000000m/h.</desc>
<speed>0.000000</speed>
</trkpt>
<trkpt lat="56.097095" lon="26.546789">
<ele>107.401428</ele>
<time>2010-08-29T14:03:49Z</time>
<desc>lat.=56.097095, lon.=26.546789, Alt.=107.401428m. Speed=0.000000m/h.</desc>
<speed>0.000000</speed>
</trkpt>
<trkpt lat="56.097095" lon="26.546789">
<ele>107.401428</ele>
<time>2010-08-29T14:03:50Z</time>
<desc>lat.=56.097095, lon.=26.546789, Alt.=107.401428m. Speed=0.000000m/h.</desc>
<speed>0.000000</speed>
</trkpt>
<trkpt lat="56.097095" lon="26.546789">
<ele>107.397522</ele>
<time>2010-08-29T14:03:51Z</time>
<desc>lat.=56.097095, lon.=26.546789, Alt.=107.397522m. Speed=0.036000m/h.</desc>
<speed>0.010000</speed>
</trkpt>
<trkpt lat="56.097095" lon="26.546789">
<ele>107.393616</ele>
<time>2010-08-29T14:03:52Z</time>
<desc>lat.=56.097095, lon.=26.546789, Alt.=107.393616m. Speed=0.000000m/h.</desc>
<speed>0.000000</speed>
</trkpt>
<trkpt lat="56.097095" lon="26.546789">
<ele>107.387756</ele>
<time>2010-08-29T14:03:53Z</time>
<desc>lat.=56.097095, lon.=26.546789, Alt.=107.387756m. Speed=0.000000m/h.</desc>
<speed>0.000000</speed>
</trkpt>
<trkpt lat="56.097095" lon="26.546789">
<ele>107.381897</ele>
<time>2010-08-29T14:03:54Z</time>
<desc>lat.=56.097095, lon.=26.546789, Alt.=107.381897m. Speed=0.036000m/h.</desc>
<speed>0.010000</speed>
</trkpt>
<trkpt lat="56.097095" lon="26.546789">
<ele>107.377991</ele>
<time>2010-08-29T14:03:55Z</time>
<desc>lat.=56.097095, lon.=26.546789, Alt.=107.377991m. Speed=0.000000m/h.</desc>
<speed>0.000000</speed>
</trkpt>
<trkpt lat="56.097095" lon="26.546789">
<ele>107.372131</ele>
<time>2010-08-29T14:03:56Z</time>
<desc>lat.=56.097095, lon.=26.546789, Alt.=107.372131m. Speed=0.036000m/h.</desc>
<speed>0.010000</speed>
</trkpt>
<trkpt lat="56.097095" lon="26.546789">
<ele>107.364319</ele>
<time>2010-08-29T14:03:57Z</time>
<desc>lat.=56.097095, lon.=26.546789, Alt.=107.364319m. Speed=0.000000m/h.</desc>
<speed>0.000000</speed>
</trkpt>
<trkpt lat="56.097095" lon="26.546789">
<ele>107.354553</ele>
<time>2010-08-29T14:03:58Z</time>
<desc>lat.=56.097095, lon.=26.546789, Alt.=107.354553m. Speed=0.000000m/h.</desc>
<speed>0.000000</speed>
</trkpt>
<trkpt lat="56.097095" lon="26.546789">
<ele>107.350647</ele>
<time>2010-08-29T14:03:59Z</time>
<desc>lat.=56.097095, lon.=26.546789, Alt.=107.350647m. Speed=0.036000m/h.</desc>
<speed>0.010000</speed>
</trkpt>
<trkpt lat="56.097095" lon="26.546789">
<ele>107.340881</ele>
<time>2010-08-29T14:04:00Z</time>
<desc>lat.=56.097095, lon.=26.546789, Alt.=107.340881m. Speed=0.036000m/h.</desc>
<speed>0.010000</speed>
</trkpt>
<trkpt lat="56.097095" lon="26.546789">
<ele>107.335022</ele>
<time>2010-08-29T14:04:01Z</time>
<desc>lat.=56.097095, lon.=26.546789, Alt.=107.335022m. Speed=0.000000m/h.</desc>
<speed>0.000000</speed>
</trkpt>
<trkpt lat="56.097095" lon="26.546789">
<ele>107.325256</ele>
<time>2010-08-29T14:04:02Z</time>
<desc>lat.=56.097095, lon.=26.546789, Alt.=107.325256m. Speed=0.036000m/h.</desc>
<speed>0.010000</speed>
</trkpt>
<trkpt lat="56.097095" lon="26.546789">
<ele>107.319397</ele>
<time>2010-08-29T14:04:03Z</time>
<desc>lat.=56.097095, lon.=26.546789, Alt.=107.319397m. Speed=0.000000m/h.</desc>
<speed>0.000000</speed>
</trkpt>
<trkpt lat="56.097095" lon="26.546789">
<ele>107.311584</ele>
<time>2010-08-29T14:04:04Z</time>
<desc>lat.=56.097095, lon.=26.546789, Alt.=107.311584m. Speed=0.036000m/h.</desc>
<speed>0.010000</speed>
</trkpt>
<trkpt lat="56.097095" lon="26.546789">
<ele>107.303772</ele>
<time>2010-08-29T14:04:05Z</time>
<desc>lat.=56.097095, lon.=26.546789, Alt.=107.303772m. Speed=0.000000m/h.</desc>
<speed>0.000000</speed>
</trkpt>
<trkpt lat="56.097095" lon="26.546789">
<ele>107.297913</ele>
<time>2010-08-29T14:04:06Z</time>
<desc>lat.=56.097095, lon.=26.546789, Alt.=107.297913m. Speed=0.036000m/h.</desc>
<speed>0.010000</speed>
</trkpt>
<trkpt lat="56.097095" lon="26.546789">
<ele>107.294006</ele>
<time>2010-08-29T14:04:07Z</time>
<desc>lat.=56.097095, lon.=26.546789, Alt.=107.294006m. Speed=0.036000m/h.</desc>
<speed>0.010000</speed>
</trkpt>
<trkpt lat="56.097095" lon="26.546789">
<ele>107.288147</ele>
<time>2010-08-29T14:04:08Z</time>
<desc>lat.=56.097095, lon.=26.546789, Alt.=107.288147m. Speed=0.000000m/h.</desc>
<speed>0.000000</speed>
</trkpt>
<trkpt lat="56.097095" lon="26.546789">
<ele>107.286194</ele>
<time>2010-08-29T14:04:09Z</time>
<desc>lat.=56.097095, lon.=26.546789, Alt.=107.286194m. Speed=0.000000m/h.</desc>
<speed>0.000000</speed>
</trkpt>
<trkpt lat="56.097095" lon="26.546789">
<ele>107.284241</ele>
<time>2010-08-29T14:04:10Z</time>
<desc>lat.=56.097095, lon.=26.546789, Alt.=107.284241m. Speed=0.036000m/h.</desc>
<speed>0.010000</speed>
</trkpt>
<trkpt lat="56.097095" lon="26.546789">
<ele>107.280334</ele>
<time>2010-08-29T14:04:11Z</time>
<desc>lat.=56.097095, lon.=26.546789, Alt.=107.280334m. Speed=0.072000m/h.</desc>
<speed>0.020000</speed>
</trkpt>
<trkpt lat="56.097092" lon="26.546789">
<ele>107.278381</ele>
<time>2010-08-29T14:04:12Z</time>
<desc>lat.=56.097092, lon.=26.546789, Alt.=107.278381m. Speed=0.000000m/h.</desc>
<speed>0.000000</speed>
</trkpt>
<trkpt lat="56.097092" lon="26.546789">
<ele>107.276428</ele>
<time>2010-08-29T14:04:13Z</time>
<desc>lat.=56.097092, lon.=26.546789, Alt.=107.276428m. Speed=0.108000m/h.</desc>
<speed>0.030000</speed>
</trkpt>
<trkpt lat="56.097092" lon="26.546789">
<ele>107.274475</ele>
<time>2010-08-29T14:04:14Z</time>
<desc>lat.=56.097092, lon.=26.546789, Alt.=107.274475m. Speed=0.000000m/h.</desc>
<speed>0.000000</speed>
</trkpt>
<trkpt lat="56.097092" lon="26.546789">
<ele>107.274475</ele>
<time>2010-08-29T14:04:15Z</time>
<desc>lat.=56.097092, lon.=26.546789, Alt.=107.274475m. Speed=0.000000m/h.</desc>
<speed>0.000000</speed>
</trkpt>
<trkpt lat="56.097092" lon="26.546789">
<ele>107.272522</ele>
<time>2010-08-29T14:04:16Z</time>
<desc>lat.=56.097092, lon.=26.546789, Alt.=107.272522m. Speed=0.036000m/h.</desc>
<speed>0.010000</speed>
</trkpt>
<trkpt lat="56.097092" lon="26.546789">
<ele>107.270569</ele>
<time>2010-08-29T14:04:17Z</time>
<desc>lat.=56.097092, lon.=26.546789, Alt.=107.270569m. Speed=0.000000m/h.</desc>
<speed>0.000000</speed>
</trkpt>
<trkpt lat="56.097092" lon="26.546789">
<ele>107.268616</ele>
<time>2010-08-29T14:04:18Z</time>
<desc>lat.=56.097092, lon.=26.546789, Alt.=107.268616m. Speed=0.000000m/h.</desc>
<speed>0.000000</speed>
</trkpt>
<trkpt lat="56.097092" lon="26.546789">
<ele>107.266663</ele>
<time>2010-08-29T14:04:19Z</time>
<desc>lat.=56.097092, lon.=26.546789, Alt.=107.266663m. Speed=0.000000m/h.</desc>
<speed>0.000000</speed>
</trkpt>
<trkpt lat="56.097092" lon="26.546789">
<ele>107.264709</ele>
<time>2010-08-29T14:04:20Z</time>
<desc>lat.=56.097092, lon.=26.546789, Alt.=107.264709m. Speed=0.000000m/h.</desc>
<speed>0.000000</speed>
</trkpt>
<trkpt lat="56.097092" lon="26.546789">
<ele>107.262756</ele>
<time>2010-08-29T14:04:21Z</time>
<desc>lat.=56.097092, lon.=26.546789, Alt.=107.262756m. Speed=0.036000m/h.</desc>
<speed>0.010000</speed>
</trkpt>
<trkpt lat="56.097092" lon="26.546789">
<ele>107.260803</ele>
<time>2010-08-29T14:04:22Z</time>
<desc>lat.=56.097092, lon.=26.546789, Alt.=107.260803m. Speed=0.000000m/h.</desc>
<speed>0.000000</speed>
</trkpt>
<trkpt lat="56.097092" lon="26.546789">
<ele>107.256897</ele>
<time>2010-08-29T14:04:23Z</time>
<desc>lat.=56.097092, lon.=26.546789, Alt.=107.256897m. Speed=0.000000m/h.</desc>
<speed>0.000000</speed>
</trkpt>
<trkpt lat="56.097092" lon="26.546789">
<ele>107.256897</ele>
<time>2010-08-29T14:04:24Z</time>
<desc>lat.=56.097092, lon.=26.546789, Alt.=107.256897m. Speed=0.000000m/h.</desc>
<speed>0.000000</speed>
</trkpt>
<trkpt lat="56.097092" lon="26.546789">
<ele>107.252991</ele>
<time>2010-08-29T14:04:25Z</time>
<desc>lat.=56.097092, lon.=26.546789, Alt.=107.252991m. Speed=0.036000m/h.</desc>
<speed>0.010000</speed>
</trkpt>
<trkpt lat="56.097092" lon="26.546789">
<ele>107.249084</ele>
<time>2010-08-29T14:04:26Z</time>
<desc>lat.=56.097092, lon.=26.546789, Alt.=107.249084m. Speed=0.036000m/h.</desc>
<speed>0.010000</speed>
</trkpt>
<trkpt lat="56.097092" lon="26.546789">
<ele>107.249084</ele>
<time>2010-08-29T14:04:27Z</time>
<desc>lat.=56.097092, lon.=26.546789, Alt.=107.249084m. Speed=0.000000m/h.</desc>
<speed>0.000000</speed>
</trkpt>
<trkpt lat="56.097092" lon="26.546789">
<ele>107.245178</ele>
<time>2010-08-29T14:04:28Z</time>
<desc>lat.=56.097092, lon.=26.546789, Alt.=107.245178m. Speed=0.000000m/h.</desc>
<speed>0.000000</speed>
</trkpt>
<trkpt lat="56.097092" lon="26.546789">
<ele>107.243225</ele>
<time>2010-08-29T14:04:29Z</time>
<desc>lat.=56.097092, lon.=26.546789, Alt.=107.243225m. Speed=0.000000m/h.</desc>
<speed>0.000000</speed>
</trkpt>
<trkpt lat="56.097092" lon="26.546789">
<ele>107.239319</ele>
<time>2010-08-29T14:04:30Z</time>
<desc>lat.=56.097092, lon.=26.546789, Alt.=107.239319m. Speed=0.144000m/h.</desc>
<speed>0.040000</speed>
</trkpt>
<trkpt lat="56.097092" lon="26.546789">
<ele>107.239319</ele>
<time>2010-08-29T14:04:31Z</time>
<desc>lat.=56.097092, lon.=26.546789, Alt.=107.239319m. Speed=0.000000m/h.</desc>
<speed>0.000000</speed>
</trkpt>
<trkpt lat="56.097092" lon="26.546789">
<ele>107.237366</ele>
<time>2010-08-29T14:04:32Z</time>
<desc>lat.=56.097092, lon.=26.546789, Alt.=107.237366m. Speed=0.036000m/h.</desc>
<speed>0.010000</speed>
</trkpt>
<trkpt lat="56.097092" lon="26.546789">
<ele>107.235413</ele>
<time>2010-08-29T14:04:33Z</time>
<desc>lat.=56.097092, lon.=26.546789, Alt.=107.235413m. Speed=0.036000m/h.</desc>
<speed>0.010000</speed>
</trkpt>
<trkpt lat="56.097092" lon="26.546789">
<ele>107.231506</ele>
<time>2010-08-29T14:04:34Z</time>
<desc>lat.=56.097092, lon.=26.546789, Alt.=107.231506m. Speed=0.000000m/h.</desc>
<speed>0.000000</speed>
</trkpt>
<trkpt lat="56.097092" lon="26.546787">
<ele>107.231506</ele>
<time>2010-08-29T14:04:35Z</time>
<desc>lat.=56.097092, lon.=26.546787, Alt.=107.231506m. Speed=0.036000m/h.</desc>
<speed>0.010000</speed>
</trkpt>
<trkpt lat="56.097092" lon="26.546787">
<ele>107.227600</ele>
<time>2010-08-29T14:04:36Z</time>
<desc>lat.=56.097092, lon.=26.546787, Alt.=107.227600m. Speed=0.036000m/h.</desc>
<speed>0.010000</speed>
</trkpt>
<trkpt lat="56.097092" lon="26.546787">
<ele>107.225647</ele>
<time>2010-08-29T14:04:37Z</time>
<desc>lat.=56.097092, lon.=26.546787, Alt.=107.225647m. Speed=0.000000m/h.</desc>
<speed>0.000000</speed>
</trkpt>
<trkpt lat="56.097092" lon="26.546787">
<ele>107.219788</ele>
<time>2010-08-29T14:04:38Z</time>
<desc>lat.=56.097092, lon.=26.546787, Alt.=107.219788m. Speed=0.072000m/h.</desc>
<speed>0.020000</speed>
</trkpt>
<trkpt lat="56.097092" lon="26.546787">
<ele>107.217834</ele>
<time>2010-08-29T14:04:39Z</time>
<desc>lat.=56.097092, lon.=26.546787, Alt.=107.217834m. Speed=0.000000m/h.</desc>
<speed>0.000000</speed>
</trkpt>
<trkpt lat="56.097092" lon="26.546787">
<ele>107.215881</ele>
<time>2010-08-29T14:04:40Z</time>
<desc>lat.=56.097092, lon.=26.546787, Alt.=107.215881m. Speed=0.000000m/h.</desc>
<speed>0.000000</speed>
</trkpt>
<trkpt lat="56.097092" lon="26.546787">
<ele>107.213928</ele>
<time>2010-08-29T14:04:41Z</time>
<desc>lat.=56.097092, lon.=26.546787, Alt.=107.213928m. Speed=0.036000m/h.</desc>
<speed>0.010000</speed>
</trkpt>
<trkpt lat="56.097092" lon="26.546787">
<ele>107.210022</ele>
<time>2010-08-29T14:04:42Z</time>
<desc>lat.=56.097092, lon.=26.546787, Alt.=107.210022m. Speed=0.000000m/h.</desc>
<speed>0.000000</speed>
</trkpt>
<trkpt lat="56.097092" lon="26.546787">
<ele>107.208069</ele>
<time>2010-08-29T14:04:43Z</time>
<desc>lat.=56.097092, lon.=26.546787, Alt.=107.208069m. Speed=0.036000m/h.</desc>
<speed>0.010000</speed>
</trkpt>
<trkpt lat="56.097092" lon="26.546787">
<ele>107.202209</ele>
<time>2010-08-29T14:04:44Z</time>
<desc>lat.=56.097092, lon.=26.546787, Alt.=107.202209m. Speed=0.036000m/h.</desc>
<speed>0.010000</speed>
</trkpt>
<trkpt lat="56.097092" lon="26.546787">
<ele>107.200256</ele>
<time>2010-08-29T14:04:45Z</time>
<desc>lat.=56.097092, lon.=26.546787, Alt.=107.200256m. Speed=0.000000m/h.</desc>
<speed>0.000000</speed>
</trkpt>
<trkpt lat="56.097092" lon="26.546787">
<ele>107.194397</ele>
<time>2010-08-29T14:04:46Z</time>
<desc>lat.=56.097092, lon.=26.546787, Alt.=107.194397m. Speed=0.000000m/h.</desc>
<speed>0.000000</speed>
</trkpt>
<trkpt lat="56.097092" lon="26.546787">
<ele>107.190491</ele>
<time>2010-08-29T14:04:47Z</time>
<desc>lat.=56.097092, lon.=26.546787, Alt.=107.190491m. Speed=0.000000m/h.</desc>
<speed>0.000000</speed>
</trkpt>
<trkpt lat="56.097092" lon="26.546787">
<ele>107.184631</ele>
<time>2010-08-29T14:04:48Z</time>
<desc>lat.=56.097092, lon.=26.546787, Alt.=107.184631m. Speed=0.036000m/h.</desc>
<speed>0.010000</speed>
</trkpt>
<trkpt lat="56.097092" lon="26.546787">
<ele>107.180725</ele>
<time>2010-08-29T14:04:49Z</time>
<desc>lat.=56.097092, lon.=26.546787, Alt.=107.180725m. Speed=0.000000m/h.</desc>
<speed>0.000000</speed>
</trkpt>
<trkpt lat="56.097092" lon="26.546787">
<ele>107.176819</ele>
<time>2010-08-29T14:04:50Z</time>
<desc>lat.=56.097092, lon.=26.546787, Alt.=107.176819m. Speed=0.000000m/h.</desc>
<speed>0.000000</speed>
</trkpt>
<trkpt lat="56.097092" lon="26.546787">
<ele>107.172913</ele>
<time>2010-08-29T14:04:51Z</time>
<desc>lat.=56.097092, lon.=26.546787, Alt.=107.172913m. Speed=0.000000m/h.</desc>
<speed>0.000000</speed>
</trkpt>
<trkpt lat="56.097092" lon="26.546787">
<ele>107.167053</ele>
<time>2010-08-29T14:04:52Z</time>
<desc>lat.=56.097092, lon.=26.546787, Alt.=107.167053m. Speed=0.000000m/h.</desc>
<speed>0.000000</speed>
</trkpt>
<trkpt lat="56.097092" lon="26.546787">
<ele>107.161194</ele>
<time>2010-08-29T14:04:53Z</time>
<desc>lat.=56.097092, lon.=26.546787, Alt.=107.161194m. Speed=0.000000m/h.</desc>
<speed>0.000000</speed>
</trkpt>
<trkpt lat="56.097092" lon="26.546787">
<ele>107.155334</ele>
<time>2010-08-29T14:04:54Z</time>
<desc>lat.=56.097092, lon.=26.546787, Alt.=107.155334m. Speed=0.036000m/h.</desc>
<speed>0.010000</speed>
</trkpt>
<trkpt lat="56.097092" lon="26.546787">
<ele>107.149475</ele>
<time>2010-08-29T14:04:55Z</time>
<desc>lat.=56.097092, lon.=26.546787, Alt.=107.149475m. Speed=0.000000m/h.</desc>
<speed>0.000000</speed>
</trkpt>
<trkpt lat="56.097092" lon="26.546787">
<ele>107.143616</ele>
<time>2010-08-29T14:04:56Z</time>
<desc>lat.=56.097092, lon.=26.546787, Alt.=107.143616m. Speed=0.000000m/h.</desc>
<speed>0.000000</speed>
</trkpt>
<trkpt lat="56.097092" lon="26.546787">
<ele>107.137756</ele>
<time>2010-08-29T14:04:57Z</time>
<desc>lat.=56.097092, lon.=26.546787, Alt.=107.137756m. Speed=0.000000m/h.</desc>
<speed>0.000000</speed>
</trkpt>
<trkpt lat="56.097092" lon="26.546787">
<ele>107.129944</ele>
<time>2010-08-29T14:04:58Z</time>
<desc>lat.=56.097092, lon.=26.546787, Alt.=107.129944m. Speed=0.000000m/h.</desc>
<speed>0.000000</speed>
</trkpt>
<trkpt lat="56.097092" lon="26.546789">
<ele>107.124084</ele>
<time>2010-08-29T14:04:59Z</time>
<desc>lat.=56.097092, lon.=26.546789, Alt.=107.124084m. Speed=0.036000m/h.</desc>
<speed>0.010000</speed>
</trkpt>
<trkpt lat="56.097092" lon="26.546789">
<ele>107.120178</ele>
<time>2010-08-29T14:05:00Z</time>
<desc>lat.=56.097092, lon.=26.546789, Alt.=107.120178m. Speed=0.036000m/h.</desc>
<speed>0.010000</speed>
</trkpt>
<trkpt lat="56.097092" lon="26.546789">
<ele>107.118225</ele>
<time>2010-08-29T14:05:01Z</time>
<desc>lat.=56.097092, lon.=26.546789, Alt.=107.118225m. Speed=0.000000m/h.</desc>
<speed>0.000000</speed>
</trkpt>
<trkpt lat="56.097092" lon="26.546789">
<ele>107.112366</ele>
<time>2010-08-29T14:05:02Z</time>
<desc>lat.=56.097092, lon.=26.546789, Alt.=107.112366m. Speed=0.036000m/h.</desc>
<speed>0.010000</speed>
</trkpt>
<trkpt lat="56.097092" lon="26.546789">
<ele>107.106506</ele>
<time>2010-08-29T14:05:03Z</time>
<desc>lat.=56.097092, lon.=26.546789, Alt.=107.106506m. Speed=0.000000m/h.</desc>
<speed>0.000000</speed>
</trkpt>
<trkpt lat="56.097092" lon="26.546789">
<ele>107.100647</ele>
<time>2010-08-29T14:05:04Z</time>
<desc>lat.=56.097092, lon.=26.546789, Alt.=107.100647m. Speed=0.108000m/h.</desc>
<speed>0.030000</speed>
</trkpt>
<trkpt lat="56.097092" lon="26.546789">
<ele>107.092834</ele>
<time>2010-08-29T14:05:05Z</time>
<desc>lat.=56.097092, lon.=26.546789, Alt.=107.092834m. Speed=0.000000m/h.</desc>
<speed>0.000000</speed>
</trkpt>
<trkpt lat="56.097092" lon="26.546789">
<ele>107.086975</ele>
<time>2010-08-29T14:05:06Z</time>
<desc>lat.=56.097092, lon.=26.546789, Alt.=107.086975m. Speed=0.036000m/h.</desc>
<speed>0.010000</speed>
</trkpt>
<trkpt lat="56.097092" lon="26.546789">
<ele>107.079163</ele>
<time>2010-08-29T14:05:07Z</time>
<desc>lat.=56.097092, lon.=26.546789, Alt.=107.079163m. Speed=0.036000m/h.</desc>
<speed>0.010000</speed>
</trkpt>
<trkpt lat="56.097092" lon="26.546789">
<ele>107.069397</ele>
<time>2010-08-29T14:05:08Z</time>
<desc>lat.=56.097092, lon.=26.546789, Alt.=107.069397m. Speed=0.000000m/h.</desc>
<speed>0.000000</speed>
</trkpt>
<trkpt lat="56.097092" lon="26.546789">
<ele>107.061584</ele>
<time>2010-08-29T14:05:09Z</time>
<desc>lat.=56.097092, lon.=26.546789, Alt.=107.061584m. Speed=0.000000m/h.</desc>
<speed>0.000000</speed>
</trkpt>
<trkpt lat="56.097092" lon="26.546789">
<ele>107.055725</ele>
<time>2010-08-29T14:05:10Z</time>
<desc>lat.=56.097092, lon.=26.546789, Alt.=107.055725m. Speed=0.036000m/h.</desc>
<speed>0.010000</speed>
</trkpt>
<trkpt lat="56.097092" lon="26.546789">
<ele>107.051819</ele>
<time>2010-08-29T14:05:11Z</time>
<desc>lat.=56.097092, lon.=26.546789, Alt.=107.051819m. Speed=0.072000m/h.</desc>
<speed>0.020000</speed>
</trkpt>
<trkpt lat="56.097092" lon="26.546789">
<ele>107.045959</ele>
<time>2010-08-29T14:05:12Z</time>
<desc>lat.=56.097092, lon.=26.546789, Alt.=107.045959m. Speed=0.000000m/h.</desc>
<speed>0.000000</speed>
</trkpt>
<trkpt lat="56.097092" lon="26.546789">
<ele>107.034241</ele>
<time>2010-08-29T14:05:13Z</time>
<desc>lat.=56.097092, lon.=26.546789, Alt.=107.034241m. Speed=0.036000m/h.</desc>
<speed>0.010000</speed>
</trkpt>
<trkpt lat="56.097092" lon="26.546789">
<ele>107.028381</ele>
<time>2010-08-29T14:05:14Z</time>
<desc>lat.=56.097092, lon.=26.546789, Alt.=107.028381m. Speed=0.072000m/h.</desc>
<speed>0.020000</speed>
</trkpt>
<trkpt lat="56.097092" lon="26.546789">
<ele>107.018616</ele>
<time>2010-08-29T14:05:15Z</time>
<desc>lat.=56.097092, lon.=26.546789, Alt.=107.018616m. Speed=0.108000m/h.</desc>
<speed>0.030000</speed>
</trkpt>
<trkpt lat="56.097092" lon="26.546789">
<ele>107.008850</ele>
<time>2010-08-29T14:05:16Z</time>
<desc>lat.=56.097092, lon.=26.546789, Alt.=107.008850m. Speed=0.000000m/h.</desc>
<speed>0.000000</speed>
</trkpt>
<trkpt lat="56.097092" lon="26.546789">
<ele>107.001038</ele>
<time>2010-08-29T14:05:17Z</time>
<desc>lat.=56.097092, lon.=26.546789, Alt.=107.001038m. Speed=0.036000m/h.</desc>
<speed>0.010000</speed>
</trkpt>
<trkpt lat="56.097092" lon="26.546789">
<ele>106.995178</ele>
<time>2010-08-29T14:05:18Z</time>
<desc>lat.=56.097092, lon.=26.546789, Alt.=106.995178m. Speed=0.000000m/h.</desc>
<speed>0.000000</speed>
</trkpt>
<trkpt lat="56.097092" lon="26.546789">
<ele>106.987366</ele>
<time>2010-08-29T14:05:19Z</time>
<desc>lat.=56.097092, lon.=26.546789, Alt.=106.987366m. Speed=0.108000m/h.</desc>
<speed>0.030000</speed>
</trkpt>
<trkpt lat="56.097088" lon="26.546789">
<ele>106.981506</ele>
<time>2010-08-29T14:05:20Z</time>
<desc>lat.=56.097088, lon.=26.546789, Alt.=106.981506m. Speed=0.000000m/h.</desc>
<speed>0.000000</speed>
</trkpt>
<trkpt lat="56.097088" lon="26.546789">
<ele>106.977600</ele>
<time>2010-08-29T14:05:21Z</time>
<desc>lat.=56.097088, lon.=26.546789, Alt.=106.977600m. Speed=0.036000m/h.</desc>
<speed>0.010000</speed>
</trkpt>
<trkpt lat="56.097088" lon="26.546789">
<ele>106.971741</ele>
<time>2010-08-29T14:05:22Z</time>
<desc>lat.=56.097088, lon.=26.546789, Alt.=106.971741m. Speed=0.036000m/h.</desc>
<speed>0.010000</speed>
</trkpt>
<trkpt lat="56.097088" lon="26.546789">
<ele>106.969788</ele>
<time>2010-08-29T14:05:23Z</time>
<desc>lat.=56.097088, lon.=26.546789, Alt.=106.969788m. Speed=0.000000m/h.</desc>
<speed>0.000000</speed>
</trkpt>
<trkpt lat="56.097088" lon="26.546789">
<ele>106.965881</ele>
<time>2010-08-29T14:05:24Z</time>
<desc>lat.=56.097088, lon.=26.546789, Alt.=106.965881m. Speed=0.000000m/h.</desc>
<speed>0.000000</speed>
</trkpt>
<trkpt lat="56.097088" lon="26.546789">
<ele>106.963928</ele>
<time>2010-08-29T14:05:25Z</time>
<desc>lat.=56.097088, lon.=26.546789, Alt.=106.963928m. Speed=0.036000m/h.</desc>
<speed>0.010000</speed>
</trkpt>
<trkpt lat="56.097088" lon="26.546789">
<ele>106.961975</ele>
<time>2010-08-29T14:05:26Z</time>
<desc>lat.=56.097088, lon.=26.546789, Alt.=106.961975m. Speed=0.072000m/h.</desc>
<speed>0.020000</speed>
</trkpt>
<trkpt lat="56.097088" lon="26.546789">
<ele>106.960022</ele>
<time>2010-08-29T14:05:27Z</time>
<desc>lat.=56.097088, lon.=26.546789, Alt.=106.960022m. Speed=0.036000m/h.</desc>
<speed>0.010000</speed>
</trkpt>
<trkpt lat="56.097088" lon="26.546789">
<ele>106.961975</ele>
<time>2010-08-29T14:05:28Z</time>
<desc>lat.=56.097088, lon.=26.546789, Alt.=106.961975m. Speed=0.000000m/h.</desc>
<speed>0.000000</speed>
</trkpt>
<trkpt lat="56.097088" lon="26.546789">
<ele>106.960022</ele>
<time>2010-08-29T14:05:29Z</time>
<desc>lat.=56.097088, lon.=26.546789, Alt.=106.960022m. Speed=0.036000m/h.</desc>
<speed>0.010000</speed>
</trkpt>
<trkpt lat="56.097088" lon="26.546789">
<ele>106.963928</ele>
<time>2010-08-29T14:05:30Z</time>
<desc>lat.=56.097088, lon.=26.546789, Alt.=106.963928m. Speed=0.072000m/h.</desc>
<speed>0.020000</speed>
</trkpt>
<trkpt lat="56.097088" lon="26.546789">
<ele>106.965881</ele>
<time>2010-08-29T14:05:31Z</time>
<desc>lat.=56.097088, lon.=26.546789, Alt.=106.965881m. Speed=0.000000m/h.</desc>
<speed>0.000000</speed>
</trkpt>
<trkpt lat="56.097088" lon="26.546789">
<ele>106.967834</ele>
<time>2010-08-29T14:05:32Z</time>
<desc>lat.=56.097088, lon.=26.546789, Alt.=106.967834m. Speed=0.036000m/h.</desc>
<speed>0.010000</speed>
</trkpt>
<trkpt lat="56.097092" lon="26.546789">
<ele>106.971741</ele>
<time>2010-08-29T14:05:33Z</time>
<desc>lat.=56.097092, lon.=26.546789, Alt.=106.971741m. Speed=0.036000m/h.</desc>
<speed>0.010000</speed>
</trkpt>
<trkpt lat="56.097092" lon="26.546789">
<ele>106.975647</ele>
<time>2010-08-29T14:05:34Z</time>
<desc>lat.=56.097092, lon.=26.546789, Alt.=106.975647m. Speed=0.108000m/h.</desc>
<speed>0.030000</speed>
</trkpt>
<trkpt lat="56.097092" lon="26.546787">
<ele>106.979553</ele>
<time>2010-08-29T14:05:35Z</time>
<desc>lat.=56.097092, lon.=26.546787, Alt.=106.979553m. Speed=0.000000m/h.</desc>
<speed>0.000000</speed>
</trkpt>
<trkpt lat="56.097092" lon="26.546787">
<ele>106.981506</ele>
<time>2010-08-29T14:05:36Z</time>
<desc>lat.=56.097092, lon.=26.546787, Alt.=106.981506m. Speed=0.072000m/h.</desc>
<speed>0.020000</speed>
</trkpt>
<trkpt lat="56.097092" lon="26.546787">
<ele>106.983459</ele>
<time>2010-08-29T14:05:37Z</time>
<desc>lat.=56.097092, lon.=26.546787, Alt.=106.983459m. Speed=0.036000m/h.</desc>
<speed>0.010000</speed>
</trkpt>
<trkpt lat="56.097092" lon="26.546787">
<ele>106.987366</ele>
<time>2010-08-29T14:05:38Z</time>
<desc>lat.=56.097092, lon.=26.546787, Alt.=106.987366m. Speed=0.000000m/h.</desc>
<speed>0.000000</speed>
</trkpt>
<trkpt lat="56.097092" lon="26.546787">
<ele>106.987366</ele>
<time>2010-08-29T14:05:39Z</time>
<desc>lat.=56.097092, lon.=26.546787, Alt.=106.987366m. Speed=0.072000m/h.</desc>
<speed>0.020000</speed>
</trkpt>
<trkpt lat="56.097092" lon="26.546787">
<ele>106.987366</ele>
<time>2010-08-29T14:05:40Z</time>
<desc>lat.=56.097092, lon.=26.546787, Alt.=106.987366m. Speed=0.108000m/h.</desc>
<speed>0.030000</speed>
</trkpt>
<trkpt lat="56.097092" lon="26.546787">
<ele>106.987366</ele>
<time>2010-08-29T14:05:41Z</time>
<desc>lat.=56.097092, lon.=26.546787, Alt.=106.987366m. Speed=0.036000m/h.</desc>
<speed>0.010000</speed>
</trkpt>
<trkpt lat="56.097092" lon="26.546787">
<ele>106.987366</ele>
<time>2010-08-29T14:05:42Z</time>
<desc>lat.=56.097092, lon.=26.546787, Alt.=106.987366m. Speed=0.000000m/h.</desc>
<speed>0.000000</speed>
</trkpt>
<trkpt lat="56.097092" lon="26.546787">
<ele>106.983459</ele>
<time>2010-08-29T14:05:43Z</time>
<desc>lat.=56.097092, lon.=26.546787, Alt.=106.983459m. Speed=0.036000m/h.</desc>
<speed>0.010000</speed>
</trkpt>
<trkpt lat="56.097092" lon="26.546785">
<ele>106.983459</ele>
<time>2010-08-29T14:05:44Z</time>
<desc>lat.=56.097092, lon.=26.546785, Alt.=106.983459m. Speed=0.000000m/h.</desc>
<speed>0.000000</speed>
</trkpt>
<trkpt lat="56.097092" lon="26.546785">
<ele>106.983459</ele>
<time>2010-08-29T14:05:45Z</time>
<desc>lat.=56.097092, lon.=26.546785, Alt.=106.983459m. Speed=0.072000m/h.</desc>
<speed>0.020000</speed>
</trkpt>
<trkpt lat="56.097092" lon="26.546785">
<ele>106.983459</ele>
<time>2010-08-29T14:05:46Z</time>
<desc>lat.=56.097092, lon.=26.546785, Alt.=106.983459m. Speed=0.036000m/h.</desc>
<speed>0.010000</speed>
</trkpt>
<trkpt lat="56.097092" lon="26.546785">
<ele>106.983459</ele>
<time>2010-08-29T14:05:47Z</time>
<desc>lat.=56.097092, lon.=26.546785, Alt.=106.983459m. Speed=0.000000m/h.</desc>
<speed>0.000000</speed>
</trkpt>
<trkpt lat="56.097092" lon="26.546785">
<ele>106.981506</ele>
<time>2010-08-29T14:05:48Z</time>
<desc>lat.=56.097092, lon.=26.546785, Alt.=106.981506m. Speed=0.000000m/h.</desc>
<speed>0.000000</speed>
</trkpt>
<trkpt lat="56.097092" lon="26.546785">
<ele>106.975647</ele>
<time>2010-08-29T14:05:49Z</time>
<desc>lat.=56.097092, lon.=26.546785, Alt.=106.975647m. Speed=0.036000m/h.</desc>
<speed>0.010000</speed>
</trkpt>
<trkpt lat="56.097092" lon="26.546785">
<ele>106.971741</ele>
<time>2010-08-29T14:05:50Z</time>
<desc>lat.=56.097092, lon.=26.546785, Alt.=106.971741m. Speed=0.036000m/h.</desc>
<speed>0.010000</speed>
</trkpt>
<trkpt lat="56.097092" lon="26.546785">
<ele>106.967834</ele>
<time>2010-08-29T14:05:51Z</time>
<desc>lat.=56.097092, lon.=26.546785, Alt.=106.967834m. Speed=0.072000m/h.</desc>
<speed>0.020000</speed>
</trkpt>
<trkpt lat="56.097092" lon="26.546785">
<ele>106.963928</ele>
<time>2010-08-29T14:05:52Z</time>
<desc>lat.=56.097092, lon.=26.546785, Alt.=106.963928m. Speed=0.072000m/h.</desc>
<speed>0.020000</speed>
</trkpt>
<trkpt lat="56.097092" lon="26.546785">
<ele>106.960022</ele>
<time>2010-08-29T14:05:53Z</time>
<desc>lat.=56.097092, lon.=26.546785, Alt.=106.960022m. Speed=0.000000m/h.</desc>
<speed>0.000000</speed>
</trkpt>
<trkpt lat="56.097092" lon="26.546785">
<ele>106.954163</ele>
<time>2010-08-29T14:05:54Z</time>
<desc>lat.=56.097092, lon.=26.546785, Alt.=106.954163m. Speed=0.036000m/h.</desc>
<speed>0.010000</speed>
</trkpt>
<trkpt lat="56.097092" lon="26.546785">
<ele>106.950256</ele>
<time>2010-08-29T14:05:55Z</time>
<desc>lat.=56.097092, lon.=26.546785, Alt.=106.950256m. Speed=0.036000m/h.</desc>
<speed>0.010000</speed>
</trkpt>
<trkpt lat="56.097092" lon="26.546785">
<ele>106.944397</ele>
<time>2010-08-29T14:05:56Z</time>
<desc>lat.=56.097092, lon.=26.546785, Alt.=106.944397m. Speed=0.000000m/h.</desc>
<speed>0.000000</speed>
</trkpt>
<trkpt lat="56.097092" lon="26.546785">
<ele>106.938538</ele>
<time>2010-08-29T14:05:57Z</time>
<desc>lat.=56.097092, lon.=26.546785, Alt.=106.938538m. Speed=0.000000m/h.</desc>
<speed>0.000000</speed>
</trkpt>
<trkpt lat="56.097092" lon="26.546785">
<ele>106.934631</ele>
<time>2010-08-29T14:05:58Z</time>
<desc>lat.=56.097092, lon.=26.546785, Alt.=106.934631m. Speed=0.000000m/h.</desc>
<speed>0.000000</speed>
</trkpt>
<trkpt lat="56.097092" lon="26.546785">
<ele>106.928772</ele>
<time>2010-08-29T14:05:59Z</time>
<desc>lat.=56.097092, lon.=26.546785, Alt.=106.928772m. Speed=0.000000m/h.</desc>
<speed>0.000000</speed>
</trkpt>
<trkpt lat="56.097092" lon="26.546785">
<ele>106.922913</ele>
<time>2010-08-29T14:06:00Z</time>
<desc>lat.=56.097092, lon.=26.546785, Alt.=106.922913m. Speed=0.000000m/h.</desc>
<speed>0.000000</speed>
</trkpt>
<trkpt lat="56.097092" lon="26.546785">
<ele>106.919006</ele>
<time>2010-08-29T14:06:01Z</time>
<desc>lat.=56.097092, lon.=26.546785, Alt.=106.919006m. Speed=0.000000m/h.</desc>
<speed>0.000000</speed>
</trkpt>
<trkpt lat="56.097092" lon="26.546785">
<ele>106.913147</ele>
<time>2010-08-29T14:06:02Z</time>
<desc>lat.=56.097092, lon.=26.546785, Alt.=106.913147m. Speed=0.000000m/h.</desc>
<speed>0.000000</speed>
</trkpt>
<trkpt lat="56.097092" lon="26.546785">
<ele>106.909241</ele>
<time>2010-08-29T14:06:03Z</time>
<desc>lat.=56.097092, lon.=26.546785, Alt.=106.909241m. Speed=0.000000m/h.</desc>
<speed>0.000000</speed>
</trkpt>
<trkpt lat="56.097092" lon="26.546785">
<ele>106.903381</ele>
<time>2010-08-29T14:06:04Z</time>
<desc>lat.=56.097092, lon.=26.546785, Alt.=106.903381m. Speed=0.000000m/h.</desc>
<speed>0.000000</speed>
</trkpt>
<trkpt lat="56.097092" lon="26.546785">
<ele>106.901428</ele>
<time>2010-08-29T14:06:05Z</time>
<desc>lat.=56.097092, lon.=26.546785, Alt.=106.901428m. Speed=0.036000m/h.</desc>
<speed>0.010000</speed>
</trkpt>
<trkpt lat="56.097088" lon="26.546785">
<ele>106.897522</ele>
<time>2010-08-29T14:06:06Z</time>
<desc>lat.=56.097088, lon.=26.546785, Alt.=106.897522m. Speed=0.000000m/h.</desc>
<speed>0.000000</speed>
</trkpt>
<trkpt lat="56.097088" lon="26.546785">
<ele>106.895569</ele>
<time>2010-08-29T14:06:07Z</time>
<desc>lat.=56.097088, lon.=26.546785, Alt.=106.895569m. Speed=0.036000m/h.</desc>
<speed>0.010000</speed>
</trkpt>
<trkpt lat="56.097088" lon="26.546785">
<ele>106.893616</ele>
<time>2010-08-29T14:06:08Z</time>
<desc>lat.=56.097088, lon.=26.546785, Alt.=106.893616m. Speed=0.000000m/h.</desc>
<speed>0.000000</speed>
</trkpt>
<trkpt lat="56.097088" lon="26.546785">
<ele>106.889709</ele>
<time>2010-08-29T14:06:09Z</time>
<desc>lat.=56.097088, lon.=26.546785, Alt.=106.889709m. Speed=0.000000m/h.</desc>
<speed>0.000000</speed>
</trkpt>
<trkpt lat="56.097088" lon="26.546785">
<ele>106.885803</ele>
<time>2010-08-29T14:06:10Z</time>
<desc>lat.=56.097088, lon.=26.546785, Alt.=106.885803m. Speed=0.000000m/h.</desc>
<speed>0.000000</speed>
</trkpt>
<trkpt lat="56.097088" lon="26.546785">
<ele>106.885803</ele>
<time>2010-08-29T14:06:11Z</time>
<desc>lat.=56.097088, lon.=26.546785, Alt.=106.885803m. Speed=0.000000m/h.</desc>
<speed>0.000000</speed>
</trkpt>
<trkpt lat="56.097088" lon="26.546785">
<ele>106.883850</ele>
<time>2010-08-29T14:06:12Z</time>
<desc>lat.=56.097088, lon.=26.546785, Alt.=106.883850m. Speed=0.000000m/h.</desc>
<speed>0.000000</speed>
</trkpt>
<trkpt lat="56.097088" lon="26.546785">
<ele>106.881897</ele>
<time>2010-08-29T14:06:13Z</time>
<desc>lat.=56.097088, lon.=26.546785, Alt.=106.881897m. Speed=0.036000m/h.</desc>
<speed>0.010000</speed>
</trkpt>
<trkpt lat="56.097088" lon="26.546785">
<ele>106.881897</ele>
<time>2010-08-29T14:06:14Z</time>
<desc>lat.=56.097088, lon.=26.546785, Alt.=106.881897m. Speed=0.036000m/h.</desc>
<speed>0.010000</speed>
</trkpt>
<trkpt lat="56.097088" lon="26.546785">
<ele>106.879944</ele>
<time>2010-08-29T14:06:15Z</time>
<desc>lat.=56.097088, lon.=26.546785, Alt.=106.879944m. Speed=0.000000m/h.</desc>
<speed>0.000000</speed>
</trkpt>
<trkpt lat="56.097088" lon="26.546785">
<ele>106.877991</ele>
<time>2010-08-29T14:06:16Z</time>
<desc>lat.=56.097088, lon.=26.546785, Alt.=106.877991m. Speed=0.036000m/h.</desc>
<speed>0.010000</speed>
</trkpt>
<trkpt lat="56.097088" lon="26.546785">
<ele>106.877991</ele>
<time>2010-08-29T14:06:17Z</time>
<desc>lat.=56.097088, lon.=26.546785, Alt.=106.877991m. Speed=0.036000m/h.</desc>
<speed>0.010000</speed>
</trkpt>
<trkpt lat="56.097088" lon="26.546785">
<ele>106.877991</ele>
<time>2010-08-29T14:06:18Z</time>
<desc>lat.=56.097088, lon.=26.546785, Alt.=106.877991m. Speed=0.036000m/h.</desc>
<speed>0.010000</speed>
</trkpt>
<trkpt lat="56.097088" lon="26.546785">
<ele>106.876038</ele>
<time>2010-08-29T14:06:19Z</time>
<desc>lat.=56.097088, lon.=26.546785, Alt.=106.876038m. Speed=0.036000m/h.</desc>
<speed>0.010000</speed>
</trkpt>
<trkpt lat="56.097088" lon="26.546785">
<ele>106.874084</ele>
<time>2010-08-29T14:06:20Z</time>
<desc>lat.=56.097088, lon.=26.546785, Alt.=106.874084m. Speed=0.072000m/h.</desc>
<speed>0.020000</speed>
</trkpt>
<trkpt lat="56.097088" lon="26.546785">
<ele>106.872131</ele>
<time>2010-08-29T14:06:21Z</time>
<desc>lat.=56.097088, lon.=26.546785, Alt.=106.872131m. Speed=0.072000m/h.</desc>
<speed>0.020000</speed>
</trkpt>
<trkpt lat="56.097088" lon="26.546787">
<ele>106.872131</ele>
<time>2010-08-29T14:06:22Z</time>
<desc>lat.=56.097088, lon.=26.546787, Alt.=106.872131m. Speed=0.072000m/h.</desc>
<speed>0.020000</speed>
</trkpt>
<trkpt lat="56.097088" lon="26.546787">
<ele>106.870178</ele>
<time>2010-08-29T14:06:23Z</time>
<desc>lat.=56.097088, lon.=26.546787, Alt.=106.870178m. Speed=0.072000m/h.</desc>
<speed>0.020000</speed>
</trkpt>
<trkpt lat="56.097088" lon="26.546787">
<ele>106.868225</ele>
<time>2010-08-29T14:06:24Z</time>
<desc>lat.=56.097088, lon.=26.546787, Alt.=106.868225m. Speed=0.108000m/h.</desc>
<speed>0.030000</speed>
</trkpt>
<trkpt lat="56.097088" lon="26.546787">
<ele>106.868225</ele>
<time>2010-08-29T14:06:25Z</time>
<desc>lat.=56.097088, lon.=26.546787, Alt.=106.868225m. Speed=0.108000m/h.</desc>
<speed>0.030000</speed>
</trkpt>
<trkpt lat="56.097088" lon="26.546787">
<ele>106.868225</ele>
<time>2010-08-29T14:06:26Z</time>
<desc>lat.=56.097088, lon.=26.546787, Alt.=106.868225m. Speed=0.036000m/h.</desc>
<speed>0.010000</speed>
</trkpt>
<trkpt lat="56.097088" lon="26.546787">
<ele>106.868225</ele>
<time>2010-08-29T14:06:27Z</time>
<desc>lat.=56.097088, lon.=26.546787, Alt.=106.868225m. Speed=0.000000m/h.</desc>
<speed>0.000000</speed>
</trkpt>
<trkpt lat="56.097088" lon="26.546787">
<ele>106.868225</ele>
<time>2010-08-29T14:06:28Z</time>
<desc>lat.=56.097088, lon.=26.546787, Alt.=106.868225m. Speed=0.000000m/h.</desc>
<speed>0.000000</speed>
</trkpt>
<trkpt lat="56.097088" lon="26.546787">
<ele>106.868225</ele>
<time>2010-08-29T14:06:29Z</time>
<desc>lat.=56.097088, lon.=26.546787, Alt.=106.868225m. Speed=0.036000m/h.</desc>
<speed>0.010000</speed>
</trkpt>
<trkpt lat="56.097088" lon="26.546787">
<ele>106.868225</ele>
<time>2010-08-29T14:06:30Z</time>
<desc>lat.=56.097088, lon.=26.546787, Alt.=106.868225m. Speed=0.072000m/h.</desc>
<speed>0.020000</speed>
</trkpt>
<trkpt lat="56.097088" lon="26.546787">
<ele>106.866272</ele>
<time>2010-08-29T14:06:31Z</time>
<desc>lat.=56.097088, lon.=26.546787, Alt.=106.866272m. Speed=0.036000m/h.</desc>
<speed>0.010000</speed>
</trkpt>
<trkpt lat="56.097088" lon="26.546787">
<ele>106.864319</ele>
<time>2010-08-29T14:06:32Z</time>
<desc>lat.=56.097088, lon.=26.546787, Alt.=106.864319m. Speed=0.108000m/h.</desc>
<speed>0.030000</speed>
</trkpt>
<trkpt lat="56.097088" lon="26.546787">
<ele>106.860413</ele>
<time>2010-08-29T14:06:33Z</time>
<desc>lat.=56.097088, lon.=26.546787, Alt.=106.860413m. Speed=0.180000m/h.</desc>
<speed>0.050000</speed>
</trkpt>
<trkpt lat="56.097088" lon="26.546787">
<ele>106.858459</ele>
<time>2010-08-29T14:06:34Z</time>
<desc>lat.=56.097088, lon.=26.546787, Alt.=106.858459m. Speed=0.180000m/h.</desc>
<speed>0.050000</speed>
</trkpt>
<trkpt lat="56.097088" lon="26.546787">
<ele>106.856506</ele>
<time>2010-08-29T14:06:35Z</time>
<desc>lat.=56.097088, lon.=26.546787, Alt.=106.856506m. Speed=0.036000m/h.</desc>
<speed>0.010000</speed>
</trkpt>
<trkpt lat="56.097088" lon="26.546787">
<ele>106.854553</ele>
<time>2010-08-29T14:06:36Z</time>
<desc>lat.=56.097088, lon.=26.546787, Alt.=106.854553m. Speed=0.072000m/h.</desc>
<speed>0.020000</speed>
</trkpt>
<trkpt lat="56.097088" lon="26.546787">
<ele>106.852600</ele>
<time>2010-08-29T14:06:37Z</time>
<desc>lat.=56.097088, lon.=26.546787, Alt.=106.852600m. Speed=0.000000m/h.</desc>
<speed>0.000000</speed>
</trkpt>
<trkpt lat="56.097088" lon="26.546789">
<ele>106.850647</ele>
<time>2010-08-29T14:06:38Z</time>
<desc>lat.=56.097088, lon.=26.546789, Alt.=106.850647m. Speed=0.036000m/h.</desc>
<speed>0.010000</speed>
</trkpt>
<trkpt lat="56.097088" lon="26.546787">
<ele>106.848694</ele>
<time>2010-08-29T14:06:39Z</time>
<desc>lat.=56.097088, lon.=26.546787, Alt.=106.848694m. Speed=0.000000m/h.</desc>
<speed>0.000000</speed>
</trkpt>
<trkpt lat="56.097088" lon="26.546787">
<ele>106.848694</ele>
<time>2010-08-29T14:06:40Z</time>
<desc>lat.=56.097088, lon.=26.546787, Alt.=106.848694m. Speed=0.072000m/h.</desc>
<speed>0.020000</speed>
</trkpt>
<trkpt lat="56.097088" lon="26.546787">
<ele>106.848694</ele>
<time>2010-08-29T14:06:41Z</time>
<desc>lat.=56.097088, lon.=26.546787, Alt.=106.848694m. Speed=0.036000m/h.</desc>
<speed>0.010000</speed>
</trkpt>
<trkpt lat="56.097088" lon="26.546787">
<ele>106.848694</ele>
<time>2010-08-29T14:06:42Z</time>
<desc>lat.=56.097088, lon.=26.546787, Alt.=106.848694m. Speed=0.000000m/h.</desc>
<speed>0.000000</speed>
</trkpt>
<trkpt lat="56.097088" lon="26.546787">
<ele>106.846741</ele>
<time>2010-08-29T14:06:43Z</time>
<desc>lat.=56.097088, lon.=26.546787, Alt.=106.846741m. Speed=0.000000m/h.</desc>
<speed>0.000000</speed>
</trkpt>
<trkpt lat="56.097088" lon="26.546787">
<ele>106.846741</ele>
<time>2010-08-29T14:06:44Z</time>
<desc>lat.=56.097088, lon.=26.546787, Alt.=106.846741m. Speed=0.000000m/h.</desc>
<speed>0.000000</speed>
</trkpt>
<trkpt lat="56.097088" lon="26.546787">
<ele>106.846741</ele>
<time>2010-08-29T14:06:45Z</time>
<desc>lat.=56.097088, lon.=26.546787, Alt.=106.846741m. Speed=0.000000m/h.</desc>
<speed>0.000000</speed>
</trkpt>
<trkpt lat="56.097088" lon="26.546787">
<ele>106.848694</ele>
<time>2010-08-29T14:06:46Z</time>
<desc>lat.=56.097088, lon.=26.546787, Alt.=106.848694m. Speed=0.000000m/h.</desc>
<speed>0.000000</speed>
</trkpt>
<trkpt lat="56.097088" lon="26.546787">
<ele>106.848694</ele>
<time>2010-08-29T14:06:47Z</time>
<desc>lat.=56.097088, lon.=26.546787, Alt.=106.848694m. Speed=0.036000m/h.</desc>
<speed>0.010000</speed>
</trkpt>
<trkpt lat="56.097088" lon="26.546787">
<ele>106.848694</ele>
<time>2010-08-29T14:06:48Z</time>
<desc>lat.=56.097088, lon.=26.546787, Alt.=106.848694m. Speed=0.000000m/h.</desc>
<speed>0.000000</speed>
</trkpt>
<trkpt lat="56.097088" lon="26.546787">
<ele>106.846741</ele>
<time>2010-08-29T14:06:49Z</time>
<desc>lat.=56.097088, lon.=26.546787, Alt.=106.846741m. Speed=0.000000m/h.</desc>
<speed>0.000000</speed>
</trkpt>
<trkpt lat="56.097088" lon="26.546787">
<ele>106.848694</ele>
<time>2010-08-29T14:06:50Z</time>
<desc>lat.=56.097088, lon.=26.546787, Alt.=106.848694m. Speed=0.036000m/h.</desc>
<speed>0.010000</speed>
</trkpt>
<trkpt lat="56.097088" lon="26.546787">
<ele>106.848694</ele>
<time>2010-08-29T14:06:51Z</time>
<desc>lat.=56.097088, lon.=26.546787, Alt.=106.848694m. Speed=0.036000m/h.</desc>
<speed>0.010000</speed>
</trkpt>
<trkpt lat="56.097088" lon="26.546787">
<ele>106.848694</ele>
<time>2010-08-29T14:06:52Z</time>
<desc>lat.=56.097088, lon.=26.546787, Alt.=106.848694m. Speed=0.000000m/h.</desc>
<speed>0.000000</speed>
</trkpt>
<trkpt lat="56.097088" lon="26.546787">
<ele>106.848694</ele>
<time>2010-08-29T14:06:53Z</time>
<desc>lat.=56.097088, lon.=26.546787, Alt.=106.848694m. Speed=0.000000m/h.</desc>
<speed>0.000000</speed>
</trkpt>
<trkpt lat="56.097088" lon="26.546787">
<ele>106.848694</ele>
<time>2010-08-29T14:06:54Z</time>
<desc>lat.=56.097088, lon.=26.546787, Alt.=106.848694m. Speed=0.000000m/h.</desc>
<speed>0.000000</speed>
</trkpt>
<trkpt lat="56.097088" lon="26.546787">
<ele>106.848694</ele>
<time>2010-08-29T14:06:55Z</time>
<desc>lat.=56.097088, lon.=26.546787, Alt.=106.848694m. Speed=0.000000m/h.</desc>
<speed>0.000000</speed>
</trkpt>
<trkpt lat="56.097088" lon="26.546787">
<ele>106.848694</ele>
<time>2010-08-29T14:06:56Z</time>
<desc>lat.=56.097088, lon.=26.546787, Alt.=106.848694m. Speed=0.036000m/h.</desc>
<speed>0.010000</speed>
</trkpt>
<trkpt lat="56.097088" lon="26.546787">
<ele>106.848694</ele>
<time>2010-08-29T14:06:57Z</time>
<desc>lat.=56.097088, lon.=26.546787, Alt.=106.848694m. Speed=0.072000m/h.</desc>
<speed>0.020000</speed>
</trkpt>
<trkpt lat="56.097088" lon="26.546787">
<ele>106.848694</ele>
<time>2010-08-29T14:06:58Z</time>
<desc>lat.=56.097088, lon.=26.546787, Alt.=106.848694m. Speed=0.000000m/h.</desc>
<speed>0.000000</speed>
</trkpt>
<trkpt lat="56.097088" lon="26.546787">
<ele>106.848694</ele>
<time>2010-08-29T14:06:59Z</time>
<desc>lat.=56.097088, lon.=26.546787, Alt.=106.848694m. Speed=0.000000m/h.</desc>
<speed>0.000000</speed>
</trkpt>
<trkpt lat="56.097088" lon="26.546787">
<ele>106.848694</ele>
<time>2010-08-29T14:07:00Z</time>
<desc>lat.=56.097088, lon.=26.546787, Alt.=106.848694m. Speed=0.000000m/h.</desc>
<speed>0.000000</speed>
</trkpt>
<trkpt lat="56.097088" lon="26.546787">
<ele>106.846741</ele>
<time>2010-08-29T14:07:01Z</time>
<desc>lat.=56.097088, lon.=26.546787, Alt.=106.846741m. Speed=0.000000m/h.</desc>
<speed>0.000000</speed>
</trkpt>
<trkpt lat="56.097088" lon="26.546787">
<ele>106.846741</ele>
<time>2010-08-29T14:07:02Z</time>
<desc>lat.=56.097088, lon.=26.546787, Alt.=106.846741m. Speed=0.036000m/h.</desc>
<speed>0.010000</speed>
</trkpt>
<trkpt lat="56.097088" lon="26.546787">
<ele>106.844788</ele>
<time>2010-08-29T14:07:03Z</time>
<desc>lat.=56.097088, lon.=26.546787, Alt.=106.844788m. Speed=0.000000m/h.</desc>
<speed>0.000000</speed>
</trkpt>
<trkpt lat="56.097088" lon="26.546787">
<ele>106.844788</ele>
<time>2010-08-29T14:07:04Z</time>
<desc>lat.=56.097088, lon.=26.546787, Alt.=106.844788m. Speed=0.000000m/h.</desc>
<speed>0.000000</speed>
</trkpt>
<trkpt lat="56.097088" lon="26.546787">
<ele>106.842834</ele>
<time>2010-08-29T14:07:05Z</time>
<desc>lat.=56.097088, lon.=26.546787, Alt.=106.842834m. Speed=0.000000m/h.</desc>
<speed>0.000000</speed>
</trkpt>
<trkpt lat="56.097088" lon="26.546787">
<ele>106.842834</ele>
<time>2010-08-29T14:07:06Z</time>
<desc>lat.=56.097088, lon.=26.546787, Alt.=106.842834m. Speed=0.036000m/h.</desc>
<speed>0.010000</speed>
</trkpt>
<trkpt lat="56.097088" lon="26.546787">
<ele>106.840881</ele>
<time>2010-08-29T14:07:07Z</time>
<desc>lat.=56.097088, lon.=26.546787, Alt.=106.840881m. Speed=0.000000m/h.</desc>
<speed>0.000000</speed>
</trkpt>
<trkpt lat="56.097088" lon="26.546787">
<ele>106.838928</ele>
<time>2010-08-29T14:07:08Z</time>
<desc>lat.=56.097088, lon.=26.546787, Alt.=106.838928m. Speed=0.000000m/h.</desc>
<speed>0.000000</speed>
</trkpt>
<trkpt lat="56.097088" lon="26.546787">
<ele>106.836975</ele>
<time>2010-08-29T14:07:09Z</time>
<desc>lat.=56.097088, lon.=26.546787, Alt.=106.836975m. Speed=0.000000m/h.</desc>
<speed>0.000000</speed>
</trkpt>
<trkpt lat="56.097088" lon="26.546787">
<ele>106.835022</ele>
<time>2010-08-29T14:07:10Z</time>
<desc>lat.=56.097088, lon.=26.546787, Alt.=106.835022m. Speed=0.000000m/h.</desc>
<speed>0.000000</speed>
</trkpt>
<trkpt lat="56.097088" lon="26.546787">
<ele>106.833069</ele>
<time>2010-08-29T14:07:11Z</time>
<desc>lat.=56.097088, lon.=26.546787, Alt.=106.833069m. Speed=0.000000m/h.</desc>
<speed>0.000000</speed>
</trkpt>
<trkpt lat="56.097088" lon="26.546787">
<ele>106.831116</ele>
<time>2010-08-29T14:07:12Z</time>
<desc>lat.=56.097088, lon.=26.546787, Alt.=106.831116m. Speed=0.000000m/h.</desc>
<speed>0.000000</speed>
</trkpt>
<trkpt lat="56.097088" lon="26.546787">
<ele>106.831116</ele>
<time>2010-08-29T14:07:13Z</time>
<desc>lat.=56.097088, lon.=26.546787, Alt.=106.831116m. Speed=0.000000m/h.</desc>
<speed>0.000000</speed>
</trkpt>
<trkpt lat="56.097088" lon="26.546787">
<ele>106.829163</ele>
<time>2010-08-29T14:07:14Z</time>
<desc>lat.=56.097088, lon.=26.546787, Alt.=106.829163m. Speed=0.000000m/h.</desc>
<speed>0.000000</speed>
</trkpt>
<trkpt lat="56.097088" lon="26.546787">
<ele>106.829163</ele>
<time>2010-08-29T14:07:15Z</time>
<desc>lat.=56.097088, lon.=26.546787, Alt.=106.829163m. Speed=0.000000m/h.</desc>
<speed>0.000000</speed>
</trkpt>
<trkpt lat="56.097088" lon="26.546787">
<ele>106.827209</ele>
<time>2010-08-29T14:07:16Z</time>
<desc>lat.=56.097088, lon.=26.546787, Alt.=106.827209m. Speed=0.036000m/h.</desc>
<speed>0.010000</speed>
</trkpt>
<trkpt lat="56.097088" lon="26.546787">
<ele>106.823303</ele>
<time>2010-08-29T14:07:17Z</time>
<desc>lat.=56.097088, lon.=26.546787, Alt.=106.823303m. Speed=0.000000m/h.</desc>
<speed>0.000000</speed>
</trkpt>
<trkpt lat="56.097088" lon="26.546787">
<ele>106.823303</ele>
<time>2010-08-29T14:07:18Z</time>
<desc>lat.=56.097088, lon.=26.546787, Alt.=106.823303m. Speed=0.000000m/h.</desc>
<speed>0.000000</speed>
</trkpt>
<trkpt lat="56.097088" lon="26.546787">
<ele>106.821350</ele>
<time>2010-08-29T14:07:19Z</time>
<desc>lat.=56.097088, lon.=26.546787, Alt.=106.821350m. Speed=0.000000m/h.</desc>
<speed>0.000000</speed>
</trkpt>
<trkpt lat="56.097088" lon="26.546787">
<ele>106.821350</ele>
<time>2010-08-29T14:07:20Z</time>
<desc>lat.=56.097088, lon.=26.546787, Alt.=106.821350m. Speed=0.000000m/h.</desc>
<speed>0.000000</speed>
</trkpt>
<trkpt lat="56.097088" lon="26.546787">
<ele>106.819397</ele>
<time>2010-08-29T14:07:21Z</time>
<desc>lat.=56.097088, lon.=26.546787, Alt.=106.819397m. Speed=0.000000m/h.</desc>
<speed>0.000000</speed>
</trkpt>
<trkpt lat="56.097088" lon="26.546787">
<ele>106.819397</ele>
<time>2010-08-29T14:07:22Z</time>
<desc>lat.=56.097088, lon.=26.546787, Alt.=106.819397m. Speed=0.036000m/h.</desc>
<speed>0.010000</speed>
</trkpt>
<trkpt lat="56.097088" lon="26.546787">
<ele>106.817444</ele>
<time>2010-08-29T14:07:23Z</time>
<desc>lat.=56.097088, lon.=26.546787, Alt.=106.817444m. Speed=0.036000m/h.</desc>
<speed>0.010000</speed>
</trkpt>
<trkpt lat="56.097088" lon="26.546787">
<ele>106.819397</ele>
<time>2010-08-29T14:07:24Z</time>
<desc>lat.=56.097088, lon.=26.546787, Alt.=106.819397m. Speed=0.000000m/h.</desc>
<speed>0.000000</speed>
</trkpt>
<trkpt lat="56.097088" lon="26.546787">
<ele>106.821350</ele>
<time>2010-08-29T14:07:25Z</time>
<desc>lat.=56.097088, lon.=26.546787, Alt.=106.821350m. Speed=0.036000m/h.</desc>
<speed>0.010000</speed>
</trkpt>
<trkpt lat="56.097088" lon="26.546787">
<ele>106.821350</ele>
<time>2010-08-29T14:07:26Z</time>
<desc>lat.=56.097088, lon.=26.546787, Alt.=106.821350m. Speed=0.036000m/h.</desc>
<speed>0.010000</speed>
</trkpt>
<trkpt lat="56.097088" lon="26.546787">
<ele>106.821350</ele>
<time>2010-08-29T14:07:27Z</time>
<desc>lat.=56.097088, lon.=26.546787, Alt.=106.821350m. Speed=0.000000m/h.</desc>
<speed>0.000000</speed>
</trkpt>
<trkpt lat="56.097088" lon="26.546787">
<ele>106.823303</ele>
<time>2010-08-29T14:07:28Z</time>
<desc>lat.=56.097088, lon.=26.546787, Alt.=106.823303m. Speed=0.000000m/h.</desc>
<speed>0.000000</speed>
</trkpt>
<trkpt lat="56.097088" lon="26.546787">
<ele>106.823303</ele>
<time>2010-08-29T14:07:29Z</time>
<desc>lat.=56.097088, lon.=26.546787, Alt.=106.823303m. Speed=0.036000m/h.</desc>
<speed>0.010000</speed>
</trkpt>
<trkpt lat="56.097088" lon="26.546787">
<ele>106.825256</ele>
<time>2010-08-29T14:07:30Z</time>
<desc>lat.=56.097088, lon.=26.546787, Alt.=106.825256m. Speed=0.000000m/h.</desc>
<speed>0.000000</speed>
</trkpt>
<trkpt lat="56.097088" lon="26.546787">
<ele>106.825256</ele>
<time>2010-08-29T14:07:31Z</time>
<desc>lat.=56.097088, lon.=26.546787, Alt.=106.825256m. Speed=0.000000m/h.</desc>
<speed>0.000000</speed>
</trkpt>
<trkpt lat="56.097088" lon="26.546787">
<ele>106.829163</ele>
<time>2010-08-29T14:07:32Z</time>
<desc>lat.=56.097088, lon.=26.546787, Alt.=106.829163m. Speed=0.144000m/h.</desc>
<speed>0.040000</speed>
</trkpt>
<trkpt lat="56.097088" lon="26.546787">
<ele>106.827209</ele>
<time>2010-08-29T14:07:33Z</time>
<desc>lat.=56.097088, lon.=26.546787, Alt.=106.827209m. Speed=0.036000m/h.</desc>
<speed>0.010000</speed>
</trkpt>
<trkpt lat="56.097088" lon="26.546787">
<ele>106.823303</ele>
<time>2010-08-29T14:07:34Z</time>
<desc>lat.=56.097088, lon.=26.546787, Alt.=106.823303m. Speed=0.000000m/h.</desc>
<speed>0.000000</speed>
</trkpt>
<trkpt lat="56.097088" lon="26.546787">
<ele>106.823303</ele>
<time>2010-08-29T14:07:35Z</time>
<desc>lat.=56.097088, lon.=26.546787, Alt.=106.823303m. Speed=0.072000m/h.</desc>
<speed>0.020000</speed>
</trkpt>
<trkpt lat="56.097084" lon="26.546787">
<ele>106.819397</ele>
<time>2010-08-29T14:07:36Z</time>
<desc>lat.=56.097084, lon.=26.546787, Alt.=106.819397m. Speed=0.000000m/h.</desc>
<speed>0.000000</speed>
</trkpt>
<trkpt lat="56.097084" lon="26.546787">
<ele>106.821350</ele>
<time>2010-08-29T14:07:37Z</time>
<desc>lat.=56.097084, lon.=26.546787, Alt.=106.821350m. Speed=0.036000m/h.</desc>
<speed>0.010000</speed>
</trkpt>
<trkpt lat="56.097084" lon="26.546787">
<ele>106.817444</ele>
<time>2010-08-29T14:07:38Z</time>
<desc>lat.=56.097084, lon.=26.546787, Alt.=106.817444m. Speed=0.000000m/h.</desc>
<speed>0.000000</speed>
</trkpt>
<trkpt lat="56.097084" lon="26.546787">
<ele>106.815491</ele>
<time>2010-08-29T14:07:39Z</time>
<desc>lat.=56.097084, lon.=26.546787, Alt.=106.815491m. Speed=0.036000m/h.</desc>
<speed>0.010000</speed>
</trkpt>
<trkpt lat="56.097084" lon="26.546789">
<ele>106.815491</ele>
<time>2010-08-29T14:07:40Z</time>
<desc>lat.=56.097084, lon.=26.546789, Alt.=106.815491m. Speed=0.036000m/h.</desc>
<speed>0.010000</speed>
</trkpt>
<trkpt lat="56.097084" lon="26.546787">
<ele>106.815491</ele>
<time>2010-08-29T14:07:41Z</time>
<desc>lat.=56.097084, lon.=26.546787, Alt.=106.815491m. Speed=0.000000m/h.</desc>
<speed>0.000000</speed>
</trkpt>
<trkpt lat="56.097084" lon="26.546787">
<ele>106.811584</ele>
<time>2010-08-29T14:07:42Z</time>
<desc>lat.=56.097084, lon.=26.546787, Alt.=106.811584m. Speed=0.036000m/h.</desc>
<speed>0.010000</speed>
</trkpt>
<trkpt lat="56.097084" lon="26.546787">
<ele>106.809631</ele>
<time>2010-08-29T14:07:43Z</time>
<desc>lat.=56.097084, lon.=26.546787, Alt.=106.809631m. Speed=0.000000m/h.</desc>
<speed>0.000000</speed>
</trkpt>
<trkpt lat="56.097084" lon="26.546787">
<ele>106.807678</ele>
<time>2010-08-29T14:07:44Z</time>
<desc>lat.=56.097084, lon.=26.546787, Alt.=106.807678m. Speed=0.000000m/h.</desc>
<speed>0.000000</speed>
</trkpt>
<trkpt lat="56.097084" lon="26.546787">
<ele>106.805725</ele>
<time>2010-08-29T14:07:45Z</time>
<desc>lat.=56.097084, lon.=26.546787, Alt.=106.805725m. Speed=0.036000m/h.</desc>
<speed>0.010000</speed>
</trkpt>
<trkpt lat="56.097084" lon="26.546789">
<ele>106.803772</ele>
<time>2010-08-29T14:07:46Z</time>
<desc>lat.=56.097084, lon.=26.546789, Alt.=106.803772m. Speed=0.036000m/h.</desc>
<speed>0.010000</speed>
</trkpt>
<trkpt lat="56.097084" lon="26.546789">
<ele>106.801819</ele>
<time>2010-08-29T14:07:47Z</time>
<desc>lat.=56.097084, lon.=26.546789, Alt.=106.801819m. Speed=0.000000m/h.</desc>
<speed>0.000000</speed>
</trkpt>
<trkpt lat="56.097084" lon="26.546789">
<ele>106.801819</ele>
<time>2010-08-29T14:07:48Z</time>
<desc>lat.=56.097084, lon.=26.546789, Alt.=106.801819m. Speed=0.000000m/h.</desc>
<speed>0.000000</speed>
</trkpt>
<trkpt lat="56.097084" lon="26.546789">
<ele>106.799866</ele>
<time>2010-08-29T14:07:49Z</time>
<desc>lat.=56.097084, lon.=26.546789, Alt.=106.799866m. Speed=0.000000m/h.</desc>
<speed>0.000000</speed>
</trkpt>
<trkpt lat="56.097084" lon="26.546789">
<ele>106.799866</ele>
<time>2010-08-29T14:07:50Z</time>
<desc>lat.=56.097084, lon.=26.546789, Alt.=106.799866m. Speed=0.000000m/h.</desc>
<speed>0.000000</speed>
</trkpt>
<trkpt lat="56.097084" lon="26.546789">
<ele>106.799866</ele>
<time>2010-08-29T14:07:51Z</time>
<desc>lat.=56.097084, lon.=26.546789, Alt.=106.799866m. Speed=0.000000m/h.</desc>
<speed>0.000000</speed>
</trkpt>
<trkpt lat="56.097084" lon="26.546789">
<ele>106.797913</ele>
<time>2010-08-29T14:07:52Z</time>
<desc>lat.=56.097084, lon.=26.546789, Alt.=106.797913m. Speed=0.000000m/h.</desc>
<speed>0.000000</speed>
</trkpt>
<trkpt lat="56.097084" lon="26.546787">
<ele>106.797913</ele>
<time>2010-08-29T14:07:53Z</time>
<desc>lat.=56.097084, lon.=26.546787, Alt.=106.797913m. Speed=0.036000m/h.</desc>
<speed>0.010000</speed>
</trkpt>
<trkpt lat="56.097084" lon="26.546789">
<ele>106.795959</ele>
<time>2010-08-29T14:07:54Z</time>
<desc>lat.=56.097084, lon.=26.546789, Alt.=106.795959m. Speed=0.000000m/h.</desc>
<speed>0.000000</speed>
</trkpt>
<trkpt lat="56.097084" lon="26.546787">
<ele>106.795959</ele>
<time>2010-08-29T14:07:55Z</time>
<desc>lat.=56.097084, lon.=26.546787, Alt.=106.795959m. Speed=0.000000m/h.</desc>
<speed>0.000000</speed>
</trkpt>
<trkpt lat="56.097084" lon="26.546787">
<ele>106.797913</ele>
<time>2010-08-29T14:07:56Z</time>
<desc>lat.=56.097084, lon.=26.546787, Alt.=106.797913m. Speed=0.000000m/h.</desc>
<speed>0.000000</speed>
</trkpt>
<trkpt lat="56.097084" lon="26.546787">
<ele>106.797913</ele>
<time>2010-08-29T14:07:57Z</time>
<desc>lat.=56.097084, lon.=26.546787, Alt.=106.797913m. Speed=0.000000m/h.</desc>
<speed>0.000000</speed>
</trkpt>
<trkpt lat="56.097084" lon="26.546787">
<ele>106.799866</ele>
<time>2010-08-29T14:07:58Z</time>
<desc>lat.=56.097084, lon.=26.546787, Alt.=106.799866m. Speed=0.036000m/h.</desc>
<speed>0.010000</speed>
</trkpt>
<trkpt lat="56.097084" lon="26.546787">
<ele>106.801819</ele>
<time>2010-08-29T14:07:59Z</time>
<desc>lat.=56.097084, lon.=26.546787, Alt.=106.801819m. Speed=0.000000m/h.</desc>
<speed>0.000000</speed>
</trkpt>
<trkpt lat="56.097084" lon="26.546787">
<ele>106.795959</ele>
<time>2010-08-29T14:08:00Z</time>
<desc>lat.=56.097084, lon.=26.546787, Alt.=106.795959m. Speed=0.036000m/h.</desc>
<speed>0.010000</speed>
</trkpt>
<trkpt lat="56.097084" lon="26.546787">
<ele>106.795959</ele>
<time>2010-08-29T14:08:01Z</time>
<desc>lat.=56.097084, lon.=26.546787, Alt.=106.795959m. Speed=0.000000m/h.</desc>
<speed>0.000000</speed>
</trkpt>
<trkpt lat="56.097084" lon="26.546787">
<ele>106.795959</ele>
<time>2010-08-29T14:08:02Z</time>
<desc>lat.=56.097084, lon.=26.546787, Alt.=106.795959m. Speed=0.000000m/h.</desc>
<speed>0.000000</speed>
</trkpt>
<trkpt lat="56.097084" lon="26.546787">
<ele>106.795959</ele>
<time>2010-08-29T14:08:03Z</time>
<desc>lat.=56.097084, lon.=26.546787, Alt.=106.795959m. Speed=0.000000m/h.</desc>
<speed>0.000000</speed>
</trkpt>
<trkpt lat="56.097084" lon="26.546787">
<ele>106.797913</ele>
<time>2010-08-29T14:08:04Z</time>
<desc>lat.=56.097084, lon.=26.546787, Alt.=106.797913m. Speed=0.036000m/h.</desc>
<speed>0.010000</speed>
</trkpt>
<trkpt lat="56.097084" lon="26.546787">
<ele>106.799866</ele>
<time>2010-08-29T14:08:05Z</time>
<desc>lat.=56.097084, lon.=26.546787, Alt.=106.799866m. Speed=0.000000m/h.</desc>
<speed>0.000000</speed>
</trkpt>
<trkpt lat="56.097084" lon="26.546787">
<ele>106.801819</ele>
<time>2010-08-29T14:08:06Z</time>
<desc>lat.=56.097084, lon.=26.546787, Alt.=106.801819m. Speed=0.000000m/h.</desc>
<speed>0.000000</speed>
</trkpt>
<trkpt lat="56.097084" lon="26.546787">
<ele>106.801819</ele>
<time>2010-08-29T14:08:07Z</time>
<desc>lat.=56.097084, lon.=26.546787, Alt.=106.801819m. Speed=0.000000m/h.</desc>
<speed>0.000000</speed>
</trkpt>
<trkpt lat="56.097084" lon="26.546787">
<ele>106.803772</ele>
<time>2010-08-29T14:08:08Z</time>
<desc>lat.=56.097084, lon.=26.546787, Alt.=106.803772m. Speed=0.036000m/h.</desc>
<speed>0.010000</speed>
</trkpt>
<trkpt lat="56.097084" lon="26.546787">
<ele>106.803772</ele>
<time>2010-08-29T14:08:09Z</time>
<desc>lat.=56.097084, lon.=26.546787, Alt.=106.803772m. Speed=0.000000m/h.</desc>
<speed>0.000000</speed>
</trkpt>
<trkpt lat="56.097084" lon="26.546787">
<ele>106.805725</ele>
<time>2010-08-29T14:08:10Z</time>
<desc>lat.=56.097084, lon.=26.546787, Alt.=106.805725m. Speed=0.000000m/h.</desc>
<speed>0.000000</speed>
</trkpt>
<trkpt lat="56.097084" lon="26.546787">
<ele>106.807678</ele>
<time>2010-08-29T14:08:11Z</time>
<desc>lat.=56.097084, lon.=26.546787, Alt.=106.807678m. Speed=0.000000m/h.</desc>
<speed>0.000000</speed>
</trkpt>
<trkpt lat="56.097084" lon="26.546787">
<ele>106.807678</ele>
<time>2010-08-29T14:08:12Z</time>
<desc>lat.=56.097084, lon.=26.546787, Alt.=106.807678m. Speed=0.000000m/h.</desc>
<speed>0.000000</speed>
</trkpt>
<trkpt lat="56.097084" lon="26.546787">
<ele>106.809631</ele>
<time>2010-08-29T14:08:13Z</time>
<desc>lat.=56.097084, lon.=26.546787, Alt.=106.809631m. Speed=0.000000m/h.</desc>
<speed>0.000000</speed>
</trkpt>
<trkpt lat="56.097084" lon="26.546787">
<ele>106.811584</ele>
<time>2010-08-29T14:08:14Z</time>
<desc>lat.=56.097084, lon.=26.546787, Alt.=106.811584m. Speed=0.036000m/h.</desc>
<speed>0.010000</speed>
</trkpt>
<trkpt lat="56.097084" lon="26.546787">
<ele>106.811584</ele>
<time>2010-08-29T14:08:15Z</time>
<desc>lat.=56.097084, lon.=26.546787, Alt.=106.811584m. Speed=0.000000m/h.</desc>
<speed>0.000000</speed>
</trkpt>
<trkpt lat="56.097084" lon="26.546787">
<ele>106.813538</ele>
<time>2010-08-29T14:08:16Z</time>
<desc>lat.=56.097084, lon.=26.546787, Alt.=106.813538m. Speed=0.000000m/h.</desc>
<speed>0.000000</speed>
</trkpt>
<trkpt lat="56.097084" lon="26.546787">
<ele>106.815491</ele>
<time>2010-08-29T14:08:17Z</time>
<desc>lat.=56.097084, lon.=26.546787, Alt.=106.815491m. Speed=0.036000m/h.</desc>
<speed>0.010000</speed>
</trkpt>
<trkpt lat="56.097084" lon="26.546787">
<ele>106.815491</ele>
<time>2010-08-29T14:08:18Z</time>
<desc>lat.=56.097084, lon.=26.546787, Alt.=106.815491m. Speed=0.000000m/h.</desc>
<speed>0.000000</speed>
</trkpt>
<trkpt lat="56.097084" lon="26.546787">
<ele>106.817444</ele>
<time>2010-08-29T14:08:19Z</time>
<desc>lat.=56.097084, lon.=26.546787, Alt.=106.817444m. Speed=0.036000m/h.</desc>
<speed>0.010000</speed>
</trkpt>
<trkpt lat="56.097084" lon="26.546787">
<ele>106.819397</ele>
<time>2010-08-29T14:08:20Z</time>
<desc>lat.=56.097084, lon.=26.546787, Alt.=106.819397m. Speed=0.036000m/h.</desc>
<speed>0.010000</speed>
</trkpt>
<trkpt lat="56.097084" lon="26.546787">
<ele>106.821350</ele>
<time>2010-08-29T14:08:21Z</time>
<desc>lat.=56.097084, lon.=26.546787, Alt.=106.821350m. Speed=0.000000m/h.</desc>
<speed>0.000000</speed>
</trkpt>
<trkpt lat="56.097084" lon="26.546787">
<ele>106.821350</ele>
<time>2010-08-29T14:08:22Z</time>
<desc>lat.=56.097084, lon.=26.546787, Alt.=106.821350m. Speed=0.000000m/h.</desc>
<speed>0.000000</speed>
</trkpt>
<trkpt lat="56.097084" lon="26.546787">
<ele>106.823303</ele>
<time>2010-08-29T14:08:23Z</time>
<desc>lat.=56.097084, lon.=26.546787, Alt.=106.823303m. Speed=0.000000m/h.</desc>
<speed>0.000000</speed>
</trkpt>
<trkpt lat="56.097084" lon="26.546787">
<ele>106.825256</ele>
<time>2010-08-29T14:08:24Z</time>
<desc>lat.=56.097084, lon.=26.546787, Alt.=106.825256m. Speed=0.000000m/h.</desc>
<speed>0.000000</speed>
</trkpt>
<trkpt lat="56.097084" lon="26.546787">
<ele>106.827209</ele>
<time>2010-08-29T14:08:25Z</time>
<desc>lat.=56.097084, lon.=26.546787, Alt.=106.827209m. Speed=0.000000m/h.</desc>
<speed>0.000000</speed>
</trkpt>
<trkpt lat="56.097084" lon="26.546787">
<ele>106.829163</ele>
<time>2010-08-29T14:08:26Z</time>
<desc>lat.=56.097084, lon.=26.546787, Alt.=106.829163m. Speed=0.036000m/h.</desc>
<speed>0.010000</speed>
</trkpt>
<trkpt lat="56.097084" lon="26.546787">
<ele>106.831116</ele>
<time>2010-08-29T14:08:27Z</time>
<desc>lat.=56.097084, lon.=26.546787, Alt.=106.831116m. Speed=0.000000m/h.</desc>
<speed>0.000000</speed>
</trkpt>
<trkpt lat="56.097084" lon="26.546787">
<ele>106.833069</ele>
<time>2010-08-29T14:08:28Z</time>
<desc>lat.=56.097084, lon.=26.546787, Alt.=106.833069m. Speed=0.000000m/h.</desc>
<speed>0.000000</speed>
</trkpt>
<trkpt lat="56.097084" lon="26.546787">
<ele>106.835022</ele>
<time>2010-08-29T14:08:29Z</time>
<desc>lat.=56.097084, lon.=26.546787, Alt.=106.835022m. Speed=0.000000m/h.</desc>
<speed>0.000000</speed>
</trkpt>
<trkpt lat="56.097084" lon="26.546787">
<ele>106.835022</ele>
<time>2010-08-29T14:08:30Z</time>
<desc>lat.=56.097084, lon.=26.546787, Alt.=106.835022m. Speed=0.000000m/h.</desc>
<speed>0.000000</speed>
</trkpt>
<trkpt lat="56.097084" lon="26.546787">
<ele>106.838928</ele>
<time>2010-08-29T14:08:31Z</time>
<desc>lat.=56.097084, lon.=26.546787, Alt.=106.838928m. Speed=0.000000m/h.</desc>
<speed>0.000000</speed>
</trkpt>
<trkpt lat="56.097084" lon="26.546787">
<ele>106.840881</ele>
<time>2010-08-29T14:08:32Z</time>
<desc>lat.=56.097084, lon.=26.546787, Alt.=106.840881m. Speed=0.000000m/h.</desc>
<speed>0.000000</speed>
</trkpt>
<trkpt lat="56.097084" lon="26.546787">
<ele>106.840881</ele>
<time>2010-08-29T14:08:33Z</time>
<desc>lat.=56.097084, lon.=26.546787, Alt.=106.840881m. Speed=0.036000m/h.</desc>
<speed>0.010000</speed>
</trkpt>
<trkpt lat="56.097084" lon="26.546787">
<ele>106.840881</ele>
<time>2010-08-29T14:08:34Z</time>
<desc>lat.=56.097084, lon.=26.546787, Alt.=106.840881m. Speed=0.000000m/h.</desc>
<speed>0.000000</speed>
</trkpt>
<trkpt lat="56.097084" lon="26.546787">
<ele>106.840881</ele>
<time>2010-08-29T14:08:35Z</time>
<desc>lat.=56.097084, lon.=26.546787, Alt.=106.840881m. Speed=0.036000m/h.</desc>
<speed>0.010000</speed>
</trkpt>
<trkpt lat="56.097084" lon="26.546787">
<ele>106.840881</ele>
<time>2010-08-29T14:08:36Z</time>
<desc>lat.=56.097084, lon.=26.546787, Alt.=106.840881m. Speed=0.036000m/h.</desc>
<speed>0.010000</speed>
</trkpt>
<trkpt lat="56.097084" lon="26.546787">
<ele>106.842834</ele>
<time>2010-08-29T14:08:37Z</time>
<desc>lat.=56.097084, lon.=26.546787, Alt.=106.842834m. Speed=0.072000m/h.</desc>
<speed>0.020000</speed>
</trkpt>
<trkpt lat="56.097084" lon="26.546787">
<ele>106.842834</ele>
<time>2010-08-29T14:08:38Z</time>
<desc>lat.=56.097084, lon.=26.546787, Alt.=106.842834m. Speed=0.036000m/h.</desc>
<speed>0.010000</speed>
</trkpt>
<trkpt lat="56.097084" lon="26.546787">
<ele>106.842834</ele>
<time>2010-08-29T14:08:39Z</time>
<desc>lat.=56.097084, lon.=26.546787, Alt.=106.842834m. Speed=0.000000m/h.</desc>
<speed>0.000000</speed>
</trkpt>
<trkpt lat="56.097084" lon="26.546787">
<ele>106.842834</ele>
<time>2010-08-29T14:08:40Z</time>
<desc>lat.=56.097084, lon.=26.546787, Alt.=106.842834m. Speed=0.036000m/h.</desc>
<speed>0.010000</speed>
</trkpt>
<trkpt lat="56.097084" lon="26.546787">
<ele>106.842834</ele>
<time>2010-08-29T14:08:41Z</time>
<desc>lat.=56.097084, lon.=26.546787, Alt.=106.842834m. Speed=0.036000m/h.</desc>
<speed>0.010000</speed>
</trkpt>
<trkpt lat="56.097084" lon="26.546787">
<ele>106.842834</ele>
<time>2010-08-29T14:08:42Z</time>
<desc>lat.=56.097084, lon.=26.546787, Alt.=106.842834m. Speed=0.072000m/h.</desc>
<speed>0.020000</speed>
</trkpt>
<trkpt lat="56.097084" lon="26.546787">
<ele>106.842834</ele>
<time>2010-08-29T14:08:43Z</time>
<desc>lat.=56.097084, lon.=26.546787, Alt.=106.842834m. Speed=0.000000m/h.</desc>
<speed>0.000000</speed>
</trkpt>
<trkpt lat="56.097084" lon="26.546787">
<ele>106.840881</ele>
<time>2010-08-29T14:08:44Z</time>
<desc>lat.=56.097084, lon.=26.546787, Alt.=106.840881m. Speed=0.000000m/h.</desc>
<speed>0.000000</speed>
</trkpt>
<trkpt lat="56.097084" lon="26.546787">
<ele>106.838928</ele>
<time>2010-08-29T14:08:45Z</time>
<desc>lat.=56.097084, lon.=26.546787, Alt.=106.838928m. Speed=0.036000m/h.</desc>
<speed>0.010000</speed>
</trkpt>
<trkpt lat="56.097084" lon="26.546787">
<ele>106.838928</ele>
<time>2010-08-29T14:08:46Z</time>
<desc>lat.=56.097084, lon.=26.546787, Alt.=106.838928m. Speed=0.072000m/h.</desc>
<speed>0.020000</speed>
</trkpt>
<trkpt lat="56.097084" lon="26.546787">
<ele>106.838928</ele>
<time>2010-08-29T14:08:47Z</time>
<desc>lat.=56.097084, lon.=26.546787, Alt.=106.838928m. Speed=0.036000m/h.</desc>
<speed>0.010000</speed>
</trkpt>
<trkpt lat="56.097084" lon="26.546787">
<ele>106.836975</ele>
<time>2010-08-29T14:08:48Z</time>
<desc>lat.=56.097084, lon.=26.546787, Alt.=106.836975m. Speed=0.000000m/h.</desc>
<speed>0.000000</speed>
</trkpt>
<trkpt lat="56.097084" lon="26.546787">
<ele>106.836975</ele>
<time>2010-08-29T14:08:49Z</time>
<desc>lat.=56.097084, lon.=26.546787, Alt.=106.836975m. Speed=0.000000m/h.</desc>
<speed>0.000000</speed>
</trkpt>
<trkpt lat="56.097084" lon="26.546787">
<ele>106.835022</ele>
<time>2010-08-29T14:08:50Z</time>
<desc>lat.=56.097084, lon.=26.546787, Alt.=106.835022m. Speed=0.000000m/h.</desc>
<speed>0.000000</speed>
</trkpt>
<trkpt lat="56.097084" lon="26.546787">
<ele>106.835022</ele>
<time>2010-08-29T14:08:51Z</time>
<desc>lat.=56.097084, lon.=26.546787, Alt.=106.835022m. Speed=0.036000m/h.</desc>
<speed>0.010000</speed>
</trkpt>
<trkpt lat="56.097084" lon="26.546787">
<ele>106.833069</ele>
<time>2010-08-29T14:08:52Z</time>
<desc>lat.=56.097084, lon.=26.546787, Alt.=106.833069m. Speed=0.072000m/h.</desc>
<speed>0.020000</speed>
</trkpt>
<trkpt lat="56.097084" lon="26.546787">
<ele>106.829163</ele>
<time>2010-08-29T14:08:53Z</time>
<desc>lat.=56.097084, lon.=26.546787, Alt.=106.829163m. Speed=0.072000m/h.</desc>
<speed>0.020000</speed>
</trkpt>
<trkpt lat="56.097084" lon="26.546787">
<ele>106.827209</ele>
<time>2010-08-29T14:08:54Z</time>
<desc>lat.=56.097084, lon.=26.546787, Alt.=106.827209m. Speed=0.036000m/h.</desc>
<speed>0.010000</speed>
</trkpt>
<trkpt lat="56.097084" lon="26.546789">
<ele>106.823303</ele>
<time>2010-08-29T14:08:55Z</time>
<desc>lat.=56.097084, lon.=26.546789, Alt.=106.823303m. Speed=0.072000m/h.</desc>
<speed>0.020000</speed>
</trkpt>
<trkpt lat="56.097084" lon="26.546789">
<ele>106.821350</ele>
<time>2010-08-29T14:08:56Z</time>
<desc>lat.=56.097084, lon.=26.546789, Alt.=106.821350m. Speed=0.072000m/h.</desc>
<speed>0.020000</speed>
</trkpt>
<trkpt lat="56.097084" lon="26.546789">
<ele>106.817444</ele>
<time>2010-08-29T14:08:57Z</time>
<desc>lat.=56.097084, lon.=26.546789, Alt.=106.817444m. Speed=0.144000m/h.</desc>
<speed>0.040000</speed>
</trkpt>
<trkpt lat="56.097084" lon="26.546789">
<ele>106.815491</ele>
<time>2010-08-29T14:08:58Z</time>
<desc>lat.=56.097084, lon.=26.546789, Alt.=106.815491m. Speed=0.108000m/h.</desc>
<speed>0.030000</speed>
</trkpt>
<trkpt lat="56.097084" lon="26.546789">
<ele>106.811584</ele>
<time>2010-08-29T14:08:59Z</time>
<desc>lat.=56.097084, lon.=26.546789, Alt.=106.811584m. Speed=0.072000m/h.</desc>
<speed>0.020000</speed>
</trkpt>
<trkpt lat="56.097084" lon="26.546789">
<ele>106.811584</ele>
<time>2010-08-29T14:09:00Z</time>
<desc>lat.=56.097084, lon.=26.546789, Alt.=106.811584m. Speed=0.036000m/h.</desc>
<speed>0.010000</speed>
</trkpt>
<trkpt lat="56.097084" lon="26.546789">
<ele>106.811584</ele>
<time>2010-08-29T14:09:01Z</time>
<desc>lat.=56.097084, lon.=26.546789, Alt.=106.811584m. Speed=0.000000m/h.</desc>
<speed>0.000000</speed>
</trkpt>
<trkpt lat="56.097084" lon="26.546789">
<ele>106.811584</ele>
<time>2010-08-29T14:09:02Z</time>
<desc>lat.=56.097084, lon.=26.546789, Alt.=106.811584m. Speed=0.036000m/h.</desc>
<speed>0.010000</speed>
</trkpt>
<trkpt lat="56.097084" lon="26.546789">
<ele>106.809631</ele>
<time>2010-08-29T14:09:03Z</time>
<desc>lat.=56.097084, lon.=26.546789, Alt.=106.809631m. Speed=0.108000m/h.</desc>
<speed>0.030000</speed>
</trkpt>
<trkpt lat="56.097084" lon="26.546789">
<ele>106.807678</ele>
<time>2010-08-29T14:09:04Z</time>
<desc>lat.=56.097084, lon.=26.546789, Alt.=106.807678m. Speed=0.072000m/h.</desc>
<speed>0.020000</speed>
</trkpt>
<trkpt lat="56.097084" lon="26.546789">
<ele>106.809631</ele>
<time>2010-08-29T14:09:05Z</time>
<desc>lat.=56.097084, lon.=26.546789, Alt.=106.809631m. Speed=0.000000m/h.</desc>
<speed>0.000000</speed>
</trkpt>
<trkpt lat="56.097084" lon="26.546789">
<ele>106.809631</ele>
<time>2010-08-29T14:09:06Z</time>
<desc>lat.=56.097084, lon.=26.546789, Alt.=106.809631m. Speed=0.036000m/h.</desc>
<speed>0.010000</speed>
</trkpt>
<trkpt lat="56.097084" lon="26.546789">
<ele>106.809631</ele>
<time>2010-08-29T14:09:07Z</time>
<desc>lat.=56.097084, lon.=26.546789, Alt.=106.809631m. Speed=0.072000m/h.</desc>
<speed>0.020000</speed>
</trkpt>
<trkpt lat="56.097084" lon="26.546789">
<ele>106.807678</ele>
<time>2010-08-29T14:09:08Z</time>
<desc>lat.=56.097084, lon.=26.546789, Alt.=106.807678m. Speed=0.144000m/h.</desc>
<speed>0.040000</speed>
</trkpt>
<trkpt lat="56.097084" lon="26.546789">
<ele>106.809631</ele>
<time>2010-08-29T14:09:09Z</time>
<desc>lat.=56.097084, lon.=26.546789, Alt.=106.809631m. Speed=0.000000m/h.</desc>
<speed>0.000000</speed>
</trkpt>
<trkpt lat="56.097084" lon="26.546791">
<ele>106.807678</ele>
<time>2010-08-29T14:09:10Z</time>
<desc>lat.=56.097084, lon.=26.546791, Alt.=106.807678m. Speed=0.108000m/h.</desc>
<speed>0.030000</speed>
</trkpt>
<trkpt lat="56.097084" lon="26.546791">
<ele>106.807678</ele>
<time>2010-08-29T14:09:11Z</time>
<desc>lat.=56.097084, lon.=26.546791, Alt.=106.807678m. Speed=0.000000m/h.</desc>
<speed>0.000000</speed>
</trkpt>
<trkpt lat="56.097084" lon="26.546791">
<ele>106.809631</ele>
<time>2010-08-29T14:09:12Z</time>
<desc>lat.=56.097084, lon.=26.546791, Alt.=106.809631m. Speed=0.000000m/h.</desc>
<speed>0.000000</speed>
</trkpt>
<trkpt lat="56.097084" lon="26.546791">
<ele>106.809631</ele>
<time>2010-08-29T14:09:13Z</time>
<desc>lat.=56.097084, lon.=26.546791, Alt.=106.809631m. Speed=0.000000m/h.</desc>
<speed>0.000000</speed>
</trkpt>
<trkpt lat="56.097084" lon="26.546791">
<ele>106.807678</ele>
<time>2010-08-29T14:09:14Z</time>
<desc>lat.=56.097084, lon.=26.546791, Alt.=106.807678m. Speed=0.036000m/h.</desc>
<speed>0.010000</speed>
</trkpt>
<trkpt lat="56.097084" lon="26.546791">
<ele>106.809631</ele>
<time>2010-08-29T14:09:15Z</time>
<desc>lat.=56.097084, lon.=26.546791, Alt.=106.809631m. Speed=0.036000m/h.</desc>
<speed>0.010000</speed>
</trkpt>
<trkpt lat="56.097084" lon="26.546791">
<ele>106.811584</ele>
<time>2010-08-29T14:09:16Z</time>
<desc>lat.=56.097084, lon.=26.546791, Alt.=106.811584m. Speed=0.072000m/h.</desc>
<speed>0.020000</speed>
</trkpt>
<trkpt lat="56.097084" lon="26.546791">
<ele>106.811584</ele>
<time>2010-08-29T14:09:17Z</time>
<desc>lat.=56.097084, lon.=26.546791, Alt.=106.811584m. Speed=0.000000m/h.</desc>
<speed>0.000000</speed>
</trkpt>
<trkpt lat="56.097084" lon="26.546791">
<ele>106.813538</ele>
<time>2010-08-29T14:09:18Z</time>
<desc>lat.=56.097084, lon.=26.546791, Alt.=106.813538m. Speed=0.036000m/h.</desc>
<speed>0.010000</speed>
</trkpt>
<trkpt lat="56.097084" lon="26.546791">
<ele>106.813538</ele>
<time>2010-08-29T14:09:19Z</time>
<desc>lat.=56.097084, lon.=26.546791, Alt.=106.813538m. Speed=0.000000m/h.</desc>
<speed>0.000000</speed>
</trkpt>
<trkpt lat="56.097084" lon="26.546791">
<ele>106.815491</ele>
<time>2010-08-29T14:09:20Z</time>
<desc>lat.=56.097084, lon.=26.546791, Alt.=106.815491m. Speed=0.000000m/h.</desc>
<speed>0.000000</speed>
</trkpt>
<trkpt lat="56.097084" lon="26.546791">
<ele>106.817444</ele>
<time>2010-08-29T14:09:21Z</time>
<desc>lat.=56.097084, lon.=26.546791, Alt.=106.817444m. Speed=0.000000m/h.</desc>
<speed>0.000000</speed>
</trkpt>
<trkpt lat="56.097084" lon="26.546791">
<ele>106.817444</ele>
<time>2010-08-29T14:09:22Z</time>
<desc>lat.=56.097084, lon.=26.546791, Alt.=106.817444m. Speed=0.000000m/h.</desc>
<speed>0.000000</speed>
</trkpt>
<trkpt lat="56.097084" lon="26.546791">
<ele>106.817444</ele>
<time>2010-08-29T14:09:23Z</time>
<desc>lat.=56.097084, lon.=26.546791, Alt.=106.817444m. Speed=0.036000m/h.</desc>
<speed>0.010000</speed>
</trkpt>
<trkpt lat="56.097084" lon="26.546789">
<ele>106.817444</ele>
<time>2010-08-29T14:09:24Z</time>
<desc>lat.=56.097084, lon.=26.546789, Alt.=106.817444m. Speed=0.036000m/h.</desc>
<speed>0.010000</speed>
</trkpt>
<trkpt lat="56.097084" lon="26.546791">
<ele>106.813538</ele>
<time>2010-08-29T14:09:25Z</time>
<desc>lat.=56.097084, lon.=26.546791, Alt.=106.813538m. Speed=0.036000m/h.</desc>
<speed>0.010000</speed>
</trkpt>
<trkpt lat="56.097084" lon="26.546791">
<ele>106.809631</ele>
<time>2010-08-29T14:09:26Z</time>
<desc>lat.=56.097084, lon.=26.546791, Alt.=106.809631m. Speed=0.072000m/h.</desc>
<speed>0.020000</speed>
</trkpt>
<trkpt lat="56.097084" lon="26.546791">
<ele>106.809631</ele>
<time>2010-08-29T14:09:27Z</time>
<desc>lat.=56.097084, lon.=26.546791, Alt.=106.809631m. Speed=0.000000m/h.</desc>
<speed>0.000000</speed>
</trkpt>
<trkpt lat="56.097084" lon="26.546791">
<ele>106.807678</ele>
<time>2010-08-29T14:09:28Z</time>
<desc>lat.=56.097084, lon.=26.546791, Alt.=106.807678m. Speed=0.000000m/h.</desc>
<speed>0.000000</speed>
</trkpt>
<trkpt lat="56.097084" lon="26.546789">
<ele>106.807678</ele>
<time>2010-08-29T14:09:29Z</time>
<desc>lat.=56.097084, lon.=26.546789, Alt.=106.807678m. Speed=0.036000m/h.</desc>
<speed>0.010000</speed>
</trkpt>
<trkpt lat="56.097084" lon="26.546789">
<ele>106.805725</ele>
<time>2010-08-29T14:09:30Z</time>
<desc>lat.=56.097084, lon.=26.546789, Alt.=106.805725m. Speed=0.000000m/h.</desc>
<speed>0.000000</speed>
</trkpt>
<trkpt lat="56.097084" lon="26.546789">
<ele>106.803772</ele>
<time>2010-08-29T14:09:31Z</time>
<desc>lat.=56.097084, lon.=26.546789, Alt.=106.803772m. Speed=0.000000m/h.</desc>
<speed>0.000000</speed>
</trkpt>
<trkpt lat="56.097084" lon="26.546789">
<ele>106.803772</ele>
<time>2010-08-29T14:09:32Z</time>
<desc>lat.=56.097084, lon.=26.546789, Alt.=106.803772m. Speed=0.000000m/h.</desc>
<speed>0.000000</speed>
</trkpt>
<trkpt lat="56.097084" lon="26.546789">
<ele>106.803772</ele>
<time>2010-08-29T14:09:33Z</time>
<desc>lat.=56.097084, lon.=26.546789, Alt.=106.803772m. Speed=0.036000m/h.</desc>
<speed>0.010000</speed>
</trkpt>
<trkpt lat="56.097084" lon="26.546789">
<ele>106.805725</ele>
<time>2010-08-29T14:09:34Z</time>
<desc>lat.=56.097084, lon.=26.546789, Alt.=106.805725m. Speed=0.000000m/h.</desc>
<speed>0.000000</speed>
</trkpt>
<trkpt lat="56.097084" lon="26.546789">
<ele>106.805725</ele>
<time>2010-08-29T14:09:35Z</time>
<desc>lat.=56.097084, lon.=26.546789, Alt.=106.805725m. Speed=0.000000m/h.</desc>
<speed>0.000000</speed>
</trkpt>
<trkpt lat="56.097084" lon="26.546789">
<ele>106.805725</ele>
<time>2010-08-29T14:09:36Z</time>
<desc>lat.=56.097084, lon.=26.546789, Alt.=106.805725m. Speed=0.000000m/h.</desc>
<speed>0.000000</speed>
</trkpt>
<trkpt lat="56.097084" lon="26.546789">
<ele>106.805725</ele>
<time>2010-08-29T14:09:37Z</time>
<desc>lat.=56.097084, lon.=26.546789, Alt.=106.805725m. Speed=0.036000m/h.</desc>
<speed>0.010000</speed>
</trkpt>
<trkpt lat="56.097084" lon="26.546789">
<ele>106.807678</ele>
<time>2010-08-29T14:09:38Z</time>
<desc>lat.=56.097084, lon.=26.546789, Alt.=106.807678m. Speed=0.036000m/h.</desc>
<speed>0.010000</speed>
</trkpt>
<trkpt lat="56.097084" lon="26.546789">
<ele>106.807678</ele>
<time>2010-08-29T14:09:39Z</time>
<desc>lat.=56.097084, lon.=26.546789, Alt.=106.807678m. Speed=0.000000m/h.</desc>
<speed>0.000000</speed>
</trkpt>
<trkpt lat="56.097084" lon="26.546789">
<ele>106.809631</ele>
<time>2010-08-29T14:09:40Z</time>
<desc>lat.=56.097084, lon.=26.546789, Alt.=106.809631m. Speed=0.000000m/h.</desc>
<speed>0.000000</speed>
</trkpt>
<trkpt lat="56.097084" lon="26.546789">
<ele>106.811584</ele>
<time>2010-08-29T14:09:41Z</time>
<desc>lat.=56.097084, lon.=26.546789, Alt.=106.811584m. Speed=0.000000m/h.</desc>
<speed>0.000000</speed>
</trkpt>
<trkpt lat="56.097084" lon="26.546789">
<ele>106.811584</ele>
<time>2010-08-29T14:09:42Z</time>
<desc>lat.=56.097084, lon.=26.546789, Alt.=106.811584m. Speed=0.000000m/h.</desc>
<speed>0.000000</speed>
</trkpt>
<trkpt lat="56.097084" lon="26.546789">
<ele>106.815491</ele>
<time>2010-08-29T14:09:43Z</time>
<desc>lat.=56.097084, lon.=26.546789, Alt.=106.815491m. Speed=0.000000m/h.</desc>
<speed>0.000000</speed>
</trkpt>
<trkpt lat="56.097084" lon="26.546789">
<ele>106.817444</ele>
<time>2010-08-29T14:09:44Z</time>
<desc>lat.=56.097084, lon.=26.546789, Alt.=106.817444m. Speed=0.000000m/h.</desc>
<speed>0.000000</speed>
</trkpt>
<trkpt lat="56.097084" lon="26.546789">
<ele>106.817444</ele>
<time>2010-08-29T14:09:45Z</time>
<desc>lat.=56.097084, lon.=26.546789, Alt.=106.817444m. Speed=0.000000m/h.</desc>
<speed>0.000000</speed>
</trkpt>
<trkpt lat="56.097084" lon="26.546789">
<ele>106.819397</ele>
<time>2010-08-29T14:09:46Z</time>
<desc>lat.=56.097084, lon.=26.546789, Alt.=106.819397m. Speed=0.000000m/h.</desc>
<speed>0.000000</speed>
</trkpt>
<trkpt lat="56.097084" lon="26.546789">
<ele>106.821350</ele>
<time>2010-08-29T14:09:47Z</time>
<desc>lat.=56.097084, lon.=26.546789, Alt.=106.821350m. Speed=0.036000m/h.</desc>
<speed>0.010000</speed>
</trkpt>
<trkpt lat="56.097084" lon="26.546789">
<ele>106.821350</ele>
<time>2010-08-29T14:09:48Z</time>
<desc>lat.=56.097084, lon.=26.546789, Alt.=106.821350m. Speed=0.000000m/h.</desc>
<speed>0.000000</speed>
</trkpt>
<trkpt lat="56.097084" lon="26.546789">
<ele>106.819397</ele>
<time>2010-08-29T14:09:49Z</time>
<desc>lat.=56.097084, lon.=26.546789, Alt.=106.819397m. Speed=0.000000m/h.</desc>
<speed>0.000000</speed>
</trkpt>
<trkpt lat="56.097084" lon="26.546789">
<ele>106.819397</ele>
<time>2010-08-29T14:09:50Z</time>
<desc>lat.=56.097084, lon.=26.546789, Alt.=106.819397m. Speed=0.144000m/h.</desc>
<speed>0.040000</speed>
</trkpt>
<trkpt lat="56.097084" lon="26.546789">
<ele>106.819397</ele>
<time>2010-08-29T14:09:51Z</time>
<desc>lat.=56.097084, lon.=26.546789, Alt.=106.819397m. Speed=0.108000m/h.</desc>
<speed>0.030000</speed>
</trkpt>
<trkpt lat="56.097084" lon="26.546789">
<ele>106.819397</ele>
<time>2010-08-29T14:09:52Z</time>
<desc>lat.=56.097084, lon.=26.546789, Alt.=106.819397m. Speed=0.000000m/h.</desc>
<speed>0.000000</speed>
</trkpt>
<trkpt lat="56.097084" lon="26.546789">
<ele>106.819397</ele>
<time>2010-08-29T14:09:53Z</time>
<desc>lat.=56.097084, lon.=26.546789, Alt.=106.819397m. Speed=0.000000m/h.</desc>
<speed>0.000000</speed>
</trkpt>
<trkpt lat="56.097084" lon="26.546789">
<ele>106.821350</ele>
<time>2010-08-29T14:09:54Z</time>
<desc>lat.=56.097084, lon.=26.546789, Alt.=106.821350m. Speed=0.000000m/h.</desc>
<speed>0.000000</speed>
</trkpt>
<trkpt lat="56.097084" lon="26.546789">
<ele>106.821350</ele>
<time>2010-08-29T14:09:55Z</time>
<desc>lat.=56.097084, lon.=26.546789, Alt.=106.821350m. Speed=0.036000m/h.</desc>
<speed>0.010000</speed>
</trkpt>
<trkpt lat="56.097084" lon="26.546789">
<ele>106.821350</ele>
<time>2010-08-29T14:09:56Z</time>
<desc>lat.=56.097084, lon.=26.546789, Alt.=106.821350m. Speed=0.000000m/h.</desc>
<speed>0.000000</speed>
</trkpt>
<trkpt lat="56.097084" lon="26.546789">
<ele>106.823303</ele>
<time>2010-08-29T14:09:57Z</time>
<desc>lat.=56.097084, lon.=26.546789, Alt.=106.823303m. Speed=0.036000m/h.</desc>
<speed>0.010000</speed>
</trkpt>
<trkpt lat="56.097084" lon="26.546789">
<ele>106.825256</ele>
<time>2010-08-29T14:09:58Z</time>
<desc>lat.=56.097084, lon.=26.546789, Alt.=106.825256m. Speed=0.000000m/h.</desc>
<speed>0.000000</speed>
</trkpt>
<trkpt lat="56.097084" lon="26.546789">
<ele>106.825256</ele>
<time>2010-08-29T14:09:59Z</time>
<desc>lat.=56.097084, lon.=26.546789, Alt.=106.825256m. Speed=0.000000m/h.</desc>
<speed>0.000000</speed>
</trkpt>
<trkpt lat="56.097084" lon="26.546789">
<ele>106.825256</ele>
<time>2010-08-29T14:10:00Z</time>
<desc>lat.=56.097084, lon.=26.546789, Alt.=106.825256m. Speed=0.000000m/h.</desc>
<speed>0.000000</speed>
</trkpt>
<trkpt lat="56.097084" lon="26.546789">
<ele>106.825256</ele>
<time>2010-08-29T14:10:01Z</time>
<desc>lat.=56.097084, lon.=26.546789, Alt.=106.825256m. Speed=0.000000m/h.</desc>
<speed>0.000000</speed>
</trkpt>
<trkpt lat="56.097084" lon="26.546789">
<ele>106.825256</ele>
<time>2010-08-29T14:10:02Z</time>
<desc>lat.=56.097084, lon.=26.546789, Alt.=106.825256m. Speed=0.000000m/h.</desc>
<speed>0.000000</speed>
</trkpt>
<trkpt lat="56.097084" lon="26.546789">
<ele>106.827209</ele>
<time>2010-08-29T14:10:03Z</time>
<desc>lat.=56.097084, lon.=26.546789, Alt.=106.827209m. Speed=0.036000m/h.</desc>
<speed>0.010000</speed>
</trkpt>
<trkpt lat="56.097084" lon="26.546789">
<ele>106.829163</ele>
<time>2010-08-29T14:10:04Z</time>
<desc>lat.=56.097084, lon.=26.546789, Alt.=106.829163m. Speed=0.000000m/h.</desc>
<speed>0.000000</speed>
</trkpt>
<trkpt lat="56.097084" lon="26.546789">
<ele>106.831116</ele>
<time>2010-08-29T14:10:05Z</time>
<desc>lat.=56.097084, lon.=26.546789, Alt.=106.831116m. Speed=0.036000m/h.</desc>
<speed>0.010000</speed>
</trkpt>
<trkpt lat="56.097084" lon="26.546789">
<ele>106.833069</ele>
<time>2010-08-29T14:10:06Z</time>
<desc>lat.=56.097084, lon.=26.546789, Alt.=106.833069m. Speed=0.036000m/h.</desc>
<speed>0.010000</speed>
</trkpt>
<trkpt lat="56.097084" lon="26.546789">
<ele>106.833069</ele>
<time>2010-08-29T14:10:07Z</time>
<desc>lat.=56.097084, lon.=26.546789, Alt.=106.833069m. Speed=0.072000m/h.</desc>
<speed>0.020000</speed>
</trkpt>
<trkpt lat="56.097084" lon="26.546787">
<ele>106.835022</ele>
<time>2010-08-29T14:10:08Z</time>
<desc>lat.=56.097084, lon.=26.546787, Alt.=106.835022m. Speed=0.036000m/h.</desc>
<speed>0.010000</speed>
</trkpt>
<trkpt lat="56.097084" lon="26.546787">
<ele>106.836975</ele>
<time>2010-08-29T14:10:09Z</time>
<desc>lat.=56.097084, lon.=26.546787, Alt.=106.836975m. Speed=0.000000m/h.</desc>
<speed>0.000000</speed>
</trkpt>
<trkpt lat="56.097084" lon="26.546787">
<ele>106.836975</ele>
<time>2010-08-29T14:10:10Z</time>
<desc>lat.=56.097084, lon.=26.546787, Alt.=106.836975m. Speed=0.000000m/h.</desc>
<speed>0.000000</speed>
</trkpt>
<trkpt lat="56.097084" lon="26.546787">
<ele>106.836975</ele>
<time>2010-08-29T14:10:11Z</time>
<desc>lat.=56.097084, lon.=26.546787, Alt.=106.836975m. Speed=0.036000m/h.</desc>
<speed>0.010000</speed>
</trkpt>
<trkpt lat="56.097084" lon="26.546787">
<ele>106.838928</ele>
<time>2010-08-29T14:10:12Z</time>
<desc>lat.=56.097084, lon.=26.546787, Alt.=106.838928m. Speed=0.036000m/h.</desc>
<speed>0.010000</speed>
</trkpt>
<trkpt lat="56.097084" lon="26.546787">
<ele>106.840881</ele>
<time>2010-08-29T14:10:13Z</time>
<desc>lat.=56.097084, lon.=26.546787, Alt.=106.840881m. Speed=0.036000m/h.</desc>
<speed>0.010000</speed>
</trkpt>
<trkpt lat="56.097084" lon="26.546787">
<ele>106.842834</ele>
<time>2010-08-29T14:10:14Z</time>
<desc>lat.=56.097084, lon.=26.546787, Alt.=106.842834m. Speed=0.036000m/h.</desc>
<speed>0.010000</speed>
</trkpt>
<trkpt lat="56.097084" lon="26.546787">
<ele>106.842834</ele>
<time>2010-08-29T14:10:15Z</time>
<desc>lat.=56.097084, lon.=26.546787, Alt.=106.842834m. Speed=0.072000m/h.</desc>
<speed>0.020000</speed>
</trkpt>
<trkpt lat="56.097084" lon="26.546787">
<ele>106.844788</ele>
<time>2010-08-29T14:10:16Z</time>
<desc>lat.=56.097084, lon.=26.546787, Alt.=106.844788m. Speed=0.036000m/h.</desc>
<speed>0.010000</speed>
</trkpt>
<trkpt lat="56.097084" lon="26.546787">
<ele>106.844788</ele>
<time>2010-08-29T14:10:17Z</time>
<desc>lat.=56.097084, lon.=26.546787, Alt.=106.844788m. Speed=0.000000m/h.</desc>
<speed>0.000000</speed>
</trkpt>
<trkpt lat="56.097084" lon="26.546787">
<ele>106.846741</ele>
<time>2010-08-29T14:10:18Z</time>
<desc>lat.=56.097084, lon.=26.546787, Alt.=106.846741m. Speed=0.036000m/h.</desc>
<speed>0.010000</speed>
</trkpt>
<trkpt lat="56.097084" lon="26.546787">
<ele>106.846741</ele>
<time>2010-08-29T14:10:19Z</time>
<desc>lat.=56.097084, lon.=26.546787, Alt.=106.846741m. Speed=0.072000m/h.</desc>
<speed>0.020000</speed>
</trkpt>
<trkpt lat="56.097084" lon="26.546787">
<ele>106.846741</ele>
<time>2010-08-29T14:10:20Z</time>
<desc>lat.=56.097084, lon.=26.546787, Alt.=106.846741m. Speed=0.000000m/h.</desc>
<speed>0.000000</speed>
</trkpt>
<trkpt lat="56.097084" lon="26.546787">
<ele>106.850647</ele>
<time>2010-08-29T14:10:21Z</time>
<desc>lat.=56.097084, lon.=26.546787, Alt.=106.850647m. Speed=0.072000m/h.</desc>
<speed>0.020000</speed>
</trkpt>
<trkpt lat="56.097084" lon="26.546787">
<ele>106.852600</ele>
<time>2010-08-29T14:10:22Z</time>
<desc>lat.=56.097084, lon.=26.546787, Alt.=106.852600m. Speed=0.036000m/h.</desc>
<speed>0.010000</speed>
</trkpt>
<trkpt lat="56.097084" lon="26.546787">
<ele>106.852600</ele>
<time>2010-08-29T14:10:23Z</time>
<desc>lat.=56.097084, lon.=26.546787, Alt.=106.852600m. Speed=0.000000m/h.</desc>
<speed>0.000000</speed>
</trkpt>
<trkpt lat="56.097084" lon="26.546787">
<ele>106.852600</ele>
<time>2010-08-29T14:10:24Z</time>
<desc>lat.=56.097084, lon.=26.546787, Alt.=106.852600m. Speed=0.108000m/h.</desc>
<speed>0.030000</speed>
</trkpt>
<trkpt lat="56.097084" lon="26.546785">
<ele>106.852600</ele>
<time>2010-08-29T14:10:25Z</time>
<desc>lat.=56.097084, lon.=26.546785, Alt.=106.852600m. Speed=0.036000m/h.</desc>
<speed>0.010000</speed>
</trkpt>
<trkpt lat="56.097084" lon="26.546785">
<ele>106.850647</ele>
<time>2010-08-29T14:10:26Z</time>
<desc>lat.=56.097084, lon.=26.546785, Alt.=106.850647m. Speed=0.000000m/h.</desc>
<speed>0.000000</speed>
</trkpt>
<trkpt lat="56.097084" lon="26.546785">
<ele>106.852600</ele>
<time>2010-08-29T14:10:27Z</time>
<desc>lat.=56.097084, lon.=26.546785, Alt.=106.852600m. Speed=0.000000m/h.</desc>
<speed>0.000000</speed>
</trkpt>
<trkpt lat="56.097084" lon="26.546785">
<ele>106.852600</ele>
<time>2010-08-29T14:10:28Z</time>
<desc>lat.=56.097084, lon.=26.546785, Alt.=106.852600m. Speed=0.000000m/h.</desc>
<speed>0.000000</speed>
</trkpt>
<trkpt lat="56.097084" lon="26.546785">
<ele>106.852600</ele>
<time>2010-08-29T14:10:29Z</time>
<desc>lat.=56.097084, lon.=26.546785, Alt.=106.852600m. Speed=0.000000m/h.</desc>
<speed>0.000000</speed>
</trkpt>
<trkpt lat="56.097084" lon="26.546785">
<ele>106.854553</ele>
<time>2010-08-29T14:10:30Z</time>
<desc>lat.=56.097084, lon.=26.546785, Alt.=106.854553m. Speed=0.036000m/h.</desc>
<speed>0.010000</speed>
</trkpt>
<trkpt lat="56.097084" lon="26.546785">
<ele>106.854553</ele>
<time>2010-08-29T14:10:31Z</time>
<desc>lat.=56.097084, lon.=26.546785, Alt.=106.854553m. Speed=0.036000m/h.</desc>
<speed>0.010000</speed>
</trkpt>
<trkpt lat="56.097084" lon="26.546785">
<ele>106.854553</ele>
<time>2010-08-29T14:10:32Z</time>
<desc>lat.=56.097084, lon.=26.546785, Alt.=106.854553m. Speed=0.000000m/h.</desc>
<speed>0.000000</speed>
</trkpt>
<trkpt lat="56.097084" lon="26.546785">
<ele>106.852600</ele>
<time>2010-08-29T14:10:33Z</time>
<desc>lat.=56.097084, lon.=26.546785, Alt.=106.852600m. Speed=0.036000m/h.</desc>
<speed>0.010000</speed>
</trkpt>
<trkpt lat="56.097084" lon="26.546785">
<ele>106.850647</ele>
<time>2010-08-29T14:10:34Z</time>
<desc>lat.=56.097084, lon.=26.546785, Alt.=106.850647m. Speed=0.108000m/h.</desc>
<speed>0.030000</speed>
</trkpt>
<trkpt lat="56.097084" lon="26.546785">
<ele>106.848694</ele>
<time>2010-08-29T14:10:35Z</time>
<desc>lat.=56.097084, lon.=26.546785, Alt.=106.848694m. Speed=0.072000m/h.</desc>
<speed>0.020000</speed>
</trkpt>
<trkpt lat="56.097084" lon="26.546785">
<ele>106.846741</ele>
<time>2010-08-29T14:10:36Z</time>
<desc>lat.=56.097084, lon.=26.546785, Alt.=106.846741m. Speed=0.036000m/h.</desc>
<speed>0.010000</speed>
</trkpt>
<trkpt lat="56.097084" lon="26.546785">
<ele>106.842834</ele>
<time>2010-08-29T14:10:37Z</time>
<desc>lat.=56.097084, lon.=26.546785, Alt.=106.842834m. Speed=0.036000m/h.</desc>
<speed>0.010000</speed>
</trkpt>
<trkpt lat="56.097084" lon="26.546785">
<ele>106.840881</ele>
<time>2010-08-29T14:10:38Z</time>
<desc>lat.=56.097084, lon.=26.546785, Alt.=106.840881m. Speed=0.000000m/h.</desc>
<speed>0.000000</speed>
</trkpt>
<trkpt lat="56.097084" lon="26.546785">
<ele>106.840881</ele>
<time>2010-08-29T14:10:39Z</time>
<desc>lat.=56.097084, lon.=26.546785, Alt.=106.840881m. Speed=0.072000m/h.</desc>
<speed>0.020000</speed>
</trkpt>
<trkpt lat="56.097084" lon="26.546785">
<ele>106.838928</ele>
<time>2010-08-29T14:10:40Z</time>
<desc>lat.=56.097084, lon.=26.546785, Alt.=106.838928m. Speed=0.072000m/h.</desc>
<speed>0.020000</speed>
</trkpt>
<trkpt lat="56.097084" lon="26.546785">
<ele>106.836975</ele>
<time>2010-08-29T14:10:41Z</time>
<desc>lat.=56.097084, lon.=26.546785, Alt.=106.836975m. Speed=0.036000m/h.</desc>
<speed>0.010000</speed>
</trkpt>
<trkpt lat="56.097084" lon="26.546785">
<ele>106.836975</ele>
<time>2010-08-29T14:10:42Z</time>
<desc>lat.=56.097084, lon.=26.546785, Alt.=106.836975m. Speed=0.000000m/h.</desc>
<speed>0.000000</speed>
</trkpt>
<trkpt lat="56.097084" lon="26.546785">
<ele>106.836975</ele>
<time>2010-08-29T14:10:43Z</time>
<desc>lat.=56.097084, lon.=26.546785, Alt.=106.836975m. Speed=0.036000m/h.</desc>
<speed>0.010000</speed>
</trkpt>
<trkpt lat="56.097084" lon="26.546787">
<ele>106.838928</ele>
<time>2010-08-29T14:10:44Z</time>
<desc>lat.=56.097084, lon.=26.546787, Alt.=106.838928m. Speed=0.108000m/h.</desc>
<speed>0.030000</speed>
</trkpt>
<trkpt lat="56.097084" lon="26.546787">
<ele>106.838928</ele>
<time>2010-08-29T14:10:45Z</time>
<desc>lat.=56.097084, lon.=26.546787, Alt.=106.838928m. Speed=0.072000m/h.</desc>
<speed>0.020000</speed>
</trkpt>
<trkpt lat="56.097084" lon="26.546787">
<ele>106.838928</ele>
<time>2010-08-29T14:10:46Z</time>
<desc>lat.=56.097084, lon.=26.546787, Alt.=106.838928m. Speed=0.000000m/h.</desc>
<speed>0.000000</speed>
</trkpt>
<trkpt lat="56.097084" lon="26.546787">
<ele>106.838928</ele>
<time>2010-08-29T14:10:47Z</time>
<desc>lat.=56.097084, lon.=26.546787, Alt.=106.838928m. Speed=0.108000m/h.</desc>
<speed>0.030000</speed>
</trkpt>
<trkpt lat="56.097084" lon="26.546787">
<ele>106.838928</ele>
<time>2010-08-29T14:10:48Z</time>
<desc>lat.=56.097084, lon.=26.546787, Alt.=106.838928m. Speed=0.000000m/h.</desc>
<speed>0.000000</speed>
</trkpt>
<trkpt lat="56.097084" lon="26.546787">
<ele>106.838928</ele>
<time>2010-08-29T14:10:49Z</time>
<desc>lat.=56.097084, lon.=26.546787, Alt.=106.838928m. Speed=0.036000m/h.</desc>
<speed>0.010000</speed>
</trkpt>
<trkpt lat="56.097084" lon="26.546787">
<ele>106.838928</ele>
<time>2010-08-29T14:10:50Z</time>
<desc>lat.=56.097084, lon.=26.546787, Alt.=106.838928m. Speed=0.036000m/h.</desc>
<speed>0.010000</speed>
</trkpt>
<trkpt lat="56.097084" lon="26.546785">
<ele>106.838928</ele>
<time>2010-08-29T14:10:51Z</time>
<desc>lat.=56.097084, lon.=26.546785, Alt.=106.838928m. Speed=0.000000m/h.</desc>
<speed>0.000000</speed>
</trkpt>
<trkpt lat="56.097084" lon="26.546785">
<ele>106.838928</ele>
<time>2010-08-29T14:10:52Z</time>
<desc>lat.=56.097084, lon.=26.546785, Alt.=106.838928m. Speed=0.072000m/h.</desc>
<speed>0.020000</speed>
</trkpt>
<trkpt lat="56.097084" lon="26.546785">
<ele>106.836975</ele>
<time>2010-08-29T14:10:53Z</time>
<desc>lat.=56.097084, lon.=26.546785, Alt.=106.836975m. Speed=0.036000m/h.</desc>
<speed>0.010000</speed>
</trkpt>
<trkpt lat="56.097084" lon="26.546785">
<ele>106.836975</ele>
<time>2010-08-29T14:10:54Z</time>
<desc>lat.=56.097084, lon.=26.546785, Alt.=106.836975m. Speed=0.108000m/h.</desc>
<speed>0.030000</speed>
</trkpt>
<trkpt lat="56.097084" lon="26.546785">
<ele>106.836975</ele>
<time>2010-08-29T14:10:55Z</time>
<desc>lat.=56.097084, lon.=26.546785, Alt.=106.836975m. Speed=0.036000m/h.</desc>
<speed>0.010000</speed>
</trkpt>
<trkpt lat="56.097084" lon="26.546785">
<ele>106.836975</ele>
<time>2010-08-29T14:10:56Z</time>
<desc>lat.=56.097084, lon.=26.546785, Alt.=106.836975m. Speed=0.000000m/h.</desc>
<speed>0.000000</speed>
</trkpt>
<trkpt lat="56.097084" lon="26.546785">
<ele>106.835022</ele>
<time>2010-08-29T14:10:57Z</time>
<desc>lat.=56.097084, lon.=26.546785, Alt.=106.835022m. Speed=0.000000m/h.</desc>
<speed>0.000000</speed>
</trkpt>
<trkpt lat="56.097084" lon="26.546785">
<ele>106.833069</ele>
<time>2010-08-29T14:10:58Z</time>
<desc>lat.=56.097084, lon.=26.546785, Alt.=106.833069m. Speed=0.000000m/h.</desc>
<speed>0.000000</speed>
</trkpt>
<trkpt lat="56.097084" lon="26.546785">
<ele>106.831116</ele>
<time>2010-08-29T14:10:59Z</time>
<desc>lat.=56.097084, lon.=26.546785, Alt.=106.831116m. Speed=0.000000m/h.</desc>
<speed>0.000000</speed>
</trkpt>
<trkpt lat="56.097084" lon="26.546785">
<ele>106.831116</ele>
<time>2010-08-29T14:11:00Z</time>
<desc>lat.=56.097084, lon.=26.546785, Alt.=106.831116m. Speed=0.036000m/h.</desc>
<speed>0.010000</speed>
</trkpt>
<trkpt lat="56.097084" lon="26.546785">
<ele>106.829163</ele>
<time>2010-08-29T14:11:01Z</time>
<desc>lat.=56.097084, lon.=26.546785, Alt.=106.829163m. Speed=0.000000m/h.</desc>
<speed>0.000000</speed>
</trkpt>
<trkpt lat="56.097084" lon="26.546785">
<ele>106.829163</ele>
<time>2010-08-29T14:11:02Z</time>
<desc>lat.=56.097084, lon.=26.546785, Alt.=106.829163m. Speed=0.000000m/h.</desc>
<speed>0.000000</speed>
</trkpt>
<trkpt lat="56.097084" lon="26.546785">
<ele>106.829163</ele>
<time>2010-08-29T14:11:03Z</time>
<desc>lat.=56.097084, lon.=26.546785, Alt.=106.829163m. Speed=0.036000m/h.</desc>
<speed>0.010000</speed>
</trkpt>
<trkpt lat="56.097084" lon="26.546785">
<ele>106.829163</ele>
<time>2010-08-29T14:11:04Z</time>
<desc>lat.=56.097084, lon.=26.546785, Alt.=106.829163m. Speed=0.000000m/h.</desc>
<speed>0.000000</speed>
</trkpt>
<trkpt lat="56.097084" lon="26.546785">
<ele>106.829163</ele>
<time>2010-08-29T14:11:05Z</time>
<desc>lat.=56.097084, lon.=26.546785, Alt.=106.829163m. Speed=0.072000m/h.</desc>
<speed>0.020000</speed>
</trkpt>
<trkpt lat="56.097084" lon="26.546785">
<ele>106.829163</ele>
<time>2010-08-29T14:11:06Z</time>
<desc>lat.=56.097084, lon.=26.546785, Alt.=106.829163m. Speed=0.036000m/h.</desc>
<speed>0.010000</speed>
</trkpt>
<trkpt lat="56.097084" lon="26.546785">
<ele>106.829163</ele>
<time>2010-08-29T14:11:07Z</time>
<desc>lat.=56.097084, lon.=26.546785, Alt.=106.829163m. Speed=0.000000m/h.</desc>
<speed>0.000000</speed>
</trkpt>
<trkpt lat="56.097084" lon="26.546785">
<ele>106.831116</ele>
<time>2010-08-29T14:11:08Z</time>
<desc>lat.=56.097084, lon.=26.546785, Alt.=106.831116m. Speed=0.036000m/h.</desc>
<speed>0.010000</speed>
</trkpt>
<trkpt lat="56.097084" lon="26.546785">
<ele>106.831116</ele>
<time>2010-08-29T14:11:09Z</time>
<desc>lat.=56.097084, lon.=26.546785, Alt.=106.831116m. Speed=0.036000m/h.</desc>
<speed>0.010000</speed>
</trkpt>
<trkpt lat="56.097084" lon="26.546785">
<ele>106.833069</ele>
<time>2010-08-29T14:11:10Z</time>
<desc>lat.=56.097084, lon.=26.546785, Alt.=106.833069m. Speed=0.108000m/h.</desc>
<speed>0.030000</speed>
</trkpt>
<trkpt lat="56.097084" lon="26.546785">
<ele>106.835022</ele>
<time>2010-08-29T14:11:11Z</time>
<desc>lat.=56.097084, lon.=26.546785, Alt.=106.835022m. Speed=0.000000m/h.</desc>
<speed>0.000000</speed>
</trkpt>
<trkpt lat="56.097084" lon="26.546783">
<ele>106.836975</ele>
<time>2010-08-29T14:11:12Z</time>
<desc>lat.=56.097084, lon.=26.546783, Alt.=106.836975m. Speed=0.036000m/h.</desc>
<speed>0.010000</speed>
</trkpt>
<trkpt lat="56.097084" lon="26.546785">
<ele>106.836975</ele>
<time>2010-08-29T14:11:13Z</time>
<desc>lat.=56.097084, lon.=26.546785, Alt.=106.836975m. Speed=0.000000m/h.</desc>
<speed>0.000000</speed>
</trkpt>
<trkpt lat="56.097084" lon="26.546783">
<ele>106.838928</ele>
<time>2010-08-29T14:11:14Z</time>
<desc>lat.=56.097084, lon.=26.546783, Alt.=106.838928m. Speed=0.000000m/h.</desc>
<speed>0.000000</speed>
</trkpt>
<trkpt lat="56.097084" lon="26.546785">
<ele>106.840881</ele>
<time>2010-08-29T14:11:15Z</time>
<desc>lat.=56.097084, lon.=26.546785, Alt.=106.840881m. Speed=0.036000m/h.</desc>
<speed>0.010000</speed>
</trkpt>
<trkpt lat="56.097084" lon="26.546783">
<ele>106.842834</ele>
<time>2010-08-29T14:11:16Z</time>
<desc>lat.=56.097084, lon.=26.546783, Alt.=106.842834m. Speed=0.000000m/h.</desc>
<speed>0.000000</speed>
</trkpt>
<trkpt lat="56.097084" lon="26.546783">
<ele>106.840881</ele>
<time>2010-08-29T14:11:17Z</time>
<desc>lat.=56.097084, lon.=26.546783, Alt.=106.840881m. Speed=0.036000m/h.</desc>
<speed>0.010000</speed>
</trkpt>
<trkpt lat="56.097084" lon="26.546783">
<ele>106.840881</ele>
<time>2010-08-29T14:11:18Z</time>
<desc>lat.=56.097084, lon.=26.546783, Alt.=106.840881m. Speed=0.108000m/h.</desc>
<speed>0.030000</speed>
</trkpt>
<trkpt lat="56.097084" lon="26.546783">
<ele>106.840881</ele>
<time>2010-08-29T14:11:19Z</time>
<desc>lat.=56.097084, lon.=26.546783, Alt.=106.840881m. Speed=0.072000m/h.</desc>
<speed>0.020000</speed>
</trkpt>
<trkpt lat="56.097084" lon="26.546783">
<ele>106.840881</ele>
<time>2010-08-29T14:11:20Z</time>
<desc>lat.=56.097084, lon.=26.546783, Alt.=106.840881m. Speed=0.036000m/h.</desc>
<speed>0.010000</speed>
</trkpt>
<trkpt lat="56.097084" lon="26.546783">
<ele>106.840881</ele>
<time>2010-08-29T14:11:21Z</time>
<desc>lat.=56.097084, lon.=26.546783, Alt.=106.840881m. Speed=0.000000m/h.</desc>
<speed>0.000000</speed>
</trkpt>
<trkpt lat="56.097084" lon="26.546783">
<ele>106.836975</ele>
<time>2010-08-29T14:11:22Z</time>
<desc>lat.=56.097084, lon.=26.546783, Alt.=106.836975m. Speed=0.000000m/h.</desc>
<speed>0.000000</speed>
</trkpt>
<trkpt lat="56.097084" lon="26.546783">
<ele>106.835022</ele>
<time>2010-08-29T14:11:23Z</time>
<desc>lat.=56.097084, lon.=26.546783, Alt.=106.835022m. Speed=0.036000m/h.</desc>
<speed>0.010000</speed>
</trkpt>
<trkpt lat="56.097084" lon="26.546783">
<ele>106.833069</ele>
<time>2010-08-29T14:11:24Z</time>
<desc>lat.=56.097084, lon.=26.546783, Alt.=106.833069m. Speed=0.000000m/h.</desc>
<speed>0.000000</speed>
</trkpt>
<trkpt lat="56.097084" lon="26.546783">
<ele>106.829163</ele>
<time>2010-08-29T14:11:25Z</time>
<desc>lat.=56.097084, lon.=26.546783, Alt.=106.829163m. Speed=0.000000m/h.</desc>
<speed>0.000000</speed>
</trkpt>
<trkpt lat="56.097084" lon="26.546783">
<ele>106.823303</ele>
<time>2010-08-29T14:11:26Z</time>
<desc>lat.=56.097084, lon.=26.546783, Alt.=106.823303m. Speed=0.036000m/h.</desc>
<speed>0.010000</speed>
</trkpt>
<trkpt lat="56.097084" lon="26.546783">
<ele>106.819397</ele>
<time>2010-08-29T14:11:27Z</time>
<desc>lat.=56.097084, lon.=26.546783, Alt.=106.819397m. Speed=0.036000m/h.</desc>
<speed>0.010000</speed>
</trkpt>
<trkpt lat="56.097084" lon="26.546783">
<ele>106.815491</ele>
<time>2010-08-29T14:11:28Z</time>
<desc>lat.=56.097084, lon.=26.546783, Alt.=106.815491m. Speed=0.000000m/h.</desc>
<speed>0.000000</speed>
</trkpt>
<trkpt lat="56.097084" lon="26.546783">
<ele>106.809631</ele>
<time>2010-08-29T14:11:29Z</time>
<desc>lat.=56.097084, lon.=26.546783, Alt.=106.809631m. Speed=0.000000m/h.</desc>
<speed>0.000000</speed>
</trkpt>
<trkpt lat="56.097084" lon="26.546783">
<ele>106.799866</ele>
<time>2010-08-29T14:11:30Z</time>
<desc>lat.=56.097084, lon.=26.546783, Alt.=106.799866m. Speed=0.036000m/h.</desc>
<speed>0.010000</speed>
</trkpt>
<trkpt lat="56.097084" lon="26.546783">
<ele>106.788147</ele>
<time>2010-08-29T14:11:31Z</time>
<desc>lat.=56.097084, lon.=26.546783, Alt.=106.788147m. Speed=0.108000m/h.</desc>
<speed>0.030000</speed>
</trkpt>
<trkpt lat="56.097084" lon="26.546783">
<ele>106.778381</ele>
<time>2010-08-29T14:11:32Z</time>
<desc>lat.=56.097084, lon.=26.546783, Alt.=106.778381m. Speed=0.000000m/h.</desc>
<speed>0.000000</speed>
</trkpt>
<trkpt lat="56.097084" lon="26.546783">
<ele>106.768616</ele>
<time>2010-08-29T14:11:33Z</time>
<desc>lat.=56.097084, lon.=26.546783, Alt.=106.768616m. Speed=0.144000m/h.</desc>
<speed>0.040000</speed>
</trkpt>
<trkpt lat="56.097084" lon="26.546783">
<ele>106.766663</ele>
<time>2010-08-29T14:11:34Z</time>
<desc>lat.=56.097084, lon.=26.546783, Alt.=106.766663m. Speed=0.036000m/h.</desc>
<speed>0.010000</speed>
</trkpt>
<trkpt lat="56.097084" lon="26.546783">
<ele>106.762756</ele>
<time>2010-08-29T14:11:35Z</time>
<desc>lat.=56.097084, lon.=26.546783, Alt.=106.762756m. Speed=0.000000m/h.</desc>
<speed>0.000000</speed>
</trkpt>
<trkpt lat="56.097084" lon="26.546782">
<ele>106.760803</ele>
<time>2010-08-29T14:11:36Z</time>
<desc>lat.=56.097084, lon.=26.546782, Alt.=106.760803m. Speed=0.036000m/h.</desc>
<speed>0.010000</speed>
</trkpt>
<trkpt lat="56.097084" lon="26.546782">
<ele>106.754944</ele>
<time>2010-08-29T14:11:37Z</time>
<desc>lat.=56.097084, lon.=26.546782, Alt.=106.754944m. Speed=0.036000m/h.</desc>
<speed>0.010000</speed>
</trkpt>
<trkpt lat="56.097084" lon="26.546782">
<ele>106.751038</ele>
<time>2010-08-29T14:11:38Z</time>
<desc>lat.=56.097084, lon.=26.546782, Alt.=106.751038m. Speed=0.000000m/h.</desc>
<speed>0.000000</speed>
</trkpt>
<trkpt lat="56.097084" lon="26.546782">
<ele>106.747131</ele>
<time>2010-08-29T14:11:39Z</time>
<desc>lat.=56.097084, lon.=26.546782, Alt.=106.747131m. Speed=0.036000m/h.</desc>
<speed>0.010000</speed>
</trkpt>
<trkpt lat="56.097084" lon="26.546782">
<ele>106.741272</ele>
<time>2010-08-29T14:11:40Z</time>
<desc>lat.=56.097084, lon.=26.546782, Alt.=106.741272m. Speed=0.000000m/h.</desc>
<speed>0.000000</speed>
</trkpt>
<trkpt lat="56.097084" lon="26.546782">
<ele>106.735413</ele>
<time>2010-08-29T14:11:41Z</time>
<desc>lat.=56.097084, lon.=26.546782, Alt.=106.735413m. Speed=0.036000m/h.</desc>
<speed>0.010000</speed>
</trkpt>
<trkpt lat="56.097084" lon="26.546782">
<ele>106.731506</ele>
<time>2010-08-29T14:11:42Z</time>
<desc>lat.=56.097084, lon.=26.546782, Alt.=106.731506m. Speed=0.072000m/h.</desc>
<speed>0.020000</speed>
</trkpt>
<trkpt lat="56.097084" lon="26.546782">
<ele>106.729553</ele>
<time>2010-08-29T14:11:43Z</time>
<desc>lat.=56.097084, lon.=26.546782, Alt.=106.729553m. Speed=0.036000m/h.</desc>
<speed>0.010000</speed>
</trkpt>
<trkpt lat="56.097084" lon="26.546782">
<ele>106.733459</ele>
<time>2010-08-29T14:11:44Z</time>
<desc>lat.=56.097084, lon.=26.546782, Alt.=106.733459m. Speed=0.072000m/h.</desc>
<speed>0.020000</speed>
</trkpt>
<trkpt lat="56.097084" lon="26.546782">
<ele>106.733459</ele>
<time>2010-08-29T14:11:45Z</time>
<desc>lat.=56.097084, lon.=26.546782, Alt.=106.733459m. Speed=0.000000m/h.</desc>
<speed>0.000000</speed>
</trkpt>
<trkpt lat="56.097084" lon="26.546782">
<ele>106.733459</ele>
<time>2010-08-29T14:11:46Z</time>
<desc>lat.=56.097084, lon.=26.546782, Alt.=106.733459m. Speed=0.036000m/h.</desc>
<speed>0.010000</speed>
</trkpt>
<trkpt lat="56.097084" lon="26.546782">
<ele>106.735413</ele>
<time>2010-08-29T14:11:47Z</time>
<desc>lat.=56.097084, lon.=26.546782, Alt.=106.735413m. Speed=0.036000m/h.</desc>
<speed>0.010000</speed>
</trkpt>
<trkpt lat="56.097084" lon="26.546780">
<ele>106.733459</ele>
<time>2010-08-29T14:11:48Z</time>
<desc>lat.=56.097084, lon.=26.546780, Alt.=106.733459m. Speed=0.000000m/h.</desc>
<speed>0.000000</speed>
</trkpt>
<trkpt lat="56.097084" lon="26.546780">
<ele>106.733459</ele>
<time>2010-08-29T14:11:49Z</time>
<desc>lat.=56.097084, lon.=26.546780, Alt.=106.733459m. Speed=0.000000m/h.</desc>
<speed>0.000000</speed>
</trkpt>
<trkpt lat="56.097084" lon="26.546780">
<ele>106.733459</ele>
<time>2010-08-29T14:11:50Z</time>
<desc>lat.=56.097084, lon.=26.546780, Alt.=106.733459m. Speed=0.000000m/h.</desc>
<speed>0.000000</speed>
</trkpt>
<trkpt lat="56.097084" lon="26.546780">
<ele>106.733459</ele>
<time>2010-08-29T14:11:51Z</time>
<desc>lat.=56.097084, lon.=26.546780, Alt.=106.733459m. Speed=0.000000m/h.</desc>
<speed>0.000000</speed>
</trkpt>
<trkpt lat="56.097084" lon="26.546780">
<ele>106.731506</ele>
<time>2010-08-29T14:11:52Z</time>
<desc>lat.=56.097084, lon.=26.546780, Alt.=106.731506m. Speed=0.000000m/h.</desc>
<speed>0.000000</speed>
</trkpt>
<trkpt lat="56.097084" lon="26.546780">
<ele>106.731506</ele>
<time>2010-08-29T14:11:53Z</time>
<desc>lat.=56.097084, lon.=26.546780, Alt.=106.731506m. Speed=0.000000m/h.</desc>
<speed>0.000000</speed>
</trkpt>
<trkpt lat="56.097084" lon="26.546780">
<ele>106.727600</ele>
<time>2010-08-29T14:11:54Z</time>
<desc>lat.=56.097084, lon.=26.546780, Alt.=106.727600m. Speed=0.000000m/h.</desc>
<speed>0.000000</speed>
</trkpt>
<trkpt lat="56.097084" lon="26.546780">
<ele>106.723694</ele>
<time>2010-08-29T14:11:55Z</time>
<desc>lat.=56.097084, lon.=26.546780, Alt.=106.723694m. Speed=0.000000m/h.</desc>
<speed>0.000000</speed>
</trkpt>
<trkpt lat="56.097084" lon="26.546780">
<ele>106.721741</ele>
<time>2010-08-29T14:11:56Z</time>
<desc>lat.=56.097084, lon.=26.546780, Alt.=106.721741m. Speed=0.036000m/h.</desc>
<speed>0.010000</speed>
</trkpt>
<trkpt lat="56.097084" lon="26.546780">
<ele>106.715881</ele>
<time>2010-08-29T14:11:57Z</time>
<desc>lat.=56.097084, lon.=26.546780, Alt.=106.715881m. Speed=0.000000m/h.</desc>
<speed>0.000000</speed>
</trkpt>
<trkpt lat="56.097084" lon="26.546780">
<ele>106.711975</ele>
<time>2010-08-29T14:11:58Z</time>
<desc>lat.=56.097084, lon.=26.546780, Alt.=106.711975m. Speed=0.000000m/h.</desc>
<speed>0.000000</speed>
</trkpt>
<trkpt lat="56.097084" lon="26.546780">
<ele>106.710022</ele>
<time>2010-08-29T14:11:59Z</time>
<desc>lat.=56.097084, lon.=26.546780, Alt.=106.710022m. Speed=0.072000m/h.</desc>
<speed>0.020000</speed>
</trkpt>
<trkpt lat="56.097084" lon="26.546780">
<ele>106.704163</ele>
<time>2010-08-29T14:12:00Z</time>
<desc>lat.=56.097084, lon.=26.546780, Alt.=106.704163m. Speed=0.000000m/h.</desc>
<speed>0.000000</speed>
</trkpt>
<trkpt lat="56.097084" lon="26.546780">
<ele>106.700256</ele>
<time>2010-08-29T14:12:01Z</time>
<desc>lat.=56.097084, lon.=26.546780, Alt.=106.700256m. Speed=0.000000m/h.</desc>
<speed>0.000000</speed>
</trkpt>
<trkpt lat="56.097084" lon="26.546780">
<ele>106.696350</ele>
<time>2010-08-29T14:12:02Z</time>
<desc>lat.=56.097084, lon.=26.546780, Alt.=106.696350m. Speed=0.000000m/h.</desc>
<speed>0.000000</speed>
</trkpt>
<trkpt lat="56.097084" lon="26.546780">
<ele>106.688538</ele>
<time>2010-08-29T14:12:03Z</time>
<desc>lat.=56.097084, lon.=26.546780, Alt.=106.688538m. Speed=0.000000m/h.</desc>
<speed>0.000000</speed>
</trkpt>
<trkpt lat="56.097084" lon="26.546780">
<ele>106.690491</ele>
<time>2010-08-29T14:12:04Z</time>
<desc>lat.=56.097084, lon.=26.546780, Alt.=106.690491m. Speed=0.072000m/h.</desc>
<speed>0.020000</speed>
</trkpt>
<trkpt lat="56.097084" lon="26.546780">
<ele>106.688538</ele>
<time>2010-08-29T14:12:05Z</time>
<desc>lat.=56.097084, lon.=26.546780, Alt.=106.688538m. Speed=0.036000m/h.</desc>
<speed>0.010000</speed>
</trkpt>
<trkpt lat="56.097084" lon="26.546780">
<ele>106.686584</ele>
<time>2010-08-29T14:12:06Z</time>
<desc>lat.=56.097084, lon.=26.546780, Alt.=106.686584m. Speed=0.036000m/h.</desc>
<speed>0.010000</speed>
</trkpt>
<trkpt lat="56.097084" lon="26.546780">
<ele>106.661194</ele>
<time>2010-08-29T14:12:07Z</time>
<desc>lat.=56.097084, lon.=26.546780, Alt.=106.661194m. Speed=0.072000m/h.</desc>
<speed>0.020000</speed>
</trkpt>
<trkpt lat="56.097084" lon="26.546780">
<ele>106.637756</ele>
<time>2010-08-29T14:12:08Z</time>
<desc>lat.=56.097084, lon.=26.546780, Alt.=106.637756m. Speed=0.072000m/h.</desc>
<speed>0.020000</speed>
</trkpt>
<trkpt lat="56.097084" lon="26.546780">
<ele>106.626038</ele>
<time>2010-08-29T14:12:09Z</time>
<desc>lat.=56.097084, lon.=26.546780, Alt.=106.626038m. Speed=0.036000m/h.</desc>
<speed>0.010000</speed>
</trkpt>
<trkpt lat="56.097084" lon="26.546780">
<ele>106.612366</ele>
<time>2010-08-29T14:12:10Z</time>
<desc>lat.=56.097084, lon.=26.546780, Alt.=106.612366m. Speed=0.000000m/h.</desc>
<speed>0.000000</speed>
</trkpt>
<trkpt lat="56.097084" lon="26.546780">
<ele>106.588928</ele>
<time>2010-08-29T14:12:11Z</time>
<desc>lat.=56.097084, lon.=26.546780, Alt.=106.588928m. Speed=0.000000m/h.</desc>
<speed>0.000000</speed>
</trkpt>
<trkpt lat="56.097084" lon="26.546780">
<ele>106.569397</ele>
<time>2010-08-29T14:12:12Z</time>
<desc>lat.=56.097084, lon.=26.546780, Alt.=106.569397m. Speed=0.000000m/h.</desc>
<speed>0.000000</speed>
</trkpt>
<trkpt lat="56.097084" lon="26.546780">
<ele>106.551819</ele>
<time>2010-08-29T14:12:13Z</time>
<desc>lat.=56.097084, lon.=26.546780, Alt.=106.551819m. Speed=0.000000m/h.</desc>
<speed>0.000000</speed>
</trkpt>
<trkpt lat="56.097084" lon="26.546780">
<ele>106.530334</ele>
<time>2010-08-29T14:12:14Z</time>
<desc>lat.=56.097084, lon.=26.546780, Alt.=106.530334m. Speed=0.000000m/h.</desc>
<speed>0.000000</speed>
</trkpt>
<trkpt lat="56.097084" lon="26.546780">
<ele>106.512756</ele>
<time>2010-08-29T14:12:15Z</time>
<desc>lat.=56.097084, lon.=26.546780, Alt.=106.512756m. Speed=0.000000m/h.</desc>
<speed>0.000000</speed>
</trkpt>
<trkpt lat="56.097084" lon="26.546778">
<ele>106.499084</ele>
<time>2010-08-29T14:12:16Z</time>
<desc>lat.=56.097084, lon.=26.546778, Alt.=106.499084m. Speed=0.000000m/h.</desc>
<speed>0.000000</speed>
</trkpt>
<trkpt lat="56.097084" lon="26.546778">
<ele>106.487366</ele>
<time>2010-08-29T14:12:17Z</time>
<desc>lat.=56.097084, lon.=26.546778, Alt.=106.487366m. Speed=0.000000m/h.</desc>
<speed>0.000000</speed>
</trkpt>
<trkpt lat="56.097084" lon="26.546778">
<ele>106.479553</ele>
<time>2010-08-29T14:12:18Z</time>
<desc>lat.=56.097084, lon.=26.546778, Alt.=106.479553m. Speed=0.000000m/h.</desc>
<speed>0.000000</speed>
</trkpt>
<trkpt lat="56.097084" lon="26.546778">
<ele>106.469788</ele>
<time>2010-08-29T14:12:19Z</time>
<desc>lat.=56.097084, lon.=26.546778, Alt.=106.469788m. Speed=0.000000m/h.</desc>
<speed>0.000000</speed>
</trkpt>
<trkpt lat="56.097084" lon="26.546778">
<ele>106.458069</ele>
<time>2010-08-29T14:12:20Z</time>
<desc>lat.=56.097084, lon.=26.546778, Alt.=106.458069m. Speed=0.000000m/h.</desc>
<speed>0.000000</speed>
</trkpt>
<trkpt lat="56.097084" lon="26.546778">
<ele>106.452209</ele>
<time>2010-08-29T14:12:21Z</time>
<desc>lat.=56.097084, lon.=26.546778, Alt.=106.452209m. Speed=0.000000m/h.</desc>
<speed>0.000000</speed>
</trkpt>
<trkpt lat="56.097084" lon="26.546778">
<ele>106.444397</ele>
<time>2010-08-29T14:12:22Z</time>
<desc>lat.=56.097084, lon.=26.546778, Alt.=106.444397m. Speed=0.000000m/h.</desc>
<speed>0.000000</speed>
</trkpt>
<trkpt lat="56.097084" lon="26.546778">
<ele>106.432678</ele>
<time>2010-08-29T14:12:23Z</time>
<desc>lat.=56.097084, lon.=26.546778, Alt.=106.432678m. Speed=0.000000m/h.</desc>
<speed>0.000000</speed>
</trkpt>
<trkpt lat="56.097084" lon="26.546778">
<ele>106.424866</ele>
<time>2010-08-29T14:12:24Z</time>
<desc>lat.=56.097084, lon.=26.546778, Alt.=106.424866m. Speed=0.000000m/h.</desc>
<speed>0.000000</speed>
</trkpt>
<trkpt lat="56.097084" lon="26.546778">
<ele>106.419006</ele>
<time>2010-08-29T14:12:25Z</time>
<desc>lat.=56.097084, lon.=26.546778, Alt.=106.419006m. Speed=0.000000m/h.</desc>
<speed>0.000000</speed>
</trkpt>
<trkpt lat="56.097084" lon="26.546778">
<ele>106.411194</ele>
<time>2010-08-29T14:12:26Z</time>
<desc>lat.=56.097084, lon.=26.546778, Alt.=106.411194m. Speed=0.000000m/h.</desc>
<speed>0.000000</speed>
</trkpt>
<trkpt lat="56.097084" lon="26.546778">
<ele>106.405334</ele>
<time>2010-08-29T14:12:27Z</time>
<desc>lat.=56.097084, lon.=26.546778, Alt.=106.405334m. Speed=0.036000m/h.</desc>
<speed>0.010000</speed>
</trkpt>
<trkpt lat="56.097084" lon="26.546778">
<ele>106.403381</ele>
<time>2010-08-29T14:12:28Z</time>
<desc>lat.=56.097084, lon.=26.546778, Alt.=106.403381m. Speed=0.036000m/h.</desc>
<speed>0.010000</speed>
</trkpt>
<trkpt lat="56.097084" lon="26.546778">
<ele>106.401428</ele>
<time>2010-08-29T14:12:29Z</time>
<desc>lat.=56.097084, lon.=26.546778, Alt.=106.401428m. Speed=0.036000m/h.</desc>
<speed>0.010000</speed>
</trkpt>
<trkpt lat="56.097084" lon="26.546778">
<ele>106.397522</ele>
<time>2010-08-29T14:12:30Z</time>
<desc>lat.=56.097084, lon.=26.546778, Alt.=106.397522m. Speed=0.000000m/h.</desc>
<speed>0.000000</speed>
</trkpt>
<trkpt lat="56.097084" lon="26.546778">
<ele>106.395569</ele>
<time>2010-08-29T14:12:31Z</time>
<desc>lat.=56.097084, lon.=26.546778, Alt.=106.395569m. Speed=0.000000m/h.</desc>
<speed>0.000000</speed>
</trkpt>
<trkpt lat="56.097084" lon="26.546778">
<ele>106.391663</ele>
<time>2010-08-29T14:12:32Z</time>
<desc>lat.=56.097084, lon.=26.546778, Alt.=106.391663m. Speed=0.000000m/h.</desc>
<speed>0.000000</speed>
</trkpt>
<trkpt lat="56.097084" lon="26.546778">
<ele>106.393616</ele>
<time>2010-08-29T14:12:33Z</time>
<desc>lat.=56.097084, lon.=26.546778, Alt.=106.393616m. Speed=0.000000m/h.</desc>
<speed>0.000000</speed>
</trkpt>
<trkpt lat="56.097084" lon="26.546776">
<ele>106.391663</ele>
<time>2010-08-29T14:12:34Z</time>
<desc>lat.=56.097084, lon.=26.546776, Alt.=106.391663m. Speed=0.000000m/h.</desc>
<speed>0.000000</speed>
</trkpt>
<trkpt lat="56.097084" lon="26.546776">
<ele>106.387756</ele>
<time>2010-08-29T14:12:35Z</time>
<desc>lat.=56.097084, lon.=26.546776, Alt.=106.387756m. Speed=0.000000m/h.</desc>
<speed>0.000000</speed>
</trkpt>
<trkpt lat="56.097084" lon="26.546776">
<ele>106.385803</ele>
<time>2010-08-29T14:12:36Z</time>
<desc>lat.=56.097084, lon.=26.546776, Alt.=106.385803m. Speed=0.000000m/h.</desc>
<speed>0.000000</speed>
</trkpt>
<trkpt lat="56.097084" lon="26.546776">
<ele>106.385803</ele>
<time>2010-08-29T14:12:37Z</time>
<desc>lat.=56.097084, lon.=26.546776, Alt.=106.385803m. Speed=0.000000m/h.</desc>
<speed>0.000000</speed>
</trkpt>
<trkpt lat="56.097084" lon="26.546776">
<ele>106.381897</ele>
<time>2010-08-29T14:12:38Z</time>
<desc>lat.=56.097084, lon.=26.546776, Alt.=106.381897m. Speed=0.000000m/h.</desc>
<speed>0.000000</speed>
</trkpt>
<trkpt lat="56.097084" lon="26.546776">
<ele>106.383850</ele>
<time>2010-08-29T14:12:39Z</time>
<desc>lat.=56.097084, lon.=26.546776, Alt.=106.383850m. Speed=0.000000m/h.</desc>
<speed>0.000000</speed>
</trkpt>
<trkpt lat="56.097084" lon="26.546776">
<ele>106.383850</ele>
<time>2010-08-29T14:12:40Z</time>
<desc>lat.=56.097084, lon.=26.546776, Alt.=106.383850m. Speed=0.000000m/h.</desc>
<speed>0.000000</speed>
</trkpt>
<trkpt lat="56.097084" lon="26.546776">
<ele>106.383850</ele>
<time>2010-08-29T14:12:41Z</time>
<desc>lat.=56.097084, lon.=26.546776, Alt.=106.383850m. Speed=0.000000m/h.</desc>
<speed>0.000000</speed>
</trkpt>
<trkpt lat="56.097084" lon="26.546776">
<ele>106.383850</ele>
<time>2010-08-29T14:12:42Z</time>
<desc>lat.=56.097084, lon.=26.546776, Alt.=106.383850m. Speed=0.000000m/h.</desc>
<speed>0.000000</speed>
</trkpt>
<trkpt lat="56.097084" lon="26.546776">
<ele>106.381897</ele>
<time>2010-08-29T14:12:43Z</time>
<desc>lat.=56.097084, lon.=26.546776, Alt.=106.381897m. Speed=0.000000m/h.</desc>
<speed>0.000000</speed>
</trkpt>
<trkpt lat="56.097084" lon="26.546776">
<ele>106.383850</ele>
<time>2010-08-29T14:12:44Z</time>
<desc>lat.=56.097084, lon.=26.546776, Alt.=106.383850m. Speed=0.000000m/h.</desc>
<speed>0.000000</speed>
</trkpt>
<trkpt lat="56.097084" lon="26.546776">
<ele>106.385803</ele>
<time>2010-08-29T14:12:45Z</time>
<desc>lat.=56.097084, lon.=26.546776, Alt.=106.385803m. Speed=0.000000m/h.</desc>
<speed>0.000000</speed>
</trkpt>
<trkpt lat="56.097084" lon="26.546776">
<ele>106.385803</ele>
<time>2010-08-29T14:12:46Z</time>
<desc>lat.=56.097084, lon.=26.546776, Alt.=106.385803m. Speed=0.000000m/h.</desc>
<speed>0.000000</speed>
</trkpt>
<trkpt lat="56.097084" lon="26.546776">
<ele>106.387756</ele>
<time>2010-08-29T14:12:47Z</time>
<desc>lat.=56.097084, lon.=26.546776, Alt.=106.387756m. Speed=0.000000m/h.</desc>
<speed>0.000000</speed>
</trkpt>
<trkpt lat="56.097084" lon="26.546776">
<ele>106.389709</ele>
<time>2010-08-29T14:12:48Z</time>
<desc>lat.=56.097084, lon.=26.546776, Alt.=106.389709m. Speed=0.000000m/h.</desc>
<speed>0.000000</speed>
</trkpt>
<trkpt lat="56.097084" lon="26.546776">
<ele>106.391663</ele>
<time>2010-08-29T14:12:49Z</time>
<desc>lat.=56.097084, lon.=26.546776, Alt.=106.391663m. Speed=0.000000m/h.</desc>
<speed>0.000000</speed>
</trkpt>
<trkpt lat="56.097084" lon="26.546776">
<ele>106.393616</ele>
<time>2010-08-29T14:12:50Z</time>
<desc>lat.=56.097084, lon.=26.546776, Alt.=106.393616m. Speed=0.000000m/h.</desc>
<speed>0.000000</speed>
</trkpt>
<trkpt lat="56.097084" lon="26.546776">
<ele>106.393616</ele>
<time>2010-08-29T14:12:51Z</time>
<desc>lat.=56.097084, lon.=26.546776, Alt.=106.393616m. Speed=0.000000m/h.</desc>
<speed>0.000000</speed>
</trkpt>
<trkpt lat="56.097084" lon="26.546776">
<ele>106.391663</ele>
<time>2010-08-29T14:12:52Z</time>
<desc>lat.=56.097084, lon.=26.546776, Alt.=106.391663m. Speed=0.000000m/h.</desc>
<speed>0.000000</speed>
</trkpt>
<trkpt lat="56.097084" lon="26.546774">
<ele>106.393616</ele>
<time>2010-08-29T14:12:53Z</time>
<desc>lat.=56.097084, lon.=26.546774, Alt.=106.393616m. Speed=0.000000m/h.</desc>
<speed>0.000000</speed>
</trkpt>
<trkpt lat="56.097084" lon="26.546774">
<ele>106.393616</ele>
<time>2010-08-29T14:12:54Z</time>
<desc>lat.=56.097084, lon.=26.546774, Alt.=106.393616m. Speed=0.000000m/h.</desc>
<speed>0.000000</speed>
</trkpt>
<trkpt lat="56.097084" lon="26.546774">
<ele>106.395569</ele>
<time>2010-08-29T14:12:55Z</time>
<desc>lat.=56.097084, lon.=26.546774, Alt.=106.395569m. Speed=0.000000m/h.</desc>
<speed>0.000000</speed>
</trkpt>
<trkpt lat="56.097084" lon="26.546774">
<ele>106.397522</ele>
<time>2010-08-29T14:12:56Z</time>
<desc>lat.=56.097084, lon.=26.546774, Alt.=106.397522m. Speed=0.000000m/h.</desc>
<speed>0.000000</speed>
</trkpt>
<trkpt lat="56.097084" lon="26.546774">
<ele>106.397522</ele>
<time>2010-08-29T14:12:57Z</time>
<desc>lat.=56.097084, lon.=26.546774, Alt.=106.397522m. Speed=0.000000m/h.</desc>
<speed>0.000000</speed>
</trkpt>
<trkpt lat="56.097084" lon="26.546774">
<ele>106.397522</ele>
<time>2010-08-29T14:12:58Z</time>
<desc>lat.=56.097084, lon.=26.546774, Alt.=106.397522m. Speed=0.000000m/h.</desc>
<speed>0.000000</speed>
</trkpt>
<trkpt lat="56.097084" lon="26.546774">
<ele>106.399475</ele>
<time>2010-08-29T14:12:59Z</time>
<desc>lat.=56.097084, lon.=26.546774, Alt.=106.399475m. Speed=0.000000m/h.</desc>
<speed>0.000000</speed>
</trkpt>
<trkpt lat="56.097084" lon="26.546774">
<ele>106.399475</ele>
<time>2010-08-29T14:13:00Z</time>
<desc>lat.=56.097084, lon.=26.546774, Alt.=106.399475m. Speed=0.000000m/h.</desc>
<speed>0.000000</speed>
</trkpt>
<trkpt lat="56.097088" lon="26.546774">
<ele>106.399475</ele>
<time>2010-08-29T14:13:01Z</time>
<desc>lat.=56.097088, lon.=26.546774, Alt.=106.399475m. Speed=0.000000m/h.</desc>
<speed>0.000000</speed>
</trkpt>
<trkpt lat="56.097088" lon="26.546774">
<ele>106.399475</ele>
<time>2010-08-29T14:13:02Z</time>
<desc>lat.=56.097088, lon.=26.546774, Alt.=106.399475m. Speed=0.000000m/h.</desc>
<speed>0.000000</speed>
</trkpt>
<trkpt lat="56.097088" lon="26.546774">
<ele>106.399475</ele>
<time>2010-08-29T14:13:03Z</time>
<desc>lat.=56.097088, lon.=26.546774, Alt.=106.399475m. Speed=0.000000m/h.</desc>
<speed>0.000000</speed>
</trkpt>
<trkpt lat="56.097088" lon="26.546774">
<ele>106.401428</ele>
<time>2010-08-29T14:13:04Z</time>
<desc>lat.=56.097088, lon.=26.546774, Alt.=106.401428m. Speed=0.000000m/h.</desc>
<speed>0.000000</speed>
</trkpt>
<trkpt lat="56.097088" lon="26.546774">
<ele>106.401428</ele>
<time>2010-08-29T14:13:05Z</time>
<desc>lat.=56.097088, lon.=26.546774, Alt.=106.401428m. Speed=0.000000m/h.</desc>
<speed>0.000000</speed>
</trkpt>
<trkpt lat="56.097088" lon="26.546774">
<ele>106.405334</ele>
<time>2010-08-29T14:13:06Z</time>
<desc>lat.=56.097088, lon.=26.546774, Alt.=106.405334m. Speed=0.000000m/h.</desc>
<speed>0.000000</speed>
</trkpt>
<trkpt lat="56.097088" lon="26.546774">
<ele>106.403381</ele>
<time>2010-08-29T14:13:07Z</time>
<desc>lat.=56.097088, lon.=26.546774, Alt.=106.403381m. Speed=0.000000m/h.</desc>
<speed>0.000000</speed>
</trkpt>
<trkpt lat="56.097088" lon="26.546774">
<ele>106.403381</ele>
<time>2010-08-29T14:13:08Z</time>
<desc>lat.=56.097088, lon.=26.546774, Alt.=106.403381m. Speed=0.000000m/h.</desc>
<speed>0.000000</speed>
</trkpt>
<trkpt lat="56.097088" lon="26.546774">
<ele>106.403381</ele>
<time>2010-08-29T14:13:09Z</time>
<desc>lat.=56.097088, lon.=26.546774, Alt.=106.403381m. Speed=0.000000m/h.</desc>
<speed>0.000000</speed>
</trkpt>
<trkpt lat="56.097088" lon="26.546774">
<ele>106.403381</ele>
<time>2010-08-29T14:13:10Z</time>
<desc>lat.=56.097088, lon.=26.546774, Alt.=106.403381m. Speed=0.000000m/h.</desc>
<speed>0.000000</speed>
</trkpt>
<trkpt lat="56.097088" lon="26.546774">
<ele>106.405334</ele>
<time>2010-08-29T14:13:11Z</time>
<desc>lat.=56.097088, lon.=26.546774, Alt.=106.405334m. Speed=0.000000m/h.</desc>
<speed>0.000000</speed>
</trkpt>
<trkpt lat="56.097088" lon="26.546774">
<ele>106.405334</ele>
<time>2010-08-29T14:13:12Z</time>
<desc>lat.=56.097088, lon.=26.546774, Alt.=106.405334m. Speed=0.000000m/h.</desc>
<speed>0.000000</speed>
</trkpt>
<trkpt lat="56.097088" lon="26.546774">
<ele>106.405334</ele>
<time>2010-08-29T14:13:13Z</time>
<desc>lat.=56.097088, lon.=26.546774, Alt.=106.405334m. Speed=0.000000m/h.</desc>
<speed>0.000000</speed>
</trkpt>
<trkpt lat="56.097088" lon="26.546772">
<ele>106.405334</ele>
<time>2010-08-29T14:13:14Z</time>
<desc>lat.=56.097088, lon.=26.546772, Alt.=106.405334m. Speed=0.000000m/h.</desc>
<speed>0.000000</speed>
</trkpt>
<trkpt lat="56.097088" lon="26.546772">
<ele>106.407288</ele>
<time>2010-08-29T14:13:15Z</time>
<desc>lat.=56.097088, lon.=26.546772, Alt.=106.407288m. Speed=0.000000m/h.</desc>
<speed>0.000000</speed>
</trkpt>
<trkpt lat="56.097088" lon="26.546772">
<ele>106.407288</ele>
<time>2010-08-29T14:13:16Z</time>
<desc>lat.=56.097088, lon.=26.546772, Alt.=106.407288m. Speed=0.000000m/h.</desc>
<speed>0.000000</speed>
</trkpt>
<trkpt lat="56.097088" lon="26.546772">
<ele>106.409241</ele>
<time>2010-08-29T14:13:17Z</time>
<desc>lat.=56.097088, lon.=26.546772, Alt.=106.409241m. Speed=0.000000m/h.</desc>
<speed>0.000000</speed>
</trkpt>
<trkpt lat="56.097088" lon="26.546772">
<ele>106.409241</ele>
<time>2010-08-29T14:13:18Z</time>
<desc>lat.=56.097088, lon.=26.546772, Alt.=106.409241m. Speed=0.000000m/h.</desc>
<speed>0.000000</speed>
</trkpt>
<trkpt lat="56.097088" lon="26.546772">
<ele>106.407288</ele>
<time>2010-08-29T14:13:19Z</time>
<desc>lat.=56.097088, lon.=26.546772, Alt.=106.407288m. Speed=0.000000m/h.</desc>
<speed>0.000000</speed>
</trkpt>
<trkpt lat="56.097088" lon="26.546772">
<ele>106.407288</ele>
<time>2010-08-29T14:13:20Z</time>
<desc>lat.=56.097088, lon.=26.546772, Alt.=106.407288m. Speed=0.000000m/h.</desc>
<speed>0.000000</speed>
</trkpt>
<trkpt lat="56.097088" lon="26.546772">
<ele>106.407288</ele>
<time>2010-08-29T14:13:21Z</time>
<desc>lat.=56.097088, lon.=26.546772, Alt.=106.407288m. Speed=0.000000m/h.</desc>
<speed>0.000000</speed>
</trkpt>
<trkpt lat="56.097088" lon="26.546772">
<ele>106.407288</ele>
<time>2010-08-29T14:13:22Z</time>
<desc>lat.=56.097088, lon.=26.546772, Alt.=106.407288m. Speed=0.000000m/h.</desc>
<speed>0.000000</speed>
</trkpt>
<trkpt lat="56.097088" lon="26.546772">
<ele>106.407288</ele>
<time>2010-08-29T14:13:23Z</time>
<desc>lat.=56.097088, lon.=26.546772, Alt.=106.407288m. Speed=0.000000m/h.</desc>
<speed>0.000000</speed>
</trkpt>
<trkpt lat="56.097088" lon="26.546772">
<ele>106.407288</ele>
<time>2010-08-29T14:13:24Z</time>
<desc>lat.=56.097088, lon.=26.546772, Alt.=106.407288m. Speed=0.000000m/h.</desc>
<speed>0.000000</speed>
</trkpt>
<trkpt lat="56.097088" lon="26.546772">
<ele>106.409241</ele>
<time>2010-08-29T14:13:25Z</time>
<desc>lat.=56.097088, lon.=26.546772, Alt.=106.409241m. Speed=0.000000m/h.</desc>
<speed>0.000000</speed>
</trkpt>
<trkpt lat="56.097088" lon="26.546772">
<ele>106.409241</ele>
<time>2010-08-29T14:13:26Z</time>
<desc>lat.=56.097088, lon.=26.546772, Alt.=106.409241m. Speed=0.000000m/h.</desc>
<speed>0.000000</speed>
</trkpt>
<trkpt lat="56.097088" lon="26.546772">
<ele>106.411194</ele>
<time>2010-08-29T14:13:27Z</time>
<desc>lat.=56.097088, lon.=26.546772, Alt.=106.411194m. Speed=0.000000m/h.</desc>
<speed>0.000000</speed>
</trkpt>
<trkpt lat="56.097088" lon="26.546772">
<ele>106.415100</ele>
<time>2010-08-29T14:13:28Z</time>
<desc>lat.=56.097088, lon.=26.546772, Alt.=106.415100m. Speed=0.000000m/h.</desc>
<speed>0.000000</speed>
</trkpt>
<trkpt lat="56.097088" lon="26.546772">
<ele>106.415100</ele>
<time>2010-08-29T14:13:29Z</time>
<desc>lat.=56.097088, lon.=26.546772, Alt.=106.415100m. Speed=0.000000m/h.</desc>
<speed>0.000000</speed>
</trkpt>
<trkpt lat="56.097088" lon="26.546772">
<ele>106.415100</ele>
<time>2010-08-29T14:13:30Z</time>
<desc>lat.=56.097088, lon.=26.546772, Alt.=106.415100m. Speed=0.000000m/h.</desc>
<speed>0.000000</speed>
</trkpt>
<trkpt lat="56.097088" lon="26.546772">
<ele>106.415100</ele>
<time>2010-08-29T14:13:31Z</time>
<desc>lat.=56.097088, lon.=26.546772, Alt.=106.415100m. Speed=0.000000m/h.</desc>
<speed>0.000000</speed>
</trkpt>
<trkpt lat="56.097088" lon="26.546772">
<ele>106.415100</ele>
<time>2010-08-29T14:13:32Z</time>
<desc>lat.=56.097088, lon.=26.546772, Alt.=106.415100m. Speed=0.000000m/h.</desc>
<speed>0.000000</speed>
</trkpt>
<trkpt lat="56.097088" lon="26.546772">
<ele>106.417053</ele>
<time>2010-08-29T14:13:33Z</time>
<desc>lat.=56.097088, lon.=26.546772, Alt.=106.417053m. Speed=0.000000m/h.</desc>
<speed>0.000000</speed>
</trkpt>
<trkpt lat="56.097088" lon="26.546772">
<ele>106.417053</ele>
<time>2010-08-29T14:13:34Z</time>
<desc>lat.=56.097088, lon.=26.546772, Alt.=106.417053m. Speed=0.000000m/h.</desc>
<speed>0.000000</speed>
</trkpt>
<trkpt lat="56.097088" lon="26.546772">
<ele>106.419006</ele>
<time>2010-08-29T14:13:35Z</time>
<desc>lat.=56.097088, lon.=26.546772, Alt.=106.419006m. Speed=0.000000m/h.</desc>
<speed>0.000000</speed>
</trkpt>
<trkpt lat="56.097088" lon="26.546772">
<ele>106.417053</ele>
<time>2010-08-29T14:13:36Z</time>
<desc>lat.=56.097088, lon.=26.546772, Alt.=106.417053m. Speed=0.000000m/h.</desc>
<speed>0.000000</speed>
</trkpt>
<trkpt lat="56.097088" lon="26.546772">
<ele>106.417053</ele>
<time>2010-08-29T14:13:37Z</time>
<desc>lat.=56.097088, lon.=26.546772, Alt.=106.417053m. Speed=0.000000m/h.</desc>
<speed>0.000000</speed>
</trkpt>
<trkpt lat="56.097088" lon="26.546772">
<ele>106.417053</ele>
<time>2010-08-29T14:13:38Z</time>
<desc>lat.=56.097088, lon.=26.546772, Alt.=106.417053m. Speed=0.000000m/h.</desc>
<speed>0.000000</speed>
</trkpt>
<trkpt lat="56.097088" lon="26.546772">
<ele>106.417053</ele>
<time>2010-08-29T14:13:39Z</time>
<desc>lat.=56.097088, lon.=26.546772, Alt.=106.417053m. Speed=0.000000m/h.</desc>
<speed>0.000000</speed>
</trkpt>
<trkpt lat="56.097088" lon="26.546772">
<ele>106.417053</ele>
<time>2010-08-29T14:13:40Z</time>
<desc>lat.=56.097088, lon.=26.546772, Alt.=106.417053m. Speed=0.000000m/h.</desc>
<speed>0.000000</speed>
</trkpt>
<trkpt lat="56.097088" lon="26.546772">
<ele>106.415100</ele>
<time>2010-08-29T14:13:41Z</time>
<desc>lat.=56.097088, lon.=26.546772, Alt.=106.415100m. Speed=0.000000m/h.</desc>
<speed>0.000000</speed>
</trkpt>
<trkpt lat="56.097088" lon="26.546772">
<ele>106.413147</ele>
<time>2010-08-29T14:13:42Z</time>
<desc>lat.=56.097088, lon.=26.546772, Alt.=106.413147m. Speed=0.000000m/h.</desc>
<speed>0.000000</speed>
</trkpt>
<trkpt lat="56.097088" lon="26.546772">
<ele>106.409241</ele>
<time>2010-08-29T14:13:43Z</time>
<desc>lat.=56.097088, lon.=26.546772, Alt.=106.409241m. Speed=0.000000m/h.</desc>
<speed>0.000000</speed>
</trkpt>
<trkpt lat="56.097088" lon="26.546772">
<ele>106.405334</ele>
<time>2010-08-29T14:13:44Z</time>
<desc>lat.=56.097088, lon.=26.546772, Alt.=106.405334m. Speed=0.000000m/h.</desc>
<speed>0.000000</speed>
</trkpt>
<trkpt lat="56.097088" lon="26.546772">
<ele>106.401428</ele>
<time>2010-08-29T14:13:45Z</time>
<desc>lat.=56.097088, lon.=26.546772, Alt.=106.401428m. Speed=0.000000m/h.</desc>
<speed>0.000000</speed>
</trkpt>
<trkpt lat="56.097088" lon="26.546772">
<ele>106.397522</ele>
<time>2010-08-29T14:13:46Z</time>
<desc>lat.=56.097088, lon.=26.546772, Alt.=106.397522m. Speed=0.000000m/h.</desc>
<speed>0.000000</speed>
</trkpt>
<trkpt lat="56.097088" lon="26.546772">
<ele>106.393616</ele>
<time>2010-08-29T14:13:47Z</time>
<desc>lat.=56.097088, lon.=26.546772, Alt.=106.393616m. Speed=0.000000m/h.</desc>
<speed>0.000000</speed>
</trkpt>
<trkpt lat="56.097088" lon="26.546772">
<ele>106.389709</ele>
<time>2010-08-29T14:13:48Z</time>
<desc>lat.=56.097088, lon.=26.546772, Alt.=106.389709m. Speed=0.000000m/h.</desc>
<speed>0.000000</speed>
</trkpt>
<trkpt lat="56.097088" lon="26.546772">
<ele>106.385803</ele>
<time>2010-08-29T14:13:49Z</time>
<desc>lat.=56.097088, lon.=26.546772, Alt.=106.385803m. Speed=0.000000m/h.</desc>
<speed>0.000000</speed>
</trkpt>
<trkpt lat="56.097088" lon="26.546772">
<ele>106.383850</ele>
<time>2010-08-29T14:13:50Z</time>
<desc>lat.=56.097088, lon.=26.546772, Alt.=106.383850m. Speed=0.000000m/h.</desc>
<speed>0.000000</speed>
</trkpt>
<trkpt lat="56.097088" lon="26.546772">
<ele>106.377991</ele>
<time>2010-08-29T14:13:51Z</time>
<desc>lat.=56.097088, lon.=26.546772, Alt.=106.377991m. Speed=0.000000m/h.</desc>
<speed>0.000000</speed>
</trkpt>
<trkpt lat="56.097088" lon="26.546772">
<ele>106.376038</ele>
<time>2010-08-29T14:13:52Z</time>
<desc>lat.=56.097088, lon.=26.546772, Alt.=106.376038m. Speed=0.000000m/h.</desc>
<speed>0.000000</speed>
</trkpt>
<trkpt lat="56.097088" lon="26.546772">
<ele>106.374084</ele>
<time>2010-08-29T14:13:53Z</time>
<desc>lat.=56.097088, lon.=26.546772, Alt.=106.374084m. Speed=0.000000m/h.</desc>
<speed>0.000000</speed>
</trkpt>
<trkpt lat="56.097088" lon="26.546772">
<ele>106.370178</ele>
<time>2010-08-29T14:13:54Z</time>
<desc>lat.=56.097088, lon.=26.546772, Alt.=106.370178m. Speed=0.000000m/h.</desc>
<speed>0.000000</speed>
</trkpt>
<trkpt lat="56.097088" lon="26.546772">
<ele>106.368225</ele>
<time>2010-08-29T14:13:55Z</time>
<desc>lat.=56.097088, lon.=26.546772, Alt.=106.368225m. Speed=0.000000m/h.</desc>
<speed>0.000000</speed>
</trkpt>
<trkpt lat="56.097088" lon="26.546772">
<ele>106.364319</ele>
<time>2010-08-29T14:13:56Z</time>
<desc>lat.=56.097088, lon.=26.546772, Alt.=106.364319m. Speed=0.000000m/h.</desc>
<speed>0.000000</speed>
</trkpt>
<trkpt lat="56.097088" lon="26.546772">
<ele>106.362366</ele>
<time>2010-08-29T14:13:57Z</time>
<desc>lat.=56.097088, lon.=26.546772, Alt.=106.362366m. Speed=0.000000m/h.</desc>
<speed>0.000000</speed>
</trkpt>
<trkpt lat="56.097088" lon="26.546772">
<ele>106.362366</ele>
<time>2010-08-29T14:13:58Z</time>
<desc>lat.=56.097088, lon.=26.546772, Alt.=106.362366m. Speed=0.000000m/h.</desc>
<speed>0.000000</speed>
</trkpt>
<trkpt lat="56.097088" lon="26.546772">
<ele>106.360413</ele>
<time>2010-08-29T14:13:59Z</time>
<desc>lat.=56.097088, lon.=26.546772, Alt.=106.360413m. Speed=0.000000m/h.</desc>
<speed>0.000000</speed>
</trkpt>
<trkpt lat="56.097088" lon="26.546772">
<ele>106.358459</ele>
<time>2010-08-29T14:14:00Z</time>
<desc>lat.=56.097088, lon.=26.546772, Alt.=106.358459m. Speed=0.000000m/h.</desc>
<speed>0.000000</speed>
</trkpt>
<trkpt lat="56.097088" lon="26.546772">
<ele>106.356506</ele>
<time>2010-08-29T14:14:01Z</time>
<desc>lat.=56.097088, lon.=26.546772, Alt.=106.356506m. Speed=0.000000m/h.</desc>
<speed>0.000000</speed>
</trkpt>
<trkpt lat="56.097088" lon="26.546772">
<ele>106.356506</ele>
<time>2010-08-29T14:14:02Z</time>
<desc>lat.=56.097088, lon.=26.546772, Alt.=106.356506m. Speed=0.000000m/h.</desc>
<speed>0.000000</speed>
</trkpt>
<trkpt lat="56.097088" lon="26.546772">
<ele>106.352600</ele>
<time>2010-08-29T14:14:03Z</time>
<desc>lat.=56.097088, lon.=26.546772, Alt.=106.352600m. Speed=0.000000m/h.</desc>
<speed>0.000000</speed>
</trkpt>
<trkpt lat="56.097088" lon="26.546772">
<ele>106.352600</ele>
<time>2010-08-29T14:14:04Z</time>
<desc>lat.=56.097088, lon.=26.546772, Alt.=106.352600m. Speed=0.000000m/h.</desc>
<speed>0.000000</speed>
</trkpt>
<trkpt lat="56.097088" lon="26.546772">
<ele>106.348694</ele>
<time>2010-08-29T14:14:05Z</time>
<desc>lat.=56.097088, lon.=26.546772, Alt.=106.348694m. Speed=0.000000m/h.</desc>
<speed>0.000000</speed>
</trkpt>
<trkpt lat="56.097088" lon="26.546772">
<ele>106.348694</ele>
<time>2010-08-29T14:14:06Z</time>
<desc>lat.=56.097088, lon.=26.546772, Alt.=106.348694m. Speed=0.000000m/h.</desc>
<speed>0.000000</speed>
</trkpt>
<trkpt lat="56.097088" lon="26.546772">
<ele>106.346741</ele>
<time>2010-08-29T14:14:07Z</time>
<desc>lat.=56.097088, lon.=26.546772, Alt.=106.346741m. Speed=0.000000m/h.</desc>
<speed>0.000000</speed>
</trkpt>
<trkpt lat="56.097088" lon="26.546772">
<ele>106.344788</ele>
<time>2010-08-29T14:14:08Z</time>
<desc>lat.=56.097088, lon.=26.546772, Alt.=106.344788m. Speed=0.000000m/h.</desc>
<speed>0.000000</speed>
</trkpt>
<trkpt lat="56.097088" lon="26.546772">
<ele>106.346741</ele>
<time>2010-08-29T14:14:09Z</time>
<desc>lat.=56.097088, lon.=26.546772, Alt.=106.346741m. Speed=0.000000m/h.</desc>
<speed>0.000000</speed>
</trkpt>
<trkpt lat="56.097088" lon="26.546772">
<ele>106.344788</ele>
<time>2010-08-29T14:14:10Z</time>
<desc>lat.=56.097088, lon.=26.546772, Alt.=106.344788m. Speed=0.000000m/h.</desc>
<speed>0.000000</speed>
</trkpt>
<trkpt lat="56.097088" lon="26.546772">
<ele>106.344788</ele>
<time>2010-08-29T14:14:11Z</time>
<desc>lat.=56.097088, lon.=26.546772, Alt.=106.344788m. Speed=0.000000m/h.</desc>
<speed>0.000000</speed>
</trkpt>
<trkpt lat="56.097092" lon="26.546772">
<ele>106.346741</ele>
<time>2010-08-29T14:14:12Z</time>
<desc>lat.=56.097092, lon.=26.546772, Alt.=106.346741m. Speed=0.000000m/h.</desc>
<speed>0.000000</speed>
</trkpt>
<trkpt lat="56.097092" lon="26.546772">
<ele>106.346741</ele>
<time>2010-08-29T14:14:13Z</time>
<desc>lat.=56.097092, lon.=26.546772, Alt.=106.346741m. Speed=0.000000m/h.</desc>
<speed>0.000000</speed>
</trkpt>
<trkpt lat="56.097092" lon="26.546770">
<ele>106.346741</ele>
<time>2010-08-29T14:14:14Z</time>
<desc>lat.=56.097092, lon.=26.546770, Alt.=106.346741m. Speed=0.000000m/h.</desc>
<speed>0.000000</speed>
</trkpt>
<trkpt lat="56.097092" lon="26.546770">
<ele>106.346741</ele>
<time>2010-08-29T14:14:15Z</time>
<desc>lat.=56.097092, lon.=26.546770, Alt.=106.346741m. Speed=0.000000m/h.</desc>
<speed>0.000000</speed>
</trkpt>
<trkpt lat="56.097092" lon="26.546770">
<ele>106.348694</ele>
<time>2010-08-29T14:14:16Z</time>
<desc>lat.=56.097092, lon.=26.546770, Alt.=106.348694m. Speed=0.000000m/h.</desc>
<speed>0.000000</speed>
</trkpt>
<trkpt lat="56.097092" lon="26.546770">
<ele>106.348694</ele>
<time>2010-08-29T14:14:17Z</time>
<desc>lat.=56.097092, lon.=26.546770, Alt.=106.348694m. Speed=0.000000m/h.</desc>
<speed>0.000000</speed>
</trkpt>
<trkpt lat="56.097092" lon="26.546770">
<ele>106.350647</ele>
<time>2010-08-29T14:14:18Z</time>
<desc>lat.=56.097092, lon.=26.546770, Alt.=106.350647m. Speed=0.000000m/h.</desc>
<speed>0.000000</speed>
</trkpt>
<trkpt lat="56.097092" lon="26.546770">
<ele>106.350647</ele>
<time>2010-08-29T14:14:19Z</time>
<desc>lat.=56.097092, lon.=26.546770, Alt.=106.350647m. Speed=0.000000m/h.</desc>
<speed>0.000000</speed>
</trkpt>
<trkpt lat="56.097092" lon="26.546770">
<ele>106.348694</ele>
<time>2010-08-29T14:14:20Z</time>
<desc>lat.=56.097092, lon.=26.546770, Alt.=106.348694m. Speed=0.000000m/h.</desc>
<speed>0.000000</speed>
</trkpt>
<trkpt lat="56.097092" lon="26.546770">
<ele>106.350647</ele>
<time>2010-08-29T14:14:21Z</time>
<desc>lat.=56.097092, lon.=26.546770, Alt.=106.350647m. Speed=0.000000m/h.</desc>
<speed>0.000000</speed>
</trkpt>
<trkpt lat="56.097092" lon="26.546770">
<ele>106.348694</ele>
<time>2010-08-29T14:14:22Z</time>
<desc>lat.=56.097092, lon.=26.546770, Alt.=106.348694m. Speed=0.000000m/h.</desc>
<speed>0.000000</speed>
</trkpt>
<trkpt lat="56.097092" lon="26.546770">
<ele>106.348694</ele>
<time>2010-08-29T14:14:23Z</time>
<desc>lat.=56.097092, lon.=26.546770, Alt.=106.348694m. Speed=0.000000m/h.</desc>
<speed>0.000000</speed>
</trkpt>
<trkpt lat="56.097092" lon="26.546770">
<ele>106.348694</ele>
<time>2010-08-29T14:14:24Z</time>
<desc>lat.=56.097092, lon.=26.546770, Alt.=106.348694m. Speed=0.000000m/h.</desc>
<speed>0.000000</speed>
</trkpt>
<trkpt lat="56.097092" lon="26.546770">
<ele>106.348694</ele>
<time>2010-08-29T14:14:25Z</time>
<desc>lat.=56.097092, lon.=26.546770, Alt.=106.348694m. Speed=0.000000m/h.</desc>
<speed>0.000000</speed>
</trkpt>
<trkpt lat="56.097092" lon="26.546770">
<ele>106.346741</ele>
<time>2010-08-29T14:14:26Z</time>
<desc>lat.=56.097092, lon.=26.546770, Alt.=106.346741m. Speed=0.000000m/h.</desc>
<speed>0.000000</speed>
</trkpt>
<trkpt lat="56.097092" lon="26.546770">
<ele>106.346741</ele>
<time>2010-08-29T14:14:27Z</time>
<desc>lat.=56.097092, lon.=26.546770, Alt.=106.346741m. Speed=0.000000m/h.</desc>
<speed>0.000000</speed>
</trkpt>
<trkpt lat="56.097092" lon="26.546770">
<ele>106.344788</ele>
<time>2010-08-29T14:14:28Z</time>
<desc>lat.=56.097092, lon.=26.546770, Alt.=106.344788m. Speed=0.000000m/h.</desc>
<speed>0.000000</speed>
</trkpt>
<trkpt lat="56.097092" lon="26.546770">
<ele>106.342834</ele>
<time>2010-08-29T14:14:29Z</time>
<desc>lat.=56.097092, lon.=26.546770, Alt.=106.342834m. Speed=0.000000m/h.</desc>
<speed>0.000000</speed>
</trkpt>
<trkpt lat="56.097092" lon="26.546770">
<ele>106.340881</ele>
<time>2010-08-29T14:14:30Z</time>
<desc>lat.=56.097092, lon.=26.546770, Alt.=106.340881m. Speed=0.000000m/h.</desc>
<speed>0.000000</speed>
</trkpt>
<trkpt lat="56.097092" lon="26.546770">
<ele>106.340881</ele>
<time>2010-08-29T14:14:31Z</time>
<desc>lat.=56.097092, lon.=26.546770, Alt.=106.340881m. Speed=0.000000m/h.</desc>
<speed>0.000000</speed>
</trkpt>
<trkpt lat="56.097092" lon="26.546770">
<ele>106.338928</ele>
<time>2010-08-29T14:14:32Z</time>
<desc>lat.=56.097092, lon.=26.546770, Alt.=106.338928m. Speed=0.000000m/h.</desc>
<speed>0.000000</speed>
</trkpt>
<trkpt lat="56.097092" lon="26.546770">
<ele>106.336975</ele>
<time>2010-08-29T14:14:33Z</time>
<desc>lat.=56.097092, lon.=26.546770, Alt.=106.336975m. Speed=0.036000m/h.</desc>
<speed>0.010000</speed>
</trkpt>
<trkpt lat="56.097092" lon="26.546770">
<ele>106.338928</ele>
<time>2010-08-29T14:14:34Z</time>
<desc>lat.=56.097092, lon.=26.546770, Alt.=106.338928m. Speed=0.000000m/h.</desc>
<speed>0.000000</speed>
</trkpt>
<trkpt lat="56.097092" lon="26.546770">
<ele>106.338928</ele>
<time>2010-08-29T14:14:35Z</time>
<desc>lat.=56.097092, lon.=26.546770, Alt.=106.338928m. Speed=0.000000m/h.</desc>
<speed>0.000000</speed>
</trkpt>
<trkpt lat="56.097092" lon="26.546770">
<ele>106.338928</ele>
<time>2010-08-29T14:14:36Z</time>
<desc>lat.=56.097092, lon.=26.546770, Alt.=106.338928m. Speed=0.000000m/h.</desc>
<speed>0.000000</speed>
</trkpt>
<trkpt lat="56.097092" lon="26.546770">
<ele>106.340881</ele>
<time>2010-08-29T14:14:37Z</time>
<desc>lat.=56.097092, lon.=26.546770, Alt.=106.340881m. Speed=0.000000m/h.</desc>
<speed>0.000000</speed>
</trkpt>
<trkpt lat="56.097092" lon="26.546770">
<ele>106.338928</ele>
<time>2010-08-29T14:14:38Z</time>
<desc>lat.=56.097092, lon.=26.546770, Alt.=106.338928m. Speed=0.000000m/h.</desc>
<speed>0.000000</speed>
</trkpt>
<trkpt lat="56.097092" lon="26.546770">
<ele>106.338928</ele>
<time>2010-08-29T14:14:39Z</time>
<desc>lat.=56.097092, lon.=26.546770, Alt.=106.338928m. Speed=0.000000m/h.</desc>
<speed>0.000000</speed>
</trkpt>
<trkpt lat="56.097092" lon="26.546770">
<ele>106.336975</ele>
<time>2010-08-29T14:14:40Z</time>
<desc>lat.=56.097092, lon.=26.546770, Alt.=106.336975m. Speed=0.000000m/h.</desc>
<speed>0.000000</speed>
</trkpt>
<trkpt lat="56.097092" lon="26.546770">
<ele>106.336975</ele>
<time>2010-08-29T14:14:41Z</time>
<desc>lat.=56.097092, lon.=26.546770, Alt.=106.336975m. Speed=0.000000m/h.</desc>
<speed>0.000000</speed>
</trkpt>
<trkpt lat="56.097092" lon="26.546772">
<ele>106.336975</ele>
<time>2010-08-29T14:14:42Z</time>
<desc>lat.=56.097092, lon.=26.546772, Alt.=106.336975m. Speed=0.000000m/h.</desc>
<speed>0.000000</speed>
</trkpt>
<trkpt lat="56.097092" lon="26.546772">
<ele>106.335022</ele>
<time>2010-08-29T14:14:43Z</time>
<desc>lat.=56.097092, lon.=26.546772, Alt.=106.335022m. Speed=0.000000m/h.</desc>
<speed>0.000000</speed>
</trkpt>
<trkpt lat="56.097092" lon="26.546772">
<ele>106.333069</ele>
<time>2010-08-29T14:14:44Z</time>
<desc>lat.=56.097092, lon.=26.546772, Alt.=106.333069m. Speed=0.000000m/h.</desc>
<speed>0.000000</speed>
</trkpt>
<trkpt lat="56.097092" lon="26.546772">
<ele>106.333069</ele>
<time>2010-08-29T14:14:45Z</time>
<desc>lat.=56.097092, lon.=26.546772, Alt.=106.333069m. Speed=0.000000m/h.</desc>
<speed>0.000000</speed>
</trkpt>
<trkpt lat="56.097092" lon="26.546772">
<ele>106.333069</ele>
<time>2010-08-29T14:14:46Z</time>
<desc>lat.=56.097092, lon.=26.546772, Alt.=106.333069m. Speed=0.000000m/h.</desc>
<speed>0.000000</speed>
</trkpt>
<trkpt lat="56.097092" lon="26.546772">
<ele>106.335022</ele>
<time>2010-08-29T14:14:47Z</time>
<desc>lat.=56.097092, lon.=26.546772, Alt.=106.335022m. Speed=0.000000m/h.</desc>
<speed>0.000000</speed>
</trkpt>
<trkpt lat="56.097092" lon="26.546772">
<ele>106.335022</ele>
<time>2010-08-29T14:14:48Z</time>
<desc>lat.=56.097092, lon.=26.546772, Alt.=106.335022m. Speed=0.000000m/h.</desc>
<speed>0.000000</speed>
</trkpt>
<trkpt lat="56.097092" lon="26.546772">
<ele>106.335022</ele>
<time>2010-08-29T14:14:49Z</time>
<desc>lat.=56.097092, lon.=26.546772, Alt.=106.335022m. Speed=0.000000m/h.</desc>
<speed>0.000000</speed>
</trkpt>
<trkpt lat="56.097092" lon="26.546772">
<ele>106.335022</ele>
<time>2010-08-29T14:14:50Z</time>
<desc>lat.=56.097092, lon.=26.546772, Alt.=106.335022m. Speed=0.000000m/h.</desc>
<speed>0.000000</speed>
</trkpt>
<trkpt lat="56.097092" lon="26.546772">
<ele>106.335022</ele>
<time>2010-08-29T14:14:51Z</time>
<desc>lat.=56.097092, lon.=26.546772, Alt.=106.335022m. Speed=0.000000m/h.</desc>
<speed>0.000000</speed>
</trkpt>
<trkpt lat="56.097092" lon="26.546772">
<ele>106.336975</ele>
<time>2010-08-29T14:14:52Z</time>
<desc>lat.=56.097092, lon.=26.546772, Alt.=106.336975m. Speed=0.000000m/h.</desc>
<speed>0.000000</speed>
</trkpt>
<trkpt lat="56.097092" lon="26.546772">
<ele>106.335022</ele>
<time>2010-08-29T14:14:53Z</time>
<desc>lat.=56.097092, lon.=26.546772, Alt.=106.335022m. Speed=0.000000m/h.</desc>
<speed>0.000000</speed>
</trkpt>
<trkpt lat="56.097092" lon="26.546772">
<ele>106.335022</ele>
<time>2010-08-29T14:14:54Z</time>
<desc>lat.=56.097092, lon.=26.546772, Alt.=106.335022m. Speed=0.000000m/h.</desc>
<speed>0.000000</speed>
</trkpt>
<trkpt lat="56.097092" lon="26.546772">
<ele>106.335022</ele>
<time>2010-08-29T14:14:55Z</time>
<desc>lat.=56.097092, lon.=26.546772, Alt.=106.335022m. Speed=0.000000m/h.</desc>
<speed>0.000000</speed>
</trkpt>
<trkpt lat="56.097092" lon="26.546772">
<ele>106.335022</ele>
<time>2010-08-29T14:14:56Z</time>
<desc>lat.=56.097092, lon.=26.546772, Alt.=106.335022m. Speed=0.000000m/h.</desc>
<speed>0.000000</speed>
</trkpt>
<trkpt lat="56.097092" lon="26.546772">
<ele>106.335022</ele>
<time>2010-08-29T14:14:57Z</time>
<desc>lat.=56.097092, lon.=26.546772, Alt.=106.335022m. Speed=0.000000m/h.</desc>
<speed>0.000000</speed>
</trkpt>
<trkpt lat="56.097092" lon="26.546772">
<ele>106.336975</ele>
<time>2010-08-29T14:14:58Z</time>
<desc>lat.=56.097092, lon.=26.546772, Alt.=106.336975m. Speed=0.000000m/h.</desc>
<speed>0.000000</speed>
</trkpt>
<trkpt lat="56.097092" lon="26.546772">
<ele>106.336975</ele>
<time>2010-08-29T14:14:59Z</time>
<desc>lat.=56.097092, lon.=26.546772, Alt.=106.336975m. Speed=0.000000m/h.</desc>
<speed>0.000000</speed>
</trkpt>
<trkpt lat="56.097092" lon="26.546772">
<ele>106.336975</ele>
<time>2010-08-29T14:15:00Z</time>
<desc>lat.=56.097092, lon.=26.546772, Alt.=106.336975m. Speed=0.000000m/h.</desc>
<speed>0.000000</speed>
</trkpt>
<trkpt lat="56.097092" lon="26.546772">
<ele>106.338928</ele>
<time>2010-08-29T14:15:01Z</time>
<desc>lat.=56.097092, lon.=26.546772, Alt.=106.338928m. Speed=0.000000m/h.</desc>
<speed>0.000000</speed>
</trkpt>
<trkpt lat="56.097092" lon="26.546772">
<ele>106.340881</ele>
<time>2010-08-29T14:15:02Z</time>
<desc>lat.=56.097092, lon.=26.546772, Alt.=106.340881m. Speed=0.000000m/h.</desc>
<speed>0.000000</speed>
</trkpt>
<trkpt lat="56.097092" lon="26.546772">
<ele>106.340881</ele>
<time>2010-08-29T14:15:03Z</time>
<desc>lat.=56.097092, lon.=26.546772, Alt.=106.340881m. Speed=0.000000m/h.</desc>
<speed>0.000000</speed>
</trkpt>
<trkpt lat="56.097092" lon="26.546772">
<ele>106.340881</ele>
<time>2010-08-29T14:15:04Z</time>
<desc>lat.=56.097092, lon.=26.546772, Alt.=106.340881m. Speed=0.000000m/h.</desc>
<speed>0.000000</speed>
</trkpt>
<trkpt lat="56.097092" lon="26.546772">
<ele>106.342834</ele>
<time>2010-08-29T14:15:05Z</time>
<desc>lat.=56.097092, lon.=26.546772, Alt.=106.342834m. Speed=0.000000m/h.</desc>
<speed>0.000000</speed>
</trkpt>
<trkpt lat="56.097092" lon="26.546772">
<ele>106.342834</ele>
<time>2010-08-29T14:15:06Z</time>
<desc>lat.=56.097092, lon.=26.546772, Alt.=106.342834m. Speed=0.000000m/h.</desc>
<speed>0.000000</speed>
</trkpt>
<trkpt lat="56.097092" lon="26.546770">
<ele>106.344788</ele>
<time>2010-08-29T14:15:07Z</time>
<desc>lat.=56.097092, lon.=26.546770, Alt.=106.344788m. Speed=0.000000m/h.</desc>
<speed>0.000000</speed>
</trkpt>
<trkpt lat="56.097092" lon="26.546770">
<ele>106.346741</ele>
<time>2010-08-29T14:15:08Z</time>
<desc>lat.=56.097092, lon.=26.546770, Alt.=106.346741m. Speed=0.000000m/h.</desc>
<speed>0.000000</speed>
</trkpt>
<trkpt lat="56.097092" lon="26.546770">
<ele>106.346741</ele>
<time>2010-08-29T14:15:09Z</time>
<desc>lat.=56.097092, lon.=26.546770, Alt.=106.346741m. Speed=0.000000m/h.</desc>
<speed>0.000000</speed>
</trkpt>
<trkpt lat="56.097092" lon="26.546770">
<ele>106.348694</ele>
<time>2010-08-29T14:15:10Z</time>
<desc>lat.=56.097092, lon.=26.546770, Alt.=106.348694m. Speed=0.000000m/h.</desc>
<speed>0.000000</speed>
</trkpt>
<trkpt lat="56.097092" lon="26.546770">
<ele>106.352600</ele>
<time>2010-08-29T14:15:11Z</time>
<desc>lat.=56.097092, lon.=26.546770, Alt.=106.352600m. Speed=0.000000m/h.</desc>
<speed>0.000000</speed>
</trkpt>
<trkpt lat="56.097092" lon="26.546770">
<ele>106.354553</ele>
<time>2010-08-29T14:15:12Z</time>
<desc>lat.=56.097092, lon.=26.546770, Alt.=106.354553m. Speed=0.000000m/h.</desc>
<speed>0.000000</speed>
</trkpt>
<trkpt lat="56.097092" lon="26.546770">
<ele>106.358459</ele>
<time>2010-08-29T14:15:13Z</time>
<desc>lat.=56.097092, lon.=26.546770, Alt.=106.358459m. Speed=0.000000m/h.</desc>
<speed>0.000000</speed>
</trkpt>
<trkpt lat="56.097092" lon="26.546770">
<ele>106.360413</ele>
<time>2010-08-29T14:15:14Z</time>
<desc>lat.=56.097092, lon.=26.546770, Alt.=106.360413m. Speed=0.000000m/h.</desc>
<speed>0.000000</speed>
</trkpt>
<trkpt lat="56.097092" lon="26.546770">
<ele>106.362366</ele>
<time>2010-08-29T14:15:15Z</time>
<desc>lat.=56.097092, lon.=26.546770, Alt.=106.362366m. Speed=0.000000m/h.</desc>
<speed>0.000000</speed>
</trkpt>
<trkpt lat="56.097092" lon="26.546770">
<ele>106.364319</ele>
<time>2010-08-29T14:15:16Z</time>
<desc>lat.=56.097092, lon.=26.546770, Alt.=106.364319m. Speed=0.000000m/h.</desc>
<speed>0.000000</speed>
</trkpt>
<trkpt lat="56.097092" lon="26.546770">
<ele>106.368225</ele>
<time>2010-08-29T14:15:17Z</time>
<desc>lat.=56.097092, lon.=26.546770, Alt.=106.368225m. Speed=0.000000m/h.</desc>
<speed>0.000000</speed>
</trkpt>
<trkpt lat="56.097092" lon="26.546770">
<ele>106.370178</ele>
<time>2010-08-29T14:15:18Z</time>
<desc>lat.=56.097092, lon.=26.546770, Alt.=106.370178m. Speed=0.000000m/h.</desc>
<speed>0.000000</speed>
</trkpt>
<trkpt lat="56.097092" lon="26.546770">
<ele>106.372131</ele>
<time>2010-08-29T14:15:19Z</time>
<desc>lat.=56.097092, lon.=26.546770, Alt.=106.372131m. Speed=0.000000m/h.</desc>
<speed>0.000000</speed>
</trkpt>
<trkpt lat="56.097092" lon="26.546770">
<ele>106.372131</ele>
<time>2010-08-29T14:15:20Z</time>
<desc>lat.=56.097092, lon.=26.546770, Alt.=106.372131m. Speed=0.000000m/h.</desc>
<speed>0.000000</speed>
</trkpt>
<trkpt lat="56.097092" lon="26.546770">
<ele>106.376038</ele>
<time>2010-08-29T14:15:21Z</time>
<desc>lat.=56.097092, lon.=26.546770, Alt.=106.376038m. Speed=0.000000m/h.</desc>
<speed>0.000000</speed>
</trkpt>
<trkpt lat="56.097092" lon="26.546770">
<ele>106.377991</ele>
<time>2010-08-29T14:15:22Z</time>
<desc>lat.=56.097092, lon.=26.546770, Alt.=106.377991m. Speed=0.000000m/h.</desc>
<speed>0.000000</speed>
</trkpt>
<trkpt lat="56.097092" lon="26.546770">
<ele>106.379944</ele>
<time>2010-08-29T14:15:23Z</time>
<desc>lat.=56.097092, lon.=26.546770, Alt.=106.379944m. Speed=0.000000m/h.</desc>
<speed>0.000000</speed>
</trkpt>
<trkpt lat="56.097092" lon="26.546770">
<ele>106.381897</ele>
<time>2010-08-29T14:15:24Z</time>
<desc>lat.=56.097092, lon.=26.546770, Alt.=106.381897m. Speed=0.000000m/h.</desc>
<speed>0.000000</speed>
</trkpt>
<trkpt lat="56.097092" lon="26.546770">
<ele>106.383850</ele>
<time>2010-08-29T14:15:25Z</time>
<desc>lat.=56.097092, lon.=26.546770, Alt.=106.383850m. Speed=0.000000m/h.</desc>
<speed>0.000000</speed>
</trkpt>
<trkpt lat="56.097092" lon="26.546770">
<ele>106.383850</ele>
<time>2010-08-29T14:15:26Z</time>
<desc>lat.=56.097092, lon.=26.546770, Alt.=106.383850m. Speed=0.000000m/h.</desc>
<speed>0.000000</speed>
</trkpt>
<trkpt lat="56.097092" lon="26.546770">
<ele>106.383850</ele>
<time>2010-08-29T14:15:27Z</time>
<desc>lat.=56.097092, lon.=26.546770, Alt.=106.383850m. Speed=0.000000m/h.</desc>
<speed>0.000000</speed>
</trkpt>
<trkpt lat="56.097092" lon="26.546770">
<ele>106.385803</ele>
<time>2010-08-29T14:15:28Z</time>
<desc>lat.=56.097092, lon.=26.546770, Alt.=106.385803m. Speed=0.000000m/h.</desc>
<speed>0.000000</speed>
</trkpt>
<trkpt lat="56.097092" lon="26.546770">
<ele>106.387756</ele>
<time>2010-08-29T14:15:29Z</time>
<desc>lat.=56.097092, lon.=26.546770, Alt.=106.387756m. Speed=0.000000m/h.</desc>
<speed>0.000000</speed>
</trkpt>
<trkpt lat="56.097092" lon="26.546770">
<ele>106.389709</ele>
<time>2010-08-29T14:15:30Z</time>
<desc>lat.=56.097092, lon.=26.546770, Alt.=106.389709m. Speed=0.000000m/h.</desc>
<speed>0.000000</speed>
</trkpt>
<trkpt lat="56.097092" lon="26.546770">
<ele>106.391663</ele>
<time>2010-08-29T14:15:31Z</time>
<desc>lat.=56.097092, lon.=26.546770, Alt.=106.391663m. Speed=0.000000m/h.</desc>
<speed>0.000000</speed>
</trkpt>
<trkpt lat="56.097092" lon="26.546770">
<ele>106.391663</ele>
<time>2010-08-29T14:15:32Z</time>
<desc>lat.=56.097092, lon.=26.546770, Alt.=106.391663m. Speed=0.000000m/h.</desc>
<speed>0.000000</speed>
</trkpt>
<trkpt lat="56.097092" lon="26.546770">
<ele>106.393616</ele>
<time>2010-08-29T14:15:33Z</time>
<desc>lat.=56.097092, lon.=26.546770, Alt.=106.393616m. Speed=0.000000m/h.</desc>
<speed>0.000000</speed>
</trkpt>
<trkpt lat="56.097092" lon="26.546770">
<ele>106.391663</ele>
<time>2010-08-29T14:15:34Z</time>
<desc>lat.=56.097092, lon.=26.546770, Alt.=106.391663m. Speed=0.000000m/h.</desc>
<speed>0.000000</speed>
</trkpt>
<trkpt lat="56.097092" lon="26.546770">
<ele>106.391663</ele>
<time>2010-08-29T14:15:35Z</time>
<desc>lat.=56.097092, lon.=26.546770, Alt.=106.391663m. Speed=0.000000m/h.</desc>
<speed>0.000000</speed>
</trkpt>
<trkpt lat="56.097092" lon="26.546770">
<ele>106.391663</ele>
<time>2010-08-29T14:15:36Z</time>
<desc>lat.=56.097092, lon.=26.546770, Alt.=106.391663m. Speed=0.000000m/h.</desc>
<speed>0.000000</speed>
</trkpt>
<trkpt lat="56.097092" lon="26.546770">
<ele>106.393616</ele>
<time>2010-08-29T14:15:37Z</time>
<desc>lat.=56.097092, lon.=26.546770, Alt.=106.393616m. Speed=0.000000m/h.</desc>
<speed>0.000000</speed>
</trkpt>
<trkpt lat="56.097092" lon="26.546770">
<ele>106.393616</ele>
<time>2010-08-29T14:15:38Z</time>
<desc>lat.=56.097092, lon.=26.546770, Alt.=106.393616m. Speed=0.000000m/h.</desc>
<speed>0.000000</speed>
</trkpt>
<trkpt lat="56.097092" lon="26.546770">
<ele>106.393616</ele>
<time>2010-08-29T14:15:39Z</time>
<desc>lat.=56.097092, lon.=26.546770, Alt.=106.393616m. Speed=0.000000m/h.</desc>
<speed>0.000000</speed>
</trkpt>
<trkpt lat="56.097092" lon="26.546770">
<ele>106.391663</ele>
<time>2010-08-29T14:15:40Z</time>
<desc>lat.=56.097092, lon.=26.546770, Alt.=106.391663m. Speed=0.000000m/h.</desc>
<speed>0.000000</speed>
</trkpt>
<trkpt lat="56.097092" lon="26.546770">
<ele>106.393616</ele>
<time>2010-08-29T14:15:41Z</time>
<desc>lat.=56.097092, lon.=26.546770, Alt.=106.393616m. Speed=0.000000m/h.</desc>
<speed>0.000000</speed>
</trkpt>
<trkpt lat="56.097092" lon="26.546770">
<ele>106.393616</ele>
<time>2010-08-29T14:15:42Z</time>
<desc>lat.=56.097092, lon.=26.546770, Alt.=106.393616m. Speed=0.000000m/h.</desc>
<speed>0.000000</speed>
</trkpt>
<trkpt lat="56.097092" lon="26.546770">
<ele>106.391663</ele>
<time>2010-08-29T14:15:43Z</time>
<desc>lat.=56.097092, lon.=26.546770, Alt.=106.391663m. Speed=0.000000m/h.</desc>
<speed>0.000000</speed>
</trkpt>
<trkpt lat="56.097092" lon="26.546770">
<ele>106.389709</ele>
<time>2010-08-29T14:15:44Z</time>
<desc>lat.=56.097092, lon.=26.546770, Alt.=106.389709m. Speed=0.000000m/h.</desc>
<speed>0.000000</speed>
</trkpt>
<trkpt lat="56.097092" lon="26.546770">
<ele>106.387756</ele>
<time>2010-08-29T14:15:45Z</time>
<desc>lat.=56.097092, lon.=26.546770, Alt.=106.387756m. Speed=0.000000m/h.</desc>
<speed>0.000000</speed>
</trkpt>
<trkpt lat="56.097092" lon="26.546770">
<ele>106.385803</ele>
<time>2010-08-29T14:15:46Z</time>
<desc>lat.=56.097092, lon.=26.546770, Alt.=106.385803m. Speed=0.000000m/h.</desc>
<speed>0.000000</speed>
</trkpt>
<trkpt lat="56.097092" lon="26.546770">
<ele>106.383850</ele>
<time>2010-08-29T14:15:47Z</time>
<desc>lat.=56.097092, lon.=26.546770, Alt.=106.383850m. Speed=0.000000m/h.</desc>
<speed>0.000000</speed>
</trkpt>
<trkpt lat="56.097092" lon="26.546770">
<ele>106.383850</ele>
<time>2010-08-29T14:15:48Z</time>
<desc>lat.=56.097092, lon.=26.546770, Alt.=106.383850m. Speed=0.000000m/h.</desc>
<speed>0.000000</speed>
</trkpt>
<trkpt lat="56.097092" lon="26.546770">
<ele>106.379944</ele>
<time>2010-08-29T14:15:49Z</time>
<desc>lat.=56.097092, lon.=26.546770, Alt.=106.379944m. Speed=0.000000m/h.</desc>
<speed>0.000000</speed>
</trkpt>
<trkpt lat="56.097092" lon="26.546770">
<ele>106.377991</ele>
<time>2010-08-29T14:15:50Z</time>
<desc>lat.=56.097092, lon.=26.546770, Alt.=106.377991m. Speed=0.000000m/h.</desc>
<speed>0.000000</speed>
</trkpt>
<trkpt lat="56.097092" lon="26.546770">
<ele>106.376038</ele>
<time>2010-08-29T14:15:51Z</time>
<desc>lat.=56.097092, lon.=26.546770, Alt.=106.376038m. Speed=0.000000m/h.</desc>
<speed>0.000000</speed>
</trkpt>
<trkpt lat="56.097092" lon="26.546770">
<ele>106.374084</ele>
<time>2010-08-29T14:15:52Z</time>
<desc>lat.=56.097092, lon.=26.546770, Alt.=106.374084m. Speed=0.000000m/h.</desc>
<speed>0.000000</speed>
</trkpt>
<trkpt lat="56.097092" lon="26.546770">
<ele>106.372131</ele>
<time>2010-08-29T14:15:53Z</time>
<desc>lat.=56.097092, lon.=26.546770, Alt.=106.372131m. Speed=0.000000m/h.</desc>
<speed>0.000000</speed>
</trkpt>
<trkpt lat="56.097092" lon="26.546770">
<ele>106.372131</ele>
<time>2010-08-29T14:15:54Z</time>
<desc>lat.=56.097092, lon.=26.546770, Alt.=106.372131m. Speed=0.000000m/h.</desc>
<speed>0.000000</speed>
</trkpt>
<trkpt lat="56.097092" lon="26.546770">
<ele>106.370178</ele>
<time>2010-08-29T14:15:55Z</time>
<desc>lat.=56.097092, lon.=26.546770, Alt.=106.370178m. Speed=0.000000m/h.</desc>
<speed>0.000000</speed>
</trkpt>
<trkpt lat="56.097092" lon="26.546770">
<ele>106.370178</ele>
<time>2010-08-29T14:15:56Z</time>
<desc>lat.=56.097092, lon.=26.546770, Alt.=106.370178m. Speed=0.000000m/h.</desc>
<speed>0.000000</speed>
</trkpt>
<trkpt lat="56.097092" lon="26.546770">
<ele>106.368225</ele>
<time>2010-08-29T14:15:57Z</time>
<desc>lat.=56.097092, lon.=26.546770, Alt.=106.368225m. Speed=0.000000m/h.</desc>
<speed>0.000000</speed>
</trkpt>
<trkpt lat="56.097092" lon="26.546770">
<ele>106.368225</ele>
<time>2010-08-29T14:15:58Z</time>
<desc>lat.=56.097092, lon.=26.546770, Alt.=106.368225m. Speed=0.000000m/h.</desc>
<speed>0.000000</speed>
</trkpt>
<trkpt lat="56.097092" lon="26.546770">
<ele>106.368225</ele>
<time>2010-08-29T14:15:59Z</time>
<desc>lat.=56.097092, lon.=26.546770, Alt.=106.368225m. Speed=0.000000m/h.</desc>
<speed>0.000000</speed>
</trkpt>
<trkpt lat="56.097092" lon="26.546770">
<ele>106.366272</ele>
<time>2010-08-29T14:16:00Z</time>
<desc>lat.=56.097092, lon.=26.546770, Alt.=106.366272m. Speed=0.000000m/h.</desc>
<speed>0.000000</speed>
</trkpt>
<trkpt lat="56.097092" lon="26.546770">
<ele>106.368225</ele>
<time>2010-08-29T14:16:01Z</time>
<desc>lat.=56.097092, lon.=26.546770, Alt.=106.368225m. Speed=0.000000m/h.</desc>
<speed>0.000000</speed>
</trkpt>
<trkpt lat="56.097092" lon="26.546770">
<ele>106.366272</ele>
<time>2010-08-29T14:16:02Z</time>
<desc>lat.=56.097092, lon.=26.546770, Alt.=106.366272m. Speed=0.000000m/h.</desc>
<speed>0.000000</speed>
</trkpt>
<trkpt lat="56.097092" lon="26.546768">
<ele>106.368225</ele>
<time>2010-08-29T14:16:03Z</time>
<desc>lat.=56.097092, lon.=26.546768, Alt.=106.368225m. Speed=0.000000m/h.</desc>
<speed>0.000000</speed>
</trkpt>
<trkpt lat="56.097092" lon="26.546768">
<ele>106.366272</ele>
<time>2010-08-29T14:16:04Z</time>
<desc>lat.=56.097092, lon.=26.546768, Alt.=106.366272m. Speed=0.000000m/h.</desc>
<speed>0.000000</speed>
</trkpt>
<trkpt lat="56.097092" lon="26.546768">
<ele>106.368225</ele>
<time>2010-08-29T14:16:05Z</time>
<desc>lat.=56.097092, lon.=26.546768, Alt.=106.368225m. Speed=0.000000m/h.</desc>
<speed>0.000000</speed>
</trkpt>
<trkpt lat="56.097092" lon="26.546768">
<ele>106.366272</ele>
<time>2010-08-29T14:16:06Z</time>
<desc>lat.=56.097092, lon.=26.546768, Alt.=106.366272m. Speed=0.000000m/h.</desc>
<speed>0.000000</speed>
</trkpt>
<trkpt lat="56.097092" lon="26.546768">
<ele>106.366272</ele>
<time>2010-08-29T14:16:07Z</time>
<desc>lat.=56.097092, lon.=26.546768, Alt.=106.366272m. Speed=0.000000m/h.</desc>
<speed>0.000000</speed>
</trkpt>
<trkpt lat="56.097092" lon="26.546768">
<ele>106.364319</ele>
<time>2010-08-29T14:16:08Z</time>
<desc>lat.=56.097092, lon.=26.546768, Alt.=106.364319m. Speed=0.000000m/h.</desc>
<speed>0.000000</speed>
</trkpt>
<trkpt lat="56.097092" lon="26.546768">
<ele>106.364319</ele>
<time>2010-08-29T14:16:09Z</time>
<desc>lat.=56.097092, lon.=26.546768, Alt.=106.364319m. Speed=0.000000m/h.</desc>
<speed>0.000000</speed>
</trkpt>
<trkpt lat="56.097092" lon="26.546768">
<ele>106.364319</ele>
<time>2010-08-29T14:16:10Z</time>
<desc>lat.=56.097092, lon.=26.546768, Alt.=106.364319m. Speed=0.000000m/h.</desc>
<speed>0.000000</speed>
</trkpt>
<trkpt lat="56.097092" lon="26.546768">
<ele>106.362366</ele>
<time>2010-08-29T14:16:11Z</time>
<desc>lat.=56.097092, lon.=26.546768, Alt.=106.362366m. Speed=0.000000m/h.</desc>
<speed>0.000000</speed>
</trkpt>
<trkpt lat="56.097092" lon="26.546768">
<ele>106.364319</ele>
<time>2010-08-29T14:16:12Z</time>
<desc>lat.=56.097092, lon.=26.546768, Alt.=106.364319m. Speed=0.000000m/h.</desc>
<speed>0.000000</speed>
</trkpt>
<trkpt lat="56.097092" lon="26.546768">
<ele>106.364319</ele>
<time>2010-08-29T14:16:13Z</time>
<desc>lat.=56.097092, lon.=26.546768, Alt.=106.364319m. Speed=0.000000m/h.</desc>
<speed>0.000000</speed>
</trkpt>
<trkpt lat="56.097092" lon="26.546768">
<ele>106.364319</ele>
<time>2010-08-29T14:16:14Z</time>
<desc>lat.=56.097092, lon.=26.546768, Alt.=106.364319m. Speed=0.000000m/h.</desc>
<speed>0.000000</speed>
</trkpt>
<trkpt lat="56.097092" lon="26.546768">
<ele>106.366272</ele>
<time>2010-08-29T14:16:15Z</time>
<desc>lat.=56.097092, lon.=26.546768, Alt.=106.366272m. Speed=0.000000m/h.</desc>
<speed>0.000000</speed>
</trkpt>
<trkpt lat="56.097092" lon="26.546768">
<ele>106.366272</ele>
<time>2010-08-29T14:16:16Z</time>
<desc>lat.=56.097092, lon.=26.546768, Alt.=106.366272m. Speed=0.000000m/h.</desc>
<speed>0.000000</speed>
</trkpt>
<trkpt lat="56.097092" lon="26.546768">
<ele>106.366272</ele>
<time>2010-08-29T14:16:17Z</time>
<desc>lat.=56.097092, lon.=26.546768, Alt.=106.366272m. Speed=0.000000m/h.</desc>
<speed>0.000000</speed>
</trkpt>
<trkpt lat="56.097092" lon="26.546768">
<ele>106.364319</ele>
<time>2010-08-29T14:16:18Z</time>
<desc>lat.=56.097092, lon.=26.546768, Alt.=106.364319m. Speed=0.000000m/h.</desc>
<speed>0.000000</speed>
</trkpt>
<trkpt lat="56.097092" lon="26.546768">
<ele>106.366272</ele>
<time>2010-08-29T14:16:19Z</time>
<desc>lat.=56.097092, lon.=26.546768, Alt.=106.366272m. Speed=0.000000m/h.</desc>
<speed>0.000000</speed>
</trkpt>
<trkpt lat="56.097092" lon="26.546768">
<ele>106.366272</ele>
<time>2010-08-29T14:16:20Z</time>
<desc>lat.=56.097092, lon.=26.546768, Alt.=106.366272m. Speed=0.000000m/h.</desc>
<speed>0.000000</speed>
</trkpt>
<trkpt lat="56.097092" lon="26.546768">
<ele>106.368225</ele>
<time>2010-08-29T14:16:21Z</time>
<desc>lat.=56.097092, lon.=26.546768, Alt.=106.368225m. Speed=0.000000m/h.</desc>
<speed>0.000000</speed>
</trkpt>
<trkpt lat="56.097092" lon="26.546768">
<ele>106.368225</ele>
<time>2010-08-29T14:16:22Z</time>
<desc>lat.=56.097092, lon.=26.546768, Alt.=106.368225m. Speed=0.000000m/h.</desc>
<speed>0.000000</speed>
</trkpt>
<trkpt lat="56.097092" lon="26.546768">
<ele>106.368225</ele>
<time>2010-08-29T14:16:23Z</time>
<desc>lat.=56.097092, lon.=26.546768, Alt.=106.368225m. Speed=0.000000m/h.</desc>
<speed>0.000000</speed>
</trkpt>
<trkpt lat="56.097092" lon="26.546768">
<ele>106.366272</ele>
<time>2010-08-29T14:16:24Z</time>
<desc>lat.=56.097092, lon.=26.546768, Alt.=106.366272m. Speed=0.000000m/h.</desc>
<speed>0.000000</speed>
</trkpt>
<trkpt lat="56.097092" lon="26.546768">
<ele>106.364319</ele>
<time>2010-08-29T14:16:25Z</time>
<desc>lat.=56.097092, lon.=26.546768, Alt.=106.364319m. Speed=0.000000m/h.</desc>
<speed>0.000000</speed>
</trkpt>
<trkpt lat="56.097095" lon="26.546768">
<ele>106.366272</ele>
<time>2010-08-29T14:16:26Z</time>
<desc>lat.=56.097095, lon.=26.546768, Alt.=106.366272m. Speed=0.000000m/h.</desc>
<speed>0.000000</speed>
</trkpt>
<trkpt lat="56.097095" lon="26.546768">
<ele>106.364319</ele>
<time>2010-08-29T14:16:27Z</time>
<desc>lat.=56.097095, lon.=26.546768, Alt.=106.364319m. Speed=0.000000m/h.</desc>
<speed>0.000000</speed>
</trkpt>
<trkpt lat="56.097095" lon="26.546768">
<ele>106.364319</ele>
<time>2010-08-29T14:16:28Z</time>
<desc>lat.=56.097095, lon.=26.546768, Alt.=106.364319m. Speed=0.000000m/h.</desc>
<speed>0.000000</speed>
</trkpt>
<trkpt lat="56.097095" lon="26.546768">
<ele>106.364319</ele>
<time>2010-08-29T14:16:29Z</time>
<desc>lat.=56.097095, lon.=26.546768, Alt.=106.364319m. Speed=0.000000m/h.</desc>
<speed>0.000000</speed>
</trkpt>
<trkpt lat="56.097095" lon="26.546768">
<ele>106.364319</ele>
<time>2010-08-29T14:16:30Z</time>
<desc>lat.=56.097095, lon.=26.546768, Alt.=106.364319m. Speed=0.000000m/h.</desc>
<speed>0.000000</speed>
</trkpt>
<trkpt lat="56.097095" lon="26.546768">
<ele>106.364319</ele>
<time>2010-08-29T14:16:31Z</time>
<desc>lat.=56.097095, lon.=26.546768, Alt.=106.364319m. Speed=0.000000m/h.</desc>
<speed>0.000000</speed>
</trkpt>
<trkpt lat="56.097095" lon="26.546768">
<ele>106.366272</ele>
<time>2010-08-29T14:16:32Z</time>
<desc>lat.=56.097095, lon.=26.546768, Alt.=106.366272m. Speed=0.000000m/h.</desc>
<speed>0.000000</speed>
</trkpt>
<trkpt lat="56.097095" lon="26.546768">
<ele>106.368225</ele>
<time>2010-08-29T14:16:33Z</time>
<desc>lat.=56.097095, lon.=26.546768, Alt.=106.368225m. Speed=0.000000m/h.</desc>
<speed>0.000000</speed>
</trkpt>
<trkpt lat="56.097095" lon="26.546768">
<ele>106.370178</ele>
<time>2010-08-29T14:16:34Z</time>
<desc>lat.=56.097095, lon.=26.546768, Alt.=106.370178m. Speed=0.000000m/h.</desc>
<speed>0.000000</speed>
</trkpt>
<trkpt lat="56.097095" lon="26.546768">
<ele>106.372131</ele>
<time>2010-08-29T14:16:35Z</time>
<desc>lat.=56.097095, lon.=26.546768, Alt.=106.372131m. Speed=0.000000m/h.</desc>
<speed>0.000000</speed>
</trkpt>
<trkpt lat="56.097095" lon="26.546768">
<ele>106.374084</ele>
<time>2010-08-29T14:16:36Z</time>
<desc>lat.=56.097095, lon.=26.546768, Alt.=106.374084m. Speed=0.000000m/h.</desc>
<speed>0.000000</speed>
</trkpt>
<trkpt lat="56.097095" lon="26.546768">
<ele>106.376038</ele>
<time>2010-08-29T14:16:37Z</time>
<desc>lat.=56.097095, lon.=26.546768, Alt.=106.376038m. Speed=0.000000m/h.</desc>
<speed>0.000000</speed>
</trkpt>
<trkpt lat="56.097095" lon="26.546768">
<ele>106.377991</ele>
<time>2010-08-29T14:16:38Z</time>
<desc>lat.=56.097095, lon.=26.546768, Alt.=106.377991m. Speed=0.000000m/h.</desc>
<speed>0.000000</speed>
</trkpt>
<trkpt lat="56.097095" lon="26.546768">
<ele>106.379944</ele>
<time>2010-08-29T14:16:39Z</time>
<desc>lat.=56.097095, lon.=26.546768, Alt.=106.379944m. Speed=0.000000m/h.</desc>
<speed>0.000000</speed>
</trkpt>
<trkpt lat="56.097095" lon="26.546768">
<ele>106.381897</ele>
<time>2010-08-29T14:16:40Z</time>
<desc>lat.=56.097095, lon.=26.546768, Alt.=106.381897m. Speed=0.000000m/h.</desc>
<speed>0.000000</speed>
</trkpt>
<trkpt lat="56.097095" lon="26.546768">
<ele>106.383850</ele>
<time>2010-08-29T14:16:41Z</time>
<desc>lat.=56.097095, lon.=26.546768, Alt.=106.383850m. Speed=0.000000m/h.</desc>
<speed>0.000000</speed>
</trkpt>
<trkpt lat="56.097095" lon="26.546766">
<ele>106.385803</ele>
<time>2010-08-29T14:16:42Z</time>
<desc>lat.=56.097095, lon.=26.546766, Alt.=106.385803m. Speed=0.000000m/h.</desc>
<speed>0.000000</speed>
</trkpt>
<trkpt lat="56.097095" lon="26.546766">
<ele>106.387756</ele>
<time>2010-08-29T14:16:43Z</time>
<desc>lat.=56.097095, lon.=26.546766, Alt.=106.387756m. Speed=0.000000m/h.</desc>
<speed>0.000000</speed>
</trkpt>
<trkpt lat="56.097095" lon="26.546766">
<ele>106.387756</ele>
<time>2010-08-29T14:16:44Z</time>
<desc>lat.=56.097095, lon.=26.546766, Alt.=106.387756m. Speed=0.000000m/h.</desc>
<speed>0.000000</speed>
</trkpt>
<trkpt lat="56.097095" lon="26.546766">
<ele>106.389709</ele>
<time>2010-08-29T14:16:45Z</time>
<desc>lat.=56.097095, lon.=26.546766, Alt.=106.389709m. Speed=0.000000m/h.</desc>
<speed>0.000000</speed>
</trkpt>
<trkpt lat="56.097095" lon="26.546766">
<ele>106.391663</ele>
<time>2010-08-29T14:16:46Z</time>
<desc>lat.=56.097095, lon.=26.546766, Alt.=106.391663m. Speed=0.000000m/h.</desc>
<speed>0.000000</speed>
</trkpt>
<trkpt lat="56.097095" lon="26.546766">
<ele>106.393616</ele>
<time>2010-08-29T14:16:47Z</time>
<desc>lat.=56.097095, lon.=26.546766, Alt.=106.393616m. Speed=0.000000m/h.</desc>
<speed>0.000000</speed>
</trkpt>
<trkpt lat="56.097095" lon="26.546766">
<ele>106.395569</ele>
<time>2010-08-29T14:16:48Z</time>
<desc>lat.=56.097095, lon.=26.546766, Alt.=106.395569m. Speed=0.000000m/h.</desc>
<speed>0.000000</speed>
</trkpt>
<trkpt lat="56.097095" lon="26.546766">
<ele>106.395569</ele>
<time>2010-08-29T14:16:49Z</time>
<desc>lat.=56.097095, lon.=26.546766, Alt.=106.395569m. Speed=0.000000m/h.</desc>
<speed>0.000000</speed>
</trkpt>
<trkpt lat="56.097095" lon="26.546766">
<ele>106.399475</ele>
<time>2010-08-29T14:16:50Z</time>
<desc>lat.=56.097095, lon.=26.546766, Alt.=106.399475m. Speed=0.000000m/h.</desc>
<speed>0.000000</speed>
</trkpt>
<trkpt lat="56.097095" lon="26.546766">
<ele>106.399475</ele>
<time>2010-08-29T14:16:51Z</time>
<desc>lat.=56.097095, lon.=26.546766, Alt.=106.399475m. Speed=0.000000m/h.</desc>
<speed>0.000000</speed>
</trkpt>
<trkpt lat="56.097095" lon="26.546766">
<ele>106.401428</ele>
<time>2010-08-29T14:16:52Z</time>
<desc>lat.=56.097095, lon.=26.546766, Alt.=106.401428m. Speed=0.000000m/h.</desc>
<speed>0.000000</speed>
</trkpt>
<trkpt lat="56.097095" lon="26.546766">
<ele>106.401428</ele>
<time>2010-08-29T14:16:53Z</time>
<desc>lat.=56.097095, lon.=26.546766, Alt.=106.401428m. Speed=0.000000m/h.</desc>
<speed>0.000000</speed>
</trkpt>
<trkpt lat="56.097095" lon="26.546766">
<ele>106.403381</ele>
<time>2010-08-29T14:16:54Z</time>
<desc>lat.=56.097095, lon.=26.546766, Alt.=106.403381m. Speed=0.000000m/h.</desc>
<speed>0.000000</speed>
</trkpt>
<trkpt lat="56.097095" lon="26.546766">
<ele>106.403381</ele>
<time>2010-08-29T14:16:55Z</time>
<desc>lat.=56.097095, lon.=26.546766, Alt.=106.403381m. Speed=0.000000m/h.</desc>
<speed>0.000000</speed>
</trkpt>
<trkpt lat="56.097095" lon="26.546766">
<ele>106.407288</ele>
<time>2010-08-29T14:16:56Z</time>
<desc>lat.=56.097095, lon.=26.546766, Alt.=106.407288m. Speed=0.000000m/h.</desc>
<speed>0.000000</speed>
</trkpt>
<trkpt lat="56.097095" lon="26.546766">
<ele>106.409241</ele>
<time>2010-08-29T14:16:57Z</time>
<desc>lat.=56.097095, lon.=26.546766, Alt.=106.409241m. Speed=0.000000m/h.</desc>
<speed>0.000000</speed>
</trkpt>
<trkpt lat="56.097095" lon="26.546766">
<ele>106.413147</ele>
<time>2010-08-29T14:16:58Z</time>
<desc>lat.=56.097095, lon.=26.546766, Alt.=106.413147m. Speed=0.000000m/h.</desc>
<speed>0.000000</speed>
</trkpt>
<trkpt lat="56.097095" lon="26.546766">
<ele>106.415100</ele>
<time>2010-08-29T14:16:59Z</time>
<desc>lat.=56.097095, lon.=26.546766, Alt.=106.415100m. Speed=0.000000m/h.</desc>
<speed>0.000000</speed>
</trkpt>
<trkpt lat="56.097095" lon="26.546766">
<ele>106.419006</ele>
<time>2010-08-29T14:17:00Z</time>
<desc>lat.=56.097095, lon.=26.546766, Alt.=106.419006m. Speed=0.000000m/h.</desc>
<speed>0.000000</speed>
</trkpt>
<trkpt lat="56.097095" lon="26.546766">
<ele>106.420959</ele>
<time>2010-08-29T14:17:01Z</time>
<desc>lat.=56.097095, lon.=26.546766, Alt.=106.420959m. Speed=0.000000m/h.</desc>
<speed>0.000000</speed>
</trkpt>
<trkpt lat="56.097095" lon="26.546766">
<ele>106.422913</ele>
<time>2010-08-29T14:17:02Z</time>
<desc>lat.=56.097095, lon.=26.546766, Alt.=106.422913m. Speed=0.000000m/h.</desc>
<speed>0.000000</speed>
</trkpt>
<trkpt lat="56.097095" lon="26.546766">
<ele>106.424866</ele>
<time>2010-08-29T14:17:03Z</time>
<desc>lat.=56.097095, lon.=26.546766, Alt.=106.424866m. Speed=0.000000m/h.</desc>
<speed>0.000000</speed>
</trkpt>
<trkpt lat="56.097095" lon="26.546766">
<ele>106.426819</ele>
<time>2010-08-29T14:17:04Z</time>
<desc>lat.=56.097095, lon.=26.546766, Alt.=106.426819m. Speed=0.000000m/h.</desc>
<speed>0.000000</speed>
</trkpt>
<trkpt lat="56.097095" lon="26.546766">
<ele>106.430725</ele>
<time>2010-08-29T14:17:05Z</time>
<desc>lat.=56.097095, lon.=26.546766, Alt.=106.430725m. Speed=0.000000m/h.</desc>
<speed>0.000000</speed>
</trkpt>
<trkpt lat="56.097095" lon="26.546766">
<ele>106.432678</ele>
<time>2010-08-29T14:17:06Z</time>
<desc>lat.=56.097095, lon.=26.546766, Alt.=106.432678m. Speed=0.000000m/h.</desc>
<speed>0.000000</speed>
</trkpt>
<trkpt lat="56.097095" lon="26.546766">
<ele>106.434631</ele>
<time>2010-08-29T14:17:07Z</time>
<desc>lat.=56.097095, lon.=26.546766, Alt.=106.434631m. Speed=0.000000m/h.</desc>
<speed>0.000000</speed>
</trkpt>
<trkpt lat="56.097095" lon="26.546766">
<ele>106.436584</ele>
<time>2010-08-29T14:17:08Z</time>
<desc>lat.=56.097095, lon.=26.546766, Alt.=106.436584m. Speed=0.000000m/h.</desc>
<speed>0.000000</speed>
</trkpt>
<trkpt lat="56.097095" lon="26.546766">
<ele>106.438538</ele>
<time>2010-08-29T14:17:09Z</time>
<desc>lat.=56.097095, lon.=26.546766, Alt.=106.438538m. Speed=0.000000m/h.</desc>
<speed>0.000000</speed>
</trkpt>
<trkpt lat="56.097095" lon="26.546766">
<ele>106.438538</ele>
<time>2010-08-29T14:17:10Z</time>
<desc>lat.=56.097095, lon.=26.546766, Alt.=106.438538m. Speed=0.000000m/h.</desc>
<speed>0.000000</speed>
</trkpt>
<trkpt lat="56.097095" lon="26.546766">
<ele>106.438538</ele>
<time>2010-08-29T14:17:11Z</time>
<desc>lat.=56.097095, lon.=26.546766, Alt.=106.438538m. Speed=0.000000m/h.</desc>
<speed>0.000000</speed>
</trkpt>
<trkpt lat="56.097095" lon="26.546766">
<ele>106.438538</ele>
<time>2010-08-29T14:17:12Z</time>
<desc>lat.=56.097095, lon.=26.546766, Alt.=106.438538m. Speed=0.000000m/h.</desc>
<speed>0.000000</speed>
</trkpt>
<trkpt lat="56.097095" lon="26.546766">
<ele>106.438538</ele>
<time>2010-08-29T14:17:13Z</time>
<desc>lat.=56.097095, lon.=26.546766, Alt.=106.438538m. Speed=0.000000m/h.</desc>
<speed>0.000000</speed>
</trkpt>
<trkpt lat="56.097095" lon="26.546766">
<ele>106.440491</ele>
<time>2010-08-29T14:17:14Z</time>
<desc>lat.=56.097095, lon.=26.546766, Alt.=106.440491m. Speed=0.000000m/h.</desc>
<speed>0.000000</speed>
</trkpt>
<trkpt lat="56.097095" lon="26.546766">
<ele>106.442444</ele>
<time>2010-08-29T14:17:15Z</time>
<desc>lat.=56.097095, lon.=26.546766, Alt.=106.442444m. Speed=0.000000m/h.</desc>
<speed>0.000000</speed>
</trkpt>
<trkpt lat="56.097095" lon="26.546766">
<ele>106.442444</ele>
<time>2010-08-29T14:17:16Z</time>
<desc>lat.=56.097095, lon.=26.546766, Alt.=106.442444m. Speed=0.000000m/h.</desc>
<speed>0.000000</speed>
</trkpt>
<trkpt lat="56.097095" lon="26.546766">
<ele>106.444397</ele>
<time>2010-08-29T14:17:17Z</time>
<desc>lat.=56.097095, lon.=26.546766, Alt.=106.444397m. Speed=0.000000m/h.</desc>
<speed>0.000000</speed>
</trkpt>
<trkpt lat="56.097095" lon="26.546766">
<ele>106.444397</ele>
<time>2010-08-29T14:17:18Z</time>
<desc>lat.=56.097095, lon.=26.546766, Alt.=106.444397m. Speed=0.000000m/h.</desc>
<speed>0.000000</speed>
</trkpt>
<trkpt lat="56.097095" lon="26.546766">
<ele>106.448303</ele>
<time>2010-08-29T14:17:19Z</time>
<desc>lat.=56.097095, lon.=26.546766, Alt.=106.448303m. Speed=0.000000m/h.</desc>
<speed>0.000000</speed>
</trkpt>
<trkpt lat="56.097095" lon="26.546766">
<ele>106.448303</ele>
<time>2010-08-29T14:17:20Z</time>
<desc>lat.=56.097095, lon.=26.546766, Alt.=106.448303m. Speed=0.000000m/h.</desc>
<speed>0.000000</speed>
</trkpt>
<trkpt lat="56.097095" lon="26.546766">
<ele>106.450256</ele>
<time>2010-08-29T14:17:21Z</time>
<desc>lat.=56.097095, lon.=26.546766, Alt.=106.450256m. Speed=0.000000m/h.</desc>
<speed>0.000000</speed>
</trkpt>
<trkpt lat="56.097095" lon="26.546766">
<ele>106.452209</ele>
<time>2010-08-29T14:17:22Z</time>
<desc>lat.=56.097095, lon.=26.546766, Alt.=106.452209m. Speed=0.000000m/h.</desc>
<speed>0.000000</speed>
</trkpt>
<trkpt lat="56.097095" lon="26.546766">
<ele>106.454163</ele>
<time>2010-08-29T14:17:23Z</time>
<desc>lat.=56.097095, lon.=26.546766, Alt.=106.454163m. Speed=0.000000m/h.</desc>
<speed>0.000000</speed>
</trkpt>
<trkpt lat="56.097095" lon="26.546766">
<ele>106.456116</ele>
<time>2010-08-29T14:17:24Z</time>
<desc>lat.=56.097095, lon.=26.546766, Alt.=106.456116m. Speed=0.000000m/h.</desc>
<speed>0.000000</speed>
</trkpt>
<trkpt lat="56.097095" lon="26.546766">
<ele>106.456116</ele>
<time>2010-08-29T14:17:25Z</time>
<desc>lat.=56.097095, lon.=26.546766, Alt.=106.456116m. Speed=0.000000m/h.</desc>
<speed>0.000000</speed>
</trkpt>
<trkpt lat="56.097095" lon="26.546766">
<ele>106.458069</ele>
<time>2010-08-29T14:17:26Z</time>
<desc>lat.=56.097095, lon.=26.546766, Alt.=106.458069m. Speed=0.000000m/h.</desc>
<speed>0.000000</speed>
</trkpt>
<trkpt lat="56.097095" lon="26.546766">
<ele>106.458069</ele>
<time>2010-08-29T14:17:27Z</time>
<desc>lat.=56.097095, lon.=26.546766, Alt.=106.458069m. Speed=0.000000m/h.</desc>
<speed>0.000000</speed>
</trkpt>
<trkpt lat="56.097095" lon="26.546766">
<ele>106.460022</ele>
<time>2010-08-29T14:17:28Z</time>
<desc>lat.=56.097095, lon.=26.546766, Alt.=106.460022m. Speed=0.000000m/h.</desc>
<speed>0.000000</speed>
</trkpt>
<trkpt lat="56.097095" lon="26.546766">
<ele>106.460022</ele>
<time>2010-08-29T14:17:29Z</time>
<desc>lat.=56.097095, lon.=26.546766, Alt.=106.460022m. Speed=0.000000m/h.</desc>
<speed>0.000000</speed>
</trkpt>
<trkpt lat="56.097095" lon="26.546766">
<ele>106.460022</ele>
<time>2010-08-29T14:17:30Z</time>
<desc>lat.=56.097095, lon.=26.546766, Alt.=106.460022m. Speed=0.000000m/h.</desc>
<speed>0.000000</speed>
</trkpt>
<trkpt lat="56.097095" lon="26.546766">
<ele>106.461975</ele>
<time>2010-08-29T14:17:31Z</time>
<desc>lat.=56.097095, lon.=26.546766, Alt.=106.461975m. Speed=0.000000m/h.</desc>
<speed>0.000000</speed>
</trkpt>
<trkpt lat="56.097095" lon="26.546766">
<ele>106.461975</ele>
<time>2010-08-29T14:17:32Z</time>
<desc>lat.=56.097095, lon.=26.546766, Alt.=106.461975m. Speed=0.000000m/h.</desc>
<speed>0.000000</speed>
</trkpt>
<trkpt lat="56.097095" lon="26.546766">
<ele>106.461975</ele>
<time>2010-08-29T14:17:33Z</time>
<desc>lat.=56.097095, lon.=26.546766, Alt.=106.461975m. Speed=0.000000m/h.</desc>
<speed>0.000000</speed>
</trkpt>
<trkpt lat="56.097095" lon="26.546766">
<ele>106.461975</ele>
<time>2010-08-29T14:17:34Z</time>
<desc>lat.=56.097095, lon.=26.546766, Alt.=106.461975m. Speed=0.000000m/h.</desc>
<speed>0.000000</speed>
</trkpt>
<trkpt lat="56.097095" lon="26.546766">
<ele>106.461975</ele>
<time>2010-08-29T14:17:35Z</time>
<desc>lat.=56.097095, lon.=26.546766, Alt.=106.461975m. Speed=0.000000m/h.</desc>
<speed>0.000000</speed>
</trkpt>
<trkpt lat="56.097095" lon="26.546766">
<ele>106.463928</ele>
<time>2010-08-29T14:17:36Z</time>
<desc>lat.=56.097095, lon.=26.546766, Alt.=106.463928m. Speed=0.000000m/h.</desc>
<speed>0.000000</speed>
</trkpt>
<trkpt lat="56.097095" lon="26.546766">
<ele>106.463928</ele>
<time>2010-08-29T14:17:37Z</time>
<desc>lat.=56.097095, lon.=26.546766, Alt.=106.463928m. Speed=0.000000m/h.</desc>
<speed>0.000000</speed>
</trkpt>
<trkpt lat="56.097095" lon="26.546766">
<ele>106.465881</ele>
<time>2010-08-29T14:17:38Z</time>
<desc>lat.=56.097095, lon.=26.546766, Alt.=106.465881m. Speed=0.000000m/h.</desc>
<speed>0.000000</speed>
</trkpt>
<trkpt lat="56.097095" lon="26.546766">
<ele>106.465881</ele>
<time>2010-08-29T14:17:39Z</time>
<desc>lat.=56.097095, lon.=26.546766, Alt.=106.465881m. Speed=0.000000m/h.</desc>
<speed>0.000000</speed>
</trkpt>
<trkpt lat="56.097095" lon="26.546766">
<ele>106.467834</ele>
<time>2010-08-29T14:17:40Z</time>
<desc>lat.=56.097095, lon.=26.546766, Alt.=106.467834m. Speed=0.000000m/h.</desc>
<speed>0.000000</speed>
</trkpt>
<trkpt lat="56.097095" lon="26.546766">
<ele>106.469788</ele>
<time>2010-08-29T14:17:41Z</time>
<desc>lat.=56.097095, lon.=26.546766, Alt.=106.469788m. Speed=0.000000m/h.</desc>
<speed>0.000000</speed>
</trkpt>
<trkpt lat="56.097095" lon="26.546766">
<ele>106.469788</ele>
<time>2010-08-29T14:17:42Z</time>
<desc>lat.=56.097095, lon.=26.546766, Alt.=106.469788m. Speed=0.000000m/h.</desc>
<speed>0.000000</speed>
</trkpt>
<trkpt lat="56.097095" lon="26.546766">
<ele>106.471741</ele>
<time>2010-08-29T14:17:43Z</time>
<desc>lat.=56.097095, lon.=26.546766, Alt.=106.471741m. Speed=0.000000m/h.</desc>
<speed>0.000000</speed>
</trkpt>
<trkpt lat="56.097095" lon="26.546766">
<ele>106.469788</ele>
<time>2010-08-29T14:17:44Z</time>
<desc>lat.=56.097095, lon.=26.546766, Alt.=106.469788m. Speed=0.000000m/h.</desc>
<speed>0.000000</speed>
</trkpt>
<trkpt lat="56.097095" lon="26.546766">
<ele>106.471741</ele>
<time>2010-08-29T14:17:45Z</time>
<desc>lat.=56.097095, lon.=26.546766, Alt.=106.471741m. Speed=0.000000m/h.</desc>
<speed>0.000000</speed>
</trkpt>
<trkpt lat="56.097095" lon="26.546766">
<ele>106.473694</ele>
<time>2010-08-29T14:17:46Z</time>
<desc>lat.=56.097095, lon.=26.546766, Alt.=106.473694m. Speed=0.000000m/h.</desc>
<speed>0.000000</speed>
</trkpt>
<trkpt lat="56.097095" lon="26.546766">
<ele>106.471741</ele>
<time>2010-08-29T14:17:47Z</time>
<desc>lat.=56.097095, lon.=26.546766, Alt.=106.471741m. Speed=0.000000m/h.</desc>
<speed>0.000000</speed>
</trkpt>
<trkpt lat="56.097095" lon="26.546766">
<ele>106.473694</ele>
<time>2010-08-29T14:17:48Z</time>
<desc>lat.=56.097095, lon.=26.546766, Alt.=106.473694m. Speed=0.000000m/h.</desc>
<speed>0.000000</speed>
</trkpt>
<trkpt lat="56.097095" lon="26.546766">
<ele>106.473694</ele>
<time>2010-08-29T14:17:49Z</time>
<desc>lat.=56.097095, lon.=26.546766, Alt.=106.473694m. Speed=0.000000m/h.</desc>
<speed>0.000000</speed>
</trkpt>
<trkpt lat="56.097095" lon="26.546766">
<ele>106.473694</ele>
<time>2010-08-29T14:17:50Z</time>
<desc>lat.=56.097095, lon.=26.546766, Alt.=106.473694m. Speed=0.000000m/h.</desc>
<speed>0.000000</speed>
</trkpt>
<trkpt lat="56.097095" lon="26.546766">
<ele>106.473694</ele>
<time>2010-08-29T14:17:51Z</time>
<desc>lat.=56.097095, lon.=26.546766, Alt.=106.473694m. Speed=0.000000m/h.</desc>
<speed>0.000000</speed>
</trkpt>
<trkpt lat="56.097099" lon="26.546766">
<ele>106.473694</ele>
<time>2010-08-29T14:17:52Z</time>
<desc>lat.=56.097099, lon.=26.546766, Alt.=106.473694m. Speed=0.000000m/h.</desc>
<speed>0.000000</speed>
</trkpt>
<trkpt lat="56.097099" lon="26.546766">
<ele>106.473694</ele>
<time>2010-08-29T14:17:53Z</time>
<desc>lat.=56.097099, lon.=26.546766, Alt.=106.473694m. Speed=0.000000m/h.</desc>
<speed>0.000000</speed>
</trkpt>
<trkpt lat="56.097099" lon="26.546766">
<ele>106.471741</ele>
<time>2010-08-29T14:17:54Z</time>
<desc>lat.=56.097099, lon.=26.546766, Alt.=106.471741m. Speed=0.000000m/h.</desc>
<speed>0.000000</speed>
</trkpt>
<trkpt lat="56.097099" lon="26.546766">
<ele>106.473694</ele>
<time>2010-08-29T14:17:55Z</time>
<desc>lat.=56.097099, lon.=26.546766, Alt.=106.473694m. Speed=0.000000m/h.</desc>
<speed>0.000000</speed>
</trkpt>
<trkpt lat="56.097099" lon="26.546766">
<ele>106.471741</ele>
<time>2010-08-29T14:17:56Z</time>
<desc>lat.=56.097099, lon.=26.546766, Alt.=106.471741m. Speed=0.000000m/h.</desc>
<speed>0.000000</speed>
</trkpt>
<trkpt lat="56.097099" lon="26.546766">
<ele>106.471741</ele>
<time>2010-08-29T14:17:57Z</time>
<desc>lat.=56.097099, lon.=26.546766, Alt.=106.471741m. Speed=0.000000m/h.</desc>
<speed>0.000000</speed>
</trkpt>
<trkpt lat="56.097099" lon="26.546766">
<ele>106.471741</ele>
<time>2010-08-29T14:17:58Z</time>
<desc>lat.=56.097099, lon.=26.546766, Alt.=106.471741m. Speed=0.000000m/h.</desc>
<speed>0.000000</speed>
</trkpt>
<trkpt lat="56.097099" lon="26.546766">
<ele>106.471741</ele>
<time>2010-08-29T14:17:59Z</time>
<desc>lat.=56.097099, lon.=26.546766, Alt.=106.471741m. Speed=0.000000m/h.</desc>
<speed>0.000000</speed>
</trkpt>
<trkpt lat="56.097099" lon="26.546766">
<ele>106.469788</ele>
<time>2010-08-29T14:18:00Z</time>
<desc>lat.=56.097099, lon.=26.546766, Alt.=106.469788m. Speed=0.000000m/h.</desc>
<speed>0.000000</speed>
</trkpt>
<trkpt lat="56.097099" lon="26.546766">
<ele>106.469788</ele>
<time>2010-08-29T14:18:01Z</time>
<desc>lat.=56.097099, lon.=26.546766, Alt.=106.469788m. Speed=0.000000m/h.</desc>
<speed>0.000000</speed>
</trkpt>
<trkpt lat="56.097099" lon="26.546766">
<ele>106.467834</ele>
<time>2010-08-29T14:18:02Z</time>
<desc>lat.=56.097099, lon.=26.546766, Alt.=106.467834m. Speed=0.000000m/h.</desc>
<speed>0.000000</speed>
</trkpt>
<trkpt lat="56.097099" lon="26.546766">
<ele>106.467834</ele>
<time>2010-08-29T14:18:03Z</time>
<desc>lat.=56.097099, lon.=26.546766, Alt.=106.467834m. Speed=0.000000m/h.</desc>
<speed>0.000000</speed>
</trkpt>
<trkpt lat="56.097099" lon="26.546766">
<ele>106.467834</ele>
<time>2010-08-29T14:18:04Z</time>
<desc>lat.=56.097099, lon.=26.546766, Alt.=106.467834m. Speed=0.000000m/h.</desc>
<speed>0.000000</speed>
</trkpt>
<trkpt lat="56.097099" lon="26.546766">
<ele>106.465881</ele>
<time>2010-08-29T14:18:05Z</time>
<desc>lat.=56.097099, lon.=26.546766, Alt.=106.465881m. Speed=0.000000m/h.</desc>
<speed>0.000000</speed>
</trkpt>
<trkpt lat="56.097099" lon="26.546766">
<ele>106.465881</ele>
<time>2010-08-29T14:18:06Z</time>
<desc>lat.=56.097099, lon.=26.546766, Alt.=106.465881m. Speed=0.000000m/h.</desc>
<speed>0.000000</speed>
</trkpt>
<trkpt lat="56.097099" lon="26.546766">
<ele>106.463928</ele>
<time>2010-08-29T14:18:07Z</time>
<desc>lat.=56.097099, lon.=26.546766, Alt.=106.463928m. Speed=0.000000m/h.</desc>
<speed>0.000000</speed>
</trkpt>
<trkpt lat="56.097099" lon="26.546766">
<ele>106.463928</ele>
<time>2010-08-29T14:18:08Z</time>
<desc>lat.=56.097099, lon.=26.546766, Alt.=106.463928m. Speed=0.000000m/h.</desc>
<speed>0.000000</speed>
</trkpt>
<trkpt lat="56.097099" lon="26.546766">
<ele>106.461975</ele>
<time>2010-08-29T14:18:09Z</time>
<desc>lat.=56.097099, lon.=26.546766, Alt.=106.461975m. Speed=0.000000m/h.</desc>
<speed>0.000000</speed>
</trkpt>
<trkpt lat="56.097099" lon="26.546766">
<ele>106.460022</ele>
<time>2010-08-29T14:18:10Z</time>
<desc>lat.=56.097099, lon.=26.546766, Alt.=106.460022m. Speed=0.000000m/h.</desc>
<speed>0.000000</speed>
</trkpt>
<trkpt lat="56.097099" lon="26.546766">
<ele>106.460022</ele>
<time>2010-08-29T14:18:11Z</time>
<desc>lat.=56.097099, lon.=26.546766, Alt.=106.460022m. Speed=0.000000m/h.</desc>
<speed>0.000000</speed>
</trkpt>
<trkpt lat="56.097099" lon="26.546766">
<ele>106.460022</ele>
<time>2010-08-29T14:18:12Z</time>
<desc>lat.=56.097099, lon.=26.546766, Alt.=106.460022m. Speed=0.000000m/h.</desc>
<speed>0.000000</speed>
</trkpt>
<trkpt lat="56.097099" lon="26.546766">
<ele>106.458069</ele>
<time>2010-08-29T14:18:13Z</time>
<desc>lat.=56.097099, lon.=26.546766, Alt.=106.458069m. Speed=0.000000m/h.</desc>
<speed>0.000000</speed>
</trkpt>
<trkpt lat="56.097099" lon="26.546766">
<ele>106.458069</ele>
<time>2010-08-29T14:18:14Z</time>
<desc>lat.=56.097099, lon.=26.546766, Alt.=106.458069m. Speed=0.000000m/h.</desc>
<speed>0.000000</speed>
</trkpt>
<trkpt lat="56.097099" lon="26.546766">
<ele>106.460022</ele>
<time>2010-08-29T14:18:15Z</time>
<desc>lat.=56.097099, lon.=26.546766, Alt.=106.460022m. Speed=0.000000m/h.</desc>
<speed>0.000000</speed>
</trkpt>
<trkpt lat="56.097099" lon="26.546766">
<ele>106.460022</ele>
<time>2010-08-29T14:18:16Z</time>
<desc>lat.=56.097099, lon.=26.546766, Alt.=106.460022m. Speed=0.000000m/h.</desc>
<speed>0.000000</speed>
</trkpt>
<trkpt lat="56.097099" lon="26.546766">
<ele>106.460022</ele>
<time>2010-08-29T14:18:17Z</time>
<desc>lat.=56.097099, lon.=26.546766, Alt.=106.460022m. Speed=0.000000m/h.</desc>
<speed>0.000000</speed>
</trkpt>
<trkpt lat="56.097099" lon="26.546764">
<ele>106.461975</ele>
<time>2010-08-29T14:18:18Z</time>
<desc>lat.=56.097099, lon.=26.546764, Alt.=106.461975m. Speed=0.000000m/h.</desc>
<speed>0.000000</speed>
</trkpt>
<trkpt lat="56.097099" lon="26.546764">
<ele>106.463928</ele>
<time>2010-08-29T14:18:19Z</time>
<desc>lat.=56.097099, lon.=26.546764, Alt.=106.463928m. Speed=0.000000m/h.</desc>
<speed>0.000000</speed>
</trkpt>
<trkpt lat="56.097099" lon="26.546764">
<ele>106.461975</ele>
<time>2010-08-29T14:18:20Z</time>
<desc>lat.=56.097099, lon.=26.546764, Alt.=106.461975m. Speed=0.000000m/h.</desc>
<speed>0.000000</speed>
</trkpt>
<trkpt lat="56.097099" lon="26.546764">
<ele>106.463928</ele>
<time>2010-08-29T14:18:21Z</time>
<desc>lat.=56.097099, lon.=26.546764, Alt.=106.463928m. Speed=0.000000m/h.</desc>
<speed>0.000000</speed>
</trkpt>
<trkpt lat="56.097099" lon="26.546764">
<ele>106.465881</ele>
<time>2010-08-29T14:18:22Z</time>
<desc>lat.=56.097099, lon.=26.546764, Alt.=106.465881m. Speed=0.000000m/h.</desc>
<speed>0.000000</speed>
</trkpt>
<trkpt lat="56.097099" lon="26.546764">
<ele>106.467834</ele>
<time>2010-08-29T14:18:23Z</time>
<desc>lat.=56.097099, lon.=26.546764, Alt.=106.467834m. Speed=0.000000m/h.</desc>
<speed>0.000000</speed>
</trkpt>
<trkpt lat="56.097099" lon="26.546764">
<ele>106.469788</ele>
<time>2010-08-29T14:18:24Z</time>
<desc>lat.=56.097099, lon.=26.546764, Alt.=106.469788m. Speed=0.000000m/h.</desc>
<speed>0.000000</speed>
</trkpt>
<trkpt lat="56.097099" lon="26.546764">
<ele>106.473694</ele>
<time>2010-08-29T14:18:25Z</time>
<desc>lat.=56.097099, lon.=26.546764, Alt.=106.473694m. Speed=0.000000m/h.</desc>
<speed>0.000000</speed>
</trkpt>
<trkpt lat="56.097099" lon="26.546764">
<ele>106.475647</ele>
<time>2010-08-29T14:18:26Z</time>
<desc>lat.=56.097099, lon.=26.546764, Alt.=106.475647m. Speed=0.000000m/h.</desc>
<speed>0.000000</speed>
</trkpt>
<trkpt lat="56.097099" lon="26.546764">
<ele>106.477600</ele>
<time>2010-08-29T14:18:27Z</time>
<desc>lat.=56.097099, lon.=26.546764, Alt.=106.477600m. Speed=0.000000m/h.</desc>
<speed>0.000000</speed>
</trkpt>
<trkpt lat="56.097099" lon="26.546764">
<ele>106.477600</ele>
<time>2010-08-29T14:18:28Z</time>
<desc>lat.=56.097099, lon.=26.546764, Alt.=106.477600m. Speed=0.000000m/h.</desc>
<speed>0.000000</speed>
</trkpt>
<trkpt lat="56.097099" lon="26.546764">
<ele>106.475647</ele>
<time>2010-08-29T14:18:29Z</time>
<desc>lat.=56.097099, lon.=26.546764, Alt.=106.475647m. Speed=0.000000m/h.</desc>
<speed>0.000000</speed>
</trkpt>
<trkpt lat="56.097099" lon="26.546764">
<ele>106.473694</ele>
<time>2010-08-29T14:18:30Z</time>
<desc>lat.=56.097099, lon.=26.546764, Alt.=106.473694m. Speed=0.000000m/h.</desc>
<speed>0.000000</speed>
</trkpt>
<trkpt lat="56.097099" lon="26.546764">
<ele>106.469788</ele>
<time>2010-08-29T14:18:31Z</time>
<desc>lat.=56.097099, lon.=26.546764, Alt.=106.469788m. Speed=0.000000m/h.</desc>
<speed>0.000000</speed>
</trkpt>
<trkpt lat="56.097099" lon="26.546764">
<ele>106.467834</ele>
<time>2010-08-29T14:18:32Z</time>
<desc>lat.=56.097099, lon.=26.546764, Alt.=106.467834m. Speed=0.000000m/h.</desc>
<speed>0.000000</speed>
</trkpt>
<trkpt lat="56.097099" lon="26.546764">
<ele>106.467834</ele>
<time>2010-08-29T14:18:33Z</time>
<desc>lat.=56.097099, lon.=26.546764, Alt.=106.467834m. Speed=0.000000m/h.</desc>
<speed>0.000000</speed>
</trkpt>
<trkpt lat="56.097099" lon="26.546764">
<ele>106.463928</ele>
<time>2010-08-29T14:18:34Z</time>
<desc>lat.=56.097099, lon.=26.546764, Alt.=106.463928m. Speed=0.000000m/h.</desc>
<speed>0.000000</speed>
</trkpt>
<trkpt lat="56.097099" lon="26.546764">
<ele>106.461975</ele>
<time>2010-08-29T14:18:35Z</time>
<desc>lat.=56.097099, lon.=26.546764, Alt.=106.461975m. Speed=0.000000m/h.</desc>
<speed>0.000000</speed>
</trkpt>
<trkpt lat="56.097099" lon="26.546764">
<ele>106.460022</ele>
<time>2010-08-29T14:18:36Z</time>
<desc>lat.=56.097099, lon.=26.546764, Alt.=106.460022m. Speed=0.000000m/h.</desc>
<speed>0.000000</speed>
</trkpt>
<trkpt lat="56.097099" lon="26.546764">
<ele>106.460022</ele>
<time>2010-08-29T14:18:37Z</time>
<desc>lat.=56.097099, lon.=26.546764, Alt.=106.460022m. Speed=0.000000m/h.</desc>
<speed>0.000000</speed>
</trkpt>
<trkpt lat="56.097099" lon="26.546764">
<ele>106.458069</ele>
<time>2010-08-29T14:18:38Z</time>
<desc>lat.=56.097099, lon.=26.546764, Alt.=106.458069m. Speed=0.000000m/h.</desc>
<speed>0.000000</speed>
</trkpt>
<trkpt lat="56.097099" lon="26.546764">
<ele>106.456116</ele>
<time>2010-08-29T14:18:39Z</time>
<desc>lat.=56.097099, lon.=26.546764, Alt.=106.456116m. Speed=0.000000m/h.</desc>
<speed>0.000000</speed>
</trkpt>
<trkpt lat="56.097099" lon="26.546764">
<ele>106.454163</ele>
<time>2010-08-29T14:18:40Z</time>
<desc>lat.=56.097099, lon.=26.546764, Alt.=106.454163m. Speed=0.000000m/h.</desc>
<speed>0.000000</speed>
</trkpt>
<trkpt lat="56.097099" lon="26.546764">
<ele>106.450256</ele>
<time>2010-08-29T14:18:41Z</time>
<desc>lat.=56.097099, lon.=26.546764, Alt.=106.450256m. Speed=0.000000m/h.</desc>
<speed>0.000000</speed>
</trkpt>
<trkpt lat="56.097099" lon="26.546764">
<ele>106.446350</ele>
<time>2010-08-29T14:18:42Z</time>
<desc>lat.=56.097099, lon.=26.546764, Alt.=106.446350m. Speed=0.000000m/h.</desc>
<speed>0.000000</speed>
</trkpt>
<trkpt lat="56.097099" lon="26.546764">
<ele>106.444397</ele>
<time>2010-08-29T14:18:43Z</time>
<desc>lat.=56.097099, lon.=26.546764, Alt.=106.444397m. Speed=0.000000m/h.</desc>
<speed>0.000000</speed>
</trkpt>
<trkpt lat="56.097099" lon="26.546764">
<ele>106.440491</ele>
<time>2010-08-29T14:18:44Z</time>
<desc>lat.=56.097099, lon.=26.546764, Alt.=106.440491m. Speed=0.000000m/h.</desc>
<speed>0.000000</speed>
</trkpt>
<trkpt lat="56.097099" lon="26.546764">
<ele>106.438538</ele>
<time>2010-08-29T14:18:45Z</time>
<desc>lat.=56.097099, lon.=26.546764, Alt.=106.438538m. Speed=0.000000m/h.</desc>
<speed>0.000000</speed>
</trkpt>
<trkpt lat="56.097099" lon="26.546764">
<ele>106.434631</ele>
<time>2010-08-29T14:18:46Z</time>
<desc>lat.=56.097099, lon.=26.546764, Alt.=106.434631m. Speed=0.000000m/h.</desc>
<speed>0.000000</speed>
</trkpt>
<trkpt lat="56.097099" lon="26.546764">
<ele>106.432678</ele>
<time>2010-08-29T14:18:47Z</time>
<desc>lat.=56.097099, lon.=26.546764, Alt.=106.432678m. Speed=0.000000m/h.</desc>
<speed>0.000000</speed>
</trkpt>
<trkpt lat="56.097099" lon="26.546764">
<ele>106.428772</ele>
<time>2010-08-29T14:18:48Z</time>
<desc>lat.=56.097099, lon.=26.546764, Alt.=106.428772m. Speed=0.000000m/h.</desc>
<speed>0.000000</speed>
</trkpt>
<trkpt lat="56.097099" lon="26.546764">
<ele>106.426819</ele>
<time>2010-08-29T14:18:49Z</time>
<desc>lat.=56.097099, lon.=26.546764, Alt.=106.426819m. Speed=0.000000m/h.</desc>
<speed>0.000000</speed>
</trkpt>
<trkpt lat="56.097099" lon="26.546764">
<ele>106.422913</ele>
<time>2010-08-29T14:18:50Z</time>
<desc>lat.=56.097099, lon.=26.546764, Alt.=106.422913m. Speed=0.000000m/h.</desc>
<speed>0.000000</speed>
</trkpt>
<trkpt lat="56.097099" lon="26.546764">
<ele>106.420959</ele>
<time>2010-08-29T14:18:51Z</time>
<desc>lat.=56.097099, lon.=26.546764, Alt.=106.420959m. Speed=0.000000m/h.</desc>
<speed>0.000000</speed>
</trkpt>
<trkpt lat="56.097099" lon="26.546764">
<ele>106.419006</ele>
<time>2010-08-29T14:18:52Z</time>
<desc>lat.=56.097099, lon.=26.546764, Alt.=106.419006m. Speed=0.000000m/h.</desc>
<speed>0.000000</speed>
</trkpt>
<trkpt lat="56.097099" lon="26.546764">
<ele>106.419006</ele>
<time>2010-08-29T14:18:53Z</time>
<desc>lat.=56.097099, lon.=26.546764, Alt.=106.419006m. Speed=0.000000m/h.</desc>
<speed>0.000000</speed>
</trkpt>
<trkpt lat="56.097099" lon="26.546764">
<ele>106.417053</ele>
<time>2010-08-29T14:18:54Z</time>
<desc>lat.=56.097099, lon.=26.546764, Alt.=106.417053m. Speed=0.000000m/h.</desc>
<speed>0.000000</speed>
</trkpt>
<trkpt lat="56.097099" lon="26.546764">
<ele>106.415100</ele>
<time>2010-08-29T14:18:55Z</time>
<desc>lat.=56.097099, lon.=26.546764, Alt.=106.415100m. Speed=0.000000m/h.</desc>
<speed>0.000000</speed>
</trkpt>
<trkpt lat="56.097099" lon="26.546764">
<ele>106.413147</ele>
<time>2010-08-29T14:18:56Z</time>
<desc>lat.=56.097099, lon.=26.546764, Alt.=106.413147m. Speed=0.000000m/h.</desc>
<speed>0.000000</speed>
</trkpt>
<trkpt lat="56.097099" lon="26.546764">
<ele>106.413147</ele>
<time>2010-08-29T14:18:57Z</time>
<desc>lat.=56.097099, lon.=26.546764, Alt.=106.413147m. Speed=0.000000m/h.</desc>
<speed>0.000000</speed>
</trkpt>
<trkpt lat="56.097099" lon="26.546764">
<ele>106.411194</ele>
<time>2010-08-29T14:18:58Z</time>
<desc>lat.=56.097099, lon.=26.546764, Alt.=106.411194m. Speed=0.000000m/h.</desc>
<speed>0.000000</speed>
</trkpt>
<trkpt lat="56.097099" lon="26.546764">
<ele>106.411194</ele>
<time>2010-08-29T14:18:59Z</time>
<desc>lat.=56.097099, lon.=26.546764, Alt.=106.411194m. Speed=0.000000m/h.</desc>
<speed>0.000000</speed>
</trkpt>
<trkpt lat="56.097099" lon="26.546764">
<ele>106.411194</ele>
<time>2010-08-29T14:19:00Z</time>
<desc>lat.=56.097099, lon.=26.546764, Alt.=106.411194m. Speed=0.000000m/h.</desc>
<speed>0.000000</speed>
</trkpt>
<trkpt lat="56.097099" lon="26.546764">
<ele>106.413147</ele>
<time>2010-08-29T14:19:01Z</time>
<desc>lat.=56.097099, lon.=26.546764, Alt.=106.413147m. Speed=0.000000m/h.</desc>
<speed>0.000000</speed>
</trkpt>
<trkpt lat="56.097099" lon="26.546764">
<ele>106.411194</ele>
<time>2010-08-29T14:19:02Z</time>
<desc>lat.=56.097099, lon.=26.546764, Alt.=106.411194m. Speed=0.000000m/h.</desc>
<speed>0.000000</speed>
</trkpt>
<trkpt lat="56.097099" lon="26.546764">
<ele>106.411194</ele>
<time>2010-08-29T14:19:03Z</time>
<desc>lat.=56.097099, lon.=26.546764, Alt.=106.411194m. Speed=0.000000m/h.</desc>
<speed>0.000000</speed>
</trkpt>
<trkpt lat="56.097099" lon="26.546764">
<ele>106.411194</ele>
<time>2010-08-29T14:19:04Z</time>
<desc>lat.=56.097099, lon.=26.546764, Alt.=106.411194m. Speed=0.000000m/h.</desc>
<speed>0.000000</speed>
</trkpt>
<trkpt lat="56.097099" lon="26.546764">
<ele>106.413147</ele>
<time>2010-08-29T14:19:05Z</time>
<desc>lat.=56.097099, lon.=26.546764, Alt.=106.413147m. Speed=0.000000m/h.</desc>
<speed>0.000000</speed>
</trkpt>
<trkpt lat="56.097099" lon="26.546764">
<ele>106.413147</ele>
<time>2010-08-29T14:19:06Z</time>
<desc>lat.=56.097099, lon.=26.546764, Alt.=106.413147m. Speed=0.000000m/h.</desc>
<speed>0.000000</speed>
</trkpt>
<trkpt lat="56.097099" lon="26.546764">
<ele>106.415100</ele>
<time>2010-08-29T14:19:07Z</time>
<desc>lat.=56.097099, lon.=26.546764, Alt.=106.415100m. Speed=0.000000m/h.</desc>
<speed>0.000000</speed>
</trkpt>
<trkpt lat="56.097099" lon="26.546764">
<ele>106.413147</ele>
<time>2010-08-29T14:19:08Z</time>
<desc>lat.=56.097099, lon.=26.546764, Alt.=106.413147m. Speed=0.000000m/h.</desc>
<speed>0.000000</speed>
</trkpt>
<trkpt lat="56.097099" lon="26.546764">
<ele>106.413147</ele>
<time>2010-08-29T14:19:09Z</time>
<desc>lat.=56.097099, lon.=26.546764, Alt.=106.413147m. Speed=0.000000m/h.</desc>
<speed>0.000000</speed>
</trkpt>
<trkpt lat="56.097099" lon="26.546764">
<ele>106.413147</ele>
<time>2010-08-29T14:19:10Z</time>
<desc>lat.=56.097099, lon.=26.546764, Alt.=106.413147m. Speed=0.000000m/h.</desc>
<speed>0.000000</speed>
</trkpt>
<trkpt lat="56.097099" lon="26.546764">
<ele>106.413147</ele>
<time>2010-08-29T14:19:11Z</time>
<desc>lat.=56.097099, lon.=26.546764, Alt.=106.413147m. Speed=0.000000m/h.</desc>
<speed>0.000000</speed>
</trkpt>
<trkpt lat="56.097099" lon="26.546764">
<ele>106.411194</ele>
<time>2010-08-29T14:19:12Z</time>
<desc>lat.=56.097099, lon.=26.546764, Alt.=106.411194m. Speed=0.000000m/h.</desc>
<speed>0.000000</speed>
</trkpt>
<trkpt lat="56.097099" lon="26.546764">
<ele>106.409241</ele>
<time>2010-08-29T14:19:13Z</time>
<desc>lat.=56.097099, lon.=26.546764, Alt.=106.409241m. Speed=0.000000m/h.</desc>
<speed>0.000000</speed>
</trkpt>
<trkpt lat="56.097099" lon="26.546764">
<ele>106.409241</ele>
<time>2010-08-29T14:19:14Z</time>
<desc>lat.=56.097099, lon.=26.546764, Alt.=106.409241m. Speed=0.000000m/h.</desc>
<speed>0.000000</speed>
</trkpt>
<trkpt lat="56.097099" lon="26.546764">
<ele>106.407288</ele>
<time>2010-08-29T14:19:15Z</time>
<desc>lat.=56.097099, lon.=26.546764, Alt.=106.407288m. Speed=0.000000m/h.</desc>
<speed>0.000000</speed>
</trkpt>
<trkpt lat="56.097099" lon="26.546762">
<ele>106.405334</ele>
<time>2010-08-29T14:19:16Z</time>
<desc>lat.=56.097099, lon.=26.546762, Alt.=106.405334m. Speed=0.000000m/h.</desc>
<speed>0.000000</speed>
</trkpt>
<trkpt lat="56.097099" lon="26.546762">
<ele>106.403381</ele>
<time>2010-08-29T14:19:17Z</time>
<desc>lat.=56.097099, lon.=26.546762, Alt.=106.403381m. Speed=0.000000m/h.</desc>
<speed>0.000000</speed>
</trkpt>
<trkpt lat="56.097099" lon="26.546762">
<ele>106.403381</ele>
<time>2010-08-29T14:19:18Z</time>
<desc>lat.=56.097099, lon.=26.546762, Alt.=106.403381m. Speed=0.000000m/h.</desc>
<speed>0.000000</speed>
</trkpt>
<trkpt lat="56.097099" lon="26.546762">
<ele>106.401428</ele>
<time>2010-08-29T14:19:19Z</time>
<desc>lat.=56.097099, lon.=26.546762, Alt.=106.401428m. Speed=0.000000m/h.</desc>
<speed>0.000000</speed>
</trkpt>
<trkpt lat="56.097099" lon="26.546762">
<ele>106.401428</ele>
<time>2010-08-29T14:19:20Z</time>
<desc>lat.=56.097099, lon.=26.546762, Alt.=106.401428m. Speed=0.000000m/h.</desc>
<speed>0.000000</speed>
</trkpt>
<trkpt lat="56.097099" lon="26.546762">
<ele>106.401428</ele>
<time>2010-08-29T14:19:21Z</time>
<desc>lat.=56.097099, lon.=26.546762, Alt.=106.401428m. Speed=0.000000m/h.</desc>
<speed>0.000000</speed>
</trkpt>
<trkpt lat="56.097099" lon="26.546762">
<ele>106.401428</ele>
<time>2010-08-29T14:19:22Z</time>
<desc>lat.=56.097099, lon.=26.546762, Alt.=106.401428m. Speed=0.000000m/h.</desc>
<speed>0.000000</speed>
</trkpt>
<trkpt lat="56.097099" lon="26.546762">
<ele>106.401428</ele>
<time>2010-08-29T14:19:23Z</time>
<desc>lat.=56.097099, lon.=26.546762, Alt.=106.401428m. Speed=0.000000m/h.</desc>
<speed>0.000000</speed>
</trkpt>
<trkpt lat="56.097099" lon="26.546762">
<ele>106.403381</ele>
<time>2010-08-29T14:19:24Z</time>
<desc>lat.=56.097099, lon.=26.546762, Alt.=106.403381m. Speed=0.000000m/h.</desc>
<speed>0.000000</speed>
</trkpt>
<trkpt lat="56.097099" lon="26.546762">
<ele>106.401428</ele>
<time>2010-08-29T14:19:25Z</time>
<desc>lat.=56.097099, lon.=26.546762, Alt.=106.401428m. Speed=0.000000m/h.</desc>
<speed>0.000000</speed>
</trkpt>
<trkpt lat="56.097099" lon="26.546762">
<ele>106.401428</ele>
<time>2010-08-29T14:19:26Z</time>
<desc>lat.=56.097099, lon.=26.546762, Alt.=106.401428m. Speed=0.000000m/h.</desc>
<speed>0.000000</speed>
</trkpt>
<trkpt lat="56.097099" lon="26.546762">
<ele>106.395569</ele>
<time>2010-08-29T14:19:27Z</time>
<desc>lat.=56.097099, lon.=26.546762, Alt.=106.395569m. Speed=0.000000m/h.</desc>
<speed>0.000000</speed>
</trkpt>
<trkpt lat="56.097099" lon="26.546762">
<ele>106.393616</ele>
<time>2010-08-29T14:19:28Z</time>
<desc>lat.=56.097099, lon.=26.546762, Alt.=106.393616m. Speed=0.000000m/h.</desc>
<speed>0.000000</speed>
</trkpt>
<trkpt lat="56.097099" lon="26.546762">
<ele>106.391663</ele>
<time>2010-08-29T14:19:29Z</time>
<desc>lat.=56.097099, lon.=26.546762, Alt.=106.391663m. Speed=0.000000m/h.</desc>
<speed>0.000000</speed>
</trkpt>
<trkpt lat="56.097099" lon="26.546762">
<ele>106.391663</ele>
<time>2010-08-29T14:19:30Z</time>
<desc>lat.=56.097099, lon.=26.546762, Alt.=106.391663m. Speed=0.000000m/h.</desc>
<speed>0.000000</speed>
</trkpt>
<trkpt lat="56.097099" lon="26.546762">
<ele>106.387756</ele>
<time>2010-08-29T14:19:31Z</time>
<desc>lat.=56.097099, lon.=26.546762, Alt.=106.387756m. Speed=0.000000m/h.</desc>
<speed>0.000000</speed>
</trkpt>
<trkpt lat="56.097099" lon="26.546762">
<ele>106.385803</ele>
<time>2010-08-29T14:19:32Z</time>
<desc>lat.=56.097099, lon.=26.546762, Alt.=106.385803m. Speed=0.000000m/h.</desc>
<speed>0.000000</speed>
</trkpt>
<trkpt lat="56.097099" lon="26.546762">
<ele>106.383850</ele>
<time>2010-08-29T14:19:33Z</time>
<desc>lat.=56.097099, lon.=26.546762, Alt.=106.383850m. Speed=0.000000m/h.</desc>
<speed>0.000000</speed>
</trkpt>
<trkpt lat="56.097099" lon="26.546762">
<ele>106.381897</ele>
<time>2010-08-29T14:19:34Z</time>
<desc>lat.=56.097099, lon.=26.546762, Alt.=106.381897m. Speed=0.000000m/h.</desc>
<speed>0.000000</speed>
</trkpt>
<trkpt lat="56.097099" lon="26.546762">
<ele>106.381897</ele>
<time>2010-08-29T14:19:35Z</time>
<desc>lat.=56.097099, lon.=26.546762, Alt.=106.381897m. Speed=0.000000m/h.</desc>
<speed>0.000000</speed>
</trkpt>
<trkpt lat="56.097099" lon="26.546762">
<ele>106.379944</ele>
<time>2010-08-29T14:19:36Z</time>
<desc>lat.=56.097099, lon.=26.546762, Alt.=106.379944m. Speed=0.000000m/h.</desc>
<speed>0.000000</speed>
</trkpt>
<trkpt lat="56.097099" lon="26.546762">
<ele>106.379944</ele>
<time>2010-08-29T14:19:37Z</time>
<desc>lat.=56.097099, lon.=26.546762, Alt.=106.379944m. Speed=0.000000m/h.</desc>
<speed>0.000000</speed>
</trkpt>
<trkpt lat="56.097099" lon="26.546762">
<ele>106.379944</ele>
<time>2010-08-29T14:19:38Z</time>
<desc>lat.=56.097099, lon.=26.546762, Alt.=106.379944m. Speed=0.000000m/h.</desc>
<speed>0.000000</speed>
</trkpt>
<trkpt lat="56.097099" lon="26.546762">
<ele>106.377991</ele>
<time>2010-08-29T14:19:39Z</time>
<desc>lat.=56.097099, lon.=26.546762, Alt.=106.377991m. Speed=0.000000m/h.</desc>
<speed>0.000000</speed>
</trkpt>
<trkpt lat="56.097099" lon="26.546762">
<ele>106.377991</ele>
<time>2010-08-29T14:19:40Z</time>
<desc>lat.=56.097099, lon.=26.546762, Alt.=106.377991m. Speed=0.000000m/h.</desc>
<speed>0.000000</speed>
</trkpt>
<trkpt lat="56.097099" lon="26.546762">
<ele>106.377991</ele>
<time>2010-08-29T14:19:41Z</time>
<desc>lat.=56.097099, lon.=26.546762, Alt.=106.377991m. Speed=0.000000m/h.</desc>
<speed>0.000000</speed>
</trkpt>
<trkpt lat="56.097099" lon="26.546762">
<ele>106.376038</ele>
<time>2010-08-29T14:19:42Z</time>
<desc>lat.=56.097099, lon.=26.546762, Alt.=106.376038m. Speed=0.000000m/h.</desc>
<speed>0.000000</speed>
</trkpt>
<trkpt lat="56.097099" lon="26.546762">
<ele>106.376038</ele>
<time>2010-08-29T14:19:43Z</time>
<desc>lat.=56.097099, lon.=26.546762, Alt.=106.376038m. Speed=0.000000m/h.</desc>
<speed>0.000000</speed>
</trkpt>
<trkpt lat="56.097099" lon="26.546762">
<ele>106.376038</ele>
<time>2010-08-29T14:19:44Z</time>
<desc>lat.=56.097099, lon.=26.546762, Alt.=106.376038m. Speed=0.000000m/h.</desc>
<speed>0.000000</speed>
</trkpt>
<trkpt lat="56.097099" lon="26.546762">
<ele>106.374084</ele>
<time>2010-08-29T14:19:45Z</time>
<desc>lat.=56.097099, lon.=26.546762, Alt.=106.374084m. Speed=0.000000m/h.</desc>
<speed>0.000000</speed>
</trkpt>
<trkpt lat="56.097099" lon="26.546762">
<ele>106.372131</ele>
<time>2010-08-29T14:19:46Z</time>
<desc>lat.=56.097099, lon.=26.546762, Alt.=106.372131m. Speed=0.000000m/h.</desc>
<speed>0.000000</speed>
</trkpt>
<trkpt lat="56.097099" lon="26.546762">
<ele>106.370178</ele>
<time>2010-08-29T14:19:47Z</time>
<desc>lat.=56.097099, lon.=26.546762, Alt.=106.370178m. Speed=0.000000m/h.</desc>
<speed>0.000000</speed>
</trkpt>
<trkpt lat="56.097099" lon="26.546762">
<ele>106.368225</ele>
<time>2010-08-29T14:19:48Z</time>
<desc>lat.=56.097099, lon.=26.546762, Alt.=106.368225m. Speed=0.000000m/h.</desc>
<speed>0.000000</speed>
</trkpt>
<trkpt lat="56.097099" lon="26.546762">
<ele>106.368225</ele>
<time>2010-08-29T14:19:49Z</time>
<desc>lat.=56.097099, lon.=26.546762, Alt.=106.368225m. Speed=0.000000m/h.</desc>
<speed>0.000000</speed>
</trkpt>
<trkpt lat="56.097099" lon="26.546762">
<ele>106.366272</ele>
<time>2010-08-29T14:19:50Z</time>
<desc>lat.=56.097099, lon.=26.546762, Alt.=106.366272m. Speed=0.000000m/h.</desc>
<speed>0.000000</speed>
</trkpt>
<trkpt lat="56.097099" lon="26.546762">
<ele>106.366272</ele>
<time>2010-08-29T14:19:51Z</time>
<desc>lat.=56.097099, lon.=26.546762, Alt.=106.366272m. Speed=0.000000m/h.</desc>
<speed>0.000000</speed>
</trkpt>
<trkpt lat="56.097099" lon="26.546762">
<ele>106.364319</ele>
<time>2010-08-29T14:19:52Z</time>
<desc>lat.=56.097099, lon.=26.546762, Alt.=106.364319m. Speed=0.000000m/h.</desc>
<speed>0.000000</speed>
</trkpt>
<trkpt lat="56.097099" lon="26.546762">
<ele>106.362366</ele>
<time>2010-08-29T14:19:53Z</time>
<desc>lat.=56.097099, lon.=26.546762, Alt.=106.362366m. Speed=0.000000m/h.</desc>
<speed>0.000000</speed>
</trkpt>
<trkpt lat="56.097099" lon="26.546762">
<ele>106.360413</ele>
<time>2010-08-29T14:19:54Z</time>
<desc>lat.=56.097099, lon.=26.546762, Alt.=106.360413m. Speed=0.000000m/h.</desc>
<speed>0.000000</speed>
</trkpt>
<trkpt lat="56.097099" lon="26.546762">
<ele>106.358459</ele>
<time>2010-08-29T14:19:55Z</time>
<desc>lat.=56.097099, lon.=26.546762, Alt.=106.358459m. Speed=0.000000m/h.</desc>
<speed>0.000000</speed>
</trkpt>
<trkpt lat="56.097099" lon="26.546762">
<ele>106.358459</ele>
<time>2010-08-29T14:19:56Z</time>
<desc>lat.=56.097099, lon.=26.546762, Alt.=106.358459m. Speed=0.000000m/h.</desc>
<speed>0.000000</speed>
</trkpt>
<trkpt lat="56.097099" lon="26.546762">
<ele>106.358459</ele>
<time>2010-08-29T14:19:57Z</time>
<desc>lat.=56.097099, lon.=26.546762, Alt.=106.358459m. Speed=0.000000m/h.</desc>
<speed>0.000000</speed>
</trkpt>
<trkpt lat="56.097099" lon="26.546762">
<ele>106.358459</ele>
<time>2010-08-29T14:19:58Z</time>
<desc>lat.=56.097099, lon.=26.546762, Alt.=106.358459m. Speed=0.000000m/h.</desc>
<speed>0.000000</speed>
</trkpt>
<trkpt lat="56.097099" lon="26.546762">
<ele>106.354553</ele>
<time>2010-08-29T14:19:59Z</time>
<desc>lat.=56.097099, lon.=26.546762, Alt.=106.354553m. Speed=0.000000m/h.</desc>
<speed>0.000000</speed>
</trkpt>
<trkpt lat="56.097099" lon="26.546762">
<ele>106.352600</ele>
<time>2010-08-29T14:20:00Z</time>
<desc>lat.=56.097099, lon.=26.546762, Alt.=106.352600m. Speed=0.000000m/h.</desc>
<speed>0.000000</speed>
</trkpt>
<trkpt lat="56.097099" lon="26.546762">
<ele>106.350647</ele>
<time>2010-08-29T14:20:01Z</time>
<desc>lat.=56.097099, lon.=26.546762, Alt.=106.350647m. Speed=0.000000m/h.</desc>
<speed>0.000000</speed>
</trkpt>
<trkpt lat="56.097099" lon="26.546762">
<ele>106.346741</ele>
<time>2010-08-29T14:20:02Z</time>
<desc>lat.=56.097099, lon.=26.546762, Alt.=106.346741m. Speed=0.000000m/h.</desc>
<speed>0.000000</speed>
</trkpt>
<trkpt lat="56.097099" lon="26.546762">
<ele>106.344788</ele>
<time>2010-08-29T14:20:03Z</time>
<desc>lat.=56.097099, lon.=26.546762, Alt.=106.344788m. Speed=0.000000m/h.</desc>
<speed>0.000000</speed>
</trkpt>
<trkpt lat="56.097099" lon="26.546762">
<ele>106.344788</ele>
<time>2010-08-29T14:20:04Z</time>
<desc>lat.=56.097099, lon.=26.546762, Alt.=106.344788m. Speed=0.000000m/h.</desc>
<speed>0.000000</speed>
</trkpt>
<trkpt lat="56.097099" lon="26.546762">
<ele>106.344788</ele>
<time>2010-08-29T14:20:05Z</time>
<desc>lat.=56.097099, lon.=26.546762, Alt.=106.344788m. Speed=0.000000m/h.</desc>
<speed>0.000000</speed>
</trkpt>
<trkpt lat="56.097099" lon="26.546762">
<ele>106.344788</ele>
<time>2010-08-29T14:20:06Z</time>
<desc>lat.=56.097099, lon.=26.546762, Alt.=106.344788m. Speed=0.000000m/h.</desc>
<speed>0.000000</speed>
</trkpt>
<trkpt lat="56.097099" lon="26.546762">
<ele>106.342834</ele>
<time>2010-08-29T14:20:07Z</time>
<desc>lat.=56.097099, lon.=26.546762, Alt.=106.342834m. Speed=0.000000m/h.</desc>
<speed>0.000000</speed>
</trkpt>
<trkpt lat="56.097099" lon="26.546762">
<ele>106.342834</ele>
<time>2010-08-29T14:20:08Z</time>
<desc>lat.=56.097099, lon.=26.546762, Alt.=106.342834m. Speed=0.000000m/h.</desc>
<speed>0.000000</speed>
</trkpt>
<trkpt lat="56.097099" lon="26.546762">
<ele>106.340881</ele>
<time>2010-08-29T14:20:09Z</time>
<desc>lat.=56.097099, lon.=26.546762, Alt.=106.340881m. Speed=0.000000m/h.</desc>
<speed>0.000000</speed>
</trkpt>
<trkpt lat="56.097099" lon="26.546762">
<ele>106.340881</ele>
<time>2010-08-29T14:20:10Z</time>
<desc>lat.=56.097099, lon.=26.546762, Alt.=106.340881m. Speed=0.000000m/h.</desc>
<speed>0.000000</speed>
</trkpt>
<trkpt lat="56.097099" lon="26.546762">
<ele>106.338928</ele>
<time>2010-08-29T14:20:11Z</time>
<desc>lat.=56.097099, lon.=26.546762, Alt.=106.338928m. Speed=0.000000m/h.</desc>
<speed>0.000000</speed>
</trkpt>
<trkpt lat="56.097099" lon="26.546761">
<ele>106.338928</ele>
<time>2010-08-29T14:20:12Z</time>
<desc>lat.=56.097099, lon.=26.546761, Alt.=106.338928m. Speed=0.000000m/h.</desc>
<speed>0.000000</speed>
</trkpt>
<trkpt lat="56.097099" lon="26.546761">
<ele>106.338928</ele>
<time>2010-08-29T14:20:13Z</time>
<desc>lat.=56.097099, lon.=26.546761, Alt.=106.338928m. Speed=0.000000m/h.</desc>
<speed>0.000000</speed>
</trkpt>
<trkpt lat="56.097099" lon="26.546761">
<ele>106.336975</ele>
<time>2010-08-29T14:20:14Z</time>
<desc>lat.=56.097099, lon.=26.546761, Alt.=106.336975m. Speed=0.000000m/h.</desc>
<speed>0.000000</speed>
</trkpt>
<trkpt lat="56.097099" lon="26.546761">
<ele>106.335022</ele>
<time>2010-08-29T14:20:15Z</time>
<desc>lat.=56.097099, lon.=26.546761, Alt.=106.335022m. Speed=0.000000m/h.</desc>
<speed>0.000000</speed>
</trkpt>
<trkpt lat="56.097099" lon="26.546761">
<ele>106.335022</ele>
<time>2010-08-29T14:20:16Z</time>
<desc>lat.=56.097099, lon.=26.546761, Alt.=106.335022m. Speed=0.000000m/h.</desc>
<speed>0.000000</speed>
</trkpt>
<trkpt lat="56.097099" lon="26.546761">
<ele>106.335022</ele>
<time>2010-08-29T14:20:17Z</time>
<desc>lat.=56.097099, lon.=26.546761, Alt.=106.335022m. Speed=0.000000m/h.</desc>
<speed>0.000000</speed>
</trkpt>
<trkpt lat="56.097099" lon="26.546761">
<ele>106.333069</ele>
<time>2010-08-29T14:20:18Z</time>
<desc>lat.=56.097099, lon.=26.546761, Alt.=106.333069m. Speed=0.000000m/h.</desc>
<speed>0.000000</speed>
</trkpt>
<trkpt lat="56.097099" lon="26.546761">
<ele>106.331116</ele>
<time>2010-08-29T14:20:19Z</time>
<desc>lat.=56.097099, lon.=26.546761, Alt.=106.331116m. Speed=0.000000m/h.</desc>
<speed>0.000000</speed>
</trkpt>
<trkpt lat="56.097099" lon="26.546761">
<ele>106.333069</ele>
<time>2010-08-29T14:20:20Z</time>
<desc>lat.=56.097099, lon.=26.546761, Alt.=106.333069m. Speed=0.000000m/h.</desc>
<speed>0.000000</speed>
</trkpt>
<trkpt lat="56.097099" lon="26.546761">
<ele>106.333069</ele>
<time>2010-08-29T14:20:21Z</time>
<desc>lat.=56.097099, lon.=26.546761, Alt.=106.333069m. Speed=0.000000m/h.</desc>
<speed>0.000000</speed>
</trkpt>
<trkpt lat="56.097099" lon="26.546761">
<ele>106.333069</ele>
<time>2010-08-29T14:20:22Z</time>
<desc>lat.=56.097099, lon.=26.546761, Alt.=106.333069m. Speed=0.000000m/h.</desc>
<speed>0.000000</speed>
</trkpt>
<trkpt lat="56.097099" lon="26.546761">
<ele>106.333069</ele>
<time>2010-08-29T14:20:23Z</time>
<desc>lat.=56.097099, lon.=26.546761, Alt.=106.333069m. Speed=0.000000m/h.</desc>
<speed>0.000000</speed>
</trkpt>
<trkpt lat="56.097099" lon="26.546761">
<ele>106.333069</ele>
<time>2010-08-29T14:20:24Z</time>
<desc>lat.=56.097099, lon.=26.546761, Alt.=106.333069m. Speed=0.000000m/h.</desc>
<speed>0.000000</speed>
</trkpt>
<trkpt lat="56.097099" lon="26.546761">
<ele>106.329163</ele>
<time>2010-08-29T14:20:25Z</time>
<desc>lat.=56.097099, lon.=26.546761, Alt.=106.329163m. Speed=0.000000m/h.</desc>
<speed>0.000000</speed>
</trkpt>
<trkpt lat="56.097099" lon="26.546761">
<ele>106.327209</ele>
<time>2010-08-29T14:20:26Z</time>
<desc>lat.=56.097099, lon.=26.546761, Alt.=106.327209m. Speed=0.000000m/h.</desc>
<speed>0.000000</speed>
</trkpt>
<trkpt lat="56.097099" lon="26.546761">
<ele>106.325256</ele>
<time>2010-08-29T14:20:27Z</time>
<desc>lat.=56.097099, lon.=26.546761, Alt.=106.325256m. Speed=0.000000m/h.</desc>
<speed>0.000000</speed>
</trkpt>
<trkpt lat="56.097099" lon="26.546761">
<ele>106.321350</ele>
<time>2010-08-29T14:20:28Z</time>
<desc>lat.=56.097099, lon.=26.546761, Alt.=106.321350m. Speed=0.000000m/h.</desc>
<speed>0.000000</speed>
</trkpt>
<trkpt lat="56.097099" lon="26.546761">
<ele>106.319397</ele>
<time>2010-08-29T14:20:29Z</time>
<desc>lat.=56.097099, lon.=26.546761, Alt.=106.319397m. Speed=0.000000m/h.</desc>
<speed>0.000000</speed>
</trkpt>
<trkpt lat="56.097099" lon="26.546761">
<ele>106.315491</ele>
<time>2010-08-29T14:20:30Z</time>
<desc>lat.=56.097099, lon.=26.546761, Alt.=106.315491m. Speed=0.000000m/h.</desc>
<speed>0.000000</speed>
</trkpt>
<trkpt lat="56.097099" lon="26.546761">
<ele>106.313538</ele>
<time>2010-08-29T14:20:31Z</time>
<desc>lat.=56.097099, lon.=26.546761, Alt.=106.313538m. Speed=0.000000m/h.</desc>
<speed>0.000000</speed>
</trkpt>
<trkpt lat="56.097099" lon="26.546761">
<ele>106.309631</ele>
<time>2010-08-29T14:20:32Z</time>
<desc>lat.=56.097099, lon.=26.546761, Alt.=106.309631m. Speed=0.000000m/h.</desc>
<speed>0.000000</speed>
</trkpt>
<trkpt lat="56.097099" lon="26.546761">
<ele>106.309631</ele>
<time>2010-08-29T14:20:33Z</time>
<desc>lat.=56.097099, lon.=26.546761, Alt.=106.309631m. Speed=0.000000m/h.</desc>
<speed>0.000000</speed>
</trkpt>
<trkpt lat="56.097099" lon="26.546761">
<ele>106.305725</ele>
<time>2010-08-29T14:20:34Z</time>
<desc>lat.=56.097099, lon.=26.546761, Alt.=106.305725m. Speed=0.000000m/h.</desc>
<speed>0.000000</speed>
</trkpt>
<trkpt lat="56.097099" lon="26.546761">
<ele>106.303772</ele>
<time>2010-08-29T14:20:35Z</time>
<desc>lat.=56.097099, lon.=26.546761, Alt.=106.303772m. Speed=0.000000m/h.</desc>
<speed>0.000000</speed>
</trkpt>
<trkpt lat="56.097099" lon="26.546761">
<ele>106.301819</ele>
<time>2010-08-29T14:20:36Z</time>
<desc>lat.=56.097099, lon.=26.546761, Alt.=106.301819m. Speed=0.000000m/h.</desc>
<speed>0.000000</speed>
</trkpt>
<trkpt lat="56.097099" lon="26.546761">
<ele>106.299866</ele>
<time>2010-08-29T14:20:37Z</time>
<desc>lat.=56.097099, lon.=26.546761, Alt.=106.299866m. Speed=0.000000m/h.</desc>
<speed>0.000000</speed>
</trkpt>
<trkpt lat="56.097099" lon="26.546761">
<ele>106.297913</ele>
<time>2010-08-29T14:20:38Z</time>
<desc>lat.=56.097099, lon.=26.546761, Alt.=106.297913m. Speed=0.000000m/h.</desc>
<speed>0.000000</speed>
</trkpt>
<trkpt lat="56.097099" lon="26.546761">
<ele>106.295959</ele>
<time>2010-08-29T14:20:39Z</time>
<desc>lat.=56.097099, lon.=26.546761, Alt.=106.295959m. Speed=0.000000m/h.</desc>
<speed>0.000000</speed>
</trkpt>
<trkpt lat="56.097099" lon="26.546761">
<ele>106.295959</ele>
<time>2010-08-29T14:20:40Z</time>
<desc>lat.=56.097099, lon.=26.546761, Alt.=106.295959m. Speed=0.000000m/h.</desc>
<speed>0.000000</speed>
</trkpt>
<trkpt lat="56.097099" lon="26.546761">
<ele>106.292053</ele>
<time>2010-08-29T14:20:41Z</time>
<desc>lat.=56.097099, lon.=26.546761, Alt.=106.292053m. Speed=0.000000m/h.</desc>
<speed>0.000000</speed>
</trkpt>
<trkpt lat="56.097099" lon="26.546761">
<ele>106.290100</ele>
<time>2010-08-29T14:20:42Z</time>
<desc>lat.=56.097099, lon.=26.546761, Alt.=106.290100m. Speed=0.000000m/h.</desc>
<speed>0.000000</speed>
</trkpt>
<trkpt lat="56.097099" lon="26.546761">
<ele>106.288147</ele>
<time>2010-08-29T14:20:43Z</time>
<desc>lat.=56.097099, lon.=26.546761, Alt.=106.288147m. Speed=0.000000m/h.</desc>
<speed>0.000000</speed>
</trkpt>
<trkpt lat="56.097099" lon="26.546761">
<ele>106.288147</ele>
<time>2010-08-29T14:20:44Z</time>
<desc>lat.=56.097099, lon.=26.546761, Alt.=106.288147m. Speed=0.000000m/h.</desc>
<speed>0.000000</speed>
</trkpt>
<trkpt lat="56.097099" lon="26.546761">
<ele>106.286194</ele>
<time>2010-08-29T14:20:45Z</time>
<desc>lat.=56.097099, lon.=26.546761, Alt.=106.286194m. Speed=0.000000m/h.</desc>
<speed>0.000000</speed>
</trkpt>
<trkpt lat="56.097099" lon="26.546761">
<ele>106.288147</ele>
<time>2010-08-29T14:20:46Z</time>
<desc>lat.=56.097099, lon.=26.546761, Alt.=106.288147m. Speed=0.000000m/h.</desc>
<speed>0.000000</speed>
</trkpt>
<trkpt lat="56.097099" lon="26.546761">
<ele>106.288147</ele>
<time>2010-08-29T14:20:47Z</time>
<desc>lat.=56.097099, lon.=26.546761, Alt.=106.288147m. Speed=0.000000m/h.</desc>
<speed>0.000000</speed>
</trkpt>
<trkpt lat="56.097099" lon="26.546761">
<ele>106.288147</ele>
<time>2010-08-29T14:20:48Z</time>
<desc>lat.=56.097099, lon.=26.546761, Alt.=106.288147m. Speed=0.000000m/h.</desc>
<speed>0.000000</speed>
</trkpt>
<trkpt lat="56.097099" lon="26.546761">
<ele>106.288147</ele>
<time>2010-08-29T14:20:49Z</time>
<desc>lat.=56.097099, lon.=26.546761, Alt.=106.288147m. Speed=0.000000m/h.</desc>
<speed>0.000000</speed>
</trkpt>
<trkpt lat="56.097099" lon="26.546761">
<ele>106.290100</ele>
<time>2010-08-29T14:20:50Z</time>
<desc>lat.=56.097099, lon.=26.546761, Alt.=106.290100m. Speed=0.000000m/h.</desc>
<speed>0.000000</speed>
</trkpt>
<trkpt lat="56.097099" lon="26.546761">
<ele>106.290100</ele>
<time>2010-08-29T14:20:51Z</time>
<desc>lat.=56.097099, lon.=26.546761, Alt.=106.290100m. Speed=0.000000m/h.</desc>
<speed>0.000000</speed>
</trkpt>
<trkpt lat="56.097099" lon="26.546761">
<ele>106.290100</ele>
<time>2010-08-29T14:20:52Z</time>
<desc>lat.=56.097099, lon.=26.546761, Alt.=106.290100m. Speed=0.000000m/h.</desc>
<speed>0.000000</speed>
</trkpt>
<trkpt lat="56.097099" lon="26.546761">
<ele>106.288147</ele>
<time>2010-08-29T14:20:53Z</time>
<desc>lat.=56.097099, lon.=26.546761, Alt.=106.288147m. Speed=0.000000m/h.</desc>
<speed>0.000000</speed>
</trkpt>
<trkpt lat="56.097099" lon="26.546761">
<ele>106.288147</ele>
<time>2010-08-29T14:20:54Z</time>
<desc>lat.=56.097099, lon.=26.546761, Alt.=106.288147m. Speed=0.000000m/h.</desc>
<speed>0.000000</speed>
</trkpt>
<trkpt lat="56.097099" lon="26.546761">
<ele>106.290100</ele>
<time>2010-08-29T14:20:55Z</time>
<desc>lat.=56.097099, lon.=26.546761, Alt.=106.290100m. Speed=0.000000m/h.</desc>
<speed>0.000000</speed>
</trkpt>
<trkpt lat="56.097099" lon="26.546761">
<ele>106.290100</ele>
<time>2010-08-29T14:20:56Z</time>
<desc>lat.=56.097099, lon.=26.546761, Alt.=106.290100m. Speed=0.000000m/h.</desc>
<speed>0.000000</speed>
</trkpt>
<trkpt lat="56.097099" lon="26.546761">
<ele>106.292053</ele>
<time>2010-08-29T14:20:57Z</time>
<desc>lat.=56.097099, lon.=26.546761, Alt.=106.292053m. Speed=0.000000m/h.</desc>
<speed>0.000000</speed>
</trkpt>
<trkpt lat="56.097099" lon="26.546761">
<ele>106.294006</ele>
<time>2010-08-29T14:20:58Z</time>
<desc>lat.=56.097099, lon.=26.546761, Alt.=106.294006m. Speed=0.000000m/h.</desc>
<speed>0.000000</speed>
</trkpt>
<trkpt lat="56.097099" lon="26.546761">
<ele>106.294006</ele>
<time>2010-08-29T14:20:59Z</time>
<desc>lat.=56.097099, lon.=26.546761, Alt.=106.294006m. Speed=0.000000m/h.</desc>
<speed>0.000000</speed>
</trkpt>
<trkpt lat="56.097099" lon="26.546761">
<ele>106.294006</ele>
<time>2010-08-29T14:21:00Z</time>
<desc>lat.=56.097099, lon.=26.546761, Alt.=106.294006m. Speed=0.000000m/h.</desc>
<speed>0.000000</speed>
</trkpt>
<trkpt lat="56.097099" lon="26.546761">
<ele>106.294006</ele>
<time>2010-08-29T14:21:01Z</time>
<desc>lat.=56.097099, lon.=26.546761, Alt.=106.294006m. Speed=0.000000m/h.</desc>
<speed>0.000000</speed>
</trkpt>
<trkpt lat="56.097099" lon="26.546761">
<ele>106.294006</ele>
<time>2010-08-29T14:21:02Z</time>
<desc>lat.=56.097099, lon.=26.546761, Alt.=106.294006m. Speed=0.000000m/h.</desc>
<speed>0.000000</speed>
</trkpt>
<trkpt lat="56.097099" lon="26.546761">
<ele>106.295959</ele>
<time>2010-08-29T14:21:03Z</time>
<desc>lat.=56.097099, lon.=26.546761, Alt.=106.295959m. Speed=0.000000m/h.</desc>
<speed>0.000000</speed>
</trkpt>
<trkpt lat="56.097099" lon="26.546761">
<ele>106.295959</ele>
<time>2010-08-29T14:21:04Z</time>
<desc>lat.=56.097099, lon.=26.546761, Alt.=106.295959m. Speed=0.000000m/h.</desc>
<speed>0.000000</speed>
</trkpt>
<trkpt lat="56.097099" lon="26.546761">
<ele>106.295959</ele>
<time>2010-08-29T14:21:05Z</time>
<desc>lat.=56.097099, lon.=26.546761, Alt.=106.295959m. Speed=0.000000m/h.</desc>
<speed>0.000000</speed>
</trkpt>
<trkpt lat="56.097099" lon="26.546761">
<ele>106.297913</ele>
<time>2010-08-29T14:21:06Z</time>
<desc>lat.=56.097099, lon.=26.546761, Alt.=106.297913m. Speed=0.000000m/h.</desc>
<speed>0.000000</speed>
</trkpt>
<trkpt lat="56.097099" lon="26.546761">
<ele>106.297913</ele>
<time>2010-08-29T14:21:07Z</time>
<desc>lat.=56.097099, lon.=26.546761, Alt.=106.297913m. Speed=0.000000m/h.</desc>
<speed>0.000000</speed>
</trkpt>
<trkpt lat="56.097099" lon="26.546761">
<ele>106.297913</ele>
<time>2010-08-29T14:21:08Z</time>
<desc>lat.=56.097099, lon.=26.546761, Alt.=106.297913m. Speed=0.000000m/h.</desc>
<speed>0.000000</speed>
</trkpt>
<trkpt lat="56.097099" lon="26.546761">
<ele>106.297913</ele>
<time>2010-08-29T14:21:09Z</time>
<desc>lat.=56.097099, lon.=26.546761, Alt.=106.297913m. Speed=0.000000m/h.</desc>
<speed>0.000000</speed>
</trkpt>
<trkpt lat="56.097099" lon="26.546761">
<ele>106.297913</ele>
<time>2010-08-29T14:21:10Z</time>
<desc>lat.=56.097099, lon.=26.546761, Alt.=106.297913m. Speed=0.000000m/h.</desc>
<speed>0.000000</speed>
</trkpt>
<trkpt lat="56.097099" lon="26.546761">
<ele>106.297913</ele>
<time>2010-08-29T14:21:11Z</time>
<desc>lat.=56.097099, lon.=26.546761, Alt.=106.297913m. Speed=0.000000m/h.</desc>
<speed>0.000000</speed>
</trkpt>
<trkpt lat="56.097099" lon="26.546761">
<ele>106.297913</ele>
<time>2010-08-29T14:21:12Z</time>
<desc>lat.=56.097099, lon.=26.546761, Alt.=106.297913m. Speed=0.000000m/h.</desc>
<speed>0.000000</speed>
</trkpt>
<trkpt lat="56.097099" lon="26.546761">
<ele>106.297913</ele>
<time>2010-08-29T14:21:13Z</time>
<desc>lat.=56.097099, lon.=26.546761, Alt.=106.297913m. Speed=0.000000m/h.</desc>
<speed>0.000000</speed>
</trkpt>
<trkpt lat="56.097099" lon="26.546761">
<ele>106.297913</ele>
<time>2010-08-29T14:21:14Z</time>
<desc>lat.=56.097099, lon.=26.546761, Alt.=106.297913m. Speed=0.000000m/h.</desc>
<speed>0.000000</speed>
</trkpt>
<trkpt lat="56.097099" lon="26.546761">
<ele>106.299866</ele>
<time>2010-08-29T14:21:15Z</time>
<desc>lat.=56.097099, lon.=26.546761, Alt.=106.299866m. Speed=0.000000m/h.</desc>
<speed>0.000000</speed>
</trkpt>
<trkpt lat="56.097099" lon="26.546761">
<ele>106.297913</ele>
<time>2010-08-29T14:21:16Z</time>
<desc>lat.=56.097099, lon.=26.546761, Alt.=106.297913m. Speed=0.000000m/h.</desc>
<speed>0.000000</speed>
</trkpt>
<trkpt lat="56.097099" lon="26.546761">
<ele>106.297913</ele>
<time>2010-08-29T14:21:17Z</time>
<desc>lat.=56.097099, lon.=26.546761, Alt.=106.297913m. Speed=0.000000m/h.</desc>
<speed>0.000000</speed>
</trkpt>
<trkpt lat="56.097099" lon="26.546761">
<ele>106.297913</ele>
<time>2010-08-29T14:21:18Z</time>
<desc>lat.=56.097099, lon.=26.546761, Alt.=106.297913m. Speed=0.000000m/h.</desc>
<speed>0.000000</speed>
</trkpt>
<trkpt lat="56.097099" lon="26.546761">
<ele>106.297913</ele>
<time>2010-08-29T14:21:19Z</time>
<desc>lat.=56.097099, lon.=26.546761, Alt.=106.297913m. Speed=0.000000m/h.</desc>
<speed>0.000000</speed>
</trkpt>
<trkpt lat="56.097099" lon="26.546761">
<ele>106.297913</ele>
<time>2010-08-29T14:21:20Z</time>
<desc>lat.=56.097099, lon.=26.546761, Alt.=106.297913m. Speed=0.000000m/h.</desc>
<speed>0.000000</speed>
</trkpt>
<trkpt lat="56.097099" lon="26.546761">
<ele>106.297913</ele>
<time>2010-08-29T14:21:21Z</time>
<desc>lat.=56.097099, lon.=26.546761, Alt.=106.297913m. Speed=0.000000m/h.</desc>
<speed>0.000000</speed>
</trkpt>
<trkpt lat="56.097099" lon="26.546761">
<ele>106.297913</ele>
<time>2010-08-29T14:21:22Z</time>
<desc>lat.=56.097099, lon.=26.546761, Alt.=106.297913m. Speed=0.000000m/h.</desc>
<speed>0.000000</speed>
</trkpt>
<trkpt lat="56.097099" lon="26.546761">
<ele>106.297913</ele>
<time>2010-08-29T14:21:23Z</time>
<desc>lat.=56.097099, lon.=26.546761, Alt.=106.297913m. Speed=0.000000m/h.</desc>
<speed>0.000000</speed>
</trkpt>
<trkpt lat="56.097099" lon="26.546761">
<ele>106.299866</ele>
<time>2010-08-29T14:21:24Z</time>
<desc>lat.=56.097099, lon.=26.546761, Alt.=106.299866m. Speed=0.000000m/h.</desc>
<speed>0.000000</speed>
</trkpt>
<trkpt lat="56.097099" lon="26.546761">
<ele>106.299866</ele>
<time>2010-08-29T14:21:25Z</time>
<desc>lat.=56.097099, lon.=26.546761, Alt.=106.299866m. Speed=0.000000m/h.</desc>
<speed>0.000000</speed>
</trkpt>
<trkpt lat="56.097099" lon="26.546761">
<ele>106.299866</ele>
<time>2010-08-29T14:21:26Z</time>
<desc>lat.=56.097099, lon.=26.546761, Alt.=106.299866m. Speed=0.000000m/h.</desc>
<speed>0.000000</speed>
</trkpt>
<trkpt lat="56.097099" lon="26.546761">
<ele>106.299866</ele>
<time>2010-08-29T14:21:27Z</time>
<desc>lat.=56.097099, lon.=26.546761, Alt.=106.299866m. Speed=0.000000m/h.</desc>
<speed>0.000000</speed>
</trkpt>
<trkpt lat="56.097099" lon="26.546761">
<ele>106.299866</ele>
<time>2010-08-29T14:21:28Z</time>
<desc>lat.=56.097099, lon.=26.546761, Alt.=106.299866m. Speed=0.000000m/h.</desc>
<speed>0.000000</speed>
</trkpt>
<trkpt lat="56.097099" lon="26.546761">
<ele>106.299866</ele>
<time>2010-08-29T14:21:29Z</time>
<desc>lat.=56.097099, lon.=26.546761, Alt.=106.299866m. Speed=0.000000m/h.</desc>
<speed>0.000000</speed>
</trkpt>
<trkpt lat="56.097099" lon="26.546761">
<ele>106.299866</ele>
<time>2010-08-29T14:21:30Z</time>
<desc>lat.=56.097099, lon.=26.546761, Alt.=106.299866m. Speed=0.000000m/h.</desc>
<speed>0.000000</speed>
</trkpt>
<trkpt lat="56.097099" lon="26.546761">
<ele>106.299866</ele>
<time>2010-08-29T14:21:31Z</time>
<desc>lat.=56.097099, lon.=26.546761, Alt.=106.299866m. Speed=0.000000m/h.</desc>
<speed>0.000000</speed>
</trkpt>
<trkpt lat="56.097099" lon="26.546761">
<ele>106.299866</ele>
<time>2010-08-29T14:21:32Z</time>
<desc>lat.=56.097099, lon.=26.546761, Alt.=106.299866m. Speed=0.000000m/h.</desc>
<speed>0.000000</speed>
</trkpt>
<trkpt lat="56.097099" lon="26.546761">
<ele>106.297913</ele>
<time>2010-08-29T14:21:33Z</time>
<desc>lat.=56.097099, lon.=26.546761, Alt.=106.297913m. Speed=0.000000m/h.</desc>
<speed>0.000000</speed>
</trkpt>
<trkpt lat="56.097099" lon="26.546761">
<ele>106.299866</ele>
<time>2010-08-29T14:21:34Z</time>
<desc>lat.=56.097099, lon.=26.546761, Alt.=106.299866m. Speed=0.000000m/h.</desc>
<speed>0.000000</speed>
</trkpt>
<trkpt lat="56.097099" lon="26.546761">
<ele>106.299866</ele>
<time>2010-08-29T14:21:35Z</time>
<desc>lat.=56.097099, lon.=26.546761, Alt.=106.299866m. Speed=0.000000m/h.</desc>
<speed>0.000000</speed>
</trkpt>
<trkpt lat="56.097099" lon="26.546761">
<ele>106.299866</ele>
<time>2010-08-29T14:21:36Z</time>
<desc>lat.=56.097099, lon.=26.546761, Alt.=106.299866m. Speed=0.000000m/h.</desc>
<speed>0.000000</speed>
</trkpt>
<trkpt lat="56.097099" lon="26.546761">
<ele>106.297913</ele>
<time>2010-08-29T14:21:37Z</time>
<desc>lat.=56.097099, lon.=26.546761, Alt.=106.297913m. Speed=0.000000m/h.</desc>
<speed>0.000000</speed>
</trkpt>
<trkpt lat="56.097099" lon="26.546761">
<ele>106.297913</ele>
<time>2010-08-29T14:21:38Z</time>
<desc>lat.=56.097099, lon.=26.546761, Alt.=106.297913m. Speed=0.000000m/h.</desc>
<speed>0.000000</speed>
</trkpt>
<trkpt lat="56.097099" lon="26.546761">
<ele>106.297913</ele>
<time>2010-08-29T14:21:39Z</time>
<desc>lat.=56.097099, lon.=26.546761, Alt.=106.297913m. Speed=0.000000m/h.</desc>
<speed>0.000000</speed>
</trkpt>
<trkpt lat="56.097099" lon="26.546761">
<ele>106.297913</ele>
<time>2010-08-29T14:21:40Z</time>
<desc>lat.=56.097099, lon.=26.546761, Alt.=106.297913m. Speed=0.000000m/h.</desc>
<speed>0.000000</speed>
</trkpt>
<trkpt lat="56.097099" lon="26.546761">
<ele>106.297913</ele>
<time>2010-08-29T14:21:41Z</time>
<desc>lat.=56.097099, lon.=26.546761, Alt.=106.297913m. Speed=0.000000m/h.</desc>
<speed>0.000000</speed>
</trkpt>
<trkpt lat="56.097099" lon="26.546761">
<ele>106.295959</ele>
<time>2010-08-29T14:21:42Z</time>
<desc>lat.=56.097099, lon.=26.546761, Alt.=106.295959m. Speed=0.000000m/h.</desc>
<speed>0.000000</speed>
</trkpt>
<trkpt lat="56.097099" lon="26.546761">
<ele>106.295959</ele>
<time>2010-08-29T14:21:43Z</time>
<desc>lat.=56.097099, lon.=26.546761, Alt.=106.295959m. Speed=0.000000m/h.</desc>
<speed>0.000000</speed>
</trkpt>
<trkpt lat="56.097099" lon="26.546761">
<ele>106.297913</ele>
<time>2010-08-29T14:21:44Z</time>
<desc>lat.=56.097099, lon.=26.546761, Alt.=106.297913m. Speed=0.000000m/h.</desc>
<speed>0.000000</speed>
</trkpt>
<trkpt lat="56.097099" lon="26.546761">
<ele>106.297913</ele>
<time>2010-08-29T14:21:45Z</time>
<desc>lat.=56.097099, lon.=26.546761, Alt.=106.297913m. Speed=0.000000m/h.</desc>
<speed>0.000000</speed>
</trkpt>
<trkpt lat="56.097099" lon="26.546761">
<ele>106.297913</ele>
<time>2010-08-29T14:21:46Z</time>
<desc>lat.=56.097099, lon.=26.546761, Alt.=106.297913m. Speed=0.000000m/h.</desc>
<speed>0.000000</speed>
</trkpt>
<trkpt lat="56.097099" lon="26.546761">
<ele>106.295959</ele>
<time>2010-08-29T14:21:47Z</time>
<desc>lat.=56.097099, lon.=26.546761, Alt.=106.295959m. Speed=0.000000m/h.</desc>
<speed>0.000000</speed>
</trkpt>
<trkpt lat="56.097099" lon="26.546761">
<ele>106.295959</ele>
<time>2010-08-29T14:21:48Z</time>
<desc>lat.=56.097099, lon.=26.546761, Alt.=106.295959m. Speed=0.000000m/h.</desc>
<speed>0.000000</speed>
</trkpt>
<trkpt lat="56.097099" lon="26.546761">
<ele>106.295959</ele>
<time>2010-08-29T14:21:49Z</time>
<desc>lat.=56.097099, lon.=26.546761, Alt.=106.295959m. Speed=0.036000m/h.</desc>
<speed>0.010000</speed>
</trkpt>
<trkpt lat="56.097099" lon="26.546761">
<ele>106.294006</ele>
<time>2010-08-29T14:21:50Z</time>
<desc>lat.=56.097099, lon.=26.546761, Alt.=106.294006m. Speed=0.000000m/h.</desc>
<speed>0.000000</speed>
</trkpt>
<trkpt lat="56.097099" lon="26.546761">
<ele>106.294006</ele>
<time>2010-08-29T14:21:51Z</time>
<desc>lat.=56.097099, lon.=26.546761, Alt.=106.294006m. Speed=0.000000m/h.</desc>
<speed>0.000000</speed>
</trkpt>
<trkpt lat="56.097099" lon="26.546762">
<ele>106.294006</ele>
<time>2010-08-29T14:21:52Z</time>
<desc>lat.=56.097099, lon.=26.546762, Alt.=106.294006m. Speed=0.000000m/h.</desc>
<speed>0.000000</speed>
</trkpt>
<trkpt lat="56.097099" lon="26.546762">
<ele>106.292053</ele>
<time>2010-08-29T14:21:53Z</time>
<desc>lat.=56.097099, lon.=26.546762, Alt.=106.292053m. Speed=0.000000m/h.</desc>
<speed>0.000000</speed>
</trkpt>
<trkpt lat="56.097099" lon="26.546762">
<ele>106.290100</ele>
<time>2010-08-29T14:21:54Z</time>
<desc>lat.=56.097099, lon.=26.546762, Alt.=106.290100m. Speed=0.000000m/h.</desc>
<speed>0.000000</speed>
</trkpt>
<trkpt lat="56.097099" lon="26.546762">
<ele>106.288147</ele>
<time>2010-08-29T14:21:55Z</time>
<desc>lat.=56.097099, lon.=26.546762, Alt.=106.288147m. Speed=0.000000m/h.</desc>
<speed>0.000000</speed>
</trkpt>
<trkpt lat="56.097099" lon="26.546762">
<ele>106.288147</ele>
<time>2010-08-29T14:21:56Z</time>
<desc>lat.=56.097099, lon.=26.546762, Alt.=106.288147m. Speed=0.000000m/h.</desc>
<speed>0.000000</speed>
</trkpt>
<trkpt lat="56.097099" lon="26.546762">
<ele>106.286194</ele>
<time>2010-08-29T14:21:57Z</time>
<desc>lat.=56.097099, lon.=26.546762, Alt.=106.286194m. Speed=0.000000m/h.</desc>
<speed>0.000000</speed>
</trkpt>
<trkpt lat="56.097099" lon="26.546762">
<ele>106.284241</ele>
<time>2010-08-29T14:21:58Z</time>
<desc>lat.=56.097099, lon.=26.546762, Alt.=106.284241m. Speed=0.000000m/h.</desc>
<speed>0.000000</speed>
</trkpt>
<trkpt lat="56.097099" lon="26.546762">
<ele>106.284241</ele>
<time>2010-08-29T14:21:59Z</time>
<desc>lat.=56.097099, lon.=26.546762, Alt.=106.284241m. Speed=0.000000m/h.</desc>
<speed>0.000000</speed>
</trkpt>
<trkpt lat="56.097099" lon="26.546762">
<ele>106.282288</ele>
<time>2010-08-29T14:22:00Z</time>
<desc>lat.=56.097099, lon.=26.546762, Alt.=106.282288m. Speed=0.000000m/h.</desc>
<speed>0.000000</speed>
</trkpt>
<trkpt lat="56.097099" lon="26.546762">
<ele>106.280334</ele>
<time>2010-08-29T14:22:01Z</time>
<desc>lat.=56.097099, lon.=26.546762, Alt.=106.280334m. Speed=0.000000m/h.</desc>
<speed>0.000000</speed>
</trkpt>
<trkpt lat="56.097099" lon="26.546762">
<ele>106.278381</ele>
<time>2010-08-29T14:22:02Z</time>
<desc>lat.=56.097099, lon.=26.546762, Alt.=106.278381m. Speed=0.000000m/h.</desc>
<speed>0.000000</speed>
</trkpt>
<trkpt lat="56.097099" lon="26.546762">
<ele>106.276428</ele>
<time>2010-08-29T14:22:03Z</time>
<desc>lat.=56.097099, lon.=26.546762, Alt.=106.276428m. Speed=0.000000m/h.</desc>
<speed>0.000000</speed>
</trkpt>
<trkpt lat="56.097099" lon="26.546762">
<ele>106.274475</ele>
<time>2010-08-29T14:22:04Z</time>
<desc>lat.=56.097099, lon.=26.546762, Alt.=106.274475m. Speed=0.000000m/h.</desc>
<speed>0.000000</speed>
</trkpt>
<trkpt lat="56.097099" lon="26.546762">
<ele>106.270569</ele>
<time>2010-08-29T14:22:05Z</time>
<desc>lat.=56.097099, lon.=26.546762, Alt.=106.270569m. Speed=0.000000m/h.</desc>
<speed>0.000000</speed>
</trkpt>
<trkpt lat="56.097099" lon="26.546762">
<ele>106.268616</ele>
<time>2010-08-29T14:22:06Z</time>
<desc>lat.=56.097099, lon.=26.546762, Alt.=106.268616m. Speed=0.000000m/h.</desc>
<speed>0.000000</speed>
</trkpt>
<trkpt lat="56.097099" lon="26.546762">
<ele>106.268616</ele>
<time>2010-08-29T14:22:07Z</time>
<desc>lat.=56.097099, lon.=26.546762, Alt.=106.268616m. Speed=0.000000m/h.</desc>
<speed>0.000000</speed>
</trkpt>
<trkpt lat="56.097099" lon="26.546762">
<ele>106.266663</ele>
<time>2010-08-29T14:22:08Z</time>
<desc>lat.=56.097099, lon.=26.546762, Alt.=106.266663m. Speed=0.000000m/h.</desc>
<speed>0.000000</speed>
</trkpt>
<trkpt lat="56.097099" lon="26.546762">
<ele>106.266663</ele>
<time>2010-08-29T14:22:09Z</time>
<desc>lat.=56.097099, lon.=26.546762, Alt.=106.266663m. Speed=0.000000m/h.</desc>
<speed>0.000000</speed>
</trkpt>
<trkpt lat="56.097099" lon="26.546762">
<ele>106.262756</ele>
<time>2010-08-29T14:22:10Z</time>
<desc>lat.=56.097099, lon.=26.546762, Alt.=106.262756m. Speed=0.000000m/h.</desc>
<speed>0.000000</speed>
</trkpt>
<trkpt lat="56.097099" lon="26.546762">
<ele>106.260803</ele>
<time>2010-08-29T14:22:11Z</time>
<desc>lat.=56.097099, lon.=26.546762, Alt.=106.260803m. Speed=0.000000m/h.</desc>
<speed>0.000000</speed>
</trkpt>
<trkpt lat="56.097099" lon="26.546762">
<ele>106.258850</ele>
<time>2010-08-29T14:22:12Z</time>
<desc>lat.=56.097099, lon.=26.546762, Alt.=106.258850m. Speed=0.000000m/h.</desc>
<speed>0.000000</speed>
</trkpt>
<trkpt lat="56.097099" lon="26.546762">
<ele>106.256897</ele>
<time>2010-08-29T14:22:13Z</time>
<desc>lat.=56.097099, lon.=26.546762, Alt.=106.256897m. Speed=0.000000m/h.</desc>
<speed>0.000000</speed>
</trkpt>
<trkpt lat="56.097099" lon="26.546762">
<ele>106.256897</ele>
<time>2010-08-29T14:22:14Z</time>
<desc>lat.=56.097099, lon.=26.546762, Alt.=106.256897m. Speed=0.000000m/h.</desc>
<speed>0.000000</speed>
</trkpt>
<trkpt lat="56.097099" lon="26.546762">
<ele>106.254944</ele>
<time>2010-08-29T14:22:15Z</time>
<desc>lat.=56.097099, lon.=26.546762, Alt.=106.254944m. Speed=0.000000m/h.</desc>
<speed>0.000000</speed>
</trkpt>
<trkpt lat="56.097099" lon="26.546762">
<ele>106.252991</ele>
<time>2010-08-29T14:22:16Z</time>
<desc>lat.=56.097099, lon.=26.546762, Alt.=106.252991m. Speed=0.000000m/h.</desc>
<speed>0.000000</speed>
</trkpt>
<trkpt lat="56.097099" lon="26.546762">
<ele>106.251038</ele>
<time>2010-08-29T14:22:17Z</time>
<desc>lat.=56.097099, lon.=26.546762, Alt.=106.251038m. Speed=0.000000m/h.</desc>
<speed>0.000000</speed>
</trkpt>
<trkpt lat="56.097099" lon="26.546762">
<ele>106.249084</ele>
<time>2010-08-29T14:22:18Z</time>
<desc>lat.=56.097099, lon.=26.546762, Alt.=106.249084m. Speed=0.000000m/h.</desc>
<speed>0.000000</speed>
</trkpt>
<trkpt lat="56.097099" lon="26.546762">
<ele>106.247131</ele>
<time>2010-08-29T14:22:19Z</time>
<desc>lat.=56.097099, lon.=26.546762, Alt.=106.247131m. Speed=0.000000m/h.</desc>
<speed>0.000000</speed>
</trkpt>
<trkpt lat="56.097099" lon="26.546762">
<ele>106.245178</ele>
<time>2010-08-29T14:22:20Z</time>
<desc>lat.=56.097099, lon.=26.546762, Alt.=106.245178m. Speed=0.000000m/h.</desc>
<speed>0.000000</speed>
</trkpt>
<trkpt lat="56.097099" lon="26.546762">
<ele>106.243225</ele>
<time>2010-08-29T14:22:21Z</time>
<desc>lat.=56.097099, lon.=26.546762, Alt.=106.243225m. Speed=0.000000m/h.</desc>
<speed>0.000000</speed>
</trkpt>
<trkpt lat="56.097099" lon="26.546762">
<ele>106.243225</ele>
<time>2010-08-29T14:22:22Z</time>
<desc>lat.=56.097099, lon.=26.546762, Alt.=106.243225m. Speed=0.000000m/h.</desc>
<speed>0.000000</speed>
</trkpt>
<trkpt lat="56.097099" lon="26.546762">
<ele>106.241272</ele>
<time>2010-08-29T14:22:23Z</time>
<desc>lat.=56.097099, lon.=26.546762, Alt.=106.241272m. Speed=0.000000m/h.</desc>
<speed>0.000000</speed>
</trkpt>
<trkpt lat="56.097099" lon="26.546762">
<ele>106.241272</ele>
<time>2010-08-29T14:22:24Z</time>
<desc>lat.=56.097099, lon.=26.546762, Alt.=106.241272m. Speed=0.000000m/h.</desc>
<speed>0.000000</speed>
</trkpt>
<trkpt lat="56.097099" lon="26.546762">
<ele>106.239319</ele>
<time>2010-08-29T14:22:25Z</time>
<desc>lat.=56.097099, lon.=26.546762, Alt.=106.239319m. Speed=0.000000m/h.</desc>
<speed>0.000000</speed>
</trkpt>
<trkpt lat="56.097099" lon="26.546762">
<ele>106.239319</ele>
<time>2010-08-29T14:22:26Z</time>
<desc>lat.=56.097099, lon.=26.546762, Alt.=106.239319m. Speed=0.000000m/h.</desc>
<speed>0.000000</speed>
</trkpt>
<trkpt lat="56.097099" lon="26.546762">
<ele>106.237366</ele>
<time>2010-08-29T14:22:27Z</time>
<desc>lat.=56.097099, lon.=26.546762, Alt.=106.237366m. Speed=0.000000m/h.</desc>
<speed>0.000000</speed>
</trkpt>
<trkpt lat="56.097099" lon="26.546762">
<ele>106.237366</ele>
<time>2010-08-29T14:22:28Z</time>
<desc>lat.=56.097099, lon.=26.546762, Alt.=106.237366m. Speed=0.000000m/h.</desc>
<speed>0.000000</speed>
</trkpt>
<trkpt lat="56.097099" lon="26.546762">
<ele>106.235413</ele>
<time>2010-08-29T14:22:29Z</time>
<desc>lat.=56.097099, lon.=26.546762, Alt.=106.235413m. Speed=0.000000m/h.</desc>
<speed>0.000000</speed>
</trkpt>
<trkpt lat="56.097099" lon="26.546762">
<ele>106.235413</ele>
<time>2010-08-29T14:22:30Z</time>
<desc>lat.=56.097099, lon.=26.546762, Alt.=106.235413m. Speed=0.000000m/h.</desc>
<speed>0.000000</speed>
</trkpt>
<trkpt lat="56.097099" lon="26.546762">
<ele>106.235413</ele>
<time>2010-08-29T14:22:31Z</time>
<desc>lat.=56.097099, lon.=26.546762, Alt.=106.235413m. Speed=0.000000m/h.</desc>
<speed>0.000000</speed>
</trkpt>
<trkpt lat="56.097099" lon="26.546762">
<ele>106.235413</ele>
<time>2010-08-29T14:22:32Z</time>
<desc>lat.=56.097099, lon.=26.546762, Alt.=106.235413m. Speed=0.000000m/h.</desc>
<speed>0.000000</speed>
</trkpt>
<trkpt lat="56.097099" lon="26.546762">
<ele>106.233459</ele>
<time>2010-08-29T14:22:33Z</time>
<desc>lat.=56.097099, lon.=26.546762, Alt.=106.233459m. Speed=0.000000m/h.</desc>
<speed>0.000000</speed>
</trkpt>
<trkpt lat="56.097099" lon="26.546762">
<ele>106.231506</ele>
<time>2010-08-29T14:22:34Z</time>
<desc>lat.=56.097099, lon.=26.546762, Alt.=106.231506m. Speed=0.000000m/h.</desc>
<speed>0.000000</speed>
</trkpt>
<trkpt lat="56.097099" lon="26.546762">
<ele>106.231506</ele>
<time>2010-08-29T14:22:35Z</time>
<desc>lat.=56.097099, lon.=26.546762, Alt.=106.231506m. Speed=0.000000m/h.</desc>
<speed>0.000000</speed>
</trkpt>
<trkpt lat="56.097099" lon="26.546762">
<ele>106.229553</ele>
<time>2010-08-29T14:22:36Z</time>
<desc>lat.=56.097099, lon.=26.546762, Alt.=106.229553m. Speed=0.000000m/h.</desc>
<speed>0.000000</speed>
</trkpt>
<trkpt lat="56.097099" lon="26.546762">
<ele>106.229553</ele>
<time>2010-08-29T14:22:37Z</time>
<desc>lat.=56.097099, lon.=26.546762, Alt.=106.229553m. Speed=0.000000m/h.</desc>
<speed>0.000000</speed>
</trkpt>
<trkpt lat="56.097099" lon="26.546762">
<ele>106.227600</ele>
<time>2010-08-29T14:22:38Z</time>
<desc>lat.=56.097099, lon.=26.546762, Alt.=106.227600m. Speed=0.000000m/h.</desc>
<speed>0.000000</speed>
</trkpt>
<trkpt lat="56.097099" lon="26.546762">
<ele>106.227600</ele>
<time>2010-08-29T14:22:39Z</time>
<desc>lat.=56.097099, lon.=26.546762, Alt.=106.227600m. Speed=0.000000m/h.</desc>
<speed>0.000000</speed>
</trkpt>
<trkpt lat="56.097099" lon="26.546762">
<ele>106.225647</ele>
<time>2010-08-29T14:22:40Z</time>
<desc>lat.=56.097099, lon.=26.546762, Alt.=106.225647m. Speed=0.000000m/h.</desc>
<speed>0.000000</speed>
</trkpt>
<trkpt lat="56.097099" lon="26.546762">
<ele>106.225647</ele>
<time>2010-08-29T14:22:41Z</time>
<desc>lat.=56.097099, lon.=26.546762, Alt.=106.225647m. Speed=0.000000m/h.</desc>
<speed>0.000000</speed>
</trkpt>
<trkpt lat="56.097099" lon="26.546762">
<ele>106.225647</ele>
<time>2010-08-29T14:22:42Z</time>
<desc>lat.=56.097099, lon.=26.546762, Alt.=106.225647m. Speed=0.000000m/h.</desc>
<speed>0.000000</speed>
</trkpt>
<trkpt lat="56.097103" lon="26.546762">
<ele>106.225647</ele>
<time>2010-08-29T14:22:43Z</time>
<desc>lat.=56.097103, lon.=26.546762, Alt.=106.225647m. Speed=0.000000m/h.</desc>
<speed>0.000000</speed>
</trkpt>
<trkpt lat="56.097103" lon="26.546762">
<ele>106.225647</ele>
<time>2010-08-29T14:22:44Z</time>
<desc>lat.=56.097103, lon.=26.546762, Alt.=106.225647m. Speed=0.000000m/h.</desc>
<speed>0.000000</speed>
</trkpt>
<trkpt lat="56.097103" lon="26.546762">
<ele>106.225647</ele>
<time>2010-08-29T14:22:45Z</time>
<desc>lat.=56.097103, lon.=26.546762, Alt.=106.225647m. Speed=0.000000m/h.</desc>
<speed>0.000000</speed>
</trkpt>
<trkpt lat="56.097103" lon="26.546762">
<ele>106.225647</ele>
<time>2010-08-29T14:22:46Z</time>
<desc>lat.=56.097103, lon.=26.546762, Alt.=106.225647m. Speed=0.000000m/h.</desc>
<speed>0.000000</speed>
</trkpt>
<trkpt lat="56.097103" lon="26.546762">
<ele>106.223694</ele>
<time>2010-08-29T14:22:47Z</time>
<desc>lat.=56.097103, lon.=26.546762, Alt.=106.223694m. Speed=0.000000m/h.</desc>
<speed>0.000000</speed>
</trkpt>
<trkpt lat="56.097103" lon="26.546762">
<ele>106.225647</ele>
<time>2010-08-29T14:22:48Z</time>
<desc>lat.=56.097103, lon.=26.546762, Alt.=106.225647m. Speed=0.000000m/h.</desc>
<speed>0.000000</speed>
</trkpt>
<trkpt lat="56.097103" lon="26.546762">
<ele>106.225647</ele>
<time>2010-08-29T14:22:49Z</time>
<desc>lat.=56.097103, lon.=26.546762, Alt.=106.225647m. Speed=0.000000m/h.</desc>
<speed>0.000000</speed>
</trkpt>
<trkpt lat="56.097103" lon="26.546762">
<ele>106.227600</ele>
<time>2010-08-29T14:22:50Z</time>
<desc>lat.=56.097103, lon.=26.546762, Alt.=106.227600m. Speed=0.000000m/h.</desc>
<speed>0.000000</speed>
</trkpt>
<trkpt lat="56.097103" lon="26.546762">
<ele>106.227600</ele>
<time>2010-08-29T14:22:51Z</time>
<desc>lat.=56.097103, lon.=26.546762, Alt.=106.227600m. Speed=0.000000m/h.</desc>
<speed>0.000000</speed>
</trkpt>
<trkpt lat="56.097103" lon="26.546762">
<ele>106.229553</ele>
<time>2010-08-29T14:22:52Z</time>
<desc>lat.=56.097103, lon.=26.546762, Alt.=106.229553m. Speed=0.000000m/h.</desc>
<speed>0.000000</speed>
</trkpt>
<trkpt lat="56.097103" lon="26.546762">
<ele>106.229553</ele>
<time>2010-08-29T14:22:53Z</time>
<desc>lat.=56.097103, lon.=26.546762, Alt.=106.229553m. Speed=0.000000m/h.</desc>
<speed>0.000000</speed>
</trkpt>
<trkpt lat="56.097103" lon="26.546762">
<ele>106.229553</ele>
<time>2010-08-29T14:22:54Z</time>
<desc>lat.=56.097103, lon.=26.546762, Alt.=106.229553m. Speed=0.000000m/h.</desc>
<speed>0.000000</speed>
</trkpt>
<trkpt lat="56.097103" lon="26.546762">
<ele>106.229553</ele>
<time>2010-08-29T14:22:55Z</time>
<desc>lat.=56.097103, lon.=26.546762, Alt.=106.229553m. Speed=0.000000m/h.</desc>
<speed>0.000000</speed>
</trkpt>
<trkpt lat="56.097103" lon="26.546762">
<ele>106.229553</ele>
<time>2010-08-29T14:22:56Z</time>
<desc>lat.=56.097103, lon.=26.546762, Alt.=106.229553m. Speed=0.000000m/h.</desc>
<speed>0.000000</speed>
</trkpt>
<trkpt lat="56.097103" lon="26.546762">
<ele>106.229553</ele>
<time>2010-08-29T14:22:57Z</time>
<desc>lat.=56.097103, lon.=26.546762, Alt.=106.229553m. Speed=0.000000m/h.</desc>
<speed>0.000000</speed>
</trkpt>
<trkpt lat="56.097103" lon="26.546762">
<ele>106.229553</ele>
<time>2010-08-29T14:22:58Z</time>
<desc>lat.=56.097103, lon.=26.546762, Alt.=106.229553m. Speed=0.000000m/h.</desc>
<speed>0.000000</speed>
</trkpt>
<trkpt lat="56.097103" lon="26.546762">
<ele>106.229553</ele>
<time>2010-08-29T14:22:59Z</time>
<desc>lat.=56.097103, lon.=26.546762, Alt.=106.229553m. Speed=0.000000m/h.</desc>
<speed>0.000000</speed>
</trkpt>
<trkpt lat="56.097103" lon="26.546762">
<ele>106.229553</ele>
<time>2010-08-29T14:23:00Z</time>
<desc>lat.=56.097103, lon.=26.546762, Alt.=106.229553m. Speed=0.000000m/h.</desc>
<speed>0.000000</speed>
</trkpt>
<trkpt lat="56.097103" lon="26.546762">
<ele>106.227600</ele>
<time>2010-08-29T14:23:01Z</time>
<desc>lat.=56.097103, lon.=26.546762, Alt.=106.227600m. Speed=0.000000m/h.</desc>
<speed>0.000000</speed>
</trkpt>
<trkpt lat="56.097103" lon="26.546762">
<ele>106.227600</ele>
<time>2010-08-29T14:23:02Z</time>
<desc>lat.=56.097103, lon.=26.546762, Alt.=106.227600m. Speed=0.000000m/h.</desc>
<speed>0.000000</speed>
</trkpt>
<trkpt lat="56.097103" lon="26.546762">
<ele>106.225647</ele>
<time>2010-08-29T14:23:03Z</time>
<desc>lat.=56.097103, lon.=26.546762, Alt.=106.225647m. Speed=0.000000m/h.</desc>
<speed>0.000000</speed>
</trkpt>
<trkpt lat="56.097103" lon="26.546762">
<ele>106.223694</ele>
<time>2010-08-29T14:23:04Z</time>
<desc>lat.=56.097103, lon.=26.546762, Alt.=106.223694m. Speed=0.036000m/h.</desc>
<speed>0.010000</speed>
</trkpt>
<trkpt lat="56.097103" lon="26.546762">
<ele>106.223694</ele>
<time>2010-08-29T14:23:05Z</time>
<desc>lat.=56.097103, lon.=26.546762, Alt.=106.223694m. Speed=0.000000m/h.</desc>
<speed>0.000000</speed>
</trkpt>
<trkpt lat="56.097103" lon="26.546762">
<ele>106.221741</ele>
<time>2010-08-29T14:23:06Z</time>
<desc>lat.=56.097103, lon.=26.546762, Alt.=106.221741m. Speed=0.000000m/h.</desc>
<speed>0.000000</speed>
</trkpt>
<trkpt lat="56.097103" lon="26.546762">
<ele>106.219788</ele>
<time>2010-08-29T14:23:07Z</time>
<desc>lat.=56.097103, lon.=26.546762, Alt.=106.219788m. Speed=0.036000m/h.</desc>
<speed>0.010000</speed>
</trkpt>
<trkpt lat="56.097103" lon="26.546762">
<ele>106.219788</ele>
<time>2010-08-29T14:23:08Z</time>
<desc>lat.=56.097103, lon.=26.546762, Alt.=106.219788m. Speed=0.000000m/h.</desc>
<speed>0.000000</speed>
</trkpt>
<trkpt lat="56.097103" lon="26.546762">
<ele>106.217834</ele>
<time>2010-08-29T14:23:09Z</time>
<desc>lat.=56.097103, lon.=26.546762, Alt.=106.217834m. Speed=0.036000m/h.</desc>
<speed>0.010000</speed>
</trkpt>
<trkpt lat="56.097103" lon="26.546762">
<ele>106.215881</ele>
<time>2010-08-29T14:23:10Z</time>
<desc>lat.=56.097103, lon.=26.546762, Alt.=106.215881m. Speed=0.036000m/h.</desc>
<speed>0.010000</speed>
</trkpt>
<trkpt lat="56.097103" lon="26.546762">
<ele>106.213928</ele>
<time>2010-08-29T14:23:11Z</time>
<desc>lat.=56.097103, lon.=26.546762, Alt.=106.213928m. Speed=0.000000m/h.</desc>
<speed>0.000000</speed>
</trkpt>
<trkpt lat="56.097103" lon="26.546762">
<ele>106.211975</ele>
<time>2010-08-29T14:23:12Z</time>
<desc>lat.=56.097103, lon.=26.546762, Alt.=106.211975m. Speed=0.000000m/h.</desc>
<speed>0.000000</speed>
</trkpt>
<trkpt lat="56.097103" lon="26.546762">
<ele>106.208069</ele>
<time>2010-08-29T14:23:13Z</time>
<desc>lat.=56.097103, lon.=26.546762, Alt.=106.208069m. Speed=0.108000m/h.</desc>
<speed>0.030000</speed>
</trkpt>
<trkpt lat="56.097103" lon="26.546762">
<ele>106.206116</ele>
<time>2010-08-29T14:23:14Z</time>
<desc>lat.=56.097103, lon.=26.546762, Alt.=106.206116m. Speed=0.324000m/h.</desc>
<speed>0.090000</speed>
</trkpt>
<trkpt lat="56.097103" lon="26.546762">
<ele>106.204163</ele>
<time>2010-08-29T14:23:15Z</time>
<desc>lat.=56.097103, lon.=26.546762, Alt.=106.204163m. Speed=0.036000m/h.</desc>
<speed>0.010000</speed>
</trkpt>
<trkpt lat="56.097103" lon="26.546762">
<ele>106.204163</ele>
<time>2010-08-29T14:23:16Z</time>
<desc>lat.=56.097103, lon.=26.546762, Alt.=106.204163m. Speed=0.000000m/h.</desc>
<speed>0.000000</speed>
</trkpt>
<trkpt lat="56.097103" lon="26.546762">
<ele>106.202209</ele>
<time>2010-08-29T14:23:17Z</time>
<desc>lat.=56.097103, lon.=26.546762, Alt.=106.202209m. Speed=0.000000m/h.</desc>
<speed>0.000000</speed>
</trkpt>
<trkpt lat="56.097103" lon="26.546762">
<ele>106.200256</ele>
<time>2010-08-29T14:23:18Z</time>
<desc>lat.=56.097103, lon.=26.546762, Alt.=106.200256m. Speed=0.036000m/h.</desc>
<speed>0.010000</speed>
</trkpt>
<trkpt lat="56.097103" lon="26.546762">
<ele>106.200256</ele>
<time>2010-08-29T14:23:19Z</time>
<desc>lat.=56.097103, lon.=26.546762, Alt.=106.200256m. Speed=0.000000m/h.</desc>
<speed>0.000000</speed>
</trkpt>
<trkpt lat="56.097103" lon="26.546762">
<ele>106.198303</ele>
<time>2010-08-29T14:23:20Z</time>
<desc>lat.=56.097103, lon.=26.546762, Alt.=106.198303m. Speed=0.072000m/h.</desc>
<speed>0.020000</speed>
</trkpt>
<trkpt lat="56.097103" lon="26.546762">
<ele>106.198303</ele>
<time>2010-08-29T14:23:21Z</time>
<desc>lat.=56.097103, lon.=26.546762, Alt.=106.198303m. Speed=0.072000m/h.</desc>
<speed>0.020000</speed>
</trkpt>
<trkpt lat="56.097103" lon="26.546762">
<ele>106.196350</ele>
<time>2010-08-29T14:23:22Z</time>
<desc>lat.=56.097103, lon.=26.546762, Alt.=106.196350m. Speed=0.000000m/h.</desc>
<speed>0.000000</speed>
</trkpt>
<trkpt lat="56.097103" lon="26.546762">
<ele>106.196350</ele>
<time>2010-08-29T14:23:23Z</time>
<desc>lat.=56.097103, lon.=26.546762, Alt.=106.196350m. Speed=0.036000m/h.</desc>
<speed>0.010000</speed>
</trkpt>
<trkpt lat="56.097103" lon="26.546762">
<ele>106.194397</ele>
<time>2010-08-29T14:23:24Z</time>
<desc>lat.=56.097103, lon.=26.546762, Alt.=106.194397m. Speed=0.036000m/h.</desc>
<speed>0.010000</speed>
</trkpt>
<trkpt lat="56.097103" lon="26.546762">
<ele>106.194397</ele>
<time>2010-08-29T14:23:25Z</time>
<desc>lat.=56.097103, lon.=26.546762, Alt.=106.194397m. Speed=0.036000m/h.</desc>
<speed>0.010000</speed>
</trkpt>
<trkpt lat="56.097103" lon="26.546762">
<ele>106.192444</ele>
<time>2010-08-29T14:23:26Z</time>
<desc>lat.=56.097103, lon.=26.546762, Alt.=106.192444m. Speed=0.000000m/h.</desc>
<speed>0.000000</speed>
</trkpt>
<trkpt lat="56.097103" lon="26.546762">
<ele>106.192444</ele>
<time>2010-08-29T14:23:27Z</time>
<desc>lat.=56.097103, lon.=26.546762, Alt.=106.192444m. Speed=0.036000m/h.</desc>
<speed>0.010000</speed>
</trkpt>
<trkpt lat="56.097103" lon="26.546762">
<ele>106.190491</ele>
<time>2010-08-29T14:23:28Z</time>
<desc>lat.=56.097103, lon.=26.546762, Alt.=106.190491m. Speed=0.000000m/h.</desc>
<speed>0.000000</speed>
</trkpt>
<trkpt lat="56.097103" lon="26.546762">
<ele>106.190491</ele>
<time>2010-08-29T14:23:29Z</time>
<desc>lat.=56.097103, lon.=26.546762, Alt.=106.190491m. Speed=0.000000m/h.</desc>
<speed>0.000000</speed>
</trkpt>
<trkpt lat="56.097103" lon="26.546762">
<ele>106.190491</ele>
<time>2010-08-29T14:23:30Z</time>
<desc>lat.=56.097103, lon.=26.546762, Alt.=106.190491m. Speed=0.000000m/h.</desc>
<speed>0.000000</speed>
</trkpt>
<trkpt lat="56.097103" lon="26.546762">
<ele>106.188538</ele>
<time>2010-08-29T14:23:31Z</time>
<desc>lat.=56.097103, lon.=26.546762, Alt.=106.188538m. Speed=0.036000m/h.</desc>
<speed>0.010000</speed>
</trkpt>
<trkpt lat="56.097103" lon="26.546762">
<ele>106.188538</ele>
<time>2010-08-29T14:23:32Z</time>
<desc>lat.=56.097103, lon.=26.546762, Alt.=106.188538m. Speed=0.036000m/h.</desc>
<speed>0.010000</speed>
</trkpt>
<trkpt lat="56.097103" lon="26.546762">
<ele>106.188538</ele>
<time>2010-08-29T14:23:33Z</time>
<desc>lat.=56.097103, lon.=26.546762, Alt.=106.188538m. Speed=0.000000m/h.</desc>
<speed>0.000000</speed>
</trkpt>
<trkpt lat="56.097103" lon="26.546762">
<ele>106.188538</ele>
<time>2010-08-29T14:23:34Z</time>
<desc>lat.=56.097103, lon.=26.546762, Alt.=106.188538m. Speed=0.000000m/h.</desc>
<speed>0.000000</speed>
</trkpt>
<trkpt lat="56.097103" lon="26.546762">
<ele>106.188538</ele>
<time>2010-08-29T14:23:35Z</time>
<desc>lat.=56.097103, lon.=26.546762, Alt.=106.188538m. Speed=0.000000m/h.</desc>
<speed>0.000000</speed>
</trkpt>
<trkpt lat="56.097103" lon="26.546762">
<ele>106.188538</ele>
<time>2010-08-29T14:23:36Z</time>
<desc>lat.=56.097103, lon.=26.546762, Alt.=106.188538m. Speed=0.036000m/h.</desc>
<speed>0.010000</speed>
</trkpt>
<trkpt lat="56.097103" lon="26.546762">
<ele>106.188538</ele>
<time>2010-08-29T14:23:37Z</time>
<desc>lat.=56.097103, lon.=26.546762, Alt.=106.188538m. Speed=0.072000m/h.</desc>
<speed>0.020000</speed>
</trkpt>
<trkpt lat="56.097103" lon="26.546762">
<ele>106.186584</ele>
<time>2010-08-29T14:23:38Z</time>
<desc>lat.=56.097103, lon.=26.546762, Alt.=106.186584m. Speed=0.036000m/h.</desc>
<speed>0.010000</speed>
</trkpt>
<trkpt lat="56.097103" lon="26.546762">
<ele>106.186584</ele>
<time>2010-08-29T14:23:39Z</time>
<desc>lat.=56.097103, lon.=26.546762, Alt.=106.186584m. Speed=0.108000m/h.</desc>
<speed>0.030000</speed>
</trkpt>
<trkpt lat="56.097103" lon="26.546762">
<ele>106.186584</ele>
<time>2010-08-29T14:23:40Z</time>
<desc>lat.=56.097103, lon.=26.546762, Alt.=106.186584m. Speed=0.000000m/h.</desc>
<speed>0.000000</speed>
</trkpt>
<trkpt lat="56.097103" lon="26.546762">
<ele>106.186584</ele>
<time>2010-08-29T14:23:41Z</time>
<desc>lat.=56.097103, lon.=26.546762, Alt.=106.186584m. Speed=0.000000m/h.</desc>
<speed>0.000000</speed>
</trkpt>
<trkpt lat="56.097103" lon="26.546762">
<ele>106.186584</ele>
<time>2010-08-29T14:23:42Z</time>
<desc>lat.=56.097103, lon.=26.546762, Alt.=106.186584m. Speed=0.000000m/h.</desc>
<speed>0.000000</speed>
</trkpt>
<trkpt lat="56.097103" lon="26.546762">
<ele>106.186584</ele>
<time>2010-08-29T14:23:43Z</time>
<desc>lat.=56.097103, lon.=26.546762, Alt.=106.186584m. Speed=0.036000m/h.</desc>
<speed>0.010000</speed>
</trkpt>
<trkpt lat="56.097103" lon="26.546762">
<ele>106.186584</ele>
<time>2010-08-29T14:23:44Z</time>
<desc>lat.=56.097103, lon.=26.546762, Alt.=106.186584m. Speed=0.036000m/h.</desc>
<speed>0.010000</speed>
</trkpt>
<trkpt lat="56.097103" lon="26.546762">
<ele>106.186584</ele>
<time>2010-08-29T14:23:45Z</time>
<desc>lat.=56.097103, lon.=26.546762, Alt.=106.186584m. Speed=0.036000m/h.</desc>
<speed>0.010000</speed>
</trkpt>
<trkpt lat="56.097103" lon="26.546762">
<ele>106.184631</ele>
<time>2010-08-29T14:23:46Z</time>
<desc>lat.=56.097103, lon.=26.546762, Alt.=106.184631m. Speed=0.000000m/h.</desc>
<speed>0.000000</speed>
</trkpt>
<trkpt lat="56.097103" lon="26.546762">
<ele>106.186584</ele>
<time>2010-08-29T14:23:47Z</time>
<desc>lat.=56.097103, lon.=26.546762, Alt.=106.186584m. Speed=0.000000m/h.</desc>
<speed>0.000000</speed>
</trkpt>
<trkpt lat="56.097103" lon="26.546762">
<ele>106.184631</ele>
<time>2010-08-29T14:23:48Z</time>
<desc>lat.=56.097103, lon.=26.546762, Alt.=106.184631m. Speed=0.036000m/h.</desc>
<speed>0.010000</speed>
</trkpt>
<trkpt lat="56.097103" lon="26.546762">
<ele>106.184631</ele>
<time>2010-08-29T14:23:49Z</time>
<desc>lat.=56.097103, lon.=26.546762, Alt.=106.184631m. Speed=0.000000m/h.</desc>
<speed>0.000000</speed>
</trkpt>
<trkpt lat="56.097103" lon="26.546762">
<ele>106.184631</ele>
<time>2010-08-29T14:23:50Z</time>
<desc>lat.=56.097103, lon.=26.546762, Alt.=106.184631m. Speed=0.036000m/h.</desc>
<speed>0.010000</speed>
</trkpt>
<trkpt lat="56.097103" lon="26.546762">
<ele>106.184631</ele>
<time>2010-08-29T14:23:51Z</time>
<desc>lat.=56.097103, lon.=26.546762, Alt.=106.184631m. Speed=0.036000m/h.</desc>
<speed>0.010000</speed>
</trkpt>
<trkpt lat="56.097103" lon="26.546761">
<ele>106.182678</ele>
<time>2010-08-29T14:23:52Z</time>
<desc>lat.=56.097103, lon.=26.546761, Alt.=106.182678m. Speed=0.000000m/h.</desc>
<speed>0.000000</speed>
</trkpt>
<trkpt lat="56.097103" lon="26.546762">
<ele>106.182678</ele>
<time>2010-08-29T14:23:53Z</time>
<desc>lat.=56.097103, lon.=26.546762, Alt.=106.182678m. Speed=0.000000m/h.</desc>
<speed>0.000000</speed>
</trkpt>
<trkpt lat="56.097103" lon="26.546761">
<ele>106.180725</ele>
<time>2010-08-29T14:23:54Z</time>
<desc>lat.=56.097103, lon.=26.546761, Alt.=106.180725m. Speed=0.000000m/h.</desc>
<speed>0.000000</speed>
</trkpt>
<trkpt lat="56.097103" lon="26.546761">
<ele>106.180725</ele>
<time>2010-08-29T14:23:55Z</time>
<desc>lat.=56.097103, lon.=26.546761, Alt.=106.180725m. Speed=0.000000m/h.</desc>
<speed>0.000000</speed>
</trkpt>
<trkpt lat="56.097103" lon="26.546761">
<ele>106.180725</ele>
<time>2010-08-29T14:23:56Z</time>
<desc>lat.=56.097103, lon.=26.546761, Alt.=106.180725m. Speed=0.000000m/h.</desc>
<speed>0.000000</speed>
</trkpt>
<trkpt lat="56.097103" lon="26.546761">
<ele>106.178772</ele>
<time>2010-08-29T14:23:57Z</time>
<desc>lat.=56.097103, lon.=26.546761, Alt.=106.178772m. Speed=0.000000m/h.</desc>
<speed>0.000000</speed>
</trkpt>
<trkpt lat="56.097103" lon="26.546761">
<ele>106.178772</ele>
<time>2010-08-29T14:23:58Z</time>
<desc>lat.=56.097103, lon.=26.546761, Alt.=106.178772m. Speed=0.036000m/h.</desc>
<speed>0.010000</speed>
</trkpt>
<trkpt lat="56.097103" lon="26.546761">
<ele>106.176819</ele>
<time>2010-08-29T14:23:59Z</time>
<desc>lat.=56.097103, lon.=26.546761, Alt.=106.176819m. Speed=0.000000m/h.</desc>
<speed>0.000000</speed>
</trkpt>
<trkpt lat="56.097103" lon="26.546761">
<ele>106.174866</ele>
<time>2010-08-29T14:24:00Z</time>
<desc>lat.=56.097103, lon.=26.546761, Alt.=106.174866m. Speed=0.036000m/h.</desc>
<speed>0.010000</speed>
</trkpt>
<trkpt lat="56.097103" lon="26.546761">
<ele>106.174866</ele>
<time>2010-08-29T14:24:01Z</time>
<desc>lat.=56.097103, lon.=26.546761, Alt.=106.174866m. Speed=0.036000m/h.</desc>
<speed>0.010000</speed>
</trkpt>
<trkpt lat="56.097103" lon="26.546761">
<ele>106.172913</ele>
<time>2010-08-29T14:24:02Z</time>
<desc>lat.=56.097103, lon.=26.546761, Alt.=106.172913m. Speed=0.036000m/h.</desc>
<speed>0.010000</speed>
</trkpt>
<trkpt lat="56.097103" lon="26.546761">
<ele>106.172913</ele>
<time>2010-08-29T14:24:03Z</time>
<desc>lat.=56.097103, lon.=26.546761, Alt.=106.172913m. Speed=0.072000m/h.</desc>
<speed>0.020000</speed>
</trkpt>
<trkpt lat="56.097103" lon="26.546761">
<ele>106.172913</ele>
<time>2010-08-29T14:24:04Z</time>
<desc>lat.=56.097103, lon.=26.546761, Alt.=106.172913m. Speed=0.036000m/h.</desc>
<speed>0.010000</speed>
</trkpt>
<trkpt lat="56.097103" lon="26.546761">
<ele>106.172913</ele>
<time>2010-08-29T14:24:05Z</time>
<desc>lat.=56.097103, lon.=26.546761, Alt.=106.172913m. Speed=0.036000m/h.</desc>
<speed>0.010000</speed>
</trkpt>
<trkpt lat="56.097103" lon="26.546761">
<ele>106.172913</ele>
<time>2010-08-29T14:24:06Z</time>
<desc>lat.=56.097103, lon.=26.546761, Alt.=106.172913m. Speed=0.036000m/h.</desc>
<speed>0.010000</speed>
</trkpt>
<trkpt lat="56.097103" lon="26.546761">
<ele>106.172913</ele>
<time>2010-08-29T14:24:07Z</time>
<desc>lat.=56.097103, lon.=26.546761, Alt.=106.172913m. Speed=0.036000m/h.</desc>
<speed>0.010000</speed>
</trkpt>
<trkpt lat="56.097103" lon="26.546761">
<ele>106.172913</ele>
<time>2010-08-29T14:24:08Z</time>
<desc>lat.=56.097103, lon.=26.546761, Alt.=106.172913m. Speed=0.000000m/h.</desc>
<speed>0.000000</speed>
</trkpt>
<trkpt lat="56.097103" lon="26.546761">
<ele>106.170959</ele>
<time>2010-08-29T14:24:09Z</time>
<desc>lat.=56.097103, lon.=26.546761, Alt.=106.170959m. Speed=0.036000m/h.</desc>
<speed>0.010000</speed>
</trkpt>
<trkpt lat="56.097103" lon="26.546761">
<ele>106.169006</ele>
<time>2010-08-29T14:24:10Z</time>
<desc>lat.=56.097103, lon.=26.546761, Alt.=106.169006m. Speed=0.000000m/h.</desc>
<speed>0.000000</speed>
</trkpt>
<trkpt lat="56.097103" lon="26.546761">
<ele>106.169006</ele>
<time>2010-08-29T14:24:11Z</time>
<desc>lat.=56.097103, lon.=26.546761, Alt.=106.169006m. Speed=0.036000m/h.</desc>
<speed>0.010000</speed>
</trkpt>
<trkpt lat="56.097103" lon="26.546761">
<ele>106.167053</ele>
<time>2010-08-29T14:24:12Z</time>
<desc>lat.=56.097103, lon.=26.546761, Alt.=106.167053m. Speed=0.000000m/h.</desc>
<speed>0.000000</speed>
</trkpt>
<trkpt lat="56.097103" lon="26.546761">
<ele>106.167053</ele>
<time>2010-08-29T14:24:13Z</time>
<desc>lat.=56.097103, lon.=26.546761, Alt.=106.167053m. Speed=0.000000m/h.</desc>
<speed>0.000000</speed>
</trkpt>
<trkpt lat="56.097103" lon="26.546761">
<ele>106.165100</ele>
<time>2010-08-29T14:24:14Z</time>
<desc>lat.=56.097103, lon.=26.546761, Alt.=106.165100m. Speed=0.000000m/h.</desc>
<speed>0.000000</speed>
</trkpt>
<trkpt lat="56.097103" lon="26.546761">
<ele>106.165100</ele>
<time>2010-08-29T14:24:15Z</time>
<desc>lat.=56.097103, lon.=26.546761, Alt.=106.165100m. Speed=0.036000m/h.</desc>
<speed>0.010000</speed>
</trkpt>
<trkpt lat="56.097103" lon="26.546761">
<ele>106.165100</ele>
<time>2010-08-29T14:24:16Z</time>
<desc>lat.=56.097103, lon.=26.546761, Alt.=106.165100m. Speed=0.000000m/h.</desc>
<speed>0.000000</speed>
</trkpt>
<trkpt lat="56.097103" lon="26.546761">
<ele>106.163147</ele>
<time>2010-08-29T14:24:17Z</time>
<desc>lat.=56.097103, lon.=26.546761, Alt.=106.163147m. Speed=0.108000m/h.</desc>
<speed>0.030000</speed>
</trkpt>
<trkpt lat="56.097103" lon="26.546761">
<ele>106.163147</ele>
<time>2010-08-29T14:24:18Z</time>
<desc>lat.=56.097103, lon.=26.546761, Alt.=106.163147m. Speed=0.036000m/h.</desc>
<speed>0.010000</speed>
</trkpt>
<trkpt lat="56.097103" lon="26.546761">
<ele>106.163147</ele>
<time>2010-08-29T14:24:19Z</time>
<desc>lat.=56.097103, lon.=26.546761, Alt.=106.163147m. Speed=0.000000m/h.</desc>
<speed>0.000000</speed>
</trkpt>
<trkpt lat="56.097103" lon="26.546761">
<ele>106.163147</ele>
<time>2010-08-29T14:24:20Z</time>
<desc>lat.=56.097103, lon.=26.546761, Alt.=106.163147m. Speed=0.000000m/h.</desc>
<speed>0.000000</speed>
</trkpt>
<trkpt lat="56.097103" lon="26.546759">
<ele>106.161194</ele>
<time>2010-08-29T14:24:21Z</time>
<desc>lat.=56.097103, lon.=26.546759, Alt.=106.161194m. Speed=0.036000m/h.</desc>
<speed>0.010000</speed>
</trkpt>
<trkpt lat="56.097103" lon="26.546759">
<ele>106.161194</ele>
<time>2010-08-29T14:24:22Z</time>
<desc>lat.=56.097103, lon.=26.546759, Alt.=106.161194m. Speed=0.000000m/h.</desc>
<speed>0.000000</speed>
</trkpt>
<trkpt lat="56.097103" lon="26.546759">
<ele>106.161194</ele>
<time>2010-08-29T14:24:23Z</time>
<desc>lat.=56.097103, lon.=26.546759, Alt.=106.161194m. Speed=0.036000m/h.</desc>
<speed>0.010000</speed>
</trkpt>
<trkpt lat="56.097103" lon="26.546759">
<ele>106.161194</ele>
<time>2010-08-29T14:24:24Z</time>
<desc>lat.=56.097103, lon.=26.546759, Alt.=106.161194m. Speed=0.108000m/h.</desc>
<speed>0.030000</speed>
</trkpt>
<trkpt lat="56.097103" lon="26.546759">
<ele>106.159241</ele>
<time>2010-08-29T14:24:25Z</time>
<desc>lat.=56.097103, lon.=26.546759, Alt.=106.159241m. Speed=0.036000m/h.</desc>
<speed>0.010000</speed>
</trkpt>
<trkpt lat="56.097103" lon="26.546759">
<ele>106.157288</ele>
<time>2010-08-29T14:24:26Z</time>
<desc>lat.=56.097103, lon.=26.546759, Alt.=106.157288m. Speed=0.108000m/h.</desc>
<speed>0.030000</speed>
</trkpt>
<trkpt lat="56.097103" lon="26.546759">
<ele>106.157288</ele>
<time>2010-08-29T14:24:27Z</time>
<desc>lat.=56.097103, lon.=26.546759, Alt.=106.157288m. Speed=0.072000m/h.</desc>
<speed>0.020000</speed>
</trkpt>
<trkpt lat="56.097099" lon="26.546759">
<ele>106.155334</ele>
<time>2010-08-29T14:24:28Z</time>
<desc>lat.=56.097099, lon.=26.546759, Alt.=106.155334m. Speed=0.036000m/h.</desc>
<speed>0.010000</speed>
</trkpt>
<trkpt lat="56.097099" lon="26.546759">
<ele>106.155334</ele>
<time>2010-08-29T14:24:29Z</time>
<desc>lat.=56.097099, lon.=26.546759, Alt.=106.155334m. Speed=0.000000m/h.</desc>
<speed>0.000000</speed>
</trkpt>
<trkpt lat="56.097099" lon="26.546759">
<ele>106.153381</ele>
<time>2010-08-29T14:24:30Z</time>
<desc>lat.=56.097099, lon.=26.546759, Alt.=106.153381m. Speed=0.036000m/h.</desc>
<speed>0.010000</speed>
</trkpt>
<trkpt lat="56.097099" lon="26.546759">
<ele>106.153381</ele>
<time>2010-08-29T14:24:31Z</time>
<desc>lat.=56.097099, lon.=26.546759, Alt.=106.153381m. Speed=0.000000m/h.</desc>
<speed>0.000000</speed>
</trkpt>
<trkpt lat="56.097099" lon="26.546759">
<ele>106.153381</ele>
<time>2010-08-29T14:24:32Z</time>
<desc>lat.=56.097099, lon.=26.546759, Alt.=106.153381m. Speed=0.036000m/h.</desc>
<speed>0.010000</speed>
</trkpt>
<trkpt lat="56.097099" lon="26.546759">
<ele>106.153381</ele>
<time>2010-08-29T14:24:33Z</time>
<desc>lat.=56.097099, lon.=26.546759, Alt.=106.153381m. Speed=0.036000m/h.</desc>
<speed>0.010000</speed>
</trkpt>
<trkpt lat="56.097099" lon="26.546759">
<ele>106.151428</ele>
<time>2010-08-29T14:24:34Z</time>
<desc>lat.=56.097099, lon.=26.546759, Alt.=106.151428m. Speed=0.000000m/h.</desc>
<speed>0.000000</speed>
</trkpt>
<trkpt lat="56.097099" lon="26.546759">
<ele>106.149475</ele>
<time>2010-08-29T14:24:35Z</time>
<desc>lat.=56.097099, lon.=26.546759, Alt.=106.149475m. Speed=0.036000m/h.</desc>
<speed>0.010000</speed>
</trkpt>
<trkpt lat="56.097099" lon="26.546759">
<ele>106.147522</ele>
<time>2010-08-29T14:24:36Z</time>
<desc>lat.=56.097099, lon.=26.546759, Alt.=106.147522m. Speed=0.000000m/h.</desc>
<speed>0.000000</speed>
</trkpt>
<trkpt lat="56.097099" lon="26.546759">
<ele>106.145569</ele>
<time>2010-08-29T14:24:37Z</time>
<desc>lat.=56.097099, lon.=26.546759, Alt.=106.145569m. Speed=0.000000m/h.</desc>
<speed>0.000000</speed>
</trkpt>
<trkpt lat="56.097099" lon="26.546759">
<ele>106.145569</ele>
<time>2010-08-29T14:24:38Z</time>
<desc>lat.=56.097099, lon.=26.546759, Alt.=106.145569m. Speed=0.072000m/h.</desc>
<speed>0.020000</speed>
</trkpt>
<trkpt lat="56.097099" lon="26.546759">
<ele>106.143616</ele>
<time>2010-08-29T14:24:39Z</time>
<desc>lat.=56.097099, lon.=26.546759, Alt.=106.143616m. Speed=0.036000m/h.</desc>
<speed>0.010000</speed>
</trkpt>
<trkpt lat="56.097099" lon="26.546759">
<ele>106.143616</ele>
<time>2010-08-29T14:24:40Z</time>
<desc>lat.=56.097099, lon.=26.546759, Alt.=106.143616m. Speed=0.108000m/h.</desc>
<speed>0.030000</speed>
</trkpt>
<trkpt lat="56.097099" lon="26.546759">
<ele>106.141663</ele>
<time>2010-08-29T14:24:41Z</time>
<desc>lat.=56.097099, lon.=26.546759, Alt.=106.141663m. Speed=0.036000m/h.</desc>
<speed>0.010000</speed>
</trkpt>
<trkpt lat="56.097099" lon="26.546759">
<ele>106.139709</ele>
<time>2010-08-29T14:24:42Z</time>
<desc>lat.=56.097099, lon.=26.546759, Alt.=106.139709m. Speed=0.000000m/h.</desc>
<speed>0.000000</speed>
</trkpt>
<trkpt lat="56.097099" lon="26.546759">
<ele>106.137756</ele>
<time>2010-08-29T14:24:43Z</time>
<desc>lat.=56.097099, lon.=26.546759, Alt.=106.137756m. Speed=0.072000m/h.</desc>
<speed>0.020000</speed>
</trkpt>
<trkpt lat="56.097103" lon="26.546759">
<ele>106.137756</ele>
<time>2010-08-29T14:24:44Z</time>
<desc>lat.=56.097103, lon.=26.546759, Alt.=106.137756m. Speed=0.000000m/h.</desc>
<speed>0.000000</speed>
</trkpt>
<trkpt lat="56.097103" lon="26.546759">
<ele>106.137756</ele>
<time>2010-08-29T14:24:45Z</time>
<desc>lat.=56.097103, lon.=26.546759, Alt.=106.137756m. Speed=0.036000m/h.</desc>
<speed>0.010000</speed>
</trkpt>
<trkpt lat="56.097103" lon="26.546759">
<ele>106.137756</ele>
<time>2010-08-29T14:24:46Z</time>
<desc>lat.=56.097103, lon.=26.546759, Alt.=106.137756m. Speed=0.000000m/h.</desc>
<speed>0.000000</speed>
</trkpt>
<trkpt lat="56.097103" lon="26.546759">
<ele>106.135803</ele>
<time>2010-08-29T14:24:47Z</time>
<desc>lat.=56.097103, lon.=26.546759, Alt.=106.135803m. Speed=0.108000m/h.</desc>
<speed>0.030000</speed>
</trkpt>
<trkpt lat="56.097099" lon="26.546759">
<ele>106.133850</ele>
<time>2010-08-29T14:24:48Z</time>
<desc>lat.=56.097099, lon.=26.546759, Alt.=106.133850m. Speed=0.108000m/h.</desc>
<speed>0.030000</speed>
</trkpt>
<trkpt lat="56.097099" lon="26.546757">
<ele>106.133850</ele>
<time>2010-08-29T14:24:49Z</time>
<desc>lat.=56.097099, lon.=26.546757, Alt.=106.133850m. Speed=0.036000m/h.</desc>
<speed>0.010000</speed>
</trkpt>
<trkpt lat="56.097099" lon="26.546757">
<ele>106.131897</ele>
<time>2010-08-29T14:24:50Z</time>
<desc>lat.=56.097099, lon.=26.546757, Alt.=106.131897m. Speed=0.036000m/h.</desc>
<speed>0.010000</speed>
</trkpt>
<trkpt lat="56.097099" lon="26.546757">
<ele>106.131897</ele>
<time>2010-08-29T14:24:51Z</time>
<desc>lat.=56.097099, lon.=26.546757, Alt.=106.131897m. Speed=0.000000m/h.</desc>
<speed>0.000000</speed>
</trkpt>
<trkpt lat="56.097099" lon="26.546757">
<ele>106.129944</ele>
<time>2010-08-29T14:24:52Z</time>
<desc>lat.=56.097099, lon.=26.546757, Alt.=106.129944m. Speed=0.036000m/h.</desc>
<speed>0.010000</speed>
</trkpt>
<trkpt lat="56.097099" lon="26.546757">
<ele>106.129944</ele>
<time>2010-08-29T14:24:53Z</time>
<desc>lat.=56.097099, lon.=26.546757, Alt.=106.129944m. Speed=0.036000m/h.</desc>
<speed>0.010000</speed>
</trkpt>
<trkpt lat="56.097099" lon="26.546757">
<ele>106.127991</ele>
<time>2010-08-29T14:24:54Z</time>
<desc>lat.=56.097099, lon.=26.546757, Alt.=106.127991m. Speed=0.072000m/h.</desc>
<speed>0.020000</speed>
</trkpt>
<trkpt lat="56.097099" lon="26.546757">
<ele>106.126038</ele>
<time>2010-08-29T14:24:55Z</time>
<desc>lat.=56.097099, lon.=26.546757, Alt.=106.126038m. Speed=0.000000m/h.</desc>
<speed>0.000000</speed>
</trkpt>
<trkpt lat="56.097099" lon="26.546757">
<ele>106.126038</ele>
<time>2010-08-29T14:24:56Z</time>
<desc>lat.=56.097099, lon.=26.546757, Alt.=106.126038m. Speed=0.000000m/h.</desc>
<speed>0.000000</speed>
</trkpt>
<trkpt lat="56.097099" lon="26.546757">
<ele>106.126038</ele>
<time>2010-08-29T14:24:57Z</time>
<desc>lat.=56.097099, lon.=26.546757, Alt.=106.126038m. Speed=0.000000m/h.</desc>
<speed>0.000000</speed>
</trkpt>
<trkpt lat="56.097099" lon="26.546757">
<ele>106.124084</ele>
<time>2010-08-29T14:24:58Z</time>
<desc>lat.=56.097099, lon.=26.546757, Alt.=106.124084m. Speed=0.000000m/h.</desc>
<speed>0.000000</speed>
</trkpt>
<trkpt lat="56.097099" lon="26.546757">
<ele>106.124084</ele>
<time>2010-08-29T14:24:59Z</time>
<desc>lat.=56.097099, lon.=26.546757, Alt.=106.124084m. Speed=0.000000m/h.</desc>
<speed>0.000000</speed>
</trkpt>
<trkpt lat="56.097099" lon="26.546757">
<ele>106.122131</ele>
<time>2010-08-29T14:25:00Z</time>
<desc>lat.=56.097099, lon.=26.546757, Alt.=106.122131m. Speed=0.036000m/h.</desc>
<speed>0.010000</speed>
</trkpt>
<trkpt lat="56.097099" lon="26.546757">
<ele>106.122131</ele>
<time>2010-08-29T14:25:01Z</time>
<desc>lat.=56.097099, lon.=26.546757, Alt.=106.122131m. Speed=0.072000m/h.</desc>
<speed>0.020000</speed>
</trkpt>
<trkpt lat="56.097099" lon="26.546757">
<ele>106.120178</ele>
<time>2010-08-29T14:25:02Z</time>
<desc>lat.=56.097099, lon.=26.546757, Alt.=106.120178m. Speed=0.108000m/h.</desc>
<speed>0.030000</speed>
</trkpt>
<trkpt lat="56.097099" lon="26.546757">
<ele>106.120178</ele>
<time>2010-08-29T14:25:03Z</time>
<desc>lat.=56.097099, lon.=26.546757, Alt.=106.120178m. Speed=0.036000m/h.</desc>
<speed>0.010000</speed>
</trkpt>
<trkpt lat="56.097099" lon="26.546757">
<ele>106.118225</ele>
<time>2010-08-29T14:25:04Z</time>
<desc>lat.=56.097099, lon.=26.546757, Alt.=106.118225m. Speed=0.000000m/h.</desc>
<speed>0.000000</speed>
</trkpt>
<trkpt lat="56.097099" lon="26.546757">
<ele>106.118225</ele>
<time>2010-08-29T14:25:05Z</time>
<desc>lat.=56.097099, lon.=26.546757, Alt.=106.118225m. Speed=0.072000m/h.</desc>
<speed>0.020000</speed>
</trkpt>
<trkpt lat="56.097099" lon="26.546757">
<ele>106.116272</ele>
<time>2010-08-29T14:25:06Z</time>
<desc>lat.=56.097099, lon.=26.546757, Alt.=106.116272m. Speed=0.036000m/h.</desc>
<speed>0.010000</speed>
</trkpt>
<trkpt lat="56.097099" lon="26.546757">
<ele>106.116272</ele>
<time>2010-08-29T14:25:07Z</time>
<desc>lat.=56.097099, lon.=26.546757, Alt.=106.116272m. Speed=0.000000m/h.</desc>
<speed>0.000000</speed>
</trkpt>
<trkpt lat="56.097099" lon="26.546757">
<ele>106.114319</ele>
<time>2010-08-29T14:25:08Z</time>
<desc>lat.=56.097099, lon.=26.546757, Alt.=106.114319m. Speed=0.000000m/h.</desc>
<speed>0.000000</speed>
</trkpt>
<trkpt lat="56.097099" lon="26.546757">
<ele>106.112366</ele>
<time>2010-08-29T14:25:09Z</time>
<desc>lat.=56.097099, lon.=26.546757, Alt.=106.112366m. Speed=0.000000m/h.</desc>
<speed>0.000000</speed>
</trkpt>
<trkpt lat="56.097099" lon="26.546757">
<ele>106.112366</ele>
<time>2010-08-29T14:25:10Z</time>
<desc>lat.=56.097099, lon.=26.546757, Alt.=106.112366m. Speed=0.000000m/h.</desc>
<speed>0.000000</speed>
</trkpt>
<trkpt lat="56.097099" lon="26.546757">
<ele>106.110413</ele>
<time>2010-08-29T14:25:11Z</time>
<desc>lat.=56.097099, lon.=26.546757, Alt.=106.110413m. Speed=0.000000m/h.</desc>
<speed>0.000000</speed>
</trkpt>
<trkpt lat="56.097099" lon="26.546757">
<ele>106.108459</ele>
<time>2010-08-29T14:25:12Z</time>
<desc>lat.=56.097099, lon.=26.546757, Alt.=106.108459m. Speed=0.036000m/h.</desc>
<speed>0.010000</speed>
</trkpt>
<trkpt lat="56.097099" lon="26.546757">
<ele>106.106506</ele>
<time>2010-08-29T14:25:13Z</time>
<desc>lat.=56.097099, lon.=26.546757, Alt.=106.106506m. Speed=0.000000m/h.</desc>
<speed>0.000000</speed>
</trkpt>
<trkpt lat="56.097099" lon="26.546757">
<ele>106.104553</ele>
<time>2010-08-29T14:25:14Z</time>
<desc>lat.=56.097099, lon.=26.546757, Alt.=106.104553m. Speed=0.000000m/h.</desc>
<speed>0.000000</speed>
</trkpt>
<trkpt lat="56.097099" lon="26.546757">
<ele>106.102600</ele>
<time>2010-08-29T14:25:15Z</time>
<desc>lat.=56.097099, lon.=26.546757, Alt.=106.102600m. Speed=0.000000m/h.</desc>
<speed>0.000000</speed>
</trkpt>
<trkpt lat="56.097099" lon="26.546757">
<ele>106.100647</ele>
<time>2010-08-29T14:25:16Z</time>
<desc>lat.=56.097099, lon.=26.546757, Alt.=106.100647m. Speed=0.036000m/h.</desc>
<speed>0.010000</speed>
</trkpt>
<trkpt lat="56.097099" lon="26.546757">
<ele>106.098694</ele>
<time>2010-08-29T14:25:17Z</time>
<desc>lat.=56.097099, lon.=26.546757, Alt.=106.098694m. Speed=0.000000m/h.</desc>
<speed>0.000000</speed>
</trkpt>
<trkpt lat="56.097099" lon="26.546757">
<ele>106.094788</ele>
<time>2010-08-29T14:25:18Z</time>
<desc>lat.=56.097099, lon.=26.546757, Alt.=106.094788m. Speed=0.000000m/h.</desc>
<speed>0.000000</speed>
</trkpt>
<trkpt lat="56.097099" lon="26.546757">
<ele>106.092834</ele>
<time>2010-08-29T14:25:19Z</time>
<desc>lat.=56.097099, lon.=26.546757, Alt.=106.092834m. Speed=0.000000m/h.</desc>
<speed>0.000000</speed>
</trkpt>
<trkpt lat="56.097099" lon="26.546757">
<ele>106.092834</ele>
<time>2010-08-29T14:25:20Z</time>
<desc>lat.=56.097099, lon.=26.546757, Alt.=106.092834m. Speed=0.000000m/h.</desc>
<speed>0.000000</speed>
</trkpt>
<trkpt lat="56.097099" lon="26.546757">
<ele>106.090881</ele>
<time>2010-08-29T14:25:21Z</time>
<desc>lat.=56.097099, lon.=26.546757, Alt.=106.090881m. Speed=0.036000m/h.</desc>
<speed>0.010000</speed>
</trkpt>
<trkpt lat="56.097099" lon="26.546757">
<ele>106.090881</ele>
<time>2010-08-29T14:25:22Z</time>
<desc>lat.=56.097099, lon.=26.546757, Alt.=106.090881m. Speed=0.000000m/h.</desc>
<speed>0.000000</speed>
</trkpt>
<trkpt lat="56.097099" lon="26.546757">
<ele>106.088928</ele>
<time>2010-08-29T14:25:23Z</time>
<desc>lat.=56.097099, lon.=26.546757, Alt.=106.088928m. Speed=0.072000m/h.</desc>
<speed>0.020000</speed>
</trkpt>
<trkpt lat="56.097099" lon="26.546755">
<ele>106.086975</ele>
<time>2010-08-29T14:25:24Z</time>
<desc>lat.=56.097099, lon.=26.546755, Alt.=106.086975m. Speed=0.036000m/h.</desc>
<speed>0.010000</speed>
</trkpt>
<trkpt lat="56.097099" lon="26.546755">
<ele>106.077209</ele>
<time>2010-08-29T14:25:25Z</time>
<desc>lat.=56.097099, lon.=26.546755, Alt.=106.077209m. Speed=0.324000m/h.</desc>
<speed>0.090000</speed>
</trkpt>
<trkpt lat="56.097099" lon="26.546757">
<ele>106.071350</ele>
<time>2010-08-29T14:25:26Z</time>
<desc>lat.=56.097099, lon.=26.546757, Alt.=106.071350m. Speed=1.584000m/h.</desc>
<speed>0.440000</speed>
</trkpt>
<trkpt lat="56.097099" lon="26.546762">
<ele>105.977600</ele>
<time>2010-08-29T14:25:27Z</time>
<desc>lat.=56.097099, lon.=26.546762, Alt.=105.977600m. Speed=2.484000m/h.</desc>
<speed>0.690000</speed>
</trkpt>
<trkpt lat="56.097103" lon="26.546776">
<ele>105.993225</ele>
<time>2010-08-29T14:25:28Z</time>
<desc>lat.=56.097103, lon.=26.546776, Alt.=105.993225m. Speed=2.844000m/h.</desc>
<speed>0.790000</speed>
</trkpt>
<trkpt lat="56.097107" lon="26.546787">
<ele>106.186584</ele>
<time>2010-08-29T14:25:29Z</time>
<desc>lat.=56.097107, lon.=26.546787, Alt.=106.186584m. Speed=2.808000m/h.</desc>
<speed>0.780000</speed>
</trkpt>
<trkpt lat="56.097111" lon="26.546797">
<ele>106.319397</ele>
<time>2010-08-29T14:25:30Z</time>
<desc>lat.=56.097111, lon.=26.546797, Alt.=106.319397m. Speed=3.276000m/h.</desc>
<speed>0.910000</speed>
</trkpt>
<trkpt lat="56.097111" lon="26.546812">
<ele>106.557678</ele>
<time>2010-08-29T14:25:31Z</time>
<desc>lat.=56.097111, lon.=26.546812, Alt.=106.557678m. Speed=4.212000m/h.</desc>
<speed>1.170000</speed>
</trkpt>
<trkpt lat="56.097111" lon="26.546827">
<ele>106.711975</ele>
<time>2010-08-29T14:25:32Z</time>
<desc>lat.=56.097111, lon.=26.546827, Alt.=106.711975m. Speed=3.744000m/h.</desc>
<speed>1.040000</speed>
</trkpt>
<trkpt lat="56.097107" lon="26.546852">
<ele>106.913147</ele>
<time>2010-08-29T14:25:33Z</time>
<desc>lat.=56.097107, lon.=26.546852, Alt.=106.913147m. Speed=3.816000m/h.</desc>
<speed>1.060000</speed>
</trkpt>
<trkpt lat="56.097099" lon="26.546867">
<ele>107.217834</ele>
<time>2010-08-29T14:25:34Z</time>
<desc>lat.=56.097099, lon.=26.546867, Alt.=107.217834m. Speed=2.556000m/h.</desc>
<speed>0.710000</speed>
</trkpt>
<trkpt lat="56.097095" lon="26.546875">
<ele>107.338928</ele>
<time>2010-08-29T14:25:35Z</time>
<desc>lat.=56.097095, lon.=26.546875, Alt.=107.338928m. Speed=2.340000m/h.</desc>
<speed>0.650000</speed>
</trkpt>
<trkpt lat="56.097084" lon="26.546877">
<ele>107.217834</ele>
<time>2010-08-29T14:25:36Z</time>
<desc>lat.=56.097084, lon.=26.546877, Alt.=107.217834m. Speed=2.916000m/h.</desc>
<speed>0.810000</speed>
</trkpt>
<trkpt lat="56.097080" lon="26.546879">
<ele>107.372131</ele>
<time>2010-08-29T14:25:37Z</time>
<desc>lat.=56.097080, lon.=26.546879, Alt.=107.372131m. Speed=1.944000m/h.</desc>
<speed>0.540000</speed>
</trkpt>
<trkpt lat="56.097073" lon="26.546881">
<ele>107.217834</ele>
<time>2010-08-29T14:25:38Z</time>
<desc>lat.=56.097073, lon.=26.546881, Alt.=107.217834m. Speed=2.376000m/h.</desc>
<speed>0.660000</speed>
</trkpt>
<trkpt lat="56.097069" lon="26.546875">
<ele>107.340881</ele>
<time>2010-08-29T14:25:39Z</time>
<desc>lat.=56.097069, lon.=26.546875, Alt.=107.340881m. Speed=2.880000m/h.</desc>
<speed>0.800000</speed>
</trkpt>
<trkpt lat="56.097061" lon="26.546873">
<ele>107.286194</ele>
<time>2010-08-29T14:25:40Z</time>
<desc>lat.=56.097061, lon.=26.546873, Alt.=107.286194m. Speed=3.096000m/h.</desc>
<speed>0.860000</speed>
</trkpt>
<trkpt lat="56.097050" lon="26.546877">
<ele>107.032288</ele>
<time>2010-08-29T14:25:41Z</time>
<desc>lat.=56.097050, lon.=26.546877, Alt.=107.032288m. Speed=3.960000m/h.</desc>
<speed>1.100000</speed>
</trkpt>
<trkpt lat="56.097042" lon="26.546879">
<ele>106.698303</ele>
<time>2010-08-29T14:25:42Z</time>
<desc>lat.=56.097042, lon.=26.546879, Alt.=106.698303m. Speed=4.104000m/h.</desc>
<speed>1.140000</speed>
</trkpt>
<trkpt lat="56.097034" lon="26.546881">
<ele>106.202209</ele>
<time>2010-08-29T14:25:43Z</time>
<desc>lat.=56.097034, lon.=26.546881, Alt.=106.202209m. Speed=2.772000m/h.</desc>
<speed>0.770000</speed>
</trkpt>
<trkpt lat="56.097027" lon="26.546879">
<ele>105.901428</ele>
<time>2010-08-29T14:25:44Z</time>
<desc>lat.=56.097027, lon.=26.546879, Alt.=105.901428m. Speed=3.420000m/h.</desc>
<speed>0.950000</speed>
</trkpt>
<trkpt lat="56.097019" lon="26.546877">
<ele>105.817444</ele>
<time>2010-08-29T14:25:45Z</time>
<desc>lat.=56.097019, lon.=26.546877, Alt.=105.817444m. Speed=2.340000m/h.</desc>
<speed>0.650000</speed>
</trkpt>
<trkpt lat="56.097012" lon="26.546883">
<ele>105.407288</ele>
<time>2010-08-29T14:25:46Z</time>
<desc>lat.=56.097012, lon.=26.546883, Alt.=105.407288m. Speed=3.960000m/h.</desc>
<speed>1.100000</speed>
</trkpt>
<trkpt lat="56.097004" lon="26.546892">
<ele>105.083069</ele>
<time>2010-08-29T14:25:47Z</time>
<desc>lat.=56.097004, lon.=26.546892, Alt.=105.083069m. Speed=2.556000m/h.</desc>
<speed>0.710000</speed>
</trkpt>
<trkpt lat="56.097004" lon="26.546900">
<ele>105.008850</ele>
<time>2010-08-29T14:25:48Z</time>
<desc>lat.=56.097004, lon.=26.546900, Alt.=105.008850m. Speed=1.368000m/h.</desc>
<speed>0.380000</speed>
</trkpt>
<trkpt lat="56.097004" lon="26.546900">
<ele>104.819397</ele>
<time>2010-08-29T14:25:49Z</time>
<desc>lat.=56.097004, lon.=26.546900, Alt.=104.819397m. Speed=0.972000m/h.</desc>
<speed>0.270000</speed>
</trkpt>
<trkpt lat="56.097004" lon="26.546906">
<ele>104.985413</ele>
<time>2010-08-29T14:25:50Z</time>
<desc>lat.=56.097004, lon.=26.546906, Alt.=104.985413m. Speed=0.684000m/h.</desc>
<speed>0.190000</speed>
</trkpt>
<trkpt lat="56.097004" lon="26.546907">
<ele>105.051819</ele>
<time>2010-08-29T14:25:51Z</time>
<desc>lat.=56.097004, lon.=26.546907, Alt.=105.051819m. Speed=0.612000m/h.</desc>
<speed>0.170000</speed>
</trkpt>
<trkpt lat="56.096996" lon="26.546911">
<ele>105.129944</ele>
<time>2010-08-29T14:25:52Z</time>
<desc>lat.=56.096996, lon.=26.546911, Alt.=105.129944m. Speed=1.836000m/h.</desc>
<speed>0.510000</speed>
</trkpt>
<trkpt lat="56.096985" lon="26.546926">
<ele>104.930725</ele>
<time>2010-08-29T14:25:53Z</time>
<desc>lat.=56.096985, lon.=26.546926, Alt.=104.930725m. Speed=3.456000m/h.</desc>
<speed>0.960000</speed>
</trkpt>
<trkpt lat="56.096977" lon="26.546949">
<ele>104.792053</ele>
<time>2010-08-29T14:25:54Z</time>
<desc>lat.=56.096977, lon.=26.546949, Alt.=104.792053m. Speed=5.112000m/h.</desc>
<speed>1.420000</speed>
</trkpt>
<trkpt lat="56.096970" lon="26.546980">
<ele>104.624084</ele>
<time>2010-08-29T14:25:55Z</time>
<desc>lat.=56.096970, lon.=26.546980, Alt.=104.624084m. Speed=7.812000m/h.</desc>
<speed>2.170000</speed>
</trkpt>
<trkpt lat="56.096962" lon="26.547016">
<ele>104.340881</ele>
<time>2010-08-29T14:25:56Z</time>
<desc>lat.=56.096962, lon.=26.547016, Alt.=104.340881m. Speed=7.956000m/h.</desc>
<speed>2.210000</speed>
</trkpt>
<trkpt lat="56.096951" lon="26.547047">
<ele>103.975647</ele>
<time>2010-08-29T14:25:57Z</time>
<desc>lat.=56.096951, lon.=26.547047, Alt.=103.975647m. Speed=8.064000m/h.</desc>
<speed>2.240000</speed>
</trkpt>
<trkpt lat="56.096935" lon="26.547081">
<ele>103.502991</ele>
<time>2010-08-29T14:25:58Z</time>
<desc>lat.=56.096935, lon.=26.547081, Alt.=103.502991m. Speed=8.748000m/h.</desc>
<speed>2.430000</speed>
</trkpt>
<trkpt lat="56.096924" lon="26.547110">
<ele>102.991272</ele>
<time>2010-08-29T14:25:59Z</time>
<desc>lat.=56.096924, lon.=26.547110, Alt.=102.991272m. Speed=9.216000m/h.</desc>
<speed>2.560000</speed>
</trkpt>
<trkpt lat="56.096916" lon="26.547146">
<ele>102.942444</ele>
<time>2010-08-29T14:26:00Z</time>
<desc>lat.=56.096916, lon.=26.547146, Alt.=102.942444m. Speed=8.244000m/h.</desc>
<speed>2.290000</speed>
</trkpt>
<trkpt lat="56.096909" lon="26.547184">
<ele>102.741272</ele>
<time>2010-08-29T14:26:01Z</time>
<desc>lat.=56.096909, lon.=26.547184, Alt.=102.741272m. Speed=8.712000m/h.</desc>
<speed>2.420000</speed>
</trkpt>
<trkpt lat="56.096901" lon="26.547228">
<ele>102.413147</ele>
<time>2010-08-29T14:26:02Z</time>
<desc>lat.=56.096901, lon.=26.547228, Alt.=102.413147m. Speed=8.748000m/h.</desc>
<speed>2.430000</speed>
</trkpt>
<trkpt lat="56.096897" lon="26.547272">
<ele>102.184631</ele>
<time>2010-08-29T14:26:03Z</time>
<desc>lat.=56.096897, lon.=26.547272, Alt.=102.184631m. Speed=7.992000m/h.</desc>
<speed>2.220000</speed>
</trkpt>
<trkpt lat="56.096897" lon="26.547308">
<ele>101.797913</ele>
<time>2010-08-29T14:26:04Z</time>
<desc>lat.=56.096897, lon.=26.547308, Alt.=101.797913m. Speed=7.200000m/h.</desc>
<speed>2.000000</speed>
</trkpt>
<trkpt lat="56.096889" lon="26.547352">
<ele>100.993225</ele>
<time>2010-08-29T14:26:05Z</time>
<desc>lat.=56.096889, lon.=26.547352, Alt.=100.993225m. Speed=7.776000m/h.</desc>
<speed>2.160000</speed>
</trkpt>
<trkpt lat="56.096886" lon="26.547388">
<ele>100.588928</ele>
<time>2010-08-29T14:26:06Z</time>
<desc>lat.=56.096886, lon.=26.547388, Alt.=100.588928m. Speed=6.444000m/h.</desc>
<speed>1.790000</speed>
</trkpt>
<trkpt lat="56.096878" lon="26.547426">
<ele>100.243225</ele>
<time>2010-08-29T14:26:07Z</time>
<desc>lat.=56.096878, lon.=26.547426, Alt.=100.243225m. Speed=7.128000m/h.</desc>
<speed>1.980000</speed>
</trkpt>
<trkpt lat="56.096870" lon="26.547462">
<ele>99.766663</ele>
<time>2010-08-29T14:26:08Z</time>
<desc>lat.=56.096870, lon.=26.547462, Alt.=99.766663m. Speed=6.876000m/h.</desc>
<speed>1.910000</speed>
</trkpt>
<trkpt lat="56.096870" lon="26.547493">
<ele>99.686584</ele>
<time>2010-08-29T14:26:09Z</time>
<desc>lat.=56.096870, lon.=26.547493, Alt.=99.686584m. Speed=6.840000m/h.</desc>
<speed>1.900000</speed>
</trkpt>
<trkpt lat="56.096867" lon="26.547522">
<ele>98.999084</ele>
<time>2010-08-29T14:26:10Z</time>
<desc>lat.=56.096867, lon.=26.547522, Alt.=98.999084m. Speed=5.832000m/h.</desc>
<speed>1.620000</speed>
</trkpt>
<trkpt lat="56.096863" lon="26.547554">
<ele>98.653381</ele>
<time>2010-08-29T14:26:11Z</time>
<desc>lat.=56.096863, lon.=26.547554, Alt.=98.653381m. Speed=5.436000m/h.</desc>
<speed>1.510000</speed>
</trkpt>
<trkpt lat="56.096863" lon="26.547585">
<ele>98.227600</ele>
<time>2010-08-29T14:26:12Z</time>
<desc>lat.=56.096863, lon.=26.547585, Alt.=98.227600m. Speed=5.076000m/h.</desc>
<speed>1.410000</speed>
</trkpt>
<trkpt lat="56.096863" lon="26.547609">
<ele>97.721741</ele>
<time>2010-08-29T14:26:13Z</time>
<desc>lat.=56.096863, lon.=26.547609, Alt.=97.721741m. Speed=5.328000m/h.</desc>
<speed>1.480000</speed>
</trkpt>
<trkpt lat="56.096863" lon="26.547638">
<ele>97.196350</ele>
<time>2010-08-29T14:26:14Z</time>
<desc>lat.=56.096863, lon.=26.547638, Alt.=97.196350m. Speed=5.580000m/h.</desc>
<speed>1.550000</speed>
</trkpt>
<trkpt lat="56.096867" lon="26.547668">
<ele>96.497131</ele>
<time>2010-08-29T14:26:15Z</time>
<desc>lat.=56.096867, lon.=26.547668, Alt.=96.497131m. Speed=6.660000m/h.</desc>
<speed>1.850000</speed>
</trkpt>
<trkpt lat="56.096874" lon="26.547697">
<ele>95.993225</ele>
<time>2010-08-29T14:26:16Z</time>
<desc>lat.=56.096874, lon.=26.547697, Alt.=95.993225m. Speed=6.840000m/h.</desc>
<speed>1.900000</speed>
</trkpt>
<trkpt lat="56.096886" lon="26.547720">
<ele>96.088928</ele>
<time>2010-08-29T14:26:17Z</time>
<desc>lat.=56.096886, lon.=26.547720, Alt.=96.088928m. Speed=6.048000m/h.</desc>
<speed>1.680000</speed>
</trkpt>
<trkpt lat="56.096901" lon="26.547731">
<ele>95.534241</ele>
<time>2010-08-29T14:26:18Z</time>
<desc>lat.=56.096901, lon.=26.547731, Alt.=95.534241m. Speed=5.904000m/h.</desc>
<speed>1.640000</speed>
</trkpt>
<trkpt lat="56.096909" lon="26.547731">
<ele>94.924866</ele>
<time>2010-08-29T14:26:19Z</time>
<desc>lat.=56.096909, lon.=26.547731, Alt.=94.924866m. Speed=2.556000m/h.</desc>
<speed>0.710000</speed>
</trkpt>
<trkpt lat="56.096916" lon="26.547712">
<ele>94.940491</ele>
<time>2010-08-29T14:26:20Z</time>
<desc>lat.=56.096916, lon.=26.547712, Alt.=94.940491m. Speed=3.312000m/h.</desc>
<speed>0.920000</speed>
</trkpt>
<trkpt lat="56.096928" lon="26.547714">
<ele>95.251038</ele>
<time>2010-08-29T14:26:21Z</time>
<desc>lat.=56.096928, lon.=26.547714, Alt.=95.251038m. Speed=3.132000m/h.</desc>
<speed>0.870000</speed>
</trkpt>
<trkpt lat="56.096939" lon="26.547718">
<ele>95.305725</ele>
<time>2010-08-29T14:26:22Z</time>
<desc>lat.=56.096939, lon.=26.547718, Alt.=95.305725m. Speed=4.140000m/h.</desc>
<speed>1.150000</speed>
</trkpt>
<trkpt lat="56.096947" lon="26.547722">
<ele>95.307678</ele>
<time>2010-08-29T14:26:23Z</time>
<desc>lat.=56.096947, lon.=26.547722, Alt.=95.307678m. Speed=3.996000m/h.</desc>
<speed>1.110000</speed>
</trkpt>
<trkpt lat="56.096954" lon="26.547724">
<ele>95.407288</ele>
<time>2010-08-29T14:26:24Z</time>
<desc>lat.=56.096954, lon.=26.547724, Alt.=95.407288m. Speed=2.520000m/h.</desc>
<speed>0.700000</speed>
</trkpt>
<trkpt lat="56.096954" lon="26.547726">
<ele>95.682678</ele>
<time>2010-08-29T14:26:25Z</time>
<desc>lat.=56.096954, lon.=26.547726, Alt.=95.682678m. Speed=1.620000m/h.</desc>
<speed>0.450000</speed>
</trkpt>
<trkpt lat="56.096958" lon="26.547726">
<ele>95.463928</ele>
<time>2010-08-29T14:26:26Z</time>
<desc>lat.=56.096958, lon.=26.547726, Alt.=95.463928m. Speed=2.520000m/h.</desc>
<speed>0.700000</speed>
</trkpt>
<trkpt lat="56.096962" lon="26.547737">
<ele>95.239319</ele>
<time>2010-08-29T14:26:27Z</time>
<desc>lat.=56.096962, lon.=26.547737, Alt.=95.239319m. Speed=2.304000m/h.</desc>
<speed>0.640000</speed>
</trkpt>
<trkpt lat="56.096966" lon="26.547743">
<ele>95.006897</ele>
<time>2010-08-29T14:26:28Z</time>
<desc>lat.=56.096966, lon.=26.547743, Alt.=95.006897m. Speed=2.772000m/h.</desc>
<speed>0.770000</speed>
</trkpt>
<trkpt lat="56.096970" lon="26.547743">
<ele>94.807678</ele>
<time>2010-08-29T14:26:29Z</time>
<desc>lat.=56.096970, lon.=26.547743, Alt.=94.807678m. Speed=2.412000m/h.</desc>
<speed>0.670000</speed>
</trkpt>
<trkpt lat="56.096973" lon="26.547737">
<ele>94.481506</ele>
<time>2010-08-29T14:26:30Z</time>
<desc>lat.=56.096973, lon.=26.547737, Alt.=94.481506m. Speed=2.160000m/h.</desc>
<speed>0.600000</speed>
</trkpt>
<trkpt lat="56.096970" lon="26.547741">
<ele>94.141663</ele>
<time>2010-08-29T14:26:31Z</time>
<desc>lat.=56.096970, lon.=26.547741, Alt.=94.141663m. Speed=1.584000m/h.</desc>
<speed>0.440000</speed>
</trkpt>
<trkpt lat="56.096962" lon="26.547743">
<ele>93.930725</ele>
<time>2010-08-29T14:26:32Z</time>
<desc>lat.=56.096962, lon.=26.547743, Alt.=93.930725m. Speed=1.620000m/h.</desc>
<speed>0.450000</speed>
</trkpt>
<trkpt lat="56.096954" lon="26.547745">
<ele>93.641663</ele>
<time>2010-08-29T14:26:33Z</time>
<desc>lat.=56.096954, lon.=26.547745, Alt.=93.641663m. Speed=1.260000m/h.</desc>
<speed>0.350000</speed>
</trkpt>
<trkpt lat="56.096947" lon="26.547745">
<ele>93.317444</ele>
<time>2010-08-29T14:26:34Z</time>
<desc>lat.=56.096947, lon.=26.547745, Alt.=93.317444m. Speed=1.296000m/h.</desc>
<speed>0.360000</speed>
</trkpt>
<trkpt lat="56.096943" lon="26.547747">
<ele>93.118225</ele>
<time>2010-08-29T14:26:35Z</time>
<desc>lat.=56.096943, lon.=26.547747, Alt.=93.118225m. Speed=1.080000m/h.</desc>
<speed>0.300000</speed>
</trkpt>
<trkpt lat="56.096935" lon="26.547756">
<ele>94.235413</ele>
<time>2010-08-29T14:26:36Z</time>
<desc>lat.=56.096935, lon.=26.547756, Alt.=94.235413m. Speed=1.008000m/h.</desc>
<speed>0.280000</speed>
</trkpt>
<trkpt lat="56.096928" lon="26.547760">
<ele>94.251038</ele>
<time>2010-08-29T14:26:37Z</time>
<desc>lat.=56.096928, lon.=26.547760, Alt.=94.251038m. Speed=0.936000m/h.</desc>
<speed>0.260000</speed>
</trkpt>
<trkpt lat="56.096924" lon="26.547764">
<ele>94.192444</ele>
<time>2010-08-29T14:26:38Z</time>
<desc>lat.=56.096924, lon.=26.547764, Alt.=94.192444m. Speed=0.900000m/h.</desc>
<speed>0.250000</speed>
</trkpt>
<trkpt lat="56.096920" lon="26.547770">
<ele>94.235413</ele>
<time>2010-08-29T14:26:39Z</time>
<desc>lat.=56.096920, lon.=26.547770, Alt.=94.235413m. Speed=0.684000m/h.</desc>
<speed>0.190000</speed>
</trkpt>
<trkpt lat="56.096920" lon="26.547766">
<ele>93.987366</ele>
<time>2010-08-29T14:26:40Z</time>
<desc>lat.=56.096920, lon.=26.547766, Alt.=93.987366m. Speed=0.792000m/h.</desc>
<speed>0.220000</speed>
</trkpt>
<trkpt lat="56.096920" lon="26.547764">
<ele>93.741272</ele>
<time>2010-08-29T14:26:41Z</time>
<desc>lat.=56.096920, lon.=26.547764, Alt.=93.741272m. Speed=0.684000m/h.</desc>
<speed>0.190000</speed>
</trkpt>
<trkpt lat="56.096924" lon="26.547762">
<ele>93.497131</ele>
<time>2010-08-29T14:26:42Z</time>
<desc>lat.=56.096924, lon.=26.547762, Alt.=93.497131m. Speed=0.684000m/h.</desc>
<speed>0.190000</speed>
</trkpt>
<trkpt lat="56.096924" lon="26.547758">
<ele>93.254944</ele>
<time>2010-08-29T14:26:43Z</time>
<desc>lat.=56.096924, lon.=26.547758, Alt.=93.254944m. Speed=0.576000m/h.</desc>
<speed>0.160000</speed>
</trkpt>
<trkpt lat="56.096924" lon="26.547756">
<ele>93.014709</ele>
<time>2010-08-29T14:26:44Z</time>
<desc>lat.=56.096924, lon.=26.547756, Alt.=93.014709m. Speed=0.684000m/h.</desc>
<speed>0.190000</speed>
</trkpt>
<trkpt lat="56.096924" lon="26.547754">
<ele>92.776428</ele>
<time>2010-08-29T14:26:45Z</time>
<desc>lat.=56.096924, lon.=26.547754, Alt.=92.776428m. Speed=0.792000m/h.</desc>
<speed>0.220000</speed>
</trkpt>
<trkpt lat="56.096928" lon="26.547752">
<ele>92.540100</ele>
<time>2010-08-29T14:26:46Z</time>
<desc>lat.=56.096928, lon.=26.547752, Alt.=92.540100m. Speed=0.756000m/h.</desc>
<speed>0.210000</speed>
</trkpt>
<trkpt lat="56.096928" lon="26.547749">
<ele>92.305725</ele>
<time>2010-08-29T14:26:47Z</time>
<desc>lat.=56.096928, lon.=26.547749, Alt.=92.305725m. Speed=0.792000m/h.</desc>
<speed>0.220000</speed>
</trkpt>
<trkpt lat="56.096928" lon="26.547747">
<ele>92.073303</ele>
<time>2010-08-29T14:26:48Z</time>
<desc>lat.=56.096928, lon.=26.547747, Alt.=92.073303m. Speed=0.828000m/h.</desc>
<speed>0.230000</speed>
</trkpt>
<trkpt lat="56.096928" lon="26.547743">
<ele>91.844788</ele>
<time>2010-08-29T14:26:49Z</time>
<desc>lat.=56.096928, lon.=26.547743, Alt.=91.844788m. Speed=0.828000m/h.</desc>
<speed>0.230000</speed>
</trkpt>
<trkpt lat="56.096931" lon="26.547739">
<ele>91.616272</ele>
<time>2010-08-29T14:26:50Z</time>
<desc>lat.=56.096931, lon.=26.547739, Alt.=91.616272m. Speed=0.864000m/h.</desc>
<speed>0.240000</speed>
</trkpt>
<trkpt lat="56.096931" lon="26.547737">
<ele>91.409241</ele>
<time>2010-08-29T14:26:51Z</time>
<desc>lat.=56.096931, lon.=26.547737, Alt.=91.409241m. Speed=0.936000m/h.</desc>
<speed>0.260000</speed>
</trkpt>
<trkpt lat="56.096931" lon="26.547733">
<ele>91.241272</ele>
<time>2010-08-29T14:26:52Z</time>
<desc>lat.=56.096931, lon.=26.547733, Alt.=91.241272m. Speed=1.008000m/h.</desc>
<speed>0.280000</speed>
</trkpt>
<trkpt lat="56.096935" lon="26.547729">
<ele>91.071350</ele>
<time>2010-08-29T14:26:53Z</time>
<desc>lat.=56.096935, lon.=26.547729, Alt.=91.071350m. Speed=1.152000m/h.</desc>
<speed>0.320000</speed>
</trkpt>
<trkpt lat="56.096931" lon="26.547733">
<ele>91.487366</ele>
<time>2010-08-29T14:26:54Z</time>
<desc>lat.=56.096931, lon.=26.547733, Alt.=91.487366m. Speed=1.044000m/h.</desc>
<speed>0.290000</speed>
</trkpt>
<trkpt lat="56.096928" lon="26.547737">
<ele>91.471741</ele>
<time>2010-08-29T14:26:55Z</time>
<desc>lat.=56.096928, lon.=26.547737, Alt.=91.471741m. Speed=1.080000m/h.</desc>
<speed>0.300000</speed>
</trkpt>
<trkpt lat="56.096924" lon="26.547741">
<ele>91.430725</ele>
<time>2010-08-29T14:26:56Z</time>
<desc>lat.=56.096924, lon.=26.547741, Alt.=91.430725m. Speed=1.152000m/h.</desc>
<speed>0.320000</speed>
</trkpt>
<trkpt lat="56.096924" lon="26.547745">
<ele>91.471741</ele>
<time>2010-08-29T14:26:57Z</time>
<desc>lat.=56.096924, lon.=26.547745, Alt.=91.471741m. Speed=1.080000m/h.</desc>
<speed>0.300000</speed>
</trkpt>
<trkpt lat="56.096924" lon="26.547743">
<ele>91.454163</ele>
<time>2010-08-29T14:26:58Z</time>
<desc>lat.=56.096924, lon.=26.547743, Alt.=91.454163m. Speed=1.152000m/h.</desc>
<speed>0.320000</speed>
</trkpt>
<trkpt lat="56.096920" lon="26.547745">
<ele>91.356506</ele>
<time>2010-08-29T14:26:59Z</time>
<desc>lat.=56.096920, lon.=26.547745, Alt.=91.356506m. Speed=1.008000m/h.</desc>
<speed>0.280000</speed>
</trkpt>
<trkpt lat="56.096920" lon="26.547749">
<ele>91.348694</ele>
<time>2010-08-29T14:27:00Z</time>
<desc>lat.=56.096920, lon.=26.547749, Alt.=91.348694m. Speed=1.044000m/h.</desc>
<speed>0.290000</speed>
</trkpt>
<trkpt lat="56.096920" lon="26.547754">
<ele>91.344788</ele>
<time>2010-08-29T14:27:01Z</time>
<desc>lat.=56.096920, lon.=26.547754, Alt.=91.344788m. Speed=0.972000m/h.</desc>
<speed>0.270000</speed>
</trkpt>
<trkpt lat="56.096916" lon="26.547766">
<ele>91.401428</ele>
<time>2010-08-29T14:27:02Z</time>
<desc>lat.=56.096916, lon.=26.547766, Alt.=91.401428m. Speed=0.900000m/h.</desc>
<speed>0.250000</speed>
</trkpt>
<trkpt lat="56.096916" lon="26.547762">
<ele>91.268616</ele>
<time>2010-08-29T14:27:03Z</time>
<desc>lat.=56.096916, lon.=26.547762, Alt.=91.268616m. Speed=0.792000m/h.</desc>
<speed>0.220000</speed>
</trkpt>
<trkpt lat="56.096920" lon="26.547758">
<ele>91.137756</ele>
<time>2010-08-29T14:27:04Z</time>
<desc>lat.=56.096920, lon.=26.547758, Alt.=91.137756m. Speed=0.792000m/h.</desc>
<speed>0.220000</speed>
</trkpt>
<trkpt lat="56.096920" lon="26.547756">
<ele>91.006897</ele>
<time>2010-08-29T14:27:05Z</time>
<desc>lat.=56.096920, lon.=26.547756, Alt.=91.006897m. Speed=0.792000m/h.</desc>
<speed>0.220000</speed>
</trkpt>
<trkpt lat="56.096920" lon="26.547752">
<ele>90.877991</ele>
<time>2010-08-29T14:27:06Z</time>
<desc>lat.=56.096920, lon.=26.547752, Alt.=90.877991m. Speed=0.720000m/h.</desc>
<speed>0.200000</speed>
</trkpt>
<trkpt lat="56.096920" lon="26.547750">
<ele>90.749084</ele>
<time>2010-08-29T14:27:07Z</time>
<desc>lat.=56.096920, lon.=26.547750, Alt.=90.749084m. Speed=0.684000m/h.</desc>
<speed>0.190000</speed>
</trkpt>
<trkpt lat="56.096924" lon="26.547747">
<ele>90.624084</ele>
<time>2010-08-29T14:27:08Z</time>
<desc>lat.=56.096924, lon.=26.547747, Alt.=90.624084m. Speed=0.468000m/h.</desc>
<speed>0.130000</speed>
</trkpt>
<trkpt lat="56.096924" lon="26.547747">
<ele>90.497131</ele>
<time>2010-08-29T14:27:09Z</time>
<desc>lat.=56.096924, lon.=26.547747, Alt.=90.497131m. Speed=0.612000m/h.</desc>
<speed>0.170000</speed>
</trkpt>
<trkpt lat="56.096924" lon="26.547743">
<ele>90.372131</ele>
<time>2010-08-29T14:27:10Z</time>
<desc>lat.=56.096924, lon.=26.547743, Alt.=90.372131m. Speed=0.684000m/h.</desc>
<speed>0.190000</speed>
</trkpt>
<trkpt lat="56.096924" lon="26.547741">
<ele>90.247131</ele>
<time>2010-08-29T14:27:11Z</time>
<desc>lat.=56.096924, lon.=26.547741, Alt.=90.247131m. Speed=0.720000m/h.</desc>
<speed>0.200000</speed>
</trkpt>
<trkpt lat="56.096924" lon="26.547739">
<ele>90.122131</ele>
<time>2010-08-29T14:27:12Z</time>
<desc>lat.=56.096924, lon.=26.547739, Alt.=90.122131m. Speed=0.648000m/h.</desc>
<speed>0.180000</speed>
</trkpt>
<trkpt lat="56.096928" lon="26.547737">
<ele>89.997131</ele>
<time>2010-08-29T14:27:13Z</time>
<desc>lat.=56.096928, lon.=26.547737, Alt.=89.997131m. Speed=0.720000m/h.</desc>
<speed>0.200000</speed>
</trkpt>
<trkpt lat="56.096928" lon="26.547733">
<ele>89.876038</ele>
<time>2010-08-29T14:27:14Z</time>
<desc>lat.=56.096928, lon.=26.547733, Alt.=89.876038m. Speed=0.720000m/h.</desc>
<speed>0.200000</speed>
</trkpt>
<trkpt lat="56.096928" lon="26.547731">
<ele>89.752991</ele>
<time>2010-08-29T14:27:15Z</time>
<desc>lat.=56.096928, lon.=26.547731, Alt.=89.752991m. Speed=0.648000m/h.</desc>
<speed>0.180000</speed>
</trkpt>
<trkpt lat="56.096928" lon="26.547729">
<ele>89.631897</ele>
<time>2010-08-29T14:27:16Z</time>
<desc>lat.=56.096928, lon.=26.547729, Alt.=89.631897m. Speed=0.576000m/h.</desc>
<speed>0.160000</speed>
</trkpt>
<trkpt lat="56.096928" lon="26.547726">
<ele>89.508850</ele>
<time>2010-08-29T14:27:17Z</time>
<desc>lat.=56.096928, lon.=26.547726, Alt.=89.508850m. Speed=0.648000m/h.</desc>
<speed>0.180000</speed>
</trkpt>
<trkpt lat="56.096931" lon="26.547724">
<ele>89.385803</ele>
<time>2010-08-29T14:27:18Z</time>
<desc>lat.=56.096931, lon.=26.547724, Alt.=89.385803m. Speed=0.540000m/h.</desc>
<speed>0.150000</speed>
</trkpt>
<trkpt lat="56.096931" lon="26.547722">
<ele>89.262756</ele>
<time>2010-08-29T14:27:19Z</time>
<desc>lat.=56.096931, lon.=26.547722, Alt.=89.262756m. Speed=0.612000m/h.</desc>
<speed>0.170000</speed>
</trkpt>
<trkpt lat="56.096931" lon="26.547720">
<ele>89.141663</ele>
<time>2010-08-29T14:27:20Z</time>
<desc>lat.=56.096931, lon.=26.547720, Alt.=89.141663m. Speed=0.576000m/h.</desc>
<speed>0.160000</speed>
</trkpt>
<trkpt lat="56.096931" lon="26.547718">
<ele>89.020569</ele>
<time>2010-08-29T14:27:21Z</time>
<desc>lat.=56.096931, lon.=26.547718, Alt.=89.020569m. Speed=0.684000m/h.</desc>
<speed>0.190000</speed>
</trkpt>
<trkpt lat="56.096931" lon="26.547716">
<ele>88.899475</ele>
<time>2010-08-29T14:27:22Z</time>
<desc>lat.=56.096931, lon.=26.547716, Alt.=88.899475m. Speed=0.684000m/h.</desc>
<speed>0.190000</speed>
</trkpt>
<trkpt lat="56.096935" lon="26.547714">
<ele>88.778381</ele>
<time>2010-08-29T14:27:23Z</time>
<desc>lat.=56.096935, lon.=26.547714, Alt.=88.778381m. Speed=0.864000m/h.</desc>
<speed>0.240000</speed>
</trkpt>
<trkpt lat="56.096935" lon="26.547710">
<ele>88.657288</ele>
<time>2010-08-29T14:27:24Z</time>
<desc>lat.=56.096935, lon.=26.547710, Alt.=88.657288m. Speed=0.792000m/h.</desc>
<speed>0.220000</speed>
</trkpt>
<trkpt lat="56.096935" lon="26.547707">
<ele>88.536194</ele>
<time>2010-08-29T14:27:25Z</time>
<desc>lat.=56.096935, lon.=26.547707, Alt.=88.536194m. Speed=0.648000m/h.</desc>
<speed>0.180000</speed>
</trkpt>
<trkpt lat="56.096935" lon="26.547705">
<ele>88.417053</ele>
<time>2010-08-29T14:27:26Z</time>
<desc>lat.=56.096935, lon.=26.547705, Alt.=88.417053m. Speed=0.864000m/h.</desc>
<speed>0.240000</speed>
</trkpt>
<trkpt lat="56.096939" lon="26.547703">
<ele>88.295959</ele>
<time>2010-08-29T14:27:27Z</time>
<desc>lat.=56.096939, lon.=26.547703, Alt.=88.295959m. Speed=0.792000m/h.</desc>
<speed>0.220000</speed>
</trkpt>
<trkpt lat="56.096939" lon="26.547699">
<ele>88.178772</ele>
<time>2010-08-29T14:27:28Z</time>
<desc>lat.=56.096939, lon.=26.547699, Alt.=88.178772m. Speed=0.756000m/h.</desc>
<speed>0.210000</speed>
</trkpt>
<trkpt lat="56.096939" lon="26.547695">
<ele>88.059631</ele>
<time>2010-08-29T14:27:29Z</time>
<desc>lat.=56.096939, lon.=26.547695, Alt.=88.059631m. Speed=0.828000m/h.</desc>
<speed>0.230000</speed>
</trkpt>
<trkpt lat="56.096939" lon="26.547693">
<ele>87.942444</ele>
<time>2010-08-29T14:27:30Z</time>
<desc>lat.=56.096939, lon.=26.547693, Alt.=87.942444m. Speed=0.900000m/h.</desc>
<speed>0.250000</speed>
</trkpt>
<trkpt lat="56.096939" lon="26.547689">
<ele>87.823303</ele>
<time>2010-08-29T14:27:31Z</time>
<desc>lat.=56.096939, lon.=26.547689, Alt.=87.823303m. Speed=0.828000m/h.</desc>
<speed>0.230000</speed>
</trkpt>
<trkpt lat="56.096943" lon="26.547688">
<ele>87.702209</ele>
<time>2010-08-29T14:27:32Z</time>
<desc>lat.=56.096943, lon.=26.547688, Alt.=87.702209m. Speed=0.612000m/h.</desc>
<speed>0.170000</speed>
</trkpt>
<trkpt lat="56.096943" lon="26.547686">
<ele>87.583069</ele>
<time>2010-08-29T14:27:33Z</time>
<desc>lat.=56.096943, lon.=26.547686, Alt.=87.583069m. Speed=0.792000m/h.</desc>
<speed>0.220000</speed>
</trkpt>
<trkpt lat="56.096943" lon="26.547682">
<ele>87.463928</ele>
<time>2010-08-29T14:27:34Z</time>
<desc>lat.=56.096943, lon.=26.547682, Alt.=87.463928m. Speed=0.684000m/h.</desc>
<speed>0.190000</speed>
</trkpt>
<trkpt lat="56.096943" lon="26.547682">
<ele>87.344788</ele>
<time>2010-08-29T14:27:35Z</time>
<desc>lat.=56.096943, lon.=26.547682, Alt.=87.344788m. Speed=0.288000m/h.</desc>
<speed>0.080000</speed>
</trkpt>
<trkpt lat="56.096943" lon="26.547684">
<ele>87.225647</ele>
<time>2010-08-29T14:27:36Z</time>
<desc>lat.=56.096943, lon.=26.547684, Alt.=87.225647m. Speed=0.324000m/h.</desc>
<speed>0.090000</speed>
</trkpt>
<trkpt lat="56.096943" lon="26.547684">
<ele>87.104553</ele>
<time>2010-08-29T14:27:37Z</time>
<desc>lat.=56.096943, lon.=26.547684, Alt.=87.104553m. Speed=0.288000m/h.</desc>
<speed>0.080000</speed>
</trkpt>
<trkpt lat="56.096943" lon="26.547684">
<ele>86.983459</ele>
<time>2010-08-29T14:27:38Z</time>
<desc>lat.=56.096943, lon.=26.547684, Alt.=86.983459m. Speed=0.324000m/h.</desc>
<speed>0.090000</speed>
</trkpt>
<trkpt lat="56.096947" lon="26.547682">
<ele>86.860413</ele>
<time>2010-08-29T14:27:39Z</time>
<desc>lat.=56.096947, lon.=26.547682, Alt.=86.860413m. Speed=0.360000m/h.</desc>
<speed>0.100000</speed>
</trkpt>
<trkpt lat="56.096947" lon="26.547682">
<ele>86.735413</ele>
<time>2010-08-29T14:27:40Z</time>
<desc>lat.=56.096947, lon.=26.547682, Alt.=86.735413m. Speed=0.324000m/h.</desc>
<speed>0.090000</speed>
</trkpt>
<trkpt lat="56.096947" lon="26.547682">
<ele>86.612366</ele>
<time>2010-08-29T14:27:41Z</time>
<desc>lat.=56.096947, lon.=26.547682, Alt.=86.612366m. Speed=0.288000m/h.</desc>
<speed>0.080000</speed>
</trkpt>
<trkpt lat="56.096947" lon="26.547682">
<ele>86.493225</ele>
<time>2010-08-29T14:27:42Z</time>
<desc>lat.=56.096947, lon.=26.547682, Alt.=86.493225m. Speed=0.396000m/h.</desc>
<speed>0.110000</speed>
</trkpt>
<trkpt lat="56.096947" lon="26.547680">
<ele>86.372131</ele>
<time>2010-08-29T14:27:43Z</time>
<desc>lat.=56.096947, lon.=26.547680, Alt.=86.372131m. Speed=0.288000m/h.</desc>
<speed>0.080000</speed>
</trkpt>
<trkpt lat="56.096947" lon="26.547680">
<ele>86.251038</ele>
<time>2010-08-29T14:27:44Z</time>
<desc>lat.=56.096947, lon.=26.547680, Alt.=86.251038m. Speed=0.360000m/h.</desc>
<speed>0.100000</speed>
</trkpt>
<trkpt lat="56.096947" lon="26.547678">
<ele>86.131897</ele>
<time>2010-08-29T14:27:45Z</time>
<desc>lat.=56.096947, lon.=26.547678, Alt.=86.131897m. Speed=0.360000m/h.</desc>
<speed>0.100000</speed>
</trkpt>
<trkpt lat="56.096951" lon="26.547678">
<ele>86.016663</ele>
<time>2010-08-29T14:27:46Z</time>
<desc>lat.=56.096951, lon.=26.547678, Alt.=86.016663m. Speed=0.396000m/h.</desc>
<speed>0.110000</speed>
</trkpt>
<trkpt lat="56.096951" lon="26.547676">
<ele>85.901428</ele>
<time>2010-08-29T14:27:47Z</time>
<desc>lat.=56.096951, lon.=26.547676, Alt.=85.901428m. Speed=0.324000m/h.</desc>
<speed>0.090000</speed>
</trkpt>
<trkpt lat="56.096951" lon="26.547676">
<ele>85.790100</ele>
<time>2010-08-29T14:27:48Z</time>
<desc>lat.=56.096951, lon.=26.547676, Alt.=85.790100m. Speed=0.360000m/h.</desc>
<speed>0.100000</speed>
</trkpt>
<trkpt lat="56.096951" lon="26.547674">
<ele>85.678772</ele>
<time>2010-08-29T14:27:49Z</time>
<desc>lat.=56.096951, lon.=26.547674, Alt.=85.678772m. Speed=0.540000m/h.</desc>
<speed>0.150000</speed>
</trkpt>
<trkpt lat="56.096951" lon="26.547672">
<ele>85.569397</ele>
<time>2010-08-29T14:27:50Z</time>
<desc>lat.=56.096951, lon.=26.547672, Alt.=85.569397m. Speed=0.648000m/h.</desc>
<speed>0.180000</speed>
</trkpt>
<trkpt lat="56.096954" lon="26.547670">
<ele>85.461975</ele>
<time>2010-08-29T14:27:51Z</time>
<desc>lat.=56.096954, lon.=26.547670, Alt.=85.461975m. Speed=0.576000m/h.</desc>
<speed>0.160000</speed>
</trkpt>
<trkpt lat="56.096954" lon="26.547668">
<ele>85.362366</ele>
<time>2010-08-29T14:27:52Z</time>
<desc>lat.=56.096954, lon.=26.547668, Alt.=85.362366m. Speed=0.648000m/h.</desc>
<speed>0.180000</speed>
</trkpt>
<trkpt lat="56.096954" lon="26.547667">
<ele>85.260803</ele>
<time>2010-08-29T14:27:53Z</time>
<desc>lat.=56.096954, lon.=26.547667, Alt.=85.260803m. Speed=0.576000m/h.</desc>
<speed>0.160000</speed>
</trkpt>
<trkpt lat="56.096954" lon="26.547665">
<ele>85.167053</ele>
<time>2010-08-29T14:27:54Z</time>
<desc>lat.=56.096954, lon.=26.547665, Alt.=85.167053m. Speed=0.432000m/h.</desc>
<speed>0.120000</speed>
</trkpt>
<trkpt lat="56.096954" lon="26.547663">
<ele>85.073303</ele>
<time>2010-08-29T14:27:55Z</time>
<desc>lat.=56.096954, lon.=26.547663, Alt.=85.073303m. Speed=0.432000m/h.</desc>
<speed>0.120000</speed>
</trkpt>
<trkpt lat="56.096954" lon="26.547661">
<ele>84.985413</ele>
<time>2010-08-29T14:27:56Z</time>
<desc>lat.=56.096954, lon.=26.547661, Alt.=84.985413m. Speed=0.396000m/h.</desc>
<speed>0.110000</speed>
</trkpt>
<trkpt lat="56.096954" lon="26.547661">
<ele>84.897522</ele>
<time>2010-08-29T14:27:57Z</time>
<desc>lat.=56.096954, lon.=26.547661, Alt.=84.897522m. Speed=0.432000m/h.</desc>
<speed>0.120000</speed>
</trkpt>
<trkpt lat="56.096958" lon="26.547659">
<ele>84.813538</ele>
<time>2010-08-29T14:27:58Z</time>
<desc>lat.=56.096958, lon.=26.547659, Alt.=84.813538m. Speed=0.396000m/h.</desc>
<speed>0.110000</speed>
</trkpt>
<trkpt lat="56.096958" lon="26.547657">
<ele>84.733459</ele>
<time>2010-08-29T14:27:59Z</time>
<desc>lat.=56.096958, lon.=26.547657, Alt.=84.733459m. Speed=0.540000m/h.</desc>
<speed>0.150000</speed>
</trkpt>
<trkpt lat="56.096958" lon="26.547657">
<ele>84.655334</ele>
<time>2010-08-29T14:28:00Z</time>
<desc>lat.=56.096958, lon.=26.547657, Alt.=84.655334m. Speed=0.360000m/h.</desc>
<speed>0.100000</speed>
</trkpt>
<trkpt lat="56.096958" lon="26.547655">
<ele>84.577209</ele>
<time>2010-08-29T14:28:01Z</time>
<desc>lat.=56.096958, lon.=26.547655, Alt.=84.577209m. Speed=0.432000m/h.</desc>
<speed>0.120000</speed>
</trkpt>
<trkpt lat="56.096958" lon="26.547653">
<ele>84.502991</ele>
<time>2010-08-29T14:28:02Z</time>
<desc>lat.=56.096958, lon.=26.547653, Alt.=84.502991m. Speed=0.108000m/h.</desc>
<speed>0.030000</speed>
</trkpt>
<trkpt lat="56.096958" lon="26.547653">
<ele>84.424866</ele>
<time>2010-08-29T14:28:03Z</time>
<desc>lat.=56.096958, lon.=26.547653, Alt.=84.424866m. Speed=0.108000m/h.</desc>
<speed>0.030000</speed>
</trkpt>
<trkpt lat="56.096958" lon="26.547653">
<ele>84.348694</ele>
<time>2010-08-29T14:28:04Z</time>
<desc>lat.=56.096958, lon.=26.547653, Alt.=84.348694m. Speed=0.036000m/h.</desc>
<speed>0.010000</speed>
</trkpt>
<trkpt lat="56.096958" lon="26.547653">
<ele>84.272522</ele>
<time>2010-08-29T14:28:05Z</time>
<desc>lat.=56.096958, lon.=26.547653, Alt.=84.272522m. Speed=0.360000m/h.</desc>
<speed>0.100000</speed>
</trkpt>
<trkpt lat="56.096958" lon="26.547651">
<ele>84.194397</ele>
<time>2010-08-29T14:28:06Z</time>
<desc>lat.=56.096958, lon.=26.547651, Alt.=84.194397m. Speed=0.396000m/h.</desc>
<speed>0.110000</speed>
</trkpt>
<trkpt lat="56.096962" lon="26.547651">
<ele>84.116272</ele>
<time>2010-08-29T14:28:07Z</time>
<desc>lat.=56.096962, lon.=26.547651, Alt.=84.116272m. Speed=0.432000m/h.</desc>
<speed>0.120000</speed>
</trkpt>
<trkpt lat="56.096962" lon="26.547649">
<ele>84.040100</ele>
<time>2010-08-29T14:28:08Z</time>
<desc>lat.=56.096962, lon.=26.547649, Alt.=84.040100m. Speed=0.432000m/h.</desc>
<speed>0.120000</speed>
</trkpt>
<trkpt lat="56.096962" lon="26.547647">
<ele>83.961975</ele>
<time>2010-08-29T14:28:09Z</time>
<desc>lat.=56.096962, lon.=26.547647, Alt.=83.961975m. Speed=0.396000m/h.</desc>
<speed>0.110000</speed>
</trkpt>
<trkpt lat="56.096962" lon="26.547646">
<ele>83.887756</ele>
<time>2010-08-29T14:28:10Z</time>
<desc>lat.=56.096962, lon.=26.547646, Alt.=83.887756m. Speed=0.432000m/h.</desc>
<speed>0.120000</speed>
</trkpt>
<trkpt lat="56.096962" lon="26.547646">
<ele>83.813538</ele>
<time>2010-08-29T14:28:11Z</time>
<desc>lat.=56.096962, lon.=26.547646, Alt.=83.813538m. Speed=0.432000m/h.</desc>
<speed>0.120000</speed>
</trkpt>
<trkpt lat="56.096962" lon="26.547644">
<ele>83.737366</ele>
<time>2010-08-29T14:28:12Z</time>
<desc>lat.=56.096962, lon.=26.547644, Alt.=83.737366m. Speed=0.360000m/h.</desc>
<speed>0.100000</speed>
</trkpt>
<trkpt lat="56.096962" lon="26.547642">
<ele>83.663147</ele>
<time>2010-08-29T14:28:13Z</time>
<desc>lat.=56.096962, lon.=26.547642, Alt.=83.663147m. Speed=0.396000m/h.</desc>
<speed>0.110000</speed>
</trkpt>
<trkpt lat="56.096966" lon="26.547640">
<ele>83.592834</ele>
<time>2010-08-29T14:28:14Z</time>
<desc>lat.=56.096966, lon.=26.547640, Alt.=83.592834m. Speed=0.432000m/h.</desc>
<speed>0.120000</speed>
</trkpt>
<trkpt lat="56.096966" lon="26.547640">
<ele>83.522522</ele>
<time>2010-08-29T14:28:15Z</time>
<desc>lat.=56.096966, lon.=26.547640, Alt.=83.522522m. Speed=0.468000m/h.</desc>
<speed>0.130000</speed>
</trkpt>
<trkpt lat="56.096966" lon="26.547638">
<ele>83.452209</ele>
<time>2010-08-29T14:28:16Z</time>
<desc>lat.=56.096966, lon.=26.547638, Alt.=83.452209m. Speed=0.576000m/h.</desc>
<speed>0.160000</speed>
</trkpt>
<trkpt lat="56.096966" lon="26.547634">
<ele>83.385803</ele>
<time>2010-08-29T14:28:17Z</time>
<desc>lat.=56.096966, lon.=26.547634, Alt.=83.385803m. Speed=0.432000m/h.</desc>
<speed>0.120000</speed>
</trkpt>
<trkpt lat="56.096966" lon="26.547634">
<ele>83.323303</ele>
<time>2010-08-29T14:28:18Z</time>
<desc>lat.=56.096966, lon.=26.547634, Alt.=83.323303m. Speed=0.396000m/h.</desc>
<speed>0.110000</speed>
</trkpt>
<trkpt lat="56.096966" lon="26.547632">
<ele>83.260803</ele>
<time>2010-08-29T14:28:19Z</time>
<desc>lat.=56.096966, lon.=26.547632, Alt.=83.260803m. Speed=0.540000m/h.</desc>
<speed>0.150000</speed>
</trkpt>
<trkpt lat="56.096966" lon="26.547630">
<ele>83.200256</ele>
<time>2010-08-29T14:28:20Z</time>
<desc>lat.=56.096966, lon.=26.547630, Alt.=83.200256m. Speed=0.540000m/h.</desc>
<speed>0.150000</speed>
</trkpt>
<trkpt lat="56.096970" lon="26.547628">
<ele>83.139709</ele>
<time>2010-08-29T14:28:21Z</time>
<desc>lat.=56.096970, lon.=26.547628, Alt.=83.139709m. Speed=0.396000m/h.</desc>
<speed>0.110000</speed>
</trkpt>
<trkpt lat="56.096970" lon="26.547626">
<ele>83.079163</ele>
<time>2010-08-29T14:28:22Z</time>
<desc>lat.=56.096970, lon.=26.547626, Alt.=83.079163m. Speed=0.612000m/h.</desc>
<speed>0.170000</speed>
</trkpt>
<trkpt lat="56.096970" lon="26.547625">
<ele>83.022522</ele>
<time>2010-08-29T14:28:23Z</time>
<desc>lat.=56.096970, lon.=26.547625, Alt.=83.022522m. Speed=0.612000m/h.</desc>
<speed>0.170000</speed>
</trkpt>
<trkpt lat="56.096970" lon="26.547623">
<ele>82.973694</ele>
<time>2010-08-29T14:28:24Z</time>
<desc>lat.=56.096970, lon.=26.547623, Alt.=82.973694m. Speed=0.684000m/h.</desc>
<speed>0.190000</speed>
</trkpt>
<trkpt lat="56.096970" lon="26.547621">
<ele>82.924866</ele>
<time>2010-08-29T14:28:25Z</time>
<desc>lat.=56.096970, lon.=26.547621, Alt.=82.924866m. Speed=0.756000m/h.</desc>
<speed>0.210000</speed>
</trkpt>
<trkpt lat="56.096973" lon="26.547617">
<ele>82.879944</ele>
<time>2010-08-29T14:28:26Z</time>
<desc>lat.=56.096973, lon.=26.547617, Alt.=82.879944m. Speed=0.576000m/h.</desc>
<speed>0.160000</speed>
</trkpt>
<trkpt lat="56.096973" lon="26.547615">
<ele>82.924866</ele>
<time>2010-08-29T14:28:27Z</time>
<desc>lat.=56.096973, lon.=26.547615, Alt.=82.924866m. Speed=0.648000m/h.</desc>
<speed>0.180000</speed>
</trkpt>
<trkpt lat="56.096973" lon="26.547613">
<ele>83.006897</ele>
<time>2010-08-29T14:28:28Z</time>
<desc>lat.=56.096973, lon.=26.547613, Alt.=83.006897m. Speed=0.468000m/h.</desc>
<speed>0.130000</speed>
</trkpt>
<trkpt lat="56.096973" lon="26.547611">
<ele>83.088928</ele>
<time>2010-08-29T14:28:29Z</time>
<desc>lat.=56.096973, lon.=26.547611, Alt.=83.088928m. Speed=0.000000m/h.</desc>
<speed>0.000000</speed>
</trkpt>
<trkpt lat="56.096973" lon="26.547609">
<ele>83.141663</ele>
<time>2010-08-29T14:28:30Z</time>
<desc>lat.=56.096973, lon.=26.547609, Alt.=83.141663m. Speed=0.000000m/h.</desc>
<speed>0.000000</speed>
</trkpt>
<trkpt lat="56.096973" lon="26.547611">
<ele>83.196350</ele>
<time>2010-08-29T14:28:31Z</time>
<desc>lat.=56.096973, lon.=26.547611, Alt.=83.196350m. Speed=0.000000m/h.</desc>
<speed>0.000000</speed>
</trkpt>
<trkpt lat="56.096973" lon="26.547611">
<ele>83.211975</ele>
<time>2010-08-29T14:28:32Z</time>
<desc>lat.=56.096973, lon.=26.547611, Alt.=83.211975m. Speed=0.000000m/h.</desc>
<speed>0.000000</speed>
</trkpt>
<trkpt lat="56.096973" lon="26.547611">
<ele>83.247131</ele>
<time>2010-08-29T14:28:33Z</time>
<desc>lat.=56.096973, lon.=26.547611, Alt.=83.247131m. Speed=0.000000m/h.</desc>
<speed>0.000000</speed>
</trkpt>
<trkpt lat="56.096973" lon="26.547611">
<ele>83.278381</ele>
<time>2010-08-29T14:28:34Z</time>
<desc>lat.=56.096973, lon.=26.547611, Alt.=83.278381m. Speed=0.000000m/h.</desc>
<speed>0.000000</speed>
</trkpt>
<trkpt lat="56.096973" lon="26.547611">
<ele>83.305725</ele>
<time>2010-08-29T14:28:35Z</time>
<desc>lat.=56.096973, lon.=26.547611, Alt.=83.305725m. Speed=0.000000m/h.</desc>
<speed>0.000000</speed>
</trkpt>
<trkpt lat="56.096973" lon="26.547611">
<ele>83.331116</ele>
<time>2010-08-29T14:28:36Z</time>
<desc>lat.=56.096973, lon.=26.547611, Alt.=83.331116m. Speed=0.000000m/h.</desc>
<speed>0.000000</speed>
</trkpt>
<trkpt lat="56.096973" lon="26.547611">
<ele>83.354553</ele>
<time>2010-08-29T14:28:37Z</time>
<desc>lat.=56.096973, lon.=26.547611, Alt.=83.354553m. Speed=0.000000m/h.</desc>
<speed>0.000000</speed>
</trkpt>
<trkpt lat="56.096973" lon="26.547611">
<ele>83.374084</ele>
<time>2010-08-29T14:28:38Z</time>
<desc>lat.=56.096973, lon.=26.547611, Alt.=83.374084m. Speed=0.000000m/h.</desc>
<speed>0.000000</speed>
</trkpt>
<trkpt lat="56.096973" lon="26.547611">
<ele>83.395569</ele>
<time>2010-08-29T14:28:39Z</time>
<desc>lat.=56.096973, lon.=26.547611, Alt.=83.395569m. Speed=0.000000m/h.</desc>
<speed>0.000000</speed>
</trkpt>
<trkpt lat="56.096973" lon="26.547611">
<ele>83.413147</ele>
<time>2010-08-29T14:28:40Z</time>
<desc>lat.=56.096973, lon.=26.547611, Alt.=83.413147m. Speed=0.000000m/h.</desc>
<speed>0.000000</speed>
</trkpt>
<trkpt lat="56.096973" lon="26.547611">
<ele>83.417053</ele>
<time>2010-08-29T14:28:41Z</time>
<desc>lat.=56.096973, lon.=26.547611, Alt.=83.417053m. Speed=0.000000m/h.</desc>
<speed>0.000000</speed>
</trkpt>
<trkpt lat="56.096973" lon="26.547611">
<ele>83.432678</ele>
<time>2010-08-29T14:28:42Z</time>
<desc>lat.=56.096973, lon.=26.547611, Alt.=83.432678m. Speed=0.000000m/h.</desc>
<speed>0.000000</speed>
</trkpt>
<trkpt lat="56.096973" lon="26.547611">
<ele>83.446350</ele>
<time>2010-08-29T14:28:43Z</time>
<desc>lat.=56.096973, lon.=26.547611, Alt.=83.446350m. Speed=0.000000m/h.</desc>
<speed>0.000000</speed>
</trkpt>
<trkpt lat="56.096973" lon="26.547611">
<ele>83.446350</ele>
<time>2010-08-29T14:28:44Z</time>
<desc>lat.=56.096973, lon.=26.547611, Alt.=83.446350m. Speed=0.000000m/h.</desc>
<speed>0.000000</speed>
</trkpt>
<trkpt lat="56.096973" lon="26.547611">
<ele>83.458069</ele>
<time>2010-08-29T14:28:45Z</time>
<desc>lat.=56.096973, lon.=26.547611, Alt.=83.458069m. Speed=0.000000m/h.</desc>
<speed>0.000000</speed>
</trkpt>
<trkpt lat="56.096973" lon="26.547611">
<ele>83.469788</ele>
<time>2010-08-29T14:28:46Z</time>
<desc>lat.=56.096973, lon.=26.547611, Alt.=83.469788m. Speed=0.036000m/h.</desc>
<speed>0.010000</speed>
</trkpt>
<trkpt lat="56.096973" lon="26.547611">
<ele>83.481506</ele>
<time>2010-08-29T14:28:47Z</time>
<desc>lat.=56.096973, lon.=26.547611, Alt.=83.481506m. Speed=0.036000m/h.</desc>
<speed>0.010000</speed>
</trkpt>
<trkpt lat="56.096973" lon="26.547611">
<ele>83.491272</ele>
<time>2010-08-29T14:28:48Z</time>
<desc>lat.=56.096973, lon.=26.547611, Alt.=83.491272m. Speed=0.108000m/h.</desc>
<speed>0.030000</speed>
</trkpt>
<trkpt lat="56.096973" lon="26.547611">
<ele>83.491272</ele>
<time>2010-08-29T14:28:49Z</time>
<desc>lat.=56.096973, lon.=26.547611, Alt.=83.491272m. Speed=0.072000m/h.</desc>
<speed>0.020000</speed>
</trkpt>
<trkpt lat="56.096973" lon="26.547611">
<ele>83.502991</ele>
<time>2010-08-29T14:28:50Z</time>
<desc>lat.=56.096973, lon.=26.547611, Alt.=83.502991m. Speed=0.000000m/h.</desc>
<speed>0.000000</speed>
</trkpt>
<trkpt lat="56.096973" lon="26.547611">
<ele>83.514709</ele>
<time>2010-08-29T14:28:51Z</time>
<desc>lat.=56.096973, lon.=26.547611, Alt.=83.514709m. Speed=0.000000m/h.</desc>
<speed>0.000000</speed>
</trkpt>
<trkpt lat="56.096973" lon="26.547611">
<ele>83.526428</ele>
<time>2010-08-29T14:28:52Z</time>
<desc>lat.=56.096973, lon.=26.547611, Alt.=83.526428m. Speed=0.000000m/h.</desc>
<speed>0.000000</speed>
</trkpt>
<trkpt lat="56.096973" lon="26.547611">
<ele>83.540100</ele>
<time>2010-08-29T14:28:53Z</time>
<desc>lat.=56.096973, lon.=26.547611, Alt.=83.540100m. Speed=0.000000m/h.</desc>
<speed>0.000000</speed>
</trkpt>
<trkpt lat="56.096973" lon="26.547611">
<ele>83.549866</ele>
<time>2010-08-29T14:28:54Z</time>
<desc>lat.=56.096973, lon.=26.547611, Alt.=83.549866m. Speed=0.000000m/h.</desc>
<speed>0.000000</speed>
</trkpt>
<trkpt lat="56.096973" lon="26.547611">
<ele>83.561584</ele>
<time>2010-08-29T14:28:55Z</time>
<desc>lat.=56.096973, lon.=26.547611, Alt.=83.561584m. Speed=0.000000m/h.</desc>
<speed>0.000000</speed>
</trkpt>
<trkpt lat="56.096973" lon="26.547611">
<ele>83.571350</ele>
<time>2010-08-29T14:28:56Z</time>
<desc>lat.=56.096973, lon.=26.547611, Alt.=83.571350m. Speed=0.000000m/h.</desc>
<speed>0.000000</speed>
</trkpt>
<trkpt lat="56.096973" lon="26.547611">
<ele>83.581116</ele>
<time>2010-08-29T14:28:57Z</time>
<desc>lat.=56.096973, lon.=26.547611, Alt.=83.581116m. Speed=0.000000m/h.</desc>
<speed>0.000000</speed>
</trkpt>
<trkpt lat="56.096973" lon="26.547611">
<ele>83.592834</ele>
<time>2010-08-29T14:28:58Z</time>
<desc>lat.=56.096973, lon.=26.547611, Alt.=83.592834m. Speed=0.000000m/h.</desc>
<speed>0.000000</speed>
</trkpt>
<trkpt lat="56.096973" lon="26.547611">
<ele>83.602600</ele>
<time>2010-08-29T14:28:59Z</time>
<desc>lat.=56.096973, lon.=26.547611, Alt.=83.602600m. Speed=0.000000m/h.</desc>
<speed>0.000000</speed>
</trkpt>
<trkpt lat="56.096973" lon="26.547611">
<ele>83.614319</ele>
<time>2010-08-29T14:29:00Z</time>
<desc>lat.=56.096973, lon.=26.547611, Alt.=83.614319m. Speed=0.000000m/h.</desc>
<speed>0.000000</speed>
</trkpt>
<trkpt lat="56.096973" lon="26.547611">
<ele>83.622131</ele>
<time>2010-08-29T14:29:01Z</time>
<desc>lat.=56.096973, lon.=26.547611, Alt.=83.622131m. Speed=0.000000m/h.</desc>
<speed>0.000000</speed>
</trkpt>
<trkpt lat="56.096973" lon="26.547611">
<ele>83.627991</ele>
<time>2010-08-29T14:29:02Z</time>
<desc>lat.=56.096973, lon.=26.547611, Alt.=83.627991m. Speed=0.036000m/h.</desc>
<speed>0.010000</speed>
</trkpt>
<trkpt lat="56.096973" lon="26.547611">
<ele>83.635803</ele>
<time>2010-08-29T14:29:03Z</time>
<desc>lat.=56.096973, lon.=26.547611, Alt.=83.635803m. Speed=0.000000m/h.</desc>
<speed>0.000000</speed>
</trkpt>
<trkpt lat="56.096973" lon="26.547611">
<ele>83.645569</ele>
<time>2010-08-29T14:29:04Z</time>
<desc>lat.=56.096973, lon.=26.547611, Alt.=83.645569m. Speed=0.000000m/h.</desc>
<speed>0.000000</speed>
</trkpt>
<trkpt lat="56.096973" lon="26.547611">
<ele>83.655334</ele>
<time>2010-08-29T14:29:05Z</time>
<desc>lat.=56.096973, lon.=26.547611, Alt.=83.655334m. Speed=0.000000m/h.</desc>
<speed>0.000000</speed>
</trkpt>
<trkpt lat="56.096973" lon="26.547613">
<ele>83.667053</ele>
<time>2010-08-29T14:29:06Z</time>
<desc>lat.=56.096973, lon.=26.547613, Alt.=83.667053m. Speed=0.000000m/h.</desc>
<speed>0.000000</speed>
</trkpt>
<trkpt lat="56.096973" lon="26.547613">
<ele>83.672913</ele>
<time>2010-08-29T14:29:07Z</time>
<desc>lat.=56.096973, lon.=26.547613, Alt.=83.672913m. Speed=0.000000m/h.</desc>
<speed>0.000000</speed>
</trkpt>
<trkpt lat="56.096973" lon="26.547613">
<ele>83.682678</ele>
<time>2010-08-29T14:29:08Z</time>
<desc>lat.=56.096973, lon.=26.547613, Alt.=83.682678m. Speed=0.000000m/h.</desc>
<speed>0.000000</speed>
</trkpt>
<trkpt lat="56.096973" lon="26.547613">
<ele>83.690491</ele>
<time>2010-08-29T14:29:09Z</time>
<desc>lat.=56.096973, lon.=26.547613, Alt.=83.690491m. Speed=0.000000m/h.</desc>
<speed>0.000000</speed>
</trkpt>
<trkpt lat="56.096973" lon="26.547613">
<ele>83.700256</ele>
<time>2010-08-29T14:29:10Z</time>
<desc>lat.=56.096973, lon.=26.547613, Alt.=83.700256m. Speed=0.000000m/h.</desc>
<speed>0.000000</speed>
</trkpt>
<trkpt lat="56.096973" lon="26.547613">
<ele>83.708069</ele>
<time>2010-08-29T14:29:11Z</time>
<desc>lat.=56.096973, lon.=26.547613, Alt.=83.708069m. Speed=0.000000m/h.</desc>
<speed>0.000000</speed>
</trkpt>
<trkpt lat="56.096973" lon="26.547613">
<ele>83.717834</ele>
<time>2010-08-29T14:29:12Z</time>
<desc>lat.=56.096973, lon.=26.547613, Alt.=83.717834m. Speed=0.000000m/h.</desc>
<speed>0.000000</speed>
</trkpt>
<trkpt lat="56.096973" lon="26.547613">
<ele>83.725647</ele>
<time>2010-08-29T14:29:13Z</time>
<desc>lat.=56.096973, lon.=26.547613, Alt.=83.725647m. Speed=0.000000m/h.</desc>
<speed>0.000000</speed>
</trkpt>
<trkpt lat="56.096973" lon="26.547613">
<ele>83.733459</ele>
<time>2010-08-29T14:29:14Z</time>
<desc>lat.=56.096973, lon.=26.547613, Alt.=83.733459m. Speed=0.036000m/h.</desc>
<speed>0.010000</speed>
</trkpt>
<trkpt lat="56.096973" lon="26.547613">
<ele>83.743225</ele>
<time>2010-08-29T14:29:15Z</time>
<desc>lat.=56.096973, lon.=26.547613, Alt.=83.743225m. Speed=0.000000m/h.</desc>
<speed>0.000000</speed>
</trkpt>
<trkpt lat="56.096973" lon="26.547613">
<ele>83.756897</ele>
<time>2010-08-29T14:29:16Z</time>
<desc>lat.=56.096973, lon.=26.547613, Alt.=83.756897m. Speed=0.000000m/h.</desc>
<speed>0.000000</speed>
</trkpt>
<trkpt lat="56.096973" lon="26.547613">
<ele>83.770569</ele>
<time>2010-08-29T14:29:17Z</time>
<desc>lat.=56.096973, lon.=26.547613, Alt.=83.770569m. Speed=0.000000m/h.</desc>
<speed>0.000000</speed>
</trkpt>
<trkpt lat="56.096973" lon="26.547613">
<ele>83.786194</ele>
<time>2010-08-29T14:29:18Z</time>
<desc>lat.=56.096973, lon.=26.547613, Alt.=83.786194m. Speed=0.000000m/h.</desc>
<speed>0.000000</speed>
</trkpt>
<trkpt lat="56.096973" lon="26.547613">
<ele>83.795959</ele>
<time>2010-08-29T14:29:19Z</time>
<desc>lat.=56.096973, lon.=26.547613, Alt.=83.795959m. Speed=0.000000m/h.</desc>
<speed>0.000000</speed>
</trkpt>
<trkpt lat="56.096973" lon="26.547613">
<ele>83.805725</ele>
<time>2010-08-29T14:29:20Z</time>
<desc>lat.=56.096973, lon.=26.547613, Alt.=83.805725m. Speed=0.000000m/h.</desc>
<speed>0.000000</speed>
</trkpt>
<trkpt lat="56.096973" lon="26.547613">
<ele>83.811584</ele>
<time>2010-08-29T14:29:21Z</time>
<desc>lat.=56.096973, lon.=26.547613, Alt.=83.811584m. Speed=0.000000m/h.</desc>
<speed>0.000000</speed>
</trkpt>
<trkpt lat="56.096973" lon="26.547613">
<ele>83.821350</ele>
<time>2010-08-29T14:29:22Z</time>
<desc>lat.=56.096973, lon.=26.547613, Alt.=83.821350m. Speed=0.000000m/h.</desc>
<speed>0.000000</speed>
</trkpt>
<trkpt lat="56.096973" lon="26.547613">
<ele>83.833069</ele>
<time>2010-08-29T14:29:23Z</time>
<desc>lat.=56.096973, lon.=26.547613, Alt.=83.833069m. Speed=0.000000m/h.</desc>
<speed>0.000000</speed>
</trkpt>
<trkpt lat="56.096973" lon="26.547613">
<ele>83.846741</ele>
<time>2010-08-29T14:29:24Z</time>
<desc>lat.=56.096973, lon.=26.547613, Alt.=83.846741m. Speed=0.000000m/h.</desc>
<speed>0.000000</speed>
</trkpt>
<trkpt lat="56.096973" lon="26.547613">
<ele>83.858459</ele>
<time>2010-08-29T14:29:25Z</time>
<desc>lat.=56.096973, lon.=26.547613, Alt.=83.858459m. Speed=0.000000m/h.</desc>
<speed>0.000000</speed>
</trkpt>
<trkpt lat="56.096973" lon="26.547613">
<ele>83.866272</ele>
<time>2010-08-29T14:29:26Z</time>
<desc>lat.=56.096973, lon.=26.547613, Alt.=83.866272m. Speed=0.000000m/h.</desc>
<speed>0.000000</speed>
</trkpt>
<trkpt lat="56.096973" lon="26.547613">
<ele>83.877991</ele>
<time>2010-08-29T14:29:27Z</time>
<desc>lat.=56.096973, lon.=26.547613, Alt.=83.877991m. Speed=0.000000m/h.</desc>
<speed>0.000000</speed>
</trkpt>
<trkpt lat="56.096973" lon="26.547613">
<ele>83.885803</ele>
<time>2010-08-29T14:29:28Z</time>
<desc>lat.=56.096973, lon.=26.547613, Alt.=83.885803m. Speed=0.000000m/h.</desc>
<speed>0.000000</speed>
</trkpt>
<trkpt lat="56.096973" lon="26.547613">
<ele>83.895569</ele>
<time>2010-08-29T14:29:29Z</time>
<desc>lat.=56.096973, lon.=26.547613, Alt.=83.895569m. Speed=0.000000m/h.</desc>
<speed>0.000000</speed>
</trkpt>
<trkpt lat="56.096973" lon="26.547613">
<ele>83.905334</ele>
<time>2010-08-29T14:29:30Z</time>
<desc>lat.=56.096973, lon.=26.547613, Alt.=83.905334m. Speed=0.000000m/h.</desc>
<speed>0.000000</speed>
</trkpt>
<trkpt lat="56.096973" lon="26.547615">
<ele>83.917053</ele>
<time>2010-08-29T14:29:31Z</time>
<desc>lat.=56.096973, lon.=26.547615, Alt.=83.917053m. Speed=0.000000m/h.</desc>
<speed>0.000000</speed>
</trkpt>
<trkpt lat="56.096973" lon="26.547615">
<ele>83.926819</ele>
<time>2010-08-29T14:29:32Z</time>
<desc>lat.=56.096973, lon.=26.547615, Alt.=83.926819m. Speed=0.000000m/h.</desc>
<speed>0.000000</speed>
</trkpt>
<trkpt lat="56.096973" lon="26.547615">
<ele>83.938538</ele>
<time>2010-08-29T14:29:33Z</time>
<desc>lat.=56.096973, lon.=26.547615, Alt.=83.938538m. Speed=0.000000m/h.</desc>
<speed>0.000000</speed>
</trkpt>
<trkpt lat="56.096973" lon="26.547615">
<ele>83.946350</ele>
<time>2010-08-29T14:29:34Z</time>
<desc>lat.=56.096973, lon.=26.547615, Alt.=83.946350m. Speed=0.000000m/h.</desc>
<speed>0.000000</speed>
</trkpt>
<trkpt lat="56.096973" lon="26.547615">
<ele>83.958069</ele>
<time>2010-08-29T14:29:35Z</time>
<desc>lat.=56.096973, lon.=26.547615, Alt.=83.958069m. Speed=0.000000m/h.</desc>
<speed>0.000000</speed>
</trkpt>
<trkpt lat="56.096973" lon="26.547615">
<ele>83.967834</ele>
<time>2010-08-29T14:29:36Z</time>
<desc>lat.=56.096973, lon.=26.547615, Alt.=83.967834m. Speed=0.000000m/h.</desc>
<speed>0.000000</speed>
</trkpt>
<trkpt lat="56.096973" lon="26.547615">
<ele>83.977600</ele>
<time>2010-08-29T14:29:37Z</time>
<desc>lat.=56.096973, lon.=26.547615, Alt.=83.977600m. Speed=0.036000m/h.</desc>
<speed>0.010000</speed>
</trkpt>
<trkpt lat="56.096973" lon="26.547615">
<ele>83.985413</ele>
<time>2010-08-29T14:29:38Z</time>
<desc>lat.=56.096973, lon.=26.547615, Alt.=83.985413m. Speed=0.036000m/h.</desc>
<speed>0.010000</speed>
</trkpt>
<trkpt lat="56.096973" lon="26.547615">
<ele>83.995178</ele>
<time>2010-08-29T14:29:39Z</time>
<desc>lat.=56.096973, lon.=26.547615, Alt.=83.995178m. Speed=0.000000m/h.</desc>
<speed>0.000000</speed>
</trkpt>
<trkpt lat="56.096973" lon="26.547615">
<ele>84.004944</ele>
<time>2010-08-29T14:29:40Z</time>
<desc>lat.=56.096973, lon.=26.547615, Alt.=84.004944m. Speed=0.000000m/h.</desc>
<speed>0.000000</speed>
</trkpt>
<trkpt lat="56.096973" lon="26.547615">
<ele>84.010803</ele>
<time>2010-08-29T14:29:41Z</time>
<desc>lat.=56.096973, lon.=26.547615, Alt.=84.010803m. Speed=0.000000m/h.</desc>
<speed>0.000000</speed>
</trkpt>
<trkpt lat="56.096973" lon="26.547615">
<ele>84.020569</ele>
<time>2010-08-29T14:29:42Z</time>
<desc>lat.=56.096973, lon.=26.547615, Alt.=84.020569m. Speed=0.000000m/h.</desc>
<speed>0.000000</speed>
</trkpt>
<trkpt lat="56.096973" lon="26.547615">
<ele>84.030334</ele>
<time>2010-08-29T14:29:43Z</time>
<desc>lat.=56.096973, lon.=26.547615, Alt.=84.030334m. Speed=0.000000m/h.</desc>
<speed>0.000000</speed>
</trkpt>
<trkpt lat="56.096973" lon="26.547615">
<ele>84.038147</ele>
<time>2010-08-29T14:29:44Z</time>
<desc>lat.=56.096973, lon.=26.547615, Alt.=84.038147m. Speed=0.000000m/h.</desc>
<speed>0.000000</speed>
</trkpt>
<trkpt lat="56.096973" lon="26.547615">
<ele>84.047913</ele>
<time>2010-08-29T14:29:45Z</time>
<desc>lat.=56.096973, lon.=26.547615, Alt.=84.047913m. Speed=0.000000m/h.</desc>
<speed>0.000000</speed>
</trkpt>
<trkpt lat="56.096973" lon="26.547615">
<ele>84.055725</ele>
<time>2010-08-29T14:29:46Z</time>
<desc>lat.=56.096973, lon.=26.547615, Alt.=84.055725m. Speed=0.000000m/h.</desc>
<speed>0.000000</speed>
</trkpt>
<trkpt lat="56.096973" lon="26.547615">
<ele>84.063538</ele>
<time>2010-08-29T14:29:47Z</time>
<desc>lat.=56.096973, lon.=26.547615, Alt.=84.063538m. Speed=0.000000m/h.</desc>
<speed>0.000000</speed>
</trkpt>
<trkpt lat="56.096973" lon="26.547615">
<ele>84.071350</ele>
<time>2010-08-29T14:29:48Z</time>
<desc>lat.=56.096973, lon.=26.547615, Alt.=84.071350m. Speed=0.000000m/h.</desc>
<speed>0.000000</speed>
</trkpt>
<trkpt lat="56.096973" lon="26.547615">
<ele>84.079163</ele>
<time>2010-08-29T14:29:49Z</time>
<desc>lat.=56.096973, lon.=26.547615, Alt.=84.079163m. Speed=0.000000m/h.</desc>
<speed>0.000000</speed>
</trkpt>
<trkpt lat="56.096973" lon="26.547615">
<ele>84.085022</ele>
<time>2010-08-29T14:29:50Z</time>
<desc>lat.=56.096973, lon.=26.547615, Alt.=84.085022m. Speed=0.000000m/h.</desc>
<speed>0.000000</speed>
</trkpt>
<trkpt lat="56.096973" lon="26.547615">
<ele>84.090881</ele>
<time>2010-08-29T14:29:51Z</time>
<desc>lat.=56.096973, lon.=26.547615, Alt.=84.090881m. Speed=0.000000m/h.</desc>
<speed>0.000000</speed>
</trkpt>
<trkpt lat="56.096973" lon="26.547615">
<ele>84.098694</ele>
<time>2010-08-29T14:29:52Z</time>
<desc>lat.=56.096973, lon.=26.547615, Alt.=84.098694m. Speed=0.000000m/h.</desc>
<speed>0.000000</speed>
</trkpt>
<trkpt lat="56.096973" lon="26.547615">
<ele>84.106506</ele>
<time>2010-08-29T14:29:53Z</time>
<desc>lat.=56.096973, lon.=26.547615, Alt.=84.106506m. Speed=0.000000m/h.</desc>
<speed>0.000000</speed>
</trkpt>
<trkpt lat="56.096973" lon="26.547615">
<ele>84.110413</ele>
<time>2010-08-29T14:29:54Z</time>
<desc>lat.=56.096973, lon.=26.547615, Alt.=84.110413m. Speed=0.000000m/h.</desc>
<speed>0.000000</speed>
</trkpt>
<trkpt lat="56.096973" lon="26.547615">
<ele>84.116272</ele>
<time>2010-08-29T14:29:55Z</time>
<desc>lat.=56.096973, lon.=26.547615, Alt.=84.116272m. Speed=0.000000m/h.</desc>
<speed>0.000000</speed>
</trkpt>
<trkpt lat="56.096973" lon="26.547617">
<ele>84.122131</ele>
<time>2010-08-29T14:29:56Z</time>
<desc>lat.=56.096973, lon.=26.547617, Alt.=84.122131m. Speed=0.000000m/h.</desc>
<speed>0.000000</speed>
</trkpt>
<trkpt lat="56.096973" lon="26.547617">
<ele>84.129944</ele>
<time>2010-08-29T14:29:57Z</time>
<desc>lat.=56.096973, lon.=26.547617, Alt.=84.129944m. Speed=0.000000m/h.</desc>
<speed>0.000000</speed>
</trkpt>
<trkpt lat="56.096973" lon="26.547617">
<ele>84.139709</ele>
<time>2010-08-29T14:29:58Z</time>
<desc>lat.=56.096973, lon.=26.547617, Alt.=84.139709m. Speed=0.000000m/h.</desc>
<speed>0.000000</speed>
</trkpt>
<trkpt lat="56.096973" lon="26.547617">
<ele>84.143616</ele>
<time>2010-08-29T14:29:59Z</time>
<desc>lat.=56.096973, lon.=26.547617, Alt.=84.143616m. Speed=0.000000m/h.</desc>
<speed>0.000000</speed>
</trkpt>
<trkpt lat="56.096973" lon="26.547617">
<ele>84.151428</ele>
<time>2010-08-29T14:30:00Z</time>
<desc>lat.=56.096973, lon.=26.547617, Alt.=84.151428m. Speed=0.036000m/h.</desc>
<speed>0.010000</speed>
</trkpt>
<trkpt lat="56.096973" lon="26.547617">
<ele>84.157288</ele>
<time>2010-08-29T14:30:01Z</time>
<desc>lat.=56.096973, lon.=26.547617, Alt.=84.157288m. Speed=0.036000m/h.</desc>
<speed>0.010000</speed>
</trkpt>
<trkpt lat="56.096973" lon="26.547617">
<ele>84.163147</ele>
<time>2010-08-29T14:30:02Z</time>
<desc>lat.=56.096973, lon.=26.547617, Alt.=84.163147m. Speed=0.000000m/h.</desc>
<speed>0.000000</speed>
</trkpt>
<trkpt lat="56.096973" lon="26.547617">
<ele>84.169006</ele>
<time>2010-08-29T14:30:03Z</time>
<desc>lat.=56.096973, lon.=26.547617, Alt.=84.169006m. Speed=0.000000m/h.</desc>
<speed>0.000000</speed>
</trkpt>
<trkpt lat="56.096973" lon="26.547617">
<ele>84.174866</ele>
<time>2010-08-29T14:30:04Z</time>
<desc>lat.=56.096973, lon.=26.547617, Alt.=84.174866m. Speed=0.000000m/h.</desc>
<speed>0.000000</speed>
</trkpt>
<trkpt lat="56.096973" lon="26.547617">
<ele>84.180725</ele>
<time>2010-08-29T14:30:05Z</time>
<desc>lat.=56.096973, lon.=26.547617, Alt.=84.180725m. Speed=0.000000m/h.</desc>
<speed>0.000000</speed>
</trkpt>
<trkpt lat="56.096973" lon="26.547617">
<ele>84.186584</ele>
<time>2010-08-29T14:30:06Z</time>
<desc>lat.=56.096973, lon.=26.547617, Alt.=84.186584m. Speed=0.036000m/h.</desc>
<speed>0.010000</speed>
</trkpt>
<trkpt lat="56.096973" lon="26.547617">
<ele>84.192444</ele>
<time>2010-08-29T14:30:07Z</time>
<desc>lat.=56.096973, lon.=26.547617, Alt.=84.192444m. Speed=0.000000m/h.</desc>
<speed>0.000000</speed>
</trkpt>
<trkpt lat="56.096973" lon="26.547617">
<ele>84.198303</ele>
<time>2010-08-29T14:30:08Z</time>
<desc>lat.=56.096973, lon.=26.547617, Alt.=84.198303m. Speed=0.000000m/h.</desc>
<speed>0.000000</speed>
</trkpt>
<trkpt lat="56.096973" lon="26.547617">
<ele>84.204163</ele>
<time>2010-08-29T14:30:09Z</time>
<desc>lat.=56.096973, lon.=26.547617, Alt.=84.204163m. Speed=0.000000m/h.</desc>
<speed>0.000000</speed>
</trkpt>
<trkpt lat="56.096973" lon="26.547617">
<ele>84.210022</ele>
<time>2010-08-29T14:30:10Z</time>
<desc>lat.=56.096973, lon.=26.547617, Alt.=84.210022m. Speed=0.000000m/h.</desc>
<speed>0.000000</speed>
</trkpt>
<trkpt lat="56.096973" lon="26.547617">
<ele>84.215881</ele>
<time>2010-08-29T14:30:11Z</time>
<desc>lat.=56.096973, lon.=26.547617, Alt.=84.215881m. Speed=0.000000m/h.</desc>
<speed>0.000000</speed>
</trkpt>
<trkpt lat="56.096973" lon="26.547617">
<ele>84.221741</ele>
<time>2010-08-29T14:30:12Z</time>
<desc>lat.=56.096973, lon.=26.547617, Alt.=84.221741m. Speed=0.000000m/h.</desc>
<speed>0.000000</speed>
</trkpt>
<trkpt lat="56.096973" lon="26.547617">
<ele>84.227600</ele>
<time>2010-08-29T14:30:13Z</time>
<desc>lat.=56.096973, lon.=26.547617, Alt.=84.227600m. Speed=0.000000m/h.</desc>
<speed>0.000000</speed>
</trkpt>
<trkpt lat="56.096973" lon="26.547617">
<ele>84.235413</ele>
<time>2010-08-29T14:30:14Z</time>
<desc>lat.=56.096973, lon.=26.547617, Alt.=84.235413m. Speed=0.000000m/h.</desc>
<speed>0.000000</speed>
</trkpt>
<trkpt lat="56.096973" lon="26.547617">
<ele>84.241272</ele>
<time>2010-08-29T14:30:15Z</time>
<desc>lat.=56.096973, lon.=26.547617, Alt.=84.241272m. Speed=0.000000m/h.</desc>
<speed>0.000000</speed>
</trkpt>
<trkpt lat="56.096973" lon="26.547617">
<ele>84.247131</ele>
<time>2010-08-29T14:30:16Z</time>
<desc>lat.=56.096973, lon.=26.547617, Alt.=84.247131m. Speed=0.000000m/h.</desc>
<speed>0.000000</speed>
</trkpt>
<trkpt lat="56.096973" lon="26.547617">
<ele>84.254944</ele>
<time>2010-08-29T14:30:17Z</time>
<desc>lat.=56.096973, lon.=26.547617, Alt.=84.254944m. Speed=0.000000m/h.</desc>
<speed>0.000000</speed>
</trkpt>
<trkpt lat="56.096973" lon="26.547617">
<ele>84.260803</ele>
<time>2010-08-29T14:30:18Z</time>
<desc>lat.=56.096973, lon.=26.547617, Alt.=84.260803m. Speed=0.000000m/h.</desc>
<speed>0.000000</speed>
</trkpt>
<trkpt lat="56.096973" lon="26.547617">
<ele>84.268616</ele>
<time>2010-08-29T14:30:19Z</time>
<desc>lat.=56.096973, lon.=26.547617, Alt.=84.268616m. Speed=0.000000m/h.</desc>
<speed>0.000000</speed>
</trkpt>
<trkpt lat="56.096973" lon="26.547617">
<ele>84.276428</ele>
<time>2010-08-29T14:30:20Z</time>
<desc>lat.=56.096973, lon.=26.547617, Alt.=84.276428m. Speed=0.000000m/h.</desc>
<speed>0.000000</speed>
</trkpt>
<trkpt lat="56.096973" lon="26.547617">
<ele>84.282288</ele>
<time>2010-08-29T14:30:21Z</time>
<desc>lat.=56.096973, lon.=26.547617, Alt.=84.282288m. Speed=0.000000m/h.</desc>
<speed>0.000000</speed>
</trkpt>
<trkpt lat="56.096973" lon="26.547617">
<ele>84.288147</ele>
<time>2010-08-29T14:30:22Z</time>
<desc>lat.=56.096973, lon.=26.547617, Alt.=84.288147m. Speed=0.000000m/h.</desc>
<speed>0.000000</speed>
</trkpt>
<trkpt lat="56.096973" lon="26.547617">
<ele>84.297913</ele>
<time>2010-08-29T14:30:23Z</time>
<desc>lat.=56.096973, lon.=26.547617, Alt.=84.297913m. Speed=0.000000m/h.</desc>
<speed>0.000000</speed>
</trkpt>
<trkpt lat="56.096973" lon="26.547617">
<ele>84.305725</ele>
<time>2010-08-29T14:30:24Z</time>
<desc>lat.=56.096973, lon.=26.547617, Alt.=84.305725m. Speed=0.000000m/h.</desc>
<speed>0.000000</speed>
</trkpt>
<trkpt lat="56.096973" lon="26.547617">
<ele>84.313538</ele>
<time>2010-08-29T14:30:25Z</time>
<desc>lat.=56.096973, lon.=26.547617, Alt.=84.313538m. Speed=0.000000m/h.</desc>
<speed>0.000000</speed>
</trkpt>
<trkpt lat="56.096973" lon="26.547617">
<ele>84.321350</ele>
<time>2010-08-29T14:30:26Z</time>
<desc>lat.=56.096973, lon.=26.547617, Alt.=84.321350m. Speed=0.000000m/h.</desc>
<speed>0.000000</speed>
</trkpt>
<trkpt lat="56.096973" lon="26.547619">
<ele>84.327209</ele>
<time>2010-08-29T14:30:27Z</time>
<desc>lat.=56.096973, lon.=26.547619, Alt.=84.327209m. Speed=0.000000m/h.</desc>
<speed>0.000000</speed>
</trkpt>
<trkpt lat="56.096973" lon="26.547619">
<ele>84.335022</ele>
<time>2010-08-29T14:30:28Z</time>
<desc>lat.=56.096973, lon.=26.547619, Alt.=84.335022m. Speed=0.000000m/h.</desc>
<speed>0.000000</speed>
</trkpt>
<trkpt lat="56.096973" lon="26.547619">
<ele>84.340881</ele>
<time>2010-08-29T14:30:29Z</time>
<desc>lat.=56.096973, lon.=26.547619, Alt.=84.340881m. Speed=0.000000m/h.</desc>
<speed>0.000000</speed>
</trkpt>
<trkpt lat="56.096973" lon="26.547619">
<ele>84.350647</ele>
<time>2010-08-29T14:30:30Z</time>
<desc>lat.=56.096973, lon.=26.547619, Alt.=84.350647m. Speed=0.000000m/h.</desc>
<speed>0.000000</speed>
</trkpt>
<trkpt lat="56.096973" lon="26.547619">
<ele>84.356506</ele>
<time>2010-08-29T14:30:31Z</time>
<desc>lat.=56.096973, lon.=26.547619, Alt.=84.356506m. Speed=0.000000m/h.</desc>
<speed>0.000000</speed>
</trkpt>
<trkpt lat="56.096973" lon="26.547619">
<ele>84.364319</ele>
<time>2010-08-29T14:30:32Z</time>
<desc>lat.=56.096973, lon.=26.547619, Alt.=84.364319m. Speed=0.000000m/h.</desc>
<speed>0.000000</speed>
</trkpt>
<trkpt lat="56.096973" lon="26.547619">
<ele>84.372131</ele>
<time>2010-08-29T14:30:33Z</time>
<desc>lat.=56.096973, lon.=26.547619, Alt.=84.372131m. Speed=0.000000m/h.</desc>
<speed>0.000000</speed>
</trkpt>
<trkpt lat="56.096973" lon="26.547619">
<ele>84.377991</ele>
<time>2010-08-29T14:30:34Z</time>
<desc>lat.=56.096973, lon.=26.547619, Alt.=84.377991m. Speed=0.000000m/h.</desc>
<speed>0.000000</speed>
</trkpt>
<trkpt lat="56.096973" lon="26.547619">
<ele>84.385803</ele>
<time>2010-08-29T14:30:35Z</time>
<desc>lat.=56.096973, lon.=26.547619, Alt.=84.385803m. Speed=0.000000m/h.</desc>
<speed>0.000000</speed>
</trkpt>
<trkpt lat="56.096973" lon="26.547619">
<ele>84.393616</ele>
<time>2010-08-29T14:30:36Z</time>
<desc>lat.=56.096973, lon.=26.547619, Alt.=84.393616m. Speed=0.000000m/h.</desc>
<speed>0.000000</speed>
</trkpt>
<trkpt lat="56.096973" lon="26.547619">
<ele>84.401428</ele>
<time>2010-08-29T14:30:37Z</time>
<desc>lat.=56.096973, lon.=26.547619, Alt.=84.401428m. Speed=0.000000m/h.</desc>
<speed>0.000000</speed>
</trkpt>
<trkpt lat="56.096973" lon="26.547619">
<ele>84.409241</ele>
<time>2010-08-29T14:30:38Z</time>
<desc>lat.=56.096973, lon.=26.547619, Alt.=84.409241m. Speed=0.000000m/h.</desc>
<speed>0.000000</speed>
</trkpt>
<trkpt lat="56.096973" lon="26.547619">
<ele>84.417053</ele>
<time>2010-08-29T14:30:39Z</time>
<desc>lat.=56.096973, lon.=26.547619, Alt.=84.417053m. Speed=0.000000m/h.</desc>
<speed>0.000000</speed>
</trkpt>
<trkpt lat="56.096973" lon="26.547619">
<ele>84.424866</ele>
<time>2010-08-29T14:30:40Z</time>
<desc>lat.=56.096973, lon.=26.547619, Alt.=84.424866m. Speed=0.036000m/h.</desc>
<speed>0.010000</speed>
</trkpt>
<trkpt lat="56.096973" lon="26.547619">
<ele>84.432678</ele>
<time>2010-08-29T14:30:41Z</time>
<desc>lat.=56.096973, lon.=26.547619, Alt.=84.432678m. Speed=0.000000m/h.</desc>
<speed>0.000000</speed>
</trkpt>
<trkpt lat="56.096973" lon="26.547619">
<ele>84.440491</ele>
<time>2010-08-29T14:30:42Z</time>
<desc>lat.=56.096973, lon.=26.547619, Alt.=84.440491m. Speed=0.000000m/h.</desc>
<speed>0.000000</speed>
</trkpt>
<trkpt lat="56.096973" lon="26.547619">
<ele>84.448303</ele>
<time>2010-08-29T14:30:43Z</time>
<desc>lat.=56.096973, lon.=26.547619, Alt.=84.448303m. Speed=0.000000m/h.</desc>
<speed>0.000000</speed>
</trkpt>
<trkpt lat="56.096973" lon="26.547619">
<ele>84.454163</ele>
<time>2010-08-29T14:30:44Z</time>
<desc>lat.=56.096973, lon.=26.547619, Alt.=84.454163m. Speed=0.000000m/h.</desc>
<speed>0.000000</speed>
</trkpt>
<trkpt lat="56.096973" lon="26.547619">
<ele>84.460022</ele>
<time>2010-08-29T14:30:45Z</time>
<desc>lat.=56.096973, lon.=26.547619, Alt.=84.460022m. Speed=0.036000m/h.</desc>
<speed>0.010000</speed>
</trkpt>
<trkpt lat="56.096973" lon="26.547619">
<ele>84.465881</ele>
<time>2010-08-29T14:30:46Z</time>
<desc>lat.=56.096973, lon.=26.547619, Alt.=84.465881m. Speed=0.000000m/h.</desc>
<speed>0.000000</speed>
</trkpt>
<trkpt lat="56.096973" lon="26.547619">
<ele>84.473694</ele>
<time>2010-08-29T14:30:47Z</time>
<desc>lat.=56.096973, lon.=26.547619, Alt.=84.473694m. Speed=0.000000m/h.</desc>
<speed>0.000000</speed>
</trkpt>
<trkpt lat="56.096973" lon="26.547619">
<ele>84.479553</ele>
<time>2010-08-29T14:30:48Z</time>
<desc>lat.=56.096973, lon.=26.547619, Alt.=84.479553m. Speed=0.000000m/h.</desc>
<speed>0.000000</speed>
</trkpt>
<trkpt lat="56.096973" lon="26.547619">
<ele>84.485413</ele>
<time>2010-08-29T14:30:49Z</time>
<desc>lat.=56.096973, lon.=26.547619, Alt.=84.485413m. Speed=0.000000m/h.</desc>
<speed>0.000000</speed>
</trkpt>
<trkpt lat="56.096973" lon="26.547619">
<ele>84.493225</ele>
<time>2010-08-29T14:30:50Z</time>
<desc>lat.=56.096973, lon.=26.547619, Alt.=84.493225m. Speed=0.000000m/h.</desc>
<speed>0.000000</speed>
</trkpt>
<trkpt lat="56.096973" lon="26.547619">
<ele>84.499084</ele>
<time>2010-08-29T14:30:51Z</time>
<desc>lat.=56.096973, lon.=26.547619, Alt.=84.499084m. Speed=0.000000m/h.</desc>
<speed>0.000000</speed>
</trkpt>
<trkpt lat="56.096973" lon="26.547619">
<ele>84.504944</ele>
<time>2010-08-29T14:30:52Z</time>
<desc>lat.=56.096973, lon.=26.547619, Alt.=84.504944m. Speed=0.000000m/h.</desc>
<speed>0.000000</speed>
</trkpt>
<trkpt lat="56.096973" lon="26.547619">
<ele>84.510803</ele>
<time>2010-08-29T14:30:53Z</time>
<desc>lat.=56.096973, lon.=26.547619, Alt.=84.510803m. Speed=0.000000m/h.</desc>
<speed>0.000000</speed>
</trkpt>
<trkpt lat="56.096973" lon="26.547619">
<ele>84.516663</ele>
<time>2010-08-29T14:30:54Z</time>
<desc>lat.=56.096973, lon.=26.547619, Alt.=84.516663m. Speed=0.000000m/h.</desc>
<speed>0.000000</speed>
</trkpt>
<trkpt lat="56.096973" lon="26.547619">
<ele>84.522522</ele>
<time>2010-08-29T14:30:55Z</time>
<desc>lat.=56.096973, lon.=26.547619, Alt.=84.522522m. Speed=0.000000m/h.</desc>
<speed>0.000000</speed>
</trkpt>
<trkpt lat="56.096973" lon="26.547619">
<ele>84.528381</ele>
<time>2010-08-29T14:30:56Z</time>
<desc>lat.=56.096973, lon.=26.547619, Alt.=84.528381m. Speed=0.000000m/h.</desc>
<speed>0.000000</speed>
</trkpt>
<trkpt lat="56.096973" lon="26.547619">
<ele>84.534241</ele>
<time>2010-08-29T14:30:57Z</time>
<desc>lat.=56.096973, lon.=26.547619, Alt.=84.534241m. Speed=0.000000m/h.</desc>
<speed>0.000000</speed>
</trkpt>
<trkpt lat="56.096973" lon="26.547619">
<ele>84.542053</ele>
<time>2010-08-29T14:30:58Z</time>
<desc>lat.=56.096973, lon.=26.547619, Alt.=84.542053m. Speed=0.000000m/h.</desc>
<speed>0.000000</speed>
</trkpt>
<trkpt lat="56.096973" lon="26.547619">
<ele>84.547913</ele>
<time>2010-08-29T14:30:59Z</time>
<desc>lat.=56.096973, lon.=26.547619, Alt.=84.547913m. Speed=0.000000m/h.</desc>
<speed>0.000000</speed>
</trkpt>
<trkpt lat="56.096973" lon="26.547621">
<ele>84.555725</ele>
<time>2010-08-29T14:31:00Z</time>
<desc>lat.=56.096973, lon.=26.547621, Alt.=84.555725m. Speed=0.000000m/h.</desc>
<speed>0.000000</speed>
</trkpt>
<trkpt lat="56.096973" lon="26.547621">
<ele>84.561584</ele>
<time>2010-08-29T14:31:01Z</time>
<desc>lat.=56.096973, lon.=26.547621, Alt.=84.561584m. Speed=0.000000m/h.</desc>
<speed>0.000000</speed>
</trkpt>
<trkpt lat="56.096973" lon="26.547621">
<ele>84.567444</ele>
<time>2010-08-29T14:31:02Z</time>
<desc>lat.=56.096973, lon.=26.547621, Alt.=84.567444m. Speed=0.000000m/h.</desc>
<speed>0.000000</speed>
</trkpt>
<trkpt lat="56.096973" lon="26.547621">
<ele>84.573303</ele>
<time>2010-08-29T14:31:03Z</time>
<desc>lat.=56.096973, lon.=26.547621, Alt.=84.573303m. Speed=0.000000m/h.</desc>
<speed>0.000000</speed>
</trkpt>
<trkpt lat="56.096973" lon="26.547621">
<ele>84.579163</ele>
<time>2010-08-29T14:31:04Z</time>
<desc>lat.=56.096973, lon.=26.547621, Alt.=84.579163m. Speed=0.000000m/h.</desc>
<speed>0.000000</speed>
</trkpt>
<trkpt lat="56.096973" lon="26.547621">
<ele>84.586975</ele>
<time>2010-08-29T14:31:05Z</time>
<desc>lat.=56.096973, lon.=26.547621, Alt.=84.586975m. Speed=0.000000m/h.</desc>
<speed>0.000000</speed>
</trkpt>
<trkpt lat="56.096973" lon="26.547621">
<ele>84.592834</ele>
<time>2010-08-29T14:31:06Z</time>
<desc>lat.=56.096973, lon.=26.547621, Alt.=84.592834m. Speed=0.000000m/h.</desc>
<speed>0.000000</speed>
</trkpt>
<trkpt lat="56.096973" lon="26.547621">
<ele>84.600647</ele>
<time>2010-08-29T14:31:07Z</time>
<desc>lat.=56.096973, lon.=26.547621, Alt.=84.600647m. Speed=0.000000m/h.</desc>
<speed>0.000000</speed>
</trkpt>
<trkpt lat="56.096973" lon="26.547621">
<ele>84.606506</ele>
<time>2010-08-29T14:31:08Z</time>
<desc>lat.=56.096973, lon.=26.547621, Alt.=84.606506m. Speed=0.000000m/h.</desc>
<speed>0.000000</speed>
</trkpt>
<trkpt lat="56.096973" lon="26.547621">
<ele>84.614319</ele>
<time>2010-08-29T14:31:09Z</time>
<desc>lat.=56.096973, lon.=26.547621, Alt.=84.614319m. Speed=0.000000m/h.</desc>
<speed>0.000000</speed>
</trkpt>
<trkpt lat="56.096973" lon="26.547621">
<ele>84.618225</ele>
<time>2010-08-29T14:31:10Z</time>
<desc>lat.=56.096973, lon.=26.547621, Alt.=84.618225m. Speed=0.000000m/h.</desc>
<speed>0.000000</speed>
</trkpt>
<trkpt lat="56.096973" lon="26.547621">
<ele>84.624084</ele>
<time>2010-08-29T14:31:11Z</time>
<desc>lat.=56.096973, lon.=26.547621, Alt.=84.624084m. Speed=0.000000m/h.</desc>
<speed>0.000000</speed>
</trkpt>
<trkpt lat="56.096973" lon="26.547621">
<ele>84.629944</ele>
<time>2010-08-29T14:31:12Z</time>
<desc>lat.=56.096973, lon.=26.547621, Alt.=84.629944m. Speed=0.000000m/h.</desc>
<speed>0.000000</speed>
</trkpt>
<trkpt lat="56.096973" lon="26.547621">
<ele>84.637756</ele>
<time>2010-08-29T14:31:13Z</time>
<desc>lat.=56.096973, lon.=26.547621, Alt.=84.637756m. Speed=0.000000m/h.</desc>
<speed>0.000000</speed>
</trkpt>
<trkpt lat="56.096973" lon="26.547621">
<ele>84.643616</ele>
<time>2010-08-29T14:31:14Z</time>
<desc>lat.=56.096973, lon.=26.547621, Alt.=84.643616m. Speed=0.000000m/h.</desc>
<speed>0.000000</speed>
</trkpt>
<trkpt lat="56.096973" lon="26.547621">
<ele>84.651428</ele>
<time>2010-08-29T14:31:15Z</time>
<desc>lat.=56.096973, lon.=26.547621, Alt.=84.651428m. Speed=0.000000m/h.</desc>
<speed>0.000000</speed>
</trkpt>
<trkpt lat="56.096973" lon="26.547621">
<ele>84.657288</ele>
<time>2010-08-29T14:31:16Z</time>
<desc>lat.=56.096973, lon.=26.547621, Alt.=84.657288m. Speed=0.000000m/h.</desc>
<speed>0.000000</speed>
</trkpt>
<trkpt lat="56.096973" lon="26.547621">
<ele>84.663147</ele>
<time>2010-08-29T14:31:17Z</time>
<desc>lat.=56.096973, lon.=26.547621, Alt.=84.663147m. Speed=0.000000m/h.</desc>
<speed>0.000000</speed>
</trkpt>
<trkpt lat="56.096973" lon="26.547621">
<ele>84.669006</ele>
<time>2010-08-29T14:31:18Z</time>
<desc>lat.=56.096973, lon.=26.547621, Alt.=84.669006m. Speed=0.000000m/h.</desc>
<speed>0.000000</speed>
</trkpt>
<trkpt lat="56.096973" lon="26.547621">
<ele>84.676819</ele>
<time>2010-08-29T14:31:19Z</time>
<desc>lat.=56.096973, lon.=26.547621, Alt.=84.676819m. Speed=0.000000m/h.</desc>
<speed>0.000000</speed>
</trkpt>
<trkpt lat="56.096973" lon="26.547621">
<ele>84.682678</ele>
<time>2010-08-29T14:31:20Z</time>
<desc>lat.=56.096973, lon.=26.547621, Alt.=84.682678m. Speed=0.000000m/h.</desc>
<speed>0.000000</speed>
</trkpt>
<trkpt lat="56.096973" lon="26.547621">
<ele>84.688538</ele>
<time>2010-08-29T14:31:21Z</time>
<desc>lat.=56.096973, lon.=26.547621, Alt.=84.688538m. Speed=0.000000m/h.</desc>
<speed>0.000000</speed>
</trkpt>
<trkpt lat="56.096973" lon="26.547621">
<ele>84.694397</ele>
<time>2010-08-29T14:31:22Z</time>
<desc>lat.=56.096973, lon.=26.547621, Alt.=84.694397m. Speed=0.000000m/h.</desc>
<speed>0.000000</speed>
</trkpt>
<trkpt lat="56.096973" lon="26.547621">
<ele>84.700256</ele>
<time>2010-08-29T14:31:23Z</time>
<desc>lat.=56.096973, lon.=26.547621, Alt.=84.700256m. Speed=0.036000m/h.</desc>
<speed>0.010000</speed>
</trkpt>
<trkpt lat="56.096973" lon="26.547621">
<ele>84.704163</ele>
<time>2010-08-29T14:31:24Z</time>
<desc>lat.=56.096973, lon.=26.547621, Alt.=84.704163m. Speed=0.000000m/h.</desc>
<speed>0.000000</speed>
</trkpt>
<trkpt lat="56.096973" lon="26.547621">
<ele>84.710022</ele>
<time>2010-08-29T14:31:25Z</time>
<desc>lat.=56.096973, lon.=26.547621, Alt.=84.710022m. Speed=0.000000m/h.</desc>
<speed>0.000000</speed>
</trkpt>
<trkpt lat="56.096973" lon="26.547621">
<ele>84.715881</ele>
<time>2010-08-29T14:31:26Z</time>
<desc>lat.=56.096973, lon.=26.547621, Alt.=84.715881m. Speed=0.000000m/h.</desc>
<speed>0.000000</speed>
</trkpt>
<trkpt lat="56.096973" lon="26.547621">
<ele>84.721741</ele>
<time>2010-08-29T14:31:27Z</time>
<desc>lat.=56.096973, lon.=26.547621, Alt.=84.721741m. Speed=0.000000m/h.</desc>
<speed>0.000000</speed>
</trkpt>
<trkpt lat="56.096973" lon="26.547621">
<ele>84.725647</ele>
<time>2010-08-29T14:31:28Z</time>
<desc>lat.=56.096973, lon.=26.547621, Alt.=84.725647m. Speed=0.000000m/h.</desc>
<speed>0.000000</speed>
</trkpt>
<trkpt lat="56.096973" lon="26.547621">
<ele>84.731506</ele>
<time>2010-08-29T14:31:29Z</time>
<desc>lat.=56.096973, lon.=26.547621, Alt.=84.731506m. Speed=0.000000m/h.</desc>
<speed>0.000000</speed>
</trkpt>
<trkpt lat="56.096973" lon="26.547621">
<ele>84.737366</ele>
<time>2010-08-29T14:31:30Z</time>
<desc>lat.=56.096973, lon.=26.547621, Alt.=84.737366m. Speed=0.000000m/h.</desc>
<speed>0.000000</speed>
</trkpt>
<trkpt lat="56.096973" lon="26.547623">
<ele>84.743225</ele>
<time>2010-08-29T14:31:31Z</time>
<desc>lat.=56.096973, lon.=26.547623, Alt.=84.743225m. Speed=0.000000m/h.</desc>
<speed>0.000000</speed>
</trkpt>
<trkpt lat="56.096973" lon="26.547623">
<ele>84.749084</ele>
<time>2010-08-29T14:31:32Z</time>
<desc>lat.=56.096973, lon.=26.547623, Alt.=84.749084m. Speed=0.000000m/h.</desc>
<speed>0.000000</speed>
</trkpt>
<trkpt lat="56.096973" lon="26.547623">
<ele>84.754944</ele>
<time>2010-08-29T14:31:33Z</time>
<desc>lat.=56.096973, lon.=26.547623, Alt.=84.754944m. Speed=0.000000m/h.</desc>
<speed>0.000000</speed>
</trkpt>
<trkpt lat="56.096973" lon="26.547623">
<ele>84.758850</ele>
<time>2010-08-29T14:31:34Z</time>
<desc>lat.=56.096973, lon.=26.547623, Alt.=84.758850m. Speed=0.000000m/h.</desc>
<speed>0.000000</speed>
</trkpt>
<trkpt lat="56.096973" lon="26.547623">
<ele>84.764709</ele>
<time>2010-08-29T14:31:35Z</time>
<desc>lat.=56.096973, lon.=26.547623, Alt.=84.764709m. Speed=0.000000m/h.</desc>
<speed>0.000000</speed>
</trkpt>
<trkpt lat="56.096973" lon="26.547623">
<ele>84.772522</ele>
<time>2010-08-29T14:31:36Z</time>
<desc>lat.=56.096973, lon.=26.547623, Alt.=84.772522m. Speed=0.000000m/h.</desc>
<speed>0.000000</speed>
</trkpt>
<trkpt lat="56.096973" lon="26.547623">
<ele>84.778381</ele>
<time>2010-08-29T14:31:37Z</time>
<desc>lat.=56.096973, lon.=26.547623, Alt.=84.778381m. Speed=0.000000m/h.</desc>
<speed>0.000000</speed>
</trkpt>
<trkpt lat="56.096973" lon="26.547623">
<ele>84.784241</ele>
<time>2010-08-29T14:31:38Z</time>
<desc>lat.=56.096973, lon.=26.547623, Alt.=84.784241m. Speed=0.000000m/h.</desc>
<speed>0.000000</speed>
</trkpt>
<trkpt lat="56.096973" lon="26.547623">
<ele>84.790100</ele>
<time>2010-08-29T14:31:39Z</time>
<desc>lat.=56.096973, lon.=26.547623, Alt.=84.790100m. Speed=0.000000m/h.</desc>
<speed>0.000000</speed>
</trkpt>
<trkpt lat="56.096973" lon="26.547623">
<ele>84.795959</ele>
<time>2010-08-29T14:31:40Z</time>
<desc>lat.=56.096973, lon.=26.547623, Alt.=84.795959m. Speed=0.000000m/h.</desc>
<speed>0.000000</speed>
</trkpt>
<trkpt lat="56.096973" lon="26.547623">
<ele>84.801819</ele>
<time>2010-08-29T14:31:41Z</time>
<desc>lat.=56.096973, lon.=26.547623, Alt.=84.801819m. Speed=0.000000m/h.</desc>
<speed>0.000000</speed>
</trkpt>
<trkpt lat="56.096973" lon="26.547623">
<ele>84.809631</ele>
<time>2010-08-29T14:31:42Z</time>
<desc>lat.=56.096973, lon.=26.547623, Alt.=84.809631m. Speed=0.000000m/h.</desc>
<speed>0.000000</speed>
</trkpt>
<trkpt lat="56.096973" lon="26.547623">
<ele>84.813538</ele>
<time>2010-08-29T14:31:43Z</time>
<desc>lat.=56.096973, lon.=26.547623, Alt.=84.813538m. Speed=0.000000m/h.</desc>
<speed>0.000000</speed>
</trkpt>
<trkpt lat="56.096973" lon="26.547623">
<ele>84.819397</ele>
<time>2010-08-29T14:31:44Z</time>
<desc>lat.=56.096973, lon.=26.547623, Alt.=84.819397m. Speed=0.036000m/h.</desc>
<speed>0.010000</speed>
</trkpt>
<trkpt lat="56.096973" lon="26.547623">
<ele>84.825256</ele>
<time>2010-08-29T14:31:45Z</time>
<desc>lat.=56.096973, lon.=26.547623, Alt.=84.825256m. Speed=0.000000m/h.</desc>
<speed>0.000000</speed>
</trkpt>
<trkpt lat="56.096973" lon="26.547623">
<ele>84.831116</ele>
<time>2010-08-29T14:31:46Z</time>
<desc>lat.=56.096973, lon.=26.547623, Alt.=84.831116m. Speed=0.036000m/h.</desc>
<speed>0.010000</speed>
</trkpt>
<trkpt lat="56.096973" lon="26.547623">
<ele>84.835022</ele>
<time>2010-08-29T14:31:47Z</time>
<desc>lat.=56.096973, lon.=26.547623, Alt.=84.835022m. Speed=0.036000m/h.</desc>
<speed>0.010000</speed>
</trkpt>
<trkpt lat="56.096973" lon="26.547623">
<ele>84.838928</ele>
<time>2010-08-29T14:31:48Z</time>
<desc>lat.=56.096973, lon.=26.547623, Alt.=84.838928m. Speed=0.072000m/h.</desc>
<speed>0.020000</speed>
</trkpt>
<trkpt lat="56.096973" lon="26.547623">
<ele>84.844788</ele>
<time>2010-08-29T14:31:49Z</time>
<desc>lat.=56.096973, lon.=26.547623, Alt.=84.844788m. Speed=0.036000m/h.</desc>
<speed>0.010000</speed>
</trkpt>
<trkpt lat="56.096973" lon="26.547623">
<ele>84.848694</ele>
<time>2010-08-29T14:31:50Z</time>
<desc>lat.=56.096973, lon.=26.547623, Alt.=84.848694m. Speed=0.000000m/h.</desc>
<speed>0.000000</speed>
</trkpt>
<trkpt lat="56.096973" lon="26.547623">
<ele>84.854553</ele>
<time>2010-08-29T14:31:51Z</time>
<desc>lat.=56.096973, lon.=26.547623, Alt.=84.854553m. Speed=0.000000m/h.</desc>
<speed>0.000000</speed>
</trkpt>
<trkpt lat="56.096973" lon="26.547623">
<ele>84.858459</ele>
<time>2010-08-29T14:31:52Z</time>
<desc>lat.=56.096973, lon.=26.547623, Alt.=84.858459m. Speed=0.000000m/h.</desc>
<speed>0.000000</speed>
</trkpt>
<trkpt lat="56.096973" lon="26.547623">
<ele>84.862366</ele>
<time>2010-08-29T14:31:53Z</time>
<desc>lat.=56.096973, lon.=26.547623, Alt.=84.862366m. Speed=0.000000m/h.</desc>
<speed>0.000000</speed>
</trkpt>
<trkpt lat="56.096973" lon="26.547623">
<ele>84.866272</ele>
<time>2010-08-29T14:31:54Z</time>
<desc>lat.=56.096973, lon.=26.547623, Alt.=84.866272m. Speed=0.000000m/h.</desc>
<speed>0.000000</speed>
</trkpt>
<trkpt lat="56.096973" lon="26.547623">
<ele>84.872131</ele>
<time>2010-08-29T14:31:55Z</time>
<desc>lat.=56.096973, lon.=26.547623, Alt.=84.872131m. Speed=0.000000m/h.</desc>
<speed>0.000000</speed>
</trkpt>
<trkpt lat="56.096973" lon="26.547623">
<ele>84.874084</ele>
<time>2010-08-29T14:31:56Z</time>
<desc>lat.=56.096973, lon.=26.547623, Alt.=84.874084m. Speed=0.000000m/h.</desc>
<speed>0.000000</speed>
</trkpt>
<trkpt lat="56.096973" lon="26.547623">
<ele>84.877991</ele>
<time>2010-08-29T14:31:57Z</time>
<desc>lat.=56.096973, lon.=26.547623, Alt.=84.877991m. Speed=0.000000m/h.</desc>
<speed>0.000000</speed>
</trkpt>
<trkpt lat="56.096973" lon="26.547623">
<ele>84.881897</ele>
<time>2010-08-29T14:31:58Z</time>
<desc>lat.=56.096973, lon.=26.547623, Alt.=84.881897m. Speed=0.036000m/h.</desc>
<speed>0.010000</speed>
</trkpt>
<trkpt lat="56.096973" lon="26.547623">
<ele>84.887756</ele>
<time>2010-08-29T14:31:59Z</time>
<desc>lat.=56.096973, lon.=26.547623, Alt.=84.887756m. Speed=0.000000m/h.</desc>
<speed>0.000000</speed>
</trkpt>
<trkpt lat="56.096973" lon="26.547623">
<ele>84.891663</ele>
<time>2010-08-29T14:32:00Z</time>
<desc>lat.=56.096973, lon.=26.547623, Alt.=84.891663m. Speed=0.000000m/h.</desc>
<speed>0.000000</speed>
</trkpt>
<trkpt lat="56.096973" lon="26.547623">
<ele>84.895569</ele>
<time>2010-08-29T14:32:01Z</time>
<desc>lat.=56.096973, lon.=26.547623, Alt.=84.895569m. Speed=0.000000m/h.</desc>
<speed>0.000000</speed>
</trkpt>
<trkpt lat="56.096973" lon="26.547623">
<ele>84.899475</ele>
<time>2010-08-29T14:32:02Z</time>
<desc>lat.=56.096973, lon.=26.547623, Alt.=84.899475m. Speed=0.000000m/h.</desc>
<speed>0.000000</speed>
</trkpt>
<trkpt lat="56.096973" lon="26.547625">
<ele>84.905334</ele>
<time>2010-08-29T14:32:03Z</time>
<desc>lat.=56.096973, lon.=26.547625, Alt.=84.905334m. Speed=0.000000m/h.</desc>
<speed>0.000000</speed>
</trkpt>
<trkpt lat="56.096973" lon="26.547625">
<ele>84.909241</ele>
<time>2010-08-29T14:32:04Z</time>
<desc>lat.=56.096973, lon.=26.547625, Alt.=84.909241m. Speed=0.000000m/h.</desc>
<speed>0.000000</speed>
</trkpt>
<trkpt lat="56.096973" lon="26.547625">
<ele>84.913147</ele>
<time>2010-08-29T14:32:05Z</time>
<desc>lat.=56.096973, lon.=26.547625, Alt.=84.913147m. Speed=0.000000m/h.</desc>
<speed>0.000000</speed>
</trkpt>
<trkpt lat="56.096973" lon="26.547625">
<ele>84.917053</ele>
<time>2010-08-29T14:32:06Z</time>
<desc>lat.=56.096973, lon.=26.547625, Alt.=84.917053m. Speed=0.000000m/h.</desc>
<speed>0.000000</speed>
</trkpt>
<trkpt lat="56.096973" lon="26.547625">
<ele>84.922913</ele>
<time>2010-08-29T14:32:07Z</time>
<desc>lat.=56.096973, lon.=26.547625, Alt.=84.922913m. Speed=0.000000m/h.</desc>
<speed>0.000000</speed>
</trkpt>
<trkpt lat="56.096973" lon="26.547625">
<ele>84.926819</ele>
<time>2010-08-29T14:32:08Z</time>
<desc>lat.=56.096973, lon.=26.547625, Alt.=84.926819m. Speed=0.000000m/h.</desc>
<speed>0.000000</speed>
</trkpt>
<trkpt lat="56.096973" lon="26.547625">
<ele>84.930725</ele>
<time>2010-08-29T14:32:09Z</time>
<desc>lat.=56.096973, lon.=26.547625, Alt.=84.930725m. Speed=0.000000m/h.</desc>
<speed>0.000000</speed>
</trkpt>
<trkpt lat="56.096973" lon="26.547625">
<ele>84.936584</ele>
<time>2010-08-29T14:32:10Z</time>
<desc>lat.=56.096973, lon.=26.547625, Alt.=84.936584m. Speed=0.000000m/h.</desc>
<speed>0.000000</speed>
</trkpt>
<trkpt lat="56.096973" lon="26.547625">
<ele>84.940491</ele>
<time>2010-08-29T14:32:11Z</time>
<desc>lat.=56.096973, lon.=26.547625, Alt.=84.940491m. Speed=0.000000m/h.</desc>
<speed>0.000000</speed>
</trkpt>
<trkpt lat="56.096973" lon="26.547625">
<ele>84.946350</ele>
<time>2010-08-29T14:32:12Z</time>
<desc>lat.=56.096973, lon.=26.547625, Alt.=84.946350m. Speed=0.000000m/h.</desc>
<speed>0.000000</speed>
</trkpt>
<trkpt lat="56.096973" lon="26.547625">
<ele>84.950256</ele>
<time>2010-08-29T14:32:13Z</time>
<desc>lat.=56.096973, lon.=26.547625, Alt.=84.950256m. Speed=0.000000m/h.</desc>
<speed>0.000000</speed>
</trkpt>
<trkpt lat="56.096973" lon="26.547625">
<ele>84.956116</ele>
<time>2010-08-29T14:32:14Z</time>
<desc>lat.=56.096973, lon.=26.547625, Alt.=84.956116m. Speed=0.036000m/h.</desc>
<speed>0.010000</speed>
</trkpt>
<trkpt lat="56.096973" lon="26.547625">
<ele>84.960022</ele>
<time>2010-08-29T14:32:15Z</time>
<desc>lat.=56.096973, lon.=26.547625, Alt.=84.960022m. Speed=0.000000m/h.</desc>
<speed>0.000000</speed>
</trkpt>
<trkpt lat="56.096973" lon="26.547625">
<ele>84.967834</ele>
<time>2010-08-29T14:32:16Z</time>
<desc>lat.=56.096973, lon.=26.547625, Alt.=84.967834m. Speed=0.000000m/h.</desc>
<speed>0.000000</speed>
</trkpt>
<trkpt lat="56.096973" lon="26.547625">
<ele>84.971741</ele>
<time>2010-08-29T14:32:17Z</time>
<desc>lat.=56.096973, lon.=26.547625, Alt.=84.971741m. Speed=0.000000m/h.</desc>
<speed>0.000000</speed>
</trkpt>
<trkpt lat="56.096973" lon="26.547625">
<ele>84.977600</ele>
<time>2010-08-29T14:32:18Z</time>
<desc>lat.=56.096973, lon.=26.547625, Alt.=84.977600m. Speed=0.000000m/h.</desc>
<speed>0.000000</speed>
</trkpt>
<trkpt lat="56.096973" lon="26.547625">
<ele>84.983459</ele>
<time>2010-08-29T14:32:19Z</time>
<desc>lat.=56.096973, lon.=26.547625, Alt.=84.983459m. Speed=0.000000m/h.</desc>
<speed>0.000000</speed>
</trkpt>
<trkpt lat="56.096973" lon="26.547625">
<ele>84.989319</ele>
<time>2010-08-29T14:32:20Z</time>
<desc>lat.=56.096973, lon.=26.547625, Alt.=84.989319m. Speed=0.000000m/h.</desc>
<speed>0.000000</speed>
</trkpt>
<trkpt lat="56.096973" lon="26.547625">
<ele>84.993225</ele>
<time>2010-08-29T14:32:21Z</time>
<desc>lat.=56.096973, lon.=26.547625, Alt.=84.993225m. Speed=0.000000m/h.</desc>
<speed>0.000000</speed>
</trkpt>
<trkpt lat="56.096973" lon="26.547625">
<ele>84.999084</ele>
<time>2010-08-29T14:32:22Z</time>
<desc>lat.=56.096973, lon.=26.547625, Alt.=84.999084m. Speed=0.000000m/h.</desc>
<speed>0.000000</speed>
</trkpt>
<trkpt lat="56.096973" lon="26.547625">
<ele>85.004944</ele>
<time>2010-08-29T14:32:23Z</time>
<desc>lat.=56.096973, lon.=26.547625, Alt.=85.004944m. Speed=0.000000m/h.</desc>
<speed>0.000000</speed>
</trkpt>
<trkpt lat="56.096973" lon="26.547625">
<ele>85.008850</ele>
<time>2010-08-29T14:32:24Z</time>
<desc>lat.=56.096973, lon.=26.547625, Alt.=85.008850m. Speed=0.000000m/h.</desc>
<speed>0.000000</speed>
</trkpt>
<trkpt lat="56.096973" lon="26.547625">
<ele>85.016663</ele>
<time>2010-08-29T14:32:25Z</time>
<desc>lat.=56.096973, lon.=26.547625, Alt.=85.016663m. Speed=0.000000m/h.</desc>
<speed>0.000000</speed>
</trkpt>
<trkpt lat="56.096973" lon="26.547625">
<ele>85.020569</ele>
<time>2010-08-29T14:32:26Z</time>
<desc>lat.=56.096973, lon.=26.547625, Alt.=85.020569m. Speed=0.000000m/h.</desc>
<speed>0.000000</speed>
</trkpt>
<trkpt lat="56.096973" lon="26.547625">
<ele>85.028381</ele>
<time>2010-08-29T14:32:27Z</time>
<desc>lat.=56.096973, lon.=26.547625, Alt.=85.028381m. Speed=0.000000m/h.</desc>
<speed>0.000000</speed>
</trkpt>
<trkpt lat="56.096973" lon="26.547625">
<ele>85.034241</ele>
<time>2010-08-29T14:32:28Z</time>
<desc>lat.=56.096973, lon.=26.547625, Alt.=85.034241m. Speed=0.000000m/h.</desc>
<speed>0.000000</speed>
</trkpt>
<trkpt lat="56.096973" lon="26.547625">
<ele>85.038147</ele>
<time>2010-08-29T14:32:29Z</time>
<desc>lat.=56.096973, lon.=26.547625, Alt.=85.038147m. Speed=0.000000m/h.</desc>
<speed>0.000000</speed>
</trkpt>
<trkpt lat="56.096973" lon="26.547625">
<ele>85.044006</ele>
<time>2010-08-29T14:32:30Z</time>
<desc>lat.=56.096973, lon.=26.547625, Alt.=85.044006m. Speed=0.000000m/h.</desc>
<speed>0.000000</speed>
</trkpt>
<trkpt lat="56.096973" lon="26.547625">
<ele>85.049866</ele>
<time>2010-08-29T14:32:31Z</time>
<desc>lat.=56.096973, lon.=26.547625, Alt.=85.049866m. Speed=0.000000m/h.</desc>
<speed>0.000000</speed>
</trkpt>
<trkpt lat="56.096973" lon="26.547625">
<ele>85.053772</ele>
<time>2010-08-29T14:32:32Z</time>
<desc>lat.=56.096973, lon.=26.547625, Alt.=85.053772m. Speed=0.000000m/h.</desc>
<speed>0.000000</speed>
</trkpt>
<trkpt lat="56.096973" lon="26.547625">
<ele>85.059631</ele>
<time>2010-08-29T14:32:33Z</time>
<desc>lat.=56.096973, lon.=26.547625, Alt.=85.059631m. Speed=0.000000m/h.</desc>
<speed>0.000000</speed>
</trkpt>
<trkpt lat="56.096973" lon="26.547625">
<ele>85.065491</ele>
<time>2010-08-29T14:32:34Z</time>
<desc>lat.=56.096973, lon.=26.547625, Alt.=85.065491m. Speed=0.000000m/h.</desc>
<speed>0.000000</speed>
</trkpt>
<trkpt lat="56.096973" lon="26.547625">
<ele>85.069397</ele>
<time>2010-08-29T14:32:35Z</time>
<desc>lat.=56.096973, lon.=26.547625, Alt.=85.069397m. Speed=0.000000m/h.</desc>
<speed>0.000000</speed>
</trkpt>
<trkpt lat="56.096973" lon="26.547625">
<ele>85.077209</ele>
<time>2010-08-29T14:32:36Z</time>
<desc>lat.=56.096973, lon.=26.547625, Alt.=85.077209m. Speed=0.000000m/h.</desc>
<speed>0.000000</speed>
</trkpt>
<trkpt lat="56.096973" lon="26.547625">
<ele>85.081116</ele>
<time>2010-08-29T14:32:37Z</time>
<desc>lat.=56.096973, lon.=26.547625, Alt.=85.081116m. Speed=0.000000m/h.</desc>
<speed>0.000000</speed>
</trkpt>
<trkpt lat="56.096973" lon="26.547625">
<ele>85.086975</ele>
<time>2010-08-29T14:32:38Z</time>
<desc>lat.=56.096973, lon.=26.547625, Alt.=85.086975m. Speed=0.000000m/h.</desc>
<speed>0.000000</speed>
</trkpt>
<trkpt lat="56.096973" lon="26.547625">
<ele>85.090881</ele>
<time>2010-08-29T14:32:39Z</time>
<desc>lat.=56.096973, lon.=26.547625, Alt.=85.090881m. Speed=0.000000m/h.</desc>
<speed>0.000000</speed>
</trkpt>
<trkpt lat="56.096973" lon="26.547625">
<ele>85.096741</ele>
<time>2010-08-29T14:32:40Z</time>
<desc>lat.=56.096973, lon.=26.547625, Alt.=85.096741m. Speed=0.000000m/h.</desc>
<speed>0.000000</speed>
</trkpt>
<trkpt lat="56.096973" lon="26.547625">
<ele>85.102600</ele>
<time>2010-08-29T14:32:41Z</time>
<desc>lat.=56.096973, lon.=26.547625, Alt.=85.102600m. Speed=0.000000m/h.</desc>
<speed>0.000000</speed>
</trkpt>
<trkpt lat="56.096973" lon="26.547625">
<ele>85.106506</ele>
<time>2010-08-29T14:32:42Z</time>
<desc>lat.=56.096973, lon.=26.547625, Alt.=85.106506m. Speed=0.000000m/h.</desc>
<speed>0.000000</speed>
</trkpt>
<trkpt lat="56.096973" lon="26.547625">
<ele>85.114319</ele>
<time>2010-08-29T14:32:43Z</time>
<desc>lat.=56.096973, lon.=26.547625, Alt.=85.114319m. Speed=0.000000m/h.</desc>
<speed>0.000000</speed>
</trkpt>
<trkpt lat="56.096973" lon="26.547625">
<ele>85.118225</ele>
<time>2010-08-29T14:32:44Z</time>
<desc>lat.=56.096973, lon.=26.547625, Alt.=85.118225m. Speed=0.000000m/h.</desc>
<speed>0.000000</speed>
</trkpt>
<trkpt lat="56.096973" lon="26.547625">
<ele>85.126038</ele>
<time>2010-08-29T14:32:45Z</time>
<desc>lat.=56.096973, lon.=26.547625, Alt.=85.126038m. Speed=0.000000m/h.</desc>
<speed>0.000000</speed>
</trkpt>
<trkpt lat="56.096973" lon="26.547625">
<ele>85.131897</ele>
<time>2010-08-29T14:32:46Z</time>
<desc>lat.=56.096973, lon.=26.547625, Alt.=85.131897m. Speed=0.000000m/h.</desc>
<speed>0.000000</speed>
</trkpt>
<trkpt lat="56.096973" lon="26.547625">
<ele>85.137756</ele>
<time>2010-08-29T14:32:47Z</time>
<desc>lat.=56.096973, lon.=26.547625, Alt.=85.137756m. Speed=0.036000m/h.</desc>
<speed>0.010000</speed>
</trkpt>
<trkpt lat="56.096973" lon="26.547625">
<ele>85.145569</ele>
<time>2010-08-29T14:32:48Z</time>
<desc>lat.=56.096973, lon.=26.547625, Alt.=85.145569m. Speed=0.000000m/h.</desc>
<speed>0.000000</speed>
</trkpt>
<trkpt lat="56.096973" lon="26.547625">
<ele>85.151428</ele>
<time>2010-08-29T14:32:49Z</time>
<desc>lat.=56.096973, lon.=26.547625, Alt.=85.151428m. Speed=0.000000m/h.</desc>
<speed>0.000000</speed>
</trkpt>
<trkpt lat="56.096973" lon="26.547625">
<ele>85.159241</ele>
<time>2010-08-29T14:32:50Z</time>
<desc>lat.=56.096973, lon.=26.547625, Alt.=85.159241m. Speed=0.000000m/h.</desc>
<speed>0.000000</speed>
</trkpt>
<trkpt lat="56.096973" lon="26.547625">
<ele>85.165100</ele>
<time>2010-08-29T14:32:51Z</time>
<desc>lat.=56.096973, lon.=26.547625, Alt.=85.165100m. Speed=0.000000m/h.</desc>
<speed>0.000000</speed>
</trkpt>
<trkpt lat="56.096973" lon="26.547625">
<ele>85.172913</ele>
<time>2010-08-29T14:32:52Z</time>
<desc>lat.=56.096973, lon.=26.547625, Alt.=85.172913m. Speed=0.000000m/h.</desc>
<speed>0.000000</speed>
</trkpt>
<trkpt lat="56.096973" lon="26.547626">
<ele>85.180725</ele>
<time>2010-08-29T14:32:53Z</time>
<desc>lat.=56.096973, lon.=26.547626, Alt.=85.180725m. Speed=0.000000m/h.</desc>
<speed>0.000000</speed>
</trkpt>
<trkpt lat="56.096973" lon="26.547626">
<ele>85.186584</ele>
<time>2010-08-29T14:32:54Z</time>
<desc>lat.=56.096973, lon.=26.547626, Alt.=85.186584m. Speed=0.000000m/h.</desc>
<speed>0.000000</speed>
</trkpt>
<trkpt lat="56.096973" lon="26.547626">
<ele>85.196350</ele>
<time>2010-08-29T14:32:55Z</time>
<desc>lat.=56.096973, lon.=26.547626, Alt.=85.196350m. Speed=0.000000m/h.</desc>
<speed>0.000000</speed>
</trkpt>
<trkpt lat="56.096973" lon="26.547626">
<ele>85.202209</ele>
<time>2010-08-29T14:32:56Z</time>
<desc>lat.=56.096973, lon.=26.547626, Alt.=85.202209m. Speed=0.000000m/h.</desc>
<speed>0.000000</speed>
</trkpt>
<trkpt lat="56.096970" lon="26.547626">
<ele>85.210022</ele>
<time>2010-08-29T14:32:57Z</time>
<desc>lat.=56.096970, lon.=26.547626, Alt.=85.210022m. Speed=0.000000m/h.</desc>
<speed>0.000000</speed>
</trkpt>
<trkpt lat="56.096970" lon="26.547626">
<ele>85.217834</ele>
<time>2010-08-29T14:32:58Z</time>
<desc>lat.=56.096970, lon.=26.547626, Alt.=85.217834m. Speed=0.000000m/h.</desc>
<speed>0.000000</speed>
</trkpt>
<trkpt lat="56.096970" lon="26.547626">
<ele>85.225647</ele>
<time>2010-08-29T14:32:59Z</time>
<desc>lat.=56.096970, lon.=26.547626, Alt.=85.225647m. Speed=0.000000m/h.</desc>
<speed>0.000000</speed>
</trkpt>
<trkpt lat="56.096970" lon="26.547626">
<ele>85.233459</ele>
<time>2010-08-29T14:33:00Z</time>
<desc>lat.=56.096970, lon.=26.547626, Alt.=85.233459m. Speed=0.000000m/h.</desc>
<speed>0.000000</speed>
</trkpt>
<trkpt lat="56.096970" lon="26.547626">
<ele>85.241272</ele>
<time>2010-08-29T14:33:01Z</time>
<desc>lat.=56.096970, lon.=26.547626, Alt.=85.241272m. Speed=0.000000m/h.</desc>
<speed>0.000000</speed>
</trkpt>
<trkpt lat="56.096970" lon="26.547626">
<ele>85.249084</ele>
<time>2010-08-29T14:33:02Z</time>
<desc>lat.=56.096970, lon.=26.547626, Alt.=85.249084m. Speed=0.000000m/h.</desc>
<speed>0.000000</speed>
</trkpt>
<trkpt lat="56.096970" lon="26.547626">
<ele>85.252991</ele>
<time>2010-08-29T14:33:03Z</time>
<desc>lat.=56.096970, lon.=26.547626, Alt.=85.252991m. Speed=0.036000m/h.</desc>
<speed>0.010000</speed>
</trkpt>
<trkpt lat="56.096970" lon="26.547626">
<ele>85.260803</ele>
<time>2010-08-29T14:33:04Z</time>
<desc>lat.=56.096970, lon.=26.547626, Alt.=85.260803m. Speed=0.000000m/h.</desc>
<speed>0.000000</speed>
</trkpt>
<trkpt lat="56.096970" lon="26.547626">
<ele>85.268616</ele>
<time>2010-08-29T14:33:05Z</time>
<desc>lat.=56.096970, lon.=26.547626, Alt.=85.268616m. Speed=0.000000m/h.</desc>
<speed>0.000000</speed>
</trkpt>
<trkpt lat="56.096970" lon="26.547626">
<ele>85.274475</ele>
<time>2010-08-29T14:33:06Z</time>
<desc>lat.=56.096970, lon.=26.547626, Alt.=85.274475m. Speed=0.000000m/h.</desc>
<speed>0.000000</speed>
</trkpt>
<trkpt lat="56.096970" lon="26.547626">
<ele>85.282288</ele>
<time>2010-08-29T14:33:07Z</time>
<desc>lat.=56.096970, lon.=26.547626, Alt.=85.282288m. Speed=0.000000m/h.</desc>
<speed>0.000000</speed>
</trkpt>
<trkpt lat="56.096970" lon="26.547626">
<ele>85.288147</ele>
<time>2010-08-29T14:33:08Z</time>
<desc>lat.=56.096970, lon.=26.547626, Alt.=85.288147m. Speed=0.000000m/h.</desc>
<speed>0.000000</speed>
</trkpt>
<trkpt lat="56.096970" lon="26.547626">
<ele>85.294006</ele>
<time>2010-08-29T14:33:09Z</time>
<desc>lat.=56.096970, lon.=26.547626, Alt.=85.294006m. Speed=0.000000m/h.</desc>
<speed>0.000000</speed>
</trkpt>
<trkpt lat="56.096970" lon="26.547626">
<ele>85.301819</ele>
<time>2010-08-29T14:33:10Z</time>
<desc>lat.=56.096970, lon.=26.547626, Alt.=85.301819m. Speed=0.000000m/h.</desc>
<speed>0.000000</speed>
</trkpt>
<trkpt lat="56.096970" lon="26.547626">
<ele>85.307678</ele>
<time>2010-08-29T14:33:11Z</time>
<desc>lat.=56.096970, lon.=26.547626, Alt.=85.307678m. Speed=0.000000m/h.</desc>
<speed>0.000000</speed>
</trkpt>
<trkpt lat="56.096970" lon="26.547626">
<ele>85.313538</ele>
<time>2010-08-29T14:33:12Z</time>
<desc>lat.=56.096970, lon.=26.547626, Alt.=85.313538m. Speed=0.000000m/h.</desc>
<speed>0.000000</speed>
</trkpt>
<trkpt lat="56.096970" lon="26.547626">
<ele>85.319397</ele>
<time>2010-08-29T14:33:13Z</time>
<desc>lat.=56.096970, lon.=26.547626, Alt.=85.319397m. Speed=0.036000m/h.</desc>
<speed>0.010000</speed>
</trkpt>
<trkpt lat="56.096970" lon="26.547626">
<ele>85.327209</ele>
<time>2010-08-29T14:33:14Z</time>
<desc>lat.=56.096970, lon.=26.547626, Alt.=85.327209m. Speed=0.000000m/h.</desc>
<speed>0.000000</speed>
</trkpt>
<trkpt lat="56.096970" lon="26.547626">
<ele>85.333069</ele>
<time>2010-08-29T14:33:15Z</time>
<desc>lat.=56.096970, lon.=26.547626, Alt.=85.333069m. Speed=0.000000m/h.</desc>
<speed>0.000000</speed>
</trkpt>
<trkpt lat="56.096970" lon="26.547626">
<ele>85.338928</ele>
<time>2010-08-29T14:33:16Z</time>
<desc>lat.=56.096970, lon.=26.547626, Alt.=85.338928m. Speed=0.000000m/h.</desc>
<speed>0.000000</speed>
</trkpt>
<trkpt lat="56.096970" lon="26.547626">
<ele>85.346741</ele>
<time>2010-08-29T14:33:17Z</time>
<desc>lat.=56.096970, lon.=26.547626, Alt.=85.346741m. Speed=0.000000m/h.</desc>
<speed>0.000000</speed>
</trkpt>
<trkpt lat="56.096970" lon="26.547626">
<ele>85.352600</ele>
<time>2010-08-29T14:33:18Z</time>
<desc>lat.=56.096970, lon.=26.547626, Alt.=85.352600m. Speed=0.000000m/h.</desc>
<speed>0.000000</speed>
</trkpt>
<trkpt lat="56.096970" lon="26.547626">
<ele>85.358459</ele>
<time>2010-08-29T14:33:19Z</time>
<desc>lat.=56.096970, lon.=26.547626, Alt.=85.358459m. Speed=0.000000m/h.</desc>
<speed>0.000000</speed>
</trkpt>
<trkpt lat="56.096970" lon="26.547626">
<ele>85.366272</ele>
<time>2010-08-29T14:33:20Z</time>
<desc>lat.=56.096970, lon.=26.547626, Alt.=85.366272m. Speed=0.036000m/h.</desc>
<speed>0.010000</speed>
</trkpt>
<trkpt lat="56.096970" lon="26.547626">
<ele>85.372131</ele>
<time>2010-08-29T14:33:21Z</time>
<desc>lat.=56.096970, lon.=26.547626, Alt.=85.372131m. Speed=0.000000m/h.</desc>
<speed>0.000000</speed>
</trkpt>
<trkpt lat="56.096970" lon="26.547626">
<ele>85.379944</ele>
<time>2010-08-29T14:33:22Z</time>
<desc>lat.=56.096970, lon.=26.547626, Alt.=85.379944m. Speed=0.000000m/h.</desc>
<speed>0.000000</speed>
</trkpt>
<trkpt lat="56.096970" lon="26.547626">
<ele>85.385803</ele>
<time>2010-08-29T14:33:23Z</time>
<desc>lat.=56.096970, lon.=26.547626, Alt.=85.385803m. Speed=0.000000m/h.</desc>
<speed>0.000000</speed>
</trkpt>
<trkpt lat="56.096970" lon="26.547626">
<ele>85.393616</ele>
<time>2010-08-29T14:33:24Z</time>
<desc>lat.=56.096970, lon.=26.547626, Alt.=85.393616m. Speed=0.000000m/h.</desc>
<speed>0.000000</speed>
</trkpt>
<trkpt lat="56.096970" lon="26.547626">
<ele>85.399475</ele>
<time>2010-08-29T14:33:25Z</time>
<desc>lat.=56.096970, lon.=26.547626, Alt.=85.399475m. Speed=0.000000m/h.</desc>
<speed>0.000000</speed>
</trkpt>
<trkpt lat="56.096970" lon="26.547626">
<ele>85.405334</ele>
<time>2010-08-29T14:33:26Z</time>
<desc>lat.=56.096970, lon.=26.547626, Alt.=85.405334m. Speed=0.000000m/h.</desc>
<speed>0.000000</speed>
</trkpt>
<trkpt lat="56.096970" lon="26.547626">
<ele>85.413147</ele>
<time>2010-08-29T14:33:27Z</time>
<desc>lat.=56.096970, lon.=26.547626, Alt.=85.413147m. Speed=0.000000m/h.</desc>
<speed>0.000000</speed>
</trkpt>
<trkpt lat="56.096970" lon="26.547626">
<ele>85.419006</ele>
<time>2010-08-29T14:33:28Z</time>
<desc>lat.=56.096970, lon.=26.547626, Alt.=85.419006m. Speed=0.000000m/h.</desc>
<speed>0.000000</speed>
</trkpt>
<trkpt lat="56.096970" lon="26.547626">
<ele>85.424866</ele>
<time>2010-08-29T14:33:29Z</time>
<desc>lat.=56.096970, lon.=26.547626, Alt.=85.424866m. Speed=0.000000m/h.</desc>
<speed>0.000000</speed>
</trkpt>
<trkpt lat="56.096970" lon="26.547626">
<ele>85.430725</ele>
<time>2010-08-29T14:33:30Z</time>
<desc>lat.=56.096970, lon.=26.547626, Alt.=85.430725m. Speed=0.000000m/h.</desc>
<speed>0.000000</speed>
</trkpt>
<trkpt lat="56.096970" lon="26.547626">
<ele>85.434631</ele>
<time>2010-08-29T14:33:31Z</time>
<desc>lat.=56.096970, lon.=26.547626, Alt.=85.434631m. Speed=0.000000m/h.</desc>
<speed>0.000000</speed>
</trkpt>
<trkpt lat="56.096970" lon="26.547626">
<ele>85.440491</ele>
<time>2010-08-29T14:33:32Z</time>
<desc>lat.=56.096970, lon.=26.547626, Alt.=85.440491m. Speed=0.000000m/h.</desc>
<speed>0.000000</speed>
</trkpt>
<trkpt lat="56.096970" lon="26.547626">
<ele>85.444397</ele>
<time>2010-08-29T14:33:33Z</time>
<desc>lat.=56.096970, lon.=26.547626, Alt.=85.444397m. Speed=0.000000m/h.</desc>
<speed>0.000000</speed>
</trkpt>
<trkpt lat="56.096970" lon="26.547626">
<ele>85.450256</ele>
<time>2010-08-29T14:33:34Z</time>
<desc>lat.=56.096970, lon.=26.547626, Alt.=85.450256m. Speed=0.000000m/h.</desc>
<speed>0.000000</speed>
</trkpt>
<trkpt lat="56.096970" lon="26.547626">
<ele>85.456116</ele>
<time>2010-08-29T14:33:35Z</time>
<desc>lat.=56.096970, lon.=26.547626, Alt.=85.456116m. Speed=0.000000m/h.</desc>
<speed>0.000000</speed>
</trkpt>
<trkpt lat="56.096970" lon="26.547626">
<ele>85.460022</ele>
<time>2010-08-29T14:33:36Z</time>
<desc>lat.=56.096970, lon.=26.547626, Alt.=85.460022m. Speed=0.000000m/h.</desc>
<speed>0.000000</speed>
</trkpt>
<trkpt lat="56.096970" lon="26.547626">
<ele>85.465881</ele>
<time>2010-08-29T14:33:37Z</time>
<desc>lat.=56.096970, lon.=26.547626, Alt.=85.465881m. Speed=0.000000m/h.</desc>
<speed>0.000000</speed>
</trkpt>
<trkpt lat="56.096970" lon="26.547626">
<ele>85.471741</ele>
<time>2010-08-29T14:33:38Z</time>
<desc>lat.=56.096970, lon.=26.547626, Alt.=85.471741m. Speed=0.000000m/h.</desc>
<speed>0.000000</speed>
</trkpt>
<trkpt lat="56.096970" lon="26.547626">
<ele>85.477600</ele>
<time>2010-08-29T14:33:39Z</time>
<desc>lat.=56.096970, lon.=26.547626, Alt.=85.477600m. Speed=0.000000m/h.</desc>
<speed>0.000000</speed>
</trkpt>
<trkpt lat="56.096970" lon="26.547626">
<ele>85.483459</ele>
<time>2010-08-29T14:33:40Z</time>
<desc>lat.=56.096970, lon.=26.547626, Alt.=85.483459m. Speed=0.000000m/h.</desc>
<speed>0.000000</speed>
</trkpt>
<trkpt lat="56.096970" lon="26.547626">
<ele>85.489319</ele>
<time>2010-08-29T14:33:41Z</time>
<desc>lat.=56.096970, lon.=26.547626, Alt.=85.489319m. Speed=0.000000m/h.</desc>
<speed>0.000000</speed>
</trkpt>
<trkpt lat="56.096970" lon="26.547626">
<ele>85.495178</ele>
<time>2010-08-29T14:33:42Z</time>
<desc>lat.=56.096970, lon.=26.547626, Alt.=85.495178m. Speed=0.000000m/h.</desc>
<speed>0.000000</speed>
</trkpt>
<trkpt lat="56.096970" lon="26.547626">
<ele>85.502991</ele>
<time>2010-08-29T14:33:43Z</time>
<desc>lat.=56.096970, lon.=26.547626, Alt.=85.502991m. Speed=0.000000m/h.</desc>
<speed>0.000000</speed>
</trkpt>
<trkpt lat="56.096970" lon="26.547628">
<ele>85.508850</ele>
<time>2010-08-29T14:33:44Z</time>
<desc>lat.=56.096970, lon.=26.547628, Alt.=85.508850m. Speed=0.000000m/h.</desc>
<speed>0.000000</speed>
</trkpt>
<trkpt lat="56.096970" lon="26.547628">
<ele>85.514709</ele>
<time>2010-08-29T14:33:45Z</time>
<desc>lat.=56.096970, lon.=26.547628, Alt.=85.514709m. Speed=0.000000m/h.</desc>
<speed>0.000000</speed>
</trkpt>
<trkpt lat="56.096970" lon="26.547628">
<ele>85.522522</ele>
<time>2010-08-29T14:33:46Z</time>
<desc>lat.=56.096970, lon.=26.547628, Alt.=85.522522m. Speed=0.000000m/h.</desc>
<speed>0.000000</speed>
</trkpt>
<trkpt lat="56.096970" lon="26.547628">
<ele>85.528381</ele>
<time>2010-08-29T14:33:47Z</time>
<desc>lat.=56.096970, lon.=26.547628, Alt.=85.528381m. Speed=0.000000m/h.</desc>
<speed>0.000000</speed>
</trkpt>
<trkpt lat="56.096970" lon="26.547628">
<ele>85.536194</ele>
<time>2010-08-29T14:33:48Z</time>
<desc>lat.=56.096970, lon.=26.547628, Alt.=85.536194m. Speed=0.000000m/h.</desc>
<speed>0.000000</speed>
</trkpt>
<trkpt lat="56.096970" lon="26.547628">
<ele>85.544006</ele>
<time>2010-08-29T14:33:49Z</time>
<desc>lat.=56.096970, lon.=26.547628, Alt.=85.544006m. Speed=0.000000m/h.</desc>
<speed>0.000000</speed>
</trkpt>
<trkpt lat="56.096970" lon="26.547628">
<ele>85.551819</ele>
<time>2010-08-29T14:33:50Z</time>
<desc>lat.=56.096970, lon.=26.547628, Alt.=85.551819m. Speed=0.000000m/h.</desc>
<speed>0.000000</speed>
</trkpt>
<trkpt lat="56.096970" lon="26.547628">
<ele>85.561584</ele>
<time>2010-08-29T14:33:51Z</time>
<desc>lat.=56.096970, lon.=26.547628, Alt.=85.561584m. Speed=0.000000m/h.</desc>
<speed>0.000000</speed>
</trkpt>
<trkpt lat="56.096970" lon="26.547628">
<ele>85.569397</ele>
<time>2010-08-29T14:33:52Z</time>
<desc>lat.=56.096970, lon.=26.547628, Alt.=85.569397m. Speed=0.000000m/h.</desc>
<speed>0.000000</speed>
</trkpt>
<trkpt lat="56.096970" lon="26.547628">
<ele>85.579163</ele>
<time>2010-08-29T14:33:53Z</time>
<desc>lat.=56.096970, lon.=26.547628, Alt.=85.579163m. Speed=0.000000m/h.</desc>
<speed>0.000000</speed>
</trkpt>
<trkpt lat="56.096970" lon="26.547628">
<ele>85.586975</ele>
<time>2010-08-29T14:33:54Z</time>
<desc>lat.=56.096970, lon.=26.547628, Alt.=85.586975m. Speed=0.000000m/h.</desc>
<speed>0.000000</speed>
</trkpt>
<trkpt lat="56.096970" lon="26.547628">
<ele>85.592834</ele>
<time>2010-08-29T14:33:55Z</time>
<desc>lat.=56.096970, lon.=26.547628, Alt.=85.592834m. Speed=0.000000m/h.</desc>
<speed>0.000000</speed>
</trkpt>
<trkpt lat="56.096970" lon="26.547628">
<ele>85.600647</ele>
<time>2010-08-29T14:33:56Z</time>
<desc>lat.=56.096970, lon.=26.547628, Alt.=85.600647m. Speed=0.000000m/h.</desc>
<speed>0.000000</speed>
</trkpt>
<trkpt lat="56.096970" lon="26.547628">
<ele>85.610413</ele>
<time>2010-08-29T14:33:57Z</time>
<desc>lat.=56.096970, lon.=26.547628, Alt.=85.610413m. Speed=0.000000m/h.</desc>
<speed>0.000000</speed>
</trkpt>
<trkpt lat="56.096970" lon="26.547628">
<ele>85.616272</ele>
<time>2010-08-29T14:33:58Z</time>
<desc>lat.=56.096970, lon.=26.547628, Alt.=85.616272m. Speed=0.000000m/h.</desc>
<speed>0.000000</speed>
</trkpt>
<trkpt lat="56.096970" lon="26.547628">
<ele>85.624084</ele>
<time>2010-08-29T14:33:59Z</time>
<desc>lat.=56.096970, lon.=26.547628, Alt.=85.624084m. Speed=0.000000m/h.</desc>
<speed>0.000000</speed>
</trkpt>
<trkpt lat="56.096970" lon="26.547628">
<ele>85.631897</ele>
<time>2010-08-29T14:34:00Z</time>
<desc>lat.=56.096970, lon.=26.547628, Alt.=85.631897m. Speed=0.000000m/h.</desc>
<speed>0.000000</speed>
</trkpt>
<trkpt lat="56.096970" lon="26.547628">
<ele>85.637756</ele>
<time>2010-08-29T14:34:01Z</time>
<desc>lat.=56.096970, lon.=26.547628, Alt.=85.637756m. Speed=0.000000m/h.</desc>
<speed>0.000000</speed>
</trkpt>
<trkpt lat="56.096970" lon="26.547628">
<ele>85.643616</ele>
<time>2010-08-29T14:34:02Z</time>
<desc>lat.=56.096970, lon.=26.547628, Alt.=85.643616m. Speed=0.000000m/h.</desc>
<speed>0.000000</speed>
</trkpt>
<trkpt lat="56.096970" lon="26.547628">
<ele>85.649475</ele>
<time>2010-08-29T14:34:03Z</time>
<desc>lat.=56.096970, lon.=26.547628, Alt.=85.649475m. Speed=0.000000m/h.</desc>
<speed>0.000000</speed>
</trkpt>
<trkpt lat="56.096970" lon="26.547628">
<ele>85.655334</ele>
<time>2010-08-29T14:34:04Z</time>
<desc>lat.=56.096970, lon.=26.547628, Alt.=85.655334m. Speed=0.000000m/h.</desc>
<speed>0.000000</speed>
</trkpt>
<trkpt lat="56.096970" lon="26.547628">
<ele>85.663147</ele>
<time>2010-08-29T14:34:05Z</time>
<desc>lat.=56.096970, lon.=26.547628, Alt.=85.663147m. Speed=0.000000m/h.</desc>
<speed>0.000000</speed>
</trkpt>
<trkpt lat="56.096970" lon="26.547628">
<ele>85.670959</ele>
<time>2010-08-29T14:34:06Z</time>
<desc>lat.=56.096970, lon.=26.547628, Alt.=85.670959m. Speed=0.000000m/h.</desc>
<speed>0.000000</speed>
</trkpt>
<trkpt lat="56.096970" lon="26.547628">
<ele>85.674866</ele>
<time>2010-08-29T14:34:07Z</time>
<desc>lat.=56.096970, lon.=26.547628, Alt.=85.674866m. Speed=0.000000m/h.</desc>
<speed>0.000000</speed>
</trkpt>
<trkpt lat="56.096970" lon="26.547628">
<ele>85.682678</ele>
<time>2010-08-29T14:34:08Z</time>
<desc>lat.=56.096970, lon.=26.547628, Alt.=85.682678m. Speed=0.000000m/h.</desc>
<speed>0.000000</speed>
</trkpt>
<trkpt lat="56.096970" lon="26.547628">
<ele>85.690491</ele>
<time>2010-08-29T14:34:09Z</time>
<desc>lat.=56.096970, lon.=26.547628, Alt.=85.690491m. Speed=0.000000m/h.</desc>
<speed>0.000000</speed>
</trkpt>
<trkpt lat="56.096970" lon="26.547628">
<ele>85.696350</ele>
<time>2010-08-29T14:34:10Z</time>
<desc>lat.=56.096970, lon.=26.547628, Alt.=85.696350m. Speed=0.000000m/h.</desc>
<speed>0.000000</speed>
</trkpt>
<trkpt lat="56.096970" lon="26.547628">
<ele>85.704163</ele>
<time>2010-08-29T14:34:11Z</time>
<desc>lat.=56.096970, lon.=26.547628, Alt.=85.704163m. Speed=0.000000m/h.</desc>
<speed>0.000000</speed>
</trkpt>
<trkpt lat="56.096970" lon="26.547628">
<ele>85.711975</ele>
<time>2010-08-29T14:34:12Z</time>
<desc>lat.=56.096970, lon.=26.547628, Alt.=85.711975m. Speed=0.000000m/h.</desc>
<speed>0.000000</speed>
</trkpt>
<trkpt lat="56.096970" lon="26.547628">
<ele>85.717834</ele>
<time>2010-08-29T14:34:13Z</time>
<desc>lat.=56.096970, lon.=26.547628, Alt.=85.717834m. Speed=0.000000m/h.</desc>
<speed>0.000000</speed>
</trkpt>
<trkpt lat="56.096970" lon="26.547628">
<ele>85.725647</ele>
<time>2010-08-29T14:34:14Z</time>
<desc>lat.=56.096970, lon.=26.547628, Alt.=85.725647m. Speed=0.000000m/h.</desc>
<speed>0.000000</speed>
</trkpt>
<trkpt lat="56.096970" lon="26.547628">
<ele>85.733459</ele>
<time>2010-08-29T14:34:15Z</time>
<desc>lat.=56.096970, lon.=26.547628, Alt.=85.733459m. Speed=0.000000m/h.</desc>
<speed>0.000000</speed>
</trkpt>
<trkpt lat="56.096970" lon="26.547628">
<ele>85.741272</ele>
<time>2010-08-29T14:34:16Z</time>
<desc>lat.=56.096970, lon.=26.547628, Alt.=85.741272m. Speed=0.000000m/h.</desc>
<speed>0.000000</speed>
</trkpt>
<trkpt lat="56.096970" lon="26.547628">
<ele>85.747131</ele>
<time>2010-08-29T14:34:17Z</time>
<desc>lat.=56.096970, lon.=26.547628, Alt.=85.747131m. Speed=0.000000m/h.</desc>
<speed>0.000000</speed>
</trkpt>
<trkpt lat="56.096970" lon="26.547628">
<ele>85.754944</ele>
<time>2010-08-29T14:34:18Z</time>
<desc>lat.=56.096970, lon.=26.547628, Alt.=85.754944m. Speed=0.000000m/h.</desc>
<speed>0.000000</speed>
</trkpt>
<trkpt lat="56.096970" lon="26.547628">
<ele>85.762756</ele>
<time>2010-08-29T14:34:19Z</time>
<desc>lat.=56.096970, lon.=26.547628, Alt.=85.762756m. Speed=0.000000m/h.</desc>
<speed>0.000000</speed>
</trkpt>
<trkpt lat="56.096970" lon="26.547628">
<ele>85.772522</ele>
<time>2010-08-29T14:34:20Z</time>
<desc>lat.=56.096970, lon.=26.547628, Alt.=85.772522m. Speed=0.000000m/h.</desc>
<speed>0.000000</speed>
</trkpt>
<trkpt lat="56.096970" lon="26.547628">
<ele>85.778381</ele>
<time>2010-08-29T14:34:21Z</time>
<desc>lat.=56.096970, lon.=26.547628, Alt.=85.778381m. Speed=0.000000m/h.</desc>
<speed>0.000000</speed>
</trkpt>
<trkpt lat="56.096970" lon="26.547628">
<ele>85.786194</ele>
<time>2010-08-29T14:34:22Z</time>
<desc>lat.=56.096970, lon.=26.547628, Alt.=85.786194m. Speed=0.000000m/h.</desc>
<speed>0.000000</speed>
</trkpt>
<trkpt lat="56.096970" lon="26.547628">
<ele>85.795959</ele>
<time>2010-08-29T14:34:23Z</time>
<desc>lat.=56.096970, lon.=26.547628, Alt.=85.795959m. Speed=0.000000m/h.</desc>
<speed>0.000000</speed>
</trkpt>
<trkpt lat="56.096970" lon="26.547628">
<ele>85.803772</ele>
<time>2010-08-29T14:34:24Z</time>
<desc>lat.=56.096970, lon.=26.547628, Alt.=85.803772m. Speed=0.000000m/h.</desc>
<speed>0.000000</speed>
</trkpt>
<trkpt lat="56.096970" lon="26.547628">
<ele>85.811584</ele>
<time>2010-08-29T14:34:25Z</time>
<desc>lat.=56.096970, lon.=26.547628, Alt.=85.811584m. Speed=0.000000m/h.</desc>
<speed>0.000000</speed>
</trkpt>
<trkpt lat="56.096970" lon="26.547628">
<ele>85.819397</ele>
<time>2010-08-29T14:34:26Z</time>
<desc>lat.=56.096970, lon.=26.547628, Alt.=85.819397m. Speed=0.000000m/h.</desc>
<speed>0.000000</speed>
</trkpt>
<trkpt lat="56.096970" lon="26.547628">
<ele>85.827209</ele>
<time>2010-08-29T14:34:27Z</time>
<desc>lat.=56.096970, lon.=26.547628, Alt.=85.827209m. Speed=0.000000m/h.</desc>
<speed>0.000000</speed>
</trkpt>
<trkpt lat="56.096970" lon="26.547628">
<ele>85.835022</ele>
<time>2010-08-29T14:34:28Z</time>
<desc>lat.=56.096970, lon.=26.547628, Alt.=85.835022m. Speed=0.000000m/h.</desc>
<speed>0.000000</speed>
</trkpt>
<trkpt lat="56.096970" lon="26.547628">
<ele>85.844788</ele>
<time>2010-08-29T14:34:29Z</time>
<desc>lat.=56.096970, lon.=26.547628, Alt.=85.844788m. Speed=0.000000m/h.</desc>
<speed>0.000000</speed>
</trkpt>
<trkpt lat="56.096970" lon="26.547628">
<ele>85.852600</ele>
<time>2010-08-29T14:34:30Z</time>
<desc>lat.=56.096970, lon.=26.547628, Alt.=85.852600m. Speed=0.000000m/h.</desc>
<speed>0.000000</speed>
</trkpt>
<trkpt lat="56.096970" lon="26.547628">
<ele>85.860413</ele>
<time>2010-08-29T14:34:31Z</time>
<desc>lat.=56.096970, lon.=26.547628, Alt.=85.860413m. Speed=0.000000m/h.</desc>
<speed>0.000000</speed>
</trkpt>
<trkpt lat="56.096970" lon="26.547628">
<ele>85.868225</ele>
<time>2010-08-29T14:34:32Z</time>
<desc>lat.=56.096970, lon.=26.547628, Alt.=85.868225m. Speed=0.000000m/h.</desc>
<speed>0.000000</speed>
</trkpt>
<trkpt lat="56.096970" lon="26.547628">
<ele>85.874084</ele>
<time>2010-08-29T14:34:33Z</time>
<desc>lat.=56.096970, lon.=26.547628, Alt.=85.874084m. Speed=0.000000m/h.</desc>
<speed>0.000000</speed>
</trkpt>
<trkpt lat="56.096970" lon="26.547628">
<ele>85.879944</ele>
<time>2010-08-29T14:34:34Z</time>
<desc>lat.=56.096970, lon.=26.547628, Alt.=85.879944m. Speed=0.000000m/h.</desc>
<speed>0.000000</speed>
</trkpt>
<trkpt lat="56.096970" lon="26.547628">
<ele>85.887756</ele>
<time>2010-08-29T14:34:35Z</time>
<desc>lat.=56.096970, lon.=26.547628, Alt.=85.887756m. Speed=0.000000m/h.</desc>
<speed>0.000000</speed>
</trkpt>
<trkpt lat="56.096970" lon="26.547628">
<ele>85.895569</ele>
<time>2010-08-29T14:34:36Z</time>
<desc>lat.=56.096970, lon.=26.547628, Alt.=85.895569m. Speed=0.000000m/h.</desc>
<speed>0.000000</speed>
</trkpt>
<trkpt lat="56.096970" lon="26.547628">
<ele>85.901428</ele>
<time>2010-08-29T14:34:37Z</time>
<desc>lat.=56.096970, lon.=26.547628, Alt.=85.901428m. Speed=0.000000m/h.</desc>
<speed>0.000000</speed>
</trkpt>
<trkpt lat="56.096970" lon="26.547628">
<ele>85.907288</ele>
<time>2010-08-29T14:34:38Z</time>
<desc>lat.=56.096970, lon.=26.547628, Alt.=85.907288m. Speed=0.000000m/h.</desc>
<speed>0.000000</speed>
</trkpt>
<trkpt lat="56.096970" lon="26.547628">
<ele>85.915100</ele>
<time>2010-08-29T14:34:39Z</time>
<desc>lat.=56.096970, lon.=26.547628, Alt.=85.915100m. Speed=0.000000m/h.</desc>
<speed>0.000000</speed>
</trkpt>
<trkpt lat="56.096970" lon="26.547628">
<ele>85.920959</ele>
<time>2010-08-29T14:34:40Z</time>
<desc>lat.=56.096970, lon.=26.547628, Alt.=85.920959m. Speed=0.000000m/h.</desc>
<speed>0.000000</speed>
</trkpt>
<trkpt lat="56.096970" lon="26.547628">
<ele>85.926819</ele>
<time>2010-08-29T14:34:41Z</time>
<desc>lat.=56.096970, lon.=26.547628, Alt.=85.926819m. Speed=0.000000m/h.</desc>
<speed>0.000000</speed>
</trkpt>
<trkpt lat="56.096970" lon="26.547628">
<ele>85.936584</ele>
<time>2010-08-29T14:34:42Z</time>
<desc>lat.=56.096970, lon.=26.547628, Alt.=85.936584m. Speed=0.000000m/h.</desc>
<speed>0.000000</speed>
</trkpt>
<trkpt lat="56.096970" lon="26.547628">
<ele>85.942444</ele>
<time>2010-08-29T14:34:43Z</time>
<desc>lat.=56.096970, lon.=26.547628, Alt.=85.942444m. Speed=0.000000m/h.</desc>
<speed>0.000000</speed>
</trkpt>
<trkpt lat="56.096970" lon="26.547628">
<ele>85.950256</ele>
<time>2010-08-29T14:34:44Z</time>
<desc>lat.=56.096970, lon.=26.547628, Alt.=85.950256m. Speed=0.000000m/h.</desc>
<speed>0.000000</speed>
</trkpt>
<trkpt lat="56.096970" lon="26.547628">
<ele>85.958069</ele>
<time>2010-08-29T14:34:45Z</time>
<desc>lat.=56.096970, lon.=26.547628, Alt.=85.958069m. Speed=0.000000m/h.</desc>
<speed>0.000000</speed>
</trkpt>
<trkpt lat="56.096970" lon="26.547628">
<ele>85.965881</ele>
<time>2010-08-29T14:34:46Z</time>
<desc>lat.=56.096970, lon.=26.547628, Alt.=85.965881m. Speed=0.000000m/h.</desc>
<speed>0.000000</speed>
</trkpt>
<trkpt lat="56.096970" lon="26.547628">
<ele>85.971741</ele>
<time>2010-08-29T14:34:47Z</time>
<desc>lat.=56.096970, lon.=26.547628, Alt.=85.971741m. Speed=0.000000m/h.</desc>
<speed>0.000000</speed>
</trkpt>
<trkpt lat="56.096970" lon="26.547628">
<ele>85.977600</ele>
<time>2010-08-29T14:34:48Z</time>
<desc>lat.=56.096970, lon.=26.547628, Alt.=85.977600m. Speed=0.000000m/h.</desc>
<speed>0.000000</speed>
</trkpt>
<trkpt lat="56.096970" lon="26.547628">
<ele>85.985413</ele>
<time>2010-08-29T14:34:49Z</time>
<desc>lat.=56.096970, lon.=26.547628, Alt.=85.985413m. Speed=0.000000m/h.</desc>
<speed>0.000000</speed>
</trkpt>
<trkpt lat="56.096966" lon="26.547628">
<ele>85.991272</ele>
<time>2010-08-29T14:34:50Z</time>
<desc>lat.=56.096966, lon.=26.547628, Alt.=85.991272m. Speed=0.000000m/h.</desc>
<speed>0.000000</speed>
</trkpt>
<trkpt lat="56.096966" lon="26.547628">
<ele>85.999084</ele>
<time>2010-08-29T14:34:51Z</time>
<desc>lat.=56.096966, lon.=26.547628, Alt.=85.999084m. Speed=0.000000m/h.</desc>
<speed>0.000000</speed>
</trkpt>
<trkpt lat="56.096966" lon="26.547628">
<ele>86.006897</ele>
<time>2010-08-29T14:34:52Z</time>
<desc>lat.=56.096966, lon.=26.547628, Alt.=86.006897m. Speed=0.000000m/h.</desc>
<speed>0.000000</speed>
</trkpt>
<trkpt lat="56.096966" lon="26.547628">
<ele>86.012756</ele>
<time>2010-08-29T14:34:53Z</time>
<desc>lat.=56.096966, lon.=26.547628, Alt.=86.012756m. Speed=0.000000m/h.</desc>
<speed>0.000000</speed>
</trkpt>
<trkpt lat="56.096966" lon="26.547628">
<ele>86.020569</ele>
<time>2010-08-29T14:34:54Z</time>
<desc>lat.=56.096966, lon.=26.547628, Alt.=86.020569m. Speed=0.000000m/h.</desc>
<speed>0.000000</speed>
</trkpt>
<trkpt lat="56.096966" lon="26.547628">
<ele>86.028381</ele>
<time>2010-08-29T14:34:55Z</time>
<desc>lat.=56.096966, lon.=26.547628, Alt.=86.028381m. Speed=0.000000m/h.</desc>
<speed>0.000000</speed>
</trkpt>
<trkpt lat="56.096966" lon="26.547628">
<ele>86.036194</ele>
<time>2010-08-29T14:34:56Z</time>
<desc>lat.=56.096966, lon.=26.547628, Alt.=86.036194m. Speed=0.000000m/h.</desc>
<speed>0.000000</speed>
</trkpt>
<trkpt lat="56.096966" lon="26.547628">
<ele>86.044006</ele>
<time>2010-08-29T14:34:57Z</time>
<desc>lat.=56.096966, lon.=26.547628, Alt.=86.044006m. Speed=0.000000m/h.</desc>
<speed>0.000000</speed>
</trkpt>
<trkpt lat="56.096966" lon="26.547628">
<ele>86.051819</ele>
<time>2010-08-29T14:34:58Z</time>
<desc>lat.=56.096966, lon.=26.547628, Alt.=86.051819m. Speed=0.000000m/h.</desc>
<speed>0.000000</speed>
</trkpt>
<trkpt lat="56.096966" lon="26.547628">
<ele>86.057678</ele>
<time>2010-08-29T14:34:59Z</time>
<desc>lat.=56.096966, lon.=26.547628, Alt.=86.057678m. Speed=0.000000m/h.</desc>
<speed>0.000000</speed>
</trkpt>
<trkpt lat="56.096966" lon="26.547628">
<ele>86.065491</ele>
<time>2010-08-29T14:35:00Z</time>
<desc>lat.=56.096966, lon.=26.547628, Alt.=86.065491m. Speed=0.000000m/h.</desc>
<speed>0.000000</speed>
</trkpt>
<trkpt lat="56.096966" lon="26.547628">
<ele>86.073303</ele>
<time>2010-08-29T14:35:01Z</time>
<desc>lat.=56.096966, lon.=26.547628, Alt.=86.073303m. Speed=0.000000m/h.</desc>
<speed>0.000000</speed>
</trkpt>
<trkpt lat="56.096966" lon="26.547628">
<ele>86.079163</ele>
<time>2010-08-29T14:35:02Z</time>
<desc>lat.=56.096966, lon.=26.547628, Alt.=86.079163m. Speed=0.000000m/h.</desc>
<speed>0.000000</speed>
</trkpt>
<trkpt lat="56.096966" lon="26.547628">
<ele>86.086975</ele>
<time>2010-08-29T14:35:03Z</time>
<desc>lat.=56.096966, lon.=26.547628, Alt.=86.086975m. Speed=0.000000m/h.</desc>
<speed>0.000000</speed>
</trkpt>
<trkpt lat="56.096966" lon="26.547628">
<ele>86.092834</ele>
<time>2010-08-29T14:35:04Z</time>
<desc>lat.=56.096966, lon.=26.547628, Alt.=86.092834m. Speed=0.000000m/h.</desc>
<speed>0.000000</speed>
</trkpt>
<trkpt lat="56.096966" lon="26.547628">
<ele>86.098694</ele>
<time>2010-08-29T14:35:05Z</time>
<desc>lat.=56.096966, lon.=26.547628, Alt.=86.098694m. Speed=0.000000m/h.</desc>
<speed>0.000000</speed>
</trkpt>
<trkpt lat="56.096966" lon="26.547628">
<ele>86.106506</ele>
<time>2010-08-29T14:35:06Z</time>
<desc>lat.=56.096966, lon.=26.547628, Alt.=86.106506m. Speed=0.000000m/h.</desc>
<speed>0.000000</speed>
</trkpt>
<trkpt lat="56.096966" lon="26.547628">
<ele>86.112366</ele>
<time>2010-08-29T14:35:07Z</time>
<desc>lat.=56.096966, lon.=26.547628, Alt.=86.112366m. Speed=0.000000m/h.</desc>
<speed>0.000000</speed>
</trkpt>
<trkpt lat="56.096966" lon="26.547628">
<ele>86.118225</ele>
<time>2010-08-29T14:35:08Z</time>
<desc>lat.=56.096966, lon.=26.547628, Alt.=86.118225m. Speed=0.000000m/h.</desc>
<speed>0.000000</speed>
</trkpt>
<trkpt lat="56.096966" lon="26.547628">
<ele>86.126038</ele>
<time>2010-08-29T14:35:09Z</time>
<desc>lat.=56.096966, lon.=26.547628, Alt.=86.126038m. Speed=0.000000m/h.</desc>
<speed>0.000000</speed>
</trkpt>
<trkpt lat="56.096966" lon="26.547628">
<ele>86.131897</ele>
<time>2010-08-29T14:35:10Z</time>
<desc>lat.=56.096966, lon.=26.547628, Alt.=86.131897m. Speed=0.000000m/h.</desc>
<speed>0.000000</speed>
</trkpt>
<trkpt lat="56.096966" lon="26.547628">
<ele>86.137756</ele>
<time>2010-08-29T14:35:11Z</time>
<desc>lat.=56.096966, lon.=26.547628, Alt.=86.137756m. Speed=0.000000m/h.</desc>
<speed>0.000000</speed>
</trkpt>
<trkpt lat="56.096966" lon="26.547628">
<ele>86.143616</ele>
<time>2010-08-29T14:35:12Z</time>
<desc>lat.=56.096966, lon.=26.547628, Alt.=86.143616m. Speed=0.000000m/h.</desc>
<speed>0.000000</speed>
</trkpt>
<trkpt lat="56.096966" lon="26.547628">
<ele>86.149475</ele>
<time>2010-08-29T14:35:13Z</time>
<desc>lat.=56.096966, lon.=26.547628, Alt.=86.149475m. Speed=0.000000m/h.</desc>
<speed>0.000000</speed>
</trkpt>
<trkpt lat="56.096966" lon="26.547628">
<ele>86.157288</ele>
<time>2010-08-29T14:35:14Z</time>
<desc>lat.=56.096966, lon.=26.547628, Alt.=86.157288m. Speed=0.000000m/h.</desc>
<speed>0.000000</speed>
</trkpt>
<trkpt lat="56.096966" lon="26.547628">
<ele>86.163147</ele>
<time>2010-08-29T14:35:15Z</time>
<desc>lat.=56.096966, lon.=26.547628, Alt.=86.163147m. Speed=0.000000m/h.</desc>
<speed>0.000000</speed>
</trkpt>
<trkpt lat="56.096966" lon="26.547628">
<ele>86.170959</ele>
<time>2010-08-29T14:35:16Z</time>
<desc>lat.=56.096966, lon.=26.547628, Alt.=86.170959m. Speed=0.000000m/h.</desc>
<speed>0.000000</speed>
</trkpt>
<trkpt lat="56.096966" lon="26.547628">
<ele>86.178772</ele>
<time>2010-08-29T14:35:17Z</time>
<desc>lat.=56.096966, lon.=26.547628, Alt.=86.178772m. Speed=0.000000m/h.</desc>
<speed>0.000000</speed>
</trkpt>
<trkpt lat="56.096966" lon="26.547628">
<ele>86.184631</ele>
<time>2010-08-29T14:35:18Z</time>
<desc>lat.=56.096966, lon.=26.547628, Alt.=86.184631m. Speed=0.000000m/h.</desc>
<speed>0.000000</speed>
</trkpt>
<trkpt lat="56.096966" lon="26.547628">
<ele>86.190491</ele>
<time>2010-08-29T14:35:19Z</time>
<desc>lat.=56.096966, lon.=26.547628, Alt.=86.190491m. Speed=0.000000m/h.</desc>
<speed>0.000000</speed>
</trkpt>
<trkpt lat="56.096966" lon="26.547628">
<ele>86.198303</ele>
<time>2010-08-29T14:35:20Z</time>
<desc>lat.=56.096966, lon.=26.547628, Alt.=86.198303m. Speed=0.000000m/h.</desc>
<speed>0.000000</speed>
</trkpt>
<trkpt lat="56.096966" lon="26.547628">
<ele>86.206116</ele>
<time>2010-08-29T14:35:21Z</time>
<desc>lat.=56.096966, lon.=26.547628, Alt.=86.206116m. Speed=0.000000m/h.</desc>
<speed>0.000000</speed>
</trkpt>
<trkpt lat="56.096966" lon="26.547628">
<ele>86.211975</ele>
<time>2010-08-29T14:35:22Z</time>
<desc>lat.=56.096966, lon.=26.547628, Alt.=86.211975m. Speed=0.000000m/h.</desc>
<speed>0.000000</speed>
</trkpt>
<trkpt lat="56.096966" lon="26.547628">
<ele>86.217834</ele>
<time>2010-08-29T14:35:23Z</time>
<desc>lat.=56.096966, lon.=26.547628, Alt.=86.217834m. Speed=0.000000m/h.</desc>
<speed>0.000000</speed>
</trkpt>
<trkpt lat="56.096966" lon="26.547628">
<ele>86.225647</ele>
<time>2010-08-29T14:35:24Z</time>
<desc>lat.=56.096966, lon.=26.547628, Alt.=86.225647m. Speed=0.000000m/h.</desc>
<speed>0.000000</speed>
</trkpt>
<trkpt lat="56.096966" lon="26.547628">
<ele>86.233459</ele>
<time>2010-08-29T14:35:25Z</time>
<desc>lat.=56.096966, lon.=26.547628, Alt.=86.233459m. Speed=0.000000m/h.</desc>
<speed>0.000000</speed>
</trkpt>
<trkpt lat="56.096966" lon="26.547628">
<ele>86.241272</ele>
<time>2010-08-29T14:35:26Z</time>
<desc>lat.=56.096966, lon.=26.547628, Alt.=86.241272m. Speed=0.000000m/h.</desc>
<speed>0.000000</speed>
</trkpt>
<trkpt lat="56.096966" lon="26.547628">
<ele>86.247131</ele>
<time>2010-08-29T14:35:27Z</time>
<desc>lat.=56.096966, lon.=26.547628, Alt.=86.247131m. Speed=0.000000m/h.</desc>
<speed>0.000000</speed>
</trkpt>
<trkpt lat="56.096966" lon="26.547630">
<ele>86.254944</ele>
<time>2010-08-29T14:35:28Z</time>
<desc>lat.=56.096966, lon.=26.547630, Alt.=86.254944m. Speed=0.000000m/h.</desc>
<speed>0.000000</speed>
</trkpt>
<trkpt lat="56.096966" lon="26.547630">
<ele>86.260803</ele>
<time>2010-08-29T14:35:29Z</time>
<desc>lat.=56.096966, lon.=26.547630, Alt.=86.260803m. Speed=0.000000m/h.</desc>
<speed>0.000000</speed>
</trkpt>
<trkpt lat="56.096966" lon="26.547630">
<ele>86.266663</ele>
<time>2010-08-29T14:35:30Z</time>
<desc>lat.=56.096966, lon.=26.547630, Alt.=86.266663m. Speed=0.000000m/h.</desc>
<speed>0.000000</speed>
</trkpt>
<trkpt lat="56.096966" lon="26.547630">
<ele>86.272522</ele>
<time>2010-08-29T14:35:31Z</time>
<desc>lat.=56.096966, lon.=26.547630, Alt.=86.272522m. Speed=0.000000m/h.</desc>
<speed>0.000000</speed>
</trkpt>
<trkpt lat="56.096966" lon="26.547630">
<ele>86.280334</ele>
<time>2010-08-29T14:35:32Z</time>
<desc>lat.=56.096966, lon.=26.547630, Alt.=86.280334m. Speed=0.000000m/h.</desc>
<speed>0.000000</speed>
</trkpt>
<trkpt lat="56.096966" lon="26.547630">
<ele>86.286194</ele>
<time>2010-08-29T14:35:33Z</time>
<desc>lat.=56.096966, lon.=26.547630, Alt.=86.286194m. Speed=0.000000m/h.</desc>
<speed>0.000000</speed>
</trkpt>
<trkpt lat="56.096966" lon="26.547630">
<ele>86.294006</ele>
<time>2010-08-29T14:35:34Z</time>
<desc>lat.=56.096966, lon.=26.547630, Alt.=86.294006m. Speed=0.000000m/h.</desc>
<speed>0.000000</speed>
</trkpt>
<trkpt lat="56.096966" lon="26.547630">
<ele>86.297913</ele>
<time>2010-08-29T14:35:35Z</time>
<desc>lat.=56.096966, lon.=26.547630, Alt.=86.297913m. Speed=0.000000m/h.</desc>
<speed>0.000000</speed>
</trkpt>
<trkpt lat="56.096966" lon="26.547630">
<ele>86.303772</ele>
<time>2010-08-29T14:35:36Z</time>
<desc>lat.=56.096966, lon.=26.547630, Alt.=86.303772m. Speed=0.000000m/h.</desc>
<speed>0.000000</speed>
</trkpt>
<trkpt lat="56.096966" lon="26.547630">
<ele>86.311584</ele>
<time>2010-08-29T14:35:37Z</time>
<desc>lat.=56.096966, lon.=26.547630, Alt.=86.311584m. Speed=0.000000m/h.</desc>
<speed>0.000000</speed>
</trkpt>
<trkpt lat="56.096966" lon="26.547630">
<ele>86.317444</ele>
<time>2010-08-29T14:35:38Z</time>
<desc>lat.=56.096966, lon.=26.547630, Alt.=86.317444m. Speed=0.000000m/h.</desc>
<speed>0.000000</speed>
</trkpt>
<trkpt lat="56.096966" lon="26.547630">
<ele>86.323303</ele>
<time>2010-08-29T14:35:39Z</time>
<desc>lat.=56.096966, lon.=26.547630, Alt.=86.323303m. Speed=0.000000m/h.</desc>
<speed>0.000000</speed>
</trkpt>
<trkpt lat="56.096966" lon="26.547630">
<ele>86.327209</ele>
<time>2010-08-29T14:35:40Z</time>
<desc>lat.=56.096966, lon.=26.547630, Alt.=86.327209m. Speed=0.000000m/h.</desc>
<speed>0.000000</speed>
</trkpt>
<trkpt lat="56.096966" lon="26.547630">
<ele>86.335022</ele>
<time>2010-08-29T14:35:41Z</time>
<desc>lat.=56.096966, lon.=26.547630, Alt.=86.335022m. Speed=0.000000m/h.</desc>
<speed>0.000000</speed>
</trkpt>
<trkpt lat="56.096966" lon="26.547630">
<ele>86.340881</ele>
<time>2010-08-29T14:35:42Z</time>
<desc>lat.=56.096966, lon.=26.547630, Alt.=86.340881m. Speed=0.000000m/h.</desc>
<speed>0.000000</speed>
</trkpt>
<trkpt lat="56.096966" lon="26.547630">
<ele>86.346741</ele>
<time>2010-08-29T14:35:43Z</time>
<desc>lat.=56.096966, lon.=26.547630, Alt.=86.346741m. Speed=0.000000m/h.</desc>
<speed>0.000000</speed>
</trkpt>
<trkpt lat="56.096966" lon="26.547630">
<ele>86.350647</ele>
<time>2010-08-29T14:35:44Z</time>
<desc>lat.=56.096966, lon.=26.547630, Alt.=86.350647m. Speed=0.000000m/h.</desc>
<speed>0.000000</speed>
</trkpt>
<trkpt lat="56.096966" lon="26.547630">
<ele>86.356506</ele>
<time>2010-08-29T14:35:45Z</time>
<desc>lat.=56.096966, lon.=26.547630, Alt.=86.356506m. Speed=0.000000m/h.</desc>
<speed>0.000000</speed>
</trkpt>
<trkpt lat="56.096966" lon="26.547630">
<ele>86.362366</ele>
<time>2010-08-29T14:35:46Z</time>
<desc>lat.=56.096966, lon.=26.547630, Alt.=86.362366m. Speed=0.000000m/h.</desc>
<speed>0.000000</speed>
</trkpt>
<trkpt lat="56.096966" lon="26.547630">
<ele>86.368225</ele>
<time>2010-08-29T14:35:47Z</time>
<desc>lat.=56.096966, lon.=26.547630, Alt.=86.368225m. Speed=0.000000m/h.</desc>
<speed>0.000000</speed>
</trkpt>
<trkpt lat="56.096966" lon="26.547630">
<ele>86.374084</ele>
<time>2010-08-29T14:35:48Z</time>
<desc>lat.=56.096966, lon.=26.547630, Alt.=86.374084m. Speed=0.000000m/h.</desc>
<speed>0.000000</speed>
</trkpt>
<trkpt lat="56.096966" lon="26.547630">
<ele>86.379944</ele>
<time>2010-08-29T14:35:49Z</time>
<desc>lat.=56.096966, lon.=26.547630, Alt.=86.379944m. Speed=0.000000m/h.</desc>
<speed>0.000000</speed>
</trkpt>
<trkpt lat="56.096966" lon="26.547630">
<ele>86.385803</ele>
<time>2010-08-29T14:35:50Z</time>
<desc>lat.=56.096966, lon.=26.547630, Alt.=86.385803m. Speed=0.000000m/h.</desc>
<speed>0.000000</speed>
</trkpt>
<trkpt lat="56.096966" lon="26.547630">
<ele>86.393616</ele>
<time>2010-08-29T14:35:51Z</time>
<desc>lat.=56.096966, lon.=26.547630, Alt.=86.393616m. Speed=0.000000m/h.</desc>
<speed>0.000000</speed>
</trkpt>
<trkpt lat="56.096966" lon="26.547630">
<ele>86.399475</ele>
<time>2010-08-29T14:35:52Z</time>
<desc>lat.=56.096966, lon.=26.547630, Alt.=86.399475m. Speed=0.000000m/h.</desc>
<speed>0.000000</speed>
</trkpt>
<trkpt lat="56.096966" lon="26.547630">
<ele>86.405334</ele>
<time>2010-08-29T14:35:53Z</time>
<desc>lat.=56.096966, lon.=26.547630, Alt.=86.405334m. Speed=0.000000m/h.</desc>
<speed>0.000000</speed>
</trkpt>
<trkpt lat="56.096966" lon="26.547630">
<ele>86.413147</ele>
<time>2010-08-29T14:35:54Z</time>
<desc>lat.=56.096966, lon.=26.547630, Alt.=86.413147m. Speed=0.000000m/h.</desc>
<speed>0.000000</speed>
</trkpt>
<trkpt lat="56.096966" lon="26.547630">
<ele>86.419006</ele>
<time>2010-08-29T14:35:55Z</time>
<desc>lat.=56.096966, lon.=26.547630, Alt.=86.419006m. Speed=0.000000m/h.</desc>
<speed>0.000000</speed>
</trkpt>
<trkpt lat="56.096966" lon="26.547630">
<ele>86.424866</ele>
<time>2010-08-29T14:35:56Z</time>
<desc>lat.=56.096966, lon.=26.547630, Alt.=86.424866m. Speed=0.000000m/h.</desc>
<speed>0.000000</speed>
</trkpt>
<trkpt lat="56.096966" lon="26.547630">
<ele>86.430725</ele>
<time>2010-08-29T14:35:57Z</time>
<desc>lat.=56.096966, lon.=26.547630, Alt.=86.430725m. Speed=0.000000m/h.</desc>
<speed>0.000000</speed>
</trkpt>
<trkpt lat="56.096966" lon="26.547630">
<ele>86.436584</ele>
<time>2010-08-29T14:35:58Z</time>
<desc>lat.=56.096966, lon.=26.547630, Alt.=86.436584m. Speed=0.000000m/h.</desc>
<speed>0.000000</speed>
</trkpt>
<trkpt lat="56.096966" lon="26.547630">
<ele>86.444397</ele>
<time>2010-08-29T14:35:59Z</time>
<desc>lat.=56.096966, lon.=26.547630, Alt.=86.444397m. Speed=0.000000m/h.</desc>
<speed>0.000000</speed>
</trkpt>
<trkpt lat="56.096966" lon="26.547630">
<ele>86.450256</ele>
<time>2010-08-29T14:36:00Z</time>
<desc>lat.=56.096966, lon.=26.547630, Alt.=86.450256m. Speed=0.000000m/h.</desc>
<speed>0.000000</speed>
</trkpt>
<trkpt lat="56.096966" lon="26.547630">
<ele>86.456116</ele>
<time>2010-08-29T14:36:01Z</time>
<desc>lat.=56.096966, lon.=26.547630, Alt.=86.456116m. Speed=0.000000m/h.</desc>
<speed>0.000000</speed>
</trkpt>
<trkpt lat="56.096966" lon="26.547630">
<ele>86.461975</ele>
<time>2010-08-29T14:36:02Z</time>
<desc>lat.=56.096966, lon.=26.547630, Alt.=86.461975m. Speed=0.000000m/h.</desc>
<speed>0.000000</speed>
</trkpt>
<trkpt lat="56.096966" lon="26.547630">
<ele>86.469788</ele>
<time>2010-08-29T14:36:03Z</time>
<desc>lat.=56.096966, lon.=26.547630, Alt.=86.469788m. Speed=0.000000m/h.</desc>
<speed>0.000000</speed>
</trkpt>
<trkpt lat="56.096966" lon="26.547630">
<ele>86.477600</ele>
<time>2010-08-29T14:36:04Z</time>
<desc>lat.=56.096966, lon.=26.547630, Alt.=86.477600m. Speed=0.000000m/h.</desc>
<speed>0.000000</speed>
</trkpt>
<trkpt lat="56.096966" lon="26.547630">
<ele>86.485413</ele>
<time>2010-08-29T14:36:05Z</time>
<desc>lat.=56.096966, lon.=26.547630, Alt.=86.485413m. Speed=0.000000m/h.</desc>
<speed>0.000000</speed>
</trkpt>
<trkpt lat="56.096966" lon="26.547630">
<ele>86.491272</ele>
<time>2010-08-29T14:36:06Z</time>
<desc>lat.=56.096966, lon.=26.547630, Alt.=86.491272m. Speed=0.000000m/h.</desc>
<speed>0.000000</speed>
</trkpt>
<trkpt lat="56.096966" lon="26.547630">
<ele>86.497131</ele>
<time>2010-08-29T14:36:07Z</time>
<desc>lat.=56.096966, lon.=26.547630, Alt.=86.497131m. Speed=0.000000m/h.</desc>
<speed>0.000000</speed>
</trkpt>
<trkpt lat="56.096966" lon="26.547630">
<ele>86.504944</ele>
<time>2010-08-29T14:36:08Z</time>
<desc>lat.=56.096966, lon.=26.547630, Alt.=86.504944m. Speed=0.000000m/h.</desc>
<speed>0.000000</speed>
</trkpt>
<trkpt lat="56.096966" lon="26.547630">
<ele>86.510803</ele>
<time>2010-08-29T14:36:09Z</time>
<desc>lat.=56.096966, lon.=26.547630, Alt.=86.510803m. Speed=0.000000m/h.</desc>
<speed>0.000000</speed>
</trkpt>
<trkpt lat="56.096966" lon="26.547630">
<ele>86.518616</ele>
<time>2010-08-29T14:36:10Z</time>
<desc>lat.=56.096966, lon.=26.547630, Alt.=86.518616m. Speed=0.000000m/h.</desc>
<speed>0.000000</speed>
</trkpt>
<trkpt lat="56.096966" lon="26.547630">
<ele>86.524475</ele>
<time>2010-08-29T14:36:11Z</time>
<desc>lat.=56.096966, lon.=26.547630, Alt.=86.524475m. Speed=0.000000m/h.</desc>
<speed>0.000000</speed>
</trkpt>
<trkpt lat="56.096966" lon="26.547630">
<ele>86.530334</ele>
<time>2010-08-29T14:36:12Z</time>
<desc>lat.=56.096966, lon.=26.547630, Alt.=86.530334m. Speed=0.000000m/h.</desc>
<speed>0.000000</speed>
</trkpt>
<trkpt lat="56.096966" lon="26.547630">
<ele>86.538147</ele>
<time>2010-08-29T14:36:13Z</time>
<desc>lat.=56.096966, lon.=26.547630, Alt.=86.538147m. Speed=0.000000m/h.</desc>
<speed>0.000000</speed>
</trkpt>
<trkpt lat="56.096966" lon="26.547630">
<ele>86.545959</ele>
<time>2010-08-29T14:36:14Z</time>
<desc>lat.=56.096966, lon.=26.547630, Alt.=86.545959m. Speed=0.000000m/h.</desc>
<speed>0.000000</speed>
</trkpt>
<trkpt lat="56.096966" lon="26.547630">
<ele>86.553772</ele>
<time>2010-08-29T14:36:15Z</time>
<desc>lat.=56.096966, lon.=26.547630, Alt.=86.553772m. Speed=0.000000m/h.</desc>
<speed>0.000000</speed>
</trkpt>
<trkpt lat="56.096966" lon="26.547630">
<ele>86.557678</ele>
<time>2010-08-29T14:36:16Z</time>
<desc>lat.=56.096966, lon.=26.547630, Alt.=86.557678m. Speed=0.000000m/h.</desc>
<speed>0.000000</speed>
</trkpt>
<trkpt lat="56.096966" lon="26.547630">
<ele>86.565491</ele>
<time>2010-08-29T14:36:17Z</time>
<desc>lat.=56.096966, lon.=26.547630, Alt.=86.565491m. Speed=0.000000m/h.</desc>
<speed>0.000000</speed>
</trkpt>
<trkpt lat="56.096966" lon="26.547630">
<ele>86.573303</ele>
<time>2010-08-29T14:36:18Z</time>
<desc>lat.=56.096966, lon.=26.547630, Alt.=86.573303m. Speed=0.000000m/h.</desc>
<speed>0.000000</speed>
</trkpt>
<trkpt lat="56.096966" lon="26.547630">
<ele>86.581116</ele>
<time>2010-08-29T14:36:19Z</time>
<desc>lat.=56.096966, lon.=26.547630, Alt.=86.581116m. Speed=0.000000m/h.</desc>
<speed>0.000000</speed>
</trkpt>
<trkpt lat="56.096966" lon="26.547630">
<ele>86.586975</ele>
<time>2010-08-29T14:36:20Z</time>
<desc>lat.=56.096966, lon.=26.547630, Alt.=86.586975m. Speed=0.000000m/h.</desc>
<speed>0.000000</speed>
</trkpt>
<trkpt lat="56.096966" lon="26.547630">
<ele>86.592834</ele>
<time>2010-08-29T14:36:21Z</time>
<desc>lat.=56.096966, lon.=26.547630, Alt.=86.592834m. Speed=0.000000m/h.</desc>
<speed>0.000000</speed>
</trkpt>
<trkpt lat="56.096966" lon="26.547630">
<ele>86.600647</ele>
<time>2010-08-29T14:36:22Z</time>
<desc>lat.=56.096966, lon.=26.547630, Alt.=86.600647m. Speed=0.000000m/h.</desc>
<speed>0.000000</speed>
</trkpt>
<trkpt lat="56.096966" lon="26.547630">
<ele>86.606506</ele>
<time>2010-08-29T14:36:23Z</time>
<desc>lat.=56.096966, lon.=26.547630, Alt.=86.606506m. Speed=0.000000m/h.</desc>
<speed>0.000000</speed>
</trkpt>
<trkpt lat="56.096966" lon="26.547630">
<ele>86.614319</ele>
<time>2010-08-29T14:36:24Z</time>
<desc>lat.=56.096966, lon.=26.547630, Alt.=86.614319m. Speed=0.000000m/h.</desc>
<speed>0.000000</speed>
</trkpt>
<trkpt lat="56.096966" lon="26.547630">
<ele>86.622131</ele>
<time>2010-08-29T14:36:25Z</time>
<desc>lat.=56.096966, lon.=26.547630, Alt.=86.622131m. Speed=0.000000m/h.</desc>
<speed>0.000000</speed>
</trkpt>
<trkpt lat="56.096966" lon="26.547630">
<ele>86.627991</ele>
<time>2010-08-29T14:36:26Z</time>
<desc>lat.=56.096966, lon.=26.547630, Alt.=86.627991m. Speed=0.000000m/h.</desc>
<speed>0.000000</speed>
</trkpt>
<trkpt lat="56.096966" lon="26.547630">
<ele>86.635803</ele>
<time>2010-08-29T14:36:27Z</time>
<desc>lat.=56.096966, lon.=26.547630, Alt.=86.635803m. Speed=0.000000m/h.</desc>
<speed>0.000000</speed>
</trkpt>
<trkpt lat="56.096966" lon="26.547630">
<ele>86.643616</ele>
<time>2010-08-29T14:36:28Z</time>
<desc>lat.=56.096966, lon.=26.547630, Alt.=86.643616m. Speed=0.000000m/h.</desc>
<speed>0.000000</speed>
</trkpt>
<trkpt lat="56.096966" lon="26.547630">
<ele>86.651428</ele>
<time>2010-08-29T14:36:29Z</time>
<desc>lat.=56.096966, lon.=26.547630, Alt.=86.651428m. Speed=0.000000m/h.</desc>
<speed>0.000000</speed>
</trkpt>
<trkpt lat="56.096966" lon="26.547630">
<ele>86.659241</ele>
<time>2010-08-29T14:36:30Z</time>
<desc>lat.=56.096966, lon.=26.547630, Alt.=86.659241m. Speed=0.000000m/h.</desc>
<speed>0.000000</speed>
</trkpt>
<trkpt lat="56.096966" lon="26.547630">
<ele>86.667053</ele>
<time>2010-08-29T14:36:31Z</time>
<desc>lat.=56.096966, lon.=26.547630, Alt.=86.667053m. Speed=0.000000m/h.</desc>
<speed>0.000000</speed>
</trkpt>
<trkpt lat="56.096966" lon="26.547630">
<ele>86.674866</ele>
<time>2010-08-29T14:36:32Z</time>
<desc>lat.=56.096966, lon.=26.547630, Alt.=86.674866m. Speed=0.000000m/h.</desc>
<speed>0.000000</speed>
</trkpt>
<trkpt lat="56.096966" lon="26.547630">
<ele>86.682678</ele>
<time>2010-08-29T14:36:33Z</time>
<desc>lat.=56.096966, lon.=26.547630, Alt.=86.682678m. Speed=0.000000m/h.</desc>
<speed>0.000000</speed>
</trkpt>
<trkpt lat="56.096966" lon="26.547630">
<ele>86.688538</ele>
<time>2010-08-29T14:36:34Z</time>
<desc>lat.=56.096966, lon.=26.547630, Alt.=86.688538m. Speed=0.000000m/h.</desc>
<speed>0.000000</speed>
</trkpt>
<trkpt lat="56.096966" lon="26.547630">
<ele>86.696350</ele>
<time>2010-08-29T14:36:35Z</time>
<desc>lat.=56.096966, lon.=26.547630, Alt.=86.696350m. Speed=0.000000m/h.</desc>
<speed>0.000000</speed>
</trkpt>
<trkpt lat="56.096966" lon="26.547630">
<ele>86.706116</ele>
<time>2010-08-29T14:36:36Z</time>
<desc>lat.=56.096966, lon.=26.547630, Alt.=86.706116m. Speed=0.000000m/h.</desc>
<speed>0.000000</speed>
</trkpt>
<trkpt lat="56.096966" lon="26.547630">
<ele>86.713928</ele>
<time>2010-08-29T14:36:37Z</time>
<desc>lat.=56.096966, lon.=26.547630, Alt.=86.713928m. Speed=0.000000m/h.</desc>
<speed>0.000000</speed>
</trkpt>
<trkpt lat="56.096966" lon="26.547630">
<ele>86.719788</ele>
<time>2010-08-29T14:36:38Z</time>
<desc>lat.=56.096966, lon.=26.547630, Alt.=86.719788m. Speed=0.000000m/h.</desc>
<speed>0.000000</speed>
</trkpt>
<trkpt lat="56.096966" lon="26.547630">
<ele>86.725647</ele>
<time>2010-08-29T14:36:39Z</time>
<desc>lat.=56.096966, lon.=26.547630, Alt.=86.725647m. Speed=0.000000m/h.</desc>
<speed>0.000000</speed>
</trkpt>
<trkpt lat="56.096966" lon="26.547630">
<ele>86.731506</ele>
<time>2010-08-29T14:36:40Z</time>
<desc>lat.=56.096966, lon.=26.547630, Alt.=86.731506m. Speed=0.000000m/h.</desc>
<speed>0.000000</speed>
</trkpt>
<trkpt lat="56.096966" lon="26.547630">
<ele>86.739319</ele>
<time>2010-08-29T14:36:41Z</time>
<desc>lat.=56.096966, lon.=26.547630, Alt.=86.739319m. Speed=0.000000m/h.</desc>
<speed>0.000000</speed>
</trkpt>
<trkpt lat="56.096966" lon="26.547630">
<ele>86.747131</ele>
<time>2010-08-29T14:36:42Z</time>
<desc>lat.=56.096966, lon.=26.547630, Alt.=86.747131m. Speed=0.000000m/h.</desc>
<speed>0.000000</speed>
</trkpt>
<trkpt lat="56.096966" lon="26.547630">
<ele>86.752991</ele>
<time>2010-08-29T14:36:43Z</time>
<desc>lat.=56.096966, lon.=26.547630, Alt.=86.752991m. Speed=0.000000m/h.</desc>
<speed>0.000000</speed>
</trkpt>
<trkpt lat="56.096966" lon="26.547630">
<ele>86.760803</ele>
<time>2010-08-29T14:36:44Z</time>
<desc>lat.=56.096966, lon.=26.547630, Alt.=86.760803m. Speed=0.000000m/h.</desc>
<speed>0.000000</speed>
</trkpt>
<trkpt lat="56.096966" lon="26.547630">
<ele>86.766663</ele>
<time>2010-08-29T14:36:45Z</time>
<desc>lat.=56.096966, lon.=26.547630, Alt.=86.766663m. Speed=0.000000m/h.</desc>
<speed>0.000000</speed>
</trkpt>
<trkpt lat="56.096966" lon="26.547630">
<ele>86.772522</ele>
<time>2010-08-29T14:36:46Z</time>
<desc>lat.=56.096966, lon.=26.547630, Alt.=86.772522m. Speed=0.000000m/h.</desc>
<speed>0.000000</speed>
</trkpt>
<trkpt lat="56.096966" lon="26.547630">
<ele>86.780334</ele>
<time>2010-08-29T14:36:47Z</time>
<desc>lat.=56.096966, lon.=26.547630, Alt.=86.780334m. Speed=0.000000m/h.</desc>
<speed>0.000000</speed>
</trkpt>
<trkpt lat="56.096966" lon="26.547630">
<ele>86.788147</ele>
<time>2010-08-29T14:36:48Z</time>
<desc>lat.=56.096966, lon.=26.547630, Alt.=86.788147m. Speed=0.000000m/h.</desc>
<speed>0.000000</speed>
</trkpt>
<trkpt lat="56.096966" lon="26.547630">
<ele>86.794006</ele>
<time>2010-08-29T14:36:49Z</time>
<desc>lat.=56.096966, lon.=26.547630, Alt.=86.794006m. Speed=0.000000m/h.</desc>
<speed>0.000000</speed>
</trkpt>
<trkpt lat="56.096966" lon="26.547630">
<ele>86.801819</ele>
<time>2010-08-29T14:36:50Z</time>
<desc>lat.=56.096966, lon.=26.547630, Alt.=86.801819m. Speed=0.000000m/h.</desc>
<speed>0.000000</speed>
</trkpt>
<trkpt lat="56.096966" lon="26.547630">
<ele>86.807678</ele>
<time>2010-08-29T14:36:51Z</time>
<desc>lat.=56.096966, lon.=26.547630, Alt.=86.807678m. Speed=0.000000m/h.</desc>
<speed>0.000000</speed>
</trkpt>
<trkpt lat="56.096966" lon="26.547630">
<ele>86.813538</ele>
<time>2010-08-29T14:36:52Z</time>
<desc>lat.=56.096966, lon.=26.547630, Alt.=86.813538m. Speed=0.000000m/h.</desc>
<speed>0.000000</speed>
</trkpt>
<trkpt lat="56.096966" lon="26.547632">
<ele>86.819397</ele>
<time>2010-08-29T14:36:53Z</time>
<desc>lat.=56.096966, lon.=26.547632, Alt.=86.819397m. Speed=0.000000m/h.</desc>
<speed>0.000000</speed>
</trkpt>
<trkpt lat="56.096966" lon="26.547632">
<ele>86.825256</ele>
<time>2010-08-29T14:36:54Z</time>
<desc>lat.=56.096966, lon.=26.547632, Alt.=86.825256m. Speed=0.000000m/h.</desc>
<speed>0.000000</speed>
</trkpt>
<trkpt lat="56.096966" lon="26.547632">
<ele>86.831116</ele>
<time>2010-08-29T14:36:55Z</time>
<desc>lat.=56.096966, lon.=26.547632, Alt.=86.831116m. Speed=0.000000m/h.</desc>
<speed>0.000000</speed>
</trkpt>
<trkpt lat="56.096966" lon="26.547632">
<ele>86.836975</ele>
<time>2010-08-29T14:36:56Z</time>
<desc>lat.=56.096966, lon.=26.547632, Alt.=86.836975m. Speed=0.000000m/h.</desc>
<speed>0.000000</speed>
</trkpt>
<trkpt lat="56.096966" lon="26.547632">
<ele>86.842834</ele>
<time>2010-08-29T14:36:57Z</time>
<desc>lat.=56.096966, lon.=26.547632, Alt.=86.842834m. Speed=0.000000m/h.</desc>
<speed>0.000000</speed>
</trkpt>
<trkpt lat="56.096966" lon="26.547632">
<ele>86.848694</ele>
<time>2010-08-29T14:36:58Z</time>
<desc>lat.=56.096966, lon.=26.547632, Alt.=86.848694m. Speed=0.000000m/h.</desc>
<speed>0.000000</speed>
</trkpt>
<trkpt lat="56.096966" lon="26.547632">
<ele>86.854553</ele>
<time>2010-08-29T14:36:59Z</time>
<desc>lat.=56.096966, lon.=26.547632, Alt.=86.854553m. Speed=0.000000m/h.</desc>
<speed>0.000000</speed>
</trkpt>
<trkpt lat="56.096966" lon="26.547632">
<ele>86.860413</ele>
<time>2010-08-29T14:37:00Z</time>
<desc>lat.=56.096966, lon.=26.547632, Alt.=86.860413m. Speed=0.000000m/h.</desc>
<speed>0.000000</speed>
</trkpt>
<trkpt lat="56.096966" lon="26.547632">
<ele>86.864319</ele>
<time>2010-08-29T14:37:01Z</time>
<desc>lat.=56.096966, lon.=26.547632, Alt.=86.864319m. Speed=0.000000m/h.</desc>
<speed>0.000000</speed>
</trkpt>
<trkpt lat="56.096966" lon="26.547632">
<ele>86.870178</ele>
<time>2010-08-29T14:37:02Z</time>
<desc>lat.=56.096966, lon.=26.547632, Alt.=86.870178m. Speed=0.000000m/h.</desc>
<speed>0.000000</speed>
</trkpt>
<trkpt lat="56.096966" lon="26.547632">
<ele>86.876038</ele>
<time>2010-08-29T14:37:03Z</time>
<desc>lat.=56.096966, lon.=26.547632, Alt.=86.876038m. Speed=0.000000m/h.</desc>
<speed>0.000000</speed>
</trkpt>
<trkpt lat="56.096966" lon="26.547632">
<ele>86.881897</ele>
<time>2010-08-29T14:37:04Z</time>
<desc>lat.=56.096966, lon.=26.547632, Alt.=86.881897m. Speed=0.000000m/h.</desc>
<speed>0.000000</speed>
</trkpt>
<trkpt lat="56.096966" lon="26.547632">
<ele>86.887756</ele>
<time>2010-08-29T14:37:05Z</time>
<desc>lat.=56.096966, lon.=26.547632, Alt.=86.887756m. Speed=0.000000m/h.</desc>
<speed>0.000000</speed>
</trkpt>
<trkpt lat="56.096966" lon="26.547632">
<ele>86.891663</ele>
<time>2010-08-29T14:37:06Z</time>
<desc>lat.=56.096966, lon.=26.547632, Alt.=86.891663m. Speed=0.000000m/h.</desc>
<speed>0.000000</speed>
</trkpt>
<trkpt lat="56.096966" lon="26.547632">
<ele>86.897522</ele>
<time>2010-08-29T14:37:07Z</time>
<desc>lat.=56.096966, lon.=26.547632, Alt.=86.897522m. Speed=0.000000m/h.</desc>
<speed>0.000000</speed>
</trkpt>
<trkpt lat="56.096966" lon="26.547632">
<ele>86.903381</ele>
<time>2010-08-29T14:37:08Z</time>
<desc>lat.=56.096966, lon.=26.547632, Alt.=86.903381m. Speed=0.000000m/h.</desc>
<speed>0.000000</speed>
</trkpt>
<trkpt lat="56.096966" lon="26.547632">
<ele>86.909241</ele>
<time>2010-08-29T14:37:09Z</time>
<desc>lat.=56.096966, lon.=26.547632, Alt.=86.909241m. Speed=0.000000m/h.</desc>
<speed>0.000000</speed>
</trkpt>
<trkpt lat="56.096966" lon="26.547632">
<ele>86.917053</ele>
<time>2010-08-29T14:37:10Z</time>
<desc>lat.=56.096966, lon.=26.547632, Alt.=86.917053m. Speed=0.000000m/h.</desc>
<speed>0.000000</speed>
</trkpt>
<trkpt lat="56.096966" lon="26.547632">
<ele>86.920959</ele>
<time>2010-08-29T14:37:11Z</time>
<desc>lat.=56.096966, lon.=26.547632, Alt.=86.920959m. Speed=0.000000m/h.</desc>
<speed>0.000000</speed>
</trkpt>
<trkpt lat="56.096966" lon="26.547632">
<ele>86.926819</ele>
<time>2010-08-29T14:37:12Z</time>
<desc>lat.=56.096966, lon.=26.547632, Alt.=86.926819m. Speed=0.036000m/h.</desc>
<speed>0.010000</speed>
</trkpt>
<trkpt lat="56.096966" lon="26.547632">
<ele>86.930725</ele>
<time>2010-08-29T14:37:13Z</time>
<desc>lat.=56.096966, lon.=26.547632, Alt.=86.930725m. Speed=0.036000m/h.</desc>
<speed>0.010000</speed>
</trkpt>
<trkpt lat="56.096966" lon="26.547632">
<ele>86.934631</ele>
<time>2010-08-29T14:37:14Z</time>
<desc>lat.=56.096966, lon.=26.547632, Alt.=86.934631m. Speed=0.000000m/h.</desc>
<speed>0.000000</speed>
</trkpt>
<trkpt lat="56.096966" lon="26.547632">
<ele>86.940491</ele>
<time>2010-08-29T14:37:15Z</time>
<desc>lat.=56.096966, lon.=26.547632, Alt.=86.940491m. Speed=0.000000m/h.</desc>
<speed>0.000000</speed>
</trkpt>
<trkpt lat="56.096966" lon="26.547632">
<ele>86.946350</ele>
<time>2010-08-29T14:37:16Z</time>
<desc>lat.=56.096966, lon.=26.547632, Alt.=86.946350m. Speed=0.000000m/h.</desc>
<speed>0.000000</speed>
</trkpt>
<trkpt lat="56.096966" lon="26.547632">
<ele>86.952209</ele>
<time>2010-08-29T14:37:17Z</time>
<desc>lat.=56.096966, lon.=26.547632, Alt.=86.952209m. Speed=0.000000m/h.</desc>
<speed>0.000000</speed>
</trkpt>
<trkpt lat="56.096966" lon="26.547632">
<ele>86.961975</ele>
<time>2010-08-29T14:37:18Z</time>
<desc>lat.=56.096966, lon.=26.547632, Alt.=86.961975m. Speed=0.000000m/h.</desc>
<speed>0.000000</speed>
</trkpt>
<trkpt lat="56.096966" lon="26.547632">
<ele>86.967834</ele>
<time>2010-08-29T14:37:19Z</time>
<desc>lat.=56.096966, lon.=26.547632, Alt.=86.967834m. Speed=0.036000m/h.</desc>
<speed>0.010000</speed>
</trkpt>
<trkpt lat="56.096966" lon="26.547632">
<ele>86.973694</ele>
<time>2010-08-29T14:37:20Z</time>
<desc>lat.=56.096966, lon.=26.547632, Alt.=86.973694m. Speed=0.036000m/h.</desc>
<speed>0.010000</speed>
</trkpt>
<trkpt lat="56.096966" lon="26.547632">
<ele>86.977600</ele>
<time>2010-08-29T14:37:21Z</time>
<desc>lat.=56.096966, lon.=26.547632, Alt.=86.977600m. Speed=0.000000m/h.</desc>
<speed>0.000000</speed>
</trkpt>
<trkpt lat="56.096966" lon="26.547632">
<ele>86.983459</ele>
<time>2010-08-29T14:37:22Z</time>
<desc>lat.=56.096966, lon.=26.547632, Alt.=86.983459m. Speed=0.000000m/h.</desc>
<speed>0.000000</speed>
</trkpt>
<trkpt lat="56.096966" lon="26.547632">
<ele>86.989319</ele>
<time>2010-08-29T14:37:23Z</time>
<desc>lat.=56.096966, lon.=26.547632, Alt.=86.989319m. Speed=0.000000m/h.</desc>
<speed>0.000000</speed>
</trkpt>
<trkpt lat="56.096966" lon="26.547632">
<ele>86.995178</ele>
<time>2010-08-29T14:37:24Z</time>
<desc>lat.=56.096966, lon.=26.547632, Alt.=86.995178m. Speed=0.000000m/h.</desc>
<speed>0.000000</speed>
</trkpt>
<trkpt lat="56.096966" lon="26.547632">
<ele>87.001038</ele>
<time>2010-08-29T14:37:25Z</time>
<desc>lat.=56.096966, lon.=26.547632, Alt.=87.001038m. Speed=0.000000m/h.</desc>
<speed>0.000000</speed>
</trkpt>
<trkpt lat="56.096966" lon="26.547632">
<ele>87.006897</ele>
<time>2010-08-29T14:37:26Z</time>
<desc>lat.=56.096966, lon.=26.547632, Alt.=87.006897m. Speed=0.000000m/h.</desc>
<speed>0.000000</speed>
</trkpt>
<trkpt lat="56.096966" lon="26.547632">
<ele>87.012756</ele>
<time>2010-08-29T14:37:27Z</time>
<desc>lat.=56.096966, lon.=26.547632, Alt.=87.012756m. Speed=0.000000m/h.</desc>
<speed>0.000000</speed>
</trkpt>
<trkpt lat="56.096966" lon="26.547632">
<ele>87.018616</ele>
<time>2010-08-29T14:37:28Z</time>
<desc>lat.=56.096966, lon.=26.547632, Alt.=87.018616m. Speed=0.000000m/h.</desc>
<speed>0.000000</speed>
</trkpt>
<trkpt lat="56.096966" lon="26.547632">
<ele>87.024475</ele>
<time>2010-08-29T14:37:29Z</time>
<desc>lat.=56.096966, lon.=26.547632, Alt.=87.024475m. Speed=0.036000m/h.</desc>
<speed>0.010000</speed>
</trkpt>
<trkpt lat="56.096966" lon="26.547632">
<ele>87.030334</ele>
<time>2010-08-29T14:37:30Z</time>
<desc>lat.=56.096966, lon.=26.547632, Alt.=87.030334m. Speed=0.036000m/h.</desc>
<speed>0.010000</speed>
</trkpt>
<trkpt lat="56.096966" lon="26.547632">
<ele>87.034241</ele>
<time>2010-08-29T14:37:31Z</time>
<desc>lat.=56.096966, lon.=26.547632, Alt.=87.034241m. Speed=0.000000m/h.</desc>
<speed>0.000000</speed>
</trkpt>
<trkpt lat="56.096966" lon="26.547632">
<ele>87.040100</ele>
<time>2010-08-29T14:37:32Z</time>
<desc>lat.=56.096966, lon.=26.547632, Alt.=87.040100m. Speed=0.000000m/h.</desc>
<speed>0.000000</speed>
</trkpt>
<trkpt lat="56.096966" lon="26.547632">
<ele>87.044006</ele>
<time>2010-08-29T14:37:33Z</time>
<desc>lat.=56.096966, lon.=26.547632, Alt.=87.044006m. Speed=0.000000m/h.</desc>
<speed>0.000000</speed>
</trkpt>
<trkpt lat="56.096966" lon="26.547632">
<ele>87.049866</ele>
<time>2010-08-29T14:37:34Z</time>
<desc>lat.=56.096966, lon.=26.547632, Alt.=87.049866m. Speed=0.000000m/h.</desc>
<speed>0.000000</speed>
</trkpt>
<trkpt lat="56.096966" lon="26.547632">
<ele>87.053772</ele>
<time>2010-08-29T14:37:35Z</time>
<desc>lat.=56.096966, lon.=26.547632, Alt.=87.053772m. Speed=0.000000m/h.</desc>
<speed>0.000000</speed>
</trkpt>
<trkpt lat="56.096966" lon="26.547632">
<ele>87.061584</ele>
<time>2010-08-29T14:37:36Z</time>
<desc>lat.=56.096966, lon.=26.547632, Alt.=87.061584m. Speed=0.000000m/h.</desc>
<speed>0.000000</speed>
</trkpt>
<trkpt lat="56.096966" lon="26.547632">
<ele>87.067444</ele>
<time>2010-08-29T14:37:37Z</time>
<desc>lat.=56.096966, lon.=26.547632, Alt.=87.067444m. Speed=0.036000m/h.</desc>
<speed>0.010000</speed>
</trkpt>
<trkpt lat="56.096966" lon="26.547632">
<ele>87.073303</ele>
<time>2010-08-29T14:37:38Z</time>
<desc>lat.=56.096966, lon.=26.547632, Alt.=87.073303m. Speed=0.000000m/h.</desc>
<speed>0.000000</speed>
</trkpt>
<trkpt lat="56.096966" lon="26.547632">
<ele>87.079163</ele>
<time>2010-08-29T14:37:39Z</time>
<desc>lat.=56.096966, lon.=26.547632, Alt.=87.079163m. Speed=0.000000m/h.</desc>
<speed>0.000000</speed>
</trkpt>
<trkpt lat="56.096966" lon="26.547632">
<ele>87.085022</ele>
<time>2010-08-29T14:37:40Z</time>
<desc>lat.=56.096966, lon.=26.547632, Alt.=87.085022m. Speed=0.000000m/h.</desc>
<speed>0.000000</speed>
</trkpt>
<trkpt lat="56.096966" lon="26.547632">
<ele>87.088928</ele>
<time>2010-08-29T14:37:41Z</time>
<desc>lat.=56.096966, lon.=26.547632, Alt.=87.088928m. Speed=0.000000m/h.</desc>
<speed>0.000000</speed>
</trkpt>
<trkpt lat="56.096966" lon="26.547632">
<ele>87.094788</ele>
<time>2010-08-29T14:37:42Z</time>
<desc>lat.=56.096966, lon.=26.547632, Alt.=87.094788m. Speed=0.000000m/h.</desc>
<speed>0.000000</speed>
</trkpt>
<trkpt lat="56.096966" lon="26.547632">
<ele>87.100647</ele>
<time>2010-08-29T14:37:43Z</time>
<desc>lat.=56.096966, lon.=26.547632, Alt.=87.100647m. Speed=0.000000m/h.</desc>
<speed>0.000000</speed>
</trkpt>
<trkpt lat="56.096966" lon="26.547632">
<ele>87.104553</ele>
<time>2010-08-29T14:37:44Z</time>
<desc>lat.=56.096966, lon.=26.547632, Alt.=87.104553m. Speed=0.000000m/h.</desc>
<speed>0.000000</speed>
</trkpt>
<trkpt lat="56.096966" lon="26.547632">
<ele>87.112366</ele>
<time>2010-08-29T14:37:45Z</time>
<desc>lat.=56.096966, lon.=26.547632, Alt.=87.112366m. Speed=0.000000m/h.</desc>
<speed>0.000000</speed>
</trkpt>
<trkpt lat="56.096966" lon="26.547632">
<ele>87.118225</ele>
<time>2010-08-29T14:37:46Z</time>
<desc>lat.=56.096966, lon.=26.547632, Alt.=87.118225m. Speed=0.000000m/h.</desc>
<speed>0.000000</speed>
</trkpt>
<trkpt lat="56.096966" lon="26.547632">
<ele>87.126038</ele>
<time>2010-08-29T14:37:47Z</time>
<desc>lat.=56.096966, lon.=26.547632, Alt.=87.126038m. Speed=0.000000m/h.</desc>
<speed>0.000000</speed>
</trkpt>
<trkpt lat="56.096966" lon="26.547632">
<ele>87.133850</ele>
<time>2010-08-29T14:37:48Z</time>
<desc>lat.=56.096966, lon.=26.547632, Alt.=87.133850m. Speed=0.000000m/h.</desc>
<speed>0.000000</speed>
</trkpt>
<trkpt lat="56.096966" lon="26.547632">
<ele>87.141663</ele>
<time>2010-08-29T14:37:49Z</time>
<desc>lat.=56.096966, lon.=26.547632, Alt.=87.141663m. Speed=0.000000m/h.</desc>
<speed>0.000000</speed>
</trkpt>
<trkpt lat="56.096966" lon="26.547632">
<ele>87.149475</ele>
<time>2010-08-29T14:37:50Z</time>
<desc>lat.=56.096966, lon.=26.547632, Alt.=87.149475m. Speed=0.000000m/h.</desc>
<speed>0.000000</speed>
</trkpt>
<trkpt lat="56.096966" lon="26.547632">
<ele>87.153381</ele>
<time>2010-08-29T14:37:51Z</time>
<desc>lat.=56.096966, lon.=26.547632, Alt.=87.153381m. Speed=0.000000m/h.</desc>
<speed>0.000000</speed>
</trkpt>
<trkpt lat="56.096966" lon="26.547632">
<ele>87.159241</ele>
<time>2010-08-29T14:37:52Z</time>
<desc>lat.=56.096966, lon.=26.547632, Alt.=87.159241m. Speed=0.000000m/h.</desc>
<speed>0.000000</speed>
</trkpt>
<trkpt lat="56.096966" lon="26.547634">
<ele>87.165100</ele>
<time>2010-08-29T14:37:53Z</time>
<desc>lat.=56.096966, lon.=26.547634, Alt.=87.165100m. Speed=0.000000m/h.</desc>
<speed>0.000000</speed>
</trkpt>
<trkpt lat="56.096966" lon="26.547634">
<ele>87.169006</ele>
<time>2010-08-29T14:37:54Z</time>
<desc>lat.=56.096966, lon.=26.547634, Alt.=87.169006m. Speed=0.000000m/h.</desc>
<speed>0.000000</speed>
</trkpt>
<trkpt lat="56.096966" lon="26.547634">
<ele>87.172913</ele>
<time>2010-08-29T14:37:55Z</time>
<desc>lat.=56.096966, lon.=26.547634, Alt.=87.172913m. Speed=0.000000m/h.</desc>
<speed>0.000000</speed>
</trkpt>
<trkpt lat="56.096966" lon="26.547634">
<ele>87.178772</ele>
<time>2010-08-29T14:37:56Z</time>
<desc>lat.=56.096966, lon.=26.547634, Alt.=87.178772m. Speed=0.000000m/h.</desc>
<speed>0.000000</speed>
</trkpt>
<trkpt lat="56.096966" lon="26.547634">
<ele>87.184631</ele>
<time>2010-08-29T14:37:57Z</time>
<desc>lat.=56.096966, lon.=26.547634, Alt.=87.184631m. Speed=0.000000m/h.</desc>
<speed>0.000000</speed>
</trkpt>
<trkpt lat="56.096966" lon="26.547634">
<ele>87.190491</ele>
<time>2010-08-29T14:37:58Z</time>
<desc>lat.=56.096966, lon.=26.547634, Alt.=87.190491m. Speed=0.000000m/h.</desc>
<speed>0.000000</speed>
</trkpt>
<trkpt lat="56.096966" lon="26.547634">
<ele>87.198303</ele>
<time>2010-08-29T14:37:59Z</time>
<desc>lat.=56.096966, lon.=26.547634, Alt.=87.198303m. Speed=0.000000m/h.</desc>
<speed>0.000000</speed>
</trkpt>
<trkpt lat="56.096966" lon="26.547634">
<ele>87.208069</ele>
<time>2010-08-29T14:38:00Z</time>
<desc>lat.=56.096966, lon.=26.547634, Alt.=87.208069m. Speed=0.000000m/h.</desc>
<speed>0.000000</speed>
</trkpt>
<trkpt lat="56.096966" lon="26.547634">
<ele>87.215881</ele>
<time>2010-08-29T14:38:01Z</time>
<desc>lat.=56.096966, lon.=26.547634, Alt.=87.215881m. Speed=0.000000m/h.</desc>
<speed>0.000000</speed>
</trkpt>
<trkpt lat="56.096966" lon="26.547634">
<ele>87.223694</ele>
<time>2010-08-29T14:38:02Z</time>
<desc>lat.=56.096966, lon.=26.547634, Alt.=87.223694m. Speed=0.000000m/h.</desc>
<speed>0.000000</speed>
</trkpt>
<trkpt lat="56.096966" lon="26.547634">
<ele>87.231506</ele>
<time>2010-08-29T14:38:03Z</time>
<desc>lat.=56.096966, lon.=26.547634, Alt.=87.231506m. Speed=0.000000m/h.</desc>
<speed>0.000000</speed>
</trkpt>
<trkpt lat="56.096966" lon="26.547634">
<ele>87.239319</ele>
<time>2010-08-29T14:38:04Z</time>
<desc>lat.=56.096966, lon.=26.547634, Alt.=87.239319m. Speed=0.000000m/h.</desc>
<speed>0.000000</speed>
</trkpt>
<trkpt lat="56.096966" lon="26.547634">
<ele>87.247131</ele>
<time>2010-08-29T14:38:05Z</time>
<desc>lat.=56.096966, lon.=26.547634, Alt.=87.247131m. Speed=0.000000m/h.</desc>
<speed>0.000000</speed>
</trkpt>
<trkpt lat="56.096966" lon="26.547634">
<ele>87.252991</ele>
<time>2010-08-29T14:38:06Z</time>
<desc>lat.=56.096966, lon.=26.547634, Alt.=87.252991m. Speed=0.000000m/h.</desc>
<speed>0.000000</speed>
</trkpt>
<trkpt lat="56.096966" lon="26.547634">
<ele>87.258850</ele>
<time>2010-08-29T14:38:07Z</time>
<desc>lat.=56.096966, lon.=26.547634, Alt.=87.258850m. Speed=0.000000m/h.</desc>
<speed>0.000000</speed>
</trkpt>
<trkpt lat="56.096966" lon="26.547634">
<ele>87.266663</ele>
<time>2010-08-29T14:38:08Z</time>
<desc>lat.=56.096966, lon.=26.547634, Alt.=87.266663m. Speed=0.000000m/h.</desc>
<speed>0.000000</speed>
</trkpt>
<trkpt lat="56.096966" lon="26.547634">
<ele>87.272522</ele>
<time>2010-08-29T14:38:09Z</time>
<desc>lat.=56.096966, lon.=26.547634, Alt.=87.272522m. Speed=0.000000m/h.</desc>
<speed>0.000000</speed>
</trkpt>
<trkpt lat="56.096966" lon="26.547634">
<ele>87.278381</ele>
<time>2010-08-29T14:38:10Z</time>
<desc>lat.=56.096966, lon.=26.547634, Alt.=87.278381m. Speed=0.000000m/h.</desc>
<speed>0.000000</speed>
</trkpt>
<trkpt lat="56.096966" lon="26.547634">
<ele>87.284241</ele>
<time>2010-08-29T14:38:11Z</time>
<desc>lat.=56.096966, lon.=26.547634, Alt.=87.284241m. Speed=0.000000m/h.</desc>
<speed>0.000000</speed>
</trkpt>
<trkpt lat="56.096966" lon="26.547634">
<ele>87.290100</ele>
<time>2010-08-29T14:38:12Z</time>
<desc>lat.=56.096966, lon.=26.547634, Alt.=87.290100m. Speed=0.000000m/h.</desc>
<speed>0.000000</speed>
</trkpt>
<trkpt lat="56.096966" lon="26.547634">
<ele>87.295959</ele>
<time>2010-08-29T14:38:13Z</time>
<desc>lat.=56.096966, lon.=26.547634, Alt.=87.295959m. Speed=0.000000m/h.</desc>
<speed>0.000000</speed>
</trkpt>
<trkpt lat="56.096966" lon="26.547634">
<ele>87.301819</ele>
<time>2010-08-29T14:38:14Z</time>
<desc>lat.=56.096966, lon.=26.547634, Alt.=87.301819m. Speed=0.000000m/h.</desc>
<speed>0.000000</speed>
</trkpt>
<trkpt lat="56.096966" lon="26.547634">
<ele>87.307678</ele>
<time>2010-08-29T14:38:15Z</time>
<desc>lat.=56.096966, lon.=26.547634, Alt.=87.307678m. Speed=0.000000m/h.</desc>
<speed>0.000000</speed>
</trkpt>
<trkpt lat="56.096966" lon="26.547634">
<ele>87.313538</ele>
<time>2010-08-29T14:38:16Z</time>
<desc>lat.=56.096966, lon.=26.547634, Alt.=87.313538m. Speed=0.000000m/h.</desc>
<speed>0.000000</speed>
</trkpt>
<trkpt lat="56.096966" lon="26.547634">
<ele>87.319397</ele>
<time>2010-08-29T14:38:17Z</time>
<desc>lat.=56.096966, lon.=26.547634, Alt.=87.319397m. Speed=0.000000m/h.</desc>
<speed>0.000000</speed>
</trkpt>
<trkpt lat="56.096966" lon="26.547634">
<ele>87.327209</ele>
<time>2010-08-29T14:38:18Z</time>
<desc>lat.=56.096966, lon.=26.547634, Alt.=87.327209m. Speed=0.000000m/h.</desc>
<speed>0.000000</speed>
</trkpt>
<trkpt lat="56.096966" lon="26.547634">
<ele>87.335022</ele>
<time>2010-08-29T14:38:19Z</time>
<desc>lat.=56.096966, lon.=26.547634, Alt.=87.335022m. Speed=0.000000m/h.</desc>
<speed>0.000000</speed>
</trkpt>
<trkpt lat="56.096966" lon="26.547634">
<ele>87.340881</ele>
<time>2010-08-29T14:38:20Z</time>
<desc>lat.=56.096966, lon.=26.547634, Alt.=87.340881m. Speed=0.000000m/h.</desc>
<speed>0.000000</speed>
</trkpt>
<trkpt lat="56.096966" lon="26.547634">
<ele>87.348694</ele>
<time>2010-08-29T14:38:21Z</time>
<desc>lat.=56.096966, lon.=26.547634, Alt.=87.348694m. Speed=0.000000m/h.</desc>
<speed>0.000000</speed>
</trkpt>
<trkpt lat="56.096966" lon="26.547634">
<ele>87.356506</ele>
<time>2010-08-29T14:38:22Z</time>
<desc>lat.=56.096966, lon.=26.547634, Alt.=87.356506m. Speed=0.000000m/h.</desc>
<speed>0.000000</speed>
</trkpt>
<trkpt lat="56.096966" lon="26.547634">
<ele>87.364319</ele>
<time>2010-08-29T14:38:23Z</time>
<desc>lat.=56.096966, lon.=26.547634, Alt.=87.364319m. Speed=0.000000m/h.</desc>
<speed>0.000000</speed>
</trkpt>
<trkpt lat="56.096966" lon="26.547634">
<ele>87.370178</ele>
<time>2010-08-29T14:38:24Z</time>
<desc>lat.=56.096966, lon.=26.547634, Alt.=87.370178m. Speed=0.000000m/h.</desc>
<speed>0.000000</speed>
</trkpt>
<trkpt lat="56.096966" lon="26.547634">
<ele>87.376038</ele>
<time>2010-08-29T14:38:25Z</time>
<desc>lat.=56.096966, lon.=26.547634, Alt.=87.376038m. Speed=0.000000m/h.</desc>
<speed>0.000000</speed>
</trkpt>
<trkpt lat="56.096966" lon="26.547634">
<ele>87.381897</ele>
<time>2010-08-29T14:38:26Z</time>
<desc>lat.=56.096966, lon.=26.547634, Alt.=87.381897m. Speed=0.000000m/h.</desc>
<speed>0.000000</speed>
</trkpt>
<trkpt lat="56.096966" lon="26.547634">
<ele>87.387756</ele>
<time>2010-08-29T14:38:27Z</time>
<desc>lat.=56.096966, lon.=26.547634, Alt.=87.387756m. Speed=0.000000m/h.</desc>
<speed>0.000000</speed>
</trkpt>
<trkpt lat="56.096966" lon="26.547634">
<ele>87.393616</ele>
<time>2010-08-29T14:38:28Z</time>
<desc>lat.=56.096966, lon.=26.547634, Alt.=87.393616m. Speed=0.000000m/h.</desc>
<speed>0.000000</speed>
</trkpt>
<trkpt lat="56.096966" lon="26.547634">
<ele>87.399475</ele>
<time>2010-08-29T14:38:29Z</time>
<desc>lat.=56.096966, lon.=26.547634, Alt.=87.399475m. Speed=0.000000m/h.</desc>
<speed>0.000000</speed>
</trkpt>
<trkpt lat="56.096966" lon="26.547634">
<ele>87.403381</ele>
<time>2010-08-29T14:38:30Z</time>
<desc>lat.=56.096966, lon.=26.547634, Alt.=87.403381m. Speed=0.000000m/h.</desc>
<speed>0.000000</speed>
</trkpt>
<trkpt lat="56.096966" lon="26.547634">
<ele>87.409241</ele>
<time>2010-08-29T14:38:31Z</time>
<desc>lat.=56.096966, lon.=26.547634, Alt.=87.409241m. Speed=0.000000m/h.</desc>
<speed>0.000000</speed>
</trkpt>
<trkpt lat="56.096966" lon="26.547634">
<ele>87.415100</ele>
<time>2010-08-29T14:38:32Z</time>
<desc>lat.=56.096966, lon.=26.547634, Alt.=87.415100m. Speed=0.000000m/h.</desc>
<speed>0.000000</speed>
</trkpt>
<trkpt lat="56.096966" lon="26.547634">
<ele>87.420959</ele>
<time>2010-08-29T14:38:33Z</time>
<desc>lat.=56.096966, lon.=26.547634, Alt.=87.420959m. Speed=0.000000m/h.</desc>
<speed>0.000000</speed>
</trkpt>
<trkpt lat="56.096966" lon="26.547634">
<ele>87.424866</ele>
<time>2010-08-29T14:38:34Z</time>
<desc>lat.=56.096966, lon.=26.547634, Alt.=87.424866m. Speed=0.000000m/h.</desc>
<speed>0.000000</speed>
</trkpt>
<trkpt lat="56.096966" lon="26.547636">
<ele>87.430725</ele>
<time>2010-08-29T14:38:35Z</time>
<desc>lat.=56.096966, lon.=26.547636, Alt.=87.430725m. Speed=0.000000m/h.</desc>
<speed>0.000000</speed>
</trkpt>
<trkpt lat="56.096966" lon="26.547636">
<ele>87.436584</ele>
<time>2010-08-29T14:38:36Z</time>
<desc>lat.=56.096966, lon.=26.547636, Alt.=87.436584m. Speed=0.000000m/h.</desc>
<speed>0.000000</speed>
</trkpt>
<trkpt lat="56.096966" lon="26.547636">
<ele>87.440491</ele>
<time>2010-08-29T14:38:37Z</time>
<desc>lat.=56.096966, lon.=26.547636, Alt.=87.440491m. Speed=0.000000m/h.</desc>
<speed>0.000000</speed>
</trkpt>
<trkpt lat="56.096966" lon="26.547636">
<ele>87.446350</ele>
<time>2010-08-29T14:38:38Z</time>
<desc>lat.=56.096966, lon.=26.547636, Alt.=87.446350m. Speed=0.000000m/h.</desc>
<speed>0.000000</speed>
</trkpt>
<trkpt lat="56.096966" lon="26.547636">
<ele>87.450256</ele>
<time>2010-08-29T14:38:39Z</time>
<desc>lat.=56.096966, lon.=26.547636, Alt.=87.450256m. Speed=0.036000m/h.</desc>
<speed>0.010000</speed>
</trkpt>
<trkpt lat="56.096966" lon="26.547636">
<ele>87.456116</ele>
<time>2010-08-29T14:38:40Z</time>
<desc>lat.=56.096966, lon.=26.547636, Alt.=87.456116m. Speed=0.000000m/h.</desc>
<speed>0.000000</speed>
</trkpt>
<trkpt lat="56.096966" lon="26.547636">
<ele>87.461975</ele>
<time>2010-08-29T14:38:41Z</time>
<desc>lat.=56.096966, lon.=26.547636, Alt.=87.461975m. Speed=0.000000m/h.</desc>
<speed>0.000000</speed>
</trkpt>
<trkpt lat="56.096966" lon="26.547636">
<ele>87.465881</ele>
<time>2010-08-29T14:38:42Z</time>
<desc>lat.=56.096966, lon.=26.547636, Alt.=87.465881m. Speed=0.000000m/h.</desc>
<speed>0.000000</speed>
</trkpt>
<trkpt lat="56.096966" lon="26.547636">
<ele>87.471741</ele>
<time>2010-08-29T14:38:43Z</time>
<desc>lat.=56.096966, lon.=26.547636, Alt.=87.471741m. Speed=0.000000m/h.</desc>
<speed>0.000000</speed>
</trkpt>
<trkpt lat="56.096966" lon="26.547636">
<ele>87.477600</ele>
<time>2010-08-29T14:38:44Z</time>
<desc>lat.=56.096966, lon.=26.547636, Alt.=87.477600m. Speed=0.000000m/h.</desc>
<speed>0.000000</speed>
</trkpt>
<trkpt lat="56.096966" lon="26.547636">
<ele>87.483459</ele>
<time>2010-08-29T14:38:45Z</time>
<desc>lat.=56.096966, lon.=26.547636, Alt.=87.483459m. Speed=0.000000m/h.</desc>
<speed>0.000000</speed>
</trkpt>
<trkpt lat="56.096966" lon="26.547636">
<ele>87.489319</ele>
<time>2010-08-29T14:38:46Z</time>
<desc>lat.=56.096966, lon.=26.547636, Alt.=87.489319m. Speed=0.000000m/h.</desc>
<speed>0.000000</speed>
</trkpt>
<trkpt lat="56.096966" lon="26.547636">
<ele>87.495178</ele>
<time>2010-08-29T14:38:47Z</time>
<desc>lat.=56.096966, lon.=26.547636, Alt.=87.495178m. Speed=0.000000m/h.</desc>
<speed>0.000000</speed>
</trkpt>
<trkpt lat="56.096966" lon="26.547636">
<ele>87.499084</ele>
<time>2010-08-29T14:38:48Z</time>
<desc>lat.=56.096966, lon.=26.547636, Alt.=87.499084m. Speed=0.000000m/h.</desc>
<speed>0.000000</speed>
</trkpt>
<trkpt lat="56.096966" lon="26.547636">
<ele>87.504944</ele>
<time>2010-08-29T14:38:49Z</time>
<desc>lat.=56.096966, lon.=26.547636, Alt.=87.504944m. Speed=0.000000m/h.</desc>
<speed>0.000000</speed>
</trkpt>
<trkpt lat="56.096966" lon="26.547636">
<ele>87.510803</ele>
<time>2010-08-29T14:38:50Z</time>
<desc>lat.=56.096966, lon.=26.547636, Alt.=87.510803m. Speed=0.036000m/h.</desc>
<speed>0.010000</speed>
</trkpt>
<trkpt lat="56.096966" lon="26.547636">
<ele>87.516663</ele>
<time>2010-08-29T14:38:51Z</time>
<desc>lat.=56.096966, lon.=26.547636, Alt.=87.516663m. Speed=0.000000m/h.</desc>
<speed>0.000000</speed>
</trkpt>
<trkpt lat="56.096966" lon="26.547636">
<ele>87.522522</ele>
<time>2010-08-29T14:38:52Z</time>
<desc>lat.=56.096966, lon.=26.547636, Alt.=87.522522m. Speed=0.000000m/h.</desc>
<speed>0.000000</speed>
</trkpt>
<trkpt lat="56.096966" lon="26.547636">
<ele>87.530334</ele>
<time>2010-08-29T14:38:53Z</time>
<desc>lat.=56.096966, lon.=26.547636, Alt.=87.530334m. Speed=0.000000m/h.</desc>
<speed>0.000000</speed>
</trkpt>
<trkpt lat="56.096966" lon="26.547636">
<ele>87.536194</ele>
<time>2010-08-29T14:38:54Z</time>
<desc>lat.=56.096966, lon.=26.547636, Alt.=87.536194m. Speed=0.000000m/h.</desc>
<speed>0.000000</speed>
</trkpt>
<trkpt lat="56.096966" lon="26.547636">
<ele>87.544006</ele>
<time>2010-08-29T14:38:55Z</time>
<desc>lat.=56.096966, lon.=26.547636, Alt.=87.544006m. Speed=0.000000m/h.</desc>
<speed>0.000000</speed>
</trkpt>
<trkpt lat="56.096966" lon="26.547636">
<ele>87.549866</ele>
<time>2010-08-29T14:38:56Z</time>
<desc>lat.=56.096966, lon.=26.547636, Alt.=87.549866m. Speed=0.000000m/h.</desc>
<speed>0.000000</speed>
</trkpt>
<trkpt lat="56.096966" lon="26.547636">
<ele>87.557678</ele>
<time>2010-08-29T14:38:57Z</time>
<desc>lat.=56.096966, lon.=26.547636, Alt.=87.557678m. Speed=0.000000m/h.</desc>
<speed>0.000000</speed>
</trkpt>
<trkpt lat="56.096966" lon="26.547636">
<ele>87.563538</ele>
<time>2010-08-29T14:38:58Z</time>
<desc>lat.=56.096966, lon.=26.547636, Alt.=87.563538m. Speed=0.000000m/h.</desc>
<speed>0.000000</speed>
</trkpt>
<trkpt lat="56.096966" lon="26.547636">
<ele>87.569397</ele>
<time>2010-08-29T14:38:59Z</time>
<desc>lat.=56.096966, lon.=26.547636, Alt.=87.569397m. Speed=0.000000m/h.</desc>
<speed>0.000000</speed>
</trkpt>
<trkpt lat="56.096966" lon="26.547636">
<ele>87.573303</ele>
<time>2010-08-29T14:39:00Z</time>
<desc>lat.=56.096966, lon.=26.547636, Alt.=87.573303m. Speed=0.216000m/h.</desc>
<speed>0.060000</speed>
</trkpt>
<trkpt lat="56.096966" lon="26.547636">
<ele>87.571350</ele>
<time>2010-08-29T14:39:01Z</time>
<desc>lat.=56.096966, lon.=26.547636, Alt.=87.571350m. Speed=0.216000m/h.</desc>
<speed>0.060000</speed>
</trkpt>
<trkpt lat="56.096966" lon="26.547636">
<ele>87.667053</ele>
<time>2010-08-29T14:39:02Z</time>
<desc>lat.=56.096966, lon.=26.547636, Alt.=87.667053m. Speed=0.252000m/h.</desc>
<speed>0.070000</speed>
</trkpt>
<trkpt lat="56.096966" lon="26.547636">
<ele>87.672913</ele>
<time>2010-08-29T14:39:03Z</time>
<desc>lat.=56.096966, lon.=26.547636, Alt.=87.672913m. Speed=0.324000m/h.</desc>
<speed>0.090000</speed>
</trkpt>
<trkpt lat="56.096966" lon="26.547636">
<ele>87.674866</ele>
<time>2010-08-29T14:39:04Z</time>
<desc>lat.=56.096966, lon.=26.547636, Alt.=87.674866m. Speed=0.000000m/h.</desc>
<speed>0.000000</speed>
</trkpt>
<trkpt lat="56.096966" lon="26.547636">
<ele>87.674866</ele>
<time>2010-08-29T14:39:05Z</time>
<desc>lat.=56.096966, lon.=26.547636, Alt.=87.674866m. Speed=0.072000m/h.</desc>
<speed>0.020000</speed>
</trkpt>
<trkpt lat="56.096966" lon="26.547636">
<ele>87.674866</ele>
<time>2010-08-29T14:39:06Z</time>
<desc>lat.=56.096966, lon.=26.547636, Alt.=87.674866m. Speed=0.072000m/h.</desc>
<speed>0.020000</speed>
</trkpt>
<trkpt lat="56.096966" lon="26.547636">
<ele>87.676819</ele>
<time>2010-08-29T14:39:07Z</time>
<desc>lat.=56.096966, lon.=26.547636, Alt.=87.676819m. Speed=0.000000m/h.</desc>
<speed>0.000000</speed>
</trkpt>
<trkpt lat="56.096966" lon="26.547636">
<ele>87.690491</ele>
<time>2010-08-29T14:39:08Z</time>
<desc>lat.=56.096966, lon.=26.547636, Alt.=87.690491m. Speed=1.044000m/h.</desc>
<speed>0.290000</speed>
</trkpt>
<trkpt lat="56.096970" lon="26.547640">
<ele>87.795959</ele>
<time>2010-08-29T14:39:09Z</time>
<desc>lat.=56.096970, lon.=26.547640, Alt.=87.795959m. Speed=0.828000m/h.</desc>
<speed>0.230000</speed>
</trkpt>
<trkpt lat="56.096970" lon="26.547642">
<ele>87.899475</ele>
<time>2010-08-29T14:39:10Z</time>
<desc>lat.=56.096970, lon.=26.547642, Alt.=87.899475m. Speed=1.008000m/h.</desc>
<speed>0.280000</speed>
</trkpt>
<trkpt lat="56.096973" lon="26.547646">
<ele>88.004944</ele>
<time>2010-08-29T14:39:11Z</time>
<desc>lat.=56.096973, lon.=26.547646, Alt.=88.004944m. Speed=1.224000m/h.</desc>
<speed>0.340000</speed>
</trkpt>
<trkpt lat="56.096973" lon="26.547649">
<ele>88.147522</ele>
<time>2010-08-29T14:39:12Z</time>
<desc>lat.=56.096973, lon.=26.547649, Alt.=88.147522m. Speed=1.188000m/h.</desc>
<speed>0.330000</speed>
</trkpt>
<trkpt lat="56.096973" lon="26.547657">
<ele>88.335022</ele>
<time>2010-08-29T14:39:13Z</time>
<desc>lat.=56.096973, lon.=26.547657, Alt.=88.335022m. Speed=1.260000m/h.</desc>
<speed>0.350000</speed>
</trkpt>
<trkpt lat="56.096977" lon="26.547661">
<ele>88.469788</ele>
<time>2010-08-29T14:39:14Z</time>
<desc>lat.=56.096977, lon.=26.547661, Alt.=88.469788m. Speed=1.332000m/h.</desc>
<speed>0.370000</speed>
</trkpt>
<trkpt lat="56.096977" lon="26.547663">
<ele>88.700256</ele>
<time>2010-08-29T14:39:15Z</time>
<desc>lat.=56.096977, lon.=26.547663, Alt.=88.700256m. Speed=1.152000m/h.</desc>
<speed>0.320000</speed>
</trkpt>
<trkpt lat="56.096962" lon="26.547674">
<ele>89.407288</ele>
<time>2010-08-29T14:39:16Z</time>
<desc>lat.=56.096962, lon.=26.547674, Alt.=89.407288m. Speed=0.288000m/h.</desc>
<speed>0.080000</speed>
</trkpt>
<trkpt lat="56.096951" lon="26.547674">
<ele>89.319397</ele>
<time>2010-08-29T14:39:17Z</time>
<desc>lat.=56.096951, lon.=26.547674, Alt.=89.319397m. Speed=1.836000m/h.</desc>
<speed>0.510000</speed>
</trkpt>
<trkpt lat="56.096935" lon="26.547667">
<ele>89.848694</ele>
<time>2010-08-29T14:39:18Z</time>
<desc>lat.=56.096935, lon.=26.547667, Alt.=89.848694m. Speed=3.024000m/h.</desc>
<speed>0.840000</speed>
</trkpt>
<trkpt lat="56.096920" lon="26.547659">
<ele>90.245178</ele>
<time>2010-08-29T14:39:19Z</time>
<desc>lat.=56.096920, lon.=26.547659, Alt.=90.245178m. Speed=3.744000m/h.</desc>
<speed>1.040000</speed>
</trkpt>
<trkpt lat="56.096912" lon="26.547647">
<ele>90.586975</ele>
<time>2010-08-29T14:39:20Z</time>
<desc>lat.=56.096912, lon.=26.547647, Alt.=90.586975m. Speed=4.212000m/h.</desc>
<speed>1.170000</speed>
</trkpt>
<trkpt lat="56.096901" lon="26.547626">
<ele>90.874084</ele>
<time>2010-08-29T14:39:21Z</time>
<desc>lat.=56.096901, lon.=26.547626, Alt.=90.874084m. Speed=5.652000m/h.</desc>
<speed>1.570000</speed>
</trkpt>
<trkpt lat="56.096889" lon="26.547609">
<ele>91.049866</ele>
<time>2010-08-29T14:39:22Z</time>
<desc>lat.=56.096889, lon.=26.547609, Alt.=91.049866m. Speed=6.912000m/h.</desc>
<speed>1.920000</speed>
</trkpt>
<trkpt lat="56.096870" lon="26.547564">
<ele>91.251038</ele>
<time>2010-08-29T14:39:23Z</time>
<desc>lat.=56.096870, lon.=26.547564, Alt.=91.251038m. Speed=6.660000m/h.</desc>
<speed>1.850000</speed>
</trkpt>
<trkpt lat="56.096863" lon="26.547531">
<ele>91.278381</ele>
<time>2010-08-29T14:39:24Z</time>
<desc>lat.=56.096863, lon.=26.547531, Alt.=91.278381m. Speed=6.588000m/h.</desc>
<speed>1.830000</speed>
</trkpt>
<trkpt lat="56.096859" lon="26.547501">
<ele>91.403381</ele>
<time>2010-08-29T14:39:25Z</time>
<desc>lat.=56.096859, lon.=26.547501, Alt.=91.403381m. Speed=6.228000m/h.</desc>
<speed>1.730000</speed>
</trkpt>
<trkpt lat="56.096859" lon="26.547474">
<ele>91.547913</ele>
<time>2010-08-29T14:39:26Z</time>
<desc>lat.=56.096859, lon.=26.547474, Alt.=91.547913m. Speed=6.228000m/h.</desc>
<speed>1.730000</speed>
</trkpt>
<trkpt lat="56.096859" lon="26.547449">
<ele>91.604553</ele>
<time>2010-08-29T14:39:27Z</time>
<desc>lat.=56.096859, lon.=26.547449, Alt.=91.604553m. Speed=5.580000m/h.</desc>
<speed>1.550000</speed>
</trkpt>
<trkpt lat="56.096863" lon="26.547421">
<ele>91.760803</ele>
<time>2010-08-29T14:39:28Z</time>
<desc>lat.=56.096863, lon.=26.547421, Alt.=91.760803m. Speed=6.120000m/h.</desc>
<speed>1.700000</speed>
</trkpt>
<trkpt lat="56.096870" lon="26.547388">
<ele>91.887756</ele>
<time>2010-08-29T14:39:29Z</time>
<desc>lat.=56.096870, lon.=26.547388, Alt.=91.887756m. Speed=6.624000m/h.</desc>
<speed>1.840000</speed>
</trkpt>
<trkpt lat="56.096870" lon="26.547361">
<ele>91.915100</ele>
<time>2010-08-29T14:39:30Z</time>
<desc>lat.=56.096870, lon.=26.547361, Alt.=91.915100m. Speed=5.580000m/h.</desc>
<speed>1.550000</speed>
</trkpt>
<trkpt lat="56.096870" lon="26.547342">
<ele>91.745178</ele>
<time>2010-08-29T14:39:31Z</time>
<desc>lat.=56.096870, lon.=26.547342, Alt.=91.745178m. Speed=4.284000m/h.</desc>
<speed>1.190000</speed>
</trkpt>
<trkpt lat="56.096867" lon="26.547316">
<ele>91.667053</ele>
<time>2010-08-29T14:39:32Z</time>
<desc>lat.=56.096867, lon.=26.547316, Alt.=91.667053m. Speed=3.960000m/h.</desc>
<speed>1.100000</speed>
</trkpt>
<trkpt lat="56.096867" lon="26.547297">
<ele>91.739319</ele>
<time>2010-08-29T14:39:33Z</time>
<desc>lat.=56.096867, lon.=26.547297, Alt.=91.739319m. Speed=5.004000m/h.</desc>
<speed>1.390000</speed>
</trkpt>
<trkpt lat="56.096874" lon="26.547272">
<ele>91.639709</ele>
<time>2010-08-29T14:39:34Z</time>
<desc>lat.=56.096874, lon.=26.547272, Alt.=91.639709m. Speed=6.804000m/h.</desc>
<speed>1.890000</speed>
</trkpt>
<trkpt lat="56.096878" lon="26.547237">
<ele>91.762756</ele>
<time>2010-08-29T14:39:35Z</time>
<desc>lat.=56.096878, lon.=26.547237, Alt.=91.762756m. Speed=5.832000m/h.</desc>
<speed>1.620000</speed>
</trkpt>
<trkpt lat="56.096882" lon="26.547209">
<ele>91.534241</ele>
<time>2010-08-29T14:39:36Z</time>
<desc>lat.=56.096882, lon.=26.547209, Alt.=91.534241m. Speed=6.660000m/h.</desc>
<speed>1.850000</speed>
</trkpt>
<trkpt lat="56.096882" lon="26.547171">
<ele>91.237366</ele>
<time>2010-08-29T14:39:37Z</time>
<desc>lat.=56.096882, lon.=26.547171, Alt.=91.237366m. Speed=8.964000m/h.</desc>
<speed>2.490000</speed>
</trkpt>
<trkpt lat="56.096886" lon="26.547134">
<ele>90.840881</ele>
<time>2010-08-29T14:39:38Z</time>
<desc>lat.=56.096886, lon.=26.547134, Alt.=90.840881m. Speed=9.216000m/h.</desc>
<speed>2.560000</speed>
</trkpt>
<trkpt lat="56.096882" lon="26.547100">
<ele>90.411194</ele>
<time>2010-08-29T14:39:39Z</time>
<desc>lat.=56.096882, lon.=26.547100, Alt.=90.411194m. Speed=8.568000m/h.</desc>
<speed>2.380000</speed>
</trkpt>
<trkpt lat="56.096886" lon="26.547066">
<ele>89.657288</ele>
<time>2010-08-29T14:39:40Z</time>
<desc>lat.=56.096886, lon.=26.547066, Alt.=89.657288m. Speed=8.892000m/h.</desc>
<speed>2.470000</speed>
</trkpt>
<trkpt lat="56.096893" lon="26.547028">
<ele>89.989319</ele>
<time>2010-08-29T14:39:41Z</time>
<desc>lat.=56.096893, lon.=26.547028, Alt.=89.989319m. Speed=8.640000m/h.</desc>
<speed>2.400000</speed>
</trkpt>
<trkpt lat="56.096897" lon="26.546993">
<ele>89.958069</ele>
<time>2010-08-29T14:39:42Z</time>
<desc>lat.=56.096897, lon.=26.546993, Alt.=89.958069m. Speed=7.884000m/h.</desc>
<speed>2.190000</speed>
</trkpt>
<trkpt lat="56.096901" lon="26.546965">
<ele>89.758850</ele>
<time>2010-08-29T14:39:43Z</time>
<desc>lat.=56.096901, lon.=26.546965, Alt.=89.758850m. Speed=6.516000m/h.</desc>
<speed>1.810000</speed>
</trkpt>
<trkpt lat="56.096909" lon="26.546930">
<ele>89.122131</ele>
<time>2010-08-29T14:39:44Z</time>
<desc>lat.=56.096909, lon.=26.546930, Alt.=89.122131m. Speed=5.976000m/h.</desc>
<speed>1.660000</speed>
</trkpt>
<trkpt lat="56.096912" lon="26.546906">
<ele>88.598694</ele>
<time>2010-08-29T14:39:45Z</time>
<desc>lat.=56.096912, lon.=26.546906, Alt.=88.598694m. Speed=5.760000m/h.</desc>
<speed>1.600000</speed>
</trkpt>
<trkpt lat="56.096912" lon="26.546881">
<ele>87.999084</ele>
<time>2010-08-29T14:39:46Z</time>
<desc>lat.=56.096912, lon.=26.546881, Alt.=87.999084m. Speed=5.112000m/h.</desc>
<speed>1.420000</speed>
</trkpt>
<trkpt lat="56.096916" lon="26.546860">
<ele>88.295959</ele>
<time>2010-08-29T14:39:47Z</time>
<desc>lat.=56.096916, lon.=26.546860, Alt.=88.295959m. Speed=6.588000m/h.</desc>
<speed>1.830000</speed>
</trkpt>
<trkpt lat="56.096920" lon="26.546831">
<ele>88.088928</ele>
<time>2010-08-29T14:39:48Z</time>
<desc>lat.=56.096920, lon.=26.546831, Alt.=88.088928m. Speed=6.444000m/h.</desc>
<speed>1.790000</speed>
</trkpt>
<trkpt lat="56.096924" lon="26.546803">
<ele>87.813538</ele>
<time>2010-08-29T14:39:49Z</time>
<desc>lat.=56.096924, lon.=26.546803, Alt.=87.813538m. Speed=7.308000m/h.</desc>
<speed>2.030000</speed>
</trkpt>
<trkpt lat="56.096931" lon="26.546772">
<ele>87.713928</ele>
<time>2010-08-29T14:39:50Z</time>
<desc>lat.=56.096931, lon.=26.546772, Alt.=87.713928m. Speed=9.000000m/h.</desc>
<speed>2.500000</speed>
</trkpt>
<trkpt lat="56.096935" lon="26.546734">
<ele>87.960022</ele>
<time>2010-08-29T14:39:51Z</time>
<desc>lat.=56.096935, lon.=26.546734, Alt.=87.960022m. Speed=9.684000m/h.</desc>
<speed>2.690000</speed>
</trkpt>
<trkpt lat="56.096943" lon="26.546700">
<ele>88.579163</ele>
<time>2010-08-29T14:39:52Z</time>
<desc>lat.=56.096943, lon.=26.546700, Alt.=88.579163m. Speed=9.864000m/h.</desc>
<speed>2.740000</speed>
</trkpt>
<trkpt lat="56.096947" lon="26.546665">
<ele>88.643616</ele>
<time>2010-08-29T14:39:53Z</time>
<desc>lat.=56.096947, lon.=26.546665, Alt.=88.643616m. Speed=8.496000m/h.</desc>
<speed>2.360000</speed>
</trkpt>
<trkpt lat="56.096947" lon="26.546631">
<ele>88.280334</ele>
<time>2010-08-29T14:39:54Z</time>
<desc>lat.=56.096947, lon.=26.546631, Alt.=88.280334m. Speed=9.144000m/h.</desc>
<speed>2.540000</speed>
</trkpt>
<trkpt lat="56.096947" lon="26.546602">
<ele>87.946350</ele>
<time>2010-08-29T14:39:55Z</time>
<desc>lat.=56.096947, lon.=26.546602, Alt.=87.946350m. Speed=7.056000m/h.</desc>
<speed>1.960000</speed>
</trkpt>
<trkpt lat="56.096951" lon="26.546570">
<ele>87.997131</ele>
<time>2010-08-29T14:39:56Z</time>
<desc>lat.=56.096951, lon.=26.546570, Alt.=87.997131m. Speed=7.092000m/h.</desc>
<speed>1.970000</speed>
</trkpt>
<trkpt lat="56.096951" lon="26.546539">
<ele>88.344788</ele>
<time>2010-08-29T14:39:57Z</time>
<desc>lat.=56.096951, lon.=26.546539, Alt.=88.344788m. Speed=6.300000m/h.</desc>
<speed>1.750000</speed>
</trkpt>
<trkpt lat="56.096954" lon="26.546507">
<ele>88.581116</ele>
<time>2010-08-29T14:39:58Z</time>
<desc>lat.=56.096954, lon.=26.546507, Alt.=88.581116m. Speed=7.128000m/h.</desc>
<speed>1.980000</speed>
</trkpt>
<trkpt lat="56.096962" lon="26.546469">
<ele>88.897522</ele>
<time>2010-08-29T14:39:59Z</time>
<desc>lat.=56.096962, lon.=26.546469, Alt.=88.897522m. Speed=6.912000m/h.</desc>
<speed>1.920000</speed>
</trkpt>
<trkpt lat="56.096966" lon="26.546438">
<ele>89.040100</ele>
<time>2010-08-29T14:40:00Z</time>
<desc>lat.=56.096966, lon.=26.546438, Alt.=89.040100m. Speed=6.840000m/h.</desc>
<speed>1.900000</speed>
</trkpt>
<trkpt lat="56.096970" lon="26.546410">
<ele>89.233459</ele>
<time>2010-08-29T14:40:01Z</time>
<desc>lat.=56.096970, lon.=26.546410, Alt.=89.233459m. Speed=6.804000m/h.</desc>
<speed>1.890000</speed>
</trkpt>
<trkpt lat="56.096973" lon="26.546379">
<ele>89.186584</ele>
<time>2010-08-29T14:40:02Z</time>
<desc>lat.=56.096973, lon.=26.546379, Alt.=89.186584m. Speed=6.408000m/h.</desc>
<speed>1.780000</speed>
</trkpt>
<trkpt lat="56.096973" lon="26.546347">
<ele>88.794006</ele>
<time>2010-08-29T14:40:03Z</time>
<desc>lat.=56.096973, lon.=26.546347, Alt.=88.794006m. Speed=6.912000m/h.</desc>
<speed>1.920000</speed>
</trkpt>
<trkpt lat="56.096977" lon="26.546310">
<ele>88.497131</ele>
<time>2010-08-29T14:40:04Z</time>
<desc>lat.=56.096977, lon.=26.546310, Alt.=88.497131m. Speed=7.416000m/h.</desc>
<speed>2.060000</speed>
</trkpt>
<trkpt lat="56.096977" lon="26.546280">
<ele>88.292053</ele>
<time>2010-08-29T14:40:05Z</time>
<desc>lat.=56.096977, lon.=26.546280, Alt.=88.292053m. Speed=8.604000m/h.</desc>
<speed>2.390000</speed>
</trkpt>
<trkpt lat="56.096985" lon="26.546242">
<ele>87.653381</ele>
<time>2010-08-29T14:40:06Z</time>
<desc>lat.=56.096985, lon.=26.546242, Alt.=87.653381m. Speed=9.936000m/h.</desc>
<speed>2.760000</speed>
</trkpt>
<trkpt lat="56.096992" lon="26.546200">
<ele>87.719788</ele>
<time>2010-08-29T14:40:07Z</time>
<desc>lat.=56.096992, lon.=26.546200, Alt.=87.719788m. Speed=8.604000m/h.</desc>
<speed>2.390000</speed>
</trkpt>
<trkpt lat="56.096996" lon="26.546162">
<ele>87.836975</ele>
<time>2010-08-29T14:40:08Z</time>
<desc>lat.=56.096996, lon.=26.546162, Alt.=87.836975m. Speed=9.288000m/h.</desc>
<speed>2.580000</speed>
</trkpt>
<trkpt lat="56.097000" lon="26.546131">
<ele>87.907288</ele>
<time>2010-08-29T14:40:09Z</time>
<desc>lat.=56.097000, lon.=26.546131, Alt.=87.907288m. Speed=7.632000m/h.</desc>
<speed>2.120000</speed>
</trkpt>
<trkpt lat="56.097008" lon="26.546101">
<ele>88.547913</ele>
<time>2010-08-29T14:40:10Z</time>
<desc>lat.=56.097008, lon.=26.546101, Alt.=88.547913m. Speed=8.172000m/h.</desc>
<speed>2.270000</speed>
</trkpt>
<trkpt lat="56.097012" lon="26.546064">
<ele>88.694397</ele>
<time>2010-08-29T14:40:11Z</time>
<desc>lat.=56.097012, lon.=26.546064, Alt.=88.694397m. Speed=6.912000m/h.</desc>
<speed>1.920000</speed>
</trkpt>
<trkpt lat="56.097015" lon="26.546036">
<ele>88.428772</ele>
<time>2010-08-29T14:40:12Z</time>
<desc>lat.=56.097015, lon.=26.546036, Alt.=88.428772m. Speed=6.912000m/h.</desc>
<speed>1.920000</speed>
</trkpt>
<trkpt lat="56.097015" lon="26.546005">
<ele>88.419006</ele>
<time>2010-08-29T14:40:13Z</time>
<desc>lat.=56.097015, lon.=26.546005, Alt.=88.419006m. Speed=6.624000m/h.</desc>
<speed>1.840000</speed>
</trkpt>
<trkpt lat="56.097015" lon="26.545988">
<ele>88.829163</ele>
<time>2010-08-29T14:40:14Z</time>
<desc>lat.=56.097015, lon.=26.545988, Alt.=88.829163m. Speed=6.480000m/h.</desc>
<speed>1.800000</speed>
</trkpt>
<trkpt lat="56.097019" lon="26.545961">
<ele>88.981506</ele>
<time>2010-08-29T14:40:15Z</time>
<desc>lat.=56.097019, lon.=26.545961, Alt.=88.981506m. Speed=6.768000m/h.</desc>
<speed>1.880000</speed>
</trkpt>
<trkpt lat="56.097027" lon="26.545933">
<ele>88.868225</ele>
<time>2010-08-29T14:40:16Z</time>
<desc>lat.=56.097027, lon.=26.545933, Alt.=88.868225m. Speed=6.912000m/h.</desc>
<speed>1.920000</speed>
</trkpt>
<trkpt lat="56.097034" lon="26.545904">
<ele>88.735413</ele>
<time>2010-08-29T14:40:17Z</time>
<desc>lat.=56.097034, lon.=26.545904, Alt.=88.735413m. Speed=8.928000m/h.</desc>
<speed>2.480000</speed>
</trkpt>
<trkpt lat="56.097042" lon="26.545866">
<ele>88.653381</ele>
<time>2010-08-29T14:40:18Z</time>
<desc>lat.=56.097042, lon.=26.545866, Alt.=88.653381m. Speed=9.288000m/h.</desc>
<speed>2.580000</speed>
</trkpt>
<trkpt lat="56.097054" lon="26.545824">
<ele>88.516663</ele>
<time>2010-08-29T14:40:19Z</time>
<desc>lat.=56.097054, lon.=26.545824, Alt.=88.516663m. Speed=9.288000m/h.</desc>
<speed>2.580000</speed>
</trkpt>
<trkpt lat="56.097061" lon="26.545782">
<ele>88.413147</ele>
<time>2010-08-29T14:40:20Z</time>
<desc>lat.=56.097061, lon.=26.545782, Alt.=88.413147m. Speed=9.288000m/h.</desc>
<speed>2.580000</speed>
</trkpt>
<trkpt lat="56.097061" lon="26.545740">
<ele>87.809631</ele>
<time>2010-08-29T14:40:21Z</time>
<desc>lat.=56.097061, lon.=26.545740, Alt.=87.809631m. Speed=9.864000m/h.</desc>
<speed>2.740000</speed>
</trkpt>
<trkpt lat="56.097065" lon="26.545700">
<ele>87.227600</ele>
<time>2010-08-29T14:40:22Z</time>
<desc>lat.=56.097065, lon.=26.545700, Alt.=87.227600m. Speed=9.936000m/h.</desc>
<speed>2.760000</speed>
</trkpt>
<trkpt lat="56.097065" lon="26.545662">
<ele>86.672913</ele>
<time>2010-08-29T14:40:23Z</time>
<desc>lat.=56.097065, lon.=26.545662, Alt.=86.672913m. Speed=9.684000m/h.</desc>
<speed>2.690000</speed>
</trkpt>
<trkpt lat="56.097069" lon="26.545618">
<ele>86.948303</ele>
<time>2010-08-29T14:40:24Z</time>
<desc>lat.=56.097069, lon.=26.545618, Alt.=86.948303m. Speed=9.864000m/h.</desc>
<speed>2.740000</speed>
</trkpt>
<trkpt lat="56.097065" lon="26.545572">
<ele>86.329163</ele>
<time>2010-08-29T14:40:25Z</time>
<desc>lat.=56.097065, lon.=26.545572, Alt.=86.329163m. Speed=11.124000m/h.</desc>
<speed>3.090000</speed>
</trkpt>
<trkpt lat="56.097069" lon="26.545530">
<ele>86.182678</ele>
<time>2010-08-29T14:40:26Z</time>
<desc>lat.=56.097069, lon.=26.545530, Alt.=86.182678m. Speed=9.144000m/h.</desc>
<speed>2.540000</speed>
</trkpt>
<trkpt lat="56.097069" lon="26.545490">
<ele>85.524475</ele>
<time>2010-08-29T14:40:27Z</time>
<desc>lat.=56.097069, lon.=26.545490, Alt.=85.524475m. Speed=9.936000m/h.</desc>
<speed>2.760000</speed>
</trkpt>
<trkpt lat="56.097076" lon="26.545448">
<ele>85.569397</ele>
<time>2010-08-29T14:40:28Z</time>
<desc>lat.=56.097076, lon.=26.545448, Alt.=85.569397m. Speed=11.124000m/h.</desc>
<speed>3.090000</speed>
</trkpt>
<trkpt lat="56.097084" lon="26.545393">
<ele>85.590881</ele>
<time>2010-08-29T14:40:29Z</time>
<desc>lat.=56.097084, lon.=26.545393, Alt.=85.590881m. Speed=12.060000m/h.</desc>
<speed>3.350000</speed>
</trkpt>
<trkpt lat="56.097088" lon="26.545345">
<ele>85.379944</ele>
<time>2010-08-29T14:40:30Z</time>
<desc>lat.=56.097088, lon.=26.545345, Alt.=85.379944m. Speed=11.268000m/h.</desc>
<speed>3.130000</speed>
</trkpt>
<trkpt lat="56.097084" lon="26.545301">
<ele>86.036194</ele>
<time>2010-08-29T14:40:31Z</time>
<desc>lat.=56.097084, lon.=26.545301, Alt.=86.036194m. Speed=11.340000m/h.</desc>
<speed>3.150000</speed>
</trkpt>
<trkpt lat="56.097092" lon="26.545250">
<ele>90.245178</ele>
<time>2010-08-29T14:40:32Z</time>
<desc>lat.=56.097092, lon.=26.545250, Alt.=90.245178m. Speed=11.052000m/h.</desc>
<speed>3.070000</speed>
</trkpt>
<trkpt lat="56.097099" lon="26.545198">
<ele>90.928772</ele>
<time>2010-08-29T14:40:33Z</time>
<desc>lat.=56.097099, lon.=26.545198, Alt.=90.928772m. Speed=10.332000m/h.</desc>
<speed>2.870000</speed>
</trkpt>
<trkpt lat="56.097107" lon="26.545153">
<ele>91.430725</ele>
<time>2010-08-29T14:40:34Z</time>
<desc>lat.=56.097107, lon.=26.545153, Alt.=91.430725m. Speed=9.792000m/h.</desc>
<speed>2.720000</speed>
</trkpt>
<trkpt lat="56.097111" lon="26.545105">
<ele>91.633850</ele>
<time>2010-08-29T14:40:35Z</time>
<desc>lat.=56.097111, lon.=26.545105, Alt.=91.633850m. Speed=9.432000m/h.</desc>
<speed>2.620000</speed>
</trkpt>
<trkpt lat="56.097111" lon="26.545059">
<ele>90.708069</ele>
<time>2010-08-29T14:40:36Z</time>
<desc>lat.=56.097111, lon.=26.545059, Alt.=90.708069m. Speed=10.692000m/h.</desc>
<speed>2.970000</speed>
</trkpt>
<trkpt lat="56.097115" lon="26.544998">
<ele>91.165100</ele>
<time>2010-08-29T14:40:37Z</time>
<desc>lat.=56.097115, lon.=26.544998, Alt.=91.165100m. Speed=12.888000m/h.</desc>
<speed>3.580000</speed>
</trkpt>
<trkpt lat="56.097115" lon="26.544939">
<ele>91.407288</ele>
<time>2010-08-29T14:40:38Z</time>
<desc>lat.=56.097115, lon.=26.544939, Alt.=91.407288m. Speed=13.536000m/h.</desc>
<speed>3.760000</speed>
</trkpt>
<trkpt lat="56.097122" lon="26.544872">
<ele>92.836975</ele>
<time>2010-08-29T14:40:39Z</time>
<desc>lat.=56.097122, lon.=26.544872, Alt.=92.836975m. Speed=13.752000m/h.</desc>
<speed>3.820000</speed>
</trkpt>
<trkpt lat="56.097126" lon="26.544806">
<ele>93.245178</ele>
<time>2010-08-29T14:40:40Z</time>
<desc>lat.=56.097126, lon.=26.544806, Alt.=93.245178m. Speed=13.860000m/h.</desc>
<speed>3.850000</speed>
</trkpt>
<trkpt lat="56.097134" lon="26.544748">
<ele>92.637756</ele>
<time>2010-08-29T14:40:41Z</time>
<desc>lat.=56.097134, lon.=26.544748, Alt.=92.637756m. Speed=13.320000m/h.</desc>
<speed>3.700000</speed>
</trkpt>
<trkpt lat="56.097141" lon="26.544691">
<ele>92.348694</ele>
<time>2010-08-29T14:40:42Z</time>
<desc>lat.=56.097141, lon.=26.544691, Alt.=92.348694m. Speed=12.888000m/h.</desc>
<speed>3.580000</speed>
</trkpt>
<trkpt lat="56.097149" lon="26.544638">
<ele>92.063538</ele>
<time>2010-08-29T14:40:43Z</time>
<desc>lat.=56.097149, lon.=26.544638, Alt.=92.063538m. Speed=11.952000m/h.</desc>
<speed>3.320000</speed>
</trkpt>
<trkpt lat="56.097157" lon="26.544586">
<ele>91.542053</ele>
<time>2010-08-29T14:40:44Z</time>
<desc>lat.=56.097157, lon.=26.544586, Alt.=91.542053m. Speed=11.880000m/h.</desc>
<speed>3.300000</speed>
</trkpt>
<trkpt lat="56.097168" lon="26.544533">
<ele>91.262756</ele>
<time>2010-08-29T14:40:45Z</time>
<desc>lat.=56.097168, lon.=26.544533, Alt.=91.262756m. Speed=12.528000m/h.</desc>
<speed>3.480000</speed>
</trkpt>
<trkpt lat="56.097172" lon="26.544479">
<ele>91.282288</ele>
<time>2010-08-29T14:40:46Z</time>
<desc>lat.=56.097172, lon.=26.544479, Alt.=91.282288m. Speed=11.880000m/h.</desc>
<speed>3.300000</speed>
</trkpt>
<trkpt lat="56.097176" lon="26.544426">
<ele>91.032288</ele>
<time>2010-08-29T14:40:47Z</time>
<desc>lat.=56.097176, lon.=26.544426, Alt.=91.032288m. Speed=11.844000m/h.</desc>
<speed>3.290000</speed>
</trkpt>
<trkpt lat="56.097183" lon="26.544374">
<ele>90.461975</ele>
<time>2010-08-29T14:40:48Z</time>
<desc>lat.=56.097183, lon.=26.544374, Alt.=90.461975m. Speed=11.628000m/h.</desc>
<speed>3.230000</speed>
</trkpt>
<trkpt lat="56.097187" lon="26.544333">
<ele>89.754944</ele>
<time>2010-08-29T14:40:49Z</time>
<desc>lat.=56.097187, lon.=26.544333, Alt.=89.754944m. Speed=11.232000m/h.</desc>
<speed>3.120000</speed>
</trkpt>
<trkpt lat="56.097195" lon="26.544285">
<ele>89.692444</ele>
<time>2010-08-29T14:40:50Z</time>
<desc>lat.=56.097195, lon.=26.544285, Alt.=89.692444m. Speed=10.728000m/h.</desc>
<speed>2.980000</speed>
</trkpt>
<trkpt lat="56.097206" lon="26.544230">
<ele>90.479553</ele>
<time>2010-08-29T14:40:51Z</time>
<desc>lat.=56.097206, lon.=26.544230, Alt.=90.479553m. Speed=11.664000m/h.</desc>
<speed>3.240000</speed>
</trkpt>
<trkpt lat="56.097214" lon="26.544174">
<ele>91.483459</ele>
<time>2010-08-29T14:40:52Z</time>
<desc>lat.=56.097214, lon.=26.544174, Alt.=91.483459m. Speed=13.500000m/h.</desc>
<speed>3.750000</speed>
</trkpt>
<trkpt lat="56.097225" lon="26.544119">
<ele>92.133850</ele>
<time>2010-08-29T14:40:53Z</time>
<desc>lat.=56.097225, lon.=26.544119, Alt.=92.133850m. Speed=12.672000m/h.</desc>
<speed>3.520000</speed>
</trkpt>
<trkpt lat="56.097233" lon="26.544060">
<ele>92.932678</ele>
<time>2010-08-29T14:40:54Z</time>
<desc>lat.=56.097233, lon.=26.544060, Alt.=92.932678m. Speed=13.428000m/h.</desc>
<speed>3.730000</speed>
</trkpt>
<trkpt lat="56.097244" lon="26.544003">
<ele>93.057678</ele>
<time>2010-08-29T14:40:55Z</time>
<desc>lat.=56.097244, lon.=26.544003, Alt.=93.057678m. Speed=13.212000m/h.</desc>
<speed>3.670000</speed>
</trkpt>
<trkpt lat="56.097252" lon="26.543943">
<ele>92.993225</ele>
<time>2010-08-29T14:40:56Z</time>
<desc>lat.=56.097252, lon.=26.543943, Alt.=92.993225m. Speed=14.112000m/h.</desc>
<speed>3.920000</speed>
</trkpt>
<trkpt lat="56.097260" lon="26.543884">
<ele>92.795959</ele>
<time>2010-08-29T14:40:57Z</time>
<desc>lat.=56.097260, lon.=26.543884, Alt.=92.795959m. Speed=14.184000m/h.</desc>
<speed>3.940000</speed>
</trkpt>
<trkpt lat="56.097263" lon="26.543825">
<ele>92.409241</ele>
<time>2010-08-29T14:40:58Z</time>
<desc>lat.=56.097263, lon.=26.543825, Alt.=92.409241m. Speed=13.752000m/h.</desc>
<speed>3.820000</speed>
</trkpt>
<trkpt lat="56.097271" lon="26.543774">
<ele>91.772522</ele>
<time>2010-08-29T14:40:59Z</time>
<desc>lat.=56.097271, lon.=26.543774, Alt.=91.772522m. Speed=10.260000m/h.</desc>
<speed>2.850000</speed>
</trkpt>
<trkpt lat="56.097275" lon="26.543732">
<ele>91.706116</ele>
<time>2010-08-29T14:41:00Z</time>
<desc>lat.=56.097275, lon.=26.543732, Alt.=91.706116m. Speed=9.288000m/h.</desc>
<speed>2.580000</speed>
</trkpt>
<trkpt lat="56.097286" lon="26.543694">
<ele>92.692444</ele>
<time>2010-08-29T14:41:01Z</time>
<desc>lat.=56.097286, lon.=26.543694, Alt.=92.692444m. Speed=8.388000m/h.</desc>
<speed>2.330000</speed>
</trkpt>
<trkpt lat="56.097301" lon="26.543667">
<ele>93.569397</ele>
<time>2010-08-29T14:41:02Z</time>
<desc>lat.=56.097301, lon.=26.543667, Alt.=93.569397m. Speed=7.092000m/h.</desc>
<speed>1.970000</speed>
</trkpt>
<trkpt lat="56.097313" lon="26.543648">
<ele>94.264709</ele>
<time>2010-08-29T14:41:03Z</time>
<desc>lat.=56.097313, lon.=26.543648, Alt.=94.264709m. Speed=6.948000m/h.</desc>
<speed>1.930000</speed>
</trkpt>
<trkpt lat="56.097328" lon="26.543633">
<ele>94.489319</ele>
<time>2010-08-29T14:41:04Z</time>
<desc>lat.=56.097328, lon.=26.543633, Alt.=94.489319m. Speed=6.372000m/h.</desc>
<speed>1.770000</speed>
</trkpt>
<trkpt lat="56.097340" lon="26.543619">
<ele>94.614319</ele>
<time>2010-08-29T14:41:05Z</time>
<desc>lat.=56.097340, lon.=26.543619, Alt.=94.614319m. Speed=5.760000m/h.</desc>
<speed>1.600000</speed>
</trkpt>
<trkpt lat="56.097343" lon="26.543594">
<ele>94.252991</ele>
<time>2010-08-29T14:41:06Z</time>
<desc>lat.=56.097343, lon.=26.543594, Alt.=94.252991m. Speed=5.904000m/h.</desc>
<speed>1.640000</speed>
</trkpt>
<trkpt lat="56.097343" lon="26.543566">
<ele>94.280334</ele>
<time>2010-08-29T14:41:07Z</time>
<desc>lat.=56.097343, lon.=26.543566, Alt.=94.280334m. Speed=6.660000m/h.</desc>
<speed>1.850000</speed>
</trkpt>
<trkpt lat="56.097340" lon="26.543541">
<ele>94.040100</ele>
<time>2010-08-29T14:41:08Z</time>
<desc>lat.=56.097340, lon.=26.543541, Alt.=94.040100m. Speed=5.256000m/h.</desc>
<speed>1.460000</speed>
</trkpt>
<trkpt lat="56.097328" lon="26.543518">
<ele>94.155334</ele>
<time>2010-08-29T14:41:09Z</time>
<desc>lat.=56.097328, lon.=26.543518, Alt.=94.155334m. Speed=8.280000m/h.</desc>
<speed>2.300000</speed>
</trkpt>
<trkpt lat="56.097313" lon="26.543484">
<ele>94.057678</ele>
<time>2010-08-29T14:41:10Z</time>
<desc>lat.=56.097313, lon.=26.543484, Alt.=94.057678m. Speed=8.640000m/h.</desc>
<speed>2.400000</speed>
</trkpt>
<trkpt lat="56.097298" lon="26.543451">
<ele>93.610413</ele>
<time>2010-08-29T14:41:11Z</time>
<desc>lat.=56.097298, lon.=26.543451, Alt.=93.610413m. Speed=8.892000m/h.</desc>
<speed>2.470000</speed>
</trkpt>
<trkpt lat="56.097279" lon="26.543421">
<ele>93.295959</ele>
<time>2010-08-29T14:41:12Z</time>
<desc>lat.=56.097279, lon.=26.543421, Alt.=93.295959m. Speed=8.748000m/h.</desc>
<speed>2.430000</speed>
</trkpt>
<trkpt lat="56.097260" lon="26.543400">
<ele>92.563538</ele>
<time>2010-08-29T14:41:13Z</time>
<desc>lat.=56.097260, lon.=26.543400, Alt.=92.563538m. Speed=10.404000m/h.</desc>
<speed>2.890000</speed>
</trkpt>
<trkpt lat="56.097229" lon="26.543379">
<ele>91.710022</ele>
<time>2010-08-29T14:41:14Z</time>
<desc>lat.=56.097229, lon.=26.543379, Alt.=91.710022m. Speed=11.700000m/h.</desc>
<speed>3.250000</speed>
</trkpt>
<trkpt lat="56.097202" lon="26.543360">
<ele>91.252991</ele>
<time>2010-08-29T14:41:15Z</time>
<desc>lat.=56.097202, lon.=26.543360, Alt.=91.252991m. Speed=11.232000m/h.</desc>
<speed>3.120000</speed>
</trkpt>
<trkpt lat="56.097179" lon="26.543331">
<ele>91.329163</ele>
<time>2010-08-29T14:41:16Z</time>
<desc>lat.=56.097179, lon.=26.543331, Alt.=91.329163m. Speed=10.872000m/h.</desc>
<speed>3.020000</speed>
</trkpt>
<trkpt lat="56.097153" lon="26.543304">
<ele>90.850647</ele>
<time>2010-08-29T14:41:17Z</time>
<desc>lat.=56.097153, lon.=26.543304, Alt.=90.850647m. Speed=12.384000m/h.</desc>
<speed>3.440000</speed>
</trkpt>
<trkpt lat="56.097122" lon="26.543283">
<ele>90.077209</ele>
<time>2010-08-29T14:41:18Z</time>
<desc>lat.=56.097122, lon.=26.543283, Alt.=90.077209m. Speed=13.248000m/h.</desc>
<speed>3.680000</speed>
</trkpt>
<trkpt lat="56.097095" lon="26.543266">
<ele>89.811584</ele>
<time>2010-08-29T14:41:19Z</time>
<desc>lat.=56.097095, lon.=26.543266, Alt.=89.811584m. Speed=12.672000m/h.</desc>
<speed>3.520000</speed>
</trkpt>
<trkpt lat="56.097069" lon="26.543257">
<ele>91.063538</ele>
<time>2010-08-29T14:41:20Z</time>
<desc>lat.=56.097069, lon.=26.543257, Alt.=91.063538m. Speed=12.456000m/h.</desc>
<speed>3.460000</speed>
</trkpt>
<trkpt lat="56.097038" lon="26.543243">
<ele>90.815491</ele>
<time>2010-08-29T14:41:21Z</time>
<desc>lat.=56.097038, lon.=26.543243, Alt.=90.815491m. Speed=12.276000m/h.</desc>
<speed>3.410000</speed>
</trkpt>
<trkpt lat="56.097012" lon="26.543234">
<ele>90.870178</ele>
<time>2010-08-29T14:41:22Z</time>
<desc>lat.=56.097012, lon.=26.543234, Alt.=90.870178m. Speed=11.628000m/h.</desc>
<speed>3.230000</speed>
</trkpt>
<trkpt lat="56.096989" lon="26.543224">
<ele>90.975647</ele>
<time>2010-08-29T14:41:23Z</time>
<desc>lat.=56.096989, lon.=26.543224, Alt.=90.975647m. Speed=11.520000m/h.</desc>
<speed>3.200000</speed>
</trkpt>
<trkpt lat="56.096966" lon="26.543219">
<ele>92.165100</ele>
<time>2010-08-29T14:41:24Z</time>
<desc>lat.=56.096966, lon.=26.543219, Alt.=92.165100m. Speed=11.376000m/h.</desc>
<speed>3.160000</speed>
</trkpt>
<trkpt lat="56.096939" lon="26.543226">
<ele>91.944397</ele>
<time>2010-08-29T14:41:25Z</time>
<desc>lat.=56.096939, lon.=26.543226, Alt.=91.944397m. Speed=12.024000m/h.</desc>
<speed>3.340000</speed>
</trkpt>
<trkpt lat="56.096909" lon="26.543232">
<ele>91.633850</ele>
<time>2010-08-29T14:41:26Z</time>
<desc>lat.=56.096909, lon.=26.543232, Alt.=91.633850m. Speed=11.556000m/h.</desc>
<speed>3.210000</speed>
</trkpt>
<trkpt lat="56.096886" lon="26.543242">
<ele>91.852600</ele>
<time>2010-08-29T14:41:27Z</time>
<desc>lat.=56.096886, lon.=26.543242, Alt.=91.852600m. Speed=7.848000m/h.</desc>
<speed>2.180000</speed>
</trkpt>
<trkpt lat="56.096870" lon="26.543259">
<ele>92.956116</ele>
<time>2010-08-29T14:41:28Z</time>
<desc>lat.=56.096870, lon.=26.543259, Alt.=92.956116m. Speed=7.776000m/h.</desc>
<speed>2.160000</speed>
</trkpt>
<trkpt lat="56.096855" lon="26.543280">
<ele>92.784241</ele>
<time>2010-08-29T14:41:29Z</time>
<desc>lat.=56.096855, lon.=26.543280, Alt.=92.784241m. Speed=6.732000m/h.</desc>
<speed>1.870000</speed>
</trkpt>
<trkpt lat="56.096848" lon="26.543295">
<ele>93.436584</ele>
<time>2010-08-29T14:41:30Z</time>
<desc>lat.=56.096848, lon.=26.543295, Alt.=93.436584m. Speed=5.292000m/h.</desc>
<speed>1.470000</speed>
</trkpt>
<trkpt lat="56.096840" lon="26.543310">
<ele>93.725647</ele>
<time>2010-08-29T14:41:31Z</time>
<desc>lat.=56.096840, lon.=26.543310, Alt.=93.725647m. Speed=5.040000m/h.</desc>
<speed>1.400000</speed>
</trkpt>
<trkpt lat="56.096836" lon="26.543329">
<ele>93.706116</ele>
<time>2010-08-29T14:41:32Z</time>
<desc>lat.=56.096836, lon.=26.543329, Alt.=93.706116m. Speed=4.680000m/h.</desc>
<speed>1.300000</speed>
</trkpt>
<trkpt lat="56.096832" lon="26.543346">
<ele>94.026428</ele>
<time>2010-08-29T14:41:33Z</time>
<desc>lat.=56.096832, lon.=26.543346, Alt.=94.026428m. Speed=1.224000m/h.</desc>
<speed>0.340000</speed>
</trkpt>
<trkpt lat="56.096832" lon="26.543354">
<ele>93.844788</ele>
<time>2010-08-29T14:41:34Z</time>
<desc>lat.=56.096832, lon.=26.543354, Alt.=93.844788m. Speed=0.864000m/h.</desc>
<speed>0.240000</speed>
</trkpt>
<trkpt lat="56.096832" lon="26.543358">
<ele>94.458069</ele>
<time>2010-08-29T14:41:35Z</time>
<desc>lat.=56.096832, lon.=26.543358, Alt.=94.458069m. Speed=0.324000m/h.</desc>
<speed>0.090000</speed>
</trkpt>
<trkpt lat="56.096832" lon="26.543356">
<ele>95.233459</ele>
<time>2010-08-29T14:41:36Z</time>
<desc>lat.=56.096832, lon.=26.543356, Alt.=95.233459m. Speed=0.180000m/h.</desc>
<speed>0.050000</speed>
</trkpt>
<trkpt lat="56.096832" lon="26.543356">
<ele>95.045959</ele>
<time>2010-08-29T14:41:37Z</time>
<desc>lat.=56.096832, lon.=26.543356, Alt.=95.045959m. Speed=0.432000m/h.</desc>
<speed>0.120000</speed>
</trkpt>
<trkpt lat="56.096832" lon="26.543358">
<ele>94.907288</ele>
<time>2010-08-29T14:41:38Z</time>
<desc>lat.=56.096832, lon.=26.543358, Alt.=94.907288m. Speed=0.972000m/h.</desc>
<speed>0.270000</speed>
</trkpt>
<trkpt lat="56.096832" lon="26.543362">
<ele>94.794006</ele>
<time>2010-08-29T14:41:39Z</time>
<desc>lat.=56.096832, lon.=26.543362, Alt.=94.794006m. Speed=2.448000m/h.</desc>
<speed>0.680000</speed>
</trkpt>
<trkpt lat="56.096832" lon="26.543373">
<ele>94.708069</ele>
<time>2010-08-29T14:41:40Z</time>
<desc>lat.=56.096832, lon.=26.543373, Alt.=94.708069m. Speed=1.368000m/h.</desc>
<speed>0.380000</speed>
</trkpt>
<trkpt lat="56.096832" lon="26.543379">
<ele>94.622131</ele>
<time>2010-08-29T14:41:41Z</time>
<desc>lat.=56.096832, lon.=26.543379, Alt.=94.622131m. Speed=0.684000m/h.</desc>
<speed>0.190000</speed>
</trkpt>
<trkpt lat="56.096832" lon="26.543381">
<ele>94.555725</ele>
<time>2010-08-29T14:41:42Z</time>
<desc>lat.=56.096832, lon.=26.543381, Alt.=94.555725m. Speed=0.828000m/h.</desc>
<speed>0.230000</speed>
</trkpt>
<trkpt lat="56.096836" lon="26.543383">
<ele>94.520569</ele>
<time>2010-08-29T14:41:43Z</time>
<desc>lat.=56.096836, lon.=26.543383, Alt.=94.520569m. Speed=0.684000m/h.</desc>
<speed>0.190000</speed>
</trkpt>
<trkpt lat="56.096836" lon="26.543385">
<ele>94.493225</ele>
<time>2010-08-29T14:41:44Z</time>
<desc>lat.=56.096836, lon.=26.543385, Alt.=94.493225m. Speed=0.504000m/h.</desc>
<speed>0.140000</speed>
</trkpt>
<trkpt lat="56.096840" lon="26.543386">
<ele>94.467834</ele>
<time>2010-08-29T14:41:45Z</time>
<desc>lat.=56.096840, lon.=26.543386, Alt.=94.467834m. Speed=0.504000m/h.</desc>
<speed>0.140000</speed>
</trkpt>
<trkpt lat="56.096840" lon="26.543388">
<ele>94.446350</ele>
<time>2010-08-29T14:41:46Z</time>
<desc>lat.=56.096840, lon.=26.543388, Alt.=94.446350m. Speed=0.396000m/h.</desc>
<speed>0.110000</speed>
</trkpt>
<trkpt lat="56.096840" lon="26.543388">
<ele>94.424866</ele>
<time>2010-08-29T14:41:47Z</time>
<desc>lat.=56.096840, lon.=26.543388, Alt.=94.424866m. Speed=0.504000m/h.</desc>
<speed>0.140000</speed>
</trkpt>
<trkpt lat="56.096840" lon="26.543392">
<ele>94.409241</ele>
<time>2010-08-29T14:41:48Z</time>
<desc>lat.=56.096840, lon.=26.543392, Alt.=94.409241m. Speed=0.360000m/h.</desc>
<speed>0.100000</speed>
</trkpt>
<trkpt lat="56.096840" lon="26.543390">
<ele>94.395569</ele>
<time>2010-08-29T14:41:49Z</time>
<desc>lat.=56.096840, lon.=26.543390, Alt.=94.395569m. Speed=0.612000m/h.</desc>
<speed>0.170000</speed>
</trkpt>
<trkpt lat="56.096840" lon="26.543388">
<ele>94.366272</ele>
<time>2010-08-29T14:41:50Z</time>
<desc>lat.=56.096840, lon.=26.543388, Alt.=94.366272m. Speed=0.936000m/h.</desc>
<speed>0.260000</speed>
</trkpt>
<trkpt lat="56.096844" lon="26.543385">
<ele>94.352600</ele>
<time>2010-08-29T14:41:51Z</time>
<desc>lat.=56.096844, lon.=26.543385, Alt.=94.352600m. Speed=0.864000m/h.</desc>
<speed>0.240000</speed>
</trkpt>
<trkpt lat="56.096844" lon="26.543383">
<ele>94.336975</ele>
<time>2010-08-29T14:41:52Z</time>
<desc>lat.=56.096844, lon.=26.543383, Alt.=94.336975m. Speed=0.864000m/h.</desc>
<speed>0.240000</speed>
</trkpt>
<trkpt lat="56.096844" lon="26.543379">
<ele>94.321350</ele>
<time>2010-08-29T14:41:53Z</time>
<desc>lat.=56.096844, lon.=26.543379, Alt.=94.321350m. Speed=0.828000m/h.</desc>
<speed>0.230000</speed>
</trkpt>
<trkpt lat="56.096844" lon="26.543375">
<ele>94.311584</ele>
<time>2010-08-29T14:41:54Z</time>
<desc>lat.=56.096844, lon.=26.543375, Alt.=94.311584m. Speed=0.828000m/h.</desc>
<speed>0.230000</speed>
</trkpt>
<trkpt lat="56.096844" lon="26.543373">
<ele>94.305725</ele>
<time>2010-08-29T14:41:55Z</time>
<desc>lat.=56.096844, lon.=26.543373, Alt.=94.305725m. Speed=1.080000m/h.</desc>
<speed>0.300000</speed>
</trkpt>
<trkpt lat="56.096840" lon="26.543373">
<ele>94.295959</ele>
<time>2010-08-29T14:41:56Z</time>
<desc>lat.=56.096840, lon.=26.543373, Alt.=94.295959m. Speed=1.476000m/h.</desc>
<speed>0.410000</speed>
</trkpt>
<trkpt lat="56.096836" lon="26.543375">
<ele>94.294006</ele>
<time>2010-08-29T14:41:57Z</time>
<desc>lat.=56.096836, lon.=26.543375, Alt.=94.294006m. Speed=0.756000m/h.</desc>
<speed>0.210000</speed>
</trkpt>
<trkpt lat="56.096832" lon="26.543373">
<ele>94.295959</ele>
<time>2010-08-29T14:41:58Z</time>
<desc>lat.=56.096832, lon.=26.543373, Alt.=94.295959m. Speed=1.008000m/h.</desc>
<speed>0.280000</speed>
</trkpt>
<trkpt lat="56.096832" lon="26.543373">
<ele>94.295959</ele>
<time>2010-08-29T14:41:59Z</time>
<desc>lat.=56.096832, lon.=26.543373, Alt.=94.295959m. Speed=0.576000m/h.</desc>
<speed>0.160000</speed>
</trkpt>
<trkpt lat="56.096832" lon="26.543375">
<ele>94.284241</ele>
<time>2010-08-29T14:42:00Z</time>
<desc>lat.=56.096832, lon.=26.543375, Alt.=94.284241m. Speed=0.504000m/h.</desc>
<speed>0.140000</speed>
</trkpt>
<trkpt lat="56.096828" lon="26.543379">
<ele>94.270569</ele>
<time>2010-08-29T14:42:01Z</time>
<desc>lat.=56.096828, lon.=26.543379, Alt.=94.270569m. Speed=0.396000m/h.</desc>
<speed>0.110000</speed>
</trkpt>
<trkpt lat="56.096828" lon="26.543379">
<ele>94.264709</ele>
<time>2010-08-29T14:42:02Z</time>
<desc>lat.=56.096828, lon.=26.543379, Alt.=94.264709m. Speed=0.144000m/h.</desc>
<speed>0.040000</speed>
</trkpt>
<trkpt lat="56.096828" lon="26.543379">
<ele>94.245178</ele>
<time>2010-08-29T14:42:03Z</time>
<desc>lat.=56.096828, lon.=26.543379, Alt.=94.245178m. Speed=0.144000m/h.</desc>
<speed>0.040000</speed>
</trkpt>
<trkpt lat="56.096828" lon="26.543381">
<ele>94.229553</ele>
<time>2010-08-29T14:42:04Z</time>
<desc>lat.=56.096828, lon.=26.543381, Alt.=94.229553m. Speed=0.072000m/h.</desc>
<speed>0.020000</speed>
</trkpt>
<trkpt lat="56.096828" lon="26.543381">
<ele>94.215881</ele>
<time>2010-08-29T14:42:05Z</time>
<desc>lat.=56.096828, lon.=26.543381, Alt.=94.215881m. Speed=0.252000m/h.</desc>
<speed>0.070000</speed>
</trkpt>
<trkpt lat="56.096828" lon="26.543381">
<ele>94.204163</ele>
<time>2010-08-29T14:42:06Z</time>
<desc>lat.=56.096828, lon.=26.543381, Alt.=94.204163m. Speed=0.144000m/h.</desc>
<speed>0.040000</speed>
</trkpt>
<trkpt lat="56.096828" lon="26.543381">
<ele>94.180725</ele>
<time>2010-08-29T14:42:07Z</time>
<desc>lat.=56.096828, lon.=26.543381, Alt.=94.180725m. Speed=0.252000m/h.</desc>
<speed>0.070000</speed>
</trkpt>
<trkpt lat="56.096828" lon="26.543383">
<ele>94.167053</ele>
<time>2010-08-29T14:42:08Z</time>
<desc>lat.=56.096828, lon.=26.543383, Alt.=94.167053m. Speed=0.324000m/h.</desc>
<speed>0.090000</speed>
</trkpt>
<trkpt lat="56.096828" lon="26.543383">
<ele>94.155334</ele>
<time>2010-08-29T14:42:09Z</time>
<desc>lat.=56.096828, lon.=26.543383, Alt.=94.155334m. Speed=0.612000m/h.</desc>
<speed>0.170000</speed>
</trkpt>
<trkpt lat="56.096832" lon="26.543383">
<ele>94.139709</ele>
<time>2010-08-29T14:42:10Z</time>
<desc>lat.=56.096832, lon.=26.543383, Alt.=94.139709m. Speed=0.684000m/h.</desc>
<speed>0.190000</speed>
</trkpt>
<trkpt lat="56.096832" lon="26.543385">
<ele>94.112366</ele>
<time>2010-08-29T14:42:11Z</time>
<desc>lat.=56.096832, lon.=26.543385, Alt.=94.112366m. Speed=0.432000m/h.</desc>
<speed>0.120000</speed>
</trkpt>
<trkpt lat="56.096832" lon="26.543385">
<ele>94.083069</ele>
<time>2010-08-29T14:42:12Z</time>
<desc>lat.=56.096832, lon.=26.543385, Alt.=94.083069m. Speed=0.432000m/h.</desc>
<speed>0.120000</speed>
</trkpt>
<trkpt lat="56.096832" lon="26.543386">
<ele>94.057678</ele>
<time>2010-08-29T14:42:13Z</time>
<desc>lat.=56.096832, lon.=26.543386, Alt.=94.057678m. Speed=0.396000m/h.</desc>
<speed>0.110000</speed>
</trkpt>
<trkpt lat="56.096832" lon="26.543388">
<ele>94.038147</ele>
<time>2010-08-29T14:42:14Z</time>
<desc>lat.=56.096832, lon.=26.543388, Alt.=94.038147m. Speed=0.288000m/h.</desc>
<speed>0.080000</speed>
</trkpt>
<trkpt lat="56.096832" lon="26.543390">
<ele>94.018616</ele>
<time>2010-08-29T14:42:15Z</time>
<desc>lat.=56.096832, lon.=26.543390, Alt.=94.018616m. Speed=0.936000m/h.</desc>
<speed>0.260000</speed>
</trkpt>
<trkpt lat="56.096836" lon="26.543394">
<ele>93.993225</ele>
<time>2010-08-29T14:42:16Z</time>
<desc>lat.=56.096836, lon.=26.543394, Alt.=93.993225m. Speed=1.080000m/h.</desc>
<speed>0.300000</speed>
</trkpt>
<trkpt lat="56.096836" lon="26.543398">
<ele>93.958069</ele>
<time>2010-08-29T14:42:17Z</time>
<desc>lat.=56.096836, lon.=26.543398, Alt.=93.958069m. Speed=0.576000m/h.</desc>
<speed>0.160000</speed>
</trkpt>
<trkpt lat="56.096840" lon="26.543400">
<ele>93.919006</ele>
<time>2010-08-29T14:42:18Z</time>
<desc>lat.=56.096840, lon.=26.543400, Alt.=93.919006m. Speed=0.180000m/h.</desc>
<speed>0.050000</speed>
</trkpt>
<trkpt lat="56.096840" lon="26.543400">
<ele>93.895569</ele>
<time>2010-08-29T14:42:19Z</time>
<desc>lat.=56.096840, lon.=26.543400, Alt.=93.895569m. Speed=0.072000m/h.</desc>
<speed>0.020000</speed>
</trkpt>
<trkpt lat="56.096840" lon="26.543400">
<ele>93.876038</ele>
<time>2010-08-29T14:42:20Z</time>
<desc>lat.=56.096840, lon.=26.543400, Alt.=93.876038m. Speed=0.144000m/h.</desc>
<speed>0.040000</speed>
</trkpt>
<trkpt lat="56.096840" lon="26.543400">
<ele>93.848694</ele>
<time>2010-08-29T14:42:21Z</time>
<desc>lat.=56.096840, lon.=26.543400, Alt.=93.848694m. Speed=0.108000m/h.</desc>
<speed>0.030000</speed>
</trkpt>
<trkpt lat="56.096840" lon="26.543400">
<ele>93.827209</ele>
<time>2010-08-29T14:42:22Z</time>
<desc>lat.=56.096840, lon.=26.543400, Alt.=93.827209m. Speed=0.504000m/h.</desc>
<speed>0.140000</speed>
</trkpt>
<trkpt lat="56.096840" lon="26.543400">
<ele>93.805725</ele>
<time>2010-08-29T14:42:23Z</time>
<desc>lat.=56.096840, lon.=26.543400, Alt.=93.805725m. Speed=0.360000m/h.</desc>
<speed>0.100000</speed>
</trkpt>
<trkpt lat="56.096840" lon="26.543402">
<ele>93.778381</ele>
<time>2010-08-29T14:42:24Z</time>
<desc>lat.=56.096840, lon.=26.543402, Alt.=93.778381m. Speed=0.432000m/h.</desc>
<speed>0.120000</speed>
</trkpt>
<trkpt lat="56.096840" lon="26.543404">
<ele>93.764709</ele>
<time>2010-08-29T14:42:25Z</time>
<desc>lat.=56.096840, lon.=26.543404, Alt.=93.764709m. Speed=0.576000m/h.</desc>
<speed>0.160000</speed>
</trkpt>
<trkpt lat="56.096840" lon="26.543406">
<ele>93.751038</ele>
<time>2010-08-29T14:42:26Z</time>
<desc>lat.=56.096840, lon.=26.543406, Alt.=93.751038m. Speed=0.252000m/h.</desc>
<speed>0.070000</speed>
</trkpt>
<trkpt lat="56.096844" lon="26.543406">
<ele>93.731506</ele>
<time>2010-08-29T14:42:27Z</time>
<desc>lat.=56.096844, lon.=26.543406, Alt.=93.731506m. Speed=0.324000m/h.</desc>
<speed>0.090000</speed>
</trkpt>
<trkpt lat="56.096844" lon="26.543406">
<ele>93.710022</ele>
<time>2010-08-29T14:42:28Z</time>
<desc>lat.=56.096844, lon.=26.543406, Alt.=93.710022m. Speed=0.468000m/h.</desc>
<speed>0.130000</speed>
</trkpt>
<trkpt lat="56.096844" lon="26.543407">
<ele>93.688538</ele>
<time>2010-08-29T14:42:29Z</time>
<desc>lat.=56.096844, lon.=26.543407, Alt.=93.688538m. Speed=0.180000m/h.</desc>
<speed>0.050000</speed>
</trkpt>
<trkpt lat="56.096844" lon="26.543407">
<ele>93.659241</ele>
<time>2010-08-29T14:42:30Z</time>
<desc>lat.=56.096844, lon.=26.543407, Alt.=93.659241m. Speed=0.180000m/h.</desc>
<speed>0.050000</speed>
</trkpt>
<trkpt lat="56.096844" lon="26.543407">
<ele>93.629944</ele>
<time>2010-08-29T14:42:31Z</time>
<desc>lat.=56.096844, lon.=26.543407, Alt.=93.629944m. Speed=0.180000m/h.</desc>
<speed>0.050000</speed>
</trkpt>
<trkpt lat="56.096844" lon="26.543407">
<ele>93.598694</ele>
<time>2010-08-29T14:42:32Z</time>
<desc>lat.=56.096844, lon.=26.543407, Alt.=93.598694m. Speed=0.072000m/h.</desc>
<speed>0.020000</speed>
</trkpt>
<trkpt lat="56.096844" lon="26.543407">
<ele>93.577209</ele>
<time>2010-08-29T14:42:33Z</time>
<desc>lat.=56.096844, lon.=26.543407, Alt.=93.577209m. Speed=0.036000m/h.</desc>
<speed>0.010000</speed>
</trkpt>
<trkpt lat="56.096844" lon="26.543407">
<ele>93.557678</ele>
<time>2010-08-29T14:42:34Z</time>
<desc>lat.=56.096844, lon.=26.543407, Alt.=93.557678m. Speed=0.036000m/h.</desc>
<speed>0.010000</speed>
</trkpt>
<trkpt lat="56.096844" lon="26.543407">
<ele>93.563538</ele>
<time>2010-08-29T14:42:35Z</time>
<desc>lat.=56.096844, lon.=26.543407, Alt.=93.563538m. Speed=0.036000m/h.</desc>
<speed>0.010000</speed>
</trkpt>
<trkpt lat="56.096844" lon="26.543407">
<ele>93.577209</ele>
<time>2010-08-29T14:42:36Z</time>
<desc>lat.=56.096844, lon.=26.543407, Alt.=93.577209m. Speed=0.036000m/h.</desc>
<speed>0.010000</speed>
</trkpt>
<trkpt lat="56.096844" lon="26.543407">
<ele>93.575256</ele>
<time>2010-08-29T14:42:37Z</time>
<desc>lat.=56.096844, lon.=26.543407, Alt.=93.575256m. Speed=0.036000m/h.</desc>
<speed>0.010000</speed>
</trkpt>
<trkpt lat="56.096844" lon="26.543407">
<ele>93.573303</ele>
<time>2010-08-29T14:42:38Z</time>
<desc>lat.=56.096844, lon.=26.543407, Alt.=93.573303m. Speed=0.036000m/h.</desc>
<speed>0.010000</speed>
</trkpt>
<trkpt lat="56.096844" lon="26.543406">
<ele>93.563538</ele>
<time>2010-08-29T14:42:39Z</time>
<desc>lat.=56.096844, lon.=26.543406, Alt.=93.563538m. Speed=0.000000m/h.</desc>
<speed>0.000000</speed>
</trkpt>
<trkpt lat="56.096844" lon="26.543406">
<ele>93.571350</ele>
<time>2010-08-29T14:42:40Z</time>
<desc>lat.=56.096844, lon.=26.543406, Alt.=93.571350m. Speed=0.000000m/h.</desc>
<speed>0.000000</speed>
</trkpt>
<trkpt lat="56.096844" lon="26.543406">
<ele>93.583069</ele>
<time>2010-08-29T14:42:41Z</time>
<desc>lat.=56.096844, lon.=26.543406, Alt.=93.583069m. Speed=0.036000m/h.</desc>
<speed>0.010000</speed>
</trkpt>
<trkpt lat="56.096844" lon="26.543406">
<ele>93.586975</ele>
<time>2010-08-29T14:42:42Z</time>
<desc>lat.=56.096844, lon.=26.543406, Alt.=93.586975m. Speed=0.000000m/h.</desc>
<speed>0.000000</speed>
</trkpt>
<trkpt lat="56.096844" lon="26.543406">
<ele>93.592834</ele>
<time>2010-08-29T14:42:43Z</time>
<desc>lat.=56.096844, lon.=26.543406, Alt.=93.592834m. Speed=0.000000m/h.</desc>
<speed>0.000000</speed>
</trkpt>
<trkpt lat="56.096844" lon="26.543406">
<ele>93.602600</ele>
<time>2010-08-29T14:42:44Z</time>
<desc>lat.=56.096844, lon.=26.543406, Alt.=93.602600m. Speed=0.000000m/h.</desc>
<speed>0.000000</speed>
</trkpt>
<trkpt lat="56.096844" lon="26.543406">
<ele>93.614319</ele>
<time>2010-08-29T14:42:45Z</time>
<desc>lat.=56.096844, lon.=26.543406, Alt.=93.614319m. Speed=0.000000m/h.</desc>
<speed>0.000000</speed>
</trkpt>
<trkpt lat="56.096844" lon="26.543406">
<ele>93.622131</ele>
<time>2010-08-29T14:42:46Z</time>
<desc>lat.=56.096844, lon.=26.543406, Alt.=93.622131m. Speed=0.000000m/h.</desc>
<speed>0.000000</speed>
</trkpt>
<trkpt lat="56.096844" lon="26.543406">
<ele>93.629944</ele>
<time>2010-08-29T14:42:47Z</time>
<desc>lat.=56.096844, lon.=26.543406, Alt.=93.629944m. Speed=0.036000m/h.</desc>
<speed>0.010000</speed>
</trkpt>
<trkpt lat="56.096844" lon="26.543406">
<ele>93.637756</ele>
<time>2010-08-29T14:42:48Z</time>
<desc>lat.=56.096844, lon.=26.543406, Alt.=93.637756m. Speed=0.000000m/h.</desc>
<speed>0.000000</speed>
</trkpt>
<trkpt lat="56.096844" lon="26.543406">
<ele>93.645569</ele>
<time>2010-08-29T14:42:49Z</time>
<desc>lat.=56.096844, lon.=26.543406, Alt.=93.645569m. Speed=0.000000m/h.</desc>
<speed>0.000000</speed>
</trkpt>
<trkpt lat="56.096844" lon="26.543406">
<ele>93.653381</ele>
<time>2010-08-29T14:42:50Z</time>
<desc>lat.=56.096844, lon.=26.543406, Alt.=93.653381m. Speed=0.000000m/h.</desc>
<speed>0.000000</speed>
</trkpt>
<trkpt lat="56.096844" lon="26.543406">
<ele>93.659241</ele>
<time>2010-08-29T14:42:51Z</time>
<desc>lat.=56.096844, lon.=26.543406, Alt.=93.659241m. Speed=0.000000m/h.</desc>
<speed>0.000000</speed>
</trkpt>
<trkpt lat="56.096844" lon="26.543406">
<ele>93.669006</ele>
<time>2010-08-29T14:42:52Z</time>
<desc>lat.=56.096844, lon.=26.543406, Alt.=93.669006m. Speed=0.000000m/h.</desc>
<speed>0.000000</speed>
</trkpt>
<trkpt lat="56.096844" lon="26.543406">
<ele>93.676819</ele>
<time>2010-08-29T14:42:53Z</time>
<desc>lat.=56.096844, lon.=26.543406, Alt.=93.676819m. Speed=0.000000m/h.</desc>
<speed>0.000000</speed>
</trkpt>
<trkpt lat="56.096844" lon="26.543406">
<ele>93.686584</ele>
<time>2010-08-29T14:42:54Z</time>
<desc>lat.=56.096844, lon.=26.543406, Alt.=93.686584m. Speed=0.000000m/h.</desc>
<speed>0.000000</speed>
</trkpt>
<trkpt lat="56.096844" lon="26.543406">
<ele>93.694397</ele>
<time>2010-08-29T14:42:55Z</time>
<desc>lat.=56.096844, lon.=26.543406, Alt.=93.694397m. Speed=0.000000m/h.</desc>
<speed>0.000000</speed>
</trkpt>
<trkpt lat="56.096844" lon="26.543406">
<ele>93.704163</ele>
<time>2010-08-29T14:42:56Z</time>
<desc>lat.=56.096844, lon.=26.543406, Alt.=93.704163m. Speed=0.000000m/h.</desc>
<speed>0.000000</speed>
</trkpt>
<trkpt lat="56.096844" lon="26.543406">
<ele>93.708069</ele>
<time>2010-08-29T14:42:57Z</time>
<desc>lat.=56.096844, lon.=26.543406, Alt.=93.708069m. Speed=0.036000m/h.</desc>
<speed>0.010000</speed>
</trkpt>
<trkpt lat="56.096844" lon="26.543406">
<ele>93.715881</ele>
<time>2010-08-29T14:42:58Z</time>
<desc>lat.=56.096844, lon.=26.543406, Alt.=93.715881m. Speed=0.036000m/h.</desc>
<speed>0.010000</speed>
</trkpt>
<trkpt lat="56.096844" lon="26.543406">
<ele>93.723694</ele>
<time>2010-08-29T14:42:59Z</time>
<desc>lat.=56.096844, lon.=26.543406, Alt.=93.723694m. Speed=0.180000m/h.</desc>
<speed>0.050000</speed>
</trkpt>
<trkpt lat="56.096844" lon="26.543406">
<ele>93.727600</ele>
<time>2010-08-29T14:43:00Z</time>
<desc>lat.=56.096844, lon.=26.543406, Alt.=93.727600m. Speed=0.036000m/h.</desc>
<speed>0.010000</speed>
</trkpt>
<trkpt lat="56.096844" lon="26.543406">
<ele>93.731506</ele>
<time>2010-08-29T14:43:01Z</time>
<desc>lat.=56.096844, lon.=26.543406, Alt.=93.731506m. Speed=1.512000m/h.</desc>
<speed>0.420000</speed>
</trkpt>
<trkpt lat="56.096840" lon="26.543406">
<ele>93.739319</ele>
<time>2010-08-29T14:43:02Z</time>
<desc>lat.=56.096840, lon.=26.543406, Alt.=93.739319m. Speed=1.044000m/h.</desc>
<speed>0.290000</speed>
</trkpt>
<trkpt lat="56.096840" lon="26.543402">
<ele>93.721741</ele>
<time>2010-08-29T14:43:03Z</time>
<desc>lat.=56.096840, lon.=26.543402, Alt.=93.721741m. Speed=1.116000m/h.</desc>
<speed>0.310000</speed>
</trkpt>
<trkpt lat="56.096840" lon="26.543402">
<ele>93.729553</ele>
<time>2010-08-29T14:43:04Z</time>
<desc>lat.=56.096840, lon.=26.543402, Alt.=93.729553m. Speed=0.900000m/h.</desc>
<speed>0.250000</speed>
</trkpt>
<trkpt lat="56.096844" lon="26.543402">
<ele>93.739319</ele>
<time>2010-08-29T14:43:05Z</time>
<desc>lat.=56.096844, lon.=26.543402, Alt.=93.739319m. Speed=0.864000m/h.</desc>
<speed>0.240000</speed>
</trkpt>
<trkpt lat="56.096844" lon="26.543402">
<ele>93.752991</ele>
<time>2010-08-29T14:43:06Z</time>
<desc>lat.=56.096844, lon.=26.543402, Alt.=93.752991m. Speed=0.396000m/h.</desc>
<speed>0.110000</speed>
</trkpt>
<trkpt lat="56.096844" lon="26.543404">
<ele>93.760803</ele>
<time>2010-08-29T14:43:07Z</time>
<desc>lat.=56.096844, lon.=26.543404, Alt.=93.760803m. Speed=0.324000m/h.</desc>
<speed>0.090000</speed>
</trkpt>
<trkpt lat="56.096844" lon="26.543404">
<ele>93.762756</ele>
<time>2010-08-29T14:43:08Z</time>
<desc>lat.=56.096844, lon.=26.543404, Alt.=93.762756m. Speed=0.324000m/h.</desc>
<speed>0.090000</speed>
</trkpt>
<trkpt lat="56.096844" lon="26.543406">
<ele>93.780334</ele>
<time>2010-08-29T14:43:09Z</time>
<desc>lat.=56.096844, lon.=26.543406, Alt.=93.780334m. Speed=0.468000m/h.</desc>
<speed>0.130000</speed>
</trkpt>
<trkpt lat="56.096844" lon="26.543407">
<ele>93.794006</ele>
<time>2010-08-29T14:43:10Z</time>
<desc>lat.=56.096844, lon.=26.543407, Alt.=93.794006m. Speed=0.396000m/h.</desc>
<speed>0.110000</speed>
</trkpt>
<trkpt lat="56.096844" lon="26.543409">
<ele>93.805725</ele>
<time>2010-08-29T14:43:11Z</time>
<desc>lat.=56.096844, lon.=26.543409, Alt.=93.805725m. Speed=0.252000m/h.</desc>
<speed>0.070000</speed>
</trkpt>
<trkpt lat="56.096844" lon="26.543409">
<ele>93.815491</ele>
<time>2010-08-29T14:43:12Z</time>
<desc>lat.=56.096844, lon.=26.543409, Alt.=93.815491m. Speed=0.108000m/h.</desc>
<speed>0.030000</speed>
</trkpt>
<trkpt lat="56.096844" lon="26.543411">
<ele>93.821350</ele>
<time>2010-08-29T14:43:13Z</time>
<desc>lat.=56.096844, lon.=26.543411, Alt.=93.821350m. Speed=0.180000m/h.</desc>
<speed>0.050000</speed>
</trkpt>
<trkpt lat="56.096844" lon="26.543411">
<ele>93.821350</ele>
<time>2010-08-29T14:43:14Z</time>
<desc>lat.=56.096844, lon.=26.543411, Alt.=93.821350m. Speed=0.000000m/h.</desc>
<speed>0.000000</speed>
</trkpt>
<trkpt lat="56.096844" lon="26.543411">
<ele>93.827209</ele>
<time>2010-08-29T14:43:15Z</time>
<desc>lat.=56.096844, lon.=26.543411, Alt.=93.827209m. Speed=0.468000m/h.</desc>
<speed>0.130000</speed>
</trkpt>
<trkpt lat="56.096844" lon="26.543413">
<ele>93.846741</ele>
<time>2010-08-29T14:43:16Z</time>
<desc>lat.=56.096844, lon.=26.543413, Alt.=93.846741m. Speed=0.540000m/h.</desc>
<speed>0.150000</speed>
</trkpt>
<trkpt lat="56.096844" lon="26.543415">
<ele>93.868225</ele>
<time>2010-08-29T14:43:17Z</time>
<desc>lat.=56.096844, lon.=26.543415, Alt.=93.868225m. Speed=0.612000m/h.</desc>
<speed>0.170000</speed>
</trkpt>
<trkpt lat="56.096844" lon="26.543419">
<ele>93.893616</ele>
<time>2010-08-29T14:43:18Z</time>
<desc>lat.=56.096844, lon.=26.543419, Alt.=93.893616m. Speed=0.612000m/h.</desc>
<speed>0.170000</speed>
</trkpt>
<trkpt lat="56.096840" lon="26.543421">
<ele>93.901428</ele>
<time>2010-08-29T14:43:19Z</time>
<desc>lat.=56.096840, lon.=26.543421, Alt.=93.901428m. Speed=0.576000m/h.</desc>
<speed>0.160000</speed>
</trkpt>
<trkpt lat="56.096840" lon="26.543423">
<ele>93.924866</ele>
<time>2010-08-29T14:43:20Z</time>
<desc>lat.=56.096840, lon.=26.543423, Alt.=93.924866m. Speed=0.468000m/h.</desc>
<speed>0.130000</speed>
</trkpt>
<trkpt lat="56.096840" lon="26.543425">
<ele>93.948303</ele>
<time>2010-08-29T14:43:21Z</time>
<desc>lat.=56.096840, lon.=26.543425, Alt.=93.948303m. Speed=0.504000m/h.</desc>
<speed>0.140000</speed>
</trkpt>
<trkpt lat="56.096840" lon="26.543427">
<ele>93.981506</ele>
<time>2010-08-29T14:43:22Z</time>
<desc>lat.=56.096840, lon.=26.543427, Alt.=93.981506m. Speed=0.216000m/h.</desc>
<speed>0.060000</speed>
</trkpt>
<trkpt lat="56.096840" lon="26.543427">
<ele>94.018616</ele>
<time>2010-08-29T14:43:23Z</time>
<desc>lat.=56.096840, lon.=26.543427, Alt.=94.018616m. Speed=0.072000m/h.</desc>
<speed>0.020000</speed>
</trkpt>
<trkpt lat="56.096840" lon="26.543427">
<ele>94.057678</ele>
<time>2010-08-29T14:43:24Z</time>
<desc>lat.=56.096840, lon.=26.543427, Alt.=94.057678m. Speed=0.000000m/h.</desc>
<speed>0.000000</speed>
</trkpt>
<trkpt lat="56.096840" lon="26.543427">
<ele>94.096741</ele>
<time>2010-08-29T14:43:25Z</time>
<desc>lat.=56.096840, lon.=26.543427, Alt.=94.096741m. Speed=0.000000m/h.</desc>
<speed>0.000000</speed>
</trkpt>
<trkpt lat="56.096840" lon="26.543427">
<ele>94.139709</ele>
<time>2010-08-29T14:43:26Z</time>
<desc>lat.=56.096840, lon.=26.543427, Alt.=94.139709m. Speed=0.036000m/h.</desc>
<speed>0.010000</speed>
</trkpt>
<trkpt lat="56.096840" lon="26.543427">
<ele>94.184631</ele>
<time>2010-08-29T14:43:27Z</time>
<desc>lat.=56.096840, lon.=26.543427, Alt.=94.184631m. Speed=0.036000m/h.</desc>
<speed>0.010000</speed>
</trkpt>
<trkpt lat="56.096840" lon="26.543427">
<ele>94.231506</ele>
<time>2010-08-29T14:43:28Z</time>
<desc>lat.=56.096840, lon.=26.543427, Alt.=94.231506m. Speed=0.036000m/h.</desc>
<speed>0.010000</speed>
</trkpt>
<trkpt lat="56.096840" lon="26.543427">
<ele>94.262756</ele>
<time>2010-08-29T14:43:29Z</time>
<desc>lat.=56.096840, lon.=26.543427, Alt.=94.262756m. Speed=0.036000m/h.</desc>
<speed>0.010000</speed>
</trkpt>
<trkpt lat="56.096840" lon="26.543427">
<ele>94.270569</ele>
<time>2010-08-29T14:43:30Z</time>
<desc>lat.=56.096840, lon.=26.543427, Alt.=94.270569m. Speed=0.000000m/h.</desc>
<speed>0.000000</speed>
</trkpt>
<trkpt lat="56.096840" lon="26.543427">
<ele>94.280334</ele>
<time>2010-08-29T14:43:31Z</time>
<desc>lat.=56.096840, lon.=26.543427, Alt.=94.280334m. Speed=0.072000m/h.</desc>
<speed>0.020000</speed>
</trkpt>
<trkpt lat="56.096840" lon="26.543427">
<ele>94.294006</ele>
<time>2010-08-29T14:43:32Z</time>
<desc>lat.=56.096840, lon.=26.543427, Alt.=94.294006m. Speed=0.072000m/h.</desc>
<speed>0.020000</speed>
</trkpt>
<trkpt lat="56.096840" lon="26.543427">
<ele>94.295959</ele>
<time>2010-08-29T14:43:33Z</time>
<desc>lat.=56.096840, lon.=26.543427, Alt.=94.295959m. Speed=0.000000m/h.</desc>
<speed>0.000000</speed>
</trkpt>
<trkpt lat="56.096840" lon="26.543427">
<ele>94.305725</ele>
<time>2010-08-29T14:43:34Z</time>
<desc>lat.=56.096840, lon.=26.543427, Alt.=94.305725m. Speed=0.036000m/h.</desc>
<speed>0.010000</speed>
</trkpt>
<trkpt lat="56.096840" lon="26.543427">
<ele>94.309631</ele>
<time>2010-08-29T14:43:35Z</time>
<desc>lat.=56.096840, lon.=26.543427, Alt.=94.309631m. Speed=0.000000m/h.</desc>
<speed>0.000000</speed>
</trkpt>
<trkpt lat="56.096840" lon="26.543427">
<ele>94.313538</ele>
<time>2010-08-29T14:43:36Z</time>
<desc>lat.=56.096840, lon.=26.543427, Alt.=94.313538m. Speed=0.000000m/h.</desc>
<speed>0.000000</speed>
</trkpt>
<trkpt lat="56.096840" lon="26.543427">
<ele>94.315491</ele>
<time>2010-08-29T14:43:37Z</time>
<desc>lat.=56.096840, lon.=26.543427, Alt.=94.315491m. Speed=0.000000m/h.</desc>
<speed>0.000000</speed>
</trkpt>
<trkpt lat="56.096840" lon="26.543427">
<ele>94.313538</ele>
<time>2010-08-29T14:43:38Z</time>
<desc>lat.=56.096840, lon.=26.543427, Alt.=94.313538m. Speed=0.252000m/h.</desc>
<speed>0.070000</speed>
</trkpt>
<trkpt lat="56.096840" lon="26.543427">
<ele>94.315491</ele>
<time>2010-08-29T14:43:39Z</time>
<desc>lat.=56.096840, lon.=26.543427, Alt.=94.315491m. Speed=0.036000m/h.</desc>
<speed>0.010000</speed>
</trkpt>
<trkpt lat="56.096840" lon="26.543427">
<ele>94.323303</ele>
<time>2010-08-29T14:43:40Z</time>
<desc>lat.=56.096840, lon.=26.543427, Alt.=94.323303m. Speed=0.000000m/h.</desc>
<speed>0.000000</speed>
</trkpt>
<trkpt lat="56.096840" lon="26.543427">
<ele>94.323303</ele>
<time>2010-08-29T14:43:41Z</time>
<desc>lat.=56.096840, lon.=26.543427, Alt.=94.323303m. Speed=0.000000m/h.</desc>
<speed>0.000000</speed>
</trkpt>
<trkpt lat="56.096840" lon="26.543427">
<ele>94.327209</ele>
<time>2010-08-29T14:43:42Z</time>
<desc>lat.=56.096840, lon.=26.543427, Alt.=94.327209m. Speed=0.000000m/h.</desc>
<speed>0.000000</speed>
</trkpt>
<trkpt lat="56.096840" lon="26.543427">
<ele>94.329163</ele>
<time>2010-08-29T14:43:43Z</time>
<desc>lat.=56.096840, lon.=26.543427, Alt.=94.329163m. Speed=0.000000m/h.</desc>
<speed>0.000000</speed>
</trkpt>
<trkpt lat="56.096840" lon="26.543427">
<ele>94.331116</ele>
<time>2010-08-29T14:43:44Z</time>
<desc>lat.=56.096840, lon.=26.543427, Alt.=94.331116m. Speed=0.036000m/h.</desc>
<speed>0.010000</speed>
</trkpt>
<trkpt lat="56.096840" lon="26.543427">
<ele>94.333069</ele>
<time>2010-08-29T14:43:45Z</time>
<desc>lat.=56.096840, lon.=26.543427, Alt.=94.333069m. Speed=0.036000m/h.</desc>
<speed>0.010000</speed>
</trkpt>
<trkpt lat="56.096840" lon="26.543427">
<ele>94.335022</ele>
<time>2010-08-29T14:43:46Z</time>
<desc>lat.=56.096840, lon.=26.543427, Alt.=94.335022m. Speed=0.036000m/h.</desc>
<speed>0.010000</speed>
</trkpt>
<trkpt lat="56.096840" lon="26.543427">
<ele>94.336975</ele>
<time>2010-08-29T14:43:47Z</time>
<desc>lat.=56.096840, lon.=26.543427, Alt.=94.336975m. Speed=0.000000m/h.</desc>
<speed>0.000000</speed>
</trkpt>
<trkpt lat="56.096840" lon="26.543427">
<ele>94.338928</ele>
<time>2010-08-29T14:43:48Z</time>
<desc>lat.=56.096840, lon.=26.543427, Alt.=94.338928m. Speed=0.036000m/h.</desc>
<speed>0.010000</speed>
</trkpt>
<trkpt lat="56.096840" lon="26.543427">
<ele>94.340881</ele>
<time>2010-08-29T14:43:49Z</time>
<desc>lat.=56.096840, lon.=26.543427, Alt.=94.340881m. Speed=0.000000m/h.</desc>
<speed>0.000000</speed>
</trkpt>
<trkpt lat="56.096840" lon="26.543427">
<ele>94.338928</ele>
<time>2010-08-29T14:43:50Z</time>
<desc>lat.=56.096840, lon.=26.543427, Alt.=94.338928m. Speed=0.000000m/h.</desc>
<speed>0.000000</speed>
</trkpt>
<trkpt lat="56.096840" lon="26.543427">
<ele>94.340881</ele>
<time>2010-08-29T14:43:51Z</time>
<desc>lat.=56.096840, lon.=26.543427, Alt.=94.340881m. Speed=0.036000m/h.</desc>
<speed>0.010000</speed>
</trkpt>
<trkpt lat="56.096840" lon="26.543427">
<ele>94.342834</ele>
<time>2010-08-29T14:43:52Z</time>
<desc>lat.=56.096840, lon.=26.543427, Alt.=94.342834m. Speed=0.000000m/h.</desc>
<speed>0.000000</speed>
</trkpt>
<trkpt lat="56.096840" lon="26.543427">
<ele>94.344788</ele>
<time>2010-08-29T14:43:53Z</time>
<desc>lat.=56.096840, lon.=26.543427, Alt.=94.344788m. Speed=0.000000m/h.</desc>
<speed>0.000000</speed>
</trkpt>
<trkpt lat="56.096840" lon="26.543427">
<ele>94.346741</ele>
<time>2010-08-29T14:43:54Z</time>
<desc>lat.=56.096840, lon.=26.543427, Alt.=94.346741m. Speed=0.000000m/h.</desc>
<speed>0.000000</speed>
</trkpt>
<trkpt lat="56.096840" lon="26.543427">
<ele>94.348694</ele>
<time>2010-08-29T14:43:55Z</time>
<desc>lat.=56.096840, lon.=26.543427, Alt.=94.348694m. Speed=0.036000m/h.</desc>
<speed>0.010000</speed>
</trkpt>
<trkpt lat="56.096840" lon="26.543427">
<ele>94.348694</ele>
<time>2010-08-29T14:43:56Z</time>
<desc>lat.=56.096840, lon.=26.543427, Alt.=94.348694m. Speed=0.036000m/h.</desc>
<speed>0.010000</speed>
</trkpt>
<trkpt lat="56.096840" lon="26.543427">
<ele>94.352600</ele>
<time>2010-08-29T14:43:57Z</time>
<desc>lat.=56.096840, lon.=26.543427, Alt.=94.352600m. Speed=0.036000m/h.</desc>
<speed>0.010000</speed>
</trkpt>
<trkpt lat="56.096840" lon="26.543427">
<ele>94.352600</ele>
<time>2010-08-29T14:43:58Z</time>
<desc>lat.=56.096840, lon.=26.543427, Alt.=94.352600m. Speed=0.000000m/h.</desc>
<speed>0.000000</speed>
</trkpt>
<trkpt lat="56.096840" lon="26.543428">
<ele>94.354553</ele>
<time>2010-08-29T14:43:59Z</time>
<desc>lat.=56.096840, lon.=26.543428, Alt.=94.354553m. Speed=0.000000m/h.</desc>
<speed>0.000000</speed>
</trkpt>
<trkpt lat="56.096840" lon="26.543428">
<ele>94.358459</ele>
<time>2010-08-29T14:44:00Z</time>
<desc>lat.=56.096840, lon.=26.543428, Alt.=94.358459m. Speed=0.000000m/h.</desc>
<speed>0.000000</speed>
</trkpt>
<trkpt lat="56.096840" lon="26.543428">
<ele>94.360413</ele>
<time>2010-08-29T14:44:01Z</time>
<desc>lat.=56.096840, lon.=26.543428, Alt.=94.360413m. Speed=0.000000m/h.</desc>
<speed>0.000000</speed>
</trkpt>
<trkpt lat="56.096840" lon="26.543428">
<ele>94.362366</ele>
<time>2010-08-29T14:44:02Z</time>
<desc>lat.=56.096840, lon.=26.543428, Alt.=94.362366m. Speed=0.000000m/h.</desc>
<speed>0.000000</speed>
</trkpt>
<trkpt lat="56.096840" lon="26.543428">
<ele>94.364319</ele>
<time>2010-08-29T14:44:03Z</time>
<desc>lat.=56.096840, lon.=26.543428, Alt.=94.364319m. Speed=0.000000m/h.</desc>
<speed>0.000000</speed>
</trkpt>
<trkpt lat="56.096840" lon="26.543428">
<ele>94.366272</ele>
<time>2010-08-29T14:44:04Z</time>
<desc>lat.=56.096840, lon.=26.543428, Alt.=94.366272m. Speed=0.036000m/h.</desc>
<speed>0.010000</speed>
</trkpt>
<trkpt lat="56.096840" lon="26.543428">
<ele>94.368225</ele>
<time>2010-08-29T14:44:05Z</time>
<desc>lat.=56.096840, lon.=26.543428, Alt.=94.368225m. Speed=0.036000m/h.</desc>
<speed>0.010000</speed>
</trkpt>
<trkpt lat="56.096840" lon="26.543428">
<ele>94.368225</ele>
<time>2010-08-29T14:44:06Z</time>
<desc>lat.=56.096840, lon.=26.543428, Alt.=94.368225m. Speed=0.000000m/h.</desc>
<speed>0.000000</speed>
</trkpt>
<trkpt lat="56.096840" lon="26.543428">
<ele>94.372131</ele>
<time>2010-08-29T14:44:07Z</time>
<desc>lat.=56.096840, lon.=26.543428, Alt.=94.372131m. Speed=0.036000m/h.</desc>
<speed>0.010000</speed>
</trkpt>
<trkpt lat="56.096840" lon="26.543428">
<ele>94.376038</ele>
<time>2010-08-29T14:44:08Z</time>
<desc>lat.=56.096840, lon.=26.543428, Alt.=94.376038m. Speed=0.036000m/h.</desc>
<speed>0.010000</speed>
</trkpt>
<trkpt lat="56.096840" lon="26.543428">
<ele>94.379944</ele>
<time>2010-08-29T14:44:09Z</time>
<desc>lat.=56.096840, lon.=26.543428, Alt.=94.379944m. Speed=0.000000m/h.</desc>
<speed>0.000000</speed>
</trkpt>
<trkpt lat="56.096840" lon="26.543428">
<ele>94.383850</ele>
<time>2010-08-29T14:44:10Z</time>
<desc>lat.=56.096840, lon.=26.543428, Alt.=94.383850m. Speed=0.036000m/h.</desc>
<speed>0.010000</speed>
</trkpt>
<trkpt lat="56.096840" lon="26.543428">
<ele>94.389709</ele>
<time>2010-08-29T14:44:11Z</time>
<desc>lat.=56.096840, lon.=26.543428, Alt.=94.389709m. Speed=0.036000m/h.</desc>
<speed>0.010000</speed>
</trkpt>
<trkpt lat="56.096840" lon="26.543428">
<ele>94.395569</ele>
<time>2010-08-29T14:44:12Z</time>
<desc>lat.=56.096840, lon.=26.543428, Alt.=94.395569m. Speed=0.000000m/h.</desc>
<speed>0.000000</speed>
</trkpt>
<trkpt lat="56.096840" lon="26.543428">
<ele>94.403381</ele>
<time>2010-08-29T14:44:13Z</time>
<desc>lat.=56.096840, lon.=26.543428, Alt.=94.403381m. Speed=0.000000m/h.</desc>
<speed>0.000000</speed>
</trkpt>
<trkpt lat="56.096840" lon="26.543428">
<ele>94.405334</ele>
<time>2010-08-29T14:44:14Z</time>
<desc>lat.=56.096840, lon.=26.543428, Alt.=94.405334m. Speed=0.000000m/h.</desc>
<speed>0.000000</speed>
</trkpt>
<trkpt lat="56.096840" lon="26.543428">
<ele>94.413147</ele>
<time>2010-08-29T14:44:15Z</time>
<desc>lat.=56.096840, lon.=26.543428, Alt.=94.413147m. Speed=0.036000m/h.</desc>
<speed>0.010000</speed>
</trkpt>
<trkpt lat="56.096840" lon="26.543428">
<ele>94.419006</ele>
<time>2010-08-29T14:44:16Z</time>
<desc>lat.=56.096840, lon.=26.543428, Alt.=94.419006m. Speed=0.000000m/h.</desc>
<speed>0.000000</speed>
</trkpt>
<trkpt lat="56.096840" lon="26.543428">
<ele>94.426819</ele>
<time>2010-08-29T14:44:17Z</time>
<desc>lat.=56.096840, lon.=26.543428, Alt.=94.426819m. Speed=0.000000m/h.</desc>
<speed>0.000000</speed>
</trkpt>
<trkpt lat="56.096840" lon="26.543428">
<ele>94.432678</ele>
<time>2010-08-29T14:44:18Z</time>
<desc>lat.=56.096840, lon.=26.543428, Alt.=94.432678m. Speed=0.036000m/h.</desc>
<speed>0.010000</speed>
</trkpt>
<trkpt lat="56.096840" lon="26.543428">
<ele>94.436584</ele>
<time>2010-08-29T14:44:19Z</time>
<desc>lat.=56.096840, lon.=26.543428, Alt.=94.436584m. Speed=0.036000m/h.</desc>
<speed>0.010000</speed>
</trkpt>
<trkpt lat="56.096840" lon="26.543428">
<ele>94.448303</ele>
<time>2010-08-29T14:44:20Z</time>
<desc>lat.=56.096840, lon.=26.543428, Alt.=94.448303m. Speed=0.000000m/h.</desc>
<speed>0.000000</speed>
</trkpt>
<trkpt lat="56.096840" lon="26.543428">
<ele>94.461975</ele>
<time>2010-08-29T14:44:21Z</time>
<desc>lat.=56.096840, lon.=26.543428, Alt.=94.461975m. Speed=0.000000m/h.</desc>
<speed>0.000000</speed>
</trkpt>
<trkpt lat="56.096840" lon="26.543428">
<ele>94.467834</ele>
<time>2010-08-29T14:44:22Z</time>
<desc>lat.=56.096840, lon.=26.543428, Alt.=94.467834m. Speed=0.036000m/h.</desc>
<speed>0.010000</speed>
</trkpt>
<trkpt lat="56.096836" lon="26.543428">
<ele>94.469788</ele>
<time>2010-08-29T14:44:23Z</time>
<desc>lat.=56.096836, lon.=26.543428, Alt.=94.469788m. Speed=0.036000m/h.</desc>
<speed>0.010000</speed>
</trkpt>
<trkpt lat="56.096836" lon="26.543428">
<ele>94.471741</ele>
<time>2010-08-29T14:44:24Z</time>
<desc>lat.=56.096836, lon.=26.543428, Alt.=94.471741m. Speed=0.036000m/h.</desc>
<speed>0.010000</speed>
</trkpt>
<trkpt lat="56.096836" lon="26.543428">
<ele>94.469788</ele>
<time>2010-08-29T14:44:25Z</time>
<desc>lat.=56.096836, lon.=26.543428, Alt.=94.469788m. Speed=0.072000m/h.</desc>
<speed>0.020000</speed>
</trkpt>
<trkpt lat="56.096836" lon="26.543428">
<ele>94.465881</ele>
<time>2010-08-29T14:44:26Z</time>
<desc>lat.=56.096836, lon.=26.543428, Alt.=94.465881m. Speed=0.036000m/h.</desc>
<speed>0.010000</speed>
</trkpt>
<trkpt lat="56.096836" lon="26.543428">
<ele>94.469788</ele>
<time>2010-08-29T14:44:27Z</time>
<desc>lat.=56.096836, lon.=26.543428, Alt.=94.469788m. Speed=0.000000m/h.</desc>
<speed>0.000000</speed>
</trkpt>
<trkpt lat="56.096836" lon="26.543428">
<ele>94.471741</ele>
<time>2010-08-29T14:44:28Z</time>
<desc>lat.=56.096836, lon.=26.543428, Alt.=94.471741m. Speed=0.000000m/h.</desc>
<speed>0.000000</speed>
</trkpt>
<trkpt lat="56.096836" lon="26.543428">
<ele>94.473694</ele>
<time>2010-08-29T14:44:29Z</time>
<desc>lat.=56.096836, lon.=26.543428, Alt.=94.473694m. Speed=0.036000m/h.</desc>
<speed>0.010000</speed>
</trkpt>
<trkpt lat="56.096836" lon="26.543428">
<ele>94.477600</ele>
<time>2010-08-29T14:44:30Z</time>
<desc>lat.=56.096836, lon.=26.543428, Alt.=94.477600m. Speed=0.000000m/h.</desc>
<speed>0.000000</speed>
</trkpt>
<trkpt lat="56.096836" lon="26.543428">
<ele>94.481506</ele>
<time>2010-08-29T14:44:31Z</time>
<desc>lat.=56.096836, lon.=26.543428, Alt.=94.481506m. Speed=0.000000m/h.</desc>
<speed>0.000000</speed>
</trkpt>
<trkpt lat="56.096836" lon="26.543428">
<ele>94.487366</ele>
<time>2010-08-29T14:44:32Z</time>
<desc>lat.=56.096836, lon.=26.543428, Alt.=94.487366m. Speed=0.000000m/h.</desc>
<speed>0.000000</speed>
</trkpt>
<trkpt lat="56.096836" lon="26.543428">
<ele>94.491272</ele>
<time>2010-08-29T14:44:33Z</time>
<desc>lat.=56.096836, lon.=26.543428, Alt.=94.491272m. Speed=0.000000m/h.</desc>
<speed>0.000000</speed>
</trkpt>
<trkpt lat="56.096836" lon="26.543428">
<ele>94.497131</ele>
<time>2010-08-29T14:44:34Z</time>
<desc>lat.=56.096836, lon.=26.543428, Alt.=94.497131m. Speed=0.036000m/h.</desc>
<speed>0.010000</speed>
</trkpt>
<trkpt lat="56.096836" lon="26.543428">
<ele>94.499084</ele>
<time>2010-08-29T14:44:35Z</time>
<desc>lat.=56.096836, lon.=26.543428, Alt.=94.499084m. Speed=0.000000m/h.</desc>
<speed>0.000000</speed>
</trkpt>
<trkpt lat="56.096836" lon="26.543428">
<ele>94.502991</ele>
<time>2010-08-29T14:44:36Z</time>
<desc>lat.=56.096836, lon.=26.543428, Alt.=94.502991m. Speed=0.000000m/h.</desc>
<speed>0.000000</speed>
</trkpt>
<trkpt lat="56.096836" lon="26.543428">
<ele>94.508850</ele>
<time>2010-08-29T14:44:37Z</time>
<desc>lat.=56.096836, lon.=26.543428, Alt.=94.508850m. Speed=0.000000m/h.</desc>
<speed>0.000000</speed>
</trkpt>
<trkpt lat="56.096836" lon="26.543428">
<ele>94.510803</ele>
<time>2010-08-29T14:44:38Z</time>
<desc>lat.=56.096836, lon.=26.543428, Alt.=94.510803m. Speed=0.000000m/h.</desc>
<speed>0.000000</speed>
</trkpt>
<trkpt lat="56.096836" lon="26.543428">
<ele>94.518616</ele>
<time>2010-08-29T14:44:39Z</time>
<desc>lat.=56.096836, lon.=26.543428, Alt.=94.518616m. Speed=0.036000m/h.</desc>
<speed>0.010000</speed>
</trkpt>
<trkpt lat="56.096836" lon="26.543428">
<ele>94.524475</ele>
<time>2010-08-29T14:44:40Z</time>
<desc>lat.=56.096836, lon.=26.543428, Alt.=94.524475m. Speed=0.036000m/h.</desc>
<speed>0.010000</speed>
</trkpt>
<trkpt lat="56.096836" lon="26.543428">
<ele>94.530334</ele>
<time>2010-08-29T14:44:41Z</time>
<desc>lat.=56.096836, lon.=26.543428, Alt.=94.530334m. Speed=0.000000m/h.</desc>
<speed>0.000000</speed>
</trkpt>
<trkpt lat="56.096836" lon="26.543428">
<ele>94.538147</ele>
<time>2010-08-29T14:44:42Z</time>
<desc>lat.=56.096836, lon.=26.543428, Alt.=94.538147m. Speed=0.000000m/h.</desc>
<speed>0.000000</speed>
</trkpt>
<trkpt lat="56.096836" lon="26.543428">
<ele>94.545959</ele>
<time>2010-08-29T14:44:43Z</time>
<desc>lat.=56.096836, lon.=26.543428, Alt.=94.545959m. Speed=0.000000m/h.</desc>
<speed>0.000000</speed>
</trkpt>
<trkpt lat="56.096836" lon="26.543428">
<ele>94.555725</ele>
<time>2010-08-29T14:44:44Z</time>
<desc>lat.=56.096836, lon.=26.543428, Alt.=94.555725m. Speed=0.036000m/h.</desc>
<speed>0.010000</speed>
</trkpt>
<trkpt lat="56.096836" lon="26.543428">
<ele>94.561584</ele>
<time>2010-08-29T14:44:45Z</time>
<desc>lat.=56.096836, lon.=26.543428, Alt.=94.561584m. Speed=0.000000m/h.</desc>
<speed>0.000000</speed>
</trkpt>
<trkpt lat="56.096836" lon="26.543428">
<ele>94.563538</ele>
<time>2010-08-29T14:44:46Z</time>
<desc>lat.=56.096836, lon.=26.543428, Alt.=94.563538m. Speed=0.036000m/h.</desc>
<speed>0.010000</speed>
</trkpt>
<trkpt lat="56.096836" lon="26.543428">
<ele>94.565491</ele>
<time>2010-08-29T14:44:47Z</time>
<desc>lat.=56.096836, lon.=26.543428, Alt.=94.565491m. Speed=0.036000m/h.</desc>
<speed>0.010000</speed>
</trkpt>
<trkpt lat="56.096836" lon="26.543428">
<ele>94.563538</ele>
<time>2010-08-29T14:44:48Z</time>
<desc>lat.=56.096836, lon.=26.543428, Alt.=94.563538m. Speed=0.000000m/h.</desc>
<speed>0.000000</speed>
</trkpt>
<trkpt lat="56.096836" lon="26.543428">
<ele>94.563538</ele>
<time>2010-08-29T14:44:49Z</time>
<desc>lat.=56.096836, lon.=26.543428, Alt.=94.563538m. Speed=0.000000m/h.</desc>
<speed>0.000000</speed>
</trkpt>
<trkpt lat="56.096836" lon="26.543428">
<ele>94.573303</ele>
<time>2010-08-29T14:44:50Z</time>
<desc>lat.=56.096836, lon.=26.543428, Alt.=94.573303m. Speed=0.036000m/h.</desc>
<speed>0.010000</speed>
</trkpt>
<trkpt lat="56.096836" lon="26.543428">
<ele>94.571350</ele>
<time>2010-08-29T14:44:51Z</time>
<desc>lat.=56.096836, lon.=26.543428, Alt.=94.571350m. Speed=0.000000m/h.</desc>
<speed>0.000000</speed>
</trkpt>
<trkpt lat="56.096836" lon="26.543428">
<ele>94.571350</ele>
<time>2010-08-29T14:44:52Z</time>
<desc>lat.=56.096836, lon.=26.543428, Alt.=94.571350m. Speed=0.000000m/h.</desc>
<speed>0.000000</speed>
</trkpt>
<trkpt lat="56.096836" lon="26.543428">
<ele>94.575256</ele>
<time>2010-08-29T14:44:53Z</time>
<desc>lat.=56.096836, lon.=26.543428, Alt.=94.575256m. Speed=0.000000m/h.</desc>
<speed>0.000000</speed>
</trkpt>
<trkpt lat="56.096836" lon="26.543428">
<ele>94.575256</ele>
<time>2010-08-29T14:44:54Z</time>
<desc>lat.=56.096836, lon.=26.543428, Alt.=94.575256m. Speed=0.000000m/h.</desc>
<speed>0.000000</speed>
</trkpt>
<trkpt lat="56.096836" lon="26.543428">
<ele>94.577209</ele>
<time>2010-08-29T14:44:55Z</time>
<desc>lat.=56.096836, lon.=26.543428, Alt.=94.577209m. Speed=0.036000m/h.</desc>
<speed>0.010000</speed>
</trkpt>
<trkpt lat="56.096836" lon="26.543428">
<ele>94.575256</ele>
<time>2010-08-29T14:44:56Z</time>
<desc>lat.=56.096836, lon.=26.543428, Alt.=94.575256m. Speed=0.000000m/h.</desc>
<speed>0.000000</speed>
</trkpt>
<trkpt lat="56.096836" lon="26.543428">
<ele>94.573303</ele>
<time>2010-08-29T14:44:57Z</time>
<desc>lat.=56.096836, lon.=26.543428, Alt.=94.573303m. Speed=0.000000m/h.</desc>
<speed>0.000000</speed>
</trkpt>
<trkpt lat="56.096836" lon="26.543428">
<ele>94.579163</ele>
<time>2010-08-29T14:44:58Z</time>
<desc>lat.=56.096836, lon.=26.543428, Alt.=94.579163m. Speed=0.000000m/h.</desc>
<speed>0.000000</speed>
</trkpt>
<trkpt lat="56.096836" lon="26.543428">
<ele>94.573303</ele>
<time>2010-08-29T14:44:59Z</time>
<desc>lat.=56.096836, lon.=26.543428, Alt.=94.573303m. Speed=0.036000m/h.</desc>
<speed>0.010000</speed>
</trkpt>
<trkpt lat="56.096836" lon="26.543428">
<ele>94.573303</ele>
<time>2010-08-29T14:45:00Z</time>
<desc>lat.=56.096836, lon.=26.543428, Alt.=94.573303m. Speed=0.000000m/h.</desc>
<speed>0.000000</speed>
</trkpt>
<trkpt lat="56.096836" lon="26.543428">
<ele>94.571350</ele>
<time>2010-08-29T14:45:01Z</time>
<desc>lat.=56.096836, lon.=26.543428, Alt.=94.571350m. Speed=0.000000m/h.</desc>
<speed>0.000000</speed>
</trkpt>
<trkpt lat="56.096836" lon="26.543428">
<ele>94.573303</ele>
<time>2010-08-29T14:45:02Z</time>
<desc>lat.=56.096836, lon.=26.543428, Alt.=94.573303m. Speed=0.000000m/h.</desc>
<speed>0.000000</speed>
</trkpt>
<trkpt lat="56.096836" lon="26.543428">
<ele>94.579163</ele>
<time>2010-08-29T14:45:03Z</time>
<desc>lat.=56.096836, lon.=26.543428, Alt.=94.579163m. Speed=0.036000m/h.</desc>
<speed>0.010000</speed>
</trkpt>
<trkpt lat="56.096836" lon="26.543428">
<ele>94.581116</ele>
<time>2010-08-29T14:45:04Z</time>
<desc>lat.=56.096836, lon.=26.543428, Alt.=94.581116m. Speed=0.036000m/h.</desc>
<speed>0.010000</speed>
</trkpt>
<trkpt lat="56.096836" lon="26.543428">
<ele>94.585022</ele>
<time>2010-08-29T14:45:05Z</time>
<desc>lat.=56.096836, lon.=26.543428, Alt.=94.585022m. Speed=0.036000m/h.</desc>
<speed>0.010000</speed>
</trkpt>
<trkpt lat="56.096836" lon="26.543428">
<ele>94.592834</ele>
<time>2010-08-29T14:45:06Z</time>
<desc>lat.=56.096836, lon.=26.543428, Alt.=94.592834m. Speed=0.000000m/h.</desc>
<speed>0.000000</speed>
</trkpt>
<trkpt lat="56.096836" lon="26.543428">
<ele>94.598694</ele>
<time>2010-08-29T14:45:07Z</time>
<desc>lat.=56.096836, lon.=26.543428, Alt.=94.598694m. Speed=0.000000m/h.</desc>
<speed>0.000000</speed>
</trkpt>
<trkpt lat="56.096836" lon="26.543428">
<ele>94.604553</ele>
<time>2010-08-29T14:45:08Z</time>
<desc>lat.=56.096836, lon.=26.543428, Alt.=94.604553m. Speed=0.036000m/h.</desc>
<speed>0.010000</speed>
</trkpt>
<trkpt lat="56.096836" lon="26.543428">
<ele>94.616272</ele>
<time>2010-08-29T14:45:09Z</time>
<desc>lat.=56.096836, lon.=26.543428, Alt.=94.616272m. Speed=0.036000m/h.</desc>
<speed>0.010000</speed>
</trkpt>
<trkpt lat="56.096836" lon="26.543428">
<ele>94.622131</ele>
<time>2010-08-29T14:45:10Z</time>
<desc>lat.=56.096836, lon.=26.543428, Alt.=94.622131m. Speed=0.036000m/h.</desc>
<speed>0.010000</speed>
</trkpt>
<trkpt lat="56.096836" lon="26.543428">
<ele>94.631897</ele>
<time>2010-08-29T14:45:11Z</time>
<desc>lat.=56.096836, lon.=26.543428, Alt.=94.631897m. Speed=0.072000m/h.</desc>
<speed>0.020000</speed>
</trkpt>
<trkpt lat="56.096836" lon="26.543428">
<ele>94.641663</ele>
<time>2010-08-29T14:45:12Z</time>
<desc>lat.=56.096836, lon.=26.543428, Alt.=94.641663m. Speed=0.036000m/h.</desc>
<speed>0.010000</speed>
</trkpt>
<trkpt lat="56.096836" lon="26.543428">
<ele>94.645569</ele>
<time>2010-08-29T14:45:13Z</time>
<desc>lat.=56.096836, lon.=26.543428, Alt.=94.645569m. Speed=0.000000m/h.</desc>
<speed>0.000000</speed>
</trkpt>
<trkpt lat="56.096836" lon="26.543428">
<ele>94.657288</ele>
<time>2010-08-29T14:45:14Z</time>
<desc>lat.=56.096836, lon.=26.543428, Alt.=94.657288m. Speed=0.000000m/h.</desc>
<speed>0.000000</speed>
</trkpt>
<trkpt lat="56.096836" lon="26.543428">
<ele>94.665100</ele>
<time>2010-08-29T14:45:15Z</time>
<desc>lat.=56.096836, lon.=26.543428, Alt.=94.665100m. Speed=0.000000m/h.</desc>
<speed>0.000000</speed>
</trkpt>
<trkpt lat="56.096836" lon="26.543428">
<ele>94.669006</ele>
<time>2010-08-29T14:45:16Z</time>
<desc>lat.=56.096836, lon.=26.543428, Alt.=94.669006m. Speed=0.000000m/h.</desc>
<speed>0.000000</speed>
</trkpt>
<trkpt lat="56.096836" lon="26.543428">
<ele>94.678772</ele>
<time>2010-08-29T14:45:17Z</time>
<desc>lat.=56.096836, lon.=26.543428, Alt.=94.678772m. Speed=0.072000m/h.</desc>
<speed>0.020000</speed>
</trkpt>
<trkpt lat="56.096836" lon="26.543428">
<ele>94.690491</ele>
<time>2010-08-29T14:45:18Z</time>
<desc>lat.=56.096836, lon.=26.543428, Alt.=94.690491m. Speed=0.036000m/h.</desc>
<speed>0.010000</speed>
</trkpt>
<trkpt lat="56.096836" lon="26.543428">
<ele>94.696350</ele>
<time>2010-08-29T14:45:19Z</time>
<desc>lat.=56.096836, lon.=26.543428, Alt.=94.696350m. Speed=0.000000m/h.</desc>
<speed>0.000000</speed>
</trkpt>
<trkpt lat="56.096836" lon="26.543428">
<ele>94.710022</ele>
<time>2010-08-29T14:45:20Z</time>
<desc>lat.=56.096836, lon.=26.543428, Alt.=94.710022m. Speed=0.000000m/h.</desc>
<speed>0.000000</speed>
</trkpt>
<trkpt lat="56.096836" lon="26.543428">
<ele>94.719788</ele>
<time>2010-08-29T14:45:21Z</time>
<desc>lat.=56.096836, lon.=26.543428, Alt.=94.719788m. Speed=0.000000m/h.</desc>
<speed>0.000000</speed>
</trkpt>
<trkpt lat="56.096836" lon="26.543428">
<ele>94.727600</ele>
<time>2010-08-29T14:45:22Z</time>
<desc>lat.=56.096836, lon.=26.543428, Alt.=94.727600m. Speed=0.036000m/h.</desc>
<speed>0.010000</speed>
</trkpt>
<trkpt lat="56.096836" lon="26.543428">
<ele>94.741272</ele>
<time>2010-08-29T14:45:23Z</time>
<desc>lat.=56.096836, lon.=26.543428, Alt.=94.741272m. Speed=0.036000m/h.</desc>
<speed>0.010000</speed>
</trkpt>
<trkpt lat="56.096836" lon="26.543428">
<ele>94.752991</ele>
<time>2010-08-29T14:45:24Z</time>
<desc>lat.=56.096836, lon.=26.543428, Alt.=94.752991m. Speed=0.036000m/h.</desc>
<speed>0.010000</speed>
</trkpt>
<trkpt lat="56.096836" lon="26.543428">
<ele>94.754944</ele>
<time>2010-08-29T14:45:25Z</time>
<desc>lat.=56.096836, lon.=26.543428, Alt.=94.754944m. Speed=0.000000m/h.</desc>
<speed>0.000000</speed>
</trkpt>
<trkpt lat="56.096836" lon="26.543428">
<ele>94.766663</ele>
<time>2010-08-29T14:45:26Z</time>
<desc>lat.=56.096836, lon.=26.543428, Alt.=94.766663m. Speed=0.072000m/h.</desc>
<speed>0.020000</speed>
</trkpt>
<trkpt lat="56.096836" lon="26.543428">
<ele>94.780334</ele>
<time>2010-08-29T14:45:27Z</time>
<desc>lat.=56.096836, lon.=26.543428, Alt.=94.780334m. Speed=0.072000m/h.</desc>
<speed>0.020000</speed>
</trkpt>
<trkpt lat="56.096836" lon="26.543428">
<ele>94.786194</ele>
<time>2010-08-29T14:45:28Z</time>
<desc>lat.=56.096836, lon.=26.543428, Alt.=94.786194m. Speed=0.000000m/h.</desc>
<speed>0.000000</speed>
</trkpt>
<trkpt lat="56.096836" lon="26.543428">
<ele>94.792053</ele>
<time>2010-08-29T14:45:29Z</time>
<desc>lat.=56.096836, lon.=26.543428, Alt.=94.792053m. Speed=0.000000m/h.</desc>
<speed>0.000000</speed>
</trkpt>
<trkpt lat="56.096836" lon="26.543428">
<ele>94.805725</ele>
<time>2010-08-29T14:45:30Z</time>
<desc>lat.=56.096836, lon.=26.543428, Alt.=94.805725m. Speed=0.000000m/h.</desc>
<speed>0.000000</speed>
</trkpt>
<trkpt lat="56.096836" lon="26.543428">
<ele>94.813538</ele>
<time>2010-08-29T14:45:31Z</time>
<desc>lat.=56.096836, lon.=26.543428, Alt.=94.813538m. Speed=0.000000m/h.</desc>
<speed>0.000000</speed>
</trkpt>
<trkpt lat="56.096836" lon="26.543428">
<ele>94.821350</ele>
<time>2010-08-29T14:45:32Z</time>
<desc>lat.=56.096836, lon.=26.543428, Alt.=94.821350m. Speed=0.036000m/h.</desc>
<speed>0.010000</speed>
</trkpt>
<trkpt lat="56.096836" lon="26.543428">
<ele>94.831116</ele>
<time>2010-08-29T14:45:33Z</time>
<desc>lat.=56.096836, lon.=26.543428, Alt.=94.831116m. Speed=0.000000m/h.</desc>
<speed>0.000000</speed>
</trkpt>
<trkpt lat="56.096836" lon="26.543428">
<ele>94.838928</ele>
<time>2010-08-29T14:45:34Z</time>
<desc>lat.=56.096836, lon.=26.543428, Alt.=94.838928m. Speed=0.000000m/h.</desc>
<speed>0.000000</speed>
</trkpt>
<trkpt lat="56.096836" lon="26.543428">
<ele>94.842834</ele>
<time>2010-08-29T14:45:35Z</time>
<desc>lat.=56.096836, lon.=26.543428, Alt.=94.842834m. Speed=0.000000m/h.</desc>
<speed>0.000000</speed>
</trkpt>
<trkpt lat="56.096836" lon="26.543428">
<ele>94.850647</ele>
<time>2010-08-29T14:45:36Z</time>
<desc>lat.=56.096836, lon.=26.543428, Alt.=94.850647m. Speed=0.000000m/h.</desc>
<speed>0.000000</speed>
</trkpt>
<trkpt lat="56.096836" lon="26.543428">
<ele>94.856506</ele>
<time>2010-08-29T14:45:37Z</time>
<desc>lat.=56.096836, lon.=26.543428, Alt.=94.856506m. Speed=0.000000m/h.</desc>
<speed>0.000000</speed>
</trkpt>
<trkpt lat="56.096836" lon="26.543428">
<ele>94.860413</ele>
<time>2010-08-29T14:45:38Z</time>
<desc>lat.=56.096836, lon.=26.543428, Alt.=94.860413m. Speed=0.000000m/h.</desc>
<speed>0.000000</speed>
</trkpt>
<trkpt lat="56.096836" lon="26.543428">
<ele>94.870178</ele>
<time>2010-08-29T14:45:39Z</time>
<desc>lat.=56.096836, lon.=26.543428, Alt.=94.870178m. Speed=0.000000m/h.</desc>
<speed>0.000000</speed>
</trkpt>
<trkpt lat="56.096836" lon="26.543428">
<ele>94.877991</ele>
<time>2010-08-29T14:45:40Z</time>
<desc>lat.=56.096836, lon.=26.543428, Alt.=94.877991m. Speed=0.036000m/h.</desc>
<speed>0.010000</speed>
</trkpt>
<trkpt lat="56.096836" lon="26.543428">
<ele>94.883850</ele>
<time>2010-08-29T14:45:41Z</time>
<desc>lat.=56.096836, lon.=26.543428, Alt.=94.883850m. Speed=0.072000m/h.</desc>
<speed>0.020000</speed>
</trkpt>
<trkpt lat="56.096836" lon="26.543428">
<ele>94.893616</ele>
<time>2010-08-29T14:45:42Z</time>
<desc>lat.=56.096836, lon.=26.543428, Alt.=94.893616m. Speed=0.072000m/h.</desc>
<speed>0.020000</speed>
</trkpt>
<trkpt lat="56.096836" lon="26.543428">
<ele>94.905334</ele>
<time>2010-08-29T14:45:43Z</time>
<desc>lat.=56.096836, lon.=26.543428, Alt.=94.905334m. Speed=0.036000m/h.</desc>
<speed>0.010000</speed>
</trkpt>
<trkpt lat="56.096836" lon="26.543428">
<ele>94.909241</ele>
<time>2010-08-29T14:45:44Z</time>
<desc>lat.=56.096836, lon.=26.543428, Alt.=94.909241m. Speed=0.000000m/h.</desc>
<speed>0.000000</speed>
</trkpt>
<trkpt lat="56.096836" lon="26.543428">
<ele>94.919006</ele>
<time>2010-08-29T14:45:45Z</time>
<desc>lat.=56.096836, lon.=26.543428, Alt.=94.919006m. Speed=0.036000m/h.</desc>
<speed>0.010000</speed>
</trkpt>
<trkpt lat="56.096836" lon="26.543428">
<ele>94.928772</ele>
<time>2010-08-29T14:45:46Z</time>
<desc>lat.=56.096836, lon.=26.543428, Alt.=94.928772m. Speed=0.072000m/h.</desc>
<speed>0.020000</speed>
</trkpt>
<trkpt lat="56.096836" lon="26.543428">
<ele>94.932678</ele>
<time>2010-08-29T14:45:47Z</time>
<desc>lat.=56.096836, lon.=26.543428, Alt.=94.932678m. Speed=0.036000m/h.</desc>
<speed>0.010000</speed>
</trkpt>
<trkpt lat="56.096836" lon="26.543428">
<ele>94.934631</ele>
<time>2010-08-29T14:45:48Z</time>
<desc>lat.=56.096836, lon.=26.543428, Alt.=94.934631m. Speed=0.036000m/h.</desc>
<speed>0.010000</speed>
</trkpt>
<trkpt lat="56.096836" lon="26.543428">
<ele>94.938538</ele>
<time>2010-08-29T14:45:49Z</time>
<desc>lat.=56.096836, lon.=26.543428, Alt.=94.938538m. Speed=0.036000m/h.</desc>
<speed>0.010000</speed>
</trkpt>
<trkpt lat="56.096836" lon="26.543428">
<ele>94.944397</ele>
<time>2010-08-29T14:45:50Z</time>
<desc>lat.=56.096836, lon.=26.543428, Alt.=94.944397m. Speed=0.072000m/h.</desc>
<speed>0.020000</speed>
</trkpt>
<trkpt lat="56.096836" lon="26.543428">
<ele>94.950256</ele>
<time>2010-08-29T14:45:51Z</time>
<desc>lat.=56.096836, lon.=26.543428, Alt.=94.950256m. Speed=0.036000m/h.</desc>
<speed>0.010000</speed>
</trkpt>
<trkpt lat="56.096836" lon="26.543428">
<ele>94.956116</ele>
<time>2010-08-29T14:45:52Z</time>
<desc>lat.=56.096836, lon.=26.543428, Alt.=94.956116m. Speed=0.000000m/h.</desc>
<speed>0.000000</speed>
</trkpt>
<trkpt lat="56.096836" lon="26.543428">
<ele>94.965881</ele>
<time>2010-08-29T14:45:53Z</time>
<desc>lat.=56.096836, lon.=26.543428, Alt.=94.965881m. Speed=0.000000m/h.</desc>
<speed>0.000000</speed>
</trkpt>
<trkpt lat="56.096836" lon="26.543428">
<ele>94.969788</ele>
<time>2010-08-29T14:45:54Z</time>
<desc>lat.=56.096836, lon.=26.543428, Alt.=94.969788m. Speed=0.000000m/h.</desc>
<speed>0.000000</speed>
</trkpt>
<trkpt lat="56.096836" lon="26.543428">
<ele>94.973694</ele>
<time>2010-08-29T14:45:55Z</time>
<desc>lat.=56.096836, lon.=26.543428, Alt.=94.973694m. Speed=0.036000m/h.</desc>
<speed>0.010000</speed>
</trkpt>
<trkpt lat="56.096836" lon="26.543428">
<ele>94.977600</ele>
<time>2010-08-29T14:45:56Z</time>
<desc>lat.=56.096836, lon.=26.543428, Alt.=94.977600m. Speed=0.036000m/h.</desc>
<speed>0.010000</speed>
</trkpt>
<trkpt lat="56.096836" lon="26.543428">
<ele>94.981506</ele>
<time>2010-08-29T14:45:57Z</time>
<desc>lat.=56.096836, lon.=26.543428, Alt.=94.981506m. Speed=0.072000m/h.</desc>
<speed>0.020000</speed>
</trkpt>
<trkpt lat="56.096836" lon="26.543428">
<ele>94.987366</ele>
<time>2010-08-29T14:45:58Z</time>
<desc>lat.=56.096836, lon.=26.543428, Alt.=94.987366m. Speed=0.036000m/h.</desc>
<speed>0.010000</speed>
</trkpt>
<trkpt lat="56.096836" lon="26.543428">
<ele>94.987366</ele>
<time>2010-08-29T14:45:59Z</time>
<desc>lat.=56.096836, lon.=26.543428, Alt.=94.987366m. Speed=0.000000m/h.</desc>
<speed>0.000000</speed>
</trkpt>
<trkpt lat="56.096836" lon="26.543428">
<ele>94.989319</ele>
<time>2010-08-29T14:46:00Z</time>
<desc>lat.=56.096836, lon.=26.543428, Alt.=94.989319m. Speed=0.036000m/h.</desc>
<speed>0.010000</speed>
</trkpt>
<trkpt lat="56.096836" lon="26.543428">
<ele>94.991272</ele>
<time>2010-08-29T14:46:01Z</time>
<desc>lat.=56.096836, lon.=26.543428, Alt.=94.991272m. Speed=0.000000m/h.</desc>
<speed>0.000000</speed>
</trkpt>
<trkpt lat="56.096836" lon="26.543428">
<ele>94.995178</ele>
<time>2010-08-29T14:46:02Z</time>
<desc>lat.=56.096836, lon.=26.543428, Alt.=94.995178m. Speed=0.000000m/h.</desc>
<speed>0.000000</speed>
</trkpt>
<trkpt lat="56.096836" lon="26.543428">
<ele>94.997131</ele>
<time>2010-08-29T14:46:03Z</time>
<desc>lat.=56.096836, lon.=26.543428, Alt.=94.997131m. Speed=0.000000m/h.</desc>
<speed>0.000000</speed>
</trkpt>
<trkpt lat="56.096836" lon="26.543428">
<ele>95.004944</ele>
<time>2010-08-29T14:46:04Z</time>
<desc>lat.=56.096836, lon.=26.543428, Alt.=95.004944m. Speed=0.036000m/h.</desc>
<speed>0.010000</speed>
</trkpt>
<trkpt lat="56.096836" lon="26.543428">
<ele>95.008850</ele>
<time>2010-08-29T14:46:05Z</time>
<desc>lat.=56.096836, lon.=26.543428, Alt.=95.008850m. Speed=0.000000m/h.</desc>
<speed>0.000000</speed>
</trkpt>
<trkpt lat="56.096836" lon="26.543428">
<ele>95.012756</ele>
<time>2010-08-29T14:46:06Z</time>
<desc>lat.=56.096836, lon.=26.543428, Alt.=95.012756m. Speed=0.036000m/h.</desc>
<speed>0.010000</speed>
</trkpt>
<trkpt lat="56.096836" lon="26.543428">
<ele>95.014709</ele>
<time>2010-08-29T14:46:07Z</time>
<desc>lat.=56.096836, lon.=26.543428, Alt.=95.014709m. Speed=0.000000m/h.</desc>
<speed>0.000000</speed>
</trkpt>
<trkpt lat="56.096836" lon="26.543430">
<ele>95.024475</ele>
<time>2010-08-29T14:46:08Z</time>
<desc>lat.=56.096836, lon.=26.543430, Alt.=95.024475m. Speed=0.000000m/h.</desc>
<speed>0.000000</speed>
</trkpt>
<trkpt lat="56.096836" lon="26.543430">
<ele>95.026428</ele>
<time>2010-08-29T14:46:09Z</time>
<desc>lat.=56.096836, lon.=26.543430, Alt.=95.026428m. Speed=0.000000m/h.</desc>
<speed>0.000000</speed>
</trkpt>
<trkpt lat="56.096836" lon="26.543430">
<ele>95.030334</ele>
<time>2010-08-29T14:46:10Z</time>
<desc>lat.=56.096836, lon.=26.543430, Alt.=95.030334m. Speed=0.000000m/h.</desc>
<speed>0.000000</speed>
</trkpt>
<trkpt lat="56.096836" lon="26.543430">
<ele>95.040100</ele>
<time>2010-08-29T14:46:11Z</time>
<desc>lat.=56.096836, lon.=26.543430, Alt.=95.040100m. Speed=0.000000m/h.</desc>
<speed>0.000000</speed>
</trkpt>
<trkpt lat="56.096836" lon="26.543430">
<ele>95.045959</ele>
<time>2010-08-29T14:46:12Z</time>
<desc>lat.=56.096836, lon.=26.543430, Alt.=95.045959m. Speed=0.000000m/h.</desc>
<speed>0.000000</speed>
</trkpt>
<trkpt lat="56.096836" lon="26.543430">
<ele>95.049866</ele>
<time>2010-08-29T14:46:13Z</time>
<desc>lat.=56.096836, lon.=26.543430, Alt.=95.049866m. Speed=0.000000m/h.</desc>
<speed>0.000000</speed>
</trkpt>
<trkpt lat="56.096836" lon="26.543430">
<ele>95.053772</ele>
<time>2010-08-29T14:46:14Z</time>
<desc>lat.=56.096836, lon.=26.543430, Alt.=95.053772m. Speed=0.000000m/h.</desc>
<speed>0.000000</speed>
</trkpt>
<trkpt lat="56.096836" lon="26.543430">
<ele>95.061584</ele>
<time>2010-08-29T14:46:15Z</time>
<desc>lat.=56.096836, lon.=26.543430, Alt.=95.061584m. Speed=0.000000m/h.</desc>
<speed>0.000000</speed>
</trkpt>
<trkpt lat="56.096836" lon="26.543430">
<ele>95.065491</ele>
<time>2010-08-29T14:46:16Z</time>
<desc>lat.=56.096836, lon.=26.543430, Alt.=95.065491m. Speed=0.000000m/h.</desc>
<speed>0.000000</speed>
</trkpt>
<trkpt lat="56.096836" lon="26.543430">
<ele>95.065491</ele>
<time>2010-08-29T14:46:17Z</time>
<desc>lat.=56.096836, lon.=26.543430, Alt.=95.065491m. Speed=0.000000m/h.</desc>
<speed>0.000000</speed>
</trkpt>
<trkpt lat="56.096836" lon="26.543430">
<ele>95.067444</ele>
<time>2010-08-29T14:46:18Z</time>
<desc>lat.=56.096836, lon.=26.543430, Alt.=95.067444m. Speed=0.000000m/h.</desc>
<speed>0.000000</speed>
</trkpt>
<trkpt lat="56.096836" lon="26.543430">
<ele>95.073303</ele>
<time>2010-08-29T14:46:19Z</time>
<desc>lat.=56.096836, lon.=26.543430, Alt.=95.073303m. Speed=0.000000m/h.</desc>
<speed>0.000000</speed>
</trkpt>
<trkpt lat="56.096836" lon="26.543430">
<ele>95.077209</ele>
<time>2010-08-29T14:46:20Z</time>
<desc>lat.=56.096836, lon.=26.543430, Alt.=95.077209m. Speed=0.036000m/h.</desc>
<speed>0.010000</speed>
</trkpt>
<trkpt lat="56.096836" lon="26.543430">
<ele>95.077209</ele>
<time>2010-08-29T14:46:21Z</time>
<desc>lat.=56.096836, lon.=26.543430, Alt.=95.077209m. Speed=0.000000m/h.</desc>
<speed>0.000000</speed>
</trkpt>
<trkpt lat="56.096836" lon="26.543430">
<ele>95.079163</ele>
<time>2010-08-29T14:46:22Z</time>
<desc>lat.=56.096836, lon.=26.543430, Alt.=95.079163m. Speed=0.000000m/h.</desc>
<speed>0.000000</speed>
</trkpt>
<trkpt lat="56.096836" lon="26.543430">
<ele>95.085022</ele>
<time>2010-08-29T14:46:23Z</time>
<desc>lat.=56.096836, lon.=26.543430, Alt.=95.085022m. Speed=0.000000m/h.</desc>
<speed>0.000000</speed>
</trkpt>
<trkpt lat="56.096836" lon="26.543430">
<ele>95.088928</ele>
<time>2010-08-29T14:46:24Z</time>
<desc>lat.=56.096836, lon.=26.543430, Alt.=95.088928m. Speed=0.036000m/h.</desc>
<speed>0.010000</speed>
</trkpt>
<trkpt lat="56.096836" lon="26.543430">
<ele>95.090881</ele>
<time>2010-08-29T14:46:25Z</time>
<desc>lat.=56.096836, lon.=26.543430, Alt.=95.090881m. Speed=0.000000m/h.</desc>
<speed>0.000000</speed>
</trkpt>
<trkpt lat="56.096836" lon="26.543430">
<ele>95.092834</ele>
<time>2010-08-29T14:46:26Z</time>
<desc>lat.=56.096836, lon.=26.543430, Alt.=95.092834m. Speed=0.000000m/h.</desc>
<speed>0.000000</speed>
</trkpt>
<trkpt lat="56.096836" lon="26.543430">
<ele>95.096741</ele>
<time>2010-08-29T14:46:27Z</time>
<desc>lat.=56.096836, lon.=26.543430, Alt.=95.096741m. Speed=0.036000m/h.</desc>
<speed>0.010000</speed>
</trkpt>
<trkpt lat="56.096836" lon="26.543430">
<ele>95.102600</ele>
<time>2010-08-29T14:46:28Z</time>
<desc>lat.=56.096836, lon.=26.543430, Alt.=95.102600m. Speed=0.036000m/h.</desc>
<speed>0.010000</speed>
</trkpt>
<trkpt lat="56.096836" lon="26.543430">
<ele>95.102600</ele>
<time>2010-08-29T14:46:29Z</time>
<desc>lat.=56.096836, lon.=26.543430, Alt.=95.102600m. Speed=0.000000m/h.</desc>
<speed>0.000000</speed>
</trkpt>
<trkpt lat="56.096836" lon="26.543430">
<ele>95.102600</ele>
<time>2010-08-29T14:46:30Z</time>
<desc>lat.=56.096836, lon.=26.543430, Alt.=95.102600m. Speed=0.000000m/h.</desc>
<speed>0.000000</speed>
</trkpt>
<trkpt lat="56.096836" lon="26.543430">
<ele>95.104553</ele>
<time>2010-08-29T14:46:31Z</time>
<desc>lat.=56.096836, lon.=26.543430, Alt.=95.104553m. Speed=0.000000m/h.</desc>
<speed>0.000000</speed>
</trkpt>
<trkpt lat="56.096836" lon="26.543430">
<ele>95.108459</ele>
<time>2010-08-29T14:46:32Z</time>
<desc>lat.=56.096836, lon.=26.543430, Alt.=95.108459m. Speed=0.000000m/h.</desc>
<speed>0.000000</speed>
</trkpt>
<trkpt lat="56.096836" lon="26.543430">
<ele>95.108459</ele>
<time>2010-08-29T14:46:33Z</time>
<desc>lat.=56.096836, lon.=26.543430, Alt.=95.108459m. Speed=0.000000m/h.</desc>
<speed>0.000000</speed>
</trkpt>
<trkpt lat="56.096836" lon="26.543430">
<ele>95.106506</ele>
<time>2010-08-29T14:46:34Z</time>
<desc>lat.=56.096836, lon.=26.543430, Alt.=95.106506m. Speed=0.000000m/h.</desc>
<speed>0.000000</speed>
</trkpt>
<trkpt lat="56.096836" lon="26.543430">
<ele>95.108459</ele>
<time>2010-08-29T14:46:35Z</time>
<desc>lat.=56.096836, lon.=26.543430, Alt.=95.108459m. Speed=0.000000m/h.</desc>
<speed>0.000000</speed>
</trkpt>
<trkpt lat="56.096836" lon="26.543430">
<ele>95.114319</ele>
<time>2010-08-29T14:46:36Z</time>
<desc>lat.=56.096836, lon.=26.543430, Alt.=95.114319m. Speed=0.000000m/h.</desc>
<speed>0.000000</speed>
</trkpt>
<trkpt lat="56.096836" lon="26.543430">
<ele>95.118225</ele>
<time>2010-08-29T14:46:37Z</time>
<desc>lat.=56.096836, lon.=26.543430, Alt.=95.118225m. Speed=0.000000m/h.</desc>
<speed>0.000000</speed>
</trkpt>
<trkpt lat="56.096836" lon="26.543432">
<ele>95.122131</ele>
<time>2010-08-29T14:46:38Z</time>
<desc>lat.=56.096836, lon.=26.543432, Alt.=95.122131m. Speed=0.000000m/h.</desc>
<speed>0.000000</speed>
</trkpt>
<trkpt lat="56.096836" lon="26.543432">
<ele>95.129944</ele>
<time>2010-08-29T14:46:39Z</time>
<desc>lat.=56.096836, lon.=26.543432, Alt.=95.129944m. Speed=0.000000m/h.</desc>
<speed>0.000000</speed>
</trkpt>
<trkpt lat="56.096836" lon="26.543432">
<ele>95.139709</ele>
<time>2010-08-29T14:46:40Z</time>
<desc>lat.=56.096836, lon.=26.543432, Alt.=95.139709m. Speed=0.000000m/h.</desc>
<speed>0.000000</speed>
</trkpt>
<trkpt lat="56.096836" lon="26.543432">
<ele>95.147522</ele>
<time>2010-08-29T14:46:41Z</time>
<desc>lat.=56.096836, lon.=26.543432, Alt.=95.147522m. Speed=0.000000m/h.</desc>
<speed>0.000000</speed>
</trkpt>
<trkpt lat="56.096836" lon="26.543432">
<ele>95.151428</ele>
<time>2010-08-29T14:46:42Z</time>
<desc>lat.=56.096836, lon.=26.543432, Alt.=95.151428m. Speed=0.000000m/h.</desc>
<speed>0.000000</speed>
</trkpt>
<trkpt lat="56.096836" lon="26.543432">
<ele>95.153381</ele>
<time>2010-08-29T14:46:43Z</time>
<desc>lat.=56.096836, lon.=26.543432, Alt.=95.153381m. Speed=0.000000m/h.</desc>
<speed>0.000000</speed>
</trkpt>
<trkpt lat="56.096836" lon="26.543432">
<ele>95.161194</ele>
<time>2010-08-29T14:46:44Z</time>
<desc>lat.=56.096836, lon.=26.543432, Alt.=95.161194m. Speed=0.000000m/h.</desc>
<speed>0.000000</speed>
</trkpt>
<trkpt lat="56.096836" lon="26.543432">
<ele>95.174866</ele>
<time>2010-08-29T14:46:45Z</time>
<desc>lat.=56.096836, lon.=26.543432, Alt.=95.174866m. Speed=0.000000m/h.</desc>
<speed>0.000000</speed>
</trkpt>
<trkpt lat="56.096836" lon="26.543432">
<ele>95.178772</ele>
<time>2010-08-29T14:46:46Z</time>
<desc>lat.=56.096836, lon.=26.543432, Alt.=95.178772m. Speed=0.036000m/h.</desc>
<speed>0.010000</speed>
</trkpt>
<trkpt lat="56.096836" lon="26.543432">
<ele>95.182678</ele>
<time>2010-08-29T14:46:47Z</time>
<desc>lat.=56.096836, lon.=26.543432, Alt.=95.182678m. Speed=0.000000m/h.</desc>
<speed>0.000000</speed>
</trkpt>
<trkpt lat="56.096836" lon="26.543432">
<ele>95.186584</ele>
<time>2010-08-29T14:46:48Z</time>
<desc>lat.=56.096836, lon.=26.543432, Alt.=95.186584m. Speed=0.000000m/h.</desc>
<speed>0.000000</speed>
</trkpt>
<trkpt lat="56.096836" lon="26.543432">
<ele>95.194397</ele>
<time>2010-08-29T14:46:49Z</time>
<desc>lat.=56.096836, lon.=26.543432, Alt.=95.194397m. Speed=0.036000m/h.</desc>
<speed>0.010000</speed>
</trkpt>
<trkpt lat="56.096836" lon="26.543432">
<ele>95.202209</ele>
<time>2010-08-29T14:46:50Z</time>
<desc>lat.=56.096836, lon.=26.543432, Alt.=95.202209m. Speed=0.000000m/h.</desc>
<speed>0.000000</speed>
</trkpt>
<trkpt lat="56.096836" lon="26.543432">
<ele>95.206116</ele>
<time>2010-08-29T14:46:51Z</time>
<desc>lat.=56.096836, lon.=26.543432, Alt.=95.206116m. Speed=0.000000m/h.</desc>
<speed>0.000000</speed>
</trkpt>
<trkpt lat="56.096836" lon="26.543432">
<ele>95.206116</ele>
<time>2010-08-29T14:46:52Z</time>
<desc>lat.=56.096836, lon.=26.543432, Alt.=95.206116m. Speed=0.000000m/h.</desc>
<speed>0.000000</speed>
</trkpt>
<trkpt lat="56.096836" lon="26.543432">
<ele>95.208069</ele>
<time>2010-08-29T14:46:53Z</time>
<desc>lat.=56.096836, lon.=26.543432, Alt.=95.208069m. Speed=0.036000m/h.</desc>
<speed>0.010000</speed>
</trkpt>
<trkpt lat="56.096836" lon="26.543432">
<ele>95.213928</ele>
<time>2010-08-29T14:46:54Z</time>
<desc>lat.=56.096836, lon.=26.543432, Alt.=95.213928m. Speed=0.000000m/h.</desc>
<speed>0.000000</speed>
</trkpt>
<trkpt lat="56.096836" lon="26.543432">
<ele>95.221741</ele>
<time>2010-08-29T14:46:55Z</time>
<desc>lat.=56.096836, lon.=26.543432, Alt.=95.221741m. Speed=0.000000m/h.</desc>
<speed>0.000000</speed>
</trkpt>
<trkpt lat="56.096836" lon="26.543432">
<ele>95.225647</ele>
<time>2010-08-29T14:46:56Z</time>
<desc>lat.=56.096836, lon.=26.543432, Alt.=95.225647m. Speed=0.000000m/h.</desc>
<speed>0.000000</speed>
</trkpt>
<trkpt lat="56.096836" lon="26.543432">
<ele>95.227600</ele>
<time>2010-08-29T14:46:57Z</time>
<desc>lat.=56.096836, lon.=26.543432, Alt.=95.227600m. Speed=0.000000m/h.</desc>
<speed>0.000000</speed>
</trkpt>
<trkpt lat="56.096836" lon="26.543432">
<ele>95.229553</ele>
<time>2010-08-29T14:46:58Z</time>
<desc>lat.=56.096836, lon.=26.543432, Alt.=95.229553m. Speed=0.000000m/h.</desc>
<speed>0.000000</speed>
</trkpt>
<trkpt lat="56.096836" lon="26.543432">
<ele>95.233459</ele>
<time>2010-08-29T14:46:59Z</time>
<desc>lat.=56.096836, lon.=26.543432, Alt.=95.233459m. Speed=0.000000m/h.</desc>
<speed>0.000000</speed>
</trkpt>
<trkpt lat="56.096836" lon="26.543432">
<ele>95.243225</ele>
<time>2010-08-29T14:47:00Z</time>
<desc>lat.=56.096836, lon.=26.543432, Alt.=95.243225m. Speed=0.000000m/h.</desc>
<speed>0.000000</speed>
</trkpt>
<trkpt lat="56.096836" lon="26.543432">
<ele>95.249084</ele>
<time>2010-08-29T14:47:01Z</time>
<desc>lat.=56.096836, lon.=26.543432, Alt.=95.249084m. Speed=0.000000m/h.</desc>
<speed>0.000000</speed>
</trkpt>
<trkpt lat="56.096836" lon="26.543432">
<ele>95.252991</ele>
<time>2010-08-29T14:47:02Z</time>
<desc>lat.=56.096836, lon.=26.543432, Alt.=95.252991m. Speed=0.036000m/h.</desc>
<speed>0.010000</speed>
</trkpt>
<trkpt lat="56.096836" lon="26.543432">
<ele>95.256897</ele>
<time>2010-08-29T14:47:03Z</time>
<desc>lat.=56.096836, lon.=26.543432, Alt.=95.256897m. Speed=0.000000m/h.</desc>
<speed>0.000000</speed>
</trkpt>
<trkpt lat="56.096836" lon="26.543432">
<ele>95.258850</ele>
<time>2010-08-29T14:47:04Z</time>
<desc>lat.=56.096836, lon.=26.543432, Alt.=95.258850m. Speed=0.000000m/h.</desc>
<speed>0.000000</speed>
</trkpt>
<trkpt lat="56.096836" lon="26.543432">
<ele>95.258850</ele>
<time>2010-08-29T14:47:05Z</time>
<desc>lat.=56.096836, lon.=26.543432, Alt.=95.258850m. Speed=0.036000m/h.</desc>
<speed>0.010000</speed>
</trkpt>
<trkpt lat="56.096836" lon="26.543432">
<ele>95.262756</ele>
<time>2010-08-29T14:47:06Z</time>
<desc>lat.=56.096836, lon.=26.543432, Alt.=95.262756m. Speed=0.036000m/h.</desc>
<speed>0.010000</speed>
</trkpt>
<trkpt lat="56.096836" lon="26.543432">
<ele>95.262756</ele>
<time>2010-08-29T14:47:07Z</time>
<desc>lat.=56.096836, lon.=26.543432, Alt.=95.262756m. Speed=0.000000m/h.</desc>
<speed>0.000000</speed>
</trkpt>
<trkpt lat="56.096836" lon="26.543432">
<ele>95.264709</ele>
<time>2010-08-29T14:47:08Z</time>
<desc>lat.=56.096836, lon.=26.543432, Alt.=95.264709m. Speed=0.036000m/h.</desc>
<speed>0.010000</speed>
</trkpt>
<trkpt lat="56.096836" lon="26.543432">
<ele>95.268616</ele>
<time>2010-08-29T14:47:09Z</time>
<desc>lat.=56.096836, lon.=26.543432, Alt.=95.268616m. Speed=0.036000m/h.</desc>
<speed>0.010000</speed>
</trkpt>
<trkpt lat="56.096836" lon="26.543432">
<ele>95.272522</ele>
<time>2010-08-29T14:47:10Z</time>
<desc>lat.=56.096836, lon.=26.543432, Alt.=95.272522m. Speed=0.036000m/h.</desc>
<speed>0.010000</speed>
</trkpt>
<trkpt lat="56.096836" lon="26.543432">
<ele>95.284241</ele>
<time>2010-08-29T14:47:11Z</time>
<desc>lat.=56.096836, lon.=26.543432, Alt.=95.284241m. Speed=0.000000m/h.</desc>
<speed>0.000000</speed>
</trkpt>
<trkpt lat="56.096836" lon="26.543432">
<ele>95.288147</ele>
<time>2010-08-29T14:47:12Z</time>
<desc>lat.=56.096836, lon.=26.543432, Alt.=95.288147m. Speed=0.000000m/h.</desc>
<speed>0.000000</speed>
</trkpt>
<trkpt lat="56.096836" lon="26.543432">
<ele>95.288147</ele>
<time>2010-08-29T14:47:13Z</time>
<desc>lat.=56.096836, lon.=26.543432, Alt.=95.288147m. Speed=0.036000m/h.</desc>
<speed>0.010000</speed>
</trkpt>
<trkpt lat="56.096836" lon="26.543432">
<ele>95.292053</ele>
<time>2010-08-29T14:47:14Z</time>
<desc>lat.=56.096836, lon.=26.543432, Alt.=95.292053m. Speed=0.000000m/h.</desc>
<speed>0.000000</speed>
</trkpt>
<trkpt lat="56.096836" lon="26.543432">
<ele>95.295959</ele>
<time>2010-08-29T14:47:15Z</time>
<desc>lat.=56.096836, lon.=26.543432, Alt.=95.295959m. Speed=0.000000m/h.</desc>
<speed>0.000000</speed>
</trkpt>
<trkpt lat="56.096836" lon="26.543432">
<ele>95.301819</ele>
<time>2010-08-29T14:47:16Z</time>
<desc>lat.=56.096836, lon.=26.543432, Alt.=95.301819m. Speed=0.000000m/h.</desc>
<speed>0.000000</speed>
</trkpt>
<trkpt lat="56.096836" lon="26.543432">
<ele>95.305725</ele>
<time>2010-08-29T14:47:17Z</time>
<desc>lat.=56.096836, lon.=26.543432, Alt.=95.305725m. Speed=0.036000m/h.</desc>
<speed>0.010000</speed>
</trkpt>
<trkpt lat="56.096836" lon="26.543432">
<ele>95.307678</ele>
<time>2010-08-29T14:47:18Z</time>
<desc>lat.=56.096836, lon.=26.543432, Alt.=95.307678m. Speed=0.036000m/h.</desc>
<speed>0.010000</speed>
</trkpt>
<trkpt lat="56.096836" lon="26.543432">
<ele>95.309631</ele>
<time>2010-08-29T14:47:19Z</time>
<desc>lat.=56.096836, lon.=26.543432, Alt.=95.309631m. Speed=0.000000m/h.</desc>
<speed>0.000000</speed>
</trkpt>
<trkpt lat="56.096836" lon="26.543432">
<ele>95.313538</ele>
<time>2010-08-29T14:47:20Z</time>
<desc>lat.=56.096836, lon.=26.543432, Alt.=95.313538m. Speed=0.036000m/h.</desc>
<speed>0.010000</speed>
</trkpt>
<trkpt lat="56.096836" lon="26.543432">
<ele>95.317444</ele>
<time>2010-08-29T14:47:21Z</time>
<desc>lat.=56.096836, lon.=26.543432, Alt.=95.317444m. Speed=0.036000m/h.</desc>
<speed>0.010000</speed>
</trkpt>
<trkpt lat="56.096836" lon="26.543432">
<ele>95.321350</ele>
<time>2010-08-29T14:47:22Z</time>
<desc>lat.=56.096836, lon.=26.543432, Alt.=95.321350m. Speed=0.072000m/h.</desc>
<speed>0.020000</speed>
</trkpt>
<trkpt lat="56.096836" lon="26.543432">
<ele>95.325256</ele>
<time>2010-08-29T14:47:23Z</time>
<desc>lat.=56.096836, lon.=26.543432, Alt.=95.325256m. Speed=0.036000m/h.</desc>
<speed>0.010000</speed>
</trkpt>
<trkpt lat="56.096836" lon="26.543432">
<ele>95.329163</ele>
<time>2010-08-29T14:47:24Z</time>
<desc>lat.=56.096836, lon.=26.543432, Alt.=95.329163m. Speed=0.072000m/h.</desc>
<speed>0.020000</speed>
</trkpt>
<trkpt lat="56.096836" lon="26.543432">
<ele>95.331116</ele>
<time>2010-08-29T14:47:25Z</time>
<desc>lat.=56.096836, lon.=26.543432, Alt.=95.331116m. Speed=0.036000m/h.</desc>
<speed>0.010000</speed>
</trkpt>
<trkpt lat="56.096836" lon="26.543432">
<ele>95.335022</ele>
<time>2010-08-29T14:47:26Z</time>
<desc>lat.=56.096836, lon.=26.543432, Alt.=95.335022m. Speed=0.036000m/h.</desc>
<speed>0.010000</speed>
</trkpt>
<trkpt lat="56.096836" lon="26.543432">
<ele>95.336975</ele>
<time>2010-08-29T14:47:27Z</time>
<desc>lat.=56.096836, lon.=26.543432, Alt.=95.336975m. Speed=0.036000m/h.</desc>
<speed>0.010000</speed>
</trkpt>
<trkpt lat="56.096836" lon="26.543432">
<ele>95.344788</ele>
<time>2010-08-29T14:47:28Z</time>
<desc>lat.=56.096836, lon.=26.543432, Alt.=95.344788m. Speed=0.000000m/h.</desc>
<speed>0.000000</speed>
</trkpt>
<trkpt lat="56.096836" lon="26.543432">
<ele>95.348694</ele>
<time>2010-08-29T14:47:29Z</time>
<desc>lat.=56.096836, lon.=26.543432, Alt.=95.348694m. Speed=0.000000m/h.</desc>
<speed>0.000000</speed>
</trkpt>
<trkpt lat="56.096836" lon="26.543432">
<ele>95.352600</ele>
<time>2010-08-29T14:47:30Z</time>
<desc>lat.=56.096836, lon.=26.543432, Alt.=95.352600m. Speed=0.036000m/h.</desc>
<speed>0.010000</speed>
</trkpt>
<trkpt lat="56.096836" lon="26.543432">
<ele>95.356506</ele>
<time>2010-08-29T14:47:31Z</time>
<desc>lat.=56.096836, lon.=26.543432, Alt.=95.356506m. Speed=0.000000m/h.</desc>
<speed>0.000000</speed>
</trkpt>
<trkpt lat="56.096836" lon="26.543432">
<ele>95.358459</ele>
<time>2010-08-29T14:47:32Z</time>
<desc>lat.=56.096836, lon.=26.543432, Alt.=95.358459m. Speed=0.000000m/h.</desc>
<speed>0.000000</speed>
</trkpt>
<trkpt lat="56.096836" lon="26.543432">
<ele>95.360413</ele>
<time>2010-08-29T14:47:33Z</time>
<desc>lat.=56.096836, lon.=26.543432, Alt.=95.360413m. Speed=0.000000m/h.</desc>
<speed>0.000000</speed>
</trkpt>
<trkpt lat="56.096836" lon="26.543432">
<ele>95.364319</ele>
<time>2010-08-29T14:47:34Z</time>
<desc>lat.=56.096836, lon.=26.543432, Alt.=95.364319m. Speed=0.036000m/h.</desc>
<speed>0.010000</speed>
</trkpt>
<trkpt lat="56.096836" lon="26.543432">
<ele>95.368225</ele>
<time>2010-08-29T14:47:35Z</time>
<desc>lat.=56.096836, lon.=26.543432, Alt.=95.368225m. Speed=0.036000m/h.</desc>
<speed>0.010000</speed>
</trkpt>
<trkpt lat="56.096836" lon="26.543432">
<ele>95.376038</ele>
<time>2010-08-29T14:47:36Z</time>
<desc>lat.=56.096836, lon.=26.543432, Alt.=95.376038m. Speed=0.000000m/h.</desc>
<speed>0.000000</speed>
</trkpt>
<trkpt lat="56.096836" lon="26.543432">
<ele>95.377991</ele>
<time>2010-08-29T14:47:37Z</time>
<desc>lat.=56.096836, lon.=26.543432, Alt.=95.377991m. Speed=0.000000m/h.</desc>
<speed>0.000000</speed>
</trkpt>
<trkpt lat="56.096836" lon="26.543434">
<ele>95.379944</ele>
<time>2010-08-29T14:47:38Z</time>
<desc>lat.=56.096836, lon.=26.543434, Alt.=95.379944m. Speed=0.000000m/h.</desc>
<speed>0.000000</speed>
</trkpt>
<trkpt lat="56.096836" lon="26.543434">
<ele>95.381897</ele>
<time>2010-08-29T14:47:39Z</time>
<desc>lat.=56.096836, lon.=26.543434, Alt.=95.381897m. Speed=0.036000m/h.</desc>
<speed>0.010000</speed>
</trkpt>
<trkpt lat="56.096836" lon="26.543434">
<ele>95.385803</ele>
<time>2010-08-29T14:47:40Z</time>
<desc>lat.=56.096836, lon.=26.543434, Alt.=95.385803m. Speed=0.000000m/h.</desc>
<speed>0.000000</speed>
</trkpt>
<trkpt lat="56.096836" lon="26.543434">
<ele>95.389709</ele>
<time>2010-08-29T14:47:41Z</time>
<desc>lat.=56.096836, lon.=26.543434, Alt.=95.389709m. Speed=0.072000m/h.</desc>
<speed>0.020000</speed>
</trkpt>
<trkpt lat="56.096836" lon="26.543434">
<ele>95.393616</ele>
<time>2010-08-29T14:47:42Z</time>
<desc>lat.=56.096836, lon.=26.543434, Alt.=95.393616m. Speed=0.000000m/h.</desc>
<speed>0.000000</speed>
</trkpt>
<trkpt lat="56.096836" lon="26.543434">
<ele>95.397522</ele>
<time>2010-08-29T14:47:43Z</time>
<desc>lat.=56.096836, lon.=26.543434, Alt.=95.397522m. Speed=0.072000m/h.</desc>
<speed>0.020000</speed>
</trkpt>
<trkpt lat="56.096836" lon="26.543434">
<ele>95.407288</ele>
<time>2010-08-29T14:47:44Z</time>
<desc>lat.=56.096836, lon.=26.543434, Alt.=95.407288m. Speed=0.000000m/h.</desc>
<speed>0.000000</speed>
</trkpt>
<trkpt lat="56.096836" lon="26.543434">
<ele>95.411194</ele>
<time>2010-08-29T14:47:45Z</time>
<desc>lat.=56.096836, lon.=26.543434, Alt.=95.411194m. Speed=0.000000m/h.</desc>
<speed>0.000000</speed>
</trkpt>
<trkpt lat="56.096836" lon="26.543434">
<ele>95.413147</ele>
<time>2010-08-29T14:47:46Z</time>
<desc>lat.=56.096836, lon.=26.543434, Alt.=95.413147m. Speed=0.000000m/h.</desc>
<speed>0.000000</speed>
</trkpt>
<trkpt lat="56.096836" lon="26.543434">
<ele>95.413147</ele>
<time>2010-08-29T14:47:47Z</time>
<desc>lat.=56.096836, lon.=26.543434, Alt.=95.413147m. Speed=0.000000m/h.</desc>
<speed>0.000000</speed>
</trkpt>
<trkpt lat="56.096836" lon="26.543434">
<ele>95.417053</ele>
<time>2010-08-29T14:47:48Z</time>
<desc>lat.=56.096836, lon.=26.543434, Alt.=95.417053m. Speed=0.000000m/h.</desc>
<speed>0.000000</speed>
</trkpt>
<trkpt lat="56.096836" lon="26.543434">
<ele>95.420959</ele>
<time>2010-08-29T14:47:49Z</time>
<desc>lat.=56.096836, lon.=26.543434, Alt.=95.420959m. Speed=0.036000m/h.</desc>
<speed>0.010000</speed>
</trkpt>
<trkpt lat="56.096836" lon="26.543434">
<ele>95.428772</ele>
<time>2010-08-29T14:47:50Z</time>
<desc>lat.=56.096836, lon.=26.543434, Alt.=95.428772m. Speed=0.036000m/h.</desc>
<speed>0.010000</speed>
</trkpt>
<trkpt lat="56.096836" lon="26.543434">
<ele>95.436584</ele>
<time>2010-08-29T14:47:51Z</time>
<desc>lat.=56.096836, lon.=26.543434, Alt.=95.436584m. Speed=0.000000m/h.</desc>
<speed>0.000000</speed>
</trkpt>
<trkpt lat="56.096836" lon="26.543434">
<ele>95.442444</ele>
<time>2010-08-29T14:47:52Z</time>
<desc>lat.=56.096836, lon.=26.543434, Alt.=95.442444m. Speed=0.036000m/h.</desc>
<speed>0.010000</speed>
</trkpt>
<trkpt lat="56.096836" lon="26.543434">
<ele>95.446350</ele>
<time>2010-08-29T14:47:53Z</time>
<desc>lat.=56.096836, lon.=26.543434, Alt.=95.446350m. Speed=0.000000m/h.</desc>
<speed>0.000000</speed>
</trkpt>
<trkpt lat="56.096836" lon="26.543434">
<ele>95.446350</ele>
<time>2010-08-29T14:47:54Z</time>
<desc>lat.=56.096836, lon.=26.543434, Alt.=95.446350m. Speed=0.000000m/h.</desc>
<speed>0.000000</speed>
</trkpt>
<trkpt lat="56.096836" lon="26.543434">
<ele>95.446350</ele>
<time>2010-08-29T14:47:55Z</time>
<desc>lat.=56.096836, lon.=26.543434, Alt.=95.446350m. Speed=0.072000m/h.</desc>
<speed>0.020000</speed>
</trkpt>
<trkpt lat="56.096836" lon="26.543434">
<ele>95.446350</ele>
<time>2010-08-29T14:47:56Z</time>
<desc>lat.=56.096836, lon.=26.543434, Alt.=95.446350m. Speed=0.072000m/h.</desc>
<speed>0.020000</speed>
</trkpt>
<trkpt lat="56.096836" lon="26.543434">
<ele>95.448303</ele>
<time>2010-08-29T14:47:57Z</time>
<desc>lat.=56.096836, lon.=26.543434, Alt.=95.448303m. Speed=0.000000m/h.</desc>
<speed>0.000000</speed>
</trkpt>
<trkpt lat="56.096836" lon="26.543434">
<ele>95.452209</ele>
<time>2010-08-29T14:47:58Z</time>
<desc>lat.=56.096836, lon.=26.543434, Alt.=95.452209m. Speed=0.036000m/h.</desc>
<speed>0.010000</speed>
</trkpt>
<trkpt lat="56.096836" lon="26.543434">
<ele>95.461975</ele>
<time>2010-08-29T14:47:59Z</time>
<desc>lat.=56.096836, lon.=26.543434, Alt.=95.461975m. Speed=0.000000m/h.</desc>
<speed>0.000000</speed>
</trkpt>
<trkpt lat="56.096832" lon="26.543434">
<ele>95.467834</ele>
<time>2010-08-29T14:48:00Z</time>
<desc>lat.=56.096832, lon.=26.543434, Alt.=95.467834m. Speed=0.000000m/h.</desc>
<speed>0.000000</speed>
</trkpt>
<trkpt lat="56.096832" lon="26.543434">
<ele>95.475647</ele>
<time>2010-08-29T14:48:01Z</time>
<desc>lat.=56.096832, lon.=26.543434, Alt.=95.475647m. Speed=0.036000m/h.</desc>
<speed>0.010000</speed>
</trkpt>
<trkpt lat="56.096832" lon="26.543434">
<ele>95.481506</ele>
<time>2010-08-29T14:48:02Z</time>
<desc>lat.=56.096832, lon.=26.543434, Alt.=95.481506m. Speed=0.036000m/h.</desc>
<speed>0.010000</speed>
</trkpt>
<trkpt lat="56.096832" lon="26.543434">
<ele>95.485413</ele>
<time>2010-08-29T14:48:03Z</time>
<desc>lat.=56.096832, lon.=26.543434, Alt.=95.485413m. Speed=0.000000m/h.</desc>
<speed>0.000000</speed>
</trkpt>
<trkpt lat="56.096832" lon="26.543434">
<ele>95.489319</ele>
<time>2010-08-29T14:48:04Z</time>
<desc>lat.=56.096832, lon.=26.543434, Alt.=95.489319m. Speed=0.000000m/h.</desc>
<speed>0.000000</speed>
</trkpt>
<trkpt lat="56.096832" lon="26.543434">
<ele>95.495178</ele>
<time>2010-08-29T14:48:05Z</time>
<desc>lat.=56.096832, lon.=26.543434, Alt.=95.495178m. Speed=0.000000m/h.</desc>
<speed>0.000000</speed>
</trkpt>
<trkpt lat="56.096832" lon="26.543434">
<ele>95.502991</ele>
<time>2010-08-29T14:48:06Z</time>
<desc>lat.=56.096832, lon.=26.543434, Alt.=95.502991m. Speed=0.036000m/h.</desc>
<speed>0.010000</speed>
</trkpt>
<trkpt lat="56.096832" lon="26.543434">
<ele>95.516663</ele>
<time>2010-08-29T14:48:07Z</time>
<desc>lat.=56.096832, lon.=26.543434, Alt.=95.516663m. Speed=0.036000m/h.</desc>
<speed>0.010000</speed>
</trkpt>
<trkpt lat="56.096832" lon="26.543434">
<ele>95.526428</ele>
<time>2010-08-29T14:48:08Z</time>
<desc>lat.=56.096832, lon.=26.543434, Alt.=95.526428m. Speed=0.036000m/h.</desc>
<speed>0.010000</speed>
</trkpt>
<trkpt lat="56.096832" lon="26.543434">
<ele>95.528381</ele>
<time>2010-08-29T14:48:09Z</time>
<desc>lat.=56.096832, lon.=26.543434, Alt.=95.528381m. Speed=0.036000m/h.</desc>
<speed>0.010000</speed>
</trkpt>
<trkpt lat="56.096832" lon="26.543434">
<ele>95.544006</ele>
<time>2010-08-29T14:48:10Z</time>
<desc>lat.=56.096832, lon.=26.543434, Alt.=95.544006m. Speed=0.036000m/h.</desc>
<speed>0.010000</speed>
</trkpt>
<trkpt lat="56.096832" lon="26.543434">
<ele>95.553772</ele>
<time>2010-08-29T14:48:11Z</time>
<desc>lat.=56.096832, lon.=26.543434, Alt.=95.553772m. Speed=0.036000m/h.</desc>
<speed>0.010000</speed>
</trkpt>
<trkpt lat="56.096832" lon="26.543434">
<ele>95.559631</ele>
<time>2010-08-29T14:48:12Z</time>
<desc>lat.=56.096832, lon.=26.543434, Alt.=95.559631m. Speed=0.000000m/h.</desc>
<speed>0.000000</speed>
</trkpt>
<trkpt lat="56.096832" lon="26.543434">
<ele>95.561584</ele>
<time>2010-08-29T14:48:13Z</time>
<desc>lat.=56.096832, lon.=26.543434, Alt.=95.561584m. Speed=0.036000m/h.</desc>
<speed>0.010000</speed>
</trkpt>
<trkpt lat="56.096832" lon="26.543434">
<ele>95.561584</ele>
<time>2010-08-29T14:48:14Z</time>
<desc>lat.=56.096832, lon.=26.543434, Alt.=95.561584m. Speed=0.036000m/h.</desc>
<speed>0.010000</speed>
</trkpt>
<trkpt lat="56.096832" lon="26.543434">
<ele>95.565491</ele>
<time>2010-08-29T14:48:15Z</time>
<desc>lat.=56.096832, lon.=26.543434, Alt.=95.565491m. Speed=0.036000m/h.</desc>
<speed>0.010000</speed>
</trkpt>
<trkpt lat="56.096832" lon="26.543434">
<ele>95.571350</ele>
<time>2010-08-29T14:48:16Z</time>
<desc>lat.=56.096832, lon.=26.543434, Alt.=95.571350m. Speed=0.036000m/h.</desc>
<speed>0.010000</speed>
</trkpt>
<trkpt lat="56.096832" lon="26.543434">
<ele>95.577209</ele>
<time>2010-08-29T14:48:17Z</time>
<desc>lat.=56.096832, lon.=26.543434, Alt.=95.577209m. Speed=0.000000m/h.</desc>
<speed>0.000000</speed>
</trkpt>
<trkpt lat="56.096832" lon="26.543434">
<ele>95.586975</ele>
<time>2010-08-29T14:48:18Z</time>
<desc>lat.=56.096832, lon.=26.543434, Alt.=95.586975m. Speed=0.000000m/h.</desc>
<speed>0.000000</speed>
</trkpt>
<trkpt lat="56.096832" lon="26.543434">
<ele>95.592834</ele>
<time>2010-08-29T14:48:19Z</time>
<desc>lat.=56.096832, lon.=26.543434, Alt.=95.592834m. Speed=0.072000m/h.</desc>
<speed>0.020000</speed>
</trkpt>
<trkpt lat="56.096832" lon="26.543434">
<ele>95.594788</ele>
<time>2010-08-29T14:48:20Z</time>
<desc>lat.=56.096832, lon.=26.543434, Alt.=95.594788m. Speed=0.072000m/h.</desc>
<speed>0.020000</speed>
</trkpt>
<trkpt lat="56.096832" lon="26.543434">
<ele>95.604553</ele>
<time>2010-08-29T14:48:21Z</time>
<desc>lat.=56.096832, lon.=26.543434, Alt.=95.604553m. Speed=0.000000m/h.</desc>
<speed>0.000000</speed>
</trkpt>
<trkpt lat="56.096832" lon="26.543434">
<ele>95.618225</ele>
<time>2010-08-29T14:48:22Z</time>
<desc>lat.=56.096832, lon.=26.543434, Alt.=95.618225m. Speed=0.036000m/h.</desc>
<speed>0.010000</speed>
</trkpt>
<trkpt lat="56.096832" lon="26.543434">
<ele>95.622131</ele>
<time>2010-08-29T14:48:23Z</time>
<desc>lat.=56.096832, lon.=26.543434, Alt.=95.622131m. Speed=0.036000m/h.</desc>
<speed>0.010000</speed>
</trkpt>
<trkpt lat="56.096832" lon="26.543434">
<ele>95.626038</ele>
<time>2010-08-29T14:48:24Z</time>
<desc>lat.=56.096832, lon.=26.543434, Alt.=95.626038m. Speed=0.000000m/h.</desc>
<speed>0.000000</speed>
</trkpt>
<trkpt lat="56.096832" lon="26.543434">
<ele>95.624084</ele>
<time>2010-08-29T14:48:25Z</time>
<desc>lat.=56.096832, lon.=26.543434, Alt.=95.624084m. Speed=0.036000m/h.</desc>
<speed>0.010000</speed>
</trkpt>
<trkpt lat="56.096832" lon="26.543434">
<ele>95.620178</ele>
<time>2010-08-29T14:48:26Z</time>
<desc>lat.=56.096832, lon.=26.543434, Alt.=95.620178m. Speed=0.000000m/h.</desc>
<speed>0.000000</speed>
</trkpt>
<trkpt lat="56.096832" lon="26.543434">
<ele>95.616272</ele>
<time>2010-08-29T14:48:27Z</time>
<desc>lat.=56.096832, lon.=26.543434, Alt.=95.616272m. Speed=0.036000m/h.</desc>
<speed>0.010000</speed>
</trkpt>
<trkpt lat="56.096832" lon="26.543434">
<ele>95.614319</ele>
<time>2010-08-29T14:48:28Z</time>
<desc>lat.=56.096832, lon.=26.543434, Alt.=95.614319m. Speed=0.000000m/h.</desc>
<speed>0.000000</speed>
</trkpt>
<trkpt lat="56.096832" lon="26.543434">
<ele>95.614319</ele>
<time>2010-08-29T14:48:29Z</time>
<desc>lat.=56.096832, lon.=26.543434, Alt.=95.614319m. Speed=0.036000m/h.</desc>
<speed>0.010000</speed>
</trkpt>
<trkpt lat="56.096832" lon="26.543434">
<ele>95.616272</ele>
<time>2010-08-29T14:48:30Z</time>
<desc>lat.=56.096832, lon.=26.543434, Alt.=95.616272m. Speed=0.036000m/h.</desc>
<speed>0.010000</speed>
</trkpt>
<trkpt lat="56.096832" lon="26.543434">
<ele>95.620178</ele>
<time>2010-08-29T14:48:31Z</time>
<desc>lat.=56.096832, lon.=26.543434, Alt.=95.620178m. Speed=0.036000m/h.</desc>
<speed>0.010000</speed>
</trkpt>
<trkpt lat="56.096832" lon="26.543434">
<ele>95.626038</ele>
<time>2010-08-29T14:48:32Z</time>
<desc>lat.=56.096832, lon.=26.543434, Alt.=95.626038m. Speed=0.000000m/h.</desc>
<speed>0.000000</speed>
</trkpt>
<trkpt lat="56.096832" lon="26.543434">
<ele>95.631897</ele>
<time>2010-08-29T14:48:33Z</time>
<desc>lat.=56.096832, lon.=26.543434, Alt.=95.631897m. Speed=0.000000m/h.</desc>
<speed>0.000000</speed>
</trkpt>
<trkpt lat="56.096832" lon="26.543434">
<ele>95.639709</ele>
<time>2010-08-29T14:48:34Z</time>
<desc>lat.=56.096832, lon.=26.543434, Alt.=95.639709m. Speed=0.036000m/h.</desc>
<speed>0.010000</speed>
</trkpt>
<trkpt lat="56.096832" lon="26.543434">
<ele>95.645569</ele>
<time>2010-08-29T14:48:35Z</time>
<desc>lat.=56.096832, lon.=26.543434, Alt.=95.645569m. Speed=0.000000m/h.</desc>
<speed>0.000000</speed>
</trkpt>
<trkpt lat="56.096832" lon="26.543434">
<ele>95.653381</ele>
<time>2010-08-29T14:48:36Z</time>
<desc>lat.=56.096832, lon.=26.543434, Alt.=95.653381m. Speed=0.036000m/h.</desc>
<speed>0.010000</speed>
</trkpt>
<trkpt lat="56.096832" lon="26.543434">
<ele>95.661194</ele>
<time>2010-08-29T14:48:37Z</time>
<desc>lat.=56.096832, lon.=26.543434, Alt.=95.661194m. Speed=0.000000m/h.</desc>
<speed>0.000000</speed>
</trkpt>
<trkpt lat="56.096832" lon="26.543434">
<ele>95.667053</ele>
<time>2010-08-29T14:48:38Z</time>
<desc>lat.=56.096832, lon.=26.543434, Alt.=95.667053m. Speed=0.000000m/h.</desc>
<speed>0.000000</speed>
</trkpt>
<trkpt lat="56.096832" lon="26.543434">
<ele>95.670959</ele>
<time>2010-08-29T14:48:39Z</time>
<desc>lat.=56.096832, lon.=26.543434, Alt.=95.670959m. Speed=0.000000m/h.</desc>
<speed>0.000000</speed>
</trkpt>
<trkpt lat="56.096832" lon="26.543434">
<ele>95.670959</ele>
<time>2010-08-29T14:48:40Z</time>
<desc>lat.=56.096832, lon.=26.543434, Alt.=95.670959m. Speed=0.036000m/h.</desc>
<speed>0.010000</speed>
</trkpt>
<trkpt lat="56.096832" lon="26.543434">
<ele>95.670959</ele>
<time>2010-08-29T14:48:41Z</time>
<desc>lat.=56.096832, lon.=26.543434, Alt.=95.670959m. Speed=0.000000m/h.</desc>
<speed>0.000000</speed>
</trkpt>
<trkpt lat="56.096832" lon="26.543434">
<ele>95.669006</ele>
<time>2010-08-29T14:48:42Z</time>
<desc>lat.=56.096832, lon.=26.543434, Alt.=95.669006m. Speed=0.000000m/h.</desc>
<speed>0.000000</speed>
</trkpt>
<trkpt lat="56.096832" lon="26.543434">
<ele>95.667053</ele>
<time>2010-08-29T14:48:43Z</time>
<desc>lat.=56.096832, lon.=26.543434, Alt.=95.667053m. Speed=0.000000m/h.</desc>
<speed>0.000000</speed>
</trkpt>
<trkpt lat="56.096832" lon="26.543434">
<ele>95.669006</ele>
<time>2010-08-29T14:48:44Z</time>
<desc>lat.=56.096832, lon.=26.543434, Alt.=95.669006m. Speed=0.036000m/h.</desc>
<speed>0.010000</speed>
</trkpt>
<trkpt lat="56.096832" lon="26.543434">
<ele>95.667053</ele>
<time>2010-08-29T14:48:45Z</time>
<desc>lat.=56.096832, lon.=26.543434, Alt.=95.667053m. Speed=0.072000m/h.</desc>
<speed>0.020000</speed>
</trkpt>
<trkpt lat="56.096832" lon="26.543434">
<ele>95.669006</ele>
<time>2010-08-29T14:48:46Z</time>
<desc>lat.=56.096832, lon.=26.543434, Alt.=95.669006m. Speed=0.000000m/h.</desc>
<speed>0.000000</speed>
</trkpt>
<trkpt lat="56.096832" lon="26.543434">
<ele>95.672913</ele>
<time>2010-08-29T14:48:47Z</time>
<desc>lat.=56.096832, lon.=26.543434, Alt.=95.672913m. Speed=0.000000m/h.</desc>
<speed>0.000000</speed>
</trkpt>
<trkpt lat="56.096832" lon="26.543436">
<ele>95.678772</ele>
<time>2010-08-29T14:48:48Z</time>
<desc>lat.=56.096832, lon.=26.543436, Alt.=95.678772m. Speed=0.072000m/h.</desc>
<speed>0.020000</speed>
</trkpt>
<trkpt lat="56.096832" lon="26.543436">
<ele>95.682678</ele>
<time>2010-08-29T14:48:49Z</time>
<desc>lat.=56.096832, lon.=26.543436, Alt.=95.682678m. Speed=0.108000m/h.</desc>
<speed>0.030000</speed>
</trkpt>
<trkpt lat="56.096832" lon="26.543436">
<ele>95.690491</ele>
<time>2010-08-29T14:48:50Z</time>
<desc>lat.=56.096832, lon.=26.543436, Alt.=95.690491m. Speed=0.828000m/h.</desc>
<speed>0.230000</speed>
</trkpt>
<trkpt lat="56.096832" lon="26.543434">
<ele>95.702209</ele>
<time>2010-08-29T14:48:51Z</time>
<desc>lat.=56.096832, lon.=26.543434, Alt.=95.702209m. Speed=3.276000m/h.</desc>
<speed>0.910000</speed>
</trkpt>
<trkpt lat="56.096836" lon="26.543425">
<ele>96.112366</ele>
<time>2010-08-29T14:48:52Z</time>
<desc>lat.=56.096836, lon.=26.543425, Alt.=96.112366m. Speed=3.924000m/h.</desc>
<speed>1.090000</speed>
</trkpt>
<trkpt lat="56.096832" lon="26.543404">
<ele>96.870178</ele>
<time>2010-08-29T14:48:53Z</time>
<desc>lat.=56.096832, lon.=26.543404, Alt.=96.870178m. Speed=4.644000m/h.</desc>
<speed>1.290000</speed>
</trkpt>
<trkpt lat="56.096825" lon="26.543386">
<ele>97.774475</ele>
<time>2010-08-29T14:48:54Z</time>
<desc>lat.=56.096825, lon.=26.543386, Alt.=97.774475m. Speed=4.248000m/h.</desc>
<speed>1.180000</speed>
</trkpt>
<trkpt lat="56.096825" lon="26.543367">
<ele>98.389709</ele>
<time>2010-08-29T14:48:55Z</time>
<desc>lat.=56.096825, lon.=26.543367, Alt.=98.389709m. Speed=3.420000m/h.</desc>
<speed>0.950000</speed>
</trkpt>
<trkpt lat="56.096832" lon="26.543350">
<ele>98.905334</ele>
<time>2010-08-29T14:48:56Z</time>
<desc>lat.=56.096832, lon.=26.543350, Alt.=98.905334m. Speed=4.032000m/h.</desc>
<speed>1.120000</speed>
</trkpt>
<trkpt lat="56.096836" lon="26.543333">
<ele>99.702209</ele>
<time>2010-08-29T14:48:57Z</time>
<desc>lat.=56.096836, lon.=26.543333, Alt.=99.702209m. Speed=4.428000m/h.</desc>
<speed>1.230000</speed>
</trkpt>
<trkpt lat="56.096840" lon="26.543320">
<ele>99.940491</ele>
<time>2010-08-29T14:48:58Z</time>
<desc>lat.=56.096840, lon.=26.543320, Alt.=99.940491m. Speed=3.024000m/h.</desc>
<speed>0.840000</speed>
</trkpt>
<trkpt lat="56.096848" lon="26.543310">
<ele>100.557678</ele>
<time>2010-08-29T14:48:59Z</time>
<desc>lat.=56.096848, lon.=26.543310, Alt.=100.557678m. Speed=3.240000m/h.</desc>
<speed>0.900000</speed>
</trkpt>
<trkpt lat="56.096855" lon="26.543303">
<ele>101.567444</ele>
<time>2010-08-29T14:49:00Z</time>
<desc>lat.=56.096855, lon.=26.543303, Alt.=101.567444m. Speed=2.232000m/h.</desc>
<speed>0.620000</speed>
</trkpt>
<trkpt lat="56.096859" lon="26.543293">
<ele>101.788147</ele>
<time>2010-08-29T14:49:01Z</time>
<desc>lat.=56.096859, lon.=26.543293, Alt.=101.788147m. Speed=2.268000m/h.</desc>
<speed>0.630000</speed>
</trkpt>
<trkpt lat="56.096859" lon="26.543295">
<ele>101.911194</ele>
<time>2010-08-29T14:49:02Z</time>
<desc>lat.=56.096859, lon.=26.543295, Alt.=101.911194m. Speed=0.720000m/h.</desc>
<speed>0.200000</speed>
</trkpt>
<trkpt lat="56.096867" lon="26.543297">
<ele>101.897522</ele>
<time>2010-08-29T14:49:03Z</time>
<desc>lat.=56.096867, lon.=26.543297, Alt.=101.897522m. Speed=3.096000m/h.</desc>
<speed>0.860000</speed>
</trkpt>
<trkpt lat="56.096874" lon="26.543301">
<ele>101.995178</ele>
<time>2010-08-29T14:49:04Z</time>
<desc>lat.=56.096874, lon.=26.543301, Alt.=101.995178m. Speed=4.068000m/h.</desc>
<speed>1.130000</speed>
</trkpt>
<trkpt lat="56.096886" lon="26.543299">
<ele>101.958069</ele>
<time>2010-08-29T14:49:05Z</time>
<desc>lat.=56.096886, lon.=26.543299, Alt.=101.958069m. Speed=5.112000m/h.</desc>
<speed>1.420000</speed>
</trkpt>
<trkpt lat="56.096905" lon="26.543308">
<ele>101.948303</ele>
<time>2010-08-29T14:49:06Z</time>
<desc>lat.=56.096905, lon.=26.543308, Alt.=101.948303m. Speed=5.184000m/h.</desc>
<speed>1.440000</speed>
</trkpt>
<trkpt lat="56.096916" lon="26.543316">
<ele>101.940491</ele>
<time>2010-08-29T14:49:07Z</time>
<desc>lat.=56.096916, lon.=26.543316, Alt.=101.940491m. Speed=6.876000m/h.</desc>
<speed>1.910000</speed>
</trkpt>
<trkpt lat="56.096931" lon="26.543308">
<ele>101.766663</ele>
<time>2010-08-29T14:49:08Z</time>
<desc>lat.=56.096931, lon.=26.543308, Alt.=101.766663m. Speed=7.524000m/h.</desc>
<speed>2.090000</speed>
</trkpt>
<trkpt lat="56.096947" lon="26.543295">
<ele>101.786194</ele>
<time>2010-08-29T14:49:09Z</time>
<desc>lat.=56.096947, lon.=26.543295, Alt.=101.786194m. Speed=5.940000m/h.</desc>
<speed>1.650000</speed>
</trkpt>
<trkpt lat="56.096958" lon="26.543285">
<ele>101.653381</ele>
<time>2010-08-29T14:49:10Z</time>
<desc>lat.=56.096958, lon.=26.543285, Alt.=101.653381m. Speed=5.220000m/h.</desc>
<speed>1.450000</speed>
</trkpt>
<trkpt lat="56.096970" lon="26.543272">
<ele>102.704163</ele>
<time>2010-08-29T14:49:11Z</time>
<desc>lat.=56.096970, lon.=26.543272, Alt.=102.704163m. Speed=4.788000m/h.</desc>
<speed>1.330000</speed>
</trkpt>
<trkpt lat="56.096981" lon="26.543266">
<ele>102.856506</ele>
<time>2010-08-29T14:49:12Z</time>
<desc>lat.=56.096981, lon.=26.543266, Alt.=102.856506m. Speed=4.140000m/h.</desc>
<speed>1.150000</speed>
</trkpt>
<trkpt lat="56.096989" lon="26.543264">
<ele>102.973694</ele>
<time>2010-08-29T14:49:13Z</time>
<desc>lat.=56.096989, lon.=26.543264, Alt.=102.973694m. Speed=4.140000m/h.</desc>
<speed>1.150000</speed>
</trkpt>
<trkpt lat="56.097004" lon="26.543261">
<ele>102.958069</ele>
<time>2010-08-29T14:49:14Z</time>
<desc>lat.=56.097004, lon.=26.543261, Alt.=102.958069m. Speed=5.040000m/h.</desc>
<speed>1.400000</speed>
</trkpt>
<trkpt lat="56.097015" lon="26.543264">
<ele>103.081116</ele>
<time>2010-08-29T14:49:15Z</time>
<desc>lat.=56.097015, lon.=26.543264, Alt.=103.081116m. Speed=6.048000m/h.</desc>
<speed>1.680000</speed>
</trkpt>
<trkpt lat="56.097034" lon="26.543262">
<ele>103.686584</ele>
<time>2010-08-29T14:49:16Z</time>
<desc>lat.=56.097034, lon.=26.543262, Alt.=103.686584m. Speed=6.444000m/h.</desc>
<speed>1.790000</speed>
</trkpt>
<trkpt lat="56.097050" lon="26.543257">
<ele>103.719788</ele>
<time>2010-08-29T14:49:17Z</time>
<desc>lat.=56.097050, lon.=26.543257, Alt.=103.719788m. Speed=6.408000m/h.</desc>
<speed>1.780000</speed>
</trkpt>
<trkpt lat="56.097065" lon="26.543257">
<ele>103.710022</ele>
<time>2010-08-29T14:49:18Z</time>
<desc>lat.=56.097065, lon.=26.543257, Alt.=103.710022m. Speed=6.588000m/h.</desc>
<speed>1.830000</speed>
</trkpt>
<trkpt lat="56.097084" lon="26.543261">
<ele>103.877991</ele>
<time>2010-08-29T14:49:19Z</time>
<desc>lat.=56.097084, lon.=26.543261, Alt.=103.877991m. Speed=6.264000m/h.</desc>
<speed>1.740000</speed>
</trkpt>
<trkpt lat="56.097095" lon="26.543262">
<ele>102.411194</ele>
<time>2010-08-29T14:49:20Z</time>
<desc>lat.=56.097095, lon.=26.543262, Alt.=102.411194m. Speed=5.112000m/h.</desc>
<speed>1.420000</speed>
</trkpt>
<trkpt lat="56.097111" lon="26.543262">
<ele>102.139709</ele>
<time>2010-08-29T14:49:21Z</time>
<desc>lat.=56.097111, lon.=26.543262, Alt.=102.139709m. Speed=5.220000m/h.</desc>
<speed>1.450000</speed>
</trkpt>
<trkpt lat="56.097122" lon="26.543261">
<ele>101.973694</ele>
<time>2010-08-29T14:49:22Z</time>
<desc>lat.=56.097122, lon.=26.543261, Alt.=101.973694m. Speed=4.824000m/h.</desc>
<speed>1.340000</speed>
</trkpt>
<trkpt lat="56.097137" lon="26.543266">
<ele>102.213928</ele>
<time>2010-08-29T14:49:23Z</time>
<desc>lat.=56.097137, lon.=26.543266, Alt.=102.213928m. Speed=4.536000m/h.</desc>
<speed>1.260000</speed>
</trkpt>
<trkpt lat="56.097149" lon="26.543272">
<ele>102.266663</ele>
<time>2010-08-29T14:49:24Z</time>
<desc>lat.=56.097149, lon.=26.543272, Alt.=102.266663m. Speed=5.364000m/h.</desc>
<speed>1.490000</speed>
</trkpt>
<trkpt lat="56.097168" lon="26.543280">
<ele>102.405334</ele>
<time>2010-08-29T14:49:25Z</time>
<desc>lat.=56.097168, lon.=26.543280, Alt.=102.405334m. Speed=5.940000m/h.</desc>
<speed>1.650000</speed>
</trkpt>
<trkpt lat="56.097179" lon="26.543283">
<ele>102.379944</ele>
<time>2010-08-29T14:49:26Z</time>
<desc>lat.=56.097179, lon.=26.543283, Alt.=102.379944m. Speed=5.472000m/h.</desc>
<speed>1.520000</speed>
</trkpt>
<trkpt lat="56.097195" lon="26.543283">
<ele>102.436584</ele>
<time>2010-08-29T14:49:27Z</time>
<desc>lat.=56.097195, lon.=26.543283, Alt.=102.436584m. Speed=4.968000m/h.</desc>
<speed>1.380000</speed>
</trkpt>
<trkpt lat="56.097202" lon="26.543282">
<ele>102.407288</ele>
<time>2010-08-29T14:49:28Z</time>
<desc>lat.=56.097202, lon.=26.543282, Alt.=102.407288m. Speed=4.896000m/h.</desc>
<speed>1.360000</speed>
</trkpt>
<trkpt lat="56.097218" lon="26.543282">
<ele>102.534241</ele>
<time>2010-08-29T14:49:29Z</time>
<desc>lat.=56.097218, lon.=26.543282, Alt.=102.534241m. Speed=5.184000m/h.</desc>
<speed>1.440000</speed>
</trkpt>
<trkpt lat="56.097225" lon="26.543282">
<ele>101.678772</ele>
<time>2010-08-29T14:49:30Z</time>
<desc>lat.=56.097225, lon.=26.543282, Alt.=101.678772m. Speed=3.672000m/h.</desc>
<speed>1.020000</speed>
</trkpt>
<trkpt lat="56.097233" lon="26.543280">
<ele>101.258850</ele>
<time>2010-08-29T14:49:31Z</time>
<desc>lat.=56.097233, lon.=26.543280, Alt.=101.258850m. Speed=3.816000m/h.</desc>
<speed>1.060000</speed>
</trkpt>
<trkpt lat="56.097248" lon="26.543280">
<ele>101.215881</ele>
<time>2010-08-29T14:49:32Z</time>
<desc>lat.=56.097248, lon.=26.543280, Alt.=101.215881m. Speed=5.616000m/h.</desc>
<speed>1.560000</speed>
</trkpt>
<trkpt lat="56.097263" lon="26.543283">
<ele>101.096741</ele>
<time>2010-08-29T14:49:33Z</time>
<desc>lat.=56.097263, lon.=26.543283, Alt.=101.096741m. Speed=6.372000m/h.</desc>
<speed>1.770000</speed>
</trkpt>
<trkpt lat="56.097279" lon="26.543282">
<ele>101.317444</ele>
<time>2010-08-29T14:49:34Z</time>
<desc>lat.=56.097279, lon.=26.543282, Alt.=101.317444m. Speed=6.372000m/h.</desc>
<speed>1.770000</speed>
</trkpt>
<trkpt lat="56.097294" lon="26.543280">
<ele>101.569397</ele>
<time>2010-08-29T14:49:35Z</time>
<desc>lat.=56.097294, lon.=26.543280, Alt.=101.569397m. Speed=5.832000m/h.</desc>
<speed>1.620000</speed>
</trkpt>
<trkpt lat="56.097305" lon="26.543280">
<ele>101.698303</ele>
<time>2010-08-29T14:49:36Z</time>
<desc>lat.=56.097305, lon.=26.543280, Alt.=101.698303m. Speed=5.472000m/h.</desc>
<speed>1.520000</speed>
</trkpt>
<trkpt lat="56.097317" lon="26.543274">
<ele>101.985413</ele>
<time>2010-08-29T14:49:37Z</time>
<desc>lat.=56.097317, lon.=26.543274, Alt.=101.985413m. Speed=3.672000m/h.</desc>
<speed>1.020000</speed>
</trkpt>
<trkpt lat="56.097328" lon="26.543255">
<ele>102.295959</ele>
<time>2010-08-29T14:49:38Z</time>
<desc>lat.=56.097328, lon.=26.543255, Alt.=102.295959m. Speed=7.164000m/h.</desc>
<speed>1.990000</speed>
</trkpt>
<trkpt lat="56.097340" lon="26.543228">
<ele>102.499084</ele>
<time>2010-08-29T14:49:39Z</time>
<desc>lat.=56.097340, lon.=26.543228, Alt.=102.499084m. Speed=8.352000m/h.</desc>
<speed>2.320000</speed>
</trkpt>
<trkpt lat="56.097347" lon="26.543198">
<ele>101.876038</ele>
<time>2010-08-29T14:49:40Z</time>
<desc>lat.=56.097347, lon.=26.543198, Alt.=101.876038m. Speed=8.820000m/h.</desc>
<speed>2.450000</speed>
</trkpt>
<trkpt lat="56.097363" lon="26.543165">
<ele>102.028381</ele>
<time>2010-08-29T14:49:41Z</time>
<desc>lat.=56.097363, lon.=26.543165, Alt.=102.028381m. Speed=9.432000m/h.</desc>
<speed>2.620000</speed>
</trkpt>
<trkpt lat="56.097374" lon="26.543129">
<ele>101.817444</ele>
<time>2010-08-29T14:49:42Z</time>
<desc>lat.=56.097374, lon.=26.543129, Alt.=101.817444m. Speed=10.008000m/h.</desc>
<speed>2.780000</speed>
</trkpt>
<trkpt lat="56.097385" lon="26.543083">
<ele>101.465881</ele>
<time>2010-08-29T14:49:43Z</time>
<desc>lat.=56.097385, lon.=26.543083, Alt.=101.465881m. Speed=10.260000m/h.</desc>
<speed>2.850000</speed>
</trkpt>
<trkpt lat="56.097393" lon="26.543041">
<ele>101.114319</ele>
<time>2010-08-29T14:49:44Z</time>
<desc>lat.=56.097393, lon.=26.543041, Alt.=101.114319m. Speed=10.836000m/h.</desc>
<speed>3.010000</speed>
</trkpt>
<trkpt lat="56.097401" lon="26.542992">
<ele>100.999084</ele>
<time>2010-08-29T14:49:45Z</time>
<desc>lat.=56.097401, lon.=26.542992, Alt.=100.999084m. Speed=10.908000m/h.</desc>
<speed>3.030000</speed>
</trkpt>
<trkpt lat="56.097404" lon="26.542942">
<ele>100.956116</ele>
<time>2010-08-29T14:49:46Z</time>
<desc>lat.=56.097404, lon.=26.542942, Alt.=100.956116m. Speed=11.340000m/h.</desc>
<speed>3.150000</speed>
</trkpt>
<trkpt lat="56.097412" lon="26.542889">
<ele>100.950256</ele>
<time>2010-08-29T14:49:47Z</time>
<desc>lat.=56.097412, lon.=26.542889, Alt.=100.950256m. Speed=11.592000m/h.</desc>
<speed>3.220000</speed>
</trkpt>
<trkpt lat="56.097424" lon="26.542835">
<ele>101.272522</ele>
<time>2010-08-29T14:49:48Z</time>
<desc>lat.=56.097424, lon.=26.542835, Alt.=101.272522m. Speed=11.916000m/h.</desc>
<speed>3.310000</speed>
</trkpt>
<trkpt lat="56.097431" lon="26.542780">
<ele>101.342834</ele>
<time>2010-08-29T14:49:49Z</time>
<desc>lat.=56.097431, lon.=26.542780, Alt.=101.342834m. Speed=11.988000m/h.</desc>
<speed>3.330000</speed>
</trkpt>
<trkpt lat="56.097439" lon="26.542723">
<ele>101.262756</ele>
<time>2010-08-29T14:49:50Z</time>
<desc>lat.=56.097439, lon.=26.542723, Alt.=101.262756m. Speed=12.024000m/h.</desc>
<speed>3.340000</speed>
</trkpt>
<trkpt lat="56.097443" lon="26.542665">
<ele>101.256897</ele>
<time>2010-08-29T14:49:51Z</time>
<desc>lat.=56.097443, lon.=26.542665, Alt.=101.256897m. Speed=12.240000m/h.</desc>
<speed>3.400000</speed>
</trkpt>
<trkpt lat="56.097450" lon="26.542612">
<ele>101.081116</ele>
<time>2010-08-29T14:49:52Z</time>
<desc>lat.=56.097450, lon.=26.542612, Alt.=101.081116m. Speed=12.276000m/h.</desc>
<speed>3.410000</speed>
</trkpt>
<trkpt lat="56.097454" lon="26.542559">
<ele>101.024475</ele>
<time>2010-08-29T14:49:53Z</time>
<desc>lat.=56.097454, lon.=26.542559, Alt.=101.024475m. Speed=12.384000m/h.</desc>
<speed>3.440000</speed>
</trkpt>
<trkpt lat="56.097462" lon="26.542503">
<ele>100.657288</ele>
<time>2010-08-29T14:49:54Z</time>
<desc>lat.=56.097462, lon.=26.542503, Alt.=100.657288m. Speed=12.528000m/h.</desc>
<speed>3.480000</speed>
</trkpt>
<trkpt lat="56.097469" lon="26.542448">
<ele>100.663147</ele>
<time>2010-08-29T14:49:55Z</time>
<desc>lat.=56.097469, lon.=26.542448, Alt.=100.663147m. Speed=12.672000m/h.</desc>
<speed>3.520000</speed>
</trkpt>
<trkpt lat="56.097481" lon="26.542391">
<ele>100.723694</ele>
<time>2010-08-29T14:49:56Z</time>
<desc>lat.=56.097481, lon.=26.542391, Alt.=100.723694m. Speed=12.708000m/h.</desc>
<speed>3.530000</speed>
</trkpt>
<trkpt lat="56.097488" lon="26.542334">
<ele>100.618225</ele>
<time>2010-08-29T14:49:57Z</time>
<desc>lat.=56.097488, lon.=26.542334, Alt.=100.618225m. Speed=12.852000m/h.</desc>
<speed>3.570000</speed>
</trkpt>
<trkpt lat="56.097496" lon="26.542280">
<ele>100.551819</ele>
<time>2010-08-29T14:49:58Z</time>
<desc>lat.=56.097496, lon.=26.542280, Alt.=100.551819m. Speed=12.960000m/h.</desc>
<speed>3.600000</speed>
</trkpt>
<trkpt lat="56.097504" lon="26.542225">
<ele>100.559631</ele>
<time>2010-08-29T14:49:59Z</time>
<desc>lat.=56.097504, lon.=26.542225, Alt.=100.559631m. Speed=12.996000m/h.</desc>
<speed>3.610000</speed>
</trkpt>
<trkpt lat="56.097511" lon="26.542168">
<ele>100.379944</ele>
<time>2010-08-29T14:50:00Z</time>
<desc>lat.=56.097511, lon.=26.542168, Alt.=100.379944m. Speed=12.996000m/h.</desc>
<speed>3.610000</speed>
</trkpt>
<trkpt lat="56.097519" lon="26.542114">
<ele>100.237366</ele>
<time>2010-08-29T14:50:01Z</time>
<desc>lat.=56.097519, lon.=26.542114, Alt.=100.237366m. Speed=12.924000m/h.</desc>
<speed>3.590000</speed>
</trkpt>
<trkpt lat="56.097527" lon="26.542059">
<ele>99.850647</ele>
<time>2010-08-29T14:50:02Z</time>
<desc>lat.=56.097527, lon.=26.542059, Alt.=99.850647m. Speed=12.996000m/h.</desc>
<speed>3.610000</speed>
</trkpt>
<trkpt lat="56.097534" lon="26.542007">
<ele>99.842834</ele>
<time>2010-08-29T14:50:03Z</time>
<desc>lat.=56.097534, lon.=26.542007, Alt.=99.842834m. Speed=12.816000m/h.</desc>
<speed>3.560000</speed>
</trkpt>
<trkpt lat="56.097538" lon="26.541950">
<ele>98.502991</ele>
<time>2010-08-29T14:50:04Z</time>
<desc>lat.=56.097538, lon.=26.541950, Alt.=98.502991m. Speed=12.816000m/h.</desc>
<speed>3.560000</speed>
</trkpt>
<trkpt lat="56.097546" lon="26.541895">
<ele>97.973694</ele>
<time>2010-08-29T14:50:05Z</time>
<desc>lat.=56.097546, lon.=26.541895, Alt.=97.973694m. Speed=12.672000m/h.</desc>
<speed>3.520000</speed>
</trkpt>
<trkpt lat="56.097553" lon="26.541840">
<ele>97.940491</ele>
<time>2010-08-29T14:50:06Z</time>
<desc>lat.=56.097553, lon.=26.541840, Alt.=97.940491m. Speed=12.780000m/h.</desc>
<speed>3.550000</speed>
</trkpt>
<trkpt lat="56.097565" lon="26.541782">
<ele>97.626038</ele>
<time>2010-08-29T14:50:07Z</time>
<desc>lat.=56.097565, lon.=26.541782, Alt.=97.626038m. Speed=12.816000m/h.</desc>
<speed>3.560000</speed>
</trkpt>
<trkpt lat="56.097572" lon="26.541725">
<ele>97.475647</ele>
<time>2010-08-29T14:50:08Z</time>
<desc>lat.=56.097572, lon.=26.541725, Alt.=97.475647m. Speed=12.996000m/h.</desc>
<speed>3.610000</speed>
</trkpt>
<trkpt lat="56.097584" lon="26.541668">
<ele>97.340881</ele>
<time>2010-08-29T14:50:09Z</time>
<desc>lat.=56.097584, lon.=26.541668, Alt.=97.340881m. Speed=13.248000m/h.</desc>
<speed>3.680000</speed>
</trkpt>
<trkpt lat="56.097595" lon="26.541611">
<ele>97.249084</ele>
<time>2010-08-29T14:50:10Z</time>
<desc>lat.=56.097595, lon.=26.541611, Alt.=97.249084m. Speed=13.248000m/h.</desc>
<speed>3.680000</speed>
</trkpt>
<trkpt lat="56.097603" lon="26.541550">
<ele>97.135803</ele>
<time>2010-08-29T14:50:11Z</time>
<desc>lat.=56.097603, lon.=26.541550, Alt.=97.135803m. Speed=12.924000m/h.</desc>
<speed>3.590000</speed>
</trkpt>
<trkpt lat="56.097607" lon="26.541494">
<ele>96.860413</ele>
<time>2010-08-29T14:50:12Z</time>
<desc>lat.=56.097607, lon.=26.541494, Alt.=96.860413m. Speed=12.564000m/h.</desc>
<speed>3.490000</speed>
</trkpt>
<trkpt lat="56.097610" lon="26.541445">
<ele>96.872131</ele>
<time>2010-08-29T14:50:13Z</time>
<desc>lat.=56.097610, lon.=26.541445, Alt.=96.872131m. Speed=12.096000m/h.</desc>
<speed>3.360000</speed>
</trkpt>
<trkpt lat="56.097618" lon="26.541389">
<ele>97.165100</ele>
<time>2010-08-29T14:50:14Z</time>
<desc>lat.=56.097618, lon.=26.541389, Alt.=97.165100m. Speed=11.880000m/h.</desc>
<speed>3.300000</speed>
</trkpt>
<trkpt lat="56.097630" lon="26.541338">
<ele>97.325256</ele>
<time>2010-08-29T14:50:15Z</time>
<desc>lat.=56.097630, lon.=26.541338, Alt.=97.325256m. Speed=11.808000m/h.</desc>
<speed>3.280000</speed>
</trkpt>
<trkpt lat="56.097637" lon="26.541286">
<ele>97.565491</ele>
<time>2010-08-29T14:50:16Z</time>
<desc>lat.=56.097637, lon.=26.541286, Alt.=97.565491m. Speed=11.844000m/h.</desc>
<speed>3.290000</speed>
</trkpt>
<trkpt lat="56.097645" lon="26.541235">
<ele>97.610413</ele>
<time>2010-08-29T14:50:17Z</time>
<desc>lat.=56.097645, lon.=26.541235, Alt.=97.610413m. Speed=11.844000m/h.</desc>
<speed>3.290000</speed>
</trkpt>
<trkpt lat="56.097652" lon="26.541183">
<ele>97.706116</ele>
<time>2010-08-29T14:50:18Z</time>
<desc>lat.=56.097652, lon.=26.541183, Alt.=97.706116m. Speed=11.736000m/h.</desc>
<speed>3.260000</speed>
</trkpt>
<trkpt lat="56.097656" lon="26.541138">
<ele>97.721741</ele>
<time>2010-08-29T14:50:19Z</time>
<desc>lat.=56.097656, lon.=26.541138, Alt.=97.721741m. Speed=11.592000m/h.</desc>
<speed>3.220000</speed>
</trkpt>
<trkpt lat="56.097668" lon="26.541092">
<ele>97.766663</ele>
<time>2010-08-29T14:50:20Z</time>
<desc>lat.=56.097668, lon.=26.541092, Alt.=97.766663m. Speed=11.592000m/h.</desc>
<speed>3.220000</speed>
</trkpt>
<trkpt lat="56.097675" lon="26.541044">
<ele>97.544006</ele>
<time>2010-08-29T14:50:21Z</time>
<desc>lat.=56.097675, lon.=26.541044, Alt.=97.544006m. Speed=11.376000m/h.</desc>
<speed>3.160000</speed>
</trkpt>
<trkpt lat="56.097687" lon="26.540997">
<ele>97.702209</ele>
<time>2010-08-29T14:50:22Z</time>
<desc>lat.=56.097687, lon.=26.540997, Alt.=97.702209m. Speed=10.764000m/h.</desc>
<speed>2.990000</speed>
</trkpt>
<trkpt lat="56.097691" lon="26.540953">
<ele>97.840881</ele>
<time>2010-08-29T14:50:23Z</time>
<desc>lat.=56.097691, lon.=26.540953, Alt.=97.840881m. Speed=10.044000m/h.</desc>
<speed>2.790000</speed>
</trkpt>
<trkpt lat="56.097698" lon="26.540907">
<ele>98.038147</ele>
<time>2010-08-29T14:50:24Z</time>
<desc>lat.=56.097698, lon.=26.540907, Alt.=98.038147m. Speed=10.224000m/h.</desc>
<speed>2.840000</speed>
</trkpt>
<trkpt lat="56.097702" lon="26.540861">
<ele>97.960022</ele>
<time>2010-08-29T14:50:25Z</time>
<desc>lat.=56.097702, lon.=26.540861, Alt.=97.960022m. Speed=11.232000m/h.</desc>
<speed>3.120000</speed>
</trkpt>
<trkpt lat="56.097713" lon="26.540810">
<ele>98.110413</ele>
<time>2010-08-29T14:50:26Z</time>
<desc>lat.=56.097713, lon.=26.540810, Alt.=98.110413m. Speed=12.060000m/h.</desc>
<speed>3.350000</speed>
</trkpt>
<trkpt lat="56.097721" lon="26.540756">
<ele>98.067444</ele>
<time>2010-08-29T14:50:27Z</time>
<desc>lat.=56.097721, lon.=26.540756, Alt.=98.067444m. Speed=11.700000m/h.</desc>
<speed>3.250000</speed>
</trkpt>
<trkpt lat="56.097729" lon="26.540707">
<ele>98.018616</ele>
<time>2010-08-29T14:50:28Z</time>
<desc>lat.=56.097729, lon.=26.540707, Alt.=98.018616m. Speed=11.448000m/h.</desc>
<speed>3.180000</speed>
</trkpt>
<trkpt lat="56.097733" lon="26.540653">
<ele>97.965881</ele>
<time>2010-08-29T14:50:29Z</time>
<desc>lat.=56.097733, lon.=26.540653, Alt.=97.965881m. Speed=11.304000m/h.</desc>
<speed>3.140000</speed>
</trkpt>
<trkpt lat="56.097740" lon="26.540604">
<ele>98.036194</ele>
<time>2010-08-29T14:50:30Z</time>
<desc>lat.=56.097740, lon.=26.540604, Alt.=98.036194m. Speed=11.196000m/h.</desc>
<speed>3.110000</speed>
</trkpt>
<trkpt lat="56.097748" lon="26.540554">
<ele>97.954163</ele>
<time>2010-08-29T14:50:31Z</time>
<desc>lat.=56.097748, lon.=26.540554, Alt.=97.954163m. Speed=10.908000m/h.</desc>
<speed>3.030000</speed>
</trkpt>
<trkpt lat="56.097755" lon="26.540512">
<ele>97.958069</ele>
<time>2010-08-29T14:50:32Z</time>
<desc>lat.=56.097755, lon.=26.540512, Alt.=97.958069m. Speed=10.728000m/h.</desc>
<speed>2.980000</speed>
</trkpt>
<trkpt lat="56.097767" lon="26.540468">
<ele>97.987366</ele>
<time>2010-08-29T14:50:33Z</time>
<desc>lat.=56.097767, lon.=26.540468, Alt.=97.987366m. Speed=10.152000m/h.</desc>
<speed>2.820000</speed>
</trkpt>
<trkpt lat="56.097775" lon="26.540430">
<ele>98.002991</ele>
<time>2010-08-29T14:50:34Z</time>
<desc>lat.=56.097775, lon.=26.540430, Alt.=98.002991m. Speed=9.612000m/h.</desc>
<speed>2.670000</speed>
</trkpt>
<trkpt lat="56.097782" lon="26.540392">
<ele>98.196350</ele>
<time>2010-08-29T14:50:35Z</time>
<desc>lat.=56.097782, lon.=26.540392, Alt.=98.196350m. Speed=9.216000m/h.</desc>
<speed>2.560000</speed>
</trkpt>
<trkpt lat="56.097790" lon="26.540354">
<ele>98.141663</ele>
<time>2010-08-29T14:50:36Z</time>
<desc>lat.=56.097790, lon.=26.540354, Alt.=98.141663m. Speed=8.928000m/h.</desc>
<speed>2.480000</speed>
</trkpt>
<trkpt lat="56.097797" lon="26.540319">
<ele>98.165100</ele>
<time>2010-08-29T14:50:37Z</time>
<desc>lat.=56.097797, lon.=26.540319, Alt.=98.165100m. Speed=8.604000m/h.</desc>
<speed>2.390000</speed>
</trkpt>
<trkpt lat="56.097801" lon="26.540285">
<ele>97.956116</ele>
<time>2010-08-29T14:50:38Z</time>
<desc>lat.=56.097801, lon.=26.540285, Alt.=97.956116m. Speed=8.244000m/h.</desc>
<speed>2.290000</speed>
</trkpt>
<trkpt lat="56.097805" lon="26.540251">
<ele>97.989319</ele>
<time>2010-08-29T14:50:39Z</time>
<desc>lat.=56.097805, lon.=26.540251, Alt.=97.989319m. Speed=7.920000m/h.</desc>
<speed>2.200000</speed>
</trkpt>
<trkpt lat="56.097805" lon="26.540218">
<ele>98.038147</ele>
<time>2010-08-29T14:50:40Z</time>
<desc>lat.=56.097805, lon.=26.540218, Alt.=98.038147m. Speed=7.452000m/h.</desc>
<speed>2.070000</speed>
</trkpt>
<trkpt lat="56.097809" lon="26.540188">
<ele>98.106506</ele>
<time>2010-08-29T14:50:41Z</time>
<desc>lat.=56.097809, lon.=26.540188, Alt.=98.106506m. Speed=7.092000m/h.</desc>
<speed>1.970000</speed>
</trkpt>
<trkpt lat="56.097813" lon="26.540157">
<ele>98.040100</ele>
<time>2010-08-29T14:50:42Z</time>
<desc>lat.=56.097813, lon.=26.540157, Alt.=98.040100m. Speed=6.624000m/h.</desc>
<speed>1.840000</speed>
</trkpt>
<trkpt lat="56.097816" lon="26.540129">
<ele>97.901428</ele>
<time>2010-08-29T14:50:43Z</time>
<desc>lat.=56.097816, lon.=26.540129, Alt.=97.901428m. Speed=6.336000m/h.</desc>
<speed>1.760000</speed>
</trkpt>
<trkpt lat="56.097824" lon="26.540106">
<ele>98.124084</ele>
<time>2010-08-29T14:50:44Z</time>
<desc>lat.=56.097824, lon.=26.540106, Alt.=98.124084m. Speed=6.192000m/h.</desc>
<speed>1.720000</speed>
</trkpt>
<trkpt lat="56.097828" lon="26.540083">
<ele>98.118225</ele>
<time>2010-08-29T14:50:45Z</time>
<desc>lat.=56.097828, lon.=26.540083, Alt.=98.118225m. Speed=6.192000m/h.</desc>
<speed>1.720000</speed>
</trkpt>
<trkpt lat="56.097832" lon="26.540052">
<ele>98.133850</ele>
<time>2010-08-29T14:50:46Z</time>
<desc>lat.=56.097832, lon.=26.540052, Alt.=98.133850m. Speed=6.516000m/h.</desc>
<speed>1.810000</speed>
</trkpt>
<trkpt lat="56.097832" lon="26.540024">
<ele>98.235413</ele>
<time>2010-08-29T14:50:47Z</time>
<desc>lat.=56.097832, lon.=26.540024, Alt.=98.235413m. Speed=6.228000m/h.</desc>
<speed>1.730000</speed>
</trkpt>
<trkpt lat="56.097836" lon="26.539999">
<ele>98.467834</ele>
<time>2010-08-29T14:50:48Z</time>
<desc>lat.=56.097836, lon.=26.539999, Alt.=98.467834m. Speed=5.580000m/h.</desc>
<speed>1.550000</speed>
</trkpt>
<trkpt lat="56.097843" lon="26.539974">
<ele>98.758850</ele>
<time>2010-08-29T14:50:49Z</time>
<desc>lat.=56.097843, lon.=26.539974, Alt.=98.758850m. Speed=6.228000m/h.</desc>
<speed>1.730000</speed>
</trkpt>
<trkpt lat="56.097847" lon="26.539948">
<ele>99.141663</ele>
<time>2010-08-29T14:50:50Z</time>
<desc>lat.=56.097847, lon.=26.539948, Alt.=99.141663m. Speed=6.156000m/h.</desc>
<speed>1.710000</speed>
</trkpt>
<trkpt lat="56.097851" lon="26.539896">
<ele>98.446350</ele>
<time>2010-08-29T14:50:51Z</time>
<desc>lat.=56.097851, lon.=26.539896, Alt.=98.446350m. Speed=8.496000m/h.</desc>
<speed>2.360000</speed>
</trkpt>
<trkpt lat="56.097858" lon="26.539864">
<ele>98.440491</ele>
<time>2010-08-29T14:50:52Z</time>
<desc>lat.=56.097858, lon.=26.539864, Alt.=98.440491m. Speed=7.812000m/h.</desc>
<speed>2.170000</speed>
</trkpt>
<trkpt lat="56.097866" lon="26.539831">
<ele>98.411194</ele>
<time>2010-08-29T14:50:53Z</time>
<desc>lat.=56.097866, lon.=26.539831, Alt.=98.411194m. Speed=8.604000m/h.</desc>
<speed>2.390000</speed>
</trkpt>
<trkpt lat="56.097870" lon="26.539799">
<ele>98.270569</ele>
<time>2010-08-29T14:50:54Z</time>
<desc>lat.=56.097870, lon.=26.539799, Alt.=98.270569m. Speed=8.856000m/h.</desc>
<speed>2.460000</speed>
</trkpt>
<trkpt lat="56.097874" lon="26.539757">
<ele>98.288147</ele>
<time>2010-08-29T14:50:55Z</time>
<desc>lat.=56.097874, lon.=26.539757, Alt.=98.288147m. Speed=9.324000m/h.</desc>
<speed>2.590000</speed>
</trkpt>
<trkpt lat="56.097881" lon="26.539713">
<ele>98.475647</ele>
<time>2010-08-29T14:50:56Z</time>
<desc>lat.=56.097881, lon.=26.539713, Alt.=98.475647m. Speed=10.116000m/h.</desc>
<speed>2.810000</speed>
</trkpt>
<trkpt lat="56.097889" lon="26.539663">
<ele>97.516663</ele>
<time>2010-08-29T14:50:57Z</time>
<desc>lat.=56.097889, lon.=26.539663, Alt.=97.516663m. Speed=10.548000m/h.</desc>
<speed>2.930000</speed>
</trkpt>
<trkpt lat="56.097897" lon="26.539616">
<ele>97.108459</ele>
<time>2010-08-29T14:50:58Z</time>
<desc>lat.=56.097897, lon.=26.539616, Alt.=97.108459m. Speed=9.648000m/h.</desc>
<speed>2.680000</speed>
</trkpt>
<trkpt lat="56.097904" lon="26.539574">
<ele>97.139709</ele>
<time>2010-08-29T14:50:59Z</time>
<desc>lat.=56.097904, lon.=26.539574, Alt.=97.139709m. Speed=9.756000m/h.</desc>
<speed>2.710000</speed>
</trkpt>
<trkpt lat="56.097912" lon="26.539528">
<ele>97.237366</ele>
<time>2010-08-29T14:51:00Z</time>
<desc>lat.=56.097912, lon.=26.539528, Alt.=97.237366m. Speed=10.908000m/h.</desc>
<speed>3.030000</speed>
</trkpt>
<trkpt lat="56.097919" lon="26.539474">
<ele>97.411194</ele>
<time>2010-08-29T14:51:01Z</time>
<desc>lat.=56.097919, lon.=26.539474, Alt.=97.411194m. Speed=11.592000m/h.</desc>
<speed>3.220000</speed>
</trkpt>
<trkpt lat="56.097927" lon="26.539425">
<ele>97.573303</ele>
<time>2010-08-29T14:51:02Z</time>
<desc>lat.=56.097927, lon.=26.539425, Alt.=97.573303m. Speed=11.592000m/h.</desc>
<speed>3.220000</speed>
</trkpt>
<trkpt lat="56.097935" lon="26.539375">
<ele>97.641663</ele>
<time>2010-08-29T14:51:03Z</time>
<desc>lat.=56.097935, lon.=26.539375, Alt.=97.641663m. Speed=10.872000m/h.</desc>
<speed>3.020000</speed>
</trkpt>
<trkpt lat="56.097939" lon="26.539331">
<ele>97.756897</ele>
<time>2010-08-29T14:51:04Z</time>
<desc>lat.=56.097939, lon.=26.539331, Alt.=97.756897m. Speed=9.900000m/h.</desc>
<speed>2.750000</speed>
</trkpt>
<trkpt lat="56.097942" lon="26.539289">
<ele>97.702209</ele>
<time>2010-08-29T14:51:05Z</time>
<desc>lat.=56.097942, lon.=26.539289, Alt.=97.702209m. Speed=9.504000m/h.</desc>
<speed>2.640000</speed>
</trkpt>
<trkpt lat="56.097950" lon="26.539253">
<ele>97.835022</ele>
<time>2010-08-29T14:51:06Z</time>
<desc>lat.=56.097950, lon.=26.539253, Alt.=97.835022m. Speed=8.676000m/h.</desc>
<speed>2.410000</speed>
</trkpt>
<trkpt lat="56.097958" lon="26.539215">
<ele>97.977600</ele>
<time>2010-08-29T14:51:07Z</time>
<desc>lat.=56.097958, lon.=26.539215, Alt.=97.977600m. Speed=9.072000m/h.</desc>
<speed>2.520000</speed>
</trkpt>
<trkpt lat="56.097961" lon="26.539175">
<ele>98.137756</ele>
<time>2010-08-29T14:51:08Z</time>
<desc>lat.=56.097961, lon.=26.539175, Alt.=98.137756m. Speed=10.044000m/h.</desc>
<speed>2.790000</speed>
</trkpt>
<trkpt lat="56.097973" lon="26.539131">
<ele>98.217834</ele>
<time>2010-08-29T14:51:09Z</time>
<desc>lat.=56.097973, lon.=26.539131, Alt.=98.217834m. Speed=10.548000m/h.</desc>
<speed>2.930000</speed>
</trkpt>
<trkpt lat="56.097980" lon="26.539085">
<ele>98.274475</ele>
<time>2010-08-29T14:51:10Z</time>
<desc>lat.=56.097980, lon.=26.539085, Alt.=98.274475m. Speed=10.476000m/h.</desc>
<speed>2.910000</speed>
</trkpt>
<trkpt lat="56.097992" lon="26.539042">
<ele>98.245178</ele>
<time>2010-08-29T14:51:11Z</time>
<desc>lat.=56.097992, lon.=26.539042, Alt.=98.245178m. Speed=10.692000m/h.</desc>
<speed>2.970000</speed>
</trkpt>
<trkpt lat="56.098000" lon="26.538994">
<ele>98.231506</ele>
<time>2010-08-29T14:51:12Z</time>
<desc>lat.=56.098000, lon.=26.538994, Alt.=98.231506m. Speed=11.916000m/h.</desc>
<speed>3.310000</speed>
</trkpt>
<trkpt lat="56.098003" lon="26.538939">
<ele>98.690491</ele>
<time>2010-08-29T14:51:13Z</time>
<desc>lat.=56.098003, lon.=26.538939, Alt.=98.690491m. Speed=12.960000m/h.</desc>
<speed>3.600000</speed>
</trkpt>
<trkpt lat="56.098011" lon="26.538881">
<ele>98.917053</ele>
<time>2010-08-29T14:51:14Z</time>
<desc>lat.=56.098011, lon.=26.538881, Alt.=98.917053m. Speed=12.924000m/h.</desc>
<speed>3.590000</speed>
</trkpt>
<trkpt lat="56.098022" lon="26.538828">
<ele>98.926819</ele>
<time>2010-08-29T14:51:15Z</time>
<desc>lat.=56.098022, lon.=26.538828, Alt.=98.926819m. Speed=12.528000m/h.</desc>
<speed>3.480000</speed>
</trkpt>
<trkpt lat="56.098030" lon="26.538778">
<ele>98.866272</ele>
<time>2010-08-29T14:51:16Z</time>
<desc>lat.=56.098030, lon.=26.538778, Alt.=98.866272m. Speed=12.132000m/h.</desc>
<speed>3.370000</speed>
</trkpt>
<trkpt lat="56.098042" lon="26.538725">
<ele>98.731506</ele>
<time>2010-08-29T14:51:17Z</time>
<desc>lat.=56.098042, lon.=26.538725, Alt.=98.731506m. Speed=11.880000m/h.</desc>
<speed>3.300000</speed>
</trkpt>
<trkpt lat="56.098049" lon="26.538671">
<ele>99.002991</ele>
<time>2010-08-29T14:51:18Z</time>
<desc>lat.=56.098049, lon.=26.538671, Alt.=99.002991m. Speed=11.880000m/h.</desc>
<speed>3.300000</speed>
</trkpt>
<trkpt lat="56.098061" lon="26.538620">
<ele>98.924866</ele>
<time>2010-08-29T14:51:19Z</time>
<desc>lat.=56.098061, lon.=26.538620, Alt.=98.924866m. Speed=12.960000m/h.</desc>
<speed>3.600000</speed>
</trkpt>
<trkpt lat="56.098064" lon="26.538567">
<ele>98.692444</ele>
<time>2010-08-29T14:51:20Z</time>
<desc>lat.=56.098064, lon.=26.538567, Alt.=98.692444m. Speed=12.528000m/h.</desc>
<speed>3.480000</speed>
</trkpt>
<trkpt lat="56.098072" lon="26.538513">
<ele>98.723694</ele>
<time>2010-08-29T14:51:21Z</time>
<desc>lat.=56.098072, lon.=26.538513, Alt.=98.723694m. Speed=11.988000m/h.</desc>
<speed>3.330000</speed>
</trkpt>
<trkpt lat="56.098080" lon="26.538464">
<ele>98.733459</ele>
<time>2010-08-29T14:51:22Z</time>
<desc>lat.=56.098080, lon.=26.538464, Alt.=98.733459m. Speed=11.736000m/h.</desc>
<speed>3.260000</speed>
</trkpt>
<trkpt lat="56.098091" lon="26.538414">
<ele>98.823303</ele>
<time>2010-08-29T14:51:23Z</time>
<desc>lat.=56.098091, lon.=26.538414, Alt.=98.823303m. Speed=11.376000m/h.</desc>
<speed>3.160000</speed>
</trkpt>
<trkpt lat="56.098099" lon="26.538366">
<ele>98.963928</ele>
<time>2010-08-29T14:51:24Z</time>
<desc>lat.=56.098099, lon.=26.538366, Alt.=98.963928m. Speed=11.052000m/h.</desc>
<speed>3.070000</speed>
</trkpt>
<trkpt lat="56.098103" lon="26.538321">
<ele>99.188538</ele>
<time>2010-08-29T14:51:25Z</time>
<desc>lat.=56.098103, lon.=26.538321, Alt.=99.188538m. Speed=10.692000m/h.</desc>
<speed>2.970000</speed>
</trkpt>
<trkpt lat="56.098110" lon="26.538277">
<ele>99.356506</ele>
<time>2010-08-29T14:51:26Z</time>
<desc>lat.=56.098110, lon.=26.538277, Alt.=99.356506m. Speed=10.152000m/h.</desc>
<speed>2.820000</speed>
</trkpt>
<trkpt lat="56.098118" lon="26.538233">
<ele>98.985413</ele>
<time>2010-08-29T14:51:27Z</time>
<desc>lat.=56.098118, lon.=26.538233, Alt.=98.985413m. Speed=10.044000m/h.</desc>
<speed>2.790000</speed>
</trkpt>
<trkpt lat="56.098125" lon="26.538193">
<ele>99.157288</ele>
<time>2010-08-29T14:51:28Z</time>
<desc>lat.=56.098125, lon.=26.538193, Alt.=99.157288m. Speed=9.756000m/h.</desc>
<speed>2.710000</speed>
</trkpt>
<trkpt lat="56.098137" lon="26.538151">
<ele>98.977600</ele>
<time>2010-08-29T14:51:29Z</time>
<desc>lat.=56.098137, lon.=26.538151, Alt.=98.977600m. Speed=9.900000m/h.</desc>
<speed>2.750000</speed>
</trkpt>
<trkpt lat="56.098145" lon="26.538109">
<ele>99.047913</ele>
<time>2010-08-29T14:51:30Z</time>
<desc>lat.=56.098145, lon.=26.538109, Alt.=99.047913m. Speed=11.124000m/h.</desc>
<speed>3.090000</speed>
</trkpt>
<trkpt lat="56.098152" lon="26.538059">
<ele>99.075256</ele>
<time>2010-08-29T14:51:31Z</time>
<desc>lat.=56.098152, lon.=26.538059, Alt.=99.075256m. Speed=11.196000m/h.</desc>
<speed>3.110000</speed>
</trkpt>
<trkpt lat="56.098156" lon="26.538004">
<ele>98.983459</ele>
<time>2010-08-29T14:51:32Z</time>
<desc>lat.=56.098156, lon.=26.538004, Alt.=98.983459m. Speed=12.132000m/h.</desc>
<speed>3.370000</speed>
</trkpt>
<trkpt lat="56.098164" lon="26.537947">
<ele>98.893616</ele>
<time>2010-08-29T14:51:33Z</time>
<desc>lat.=56.098164, lon.=26.537947, Alt.=98.893616m. Speed=13.464000m/h.</desc>
<speed>3.740000</speed>
</trkpt>
<trkpt lat="56.098175" lon="26.537886">
<ele>98.924866</ele>
<time>2010-08-29T14:51:34Z</time>
<desc>lat.=56.098175, lon.=26.537886, Alt.=98.924866m. Speed=14.436000m/h.</desc>
<speed>4.010000</speed>
</trkpt>
<trkpt lat="56.098183" lon="26.537823">
<ele>99.047913</ele>
<time>2010-08-29T14:51:35Z</time>
<desc>lat.=56.098183, lon.=26.537823, Alt.=99.047913m. Speed=14.076000m/h.</desc>
<speed>3.910000</speed>
</trkpt>
<trkpt lat="56.098194" lon="26.537758">
<ele>99.262756</ele>
<time>2010-08-29T14:51:36Z</time>
<desc>lat.=56.098194, lon.=26.537758, Alt.=99.262756m. Speed=13.824000m/h.</desc>
<speed>3.840000</speed>
</trkpt>
<trkpt lat="56.098206" lon="26.537701">
<ele>99.665100</ele>
<time>2010-08-29T14:51:37Z</time>
<desc>lat.=56.098206, lon.=26.537701, Alt.=99.665100m. Speed=13.356000m/h.</desc>
<speed>3.710000</speed>
</trkpt>
<trkpt lat="56.098213" lon="26.537642">
<ele>99.934631</ele>
<time>2010-08-29T14:51:38Z</time>
<desc>lat.=56.098213, lon.=26.537642, Alt.=99.934631m. Speed=12.888000m/h.</desc>
<speed>3.580000</speed>
</trkpt>
<trkpt lat="56.098221" lon="26.537584">
<ele>99.854553</ele>
<time>2010-08-29T14:51:39Z</time>
<desc>lat.=56.098221, lon.=26.537584, Alt.=99.854553m. Speed=12.564000m/h.</desc>
<speed>3.490000</speed>
</trkpt>
<trkpt lat="56.098228" lon="26.537529">
<ele>99.346741</ele>
<time>2010-08-29T14:51:40Z</time>
<desc>lat.=56.098228, lon.=26.537529, Alt.=99.346741m. Speed=12.564000m/h.</desc>
<speed>3.490000</speed>
</trkpt>
<trkpt lat="56.098240" lon="26.537476">
<ele>99.335022</ele>
<time>2010-08-29T14:51:41Z</time>
<desc>lat.=56.098240, lon.=26.537476, Alt.=99.335022m. Speed=12.636000m/h.</desc>
<speed>3.510000</speed>
</trkpt>
<trkpt lat="56.098248" lon="26.537426">
<ele>99.264709</ele>
<time>2010-08-29T14:51:42Z</time>
<desc>lat.=56.098248, lon.=26.537426, Alt.=99.264709m. Speed=12.636000m/h.</desc>
<speed>3.510000</speed>
</trkpt>
<trkpt lat="56.098259" lon="26.537371">
<ele>99.194397</ele>
<time>2010-08-29T14:51:43Z</time>
<desc>lat.=56.098259, lon.=26.537371, Alt.=99.194397m. Speed=12.564000m/h.</desc>
<speed>3.490000</speed>
</trkpt>
<trkpt lat="56.098267" lon="26.537313">
<ele>99.020569</ele>
<time>2010-08-29T14:51:44Z</time>
<desc>lat.=56.098267, lon.=26.537313, Alt.=99.020569m. Speed=12.456000m/h.</desc>
<speed>3.460000</speed>
</trkpt>
<trkpt lat="56.098274" lon="26.537252">
<ele>98.979553</ele>
<time>2010-08-29T14:51:45Z</time>
<desc>lat.=56.098274, lon.=26.537252, Alt.=98.979553m. Speed=12.312000m/h.</desc>
<speed>3.420000</speed>
</trkpt>
<trkpt lat="56.098278" lon="26.537199">
<ele>98.899475</ele>
<time>2010-08-29T14:51:46Z</time>
<desc>lat.=56.098278, lon.=26.537199, Alt.=98.899475m. Speed=12.276000m/h.</desc>
<speed>3.410000</speed>
</trkpt>
<trkpt lat="56.098289" lon="26.537148">
<ele>98.848694</ele>
<time>2010-08-29T14:51:47Z</time>
<desc>lat.=56.098289, lon.=26.537148, Alt.=98.848694m. Speed=12.492000m/h.</desc>
<speed>3.470000</speed>
</trkpt>
<trkpt lat="56.098297" lon="26.537094">
<ele>99.141663</ele>
<time>2010-08-29T14:51:48Z</time>
<desc>lat.=56.098297, lon.=26.537094, Alt.=99.141663m. Speed=12.960000m/h.</desc>
<speed>3.600000</speed>
</trkpt>
<trkpt lat="56.098309" lon="26.537039">
<ele>99.243225</ele>
<time>2010-08-29T14:51:49Z</time>
<desc>lat.=56.098309, lon.=26.537039, Alt.=99.243225m. Speed=13.176000m/h.</desc>
<speed>3.660000</speed>
</trkpt>
<trkpt lat="56.098316" lon="26.536983">
<ele>99.208069</ele>
<time>2010-08-29T14:51:50Z</time>
<desc>lat.=56.098316, lon.=26.536983, Alt.=99.208069m. Speed=13.284000m/h.</desc>
<speed>3.690000</speed>
</trkpt>
<trkpt lat="56.098324" lon="26.536926">
<ele>99.202209</ele>
<time>2010-08-29T14:51:51Z</time>
<desc>lat.=56.098324, lon.=26.536926, Alt.=99.202209m. Speed=13.320000m/h.</desc>
<speed>3.700000</speed>
</trkpt>
<trkpt lat="56.098328" lon="26.536869">
<ele>99.204163</ele>
<time>2010-08-29T14:51:52Z</time>
<desc>lat.=56.098328, lon.=26.536869, Alt.=99.204163m. Speed=13.392000m/h.</desc>
<speed>3.720000</speed>
</trkpt>
<trkpt lat="56.098335" lon="26.536810">
<ele>99.155334</ele>
<time>2010-08-29T14:51:53Z</time>
<desc>lat.=56.098335, lon.=26.536810, Alt.=99.155334m. Speed=13.608000m/h.</desc>
<speed>3.780000</speed>
</trkpt>
<trkpt lat="56.098347" lon="26.536753">
<ele>99.319397</ele>
<time>2010-08-29T14:51:54Z</time>
<desc>lat.=56.098347, lon.=26.536753, Alt.=99.319397m. Speed=14.508000m/h.</desc>
<speed>4.030000</speed>
</trkpt>
<trkpt lat="56.098358" lon="26.536688">
<ele>99.417053</ele>
<time>2010-08-29T14:51:55Z</time>
<desc>lat.=56.098358, lon.=26.536688, Alt.=99.417053m. Speed=15.264000m/h.</desc>
<speed>4.240000</speed>
</trkpt>
<trkpt lat="56.098370" lon="26.536623">
<ele>99.286194</ele>
<time>2010-08-29T14:51:56Z</time>
<desc>lat.=56.098370, lon.=26.536623, Alt.=99.286194m. Speed=15.336000m/h.</desc>
<speed>4.260000</speed>
</trkpt>
<trkpt lat="56.098377" lon="26.536558">
<ele>99.204163</ele>
<time>2010-08-29T14:51:57Z</time>
<desc>lat.=56.098377, lon.=26.536558, Alt.=99.204163m. Speed=15.120000m/h.</desc>
<speed>4.200000</speed>
</trkpt>
<trkpt lat="56.098385" lon="26.536489">
<ele>98.907288</ele>
<time>2010-08-29T14:51:58Z</time>
<desc>lat.=56.098385, lon.=26.536489, Alt.=98.907288m. Speed=15.192000m/h.</desc>
<speed>4.220000</speed>
</trkpt>
<trkpt lat="56.098392" lon="26.536421">
<ele>98.852600</ele>
<time>2010-08-29T14:51:59Z</time>
<desc>lat.=56.098392, lon.=26.536421, Alt.=98.852600m. Speed=15.192000m/h.</desc>
<speed>4.220000</speed>
</trkpt>
<trkpt lat="56.098400" lon="26.536356">
<ele>98.879944</ele>
<time>2010-08-29T14:52:00Z</time>
<desc>lat.=56.098400, lon.=26.536356, Alt.=98.879944m. Speed=15.120000m/h.</desc>
<speed>4.200000</speed>
</trkpt>
<trkpt lat="56.098412" lon="26.536293">
<ele>98.723694</ele>
<time>2010-08-29T14:52:01Z</time>
<desc>lat.=56.098412, lon.=26.536293, Alt.=98.723694m. Speed=15.084000m/h.</desc>
<speed>4.190000</speed>
</trkpt>
<trkpt lat="56.098423" lon="26.536228">
<ele>98.797913</ele>
<time>2010-08-29T14:52:02Z</time>
<desc>lat.=56.098423, lon.=26.536228, Alt.=98.797913m. Speed=15.156000m/h.</desc>
<speed>4.210000</speed>
</trkpt>
<trkpt lat="56.098434" lon="26.536160">
<ele>98.922913</ele>
<time>2010-08-29T14:52:03Z</time>
<desc>lat.=56.098434, lon.=26.536160, Alt.=98.922913m. Speed=15.588000m/h.</desc>
<speed>4.330000</speed>
</trkpt>
<trkpt lat="56.098442" lon="26.536093">
<ele>98.794006</ele>
<time>2010-08-29T14:52:04Z</time>
<desc>lat.=56.098442, lon.=26.536093, Alt.=98.794006m. Speed=15.300000m/h.</desc>
<speed>4.250000</speed>
</trkpt>
<trkpt lat="56.098450" lon="26.536026">
<ele>98.862366</ele>
<time>2010-08-29T14:52:05Z</time>
<desc>lat.=56.098450, lon.=26.536026, Alt.=98.862366m. Speed=15.192000m/h.</desc>
<speed>4.220000</speed>
</trkpt>
<trkpt lat="56.098457" lon="26.535963">
<ele>98.665100</ele>
<time>2010-08-29T14:52:06Z</time>
<desc>lat.=56.098457, lon.=26.535963, Alt.=98.665100m. Speed=14.976000m/h.</desc>
<speed>4.160000</speed>
</trkpt>
<trkpt lat="56.098469" lon="26.535894">
<ele>98.715881</ele>
<time>2010-08-29T14:52:07Z</time>
<desc>lat.=56.098469, lon.=26.535894, Alt.=98.715881m. Speed=15.192000m/h.</desc>
<speed>4.220000</speed>
</trkpt>
<trkpt lat="56.098476" lon="26.535831">
<ele>98.768616</ele>
<time>2010-08-29T14:52:08Z</time>
<desc>lat.=56.098476, lon.=26.535831, Alt.=98.768616m. Speed=15.156000m/h.</desc>
<speed>4.210000</speed>
</trkpt>
<trkpt lat="56.098488" lon="26.535765">
<ele>98.870178</ele>
<time>2010-08-29T14:52:09Z</time>
<desc>lat.=56.098488, lon.=26.535765, Alt.=98.870178m. Speed=14.760000m/h.</desc>
<speed>4.100000</speed>
</trkpt>
<trkpt lat="56.098499" lon="26.535700">
<ele>98.477600</ele>
<time>2010-08-29T14:52:10Z</time>
<desc>lat.=56.098499, lon.=26.535700, Alt.=98.477600m. Speed=14.508000m/h.</desc>
<speed>4.030000</speed>
</trkpt>
<trkpt lat="56.098511" lon="26.535637">
<ele>98.356506</ele>
<time>2010-08-29T14:52:11Z</time>
<desc>lat.=56.098511, lon.=26.535637, Alt.=98.356506m. Speed=14.436000m/h.</desc>
<speed>4.010000</speed>
</trkpt>
<trkpt lat="56.098518" lon="26.535576">
<ele>98.340881</ele>
<time>2010-08-29T14:52:12Z</time>
<desc>lat.=56.098518, lon.=26.535576, Alt.=98.340881m. Speed=14.292000m/h.</desc>
<speed>3.970000</speed>
</trkpt>
<trkpt lat="56.098526" lon="26.535515">
<ele>98.057678</ele>
<time>2010-08-29T14:52:13Z</time>
<desc>lat.=56.098526, lon.=26.535515, Alt.=98.057678m. Speed=14.076000m/h.</desc>
<speed>3.910000</speed>
</trkpt>
<trkpt lat="56.098534" lon="26.535452">
<ele>98.061584</ele>
<time>2010-08-29T14:52:14Z</time>
<desc>lat.=56.098534, lon.=26.535452, Alt.=98.061584m. Speed=14.076000m/h.</desc>
<speed>3.910000</speed>
</trkpt>
<trkpt lat="56.098541" lon="26.535391">
<ele>97.696350</ele>
<time>2010-08-29T14:52:15Z</time>
<desc>lat.=56.098541, lon.=26.535391, Alt.=97.696350m. Speed=13.716000m/h.</desc>
<speed>3.810000</speed>
</trkpt>
<trkpt lat="56.098553" lon="26.535334">
<ele>98.342834</ele>
<time>2010-08-29T14:52:16Z</time>
<desc>lat.=56.098553, lon.=26.535334, Alt.=98.342834m. Speed=13.464000m/h.</desc>
<speed>3.740000</speed>
</trkpt>
<trkpt lat="56.098564" lon="26.535276">
<ele>98.737366</ele>
<time>2010-08-29T14:52:17Z</time>
<desc>lat.=56.098564, lon.=26.535276, Alt.=98.737366m. Speed=12.960000m/h.</desc>
<speed>3.600000</speed>
</trkpt>
<trkpt lat="56.098572" lon="26.535221">
<ele>98.719788</ele>
<time>2010-08-29T14:52:18Z</time>
<desc>lat.=56.098572, lon.=26.535221, Alt.=98.719788m. Speed=12.564000m/h.</desc>
<speed>3.490000</speed>
</trkpt>
<trkpt lat="56.098579" lon="26.535168">
<ele>98.801819</ele>
<time>2010-08-29T14:52:19Z</time>
<desc>lat.=56.098579, lon.=26.535168, Alt.=98.801819m. Speed=12.384000m/h.</desc>
<speed>3.440000</speed>
</trkpt>
<trkpt lat="56.098587" lon="26.535114">
<ele>98.872131</ele>
<time>2010-08-29T14:52:20Z</time>
<desc>lat.=56.098587, lon.=26.535114, Alt.=98.872131m. Speed=12.132000m/h.</desc>
<speed>3.370000</speed>
</trkpt>
<trkpt lat="56.098595" lon="26.535065">
<ele>98.858459</ele>
<time>2010-08-29T14:52:21Z</time>
<desc>lat.=56.098595, lon.=26.535065, Alt.=98.858459m. Speed=11.952000m/h.</desc>
<speed>3.320000</speed>
</trkpt>
<trkpt lat="56.098602" lon="26.535017">
<ele>98.899475</ele>
<time>2010-08-29T14:52:22Z</time>
<desc>lat.=56.098602, lon.=26.535017, Alt.=98.899475m. Speed=11.592000m/h.</desc>
<speed>3.220000</speed>
</trkpt>
<trkpt lat="56.098606" lon="26.534966">
<ele>98.756897</ele>
<time>2010-08-29T14:52:23Z</time>
<desc>lat.=56.098606, lon.=26.534966, Alt.=98.756897m. Speed=11.484000m/h.</desc>
<speed>3.190000</speed>
</trkpt>
<trkpt lat="56.098614" lon="26.534916">
<ele>98.870178</ele>
<time>2010-08-29T14:52:24Z</time>
<desc>lat.=56.098614, lon.=26.534916, Alt.=98.870178m. Speed=10.836000m/h.</desc>
<speed>3.010000</speed>
</trkpt>
<trkpt lat="56.098618" lon="26.534872">
<ele>99.108459</ele>
<time>2010-08-29T14:52:25Z</time>
<desc>lat.=56.098618, lon.=26.534872, Alt.=99.108459m. Speed=9.936000m/h.</desc>
<speed>2.760000</speed>
</trkpt>
<trkpt lat="56.098621" lon="26.534828">
<ele>99.239319</ele>
<time>2010-08-29T14:52:26Z</time>
<desc>lat.=56.098621, lon.=26.534828, Alt.=99.239319m. Speed=9.828000m/h.</desc>
<speed>2.730000</speed>
</trkpt>
<trkpt lat="56.098621" lon="26.534781">
<ele>99.120178</ele>
<time>2010-08-29T14:52:27Z</time>
<desc>lat.=56.098621, lon.=26.534781, Alt.=99.120178m. Speed=9.612000m/h.</desc>
<speed>2.670000</speed>
</trkpt>
<trkpt lat="56.098625" lon="26.534740">
<ele>99.030334</ele>
<time>2010-08-29T14:52:28Z</time>
<desc>lat.=56.098625, lon.=26.534740, Alt.=99.030334m. Speed=9.540000m/h.</desc>
<speed>2.650000</speed>
</trkpt>
<trkpt lat="56.098629" lon="26.534700">
<ele>99.131897</ele>
<time>2010-08-29T14:52:29Z</time>
<desc>lat.=56.098629, lon.=26.534700, Alt.=99.131897m. Speed=8.964000m/h.</desc>
<speed>2.490000</speed>
</trkpt>
<trkpt lat="56.098637" lon="26.534660">
<ele>99.208069</ele>
<time>2010-08-29T14:52:30Z</time>
<desc>lat.=56.098637, lon.=26.534660, Alt.=99.208069m. Speed=9.180000m/h.</desc>
<speed>2.550000</speed>
</trkpt>
<trkpt lat="56.098644" lon="26.534624">
<ele>99.254944</ele>
<time>2010-08-29T14:52:31Z</time>
<desc>lat.=56.098644, lon.=26.534624, Alt.=99.254944m. Speed=8.964000m/h.</desc>
<speed>2.490000</speed>
</trkpt>
<trkpt lat="56.098648" lon="26.534586">
<ele>99.461975</ele>
<time>2010-08-29T14:52:32Z</time>
<desc>lat.=56.098648, lon.=26.534586, Alt.=99.461975m. Speed=9.000000m/h.</desc>
<speed>2.500000</speed>
</trkpt>
<trkpt lat="56.098652" lon="26.534544">
<ele>99.495178</ele>
<time>2010-08-29T14:52:33Z</time>
<desc>lat.=56.098652, lon.=26.534544, Alt.=99.495178m. Speed=9.972000m/h.</desc>
<speed>2.770000</speed>
</trkpt>
<trkpt lat="56.098656" lon="26.534498">
<ele>99.534241</ele>
<time>2010-08-29T14:52:34Z</time>
<desc>lat.=56.098656, lon.=26.534498, Alt.=99.534241m. Speed=10.404000m/h.</desc>
<speed>2.890000</speed>
</trkpt>
<trkpt lat="56.098660" lon="26.534445">
<ele>99.420959</ele>
<time>2010-08-29T14:52:35Z</time>
<desc>lat.=56.098660, lon.=26.534445, Alt.=99.420959m. Speed=13.500000m/h.</desc>
<speed>3.750000</speed>
</trkpt>
<trkpt lat="56.098663" lon="26.534378">
<ele>99.387756</ele>
<time>2010-08-29T14:52:36Z</time>
<desc>lat.=56.098663, lon.=26.534378, Alt.=99.387756m. Speed=14.508000m/h.</desc>
<speed>4.030000</speed>
</trkpt>
<trkpt lat="56.098671" lon="26.534309">
<ele>99.376038</ele>
<time>2010-08-29T14:52:37Z</time>
<desc>lat.=56.098671, lon.=26.534309, Alt.=99.376038m. Speed=14.796000m/h.</desc>
<speed>4.110000</speed>
</trkpt>
<trkpt lat="56.098679" lon="26.534248">
<ele>99.706116</ele>
<time>2010-08-29T14:52:38Z</time>
<desc>lat.=56.098679, lon.=26.534248, Alt.=99.706116m. Speed=14.400000m/h.</desc>
<speed>4.000000</speed>
</trkpt>
<trkpt lat="56.098686" lon="26.534182">
<ele>99.602600</ele>
<time>2010-08-29T14:52:39Z</time>
<desc>lat.=56.098686, lon.=26.534182, Alt.=99.602600m. Speed=14.004000m/h.</desc>
<speed>3.890000</speed>
</trkpt>
<trkpt lat="56.098690" lon="26.534121">
<ele>99.838928</ele>
<time>2010-08-29T14:52:40Z</time>
<desc>lat.=56.098690, lon.=26.534121, Alt.=99.838928m. Speed=13.608000m/h.</desc>
<speed>3.780000</speed>
</trkpt>
<trkpt lat="56.098698" lon="26.534061">
<ele>99.489319</ele>
<time>2010-08-29T14:52:41Z</time>
<desc>lat.=56.098698, lon.=26.534061, Alt.=99.489319m. Speed=12.924000m/h.</desc>
<speed>3.590000</speed>
</trkpt>
<trkpt lat="56.098705" lon="26.534006">
<ele>99.350647</ele>
<time>2010-08-29T14:52:42Z</time>
<desc>lat.=56.098705, lon.=26.534006, Alt.=99.350647m. Speed=12.312000m/h.</desc>
<speed>3.420000</speed>
</trkpt>
<trkpt lat="56.098709" lon="26.533953">
<ele>99.336975</ele>
<time>2010-08-29T14:52:43Z</time>
<desc>lat.=56.098709, lon.=26.533953, Alt.=99.336975m. Speed=11.700000m/h.</desc>
<speed>3.250000</speed>
</trkpt>
<trkpt lat="56.098713" lon="26.533899">
<ele>99.313538</ele>
<time>2010-08-29T14:52:44Z</time>
<desc>lat.=56.098713, lon.=26.533899, Alt.=99.313538m. Speed=11.340000m/h.</desc>
<speed>3.150000</speed>
</trkpt>
<trkpt lat="56.098721" lon="26.533852">
<ele>99.163147</ele>
<time>2010-08-29T14:52:45Z</time>
<desc>lat.=56.098721, lon.=26.533852, Alt.=99.163147m. Speed=10.728000m/h.</desc>
<speed>2.980000</speed>
</trkpt>
<trkpt lat="56.098724" lon="26.533812">
<ele>99.024475</ele>
<time>2010-08-29T14:52:46Z</time>
<desc>lat.=56.098724, lon.=26.533812, Alt.=99.024475m. Speed=10.008000m/h.</desc>
<speed>2.780000</speed>
</trkpt>
<trkpt lat="56.098732" lon="26.533770">
<ele>99.022522</ele>
<time>2010-08-29T14:52:47Z</time>
<desc>lat.=56.098732, lon.=26.533770, Alt.=99.022522m. Speed=9.576000m/h.</desc>
<speed>2.660000</speed>
</trkpt>
<trkpt lat="56.098736" lon="26.533731">
<ele>98.934631</ele>
<time>2010-08-29T14:52:48Z</time>
<desc>lat.=56.098736, lon.=26.533731, Alt.=98.934631m. Speed=8.784000m/h.</desc>
<speed>2.440000</speed>
</trkpt>
<trkpt lat="56.098743" lon="26.533695">
<ele>98.999084</ele>
<time>2010-08-29T14:52:49Z</time>
<desc>lat.=56.098743, lon.=26.533695, Alt.=98.999084m. Speed=8.136000m/h.</desc>
<speed>2.260000</speed>
</trkpt>
<trkpt lat="56.098743" lon="26.533661">
<ele>99.067444</ele>
<time>2010-08-29T14:52:50Z</time>
<desc>lat.=56.098743, lon.=26.533661, Alt.=99.067444m. Speed=7.416000m/h.</desc>
<speed>2.060000</speed>
</trkpt>
<trkpt lat="56.098747" lon="26.533630">
<ele>99.018616</ele>
<time>2010-08-29T14:52:51Z</time>
<desc>lat.=56.098747, lon.=26.533630, Alt.=99.018616m. Speed=6.912000m/h.</desc>
<speed>1.920000</speed>
</trkpt>
<trkpt lat="56.098751" lon="26.533600">
<ele>99.090881</ele>
<time>2010-08-29T14:52:52Z</time>
<desc>lat.=56.098751, lon.=26.533600, Alt.=99.090881m. Speed=6.804000m/h.</desc>
<speed>1.890000</speed>
</trkpt>
<trkpt lat="56.098755" lon="26.533573">
<ele>99.143616</ele>
<time>2010-08-29T14:52:53Z</time>
<desc>lat.=56.098755, lon.=26.533573, Alt.=99.143616m. Speed=6.264000m/h.</desc>
<speed>1.740000</speed>
</trkpt>
<trkpt lat="56.098759" lon="26.533545">
<ele>99.004944</ele>
<time>2010-08-29T14:52:54Z</time>
<desc>lat.=56.098759, lon.=26.533545, Alt.=99.004944m. Speed=6.120000m/h.</desc>
<speed>1.700000</speed>
</trkpt>
<trkpt lat="56.098763" lon="26.533516">
<ele>98.934631</ele>
<time>2010-08-29T14:52:55Z</time>
<desc>lat.=56.098763, lon.=26.533516, Alt.=98.934631m. Speed=6.696000m/h.</desc>
<speed>1.860000</speed>
</trkpt>
<trkpt lat="56.098766" lon="26.533487">
<ele>98.879944</ele>
<time>2010-08-29T14:52:56Z</time>
<desc>lat.=56.098766, lon.=26.533487, Alt.=98.879944m. Speed=7.344000m/h.</desc>
<speed>2.040000</speed>
</trkpt>
<trkpt lat="56.098770" lon="26.533447">
<ele>99.030334</ele>
<time>2010-08-29T14:52:57Z</time>
<desc>lat.=56.098770, lon.=26.533447, Alt.=99.030334m. Speed=8.640000m/h.</desc>
<speed>2.400000</speed>
</trkpt>
<trkpt lat="56.098774" lon="26.533409">
<ele>98.930725</ele>
<time>2010-08-29T14:52:58Z</time>
<desc>lat.=56.098774, lon.=26.533409, Alt.=98.930725m. Speed=9.252000m/h.</desc>
<speed>2.570000</speed>
</trkpt>
<trkpt lat="56.098782" lon="26.533371">
<ele>98.991272</ele>
<time>2010-08-29T14:52:59Z</time>
<desc>lat.=56.098782, lon.=26.533371, Alt.=98.991272m. Speed=8.784000m/h.</desc>
<speed>2.440000</speed>
</trkpt>
<trkpt lat="56.098782" lon="26.533335">
<ele>99.081116</ele>
<time>2010-08-29T14:53:00Z</time>
<desc>lat.=56.098782, lon.=26.533335, Alt.=99.081116m. Speed=8.064000m/h.</desc>
<speed>2.240000</speed>
</trkpt>
<trkpt lat="56.098782" lon="26.533302">
<ele>99.067444</ele>
<time>2010-08-29T14:53:01Z</time>
<desc>lat.=56.098782, lon.=26.533302, Alt.=99.067444m. Speed=7.272000m/h.</desc>
<speed>2.020000</speed>
</trkpt>
<trkpt lat="56.098785" lon="26.533268">
<ele>99.143616</ele>
<time>2010-08-29T14:53:02Z</time>
<desc>lat.=56.098785, lon.=26.533268, Alt.=99.143616m. Speed=8.316000m/h.</desc>
<speed>2.310000</speed>
</trkpt>
<trkpt lat="56.098789" lon="26.533232">
<ele>99.325256</ele>
<time>2010-08-29T14:53:03Z</time>
<desc>lat.=56.098789, lon.=26.533232, Alt.=99.325256m. Speed=8.424000m/h.</desc>
<speed>2.340000</speed>
</trkpt>
<trkpt lat="56.098793" lon="26.533195">
<ele>99.186584</ele>
<time>2010-08-29T14:53:04Z</time>
<desc>lat.=56.098793, lon.=26.533195, Alt.=99.186584m. Speed=8.280000m/h.</desc>
<speed>2.300000</speed>
</trkpt>
<trkpt lat="56.098801" lon="26.533155">
<ele>98.965881</ele>
<time>2010-08-29T14:53:05Z</time>
<desc>lat.=56.098801, lon.=26.533155, Alt.=98.965881m. Speed=8.100000m/h.</desc>
<speed>2.250000</speed>
</trkpt>
<trkpt lat="56.098804" lon="26.533121">
<ele>98.889709</ele>
<time>2010-08-29T14:53:06Z</time>
<desc>lat.=56.098804, lon.=26.533121, Alt.=98.889709m. Speed=7.452000m/h.</desc>
<speed>2.070000</speed>
</trkpt>
<trkpt lat="56.098808" lon="26.533089">
<ele>98.891663</ele>
<time>2010-08-29T14:53:07Z</time>
<desc>lat.=56.098808, lon.=26.533089, Alt.=98.891663m. Speed=7.020000m/h.</desc>
<speed>1.950000</speed>
</trkpt>
<trkpt lat="56.098812" lon="26.533060">
<ele>99.020569</ele>
<time>2010-08-29T14:53:08Z</time>
<desc>lat.=56.098812, lon.=26.533060, Alt.=99.020569m. Speed=6.696000m/h.</desc>
<speed>1.860000</speed>
</trkpt>
<trkpt lat="56.098816" lon="26.533030">
<ele>99.104553</ele>
<time>2010-08-29T14:53:09Z</time>
<desc>lat.=56.098816, lon.=26.533030, Alt.=99.104553m. Speed=6.192000m/h.</desc>
<speed>1.720000</speed>
</trkpt>
<trkpt lat="56.098820" lon="26.533003">
<ele>99.303772</ele>
<time>2010-08-29T14:53:10Z</time>
<desc>lat.=56.098820, lon.=26.533003, Alt.=99.303772m. Speed=6.084000m/h.</desc>
<speed>1.690000</speed>
</trkpt>
<trkpt lat="56.098824" lon="26.532976">
<ele>99.485413</ele>
<time>2010-08-29T14:53:11Z</time>
<desc>lat.=56.098824, lon.=26.532976, Alt.=99.485413m. Speed=6.372000m/h.</desc>
<speed>1.770000</speed>
</trkpt>
<trkpt lat="56.098824" lon="26.532944">
<ele>99.395569</ele>
<time>2010-08-29T14:53:12Z</time>
<desc>lat.=56.098824, lon.=26.532944, Alt.=99.395569m. Speed=7.596000m/h.</desc>
<speed>2.110000</speed>
</trkpt>
<trkpt lat="56.098824" lon="26.532907">
<ele>99.184631</ele>
<time>2010-08-29T14:53:13Z</time>
<desc>lat.=56.098824, lon.=26.532907, Alt.=99.184631m. Speed=8.424000m/h.</desc>
<speed>2.340000</speed>
</trkpt>
<trkpt lat="56.098827" lon="26.532867">
<ele>99.079163</ele>
<time>2010-08-29T14:53:14Z</time>
<desc>lat.=56.098827, lon.=26.532867, Alt.=99.079163m. Speed=9.612000m/h.</desc>
<speed>2.670000</speed>
</trkpt>
<trkpt lat="56.098835" lon="26.532829">
<ele>99.104553</ele>
<time>2010-08-29T14:53:15Z</time>
<desc>lat.=56.098835, lon.=26.532829, Alt.=99.104553m. Speed=8.820000m/h.</desc>
<speed>2.450000</speed>
</trkpt>
<trkpt lat="56.098839" lon="26.532789">
<ele>99.010803</ele>
<time>2010-08-29T14:53:16Z</time>
<desc>lat.=56.098839, lon.=26.532789, Alt.=99.010803m. Speed=8.820000m/h.</desc>
<speed>2.450000</speed>
</trkpt>
<trkpt lat="56.098846" lon="26.532751">
<ele>98.963928</ele>
<time>2010-08-29T14:53:17Z</time>
<desc>lat.=56.098846, lon.=26.532751, Alt.=98.963928m. Speed=8.748000m/h.</desc>
<speed>2.430000</speed>
</trkpt>
<trkpt lat="56.098850" lon="26.532711">
<ele>98.934631</ele>
<time>2010-08-29T14:53:18Z</time>
<desc>lat.=56.098850, lon.=26.532711, Alt.=98.934631m. Speed=8.928000m/h.</desc>
<speed>2.480000</speed>
</trkpt>
<trkpt lat="56.098858" lon="26.532669">
<ele>98.961975</ele>
<time>2010-08-29T14:53:19Z</time>
<desc>lat.=56.098858, lon.=26.532669, Alt.=98.961975m. Speed=9.108000m/h.</desc>
<speed>2.530000</speed>
</trkpt>
<trkpt lat="56.098862" lon="26.532631">
<ele>99.022522</ele>
<time>2010-08-29T14:53:20Z</time>
<desc>lat.=56.098862, lon.=26.532631, Alt.=99.022522m. Speed=9.216000m/h.</desc>
<speed>2.560000</speed>
</trkpt>
<trkpt lat="56.098866" lon="26.532591">
<ele>98.983459</ele>
<time>2010-08-29T14:53:21Z</time>
<desc>lat.=56.098866, lon.=26.532591, Alt.=98.983459m. Speed=9.360000m/h.</desc>
<speed>2.600000</speed>
</trkpt>
<trkpt lat="56.098869" lon="26.532549">
<ele>98.751038</ele>
<time>2010-08-29T14:53:22Z</time>
<desc>lat.=56.098869, lon.=26.532549, Alt.=98.751038m. Speed=9.540000m/h.</desc>
<speed>2.650000</speed>
</trkpt>
<trkpt lat="56.098869" lon="26.532503">
<ele>98.624084</ele>
<time>2010-08-29T14:53:23Z</time>
<desc>lat.=56.098869, lon.=26.532503, Alt.=98.624084m. Speed=9.792000m/h.</desc>
<speed>2.720000</speed>
</trkpt>
<trkpt lat="56.098877" lon="26.532459">
<ele>98.725647</ele>
<time>2010-08-29T14:53:24Z</time>
<desc>lat.=56.098877, lon.=26.532459, Alt.=98.725647m. Speed=9.936000m/h.</desc>
<speed>2.760000</speed>
</trkpt>
<trkpt lat="56.098885" lon="26.532417">
<ele>98.852600</ele>
<time>2010-08-29T14:53:25Z</time>
<desc>lat.=56.098885, lon.=26.532417, Alt.=98.852600m. Speed=10.044000m/h.</desc>
<speed>2.790000</speed>
</trkpt>
<trkpt lat="56.098888" lon="26.532377">
<ele>98.887756</ele>
<time>2010-08-29T14:53:26Z</time>
<desc>lat.=56.098888, lon.=26.532377, Alt.=98.887756m. Speed=10.116000m/h.</desc>
<speed>2.810000</speed>
</trkpt>
<trkpt lat="56.098896" lon="26.532333">
<ele>98.876038</ele>
<time>2010-08-29T14:53:27Z</time>
<desc>lat.=56.098896, lon.=26.532333, Alt.=98.876038m. Speed=10.512000m/h.</desc>
<speed>2.920000</speed>
</trkpt>
<trkpt lat="56.098904" lon="26.532286">
<ele>98.708069</ele>
<time>2010-08-29T14:53:28Z</time>
<desc>lat.=56.098904, lon.=26.532286, Alt.=98.708069m. Speed=11.016000m/h.</desc>
<speed>3.060000</speed>
</trkpt>
<trkpt lat="56.098907" lon="26.532240">
<ele>98.629944</ele>
<time>2010-08-29T14:53:29Z</time>
<desc>lat.=56.098907, lon.=26.532240, Alt.=98.629944m. Speed=10.764000m/h.</desc>
<speed>2.990000</speed>
</trkpt>
<trkpt lat="56.098911" lon="26.532194">
<ele>98.557678</ele>
<time>2010-08-29T14:53:30Z</time>
<desc>lat.=56.098911, lon.=26.532194, Alt.=98.557678m. Speed=10.836000m/h.</desc>
<speed>3.010000</speed>
</trkpt>
<trkpt lat="56.098915" lon="26.532145">
<ele>98.362366</ele>
<time>2010-08-29T14:53:31Z</time>
<desc>lat.=56.098915, lon.=26.532145, Alt.=98.362366m. Speed=10.944000m/h.</desc>
<speed>3.040000</speed>
</trkpt>
<trkpt lat="56.098919" lon="26.532097">
<ele>98.266663</ele>
<time>2010-08-29T14:53:32Z</time>
<desc>lat.=56.098919, lon.=26.532097, Alt.=98.266663m. Speed=11.304000m/h.</desc>
<speed>3.140000</speed>
</trkpt>
<trkpt lat="56.098923" lon="26.532045">
<ele>98.081116</ele>
<time>2010-08-29T14:53:33Z</time>
<desc>lat.=56.098923, lon.=26.532045, Alt.=98.081116m. Speed=11.484000m/h.</desc>
<speed>3.190000</speed>
</trkpt>
<trkpt lat="56.098927" lon="26.531992">
<ele>97.973694</ele>
<time>2010-08-29T14:53:34Z</time>
<desc>lat.=56.098927, lon.=26.531992, Alt.=97.973694m. Speed=11.664000m/h.</desc>
<speed>3.240000</speed>
</trkpt>
<trkpt lat="56.098934" lon="26.531939">
<ele>97.905334</ele>
<time>2010-08-29T14:53:35Z</time>
<desc>lat.=56.098934, lon.=26.531939, Alt.=97.905334m. Speed=11.880000m/h.</desc>
<speed>3.300000</speed>
</trkpt>
<trkpt lat="56.098942" lon="26.531889">
<ele>97.879944</ele>
<time>2010-08-29T14:53:36Z</time>
<desc>lat.=56.098942, lon.=26.531889, Alt.=97.879944m. Speed=12.168000m/h.</desc>
<speed>3.380000</speed>
</trkpt>
<trkpt lat="56.098946" lon="26.531836">
<ele>97.682678</ele>
<time>2010-08-29T14:53:37Z</time>
<desc>lat.=56.098946, lon.=26.531836, Alt.=97.682678m. Speed=12.528000m/h.</desc>
<speed>3.480000</speed>
</trkpt>
<trkpt lat="56.098949" lon="26.531776">
<ele>97.696350</ele>
<time>2010-08-29T14:53:38Z</time>
<desc>lat.=56.098949, lon.=26.531776, Alt.=97.696350m. Speed=12.636000m/h.</desc>
<speed>3.510000</speed>
</trkpt>
<trkpt lat="56.098953" lon="26.531719">
<ele>97.579163</ele>
<time>2010-08-29T14:53:39Z</time>
<desc>lat.=56.098953, lon.=26.531719, Alt.=97.579163m. Speed=12.960000m/h.</desc>
<speed>3.600000</speed>
</trkpt>
<trkpt lat="56.098957" lon="26.531662">
<ele>97.512756</ele>
<time>2010-08-29T14:53:40Z</time>
<desc>lat.=56.098957, lon.=26.531662, Alt.=97.512756m. Speed=13.284000m/h.</desc>
<speed>3.690000</speed>
</trkpt>
<trkpt lat="56.098965" lon="26.531607">
<ele>97.545959</ele>
<time>2010-08-29T14:53:41Z</time>
<desc>lat.=56.098965, lon.=26.531607, Alt.=97.545959m. Speed=13.536000m/h.</desc>
<speed>3.760000</speed>
</trkpt>
<trkpt lat="56.098976" lon="26.531546">
<ele>97.631897</ele>
<time>2010-08-29T14:53:42Z</time>
<desc>lat.=56.098976, lon.=26.531546, Alt.=97.631897m. Speed=13.896000m/h.</desc>
<speed>3.860000</speed>
</trkpt>
<trkpt lat="56.098984" lon="26.531483">
<ele>97.501038</ele>
<time>2010-08-29T14:53:43Z</time>
<desc>lat.=56.098984, lon.=26.531483, Alt.=97.501038m. Speed=14.184000m/h.</desc>
<speed>3.940000</speed>
</trkpt>
<trkpt lat="56.098988" lon="26.531422">
<ele>97.317444</ele>
<time>2010-08-29T14:53:44Z</time>
<desc>lat.=56.098988, lon.=26.531422, Alt.=97.317444m. Speed=14.364000m/h.</desc>
<speed>3.990000</speed>
</trkpt>
<trkpt lat="56.098991" lon="26.531353">
<ele>97.245178</ele>
<time>2010-08-29T14:53:45Z</time>
<desc>lat.=56.098991, lon.=26.531353, Alt.=97.245178m. Speed=14.616000m/h.</desc>
<speed>4.060000</speed>
</trkpt>
<trkpt lat="56.098995" lon="26.531284">
<ele>97.325256</ele>
<time>2010-08-29T14:53:46Z</time>
<desc>lat.=56.098995, lon.=26.531284, Alt.=97.325256m. Speed=14.940000m/h.</desc>
<speed>4.150000</speed>
</trkpt>
<trkpt lat="56.099003" lon="26.531216">
<ele>97.461975</ele>
<time>2010-08-29T14:53:47Z</time>
<desc>lat.=56.099003, lon.=26.531216, Alt.=97.461975m. Speed=15.336000m/h.</desc>
<speed>4.260000</speed>
</trkpt>
<trkpt lat="56.099010" lon="26.531147">
<ele>97.467834</ele>
<time>2010-08-29T14:53:48Z</time>
<desc>lat.=56.099010, lon.=26.531147, Alt.=97.467834m. Speed=15.768000m/h.</desc>
<speed>4.380000</speed>
</trkpt>
<trkpt lat="56.099018" lon="26.531076">
<ele>97.249084</ele>
<time>2010-08-29T14:53:49Z</time>
<desc>lat.=56.099018, lon.=26.531076, Alt.=97.249084m. Speed=16.236000m/h.</desc>
<speed>4.510000</speed>
</trkpt>
<trkpt lat="56.099026" lon="26.531006">
<ele>97.266663</ele>
<time>2010-08-29T14:53:50Z</time>
<desc>lat.=56.099026, lon.=26.531006, Alt.=97.266663m. Speed=16.955999m/h.</desc>
<speed>4.710000</speed>
</trkpt>
<trkpt lat="56.099033" lon="26.530933">
<ele>97.184631</ele>
<time>2010-08-29T14:53:51Z</time>
<desc>lat.=56.099033, lon.=26.530933, Alt.=97.184631m. Speed=17.280001m/h.</desc>
<speed>4.800000</speed>
</trkpt>
<trkpt lat="56.099041" lon="26.530857">
<ele>97.018616</ele>
<time>2010-08-29T14:53:52Z</time>
<desc>lat.=56.099041, lon.=26.530857, Alt.=97.018616m. Speed=17.820000m/h.</desc>
<speed>4.950000</speed>
</trkpt>
<trkpt lat="56.099049" lon="26.530777">
<ele>97.055725</ele>
<time>2010-08-29T14:53:53Z</time>
<desc>lat.=56.099049, lon.=26.530777, Alt.=97.055725m. Speed=18.143999m/h.</desc>
<speed>5.040000</speed>
</trkpt>
<trkpt lat="56.099056" lon="26.530695">
<ele>97.024475</ele>
<time>2010-08-29T14:53:54Z</time>
<desc>lat.=56.099056, lon.=26.530695, Alt.=97.024475m. Speed=18.072001m/h.</desc>
<speed>5.020000</speed>
</trkpt>
<trkpt lat="56.099064" lon="26.530613">
<ele>97.010803</ele>
<time>2010-08-29T14:53:55Z</time>
<desc>lat.=56.099064, lon.=26.530613, Alt.=97.010803m. Speed=18.252001m/h.</desc>
<speed>5.070000</speed>
</trkpt>
<trkpt lat="56.099072" lon="26.530529">
<ele>96.893616</ele>
<time>2010-08-29T14:53:56Z</time>
<desc>lat.=56.099072, lon.=26.530529, Alt.=96.893616m. Speed=18.035999m/h.</desc>
<speed>5.010000</speed>
</trkpt>
<trkpt lat="56.099079" lon="26.530449">
<ele>96.747131</ele>
<time>2010-08-29T14:53:57Z</time>
<desc>lat.=56.099079, lon.=26.530449, Alt.=96.747131m. Speed=18.719999m/h.</desc>
<speed>5.200000</speed>
</trkpt>
<trkpt lat="56.099087" lon="26.530363">
<ele>96.678772</ele>
<time>2010-08-29T14:53:58Z</time>
<desc>lat.=56.099087, lon.=26.530363, Alt.=96.678772m. Speed=18.864000m/h.</desc>
<speed>5.240000</speed>
</trkpt>
<trkpt lat="56.099094" lon="26.530279">
<ele>96.627991</ele>
<time>2010-08-29T14:53:59Z</time>
<desc>lat.=56.099094, lon.=26.530279, Alt.=96.627991m. Speed=19.260000m/h.</desc>
<speed>5.350000</speed>
</trkpt>
<trkpt lat="56.099102" lon="26.530193">
<ele>96.743225</ele>
<time>2010-08-29T14:54:00Z</time>
<desc>lat.=56.099102, lon.=26.530193, Alt.=96.743225m. Speed=19.403999m/h.</desc>
<speed>5.390000</speed>
</trkpt>
<trkpt lat="56.099110" lon="26.530106">
<ele>97.042053</ele>
<time>2010-08-29T14:54:01Z</time>
<desc>lat.=56.099110, lon.=26.530106, Alt.=97.042053m. Speed=19.691999m/h.</desc>
<speed>5.470000</speed>
</trkpt>
<trkpt lat="56.099121" lon="26.530016">
<ele>97.463928</ele>
<time>2010-08-29T14:54:02Z</time>
<desc>lat.=56.099121, lon.=26.530016, Alt.=97.463928m. Speed=20.124001m/h.</desc>
<speed>5.590000</speed>
</trkpt>
<trkpt lat="56.099133" lon="26.529922">
<ele>97.815491</ele>
<time>2010-08-29T14:54:03Z</time>
<desc>lat.=56.099133, lon.=26.529922, Alt.=97.815491m. Speed=20.340000m/h.</desc>
<speed>5.650000</speed>
</trkpt>
<trkpt lat="56.099140" lon="26.529829">
<ele>98.069397</ele>
<time>2010-08-29T14:54:04Z</time>
<desc>lat.=56.099140, lon.=26.529829, Alt.=98.069397m. Speed=20.448000m/h.</desc>
<speed>5.680000</speed>
</trkpt>
<trkpt lat="56.099148" lon="26.529739">
<ele>96.950256</ele>
<time>2010-08-29T14:54:05Z</time>
<desc>lat.=56.099148, lon.=26.529739, Alt.=96.950256m. Speed=20.483999m/h.</desc>
<speed>5.690000</speed>
</trkpt>
<trkpt lat="56.099155" lon="26.529650">
<ele>96.868225</ele>
<time>2010-08-29T14:54:06Z</time>
<desc>lat.=56.099155, lon.=26.529650, Alt.=96.868225m. Speed=20.448000m/h.</desc>
<speed>5.680000</speed>
</trkpt>
<trkpt lat="56.099163" lon="26.529556">
<ele>96.743225</ele>
<time>2010-08-29T14:54:07Z</time>
<desc>lat.=56.099163, lon.=26.529556, Alt.=96.743225m. Speed=20.520000m/h.</desc>
<speed>5.700000</speed>
</trkpt>
<trkpt lat="56.099174" lon="26.529465">
<ele>96.624084</ele>
<time>2010-08-29T14:54:08Z</time>
<desc>lat.=56.099174, lon.=26.529465, Alt.=96.624084m. Speed=20.700001m/h.</desc>
<speed>5.750000</speed>
</trkpt>
<trkpt lat="56.099186" lon="26.529377">
<ele>96.403381</ele>
<time>2010-08-29T14:54:09Z</time>
<desc>lat.=56.099186, lon.=26.529377, Alt.=96.403381m. Speed=21.204000m/h.</desc>
<speed>5.890000</speed>
</trkpt>
<trkpt lat="56.099201" lon="26.529285">
<ele>96.444397</ele>
<time>2010-08-29T14:54:10Z</time>
<desc>lat.=56.099201, lon.=26.529285, Alt.=96.444397m. Speed=21.455999m/h.</desc>
<speed>5.960000</speed>
</trkpt>
<trkpt lat="56.099213" lon="26.529188">
<ele>96.504944</ele>
<time>2010-08-29T14:54:11Z</time>
<desc>lat.=56.099213, lon.=26.529188, Alt.=96.504944m. Speed=21.780001m/h.</desc>
<speed>6.050000</speed>
</trkpt>
<trkpt lat="56.099224" lon="26.529089">
<ele>96.448303</ele>
<time>2010-08-29T14:54:12Z</time>
<desc>lat.=56.099224, lon.=26.529089, Alt.=96.448303m. Speed=22.032000m/h.</desc>
<speed>6.120000</speed>
</trkpt>
<trkpt lat="56.099236" lon="26.528994">
<ele>96.184631</ele>
<time>2010-08-29T14:54:13Z</time>
<desc>lat.=56.099236, lon.=26.528994, Alt.=96.184631m. Speed=22.284000m/h.</desc>
<speed>6.190000</speed>
</trkpt>
<trkpt lat="56.099247" lon="26.528894">
<ele>96.038147</ele>
<time>2010-08-29T14:54:14Z</time>
<desc>lat.=56.099247, lon.=26.528894, Alt.=96.038147m. Speed=22.356001m/h.</desc>
<speed>6.210000</speed>
</trkpt>
<trkpt lat="56.099262" lon="26.528799">
<ele>95.987366</ele>
<time>2010-08-29T14:54:15Z</time>
<desc>lat.=56.099262, lon.=26.528799, Alt.=95.987366m. Speed=22.139999m/h.</desc>
<speed>6.150000</speed>
</trkpt>
<trkpt lat="56.099277" lon="26.528706">
<ele>95.950256</ele>
<time>2010-08-29T14:54:16Z</time>
<desc>lat.=56.099277, lon.=26.528706, Alt.=95.950256m. Speed=22.139999m/h.</desc>
<speed>6.150000</speed>
</trkpt>
<trkpt lat="56.099293" lon="26.528610">
<ele>96.053772</ele>
<time>2010-08-29T14:54:17Z</time>
<desc>lat.=56.099293, lon.=26.528610, Alt.=96.053772m. Speed=21.996000m/h.</desc>
<speed>6.110000</speed>
</trkpt>
<trkpt lat="56.099308" lon="26.528519">
<ele>95.901428</ele>
<time>2010-08-29T14:54:18Z</time>
<desc>lat.=56.099308, lon.=26.528519, Alt.=95.901428m. Speed=22.068001m/h.</desc>
<speed>6.130000</speed>
</trkpt>
<trkpt lat="56.099323" lon="26.528427">
<ele>95.590881</ele>
<time>2010-08-29T14:54:19Z</time>
<desc>lat.=56.099323, lon.=26.528427, Alt.=95.590881m. Speed=21.888000m/h.</desc>
<speed>6.080000</speed>
</trkpt>
<trkpt lat="56.099339" lon="26.528337">
<ele>95.538147</ele>
<time>2010-08-29T14:54:20Z</time>
<desc>lat.=56.099339, lon.=26.528337, Alt.=95.538147m. Speed=21.636000m/h.</desc>
<speed>6.010000</speed>
</trkpt>
<trkpt lat="56.099354" lon="26.528246">
<ele>95.522522</ele>
<time>2010-08-29T14:54:21Z</time>
<desc>lat.=56.099354, lon.=26.528246, Alt.=95.522522m. Speed=21.492001m/h.</desc>
<speed>5.970000</speed>
</trkpt>
<trkpt lat="56.099365" lon="26.528154">
<ele>95.551819</ele>
<time>2010-08-29T14:54:22Z</time>
<desc>lat.=56.099365, lon.=26.528154, Alt.=95.551819m. Speed=20.952000m/h.</desc>
<speed>5.820000</speed>
</trkpt>
<trkpt lat="56.099380" lon="26.528067">
<ele>95.420959</ele>
<time>2010-08-29T14:54:23Z</time>
<desc>lat.=56.099380, lon.=26.528067, Alt.=95.420959m. Speed=20.556000m/h.</desc>
<speed>5.710000</speed>
</trkpt>
<trkpt lat="56.099396" lon="26.527979">
<ele>95.159241</ele>
<time>2010-08-29T14:54:24Z</time>
<desc>lat.=56.099396, lon.=26.527979, Alt.=95.159241m. Speed=19.908001m/h.</desc>
<speed>5.530000</speed>
</trkpt>
<trkpt lat="56.099411" lon="26.527891">
<ele>94.897522</ele>
<time>2010-08-29T14:54:25Z</time>
<desc>lat.=56.099411, lon.=26.527891, Alt.=94.897522m. Speed=19.476000m/h.</desc>
<speed>5.410000</speed>
</trkpt>
<trkpt lat="56.099426" lon="26.527807">
<ele>94.760803</ele>
<time>2010-08-29T14:54:26Z</time>
<desc>lat.=56.099426, lon.=26.527807, Alt.=94.760803m. Speed=18.972000m/h.</desc>
<speed>5.270000</speed>
</trkpt>
<trkpt lat="56.099442" lon="26.527733">
<ele>94.424866</ele>
<time>2010-08-29T14:54:27Z</time>
<desc>lat.=56.099442, lon.=26.527733, Alt.=94.424866m. Speed=18.143999m/h.</desc>
<speed>5.040000</speed>
</trkpt>
<trkpt lat="56.099457" lon="26.527658">
<ele>94.446350</ele>
<time>2010-08-29T14:54:28Z</time>
<desc>lat.=56.099457, lon.=26.527658, Alt.=94.446350m. Speed=17.712000m/h.</desc>
<speed>4.920000</speed>
</trkpt>
<trkpt lat="56.099476" lon="26.527590">
<ele>94.358459</ele>
<time>2010-08-29T14:54:29Z</time>
<desc>lat.=56.099476, lon.=26.527590, Alt.=94.358459m. Speed=17.208000m/h.</desc>
<speed>4.780000</speed>
</trkpt>
<trkpt lat="56.099491" lon="26.527525">
<ele>94.350647</ele>
<time>2010-08-29T14:54:30Z</time>
<desc>lat.=56.099491, lon.=26.527525, Alt.=94.350647m. Speed=15.804000m/h.</desc>
<speed>4.390000</speed>
</trkpt>
<trkpt lat="56.099503" lon="26.527458">
<ele>94.393616</ele>
<time>2010-08-29T14:54:31Z</time>
<desc>lat.=56.099503, lon.=26.527458, Alt.=94.393616m. Speed=15.084000m/h.</desc>
<speed>4.190000</speed>
</trkpt>
<trkpt lat="56.099510" lon="26.527399">
<ele>94.569397</ele>
<time>2010-08-29T14:54:32Z</time>
<desc>lat.=56.099510, lon.=26.527399, Alt.=94.569397m. Speed=14.040000m/h.</desc>
<speed>3.900000</speed>
</trkpt>
<trkpt lat="56.099518" lon="26.527346">
<ele>94.663147</ele>
<time>2010-08-29T14:54:33Z</time>
<desc>lat.=56.099518, lon.=26.527346, Alt.=94.663147m. Speed=14.364000m/h.</desc>
<speed>3.990000</speed>
</trkpt>
<trkpt lat="56.099529" lon="26.527285">
<ele>94.690491</ele>
<time>2010-08-29T14:54:34Z</time>
<desc>lat.=56.099529, lon.=26.527285, Alt.=94.690491m. Speed=15.156000m/h.</desc>
<speed>4.210000</speed>
</trkpt>
<trkpt lat="56.099541" lon="26.527216">
<ele>94.678772</ele>
<time>2010-08-29T14:54:35Z</time>
<desc>lat.=56.099541, lon.=26.527216, Alt.=94.678772m. Speed=14.436000m/h.</desc>
<speed>4.010000</speed>
</trkpt>
<trkpt lat="56.099548" lon="26.527159">
<ele>94.776428</ele>
<time>2010-08-29T14:54:36Z</time>
<desc>lat.=56.099548, lon.=26.527159, Alt.=94.776428m. Speed=13.104000m/h.</desc>
<speed>3.640000</speed>
</trkpt>
<trkpt lat="56.099560" lon="26.527105">
<ele>94.643616</ele>
<time>2010-08-29T14:54:37Z</time>
<desc>lat.=56.099560, lon.=26.527105, Alt.=94.643616m. Speed=12.672000m/h.</desc>
<speed>3.520000</speed>
</trkpt>
<trkpt lat="56.099567" lon="26.527056">
<ele>94.370178</ele>
<time>2010-08-29T14:54:38Z</time>
<desc>lat.=56.099567, lon.=26.527056, Alt.=94.370178m. Speed=11.952000m/h.</desc>
<speed>3.320000</speed>
</trkpt>
<trkpt lat="56.099579" lon="26.527002">
<ele>94.276428</ele>
<time>2010-08-29T14:54:39Z</time>
<desc>lat.=56.099579, lon.=26.527002, Alt.=94.276428m. Speed=12.672000m/h.</desc>
<speed>3.520000</speed>
</trkpt>
<trkpt lat="56.099586" lon="26.526953">
<ele>94.196350</ele>
<time>2010-08-29T14:54:40Z</time>
<desc>lat.=56.099586, lon.=26.526953, Alt.=94.196350m. Speed=13.176000m/h.</desc>
<speed>3.660000</speed>
</trkpt>
<trkpt lat="56.099594" lon="26.526897">
<ele>94.506897</ele>
<time>2010-08-29T14:54:41Z</time>
<desc>lat.=56.099594, lon.=26.526897, Alt.=94.506897m. Speed=12.996000m/h.</desc>
<speed>3.610000</speed>
</trkpt>
<trkpt lat="56.099609" lon="26.526844">
<ele>94.231506</ele>
<time>2010-08-29T14:54:42Z</time>
<desc>lat.=56.099609, lon.=26.526844, Alt.=94.231506m. Speed=13.932000m/h.</desc>
<speed>3.870000</speed>
</trkpt>
<trkpt lat="56.099617" lon="26.526781">
<ele>93.055725</ele>
<time>2010-08-29T14:54:43Z</time>
<desc>lat.=56.099617, lon.=26.526781, Alt.=93.055725m. Speed=14.580000m/h.</desc>
<speed>4.050000</speed>
</trkpt>
<trkpt lat="56.099628" lon="26.526716">
<ele>92.512756</ele>
<time>2010-08-29T14:54:44Z</time>
<desc>lat.=56.099628, lon.=26.526716, Alt.=92.512756m. Speed=15.372000m/h.</desc>
<speed>4.270000</speed>
</trkpt>
<trkpt lat="56.099640" lon="26.526653">
<ele>92.252991</ele>
<time>2010-08-29T14:54:45Z</time>
<desc>lat.=56.099640, lon.=26.526653, Alt.=92.252991m. Speed=15.516000m/h.</desc>
<speed>4.310000</speed>
</trkpt>
<trkpt lat="56.099655" lon="26.526585">
<ele>92.586975</ele>
<time>2010-08-29T14:54:46Z</time>
<desc>lat.=56.099655, lon.=26.526585, Alt.=92.586975m. Speed=15.336000m/h.</desc>
<speed>4.260000</speed>
</trkpt>
<trkpt lat="56.099674" lon="26.526524">
<ele>92.735413</ele>
<time>2010-08-29T14:54:47Z</time>
<desc>lat.=56.099674, lon.=26.526524, Alt.=92.735413m. Speed=13.932000m/h.</desc>
<speed>3.870000</speed>
</trkpt>
<trkpt lat="56.099686" lon="26.526466">
<ele>92.667053</ele>
<time>2010-08-29T14:54:48Z</time>
<desc>lat.=56.099686, lon.=26.526466, Alt.=92.667053m. Speed=13.176000m/h.</desc>
<speed>3.660000</speed>
</trkpt>
<trkpt lat="56.099697" lon="26.526415">
<ele>92.686584</ele>
<time>2010-08-29T14:54:49Z</time>
<desc>lat.=56.099697, lon.=26.526415, Alt.=92.686584m. Speed=12.132000m/h.</desc>
<speed>3.370000</speed>
</trkpt>
<trkpt lat="56.099705" lon="26.526367">
<ele>92.807678</ele>
<time>2010-08-29T14:54:50Z</time>
<desc>lat.=56.099705, lon.=26.526367, Alt.=92.807678m. Speed=10.980000m/h.</desc>
<speed>3.050000</speed>
</trkpt>
<trkpt lat="56.099712" lon="26.526321">
<ele>92.971741</ele>
<time>2010-08-29T14:54:51Z</time>
<desc>lat.=56.099712, lon.=26.526321, Alt.=92.971741m. Speed=11.052000m/h.</desc>
<speed>3.070000</speed>
</trkpt>
<trkpt lat="56.099720" lon="26.526270">
<ele>92.758850</ele>
<time>2010-08-29T14:54:52Z</time>
<desc>lat.=56.099720, lon.=26.526270, Alt.=92.758850m. Speed=12.024000m/h.</desc>
<speed>3.340000</speed>
</trkpt>
<trkpt lat="56.099731" lon="26.526211">
<ele>92.686584</ele>
<time>2010-08-29T14:54:53Z</time>
<desc>lat.=56.099731, lon.=26.526211, Alt.=92.686584m. Speed=13.428000m/h.</desc>
<speed>3.730000</speed>
</trkpt>
<trkpt lat="56.099739" lon="26.526140">
<ele>91.157288</ele>
<time>2010-08-29T14:54:54Z</time>
<desc>lat.=56.099739, lon.=26.526140, Alt.=91.157288m. Speed=14.328000m/h.</desc>
<speed>3.980000</speed>
</trkpt>
<trkpt lat="56.099743" lon="26.526081">
<ele>88.862366</ele>
<time>2010-08-29T14:54:55Z</time>
<desc>lat.=56.099743, lon.=26.526081, Alt.=88.862366m. Speed=10.368000m/h.</desc>
<speed>2.880000</speed>
</trkpt>
<trkpt lat="56.099751" lon="26.526026">
<ele>87.276428</ele>
<time>2010-08-29T14:54:56Z</time>
<desc>lat.=56.099751, lon.=26.526026, Alt.=87.276428m. Speed=13.536000m/h.</desc>
<speed>3.760000</speed>
</trkpt>
<trkpt lat="56.099762" lon="26.525948">
<ele>87.024475</ele>
<time>2010-08-29T14:54:57Z</time>
<desc>lat.=56.099762, lon.=26.525948, Alt.=87.024475m. Speed=18.612000m/h.</desc>
<speed>5.170000</speed>
</trkpt>
<trkpt lat="56.099777" lon="26.525862">
<ele>86.752991</ele>
<time>2010-08-29T14:54:58Z</time>
<desc>lat.=56.099777, lon.=26.525862, Alt.=86.752991m. Speed=20.160000m/h.</desc>
<speed>5.600000</speed>
</trkpt>
<trkpt lat="56.099789" lon="26.525776">
<ele>86.475647</ele>
<time>2010-08-29T14:54:59Z</time>
<desc>lat.=56.099789, lon.=26.525776, Alt.=86.475647m. Speed=20.160000m/h.</desc>
<speed>5.600000</speed>
</trkpt>
<trkpt lat="56.099808" lon="26.525700">
<ele>86.489319</ele>
<time>2010-08-29T14:55:00Z</time>
<desc>lat.=56.099808, lon.=26.525700, Alt.=86.489319m. Speed=18.648001m/h.</desc>
<speed>5.180000</speed>
</trkpt>
<trkpt lat="56.099819" lon="26.525627">
<ele>86.016663</ele>
<time>2010-08-29T14:55:01Z</time>
<desc>lat.=56.099819, lon.=26.525627, Alt.=86.016663m. Speed=16.740000m/h.</desc>
<speed>4.650000</speed>
</trkpt>
<trkpt lat="56.099831" lon="26.525557">
<ele>85.307678</ele>
<time>2010-08-29T14:55:02Z</time>
<desc>lat.=56.099831, lon.=26.525557, Alt.=85.307678m. Speed=15.588000m/h.</desc>
<speed>4.330000</speed>
</trkpt>
<trkpt lat="56.099842" lon="26.525488">
<ele>84.739319</ele>
<time>2010-08-29T14:55:03Z</time>
<desc>lat.=56.099842, lon.=26.525488, Alt.=84.739319m. Speed=16.416000m/h.</desc>
<speed>4.560000</speed>
</trkpt>
<trkpt lat="56.099854" lon="26.525412">
<ele>84.419006</ele>
<time>2010-08-29T14:55:04Z</time>
<desc>lat.=56.099854, lon.=26.525412, Alt.=84.419006m. Speed=17.784000m/h.</desc>
<speed>4.940000</speed>
</trkpt>
<trkpt lat="56.099869" lon="26.525333">
<ele>84.020569</ele>
<time>2010-08-29T14:55:05Z</time>
<desc>lat.=56.099869, lon.=26.525333, Alt.=84.020569m. Speed=19.296000m/h.</desc>
<speed>5.360000</speed>
</trkpt>
<trkpt lat="56.099884" lon="26.525248">
<ele>84.114319</ele>
<time>2010-08-29T14:55:06Z</time>
<desc>lat.=56.099884, lon.=26.525248, Alt.=84.114319m. Speed=20.195999m/h.</desc>
<speed>5.610000</speed>
</trkpt>
<trkpt lat="56.099899" lon="26.525162">
<ele>83.790100</ele>
<time>2010-08-29T14:55:07Z</time>
<desc>lat.=56.099899, lon.=26.525162, Alt.=83.790100m. Speed=20.232000m/h.</desc>
<speed>5.620000</speed>
</trkpt>
<trkpt lat="56.099915" lon="26.525082">
<ele>83.776428</ele>
<time>2010-08-29T14:55:08Z</time>
<desc>lat.=56.099915, lon.=26.525082, Alt.=83.776428m. Speed=19.044001m/h.</desc>
<speed>5.290000</speed>
</trkpt>
<trkpt lat="56.099934" lon="26.524998">
<ele>82.881897</ele>
<time>2010-08-29T14:55:09Z</time>
<desc>lat.=56.099934, lon.=26.524998, Alt.=82.881897m. Speed=20.483999m/h.</desc>
<speed>5.690000</speed>
</trkpt>
<trkpt lat="56.099945" lon="26.524910">
<ele>82.256897</ele>
<time>2010-08-29T14:55:10Z</time>
<desc>lat.=56.099945, lon.=26.524910, Alt.=82.256897m. Speed=20.087999m/h.</desc>
<speed>5.580000</speed>
</trkpt>
<trkpt lat="56.099964" lon="26.524830">
<ele>81.739319</ele>
<time>2010-08-29T14:55:11Z</time>
<desc>lat.=56.099964, lon.=26.524830, Alt.=81.739319m. Speed=19.799999m/h.</desc>
<speed>5.500000</speed>
</trkpt>
<trkpt lat="56.099979" lon="26.524754">
<ele>82.405334</ele>
<time>2010-08-29T14:55:12Z</time>
<desc>lat.=56.099979, lon.=26.524754, Alt.=82.405334m. Speed=19.440001m/h.</desc>
<speed>5.400000</speed>
</trkpt>
<trkpt lat="56.099995" lon="26.524675">
<ele>82.639709</ele>
<time>2010-08-29T14:55:13Z</time>
<desc>lat.=56.099995, lon.=26.524675, Alt.=82.639709m. Speed=17.532000m/h.</desc>
<speed>4.870000</speed>
</trkpt>
<trkpt lat="56.100010" lon="26.524609">
<ele>83.428772</ele>
<time>2010-08-29T14:55:14Z</time>
<desc>lat.=56.100010, lon.=26.524609, Alt.=83.428772m. Speed=16.056000m/h.</desc>
<speed>4.460000</speed>
</trkpt>
<trkpt lat="56.100025" lon="26.524540">
<ele>83.745178</ele>
<time>2010-08-29T14:55:15Z</time>
<desc>lat.=56.100025, lon.=26.524540, Alt.=83.745178m. Speed=17.459999m/h.</desc>
<speed>4.850000</speed>
</trkpt>
<trkpt lat="56.100037" lon="26.524469">
<ele>83.208069</ele>
<time>2010-08-29T14:55:16Z</time>
<desc>lat.=56.100037, lon.=26.524469, Alt.=83.208069m. Speed=16.920000m/h.</desc>
<speed>4.700000</speed>
</trkpt>
<trkpt lat="56.100052" lon="26.524399">
<ele>82.794006</ele>
<time>2010-08-29T14:55:17Z</time>
<desc>lat.=56.100052, lon.=26.524399, Alt.=82.794006m. Speed=16.955999m/h.</desc>
<speed>4.710000</speed>
</trkpt>
<trkpt lat="56.100071" lon="26.524323">
<ele>83.313538</ele>
<time>2010-08-29T14:55:18Z</time>
<desc>lat.=56.100071, lon.=26.524323, Alt.=83.313538m. Speed=18.468000m/h.</desc>
<speed>5.130000</speed>
</trkpt>
<trkpt lat="56.100090" lon="26.524250">
<ele>84.020569</ele>
<time>2010-08-29T14:55:19Z</time>
<desc>lat.=56.100090, lon.=26.524250, Alt.=84.020569m. Speed=18.504000m/h.</desc>
<speed>5.140000</speed>
</trkpt>
<trkpt lat="56.100109" lon="26.524170">
<ele>84.659241</ele>
<time>2010-08-29T14:55:20Z</time>
<desc>lat.=56.100109, lon.=26.524170, Alt.=84.659241m. Speed=18.180000m/h.</desc>
<speed>5.050000</speed>
</trkpt>
<trkpt lat="56.100113" lon="26.524082">
<ele>84.440491</ele>
<time>2010-08-29T14:55:21Z</time>
<desc>lat.=56.100113, lon.=26.524082, Alt.=84.440491m. Speed=18.143999m/h.</desc>
<speed>5.040000</speed>
</trkpt>
<trkpt lat="56.100128" lon="26.524004">
<ele>84.352600</ele>
<time>2010-08-29T14:55:22Z</time>
<desc>lat.=56.100128, lon.=26.524004, Alt.=84.352600m. Speed=18.000000m/h.</desc>
<speed>5.000000</speed>
</trkpt>
<trkpt lat="56.100147" lon="26.523930">
<ele>84.840881</ele>
<time>2010-08-29T14:55:23Z</time>
<desc>lat.=56.100147, lon.=26.523930, Alt.=84.840881m. Speed=17.351999m/h.</desc>
<speed>4.820000</speed>
</trkpt>
<trkpt lat="56.100163" lon="26.523865">
<ele>85.100647</ele>
<time>2010-08-29T14:55:24Z</time>
<desc>lat.=56.100163, lon.=26.523865, Alt.=85.100647m. Speed=15.120000m/h.</desc>
<speed>4.200000</speed>
</trkpt>
<trkpt lat="56.100178" lon="26.523813">
<ele>85.612366</ele>
<time>2010-08-29T14:55:25Z</time>
<desc>lat.=56.100178, lon.=26.523813, Alt.=85.612366m. Speed=13.536000m/h.</desc>
<speed>3.760000</speed>
</trkpt>
<trkpt lat="56.100197" lon="26.523752">
<ele>86.012756</ele>
<time>2010-08-29T14:55:26Z</time>
<desc>lat.=56.100197, lon.=26.523752, Alt.=86.012756m. Speed=16.091999m/h.</desc>
<speed>4.470000</speed>
</trkpt>
<trkpt lat="56.100208" lon="26.523687">
<ele>86.221741</ele>
<time>2010-08-29T14:55:27Z</time>
<desc>lat.=56.100208, lon.=26.523687, Alt.=86.221741m. Speed=14.508000m/h.</desc>
<speed>4.030000</speed>
</trkpt>
<trkpt lat="56.100220" lon="26.523636">
<ele>86.438538</ele>
<time>2010-08-29T14:55:28Z</time>
<desc>lat.=56.100220, lon.=26.523636, Alt.=86.438538m. Speed=11.592000m/h.</desc>
<speed>3.220000</speed>
</trkpt>
<trkpt lat="56.100231" lon="26.523590">
<ele>87.631897</ele>
<time>2010-08-29T14:55:29Z</time>
<desc>lat.=56.100231, lon.=26.523590, Alt.=87.631897m. Speed=11.808000m/h.</desc>
<speed>3.280000</speed>
</trkpt>
<trkpt lat="56.100243" lon="26.523548">
<ele>87.100647</ele>
<time>2010-08-29T14:55:30Z</time>
<desc>lat.=56.100243, lon.=26.523548, Alt.=87.100647m. Speed=11.880000m/h.</desc>
<speed>3.300000</speed>
</trkpt>
<trkpt lat="56.100258" lon="26.523500">
<ele>87.110413</ele>
<time>2010-08-29T14:55:31Z</time>
<desc>lat.=56.100258, lon.=26.523500, Alt.=87.110413m. Speed=13.104000m/h.</desc>
<speed>3.640000</speed>
</trkpt>
<trkpt lat="56.100273" lon="26.523445">
<ele>87.559631</ele>
<time>2010-08-29T14:55:32Z</time>
<desc>lat.=56.100273, lon.=26.523445, Alt.=87.559631m. Speed=13.644000m/h.</desc>
<speed>3.790000</speed>
</trkpt>
<trkpt lat="56.100292" lon="26.523396">
<ele>88.151428</ele>
<time>2010-08-29T14:55:33Z</time>
<desc>lat.=56.100292, lon.=26.523396, Alt.=88.151428m. Speed=12.672000m/h.</desc>
<speed>3.520000</speed>
</trkpt>
<trkpt lat="56.100311" lon="26.523346">
<ele>88.846741</ele>
<time>2010-08-29T14:55:34Z</time>
<desc>lat.=56.100311, lon.=26.523346, Alt.=88.846741m. Speed=15.120000m/h.</desc>
<speed>4.200000</speed>
</trkpt>
<trkpt lat="56.100334" lon="26.523287">
<ele>89.032288</ele>
<time>2010-08-29T14:55:35Z</time>
<desc>lat.=56.100334, lon.=26.523287, Alt.=89.032288m. Speed=16.632000m/h.</desc>
<speed>4.620000</speed>
</trkpt>
<trkpt lat="56.100361" lon="26.523216">
<ele>90.944397</ele>
<time>2010-08-29T14:55:36Z</time>
<desc>lat.=56.100361, lon.=26.523216, Alt.=90.944397m. Speed=17.676001m/h.</desc>
<speed>4.910000</speed>
</trkpt>
<trkpt lat="56.100384" lon="26.523142">
<ele>91.502991</ele>
<time>2010-08-29T14:55:37Z</time>
<desc>lat.=56.100384, lon.=26.523142, Alt.=91.502991m. Speed=18.540001m/h.</desc>
<speed>5.150000</speed>
</trkpt>
<trkpt lat="56.100407" lon="26.523066">
<ele>92.637756</ele>
<time>2010-08-29T14:55:38Z</time>
<desc>lat.=56.100407, lon.=26.523066, Alt.=92.637756m. Speed=19.115999m/h.</desc>
<speed>5.310000</speed>
</trkpt>
<trkpt lat="56.100430" lon="26.522995">
<ele>93.475647</ele>
<time>2010-08-29T14:55:39Z</time>
<desc>lat.=56.100430, lon.=26.522995, Alt.=93.475647m. Speed=17.028000m/h.</desc>
<speed>4.730000</speed>
</trkpt>
<trkpt lat="56.100449" lon="26.522936">
<ele>94.799866</ele>
<time>2010-08-29T14:55:40Z</time>
<desc>lat.=56.100449, lon.=26.522936, Alt.=94.799866m. Speed=16.200001m/h.</desc>
<speed>4.500000</speed>
</trkpt>
<trkpt lat="56.100471" lon="26.522871">
<ele>95.508850</ele>
<time>2010-08-29T14:55:41Z</time>
<desc>lat.=56.100471, lon.=26.522871, Alt.=95.508850m. Speed=15.120000m/h.</desc>
<speed>4.200000</speed>
</trkpt>
<trkpt lat="56.100494" lon="26.522812">
<ele>94.922913</ele>
<time>2010-08-29T14:55:42Z</time>
<desc>lat.=56.100494, lon.=26.522812, Alt.=94.922913m. Speed=15.660000m/h.</desc>
<speed>4.350000</speed>
</trkpt>
<trkpt lat="56.100513" lon="26.522751">
<ele>95.536194</ele>
<time>2010-08-29T14:55:43Z</time>
<desc>lat.=56.100513, lon.=26.522751, Alt.=95.536194m. Speed=15.408000m/h.</desc>
<speed>4.280000</speed>
</trkpt>
<trkpt lat="56.100533" lon="26.522688">
<ele>95.241272</ele>
<time>2010-08-29T14:55:44Z</time>
<desc>lat.=56.100533, lon.=26.522688, Alt.=95.241272m. Speed=14.868000m/h.</desc>
<speed>4.130000</speed>
</trkpt>
<trkpt lat="56.100548" lon="26.522629">
<ele>95.467834</ele>
<time>2010-08-29T14:55:45Z</time>
<desc>lat.=56.100548, lon.=26.522629, Alt.=95.467834m. Speed=15.012000m/h.</desc>
<speed>4.170000</speed>
</trkpt>
<trkpt lat="56.100567" lon="26.522568">
<ele>95.794006</ele>
<time>2010-08-29T14:55:46Z</time>
<desc>lat.=56.100567, lon.=26.522568, Alt.=95.794006m. Speed=15.696000m/h.</desc>
<speed>4.360000</speed>
</trkpt>
<trkpt lat="56.100586" lon="26.522503">
<ele>95.653381</ele>
<time>2010-08-29T14:55:47Z</time>
<desc>lat.=56.100586, lon.=26.522503, Alt.=95.653381m. Speed=16.128000m/h.</desc>
<speed>4.480000</speed>
</trkpt>
<trkpt lat="56.100613" lon="26.522436">
<ele>96.528381</ele>
<time>2010-08-29T14:55:48Z</time>
<desc>lat.=56.100613, lon.=26.522436, Alt.=96.528381m. Speed=17.028000m/h.</desc>
<speed>4.730000</speed>
</trkpt>
<trkpt lat="56.100632" lon="26.522366">
<ele>96.372131</ele>
<time>2010-08-29T14:55:49Z</time>
<desc>lat.=56.100632, lon.=26.522366, Alt.=96.372131m. Speed=17.459999m/h.</desc>
<speed>4.850000</speed>
</trkpt>
<trkpt lat="56.100655" lon="26.522299">
<ele>96.450256</ele>
<time>2010-08-29T14:55:50Z</time>
<desc>lat.=56.100655, lon.=26.522299, Alt.=96.450256m. Speed=15.984000m/h.</desc>
<speed>4.440000</speed>
</trkpt>
<trkpt lat="56.100674" lon="26.522236">
<ele>97.026428</ele>
<time>2010-08-29T14:55:51Z</time>
<desc>lat.=56.100674, lon.=26.522236, Alt.=97.026428m. Speed=15.264000m/h.</desc>
<speed>4.240000</speed>
</trkpt>
<trkpt lat="56.100693" lon="26.522181">
<ele>97.102600</ele>
<time>2010-08-29T14:55:52Z</time>
<desc>lat.=56.100693, lon.=26.522181, Alt.=97.102600m. Speed=14.616000m/h.</desc>
<speed>4.060000</speed>
</trkpt>
<trkpt lat="56.100712" lon="26.522125">
<ele>96.965881</ele>
<time>2010-08-29T14:55:53Z</time>
<desc>lat.=56.100712, lon.=26.522125, Alt.=96.965881m. Speed=15.264000m/h.</desc>
<speed>4.240000</speed>
</trkpt>
<trkpt lat="56.100735" lon="26.522068">
<ele>97.188538</ele>
<time>2010-08-29T14:55:54Z</time>
<desc>lat.=56.100735, lon.=26.522068, Alt.=97.188538m. Speed=15.840000m/h.</desc>
<speed>4.400000</speed>
</trkpt>
<trkpt lat="56.100758" lon="26.522007">
<ele>97.860413</ele>
<time>2010-08-29T14:55:55Z</time>
<desc>lat.=56.100758, lon.=26.522007, Alt.=97.860413m. Speed=17.280001m/h.</desc>
<speed>4.800000</speed>
</trkpt>
<trkpt lat="56.100780" lon="26.521938">
<ele>97.598694</ele>
<time>2010-08-29T14:55:56Z</time>
<desc>lat.=56.100780, lon.=26.521938, Alt.=97.598694m. Speed=17.784000m/h.</desc>
<speed>4.940000</speed>
</trkpt>
<trkpt lat="56.100811" lon="26.521868">
<ele>96.958069</ele>
<time>2010-08-29T14:55:57Z</time>
<desc>lat.=56.100811, lon.=26.521868, Alt.=96.958069m. Speed=18.827999m/h.</desc>
<speed>5.230000</speed>
</trkpt>
<trkpt lat="56.100838" lon="26.521791">
<ele>97.352600</ele>
<time>2010-08-29T14:55:58Z</time>
<desc>lat.=56.100838, lon.=26.521791, Alt.=97.352600m. Speed=19.584000m/h.</desc>
<speed>5.440000</speed>
</trkpt>
<trkpt lat="56.100872" lon="26.521717">
<ele>97.876038</ele>
<time>2010-08-29T14:55:59Z</time>
<desc>lat.=56.100872, lon.=26.521717, Alt.=97.876038m. Speed=19.332001m/h.</desc>
<speed>5.370000</speed>
</trkpt>
<trkpt lat="56.100899" lon="26.521645">
<ele>97.856506</ele>
<time>2010-08-29T14:56:00Z</time>
<desc>lat.=56.100899, lon.=26.521645, Alt.=97.856506m. Speed=19.511999m/h.</desc>
<speed>5.420000</speed>
</trkpt>
<trkpt lat="56.100922" lon="26.521563">
<ele>96.294006</ele>
<time>2010-08-29T14:56:01Z</time>
<desc>lat.=56.100922, lon.=26.521563, Alt.=96.294006m. Speed=19.691999m/h.</desc>
<speed>5.470000</speed>
</trkpt>
<trkpt lat="56.100948" lon="26.521492">
<ele>95.903381</ele>
<time>2010-08-29T14:56:02Z</time>
<desc>lat.=56.100948, lon.=26.521492, Alt.=95.903381m. Speed=18.216000m/h.</desc>
<speed>5.060000</speed>
</trkpt>
<trkpt lat="56.100975" lon="26.521427">
<ele>95.815491</ele>
<time>2010-08-29T14:56:03Z</time>
<desc>lat.=56.100975, lon.=26.521427, Alt.=95.815491m. Speed=17.136000m/h.</desc>
<speed>4.760000</speed>
</trkpt>
<trkpt lat="56.100998" lon="26.521364">
<ele>95.200256</ele>
<time>2010-08-29T14:56:04Z</time>
<desc>lat.=56.100998, lon.=26.521364, Alt.=95.200256m. Speed=16.775999m/h.</desc>
<speed>4.660000</speed>
</trkpt>
<trkpt lat="56.101021" lon="26.521307">
<ele>94.967834</ele>
<time>2010-08-29T14:56:05Z</time>
<desc>lat.=56.101021, lon.=26.521307, Alt.=94.967834m. Speed=15.732000m/h.</desc>
<speed>4.370000</speed>
</trkpt>
<trkpt lat="56.101048" lon="26.521238">
<ele>95.085022</ele>
<time>2010-08-29T14:56:06Z</time>
<desc>lat.=56.101048, lon.=26.521238, Alt.=95.085022m. Speed=15.984000m/h.</desc>
<speed>4.440000</speed>
</trkpt>
<trkpt lat="56.101067" lon="26.521170">
<ele>94.627991</ele>
<time>2010-08-29T14:56:07Z</time>
<desc>lat.=56.101067, lon.=26.521170, Alt.=94.627991m. Speed=16.740000m/h.</desc>
<speed>4.650000</speed>
</trkpt>
<trkpt lat="56.101089" lon="26.521107">
<ele>94.129944</ele>
<time>2010-08-29T14:56:08Z</time>
<desc>lat.=56.101089, lon.=26.521107, Alt.=94.129944m. Speed=17.424000m/h.</desc>
<speed>4.840000</speed>
</trkpt>
<trkpt lat="56.101116" lon="26.521040">
<ele>93.567444</ele>
<time>2010-08-29T14:56:09Z</time>
<desc>lat.=56.101116, lon.=26.521040, Alt.=93.567444m. Speed=17.784000m/h.</desc>
<speed>4.940000</speed>
</trkpt>
<trkpt lat="56.101139" lon="26.520973">
<ele>92.905334</ele>
<time>2010-08-29T14:56:10Z</time>
<desc>lat.=56.101139, lon.=26.520973, Alt.=92.905334m. Speed=17.496000m/h.</desc>
<speed>4.860000</speed>
</trkpt>
<trkpt lat="56.101166" lon="26.520903">
<ele>93.516663</ele>
<time>2010-08-29T14:56:11Z</time>
<desc>lat.=56.101166, lon.=26.520903, Alt.=93.516663m. Speed=16.848000m/h.</desc>
<speed>4.680000</speed>
</trkpt>
<trkpt lat="56.101185" lon="26.520834">
<ele>93.274475</ele>
<time>2010-08-29T14:56:12Z</time>
<desc>lat.=56.101185, lon.=26.520834, Alt.=93.274475m. Speed=17.388000m/h.</desc>
<speed>4.830000</speed>
</trkpt>
<trkpt lat="56.101215" lon="26.520760">
<ele>93.610413</ele>
<time>2010-08-29T14:56:13Z</time>
<desc>lat.=56.101215, lon.=26.520760, Alt.=93.610413m. Speed=17.136000m/h.</desc>
<speed>4.760000</speed>
</trkpt>
<trkpt lat="56.101231" lon="26.520697">
<ele>92.032288</ele>
<time>2010-08-29T14:56:14Z</time>
<desc>lat.=56.101231, lon.=26.520697, Alt.=92.032288m. Speed=17.100000m/h.</desc>
<speed>4.750000</speed>
</trkpt>
<trkpt lat="56.101257" lon="26.520626">
<ele>91.411194</ele>
<time>2010-08-29T14:56:15Z</time>
<desc>lat.=56.101257, lon.=26.520626, Alt.=91.411194m. Speed=18.143999m/h.</desc>
<speed>5.040000</speed>
</trkpt>
<trkpt lat="56.101284" lon="26.520552">
<ele>90.706116</ele>
<time>2010-08-29T14:56:16Z</time>
<desc>lat.=56.101284, lon.=26.520552, Alt.=90.706116m. Speed=19.908001m/h.</desc>
<speed>5.530000</speed>
</trkpt>
<trkpt lat="56.101295" lon="26.520491">
<ele>85.180725</ele>
<time>2010-08-29T14:56:17Z</time>
<desc>lat.=56.101295, lon.=26.520491, Alt.=85.180725m. Speed=16.379999m/h.</desc>
<speed>4.550000</speed>
</trkpt>
<trkpt lat="56.101318" lon="26.520422">
<ele>84.028381</ele>
<time>2010-08-29T14:56:18Z</time>
<desc>lat.=56.101318, lon.=26.520422, Alt.=84.028381m. Speed=19.224001m/h.</desc>
<speed>5.340000</speed>
</trkpt>
<trkpt lat="56.101345" lon="26.520344">
<ele>83.409241</ele>
<time>2010-08-29T14:56:19Z</time>
<desc>lat.=56.101345, lon.=26.520344, Alt.=83.409241m. Speed=19.080000m/h.</desc>
<speed>5.300000</speed>
</trkpt>
<trkpt lat="56.101372" lon="26.520266">
<ele>83.336975</ele>
<time>2010-08-29T14:56:20Z</time>
<desc>lat.=56.101372, lon.=26.520266, Alt.=83.336975m. Speed=18.504000m/h.</desc>
<speed>5.140000</speed>
</trkpt>
<trkpt lat="56.101410" lon="26.520191">
<ele>87.682678</ele>
<time>2010-08-29T14:56:21Z</time>
<desc>lat.=56.101410, lon.=26.520191, Alt.=87.682678m. Speed=18.936001m/h.</desc>
<speed>5.260000</speed>
</trkpt>
<trkpt lat="56.101437" lon="26.520117">
<ele>88.442444</ele>
<time>2010-08-29T14:56:22Z</time>
<desc>lat.=56.101437, lon.=26.520117, Alt.=88.442444m. Speed=18.504000m/h.</desc>
<speed>5.140000</speed>
</trkpt>
<trkpt lat="56.101463" lon="26.520046">
<ele>88.364319</ele>
<time>2010-08-29T14:56:23Z</time>
<desc>lat.=56.101463, lon.=26.520046, Alt.=88.364319m. Speed=17.892000m/h.</desc>
<speed>4.970000</speed>
</trkpt>
<trkpt lat="56.101490" lon="26.519976">
<ele>88.340881</ele>
<time>2010-08-29T14:56:24Z</time>
<desc>lat.=56.101490, lon.=26.519976, Alt.=88.340881m. Speed=17.568001m/h.</desc>
<speed>4.880000</speed>
</trkpt>
<trkpt lat="56.101513" lon="26.519911">
<ele>88.745178</ele>
<time>2010-08-29T14:56:25Z</time>
<desc>lat.=56.101513, lon.=26.519911, Alt.=88.745178m. Speed=17.316000m/h.</desc>
<speed>4.810000</speed>
</trkpt>
<trkpt lat="56.101540" lon="26.519844">
<ele>89.194397</ele>
<time>2010-08-29T14:56:26Z</time>
<desc>lat.=56.101540, lon.=26.519844, Alt.=89.194397m. Speed=16.775999m/h.</desc>
<speed>4.660000</speed>
</trkpt>
<trkpt lat="56.101566" lon="26.519779">
<ele>91.376038</ele>
<time>2010-08-29T14:56:27Z</time>
<desc>lat.=56.101566, lon.=26.519779, Alt.=91.376038m. Speed=16.164000m/h.</desc>
<speed>4.490000</speed>
</trkpt>
<trkpt lat="56.101593" lon="26.519712">
<ele>92.522522</ele>
<time>2010-08-29T14:56:28Z</time>
<desc>lat.=56.101593, lon.=26.519712, Alt.=92.522522m. Speed=16.920000m/h.</desc>
<speed>4.700000</speed>
</trkpt>
<trkpt lat="56.101620" lon="26.519646">
<ele>93.239319</ele>
<time>2010-08-29T14:56:29Z</time>
<desc>lat.=56.101620, lon.=26.519646, Alt.=93.239319m. Speed=17.351999m/h.</desc>
<speed>4.820000</speed>
</trkpt>
<trkpt lat="56.101646" lon="26.519569">
<ele>93.616272</ele>
<time>2010-08-29T14:56:30Z</time>
<desc>lat.=56.101646, lon.=26.519569, Alt.=93.616272m. Speed=18.540001m/h.</desc>
<speed>5.150000</speed>
</trkpt>
<trkpt lat="56.101665" lon="26.519493">
<ele>93.321350</ele>
<time>2010-08-29T14:56:31Z</time>
<desc>lat.=56.101665, lon.=26.519493, Alt.=93.321350m. Speed=20.124001m/h.</desc>
<speed>5.590000</speed>
</trkpt>
<trkpt lat="56.101696" lon="26.519411">
<ele>94.458069</ele>
<time>2010-08-29T14:56:32Z</time>
<desc>lat.=56.101696, lon.=26.519411, Alt.=94.458069m. Speed=20.952000m/h.</desc>
<speed>5.820000</speed>
</trkpt>
<trkpt lat="56.101723" lon="26.519329">
<ele>95.497131</ele>
<time>2010-08-29T14:56:33Z</time>
<desc>lat.=56.101723, lon.=26.519329, Alt.=95.497131m. Speed=21.924000m/h.</desc>
<speed>6.090000</speed>
</trkpt>
<trkpt lat="56.101749" lon="26.519243">
<ele>95.409241</ele>
<time>2010-08-29T14:56:34Z</time>
<desc>lat.=56.101749, lon.=26.519243, Alt.=95.409241m. Speed=22.032000m/h.</desc>
<speed>6.120000</speed>
</trkpt>
<trkpt lat="56.101776" lon="26.519159">
<ele>95.260803</ele>
<time>2010-08-29T14:56:35Z</time>
<desc>lat.=56.101776, lon.=26.519159, Alt.=95.260803m. Speed=21.024000m/h.</desc>
<speed>5.840000</speed>
</trkpt>
<trkpt lat="56.101799" lon="26.519077">
<ele>94.674866</ele>
<time>2010-08-29T14:56:36Z</time>
<desc>lat.=56.101799, lon.=26.519077, Alt.=94.674866m. Speed=20.268000m/h.</desc>
<speed>5.630000</speed>
</trkpt>
<trkpt lat="56.101822" lon="26.518993">
<ele>94.368225</ele>
<time>2010-08-29T14:56:37Z</time>
<desc>lat.=56.101822, lon.=26.518993, Alt.=94.368225m. Speed=19.944000m/h.</desc>
<speed>5.540000</speed>
</trkpt>
<trkpt lat="56.101845" lon="26.518917">
<ele>93.958069</ele>
<time>2010-08-29T14:56:38Z</time>
<desc>lat.=56.101845, lon.=26.518917, Alt.=93.958069m. Speed=18.972000m/h.</desc>
<speed>5.270000</speed>
</trkpt>
<trkpt lat="56.101864" lon="26.518835">
<ele>93.530334</ele>
<time>2010-08-29T14:56:39Z</time>
<desc>lat.=56.101864, lon.=26.518835, Alt.=93.530334m. Speed=19.007999m/h.</desc>
<speed>5.280000</speed>
</trkpt>
<trkpt lat="56.101887" lon="26.518759">
<ele>93.114319</ele>
<time>2010-08-29T14:56:40Z</time>
<desc>lat.=56.101887, lon.=26.518759, Alt.=93.114319m. Speed=19.260000m/h.</desc>
<speed>5.350000</speed>
</trkpt>
<trkpt lat="56.101917" lon="26.518681">
<ele>93.485413</ele>
<time>2010-08-29T14:56:41Z</time>
<desc>lat.=56.101917, lon.=26.518681, Alt.=93.485413m. Speed=20.304001m/h.</desc>
<speed>5.640000</speed>
</trkpt>
<trkpt lat="56.101944" lon="26.518600">
<ele>92.895569</ele>
<time>2010-08-29T14:56:42Z</time>
<desc>lat.=56.101944, lon.=26.518600, Alt.=92.895569m. Speed=20.988001m/h.</desc>
<speed>5.830000</speed>
</trkpt>
<trkpt lat="56.101967" lon="26.518513">
<ele>92.463928</ele>
<time>2010-08-29T14:56:43Z</time>
<desc>lat.=56.101967, lon.=26.518513, Alt.=92.463928m. Speed=21.312000m/h.</desc>
<speed>5.920000</speed>
</trkpt>
<trkpt lat="56.101994" lon="26.518431">
<ele>92.942444</ele>
<time>2010-08-29T14:56:44Z</time>
<desc>lat.=56.101994, lon.=26.518431, Alt.=92.942444m. Speed=21.636000m/h.</desc>
<speed>6.010000</speed>
</trkpt>
<trkpt lat="56.102016" lon="26.518349">
<ele>92.877991</ele>
<time>2010-08-29T14:56:45Z</time>
<desc>lat.=56.102016, lon.=26.518349, Alt.=92.877991m. Speed=20.844000m/h.</desc>
<speed>5.790000</speed>
</trkpt>
<trkpt lat="56.102039" lon="26.518269">
<ele>94.360413</ele>
<time>2010-08-29T14:56:46Z</time>
<desc>lat.=56.102039, lon.=26.518269, Alt.=94.360413m. Speed=20.556000m/h.</desc>
<speed>5.710000</speed>
</trkpt>
<trkpt lat="56.102062" lon="26.518192">
<ele>94.454163</ele>
<time>2010-08-29T14:56:47Z</time>
<desc>lat.=56.102062, lon.=26.518192, Alt.=94.454163m. Speed=19.764000m/h.</desc>
<speed>5.490000</speed>
</trkpt>
<trkpt lat="56.102085" lon="26.518114">
<ele>94.315491</ele>
<time>2010-08-29T14:56:48Z</time>
<desc>lat.=56.102085, lon.=26.518114, Alt.=94.315491m. Speed=19.260000m/h.</desc>
<speed>5.350000</speed>
</trkpt>
<trkpt lat="56.102104" lon="26.518040">
<ele>94.081116</ele>
<time>2010-08-29T14:56:49Z</time>
<desc>lat.=56.102104, lon.=26.518040, Alt.=94.081116m. Speed=18.576000m/h.</desc>
<speed>5.160000</speed>
</trkpt>
<trkpt lat="56.102119" lon="26.517969">
<ele>93.911194</ele>
<time>2010-08-29T14:56:50Z</time>
<desc>lat.=56.102119, lon.=26.517969, Alt.=93.911194m. Speed=17.028000m/h.</desc>
<speed>4.730000</speed>
</trkpt>
<trkpt lat="56.102146" lon="26.517885">
<ele>94.350647</ele>
<time>2010-08-29T14:56:51Z</time>
<desc>lat.=56.102146, lon.=26.517885, Alt.=94.350647m. Speed=26.243999m/h.</desc>
<speed>7.290000</speed>
</trkpt>
<trkpt lat="56.102173" lon="26.517794">
<ele>94.788147</ele>
<time>2010-08-29T14:56:52Z</time>
<desc>lat.=56.102173, lon.=26.517794, Alt.=94.788147m. Speed=20.664000m/h.</desc>
<speed>5.740000</speed>
</trkpt>
<trkpt lat="56.102196" lon="26.517708">
<ele>95.237366</ele>
<time>2010-08-29T14:56:53Z</time>
<desc>lat.=56.102196, lon.=26.517708, Alt.=95.237366m. Speed=20.736000m/h.</desc>
<speed>5.760000</speed>
</trkpt>
<trkpt lat="56.102215" lon="26.517618">
<ele>95.163147</ele>
<time>2010-08-29T14:56:54Z</time>
<desc>lat.=56.102215, lon.=26.517618, Alt.=95.163147m. Speed=20.448000m/h.</desc>
<speed>5.680000</speed>
</trkpt>
<trkpt lat="56.102234" lon="26.517529">
<ele>95.210022</ele>
<time>2010-08-29T14:56:55Z</time>
<desc>lat.=56.102234, lon.=26.517529, Alt.=95.210022m. Speed=21.888000m/h.</desc>
<speed>6.080000</speed>
</trkpt>
<trkpt lat="56.102253" lon="26.517437">
<ele>95.176819</ele>
<time>2010-08-29T14:56:56Z</time>
<desc>lat.=56.102253, lon.=26.517437, Alt.=95.176819m. Speed=20.700001m/h.</desc>
<speed>5.750000</speed>
</trkpt>
<trkpt lat="56.102272" lon="26.517355">
<ele>95.057678</ele>
<time>2010-08-29T14:56:57Z</time>
<desc>lat.=56.102272, lon.=26.517355, Alt.=95.057678m. Speed=20.304001m/h.</desc>
<speed>5.640000</speed>
</trkpt>
<trkpt lat="56.102287" lon="26.517273">
<ele>94.922913</ele>
<time>2010-08-29T14:56:58Z</time>
<desc>lat.=56.102287, lon.=26.517273, Alt.=94.922913m. Speed=19.548000m/h.</desc>
<speed>5.430000</speed>
</trkpt>
<trkpt lat="56.102306" lon="26.517199">
<ele>95.090881</ele>
<time>2010-08-29T14:56:59Z</time>
<desc>lat.=56.102306, lon.=26.517199, Alt.=95.090881m. Speed=18.684000m/h.</desc>
<speed>5.190000</speed>
</trkpt>
<trkpt lat="56.102322" lon="26.517118">
<ele>94.934631</ele>
<time>2010-08-29T14:57:00Z</time>
<desc>lat.=56.102322, lon.=26.517118, Alt.=94.934631m. Speed=19.080000m/h.</desc>
<speed>5.300000</speed>
</trkpt>
<trkpt lat="56.102341" lon="26.517038">
<ele>94.749084</ele>
<time>2010-08-29T14:57:01Z</time>
<desc>lat.=56.102341, lon.=26.517038, Alt.=94.749084m. Speed=20.304001m/h.</desc>
<speed>5.640000</speed>
</trkpt>
<trkpt lat="56.102356" lon="26.516953">
<ele>94.756897</ele>
<time>2010-08-29T14:57:02Z</time>
<desc>lat.=56.102356, lon.=26.516953, Alt.=94.756897m. Speed=20.879999m/h.</desc>
<speed>5.800000</speed>
</trkpt>
<trkpt lat="56.102371" lon="26.516859">
<ele>94.245178</ele>
<time>2010-08-29T14:57:03Z</time>
<desc>lat.=56.102371, lon.=26.516859, Alt.=94.245178m. Speed=21.563999m/h.</desc>
<speed>5.990000</speed>
</trkpt>
<trkpt lat="56.102390" lon="26.516768">
<ele>94.044006</ele>
<time>2010-08-29T14:57:04Z</time>
<desc>lat.=56.102390, lon.=26.516768, Alt.=94.044006m. Speed=20.808001m/h.</desc>
<speed>5.780000</speed>
</trkpt>
<trkpt lat="56.102406" lon="26.516680">
<ele>93.323303</ele>
<time>2010-08-29T14:57:05Z</time>
<desc>lat.=56.102406, lon.=26.516680, Alt.=93.323303m. Speed=19.944000m/h.</desc>
<speed>5.540000</speed>
</trkpt>
<trkpt lat="56.102421" lon="26.516588">
<ele>93.721741</ele>
<time>2010-08-29T14:57:06Z</time>
<desc>lat.=56.102421, lon.=26.516588, Alt.=93.721741m. Speed=22.716000m/h.</desc>
<speed>6.310000</speed>
</trkpt>
<trkpt lat="56.102440" lon="26.516499">
<ele>93.606506</ele>
<time>2010-08-29T14:57:07Z</time>
<desc>lat.=56.102440, lon.=26.516499, Alt.=93.606506m. Speed=19.332001m/h.</desc>
<speed>5.370000</speed>
</trkpt>
<trkpt lat="56.102455" lon="26.516417">
<ele>93.733459</ele>
<time>2010-08-29T14:57:08Z</time>
<desc>lat.=56.102455, lon.=26.516417, Alt.=93.733459m. Speed=18.827999m/h.</desc>
<speed>5.230000</speed>
</trkpt>
<trkpt lat="56.102467" lon="26.516340">
<ele>93.782288</ele>
<time>2010-08-29T14:57:09Z</time>
<desc>lat.=56.102467, lon.=26.516340, Alt.=93.782288m. Speed=18.143999m/h.</desc>
<speed>5.040000</speed>
</trkpt>
<trkpt lat="56.102478" lon="26.516264">
<ele>93.856506</ele>
<time>2010-08-29T14:57:10Z</time>
<desc>lat.=56.102478, lon.=26.516264, Alt.=93.856506m. Speed=17.820000m/h.</desc>
<speed>4.950000</speed>
</trkpt>
<trkpt lat="56.102493" lon="26.516191">
<ele>93.733459</ele>
<time>2010-08-29T14:57:11Z</time>
<desc>lat.=56.102493, lon.=26.516191, Alt.=93.733459m. Speed=17.388000m/h.</desc>
<speed>4.830000</speed>
</trkpt>
<trkpt lat="56.102501" lon="26.516113">
<ele>93.598694</ele>
<time>2010-08-29T14:57:12Z</time>
<desc>lat.=56.102501, lon.=26.516113, Alt.=93.598694m. Speed=17.208000m/h.</desc>
<speed>4.780000</speed>
</trkpt>
<trkpt lat="56.102512" lon="26.516039">
<ele>93.585022</ele>
<time>2010-08-29T14:57:13Z</time>
<desc>lat.=56.102512, lon.=26.516039, Alt.=93.585022m. Speed=16.667999m/h.</desc>
<speed>4.630000</speed>
</trkpt>
<trkpt lat="56.102524" lon="26.515970">
<ele>93.350647</ele>
<time>2010-08-29T14:57:14Z</time>
<desc>lat.=56.102524, lon.=26.515970, Alt.=93.350647m. Speed=16.379999m/h.</desc>
<speed>4.550000</speed>
</trkpt>
<trkpt lat="56.102535" lon="26.515900">
<ele>93.508850</ele>
<time>2010-08-29T14:57:15Z</time>
<desc>lat.=56.102535, lon.=26.515900, Alt.=93.508850m. Speed=16.524000m/h.</desc>
<speed>4.590000</speed>
</trkpt>
<trkpt lat="56.102543" lon="26.515827">
<ele>93.700256</ele>
<time>2010-08-29T14:57:16Z</time>
<desc>lat.=56.102543, lon.=26.515827, Alt.=93.700256m. Speed=17.676001m/h.</desc>
<speed>4.910000</speed>
</trkpt>
<trkpt lat="56.102554" lon="26.515749">
<ele>93.417053</ele>
<time>2010-08-29T14:57:17Z</time>
<desc>lat.=56.102554, lon.=26.515749, Alt.=93.417053m. Speed=19.007999m/h.</desc>
<speed>5.280000</speed>
</trkpt>
<trkpt lat="56.102570" lon="26.515667">
<ele>93.044006</ele>
<time>2010-08-29T14:57:18Z</time>
<desc>lat.=56.102570, lon.=26.515667, Alt.=93.044006m. Speed=20.628000m/h.</desc>
<speed>5.730000</speed>
</trkpt>
<trkpt lat="56.102585" lon="26.515577">
<ele>92.885803</ele>
<time>2010-08-29T14:57:19Z</time>
<desc>lat.=56.102585, lon.=26.515577, Alt.=92.885803m. Speed=21.851999m/h.</desc>
<speed>6.070000</speed>
</trkpt>
<trkpt lat="56.102600" lon="26.515474">
<ele>94.026428</ele>
<time>2010-08-29T14:57:20Z</time>
<desc>lat.=56.102600, lon.=26.515474, Alt.=94.026428m. Speed=23.148001m/h.</desc>
<speed>6.430000</speed>
</trkpt>
<trkpt lat="56.102615" lon="26.515373">
<ele>94.403381</ele>
<time>2010-08-29T14:57:21Z</time>
<desc>lat.=56.102615, lon.=26.515373, Alt.=94.403381m. Speed=23.148001m/h.</desc>
<speed>6.430000</speed>
</trkpt>
<trkpt lat="56.102631" lon="26.515274">
<ele>94.307678</ele>
<time>2010-08-29T14:57:22Z</time>
<desc>lat.=56.102631, lon.=26.515274, Alt.=94.307678m. Speed=22.464001m/h.</desc>
<speed>6.240000</speed>
</trkpt>
<trkpt lat="56.102638" lon="26.515179">
<ele>93.805725</ele>
<time>2010-08-29T14:57:23Z</time>
<desc>lat.=56.102638, lon.=26.515179, Alt.=93.805725m. Speed=21.888000m/h.</desc>
<speed>6.080000</speed>
</trkpt>
<trkpt lat="56.102650" lon="26.515083">
<ele>93.790100</ele>
<time>2010-08-29T14:57:24Z</time>
<desc>lat.=56.102650, lon.=26.515083, Alt.=93.790100m. Speed=21.708000m/h.</desc>
<speed>6.030000</speed>
</trkpt>
<trkpt lat="56.102661" lon="26.514988">
<ele>93.801819</ele>
<time>2010-08-29T14:57:25Z</time>
<desc>lat.=56.102661, lon.=26.514988, Alt.=93.801819m. Speed=21.851999m/h.</desc>
<speed>6.070000</speed>
</trkpt>
<trkpt lat="56.102673" lon="26.514893">
<ele>93.434631</ele>
<time>2010-08-29T14:57:26Z</time>
<desc>lat.=56.102673, lon.=26.514893, Alt.=93.434631m. Speed=21.455999m/h.</desc>
<speed>5.960000</speed>
</trkpt>
<trkpt lat="56.102688" lon="26.514799">
<ele>93.167053</ele>
<time>2010-08-29T14:57:27Z</time>
<desc>lat.=56.102688, lon.=26.514799, Alt.=93.167053m. Speed=21.492001m/h.</desc>
<speed>5.970000</speed>
</trkpt>
<trkpt lat="56.102699" lon="26.514704">
<ele>92.983459</ele>
<time>2010-08-29T14:57:28Z</time>
<desc>lat.=56.102699, lon.=26.514704, Alt.=92.983459m. Speed=21.888000m/h.</desc>
<speed>6.080000</speed>
</trkpt>
<trkpt lat="56.102707" lon="26.514608">
<ele>92.967834</ele>
<time>2010-08-29T14:57:29Z</time>
<desc>lat.=56.102707, lon.=26.514608, Alt.=92.967834m. Speed=21.636000m/h.</desc>
<speed>6.010000</speed>
</trkpt>
<trkpt lat="56.102718" lon="26.514515">
<ele>92.739319</ele>
<time>2010-08-29T14:57:30Z</time>
<desc>lat.=56.102718, lon.=26.514515, Alt.=92.739319m. Speed=21.851999m/h.</desc>
<speed>6.070000</speed>
</trkpt>
<trkpt lat="56.102726" lon="26.514418">
<ele>92.649475</ele>
<time>2010-08-29T14:57:31Z</time>
<desc>lat.=56.102726, lon.=26.514418, Alt.=92.649475m. Speed=21.888000m/h.</desc>
<speed>6.080000</speed>
</trkpt>
<trkpt lat="56.102737" lon="26.514318">
<ele>92.692444</ele>
<time>2010-08-29T14:57:32Z</time>
<desc>lat.=56.102737, lon.=26.514318, Alt.=92.692444m. Speed=21.888000m/h.</desc>
<speed>6.080000</speed>
</trkpt>
<trkpt lat="56.102749" lon="26.514221">
<ele>92.469788</ele>
<time>2010-08-29T14:57:33Z</time>
<desc>lat.=56.102749, lon.=26.514221, Alt.=92.469788m. Speed=21.743999m/h.</desc>
<speed>6.040000</speed>
</trkpt>
<trkpt lat="56.102757" lon="26.514128">
<ele>92.409241</ele>
<time>2010-08-29T14:57:34Z</time>
<desc>lat.=56.102757, lon.=26.514128, Alt.=92.409241m. Speed=21.743999m/h.</desc>
<speed>6.040000</speed>
</trkpt>
<trkpt lat="56.102760" lon="26.514032">
<ele>92.366272</ele>
<time>2010-08-29T14:57:35Z</time>
<desc>lat.=56.102760, lon.=26.514032, Alt.=92.366272m. Speed=21.780001m/h.</desc>
<speed>6.050000</speed>
</trkpt>
<trkpt lat="56.102772" lon="26.513931">
<ele>92.221741</ele>
<time>2010-08-29T14:57:36Z</time>
<desc>lat.=56.102772, lon.=26.513931, Alt.=92.221741m. Speed=22.247999m/h.</desc>
<speed>6.180000</speed>
</trkpt>
<trkpt lat="56.102779" lon="26.513832">
<ele>91.907288</ele>
<time>2010-08-29T14:57:37Z</time>
<desc>lat.=56.102779, lon.=26.513832, Alt.=91.907288m. Speed=23.436001m/h.</desc>
<speed>6.510000</speed>
</trkpt>
<trkpt lat="56.102791" lon="26.513723">
<ele>91.760803</ele>
<time>2010-08-29T14:57:38Z</time>
<desc>lat.=56.102791, lon.=26.513723, Alt.=91.760803m. Speed=25.271999m/h.</desc>
<speed>7.020000</speed>
</trkpt>
<trkpt lat="56.102798" lon="26.513611">
<ele>91.682678</ele>
<time>2010-08-29T14:57:39Z</time>
<desc>lat.=56.102798, lon.=26.513611, Alt.=91.682678m. Speed=26.063999m/h.</desc>
<speed>7.240000</speed>
</trkpt>
<trkpt lat="56.102806" lon="26.513498">
<ele>91.719788</ele>
<time>2010-08-29T14:57:40Z</time>
<desc>lat.=56.102806, lon.=26.513498, Alt.=91.719788m. Speed=25.920000m/h.</desc>
<speed>7.200000</speed>
</trkpt>
<trkpt lat="56.102814" lon="26.513388">
<ele>91.614319</ele>
<time>2010-08-29T14:57:41Z</time>
<desc>lat.=56.102814, lon.=26.513388, Alt.=91.614319m. Speed=25.812000m/h.</desc>
<speed>7.170000</speed>
</trkpt>
<trkpt lat="56.102821" lon="26.513275">
<ele>91.538147</ele>
<time>2010-08-29T14:57:42Z</time>
<desc>lat.=56.102821, lon.=26.513275, Alt.=91.538147m. Speed=25.704000m/h.</desc>
<speed>7.140000</speed>
</trkpt>
<trkpt lat="56.102829" lon="26.513161">
<ele>91.348694</ele>
<time>2010-08-29T14:57:43Z</time>
<desc>lat.=56.102829, lon.=26.513161, Alt.=91.348694m. Speed=25.344000m/h.</desc>
<speed>7.040000</speed>
</trkpt>
<trkpt lat="56.102837" lon="26.513048">
<ele>91.028381</ele>
<time>2010-08-29T14:57:44Z</time>
<desc>lat.=56.102837, lon.=26.513048, Alt.=91.028381m. Speed=25.056000m/h.</desc>
<speed>6.960000</speed>
</trkpt>
<trkpt lat="56.102844" lon="26.512936">
<ele>90.858459</ele>
<time>2010-08-29T14:57:45Z</time>
<desc>lat.=56.102844, lon.=26.512936, Alt.=90.858459m. Speed=25.056000m/h.</desc>
<speed>6.960000</speed>
</trkpt>
<trkpt lat="56.102848" lon="26.512829">
<ele>90.696350</ele>
<time>2010-08-29T14:57:46Z</time>
<desc>lat.=56.102848, lon.=26.512829, Alt.=90.696350m. Speed=24.264000m/h.</desc>
<speed>6.740000</speed>
</trkpt>
<trkpt lat="56.102852" lon="26.512726">
<ele>90.399475</ele>
<time>2010-08-29T14:57:47Z</time>
<desc>lat.=56.102852, lon.=26.512726, Alt.=90.399475m. Speed=23.580000m/h.</desc>
<speed>6.550000</speed>
</trkpt>
<trkpt lat="56.102859" lon="26.512621">
<ele>89.555725</ele>
<time>2010-08-29T14:57:48Z</time>
<desc>lat.=56.102859, lon.=26.512621, Alt.=89.555725m. Speed=23.832001m/h.</desc>
<speed>6.620000</speed>
</trkpt>
<trkpt lat="56.102863" lon="26.512514">
<ele>89.969788</ele>
<time>2010-08-29T14:57:49Z</time>
<desc>lat.=56.102863, lon.=26.512514, Alt.=89.969788m. Speed=25.308001m/h.</desc>
<speed>7.030000</speed>
</trkpt>
<trkpt lat="56.102867" lon="26.512396">
<ele>90.163147</ele>
<time>2010-08-29T14:57:50Z</time>
<desc>lat.=56.102867, lon.=26.512396, Alt.=90.163147m. Speed=25.020000m/h.</desc>
<speed>6.950000</speed>
</trkpt>
<trkpt lat="56.102875" lon="26.512283">
<ele>90.409241</ele>
<time>2010-08-29T14:57:51Z</time>
<desc>lat.=56.102875, lon.=26.512283, Alt.=90.409241m. Speed=25.091999m/h.</desc>
<speed>6.970000</speed>
</trkpt>
<trkpt lat="56.102882" lon="26.512177">
<ele>90.512756</ele>
<time>2010-08-29T14:57:52Z</time>
<desc>lat.=56.102882, lon.=26.512177, Alt.=90.512756m. Speed=23.327999m/h.</desc>
<speed>6.480000</speed>
</trkpt>
<trkpt lat="56.102886" lon="26.512077">
<ele>90.491272</ele>
<time>2010-08-29T14:57:53Z</time>
<desc>lat.=56.102886, lon.=26.512077, Alt.=90.491272m. Speed=22.320000m/h.</desc>
<speed>6.200000</speed>
</trkpt>
<trkpt lat="56.102894" lon="26.511980">
<ele>90.377991</ele>
<time>2010-08-29T14:57:54Z</time>
<desc>lat.=56.102894, lon.=26.511980, Alt.=90.377991m. Speed=20.988001m/h.</desc>
<speed>5.830000</speed>
</trkpt>
<trkpt lat="56.102898" lon="26.511889">
<ele>90.184631</ele>
<time>2010-08-29T14:57:55Z</time>
<desc>lat.=56.102898, lon.=26.511889, Alt.=90.184631m. Speed=19.836000m/h.</desc>
<speed>5.510000</speed>
</trkpt>
<trkpt lat="56.102898" lon="26.511803">
<ele>89.747131</ele>
<time>2010-08-29T14:57:56Z</time>
<desc>lat.=56.102898, lon.=26.511803, Alt.=89.747131m. Speed=18.576000m/h.</desc>
<speed>5.160000</speed>
</trkpt>
<trkpt lat="56.102901" lon="26.511726">
<ele>89.448303</ele>
<time>2010-08-29T14:57:57Z</time>
<desc>lat.=56.102901, lon.=26.511726, Alt.=89.448303m. Speed=16.920000m/h.</desc>
<speed>4.700000</speed>
</trkpt>
<trkpt lat="56.102905" lon="26.511650">
<ele>89.282288</ele>
<time>2010-08-29T14:57:58Z</time>
<desc>lat.=56.102905, lon.=26.511650, Alt.=89.282288m. Speed=16.775999m/h.</desc>
<speed>4.660000</speed>
</trkpt>
<trkpt lat="56.102913" lon="26.511580">
<ele>89.442444</ele>
<time>2010-08-29T14:57:59Z</time>
<desc>lat.=56.102913, lon.=26.511580, Alt.=89.442444m. Speed=14.940000m/h.</desc>
<speed>4.150000</speed>
</trkpt>
<trkpt lat="56.102917" lon="26.511517">
<ele>89.868225</ele>
<time>2010-08-29T14:58:00Z</time>
<desc>lat.=56.102917, lon.=26.511517, Alt.=89.868225m. Speed=14.004000m/h.</desc>
<speed>3.890000</speed>
</trkpt>
<trkpt lat="56.102924" lon="26.511457">
<ele>89.440491</ele>
<time>2010-08-29T14:58:01Z</time>
<desc>lat.=56.102924, lon.=26.511457, Alt.=89.440491m. Speed=12.996000m/h.</desc>
<speed>3.610000</speed>
</trkpt>
<trkpt lat="56.102928" lon="26.511402">
<ele>89.544006</ele>
<time>2010-08-29T14:58:02Z</time>
<desc>lat.=56.102928, lon.=26.511402, Alt.=89.544006m. Speed=12.276000m/h.</desc>
<speed>3.410000</speed>
</trkpt>
<trkpt lat="56.102928" lon="26.511349">
<ele>89.581116</ele>
<time>2010-08-29T14:58:03Z</time>
<desc>lat.=56.102928, lon.=26.511349, Alt.=89.581116m. Speed=11.232000m/h.</desc>
<speed>3.120000</speed>
</trkpt>
<trkpt lat="56.102936" lon="26.511301">
<ele>88.702209</ele>
<time>2010-08-29T14:58:04Z</time>
<desc>lat.=56.102936, lon.=26.511301, Alt.=88.702209m. Speed=11.520000m/h.</desc>
<speed>3.200000</speed>
</trkpt>
<trkpt lat="56.102936" lon="26.511250">
<ele>88.223694</ele>
<time>2010-08-29T14:58:05Z</time>
<desc>lat.=56.102936, lon.=26.511250, Alt.=88.223694m. Speed=11.880000m/h.</desc>
<speed>3.300000</speed>
</trkpt>
<trkpt lat="56.102936" lon="26.511200">
<ele>87.420959</ele>
<time>2010-08-29T14:58:06Z</time>
<desc>lat.=56.102936, lon.=26.511200, Alt.=87.420959m. Speed=12.168000m/h.</desc>
<speed>3.380000</speed>
</trkpt>
<trkpt lat="56.102936" lon="26.511147">
<ele>86.688538</ele>
<time>2010-08-29T14:58:07Z</time>
<desc>lat.=56.102936, lon.=26.511147, Alt.=86.688538m. Speed=12.780000m/h.</desc>
<speed>3.550000</speed>
</trkpt>
<trkpt lat="56.102936" lon="26.511095">
<ele>86.559631</ele>
<time>2010-08-29T14:58:08Z</time>
<desc>lat.=56.102936, lon.=26.511095, Alt.=86.559631m. Speed=11.088000m/h.</desc>
<speed>3.080000</speed>
</trkpt>
<trkpt lat="56.102940" lon="26.511042">
<ele>86.792053</ele>
<time>2010-08-29T14:58:09Z</time>
<desc>lat.=56.102940, lon.=26.511042, Alt.=86.792053m. Speed=12.240000m/h.</desc>
<speed>3.400000</speed>
</trkpt>
<trkpt lat="56.102940" lon="26.510983">
<ele>86.585022</ele>
<time>2010-08-29T14:58:10Z</time>
<desc>lat.=56.102940, lon.=26.510983, Alt.=86.585022m. Speed=13.068000m/h.</desc>
<speed>3.630000</speed>
</trkpt>
<trkpt lat="56.102943" lon="26.510920">
<ele>87.510803</ele>
<time>2010-08-29T14:58:11Z</time>
<desc>lat.=56.102943, lon.=26.510920, Alt.=87.510803m. Speed=13.968000m/h.</desc>
<speed>3.880000</speed>
</trkpt>
<trkpt lat="56.102951" lon="26.510853">
<ele>88.379944</ele>
<time>2010-08-29T14:58:12Z</time>
<desc>lat.=56.102951, lon.=26.510853, Alt.=88.379944m. Speed=14.148000m/h.</desc>
<speed>3.930000</speed>
</trkpt>
<trkpt lat="56.102962" lon="26.510786">
<ele>89.649475</ele>
<time>2010-08-29T14:58:13Z</time>
<desc>lat.=56.102962, lon.=26.510786, Alt.=89.649475m. Speed=14.292000m/h.</desc>
<speed>3.970000</speed>
</trkpt>
<trkpt lat="56.102966" lon="26.510725">
<ele>90.049866</ele>
<time>2010-08-29T14:58:14Z</time>
<desc>lat.=56.102966, lon.=26.510725, Alt.=90.049866m. Speed=14.616000m/h.</desc>
<speed>4.060000</speed>
</trkpt>
<trkpt lat="56.102970" lon="26.510656">
<ele>90.819397</ele>
<time>2010-08-29T14:58:15Z</time>
<desc>lat.=56.102970, lon.=26.510656, Alt.=90.819397m. Speed=14.652000m/h.</desc>
<speed>4.070000</speed>
</trkpt>
<trkpt lat="56.102970" lon="26.510592">
<ele>91.258850</ele>
<time>2010-08-29T14:58:16Z</time>
<desc>lat.=56.102970, lon.=26.510592, Alt.=91.258850m. Speed=14.688000m/h.</desc>
<speed>4.080000</speed>
</trkpt>
<trkpt lat="56.102978" lon="26.510519">
<ele>92.708069</ele>
<time>2010-08-29T14:58:17Z</time>
<desc>lat.=56.102978, lon.=26.510519, Alt.=92.708069m. Speed=15.048000m/h.</desc>
<speed>4.180000</speed>
</trkpt>
<trkpt lat="56.102982" lon="26.510447">
<ele>93.530334</ele>
<time>2010-08-29T14:58:18Z</time>
<desc>lat.=56.102982, lon.=26.510447, Alt.=93.530334m. Speed=15.336000m/h.</desc>
<speed>4.260000</speed>
</trkpt>
<trkpt lat="56.102989" lon="26.510372">
<ele>94.157288</ele>
<time>2010-08-29T14:58:19Z</time>
<desc>lat.=56.102989, lon.=26.510372, Alt.=94.157288m. Speed=16.344000m/h.</desc>
<speed>4.540000</speed>
</trkpt>
<trkpt lat="56.102993" lon="26.510300">
<ele>94.713928</ele>
<time>2010-08-29T14:58:20Z</time>
<desc>lat.=56.102993, lon.=26.510300, Alt.=94.713928m. Speed=15.156000m/h.</desc>
<speed>4.210000</speed>
</trkpt>
<trkpt lat="56.103001" lon="26.510233">
<ele>94.979553</ele>
<time>2010-08-29T14:58:21Z</time>
<desc>lat.=56.103001, lon.=26.510233, Alt.=94.979553m. Speed=15.336000m/h.</desc>
<speed>4.260000</speed>
</trkpt>
<trkpt lat="56.103001" lon="26.510164">
<ele>94.860413</ele>
<time>2010-08-29T14:58:22Z</time>
<desc>lat.=56.103001, lon.=26.510164, Alt.=94.860413m. Speed=15.336000m/h.</desc>
<speed>4.260000</speed>
</trkpt>
<trkpt lat="56.103004" lon="26.510098">
<ele>94.790100</ele>
<time>2010-08-29T14:58:23Z</time>
<desc>lat.=56.103004, lon.=26.510098, Alt.=94.790100m. Speed=15.012000m/h.</desc>
<speed>4.170000</speed>
</trkpt>
<trkpt lat="56.103008" lon="26.510027">
<ele>94.971741</ele>
<time>2010-08-29T14:58:24Z</time>
<desc>lat.=56.103008, lon.=26.510027, Alt.=94.971741m. Speed=15.480000m/h.</desc>
<speed>4.300000</speed>
</trkpt>
<trkpt lat="56.103008" lon="26.509962">
<ele>95.473694</ele>
<time>2010-08-29T14:58:25Z</time>
<desc>lat.=56.103008, lon.=26.509962, Alt.=95.473694m. Speed=14.976000m/h.</desc>
<speed>4.160000</speed>
</trkpt>
<trkpt lat="56.103012" lon="26.509897">
<ele>95.481506</ele>
<time>2010-08-29T14:58:26Z</time>
<desc>lat.=56.103012, lon.=26.509897, Alt.=95.481506m. Speed=15.768000m/h.</desc>
<speed>4.380000</speed>
</trkpt>
<trkpt lat="56.103016" lon="26.509825">
<ele>95.184631</ele>
<time>2010-08-29T14:58:27Z</time>
<desc>lat.=56.103016, lon.=26.509825, Alt.=95.184631m. Speed=16.667999m/h.</desc>
<speed>4.630000</speed>
</trkpt>
<trkpt lat="56.103020" lon="26.509752">
<ele>93.569397</ele>
<time>2010-08-29T14:58:28Z</time>
<desc>lat.=56.103020, lon.=26.509752, Alt.=93.569397m. Speed=17.172001m/h.</desc>
<speed>4.770000</speed>
</trkpt>
<trkpt lat="56.103024" lon="26.509678">
<ele>93.516663</ele>
<time>2010-08-29T14:58:29Z</time>
<desc>lat.=56.103024, lon.=26.509678, Alt.=93.516663m. Speed=16.020000m/h.</desc>
<speed>4.450000</speed>
</trkpt>
<trkpt lat="56.103024" lon="26.509609">
<ele>93.161194</ele>
<time>2010-08-29T14:58:30Z</time>
<desc>lat.=56.103024, lon.=26.509609, Alt.=93.161194m. Speed=15.156000m/h.</desc>
<speed>4.210000</speed>
</trkpt>
<trkpt lat="56.103031" lon="26.509542">
<ele>95.198303</ele>
<time>2010-08-29T14:58:31Z</time>
<desc>lat.=56.103031, lon.=26.509542, Alt.=95.198303m. Speed=14.076000m/h.</desc>
<speed>3.910000</speed>
</trkpt>
<trkpt lat="56.103035" lon="26.509481">
<ele>94.913147</ele>
<time>2010-08-29T14:58:32Z</time>
<desc>lat.=56.103035, lon.=26.509481, Alt.=94.913147m. Speed=13.140000m/h.</desc>
<speed>3.650000</speed>
</trkpt>
<trkpt lat="56.103035" lon="26.509426">
<ele>94.993225</ele>
<time>2010-08-29T14:58:33Z</time>
<desc>lat.=56.103035, lon.=26.509426, Alt.=94.993225m. Speed=12.456000m/h.</desc>
<speed>3.460000</speed>
</trkpt>
<trkpt lat="56.103039" lon="26.509373">
<ele>95.092834</ele>
<time>2010-08-29T14:58:34Z</time>
<desc>lat.=56.103039, lon.=26.509373, Alt.=95.092834m. Speed=13.716000m/h.</desc>
<speed>3.810000</speed>
</trkpt>
<trkpt lat="56.103043" lon="26.509315">
<ele>95.069397</ele>
<time>2010-08-29T14:58:35Z</time>
<desc>lat.=56.103043, lon.=26.509315, Alt.=95.069397m. Speed=14.904000m/h.</desc>
<speed>4.140000</speed>
</trkpt>
<trkpt lat="56.103043" lon="26.509249">
<ele>93.797913</ele>
<time>2010-08-29T14:58:36Z</time>
<desc>lat.=56.103043, lon.=26.509249, Alt.=93.797913m. Speed=16.091999m/h.</desc>
<speed>4.470000</speed>
</trkpt>
<trkpt lat="56.103050" lon="26.509172">
<ele>93.413147</ele>
<time>2010-08-29T14:58:37Z</time>
<desc>lat.=56.103050, lon.=26.509172, Alt.=93.413147m. Speed=17.964001m/h.</desc>
<speed>4.990000</speed>
</trkpt>
<trkpt lat="56.103062" lon="26.509090">
<ele>93.434631</ele>
<time>2010-08-29T14:58:38Z</time>
<desc>lat.=56.103062, lon.=26.509090, Alt.=93.434631m. Speed=18.684000m/h.</desc>
<speed>5.190000</speed>
</trkpt>
<trkpt lat="56.103073" lon="26.509007">
<ele>93.354553</ele>
<time>2010-08-29T14:58:39Z</time>
<desc>lat.=56.103073, lon.=26.509007, Alt.=93.354553m. Speed=19.548000m/h.</desc>
<speed>5.430000</speed>
</trkpt>
<trkpt lat="56.103077" lon="26.508913">
<ele>93.436584</ele>
<time>2010-08-29T14:58:40Z</time>
<desc>lat.=56.103077, lon.=26.508913, Alt.=93.436584m. Speed=20.591999m/h.</desc>
<speed>5.720000</speed>
</trkpt>
<trkpt lat="56.103085" lon="26.508820">
<ele>93.200256</ele>
<time>2010-08-29T14:58:41Z</time>
<desc>lat.=56.103085, lon.=26.508820, Alt.=93.200256m. Speed=21.024000m/h.</desc>
<speed>5.840000</speed>
</trkpt>
<trkpt lat="56.103096" lon="26.508728">
<ele>93.868225</ele>
<time>2010-08-29T14:58:42Z</time>
<desc>lat.=56.103096, lon.=26.508728, Alt.=93.868225m. Speed=20.375999m/h.</desc>
<speed>5.660000</speed>
</trkpt>
<trkpt lat="56.103104" lon="26.508635">
<ele>94.126038</ele>
<time>2010-08-29T14:58:43Z</time>
<desc>lat.=56.103104, lon.=26.508635, Alt.=94.126038m. Speed=19.691999m/h.</desc>
<speed>5.470000</speed>
</trkpt>
<trkpt lat="56.103111" lon="26.508549">
<ele>94.229553</ele>
<time>2010-08-29T14:58:44Z</time>
<desc>lat.=56.103111, lon.=26.508549, Alt.=94.229553m. Speed=19.296000m/h.</desc>
<speed>5.360000</speed>
</trkpt>
<trkpt lat="56.103123" lon="26.508461">
<ele>93.965881</ele>
<time>2010-08-29T14:58:45Z</time>
<desc>lat.=56.103123, lon.=26.508461, Alt.=93.965881m. Speed=19.872000m/h.</desc>
<speed>5.520000</speed>
</trkpt>
<trkpt lat="56.103134" lon="26.508369">
<ele>94.538147</ele>
<time>2010-08-29T14:58:46Z</time>
<desc>lat.=56.103134, lon.=26.508369, Alt.=94.538147m. Speed=21.096001m/h.</desc>
<speed>5.860000</speed>
</trkpt>
<trkpt lat="56.103146" lon="26.508276">
<ele>93.977600</ele>
<time>2010-08-29T14:58:47Z</time>
<desc>lat.=56.103146, lon.=26.508276, Alt.=93.977600m. Speed=21.528000m/h.</desc>
<speed>5.980000</speed>
</trkpt>
<trkpt lat="56.103157" lon="26.508184">
<ele>94.239319</ele>
<time>2010-08-29T14:58:48Z</time>
<desc>lat.=56.103157, lon.=26.508184, Alt.=94.239319m. Speed=20.591999m/h.</desc>
<speed>5.720000</speed>
</trkpt>
<trkpt lat="56.103176" lon="26.508099">
<ele>94.688538</ele>
<time>2010-08-29T14:58:49Z</time>
<desc>lat.=56.103176, lon.=26.508099, Alt.=94.688538m. Speed=19.872000m/h.</desc>
<speed>5.520000</speed>
</trkpt>
<trkpt lat="56.103188" lon="26.508015">
<ele>94.667053</ele>
<time>2010-08-29T14:58:50Z</time>
<desc>lat.=56.103188, lon.=26.508015, Alt.=94.667053m. Speed=18.792000m/h.</desc>
<speed>5.220000</speed>
</trkpt>
<trkpt lat="56.103203" lon="26.507931">
<ele>95.122131</ele>
<time>2010-08-29T14:58:51Z</time>
<desc>lat.=56.103203, lon.=26.507931, Alt.=95.122131m. Speed=17.927999m/h.</desc>
<speed>4.980000</speed>
</trkpt>
<trkpt lat="56.103214" lon="26.507854">
<ele>94.758850</ele>
<time>2010-08-29T14:58:52Z</time>
<desc>lat.=56.103214, lon.=26.507854, Alt.=94.758850m. Speed=16.848000m/h.</desc>
<speed>4.680000</speed>
</trkpt>
<trkpt lat="56.103226" lon="26.507784">
<ele>94.641663</ele>
<time>2010-08-29T14:58:53Z</time>
<desc>lat.=56.103226, lon.=26.507784, Alt.=94.641663m. Speed=16.379999m/h.</desc>
<speed>4.550000</speed>
</trkpt>
<trkpt lat="56.103241" lon="26.507717">
<ele>93.342834</ele>
<time>2010-08-29T14:58:54Z</time>
<desc>lat.=56.103241, lon.=26.507717, Alt.=93.342834m. Speed=15.480000m/h.</desc>
<speed>4.300000</speed>
</trkpt>
<trkpt lat="56.103252" lon="26.507647">
<ele>92.827209</ele>
<time>2010-08-29T14:58:55Z</time>
<desc>lat.=56.103252, lon.=26.507647, Alt.=92.827209m. Speed=17.964001m/h.</desc>
<speed>4.990000</speed>
</trkpt>
<trkpt lat="56.103268" lon="26.507565">
<ele>92.538147</ele>
<time>2010-08-29T14:58:56Z</time>
<desc>lat.=56.103268, lon.=26.507565, Alt.=92.538147m. Speed=18.864000m/h.</desc>
<speed>5.240000</speed>
</trkpt>
<trkpt lat="56.103279" lon="26.507483">
<ele>92.460022</ele>
<time>2010-08-29T14:58:57Z</time>
<desc>lat.=56.103279, lon.=26.507483, Alt.=92.460022m. Speed=19.403999m/h.</desc>
<speed>5.390000</speed>
</trkpt>
<trkpt lat="56.103294" lon="26.507402">
<ele>92.376038</ele>
<time>2010-08-29T14:58:58Z</time>
<desc>lat.=56.103294, lon.=26.507402, Alt.=92.376038m. Speed=19.007999m/h.</desc>
<speed>5.280000</speed>
</trkpt>
<trkpt lat="56.103310" lon="26.507324">
<ele>92.362366</ele>
<time>2010-08-29T14:58:59Z</time>
<desc>lat.=56.103310, lon.=26.507324, Alt.=92.362366m. Speed=18.972000m/h.</desc>
<speed>5.270000</speed>
</trkpt>
<trkpt lat="56.103321" lon="26.507242">
<ele>92.299866</ele>
<time>2010-08-29T14:59:00Z</time>
<desc>lat.=56.103321, lon.=26.507242, Alt.=92.299866m. Speed=19.080000m/h.</desc>
<speed>5.300000</speed>
</trkpt>
<trkpt lat="56.103336" lon="26.507156">
<ele>92.133850</ele>
<time>2010-08-29T14:59:01Z</time>
<desc>lat.=56.103336, lon.=26.507156, Alt.=92.133850m. Speed=20.448000m/h.</desc>
<speed>5.680000</speed>
</trkpt>
<trkpt lat="56.103352" lon="26.507069">
<ele>92.065491</ele>
<time>2010-08-29T14:59:02Z</time>
<desc>lat.=56.103352, lon.=26.507069, Alt.=92.065491m. Speed=19.908001m/h.</desc>
<speed>5.530000</speed>
</trkpt>
<trkpt lat="56.103359" lon="26.506983">
<ele>91.745178</ele>
<time>2010-08-29T14:59:03Z</time>
<desc>lat.=56.103359, lon.=26.506983, Alt.=91.745178m. Speed=19.368000m/h.</desc>
<speed>5.380000</speed>
</trkpt>
<trkpt lat="56.103371" lon="26.506899">
<ele>91.661194</ele>
<time>2010-08-29T14:59:04Z</time>
<desc>lat.=56.103371, lon.=26.506899, Alt.=91.661194m. Speed=18.612000m/h.</desc>
<speed>5.170000</speed>
</trkpt>
<trkpt lat="56.103374" lon="26.506819">
<ele>91.545959</ele>
<time>2010-08-29T14:59:05Z</time>
<desc>lat.=56.103374, lon.=26.506819, Alt.=91.545959m. Speed=17.927999m/h.</desc>
<speed>4.980000</speed>
</trkpt>
<trkpt lat="56.103378" lon="26.506739">
<ele>91.942444</ele>
<time>2010-08-29T14:59:06Z</time>
<desc>lat.=56.103378, lon.=26.506739, Alt.=91.942444m. Speed=17.243999m/h.</desc>
<speed>4.790000</speed>
</trkpt>
<trkpt lat="56.103382" lon="26.506664">
<ele>92.346741</ele>
<time>2010-08-29T14:59:07Z</time>
<desc>lat.=56.103382, lon.=26.506664, Alt.=92.346741m. Speed=16.524000m/h.</desc>
<speed>4.590000</speed>
</trkpt>
<trkpt lat="56.103390" lon="26.506590">
<ele>92.372131</ele>
<time>2010-08-29T14:59:08Z</time>
<desc>lat.=56.103390, lon.=26.506590, Alt.=92.372131m. Speed=16.416000m/h.</desc>
<speed>4.560000</speed>
</trkpt>
<trkpt lat="56.103394" lon="26.506517">
<ele>92.635803</ele>
<time>2010-08-29T14:59:09Z</time>
<desc>lat.=56.103394, lon.=26.506517, Alt.=92.635803m. Speed=17.243999m/h.</desc>
<speed>4.790000</speed>
</trkpt>
<trkpt lat="56.103401" lon="26.506439">
<ele>92.813538</ele>
<time>2010-08-29T14:59:10Z</time>
<desc>lat.=56.103401, lon.=26.506439, Alt.=92.813538m. Speed=18.252001m/h.</desc>
<speed>5.070000</speed>
</trkpt>
<trkpt lat="56.103401" lon="26.506355">
<ele>93.034241</ele>
<time>2010-08-29T14:59:11Z</time>
<desc>lat.=56.103401, lon.=26.506355, Alt.=93.034241m. Speed=19.188000m/h.</desc>
<speed>5.330000</speed>
</trkpt>
<trkpt lat="56.103405" lon="26.506268">
<ele>93.372131</ele>
<time>2010-08-29T14:59:12Z</time>
<desc>lat.=56.103405, lon.=26.506268, Alt.=93.372131m. Speed=20.087999m/h.</desc>
<speed>5.580000</speed>
</trkpt>
<trkpt lat="56.103405" lon="26.506180">
<ele>93.840881</ele>
<time>2010-08-29T14:59:13Z</time>
<desc>lat.=56.103405, lon.=26.506180, Alt.=93.840881m. Speed=20.736000m/h.</desc>
<speed>5.760000</speed>
</trkpt>
<trkpt lat="56.103409" lon="26.506088">
<ele>93.938538</ele>
<time>2010-08-29T14:59:14Z</time>
<desc>lat.=56.103409, lon.=26.506088, Alt.=93.938538m. Speed=20.232000m/h.</desc>
<speed>5.620000</speed>
</trkpt>
<trkpt lat="56.103409" lon="26.506001">
<ele>93.967834</ele>
<time>2010-08-29T14:59:15Z</time>
<desc>lat.=56.103409, lon.=26.506001, Alt.=93.967834m. Speed=19.368000m/h.</desc>
<speed>5.380000</speed>
</trkpt>
<trkpt lat="56.103409" lon="26.505919">
<ele>94.165100</ele>
<time>2010-08-29T14:59:16Z</time>
<desc>lat.=56.103409, lon.=26.505919, Alt.=94.165100m. Speed=18.576000m/h.</desc>
<speed>5.160000</speed>
</trkpt>
<trkpt lat="56.103405" lon="26.505836">
<ele>94.274475</ele>
<time>2010-08-29T14:59:17Z</time>
<desc>lat.=56.103405, lon.=26.505836, Alt.=94.274475m. Speed=18.180000m/h.</desc>
<speed>5.050000</speed>
</trkpt>
<trkpt lat="56.103401" lon="26.505754">
<ele>94.169006</ele>
<time>2010-08-29T14:59:18Z</time>
<desc>lat.=56.103401, lon.=26.505754, Alt.=94.169006m. Speed=19.080000m/h.</desc>
<speed>5.300000</speed>
</trkpt>
<trkpt lat="56.103401" lon="26.505674">
<ele>94.280334</ele>
<time>2010-08-29T14:59:19Z</time>
<desc>lat.=56.103401, lon.=26.505674, Alt.=94.280334m. Speed=19.260000m/h.</desc>
<speed>5.350000</speed>
</trkpt>
<trkpt lat="56.103401" lon="26.505590">
<ele>94.358459</ele>
<time>2010-08-29T14:59:20Z</time>
<desc>lat.=56.103401, lon.=26.505590, Alt.=94.358459m. Speed=20.664000m/h.</desc>
<speed>5.740000</speed>
</trkpt>
<trkpt lat="56.103401" lon="26.505495">
<ele>94.282288</ele>
<time>2010-08-29T14:59:21Z</time>
<desc>lat.=56.103401, lon.=26.505495, Alt.=94.282288m. Speed=20.844000m/h.</desc>
<speed>5.790000</speed>
</trkpt>
<trkpt lat="56.103397" lon="26.505398">
<ele>94.018616</ele>
<time>2010-08-29T14:59:22Z</time>
<desc>lat.=56.103397, lon.=26.505398, Alt.=94.018616m. Speed=20.232000m/h.</desc>
<speed>5.620000</speed>
</trkpt>
<trkpt lat="56.103390" lon="26.505302">
<ele>93.893616</ele>
<time>2010-08-29T14:59:23Z</time>
<desc>lat.=56.103390, lon.=26.505302, Alt.=93.893616m. Speed=19.620001m/h.</desc>
<speed>5.450000</speed>
</trkpt>
<trkpt lat="56.103386" lon="26.505219">
<ele>94.077209</ele>
<time>2010-08-29T14:59:24Z</time>
<desc>lat.=56.103386, lon.=26.505219, Alt.=94.077209m. Speed=18.900000m/h.</desc>
<speed>5.250000</speed>
</trkpt>
<trkpt lat="56.103382" lon="26.505135">
<ele>94.028381</ele>
<time>2010-08-29T14:59:25Z</time>
<desc>lat.=56.103382, lon.=26.505135, Alt.=94.028381m. Speed=18.431999m/h.</desc>
<speed>5.120000</speed>
</trkpt>
<trkpt lat="56.103382" lon="26.505056">
<ele>94.075256</ele>
<time>2010-08-29T14:59:26Z</time>
<desc>lat.=56.103382, lon.=26.505056, Alt.=94.075256m. Speed=18.108000m/h.</desc>
<speed>5.030000</speed>
</trkpt>
<trkpt lat="56.103378" lon="26.504976">
<ele>93.936584</ele>
<time>2010-08-29T14:59:27Z</time>
<desc>lat.=56.103378, lon.=26.504976, Alt.=93.936584m. Speed=18.756001m/h.</desc>
<speed>5.210000</speed>
</trkpt>
<trkpt lat="56.103374" lon="26.504890">
<ele>93.434631</ele>
<time>2010-08-29T14:59:28Z</time>
<desc>lat.=56.103374, lon.=26.504890, Alt.=93.434631m. Speed=19.728001m/h.</desc>
<speed>5.480000</speed>
</trkpt>
<trkpt lat="56.103371" lon="26.504805">
<ele>93.235413</ele>
<time>2010-08-29T14:59:29Z</time>
<desc>lat.=56.103371, lon.=26.504805, Alt.=93.235413m. Speed=19.403999m/h.</desc>
<speed>5.390000</speed>
</trkpt>
<trkpt lat="56.103367" lon="26.504717">
<ele>93.061584</ele>
<time>2010-08-29T14:59:30Z</time>
<desc>lat.=56.103367, lon.=26.504717, Alt.=93.061584m. Speed=21.132000m/h.</desc>
<speed>5.870000</speed>
</trkpt>
<trkpt lat="56.103367" lon="26.504623">
<ele>92.729553</ele>
<time>2010-08-29T14:59:31Z</time>
<desc>lat.=56.103367, lon.=26.504623, Alt.=92.729553m. Speed=22.500000m/h.</desc>
<speed>6.250000</speed>
</trkpt>
<trkpt lat="56.103367" lon="26.504519">
<ele>92.586975</ele>
<time>2010-08-29T14:59:32Z</time>
<desc>lat.=56.103367, lon.=26.504519, Alt.=92.586975m. Speed=23.760000m/h.</desc>
<speed>6.600000</speed>
</trkpt>
<trkpt lat="56.103363" lon="26.504417">
<ele>92.249084</ele>
<time>2010-08-29T14:59:33Z</time>
<desc>lat.=56.103363, lon.=26.504417, Alt.=92.249084m. Speed=22.176001m/h.</desc>
<speed>6.160000</speed>
</trkpt>
<trkpt lat="56.103367" lon="26.504324">
<ele>92.795959</ele>
<time>2010-08-29T14:59:34Z</time>
<desc>lat.=56.103367, lon.=26.504324, Alt.=92.795959m. Speed=22.535999m/h.</desc>
<speed>6.260000</speed>
</trkpt>
<trkpt lat="56.103367" lon="26.504230">
<ele>93.489319</ele>
<time>2010-08-29T14:59:35Z</time>
<desc>lat.=56.103367, lon.=26.504230, Alt.=93.489319m. Speed=21.420000m/h.</desc>
<speed>5.950000</speed>
</trkpt>
<trkpt lat="56.103371" lon="26.504139">
<ele>93.610413</ele>
<time>2010-08-29T14:59:36Z</time>
<desc>lat.=56.103371, lon.=26.504139, Alt.=93.610413m. Speed=20.520000m/h.</desc>
<speed>5.700000</speed>
</trkpt>
<trkpt lat="56.103371" lon="26.504049">
<ele>93.502991</ele>
<time>2010-08-29T14:59:37Z</time>
<desc>lat.=56.103371, lon.=26.504049, Alt.=93.502991m. Speed=19.764000m/h.</desc>
<speed>5.490000</speed>
</trkpt>
<trkpt lat="56.103371" lon="26.503963">
<ele>93.622131</ele>
<time>2010-08-29T14:59:38Z</time>
<desc>lat.=56.103371, lon.=26.503963, Alt.=93.622131m. Speed=19.115999m/h.</desc>
<speed>5.310000</speed>
</trkpt>
<trkpt lat="56.103371" lon="26.503878">
<ele>93.864319</ele>
<time>2010-08-29T14:59:39Z</time>
<desc>lat.=56.103371, lon.=26.503878, Alt.=93.864319m. Speed=19.511999m/h.</desc>
<speed>5.420000</speed>
</trkpt>
<trkpt lat="56.103374" lon="26.503788">
<ele>93.877991</ele>
<time>2010-08-29T14:59:40Z</time>
<desc>lat.=56.103374, lon.=26.503788, Alt.=93.877991m. Speed=20.520000m/h.</desc>
<speed>5.700000</speed>
</trkpt>
<trkpt lat="56.103378" lon="26.503695">
<ele>93.999084</ele>
<time>2010-08-29T14:59:41Z</time>
<desc>lat.=56.103378, lon.=26.503695, Alt.=93.999084m. Speed=21.455999m/h.</desc>
<speed>5.960000</speed>
</trkpt>
<trkpt lat="56.103378" lon="26.503599">
<ele>94.305725</ele>
<time>2010-08-29T14:59:42Z</time>
<desc>lat.=56.103378, lon.=26.503599, Alt.=94.305725m. Speed=22.356001m/h.</desc>
<speed>6.210000</speed>
</trkpt>
<trkpt lat="56.103382" lon="26.503496">
<ele>94.254944</ele>
<time>2010-08-29T14:59:43Z</time>
<desc>lat.=56.103382, lon.=26.503496, Alt.=94.254944m. Speed=23.472000m/h.</desc>
<speed>6.520000</speed>
</trkpt>
<trkpt lat="56.103386" lon="26.503386">
<ele>94.262756</ele>
<time>2010-08-29T14:59:44Z</time>
<desc>lat.=56.103386, lon.=26.503386, Alt.=94.262756m. Speed=23.724001m/h.</desc>
<speed>6.590000</speed>
</trkpt>
<trkpt lat="56.103390" lon="26.503275">
<ele>94.362366</ele>
<time>2010-08-29T14:59:45Z</time>
<desc>lat.=56.103390, lon.=26.503275, Alt.=94.362366m. Speed=23.256001m/h.</desc>
<speed>6.460000</speed>
</trkpt>
<trkpt lat="56.103394" lon="26.503172">
<ele>94.620178</ele>
<time>2010-08-29T14:59:46Z</time>
<desc>lat.=56.103394, lon.=26.503172, Alt.=94.620178m. Speed=22.464001m/h.</desc>
<speed>6.240000</speed>
</trkpt>
<trkpt lat="56.103394" lon="26.503071">
<ele>94.799866</ele>
<time>2010-08-29T14:59:47Z</time>
<desc>lat.=56.103394, lon.=26.503071, Alt.=94.799866m. Speed=21.851999m/h.</desc>
<speed>6.070000</speed>
</trkpt>
<trkpt lat="56.103397" lon="26.502972">
<ele>94.821350</ele>
<time>2010-08-29T14:59:48Z</time>
<desc>lat.=56.103397, lon.=26.502972, Alt.=94.821350m. Speed=21.384001m/h.</desc>
<speed>5.940000</speed>
</trkpt>
<trkpt lat="56.103401" lon="26.502874">
<ele>94.881897</ele>
<time>2010-08-29T14:59:49Z</time>
<desc>lat.=56.103401, lon.=26.502874, Alt.=94.881897m. Speed=20.844000m/h.</desc>
<speed>5.790000</speed>
</trkpt>
<trkpt lat="56.103405" lon="26.502783">
<ele>94.872131</ele>
<time>2010-08-29T14:59:50Z</time>
<desc>lat.=56.103405, lon.=26.502783, Alt.=94.872131m. Speed=20.483999m/h.</desc>
<speed>5.690000</speed>
</trkpt>
<trkpt lat="56.103405" lon="26.502687">
<ele>94.901428</ele>
<time>2010-08-29T14:59:51Z</time>
<desc>lat.=56.103405, lon.=26.502687, Alt.=94.901428m. Speed=20.052000m/h.</desc>
<speed>5.570000</speed>
</trkpt>
<trkpt lat="56.103409" lon="26.502596">
<ele>94.883850</ele>
<time>2010-08-29T14:59:52Z</time>
<desc>lat.=56.103409, lon.=26.502596, Alt.=94.883850m. Speed=19.728001m/h.</desc>
<speed>5.480000</speed>
</trkpt>
<trkpt lat="56.103413" lon="26.502506">
<ele>94.883850</ele>
<time>2010-08-29T14:59:53Z</time>
<desc>lat.=56.103413, lon.=26.502506, Alt.=94.883850m. Speed=19.188000m/h.</desc>
<speed>5.330000</speed>
</trkpt>
<trkpt lat="56.103413" lon="26.502420">
<ele>94.903381</ele>
<time>2010-08-29T14:59:54Z</time>
<desc>lat.=56.103413, lon.=26.502420, Alt.=94.903381m. Speed=18.648001m/h.</desc>
<speed>5.180000</speed>
</trkpt>
<trkpt lat="56.103409" lon="26.502337">
<ele>94.901428</ele>
<time>2010-08-29T14:59:55Z</time>
<desc>lat.=56.103409, lon.=26.502337, Alt.=94.901428m. Speed=18.000000m/h.</desc>
<speed>5.000000</speed>
</trkpt>
<trkpt lat="56.103409" lon="26.502262">
<ele>95.022522</ele>
<time>2010-08-29T14:59:56Z</time>
<desc>lat.=56.103409, lon.=26.502262, Alt.=95.022522m. Speed=18.143999m/h.</desc>
<speed>5.040000</speed>
</trkpt>
<trkpt lat="56.103409" lon="26.502184">
<ele>95.135803</ele>
<time>2010-08-29T14:59:57Z</time>
<desc>lat.=56.103409, lon.=26.502184, Alt.=95.135803m. Speed=18.864000m/h.</desc>
<speed>5.240000</speed>
</trkpt>
<trkpt lat="56.103413" lon="26.502096">
<ele>95.286194</ele>
<time>2010-08-29T14:59:58Z</time>
<desc>lat.=56.103413, lon.=26.502096, Alt.=95.286194m. Speed=19.980000m/h.</desc>
<speed>5.550000</speed>
</trkpt>
<trkpt lat="56.103413" lon="26.502005">
<ele>95.299866</ele>
<time>2010-08-29T14:59:59Z</time>
<desc>lat.=56.103413, lon.=26.502005, Alt.=95.299866m. Speed=21.312000m/h.</desc>
<speed>5.920000</speed>
</trkpt>
<trkpt lat="56.103416" lon="26.501907">
<ele>95.155334</ele>
<time>2010-08-29T15:00:00Z</time>
<desc>lat.=56.103416, lon.=26.501907, Alt.=95.155334m. Speed=21.959999m/h.</desc>
<speed>6.100000</speed>
</trkpt>
<trkpt lat="56.103420" lon="26.501804">
<ele>95.067444</ele>
<time>2010-08-29T15:00:01Z</time>
<desc>lat.=56.103420, lon.=26.501804, Alt.=95.067444m. Speed=22.535999m/h.</desc>
<speed>6.260000</speed>
</trkpt>
<trkpt lat="56.103424" lon="26.501709">
<ele>94.647522</ele>
<time>2010-08-29T15:00:02Z</time>
<desc>lat.=56.103424, lon.=26.501709, Alt.=94.647522m. Speed=22.392000m/h.</desc>
<speed>6.220000</speed>
</trkpt>
<trkpt lat="56.103432" lon="26.501614">
<ele>94.452209</ele>
<time>2010-08-29T15:00:03Z</time>
<desc>lat.=56.103432, lon.=26.501614, Alt.=94.452209m. Speed=21.600000m/h.</desc>
<speed>6.000000</speed>
</trkpt>
<trkpt lat="56.103443" lon="26.501524">
<ele>94.440491</ele>
<time>2010-08-29T15:00:04Z</time>
<desc>lat.=56.103443, lon.=26.501524, Alt.=94.440491m. Speed=20.879999m/h.</desc>
<speed>5.800000</speed>
</trkpt>
<trkpt lat="56.103451" lon="26.501432">
<ele>94.354553</ele>
<time>2010-08-29T15:00:05Z</time>
<desc>lat.=56.103451, lon.=26.501432, Alt.=94.354553m. Speed=20.304001m/h.</desc>
<speed>5.640000</speed>
</trkpt>
<trkpt lat="56.103458" lon="26.501341">
<ele>94.227600</ele>
<time>2010-08-29T15:00:06Z</time>
<desc>lat.=56.103458, lon.=26.501341, Alt.=94.227600m. Speed=20.087999m/h.</desc>
<speed>5.580000</speed>
</trkpt>
<trkpt lat="56.103470" lon="26.501251">
<ele>94.006897</ele>
<time>2010-08-29T15:00:07Z</time>
<desc>lat.=56.103470, lon.=26.501251, Alt.=94.006897m. Speed=20.664000m/h.</desc>
<speed>5.740000</speed>
</trkpt>
<trkpt lat="56.103477" lon="26.501156">
<ele>94.274475</ele>
<time>2010-08-29T15:00:08Z</time>
<desc>lat.=56.103477, lon.=26.501156, Alt.=94.274475m. Speed=21.743999m/h.</desc>
<speed>6.040000</speed>
</trkpt>
<trkpt lat="56.103489" lon="26.501057">
<ele>94.372131</ele>
<time>2010-08-29T15:00:09Z</time>
<desc>lat.=56.103489, lon.=26.501057, Alt.=94.372131m. Speed=22.392000m/h.</desc>
<speed>6.220000</speed>
</trkpt>
<trkpt lat="56.103504" lon="26.500956">
<ele>94.409241</ele>
<time>2010-08-29T15:00:10Z</time>
<desc>lat.=56.103504, lon.=26.500956, Alt.=94.409241m. Speed=23.040001m/h.</desc>
<speed>6.400000</speed>
</trkpt>
<trkpt lat="56.103516" lon="26.500854">
<ele>94.229553</ele>
<time>2010-08-29T15:00:11Z</time>
<desc>lat.=56.103516, lon.=26.500854, Alt.=94.229553m. Speed=22.572001m/h.</desc>
<speed>6.270000</speed>
</trkpt>
<trkpt lat="56.103527" lon="26.500755">
<ele>93.899475</ele>
<time>2010-08-29T15:00:12Z</time>
<desc>lat.=56.103527, lon.=26.500755, Alt.=93.899475m. Speed=22.032000m/h.</desc>
<speed>6.120000</speed>
</trkpt>
<trkpt lat="56.103542" lon="26.500660">
<ele>93.821350</ele>
<time>2010-08-29T15:00:13Z</time>
<desc>lat.=56.103542, lon.=26.500660, Alt.=93.821350m. Speed=21.600000m/h.</desc>
<speed>6.000000</speed>
</trkpt>
<trkpt lat="56.103554" lon="26.500565">
<ele>93.852600</ele>
<time>2010-08-29T15:00:14Z</time>
<desc>lat.=56.103554, lon.=26.500565, Alt.=93.852600m. Speed=20.448000m/h.</desc>
<speed>5.680000</speed>
</trkpt>
<trkpt lat="56.103565" lon="26.500475">
<ele>93.856506</ele>
<time>2010-08-29T15:00:15Z</time>
<desc>lat.=56.103565, lon.=26.500475, Alt.=93.856506m. Speed=19.799999m/h.</desc>
<speed>5.500000</speed>
</trkpt>
<trkpt lat="56.103577" lon="26.500393">
<ele>94.149475</ele>
<time>2010-08-29T15:00:16Z</time>
<desc>lat.=56.103577, lon.=26.500393, Alt.=94.149475m. Speed=18.431999m/h.</desc>
<speed>5.120000</speed>
</trkpt>
<trkpt lat="56.103584" lon="26.500311">
<ele>93.866272</ele>
<time>2010-08-29T15:00:17Z</time>
<desc>lat.=56.103584, lon.=26.500311, Alt.=93.866272m. Speed=17.316000m/h.</desc>
<speed>4.810000</speed>
</trkpt>
<trkpt lat="56.103596" lon="26.500237">
<ele>94.122131</ele>
<time>2010-08-29T15:00:18Z</time>
<desc>lat.=56.103596, lon.=26.500237, Alt.=94.122131m. Speed=16.236000m/h.</desc>
<speed>4.510000</speed>
</trkpt>
<trkpt lat="56.103607" lon="26.500172">
<ele>94.065491</ele>
<time>2010-08-29T15:00:19Z</time>
<desc>lat.=56.103607, lon.=26.500172, Alt.=94.065491m. Speed=15.912000m/h.</desc>
<speed>4.420000</speed>
</trkpt>
<trkpt lat="56.103619" lon="26.500107">
<ele>94.141663</ele>
<time>2010-08-29T15:00:20Z</time>
<desc>lat.=56.103619, lon.=26.500107, Alt.=94.141663m. Speed=14.796000m/h.</desc>
<speed>4.110000</speed>
</trkpt>
<trkpt lat="56.103626" lon="26.500040">
<ele>94.340881</ele>
<time>2010-08-29T15:00:21Z</time>
<desc>lat.=56.103626, lon.=26.500040, Alt.=94.340881m. Speed=14.616000m/h.</desc>
<speed>4.060000</speed>
</trkpt>
<trkpt lat="56.103634" lon="26.499977">
<ele>94.237366</ele>
<time>2010-08-29T15:00:22Z</time>
<desc>lat.=56.103634, lon.=26.499977, Alt.=94.237366m. Speed=14.364000m/h.</desc>
<speed>3.990000</speed>
</trkpt>
<trkpt lat="56.103638" lon="26.499912">
<ele>94.167053</ele>
<time>2010-08-29T15:00:23Z</time>
<desc>lat.=56.103638, lon.=26.499912, Alt.=94.167053m. Speed=15.516000m/h.</desc>
<speed>4.310000</speed>
</trkpt>
<trkpt lat="56.103649" lon="26.499840">
<ele>94.083069</ele>
<time>2010-08-29T15:00:24Z</time>
<desc>lat.=56.103649, lon.=26.499840, Alt.=94.083069m. Speed=16.524000m/h.</desc>
<speed>4.590000</speed>
</trkpt>
<trkpt lat="56.103657" lon="26.499765">
<ele>93.848694</ele>
<time>2010-08-29T15:00:25Z</time>
<desc>lat.=56.103657, lon.=26.499765, Alt.=93.848694m. Speed=17.964001m/h.</desc>
<speed>4.990000</speed>
</trkpt>
<trkpt lat="56.103668" lon="26.499687">
<ele>93.743225</ele>
<time>2010-08-29T15:00:26Z</time>
<desc>lat.=56.103668, lon.=26.499687, Alt.=93.743225m. Speed=17.639999m/h.</desc>
<speed>4.900000</speed>
</trkpt>
<trkpt lat="56.103680" lon="26.499607">
<ele>93.456116</ele>
<time>2010-08-29T15:00:27Z</time>
<desc>lat.=56.103680, lon.=26.499607, Alt.=93.456116m. Speed=19.403999m/h.</desc>
<speed>5.390000</speed>
</trkpt>
<trkpt lat="56.103687" lon="26.499523">
<ele>92.776428</ele>
<time>2010-08-29T15:00:28Z</time>
<desc>lat.=56.103687, lon.=26.499523, Alt.=92.776428m. Speed=19.620001m/h.</desc>
<speed>5.450000</speed>
</trkpt>
<trkpt lat="56.103703" lon="26.499437">
<ele>92.897522</ele>
<time>2010-08-29T15:00:29Z</time>
<desc>lat.=56.103703, lon.=26.499437, Alt.=92.897522m. Speed=19.836000m/h.</desc>
<speed>5.510000</speed>
</trkpt>
<trkpt lat="56.103718" lon="26.499353">
<ele>92.522522</ele>
<time>2010-08-29T15:00:30Z</time>
<desc>lat.=56.103718, lon.=26.499353, Alt.=92.522522m. Speed=18.396000m/h.</desc>
<speed>5.110000</speed>
</trkpt>
<trkpt lat="56.103729" lon="26.499264">
<ele>91.473694</ele>
<time>2010-08-29T15:00:31Z</time>
<desc>lat.=56.103729, lon.=26.499264, Alt.=91.473694m. Speed=20.087999m/h.</desc>
<speed>5.580000</speed>
</trkpt>
<trkpt lat="56.103737" lon="26.499174">
<ele>90.956116</ele>
<time>2010-08-29T15:00:32Z</time>
<desc>lat.=56.103737, lon.=26.499174, Alt.=90.956116m. Speed=20.375999m/h.</desc>
<speed>5.660000</speed>
</trkpt>
<trkpt lat="56.103748" lon="26.499079">
<ele>90.583069</ele>
<time>2010-08-29T15:00:33Z</time>
<desc>lat.=56.103748, lon.=26.499079, Alt.=90.583069m. Speed=21.528000m/h.</desc>
<speed>5.980000</speed>
</trkpt>
<trkpt lat="56.103756" lon="26.498987">
<ele>90.829163</ele>
<time>2010-08-29T15:00:34Z</time>
<desc>lat.=56.103756, lon.=26.498987, Alt.=90.829163m. Speed=21.204000m/h.</desc>
<speed>5.890000</speed>
</trkpt>
<trkpt lat="56.103767" lon="26.498894">
<ele>90.268616</ele>
<time>2010-08-29T15:00:35Z</time>
<desc>lat.=56.103767, lon.=26.498894, Alt.=90.268616m. Speed=21.275999m/h.</desc>
<speed>5.910000</speed>
</trkpt>
<trkpt lat="56.103779" lon="26.498806">
<ele>89.526428</ele>
<time>2010-08-29T15:00:36Z</time>
<desc>lat.=56.103779, lon.=26.498806, Alt.=89.526428m. Speed=20.483999m/h.</desc>
<speed>5.690000</speed>
</trkpt>
<trkpt lat="56.103783" lon="26.498718">
<ele>88.872131</ele>
<time>2010-08-29T15:00:37Z</time>
<desc>lat.=56.103783, lon.=26.498718, Alt.=88.872131m. Speed=19.656000m/h.</desc>
<speed>5.460000</speed>
</trkpt>
<trkpt lat="56.103790" lon="26.498629">
<ele>89.022522</ele>
<time>2010-08-29T15:00:38Z</time>
<desc>lat.=56.103790, lon.=26.498629, Alt.=89.022522m. Speed=19.728001m/h.</desc>
<speed>5.480000</speed>
</trkpt>
<trkpt lat="56.103802" lon="26.498539">
<ele>89.948303</ele>
<time>2010-08-29T15:00:39Z</time>
<desc>lat.=56.103802, lon.=26.498539, Alt.=89.948303m. Speed=19.511999m/h.</desc>
<speed>5.420000</speed>
</trkpt>
<trkpt lat="56.103813" lon="26.498455">
<ele>89.407288</ele>
<time>2010-08-29T15:00:40Z</time>
<desc>lat.=56.103813, lon.=26.498455, Alt.=89.407288m. Speed=19.620001m/h.</desc>
<speed>5.450000</speed>
</trkpt>
<trkpt lat="56.103825" lon="26.498365">
<ele>89.917053</ele>
<time>2010-08-29T15:00:41Z</time>
<desc>lat.=56.103825, lon.=26.498365, Alt.=89.917053m. Speed=20.124001m/h.</desc>
<speed>5.590000</speed>
</trkpt>
<trkpt lat="56.103828" lon="26.498281">
<ele>89.165100</ele>
<time>2010-08-29T15:00:42Z</time>
<desc>lat.=56.103828, lon.=26.498281, Alt.=89.165100m. Speed=20.016001m/h.</desc>
<speed>5.560000</speed>
</trkpt>
<trkpt lat="56.103840" lon="26.498194">
<ele>88.815491</ele>
<time>2010-08-29T15:00:43Z</time>
<desc>lat.=56.103840, lon.=26.498194, Alt.=88.815491m. Speed=22.068001m/h.</desc>
<speed>6.130000</speed>
</trkpt>
<trkpt lat="56.103855" lon="26.498098">
<ele>90.221741</ele>
<time>2010-08-29T15:00:44Z</time>
<desc>lat.=56.103855, lon.=26.498098, Alt.=90.221741m. Speed=22.500000m/h.</desc>
<speed>6.250000</speed>
</trkpt>
<trkpt lat="56.103867" lon="26.498003">
<ele>90.407288</ele>
<time>2010-08-29T15:00:45Z</time>
<desc>lat.=56.103867, lon.=26.498003, Alt.=90.407288m. Speed=22.572001m/h.</desc>
<speed>6.270000</speed>
</trkpt>
<trkpt lat="56.103882" lon="26.497902">
<ele>90.471741</ele>
<time>2010-08-29T15:00:46Z</time>
<desc>lat.=56.103882, lon.=26.497902, Alt.=90.471741m. Speed=23.436001m/h.</desc>
<speed>6.510000</speed>
</trkpt>
<trkpt lat="56.103897" lon="26.497799">
<ele>90.842834</ele>
<time>2010-08-29T15:00:47Z</time>
<desc>lat.=56.103897, lon.=26.497799, Alt.=90.842834m. Speed=24.983999m/h.</desc>
<speed>6.940000</speed>
</trkpt>
<trkpt lat="56.103916" lon="26.497698">
<ele>91.612366</ele>
<time>2010-08-29T15:00:48Z</time>
<desc>lat.=56.103916, lon.=26.497698, Alt.=91.612366m. Speed=24.011999m/h.</desc>
<speed>6.670000</speed>
</trkpt>
<trkpt lat="56.103935" lon="26.497601">
<ele>91.657288</ele>
<time>2010-08-29T15:00:49Z</time>
<desc>lat.=56.103935, lon.=26.497601, Alt.=91.657288m. Speed=23.004000m/h.</desc>
<speed>6.390000</speed>
</trkpt>
<trkpt lat="56.103951" lon="26.497503">
<ele>92.411194</ele>
<time>2010-08-29T15:00:50Z</time>
<desc>lat.=56.103951, lon.=26.497503, Alt.=92.411194m. Speed=22.068001m/h.</desc>
<speed>6.130000</speed>
</trkpt>
<trkpt lat="56.103966" lon="26.497412">
<ele>92.868225</ele>
<time>2010-08-29T15:00:51Z</time>
<desc>lat.=56.103966, lon.=26.497412, Alt.=92.868225m. Speed=20.483999m/h.</desc>
<speed>5.690000</speed>
</trkpt>
<trkpt lat="56.103981" lon="26.497326">
<ele>93.315491</ele>
<time>2010-08-29T15:00:52Z</time>
<desc>lat.=56.103981, lon.=26.497326, Alt.=93.315491m. Speed=20.412001m/h.</desc>
<speed>5.670000</speed>
</trkpt>
<trkpt lat="56.103992" lon="26.497236">
<ele>93.645569</ele>
<time>2010-08-29T15:00:53Z</time>
<desc>lat.=56.103992, lon.=26.497236, Alt.=93.645569m. Speed=20.628000m/h.</desc>
<speed>5.730000</speed>
</trkpt>
<trkpt lat="56.104008" lon="26.497145">
<ele>93.799866</ele>
<time>2010-08-29T15:00:54Z</time>
<desc>lat.=56.104008, lon.=26.497145, Alt.=93.799866m. Speed=22.068001m/h.</desc>
<speed>6.130000</speed>
</trkpt>
<trkpt lat="56.104023" lon="26.497049">
<ele>95.086975</ele>
<time>2010-08-29T15:00:55Z</time>
<desc>lat.=56.104023, lon.=26.497049, Alt.=95.086975m. Speed=23.652000m/h.</desc>
<speed>6.570000</speed>
</trkpt>
<trkpt lat="56.104042" lon="26.496964">
<ele>97.454163</ele>
<time>2010-08-29T15:00:56Z</time>
<desc>lat.=56.104042, lon.=26.496964, Alt.=97.454163m. Speed=20.483999m/h.</desc>
<speed>5.690000</speed>
</trkpt>
<trkpt lat="56.104053" lon="26.496872">
<ele>98.487366</ele>
<time>2010-08-29T15:00:57Z</time>
<desc>lat.=56.104053, lon.=26.496872, Alt.=98.487366m. Speed=22.608000m/h.</desc>
<speed>6.280000</speed>
</trkpt>
<trkpt lat="56.104065" lon="26.496765">
<ele>98.170959</ele>
<time>2010-08-29T15:00:58Z</time>
<desc>lat.=56.104065, lon.=26.496765, Alt.=98.170959m. Speed=23.076000m/h.</desc>
<speed>6.410000</speed>
</trkpt>
<trkpt lat="56.104080" lon="26.496670">
<ele>97.772522</ele>
<time>2010-08-29T15:00:59Z</time>
<desc>lat.=56.104080, lon.=26.496670, Alt.=97.772522m. Speed=20.916000m/h.</desc>
<speed>5.810000</speed>
</trkpt>
<trkpt lat="56.104095" lon="26.496571">
<ele>97.596741</ele>
<time>2010-08-29T15:01:00Z</time>
<desc>lat.=56.104095, lon.=26.496571, Alt.=97.596741m. Speed=23.040001m/h.</desc>
<speed>6.400000</speed>
</trkpt>
<trkpt lat="56.104111" lon="26.496460">
<ele>97.530334</ele>
<time>2010-08-29T15:01:01Z</time>
<desc>lat.=56.104111, lon.=26.496460, Alt.=97.530334m. Speed=21.492001m/h.</desc>
<speed>5.970000</speed>
</trkpt>
<trkpt lat="56.104118" lon="26.496357">
<ele>97.370178</ele>
<time>2010-08-29T15:01:02Z</time>
<desc>lat.=56.104118, lon.=26.496357, Alt.=97.370178m. Speed=23.364000m/h.</desc>
<speed>6.490000</speed>
</trkpt>
<trkpt lat="56.104130" lon="26.496243">
<ele>97.846741</ele>
<time>2010-08-29T15:01:03Z</time>
<desc>lat.=56.104130, lon.=26.496243, Alt.=97.846741m. Speed=23.760000m/h.</desc>
<speed>6.600000</speed>
</trkpt>
<trkpt lat="56.104137" lon="26.496136">
<ele>96.206116</ele>
<time>2010-08-29T15:01:04Z</time>
<desc>lat.=56.104137, lon.=26.496136, Alt.=96.206116m. Speed=23.507999m/h.</desc>
<speed>6.530000</speed>
</trkpt>
<trkpt lat="56.104141" lon="26.496025">
<ele>95.749084</ele>
<time>2010-08-29T15:01:05Z</time>
<desc>lat.=56.104141, lon.=26.496025, Alt.=95.749084m. Speed=23.652000m/h.</desc>
<speed>6.570000</speed>
</trkpt>
<trkpt lat="56.104153" lon="26.495916">
<ele>95.766663</ele>
<time>2010-08-29T15:01:06Z</time>
<desc>lat.=56.104153, lon.=26.495916, Alt.=95.766663m. Speed=24.011999m/h.</desc>
<speed>6.670000</speed>
</trkpt>
<trkpt lat="56.104168" lon="26.495811">
<ele>95.350647</ele>
<time>2010-08-29T15:01:07Z</time>
<desc>lat.=56.104168, lon.=26.495811, Alt.=95.350647m. Speed=24.660000m/h.</desc>
<speed>6.850000</speed>
</trkpt>
<trkpt lat="56.104187" lon="26.495707">
<ele>96.114319</ele>
<time>2010-08-29T15:01:08Z</time>
<desc>lat.=56.104187, lon.=26.495707, Alt.=96.114319m. Speed=22.643999m/h.</desc>
<speed>6.290000</speed>
</trkpt>
<trkpt lat="56.104202" lon="26.495607">
<ele>96.184631</ele>
<time>2010-08-29T15:01:09Z</time>
<desc>lat.=56.104202, lon.=26.495607, Alt.=96.184631m. Speed=21.959999m/h.</desc>
<speed>6.100000</speed>
</trkpt>
<trkpt lat="56.104218" lon="26.495510">
<ele>96.489319</ele>
<time>2010-08-29T15:01:10Z</time>
<desc>lat.=56.104218, lon.=26.495510, Alt.=96.489319m. Speed=21.275999m/h.</desc>
<speed>5.910000</speed>
</trkpt>
<trkpt lat="56.104229" lon="26.495419">
<ele>98.936584</ele>
<time>2010-08-29T15:01:11Z</time>
<desc>lat.=56.104229, lon.=26.495419, Alt.=98.936584m. Speed=20.556000m/h.</desc>
<speed>5.710000</speed>
</trkpt>
<trkpt lat="56.104237" lon="26.495333">
<ele>98.547913</ele>
<time>2010-08-29T15:01:12Z</time>
<desc>lat.=56.104237, lon.=26.495333, Alt.=98.547913m. Speed=19.944000m/h.</desc>
<speed>5.540000</speed>
</trkpt>
<trkpt lat="56.104248" lon="26.495245">
<ele>98.305725</ele>
<time>2010-08-29T15:01:13Z</time>
<desc>lat.=56.104248, lon.=26.495245, Alt.=98.305725m. Speed=19.368000m/h.</desc>
<speed>5.380000</speed>
</trkpt>
<trkpt lat="56.104259" lon="26.495163">
<ele>97.639709</ele>
<time>2010-08-29T15:01:14Z</time>
<desc>lat.=56.104259, lon.=26.495163, Alt.=97.639709m. Speed=18.684000m/h.</desc>
<speed>5.190000</speed>
</trkpt>
<trkpt lat="56.104271" lon="26.495083">
<ele>97.075256</ele>
<time>2010-08-29T15:01:15Z</time>
<desc>lat.=56.104271, lon.=26.495083, Alt.=97.075256m. Speed=18.288000m/h.</desc>
<speed>5.080000</speed>
</trkpt>
<trkpt lat="56.104279" lon="26.495003">
<ele>96.792053</ele>
<time>2010-08-29T15:01:16Z</time>
<desc>lat.=56.104279, lon.=26.495003, Alt.=96.792053m. Speed=19.691999m/h.</desc>
<speed>5.470000</speed>
</trkpt>
<trkpt lat="56.104294" lon="26.494911">
<ele>97.081116</ele>
<time>2010-08-29T15:01:17Z</time>
<desc>lat.=56.104294, lon.=26.494911, Alt.=97.081116m. Speed=20.232000m/h.</desc>
<speed>5.620000</speed>
</trkpt>
<trkpt lat="56.104305" lon="26.494822">
<ele>97.092834</ele>
<time>2010-08-29T15:01:18Z</time>
<desc>lat.=56.104305, lon.=26.494822, Alt.=97.092834m. Speed=20.520000m/h.</desc>
<speed>5.700000</speed>
</trkpt>
<trkpt lat="56.104317" lon="26.494728">
<ele>97.692444</ele>
<time>2010-08-29T15:01:19Z</time>
<desc>lat.=56.104317, lon.=26.494728, Alt.=97.692444m. Speed=20.916000m/h.</desc>
<speed>5.810000</speed>
</trkpt>
<trkpt lat="56.104328" lon="26.494635">
<ele>97.641663</ele>
<time>2010-08-29T15:01:20Z</time>
<desc>lat.=56.104328, lon.=26.494635, Alt.=97.641663m. Speed=21.563999m/h.</desc>
<speed>5.990000</speed>
</trkpt>
<trkpt lat="56.104340" lon="26.494545">
<ele>97.680725</ele>
<time>2010-08-29T15:01:21Z</time>
<desc>lat.=56.104340, lon.=26.494545, Alt.=97.680725m. Speed=22.176001m/h.</desc>
<speed>6.160000</speed>
</trkpt>
<trkpt lat="56.104347" lon="26.494457">
<ele>97.544006</ele>
<time>2010-08-29T15:01:22Z</time>
<desc>lat.=56.104347, lon.=26.494457, Alt.=97.544006m. Speed=21.240000m/h.</desc>
<speed>5.900000</speed>
</trkpt>
<trkpt lat="56.104362" lon="26.494368">
<ele>98.059631</ele>
<time>2010-08-29T15:01:23Z</time>
<desc>lat.=56.104362, lon.=26.494368, Alt.=98.059631m. Speed=21.312000m/h.</desc>
<speed>5.920000</speed>
</trkpt>
<trkpt lat="56.104374" lon="26.494276">
<ele>97.987366</ele>
<time>2010-08-29T15:01:24Z</time>
<desc>lat.=56.104374, lon.=26.494276, Alt.=97.987366m. Speed=20.412001m/h.</desc>
<speed>5.670000</speed>
</trkpt>
<trkpt lat="56.104382" lon="26.494184">
<ele>98.210022</ele>
<time>2010-08-29T15:01:25Z</time>
<desc>lat.=56.104382, lon.=26.494184, Alt.=98.210022m. Speed=19.403999m/h.</desc>
<speed>5.390000</speed>
</trkpt>
<trkpt lat="56.104389" lon="26.494099">
<ele>98.510803</ele>
<time>2010-08-29T15:01:26Z</time>
<desc>lat.=56.104389, lon.=26.494099, Alt.=98.510803m. Speed=18.396000m/h.</desc>
<speed>5.110000</speed>
</trkpt>
<trkpt lat="56.104401" lon="26.494020">
<ele>99.245178</ele>
<time>2010-08-29T15:01:27Z</time>
<desc>lat.=56.104401, lon.=26.494020, Alt.=99.245178m. Speed=17.856001m/h.</desc>
<speed>4.960000</speed>
</trkpt>
<trkpt lat="56.104408" lon="26.493935">
<ele>99.426819</ele>
<time>2010-08-29T15:01:28Z</time>
<desc>lat.=56.104408, lon.=26.493935, Alt.=99.426819m. Speed=19.584000m/h.</desc>
<speed>5.440000</speed>
</trkpt>
<trkpt lat="56.104424" lon="26.493843">
<ele>99.909241</ele>
<time>2010-08-29T15:01:29Z</time>
<desc>lat.=56.104424, lon.=26.493843, Alt.=99.909241m. Speed=20.483999m/h.</desc>
<speed>5.690000</speed>
</trkpt>
<trkpt lat="56.104439" lon="26.493750">
<ele>99.167053</ele>
<time>2010-08-29T15:01:30Z</time>
<desc>lat.=56.104439, lon.=26.493750, Alt.=99.167053m. Speed=21.492001m/h.</desc>
<speed>5.970000</speed>
</trkpt>
<trkpt lat="56.104458" lon="26.493654">
<ele>99.479553</ele>
<time>2010-08-29T15:01:31Z</time>
<desc>lat.=56.104458, lon.=26.493654, Alt.=99.479553m. Speed=21.240000m/h.</desc>
<speed>5.900000</speed>
</trkpt>
<trkpt lat="56.104469" lon="26.493559">
<ele>99.729553</ele>
<time>2010-08-29T15:01:32Z</time>
<desc>lat.=56.104469, lon.=26.493559, Alt.=99.729553m. Speed=21.888000m/h.</desc>
<speed>6.080000</speed>
</trkpt>
<trkpt lat="56.104485" lon="26.493467">
<ele>99.713928</ele>
<time>2010-08-29T15:01:33Z</time>
<desc>lat.=56.104485, lon.=26.493467, Alt.=99.713928m. Speed=21.780001m/h.</desc>
<speed>6.050000</speed>
</trkpt>
<trkpt lat="56.104496" lon="26.493368">
<ele>99.844788</ele>
<time>2010-08-29T15:01:34Z</time>
<desc>lat.=56.104496, lon.=26.493368, Alt.=99.844788m. Speed=21.672001m/h.</desc>
<speed>6.020000</speed>
</trkpt>
<trkpt lat="56.104507" lon="26.493269">
<ele>99.717834</ele>
<time>2010-08-29T15:01:35Z</time>
<desc>lat.=56.104507, lon.=26.493269, Alt.=99.717834m. Speed=20.483999m/h.</desc>
<speed>5.690000</speed>
</trkpt>
<trkpt lat="56.104515" lon="26.493183">
<ele>99.766663</ele>
<time>2010-08-29T15:01:36Z</time>
<desc>lat.=56.104515, lon.=26.493183, Alt.=99.766663m. Speed=19.872000m/h.</desc>
<speed>5.520000</speed>
</trkpt>
<trkpt lat="56.104523" lon="26.493099">
<ele>98.954163</ele>
<time>2010-08-29T15:01:37Z</time>
<desc>lat.=56.104523, lon.=26.493099, Alt.=98.954163m. Speed=19.115999m/h.</desc>
<speed>5.310000</speed>
</trkpt>
<trkpt lat="56.104530" lon="26.493011">
<ele>98.655334</ele>
<time>2010-08-29T15:01:38Z</time>
<desc>lat.=56.104530, lon.=26.493011, Alt.=98.655334m. Speed=21.167999m/h.</desc>
<speed>5.880000</speed>
</trkpt>
<trkpt lat="56.104546" lon="26.492914">
<ele>98.038147</ele>
<time>2010-08-29T15:01:39Z</time>
<desc>lat.=56.104546, lon.=26.492914, Alt.=98.038147m. Speed=21.851999m/h.</desc>
<speed>6.070000</speed>
</trkpt>
<trkpt lat="56.104557" lon="26.492819">
<ele>97.711975</ele>
<time>2010-08-29T15:01:40Z</time>
<desc>lat.=56.104557, lon.=26.492819, Alt.=97.711975m. Speed=22.716000m/h.</desc>
<speed>6.310000</speed>
</trkpt>
<trkpt lat="56.104572" lon="26.492720">
<ele>96.758850</ele>
<time>2010-08-29T15:01:41Z</time>
<desc>lat.=56.104572, lon.=26.492720, Alt.=96.758850m. Speed=23.472000m/h.</desc>
<speed>6.520000</speed>
</trkpt>
<trkpt lat="56.104588" lon="26.492620">
<ele>95.815491</ele>
<time>2010-08-29T15:01:42Z</time>
<desc>lat.=56.104588, lon.=26.492620, Alt.=95.815491m. Speed=22.752001m/h.</desc>
<speed>6.320000</speed>
</trkpt>
<trkpt lat="56.104595" lon="26.492521">
<ele>94.053772</ele>
<time>2010-08-29T15:01:43Z</time>
<desc>lat.=56.104595, lon.=26.492521, Alt.=94.053772m. Speed=23.076000m/h.</desc>
<speed>6.410000</speed>
</trkpt>
<trkpt lat="56.104607" lon="26.492422">
<ele>92.688538</ele>
<time>2010-08-29T15:01:44Z</time>
<desc>lat.=56.104607, lon.=26.492422, Alt.=92.688538m. Speed=23.507999m/h.</desc>
<speed>6.530000</speed>
</trkpt>
<trkpt lat="56.104622" lon="26.492319">
<ele>92.579163</ele>
<time>2010-08-29T15:01:45Z</time>
<desc>lat.=56.104622, lon.=26.492319, Alt.=92.579163m. Speed=24.011999m/h.</desc>
<speed>6.670000</speed>
</trkpt>
<trkpt lat="56.104637" lon="26.492212">
<ele>92.682678</ele>
<time>2010-08-29T15:01:46Z</time>
<desc>lat.=56.104637, lon.=26.492212, Alt.=92.682678m. Speed=23.112000m/h.</desc>
<speed>6.420000</speed>
</trkpt>
<trkpt lat="56.104652" lon="26.492105">
<ele>94.815491</ele>
<time>2010-08-29T15:01:47Z</time>
<desc>lat.=56.104652, lon.=26.492105, Alt.=94.815491m. Speed=22.716000m/h.</desc>
<speed>6.310000</speed>
</trkpt>
<trkpt lat="56.104664" lon="26.492008">
<ele>94.905334</ele>
<time>2010-08-29T15:01:48Z</time>
<desc>lat.=56.104664, lon.=26.492008, Alt.=94.905334m. Speed=21.851999m/h.</desc>
<speed>6.070000</speed>
</trkpt>
<trkpt lat="56.104671" lon="26.491911">
<ele>95.010803</ele>
<time>2010-08-29T15:01:49Z</time>
<desc>lat.=56.104671, lon.=26.491911, Alt.=95.010803m. Speed=22.068001m/h.</desc>
<speed>6.130000</speed>
</trkpt>
<trkpt lat="56.104683" lon="26.491816">
<ele>94.711975</ele>
<time>2010-08-29T15:01:50Z</time>
<desc>lat.=56.104683, lon.=26.491816, Alt.=94.711975m. Speed=22.643999m/h.</desc>
<speed>6.290000</speed>
</trkpt>
<trkpt lat="56.104698" lon="26.491718">
<ele>94.842834</ele>
<time>2010-08-29T15:01:51Z</time>
<desc>lat.=56.104698, lon.=26.491718, Alt.=94.842834m. Speed=22.392000m/h.</desc>
<speed>6.220000</speed>
</trkpt>
<trkpt lat="56.104706" lon="26.491625">
<ele>94.420959</ele>
<time>2010-08-29T15:01:52Z</time>
<desc>lat.=56.104706, lon.=26.491625, Alt.=94.420959m. Speed=22.032000m/h.</desc>
<speed>6.120000</speed>
</trkpt>
<trkpt lat="56.104721" lon="26.491533">
<ele>94.391663</ele>
<time>2010-08-29T15:01:53Z</time>
<desc>lat.=56.104721, lon.=26.491533, Alt.=94.391663m. Speed=21.384001m/h.</desc>
<speed>5.940000</speed>
</trkpt>
<trkpt lat="56.104736" lon="26.491442">
<ele>94.487366</ele>
<time>2010-08-29T15:01:54Z</time>
<desc>lat.=56.104736, lon.=26.491442, Alt.=94.487366m. Speed=21.132000m/h.</desc>
<speed>5.870000</speed>
</trkpt>
<trkpt lat="56.104748" lon="26.491350">
<ele>94.321350</ele>
<time>2010-08-29T15:01:55Z</time>
<desc>lat.=56.104748, lon.=26.491350, Alt.=94.321350m. Speed=20.771999m/h.</desc>
<speed>5.770000</speed>
</trkpt>
<trkpt lat="56.104759" lon="26.491259">
<ele>93.680725</ele>
<time>2010-08-29T15:01:56Z</time>
<desc>lat.=56.104759, lon.=26.491259, Alt.=93.680725m. Speed=20.736000m/h.</desc>
<speed>5.760000</speed>
</trkpt>
<trkpt lat="56.104774" lon="26.491165">
<ele>93.801819</ele>
<time>2010-08-29T15:01:57Z</time>
<desc>lat.=56.104774, lon.=26.491165, Alt.=93.801819m. Speed=21.492001m/h.</desc>
<speed>5.970000</speed>
</trkpt>
<trkpt lat="56.104790" lon="26.491066">
<ele>94.155334</ele>
<time>2010-08-29T15:01:58Z</time>
<desc>lat.=56.104790, lon.=26.491066, Alt.=94.155334m. Speed=22.356001m/h.</desc>
<speed>6.210000</speed>
</trkpt>
<trkpt lat="56.104797" lon="26.490969">
<ele>93.635803</ele>
<time>2010-08-29T15:01:59Z</time>
<desc>lat.=56.104797, lon.=26.490969, Alt.=93.635803m. Speed=22.284000m/h.</desc>
<speed>6.190000</speed>
</trkpt>
<trkpt lat="56.104809" lon="26.490870">
<ele>93.438538</ele>
<time>2010-08-29T15:02:00Z</time>
<desc>lat.=56.104809, lon.=26.490870, Alt.=93.438538m. Speed=21.924000m/h.</desc>
<speed>6.090000</speed>
</trkpt>
<trkpt lat="56.104824" lon="26.490772">
<ele>93.424866</ele>
<time>2010-08-29T15:02:01Z</time>
<desc>lat.=56.104824, lon.=26.490772, Alt.=93.424866m. Speed=21.600000m/h.</desc>
<speed>6.000000</speed>
</trkpt>
<trkpt lat="56.104832" lon="26.490679">
<ele>93.286194</ele>
<time>2010-08-29T15:02:02Z</time>
<desc>lat.=56.104832, lon.=26.490679, Alt.=93.286194m. Speed=21.204000m/h.</desc>
<speed>5.890000</speed>
</trkpt>
<trkpt lat="56.104847" lon="26.490587">
<ele>93.266663</ele>
<time>2010-08-29T15:02:03Z</time>
<desc>lat.=56.104847, lon.=26.490587, Alt.=93.266663m. Speed=20.700001m/h.</desc>
<speed>5.750000</speed>
</trkpt>
<trkpt lat="56.104858" lon="26.490496">
<ele>93.336975</ele>
<time>2010-08-29T15:02:04Z</time>
<desc>lat.=56.104858, lon.=26.490496, Alt.=93.336975m. Speed=20.556000m/h.</desc>
<speed>5.710000</speed>
</trkpt>
<trkpt lat="56.104870" lon="26.490404">
<ele>93.129944</ele>
<time>2010-08-29T15:02:05Z</time>
<desc>lat.=56.104870, lon.=26.490404, Alt.=93.129944m. Speed=21.275999m/h.</desc>
<speed>5.910000</speed>
</trkpt>
<trkpt lat="56.104881" lon="26.490313">
<ele>92.788147</ele>
<time>2010-08-29T15:02:06Z</time>
<desc>lat.=56.104881, lon.=26.490313, Alt.=92.788147m. Speed=21.384001m/h.</desc>
<speed>5.940000</speed>
</trkpt>
<trkpt lat="56.104897" lon="26.490215">
<ele>92.645569</ele>
<time>2010-08-29T15:02:07Z</time>
<desc>lat.=56.104897, lon.=26.490215, Alt.=92.645569m. Speed=22.176001m/h.</desc>
<speed>6.160000</speed>
</trkpt>
<trkpt lat="56.104908" lon="26.490122">
<ele>92.268616</ele>
<time>2010-08-29T15:02:08Z</time>
<desc>lat.=56.104908, lon.=26.490122, Alt.=92.268616m. Speed=21.996000m/h.</desc>
<speed>6.110000</speed>
</trkpt>
<trkpt lat="56.104923" lon="26.490026">
<ele>92.147522</ele>
<time>2010-08-29T15:02:09Z</time>
<desc>lat.=56.104923, lon.=26.490026, Alt.=92.147522m. Speed=21.348000m/h.</desc>
<speed>5.930000</speed>
</trkpt>
<trkpt lat="56.104935" lon="26.489939">
<ele>92.219788</ele>
<time>2010-08-29T15:02:10Z</time>
<desc>lat.=56.104935, lon.=26.489939, Alt.=92.219788m. Speed=20.771999m/h.</desc>
<speed>5.770000</speed>
</trkpt>
<trkpt lat="56.104942" lon="26.489849">
<ele>92.172913</ele>
<time>2010-08-29T15:02:11Z</time>
<desc>lat.=56.104942, lon.=26.489849, Alt.=92.172913m. Speed=20.232000m/h.</desc>
<speed>5.620000</speed>
</trkpt>
<trkpt lat="56.104954" lon="26.489763">
<ele>92.079163</ele>
<time>2010-08-29T15:02:12Z</time>
<desc>lat.=56.104954, lon.=26.489763, Alt.=92.079163m. Speed=19.656000m/h.</desc>
<speed>5.460000</speed>
</trkpt>
<trkpt lat="56.104965" lon="26.489679">
<ele>91.809631</ele>
<time>2010-08-29T15:02:13Z</time>
<desc>lat.=56.104965, lon.=26.489679, Alt.=91.809631m. Speed=19.188000m/h.</desc>
<speed>5.330000</speed>
</trkpt>
<trkpt lat="56.104977" lon="26.489599">
<ele>91.993225</ele>
<time>2010-08-29T15:02:14Z</time>
<desc>lat.=56.104977, lon.=26.489599, Alt.=91.993225m. Speed=18.684000m/h.</desc>
<speed>5.190000</speed>
</trkpt>
<trkpt lat="56.104988" lon="26.489519">
<ele>92.010803</ele>
<time>2010-08-29T15:02:15Z</time>
<desc>lat.=56.104988, lon.=26.489519, Alt.=92.010803m. Speed=18.323999m/h.</desc>
<speed>5.090000</speed>
</trkpt>
<trkpt lat="56.104992" lon="26.489439">
<ele>91.561584</ele>
<time>2010-08-29T15:02:16Z</time>
<desc>lat.=56.104992, lon.=26.489439, Alt.=91.561584m. Speed=17.604000m/h.</desc>
<speed>4.890000</speed>
</trkpt>
<trkpt lat="56.105000" lon="26.489367">
<ele>91.294006</ele>
<time>2010-08-29T15:02:17Z</time>
<desc>lat.=56.105000, lon.=26.489367, Alt.=91.294006m. Speed=16.488001m/h.</desc>
<speed>4.580000</speed>
</trkpt>
<trkpt lat="56.105015" lon="26.489296">
<ele>91.333069</ele>
<time>2010-08-29T15:02:18Z</time>
<desc>lat.=56.105015, lon.=26.489296, Alt.=91.333069m. Speed=17.604000m/h.</desc>
<speed>4.890000</speed>
</trkpt>
<trkpt lat="56.105022" lon="26.489218">
<ele>90.979553</ele>
<time>2010-08-29T15:02:19Z</time>
<desc>lat.=56.105022, lon.=26.489218, Alt.=90.979553m. Speed=19.007999m/h.</desc>
<speed>5.280000</speed>
</trkpt>
<trkpt lat="56.105034" lon="26.489130">
<ele>90.710022</ele>
<time>2010-08-29T15:02:20Z</time>
<desc>lat.=56.105034, lon.=26.489130, Alt.=90.710022m. Speed=19.872000m/h.</desc>
<speed>5.520000</speed>
</trkpt>
<trkpt lat="56.105045" lon="26.489042">
<ele>90.545959</ele>
<time>2010-08-29T15:02:21Z</time>
<desc>lat.=56.105045, lon.=26.489042, Alt.=90.545959m. Speed=20.988001m/h.</desc>
<speed>5.830000</speed>
</trkpt>
<trkpt lat="56.105053" lon="26.488947">
<ele>90.420959</ele>
<time>2010-08-29T15:02:22Z</time>
<desc>lat.=56.105053, lon.=26.488947, Alt.=90.420959m. Speed=22.320000m/h.</desc>
<speed>6.200000</speed>
</trkpt>
<trkpt lat="56.105068" lon="26.488846">
<ele>90.165100</ele>
<time>2010-08-29T15:02:23Z</time>
<desc>lat.=56.105068, lon.=26.488846, Alt.=90.165100m. Speed=22.788000m/h.</desc>
<speed>6.330000</speed>
</trkpt>
<trkpt lat="56.105080" lon="26.488747">
<ele>89.891663</ele>
<time>2010-08-29T15:02:24Z</time>
<desc>lat.=56.105080, lon.=26.488747, Alt.=89.891663m. Speed=23.507999m/h.</desc>
<speed>6.530000</speed>
</trkpt>
<trkpt lat="56.105087" lon="26.488642">
<ele>89.866272</ele>
<time>2010-08-29T15:02:25Z</time>
<desc>lat.=56.105087, lon.=26.488642, Alt.=89.866272m. Speed=23.327999m/h.</desc>
<speed>6.480000</speed>
</trkpt>
<trkpt lat="56.105095" lon="26.488537">
<ele>90.030334</ele>
<time>2010-08-29T15:02:26Z</time>
<desc>lat.=56.105095, lon.=26.488537, Alt.=90.030334m. Speed=22.716000m/h.</desc>
<speed>6.310000</speed>
</trkpt>
<trkpt lat="56.105106" lon="26.488436">
<ele>89.780334</ele>
<time>2010-08-29T15:02:27Z</time>
<desc>lat.=56.105106, lon.=26.488436, Alt.=89.780334m. Speed=21.851999m/h.</desc>
<speed>6.070000</speed>
</trkpt>
<trkpt lat="56.105110" lon="26.488333">
<ele>89.778381</ele>
<time>2010-08-29T15:02:28Z</time>
<desc>lat.=56.105110, lon.=26.488333, Alt.=89.778381m. Speed=22.176001m/h.</desc>
<speed>6.160000</speed>
</trkpt>
<trkpt lat="56.105114" lon="26.488237">
<ele>89.010803</ele>
<time>2010-08-29T15:02:29Z</time>
<desc>lat.=56.105114, lon.=26.488237, Alt.=89.010803m. Speed=22.788000m/h.</desc>
<speed>6.330000</speed>
</trkpt>
<trkpt lat="56.105118" lon="26.488132">
<ele>89.669006</ele>
<time>2010-08-29T15:02:30Z</time>
<desc>lat.=56.105118, lon.=26.488132, Alt.=89.669006m. Speed=22.608000m/h.</desc>
<speed>6.280000</speed>
</trkpt>
<trkpt lat="56.105118" lon="26.488031">
<ele>89.872131</ele>
<time>2010-08-29T15:02:31Z</time>
<desc>lat.=56.105118, lon.=26.488031, Alt.=89.872131m. Speed=22.823999m/h.</desc>
<speed>6.340000</speed>
</trkpt>
<trkpt lat="56.105118" lon="26.487928">
<ele>89.272522</ele>
<time>2010-08-29T15:02:32Z</time>
<desc>lat.=56.105118, lon.=26.487928, Alt.=89.272522m. Speed=22.896000m/h.</desc>
<speed>6.360000</speed>
</trkpt>
<trkpt lat="56.105118" lon="26.487822">
<ele>88.963928</ele>
<time>2010-08-29T15:02:33Z</time>
<desc>lat.=56.105118, lon.=26.487822, Alt.=88.963928m. Speed=23.040001m/h.</desc>
<speed>6.400000</speed>
</trkpt>
<trkpt lat="56.105122" lon="26.487722">
<ele>88.608459</ele>
<time>2010-08-29T15:02:34Z</time>
<desc>lat.=56.105122, lon.=26.487722, Alt.=88.608459m. Speed=24.048000m/h.</desc>
<speed>6.680000</speed>
</trkpt>
<trkpt lat="56.105129" lon="26.487616">
<ele>88.542053</ele>
<time>2010-08-29T15:02:35Z</time>
<desc>lat.=56.105129, lon.=26.487616, Alt.=88.542053m. Speed=23.148001m/h.</desc>
<speed>6.430000</speed>
</trkpt>
<trkpt lat="56.105133" lon="26.487516">
<ele>87.469788</ele>
<time>2010-08-29T15:02:36Z</time>
<desc>lat.=56.105133, lon.=26.487516, Alt.=87.469788m. Speed=23.292000m/h.</desc>
<speed>6.470000</speed>
</trkpt>
<trkpt lat="56.105141" lon="26.487413">
<ele>86.608459</ele>
<time>2010-08-29T15:02:37Z</time>
<desc>lat.=56.105141, lon.=26.487413, Alt.=86.608459m. Speed=23.615999m/h.</desc>
<speed>6.560000</speed>
</trkpt>
<trkpt lat="56.105152" lon="26.487309">
<ele>87.323303</ele>
<time>2010-08-29T15:02:38Z</time>
<desc>lat.=56.105152, lon.=26.487309, Alt.=87.323303m. Speed=23.688000m/h.</desc>
<speed>6.580000</speed>
</trkpt>
<trkpt lat="56.105164" lon="26.487204">
<ele>87.028381</ele>
<time>2010-08-29T15:02:39Z</time>
<desc>lat.=56.105164, lon.=26.487204, Alt.=87.028381m. Speed=23.940001m/h.</desc>
<speed>6.650000</speed>
</trkpt>
<trkpt lat="56.105175" lon="26.487097">
<ele>86.946350</ele>
<time>2010-08-29T15:02:40Z</time>
<desc>lat.=56.105175, lon.=26.487097, Alt.=86.946350m. Speed=23.868000m/h.</desc>
<speed>6.630000</speed>
</trkpt>
<trkpt lat="56.105186" lon="26.486990">
<ele>86.844788</ele>
<time>2010-08-29T15:02:41Z</time>
<desc>lat.=56.105186, lon.=26.486990, Alt.=86.844788m. Speed=23.832001m/h.</desc>
<speed>6.620000</speed>
</trkpt>
<trkpt lat="56.105198" lon="26.486881">
<ele>86.303772</ele>
<time>2010-08-29T15:02:42Z</time>
<desc>lat.=56.105198, lon.=26.486881, Alt.=86.303772m. Speed=23.615999m/h.</desc>
<speed>6.560000</speed>
</trkpt>
<trkpt lat="56.105213" lon="26.486780">
<ele>85.420959</ele>
<time>2010-08-29T15:02:43Z</time>
<desc>lat.=56.105213, lon.=26.486780, Alt.=85.420959m. Speed=22.608000m/h.</desc>
<speed>6.280000</speed>
</trkpt>
<trkpt lat="56.105228" lon="26.486689">
<ele>84.571350</ele>
<time>2010-08-29T15:02:44Z</time>
<desc>lat.=56.105228, lon.=26.486689, Alt.=84.571350m. Speed=21.780001m/h.</desc>
<speed>6.050000</speed>
</trkpt>
<trkpt lat="56.105244" lon="26.486588">
<ele>84.571350</ele>
<time>2010-08-29T15:02:45Z</time>
<desc>lat.=56.105244, lon.=26.486588, Alt.=84.571350m. Speed=22.680000m/h.</desc>
<speed>6.300000</speed>
</trkpt>
<trkpt lat="56.105263" lon="26.486486">
<ele>84.426819</ele>
<time>2010-08-29T15:02:46Z</time>
<desc>lat.=56.105263, lon.=26.486486, Alt.=84.426819m. Speed=23.615999m/h.</desc>
<speed>6.560000</speed>
</trkpt>
<trkpt lat="56.105282" lon="26.486391">
<ele>84.794006</ele>
<time>2010-08-29T15:02:47Z</time>
<desc>lat.=56.105282, lon.=26.486391, Alt.=84.794006m. Speed=23.148001m/h.</desc>
<speed>6.430000</speed>
</trkpt>
<trkpt lat="56.105301" lon="26.486300">
<ele>85.346741</ele>
<time>2010-08-29T15:02:48Z</time>
<desc>lat.=56.105301, lon.=26.486300, Alt.=85.346741m. Speed=22.212000m/h.</desc>
<speed>6.170000</speed>
</trkpt>
<trkpt lat="56.105320" lon="26.486208">
<ele>85.764709</ele>
<time>2010-08-29T15:02:49Z</time>
<desc>lat.=56.105320, lon.=26.486208, Alt.=85.764709m. Speed=21.780001m/h.</desc>
<speed>6.050000</speed>
</trkpt>
<trkpt lat="56.105335" lon="26.486113">
<ele>86.129944</ele>
<time>2010-08-29T15:02:50Z</time>
<desc>lat.=56.105335, lon.=26.486113, Alt.=86.129944m. Speed=21.204000m/h.</desc>
<speed>5.890000</speed>
</trkpt>
<trkpt lat="56.105354" lon="26.486027">
<ele>86.544006</ele>
<time>2010-08-29T15:02:51Z</time>
<desc>lat.=56.105354, lon.=26.486027, Alt.=86.544006m. Speed=20.628000m/h.</desc>
<speed>5.730000</speed>
</trkpt>
<trkpt lat="56.105370" lon="26.485945">
<ele>86.876038</ele>
<time>2010-08-29T15:02:52Z</time>
<desc>lat.=56.105370, lon.=26.485945, Alt.=86.876038m. Speed=19.799999m/h.</desc>
<speed>5.500000</speed>
</trkpt>
<trkpt lat="56.105389" lon="26.485870">
<ele>87.360413</ele>
<time>2010-08-29T15:02:53Z</time>
<desc>lat.=56.105389, lon.=26.485870, Alt.=87.360413m. Speed=19.188000m/h.</desc>
<speed>5.330000</speed>
</trkpt>
<trkpt lat="56.105400" lon="26.485792">
<ele>87.098694</ele>
<time>2010-08-29T15:02:54Z</time>
<desc>lat.=56.105400, lon.=26.485792, Alt.=87.098694m. Speed=18.288000m/h.</desc>
<speed>5.080000</speed>
</trkpt>
<trkpt lat="56.105412" lon="26.485714">
<ele>87.085022</ele>
<time>2010-08-29T15:02:55Z</time>
<desc>lat.=56.105412, lon.=26.485714, Alt.=87.085022m. Speed=17.856001m/h.</desc>
<speed>4.960000</speed>
</trkpt>
<trkpt lat="56.105427" lon="26.485645">
<ele>87.629944</ele>
<time>2010-08-29T15:02:56Z</time>
<desc>lat.=56.105427, lon.=26.485645, Alt.=87.629944m. Speed=17.208000m/h.</desc>
<speed>4.780000</speed>
</trkpt>
<trkpt lat="56.105442" lon="26.485577">
<ele>87.784241</ele>
<time>2010-08-29T15:02:57Z</time>
<desc>lat.=56.105442, lon.=26.485577, Alt.=87.784241m. Speed=16.128000m/h.</desc>
<speed>4.480000</speed>
</trkpt>
<trkpt lat="56.105450" lon="26.485514">
<ele>87.483459</ele>
<time>2010-08-29T15:02:58Z</time>
<desc>lat.=56.105450, lon.=26.485514, Alt.=87.483459m. Speed=14.616000m/h.</desc>
<speed>4.060000</speed>
</trkpt>
<trkpt lat="56.105461" lon="26.485455">
<ele>87.700256</ele>
<time>2010-08-29T15:02:59Z</time>
<desc>lat.=56.105461, lon.=26.485455, Alt.=87.700256m. Speed=13.356000m/h.</desc>
<speed>3.710000</speed>
</trkpt>
<trkpt lat="56.105469" lon="26.485399">
<ele>87.727600</ele>
<time>2010-08-29T15:03:00Z</time>
<desc>lat.=56.105469, lon.=26.485399, Alt.=87.727600m. Speed=12.600000m/h.</desc>
<speed>3.500000</speed>
</trkpt>
<trkpt lat="56.105473" lon="26.485344">
<ele>88.002991</ele>
<time>2010-08-29T15:03:01Z</time>
<desc>lat.=56.105473, lon.=26.485344, Alt.=88.002991m. Speed=12.456000m/h.</desc>
<speed>3.460000</speed>
</trkpt>
<trkpt lat="56.105476" lon="26.485287">
<ele>87.077209</ele>
<time>2010-08-29T15:03:02Z</time>
<desc>lat.=56.105476, lon.=26.485287, Alt.=87.077209m. Speed=13.356000m/h.</desc>
<speed>3.710000</speed>
</trkpt>
<trkpt lat="56.105488" lon="26.485229">
<ele>87.143616</ele>
<time>2010-08-29T15:03:03Z</time>
<desc>lat.=56.105488, lon.=26.485229, Alt.=87.143616m. Speed=14.076000m/h.</desc>
<speed>3.910000</speed>
</trkpt>
<trkpt lat="56.105499" lon="26.485168">
<ele>86.913147</ele>
<time>2010-08-29T15:03:04Z</time>
<desc>lat.=56.105499, lon.=26.485168, Alt.=86.913147m. Speed=14.616000m/h.</desc>
<speed>4.060000</speed>
</trkpt>
<trkpt lat="56.105507" lon="26.485104">
<ele>86.688538</ele>
<time>2010-08-29T15:03:05Z</time>
<desc>lat.=56.105507, lon.=26.485104, Alt.=86.688538m. Speed=15.048000m/h.</desc>
<speed>4.180000</speed>
</trkpt>
<trkpt lat="56.105518" lon="26.485037">
<ele>86.399475</ele>
<time>2010-08-29T15:03:06Z</time>
<desc>lat.=56.105518, lon.=26.485037, Alt.=86.399475m. Speed=15.732000m/h.</desc>
<speed>4.370000</speed>
</trkpt>
<trkpt lat="56.105526" lon="26.484970">
<ele>85.850647</ele>
<time>2010-08-29T15:03:07Z</time>
<desc>lat.=56.105526, lon.=26.484970, Alt.=85.850647m. Speed=16.812000m/h.</desc>
<speed>4.670000</speed>
</trkpt>
<trkpt lat="56.105534" lon="26.484896">
<ele>85.663147</ele>
<time>2010-08-29T15:03:08Z</time>
<desc>lat.=56.105534, lon.=26.484896, Alt.=85.663147m. Speed=17.712000m/h.</desc>
<speed>4.920000</speed>
</trkpt>
<trkpt lat="56.105545" lon="26.484819">
<ele>85.993225</ele>
<time>2010-08-29T15:03:09Z</time>
<desc>lat.=56.105545, lon.=26.484819, Alt.=85.993225m. Speed=18.216000m/h.</desc>
<speed>5.060000</speed>
</trkpt>
<trkpt lat="56.105553" lon="26.484737">
<ele>85.905334</ele>
<time>2010-08-29T15:03:10Z</time>
<desc>lat.=56.105553, lon.=26.484737, Alt.=85.905334m. Speed=18.396000m/h.</desc>
<speed>5.110000</speed>
</trkpt>
<trkpt lat="56.105564" lon="26.484653">
<ele>85.711975</ele>
<time>2010-08-29T15:03:11Z</time>
<desc>lat.=56.105564, lon.=26.484653, Alt.=85.711975m. Speed=17.676001m/h.</desc>
<speed>4.910000</speed>
</trkpt>
<trkpt lat="56.105572" lon="26.484571">
<ele>87.010803</ele>
<time>2010-08-29T15:03:12Z</time>
<desc>lat.=56.105572, lon.=26.484571, Alt.=87.010803m. Speed=18.972000m/h.</desc>
<speed>5.270000</speed>
</trkpt>
<trkpt lat="56.105579" lon="26.484486">
<ele>87.167053</ele>
<time>2010-08-29T15:03:13Z</time>
<desc>lat.=56.105579, lon.=26.484486, Alt.=87.167053m. Speed=19.368000m/h.</desc>
<speed>5.380000</speed>
</trkpt>
<trkpt lat="56.105591" lon="26.484404">
<ele>87.555725</ele>
<time>2010-08-29T15:03:14Z</time>
<desc>lat.=56.105591, lon.=26.484404, Alt.=87.555725m. Speed=18.864000m/h.</desc>
<speed>5.240000</speed>
</trkpt>
<trkpt lat="56.105591" lon="26.484316">
<ele>88.346741</ele>
<time>2010-08-29T15:03:15Z</time>
<desc>lat.=56.105591, lon.=26.484316, Alt.=88.346741m. Speed=19.872000m/h.</desc>
<speed>5.520000</speed>
</trkpt>
<trkpt lat="56.105598" lon="26.484224">
<ele>88.874084</ele>
<time>2010-08-29T15:03:16Z</time>
<desc>lat.=56.105598, lon.=26.484224, Alt.=88.874084m. Speed=20.160000m/h.</desc>
<speed>5.600000</speed>
</trkpt>
<trkpt lat="56.105602" lon="26.484133">
<ele>89.036194</ele>
<time>2010-08-29T15:03:17Z</time>
<desc>lat.=56.105602, lon.=26.484133, Alt.=89.036194m. Speed=20.700001m/h.</desc>
<speed>5.750000</speed>
</trkpt>
<trkpt lat="56.105606" lon="26.484041">
<ele>89.266663</ele>
<time>2010-08-29T15:03:18Z</time>
<desc>lat.=56.105606, lon.=26.484041, Alt.=89.266663m. Speed=21.455999m/h.</desc>
<speed>5.960000</speed>
</trkpt>
<trkpt lat="56.105614" lon="26.483944">
<ele>89.346741</ele>
<time>2010-08-29T15:03:19Z</time>
<desc>lat.=56.105614, lon.=26.483944, Alt.=89.346741m. Speed=22.356001m/h.</desc>
<speed>6.210000</speed>
</trkpt>
<trkpt lat="56.105625" lon="26.483837">
<ele>89.920959</ele>
<time>2010-08-29T15:03:20Z</time>
<desc>lat.=56.105625, lon.=26.483837, Alt.=89.920959m. Speed=22.320000m/h.</desc>
<speed>6.200000</speed>
</trkpt>
<trkpt lat="56.105637" lon="26.483740">
<ele>90.145569</ele>
<time>2010-08-29T15:03:21Z</time>
<desc>lat.=56.105637, lon.=26.483740, Alt.=90.145569m. Speed=20.087999m/h.</desc>
<speed>5.580000</speed>
</trkpt>
<trkpt lat="56.105644" lon="26.483648">
<ele>89.979553</ele>
<time>2010-08-29T15:03:22Z</time>
<desc>lat.=56.105644, lon.=26.483648, Alt.=89.979553m. Speed=20.124001m/h.</desc>
<speed>5.590000</speed>
</trkpt>
<trkpt lat="56.105652" lon="26.483555">
<ele>89.602600</ele>
<time>2010-08-29T15:03:23Z</time>
<desc>lat.=56.105652, lon.=26.483555, Alt.=89.602600m. Speed=21.167999m/h.</desc>
<speed>5.880000</speed>
</trkpt>
<trkpt lat="56.105659" lon="26.483452">
<ele>88.635803</ele>
<time>2010-08-29T15:03:24Z</time>
<desc>lat.=56.105659, lon.=26.483452, Alt.=88.635803m. Speed=21.816000m/h.</desc>
<speed>6.060000</speed>
</trkpt>
<trkpt lat="56.105671" lon="26.483349">
<ele>87.887756</ele>
<time>2010-08-29T15:03:25Z</time>
<desc>lat.=56.105671, lon.=26.483349, Alt.=87.887756m. Speed=22.500000m/h.</desc>
<speed>6.250000</speed>
</trkpt>
<trkpt lat="56.105686" lon="26.483240">
<ele>89.729553</ele>
<time>2010-08-29T15:03:26Z</time>
<desc>lat.=56.105686, lon.=26.483240, Alt.=89.729553m. Speed=22.464001m/h.</desc>
<speed>6.240000</speed>
</trkpt>
<trkpt lat="56.105698" lon="26.483149">
<ele>89.600647</ele>
<time>2010-08-29T15:03:27Z</time>
<desc>lat.=56.105698, lon.=26.483149, Alt.=89.600647m. Speed=21.312000m/h.</desc>
<speed>5.920000</speed>
</trkpt>
<trkpt lat="56.105713" lon="26.483057">
<ele>90.764709</ele>
<time>2010-08-29T15:03:28Z</time>
<desc>lat.=56.105713, lon.=26.483057, Alt.=90.764709m. Speed=20.195999m/h.</desc>
<speed>5.610000</speed>
</trkpt>
<trkpt lat="56.105721" lon="26.482977">
<ele>88.817444</ele>
<time>2010-08-29T15:03:29Z</time>
<desc>lat.=56.105721, lon.=26.482977, Alt.=88.817444m. Speed=18.719999m/h.</desc>
<speed>5.200000</speed>
</trkpt>
<trkpt lat="56.105728" lon="26.482897">
<ele>88.516663</ele>
<time>2010-08-29T15:03:30Z</time>
<desc>lat.=56.105728, lon.=26.482897, Alt.=88.516663m. Speed=18.396000m/h.</desc>
<speed>5.110000</speed>
</trkpt>
<trkpt lat="56.105740" lon="26.482811">
<ele>88.823303</ele>
<time>2010-08-29T15:03:31Z</time>
<desc>lat.=56.105740, lon.=26.482811, Alt.=88.823303m. Speed=19.440001m/h.</desc>
<speed>5.400000</speed>
</trkpt>
<trkpt lat="56.105747" lon="26.482723">
<ele>88.600647</ele>
<time>2010-08-29T15:03:32Z</time>
<desc>lat.=56.105747, lon.=26.482723, Alt.=88.600647m. Speed=20.304001m/h.</desc>
<speed>5.640000</speed>
</trkpt>
<trkpt lat="56.105759" lon="26.482639">
<ele>88.120178</ele>
<time>2010-08-29T15:03:33Z</time>
<desc>lat.=56.105759, lon.=26.482639, Alt.=88.120178m. Speed=20.520000m/h.</desc>
<speed>5.700000</speed>
</trkpt>
<trkpt lat="56.105770" lon="26.482550">
<ele>88.631897</ele>
<time>2010-08-29T15:03:34Z</time>
<desc>lat.=56.105770, lon.=26.482550, Alt.=88.631897m. Speed=20.232000m/h.</desc>
<speed>5.620000</speed>
</trkpt>
<trkpt lat="56.105782" lon="26.482462">
<ele>89.295959</ele>
<time>2010-08-29T15:03:35Z</time>
<desc>lat.=56.105782, lon.=26.482462, Alt.=89.295959m. Speed=18.972000m/h.</desc>
<speed>5.270000</speed>
</trkpt>
<trkpt lat="56.105793" lon="26.482372">
<ele>89.854553</ele>
<time>2010-08-29T15:03:36Z</time>
<desc>lat.=56.105793, lon.=26.482372, Alt.=89.854553m. Speed=18.540001m/h.</desc>
<speed>5.150000</speed>
</trkpt>
<trkpt lat="56.105801" lon="26.482290">
<ele>89.754944</ele>
<time>2010-08-29T15:03:37Z</time>
<desc>lat.=56.105801, lon.=26.482290, Alt.=89.754944m. Speed=17.784000m/h.</desc>
<speed>4.940000</speed>
</trkpt>
<trkpt lat="56.105804" lon="26.482208">
<ele>89.649475</ele>
<time>2010-08-29T15:03:38Z</time>
<desc>lat.=56.105804, lon.=26.482208, Alt.=89.649475m. Speed=18.756001m/h.</desc>
<speed>5.210000</speed>
</trkpt>
<trkpt lat="56.105812" lon="26.482126">
<ele>89.266663</ele>
<time>2010-08-29T15:03:39Z</time>
<desc>lat.=56.105812, lon.=26.482126, Alt.=89.266663m. Speed=19.296000m/h.</desc>
<speed>5.360000</speed>
</trkpt>
<trkpt lat="56.105820" lon="26.482042">
<ele>88.424866</ele>
<time>2010-08-29T15:03:40Z</time>
<desc>lat.=56.105820, lon.=26.482042, Alt.=88.424866m. Speed=19.799999m/h.</desc>
<speed>5.500000</speed>
</trkpt>
<trkpt lat="56.105827" lon="26.481953">
<ele>88.028381</ele>
<time>2010-08-29T15:03:41Z</time>
<desc>lat.=56.105827, lon.=26.481953, Alt.=88.028381m. Speed=20.808001m/h.</desc>
<speed>5.780000</speed>
</trkpt>
<trkpt lat="56.105835" lon="26.481863">
<ele>88.038147</ele>
<time>2010-08-29T15:03:42Z</time>
<desc>lat.=56.105835, lon.=26.481863, Alt.=88.038147m. Speed=20.664000m/h.</desc>
<speed>5.740000</speed>
</trkpt>
<trkpt lat="56.105846" lon="26.481777">
<ele>87.883850</ele>
<time>2010-08-29T15:03:43Z</time>
<desc>lat.=56.105846, lon.=26.481777, Alt.=87.883850m. Speed=19.584000m/h.</desc>
<speed>5.440000</speed>
</trkpt>
<trkpt lat="56.105850" lon="26.481691">
<ele>88.219788</ele>
<time>2010-08-29T15:03:44Z</time>
<desc>lat.=56.105850, lon.=26.481691, Alt.=88.219788m. Speed=19.224001m/h.</desc>
<speed>5.340000</speed>
</trkpt>
<trkpt lat="56.105858" lon="26.481602">
<ele>88.852600</ele>
<time>2010-08-29T15:03:45Z</time>
<desc>lat.=56.105858, lon.=26.481602, Alt.=88.852600m. Speed=19.440001m/h.</desc>
<speed>5.400000</speed>
</trkpt>
<trkpt lat="56.105869" lon="26.481510">
<ele>88.874084</ele>
<time>2010-08-29T15:03:46Z</time>
<desc>lat.=56.105869, lon.=26.481510, Alt.=88.874084m. Speed=20.771999m/h.</desc>
<speed>5.770000</speed>
</trkpt>
<trkpt lat="56.105885" lon="26.481417">
<ele>88.381897</ele>
<time>2010-08-29T15:03:47Z</time>
<desc>lat.=56.105885, lon.=26.481417, Alt.=88.381897m. Speed=21.672001m/h.</desc>
<speed>6.020000</speed>
</trkpt>
<trkpt lat="56.105896" lon="26.481323">
<ele>88.085022</ele>
<time>2010-08-29T15:03:48Z</time>
<desc>lat.=56.105896, lon.=26.481323, Alt.=88.085022m. Speed=20.879999m/h.</desc>
<speed>5.800000</speed>
</trkpt>
<trkpt lat="56.105904" lon="26.481228">
<ele>87.893616</ele>
<time>2010-08-29T15:03:49Z</time>
<desc>lat.=56.105904, lon.=26.481228, Alt.=87.893616m. Speed=21.275999m/h.</desc>
<speed>5.910000</speed>
</trkpt>
<trkpt lat="56.105907" lon="26.481136">
<ele>87.877991</ele>
<time>2010-08-29T15:03:50Z</time>
<desc>lat.=56.105907, lon.=26.481136, Alt.=87.877991m. Speed=20.844000m/h.</desc>
<speed>5.790000</speed>
</trkpt>
<trkpt lat="56.105911" lon="26.481043">
<ele>87.862366</ele>
<time>2010-08-29T15:03:51Z</time>
<desc>lat.=56.105911, lon.=26.481043, Alt.=87.862366m. Speed=21.528000m/h.</desc>
<speed>5.980000</speed>
</trkpt>
<trkpt lat="56.105919" lon="26.480947">
<ele>87.454163</ele>
<time>2010-08-29T15:03:52Z</time>
<desc>lat.=56.105919, lon.=26.480947, Alt.=87.454163m. Speed=22.392000m/h.</desc>
<speed>6.220000</speed>
</trkpt>
<trkpt lat="56.105927" lon="26.480850">
<ele>86.577209</ele>
<time>2010-08-29T15:03:53Z</time>
<desc>lat.=56.105927, lon.=26.480850, Alt.=86.577209m. Speed=22.968000m/h.</desc>
<speed>6.380000</speed>
</trkpt>
<trkpt lat="56.105938" lon="26.480745">
<ele>86.180725</ele>
<time>2010-08-29T15:03:54Z</time>
<desc>lat.=56.105938, lon.=26.480745, Alt.=86.180725m. Speed=24.191999m/h.</desc>
<speed>6.720000</speed>
</trkpt>
<trkpt lat="56.105953" lon="26.480640">
<ele>86.317444</ele>
<time>2010-08-29T15:03:55Z</time>
<desc>lat.=56.105953, lon.=26.480640, Alt.=86.317444m. Speed=23.580000m/h.</desc>
<speed>6.550000</speed>
</trkpt>
<trkpt lat="56.105961" lon="26.480536">
<ele>86.247131</ele>
<time>2010-08-29T15:03:56Z</time>
<desc>lat.=56.105961, lon.=26.480536, Alt.=86.247131m. Speed=23.760000m/h.</desc>
<speed>6.600000</speed>
</trkpt>
<trkpt lat="56.105972" lon="26.480431">
<ele>86.868225</ele>
<time>2010-08-29T15:03:57Z</time>
<desc>lat.=56.105972, lon.=26.480431, Alt.=86.868225m. Speed=22.176001m/h.</desc>
<speed>6.160000</speed>
</trkpt>
<trkpt lat="56.105976" lon="26.480326">
<ele>87.055725</ele>
<time>2010-08-29T15:03:58Z</time>
<desc>lat.=56.105976, lon.=26.480326, Alt.=87.055725m. Speed=22.500000m/h.</desc>
<speed>6.250000</speed>
</trkpt>
<trkpt lat="56.105984" lon="26.480217">
<ele>87.008850</ele>
<time>2010-08-29T15:03:59Z</time>
<desc>lat.=56.105984, lon.=26.480217, Alt.=87.008850m. Speed=23.184000m/h.</desc>
<speed>6.440000</speed>
</trkpt>
<trkpt lat="56.105991" lon="26.480114">
<ele>87.194397</ele>
<time>2010-08-29T15:04:00Z</time>
<desc>lat.=56.105991, lon.=26.480114, Alt.=87.194397m. Speed=23.219999m/h.</desc>
<speed>6.450000</speed>
</trkpt>
<trkpt lat="56.105984" lon="26.480011">
<ele>76.977600</ele>
<time>2010-08-29T15:04:01Z</time>
<desc>lat.=56.105984, lon.=26.480011, Alt.=76.977600m. Speed=21.708000m/h.</desc>
<speed>6.030000</speed>
</trkpt>
<trkpt lat="56.105999" lon="26.479904">
<ele>77.186584</ele>
<time>2010-08-29T15:04:02Z</time>
<desc>lat.=56.105999, lon.=26.479904, Alt.=77.186584m. Speed=25.128000m/h.</desc>
<speed>6.980000</speed>
</trkpt>
<trkpt lat="56.106007" lon="26.479799">
<ele>76.251038</ele>
<time>2010-08-29T15:04:03Z</time>
<desc>lat.=56.106007, lon.=26.479799, Alt.=76.251038m. Speed=23.436001m/h.</desc>
<speed>6.510000</speed>
</trkpt>
<trkpt lat="56.106018" lon="26.479696">
<ele>75.397522</ele>
<time>2010-08-29T15:04:04Z</time>
<desc>lat.=56.106018, lon.=26.479696, Alt.=75.397522m. Speed=23.004000m/h.</desc>
<speed>6.390000</speed>
</trkpt>
<trkpt lat="56.106026" lon="26.479593">
<ele>74.579163</ele>
<time>2010-08-29T15:04:05Z</time>
<desc>lat.=56.106026, lon.=26.479593, Alt.=74.579163m. Speed=22.176001m/h.</desc>
<speed>6.160000</speed>
</trkpt>
<trkpt lat="56.106033" lon="26.479494">
<ele>74.188538</ele>
<time>2010-08-29T15:04:06Z</time>
<desc>lat.=56.106033, lon.=26.479494, Alt.=74.188538m. Speed=21.888000m/h.</desc>
<speed>6.080000</speed>
</trkpt>
<trkpt lat="56.106045" lon="26.479401">
<ele>73.167053</ele>
<time>2010-08-29T15:04:07Z</time>
<desc>lat.=56.106045, lon.=26.479401, Alt.=73.167053m. Speed=20.736000m/h.</desc>
<speed>5.760000</speed>
</trkpt>
<trkpt lat="56.106052" lon="26.479309">
<ele>71.942444</ele>
<time>2010-08-29T15:04:08Z</time>
<desc>lat.=56.106052, lon.=26.479309, Alt.=71.942444m. Speed=20.879999m/h.</desc>
<speed>5.800000</speed>
</trkpt>
<trkpt lat="56.106064" lon="26.479216">
<ele>71.698303</ele>
<time>2010-08-29T15:04:09Z</time>
<desc>lat.=56.106064, lon.=26.479216, Alt.=71.698303m. Speed=21.240000m/h.</desc>
<speed>5.900000</speed>
</trkpt>
<trkpt lat="56.106075" lon="26.479128">
<ele>70.586975</ele>
<time>2010-08-29T15:04:10Z</time>
<desc>lat.=56.106075, lon.=26.479128, Alt.=70.586975m. Speed=20.052000m/h.</desc>
<speed>5.570000</speed>
</trkpt>
<trkpt lat="56.106083" lon="26.479044">
<ele>71.051819</ele>
<time>2010-08-29T15:04:11Z</time>
<desc>lat.=56.106083, lon.=26.479044, Alt.=71.051819m. Speed=19.764000m/h.</desc>
<speed>5.490000</speed>
</trkpt>
<trkpt lat="56.106094" lon="26.478964">
<ele>71.889709</ele>
<time>2010-08-29T15:04:12Z</time>
<desc>lat.=56.106094, lon.=26.478964, Alt.=71.889709m. Speed=18.756001m/h.</desc>
<speed>5.210000</speed>
</trkpt>
<trkpt lat="56.106106" lon="26.478880">
<ele>71.727600</ele>
<time>2010-08-29T15:04:13Z</time>
<desc>lat.=56.106106, lon.=26.478880, Alt.=71.727600m. Speed=18.504000m/h.</desc>
<speed>5.140000</speed>
</trkpt>
<trkpt lat="56.106117" lon="26.478800">
<ele>71.817444</ele>
<time>2010-08-29T15:04:14Z</time>
<desc>lat.=56.106117, lon.=26.478800, Alt.=71.817444m. Speed=18.252001m/h.</desc>
<speed>5.070000</speed>
</trkpt>
<trkpt lat="56.106121" lon="26.478718">
<ele>71.833069</ele>
<time>2010-08-29T15:04:15Z</time>
<desc>lat.=56.106121, lon.=26.478718, Alt.=71.833069m. Speed=18.252001m/h.</desc>
<speed>5.070000</speed>
</trkpt>
<trkpt lat="56.106121" lon="26.478647">
<ele>72.251038</ele>
<time>2010-08-29T15:04:16Z</time>
<desc>lat.=56.106121, lon.=26.478647, Alt.=72.251038m. Speed=17.388000m/h.</desc>
<speed>4.830000</speed>
</trkpt>
<trkpt lat="56.106129" lon="26.478579">
<ele>73.233459</ele>
<time>2010-08-29T15:04:17Z</time>
<desc>lat.=56.106129, lon.=26.478579, Alt.=73.233459m. Speed=15.840000m/h.</desc>
<speed>4.400000</speed>
</trkpt>
<trkpt lat="56.106140" lon="26.478510">
<ele>74.876038</ele>
<time>2010-08-29T15:04:18Z</time>
<desc>lat.=56.106140, lon.=26.478510, Alt.=74.876038m. Speed=15.588000m/h.</desc>
<speed>4.330000</speed>
</trkpt>
<trkpt lat="56.106148" lon="26.478445">
<ele>74.858459</ele>
<time>2010-08-29T15:04:19Z</time>
<desc>lat.=56.106148, lon.=26.478445, Alt.=74.858459m. Speed=14.976000m/h.</desc>
<speed>4.160000</speed>
</trkpt>
<trkpt lat="56.106152" lon="26.478382">
<ele>74.733459</ele>
<time>2010-08-29T15:04:20Z</time>
<desc>lat.=56.106152, lon.=26.478382, Alt.=74.733459m. Speed=15.120000m/h.</desc>
<speed>4.200000</speed>
</trkpt>
<trkpt lat="56.106159" lon="26.478321">
<ele>76.001038</ele>
<time>2010-08-29T15:04:21Z</time>
<desc>lat.=56.106159, lon.=26.478321, Alt.=76.001038m. Speed=15.012000m/h.</desc>
<speed>4.170000</speed>
</trkpt>
<trkpt lat="56.106167" lon="26.478254">
<ele>76.383850</ele>
<time>2010-08-29T15:04:22Z</time>
<desc>lat.=56.106167, lon.=26.478254, Alt.=76.383850m. Speed=15.408000m/h.</desc>
<speed>4.280000</speed>
</trkpt>
<trkpt lat="56.106174" lon="26.478184">
<ele>76.696350</ele>
<time>2010-08-29T15:04:23Z</time>
<desc>lat.=56.106174, lon.=26.478184, Alt.=76.696350m. Speed=16.848000m/h.</desc>
<speed>4.680000</speed>
</trkpt>
<trkpt lat="56.106190" lon="26.478113">
<ele>77.295959</ele>
<time>2010-08-29T15:04:24Z</time>
<desc>lat.=56.106190, lon.=26.478113, Alt.=77.295959m. Speed=16.308001m/h.</desc>
<speed>4.530000</speed>
</trkpt>
<trkpt lat="56.106194" lon="26.478041">
<ele>77.690491</ele>
<time>2010-08-29T15:04:25Z</time>
<desc>lat.=56.106194, lon.=26.478041, Alt.=77.690491m. Speed=16.379999m/h.</desc>
<speed>4.550000</speed>
</trkpt>
<trkpt lat="56.106205" lon="26.477966">
<ele>79.055725</ele>
<time>2010-08-29T15:04:26Z</time>
<desc>lat.=56.106205, lon.=26.477966, Alt.=79.055725m. Speed=17.604000m/h.</desc>
<speed>4.890000</speed>
</trkpt>
<trkpt lat="56.106220" lon="26.477884">
<ele>79.676819</ele>
<time>2010-08-29T15:04:27Z</time>
<desc>lat.=56.106220, lon.=26.477884, Alt.=79.676819m. Speed=18.792000m/h.</desc>
<speed>5.220000</speed>
</trkpt>
<trkpt lat="56.106232" lon="26.477800">
<ele>80.524475</ele>
<time>2010-08-29T15:04:28Z</time>
<desc>lat.=56.106232, lon.=26.477800, Alt.=80.524475m. Speed=19.511999m/h.</desc>
<speed>5.420000</speed>
</trkpt>
<trkpt lat="56.106236" lon="26.477713">
<ele>79.831116</ele>
<time>2010-08-29T15:04:29Z</time>
<desc>lat.=56.106236, lon.=26.477713, Alt.=79.831116m. Speed=20.052000m/h.</desc>
<speed>5.570000</speed>
</trkpt>
<trkpt lat="56.106243" lon="26.477621">
<ele>79.735413</ele>
<time>2010-08-29T15:04:30Z</time>
<desc>lat.=56.106243, lon.=26.477621, Alt.=79.735413m. Speed=21.024000m/h.</desc>
<speed>5.840000</speed>
</trkpt>
<trkpt lat="56.106251" lon="26.477528">
<ele>79.586975</ele>
<time>2010-08-29T15:04:31Z</time>
<desc>lat.=56.106251, lon.=26.477528, Alt.=79.586975m. Speed=21.132000m/h.</desc>
<speed>5.870000</speed>
</trkpt>
<trkpt lat="56.106258" lon="26.477440">
<ele>79.329163</ele>
<time>2010-08-29T15:04:32Z</time>
<desc>lat.=56.106258, lon.=26.477440, Alt.=79.329163m. Speed=19.944000m/h.</desc>
<speed>5.540000</speed>
</trkpt>
<trkpt lat="56.106270" lon="26.477354">
<ele>79.040100</ele>
<time>2010-08-29T15:04:33Z</time>
<desc>lat.=56.106270, lon.=26.477354, Alt.=79.040100m. Speed=19.584000m/h.</desc>
<speed>5.440000</speed>
</trkpt>
<trkpt lat="56.106274" lon="26.477274">
<ele>78.844788</ele>
<time>2010-08-29T15:04:34Z</time>
<desc>lat.=56.106274, lon.=26.477274, Alt.=78.844788m. Speed=16.992001m/h.</desc>
<speed>4.720000</speed>
</trkpt>
<trkpt lat="56.106274" lon="26.477200">
<ele>78.545959</ele>
<time>2010-08-29T15:04:35Z</time>
<desc>lat.=56.106274, lon.=26.477200, Alt.=78.545959m. Speed=16.559999m/h.</desc>
<speed>4.600000</speed>
</trkpt>
<trkpt lat="56.106277" lon="26.477133">
<ele>78.428772</ele>
<time>2010-08-29T15:04:36Z</time>
<desc>lat.=56.106277, lon.=26.477133, Alt.=78.428772m. Speed=13.860000m/h.</desc>
<speed>3.850000</speed>
</trkpt>
<trkpt lat="56.106277" lon="26.477066">
<ele>78.104553</ele>
<time>2010-08-29T15:04:37Z</time>
<desc>lat.=56.106277, lon.=26.477066, Alt.=78.104553m. Speed=15.768000m/h.</desc>
<speed>4.380000</speed>
</trkpt>
<trkpt lat="56.106281" lon="26.476999">
<ele>78.004944</ele>
<time>2010-08-29T15:04:38Z</time>
<desc>lat.=56.106281, lon.=26.476999, Alt.=78.004944m. Speed=16.488001m/h.</desc>
<speed>4.580000</speed>
</trkpt>
<trkpt lat="56.106285" lon="26.476940">
<ele>78.239319</ele>
<time>2010-08-29T15:04:39Z</time>
<desc>lat.=56.106285, lon.=26.476940, Alt.=78.239319m. Speed=13.500000m/h.</desc>
<speed>3.750000</speed>
</trkpt>
<trkpt lat="56.106293" lon="26.476875">
<ele>78.596741</ele>
<time>2010-08-29T15:04:40Z</time>
<desc>lat.=56.106293, lon.=26.476875, Alt.=78.596741m. Speed=12.996000m/h.</desc>
<speed>3.610000</speed>
</trkpt>
<trkpt lat="56.106308" lon="26.476788">
<ele>78.678772</ele>
<time>2010-08-29T15:04:41Z</time>
<desc>lat.=56.106308, lon.=26.476788, Alt.=78.678772m. Speed=16.200001m/h.</desc>
<speed>4.500000</speed>
</trkpt>
<trkpt lat="56.106327" lon="26.476707">
<ele>78.641663</ele>
<time>2010-08-29T15:04:42Z</time>
<desc>lat.=56.106327, lon.=26.476707, Alt.=78.641663m. Speed=16.632000m/h.</desc>
<speed>4.620000</speed>
</trkpt>
<trkpt lat="56.106339" lon="26.476631">
<ele>78.573303</ele>
<time>2010-08-29T15:04:43Z</time>
<desc>lat.=56.106339, lon.=26.476631, Alt.=78.573303m. Speed=18.900000m/h.</desc>
<speed>5.250000</speed>
</trkpt>
<trkpt lat="56.106354" lon="26.476542">
<ele>78.809631</ele>
<time>2010-08-29T15:04:44Z</time>
<desc>lat.=56.106354, lon.=26.476542, Alt.=78.809631m. Speed=17.496000m/h.</desc>
<speed>4.860000</speed>
</trkpt>
<trkpt lat="56.106365" lon="26.476448">
<ele>78.672913</ele>
<time>2010-08-29T15:04:45Z</time>
<desc>lat.=56.106365, lon.=26.476448, Alt.=78.672913m. Speed=19.728001m/h.</desc>
<speed>5.480000</speed>
</trkpt>
<trkpt lat="56.106373" lon="26.476351">
<ele>79.116272</ele>
<time>2010-08-29T15:04:46Z</time>
<desc>lat.=56.106373, lon.=26.476351, Alt.=79.116272m. Speed=21.240000m/h.</desc>
<speed>5.900000</speed>
</trkpt>
<trkpt lat="56.106384" lon="26.476252">
<ele>79.360413</ele>
<time>2010-08-29T15:04:47Z</time>
<desc>lat.=56.106384, lon.=26.476252, Alt.=79.360413m. Speed=21.672001m/h.</desc>
<speed>6.020000</speed>
</trkpt>
<trkpt lat="56.106392" lon="26.476152">
<ele>79.395569</ele>
<time>2010-08-29T15:04:48Z</time>
<desc>lat.=56.106392, lon.=26.476152, Alt.=79.395569m. Speed=22.176001m/h.</desc>
<speed>6.160000</speed>
</trkpt>
<trkpt lat="56.106403" lon="26.476055">
<ele>79.458069</ele>
<time>2010-08-29T15:04:49Z</time>
<desc>lat.=56.106403, lon.=26.476055, Alt.=79.458069m. Speed=21.888000m/h.</desc>
<speed>6.080000</speed>
</trkpt>
<trkpt lat="56.106415" lon="26.475956">
<ele>79.975647</ele>
<time>2010-08-29T15:04:50Z</time>
<desc>lat.=56.106415, lon.=26.475956, Alt.=79.975647m. Speed=21.851999m/h.</desc>
<speed>6.070000</speed>
</trkpt>
<trkpt lat="56.106426" lon="26.475853">
<ele>81.419006</ele>
<time>2010-08-29T15:04:51Z</time>
<desc>lat.=56.106426, lon.=26.475853, Alt.=81.419006m. Speed=23.112000m/h.</desc>
<speed>6.420000</speed>
</trkpt>
<trkpt lat="56.106438" lon="26.475754">
<ele>83.317444</ele>
<time>2010-08-29T15:04:52Z</time>
<desc>lat.=56.106438, lon.=26.475754, Alt.=83.317444m. Speed=21.600000m/h.</desc>
<speed>6.000000</speed>
</trkpt>
<trkpt lat="56.106453" lon="26.475655">
<ele>84.090881</ele>
<time>2010-08-29T15:04:53Z</time>
<desc>lat.=56.106453, lon.=26.475655, Alt.=84.090881m. Speed=24.372000m/h.</desc>
<speed>6.770000</speed>
</trkpt>
<trkpt lat="56.106464" lon="26.475552">
<ele>84.883850</ele>
<time>2010-08-29T15:04:54Z</time>
<desc>lat.=56.106464, lon.=26.475552, Alt.=84.883850m. Speed=22.572001m/h.</desc>
<speed>6.270000</speed>
</trkpt>
<trkpt lat="56.106476" lon="26.475449">
<ele>85.323303</ele>
<time>2010-08-29T15:04:55Z</time>
<desc>lat.=56.106476, lon.=26.475449, Alt.=85.323303m. Speed=23.652000m/h.</desc>
<speed>6.570000</speed>
</trkpt>
<trkpt lat="56.106487" lon="26.475344">
<ele>85.901428</ele>
<time>2010-08-29T15:04:56Z</time>
<desc>lat.=56.106487, lon.=26.475344, Alt.=85.901428m. Speed=23.868000m/h.</desc>
<speed>6.630000</speed>
</trkpt>
<trkpt lat="56.106499" lon="26.475241">
<ele>86.528381</ele>
<time>2010-08-29T15:04:57Z</time>
<desc>lat.=56.106499, lon.=26.475241, Alt.=86.528381m. Speed=23.652000m/h.</desc>
<speed>6.570000</speed>
</trkpt>
<trkpt lat="56.106514" lon="26.475132">
<ele>86.071350</ele>
<time>2010-08-29T15:04:58Z</time>
<desc>lat.=56.106514, lon.=26.475132, Alt.=86.071350m. Speed=23.615999m/h.</desc>
<speed>6.560000</speed>
</trkpt>
<trkpt lat="56.106525" lon="26.475031">
<ele>87.278381</ele>
<time>2010-08-29T15:04:59Z</time>
<desc>lat.=56.106525, lon.=26.475031, Alt.=87.278381m. Speed=23.184000m/h.</desc>
<speed>6.440000</speed>
</trkpt>
<trkpt lat="56.106537" lon="26.474926">
<ele>87.622131</ele>
<time>2010-08-29T15:05:00Z</time>
<desc>lat.=56.106537, lon.=26.474926, Alt.=87.622131m. Speed=23.327999m/h.</desc>
<speed>6.480000</speed>
</trkpt>
<trkpt lat="56.106548" lon="26.474823">
<ele>86.542053</ele>
<time>2010-08-29T15:05:01Z</time>
<desc>lat.=56.106548, lon.=26.474823, Alt.=86.542053m. Speed=22.788000m/h.</desc>
<speed>6.330000</speed>
</trkpt>
<trkpt lat="56.106560" lon="26.474728">
<ele>86.352600</ele>
<time>2010-08-29T15:05:02Z</time>
<desc>lat.=56.106560, lon.=26.474728, Alt.=86.352600m. Speed=21.959999m/h.</desc>
<speed>6.100000</speed>
</trkpt>
<trkpt lat="56.106575" lon="26.474634">
<ele>87.178772</ele>
<time>2010-08-29T15:05:03Z</time>
<desc>lat.=56.106575, lon.=26.474634, Alt.=87.178772m. Speed=21.600000m/h.</desc>
<speed>6.000000</speed>
</trkpt>
<trkpt lat="56.106590" lon="26.474545">
<ele>87.563538</ele>
<time>2010-08-29T15:05:04Z</time>
<desc>lat.=56.106590, lon.=26.474545, Alt.=87.563538m. Speed=21.167999m/h.</desc>
<speed>5.880000</speed>
</trkpt>
<trkpt lat="56.106598" lon="26.474453">
<ele>87.602600</ele>
<time>2010-08-29T15:05:05Z</time>
<desc>lat.=56.106598, lon.=26.474453, Alt.=87.602600m. Speed=20.808001m/h.</desc>
<speed>5.780000</speed>
</trkpt>
<trkpt lat="56.106606" lon="26.474363">
<ele>88.379944</ele>
<time>2010-08-29T15:05:06Z</time>
<desc>lat.=56.106606, lon.=26.474363, Alt.=88.379944m. Speed=20.700001m/h.</desc>
<speed>5.750000</speed>
</trkpt>
<trkpt lat="56.106613" lon="26.474277">
<ele>88.975647</ele>
<time>2010-08-29T15:05:07Z</time>
<desc>lat.=56.106613, lon.=26.474277, Alt.=88.975647m. Speed=20.052000m/h.</desc>
<speed>5.570000</speed>
</trkpt>
<trkpt lat="56.106621" lon="26.474192">
<ele>89.055725</ele>
<time>2010-08-29T15:05:08Z</time>
<desc>lat.=56.106621, lon.=26.474192, Alt.=89.055725m. Speed=19.656000m/h.</desc>
<speed>5.460000</speed>
</trkpt>
<trkpt lat="56.106628" lon="26.474110">
<ele>89.428772</ele>
<time>2010-08-29T15:05:09Z</time>
<desc>lat.=56.106628, lon.=26.474110, Alt.=89.428772m. Speed=17.172001m/h.</desc>
<speed>4.770000</speed>
</trkpt>
<trkpt lat="56.106636" lon="26.474049">
<ele>89.670959</ele>
<time>2010-08-29T15:05:10Z</time>
<desc>lat.=56.106636, lon.=26.474049, Alt.=89.670959m. Speed=14.904000m/h.</desc>
<speed>4.140000</speed>
</trkpt>
<trkpt lat="56.106644" lon="26.473986">
<ele>90.075256</ele>
<time>2010-08-29T15:05:11Z</time>
<desc>lat.=56.106644, lon.=26.473986, Alt.=90.075256m. Speed=13.104000m/h.</desc>
<speed>3.640000</speed>
</trkpt>
<trkpt lat="56.106647" lon="26.473934">
<ele>90.544006</ele>
<time>2010-08-29T15:05:12Z</time>
<desc>lat.=56.106647, lon.=26.473934, Alt.=90.544006m. Speed=11.340000m/h.</desc>
<speed>3.150000</speed>
</trkpt>
<trkpt lat="56.106647" lon="26.473885">
<ele>92.012756</ele>
<time>2010-08-29T15:05:13Z</time>
<desc>lat.=56.106647, lon.=26.473885, Alt.=92.012756m. Speed=10.872000m/h.</desc>
<speed>3.020000</speed>
</trkpt>
<trkpt lat="56.106651" lon="26.473839">
<ele>92.280334</ele>
<time>2010-08-29T15:05:14Z</time>
<desc>lat.=56.106651, lon.=26.473839, Alt.=92.280334m. Speed=10.368000m/h.</desc>
<speed>2.880000</speed>
</trkpt>
<trkpt lat="56.106659" lon="26.473801">
<ele>92.633850</ele>
<time>2010-08-29T15:05:15Z</time>
<desc>lat.=56.106659, lon.=26.473801, Alt.=92.633850m. Speed=10.800000m/h.</desc>
<speed>3.000000</speed>
</trkpt>
<trkpt lat="56.106667" lon="26.473755">
<ele>92.555725</ele>
<time>2010-08-29T15:05:16Z</time>
<desc>lat.=56.106667, lon.=26.473755, Alt.=92.555725m. Speed=10.728000m/h.</desc>
<speed>2.980000</speed>
</trkpt>
<trkpt lat="56.106670" lon="26.473701">
<ele>93.633850</ele>
<time>2010-08-29T15:05:17Z</time>
<desc>lat.=56.106670, lon.=26.473701, Alt.=93.633850m. Speed=11.340000m/h.</desc>
<speed>3.150000</speed>
</trkpt>
<trkpt lat="56.106674" lon="26.473656">
<ele>93.895569</ele>
<time>2010-08-29T15:05:18Z</time>
<desc>lat.=56.106674, lon.=26.473656, Alt.=93.895569m. Speed=10.476000m/h.</desc>
<speed>2.910000</speed>
</trkpt>
<trkpt lat="56.106674" lon="26.473610">
<ele>94.094788</ele>
<time>2010-08-29T15:05:19Z</time>
<desc>lat.=56.106674, lon.=26.473610, Alt.=94.094788m. Speed=10.620000m/h.</desc>
<speed>2.950000</speed>
</trkpt>
<trkpt lat="56.106678" lon="26.473572">
<ele>94.364319</ele>
<time>2010-08-29T15:05:20Z</time>
<desc>lat.=56.106678, lon.=26.473572, Alt.=94.364319m. Speed=9.864000m/h.</desc>
<speed>2.740000</speed>
</trkpt>
<trkpt lat="56.106686" lon="26.473539">
<ele>95.596741</ele>
<time>2010-08-29T15:05:21Z</time>
<desc>lat.=56.106686, lon.=26.473539, Alt.=95.596741m. Speed=11.556000m/h.</desc>
<speed>3.210000</speed>
</trkpt>
<trkpt lat="56.106689" lon="26.473494">
<ele>95.233459</ele>
<time>2010-08-29T15:05:22Z</time>
<desc>lat.=56.106689, lon.=26.473494, Alt.=95.233459m. Speed=10.980000m/h.</desc>
<speed>3.050000</speed>
</trkpt>
<trkpt lat="56.106693" lon="26.473452">
<ele>95.592834</ele>
<time>2010-08-29T15:05:23Z</time>
<desc>lat.=56.106693, lon.=26.473452, Alt.=95.592834m. Speed=9.540000m/h.</desc>
<speed>2.650000</speed>
</trkpt>
<trkpt lat="56.106697" lon="26.473392">
<ele>95.338928</ele>
<time>2010-08-29T15:05:24Z</time>
<desc>lat.=56.106697, lon.=26.473392, Alt.=95.338928m. Speed=11.016000m/h.</desc>
<speed>3.060000</speed>
</trkpt>
<trkpt lat="56.106705" lon="26.473343">
<ele>95.116272</ele>
<time>2010-08-29T15:05:25Z</time>
<desc>lat.=56.106705, lon.=26.473343, Alt.=95.116272m. Speed=10.368000m/h.</desc>
<speed>2.880000</speed>
</trkpt>
<trkpt lat="56.106709" lon="26.473301">
<ele>95.331116</ele>
<time>2010-08-29T15:05:26Z</time>
<desc>lat.=56.106709, lon.=26.473301, Alt.=95.331116m. Speed=11.088000m/h.</desc>
<speed>3.080000</speed>
</trkpt>
<trkpt lat="56.106712" lon="26.473255">
<ele>95.823303</ele>
<time>2010-08-29T15:05:27Z</time>
<desc>lat.=56.106712, lon.=26.473255, Alt.=95.823303m. Speed=10.584000m/h.</desc>
<speed>2.940000</speed>
</trkpt>
<trkpt lat="56.106716" lon="26.473207">
<ele>95.848694</ele>
<time>2010-08-29T15:05:28Z</time>
<desc>lat.=56.106716, lon.=26.473207, Alt.=95.848694m. Speed=10.944000m/h.</desc>
<speed>3.040000</speed>
</trkpt>
<trkpt lat="56.106724" lon="26.473145">
<ele>95.483459</ele>
<time>2010-08-29T15:05:29Z</time>
<desc>lat.=56.106724, lon.=26.473145, Alt.=95.483459m. Speed=11.808000m/h.</desc>
<speed>3.280000</speed>
</trkpt>
<trkpt lat="56.106728" lon="26.473087">
<ele>95.252991</ele>
<time>2010-08-29T15:05:30Z</time>
<desc>lat.=56.106728, lon.=26.473087, Alt.=95.252991m. Speed=12.780000m/h.</desc>
<speed>3.550000</speed>
</trkpt>
<trkpt lat="56.106735" lon="26.473026">
<ele>95.245178</ele>
<time>2010-08-29T15:05:31Z</time>
<desc>lat.=56.106735, lon.=26.473026, Alt.=95.245178m. Speed=12.780000m/h.</desc>
<speed>3.550000</speed>
</trkpt>
<trkpt lat="56.106739" lon="26.472967">
<ele>95.479553</ele>
<time>2010-08-29T15:05:32Z</time>
<desc>lat.=56.106739, lon.=26.472967, Alt.=95.479553m. Speed=13.824000m/h.</desc>
<speed>3.840000</speed>
</trkpt>
<trkpt lat="56.106747" lon="26.472900">
<ele>95.637756</ele>
<time>2010-08-29T15:05:33Z</time>
<desc>lat.=56.106747, lon.=26.472900, Alt.=95.637756m. Speed=14.616000m/h.</desc>
<speed>4.060000</speed>
</trkpt>
<trkpt lat="56.106750" lon="26.472836">
<ele>95.735413</ele>
<time>2010-08-29T15:05:34Z</time>
<desc>lat.=56.106750, lon.=26.472836, Alt.=95.735413m. Speed=15.156000m/h.</desc>
<speed>4.210000</speed>
</trkpt>
<trkpt lat="56.106754" lon="26.472769">
<ele>95.805725</ele>
<time>2010-08-29T15:05:35Z</time>
<desc>lat.=56.106754, lon.=26.472769, Alt.=95.805725m. Speed=15.588000m/h.</desc>
<speed>4.330000</speed>
</trkpt>
<trkpt lat="56.106758" lon="26.472706">
<ele>96.044006</ele>
<time>2010-08-29T15:05:36Z</time>
<desc>lat.=56.106758, lon.=26.472706, Alt.=96.044006m. Speed=16.056000m/h.</desc>
<speed>4.460000</speed>
</trkpt>
<trkpt lat="56.106762" lon="26.472633">
<ele>95.993225</ele>
<time>2010-08-29T15:05:37Z</time>
<desc>lat.=56.106762, lon.=26.472633, Alt.=95.993225m. Speed=15.768000m/h.</desc>
<speed>4.380000</speed>
</trkpt>
<trkpt lat="56.106762" lon="26.472559">
<ele>96.274475</ele>
<time>2010-08-29T15:05:38Z</time>
<desc>lat.=56.106762, lon.=26.472559, Alt.=96.274475m. Speed=16.812000m/h.</desc>
<speed>4.670000</speed>
</trkpt>
<trkpt lat="56.106766" lon="26.472483">
<ele>96.542053</ele>
<time>2010-08-29T15:05:39Z</time>
<desc>lat.=56.106766, lon.=26.472483, Alt.=96.542053m. Speed=16.704000m/h.</desc>
<speed>4.640000</speed>
</trkpt>
<trkpt lat="56.106762" lon="26.472397">
<ele>96.733459</ele>
<time>2010-08-29T15:05:40Z</time>
<desc>lat.=56.106762, lon.=26.472397, Alt.=96.733459m. Speed=19.007999m/h.</desc>
<speed>5.280000</speed>
</trkpt>
<trkpt lat="56.106762" lon="26.472309">
<ele>97.127991</ele>
<time>2010-08-29T15:05:41Z</time>
<desc>lat.=56.106762, lon.=26.472309, Alt.=97.127991m. Speed=19.656000m/h.</desc>
<speed>5.460000</speed>
</trkpt>
<trkpt lat="56.106758" lon="26.472214">
<ele>97.104553</ele>
<time>2010-08-29T15:05:42Z</time>
<desc>lat.=56.106758, lon.=26.472214, Alt.=97.104553m. Speed=20.628000m/h.</desc>
<speed>5.730000</speed>
</trkpt>
<trkpt lat="56.106762" lon="26.472115">
<ele>97.014709</ele>
<time>2010-08-29T15:05:43Z</time>
<desc>lat.=56.106762, lon.=26.472115, Alt.=97.014709m. Speed=21.708000m/h.</desc>
<speed>6.030000</speed>
</trkpt>
<trkpt lat="56.106762" lon="26.472012">
<ele>97.919006</ele>
<time>2010-08-29T15:05:44Z</time>
<desc>lat.=56.106762, lon.=26.472012, Alt.=97.919006m. Speed=22.104000m/h.</desc>
<speed>6.140000</speed>
</trkpt>
<trkpt lat="56.106762" lon="26.471909">
<ele>97.835022</ele>
<time>2010-08-29T15:05:45Z</time>
<desc>lat.=56.106762, lon.=26.471909, Alt.=97.835022m. Speed=22.643999m/h.</desc>
<speed>6.290000</speed>
</trkpt>
<trkpt lat="56.106766" lon="26.471802">
<ele>98.590881</ele>
<time>2010-08-29T15:05:46Z</time>
<desc>lat.=56.106766, lon.=26.471802, Alt.=98.590881m. Speed=22.247999m/h.</desc>
<speed>6.180000</speed>
</trkpt>
<trkpt lat="56.106766" lon="26.471701">
<ele>98.731506</ele>
<time>2010-08-29T15:05:47Z</time>
<desc>lat.=56.106766, lon.=26.471701, Alt.=98.731506m. Speed=23.219999m/h.</desc>
<speed>6.450000</speed>
</trkpt>
<trkpt lat="56.106766" lon="26.471590">
<ele>98.440491</ele>
<time>2010-08-29T15:05:48Z</time>
<desc>lat.=56.106766, lon.=26.471590, Alt.=98.440491m. Speed=23.219999m/h.</desc>
<speed>6.450000</speed>
</trkpt>
<trkpt lat="56.106762" lon="26.471483">
<ele>99.463928</ele>
<time>2010-08-29T15:05:49Z</time>
<desc>lat.=56.106762, lon.=26.471483, Alt.=99.463928m. Speed=23.184000m/h.</desc>
<speed>6.440000</speed>
</trkpt>
<trkpt lat="56.106758" lon="26.471375">
<ele>99.036194</ele>
<time>2010-08-29T15:05:50Z</time>
<desc>lat.=56.106758, lon.=26.471375, Alt.=99.036194m. Speed=24.480000m/h.</desc>
<speed>6.800000</speed>
</trkpt>
<trkpt lat="56.106750" lon="26.471264">
<ele>98.381897</ele>
<time>2010-08-29T15:05:51Z</time>
<desc>lat.=56.106750, lon.=26.471264, Alt.=98.381897m. Speed=24.191999m/h.</desc>
<speed>6.720000</speed>
</trkpt>
<trkpt lat="56.106739" lon="26.471157">
<ele>98.348694</ele>
<time>2010-08-29T15:05:52Z</time>
<desc>lat.=56.106739, lon.=26.471157, Alt.=98.348694m. Speed=23.832001m/h.</desc>
<speed>6.620000</speed>
</trkpt>
<trkpt lat="56.106728" lon="26.471037">
<ele>97.389709</ele>
<time>2010-08-29T15:05:53Z</time>
<desc>lat.=56.106728, lon.=26.471037, Alt.=97.389709m. Speed=23.507999m/h.</desc>
<speed>6.530000</speed>
</trkpt>
<trkpt lat="56.106716" lon="26.470919">
<ele>95.637756</ele>
<time>2010-08-29T15:05:54Z</time>
<desc>lat.=56.106716, lon.=26.470919, Alt.=95.637756m. Speed=23.076000m/h.</desc>
<speed>6.410000</speed>
</trkpt>
<trkpt lat="56.106705" lon="26.470816">
<ele>93.965881</ele>
<time>2010-08-29T15:05:55Z</time>
<desc>lat.=56.106705, lon.=26.470816, Alt.=93.965881m. Speed=22.572001m/h.</desc>
<speed>6.270000</speed>
</trkpt>
<trkpt lat="56.106701" lon="26.470715">
<ele>93.997131</ele>
<time>2010-08-29T15:05:56Z</time>
<desc>lat.=56.106701, lon.=26.470715, Alt.=93.997131m. Speed=22.284000m/h.</desc>
<speed>6.190000</speed>
</trkpt>
<trkpt lat="56.106693" lon="26.470615">
<ele>94.170959</ele>
<time>2010-08-29T15:05:57Z</time>
<desc>lat.=56.106693, lon.=26.470615, Alt.=94.170959m. Speed=22.680000m/h.</desc>
<speed>6.300000</speed>
</trkpt>
<trkpt lat="56.106686" lon="26.470514">
<ele>94.622131</ele>
<time>2010-08-29T15:05:58Z</time>
<desc>lat.=56.106686, lon.=26.470514, Alt.=94.622131m. Speed=23.112000m/h.</desc>
<speed>6.420000</speed>
</trkpt>
<trkpt lat="56.106678" lon="26.470409">
<ele>94.483459</ele>
<time>2010-08-29T15:05:59Z</time>
<desc>lat.=56.106678, lon.=26.470409, Alt.=94.483459m. Speed=23.004000m/h.</desc>
<speed>6.390000</speed>
</trkpt>
<trkpt lat="56.106667" lon="26.470306">
<ele>94.680725</ele>
<time>2010-08-29T15:06:00Z</time>
<desc>lat.=56.106667, lon.=26.470306, Alt.=94.680725m. Speed=22.896000m/h.</desc>
<speed>6.360000</speed>
</trkpt>
<trkpt lat="56.106655" lon="26.470203">
<ele>94.338928</ele>
<time>2010-08-29T15:06:01Z</time>
<desc>lat.=56.106655, lon.=26.470203, Alt.=94.338928m. Speed=22.535999m/h.</desc>
<speed>6.260000</speed>
</trkpt>
<trkpt lat="56.106644" lon="26.470104">
<ele>94.372131</ele>
<time>2010-08-29T15:06:02Z</time>
<desc>lat.=56.106644, lon.=26.470104, Alt.=94.372131m. Speed=22.464001m/h.</desc>
<speed>6.240000</speed>
</trkpt>
<trkpt lat="56.106636" lon="26.470003">
<ele>95.147522</ele>
<time>2010-08-29T15:06:03Z</time>
<desc>lat.=56.106636, lon.=26.470003, Alt.=95.147522m. Speed=22.068001m/h.</desc>
<speed>6.130000</speed>
</trkpt>
<trkpt lat="56.106628" lon="26.469908">
<ele>95.590881</ele>
<time>2010-08-29T15:06:04Z</time>
<desc>lat.=56.106628, lon.=26.469908, Alt.=95.590881m. Speed=21.563999m/h.</desc>
<speed>5.990000</speed>
</trkpt>
<trkpt lat="56.106621" lon="26.469814">
<ele>96.715881</ele>
<time>2010-08-29T15:06:05Z</time>
<desc>lat.=56.106621, lon.=26.469814, Alt.=96.715881m. Speed=20.916000m/h.</desc>
<speed>5.810000</speed>
</trkpt>
<trkpt lat="56.106613" lon="26.469725">
<ele>96.788147</ele>
<time>2010-08-29T15:06:06Z</time>
<desc>lat.=56.106613, lon.=26.469725, Alt.=96.788147m. Speed=19.368000m/h.</desc>
<speed>5.380000</speed>
</trkpt>
<trkpt lat="56.106606" lon="26.469646">
<ele>96.879944</ele>
<time>2010-08-29T15:06:07Z</time>
<desc>lat.=56.106606, lon.=26.469646, Alt.=96.879944m. Speed=16.452000m/h.</desc>
<speed>4.570000</speed>
</trkpt>
<trkpt lat="56.106598" lon="26.469570">
<ele>96.706116</ele>
<time>2010-08-29T15:06:08Z</time>
<desc>lat.=56.106598, lon.=26.469570, Alt.=96.706116m. Speed=17.208000m/h.</desc>
<speed>4.780000</speed>
</trkpt>
<trkpt lat="56.106590" lon="26.469496">
<ele>97.335022</ele>
<time>2010-08-29T15:06:09Z</time>
<desc>lat.=56.106590, lon.=26.469496, Alt.=97.335022m. Speed=17.172001m/h.</desc>
<speed>4.770000</speed>
</trkpt>
<trkpt lat="56.106583" lon="26.469412">
<ele>97.963928</ele>
<time>2010-08-29T15:06:10Z</time>
<desc>lat.=56.106583, lon.=26.469412, Alt.=97.963928m. Speed=16.884001m/h.</desc>
<speed>4.690000</speed>
</trkpt>
<trkpt lat="56.106575" lon="26.469339">
<ele>98.754944</ele>
<time>2010-08-29T15:06:11Z</time>
<desc>lat.=56.106575, lon.=26.469339, Alt.=98.754944m. Speed=16.596001m/h.</desc>
<speed>4.610000</speed>
</trkpt>
<trkpt lat="56.106564" lon="26.469271">
<ele>99.276428</ele>
<time>2010-08-29T15:06:12Z</time>
<desc>lat.=56.106564, lon.=26.469271, Alt.=99.276428m. Speed=16.200001m/h.</desc>
<speed>4.500000</speed>
</trkpt>
<trkpt lat="56.106556" lon="26.469202">
<ele>99.383850</ele>
<time>2010-08-29T15:06:13Z</time>
<desc>lat.=56.106556, lon.=26.469202, Alt.=99.383850m. Speed=15.984000m/h.</desc>
<speed>4.440000</speed>
</trkpt>
<trkpt lat="56.106548" lon="26.469135">
<ele>99.719788</ele>
<time>2010-08-29T15:06:14Z</time>
<desc>lat.=56.106548, lon.=26.469135, Alt.=99.719788m. Speed=15.948000m/h.</desc>
<speed>4.430000</speed>
</trkpt>
<trkpt lat="56.106541" lon="26.469065">
<ele>99.756897</ele>
<time>2010-08-29T15:06:15Z</time>
<desc>lat.=56.106541, lon.=26.469065, Alt.=99.756897m. Speed=15.732000m/h.</desc>
<speed>4.370000</speed>
</trkpt>
<trkpt lat="56.106533" lon="26.468996">
<ele>99.922913</ele>
<time>2010-08-29T15:06:16Z</time>
<desc>lat.=56.106533, lon.=26.468996, Alt.=99.922913m. Speed=16.524000m/h.</desc>
<speed>4.590000</speed>
</trkpt>
<trkpt lat="56.106525" lon="26.468924">
<ele>100.251038</ele>
<time>2010-08-29T15:06:17Z</time>
<desc>lat.=56.106525, lon.=26.468924, Alt.=100.251038m. Speed=16.740000m/h.</desc>
<speed>4.650000</speed>
</trkpt>
<trkpt lat="56.106518" lon="26.468851">
<ele>99.768616</ele>
<time>2010-08-29T15:06:18Z</time>
<desc>lat.=56.106518, lon.=26.468851, Alt.=99.768616m. Speed=15.444000m/h.</desc>
<speed>4.290000</speed>
</trkpt>
<trkpt lat="56.106514" lon="26.468769">
<ele>97.858459</ele>
<time>2010-08-29T15:06:19Z</time>
<desc>lat.=56.106514, lon.=26.468769, Alt.=97.858459m. Speed=16.740000m/h.</desc>
<speed>4.650000</speed>
</trkpt>
<trkpt lat="56.106510" lon="26.468697">
<ele>98.169006</ele>
<time>2010-08-29T15:06:20Z</time>
<desc>lat.=56.106510, lon.=26.468697, Alt.=98.169006m. Speed=16.056000m/h.</desc>
<speed>4.460000</speed>
</trkpt>
<trkpt lat="56.106506" lon="26.468609">
<ele>98.297913</ele>
<time>2010-08-29T15:06:21Z</time>
<desc>lat.=56.106506, lon.=26.468609, Alt.=98.297913m. Speed=20.304001m/h.</desc>
<speed>5.640000</speed>
</trkpt>
<trkpt lat="56.106499" lon="26.468513">
<ele>99.006897</ele>
<time>2010-08-29T15:06:22Z</time>
<desc>lat.=56.106499, lon.=26.468513, Alt.=99.006897m. Speed=22.139999m/h.</desc>
<speed>6.150000</speed>
</trkpt>
<trkpt lat="56.106491" lon="26.468416">
<ele>99.010803</ele>
<time>2010-08-29T15:06:23Z</time>
<desc>lat.=56.106491, lon.=26.468416, Alt.=99.010803m. Speed=20.988001m/h.</desc>
<speed>5.830000</speed>
</trkpt>
<trkpt lat="56.106480" lon="26.468315">
<ele>99.446350</ele>
<time>2010-08-29T15:06:24Z</time>
<desc>lat.=56.106480, lon.=26.468315, Alt.=99.446350m. Speed=22.247999m/h.</desc>
<speed>6.180000</speed>
</trkpt>
<trkpt lat="56.106476" lon="26.468220">
<ele>99.602600</ele>
<time>2010-08-29T15:06:25Z</time>
<desc>lat.=56.106476, lon.=26.468220, Alt.=99.602600m. Speed=21.636000m/h.</desc>
<speed>6.010000</speed>
</trkpt>
<trkpt lat="56.106464" lon="26.468115">
<ele>99.301819</ele>
<time>2010-08-29T15:06:26Z</time>
<desc>lat.=56.106464, lon.=26.468115, Alt.=99.301819m. Speed=21.492001m/h.</desc>
<speed>5.970000</speed>
</trkpt>
<trkpt lat="56.106457" lon="26.468023">
<ele>99.366272</ele>
<time>2010-08-29T15:06:27Z</time>
<desc>lat.=56.106457, lon.=26.468023, Alt.=99.366272m. Speed=19.476000m/h.</desc>
<speed>5.410000</speed>
</trkpt>
<trkpt lat="56.106449" lon="26.467937">
<ele>99.354553</ele>
<time>2010-08-29T15:06:28Z</time>
<desc>lat.=56.106449, lon.=26.467937, Alt.=99.354553m. Speed=19.152000m/h.</desc>
<speed>5.320000</speed>
</trkpt>
<trkpt lat="56.106445" lon="26.467861">
<ele>99.379944</ele>
<time>2010-08-29T15:06:29Z</time>
<desc>lat.=56.106445, lon.=26.467861, Alt.=99.379944m. Speed=15.552000m/h.</desc>
<speed>4.320000</speed>
</trkpt>
<trkpt lat="56.106430" lon="26.467775">
<ele>98.627991</ele>
<time>2010-08-29T15:06:30Z</time>
<desc>lat.=56.106430, lon.=26.467775, Alt.=98.627991m. Speed=17.927999m/h.</desc>
<speed>4.980000</speed>
</trkpt>
<trkpt lat="56.106419" lon="26.467669">
<ele>98.139709</ele>
<time>2010-08-29T15:06:31Z</time>
<desc>lat.=56.106419, lon.=26.467669, Alt.=98.139709m. Speed=20.556000m/h.</desc>
<speed>5.710000</speed>
</trkpt>
<trkpt lat="56.106411" lon="26.467550">
<ele>98.135803</ele>
<time>2010-08-29T15:06:32Z</time>
<desc>lat.=56.106411, lon.=26.467550, Alt.=98.135803m. Speed=21.672001m/h.</desc>
<speed>6.020000</speed>
</trkpt>
<trkpt lat="56.106403" lon="26.467449">
<ele>98.239319</ele>
<time>2010-08-29T15:06:33Z</time>
<desc>lat.=56.106403, lon.=26.467449, Alt.=98.239319m. Speed=20.736000m/h.</desc>
<speed>5.760000</speed>
</trkpt>
<trkpt lat="56.106396" lon="26.467354">
<ele>98.561584</ele>
<time>2010-08-29T15:06:34Z</time>
<desc>lat.=56.106396, lon.=26.467354, Alt.=98.561584m. Speed=20.700001m/h.</desc>
<speed>5.750000</speed>
</trkpt>
<trkpt lat="56.106388" lon="26.467264">
<ele>98.987366</ele>
<time>2010-08-29T15:06:35Z</time>
<desc>lat.=56.106388, lon.=26.467264, Alt.=98.987366m. Speed=19.296000m/h.</desc>
<speed>5.360000</speed>
</trkpt>
<trkpt lat="56.106384" lon="26.467180">
<ele>99.737366</ele>
<time>2010-08-29T15:06:36Z</time>
<desc>lat.=56.106384, lon.=26.467180, Alt.=99.737366m. Speed=18.288000m/h.</desc>
<speed>5.080000</speed>
</trkpt>
<trkpt lat="56.106380" lon="26.467106">
<ele>100.307678</ele>
<time>2010-08-29T15:06:37Z</time>
<desc>lat.=56.106380, lon.=26.467106, Alt.=100.307678m. Speed=14.472000m/h.</desc>
<speed>4.020000</speed>
</trkpt>
<trkpt lat="56.106373" lon="26.467045">
<ele>100.711975</ele>
<time>2010-08-29T15:06:38Z</time>
<desc>lat.=56.106373, lon.=26.467045, Alt.=100.711975m. Speed=13.536000m/h.</desc>
<speed>3.760000</speed>
</trkpt>
<trkpt lat="56.106365" lon="26.466976">
<ele>100.641663</ele>
<time>2010-08-29T15:06:39Z</time>
<desc>lat.=56.106365, lon.=26.466976, Alt.=100.641663m. Speed=11.088000m/h.</desc>
<speed>3.080000</speed>
</trkpt>
<trkpt lat="56.106350" lon="26.466894">
<ele>99.594788</ele>
<time>2010-08-29T15:06:40Z</time>
<desc>lat.=56.106350, lon.=26.466894, Alt.=99.594788m. Speed=10.656000m/h.</desc>
<speed>2.960000</speed>
</trkpt>
<trkpt lat="56.106342" lon="26.466831">
<ele>99.460022</ele>
<time>2010-08-29T15:06:41Z</time>
<desc>lat.=56.106342, lon.=26.466831, Alt.=99.460022m. Speed=11.520000m/h.</desc>
<speed>3.200000</speed>
</trkpt>
<trkpt lat="56.106339" lon="26.466787">
<ele>99.594788</ele>
<time>2010-08-29T15:06:42Z</time>
<desc>lat.=56.106339, lon.=26.466787, Alt.=99.594788m. Speed=9.612000m/h.</desc>
<speed>2.670000</speed>
</trkpt>
<trkpt lat="56.106335" lon="26.466743">
<ele>99.686584</ele>
<time>2010-08-29T15:06:43Z</time>
<desc>lat.=56.106335, lon.=26.466743, Alt.=99.686584m. Speed=9.756000m/h.</desc>
<speed>2.710000</speed>
</trkpt>
<trkpt lat="56.106331" lon="26.466696">
<ele>99.965881</ele>
<time>2010-08-29T15:06:44Z</time>
<desc>lat.=56.106331, lon.=26.466696, Alt.=99.965881m. Speed=8.712000m/h.</desc>
<speed>2.420000</speed>
</trkpt>
<trkpt lat="56.106323" lon="26.466637">
<ele>99.217834</ele>
<time>2010-08-29T15:06:45Z</time>
<desc>lat.=56.106323, lon.=26.466637, Alt.=99.217834m. Speed=7.776000m/h.</desc>
<speed>2.160000</speed>
</trkpt>
<trkpt lat="56.106316" lon="26.466600">
<ele>99.825256</ele>
<time>2010-08-29T15:06:46Z</time>
<desc>lat.=56.106316, lon.=26.466600, Alt.=99.825256m. Speed=8.748000m/h.</desc>
<speed>2.430000</speed>
</trkpt>
<trkpt lat="56.106308" lon="26.466564">
<ele>100.264709</ele>
<time>2010-08-29T15:06:47Z</time>
<desc>lat.=56.106308, lon.=26.466564, Alt.=100.264709m. Speed=6.588000m/h.</desc>
<speed>1.830000</speed>
</trkpt>
<trkpt lat="56.106304" lon="26.466539">
<ele>100.501038</ele>
<time>2010-08-29T15:06:48Z</time>
<desc>lat.=56.106304, lon.=26.466539, Alt.=100.501038m. Speed=5.364000m/h.</desc>
<speed>1.490000</speed>
</trkpt>
<trkpt lat="56.106293" lon="26.466524">
<ele>100.323303</ele>
<time>2010-08-29T15:06:49Z</time>
<desc>lat.=56.106293, lon.=26.466524, Alt.=100.323303m. Speed=4.788000m/h.</desc>
<speed>1.330000</speed>
</trkpt>
<trkpt lat="56.106285" lon="26.466509">
<ele>100.292053</ele>
<time>2010-08-29T15:06:50Z</time>
<desc>lat.=56.106285, lon.=26.466509, Alt.=100.292053m. Speed=2.520000m/h.</desc>
<speed>0.700000</speed>
</trkpt>
<trkpt lat="56.106281" lon="26.466497">
<ele>100.672913</ele>
<time>2010-08-29T15:06:51Z</time>
<desc>lat.=56.106281, lon.=26.466497, Alt.=100.672913m. Speed=1.836000m/h.</desc>
<speed>0.510000</speed>
</trkpt>
<trkpt lat="56.106289" lon="26.466490">
<ele>100.036194</ele>
<time>2010-08-29T15:06:52Z</time>
<desc>lat.=56.106289, lon.=26.466490, Alt.=100.036194m. Speed=2.376000m/h.</desc>
<speed>0.660000</speed>
</trkpt>
<trkpt lat="56.106285" lon="26.466457">
<ele>100.338928</ele>
<time>2010-08-29T15:06:53Z</time>
<desc>lat.=56.106285, lon.=26.466457, Alt.=100.338928m. Speed=5.652000m/h.</desc>
<speed>1.570000</speed>
</trkpt>
<trkpt lat="56.106274" lon="26.466412">
<ele>100.268616</ele>
<time>2010-08-29T15:06:54Z</time>
<desc>lat.=56.106274, lon.=26.466412, Alt.=100.268616m. Speed=8.496000m/h.</desc>
<speed>2.360000</speed>
</trkpt>
<trkpt lat="56.106262" lon="26.466345">
<ele>99.866272</ele>
<time>2010-08-29T15:06:55Z</time>
<desc>lat.=56.106262, lon.=26.466345, Alt.=99.866272m. Speed=10.620000m/h.</desc>
<speed>2.950000</speed>
</trkpt>
<trkpt lat="56.106258" lon="26.466284">
<ele>99.415100</ele>
<time>2010-08-29T15:06:56Z</time>
<desc>lat.=56.106258, lon.=26.466284, Alt.=99.415100m. Speed=11.952000m/h.</desc>
<speed>3.320000</speed>
</trkpt>
<trkpt lat="56.106255" lon="26.466206">
<ele>100.948303</ele>
<time>2010-08-29T15:06:57Z</time>
<desc>lat.=56.106255, lon.=26.466206, Alt.=100.948303m. Speed=12.420000m/h.</desc>
<speed>3.450000</speed>
</trkpt>
<trkpt lat="56.106247" lon="26.466143">
<ele>101.262756</ele>
<time>2010-08-29T15:06:58Z</time>
<desc>lat.=56.106247, lon.=26.466143, Alt.=101.262756m. Speed=13.032000m/h.</desc>
<speed>3.620000</speed>
</trkpt>
<trkpt lat="56.106239" lon="26.466084">
<ele>101.147522</ele>
<time>2010-08-29T15:06:59Z</time>
<desc>lat.=56.106239, lon.=26.466084, Alt.=101.147522m. Speed=12.744000m/h.</desc>
<speed>3.540000</speed>
</trkpt>
<trkpt lat="56.106232" lon="26.466028">
<ele>100.290100</ele>
<time>2010-08-29T15:07:00Z</time>
<desc>lat.=56.106232, lon.=26.466028, Alt.=100.290100m. Speed=13.716000m/h.</desc>
<speed>3.810000</speed>
</trkpt>
<trkpt lat="56.106224" lon="26.465965">
<ele>99.799866</ele>
<time>2010-08-29T15:07:01Z</time>
<desc>lat.=56.106224, lon.=26.465965, Alt.=99.799866m. Speed=14.184000m/h.</desc>
<speed>3.940000</speed>
</trkpt>
<trkpt lat="56.106216" lon="26.465916">
<ele>101.221741</ele>
<time>2010-08-29T15:07:02Z</time>
<desc>lat.=56.106216, lon.=26.465916, Alt.=101.221741m. Speed=15.624000m/h.</desc>
<speed>4.340000</speed>
</trkpt>
<trkpt lat="56.106209" lon="26.465851">
<ele>100.936584</ele>
<time>2010-08-29T15:07:03Z</time>
<desc>lat.=56.106209, lon.=26.465851, Alt.=100.936584m. Speed=16.164000m/h.</desc>
<speed>4.490000</speed>
</trkpt>
<trkpt lat="56.106205" lon="26.465776">
<ele>101.954163</ele>
<time>2010-08-29T15:07:04Z</time>
<desc>lat.=56.106205, lon.=26.465776, Alt.=101.954163m. Speed=18.143999m/h.</desc>
<speed>5.040000</speed>
</trkpt>
<trkpt lat="56.106194" lon="26.465693">
<ele>101.659241</ele>
<time>2010-08-29T15:07:05Z</time>
<desc>lat.=56.106194, lon.=26.465693, Alt.=101.659241m. Speed=19.224001m/h.</desc>
<speed>5.340000</speed>
</trkpt>
<trkpt lat="56.106174" lon="26.465605">
<ele>101.362366</ele>
<time>2010-08-29T15:07:06Z</time>
<desc>lat.=56.106174, lon.=26.465605, Alt.=101.362366m. Speed=20.628000m/h.</desc>
<speed>5.730000</speed>
</trkpt>
<trkpt lat="56.106163" lon="26.465502">
<ele>100.747131</ele>
<time>2010-08-29T15:07:07Z</time>
<desc>lat.=56.106163, lon.=26.465502, Alt.=100.747131m. Speed=20.844000m/h.</desc>
<speed>5.790000</speed>
</trkpt>
<trkpt lat="56.106144" lon="26.465399">
<ele>99.784241</ele>
<time>2010-08-29T15:07:08Z</time>
<desc>lat.=56.106144, lon.=26.465399, Alt.=99.784241m. Speed=21.240000m/h.</desc>
<speed>5.900000</speed>
</trkpt>
<trkpt lat="56.106136" lon="26.465303">
<ele>100.440491</ele>
<time>2010-08-29T15:07:09Z</time>
<desc>lat.=56.106136, lon.=26.465303, Alt.=100.440491m. Speed=21.851999m/h.</desc>
<speed>6.070000</speed>
</trkpt>
<trkpt lat="56.106129" lon="26.465202">
<ele>100.448303</ele>
<time>2010-08-29T15:07:10Z</time>
<desc>lat.=56.106129, lon.=26.465202, Alt.=100.448303m. Speed=22.643999m/h.</desc>
<speed>6.290000</speed>
</trkpt>
<trkpt lat="56.106113" lon="26.465101">
<ele>101.928772</ele>
<time>2010-08-29T15:07:11Z</time>
<desc>lat.=56.106113, lon.=26.465101, Alt.=101.928772m. Speed=22.823999m/h.</desc>
<speed>6.340000</speed>
</trkpt>
<trkpt lat="56.106102" lon="26.464993">
<ele>101.710022</ele>
<time>2010-08-29T15:07:12Z</time>
<desc>lat.=56.106102, lon.=26.464993, Alt.=101.710022m. Speed=24.084000m/h.</desc>
<speed>6.690000</speed>
</trkpt>
<trkpt lat="56.106087" lon="26.464876">
<ele>102.405334</ele>
<time>2010-08-29T15:07:13Z</time>
<desc>lat.=56.106087, lon.=26.464876, Alt.=102.405334m. Speed=24.840000m/h.</desc>
<speed>6.900000</speed>
</trkpt>
<trkpt lat="56.106079" lon="26.464769">
<ele>102.340881</ele>
<time>2010-08-29T15:07:14Z</time>
<desc>lat.=56.106079, lon.=26.464769, Alt.=102.340881m. Speed=24.695999m/h.</desc>
<speed>6.860000</speed>
</trkpt>
<trkpt lat="56.106064" lon="26.464653">
<ele>101.895569</ele>
<time>2010-08-29T15:07:15Z</time>
<desc>lat.=56.106064, lon.=26.464653, Alt.=101.895569m. Speed=24.840000m/h.</desc>
<speed>6.900000</speed>
</trkpt>
<trkpt lat="56.106049" lon="26.464542">
<ele>102.680725</ele>
<time>2010-08-29T15:07:16Z</time>
<desc>lat.=56.106049, lon.=26.464542, Alt.=102.680725m. Speed=25.667999m/h.</desc>
<speed>7.130000</speed>
</trkpt>
<trkpt lat="56.106030" lon="26.464430">
<ele>102.098694</ele>
<time>2010-08-29T15:07:17Z</time>
<desc>lat.=56.106030, lon.=26.464430, Alt.=102.098694m. Speed=25.308001m/h.</desc>
<speed>7.030000</speed>
</trkpt>
<trkpt lat="56.106018" lon="26.464315">
<ele>102.590881</ele>
<time>2010-08-29T15:07:18Z</time>
<desc>lat.=56.106018, lon.=26.464315, Alt.=102.590881m. Speed=25.308001m/h.</desc>
<speed>7.030000</speed>
</trkpt>
<trkpt lat="56.106003" lon="26.464201">
<ele>102.694397</ele>
<time>2010-08-29T15:07:19Z</time>
<desc>lat.=56.106003, lon.=26.464201, Alt.=102.694397m. Speed=26.856001m/h.</desc>
<speed>7.460000</speed>
</trkpt>
<trkpt lat="56.105984" lon="26.464081">
<ele>102.335022</ele>
<time>2010-08-29T15:07:20Z</time>
<desc>lat.=56.105984, lon.=26.464081, Alt.=102.335022m. Speed=25.920000m/h.</desc>
<speed>7.200000</speed>
</trkpt>
<trkpt lat="56.105968" lon="26.463964">
<ele>101.129944</ele>
<time>2010-08-29T15:07:21Z</time>
<desc>lat.=56.105968, lon.=26.463964, Alt.=101.129944m. Speed=26.316000m/h.</desc>
<speed>7.310000</speed>
</trkpt>
<trkpt lat="56.105953" lon="26.463848">
<ele>100.372131</ele>
<time>2010-08-29T15:07:22Z</time>
<desc>lat.=56.105953, lon.=26.463848, Alt.=100.372131m. Speed=24.983999m/h.</desc>
<speed>6.940000</speed>
</trkpt>
<trkpt lat="56.105942" lon="26.463743">
<ele>100.567444</ele>
<time>2010-08-29T15:07:23Z</time>
<desc>lat.=56.105942, lon.=26.463743, Alt.=100.567444m. Speed=23.976000m/h.</desc>
<speed>6.660000</speed>
</trkpt>
<trkpt lat="56.105930" lon="26.463640">
<ele>100.159241</ele>
<time>2010-08-29T15:07:24Z</time>
<desc>lat.=56.105930, lon.=26.463640, Alt.=100.159241m. Speed=23.832001m/h.</desc>
<speed>6.620000</speed>
</trkpt>
<trkpt lat="56.105915" lon="26.463533">
<ele>99.756897</ele>
<time>2010-08-29T15:07:25Z</time>
<desc>lat.=56.105915, lon.=26.463533, Alt.=99.756897m. Speed=23.184000m/h.</desc>
<speed>6.440000</speed>
</trkpt>
<trkpt lat="56.105907" lon="26.463425">
<ele>99.836975</ele>
<time>2010-08-29T15:07:26Z</time>
<desc>lat.=56.105907, lon.=26.463425, Alt.=99.836975m. Speed=23.652000m/h.</desc>
<speed>6.570000</speed>
</trkpt>
<trkpt lat="56.105896" lon="26.463316">
<ele>99.079163</ele>
<time>2010-08-29T15:07:27Z</time>
<desc>lat.=56.105896, lon.=26.463316, Alt.=99.079163m. Speed=21.851999m/h.</desc>
<speed>6.070000</speed>
</trkpt>
<trkpt lat="56.105881" lon="26.463219">
<ele>97.776428</ele>
<time>2010-08-29T15:07:28Z</time>
<desc>lat.=56.105881, lon.=26.463219, Alt.=97.776428m. Speed=21.384001m/h.</desc>
<speed>5.940000</speed>
</trkpt>
<trkpt lat="56.105873" lon="26.463137">
<ele>99.774475</ele>
<time>2010-08-29T15:07:29Z</time>
<desc>lat.=56.105873, lon.=26.463137, Alt.=99.774475m. Speed=21.563999m/h.</desc>
<speed>5.990000</speed>
</trkpt>
<trkpt lat="56.105858" lon="26.463043">
<ele>99.874084</ele>
<time>2010-08-29T15:07:30Z</time>
<desc>lat.=56.105858, lon.=26.463043, Alt.=99.874084m. Speed=21.563999m/h.</desc>
<speed>5.990000</speed>
</trkpt>
<trkpt lat="56.105850" lon="26.462944">
<ele>99.942444</ele>
<time>2010-08-29T15:07:31Z</time>
<desc>lat.=56.105850, lon.=26.462944, Alt.=99.942444m. Speed=22.643999m/h.</desc>
<speed>6.290000</speed>
</trkpt>
<trkpt lat="56.105839" lon="26.462837">
<ele>99.352600</ele>
<time>2010-08-29T15:07:32Z</time>
<desc>lat.=56.105839, lon.=26.462837, Alt.=99.352600m. Speed=24.516001m/h.</desc>
<speed>6.810000</speed>
</trkpt>
<trkpt lat="56.105827" lon="26.462729">
<ele>99.774475</ele>
<time>2010-08-29T15:07:33Z</time>
<desc>lat.=56.105827, lon.=26.462729, Alt.=99.774475m. Speed=25.524000m/h.</desc>
<speed>7.090000</speed>
</trkpt>
<trkpt lat="56.105816" lon="26.462610">
<ele>99.958069</ele>
<time>2010-08-29T15:07:34Z</time>
<desc>lat.=56.105816, lon.=26.462610, Alt.=99.958069m. Speed=26.063999m/h.</desc>
<speed>7.240000</speed>
</trkpt>
<trkpt lat="56.105801" lon="26.462502">
<ele>99.708069</ele>
<time>2010-08-29T15:07:35Z</time>
<desc>lat.=56.105801, lon.=26.462502, Alt.=99.708069m. Speed=23.615999m/h.</desc>
<speed>6.560000</speed>
</trkpt>
<trkpt lat="56.105793" lon="26.462393">
<ele>100.631897</ele>
<time>2010-08-29T15:07:36Z</time>
<desc>lat.=56.105793, lon.=26.462393, Alt.=100.631897m. Speed=27.360001m/h.</desc>
<speed>7.600000</speed>
</trkpt>
<trkpt lat="56.105774" lon="26.462269">
<ele>99.799866</ele>
<time>2010-08-29T15:07:37Z</time>
<desc>lat.=56.105774, lon.=26.462269, Alt.=99.799866m. Speed=26.280001m/h.</desc>
<speed>7.300000</speed>
</trkpt>
<trkpt lat="56.105759" lon="26.462149">
<ele>98.725647</ele>
<time>2010-08-29T15:07:38Z</time>
<desc>lat.=56.105759, lon.=26.462149, Alt.=98.725647m. Speed=25.344000m/h.</desc>
<speed>7.040000</speed>
</trkpt>
<trkpt lat="56.105740" lon="26.462032">
<ele>98.028381</ele>
<time>2010-08-29T15:07:39Z</time>
<desc>lat.=56.105740, lon.=26.462032, Alt.=98.028381m. Speed=25.056000m/h.</desc>
<speed>6.960000</speed>
</trkpt>
<trkpt lat="56.105724" lon="26.461906">
<ele>96.766663</ele>
<time>2010-08-29T15:07:40Z</time>
<desc>lat.=56.105724, lon.=26.461906, Alt.=96.766663m. Speed=26.280001m/h.</desc>
<speed>7.300000</speed>
</trkpt>
<trkpt lat="56.105713" lon="26.461784">
<ele>97.081116</ele>
<time>2010-08-29T15:07:41Z</time>
<desc>lat.=56.105713, lon.=26.461784, Alt.=97.081116m. Speed=27.072001m/h.</desc>
<speed>7.520000</speed>
</trkpt>
<trkpt lat="56.105701" lon="26.461664">
<ele>96.768616</ele>
<time>2010-08-29T15:07:42Z</time>
<desc>lat.=56.105701, lon.=26.461664, Alt.=96.768616m. Speed=26.639999m/h.</desc>
<speed>7.400000</speed>
</trkpt>
<trkpt lat="56.105690" lon="26.461544">
<ele>97.045959</ele>
<time>2010-08-29T15:07:43Z</time>
<desc>lat.=56.105690, lon.=26.461544, Alt.=97.045959m. Speed=29.052000m/h.</desc>
<speed>8.070000</speed>
</trkpt>
<trkpt lat="56.105682" lon="26.461433">
<ele>98.502991</ele>
<time>2010-08-29T15:07:44Z</time>
<desc>lat.=56.105682, lon.=26.461433, Alt.=98.502991m. Speed=27.108000m/h.</desc>
<speed>7.530000</speed>
</trkpt>
<trkpt lat="56.105671" lon="26.461319">
<ele>98.506897</ele>
<time>2010-08-29T15:07:45Z</time>
<desc>lat.=56.105671, lon.=26.461319, Alt.=98.506897m. Speed=25.128000m/h.</desc>
<speed>6.980000</speed>
</trkpt>
<trkpt lat="56.105656" lon="26.461206">
<ele>97.723694</ele>
<time>2010-08-29T15:07:46Z</time>
<desc>lat.=56.105656, lon.=26.461206, Alt.=97.723694m. Speed=23.976000m/h.</desc>
<speed>6.660000</speed>
</trkpt>
<trkpt lat="56.105640" lon="26.461100">
<ele>98.665100</ele>
<time>2010-08-29T15:07:47Z</time>
<desc>lat.=56.105640, lon.=26.461100, Alt.=98.665100m. Speed=24.732000m/h.</desc>
<speed>6.870000</speed>
</trkpt>
<trkpt lat="56.105629" lon="26.460997">
<ele>98.669006</ele>
<time>2010-08-29T15:07:48Z</time>
<desc>lat.=56.105629, lon.=26.460997, Alt.=98.669006m. Speed=24.444000m/h.</desc>
<speed>6.790000</speed>
</trkpt>
<trkpt lat="56.105614" lon="26.460888">
<ele>98.729553</ele>
<time>2010-08-29T15:07:49Z</time>
<desc>lat.=56.105614, lon.=26.460888, Alt.=98.729553m. Speed=25.200001m/h.</desc>
<speed>7.000000</speed>
</trkpt>
<trkpt lat="56.105602" lon="26.460777">
<ele>98.297913</ele>
<time>2010-08-29T15:07:50Z</time>
<desc>lat.=56.105602, lon.=26.460777, Alt.=98.297913m. Speed=25.955999m/h.</desc>
<speed>7.210000</speed>
</trkpt>
<trkpt lat="56.105583" lon="26.460661">
<ele>97.917053</ele>
<time>2010-08-29T15:07:51Z</time>
<desc>lat.=56.105583, lon.=26.460661, Alt.=97.917053m. Speed=26.784000m/h.</desc>
<speed>7.440000</speed>
</trkpt>
<trkpt lat="56.105568" lon="26.460543">
<ele>98.653381</ele>
<time>2010-08-29T15:07:52Z</time>
<desc>lat.=56.105568, lon.=26.460543, Alt.=98.653381m. Speed=26.604000m/h.</desc>
<speed>7.390000</speed>
</trkpt>
<trkpt lat="56.105553" lon="26.460423">
<ele>99.034241</ele>
<time>2010-08-29T15:07:53Z</time>
<desc>lat.=56.105553, lon.=26.460423, Alt.=99.034241m. Speed=26.820000m/h.</desc>
<speed>7.450000</speed>
</trkpt>
<trkpt lat="56.105541" lon="26.460304">
<ele>99.348694</ele>
<time>2010-08-29T15:07:54Z</time>
<desc>lat.=56.105541, lon.=26.460304, Alt.=99.348694m. Speed=26.351999m/h.</desc>
<speed>7.320000</speed>
</trkpt>
<trkpt lat="56.105526" lon="26.460196">
<ele>100.512756</ele>
<time>2010-08-29T15:07:55Z</time>
<desc>lat.=56.105526, lon.=26.460196, Alt.=100.512756m. Speed=26.351999m/h.</desc>
<speed>7.320000</speed>
</trkpt>
<trkpt lat="56.105511" lon="26.460085">
<ele>99.985413</ele>
<time>2010-08-29T15:07:56Z</time>
<desc>lat.=56.105511, lon.=26.460085, Alt.=99.985413m. Speed=25.128000m/h.</desc>
<speed>6.980000</speed>
</trkpt>
<trkpt lat="56.105499" lon="26.459978">
<ele>99.883850</ele>
<time>2010-08-29T15:07:57Z</time>
<desc>lat.=56.105499, lon.=26.459978, Alt.=99.883850m. Speed=24.480000m/h.</desc>
<speed>6.800000</speed>
</trkpt>
<trkpt lat="56.105484" lon="26.459873">
<ele>99.338928</ele>
<time>2010-08-29T15:07:58Z</time>
<desc>lat.=56.105484, lon.=26.459873, Alt.=99.338928m. Speed=22.896000m/h.</desc>
<speed>6.360000</speed>
</trkpt>
<trkpt lat="56.105473" lon="26.459772">
<ele>98.778381</ele>
<time>2010-08-29T15:07:59Z</time>
<desc>lat.=56.105473, lon.=26.459772, Alt.=98.778381m. Speed=22.716000m/h.</desc>
<speed>6.310000</speed>
</trkpt>
<trkpt lat="56.105461" lon="26.459681">
<ele>99.190491</ele>
<time>2010-08-29T15:08:00Z</time>
<desc>lat.=56.105461, lon.=26.459681, Alt.=99.190491m. Speed=20.844000m/h.</desc>
<speed>5.790000</speed>
</trkpt>
<trkpt lat="56.105450" lon="26.459587">
<ele>99.524475</ele>
<time>2010-08-29T15:08:01Z</time>
<desc>lat.=56.105450, lon.=26.459587, Alt.=99.524475m. Speed=21.024000m/h.</desc>
<speed>5.840000</speed>
</trkpt>
<trkpt lat="56.105442" lon="26.459497">
<ele>99.526428</ele>
<time>2010-08-29T15:08:02Z</time>
<desc>lat.=56.105442, lon.=26.459497, Alt.=99.526428m. Speed=21.348000m/h.</desc>
<speed>5.930000</speed>
</trkpt>
<trkpt lat="56.105431" lon="26.459404">
<ele>99.331116</ele>
<time>2010-08-29T15:08:03Z</time>
<desc>lat.=56.105431, lon.=26.459404, Alt.=99.331116m. Speed=21.851999m/h.</desc>
<speed>6.070000</speed>
</trkpt>
<trkpt lat="56.105423" lon="26.459312">
<ele>100.370178</ele>
<time>2010-08-29T15:08:04Z</time>
<desc>lat.=56.105423, lon.=26.459312, Alt.=100.370178m. Speed=22.139999m/h.</desc>
<speed>6.150000</speed>
</trkpt>
<trkpt lat="56.105412" lon="26.459211">
<ele>100.001038</ele>
<time>2010-08-29T15:08:05Z</time>
<desc>lat.=56.105412, lon.=26.459211, Alt.=100.001038m. Speed=22.320000m/h.</desc>
<speed>6.200000</speed>
</trkpt>
<trkpt lat="56.105404" lon="26.459116">
<ele>100.999084</ele>
<time>2010-08-29T15:08:06Z</time>
<desc>lat.=56.105404, lon.=26.459116, Alt.=100.999084m. Speed=23.076000m/h.</desc>
<speed>6.410000</speed>
</trkpt>
<trkpt lat="56.105392" lon="26.459019">
<ele>101.547913</ele>
<time>2010-08-29T15:08:07Z</time>
<desc>lat.=56.105392, lon.=26.459019, Alt.=101.547913m. Speed=23.724001m/h.</desc>
<speed>6.590000</speed>
</trkpt>
<trkpt lat="56.105377" lon="26.458914">
<ele>101.350647</ele>
<time>2010-08-29T15:08:08Z</time>
<desc>lat.=56.105377, lon.=26.458914, Alt.=101.350647m. Speed=24.948000m/h.</desc>
<speed>6.930000</speed>
</trkpt>
<trkpt lat="56.105366" lon="26.458803">
<ele>101.161194</ele>
<time>2010-08-29T15:08:09Z</time>
<desc>lat.=56.105366, lon.=26.458803, Alt.=101.161194m. Speed=25.020000m/h.</desc>
<speed>6.950000</speed>
</trkpt>
<trkpt lat="56.105347" lon="26.458689">
<ele>100.745178</ele>
<time>2010-08-29T15:08:10Z</time>
<desc>lat.=56.105347, lon.=26.458689, Alt.=100.745178m. Speed=24.444000m/h.</desc>
<speed>6.790000</speed>
</trkpt>
<trkpt lat="56.105335" lon="26.458580">
<ele>100.963928</ele>
<time>2010-08-29T15:08:11Z</time>
<desc>lat.=56.105335, lon.=26.458580, Alt.=100.963928m. Speed=23.832001m/h.</desc>
<speed>6.620000</speed>
</trkpt>
<trkpt lat="56.105320" lon="26.458467">
<ele>100.047913</ele>
<time>2010-08-29T15:08:12Z</time>
<desc>lat.=56.105320, lon.=26.458467, Alt.=100.047913m. Speed=23.219999m/h.</desc>
<speed>6.450000</speed>
</trkpt>
<trkpt lat="56.105309" lon="26.458364">
<ele>99.559631</ele>
<time>2010-08-29T15:08:13Z</time>
<desc>lat.=56.105309, lon.=26.458364, Alt.=99.559631m. Speed=22.320000m/h.</desc>
<speed>6.200000</speed>
</trkpt>
<trkpt lat="56.105293" lon="26.458267">
<ele>97.612366</ele>
<time>2010-08-29T15:08:14Z</time>
<desc>lat.=56.105293, lon.=26.458267, Alt.=97.612366m. Speed=19.260000m/h.</desc>
<speed>5.350000</speed>
</trkpt>
<trkpt lat="56.105282" lon="26.458176">
<ele>97.155334</ele>
<time>2010-08-29T15:08:15Z</time>
<desc>lat.=56.105282, lon.=26.458176, Alt.=97.155334m. Speed=21.996000m/h.</desc>
<speed>6.110000</speed>
</trkpt>
<trkpt lat="56.105270" lon="26.458084">
<ele>97.887756</ele>
<time>2010-08-29T15:08:16Z</time>
<desc>lat.=56.105270, lon.=26.458084, Alt.=97.887756m. Speed=21.492001m/h.</desc>
<speed>5.970000</speed>
</trkpt>
<trkpt lat="56.105259" lon="26.457985">
<ele>97.711975</ele>
<time>2010-08-29T15:08:17Z</time>
<desc>lat.=56.105259, lon.=26.457985, Alt.=97.711975m. Speed=22.104000m/h.</desc>
<speed>6.140000</speed>
</trkpt>
<trkpt lat="56.105247" lon="26.457888">
<ele>97.102600</ele>
<time>2010-08-29T15:08:18Z</time>
<desc>lat.=56.105247, lon.=26.457888, Alt.=97.102600m. Speed=20.916000m/h.</desc>
<speed>5.810000</speed>
</trkpt>
<trkpt lat="56.105232" lon="26.457798">
<ele>96.907288</ele>
<time>2010-08-29T15:08:19Z</time>
<desc>lat.=56.105232, lon.=26.457798, Alt.=96.907288m. Speed=20.664000m/h.</desc>
<speed>5.740000</speed>
</trkpt>
<trkpt lat="56.105221" lon="26.457712">
<ele>97.040100</ele>
<time>2010-08-29T15:08:20Z</time>
<desc>lat.=56.105221, lon.=26.457712, Alt.=97.040100m. Speed=20.124001m/h.</desc>
<speed>5.590000</speed>
</trkpt>
<trkpt lat="56.105209" lon="26.457624">
<ele>96.454163</ele>
<time>2010-08-29T15:08:21Z</time>
<desc>lat.=56.105209, lon.=26.457624, Alt.=96.454163m. Speed=19.548000m/h.</desc>
<speed>5.430000</speed>
</trkpt>
<trkpt lat="56.105202" lon="26.457542">
<ele>96.836975</ele>
<time>2010-08-29T15:08:22Z</time>
<desc>lat.=56.105202, lon.=26.457542, Alt.=96.836975m. Speed=19.152000m/h.</desc>
<speed>5.320000</speed>
</trkpt>
<trkpt lat="56.105190" lon="26.457464">
<ele>96.932678</ele>
<time>2010-08-29T15:08:23Z</time>
<desc>lat.=56.105190, lon.=26.457464, Alt.=96.932678m. Speed=18.684000m/h.</desc>
<speed>5.190000</speed>
</trkpt>
<trkpt lat="56.105183" lon="26.457380">
<ele>96.749084</ele>
<time>2010-08-29T15:08:24Z</time>
<desc>lat.=56.105183, lon.=26.457380, Alt.=96.749084m. Speed=18.323999m/h.</desc>
<speed>5.090000</speed>
</trkpt>
<trkpt lat="56.105171" lon="26.457296">
<ele>96.463928</ele>
<time>2010-08-29T15:08:25Z</time>
<desc>lat.=56.105171, lon.=26.457296, Alt.=96.463928m. Speed=18.323999m/h.</desc>
<speed>5.090000</speed>
</trkpt>
<trkpt lat="56.105160" lon="26.457214">
<ele>96.604553</ele>
<time>2010-08-29T15:08:26Z</time>
<desc>lat.=56.105160, lon.=26.457214, Alt.=96.604553m. Speed=17.388000m/h.</desc>
<speed>4.830000</speed>
</trkpt>
<trkpt lat="56.105148" lon="26.457136">
<ele>96.370178</ele>
<time>2010-08-29T15:08:27Z</time>
<desc>lat.=56.105148, lon.=26.457136, Alt.=96.370178m. Speed=17.820000m/h.</desc>
<speed>4.950000</speed>
</trkpt>
<trkpt lat="56.105145" lon="26.457060">
<ele>95.461975</ele>
<time>2010-08-29T15:08:28Z</time>
<desc>lat.=56.105145, lon.=26.457060, Alt.=95.461975m. Speed=17.388000m/h.</desc>
<speed>4.830000</speed>
</trkpt>
<trkpt lat="56.105137" lon="26.456989">
<ele>95.889709</ele>
<time>2010-08-29T15:08:29Z</time>
<desc>lat.=56.105137, lon.=26.456989, Alt.=95.889709m. Speed=17.243999m/h.</desc>
<speed>4.790000</speed>
</trkpt>
<trkpt lat="56.105129" lon="26.456915">
<ele>95.569397</ele>
<time>2010-08-29T15:08:30Z</time>
<desc>lat.=56.105129, lon.=26.456915, Alt.=95.569397m. Speed=16.704000m/h.</desc>
<speed>4.640000</speed>
</trkpt>
<trkpt lat="56.105122" lon="26.456846">
<ele>95.754944</ele>
<time>2010-08-29T15:08:31Z</time>
<desc>lat.=56.105122, lon.=26.456846, Alt.=95.754944m. Speed=16.812000m/h.</desc>
<speed>4.670000</speed>
</trkpt>
<trkpt lat="56.105110" lon="26.456778">
<ele>95.538147</ele>
<time>2010-08-29T15:08:32Z</time>
<desc>lat.=56.105110, lon.=26.456778, Alt.=95.538147m. Speed=15.732000m/h.</desc>
<speed>4.370000</speed>
</trkpt>
<trkpt lat="56.105099" lon="26.456707">
<ele>95.358459</ele>
<time>2010-08-29T15:08:33Z</time>
<desc>lat.=56.105099, lon.=26.456707, Alt.=95.358459m. Speed=15.264000m/h.</desc>
<speed>4.240000</speed>
</trkpt>
<trkpt lat="56.105095" lon="26.456640">
<ele>95.282288</ele>
<time>2010-08-29T15:08:34Z</time>
<desc>lat.=56.105095, lon.=26.456640, Alt.=95.282288m. Speed=15.048000m/h.</desc>
<speed>4.180000</speed>
</trkpt>
<trkpt lat="56.105087" lon="26.456568">
<ele>94.465881</ele>
<time>2010-08-29T15:08:35Z</time>
<desc>lat.=56.105087, lon.=26.456568, Alt.=94.465881m. Speed=15.120000m/h.</desc>
<speed>4.200000</speed>
</trkpt>
<trkpt lat="56.105076" lon="26.456501">
<ele>94.522522</ele>
<time>2010-08-29T15:08:36Z</time>
<desc>lat.=56.105076, lon.=26.456501, Alt.=94.522522m. Speed=14.148000m/h.</desc>
<speed>3.930000</speed>
</trkpt>
<trkpt lat="56.105068" lon="26.456436">
<ele>93.735413</ele>
<time>2010-08-29T15:08:37Z</time>
<desc>lat.=56.105068, lon.=26.456436, Alt.=93.735413m. Speed=14.040000m/h.</desc>
<speed>3.900000</speed>
</trkpt>
<trkpt lat="56.105061" lon="26.456369">
<ele>93.891663</ele>
<time>2010-08-29T15:08:38Z</time>
<desc>lat.=56.105061, lon.=26.456369, Alt.=93.891663m. Speed=15.048000m/h.</desc>
<speed>4.180000</speed>
</trkpt>
<trkpt lat="56.105049" lon="26.456305">
<ele>92.905334</ele>
<time>2010-08-29T15:08:39Z</time>
<desc>lat.=56.105049, lon.=26.456305, Alt.=92.905334m. Speed=13.284000m/h.</desc>
<speed>3.690000</speed>
</trkpt>
<trkpt lat="56.105042" lon="26.456253">
<ele>93.631897</ele>
<time>2010-08-29T15:08:40Z</time>
<desc>lat.=56.105042, lon.=26.456253, Alt.=93.631897m. Speed=13.428000m/h.</desc>
<speed>3.730000</speed>
</trkpt>
<trkpt lat="56.105038" lon="26.456202">
<ele>94.756897</ele>
<time>2010-08-29T15:08:41Z</time>
<desc>lat.=56.105038, lon.=26.456202, Alt.=94.756897m. Speed=12.600000m/h.</desc>
<speed>3.500000</speed>
</trkpt>
<trkpt lat="56.105034" lon="26.456148">
<ele>95.479553</ele>
<time>2010-08-29T15:08:42Z</time>
<desc>lat.=56.105034, lon.=26.456148, Alt.=95.479553m. Speed=13.752000m/h.</desc>
<speed>3.820000</speed>
</trkpt>
<trkpt lat="56.105022" lon="26.456083">
<ele>94.737366</ele>
<time>2010-08-29T15:08:43Z</time>
<desc>lat.=56.105022, lon.=26.456083, Alt.=94.737366m. Speed=15.120000m/h.</desc>
<speed>4.200000</speed>
</trkpt>
<trkpt lat="56.105011" lon="26.456018">
<ele>95.018616</ele>
<time>2010-08-29T15:08:44Z</time>
<desc>lat.=56.105011, lon.=26.456018, Alt.=95.018616m. Speed=15.804000m/h.</desc>
<speed>4.390000</speed>
</trkpt>
<trkpt lat="56.105003" lon="26.455944">
<ele>94.797913</ele>
<time>2010-08-29T15:08:45Z</time>
<desc>lat.=56.105003, lon.=26.455944, Alt.=94.797913m. Speed=17.459999m/h.</desc>
<speed>4.850000</speed>
</trkpt>
<trkpt lat="56.104996" lon="26.455862">
<ele>95.252991</ele>
<time>2010-08-29T15:08:46Z</time>
<desc>lat.=56.104996, lon.=26.455862, Alt.=95.252991m. Speed=19.332001m/h.</desc>
<speed>5.370000</speed>
</trkpt>
<trkpt lat="56.104984" lon="26.455780">
<ele>94.958069</ele>
<time>2010-08-29T15:08:47Z</time>
<desc>lat.=56.104984, lon.=26.455780, Alt.=94.958069m. Speed=19.296000m/h.</desc>
<speed>5.360000</speed>
</trkpt>
<trkpt lat="56.104973" lon="26.455694">
<ele>95.294006</ele>
<time>2010-08-29T15:08:48Z</time>
<desc>lat.=56.104973, lon.=26.455694, Alt.=95.294006m. Speed=20.448000m/h.</desc>
<speed>5.680000</speed>
</trkpt>
<trkpt lat="56.104965" lon="26.455605">
<ele>95.475647</ele>
<time>2010-08-29T15:08:49Z</time>
<desc>lat.=56.104965, lon.=26.455605, Alt.=95.475647m. Speed=21.420000m/h.</desc>
<speed>5.950000</speed>
</trkpt>
<trkpt lat="56.104958" lon="26.455507">
<ele>94.821350</ele>
<time>2010-08-29T15:08:50Z</time>
<desc>lat.=56.104958, lon.=26.455507, Alt.=94.821350m. Speed=22.247999m/h.</desc>
<speed>6.180000</speed>
</trkpt>
<trkpt lat="56.104946" lon="26.455410">
<ele>95.020569</ele>
<time>2010-08-29T15:08:51Z</time>
<desc>lat.=56.104946, lon.=26.455410, Alt.=95.020569m. Speed=22.968000m/h.</desc>
<speed>6.380000</speed>
</trkpt>
<trkpt lat="56.104935" lon="26.455311">
<ele>95.045959</ele>
<time>2010-08-29T15:08:52Z</time>
<desc>lat.=56.104935, lon.=26.455311, Alt.=95.045959m. Speed=23.760000m/h.</desc>
<speed>6.600000</speed>
</trkpt>
<trkpt lat="56.104923" lon="26.455206">
<ele>94.877991</ele>
<time>2010-08-29T15:08:53Z</time>
<desc>lat.=56.104923, lon.=26.455206, Alt.=94.877991m. Speed=24.191999m/h.</desc>
<speed>6.720000</speed>
</trkpt>
<trkpt lat="56.104908" lon="26.455093">
<ele>94.344788</ele>
<time>2010-08-29T15:08:54Z</time>
<desc>lat.=56.104908, lon.=26.455093, Alt.=94.344788m. Speed=24.875999m/h.</desc>
<speed>6.910000</speed>
</trkpt>
<trkpt lat="56.104893" lon="26.454983">
<ele>94.225647</ele>
<time>2010-08-29T15:08:55Z</time>
<desc>lat.=56.104893, lon.=26.454983, Alt.=94.225647m. Speed=25.379999m/h.</desc>
<speed>7.050000</speed>
</trkpt>
<trkpt lat="56.104877" lon="26.454866">
<ele>95.100647</ele>
<time>2010-08-29T15:08:56Z</time>
<desc>lat.=56.104877, lon.=26.454866, Alt.=95.100647m. Speed=25.740000m/h.</desc>
<speed>7.150000</speed>
</trkpt>
<trkpt lat="56.104862" lon="26.454756">
<ele>95.323303</ele>
<time>2010-08-29T15:08:57Z</time>
<desc>lat.=56.104862, lon.=26.454756, Alt.=95.323303m. Speed=25.524000m/h.</desc>
<speed>7.090000</speed>
</trkpt>
<trkpt lat="56.104847" lon="26.454639">
<ele>95.301819</ele>
<time>2010-08-29T15:08:58Z</time>
<desc>lat.=56.104847, lon.=26.454639, Alt.=95.301819m. Speed=25.452000m/h.</desc>
<speed>7.070000</speed>
</trkpt>
<trkpt lat="56.104836" lon="26.454525">
<ele>95.575256</ele>
<time>2010-08-29T15:08:59Z</time>
<desc>lat.=56.104836, lon.=26.454525, Alt.=95.575256m. Speed=25.740000m/h.</desc>
<speed>7.150000</speed>
</trkpt>
<trkpt lat="56.104824" lon="26.454412">
<ele>95.637756</ele>
<time>2010-08-29T15:09:00Z</time>
<desc>lat.=56.104824, lon.=26.454412, Alt.=95.637756m. Speed=25.596001m/h.</desc>
<speed>7.110000</speed>
</trkpt>
<trkpt lat="56.104809" lon="26.454304">
<ele>95.333069</ele>
<time>2010-08-29T15:09:01Z</time>
<desc>lat.=56.104809, lon.=26.454304, Alt.=95.333069m. Speed=23.724001m/h.</desc>
<speed>6.590000</speed>
</trkpt>
<trkpt lat="56.104797" lon="26.454197">
<ele>94.686584</ele>
<time>2010-08-29T15:09:02Z</time>
<desc>lat.=56.104797, lon.=26.454197, Alt.=94.686584m. Speed=23.652000m/h.</desc>
<speed>6.570000</speed>
</trkpt>
<trkpt lat="56.104782" lon="26.454092">
<ele>94.040100</ele>
<time>2010-08-29T15:09:03Z</time>
<desc>lat.=56.104782, lon.=26.454092, Alt.=94.040100m. Speed=24.299999m/h.</desc>
<speed>6.750000</speed>
</trkpt>
<trkpt lat="56.104771" lon="26.453991">
<ele>93.950256</ele>
<time>2010-08-29T15:09:04Z</time>
<desc>lat.=56.104771, lon.=26.453991, Alt.=93.950256m. Speed=24.408001m/h.</desc>
<speed>6.780000</speed>
</trkpt>
<trkpt lat="56.104755" lon="26.453892">
<ele>94.434631</ele>
<time>2010-08-29T15:09:05Z</time>
<desc>lat.=56.104755, lon.=26.453892, Alt.=94.434631m. Speed=24.408001m/h.</desc>
<speed>6.780000</speed>
</trkpt>
<trkpt lat="56.104744" lon="26.453785">
<ele>94.963928</ele>
<time>2010-08-29T15:09:06Z</time>
<desc>lat.=56.104744, lon.=26.453785, Alt.=94.963928m. Speed=24.804001m/h.</desc>
<speed>6.890000</speed>
</trkpt>
<trkpt lat="56.104736" lon="26.453676">
<ele>94.987366</ele>
<time>2010-08-29T15:09:07Z</time>
<desc>lat.=56.104736, lon.=26.453676, Alt.=94.987366m. Speed=24.948000m/h.</desc>
<speed>6.930000</speed>
</trkpt>
<trkpt lat="56.104725" lon="26.453566">
<ele>95.335022</ele>
<time>2010-08-29T15:09:08Z</time>
<desc>lat.=56.104725, lon.=26.453566, Alt.=95.335022m. Speed=24.408001m/h.</desc>
<speed>6.780000</speed>
</trkpt>
<trkpt lat="56.104710" lon="26.453459">
<ele>95.870178</ele>
<time>2010-08-29T15:09:09Z</time>
<desc>lat.=56.104710, lon.=26.453459, Alt.=95.870178m. Speed=25.416000m/h.</desc>
<speed>7.060000</speed>
</trkpt>
<trkpt lat="56.104694" lon="26.453346">
<ele>96.335022</ele>
<time>2010-08-29T15:09:10Z</time>
<desc>lat.=56.104694, lon.=26.453346, Alt.=96.335022m. Speed=25.488001m/h.</desc>
<speed>7.080000</speed>
</trkpt>
<trkpt lat="56.104683" lon="26.453236">
<ele>96.368225</ele>
<time>2010-08-29T15:09:11Z</time>
<desc>lat.=56.104683, lon.=26.453236, Alt.=96.368225m. Speed=24.732000m/h.</desc>
<speed>6.870000</speed>
</trkpt>
<trkpt lat="56.104668" lon="26.453121">
<ele>96.249084</ele>
<time>2010-08-29T15:09:12Z</time>
<desc>lat.=56.104668, lon.=26.453121, Alt.=96.249084m. Speed=25.524000m/h.</desc>
<speed>7.090000</speed>
</trkpt>
<trkpt lat="56.104649" lon="26.453007">
<ele>96.196350</ele>
<time>2010-08-29T15:09:13Z</time>
<desc>lat.=56.104649, lon.=26.453007, Alt.=96.196350m. Speed=24.516001m/h.</desc>
<speed>6.810000</speed>
</trkpt>
<trkpt lat="56.104633" lon="26.452906">
<ele>96.227600</ele>
<time>2010-08-29T15:09:14Z</time>
<desc>lat.=56.104633, lon.=26.452906, Alt.=96.227600m. Speed=23.292000m/h.</desc>
<speed>6.470000</speed>
</trkpt>
<trkpt lat="56.104622" lon="26.452810">
<ele>96.336975</ele>
<time>2010-08-29T15:09:15Z</time>
<desc>lat.=56.104622, lon.=26.452810, Alt.=96.336975m. Speed=21.959999m/h.</desc>
<speed>6.100000</speed>
</trkpt>
<trkpt lat="56.104614" lon="26.452711">
<ele>96.899475</ele>
<time>2010-08-29T15:09:16Z</time>
<desc>lat.=56.104614, lon.=26.452711, Alt.=96.899475m. Speed=21.672001m/h.</desc>
<speed>6.020000</speed>
</trkpt>
<trkpt lat="56.104603" lon="26.452612">
<ele>96.958069</ele>
<time>2010-08-29T15:09:17Z</time>
<desc>lat.=56.104603, lon.=26.452612, Alt.=96.958069m. Speed=21.528000m/h.</desc>
<speed>5.980000</speed>
</trkpt>
<trkpt lat="56.104588" lon="26.452520">
<ele>97.231506</ele>
<time>2010-08-29T15:09:18Z</time>
<desc>lat.=56.104588, lon.=26.452520, Alt.=97.231506m. Speed=20.700001m/h.</desc>
<speed>5.750000</speed>
</trkpt>
<trkpt lat="56.104572" lon="26.452433">
<ele>97.215881</ele>
<time>2010-08-29T15:09:19Z</time>
<desc>lat.=56.104572, lon.=26.452433, Alt.=97.215881m. Speed=19.944000m/h.</desc>
<speed>5.540000</speed>
</trkpt>
<trkpt lat="56.104565" lon="26.452351">
<ele>98.147522</ele>
<time>2010-08-29T15:09:20Z</time>
<desc>lat.=56.104565, lon.=26.452351, Alt.=98.147522m. Speed=18.900000m/h.</desc>
<speed>5.250000</speed>
</trkpt>
<trkpt lat="56.104557" lon="26.452269">
<ele>97.782288</ele>
<time>2010-08-29T15:09:21Z</time>
<desc>lat.=56.104557, lon.=26.452269, Alt.=97.782288m. Speed=18.108000m/h.</desc>
<speed>5.030000</speed>
</trkpt>
<trkpt lat="56.104549" lon="26.452204">
<ele>94.768616</ele>
<time>2010-08-29T15:09:22Z</time>
<desc>lat.=56.104549, lon.=26.452204, Alt.=94.768616m. Speed=8.712000m/h.</desc>
<speed>2.420000</speed>
</trkpt>
<trkpt lat="56.104534" lon="26.452133">
<ele>92.428772</ele>
<time>2010-08-29T15:09:23Z</time>
<desc>lat.=56.104534, lon.=26.452133, Alt.=92.428772m. Speed=15.300000m/h.</desc>
<speed>4.250000</speed>
</trkpt>
<trkpt lat="56.104527" lon="26.452057">
<ele>92.331116</ele>
<time>2010-08-29T15:09:24Z</time>
<desc>lat.=56.104527, lon.=26.452057, Alt.=92.331116m. Speed=17.784000m/h.</desc>
<speed>4.940000</speed>
</trkpt>
<trkpt lat="56.104519" lon="26.451977">
<ele>92.104553</ele>
<time>2010-08-29T15:09:25Z</time>
<desc>lat.=56.104519, lon.=26.451977, Alt.=92.104553m. Speed=18.000000m/h.</desc>
<speed>5.000000</speed>
</trkpt>
<trkpt lat="56.104511" lon="26.451881">
<ele>91.887756</ele>
<time>2010-08-29T15:09:26Z</time>
<desc>lat.=56.104511, lon.=26.451881, Alt.=91.887756m. Speed=20.520000m/h.</desc>
<speed>5.700000</speed>
</trkpt>
<trkpt lat="56.104504" lon="26.451782">
<ele>92.016663</ele>
<time>2010-08-29T15:09:27Z</time>
<desc>lat.=56.104504, lon.=26.451782, Alt.=92.016663m. Speed=22.104000m/h.</desc>
<speed>6.140000</speed>
</trkpt>
<trkpt lat="56.104496" lon="26.451683">
<ele>91.713928</ele>
<time>2010-08-29T15:09:28Z</time>
<desc>lat.=56.104496, lon.=26.451683, Alt.=91.713928m. Speed=22.392000m/h.</desc>
<speed>6.220000</speed>
</trkpt>
<trkpt lat="56.104492" lon="26.451582">
<ele>91.661194</ele>
<time>2010-08-29T15:09:29Z</time>
<desc>lat.=56.104492, lon.=26.451582, Alt.=91.661194m. Speed=23.688000m/h.</desc>
<speed>6.580000</speed>
</trkpt>
<trkpt lat="56.104485" lon="26.451473">
<ele>90.717834</ele>
<time>2010-08-29T15:09:30Z</time>
<desc>lat.=56.104485, lon.=26.451473, Alt.=90.717834m. Speed=24.048000m/h.</desc>
<speed>6.680000</speed>
</trkpt>
<trkpt lat="56.104485" lon="26.451363">
<ele>89.905334</ele>
<time>2010-08-29T15:09:31Z</time>
<desc>lat.=56.104485, lon.=26.451363, Alt.=89.905334m. Speed=24.660000m/h.</desc>
<speed>6.850000</speed>
</trkpt>
<trkpt lat="56.104488" lon="26.451244">
<ele>89.333069</ele>
<time>2010-08-29T15:09:32Z</time>
<desc>lat.=56.104488, lon.=26.451244, Alt.=89.333069m. Speed=24.444000m/h.</desc>
<speed>6.790000</speed>
</trkpt>
<trkpt lat="56.104492" lon="26.451134">
<ele>89.940491</ele>
<time>2010-08-29T15:09:33Z</time>
<desc>lat.=56.104492, lon.=26.451134, Alt.=89.940491m. Speed=24.264000m/h.</desc>
<speed>6.740000</speed>
</trkpt>
<trkpt lat="56.104523" lon="26.451040">
<ele>103.165100</ele>
<time>2010-08-29T15:09:34Z</time>
<desc>lat.=56.104523, lon.=26.451040, Alt.=103.165100m. Speed=24.768000m/h.</desc>
<speed>6.880000</speed>
</trkpt>
<trkpt lat="56.104530" lon="26.450933">
<ele>104.295959</ele>
<time>2010-08-29T15:09:35Z</time>
<desc>lat.=56.104530, lon.=26.450933, Alt.=104.295959m. Speed=23.976000m/h.</desc>
<speed>6.660000</speed>
</trkpt>
<trkpt lat="56.104546" lon="26.450827">
<ele>105.006897</ele>
<time>2010-08-29T15:09:36Z</time>
<desc>lat.=56.104546, lon.=26.450827, Alt.=105.006897m. Speed=23.724001m/h.</desc>
<speed>6.590000</speed>
</trkpt>
<trkpt lat="56.104561" lon="26.450720">
<ele>105.700256</ele>
<time>2010-08-29T15:09:37Z</time>
<desc>lat.=56.104561, lon.=26.450720, Alt.=105.700256m. Speed=23.256001m/h.</desc>
<speed>6.460000</speed>
</trkpt>
<trkpt lat="56.104576" lon="26.450624">
<ele>106.610413</ele>
<time>2010-08-29T15:09:38Z</time>
<desc>lat.=56.104576, lon.=26.450624, Alt.=106.610413m. Speed=22.968000m/h.</desc>
<speed>6.380000</speed>
</trkpt>
<trkpt lat="56.104591" lon="26.450529">
<ele>107.192444</ele>
<time>2010-08-29T15:09:39Z</time>
<desc>lat.=56.104591, lon.=26.450529, Alt.=107.192444m. Speed=22.860001m/h.</desc>
<speed>6.350000</speed>
</trkpt>
<trkpt lat="56.104607" lon="26.450430">
<ele>107.532288</ele>
<time>2010-08-29T15:09:40Z</time>
<desc>lat.=56.104607, lon.=26.450430, Alt.=107.532288m. Speed=22.643999m/h.</desc>
<speed>6.290000</speed>
</trkpt>
<trkpt lat="56.104622" lon="26.450333">
<ele>107.680725</ele>
<time>2010-08-29T15:09:41Z</time>
<desc>lat.=56.104622, lon.=26.450333, Alt.=107.680725m. Speed=22.608000m/h.</desc>
<speed>6.280000</speed>
</trkpt>
<trkpt lat="56.104641" lon="26.450233">
<ele>107.741272</ele>
<time>2010-08-29T15:09:42Z</time>
<desc>lat.=56.104641, lon.=26.450233, Alt.=107.741272m. Speed=23.112000m/h.</desc>
<speed>6.420000</speed>
</trkpt>
<trkpt lat="56.104660" lon="26.450142">
<ele>107.811584</ele>
<time>2010-08-29T15:09:43Z</time>
<desc>lat.=56.104660, lon.=26.450142, Alt.=107.811584m. Speed=23.580000m/h.</desc>
<speed>6.550000</speed>
</trkpt>
<trkpt lat="56.104675" lon="26.450048">
<ele>107.086975</ele>
<time>2010-08-29T15:09:44Z</time>
<desc>lat.=56.104675, lon.=26.450048, Alt.=107.086975m. Speed=24.048000m/h.</desc>
<speed>6.680000</speed>
</trkpt>
<trkpt lat="56.104683" lon="26.449949">
<ele>102.790100</ele>
<time>2010-08-29T15:09:45Z</time>
<desc>lat.=56.104683, lon.=26.449949, Alt.=102.790100m. Speed=23.940001m/h.</desc>
<speed>6.650000</speed>
</trkpt>
<trkpt lat="56.104706" lon="26.449846">
<ele>101.840881</ele>
<time>2010-08-29T15:09:46Z</time>
<desc>lat.=56.104706, lon.=26.449846, Alt.=101.840881m. Speed=24.948000m/h.</desc>
<speed>6.930000</speed>
</trkpt>
<trkpt lat="56.104736" lon="26.449736">
<ele>103.401428</ele>
<time>2010-08-29T15:09:47Z</time>
<desc>lat.=56.104736, lon.=26.449736, Alt.=103.401428m. Speed=26.532000m/h.</desc>
<speed>7.370000</speed>
</trkpt>
<trkpt lat="56.104759" lon="26.449635">
<ele>104.241272</ele>
<time>2010-08-29T15:09:48Z</time>
<desc>lat.=56.104759, lon.=26.449635, Alt.=104.241272m. Speed=24.552000m/h.</desc>
<speed>6.820000</speed>
</trkpt>
<trkpt lat="56.104778" lon="26.449530">
<ele>103.803772</ele>
<time>2010-08-29T15:09:49Z</time>
<desc>lat.=56.104778, lon.=26.449530, Alt.=103.803772m. Speed=24.624001m/h.</desc>
<speed>6.840000</speed>
</trkpt>
<trkpt lat="56.104809" lon="26.449429">
<ele>103.774475</ele>
<time>2010-08-29T15:09:50Z</time>
<desc>lat.=56.104809, lon.=26.449429, Alt.=103.774475m. Speed=24.552000m/h.</desc>
<speed>6.820000</speed>
</trkpt>
<trkpt lat="56.104836" lon="26.449324">
<ele>103.567444</ele>
<time>2010-08-29T15:09:51Z</time>
<desc>lat.=56.104836, lon.=26.449324, Alt.=103.567444m. Speed=24.372000m/h.</desc>
<speed>6.770000</speed>
</trkpt>
<trkpt lat="56.104858" lon="26.449223">
<ele>103.530334</ele>
<time>2010-08-29T15:09:52Z</time>
<desc>lat.=56.104858, lon.=26.449223, Alt.=103.530334m. Speed=23.868000m/h.</desc>
<speed>6.630000</speed>
</trkpt>
<trkpt lat="56.104877" lon="26.449123">
<ele>102.786194</ele>
<time>2010-08-29T15:09:53Z</time>
<desc>lat.=56.104877, lon.=26.449123, Alt.=102.786194m. Speed=24.120001m/h.</desc>
<speed>6.700000</speed>
</trkpt>
<trkpt lat="56.104900" lon="26.449017">
<ele>102.198303</ele>
<time>2010-08-29T15:09:54Z</time>
<desc>lat.=56.104900, lon.=26.449017, Alt.=102.198303m. Speed=24.552000m/h.</desc>
<speed>6.820000</speed>
</trkpt>
<trkpt lat="56.104923" lon="26.448914">
<ele>101.715881</ele>
<time>2010-08-29T15:09:55Z</time>
<desc>lat.=56.104923, lon.=26.448914, Alt.=101.715881m. Speed=24.516001m/h.</desc>
<speed>6.810000</speed>
</trkpt>
<trkpt lat="56.104950" lon="26.448811">
<ele>101.360413</ele>
<time>2010-08-29T15:09:56Z</time>
<desc>lat.=56.104950, lon.=26.448811, Alt.=101.360413m. Speed=24.372000m/h.</desc>
<speed>6.770000</speed>
</trkpt>
<trkpt lat="56.104973" lon="26.448713">
<ele>100.807678</ele>
<time>2010-08-29T15:09:57Z</time>
<desc>lat.=56.104973, lon.=26.448713, Alt.=100.807678m. Speed=24.804001m/h.</desc>
<speed>6.890000</speed>
</trkpt>
<trkpt lat="56.104996" lon="26.448616">
<ele>100.674866</ele>
<time>2010-08-29T15:09:58Z</time>
<desc>lat.=56.104996, lon.=26.448616, Alt.=100.674866m. Speed=23.796000m/h.</desc>
<speed>6.610000</speed>
</trkpt>
<trkpt lat="56.105019" lon="26.448523">
<ele>101.131897</ele>
<time>2010-08-29T15:09:59Z</time>
<desc>lat.=56.105019, lon.=26.448523, Alt.=101.131897m. Speed=23.364000m/h.</desc>
<speed>6.490000</speed>
</trkpt>
<trkpt lat="56.105042" lon="26.448433">
<ele>101.055725</ele>
<time>2010-08-29T15:10:00Z</time>
<desc>lat.=56.105042, lon.=26.448433, Alt.=101.055725m. Speed=20.664000m/h.</desc>
<speed>5.740000</speed>
</trkpt>
<trkpt lat="56.105068" lon="26.448345">
<ele>100.922913</ele>
<time>2010-08-29T15:10:01Z</time>
<desc>lat.=56.105068, lon.=26.448345, Alt.=100.922913m. Speed=22.284000m/h.</desc>
<speed>6.190000</speed>
</trkpt>
<trkpt lat="56.105095" lon="26.448252">
<ele>100.557678</ele>
<time>2010-08-29T15:10:02Z</time>
<desc>lat.=56.105095, lon.=26.448252, Alt.=100.557678m. Speed=23.292000m/h.</desc>
<speed>6.470000</speed>
</trkpt>
<trkpt lat="56.105122" lon="26.448158">
<ele>100.001038</ele>
<time>2010-08-29T15:10:03Z</time>
<desc>lat.=56.105122, lon.=26.448158, Alt.=100.001038m. Speed=22.139999m/h.</desc>
<speed>6.150000</speed>
</trkpt>
<trkpt lat="56.105141" lon="26.448067">
<ele>99.836975</ele>
<time>2010-08-29T15:10:04Z</time>
<desc>lat.=56.105141, lon.=26.448067, Alt.=99.836975m. Speed=21.636000m/h.</desc>
<speed>6.010000</speed>
</trkpt>
<trkpt lat="56.105160" lon="26.447975">
<ele>99.866272</ele>
<time>2010-08-29T15:10:05Z</time>
<desc>lat.=56.105160, lon.=26.447975, Alt.=99.866272m. Speed=21.096001m/h.</desc>
<speed>5.860000</speed>
</trkpt>
<trkpt lat="56.105183" lon="26.447887">
<ele>99.635803</ele>
<time>2010-08-29T15:10:06Z</time>
<desc>lat.=56.105183, lon.=26.447887, Alt.=99.635803m. Speed=20.304001m/h.</desc>
<speed>5.640000</speed>
</trkpt>
<trkpt lat="56.105206" lon="26.447803">
<ele>99.006897</ele>
<time>2010-08-29T15:10:07Z</time>
<desc>lat.=56.105206, lon.=26.447803, Alt.=99.006897m. Speed=19.656000m/h.</desc>
<speed>5.460000</speed>
</trkpt>
<trkpt lat="56.105228" lon="26.447725">
<ele>98.895569</ele>
<time>2010-08-29T15:10:08Z</time>
<desc>lat.=56.105228, lon.=26.447725, Alt.=98.895569m. Speed=18.900000m/h.</desc>
<speed>5.250000</speed>
</trkpt>
<trkpt lat="56.105247" lon="26.447647">
<ele>98.885803</ele>
<time>2010-08-29T15:10:09Z</time>
<desc>lat.=56.105247, lon.=26.447647, Alt.=98.885803m. Speed=18.216000m/h.</desc>
<speed>5.060000</speed>
</trkpt>
<trkpt lat="56.105263" lon="26.447578">
<ele>98.838928</ele>
<time>2010-08-29T15:10:10Z</time>
<desc>lat.=56.105263, lon.=26.447578, Alt.=98.838928m. Speed=17.136000m/h.</desc>
<speed>4.760000</speed>
</trkpt>
<trkpt lat="56.105282" lon="26.447506">
<ele>98.754944</ele>
<time>2010-08-29T15:10:11Z</time>
<desc>lat.=56.105282, lon.=26.447506, Alt.=98.754944m. Speed=17.063999m/h.</desc>
<speed>4.740000</speed>
</trkpt>
<trkpt lat="56.105301" lon="26.447437">
<ele>98.536194</ele>
<time>2010-08-29T15:10:12Z</time>
<desc>lat.=56.105301, lon.=26.447437, Alt.=98.536194m. Speed=16.416000m/h.</desc>
<speed>4.560000</speed>
</trkpt>
<trkpt lat="56.105320" lon="26.447371">
<ele>98.131897</ele>
<time>2010-08-29T15:10:13Z</time>
<desc>lat.=56.105320, lon.=26.447371, Alt.=98.131897m. Speed=15.768000m/h.</desc>
<speed>4.380000</speed>
</trkpt>
<trkpt lat="56.105331" lon="26.447296">
<ele>95.309631</ele>
<time>2010-08-29T15:10:14Z</time>
<desc>lat.=56.105331, lon.=26.447296, Alt.=95.309631m. Speed=14.472000m/h.</desc>
<speed>4.020000</speed>
</trkpt>
<trkpt lat="56.105347" lon="26.447239">
<ele>95.397522</ele>
<time>2010-08-29T15:10:15Z</time>
<desc>lat.=56.105347, lon.=26.447239, Alt.=95.397522m. Speed=14.364000m/h.</desc>
<speed>3.990000</speed>
</trkpt>
<trkpt lat="56.105362" lon="26.447182">
<ele>95.577209</ele>
<time>2010-08-29T15:10:16Z</time>
<desc>lat.=56.105362, lon.=26.447182, Alt.=95.577209m. Speed=13.716000m/h.</desc>
<speed>3.810000</speed>
</trkpt>
<trkpt lat="56.105373" lon="26.447128">
<ele>95.538147</ele>
<time>2010-08-29T15:10:17Z</time>
<desc>lat.=56.105373, lon.=26.447128, Alt.=95.538147m. Speed=13.104000m/h.</desc>
<speed>3.640000</speed>
</trkpt>
<trkpt lat="56.105389" lon="26.447079">
<ele>95.499084</ele>
<time>2010-08-29T15:10:18Z</time>
<desc>lat.=56.105389, lon.=26.447079, Alt.=95.499084m. Speed=12.636000m/h.</desc>
<speed>3.510000</speed>
</trkpt>
<trkpt lat="56.105400" lon="26.447029">
<ele>95.391663</ele>
<time>2010-08-29T15:10:19Z</time>
<desc>lat.=56.105400, lon.=26.447029, Alt.=95.391663m. Speed=12.168000m/h.</desc>
<speed>3.380000</speed>
</trkpt>
<trkpt lat="56.105415" lon="26.446981">
<ele>95.282288</ele>
<time>2010-08-29T15:10:20Z</time>
<desc>lat.=56.105415, lon.=26.446981, Alt.=95.282288m. Speed=11.772000m/h.</desc>
<speed>3.270000</speed>
</trkpt>
<trkpt lat="56.105431" lon="26.446934">
<ele>95.014709</ele>
<time>2010-08-29T15:10:21Z</time>
<desc>lat.=56.105431, lon.=26.446934, Alt.=95.014709m. Speed=11.376000m/h.</desc>
<speed>3.160000</speed>
</trkpt>
<trkpt lat="56.105442" lon="26.446892">
<ele>94.883850</ele>
<time>2010-08-29T15:10:22Z</time>
<desc>lat.=56.105442, lon.=26.446892, Alt.=94.883850m. Speed=11.052000m/h.</desc>
<speed>3.070000</speed>
</trkpt>
<trkpt lat="56.105457" lon="26.446856">
<ele>95.237366</ele>
<time>2010-08-29T15:10:23Z</time>
<desc>lat.=56.105457, lon.=26.446856, Alt.=95.237366m. Speed=10.656000m/h.</desc>
<speed>2.960000</speed>
</trkpt>
<trkpt lat="56.105469" lon="26.446817">
<ele>95.301819</ele>
<time>2010-08-29T15:10:24Z</time>
<desc>lat.=56.105469, lon.=26.446817, Alt.=95.301819m. Speed=10.980000m/h.</desc>
<speed>3.050000</speed>
</trkpt>
<trkpt lat="56.105480" lon="26.446775">
<ele>95.280334</ele>
<time>2010-08-29T15:10:25Z</time>
<desc>lat.=56.105480, lon.=26.446775, Alt.=95.280334m. Speed=10.404000m/h.</desc>
<speed>2.890000</speed>
</trkpt>
<trkpt lat="56.105495" lon="26.446735">
<ele>95.239319</ele>
<time>2010-08-29T15:10:26Z</time>
<desc>lat.=56.105495, lon.=26.446735, Alt.=95.239319m. Speed=10.512000m/h.</desc>
<speed>2.920000</speed>
</trkpt>
<trkpt lat="56.105503" lon="26.446695">
<ele>95.569397</ele>
<time>2010-08-29T15:10:27Z</time>
<desc>lat.=56.105503, lon.=26.446695, Alt.=95.569397m. Speed=9.864000m/h.</desc>
<speed>2.740000</speed>
</trkpt>
<trkpt lat="56.105507" lon="26.446651">
<ele>95.182678</ele>
<time>2010-08-29T15:10:28Z</time>
<desc>lat.=56.105507, lon.=26.446651, Alt.=95.182678m. Speed=9.036000m/h.</desc>
<speed>2.510000</speed>
</trkpt>
<trkpt lat="56.105515" lon="26.446617">
<ele>94.821350</ele>
<time>2010-08-29T15:10:29Z</time>
<desc>lat.=56.105515, lon.=26.446617, Alt.=94.821350m. Speed=8.748000m/h.</desc>
<speed>2.430000</speed>
</trkpt>
<trkpt lat="56.105526" lon="26.446585">
<ele>94.270569</ele>
<time>2010-08-29T15:10:30Z</time>
<desc>lat.=56.105526, lon.=26.446585, Alt.=94.270569m. Speed=8.532000m/h.</desc>
<speed>2.370000</speed>
</trkpt>
<trkpt lat="56.105534" lon="26.446552">
<ele>93.854553</ele>
<time>2010-08-29T15:10:31Z</time>
<desc>lat.=56.105534, lon.=26.446552, Alt.=93.854553m. Speed=8.244000m/h.</desc>
<speed>2.290000</speed>
</trkpt>
<trkpt lat="56.105537" lon="26.446520">
<ele>93.542053</ele>
<time>2010-08-29T15:10:32Z</time>
<desc>lat.=56.105537, lon.=26.446520, Alt.=93.542053m. Speed=7.956000m/h.</desc>
<speed>2.210000</speed>
</trkpt>
<trkpt lat="56.105541" lon="26.446491">
<ele>93.542053</ele>
<time>2010-08-29T15:10:33Z</time>
<desc>lat.=56.105541, lon.=26.446491, Alt.=93.542053m. Speed=7.632000m/h.</desc>
<speed>2.120000</speed>
</trkpt>
<trkpt lat="56.105549" lon="26.446465">
<ele>93.436584</ele>
<time>2010-08-29T15:10:34Z</time>
<desc>lat.=56.105549, lon.=26.446465, Alt.=93.436584m. Speed=7.524000m/h.</desc>
<speed>2.090000</speed>
</trkpt>
<trkpt lat="56.105556" lon="26.446442">
<ele>93.497131</ele>
<time>2010-08-29T15:10:35Z</time>
<desc>lat.=56.105556, lon.=26.446442, Alt.=93.497131m. Speed=7.236000m/h.</desc>
<speed>2.010000</speed>
</trkpt>
<trkpt lat="56.105564" lon="26.446415">
<ele>93.649475</ele>
<time>2010-08-29T15:10:36Z</time>
<desc>lat.=56.105564, lon.=26.446415, Alt.=93.649475m. Speed=7.200000m/h.</desc>
<speed>2.000000</speed>
</trkpt>
<trkpt lat="56.105572" lon="26.446388">
<ele>93.590881</ele>
<time>2010-08-29T15:10:37Z</time>
<desc>lat.=56.105572, lon.=26.446388, Alt.=93.590881m. Speed=7.020000m/h.</desc>
<speed>1.950000</speed>
</trkpt>
<trkpt lat="56.105579" lon="26.446362">
<ele>93.620178</ele>
<time>2010-08-29T15:10:38Z</time>
<desc>lat.=56.105579, lon.=26.446362, Alt.=93.620178m. Speed=6.660000m/h.</desc>
<speed>1.850000</speed>
</trkpt>
<trkpt lat="56.105587" lon="26.446333">
<ele>93.432678</ele>
<time>2010-08-29T15:10:39Z</time>
<desc>lat.=56.105587, lon.=26.446333, Alt.=93.432678m. Speed=6.552000m/h.</desc>
<speed>1.820000</speed>
</trkpt>
<trkpt lat="56.105595" lon="26.446306">
<ele>93.094788</ele>
<time>2010-08-29T15:10:40Z</time>
<desc>lat.=56.105595, lon.=26.446306, Alt.=93.094788m. Speed=6.192000m/h.</desc>
<speed>1.720000</speed>
</trkpt>
<trkpt lat="56.105606" lon="26.446287">
<ele>93.692444</ele>
<time>2010-08-29T15:10:41Z</time>
<desc>lat.=56.105606, lon.=26.446287, Alt.=93.692444m. Speed=6.372000m/h.</desc>
<speed>1.770000</speed>
</trkpt>
<trkpt lat="56.105614" lon="26.446260">
<ele>93.766663</ele>
<time>2010-08-29T15:10:42Z</time>
<desc>lat.=56.105614, lon.=26.446260, Alt.=93.766663m. Speed=6.372000m/h.</desc>
<speed>1.770000</speed>
</trkpt>
<trkpt lat="56.105621" lon="26.446226">
<ele>93.598694</ele>
<time>2010-08-29T15:10:43Z</time>
<desc>lat.=56.105621, lon.=26.446226, Alt.=93.598694m. Speed=7.056000m/h.</desc>
<speed>1.960000</speed>
</trkpt>
<trkpt lat="56.105625" lon="26.446196">
<ele>93.956116</ele>
<time>2010-08-29T15:10:44Z</time>
<desc>lat.=56.105625, lon.=26.446196, Alt.=93.956116m. Speed=7.380000m/h.</desc>
<speed>2.050000</speed>
</trkpt>
<trkpt lat="56.105633" lon="26.446167">
<ele>94.120178</ele>
<time>2010-08-29T15:10:45Z</time>
<desc>lat.=56.105633, lon.=26.446167, Alt.=94.120178m. Speed=8.208000m/h.</desc>
<speed>2.280000</speed>
</trkpt>
<trkpt lat="56.105640" lon="26.446131">
<ele>94.467834</ele>
<time>2010-08-29T15:10:46Z</time>
<desc>lat.=56.105640, lon.=26.446131, Alt.=94.467834m. Speed=9.432000m/h.</desc>
<speed>2.620000</speed>
</trkpt>
<trkpt lat="56.105652" lon="26.446096">
<ele>94.784241</ele>
<time>2010-08-29T15:10:47Z</time>
<desc>lat.=56.105652, lon.=26.446096, Alt.=94.784241m. Speed=10.800000m/h.</desc>
<speed>3.000000</speed>
</trkpt>
<trkpt lat="56.105663" lon="26.446053">
<ele>95.053772</ele>
<time>2010-08-29T15:10:48Z</time>
<desc>lat.=56.105663, lon.=26.446053, Alt.=95.053772m. Speed=11.448000m/h.</desc>
<speed>3.180000</speed>
</trkpt>
<trkpt lat="56.105675" lon="26.446009">
<ele>95.350647</ele>
<time>2010-08-29T15:10:49Z</time>
<desc>lat.=56.105675, lon.=26.446009, Alt.=95.350647m. Speed=11.700000m/h.</desc>
<speed>3.250000</speed>
</trkpt>
<trkpt lat="56.105690" lon="26.445961">
<ele>95.766663</ele>
<time>2010-08-29T15:10:50Z</time>
<desc>lat.=56.105690, lon.=26.445961, Alt.=95.766663m. Speed=12.600000m/h.</desc>
<speed>3.500000</speed>
</trkpt>
<trkpt lat="56.105705" lon="26.445902">
<ele>95.645569</ele>
<time>2010-08-29T15:10:51Z</time>
<desc>lat.=56.105705, lon.=26.445902, Alt.=95.645569m. Speed=14.652000m/h.</desc>
<speed>4.070000</speed>
</trkpt>
<trkpt lat="56.105728" lon="26.445837">
<ele>95.463928</ele>
<time>2010-08-29T15:10:52Z</time>
<desc>lat.=56.105728, lon.=26.445837, Alt.=95.463928m. Speed=15.588000m/h.</desc>
<speed>4.330000</speed>
</trkpt>
<trkpt lat="56.105747" lon="26.445774">
<ele>95.241272</ele>
<time>2010-08-29T15:10:53Z</time>
<desc>lat.=56.105747, lon.=26.445774, Alt.=95.241272m. Speed=15.912000m/h.</desc>
<speed>4.420000</speed>
</trkpt>
<trkpt lat="56.105762" lon="26.445707">
<ele>95.020569</ele>
<time>2010-08-29T15:10:54Z</time>
<desc>lat.=56.105762, lon.=26.445707, Alt.=95.020569m. Speed=16.632000m/h.</desc>
<speed>4.620000</speed>
</trkpt>
<trkpt lat="56.105785" lon="26.445635">
<ele>94.854553</ele>
<time>2010-08-29T15:10:55Z</time>
<desc>lat.=56.105785, lon.=26.445635, Alt.=94.854553m. Speed=16.920000m/h.</desc>
<speed>4.700000</speed>
</trkpt>
<trkpt lat="56.105801" lon="26.445562">
<ele>95.010803</ele>
<time>2010-08-29T15:10:56Z</time>
<desc>lat.=56.105801, lon.=26.445562, Alt.=95.010803m. Speed=16.379999m/h.</desc>
<speed>4.550000</speed>
</trkpt>
<trkpt lat="56.105820" lon="26.445496">
<ele>94.473694</ele>
<time>2010-08-29T15:10:57Z</time>
<desc>lat.=56.105820, lon.=26.445496, Alt.=94.473694m. Speed=16.559999m/h.</desc>
<speed>4.600000</speed>
</trkpt>
<trkpt lat="56.105835" lon="26.445425">
<ele>93.202209</ele>
<time>2010-08-29T15:10:58Z</time>
<desc>lat.=56.105835, lon.=26.445425, Alt.=93.202209m. Speed=17.532000m/h.</desc>
<speed>4.870000</speed>
</trkpt>
<trkpt lat="56.105858" lon="26.445353">
<ele>94.327209</ele>
<time>2010-08-29T15:10:59Z</time>
<desc>lat.=56.105858, lon.=26.445353, Alt.=94.327209m. Speed=18.972000m/h.</desc>
<speed>5.270000</speed>
</trkpt>
<trkpt lat="56.105877" lon="26.445276">
<ele>94.366272</ele>
<time>2010-08-29T15:11:00Z</time>
<desc>lat.=56.105877, lon.=26.445276, Alt.=94.366272m. Speed=18.792000m/h.</desc>
<speed>5.220000</speed>
</trkpt>
<trkpt lat="56.105896" lon="26.445198">
<ele>94.346741</ele>
<time>2010-08-29T15:11:01Z</time>
<desc>lat.=56.105896, lon.=26.445198, Alt.=94.346741m. Speed=19.836000m/h.</desc>
<speed>5.510000</speed>
</trkpt>
<trkpt lat="56.105919" lon="26.445120">
<ele>94.211975</ele>
<time>2010-08-29T15:11:02Z</time>
<desc>lat.=56.105919, lon.=26.445120, Alt.=94.211975m. Speed=19.691999m/h.</desc>
<speed>5.470000</speed>
</trkpt>
<trkpt lat="56.105942" lon="26.445038">
<ele>94.778381</ele>
<time>2010-08-29T15:11:03Z</time>
<desc>lat.=56.105942, lon.=26.445038, Alt.=94.778381m. Speed=20.879999m/h.</desc>
<speed>5.800000</speed>
</trkpt>
<trkpt lat="56.105968" lon="26.444944">
<ele>94.444397</ele>
<time>2010-08-29T15:11:04Z</time>
<desc>lat.=56.105968, lon.=26.444944, Alt.=94.444397m. Speed=22.284000m/h.</desc>
<speed>6.190000</speed>
</trkpt>
<trkpt lat="56.105991" lon="26.444849">
<ele>93.649475</ele>
<time>2010-08-29T15:11:05Z</time>
<desc>lat.=56.105991, lon.=26.444849, Alt.=93.649475m. Speed=23.112000m/h.</desc>
<speed>6.420000</speed>
</trkpt>
<trkpt lat="56.106018" lon="26.444750">
<ele>92.905334</ele>
<time>2010-08-29T15:11:06Z</time>
<desc>lat.=56.106018, lon.=26.444750, Alt.=92.905334m. Speed=23.076000m/h.</desc>
<speed>6.410000</speed>
</trkpt>
<trkpt lat="56.106045" lon="26.444649">
<ele>92.510803</ele>
<time>2010-08-29T15:11:07Z</time>
<desc>lat.=56.106045, lon.=26.444649, Alt.=92.510803m. Speed=23.507999m/h.</desc>
<speed>6.530000</speed>
</trkpt>
<trkpt lat="56.106071" lon="26.444553">
<ele>92.245178</ele>
<time>2010-08-29T15:11:08Z</time>
<desc>lat.=56.106071, lon.=26.444553, Alt.=92.245178m. Speed=22.284000m/h.</desc>
<speed>6.190000</speed>
</trkpt>
<trkpt lat="56.106094" lon="26.444462">
<ele>92.387756</ele>
<time>2010-08-29T15:11:09Z</time>
<desc>lat.=56.106094, lon.=26.444462, Alt.=92.387756m. Speed=21.816000m/h.</desc>
<speed>6.060000</speed>
</trkpt>
<trkpt lat="56.106113" lon="26.444378">
<ele>92.571350</ele>
<time>2010-08-29T15:11:10Z</time>
<desc>lat.=56.106113, lon.=26.444378, Alt.=92.571350m. Speed=21.059999m/h.</desc>
<speed>5.850000</speed>
</trkpt>
<trkpt lat="56.106136" lon="26.444298">
<ele>92.702209</ele>
<time>2010-08-29T15:11:11Z</time>
<desc>lat.=56.106136, lon.=26.444298, Alt.=92.702209m. Speed=20.304001m/h.</desc>
<speed>5.640000</speed>
</trkpt>
<trkpt lat="56.106155" lon="26.444220">
<ele>93.344788</ele>
<time>2010-08-29T15:11:12Z</time>
<desc>lat.=56.106155, lon.=26.444220, Alt.=93.344788m. Speed=19.764000m/h.</desc>
<speed>5.490000</speed>
</trkpt>
<trkpt lat="56.106171" lon="26.444141">
<ele>93.241272</ele>
<time>2010-08-29T15:11:13Z</time>
<desc>lat.=56.106171, lon.=26.444141, Alt.=93.241272m. Speed=19.115999m/h.</desc>
<speed>5.310000</speed>
</trkpt>
<trkpt lat="56.106190" lon="26.444065">
<ele>92.963928</ele>
<time>2010-08-29T15:11:14Z</time>
<desc>lat.=56.106190, lon.=26.444065, Alt.=92.963928m. Speed=18.468000m/h.</desc>
<speed>5.130000</speed>
</trkpt>
<trkpt lat="56.106205" lon="26.443991">
<ele>93.067444</ele>
<time>2010-08-29T15:11:15Z</time>
<desc>lat.=56.106205, lon.=26.443991, Alt.=93.067444m. Speed=18.936001m/h.</desc>
<speed>5.260000</speed>
</trkpt>
<trkpt lat="56.106224" lon="26.443918">
<ele>93.940491</ele>
<time>2010-08-29T15:11:16Z</time>
<desc>lat.=56.106224, lon.=26.443918, Alt.=93.940491m. Speed=19.944000m/h.</desc>
<speed>5.540000</speed>
</trkpt>
<trkpt lat="56.106247" lon="26.443842">
<ele>93.874084</ele>
<time>2010-08-29T15:11:17Z</time>
<desc>lat.=56.106247, lon.=26.443842, Alt.=93.874084m. Speed=21.132000m/h.</desc>
<speed>5.870000</speed>
</trkpt>
<trkpt lat="56.106270" lon="26.443756">
<ele>93.825256</ele>
<time>2010-08-29T15:11:18Z</time>
<desc>lat.=56.106270, lon.=26.443756, Alt.=93.825256m. Speed=21.492001m/h.</desc>
<speed>5.970000</speed>
</trkpt>
<trkpt lat="56.106293" lon="26.443666">
<ele>93.817444</ele>
<time>2010-08-29T15:11:19Z</time>
<desc>lat.=56.106293, lon.=26.443666, Alt.=93.817444m. Speed=22.716000m/h.</desc>
<speed>6.310000</speed>
</trkpt>
<trkpt lat="56.106319" lon="26.443573">
<ele>93.569397</ele>
<time>2010-08-29T15:11:20Z</time>
<desc>lat.=56.106319, lon.=26.443573, Alt.=93.569397m. Speed=22.931999m/h.</desc>
<speed>6.370000</speed>
</trkpt>
<trkpt lat="56.106346" lon="26.443485">
<ele>93.856506</ele>
<time>2010-08-29T15:11:21Z</time>
<desc>lat.=56.106346, lon.=26.443485, Alt.=93.856506m. Speed=21.672001m/h.</desc>
<speed>6.020000</speed>
</trkpt>
<trkpt lat="56.106369" lon="26.443394">
<ele>94.346741</ele>
<time>2010-08-29T15:11:22Z</time>
<desc>lat.=56.106369, lon.=26.443394, Alt.=94.346741m. Speed=21.743999m/h.</desc>
<speed>6.040000</speed>
</trkpt>
<trkpt lat="56.106396" lon="26.443310">
<ele>94.327209</ele>
<time>2010-08-29T15:11:23Z</time>
<desc>lat.=56.106396, lon.=26.443310, Alt.=94.327209m. Speed=21.024000m/h.</desc>
<speed>5.840000</speed>
</trkpt>
<trkpt lat="56.106419" lon="26.443222">
<ele>94.391663</ele>
<time>2010-08-29T15:11:24Z</time>
<desc>lat.=56.106419, lon.=26.443222, Alt.=94.391663m. Speed=20.232000m/h.</desc>
<speed>5.620000</speed>
</trkpt>
<trkpt lat="56.106445" lon="26.443130">
<ele>93.002991</ele>
<time>2010-08-29T15:11:25Z</time>
<desc>lat.=56.106445, lon.=26.443130, Alt.=93.002991m. Speed=21.743999m/h.</desc>
<speed>6.040000</speed>
</trkpt>
<trkpt lat="56.106472" lon="26.443039">
<ele>92.420959</ele>
<time>2010-08-29T15:11:26Z</time>
<desc>lat.=56.106472, lon.=26.443039, Alt.=92.420959m. Speed=21.312000m/h.</desc>
<speed>5.920000</speed>
</trkpt>
<trkpt lat="56.106499" lon="26.442957">
<ele>93.577209</ele>
<time>2010-08-29T15:11:27Z</time>
<desc>lat.=56.106499, lon.=26.442957, Alt.=93.577209m. Speed=22.968000m/h.</desc>
<speed>6.380000</speed>
</trkpt>
<trkpt lat="56.106522" lon="26.442867">
<ele>93.159241</ele>
<time>2010-08-29T15:11:28Z</time>
<desc>lat.=56.106522, lon.=26.442867, Alt.=93.159241m. Speed=22.068001m/h.</desc>
<speed>6.130000</speed>
</trkpt>
<trkpt lat="56.106544" lon="26.442774">
<ele>93.096741</ele>
<time>2010-08-29T15:11:29Z</time>
<desc>lat.=56.106544, lon.=26.442774, Alt.=93.096741m. Speed=23.688000m/h.</desc>
<speed>6.580000</speed>
</trkpt>
<trkpt lat="56.106571" lon="26.442678">
<ele>92.985413</ele>
<time>2010-08-29T15:11:30Z</time>
<desc>lat.=56.106571, lon.=26.442678, Alt.=92.985413m. Speed=23.436001m/h.</desc>
<speed>6.510000</speed>
</trkpt>
<trkpt lat="56.106594" lon="26.442583">
<ele>93.126038</ele>
<time>2010-08-29T15:11:31Z</time>
<desc>lat.=56.106594, lon.=26.442583, Alt.=93.126038m. Speed=23.472000m/h.</desc>
<speed>6.520000</speed>
</trkpt>
<trkpt lat="56.106617" lon="26.442492">
<ele>93.440491</ele>
<time>2010-08-29T15:11:32Z</time>
<desc>lat.=56.106617, lon.=26.442492, Alt.=93.440491m. Speed=22.392000m/h.</desc>
<speed>6.220000</speed>
</trkpt>
<trkpt lat="56.106636" lon="26.442398">
<ele>93.438538</ele>
<time>2010-08-29T15:11:33Z</time>
<desc>lat.=56.106636, lon.=26.442398, Alt.=93.438538m. Speed=21.888000m/h.</desc>
<speed>6.080000</speed>
</trkpt>
<trkpt lat="56.106651" lon="26.442314">
<ele>93.393616</ele>
<time>2010-08-29T15:11:34Z</time>
<desc>lat.=56.106651, lon.=26.442314, Alt.=93.393616m. Speed=20.736000m/h.</desc>
<speed>5.760000</speed>
</trkpt>
<trkpt lat="56.106674" lon="26.442236">
<ele>93.717834</ele>
<time>2010-08-29T15:11:35Z</time>
<desc>lat.=56.106674, lon.=26.442236, Alt.=93.717834m. Speed=19.944000m/h.</desc>
<speed>5.540000</speed>
</trkpt>
<trkpt lat="56.106693" lon="26.442158">
<ele>93.813538</ele>
<time>2010-08-29T15:11:36Z</time>
<desc>lat.=56.106693, lon.=26.442158, Alt.=93.813538m. Speed=19.440001m/h.</desc>
<speed>5.400000</speed>
</trkpt>
<trkpt lat="56.106709" lon="26.442089">
<ele>94.262756</ele>
<time>2010-08-29T15:11:37Z</time>
<desc>lat.=56.106709, lon.=26.442089, Alt.=94.262756m. Speed=18.792000m/h.</desc>
<speed>5.220000</speed>
</trkpt>
<trkpt lat="56.106728" lon="26.442011">
<ele>94.313538</ele>
<time>2010-08-29T15:11:38Z</time>
<desc>lat.=56.106728, lon.=26.442011, Alt.=94.313538m. Speed=18.108000m/h.</desc>
<speed>5.030000</speed>
</trkpt>
<trkpt lat="56.106747" lon="26.441938">
<ele>94.538147</ele>
<time>2010-08-29T15:11:39Z</time>
<desc>lat.=56.106747, lon.=26.441938, Alt.=94.538147m. Speed=17.712000m/h.</desc>
<speed>4.920000</speed>
</trkpt>
<trkpt lat="56.106766" lon="26.441875">
<ele>95.442444</ele>
<time>2010-08-29T15:11:40Z</time>
<desc>lat.=56.106766, lon.=26.441875, Alt.=95.442444m. Speed=17.280001m/h.</desc>
<speed>4.800000</speed>
</trkpt>
<trkpt lat="56.106789" lon="26.441818">
<ele>96.295959</ele>
<time>2010-08-29T15:11:41Z</time>
<desc>lat.=56.106789, lon.=26.441818, Alt.=96.295959m. Speed=16.524000m/h.</desc>
<speed>4.590000</speed>
</trkpt>
<trkpt lat="56.106808" lon="26.441755">
<ele>96.663147</ele>
<time>2010-08-29T15:11:42Z</time>
<desc>lat.=56.106808, lon.=26.441755, Alt.=96.663147m. Speed=16.056000m/h.</desc>
<speed>4.460000</speed>
</trkpt>
<trkpt lat="56.106823" lon="26.441690">
<ele>96.719788</ele>
<time>2010-08-29T15:11:43Z</time>
<desc>lat.=56.106823, lon.=26.441690, Alt.=96.719788m. Speed=15.696000m/h.</desc>
<speed>4.360000</speed>
</trkpt>
<trkpt lat="56.106838" lon="26.441624">
<ele>96.383850</ele>
<time>2010-08-29T15:11:44Z</time>
<desc>lat.=56.106838, lon.=26.441624, Alt.=96.383850m. Speed=15.084000m/h.</desc>
<speed>4.190000</speed>
</trkpt>
<trkpt lat="56.106853" lon="26.441563">
<ele>96.526428</ele>
<time>2010-08-29T15:11:45Z</time>
<desc>lat.=56.106853, lon.=26.441563, Alt.=96.526428m. Speed=14.256000m/h.</desc>
<speed>3.960000</speed>
</trkpt>
<trkpt lat="56.106865" lon="26.441509">
<ele>97.274475</ele>
<time>2010-08-29T15:11:46Z</time>
<desc>lat.=56.106865, lon.=26.441509, Alt.=97.274475m. Speed=13.788000m/h.</desc>
<speed>3.830000</speed>
</trkpt>
<trkpt lat="56.106880" lon="26.441452">
<ele>97.542053</ele>
<time>2010-08-29T15:11:47Z</time>
<desc>lat.=56.106880, lon.=26.441452, Alt.=97.542053m. Speed=14.364000m/h.</desc>
<speed>3.990000</speed>
</trkpt>
<trkpt lat="56.106892" lon="26.441395">
<ele>97.520569</ele>
<time>2010-08-29T15:11:48Z</time>
<desc>lat.=56.106892, lon.=26.441395, Alt.=97.520569m. Speed=13.032000m/h.</desc>
<speed>3.620000</speed>
</trkpt>
<trkpt lat="56.106907" lon="26.441336">
<ele>98.178772</ele>
<time>2010-08-29T15:11:49Z</time>
<desc>lat.=56.106907, lon.=26.441336, Alt.=98.178772m. Speed=12.744000m/h.</desc>
<speed>3.540000</speed>
</trkpt>
<trkpt lat="56.106922" lon="26.441275">
<ele>98.249084</ele>
<time>2010-08-29T15:11:50Z</time>
<desc>lat.=56.106922, lon.=26.441275, Alt.=98.249084m. Speed=15.156000m/h.</desc>
<speed>4.210000</speed>
</trkpt>
<trkpt lat="56.106945" lon="26.441225">
<ele>98.374084</ele>
<time>2010-08-29T15:11:51Z</time>
<desc>lat.=56.106945, lon.=26.441225, Alt.=98.374084m. Speed=13.716000m/h.</desc>
<speed>3.810000</speed>
</trkpt>
<trkpt lat="56.106964" lon="26.441162">
<ele>97.915100</ele>
<time>2010-08-29T15:11:52Z</time>
<desc>lat.=56.106964, lon.=26.441162, Alt.=97.915100m. Speed=15.696000m/h.</desc>
<speed>4.360000</speed>
</trkpt>
<trkpt lat="56.106983" lon="26.441092">
<ele>97.860413</ele>
<time>2010-08-29T15:11:53Z</time>
<desc>lat.=56.106983, lon.=26.441092, Alt.=97.860413m. Speed=15.444000m/h.</desc>
<speed>4.290000</speed>
</trkpt>
<trkpt lat="56.106998" lon="26.441019">
<ele>96.754944</ele>
<time>2010-08-29T15:11:54Z</time>
<desc>lat.=56.106998, lon.=26.441019, Alt.=96.754944m. Speed=16.992001m/h.</desc>
<speed>4.720000</speed>
</trkpt>
<trkpt lat="56.107014" lon="26.440956">
<ele>96.110413</ele>
<time>2010-08-29T15:11:55Z</time>
<desc>lat.=56.107014, lon.=26.440956, Alt.=96.110413m. Speed=17.351999m/h.</desc>
<speed>4.820000</speed>
</trkpt>
<trkpt lat="56.107037" lon="26.440886">
<ele>95.633850</ele>
<time>2010-08-29T15:11:56Z</time>
<desc>lat.=56.107037, lon.=26.440886, Alt.=95.633850m. Speed=18.035999m/h.</desc>
<speed>5.010000</speed>
</trkpt>
<trkpt lat="56.107059" lon="26.440815">
<ele>94.938538</ele>
<time>2010-08-29T15:11:57Z</time>
<desc>lat.=56.107059, lon.=26.440815, Alt.=94.938538m. Speed=17.639999m/h.</desc>
<speed>4.900000</speed>
</trkpt>
<trkpt lat="56.107086" lon="26.440750">
<ele>95.627991</ele>
<time>2010-08-29T15:11:58Z</time>
<desc>lat.=56.107086, lon.=26.440750, Alt.=95.627991m. Speed=17.676001m/h.</desc>
<speed>4.910000</speed>
</trkpt>
<trkpt lat="56.107113" lon="26.440685">
<ele>97.278381</ele>
<time>2010-08-29T15:11:59Z</time>
<desc>lat.=56.107113, lon.=26.440685, Alt.=97.278381m. Speed=19.007999m/h.</desc>
<speed>5.280000</speed>
</trkpt>
<trkpt lat="56.107140" lon="26.440609">
<ele>97.161194</ele>
<time>2010-08-29T15:12:00Z</time>
<desc>lat.=56.107140, lon.=26.440609, Alt.=97.161194m. Speed=20.808001m/h.</desc>
<speed>5.780000</speed>
</trkpt>
<trkpt lat="56.107174" lon="26.440531">
<ele>97.946350</ele>
<time>2010-08-29T15:12:01Z</time>
<desc>lat.=56.107174, lon.=26.440531, Alt.=97.946350m. Speed=21.816000m/h.</desc>
<speed>6.060000</speed>
</trkpt>
<trkpt lat="56.107208" lon="26.440451">
<ele>95.809631</ele>
<time>2010-08-29T15:12:02Z</time>
<desc>lat.=56.107208, lon.=26.440451, Alt.=95.809631m. Speed=22.427999m/h.</desc>
<speed>6.230000</speed>
</trkpt>
<trkpt lat="56.107243" lon="26.440372">
<ele>96.415100</ele>
<time>2010-08-29T15:12:03Z</time>
<desc>lat.=56.107243, lon.=26.440372, Alt.=96.415100m. Speed=22.643999m/h.</desc>
<speed>6.290000</speed>
</trkpt>
<trkpt lat="56.107281" lon="26.440294">
<ele>96.096741</ele>
<time>2010-08-29T15:12:04Z</time>
<desc>lat.=56.107281, lon.=26.440294, Alt.=96.096741m. Speed=22.572001m/h.</desc>
<speed>6.270000</speed>
</trkpt>
<trkpt lat="56.107315" lon="26.440216">
<ele>95.764709</ele>
<time>2010-08-29T15:12:05Z</time>
<desc>lat.=56.107315, lon.=26.440216, Alt.=95.764709m. Speed=21.996000m/h.</desc>
<speed>6.110000</speed>
</trkpt>
<trkpt lat="56.107353" lon="26.440144">
<ele>96.319397</ele>
<time>2010-08-29T15:12:06Z</time>
<desc>lat.=56.107353, lon.=26.440144, Alt.=96.319397m. Speed=21.851999m/h.</desc>
<speed>6.070000</speed>
</trkpt>
<trkpt lat="56.107395" lon="26.440069">
<ele>96.776428</ele>
<time>2010-08-29T15:12:07Z</time>
<desc>lat.=56.107395, lon.=26.440069, Alt.=96.776428m. Speed=21.888000m/h.</desc>
<speed>6.080000</speed>
</trkpt>
<trkpt lat="56.107430" lon="26.440001">
<ele>96.678772</ele>
<time>2010-08-29T15:12:08Z</time>
<desc>lat.=56.107430, lon.=26.440001, Alt.=96.678772m. Speed=20.700001m/h.</desc>
<speed>5.750000</speed>
</trkpt>
<trkpt lat="56.107464" lon="26.439932">
<ele>95.606506</ele>
<time>2010-08-29T15:12:09Z</time>
<desc>lat.=56.107464, lon.=26.439932, Alt.=95.606506m. Speed=20.664000m/h.</desc>
<speed>5.740000</speed>
</trkpt>
<trkpt lat="56.107494" lon="26.439865">
<ele>94.629944</ele>
<time>2010-08-29T15:12:10Z</time>
<desc>lat.=56.107494, lon.=26.439865, Alt.=94.629944m. Speed=19.799999m/h.</desc>
<speed>5.500000</speed>
</trkpt>
<trkpt lat="56.107529" lon="26.439804">
<ele>94.629944</ele>
<time>2010-08-29T15:12:11Z</time>
<desc>lat.=56.107529, lon.=26.439804, Alt.=94.629944m. Speed=19.296000m/h.</desc>
<speed>5.360000</speed>
</trkpt>
<trkpt lat="56.107567" lon="26.439745">
<ele>94.854553</ele>
<time>2010-08-29T15:12:12Z</time>
<desc>lat.=56.107567, lon.=26.439745, Alt.=94.854553m. Speed=19.044001m/h.</desc>
<speed>5.290000</speed>
</trkpt>
<trkpt lat="56.107601" lon="26.439684">
<ele>94.838928</ele>
<time>2010-08-29T15:12:13Z</time>
<desc>lat.=56.107601, lon.=26.439684, Alt.=94.838928m. Speed=19.296000m/h.</desc>
<speed>5.360000</speed>
</trkpt>
<trkpt lat="56.107635" lon="26.439619">
<ele>94.471741</ele>
<time>2010-08-29T15:12:14Z</time>
<desc>lat.=56.107635, lon.=26.439619, Alt.=94.471741m. Speed=20.412001m/h.</desc>
<speed>5.670000</speed>
</trkpt>
<trkpt lat="56.107674" lon="26.439554">
<ele>93.442444</ele>
<time>2010-08-29T15:12:15Z</time>
<desc>lat.=56.107674, lon.=26.439554, Alt.=93.442444m. Speed=21.636000m/h.</desc>
<speed>6.010000</speed>
</trkpt>
<trkpt lat="56.107716" lon="26.439486">
<ele>94.174866</ele>
<time>2010-08-29T15:12:16Z</time>
<desc>lat.=56.107716, lon.=26.439486, Alt.=94.174866m. Speed=22.212000m/h.</desc>
<speed>6.170000</speed>
</trkpt>
<trkpt lat="56.107765" lon="26.439415">
<ele>94.276428</ele>
<time>2010-08-29T15:12:17Z</time>
<desc>lat.=56.107765, lon.=26.439415, Alt.=94.276428m. Speed=23.615999m/h.</desc>
<speed>6.560000</speed>
</trkpt>
<trkpt lat="56.107811" lon="26.439341">
<ele>94.467834</ele>
<time>2010-08-29T15:12:18Z</time>
<desc>lat.=56.107811, lon.=26.439341, Alt.=94.467834m. Speed=23.544001m/h.</desc>
<speed>6.540000</speed>
</trkpt>
<trkpt lat="56.107853" lon="26.439268">
<ele>94.670959</ele>
<time>2010-08-29T15:12:19Z</time>
<desc>lat.=56.107853, lon.=26.439268, Alt.=94.670959m. Speed=23.292000m/h.</desc>
<speed>6.470000</speed>
</trkpt>
<trkpt lat="56.107891" lon="26.439198">
<ele>94.975647</ele>
<time>2010-08-29T15:12:20Z</time>
<desc>lat.=56.107891, lon.=26.439198, Alt.=94.975647m. Speed=23.076000m/h.</desc>
<speed>6.410000</speed>
</trkpt>
<trkpt lat="56.107929" lon="26.439123">
<ele>94.768616</ele>
<time>2010-08-29T15:12:21Z</time>
<desc>lat.=56.107929, lon.=26.439123, Alt.=94.768616m. Speed=22.535999m/h.</desc>
<speed>6.260000</speed>
</trkpt>
<trkpt lat="56.107967" lon="26.439054">
<ele>94.850647</ele>
<time>2010-08-29T15:12:22Z</time>
<desc>lat.=56.107967, lon.=26.439054, Alt.=94.850647m. Speed=22.247999m/h.</desc>
<speed>6.180000</speed>
</trkpt>
<trkpt lat="56.108013" lon="26.438986">
<ele>95.446350</ele>
<time>2010-08-29T15:12:23Z</time>
<desc>lat.=56.108013, lon.=26.438986, Alt.=95.446350m. Speed=22.284000m/h.</desc>
<speed>6.190000</speed>
</trkpt>
<trkpt lat="56.108059" lon="26.438921">
<ele>95.401428</ele>
<time>2010-08-29T15:12:24Z</time>
<desc>lat.=56.108059, lon.=26.438921, Alt.=95.401428m. Speed=22.104000m/h.</desc>
<speed>6.140000</speed>
</trkpt>
<trkpt lat="56.108101" lon="26.438854">
<ele>95.565491</ele>
<time>2010-08-29T15:12:25Z</time>
<desc>lat.=56.108101, lon.=26.438854, Alt.=95.565491m. Speed=22.176001m/h.</desc>
<speed>6.160000</speed>
</trkpt>
<trkpt lat="56.108139" lon="26.438786">
<ele>95.686584</ele>
<time>2010-08-29T15:12:26Z</time>
<desc>lat.=56.108139, lon.=26.438786, Alt.=95.686584m. Speed=22.320000m/h.</desc>
<speed>6.200000</speed>
</trkpt>
<trkpt lat="56.108181" lon="26.438715">
<ele>95.612366</ele>
<time>2010-08-29T15:12:27Z</time>
<desc>lat.=56.108181, lon.=26.438715, Alt.=95.612366m. Speed=22.464001m/h.</desc>
<speed>6.240000</speed>
</trkpt>
<trkpt lat="56.108219" lon="26.438652">
<ele>95.522522</ele>
<time>2010-08-29T15:12:28Z</time>
<desc>lat.=56.108219, lon.=26.438652, Alt.=95.522522m. Speed=23.076000m/h.</desc>
<speed>6.410000</speed>
</trkpt>
<trkpt lat="56.108261" lon="26.438585">
<ele>95.616272</ele>
<time>2010-08-29T15:12:29Z</time>
<desc>lat.=56.108261, lon.=26.438585, Alt.=95.616272m. Speed=23.796000m/h.</desc>
<speed>6.610000</speed>
</trkpt>
<trkpt lat="56.108303" lon="26.438515">
<ele>95.215881</ele>
<time>2010-08-29T15:12:30Z</time>
<desc>lat.=56.108303, lon.=26.438515, Alt.=95.215881m. Speed=24.444000m/h.</desc>
<speed>6.790000</speed>
</trkpt>
<trkpt lat="56.108349" lon="26.438440">
<ele>95.081116</ele>
<time>2010-08-29T15:12:31Z</time>
<desc>lat.=56.108349, lon.=26.438440, Alt.=95.081116m. Speed=24.875999m/h.</desc>
<speed>6.910000</speed>
</trkpt>
<trkpt lat="56.108395" lon="26.438377">
<ele>95.213928</ele>
<time>2010-08-29T15:12:32Z</time>
<desc>lat.=56.108395, lon.=26.438377, Alt.=95.213928m. Speed=25.416000m/h.</desc>
<speed>7.060000</speed>
</trkpt>
<trkpt lat="56.108444" lon="26.438313">
<ele>94.960022</ele>
<time>2010-08-29T15:12:33Z</time>
<desc>lat.=56.108444, lon.=26.438313, Alt.=94.960022m. Speed=25.775999m/h.</desc>
<speed>7.160000</speed>
</trkpt>
<trkpt lat="56.108498" lon="26.438251">
<ele>94.772522</ele>
<time>2010-08-29T15:12:34Z</time>
<desc>lat.=56.108498, lon.=26.438251, Alt.=94.772522m. Speed=26.388000m/h.</desc>
<speed>7.330000</speed>
</trkpt>
<trkpt lat="56.108555" lon="26.438185">
<ele>94.932678</ele>
<time>2010-08-29T15:12:35Z</time>
<desc>lat.=56.108555, lon.=26.438185, Alt.=94.932678m. Speed=26.316000m/h.</desc>
<speed>7.310000</speed>
</trkpt>
<trkpt lat="56.108608" lon="26.438116">
<ele>94.905334</ele>
<time>2010-08-29T15:12:36Z</time>
<desc>lat.=56.108608, lon.=26.438116, Alt.=94.905334m. Speed=26.063999m/h.</desc>
<speed>7.240000</speed>
</trkpt>
<trkpt lat="56.108662" lon="26.438051">
<ele>94.963928</ele>
<time>2010-08-29T15:12:37Z</time>
<desc>lat.=56.108662, lon.=26.438051, Alt.=94.963928m. Speed=25.955999m/h.</desc>
<speed>7.210000</speed>
</trkpt>
<trkpt lat="56.108723" lon="26.437986">
<ele>95.295959</ele>
<time>2010-08-29T15:12:38Z</time>
<desc>lat.=56.108723, lon.=26.437986, Alt.=95.295959m. Speed=25.128000m/h.</desc>
<speed>6.980000</speed>
</trkpt>
<trkpt lat="56.108776" lon="26.437931">
<ele>95.020569</ele>
<time>2010-08-29T15:12:39Z</time>
<desc>lat.=56.108776, lon.=26.437931, Alt.=95.020569m. Speed=24.516001m/h.</desc>
<speed>6.810000</speed>
</trkpt>
<trkpt lat="56.108829" lon="26.437878">
<ele>94.850647</ele>
<time>2010-08-29T15:12:40Z</time>
<desc>lat.=56.108829, lon.=26.437878, Alt.=94.850647m. Speed=24.336000m/h.</desc>
<speed>6.760000</speed>
</trkpt>
<trkpt lat="56.108887" lon="26.437828">
<ele>95.055725</ele>
<time>2010-08-29T15:12:41Z</time>
<desc>lat.=56.108887, lon.=26.437828, Alt.=95.055725m. Speed=24.660000m/h.</desc>
<speed>6.850000</speed>
</trkpt>
<trkpt lat="56.108940" lon="26.437777">
<ele>95.256897</ele>
<time>2010-08-29T15:12:42Z</time>
<desc>lat.=56.108940, lon.=26.437777, Alt.=95.256897m. Speed=24.552000m/h.</desc>
<speed>6.820000</speed>
</trkpt>
<trkpt lat="56.108997" lon="26.437721">
<ele>95.374084</ele>
<time>2010-08-29T15:12:43Z</time>
<desc>lat.=56.108997, lon.=26.437721, Alt.=95.374084m. Speed=25.091999m/h.</desc>
<speed>6.970000</speed>
</trkpt>
<trkpt lat="56.109055" lon="26.437668">
<ele>95.629944</ele>
<time>2010-08-29T15:12:44Z</time>
<desc>lat.=56.109055, lon.=26.437668, Alt.=95.629944m. Speed=24.299999m/h.</desc>
<speed>6.750000</speed>
</trkpt>
<trkpt lat="56.109104" lon="26.437613">
<ele>95.803772</ele>
<time>2010-08-29T15:12:45Z</time>
<desc>lat.=56.109104, lon.=26.437613, Alt.=95.803772m. Speed=23.544001m/h.</desc>
<speed>6.540000</speed>
</trkpt>
<trkpt lat="56.109154" lon="26.437559">
<ele>96.184631</ele>
<time>2010-08-29T15:12:46Z</time>
<desc>lat.=56.109154, lon.=26.437559, Alt.=96.184631m. Speed=23.004000m/h.</desc>
<speed>6.390000</speed>
</trkpt>
<trkpt lat="56.109203" lon="26.437506">
<ele>96.653381</ele>
<time>2010-08-29T15:12:47Z</time>
<desc>lat.=56.109203, lon.=26.437506, Alt.=96.653381m. Speed=23.364000m/h.</desc>
<speed>6.490000</speed>
</trkpt>
<trkpt lat="56.109245" lon="26.437452">
<ele>97.102600</ele>
<time>2010-08-29T15:12:48Z</time>
<desc>lat.=56.109245, lon.=26.437452, Alt.=97.102600m. Speed=20.916000m/h.</desc>
<speed>5.810000</speed>
</trkpt>
<trkpt lat="56.109283" lon="26.437395">
<ele>97.545959</ele>
<time>2010-08-29T15:12:49Z</time>
<desc>lat.=56.109283, lon.=26.437395, Alt.=97.545959m. Speed=19.403999m/h.</desc>
<speed>5.390000</speed>
</trkpt>
<trkpt lat="56.109314" lon="26.437346">
<ele>97.823303</ele>
<time>2010-08-29T15:12:50Z</time>
<desc>lat.=56.109314, lon.=26.437346, Alt.=97.823303m. Speed=17.532000m/h.</desc>
<speed>4.870000</speed>
</trkpt>
<trkpt lat="56.109344" lon="26.437296">
<ele>97.973694</ele>
<time>2010-08-29T15:12:51Z</time>
<desc>lat.=56.109344, lon.=26.437296, Alt.=97.973694m. Speed=15.732000m/h.</desc>
<speed>4.370000</speed>
</trkpt>
<trkpt lat="56.109367" lon="26.437252">
<ele>98.184631</ele>
<time>2010-08-29T15:12:52Z</time>
<desc>lat.=56.109367, lon.=26.437252, Alt.=98.184631m. Speed=13.320000m/h.</desc>
<speed>3.700000</speed>
</trkpt>
<trkpt lat="56.109386" lon="26.437208">
<ele>98.415100</ele>
<time>2010-08-29T15:12:53Z</time>
<desc>lat.=56.109386, lon.=26.437208, Alt.=98.415100m. Speed=12.672000m/h.</desc>
<speed>3.520000</speed>
</trkpt>
<trkpt lat="56.109409" lon="26.437164">
<ele>98.561584</ele>
<time>2010-08-29T15:12:54Z</time>
<desc>lat.=56.109409, lon.=26.437164, Alt.=98.561584m. Speed=12.528000m/h.</desc>
<speed>3.480000</speed>
</trkpt>
<trkpt lat="56.109428" lon="26.437128">
<ele>97.983459</ele>
<time>2010-08-29T15:12:55Z</time>
<desc>lat.=56.109428, lon.=26.437128, Alt.=97.983459m. Speed=12.528000m/h.</desc>
<speed>3.480000</speed>
</trkpt>
<trkpt lat="56.109447" lon="26.437082">
<ele>97.919006</ele>
<time>2010-08-29T15:12:56Z</time>
<desc>lat.=56.109447, lon.=26.437082, Alt.=97.919006m. Speed=13.140000m/h.</desc>
<speed>3.650000</speed>
</trkpt>
<trkpt lat="56.109463" lon="26.437033">
<ele>97.749084</ele>
<time>2010-08-29T15:12:57Z</time>
<desc>lat.=56.109463, lon.=26.437033, Alt.=97.749084m. Speed=13.608000m/h.</desc>
<speed>3.780000</speed>
</trkpt>
<trkpt lat="56.109474" lon="26.436985">
<ele>97.821350</ele>
<time>2010-08-29T15:12:58Z</time>
<desc>lat.=56.109474, lon.=26.436985, Alt.=97.821350m. Speed=14.040000m/h.</desc>
<speed>3.900000</speed>
</trkpt>
<trkpt lat="56.109486" lon="26.436935">
<ele>97.602600</ele>
<time>2010-08-29T15:12:59Z</time>
<desc>lat.=56.109486, lon.=26.436935, Alt.=97.602600m. Speed=14.544000m/h.</desc>
<speed>4.040000</speed>
</trkpt>
<trkpt lat="56.109509" lon="26.436886">
<ele>97.708069</ele>
<time>2010-08-29T15:13:00Z</time>
<desc>lat.=56.109509, lon.=26.436886, Alt.=97.708069m. Speed=13.644000m/h.</desc>
<speed>3.790000</speed>
</trkpt>
<trkpt lat="56.109524" lon="26.436840">
<ele>97.698303</ele>
<time>2010-08-29T15:13:01Z</time>
<desc>lat.=56.109524, lon.=26.436840, Alt.=97.698303m. Speed=11.592000m/h.</desc>
<speed>3.220000</speed>
</trkpt>
<trkpt lat="56.109535" lon="26.436794">
<ele>97.676819</ele>
<time>2010-08-29T15:13:02Z</time>
<desc>lat.=56.109535, lon.=26.436794, Alt.=97.676819m. Speed=11.880000m/h.</desc>
<speed>3.300000</speed>
</trkpt>
<trkpt lat="56.109547" lon="26.436739">
<ele>97.600647</ele>
<time>2010-08-29T15:13:03Z</time>
<desc>lat.=56.109547, lon.=26.436739, Alt.=97.600647m. Speed=12.564000m/h.</desc>
<speed>3.490000</speed>
</trkpt>
<trkpt lat="56.109558" lon="26.436682">
<ele>97.891663</ele>
<time>2010-08-29T15:13:04Z</time>
<desc>lat.=56.109558, lon.=26.436682, Alt.=97.891663m. Speed=12.996000m/h.</desc>
<speed>3.610000</speed>
</trkpt>
<trkpt lat="56.109570" lon="26.436623">
<ele>97.715881</ele>
<time>2010-08-29T15:13:05Z</time>
<desc>lat.=56.109570, lon.=26.436623, Alt.=97.715881m. Speed=14.688000m/h.</desc>
<speed>4.080000</speed>
</trkpt>
<trkpt lat="56.109585" lon="26.436562">
<ele>97.893616</ele>
<time>2010-08-29T15:13:06Z</time>
<desc>lat.=56.109585, lon.=26.436562, Alt.=97.893616m. Speed=15.624000m/h.</desc>
<speed>4.340000</speed>
</trkpt>
<trkpt lat="56.109604" lon="26.436497">
<ele>97.981506</ele>
<time>2010-08-29T15:13:07Z</time>
<desc>lat.=56.109604, lon.=26.436497, Alt.=97.981506m. Speed=16.920000m/h.</desc>
<speed>4.700000</speed>
</trkpt>
<trkpt lat="56.109623" lon="26.436426">
<ele>98.104553</ele>
<time>2010-08-29T15:13:08Z</time>
<desc>lat.=56.109623, lon.=26.436426, Alt.=98.104553m. Speed=17.820000m/h.</desc>
<speed>4.950000</speed>
</trkpt>
<trkpt lat="56.109646" lon="26.436350">
<ele>98.038147</ele>
<time>2010-08-29T15:13:09Z</time>
<desc>lat.=56.109646, lon.=26.436350, Alt.=98.038147m. Speed=18.323999m/h.</desc>
<speed>5.090000</speed>
</trkpt>
<trkpt lat="56.109661" lon="26.436272">
<ele>97.868225</ele>
<time>2010-08-29T15:13:10Z</time>
<desc>lat.=56.109661, lon.=26.436272, Alt.=97.868225m. Speed=18.864000m/h.</desc>
<speed>5.240000</speed>
</trkpt>
<trkpt lat="56.109680" lon="26.436190">
<ele>97.635803</ele>
<time>2010-08-29T15:13:11Z</time>
<desc>lat.=56.109680, lon.=26.436190, Alt.=97.635803m. Speed=19.440001m/h.</desc>
<speed>5.400000</speed>
</trkpt>
<trkpt lat="56.109695" lon="26.436110">
<ele>97.659241</ele>
<time>2010-08-29T15:13:12Z</time>
<desc>lat.=56.109695, lon.=26.436110, Alt.=97.659241m. Speed=18.900000m/h.</desc>
<speed>5.250000</speed>
</trkpt>
<trkpt lat="56.109711" lon="26.436029">
<ele>97.733459</ele>
<time>2010-08-29T15:13:13Z</time>
<desc>lat.=56.109711, lon.=26.436029, Alt.=97.733459m. Speed=18.468000m/h.</desc>
<speed>5.130000</speed>
</trkpt>
<trkpt lat="56.109730" lon="26.435955">
<ele>98.227600</ele>
<time>2010-08-29T15:13:14Z</time>
<desc>lat.=56.109730, lon.=26.435955, Alt.=98.227600m. Speed=17.496000m/h.</desc>
<speed>4.860000</speed>
</trkpt>
<trkpt lat="56.109745" lon="26.435883">
<ele>98.225647</ele>
<time>2010-08-29T15:13:15Z</time>
<desc>lat.=56.109745, lon.=26.435883, Alt.=98.225647m. Speed=16.812000m/h.</desc>
<speed>4.670000</speed>
</trkpt>
<trkpt lat="56.109760" lon="26.435810">
<ele>98.458069</ele>
<time>2010-08-29T15:13:16Z</time>
<desc>lat.=56.109760, lon.=26.435810, Alt.=98.458069m. Speed=16.200001m/h.</desc>
<speed>4.500000</speed>
</trkpt>
<trkpt lat="56.109772" lon="26.435740">
<ele>98.649475</ele>
<time>2010-08-29T15:13:17Z</time>
<desc>lat.=56.109772, lon.=26.435740, Alt.=98.649475m. Speed=14.724000m/h.</desc>
<speed>4.090000</speed>
</trkpt>
<trkpt lat="56.109779" lon="26.435675">
<ele>98.932678</ele>
<time>2010-08-29T15:13:18Z</time>
<desc>lat.=56.109779, lon.=26.435675, Alt.=98.932678m. Speed=13.752000m/h.</desc>
<speed>3.820000</speed>
</trkpt>
<trkpt lat="56.109791" lon="26.435617">
<ele>98.528381</ele>
<time>2010-08-29T15:13:19Z</time>
<desc>lat.=56.109791, lon.=26.435617, Alt.=98.528381m. Speed=13.284000m/h.</desc>
<speed>3.690000</speed>
</trkpt>
<trkpt lat="56.109802" lon="26.435564">
<ele>98.756897</ele>
<time>2010-08-29T15:13:20Z</time>
<desc>lat.=56.109802, lon.=26.435564, Alt.=98.756897m. Speed=12.960000m/h.</desc>
<speed>3.600000</speed>
</trkpt>
<trkpt lat="56.109818" lon="26.435509">
<ele>98.776428</ele>
<time>2010-08-29T15:13:21Z</time>
<desc>lat.=56.109818, lon.=26.435509, Alt.=98.776428m. Speed=13.428000m/h.</desc>
<speed>3.730000</speed>
</trkpt>
<trkpt lat="56.109833" lon="26.435450">
<ele>98.696350</ele>
<time>2010-08-29T15:13:22Z</time>
<desc>lat.=56.109833, lon.=26.435450, Alt.=98.696350m. Speed=15.048000m/h.</desc>
<speed>4.180000</speed>
</trkpt>
<trkpt lat="56.109848" lon="26.435385">
<ele>98.581116</ele>
<time>2010-08-29T15:13:23Z</time>
<desc>lat.=56.109848, lon.=26.435385, Alt.=98.581116m. Speed=15.696000m/h.</desc>
<speed>4.360000</speed>
</trkpt>
<trkpt lat="56.109863" lon="26.435316">
<ele>98.704163</ele>
<time>2010-08-29T15:13:24Z</time>
<desc>lat.=56.109863, lon.=26.435316, Alt.=98.704163m. Speed=17.028000m/h.</desc>
<speed>4.730000</speed>
</trkpt>
<trkpt lat="56.109879" lon="26.435244">
<ele>98.770569</ele>
<time>2010-08-29T15:13:25Z</time>
<desc>lat.=56.109879, lon.=26.435244, Alt.=98.770569m. Speed=17.172001m/h.</desc>
<speed>4.770000</speed>
</trkpt>
<trkpt lat="56.109894" lon="26.435177">
<ele>98.606506</ele>
<time>2010-08-29T15:13:26Z</time>
<desc>lat.=56.109894, lon.=26.435177, Alt.=98.606506m. Speed=17.424000m/h.</desc>
<speed>4.840000</speed>
</trkpt>
<trkpt lat="56.109909" lon="26.435106">
<ele>98.274475</ele>
<time>2010-08-29T15:13:27Z</time>
<desc>lat.=56.109909, lon.=26.435106, Alt.=98.274475m. Speed=18.431999m/h.</desc>
<speed>5.120000</speed>
</trkpt>
<trkpt lat="56.109932" lon="26.435022">
<ele>98.206116</ele>
<time>2010-08-29T15:13:28Z</time>
<desc>lat.=56.109932, lon.=26.435022, Alt.=98.206116m. Speed=19.332001m/h.</desc>
<speed>5.370000</speed>
</trkpt>
<trkpt lat="56.109947" lon="26.434937">
<ele>97.772522</ele>
<time>2010-08-29T15:13:29Z</time>
<desc>lat.=56.109947, lon.=26.434937, Alt.=97.772522m. Speed=19.836000m/h.</desc>
<speed>5.510000</speed>
</trkpt>
<trkpt lat="56.109962" lon="26.434853">
<ele>97.667053</ele>
<time>2010-08-29T15:13:30Z</time>
<desc>lat.=56.109962, lon.=26.434853, Alt.=97.667053m. Speed=18.468000m/h.</desc>
<speed>5.130000</speed>
</trkpt>
<trkpt lat="56.109978" lon="26.434780">
<ele>97.557678</ele>
<time>2010-08-29T15:13:31Z</time>
<desc>lat.=56.109978, lon.=26.434780, Alt.=97.557678m. Speed=17.712000m/h.</desc>
<speed>4.920000</speed>
</trkpt>
<trkpt lat="56.109993" lon="26.434710">
<ele>97.930725</ele>
<time>2010-08-29T15:13:32Z</time>
<desc>lat.=56.109993, lon.=26.434710, Alt.=97.930725m. Speed=16.488001m/h.</desc>
<speed>4.580000</speed>
</trkpt>
<trkpt lat="56.110012" lon="26.434641">
<ele>97.827209</ele>
<time>2010-08-29T15:13:33Z</time>
<desc>lat.=56.110012, lon.=26.434641, Alt.=97.827209m. Speed=15.804000m/h.</desc>
<speed>4.390000</speed>
</trkpt>
<trkpt lat="56.110027" lon="26.434572">
<ele>97.557678</ele>
<time>2010-08-29T15:13:34Z</time>
<desc>lat.=56.110027, lon.=26.434572, Alt.=97.557678m. Speed=16.091999m/h.</desc>
<speed>4.470000</speed>
</trkpt>
<trkpt lat="56.110039" lon="26.434504">
<ele>97.577209</ele>
<time>2010-08-29T15:13:35Z</time>
<desc>lat.=56.110039, lon.=26.434504, Alt.=97.577209m. Speed=17.388000m/h.</desc>
<speed>4.830000</speed>
</trkpt>
<trkpt lat="56.110054" lon="26.434437">
<ele>97.926819</ele>
<time>2010-08-29T15:13:36Z</time>
<desc>lat.=56.110054, lon.=26.434437, Alt.=97.926819m. Speed=17.568001m/h.</desc>
<speed>4.880000</speed>
</trkpt>
<trkpt lat="56.110073" lon="26.434362">
<ele>98.706116</ele>
<time>2010-08-29T15:13:37Z</time>
<desc>lat.=56.110073, lon.=26.434362, Alt.=98.706116m. Speed=18.000000m/h.</desc>
<speed>5.000000</speed>
</trkpt>
<trkpt lat="56.110088" lon="26.434282">
<ele>98.542053</ele>
<time>2010-08-29T15:13:38Z</time>
<desc>lat.=56.110088, lon.=26.434282, Alt.=98.542053m. Speed=19.584000m/h.</desc>
<speed>5.440000</speed>
</trkpt>
<trkpt lat="56.110107" lon="26.434196">
<ele>98.635803</ele>
<time>2010-08-29T15:13:39Z</time>
<desc>lat.=56.110107, lon.=26.434196, Alt.=98.635803m. Speed=19.403999m/h.</desc>
<speed>5.390000</speed>
</trkpt>
<trkpt lat="56.110126" lon="26.434116">
<ele>99.188538</ele>
<time>2010-08-29T15:13:40Z</time>
<desc>lat.=56.110126, lon.=26.434116, Alt.=99.188538m. Speed=20.195999m/h.</desc>
<speed>5.610000</speed>
</trkpt>
<trkpt lat="56.110146" lon="26.434032">
<ele>99.592834</ele>
<time>2010-08-29T15:13:41Z</time>
<desc>lat.=56.110146, lon.=26.434032, Alt.=99.592834m. Speed=19.403999m/h.</desc>
<speed>5.390000</speed>
</trkpt>
<trkpt lat="56.110165" lon="26.433947">
<ele>100.510803</ele>
<time>2010-08-29T15:13:42Z</time>
<desc>lat.=56.110165, lon.=26.433947, Alt.=100.510803m. Speed=20.087999m/h.</desc>
<speed>5.580000</speed>
</trkpt>
<trkpt lat="56.110188" lon="26.433859">
<ele>101.245178</ele>
<time>2010-08-29T15:13:43Z</time>
<desc>lat.=56.110188, lon.=26.433859, Alt.=101.245178m. Speed=19.691999m/h.</desc>
<speed>5.470000</speed>
</trkpt>
<trkpt lat="56.110203" lon="26.433777">
<ele>99.327209</ele>
<time>2010-08-29T15:13:44Z</time>
<desc>lat.=56.110203, lon.=26.433777, Alt.=99.327209m. Speed=18.684000m/h.</desc>
<speed>5.190000</speed>
</trkpt>
<trkpt lat="56.110222" lon="26.433701">
<ele>99.612366</ele>
<time>2010-08-29T15:13:45Z</time>
<desc>lat.=56.110222, lon.=26.433701, Alt.=99.612366m. Speed=17.747999m/h.</desc>
<speed>4.930000</speed>
</trkpt>
<trkpt lat="56.110237" lon="26.433626">
<ele>99.651428</ele>
<time>2010-08-29T15:13:46Z</time>
<desc>lat.=56.110237, lon.=26.433626, Alt.=99.651428m. Speed=17.496000m/h.</desc>
<speed>4.860000</speed>
</trkpt>
<trkpt lat="56.110249" lon="26.433556">
<ele>99.596741</ele>
<time>2010-08-29T15:13:47Z</time>
<desc>lat.=56.110249, lon.=26.433556, Alt.=99.596741m. Speed=18.035999m/h.</desc>
<speed>5.010000</speed>
</trkpt>
<trkpt lat="56.110264" lon="26.433479">
<ele>99.778381</ele>
<time>2010-08-29T15:13:48Z</time>
<desc>lat.=56.110264, lon.=26.433479, Alt.=99.778381m. Speed=19.440001m/h.</desc>
<speed>5.400000</speed>
</trkpt>
<trkpt lat="56.110279" lon="26.433399">
<ele>99.592834</ele>
<time>2010-08-29T15:13:49Z</time>
<desc>lat.=56.110279, lon.=26.433399, Alt.=99.592834m. Speed=19.764000m/h.</desc>
<speed>5.490000</speed>
</trkpt>
<trkpt lat="56.110298" lon="26.433319">
<ele>99.551819</ele>
<time>2010-08-29T15:13:50Z</time>
<desc>lat.=56.110298, lon.=26.433319, Alt.=99.551819m. Speed=19.368000m/h.</desc>
<speed>5.380000</speed>
</trkpt>
<trkpt lat="56.110317" lon="26.433241">
<ele>99.571350</ele>
<time>2010-08-29T15:13:51Z</time>
<desc>lat.=56.110317, lon.=26.433241, Alt.=99.571350m. Speed=19.728001m/h.</desc>
<speed>5.480000</speed>
</trkpt>
<trkpt lat="56.110332" lon="26.433167">
<ele>99.454163</ele>
<time>2010-08-29T15:13:52Z</time>
<desc>lat.=56.110332, lon.=26.433167, Alt.=99.454163m. Speed=18.936001m/h.</desc>
<speed>5.260000</speed>
</trkpt>
<trkpt lat="56.110348" lon="26.433090">
<ele>99.133850</ele>
<time>2010-08-29T15:13:53Z</time>
<desc>lat.=56.110348, lon.=26.433090, Alt.=99.133850m. Speed=18.143999m/h.</desc>
<speed>5.040000</speed>
</trkpt>
<trkpt lat="56.110367" lon="26.433014">
<ele>99.104553</ele>
<time>2010-08-29T15:13:54Z</time>
<desc>lat.=56.110367, lon.=26.433014, Alt.=99.104553m. Speed=17.568001m/h.</desc>
<speed>4.880000</speed>
</trkpt>
<trkpt lat="56.110382" lon="26.432941">
<ele>99.042053</ele>
<time>2010-08-29T15:13:55Z</time>
<desc>lat.=56.110382, lon.=26.432941, Alt.=99.042053m. Speed=16.524000m/h.</desc>
<speed>4.590000</speed>
</trkpt>
<trkpt lat="56.110397" lon="26.432875">
<ele>99.100647</ele>
<time>2010-08-29T15:13:56Z</time>
<desc>lat.=56.110397, lon.=26.432875, Alt.=99.100647m. Speed=16.056000m/h.</desc>
<speed>4.460000</speed>
</trkpt>
<trkpt lat="56.110413" lon="26.432806">
<ele>98.643616</ele>
<time>2010-08-29T15:13:57Z</time>
<desc>lat.=56.110413, lon.=26.432806, Alt.=98.643616m. Speed=16.128000m/h.</desc>
<speed>4.480000</speed>
</trkpt>
<trkpt lat="56.110428" lon="26.432732">
<ele>98.346741</ele>
<time>2010-08-29T15:13:58Z</time>
<desc>lat.=56.110428, lon.=26.432732, Alt.=98.346741m. Speed=16.812000m/h.</desc>
<speed>4.670000</speed>
</trkpt>
<trkpt lat="56.110443" lon="26.432659">
<ele>97.940491</ele>
<time>2010-08-29T15:13:59Z</time>
<desc>lat.=56.110443, lon.=26.432659, Alt.=97.940491m. Speed=17.639999m/h.</desc>
<speed>4.900000</speed>
</trkpt>
<trkpt lat="56.110462" lon="26.432581">
<ele>98.579163</ele>
<time>2010-08-29T15:14:00Z</time>
<desc>lat.=56.110462, lon.=26.432581, Alt.=98.579163m. Speed=18.360001m/h.</desc>
<speed>5.100000</speed>
</trkpt>
<trkpt lat="56.110481" lon="26.432514">
<ele>98.379944</ele>
<time>2010-08-29T15:14:01Z</time>
<desc>lat.=56.110481, lon.=26.432514, Alt.=98.379944m. Speed=19.152000m/h.</desc>
<speed>5.320000</speed>
</trkpt>
<trkpt lat="56.110500" lon="26.432434">
<ele>98.126038</ele>
<time>2010-08-29T15:14:02Z</time>
<desc>lat.=56.110500, lon.=26.432434, Alt.=98.126038m. Speed=18.864000m/h.</desc>
<speed>5.240000</speed>
</trkpt>
<trkpt lat="56.110527" lon="26.432346">
<ele>98.520569</ele>
<time>2010-08-29T15:14:03Z</time>
<desc>lat.=56.110527, lon.=26.432346, Alt.=98.520569m. Speed=21.312000m/h.</desc>
<speed>5.920000</speed>
</trkpt>
<trkpt lat="56.110546" lon="26.432261">
<ele>98.795959</ele>
<time>2010-08-29T15:14:04Z</time>
<desc>lat.=56.110546, lon.=26.432261, Alt.=98.795959m. Speed=20.916000m/h.</desc>
<speed>5.810000</speed>
</trkpt>
<trkpt lat="56.110561" lon="26.432177">
<ele>99.262756</ele>
<time>2010-08-29T15:14:05Z</time>
<desc>lat.=56.110561, lon.=26.432177, Alt.=99.262756m. Speed=19.548000m/h.</desc>
<speed>5.430000</speed>
</trkpt>
<trkpt lat="56.110577" lon="26.432093">
<ele>99.678772</ele>
<time>2010-08-29T15:14:06Z</time>
<desc>lat.=56.110577, lon.=26.432093, Alt.=99.678772m. Speed=19.691999m/h.</desc>
<speed>5.470000</speed>
</trkpt>
<trkpt lat="56.110600" lon="26.432014">
<ele>99.817444</ele>
<time>2010-08-29T15:14:07Z</time>
<desc>lat.=56.110600, lon.=26.432014, Alt.=99.817444m. Speed=19.260000m/h.</desc>
<speed>5.350000</speed>
</trkpt>
<trkpt lat="56.110615" lon="26.431940">
<ele>98.762756</ele>
<time>2010-08-29T15:14:08Z</time>
<desc>lat.=56.110615, lon.=26.431940, Alt.=98.762756m. Speed=18.576000m/h.</desc>
<speed>5.160000</speed>
</trkpt>
<trkpt lat="56.110630" lon="26.431864">
<ele>98.530334</ele>
<time>2010-08-29T15:14:09Z</time>
<desc>lat.=56.110630, lon.=26.431864, Alt.=98.530334m. Speed=17.820000m/h.</desc>
<speed>4.950000</speed>
</trkpt>
<trkpt lat="56.110649" lon="26.431791">
<ele>98.942444</ele>
<time>2010-08-29T15:14:10Z</time>
<desc>lat.=56.110649, lon.=26.431791, Alt.=98.942444m. Speed=17.639999m/h.</desc>
<speed>4.900000</speed>
</trkpt>
<trkpt lat="56.110668" lon="26.431705">
<ele>99.260803</ele>
<time>2010-08-29T15:14:11Z</time>
<desc>lat.=56.110668, lon.=26.431705, Alt.=99.260803m. Speed=18.900000m/h.</desc>
<speed>5.250000</speed>
</trkpt>
<trkpt lat="56.110691" lon="26.431627">
<ele>99.286194</ele>
<time>2010-08-29T15:14:12Z</time>
<desc>lat.=56.110691, lon.=26.431627, Alt.=99.286194m. Speed=19.188000m/h.</desc>
<speed>5.330000</speed>
</trkpt>
<trkpt lat="56.110706" lon="26.431543">
<ele>99.106506</ele>
<time>2010-08-29T15:14:13Z</time>
<desc>lat.=56.110706, lon.=26.431543, Alt.=99.106506m. Speed=19.548000m/h.</desc>
<speed>5.430000</speed>
</trkpt>
<trkpt lat="56.110722" lon="26.431463">
<ele>98.104553</ele>
<time>2010-08-29T15:14:14Z</time>
<desc>lat.=56.110722, lon.=26.431463, Alt.=98.104553m. Speed=20.195999m/h.</desc>
<speed>5.610000</speed>
</trkpt>
<trkpt lat="56.110737" lon="26.431379">
<ele>97.946350</ele>
<time>2010-08-29T15:14:15Z</time>
<desc>lat.=56.110737, lon.=26.431379, Alt.=97.946350m. Speed=20.195999m/h.</desc>
<speed>5.610000</speed>
</trkpt>
<trkpt lat="56.110756" lon="26.431292">
<ele>98.735413</ele>
<time>2010-08-29T15:14:16Z</time>
<desc>lat.=56.110756, lon.=26.431292, Alt.=98.735413m. Speed=19.691999m/h.</desc>
<speed>5.470000</speed>
</trkpt>
<trkpt lat="56.110775" lon="26.431208">
<ele>99.085022</ele>
<time>2010-08-29T15:14:17Z</time>
<desc>lat.=56.110775, lon.=26.431208, Alt.=99.085022m. Speed=19.691999m/h.</desc>
<speed>5.470000</speed>
</trkpt>
<trkpt lat="56.110794" lon="26.431128">
<ele>99.999084</ele>
<time>2010-08-29T15:14:18Z</time>
<desc>lat.=56.110794, lon.=26.431128, Alt.=99.999084m. Speed=19.944000m/h.</desc>
<speed>5.540000</speed>
</trkpt>
<trkpt lat="56.110813" lon="26.431044">
<ele>99.985413</ele>
<time>2010-08-29T15:14:19Z</time>
<desc>lat.=56.110813, lon.=26.431044, Alt.=99.985413m. Speed=20.160000m/h.</desc>
<speed>5.600000</speed>
</trkpt>
<trkpt lat="56.110832" lon="26.430956">
<ele>100.264709</ele>
<time>2010-08-29T15:14:20Z</time>
<desc>lat.=56.110832, lon.=26.430956, Alt.=100.264709m. Speed=20.628000m/h.</desc>
<speed>5.730000</speed>
</trkpt>
<trkpt lat="56.110851" lon="26.430878">
<ele>100.399475</ele>
<time>2010-08-29T15:14:21Z</time>
<desc>lat.=56.110851, lon.=26.430878, Alt.=100.399475m. Speed=20.412001m/h.</desc>
<speed>5.670000</speed>
</trkpt>
<trkpt lat="56.110874" lon="26.430799">
<ele>100.667053</ele>
<time>2010-08-29T15:14:22Z</time>
<desc>lat.=56.110874, lon.=26.430799, Alt.=100.667053m. Speed=20.916000m/h.</desc>
<speed>5.810000</speed>
</trkpt>
<trkpt lat="56.110893" lon="26.430719">
<ele>101.256897</ele>
<time>2010-08-29T15:14:23Z</time>
<desc>lat.=56.110893, lon.=26.430719, Alt.=101.256897m. Speed=21.167999m/h.</desc>
<speed>5.880000</speed>
</trkpt>
<trkpt lat="56.110916" lon="26.430634">
<ele>100.676819</ele>
<time>2010-08-29T15:14:24Z</time>
<desc>lat.=56.110916, lon.=26.430634, Alt.=100.676819m. Speed=21.708000m/h.</desc>
<speed>6.030000</speed>
</trkpt>
<trkpt lat="56.110935" lon="26.430546">
<ele>99.823303</ele>
<time>2010-08-29T15:14:25Z</time>
<desc>lat.=56.110935, lon.=26.430546, Alt.=99.823303m. Speed=22.104000m/h.</desc>
<speed>6.140000</speed>
</trkpt>
<trkpt lat="56.110958" lon="26.430454">
<ele>99.540100</ele>
<time>2010-08-29T15:14:26Z</time>
<desc>lat.=56.110958, lon.=26.430454, Alt.=99.540100m. Speed=22.896000m/h.</desc>
<speed>6.360000</speed>
</trkpt>
<trkpt lat="56.110985" lon="26.430365">
<ele>97.924866</ele>
<time>2010-08-29T15:14:27Z</time>
<desc>lat.=56.110985, lon.=26.430365, Alt.=97.924866m. Speed=23.507999m/h.</desc>
<speed>6.530000</speed>
</trkpt>
<trkpt lat="56.111012" lon="26.430265">
<ele>97.606506</ele>
<time>2010-08-29T15:14:28Z</time>
<desc>lat.=56.111012, lon.=26.430265, Alt.=97.606506m. Speed=24.264000m/h.</desc>
<speed>6.740000</speed>
</trkpt>
<trkpt lat="56.111042" lon="26.430170">
<ele>98.026428</ele>
<time>2010-08-29T15:14:29Z</time>
<desc>lat.=56.111042, lon.=26.430170, Alt.=98.026428m. Speed=24.804001m/h.</desc>
<speed>6.890000</speed>
</trkpt>
<trkpt lat="56.111073" lon="26.430073">
<ele>98.223694</ele>
<time>2010-08-29T15:14:30Z</time>
<desc>lat.=56.111073, lon.=26.430073, Alt.=98.223694m. Speed=24.875999m/h.</desc>
<speed>6.910000</speed>
</trkpt>
<trkpt lat="56.111103" lon="26.429974">
<ele>97.946350</ele>
<time>2010-08-29T15:14:31Z</time>
<desc>lat.=56.111103, lon.=26.429974, Alt.=97.946350m. Speed=25.164000m/h.</desc>
<speed>6.990000</speed>
</trkpt>
<trkpt lat="56.111141" lon="26.429876">
<ele>97.637756</ele>
<time>2010-08-29T15:14:32Z</time>
<desc>lat.=56.111141, lon.=26.429876, Alt.=97.637756m. Speed=25.344000m/h.</desc>
<speed>7.040000</speed>
</trkpt>
<trkpt lat="56.111179" lon="26.429785">
<ele>97.794006</ele>
<time>2010-08-29T15:14:33Z</time>
<desc>lat.=56.111179, lon.=26.429785, Alt.=97.794006m. Speed=25.596001m/h.</desc>
<speed>7.110000</speed>
</trkpt>
<trkpt lat="56.111217" lon="26.429695">
<ele>98.417053</ele>
<time>2010-08-29T15:14:34Z</time>
<desc>lat.=56.111217, lon.=26.429695, Alt.=98.417053m. Speed=25.164000m/h.</desc>
<speed>6.990000</speed>
</trkpt>
<trkpt lat="56.111256" lon="26.429609">
<ele>97.926819</ele>
<time>2010-08-29T15:14:35Z</time>
<desc>lat.=56.111256, lon.=26.429609, Alt.=97.926819m. Speed=24.912001m/h.</desc>
<speed>6.920000</speed>
</trkpt>
<trkpt lat="56.111298" lon="26.429531">
<ele>97.415100</ele>
<time>2010-08-29T15:14:36Z</time>
<desc>lat.=56.111298, lon.=26.429531, Alt.=97.415100m. Speed=23.688000m/h.</desc>
<speed>6.580000</speed>
</trkpt>
<trkpt lat="56.111340" lon="26.429459">
<ele>96.942444</ele>
<time>2010-08-29T15:14:37Z</time>
<desc>lat.=56.111340, lon.=26.429459, Alt.=96.942444m. Speed=22.392000m/h.</desc>
<speed>6.220000</speed>
</trkpt>
<trkpt lat="56.111378" lon="26.429394">
<ele>97.545959</ele>
<time>2010-08-29T15:14:38Z</time>
<desc>lat.=56.111378, lon.=26.429394, Alt.=97.545959m. Speed=21.059999m/h.</desc>
<speed>5.850000</speed>
</trkpt>
<trkpt lat="56.111412" lon="26.429329">
<ele>97.270569</ele>
<time>2010-08-29T15:14:39Z</time>
<desc>lat.=56.111412, lon.=26.429329, Alt.=97.270569m. Speed=20.195999m/h.</desc>
<speed>5.610000</speed>
</trkpt>
<trkpt lat="56.111446" lon="26.429268">
<ele>97.667053</ele>
<time>2010-08-29T15:14:40Z</time>
<desc>lat.=56.111446, lon.=26.429268, Alt.=97.667053m. Speed=19.260000m/h.</desc>
<speed>5.350000</speed>
</trkpt>
<trkpt lat="56.111481" lon="26.429211">
<ele>97.858459</ele>
<time>2010-08-29T15:14:41Z</time>
<desc>lat.=56.111481, lon.=26.429211, Alt.=97.858459m. Speed=18.108000m/h.</desc>
<speed>5.030000</speed>
</trkpt>
<trkpt lat="56.111507" lon="26.429148">
<ele>98.004944</ele>
<time>2010-08-29T15:14:42Z</time>
<desc>lat.=56.111507, lon.=26.429148, Alt.=98.004944m. Speed=18.612000m/h.</desc>
<speed>5.170000</speed>
</trkpt>
<trkpt lat="56.111542" lon="26.429090">
<ele>97.960022</ele>
<time>2010-08-29T15:14:43Z</time>
<desc>lat.=56.111542, lon.=26.429090, Alt.=97.960022m. Speed=17.927999m/h.</desc>
<speed>4.980000</speed>
</trkpt>
<trkpt lat="56.111576" lon="26.429035">
<ele>98.229553</ele>
<time>2010-08-29T15:14:44Z</time>
<desc>lat.=56.111576, lon.=26.429035, Alt.=98.229553m. Speed=18.576000m/h.</desc>
<speed>5.160000</speed>
</trkpt>
<trkpt lat="56.111614" lon="26.428978">
<ele>98.204163</ele>
<time>2010-08-29T15:14:45Z</time>
<desc>lat.=56.111614, lon.=26.428978, Alt.=98.204163m. Speed=20.268000m/h.</desc>
<speed>5.630000</speed>
</trkpt>
<trkpt lat="56.111652" lon="26.428921">
<ele>97.538147</ele>
<time>2010-08-29T15:14:46Z</time>
<desc>lat.=56.111652, lon.=26.428921, Alt.=97.538147m. Speed=19.620001m/h.</desc>
<speed>5.450000</speed>
</trkpt>
<trkpt lat="56.111691" lon="26.428862">
<ele>97.739319</ele>
<time>2010-08-29T15:14:47Z</time>
<desc>lat.=56.111691, lon.=26.428862, Alt.=97.739319m. Speed=21.167999m/h.</desc>
<speed>5.880000</speed>
</trkpt>
<trkpt lat="56.111729" lon="26.428797">
<ele>97.760803</ele>
<time>2010-08-29T15:14:48Z</time>
<desc>lat.=56.111729, lon.=26.428797, Alt.=97.760803m. Speed=21.563999m/h.</desc>
<speed>5.990000</speed>
</trkpt>
<trkpt lat="56.111767" lon="26.428734">
<ele>97.749084</ele>
<time>2010-08-29T15:14:49Z</time>
<desc>lat.=56.111767, lon.=26.428734, Alt.=97.749084m. Speed=21.708000m/h.</desc>
<speed>6.030000</speed>
</trkpt>
<trkpt lat="56.111813" lon="26.428669">
<ele>97.415100</ele>
<time>2010-08-29T15:14:50Z</time>
<desc>lat.=56.111813, lon.=26.428669, Alt.=97.415100m. Speed=22.535999m/h.</desc>
<speed>6.260000</speed>
</trkpt>
<trkpt lat="56.111858" lon="26.428604">
<ele>97.444397</ele>
<time>2010-08-29T15:14:51Z</time>
<desc>lat.=56.111858, lon.=26.428604, Alt.=97.444397m. Speed=23.256001m/h.</desc>
<speed>6.460000</speed>
</trkpt>
<trkpt lat="56.111900" lon="26.428539">
<ele>97.325256</ele>
<time>2010-08-29T15:14:52Z</time>
<desc>lat.=56.111900, lon.=26.428539, Alt.=97.325256m. Speed=23.292000m/h.</desc>
<speed>6.470000</speed>
</trkpt>
<trkpt lat="56.111942" lon="26.428478">
<ele>97.627991</ele>
<time>2010-08-29T15:14:53Z</time>
<desc>lat.=56.111942, lon.=26.428478, Alt.=97.627991m. Speed=21.924000m/h.</desc>
<speed>6.090000</speed>
</trkpt>
<trkpt lat="56.111984" lon="26.428423">
<ele>97.795959</ele>
<time>2010-08-29T15:14:54Z</time>
<desc>lat.=56.111984, lon.=26.428423, Alt.=97.795959m. Speed=20.520000m/h.</desc>
<speed>5.700000</speed>
</trkpt>
<trkpt lat="56.112022" lon="26.428373">
<ele>98.047913</ele>
<time>2010-08-29T15:14:55Z</time>
<desc>lat.=56.112022, lon.=26.428373, Alt.=98.047913m. Speed=18.360001m/h.</desc>
<speed>5.100000</speed>
</trkpt>
<trkpt lat="56.112057" lon="26.428331">
<ele>98.372131</ele>
<time>2010-08-29T15:14:56Z</time>
<desc>lat.=56.112057, lon.=26.428331, Alt.=98.372131m. Speed=16.704000m/h.</desc>
<speed>4.640000</speed>
</trkpt>
<trkpt lat="56.112087" lon="26.428286">
<ele>98.618225</ele>
<time>2010-08-29T15:14:57Z</time>
<desc>lat.=56.112087, lon.=26.428286, Alt.=98.618225m. Speed=15.732000m/h.</desc>
<speed>4.370000</speed>
</trkpt>
<trkpt lat="56.112118" lon="26.428242">
<ele>98.647522</ele>
<time>2010-08-29T15:14:58Z</time>
<desc>lat.=56.112118, lon.=26.428242, Alt.=98.647522m. Speed=14.868000m/h.</desc>
<speed>4.130000</speed>
</trkpt>
<trkpt lat="56.112144" lon="26.428198">
<ele>98.811584</ele>
<time>2010-08-29T15:14:59Z</time>
<desc>lat.=56.112144, lon.=26.428198, Alt.=98.811584m. Speed=14.580000m/h.</desc>
<speed>4.050000</speed>
</trkpt>
<trkpt lat="56.112171" lon="26.428156">
<ele>98.432678</ele>
<time>2010-08-29T15:15:00Z</time>
<desc>lat.=56.112171, lon.=26.428156, Alt.=98.432678m. Speed=13.896000m/h.</desc>
<speed>3.860000</speed>
</trkpt>
<trkpt lat="56.112194" lon="26.428118">
<ele>98.391663</ele>
<time>2010-08-29T15:15:01Z</time>
<desc>lat.=56.112194, lon.=26.428118, Alt.=98.391663m. Speed=12.996000m/h.</desc>
<speed>3.610000</speed>
</trkpt>
<trkpt lat="56.112217" lon="26.428087">
<ele>98.461975</ele>
<time>2010-08-29T15:15:02Z</time>
<desc>lat.=56.112217, lon.=26.428087, Alt.=98.461975m. Speed=10.296000m/h.</desc>
<speed>2.860000</speed>
</trkpt>
<trkpt lat="56.112236" lon="26.428059">
<ele>98.567444</ele>
<time>2010-08-29T15:15:03Z</time>
<desc>lat.=56.112236, lon.=26.428059, Alt.=98.567444m. Speed=9.576000m/h.</desc>
<speed>2.660000</speed>
</trkpt>
<trkpt lat="56.112263" lon="26.428026">
<ele>99.452209</ele>
<time>2010-08-29T15:15:04Z</time>
<desc>lat.=56.112263, lon.=26.428026, Alt.=99.452209m. Speed=9.612000m/h.</desc>
<speed>2.670000</speed>
</trkpt>
<trkpt lat="56.112282" lon="26.427996">
<ele>100.260803</ele>
<time>2010-08-29T15:15:05Z</time>
<desc>lat.=56.112282, lon.=26.427996, Alt.=100.260803m. Speed=10.440000m/h.</desc>
<speed>2.900000</speed>
</trkpt>
<trkpt lat="56.112301" lon="26.427965">
<ele>100.348694</ele>
<time>2010-08-29T15:15:06Z</time>
<desc>lat.=56.112301, lon.=26.427965, Alt.=100.348694m. Speed=10.908000m/h.</desc>
<speed>3.030000</speed>
</trkpt>
<trkpt lat="56.112320" lon="26.427933">
<ele>101.542053</ele>
<time>2010-08-29T15:15:07Z</time>
<desc>lat.=56.112320, lon.=26.427933, Alt.=101.542053m. Speed=10.476000m/h.</desc>
<speed>2.910000</speed>
</trkpt>
<trkpt lat="56.112339" lon="26.427898">
<ele>101.819397</ele>
<time>2010-08-29T15:15:08Z</time>
<desc>lat.=56.112339, lon.=26.427898, Alt.=101.819397m. Speed=10.908000m/h.</desc>
<speed>3.030000</speed>
</trkpt>
<trkpt lat="56.112358" lon="26.427864">
<ele>102.688538</ele>
<time>2010-08-29T15:15:09Z</time>
<desc>lat.=56.112358, lon.=26.427864, Alt.=102.688538m. Speed=12.096000m/h.</desc>
<speed>3.360000</speed>
</trkpt>
<trkpt lat="56.112385" lon="26.427818">
<ele>102.661194</ele>
<time>2010-08-29T15:15:10Z</time>
<desc>lat.=56.112385, lon.=26.427818, Alt.=102.661194m. Speed=13.932000m/h.</desc>
<speed>3.870000</speed>
</trkpt>
<trkpt lat="56.112415" lon="26.427773">
<ele>103.088928</ele>
<time>2010-08-29T15:15:11Z</time>
<desc>lat.=56.112415, lon.=26.427773, Alt.=103.088928m. Speed=14.616000m/h.</desc>
<speed>4.060000</speed>
</trkpt>
<trkpt lat="56.112438" lon="26.427727">
<ele>103.335022</ele>
<time>2010-08-29T15:15:12Z</time>
<desc>lat.=56.112438, lon.=26.427727, Alt.=103.335022m. Speed=15.300000m/h.</desc>
<speed>4.250000</speed>
</trkpt>
<trkpt lat="56.112465" lon="26.427673">
<ele>103.336975</ele>
<time>2010-08-29T15:15:13Z</time>
<desc>lat.=56.112465, lon.=26.427673, Alt.=103.336975m. Speed=15.984000m/h.</desc>
<speed>4.440000</speed>
</trkpt>
<trkpt lat="56.112488" lon="26.427616">
<ele>103.157288</ele>
<time>2010-08-29T15:15:14Z</time>
<desc>lat.=56.112488, lon.=26.427616, Alt.=103.157288m. Speed=16.667999m/h.</desc>
<speed>4.630000</speed>
</trkpt>
<trkpt lat="56.112507" lon="26.427561">
<ele>101.471741</ele>
<time>2010-08-29T15:15:15Z</time>
<desc>lat.=56.112507, lon.=26.427561, Alt.=101.471741m. Speed=17.280001m/h.</desc>
<speed>4.800000</speed>
</trkpt>
<trkpt lat="56.112534" lon="26.427494">
<ele>101.030334</ele>
<time>2010-08-29T15:15:16Z</time>
<desc>lat.=56.112534, lon.=26.427494, Alt.=101.030334m. Speed=17.927999m/h.</desc>
<speed>4.980000</speed>
</trkpt>
<trkpt lat="56.112560" lon="26.427429">
<ele>100.936584</ele>
<time>2010-08-29T15:15:17Z</time>
<desc>lat.=56.112560, lon.=26.427429, Alt.=100.936584m. Speed=18.576000m/h.</desc>
<speed>5.160000</speed>
</trkpt>
<trkpt lat="56.112587" lon="26.427362">
<ele>100.694397</ele>
<time>2010-08-29T15:15:18Z</time>
<desc>lat.=56.112587, lon.=26.427362, Alt.=100.694397m. Speed=19.115999m/h.</desc>
<speed>5.310000</speed>
</trkpt>
<trkpt lat="56.112617" lon="26.427292">
<ele>100.493225</ele>
<time>2010-08-29T15:15:19Z</time>
<desc>lat.=56.112617, lon.=26.427292, Alt.=100.493225m. Speed=19.403999m/h.</desc>
<speed>5.390000</speed>
</trkpt>
<trkpt lat="56.112644" lon="26.427219">
<ele>100.544006</ele>
<time>2010-08-29T15:15:20Z</time>
<desc>lat.=56.112644, lon.=26.427219, Alt.=100.544006m. Speed=19.403999m/h.</desc>
<speed>5.390000</speed>
</trkpt>
<trkpt lat="56.112667" lon="26.427143">
<ele>100.573303</ele>
<time>2010-08-29T15:15:21Z</time>
<desc>lat.=56.112667, lon.=26.427143, Alt.=100.573303m. Speed=19.440001m/h.</desc>
<speed>5.400000</speed>
</trkpt>
<trkpt lat="56.112690" lon="26.427067">
<ele>100.553772</ele>
<time>2010-08-29T15:15:22Z</time>
<desc>lat.=56.112690, lon.=26.427067, Alt.=100.553772m. Speed=19.368000m/h.</desc>
<speed>5.380000</speed>
</trkpt>
<trkpt lat="56.112717" lon="26.426992">
<ele>100.516663</ele>
<time>2010-08-29T15:15:23Z</time>
<desc>lat.=56.112717, lon.=26.426992, Alt.=100.516663m. Speed=19.368000m/h.</desc>
<speed>5.380000</speed>
</trkpt>
<trkpt lat="56.112743" lon="26.426920">
<ele>100.713928</ele>
<time>2010-08-29T15:15:24Z</time>
<desc>lat.=56.112743, lon.=26.426920, Alt.=100.713928m. Speed=18.936001m/h.</desc>
<speed>5.260000</speed>
</trkpt>
<trkpt lat="56.112766" lon="26.426846">
<ele>100.606506</ele>
<time>2010-08-29T15:15:25Z</time>
<desc>lat.=56.112766, lon.=26.426846, Alt.=100.606506m. Speed=18.719999m/h.</desc>
<speed>5.200000</speed>
</trkpt>
<trkpt lat="56.112782" lon="26.426773">
<ele>99.975647</ele>
<time>2010-08-29T15:15:26Z</time>
<desc>lat.=56.112782, lon.=26.426773, Alt.=99.975647m. Speed=18.323999m/h.</desc>
<speed>5.090000</speed>
</trkpt>
<trkpt lat="56.112801" lon="26.426699">
<ele>99.919006</ele>
<time>2010-08-29T15:15:27Z</time>
<desc>lat.=56.112801, lon.=26.426699, Alt.=99.919006m. Speed=17.927999m/h.</desc>
<speed>4.980000</speed>
</trkpt>
<trkpt lat="56.112820" lon="26.426622">
<ele>100.028381</ele>
<time>2010-08-29T15:15:28Z</time>
<desc>lat.=56.112820, lon.=26.426622, Alt.=100.028381m. Speed=17.676001m/h.</desc>
<speed>4.910000</speed>
</trkpt>
<trkpt lat="56.112835" lon="26.426546">
<ele>100.038147</ele>
<time>2010-08-29T15:15:29Z</time>
<desc>lat.=56.112835, lon.=26.426546, Alt.=100.038147m. Speed=17.496000m/h.</desc>
<speed>4.860000</speed>
</trkpt>
<trkpt lat="56.112846" lon="26.426476">
<ele>100.057678</ele>
<time>2010-08-29T15:15:30Z</time>
<desc>lat.=56.112846, lon.=26.426476, Alt.=100.057678m. Speed=17.136000m/h.</desc>
<speed>4.760000</speed>
</trkpt>
<trkpt lat="56.112862" lon="26.426401">
<ele>99.852600</ele>
<time>2010-08-29T15:15:31Z</time>
<desc>lat.=56.112862, lon.=26.426401, Alt.=99.852600m. Speed=17.100000m/h.</desc>
<speed>4.750000</speed>
</trkpt>
<trkpt lat="56.112877" lon="26.426329">
<ele>99.526428</ele>
<time>2010-08-29T15:15:32Z</time>
<desc>lat.=56.112877, lon.=26.426329, Alt.=99.526428m. Speed=17.712000m/h.</desc>
<speed>4.920000</speed>
</trkpt>
<trkpt lat="56.112892" lon="26.426250">
<ele>99.555725</ele>
<time>2010-08-29T15:15:33Z</time>
<desc>lat.=56.112892, lon.=26.426250, Alt.=99.555725m. Speed=18.216000m/h.</desc>
<speed>5.060000</speed>
</trkpt>
<trkpt lat="56.112907" lon="26.426170">
<ele>99.563538</ele>
<time>2010-08-29T15:15:34Z</time>
<desc>lat.=56.112907, lon.=26.426170, Alt.=99.563538m. Speed=18.108000m/h.</desc>
<speed>5.030000</speed>
</trkpt>
<trkpt lat="56.112919" lon="26.426094">
<ele>99.567444</ele>
<time>2010-08-29T15:15:35Z</time>
<desc>lat.=56.112919, lon.=26.426094, Alt.=99.567444m. Speed=17.856001m/h.</desc>
<speed>4.960000</speed>
</trkpt>
<trkpt lat="56.112934" lon="26.426018">
<ele>99.518616</ele>
<time>2010-08-29T15:15:36Z</time>
<desc>lat.=56.112934, lon.=26.426018, Alt.=99.518616m. Speed=17.784000m/h.</desc>
<speed>4.940000</speed>
</trkpt>
<trkpt lat="56.112949" lon="26.425940">
<ele>99.225647</ele>
<time>2010-08-29T15:15:37Z</time>
<desc>lat.=56.112949, lon.=26.425940, Alt.=99.225647m. Speed=17.856001m/h.</desc>
<speed>4.960000</speed>
</trkpt>
<trkpt lat="56.112961" lon="26.425865">
<ele>99.420959</ele>
<time>2010-08-29T15:15:38Z</time>
<desc>lat.=56.112961, lon.=26.425865, Alt.=99.420959m. Speed=17.892000m/h.</desc>
<speed>4.970000</speed>
</trkpt>
<trkpt lat="56.112976" lon="26.425787">
<ele>99.260803</ele>
<time>2010-08-29T15:15:39Z</time>
<desc>lat.=56.112976, lon.=26.425787, Alt.=99.260803m. Speed=18.035999m/h.</desc>
<speed>5.010000</speed>
</trkpt>
<trkpt lat="56.112988" lon="26.425709">
<ele>99.094788</ele>
<time>2010-08-29T15:15:40Z</time>
<desc>lat.=56.112988, lon.=26.425709, Alt.=99.094788m. Speed=18.396000m/h.</desc>
<speed>5.110000</speed>
</trkpt>
<trkpt lat="56.112999" lon="26.425631">
<ele>99.088928</ele>
<time>2010-08-29T15:15:41Z</time>
<desc>lat.=56.112999, lon.=26.425631, Alt.=99.088928m. Speed=18.648001m/h.</desc>
<speed>5.180000</speed>
</trkpt>
<trkpt lat="56.113014" lon="26.425545">
<ele>98.901428</ele>
<time>2010-08-29T15:15:42Z</time>
<desc>lat.=56.113014, lon.=26.425545, Alt.=98.901428m. Speed=19.152000m/h.</desc>
<speed>5.320000</speed>
</trkpt>
<trkpt lat="56.113022" lon="26.425461">
<ele>98.870178</ele>
<time>2010-08-29T15:15:43Z</time>
<desc>lat.=56.113022, lon.=26.425461, Alt.=98.870178m. Speed=19.620001m/h.</desc>
<speed>5.450000</speed>
</trkpt>
<trkpt lat="56.113033" lon="26.425375">
<ele>98.737366</ele>
<time>2010-08-29T15:15:44Z</time>
<desc>lat.=56.113033, lon.=26.425375, Alt.=98.737366m. Speed=19.836000m/h.</desc>
<speed>5.510000</speed>
</trkpt>
<trkpt lat="56.113049" lon="26.425291">
<ele>98.268616</ele>
<time>2010-08-29T15:15:45Z</time>
<desc>lat.=56.113049, lon.=26.425291, Alt.=98.268616m. Speed=20.016001m/h.</desc>
<speed>5.560000</speed>
</trkpt>
<trkpt lat="56.113064" lon="26.425205">
<ele>98.145569</ele>
<time>2010-08-29T15:15:46Z</time>
<desc>lat.=56.113064, lon.=26.425205, Alt.=98.145569m. Speed=20.232000m/h.</desc>
<speed>5.620000</speed>
</trkpt>
<trkpt lat="56.113079" lon="26.425119">
<ele>98.032288</ele>
<time>2010-08-29T15:15:47Z</time>
<desc>lat.=56.113079, lon.=26.425119, Alt.=98.032288m. Speed=20.483999m/h.</desc>
<speed>5.690000</speed>
</trkpt>
<trkpt lat="56.113094" lon="26.425032">
<ele>97.924866</ele>
<time>2010-08-29T15:15:48Z</time>
<desc>lat.=56.113094, lon.=26.425032, Alt.=97.924866m. Speed=20.556000m/h.</desc>
<speed>5.710000</speed>
</trkpt>
<trkpt lat="56.113106" lon="26.424948">
<ele>97.911194</ele>
<time>2010-08-29T15:15:49Z</time>
<desc>lat.=56.113106, lon.=26.424948, Alt.=97.911194m. Speed=20.664000m/h.</desc>
<speed>5.740000</speed>
</trkpt>
<trkpt lat="56.113125" lon="26.424858">
<ele>97.723694</ele>
<time>2010-08-29T15:15:50Z</time>
<desc>lat.=56.113125, lon.=26.424858, Alt.=97.723694m. Speed=20.628000m/h.</desc>
<speed>5.730000</speed>
</trkpt>
<trkpt lat="56.113136" lon="26.424768">
<ele>97.561584</ele>
<time>2010-08-29T15:15:51Z</time>
<desc>lat.=56.113136, lon.=26.424768, Alt.=97.561584m. Speed=20.700001m/h.</desc>
<speed>5.750000</speed>
</trkpt>
<trkpt lat="56.113148" lon="26.424679">
<ele>97.659241</ele>
<time>2010-08-29T15:15:52Z</time>
<desc>lat.=56.113148, lon.=26.424679, Alt.=97.659241m. Speed=20.771999m/h.</desc>
<speed>5.770000</speed>
</trkpt>
<trkpt lat="56.113163" lon="26.424589">
<ele>97.460022</ele>
<time>2010-08-29T15:15:53Z</time>
<desc>lat.=56.113163, lon.=26.424589, Alt.=97.460022m. Speed=20.591999m/h.</desc>
<speed>5.720000</speed>
</trkpt>
<trkpt lat="56.113174" lon="26.424500">
<ele>97.202209</ele>
<time>2010-08-29T15:15:54Z</time>
<desc>lat.=56.113174, lon.=26.424500, Alt.=97.202209m. Speed=20.483999m/h.</desc>
<speed>5.690000</speed>
</trkpt>
<trkpt lat="56.113190" lon="26.424414">
<ele>97.372131</ele>
<time>2010-08-29T15:15:55Z</time>
<desc>lat.=56.113190, lon.=26.424414, Alt.=97.372131m. Speed=20.375999m/h.</desc>
<speed>5.660000</speed>
</trkpt>
<trkpt lat="56.113205" lon="26.424326">
<ele>97.278381</ele>
<time>2010-08-29T15:15:56Z</time>
<desc>lat.=56.113205, lon.=26.424326, Alt.=97.278381m. Speed=20.304001m/h.</desc>
<speed>5.640000</speed>
</trkpt>
<trkpt lat="56.113220" lon="26.424240">
<ele>97.256897</ele>
<time>2010-08-29T15:15:57Z</time>
<desc>lat.=56.113220, lon.=26.424240, Alt.=97.256897m. Speed=20.340000m/h.</desc>
<speed>5.650000</speed>
</trkpt>
<trkpt lat="56.113235" lon="26.424154">
<ele>97.239319</ele>
<time>2010-08-29T15:15:58Z</time>
<desc>lat.=56.113235, lon.=26.424154, Alt.=97.239319m. Speed=20.052000m/h.</desc>
<speed>5.570000</speed>
</trkpt>
<trkpt lat="56.113247" lon="26.424068">
<ele>97.169006</ele>
<time>2010-08-29T15:15:59Z</time>
<desc>lat.=56.113247, lon.=26.424068, Alt.=97.169006m. Speed=19.691999m/h.</desc>
<speed>5.470000</speed>
</trkpt>
<trkpt lat="56.113262" lon="26.423985">
<ele>97.237366</ele>
<time>2010-08-29T15:16:00Z</time>
<desc>lat.=56.113262, lon.=26.423985, Alt.=97.237366m. Speed=19.368000m/h.</desc>
<speed>5.380000</speed>
</trkpt>
<trkpt lat="56.113274" lon="26.423901">
<ele>97.252991</ele>
<time>2010-08-29T15:16:01Z</time>
<desc>lat.=56.113274, lon.=26.423901, Alt.=97.252991m. Speed=18.972000m/h.</desc>
<speed>5.270000</speed>
</trkpt>
<trkpt lat="56.113285" lon="26.423817">
<ele>97.266663</ele>
<time>2010-08-29T15:16:02Z</time>
<desc>lat.=56.113285, lon.=26.423817, Alt.=97.266663m. Speed=18.540001m/h.</desc>
<speed>5.150000</speed>
</trkpt>
<trkpt lat="56.113297" lon="26.423740">
<ele>97.317444</ele>
<time>2010-08-29T15:16:03Z</time>
<desc>lat.=56.113297, lon.=26.423740, Alt.=97.317444m. Speed=18.000000m/h.</desc>
<speed>5.000000</speed>
</trkpt>
<trkpt lat="56.113312" lon="26.423664">
<ele>96.954163</ele>
<time>2010-08-29T15:16:04Z</time>
<desc>lat.=56.113312, lon.=26.423664, Alt.=96.954163m. Speed=17.639999m/h.</desc>
<speed>4.900000</speed>
</trkpt>
<trkpt lat="56.113323" lon="26.423592">
<ele>96.893616</ele>
<time>2010-08-29T15:16:05Z</time>
<desc>lat.=56.113323, lon.=26.423592, Alt.=96.893616m. Speed=16.992001m/h.</desc>
<speed>4.720000</speed>
</trkpt>
<trkpt lat="56.113338" lon="26.423523">
<ele>96.907288</ele>
<time>2010-08-29T15:16:06Z</time>
<desc>lat.=56.113338, lon.=26.423523, Alt.=96.907288m. Speed=16.524000m/h.</desc>
<speed>4.590000</speed>
</trkpt>
<trkpt lat="56.113350" lon="26.423450">
<ele>96.760803</ele>
<time>2010-08-29T15:16:07Z</time>
<desc>lat.=56.113350, lon.=26.423450, Alt.=96.760803m. Speed=16.344000m/h.</desc>
<speed>4.540000</speed>
</trkpt>
<trkpt lat="56.113361" lon="26.423382">
<ele>96.823303</ele>
<time>2010-08-29T15:16:08Z</time>
<desc>lat.=56.113361, lon.=26.423382, Alt.=96.823303m. Speed=15.804000m/h.</desc>
<speed>4.390000</speed>
</trkpt>
<trkpt lat="56.113373" lon="26.423317">
<ele>96.772522</ele>
<time>2010-08-29T15:16:09Z</time>
<desc>lat.=56.113373, lon.=26.423317, Alt.=96.772522m. Speed=15.588000m/h.</desc>
<speed>4.330000</speed>
</trkpt>
<trkpt lat="56.113380" lon="26.423244">
<ele>96.678772</ele>
<time>2010-08-29T15:16:10Z</time>
<desc>lat.=56.113380, lon.=26.423244, Alt.=96.678772m. Speed=16.379999m/h.</desc>
<speed>4.550000</speed>
</trkpt>
<trkpt lat="56.113392" lon="26.423176">
<ele>96.737366</ele>
<time>2010-08-29T15:16:11Z</time>
<desc>lat.=56.113392, lon.=26.423176, Alt.=96.737366m. Speed=15.804000m/h.</desc>
<speed>4.390000</speed>
</trkpt>
<trkpt lat="56.113403" lon="26.423107">
<ele>96.708069</ele>
<time>2010-08-29T15:16:12Z</time>
<desc>lat.=56.113403, lon.=26.423107, Alt.=96.708069m. Speed=15.084000m/h.</desc>
<speed>4.190000</speed>
</trkpt>
<trkpt lat="56.113415" lon="26.423042">
<ele>96.776428</ele>
<time>2010-08-29T15:16:13Z</time>
<desc>lat.=56.113415, lon.=26.423042, Alt.=96.776428m. Speed=14.184000m/h.</desc>
<speed>3.940000</speed>
</trkpt>
<trkpt lat="56.113426" lon="26.422983">
<ele>96.838928</ele>
<time>2010-08-29T15:16:14Z</time>
<desc>lat.=56.113426, lon.=26.422983, Alt.=96.838928m. Speed=13.356000m/h.</desc>
<speed>3.710000</speed>
</trkpt>
<trkpt lat="56.113438" lon="26.422928">
<ele>96.901428</ele>
<time>2010-08-29T15:16:15Z</time>
<desc>lat.=56.113438, lon.=26.422928, Alt.=96.901428m. Speed=12.312000m/h.</desc>
<speed>3.420000</speed>
</trkpt>
<trkpt lat="56.113449" lon="26.422882">
<ele>97.126038</ele>
<time>2010-08-29T15:16:16Z</time>
<desc>lat.=56.113449, lon.=26.422882, Alt.=97.126038m. Speed=12.024000m/h.</desc>
<speed>3.340000</speed>
</trkpt>
<trkpt lat="56.113461" lon="26.422832">
<ele>97.069397</ele>
<time>2010-08-29T15:16:17Z</time>
<desc>lat.=56.113461, lon.=26.422832, Alt.=97.069397m. Speed=12.672000m/h.</desc>
<speed>3.520000</speed>
</trkpt>
<trkpt lat="56.113468" lon="26.422781">
<ele>96.760803</ele>
<time>2010-08-29T15:16:18Z</time>
<desc>lat.=56.113468, lon.=26.422781, Alt.=96.760803m. Speed=12.744000m/h.</desc>
<speed>3.540000</speed>
</trkpt>
<trkpt lat="56.113480" lon="26.422729">
<ele>96.969788</ele>
<time>2010-08-29T15:16:19Z</time>
<desc>lat.=56.113480, lon.=26.422729, Alt.=96.969788m. Speed=12.708000m/h.</desc>
<speed>3.530000</speed>
</trkpt>
<trkpt lat="56.113491" lon="26.422676">
<ele>96.885803</ele>
<time>2010-08-29T15:16:20Z</time>
<desc>lat.=56.113491, lon.=26.422676, Alt.=96.885803m. Speed=12.564000m/h.</desc>
<speed>3.490000</speed>
</trkpt>
<trkpt lat="56.113499" lon="26.422623">
<ele>96.721741</ele>
<time>2010-08-29T15:16:21Z</time>
<desc>lat.=56.113499, lon.=26.422623, Alt.=96.721741m. Speed=12.312000m/h.</desc>
<speed>3.420000</speed>
</trkpt>
<trkpt lat="56.113506" lon="26.422571">
<ele>96.710022</ele>
<time>2010-08-29T15:16:22Z</time>
<desc>lat.=56.113506, lon.=26.422571, Alt.=96.710022m. Speed=11.484000m/h.</desc>
<speed>3.190000</speed>
</trkpt>
<trkpt lat="56.113514" lon="26.422522">
<ele>96.844788</ele>
<time>2010-08-29T15:16:23Z</time>
<desc>lat.=56.113514, lon.=26.422522, Alt.=96.844788m. Speed=11.808000m/h.</desc>
<speed>3.280000</speed>
</trkpt>
<trkpt lat="56.113522" lon="26.422476">
<ele>97.135803</ele>
<time>2010-08-29T15:16:24Z</time>
<desc>lat.=56.113522, lon.=26.422476, Alt.=97.135803m. Speed=12.528000m/h.</desc>
<speed>3.480000</speed>
</trkpt>
<trkpt lat="56.113529" lon="26.422421">
<ele>97.059631</ele>
<time>2010-08-29T15:16:25Z</time>
<desc>lat.=56.113529, lon.=26.422421, Alt.=97.059631m. Speed=12.888000m/h.</desc>
<speed>3.580000</speed>
</trkpt>
<trkpt lat="56.113537" lon="26.422361">
<ele>97.018616</ele>
<time>2010-08-29T15:16:26Z</time>
<desc>lat.=56.113537, lon.=26.422361, Alt.=97.018616m. Speed=13.752000m/h.</desc>
<speed>3.820000</speed>
</trkpt>
<trkpt lat="56.113548" lon="26.422300">
<ele>97.094788</ele>
<time>2010-08-29T15:16:27Z</time>
<desc>lat.=56.113548, lon.=26.422300, Alt.=97.094788m. Speed=14.256000m/h.</desc>
<speed>3.960000</speed>
</trkpt>
<trkpt lat="56.113556" lon="26.422239">
<ele>97.108459</ele>
<time>2010-08-29T15:16:28Z</time>
<desc>lat.=56.113556, lon.=26.422239, Alt.=97.108459m. Speed=14.076000m/h.</desc>
<speed>3.910000</speed>
</trkpt>
<trkpt lat="56.113567" lon="26.422178">
<ele>97.079163</ele>
<time>2010-08-29T15:16:29Z</time>
<desc>lat.=56.113567, lon.=26.422178, Alt.=97.079163m. Speed=13.716000m/h.</desc>
<speed>3.810000</speed>
</trkpt>
<trkpt lat="56.113575" lon="26.422121">
<ele>97.165100</ele>
<time>2010-08-29T15:16:30Z</time>
<desc>lat.=56.113575, lon.=26.422121, Alt.=97.165100m. Speed=13.356000m/h.</desc>
<speed>3.710000</speed>
</trkpt>
<trkpt lat="56.113586" lon="26.422064">
<ele>96.928772</ele>
<time>2010-08-29T15:16:31Z</time>
<desc>lat.=56.113586, lon.=26.422064, Alt.=96.928772m. Speed=13.068000m/h.</desc>
<speed>3.630000</speed>
</trkpt>
<trkpt lat="56.113598" lon="26.422009">
<ele>96.883850</ele>
<time>2010-08-29T15:16:32Z</time>
<desc>lat.=56.113598, lon.=26.422009, Alt.=96.883850m. Speed=13.176000m/h.</desc>
<speed>3.660000</speed>
</trkpt>
<trkpt lat="56.113602" lon="26.421951">
<ele>96.827209</ele>
<time>2010-08-29T15:16:33Z</time>
<desc>lat.=56.113602, lon.=26.421951, Alt.=96.827209m. Speed=13.212000m/h.</desc>
<speed>3.670000</speed>
</trkpt>
<trkpt lat="56.113609" lon="26.421892">
<ele>96.624084</ele>
<time>2010-08-29T15:16:34Z</time>
<desc>lat.=56.113609, lon.=26.421892, Alt.=96.624084m. Speed=13.356000m/h.</desc>
<speed>3.710000</speed>
</trkpt>
<trkpt lat="56.113617" lon="26.421844">
<ele>96.409241</ele>
<time>2010-08-29T15:16:35Z</time>
<desc>lat.=56.113617, lon.=26.421844, Alt.=96.409241m. Speed=13.572000m/h.</desc>
<speed>3.770000</speed>
</trkpt>
<trkpt lat="56.113628" lon="26.421787">
<ele>96.167053</ele>
<time>2010-08-29T15:16:36Z</time>
<desc>lat.=56.113628, lon.=26.421787, Alt.=96.167053m. Speed=13.716000m/h.</desc>
<speed>3.810000</speed>
</trkpt>
<trkpt lat="56.113640" lon="26.421728">
<ele>96.034241</ele>
<time>2010-08-29T15:16:37Z</time>
<desc>lat.=56.113640, lon.=26.421728, Alt.=96.034241m. Speed=13.968000m/h.</desc>
<speed>3.880000</speed>
</trkpt>
<trkpt lat="56.113647" lon="26.421671">
<ele>96.108459</ele>
<time>2010-08-29T15:16:38Z</time>
<desc>lat.=56.113647, lon.=26.421671, Alt.=96.108459m. Speed=13.896000m/h.</desc>
<speed>3.860000</speed>
</trkpt>
<trkpt lat="56.113655" lon="26.421608">
<ele>95.917053</ele>
<time>2010-08-29T15:16:39Z</time>
<desc>lat.=56.113655, lon.=26.421608, Alt.=95.917053m. Speed=13.896000m/h.</desc>
<speed>3.860000</speed>
</trkpt>
<trkpt lat="56.113659" lon="26.421545">
<ele>95.768616</ele>
<time>2010-08-29T15:16:40Z</time>
<desc>lat.=56.113659, lon.=26.421545, Alt.=95.768616m. Speed=13.860000m/h.</desc>
<speed>3.850000</speed>
</trkpt>
<trkpt lat="56.113667" lon="26.421486">
<ele>95.792053</ele>
<time>2010-08-29T15:16:41Z</time>
<desc>lat.=56.113667, lon.=26.421486, Alt.=95.792053m. Speed=14.076000m/h.</desc>
<speed>3.910000</speed>
</trkpt>
<trkpt lat="56.113682" lon="26.421423">
<ele>95.606506</ele>
<time>2010-08-29T15:16:42Z</time>
<desc>lat.=56.113682, lon.=26.421423, Alt.=95.606506m. Speed=14.148000m/h.</desc>
<speed>3.930000</speed>
</trkpt>
<trkpt lat="56.113693" lon="26.421362">
<ele>95.717834</ele>
<time>2010-08-29T15:16:43Z</time>
<desc>lat.=56.113693, lon.=26.421362, Alt.=95.717834m. Speed=14.400000m/h.</desc>
<speed>4.000000</speed>
</trkpt>
<trkpt lat="56.113708" lon="26.421303">
<ele>95.602600</ele>
<time>2010-08-29T15:16:44Z</time>
<desc>lat.=56.113708, lon.=26.421303, Alt.=95.602600m. Speed=13.500000m/h.</desc>
<speed>3.750000</speed>
</trkpt>
<trkpt lat="56.113716" lon="26.421253">
<ele>95.540100</ele>
<time>2010-08-29T15:16:45Z</time>
<desc>lat.=56.113716, lon.=26.421253, Alt.=95.540100m. Speed=10.692000m/h.</desc>
<speed>2.970000</speed>
</trkpt>
<trkpt lat="56.113724" lon="26.421221">
<ele>95.465881</ele>
<time>2010-08-29T15:16:46Z</time>
<desc>lat.=56.113724, lon.=26.421221, Alt.=95.465881m. Speed=6.768000m/h.</desc>
<speed>1.880000</speed>
</trkpt>
<trkpt lat="56.113728" lon="26.421204">
<ele>95.469788</ele>
<time>2010-08-29T15:16:47Z</time>
<desc>lat.=56.113728, lon.=26.421204, Alt.=95.469788m. Speed=1.188000m/h.</desc>
<speed>0.330000</speed>
</trkpt>
<trkpt lat="56.113728" lon="26.421202">
<ele>95.665100</ele>
<time>2010-08-29T15:16:48Z</time>
<desc>lat.=56.113728, lon.=26.421202, Alt.=95.665100m. Speed=0.000000m/h.</desc>
<speed>0.000000</speed>
</trkpt>
<trkpt lat="56.113724" lon="26.421202">
<ele>95.778381</ele>
<time>2010-08-29T15:16:49Z</time>
<desc>lat.=56.113724, lon.=26.421202, Alt.=95.778381m. Speed=0.900000m/h.</desc>
<speed>0.250000</speed>
</trkpt>
<trkpt lat="56.113724" lon="26.421206">
<ele>95.561584</ele>
<time>2010-08-29T15:16:50Z</time>
<desc>lat.=56.113724, lon.=26.421206, Alt.=95.561584m. Speed=0.072000m/h.</desc>
<speed>0.020000</speed>
</trkpt>
<trkpt lat="56.113724" lon="26.421206">
<ele>95.555725</ele>
<time>2010-08-29T15:16:51Z</time>
<desc>lat.=56.113724, lon.=26.421206, Alt.=95.555725m. Speed=0.288000m/h.</desc>
<speed>0.080000</speed>
</trkpt>
<trkpt lat="56.113724" lon="26.421206">
<ele>95.633850</ele>
<time>2010-08-29T15:16:52Z</time>
<desc>lat.=56.113724, lon.=26.421206, Alt.=95.633850m. Speed=0.108000m/h.</desc>
<speed>0.030000</speed>
</trkpt>
<trkpt lat="56.113724" lon="26.421207">
<ele>95.680725</ele>
<time>2010-08-29T15:16:53Z</time>
<desc>lat.=56.113724, lon.=26.421207, Alt.=95.680725m. Speed=0.180000m/h.</desc>
<speed>0.050000</speed>
</trkpt>
<trkpt lat="56.113724" lon="26.421207">
<ele>95.684631</ele>
<time>2010-08-29T15:16:54Z</time>
<desc>lat.=56.113724, lon.=26.421207, Alt.=95.684631m. Speed=0.144000m/h.</desc>
<speed>0.040000</speed>
</trkpt>
<trkpt lat="56.113724" lon="26.421207">
<ele>95.717834</ele>
<time>2010-08-29T15:16:55Z</time>
<desc>lat.=56.113724, lon.=26.421207, Alt.=95.717834m. Speed=0.072000m/h.</desc>
<speed>0.020000</speed>
</trkpt>
<trkpt lat="56.113728" lon="26.421207">
<ele>95.772522</ele>
<time>2010-08-29T15:16:56Z</time>
<desc>lat.=56.113728, lon.=26.421207, Alt.=95.772522m. Speed=0.000000m/h.</desc>
<speed>0.000000</speed>
</trkpt>
<trkpt lat="56.113724" lon="26.421206">
<ele>95.807678</ele>
<time>2010-08-29T15:16:57Z</time>
<desc>lat.=56.113724, lon.=26.421206, Alt.=95.807678m. Speed=0.072000m/h.</desc>
<speed>0.020000</speed>
</trkpt>
<trkpt lat="56.113724" lon="26.421206">
<ele>95.813538</ele>
<time>2010-08-29T15:16:58Z</time>
<desc>lat.=56.113724, lon.=26.421206, Alt.=95.813538m. Speed=0.000000m/h.</desc>
<speed>0.000000</speed>
</trkpt>
<trkpt lat="56.113724" lon="26.421206">
<ele>95.813538</ele>
<time>2010-08-29T15:16:59Z</time>
<desc>lat.=56.113724, lon.=26.421206, Alt.=95.813538m. Speed=0.036000m/h.</desc>
<speed>0.010000</speed>
</trkpt>
<trkpt lat="56.113724" lon="26.421206">
<ele>95.823303</ele>
<time>2010-08-29T15:17:00Z</time>
<desc>lat.=56.113724, lon.=26.421206, Alt.=95.823303m. Speed=0.036000m/h.</desc>
<speed>0.010000</speed>
</trkpt>
<trkpt lat="56.113724" lon="26.421206">
<ele>95.829163</ele>
<time>2010-08-29T15:17:01Z</time>
<desc>lat.=56.113724, lon.=26.421206, Alt.=95.829163m. Speed=0.000000m/h.</desc>
<speed>0.000000</speed>
</trkpt>
<trkpt lat="56.113724" lon="26.421207">
<ele>95.835022</ele>
<time>2010-08-29T15:17:02Z</time>
<desc>lat.=56.113724, lon.=26.421207, Alt.=95.835022m. Speed=0.036000m/h.</desc>
<speed>0.010000</speed>
</trkpt>
<trkpt lat="56.113724" lon="26.421207">
<ele>95.850647</ele>
<time>2010-08-29T15:17:03Z</time>
<desc>lat.=56.113724, lon.=26.421207, Alt.=95.850647m. Speed=0.036000m/h.</desc>
<speed>0.010000</speed>
</trkpt>
<trkpt lat="56.113724" lon="26.421207">
<ele>95.862366</ele>
<time>2010-08-29T15:17:04Z</time>
<desc>lat.=56.113724, lon.=26.421207, Alt.=95.862366m. Speed=0.036000m/h.</desc>
<speed>0.010000</speed>
</trkpt>
<trkpt lat="56.113724" lon="26.421207">
<ele>95.883850</ele>
<time>2010-08-29T15:17:05Z</time>
<desc>lat.=56.113724, lon.=26.421207, Alt.=95.883850m. Speed=0.036000m/h.</desc>
<speed>0.010000</speed>
</trkpt>
<trkpt lat="56.113724" lon="26.421207">
<ele>95.901428</ele>
<time>2010-08-29T15:17:06Z</time>
<desc>lat.=56.113724, lon.=26.421207, Alt.=95.901428m. Speed=0.036000m/h.</desc>
<speed>0.010000</speed>
</trkpt>
<trkpt lat="56.113724" lon="26.421207">
<ele>95.917053</ele>
<time>2010-08-29T15:17:07Z</time>
<desc>lat.=56.113724, lon.=26.421207, Alt.=95.917053m. Speed=0.000000m/h.</desc>
<speed>0.000000</speed>
</trkpt>
<trkpt lat="56.113724" lon="26.421207">
<ele>95.928772</ele>
<time>2010-08-29T15:17:08Z</time>
<desc>lat.=56.113724, lon.=26.421207, Alt.=95.928772m. Speed=0.000000m/h.</desc>
<speed>0.000000</speed>
</trkpt>
<trkpt lat="56.113724" lon="26.421207">
<ele>95.938538</ele>
<time>2010-08-29T15:17:09Z</time>
<desc>lat.=56.113724, lon.=26.421207, Alt.=95.938538m. Speed=0.036000m/h.</desc>
<speed>0.010000</speed>
</trkpt>
<trkpt lat="56.113724" lon="26.421207">
<ele>95.948303</ele>
<time>2010-08-29T15:17:10Z</time>
<desc>lat.=56.113724, lon.=26.421207, Alt.=95.948303m. Speed=0.036000m/h.</desc>
<speed>0.010000</speed>
</trkpt>
<trkpt lat="56.113728" lon="26.421207">
<ele>95.969788</ele>
<time>2010-08-29T15:17:11Z</time>
<desc>lat.=56.113728, lon.=26.421207, Alt.=95.969788m. Speed=0.036000m/h.</desc>
<speed>0.010000</speed>
</trkpt>
<trkpt lat="56.113724" lon="26.421207">
<ele>95.969788</ele>
<time>2010-08-29T15:17:12Z</time>
<desc>lat.=56.113724, lon.=26.421207, Alt.=95.969788m. Speed=0.000000m/h.</desc>
<speed>0.000000</speed>
</trkpt>
<trkpt lat="56.113724" lon="26.421207">
<ele>95.981506</ele>
<time>2010-08-29T15:17:13Z</time>
<desc>lat.=56.113724, lon.=26.421207, Alt.=95.981506m. Speed=0.000000m/h.</desc>
<speed>0.000000</speed>
</trkpt>
<trkpt lat="56.113724" lon="26.421207">
<ele>95.999084</ele>
<time>2010-08-29T15:17:14Z</time>
<desc>lat.=56.113724, lon.=26.421207, Alt.=95.999084m. Speed=0.000000m/h.</desc>
<speed>0.000000</speed>
</trkpt>
<trkpt lat="56.113724" lon="26.421207">
<ele>96.014709</ele>
<time>2010-08-29T15:17:15Z</time>
<desc>lat.=56.113724, lon.=26.421207, Alt.=96.014709m. Speed=0.000000m/h.</desc>
<speed>0.000000</speed>
</trkpt>
<trkpt lat="56.113724" lon="26.421207">
<ele>96.028381</ele>
<time>2010-08-29T15:17:16Z</time>
<desc>lat.=56.113724, lon.=26.421207, Alt.=96.028381m. Speed=0.036000m/h.</desc>
<speed>0.010000</speed>
</trkpt>
<trkpt lat="56.113728" lon="26.421207">
<ele>96.032288</ele>
<time>2010-08-29T15:17:17Z</time>
<desc>lat.=56.113728, lon.=26.421207, Alt.=96.032288m. Speed=0.000000m/h.</desc>
<speed>0.000000</speed>
</trkpt>
<trkpt lat="56.113724" lon="26.421207">
<ele>96.026428</ele>
<time>2010-08-29T15:17:18Z</time>
<desc>lat.=56.113724, lon.=26.421207, Alt.=96.026428m. Speed=0.108000m/h.</desc>
<speed>0.030000</speed>
</trkpt>
<trkpt lat="56.113728" lon="26.421207">
<ele>96.045959</ele>
<time>2010-08-29T15:17:19Z</time>
<desc>lat.=56.113728, lon.=26.421207, Alt.=96.045959m. Speed=0.072000m/h.</desc>
<speed>0.020000</speed>
</trkpt>
<trkpt lat="56.113724" lon="26.421207">
<ele>96.059631</ele>
<time>2010-08-29T15:17:20Z</time>
<desc>lat.=56.113724, lon.=26.421207, Alt.=96.059631m. Speed=0.036000m/h.</desc>
<speed>0.010000</speed>
</trkpt>
<trkpt lat="56.113728" lon="26.421207">
<ele>96.083069</ele>
<time>2010-08-29T15:17:21Z</time>
<desc>lat.=56.113728, lon.=26.421207, Alt.=96.083069m. Speed=0.216000m/h.</desc>
<speed>0.060000</speed>
</trkpt>
<trkpt lat="56.113724" lon="26.421207">
<ele>96.073303</ele>
<time>2010-08-29T15:17:22Z</time>
<desc>lat.=56.113724, lon.=26.421207, Alt.=96.073303m. Speed=0.288000m/h.</desc>
<speed>0.080000</speed>
</trkpt>
<trkpt lat="56.113728" lon="26.421207">
<ele>96.083069</ele>
<time>2010-08-29T15:17:23Z</time>
<desc>lat.=56.113728, lon.=26.421207, Alt.=96.083069m. Speed=0.108000m/h.</desc>
<speed>0.030000</speed>
</trkpt>
<trkpt lat="56.113728" lon="26.421207">
<ele>96.092834</ele>
<time>2010-08-29T15:17:24Z</time>
<desc>lat.=56.113728, lon.=26.421207, Alt.=96.092834m. Speed=0.288000m/h.</desc>
<speed>0.080000</speed>
</trkpt>
<trkpt lat="56.113728" lon="26.421207">
<ele>96.100647</ele>
<time>2010-08-29T15:17:25Z</time>
<desc>lat.=56.113728, lon.=26.421207, Alt.=96.100647m. Speed=0.216000m/h.</desc>
<speed>0.060000</speed>
</trkpt>
<trkpt lat="56.113728" lon="26.421207">
<ele>96.100647</ele>
<time>2010-08-29T15:17:26Z</time>
<desc>lat.=56.113728, lon.=26.421207, Alt.=96.100647m. Speed=0.072000m/h.</desc>
<speed>0.020000</speed>
</trkpt>
<trkpt lat="56.113728" lon="26.421207">
<ele>96.100647</ele>
<time>2010-08-29T15:17:27Z</time>
<desc>lat.=56.113728, lon.=26.421207, Alt.=96.100647m. Speed=0.108000m/h.</desc>
<speed>0.030000</speed>
</trkpt>
<trkpt lat="56.113728" lon="26.421207">
<ele>96.100647</ele>
<time>2010-08-29T15:17:28Z</time>
<desc>lat.=56.113728, lon.=26.421207, Alt.=96.100647m. Speed=0.036000m/h.</desc>
<speed>0.010000</speed>
</trkpt>
<trkpt lat="56.113728" lon="26.421207">
<ele>96.100647</ele>
<time>2010-08-29T15:17:29Z</time>
<desc>lat.=56.113728, lon.=26.421207, Alt.=96.100647m. Speed=0.000000m/h.</desc>
<speed>0.000000</speed>
</trkpt>
<trkpt lat="56.113728" lon="26.421207">
<ele>96.100647</ele>
<time>2010-08-29T15:17:30Z</time>
<desc>lat.=56.113728, lon.=26.421207, Alt.=96.100647m. Speed=0.036000m/h.</desc>
<speed>0.010000</speed>
</trkpt>
<trkpt lat="56.113728" lon="26.421207">
<ele>96.096741</ele>
<time>2010-08-29T15:17:31Z</time>
<desc>lat.=56.113728, lon.=26.421207, Alt.=96.096741m. Speed=0.036000m/h.</desc>
<speed>0.010000</speed>
</trkpt>
<trkpt lat="56.113728" lon="26.421207">
<ele>96.096741</ele>
<time>2010-08-29T15:17:32Z</time>
<desc>lat.=56.113728, lon.=26.421207, Alt.=96.096741m. Speed=0.036000m/h.</desc>
<speed>0.010000</speed>
</trkpt>
<trkpt lat="56.113728" lon="26.421207">
<ele>96.094788</ele>
<time>2010-08-29T15:17:33Z</time>
<desc>lat.=56.113728, lon.=26.421207, Alt.=96.094788m. Speed=0.216000m/h.</desc>
<speed>0.060000</speed>
</trkpt>
<trkpt lat="56.113728" lon="26.421207">
<ele>96.094788</ele>
<time>2010-08-29T15:17:34Z</time>
<desc>lat.=56.113728, lon.=26.421207, Alt.=96.094788m. Speed=0.072000m/h.</desc>
<speed>0.020000</speed>
</trkpt>
<trkpt lat="56.113728" lon="26.421207">
<ele>96.069397</ele>
<time>2010-08-29T15:17:35Z</time>
<desc>lat.=56.113728, lon.=26.421207, Alt.=96.069397m. Speed=0.108000m/h.</desc>
<speed>0.030000</speed>
</trkpt>
<trkpt lat="56.113728" lon="26.421207">
<ele>96.065491</ele>
<time>2010-08-29T15:17:36Z</time>
<desc>lat.=56.113728, lon.=26.421207, Alt.=96.065491m. Speed=0.000000m/h.</desc>
<speed>0.000000</speed>
</trkpt>
<trkpt lat="56.113728" lon="26.421207">
<ele>96.063538</ele>
<time>2010-08-29T15:17:37Z</time>
<desc>lat.=56.113728, lon.=26.421207, Alt.=96.063538m. Speed=0.108000m/h.</desc>
<speed>0.030000</speed>
</trkpt>
<trkpt lat="56.113728" lon="26.421207">
<ele>96.063538</ele>
<time>2010-08-29T15:17:38Z</time>
<desc>lat.=56.113728, lon.=26.421207, Alt.=96.063538m. Speed=0.072000m/h.</desc>
<speed>0.020000</speed>
</trkpt>
<trkpt lat="56.113728" lon="26.421207">
<ele>96.063538</ele>
<time>2010-08-29T15:17:39Z</time>
<desc>lat.=56.113728, lon.=26.421207, Alt.=96.063538m. Speed=0.036000m/h.</desc>
<speed>0.010000</speed>
</trkpt>
<trkpt lat="56.113728" lon="26.421207">
<ele>96.061584</ele>
<time>2010-08-29T15:17:40Z</time>
<desc>lat.=56.113728, lon.=26.421207, Alt.=96.061584m. Speed=0.036000m/h.</desc>
<speed>0.010000</speed>
</trkpt>
<trkpt lat="56.113728" lon="26.421207">
<ele>96.061584</ele>
<time>2010-08-29T15:17:41Z</time>
<desc>lat.=56.113728, lon.=26.421207, Alt.=96.061584m. Speed=0.000000m/h.</desc>
<speed>0.000000</speed>
</trkpt>
<trkpt lat="56.113728" lon="26.421207">
<ele>96.059631</ele>
<time>2010-08-29T15:17:42Z</time>
<desc>lat.=56.113728, lon.=26.421207, Alt.=96.059631m. Speed=0.144000m/h.</desc>
<speed>0.040000</speed>
</trkpt>
<trkpt lat="56.113728" lon="26.421207">
<ele>96.063538</ele>
<time>2010-08-29T15:17:43Z</time>
<desc>lat.=56.113728, lon.=26.421207, Alt.=96.063538m. Speed=0.000000m/h.</desc>
<speed>0.000000</speed>
</trkpt>
<trkpt lat="56.113728" lon="26.421207">
<ele>96.045959</ele>
<time>2010-08-29T15:17:44Z</time>
<desc>lat.=56.113728, lon.=26.421207, Alt.=96.045959m. Speed=0.072000m/h.</desc>
<speed>0.020000</speed>
</trkpt>
<trkpt lat="56.113728" lon="26.421207">
<ele>96.042053</ele>
<time>2010-08-29T15:17:45Z</time>
<desc>lat.=56.113728, lon.=26.421207, Alt.=96.042053m. Speed=0.036000m/h.</desc>
<speed>0.010000</speed>
</trkpt>
<trkpt lat="56.113728" lon="26.421207">
<ele>96.042053</ele>
<time>2010-08-29T15:17:46Z</time>
<desc>lat.=56.113728, lon.=26.421207, Alt.=96.042053m. Speed=0.108000m/h.</desc>
<speed>0.030000</speed>
</trkpt>
<trkpt lat="56.113728" lon="26.421207">
<ele>96.042053</ele>
<time>2010-08-29T15:17:47Z</time>
<desc>lat.=56.113728, lon.=26.421207, Alt.=96.042053m. Speed=0.144000m/h.</desc>
<speed>0.040000</speed>
</trkpt>
<trkpt lat="56.113728" lon="26.421207">
<ele>96.038147</ele>
<time>2010-08-29T15:17:48Z</time>
<desc>lat.=56.113728, lon.=26.421207, Alt.=96.038147m. Speed=0.072000m/h.</desc>
<speed>0.020000</speed>
</trkpt>
<trkpt lat="56.113728" lon="26.421207">
<ele>96.034241</ele>
<time>2010-08-29T15:17:49Z</time>
<desc>lat.=56.113728, lon.=26.421207, Alt.=96.034241m. Speed=0.252000m/h.</desc>
<speed>0.070000</speed>
</trkpt>
<trkpt lat="56.113728" lon="26.421207">
<ele>96.032288</ele>
<time>2010-08-29T15:17:50Z</time>
<desc>lat.=56.113728, lon.=26.421207, Alt.=96.032288m. Speed=0.036000m/h.</desc>
<speed>0.010000</speed>
</trkpt>
<trkpt lat="56.113728" lon="26.421207">
<ele>96.028381</ele>
<time>2010-08-29T15:17:51Z</time>
<desc>lat.=56.113728, lon.=26.421207, Alt.=96.028381m. Speed=0.036000m/h.</desc>
<speed>0.010000</speed>
</trkpt>
<trkpt lat="56.113728" lon="26.421207">
<ele>96.026428</ele>
<time>2010-08-29T15:17:52Z</time>
<desc>lat.=56.113728, lon.=26.421207, Alt.=96.026428m. Speed=0.036000m/h.</desc>
<speed>0.010000</speed>
</trkpt>
<trkpt lat="56.113728" lon="26.421207">
<ele>96.024475</ele>
<time>2010-08-29T15:17:53Z</time>
<desc>lat.=56.113728, lon.=26.421207, Alt.=96.024475m. Speed=0.180000m/h.</desc>
<speed>0.050000</speed>
</trkpt>
<trkpt lat="56.113728" lon="26.421207">
<ele>96.024475</ele>
<time>2010-08-29T15:17:54Z</time>
<desc>lat.=56.113728, lon.=26.421207, Alt.=96.024475m. Speed=0.216000m/h.</desc>
<speed>0.060000</speed>
</trkpt>
<trkpt lat="56.113728" lon="26.421207">
<ele>96.024475</ele>
<time>2010-08-29T15:17:55Z</time>
<desc>lat.=56.113728, lon.=26.421207, Alt.=96.024475m. Speed=0.036000m/h.</desc>
<speed>0.010000</speed>
</trkpt>
<trkpt lat="56.113728" lon="26.421207">
<ele>96.024475</ele>
<time>2010-08-29T15:17:56Z</time>
<desc>lat.=56.113728, lon.=26.421207, Alt.=96.024475m. Speed=0.108000m/h.</desc>
<speed>0.030000</speed>
</trkpt>
<trkpt lat="56.113728" lon="26.421207">
<ele>96.024475</ele>
<time>2010-08-29T15:17:57Z</time>
<desc>lat.=56.113728, lon.=26.421207, Alt.=96.024475m. Speed=0.036000m/h.</desc>
<speed>0.010000</speed>
</trkpt>
<trkpt lat="56.113728" lon="26.421207">
<ele>96.030334</ele>
<time>2010-08-29T15:17:58Z</time>
<desc>lat.=56.113728, lon.=26.421207, Alt.=96.030334m. Speed=0.108000m/h.</desc>
<speed>0.030000</speed>
</trkpt>
<trkpt lat="56.113728" lon="26.421207">
<ele>96.028381</ele>
<time>2010-08-29T15:17:59Z</time>
<desc>lat.=56.113728, lon.=26.421207, Alt.=96.028381m. Speed=0.108000m/h.</desc>
<speed>0.030000</speed>
</trkpt>
<trkpt lat="56.113728" lon="26.421207">
<ele>96.028381</ele>
<time>2010-08-29T15:18:00Z</time>
<desc>lat.=56.113728, lon.=26.421207, Alt.=96.028381m. Speed=0.036000m/h.</desc>
<speed>0.010000</speed>
</trkpt>
<trkpt lat="56.113728" lon="26.421207">
<ele>96.026428</ele>
<time>2010-08-29T15:18:01Z</time>
<desc>lat.=56.113728, lon.=26.421207, Alt.=96.026428m. Speed=0.000000m/h.</desc>
<speed>0.000000</speed>
</trkpt>
<trkpt lat="56.113728" lon="26.421207">
<ele>96.026428</ele>
<time>2010-08-29T15:18:02Z</time>
<desc>lat.=56.113728, lon.=26.421207, Alt.=96.026428m. Speed=0.000000m/h.</desc>
<speed>0.000000</speed>
</trkpt>
<trkpt lat="56.113728" lon="26.421207">
<ele>96.024475</ele>
<time>2010-08-29T15:18:03Z</time>
<desc>lat.=56.113728, lon.=26.421207, Alt.=96.024475m. Speed=0.036000m/h.</desc>
<speed>0.010000</speed>
</trkpt>
<trkpt lat="56.113728" lon="26.421207">
<ele>96.024475</ele>
<time>2010-08-29T15:18:04Z</time>
<desc>lat.=56.113728, lon.=26.421207, Alt.=96.024475m. Speed=0.000000m/h.</desc>
<speed>0.000000</speed>
</trkpt>
<trkpt lat="56.113728" lon="26.421207">
<ele>96.024475</ele>
<time>2010-08-29T15:18:05Z</time>
<desc>lat.=56.113728, lon.=26.421207, Alt.=96.024475m. Speed=0.360000m/h.</desc>
<speed>0.100000</speed>
</trkpt>
<trkpt lat="56.113728" lon="26.421207">
<ele>96.024475</ele>
<time>2010-08-29T15:18:06Z</time>
<desc>lat.=56.113728, lon.=26.421207, Alt.=96.024475m. Speed=0.792000m/h.</desc>
<speed>0.220000</speed>
</trkpt>
<trkpt lat="56.113728" lon="26.421204">
<ele>96.088928</ele>
<time>2010-08-29T15:18:07Z</time>
<desc>lat.=56.113728, lon.=26.421204, Alt.=96.088928m. Speed=0.216000m/h.</desc>
<speed>0.060000</speed>
</trkpt>
<trkpt lat="56.113728" lon="26.421206">
<ele>96.211975</ele>
<time>2010-08-29T15:18:08Z</time>
<desc>lat.=56.113728, lon.=26.421206, Alt.=96.211975m. Speed=0.036000m/h.</desc>
<speed>0.010000</speed>
</trkpt>
<trkpt lat="56.113728" lon="26.421206">
<ele>96.303772</ele>
<time>2010-08-29T15:18:09Z</time>
<desc>lat.=56.113728, lon.=26.421206, Alt.=96.303772m. Speed=0.144000m/h.</desc>
<speed>0.040000</speed>
</trkpt>
<trkpt lat="56.113728" lon="26.421206">
<ele>96.377991</ele>
<time>2010-08-29T15:18:10Z</time>
<desc>lat.=56.113728, lon.=26.421206, Alt.=96.377991m. Speed=0.072000m/h.</desc>
<speed>0.020000</speed>
</trkpt>
<trkpt lat="56.113728" lon="26.421206">
<ele>96.454163</ele>
<time>2010-08-29T15:18:11Z</time>
<desc>lat.=56.113728, lon.=26.421206, Alt.=96.454163m. Speed=0.144000m/h.</desc>
<speed>0.040000</speed>
</trkpt>
<trkpt lat="56.113728" lon="26.421206">
<ele>96.504944</ele>
<time>2010-08-29T15:18:12Z</time>
<desc>lat.=56.113728, lon.=26.421206, Alt.=96.504944m. Speed=0.144000m/h.</desc>
<speed>0.040000</speed>
</trkpt>
<trkpt lat="56.113728" lon="26.421206">
<ele>96.549866</ele>
<time>2010-08-29T15:18:13Z</time>
<desc>lat.=56.113728, lon.=26.421206, Alt.=96.549866m. Speed=0.108000m/h.</desc>
<speed>0.030000</speed>
</trkpt>
<trkpt lat="56.113728" lon="26.421206">
<ele>96.585022</ele>
<time>2010-08-29T15:18:14Z</time>
<desc>lat.=56.113728, lon.=26.421206, Alt.=96.585022m. Speed=0.288000m/h.</desc>
<speed>0.080000</speed>
</trkpt>
<trkpt lat="56.113728" lon="26.421204">
<ele>96.604553</ele>
<time>2010-08-29T15:18:15Z</time>
<desc>lat.=56.113728, lon.=26.421204, Alt.=96.604553m. Speed=1.584000m/h.</desc>
<speed>0.440000</speed>
</trkpt>
<trkpt lat="56.113724" lon="26.421204">
<ele>96.610413</ele>
<time>2010-08-29T15:18:16Z</time>
<desc>lat.=56.113724, lon.=26.421204, Alt.=96.610413m. Speed=0.576000m/h.</desc>
<speed>0.160000</speed>
</trkpt>
<trkpt lat="56.113724" lon="26.421206">
<ele>96.618225</ele>
<time>2010-08-29T15:18:17Z</time>
<desc>lat.=56.113724, lon.=26.421206, Alt.=96.618225m. Speed=0.612000m/h.</desc>
<speed>0.170000</speed>
</trkpt>
<trkpt lat="56.113724" lon="26.421207">
<ele>96.627991</ele>
<time>2010-08-29T15:18:18Z</time>
<desc>lat.=56.113724, lon.=26.421207, Alt.=96.627991m. Speed=0.288000m/h.</desc>
<speed>0.080000</speed>
</trkpt>
<trkpt lat="56.113724" lon="26.421209">
<ele>96.639709</ele>
<time>2010-08-29T15:18:19Z</time>
<desc>lat.=56.113724, lon.=26.421209, Alt.=96.639709m. Speed=0.072000m/h.</desc>
<speed>0.020000</speed>
</trkpt>
<trkpt lat="56.113724" lon="26.421209">
<ele>96.663147</ele>
<time>2010-08-29T15:18:20Z</time>
<desc>lat.=56.113724, lon.=26.421209, Alt.=96.663147m. Speed=0.036000m/h.</desc>
<speed>0.010000</speed>
</trkpt>
<trkpt lat="56.113724" lon="26.421209">
<ele>96.667053</ele>
<time>2010-08-29T15:18:21Z</time>
<desc>lat.=56.113724, lon.=26.421209, Alt.=96.667053m. Speed=0.036000m/h.</desc>
<speed>0.010000</speed>
</trkpt>
<trkpt lat="56.113724" lon="26.421209">
<ele>96.669006</ele>
<time>2010-08-29T15:18:22Z</time>
<desc>lat.=56.113724, lon.=26.421209, Alt.=96.669006m. Speed=0.000000m/h.</desc>
<speed>0.000000</speed>
</trkpt>
<trkpt lat="56.113724" lon="26.421209">
<ele>96.667053</ele>
<time>2010-08-29T15:18:23Z</time>
<desc>lat.=56.113724, lon.=26.421209, Alt.=96.667053m. Speed=0.036000m/h.</desc>
<speed>0.010000</speed>
</trkpt>
<trkpt lat="56.113724" lon="26.421209">
<ele>96.667053</ele>
<time>2010-08-29T15:18:24Z</time>
<desc>lat.=56.113724, lon.=26.421209, Alt.=96.667053m. Speed=0.072000m/h.</desc>
<speed>0.020000</speed>
</trkpt>
<trkpt lat="56.113724" lon="26.421209">
<ele>96.669006</ele>
<time>2010-08-29T15:18:25Z</time>
<desc>lat.=56.113724, lon.=26.421209, Alt.=96.669006m. Speed=0.000000m/h.</desc>
<speed>0.000000</speed>
</trkpt>
<trkpt lat="56.113724" lon="26.421209">
<ele>96.669006</ele>
<time>2010-08-29T15:18:26Z</time>
<desc>lat.=56.113724, lon.=26.421209, Alt.=96.669006m. Speed=0.000000m/h.</desc>
<speed>0.000000</speed>
</trkpt>
<trkpt lat="56.113724" lon="26.421209">
<ele>96.670959</ele>
<time>2010-08-29T15:18:27Z</time>
<desc>lat.=56.113724, lon.=26.421209, Alt.=96.670959m. Speed=0.000000m/h.</desc>
<speed>0.000000</speed>
</trkpt>
<trkpt lat="56.113724" lon="26.421209">
<ele>96.674866</ele>
<time>2010-08-29T15:18:28Z</time>
<desc>lat.=56.113724, lon.=26.421209, Alt.=96.674866m. Speed=0.000000m/h.</desc>
<speed>0.000000</speed>
</trkpt>
<trkpt lat="56.113724" lon="26.421209">
<ele>96.676819</ele>
<time>2010-08-29T15:18:29Z</time>
<desc>lat.=56.113724, lon.=26.421209, Alt.=96.676819m. Speed=0.000000m/h.</desc>
<speed>0.000000</speed>
</trkpt>
<trkpt lat="56.113724" lon="26.421209">
<ele>96.674866</ele>
<time>2010-08-29T15:18:30Z</time>
<desc>lat.=56.113724, lon.=26.421209, Alt.=96.674866m. Speed=0.036000m/h.</desc>
<speed>0.010000</speed>
</trkpt>
<trkpt lat="56.113724" lon="26.421209">
<ele>96.678772</ele>
<time>2010-08-29T15:18:31Z</time>
<desc>lat.=56.113724, lon.=26.421209, Alt.=96.678772m. Speed=0.036000m/h.</desc>
<speed>0.010000</speed>
</trkpt>
<trkpt lat="56.113724" lon="26.421209">
<ele>96.676819</ele>
<time>2010-08-29T15:18:32Z</time>
<desc>lat.=56.113724, lon.=26.421209, Alt.=96.676819m. Speed=0.036000m/h.</desc>
<speed>0.010000</speed>
</trkpt>
<trkpt lat="56.113724" lon="26.421209">
<ele>96.678772</ele>
<time>2010-08-29T15:18:33Z</time>
<desc>lat.=56.113724, lon.=26.421209, Alt.=96.678772m. Speed=0.036000m/h.</desc>
<speed>0.010000</speed>
</trkpt>
<trkpt lat="56.113724" lon="26.421209">
<ele>96.680725</ele>
<time>2010-08-29T15:18:34Z</time>
<desc>lat.=56.113724, lon.=26.421209, Alt.=96.680725m. Speed=0.000000m/h.</desc>
<speed>0.000000</speed>
</trkpt>
<trkpt lat="56.113724" lon="26.421209">
<ele>96.680725</ele>
<time>2010-08-29T15:18:35Z</time>
<desc>lat.=56.113724, lon.=26.421209, Alt.=96.680725m. Speed=0.000000m/h.</desc>
<speed>0.000000</speed>
</trkpt>
<trkpt lat="56.113724" lon="26.421209">
<ele>96.682678</ele>
<time>2010-08-29T15:18:36Z</time>
<desc>lat.=56.113724, lon.=26.421209, Alt.=96.682678m. Speed=0.036000m/h.</desc>
<speed>0.010000</speed>
</trkpt>
<trkpt lat="56.113724" lon="26.421209">
<ele>96.682678</ele>
<time>2010-08-29T15:18:37Z</time>
<desc>lat.=56.113724, lon.=26.421209, Alt.=96.682678m. Speed=0.000000m/h.</desc>
<speed>0.000000</speed>
</trkpt>
<trkpt lat="56.113724" lon="26.421209">
<ele>96.682678</ele>
<time>2010-08-29T15:18:38Z</time>
<desc>lat.=56.113724, lon.=26.421209, Alt.=96.682678m. Speed=0.036000m/h.</desc>
<speed>0.010000</speed>
</trkpt>
<trkpt lat="56.113724" lon="26.421209">
<ele>96.684631</ele>
<time>2010-08-29T15:18:39Z</time>
<desc>lat.=56.113724, lon.=26.421209, Alt.=96.684631m. Speed=0.036000m/h.</desc>
<speed>0.010000</speed>
</trkpt>
<trkpt lat="56.113724" lon="26.421209">
<ele>96.684631</ele>
<time>2010-08-29T15:18:40Z</time>
<desc>lat.=56.113724, lon.=26.421209, Alt.=96.684631m. Speed=0.000000m/h.</desc>
<speed>0.000000</speed>
</trkpt>
<trkpt lat="56.113724" lon="26.421209">
<ele>96.688538</ele>
<time>2010-08-29T15:18:41Z</time>
<desc>lat.=56.113724, lon.=26.421209, Alt.=96.688538m. Speed=0.036000m/h.</desc>
<speed>0.010000</speed>
</trkpt>
<trkpt lat="56.113724" lon="26.421209">
<ele>96.690491</ele>
<time>2010-08-29T15:18:42Z</time>
<desc>lat.=56.113724, lon.=26.421209, Alt.=96.690491m. Speed=0.288000m/h.</desc>
<speed>0.080000</speed>
</trkpt>
<trkpt lat="56.113724" lon="26.421209">
<ele>96.682678</ele>
<time>2010-08-29T15:18:43Z</time>
<desc>lat.=56.113724, lon.=26.421209, Alt.=96.682678m. Speed=0.072000m/h.</desc>
<speed>0.020000</speed>
</trkpt>
<trkpt lat="56.113724" lon="26.421209">
<ele>96.676819</ele>
<time>2010-08-29T15:18:44Z</time>
<desc>lat.=56.113724, lon.=26.421209, Alt.=96.676819m. Speed=0.036000m/h.</desc>
<speed>0.010000</speed>
</trkpt>
<trkpt lat="56.113724" lon="26.421209">
<ele>96.674866</ele>
<time>2010-08-29T15:18:45Z</time>
<desc>lat.=56.113724, lon.=26.421209, Alt.=96.674866m. Speed=0.432000m/h.</desc>
<speed>0.120000</speed>
</trkpt>
<trkpt lat="56.113724" lon="26.421209">
<ele>96.669006</ele>
<time>2010-08-29T15:18:46Z</time>
<desc>lat.=56.113724, lon.=26.421209, Alt.=96.669006m. Speed=2.268000m/h.</desc>
<speed>0.630000</speed>
</trkpt>
<trkpt lat="56.113728" lon="26.421200">
<ele>96.674866</ele>
<time>2010-08-29T15:18:47Z</time>
<desc>lat.=56.113728, lon.=26.421200, Alt.=96.674866m. Speed=2.520000m/h.</desc>
<speed>0.700000</speed>
</trkpt>
<trkpt lat="56.113731" lon="26.421190">
<ele>96.674866</ele>
<time>2010-08-29T15:18:48Z</time>
<desc>lat.=56.113731, lon.=26.421190, Alt.=96.674866m. Speed=0.936000m/h.</desc>
<speed>0.260000</speed>
</trkpt>
<trkpt lat="56.113731" lon="26.421186">
<ele>96.663147</ele>
<time>2010-08-29T15:18:49Z</time>
<desc>lat.=56.113731, lon.=26.421186, Alt.=96.663147m. Speed=0.756000m/h.</desc>
<speed>0.210000</speed>
</trkpt>
<trkpt lat="56.113731" lon="26.421183">
<ele>96.629944</ele>
<time>2010-08-29T15:18:50Z</time>
<desc>lat.=56.113731, lon.=26.421183, Alt.=96.629944m. Speed=1.548000m/h.</desc>
<speed>0.430000</speed>
</trkpt>
<trkpt lat="56.113731" lon="26.421177">
<ele>96.899475</ele>
<time>2010-08-29T15:18:51Z</time>
<desc>lat.=56.113731, lon.=26.421177, Alt.=96.899475m. Speed=0.756000m/h.</desc>
<speed>0.210000</speed>
</trkpt>
<trkpt lat="56.113731" lon="26.421173">
<ele>97.227600</ele>
<time>2010-08-29T15:18:52Z</time>
<desc>lat.=56.113731, lon.=26.421173, Alt.=97.227600m. Speed=2.016000m/h.</desc>
<speed>0.560000</speed>
</trkpt>
<trkpt lat="56.113731" lon="26.421164">
<ele>97.491272</ele>
<time>2010-08-29T15:18:53Z</time>
<desc>lat.=56.113731, lon.=26.421164, Alt.=97.491272m. Speed=3.384000m/h.</desc>
<speed>0.940000</speed>
</trkpt>
<trkpt lat="56.113735" lon="26.421150">
<ele>97.729553</ele>
<time>2010-08-29T15:18:54Z</time>
<desc>lat.=56.113735, lon.=26.421150, Alt.=97.729553m. Speed=5.904000m/h.</desc>
<speed>1.640000</speed>
</trkpt>
<trkpt lat="56.113739" lon="26.421116">
<ele>97.866272</ele>
<time>2010-08-29T15:18:55Z</time>
<desc>lat.=56.113739, lon.=26.421116, Alt.=97.866272m. Speed=9.252000m/h.</desc>
<speed>2.570000</speed>
</trkpt>
<trkpt lat="56.113747" lon="26.421074">
<ele>97.817444</ele>
<time>2010-08-29T15:18:56Z</time>
<desc>lat.=56.113747, lon.=26.421074, Alt.=97.817444m. Speed=10.404000m/h.</desc>
<speed>2.890000</speed>
</trkpt>
<trkpt lat="56.113762" lon="26.421021">
<ele>97.956116</ele>
<time>2010-08-29T15:18:57Z</time>
<desc>lat.=56.113762, lon.=26.421021, Alt.=97.956116m. Speed=13.356000m/h.</desc>
<speed>3.710000</speed>
</trkpt>
<trkpt lat="56.113777" lon="26.420956">
<ele>98.002991</ele>
<time>2010-08-29T15:18:58Z</time>
<desc>lat.=56.113777, lon.=26.420956, Alt.=98.002991m. Speed=13.032000m/h.</desc>
<speed>3.620000</speed>
</trkpt>
<trkpt lat="56.113789" lon="26.420889">
<ele>98.002991</ele>
<time>2010-08-29T15:18:59Z</time>
<desc>lat.=56.113789, lon.=26.420889, Alt.=98.002991m. Speed=14.760000m/h.</desc>
<speed>4.100000</speed>
</trkpt>
<trkpt lat="56.113800" lon="26.420822">
<ele>98.008850</ele>
<time>2010-08-29T15:19:00Z</time>
<desc>lat.=56.113800, lon.=26.420822, Alt.=98.008850m. Speed=14.436000m/h.</desc>
<speed>4.010000</speed>
</trkpt>
<trkpt lat="56.113811" lon="26.420757">
<ele>98.002991</ele>
<time>2010-08-29T15:19:01Z</time>
<desc>lat.=56.113811, lon.=26.420757, Alt.=98.002991m. Speed=14.544000m/h.</desc>
<speed>4.040000</speed>
</trkpt>
<trkpt lat="56.113827" lon="26.420689">
<ele>97.424866</ele>
<time>2010-08-29T15:19:02Z</time>
<desc>lat.=56.113827, lon.=26.420689, Alt.=97.424866m. Speed=14.724000m/h.</desc>
<speed>4.090000</speed>
</trkpt>
<trkpt lat="56.113842" lon="26.420628">
<ele>97.401428</ele>
<time>2010-08-29T15:19:03Z</time>
<desc>lat.=56.113842, lon.=26.420628, Alt.=97.401428m. Speed=14.724000m/h.</desc>
<speed>4.090000</speed>
</trkpt>
<trkpt lat="56.113857" lon="26.420563">
<ele>97.336975</ele>
<time>2010-08-29T15:19:04Z</time>
<desc>lat.=56.113857, lon.=26.420563, Alt.=97.336975m. Speed=15.192000m/h.</desc>
<speed>4.220000</speed>
</trkpt>
<trkpt lat="56.113876" lon="26.420498">
<ele>97.194397</ele>
<time>2010-08-29T15:19:05Z</time>
<desc>lat.=56.113876, lon.=26.420498, Alt.=97.194397m. Speed=14.940000m/h.</desc>
<speed>4.150000</speed>
</trkpt>
<trkpt lat="56.113892" lon="26.420435">
<ele>96.915100</ele>
<time>2010-08-29T15:19:06Z</time>
<desc>lat.=56.113892, lon.=26.420435, Alt.=96.915100m. Speed=14.580000m/h.</desc>
<speed>4.050000</speed>
</trkpt>
<trkpt lat="56.113903" lon="26.420368">
<ele>96.641663</ele>
<time>2010-08-29T15:19:07Z</time>
<desc>lat.=56.113903, lon.=26.420368, Alt.=96.641663m. Speed=15.264000m/h.</desc>
<speed>4.240000</speed>
</trkpt>
<trkpt lat="56.113914" lon="26.420303">
<ele>96.159241</ele>
<time>2010-08-29T15:19:08Z</time>
<desc>lat.=56.113914, lon.=26.420303, Alt.=96.159241m. Speed=14.076000m/h.</desc>
<speed>3.910000</speed>
</trkpt>
<trkpt lat="56.113930" lon="26.420240">
<ele>95.786194</ele>
<time>2010-08-29T15:19:09Z</time>
<desc>lat.=56.113930, lon.=26.420240, Alt.=95.786194m. Speed=15.480000m/h.</desc>
<speed>4.300000</speed>
</trkpt>
<trkpt lat="56.113949" lon="26.420176">
<ele>95.788147</ele>
<time>2010-08-29T15:19:10Z</time>
<desc>lat.=56.113949, lon.=26.420176, Alt.=95.788147m. Speed=14.652000m/h.</desc>
<speed>4.070000</speed>
</trkpt>
<trkpt lat="56.113964" lon="26.420118">
<ele>95.182678</ele>
<time>2010-08-29T15:19:11Z</time>
<desc>lat.=56.113964, lon.=26.420118, Alt.=95.182678m. Speed=15.444000m/h.</desc>
<speed>4.290000</speed>
</trkpt>
<trkpt lat="56.113987" lon="26.420052">
<ele>94.635803</ele>
<time>2010-08-29T15:19:12Z</time>
<desc>lat.=56.113987, lon.=26.420052, Alt.=94.635803m. Speed=15.480000m/h.</desc>
<speed>4.300000</speed>
</trkpt>
<trkpt lat="56.114010" lon="26.419994">
<ele>94.420959</ele>
<time>2010-08-29T15:19:13Z</time>
<desc>lat.=56.114010, lon.=26.419994, Alt.=94.420959m. Speed=15.336000m/h.</desc>
<speed>4.260000</speed>
</trkpt>
<trkpt lat="56.114025" lon="26.419931">
<ele>94.110413</ele>
<time>2010-08-29T15:19:14Z</time>
<desc>lat.=56.114025, lon.=26.419931, Alt.=94.110413m. Speed=15.048000m/h.</desc>
<speed>4.180000</speed>
</trkpt>
<trkpt lat="56.114048" lon="26.419872">
<ele>94.676819</ele>
<time>2010-08-29T15:19:15Z</time>
<desc>lat.=56.114048, lon.=26.419872, Alt.=94.676819m. Speed=15.372000m/h.</desc>
<speed>4.270000</speed>
</trkpt>
<trkpt lat="56.114067" lon="26.419813">
<ele>93.872131</ele>
<time>2010-08-29T15:19:16Z</time>
<desc>lat.=56.114067, lon.=26.419813, Alt.=93.872131m. Speed=15.228000m/h.</desc>
<speed>4.230000</speed>
</trkpt>
<trkpt lat="56.114086" lon="26.419756">
<ele>93.424866</ele>
<time>2010-08-29T15:19:17Z</time>
<desc>lat.=56.114086, lon.=26.419756, Alt.=93.424866m. Speed=16.308001m/h.</desc>
<speed>4.530000</speed>
</trkpt>
<trkpt lat="56.114109" lon="26.419695">
<ele>92.946350</ele>
<time>2010-08-29T15:19:18Z</time>
<desc>lat.=56.114109, lon.=26.419695, Alt.=92.946350m. Speed=16.308001m/h.</desc>
<speed>4.530000</speed>
</trkpt>
<trkpt lat="56.114128" lon="26.419628">
<ele>92.657288</ele>
<time>2010-08-29T15:19:19Z</time>
<desc>lat.=56.114128, lon.=26.419628, Alt.=92.657288m. Speed=16.200001m/h.</desc>
<speed>4.500000</speed>
</trkpt>
<trkpt lat="56.114151" lon="26.419573">
<ele>92.419006</ele>
<time>2010-08-29T15:19:20Z</time>
<desc>lat.=56.114151, lon.=26.419573, Alt.=92.419006m. Speed=15.372000m/h.</desc>
<speed>4.270000</speed>
</trkpt>
<trkpt lat="56.114174" lon="26.419510">
<ele>91.850647</ele>
<time>2010-08-29T15:19:21Z</time>
<desc>lat.=56.114174, lon.=26.419510, Alt.=91.850647m. Speed=16.559999m/h.</desc>
<speed>4.600000</speed>
</trkpt>
<trkpt lat="56.114193" lon="26.419453">
<ele>91.450256</ele>
<time>2010-08-29T15:19:22Z</time>
<desc>lat.=56.114193, lon.=26.419453, Alt.=91.450256m. Speed=16.379999m/h.</desc>
<speed>4.550000</speed>
</trkpt>
<trkpt lat="56.114212" lon="26.419392">
<ele>91.377991</ele>
<time>2010-08-29T15:19:23Z</time>
<desc>lat.=56.114212, lon.=26.419392, Alt.=91.377991m. Speed=17.063999m/h.</desc>
<speed>4.740000</speed>
</trkpt>
<trkpt lat="56.114239" lon="26.419325">
<ele>91.530334</ele>
<time>2010-08-29T15:19:24Z</time>
<desc>lat.=56.114239, lon.=26.419325, Alt.=91.530334m. Speed=17.351999m/h.</desc>
<speed>4.820000</speed>
</trkpt>
<trkpt lat="56.114262" lon="26.419254">
<ele>91.254944</ele>
<time>2010-08-29T15:19:25Z</time>
<desc>lat.=56.114262, lon.=26.419254, Alt.=91.254944m. Speed=17.532000m/h.</desc>
<speed>4.870000</speed>
</trkpt>
<trkpt lat="56.114285" lon="26.419189">
<ele>90.729553</ele>
<time>2010-08-29T15:19:26Z</time>
<desc>lat.=56.114285, lon.=26.419189, Alt.=90.729553m. Speed=17.747999m/h.</desc>
<speed>4.930000</speed>
</trkpt>
<trkpt lat="56.114311" lon="26.419125">
<ele>90.411194</ele>
<time>2010-08-29T15:19:27Z</time>
<desc>lat.=56.114311, lon.=26.419125, Alt.=90.411194m. Speed=18.108000m/h.</desc>
<speed>5.030000</speed>
</trkpt>
<trkpt lat="56.114334" lon="26.419054">
<ele>90.297913</ele>
<time>2010-08-29T15:19:28Z</time>
<desc>lat.=56.114334, lon.=26.419054, Alt.=90.297913m. Speed=18.252001m/h.</desc>
<speed>5.070000</speed>
</trkpt>
<trkpt lat="56.114365" lon="26.418983">
<ele>90.280334</ele>
<time>2010-08-29T15:19:29Z</time>
<desc>lat.=56.114365, lon.=26.418983, Alt.=90.280334m. Speed=18.684000m/h.</desc>
<speed>5.190000</speed>
</trkpt>
<trkpt lat="56.114395" lon="26.418915">
<ele>90.104553</ele>
<time>2010-08-29T15:19:30Z</time>
<desc>lat.=56.114395, lon.=26.418915, Alt.=90.104553m. Speed=19.152000m/h.</desc>
<speed>5.320000</speed>
</trkpt>
<trkpt lat="56.114422" lon="26.418846">
<ele>89.690491</ele>
<time>2010-08-29T15:19:31Z</time>
<desc>lat.=56.114422, lon.=26.418846, Alt.=89.690491m. Speed=19.044001m/h.</desc>
<speed>5.290000</speed>
</trkpt>
<trkpt lat="56.114456" lon="26.418776">
<ele>89.665100</ele>
<time>2010-08-29T15:19:32Z</time>
<desc>lat.=56.114456, lon.=26.418776, Alt.=89.665100m. Speed=18.576000m/h.</desc>
<speed>5.160000</speed>
</trkpt>
<trkpt lat="56.114483" lon="26.418709">
<ele>89.364319</ele>
<time>2010-08-29T15:19:33Z</time>
<desc>lat.=56.114483, lon.=26.418709, Alt.=89.364319m. Speed=18.072001m/h.</desc>
<speed>5.020000</speed>
</trkpt>
<trkpt lat="56.114510" lon="26.418644">
<ele>89.182678</ele>
<time>2010-08-29T15:19:34Z</time>
<desc>lat.=56.114510, lon.=26.418644, Alt.=89.182678m. Speed=17.280001m/h.</desc>
<speed>4.800000</speed>
</trkpt>
<trkpt lat="56.114536" lon="26.418585">
<ele>88.997131</ele>
<time>2010-08-29T15:19:35Z</time>
<desc>lat.=56.114536, lon.=26.418585, Alt.=88.997131m. Speed=17.604000m/h.</desc>
<speed>4.890000</speed>
</trkpt>
<trkpt lat="56.114563" lon="26.418530">
<ele>88.940491</ele>
<time>2010-08-29T15:19:36Z</time>
<desc>lat.=56.114563, lon.=26.418530, Alt.=88.940491m. Speed=17.063999m/h.</desc>
<speed>4.740000</speed>
</trkpt>
<trkpt lat="56.114594" lon="26.418470">
<ele>88.702209</ele>
<time>2010-08-29T15:19:37Z</time>
<desc>lat.=56.114594, lon.=26.418470, Alt.=88.702209m. Speed=18.000000m/h.</desc>
<speed>5.000000</speed>
</trkpt>
<trkpt lat="56.114624" lon="26.418411">
<ele>88.506897</ele>
<time>2010-08-29T15:19:38Z</time>
<desc>lat.=56.114624, lon.=26.418411, Alt.=88.506897m. Speed=17.964001m/h.</desc>
<speed>4.990000</speed>
</trkpt>
<trkpt lat="56.114655" lon="26.418352">
<ele>88.536194</ele>
<time>2010-08-29T15:19:39Z</time>
<desc>lat.=56.114655, lon.=26.418352, Alt.=88.536194m. Speed=18.180000m/h.</desc>
<speed>5.050000</speed>
</trkpt>
<trkpt lat="56.114685" lon="26.418293">
<ele>88.233459</ele>
<time>2010-08-29T15:19:40Z</time>
<desc>lat.=56.114685, lon.=26.418293, Alt.=88.233459m. Speed=17.820000m/h.</desc>
<speed>4.950000</speed>
</trkpt>
<trkpt lat="56.114719" lon="26.418236">
<ele>87.721741</ele>
<time>2010-08-29T15:19:41Z</time>
<desc>lat.=56.114719, lon.=26.418236, Alt.=87.721741m. Speed=18.288000m/h.</desc>
<speed>5.080000</speed>
</trkpt>
<trkpt lat="56.114750" lon="26.418177">
<ele>87.092834</ele>
<time>2010-08-29T15:19:42Z</time>
<desc>lat.=56.114750, lon.=26.418177, Alt.=87.092834m. Speed=18.108000m/h.</desc>
<speed>5.030000</speed>
</trkpt>
<trkpt lat="56.114780" lon="26.418118">
<ele>86.430725</ele>
<time>2010-08-29T15:19:43Z</time>
<desc>lat.=56.114780, lon.=26.418118, Alt.=86.430725m. Speed=19.044001m/h.</desc>
<speed>5.290000</speed>
</trkpt>
<trkpt lat="56.114819" lon="26.418058">
<ele>86.329163</ele>
<time>2010-08-29T15:19:44Z</time>
<desc>lat.=56.114819, lon.=26.418058, Alt.=86.329163m. Speed=19.152000m/h.</desc>
<speed>5.320000</speed>
</trkpt>
<trkpt lat="56.114857" lon="26.417999">
<ele>85.688538</ele>
<time>2010-08-29T15:19:45Z</time>
<desc>lat.=56.114857, lon.=26.417999, Alt.=85.688538m. Speed=20.844000m/h.</desc>
<speed>5.790000</speed>
</trkpt>
<trkpt lat="56.114895" lon="26.417946">
<ele>85.020569</ele>
<time>2010-08-29T15:19:46Z</time>
<desc>lat.=56.114895, lon.=26.417946, Alt.=85.020569m. Speed=21.059999m/h.</desc>
<speed>5.850000</speed>
</trkpt>
<trkpt lat="56.114941" lon="26.417889">
<ele>84.616272</ele>
<time>2010-08-29T15:19:47Z</time>
<desc>lat.=56.114941, lon.=26.417889, Alt.=84.616272m. Speed=21.851999m/h.</desc>
<speed>6.070000</speed>
</trkpt>
<trkpt lat="56.114986" lon="26.417828">
<ele>84.364319</ele>
<time>2010-08-29T15:19:48Z</time>
<desc>lat.=56.114986, lon.=26.417828, Alt.=84.364319m. Speed=22.104000m/h.</desc>
<speed>6.140000</speed>
</trkpt>
<trkpt lat="56.115032" lon="26.417772">
<ele>84.706116</ele>
<time>2010-08-29T15:19:49Z</time>
<desc>lat.=56.115032, lon.=26.417772, Alt.=84.706116m. Speed=20.952000m/h.</desc>
<speed>5.820000</speed>
</trkpt>
<trkpt lat="56.115082" lon="26.417713">
<ele>85.893616</ele>
<time>2010-08-29T15:19:50Z</time>
<desc>lat.=56.115082, lon.=26.417713, Alt.=85.893616m. Speed=20.808001m/h.</desc>
<speed>5.780000</speed>
</trkpt>
<trkpt lat="56.115124" lon="26.417660">
<ele>86.387756</ele>
<time>2010-08-29T15:19:51Z</time>
<desc>lat.=56.115124, lon.=26.417660, Alt.=86.387756m. Speed=18.288000m/h.</desc>
<speed>5.080000</speed>
</trkpt>
<trkpt lat="56.115166" lon="26.417612">
<ele>86.258850</ele>
<time>2010-08-29T15:19:52Z</time>
<desc>lat.=56.115166, lon.=26.417612, Alt.=86.258850m. Speed=17.351999m/h.</desc>
<speed>4.820000</speed>
</trkpt>
<trkpt lat="56.115208" lon="26.417568">
<ele>86.170959</ele>
<time>2010-08-29T15:19:53Z</time>
<desc>lat.=56.115208, lon.=26.417568, Alt.=86.170959m. Speed=17.856001m/h.</desc>
<speed>4.960000</speed>
</trkpt>
<trkpt lat="56.115250" lon="26.417524">
<ele>86.452209</ele>
<time>2010-08-29T15:19:54Z</time>
<desc>lat.=56.115250, lon.=26.417524, Alt.=86.452209m. Speed=15.840000m/h.</desc>
<speed>4.400000</speed>
</trkpt>
<trkpt lat="56.115284" lon="26.417486">
<ele>87.045959</ele>
<time>2010-08-29T15:19:55Z</time>
<desc>lat.=56.115284, lon.=26.417486, Alt.=87.045959m. Speed=15.300000m/h.</desc>
<speed>4.250000</speed>
</trkpt>
<trkpt lat="56.115322" lon="26.417448">
<ele>87.348694</ele>
<time>2010-08-29T15:19:56Z</time>
<desc>lat.=56.115322, lon.=26.417448, Alt.=87.348694m. Speed=16.667999m/h.</desc>
<speed>4.630000</speed>
</trkpt>
<trkpt lat="56.115360" lon="26.417408">
<ele>87.262756</ele>
<time>2010-08-29T15:19:57Z</time>
<desc>lat.=56.115360, lon.=26.417408, Alt.=87.262756m. Speed=17.532000m/h.</desc>
<speed>4.870000</speed>
</trkpt>
<trkpt lat="56.115402" lon="26.417374">
<ele>86.971741</ele>
<time>2010-08-29T15:19:58Z</time>
<desc>lat.=56.115402, lon.=26.417374, Alt.=86.971741m. Speed=16.091999m/h.</desc>
<speed>4.470000</speed>
</trkpt>
<trkpt lat="56.115444" lon="26.417337">
<ele>86.788147</ele>
<time>2010-08-29T15:19:59Z</time>
<desc>lat.=56.115444, lon.=26.417337, Alt.=86.788147m. Speed=18.288000m/h.</desc>
<speed>5.080000</speed>
</trkpt>
<trkpt lat="56.115486" lon="26.417295">
<ele>86.190491</ele>
<time>2010-08-29T15:20:00Z</time>
<desc>lat.=56.115486, lon.=26.417295, Alt.=86.190491m. Speed=18.864000m/h.</desc>
<speed>5.240000</speed>
</trkpt>
<trkpt lat="56.115540" lon="26.417257">
<ele>86.792053</ele>
<time>2010-08-29T15:20:01Z</time>
<desc>lat.=56.115540, lon.=26.417257, Alt.=86.792053m. Speed=20.483999m/h.</desc>
<speed>5.690000</speed>
</trkpt>
<trkpt lat="56.115589" lon="26.417219">
<ele>87.024475</ele>
<time>2010-08-29T15:20:02Z</time>
<desc>lat.=56.115589, lon.=26.417219, Alt.=87.024475m. Speed=20.628000m/h.</desc>
<speed>5.730000</speed>
</trkpt>
<trkpt lat="56.115643" lon="26.417179">
<ele>86.938538</ele>
<time>2010-08-29T15:20:03Z</time>
<desc>lat.=56.115643, lon.=26.417179, Alt.=86.938538m. Speed=21.563999m/h.</desc>
<speed>5.990000</speed>
</trkpt>
<trkpt lat="56.115692" lon="26.417143">
<ele>87.127991</ele>
<time>2010-08-29T15:20:04Z</time>
<desc>lat.=56.115692, lon.=26.417143, Alt.=87.127991m. Speed=21.708000m/h.</desc>
<speed>6.030000</speed>
</trkpt>
<trkpt lat="56.115749" lon="26.417110">
<ele>86.903381</ele>
<time>2010-08-29T15:20:05Z</time>
<desc>lat.=56.115749, lon.=26.417110, Alt.=86.903381m. Speed=24.048000m/h.</desc>
<speed>6.680000</speed>
</trkpt>
<trkpt lat="56.115807" lon="26.417072">
<ele>86.907288</ele>
<time>2010-08-29T15:20:06Z</time>
<desc>lat.=56.115807, lon.=26.417072, Alt.=86.907288m. Speed=22.788000m/h.</desc>
<speed>6.330000</speed>
</trkpt>
<trkpt lat="56.115860" lon="26.417036">
<ele>86.713928</ele>
<time>2010-08-29T15:20:07Z</time>
<desc>lat.=56.115860, lon.=26.417036, Alt.=86.713928m. Speed=24.372000m/h.</desc>
<speed>6.770000</speed>
</trkpt>
<trkpt lat="56.115917" lon="26.416994">
<ele>86.598694</ele>
<time>2010-08-29T15:20:08Z</time>
<desc>lat.=56.115917, lon.=26.416994, Alt.=86.598694m. Speed=23.976000m/h.</desc>
<speed>6.660000</speed>
</trkpt>
<trkpt lat="56.115978" lon="26.416952">
<ele>86.655334</ele>
<time>2010-08-29T15:20:09Z</time>
<desc>lat.=56.115978, lon.=26.416952, Alt.=86.655334m. Speed=24.587999m/h.</desc>
<speed>6.830000</speed>
</trkpt>
<trkpt lat="56.116043" lon="26.416925">
<ele>85.868225</ele>
<time>2010-08-29T15:20:10Z</time>
<desc>lat.=56.116043, lon.=26.416925, Alt.=85.868225m. Speed=24.875999m/h.</desc>
<speed>6.910000</speed>
</trkpt>
<trkpt lat="56.116108" lon="26.416893">
<ele>86.235413</ele>
<time>2010-08-29T15:20:11Z</time>
<desc>lat.=56.116108, lon.=26.416893, Alt.=86.235413m. Speed=23.580000m/h.</desc>
<speed>6.550000</speed>
</trkpt>
<trkpt lat="56.116177" lon="26.416859">
<ele>87.307678</ele>
<time>2010-08-29T15:20:12Z</time>
<desc>lat.=56.116177, lon.=26.416859, Alt.=87.307678m. Speed=23.076000m/h.</desc>
<speed>6.410000</speed>
</trkpt>
<trkpt lat="56.116234" lon="26.416821">
<ele>87.377991</ele>
<time>2010-08-29T15:20:13Z</time>
<desc>lat.=56.116234, lon.=26.416821, Alt.=87.377991m. Speed=22.608000m/h.</desc>
<speed>6.280000</speed>
</trkpt>
<trkpt lat="56.116287" lon="26.416780">
<ele>87.825256</ele>
<time>2010-08-29T15:20:14Z</time>
<desc>lat.=56.116287, lon.=26.416780, Alt.=87.825256m. Speed=22.104000m/h.</desc>
<speed>6.140000</speed>
</trkpt>
<trkpt lat="56.116337" lon="26.416742">
<ele>88.167053</ele>
<time>2010-08-29T15:20:15Z</time>
<desc>lat.=56.116337, lon.=26.416742, Alt.=88.167053m. Speed=19.799999m/h.</desc>
<speed>5.500000</speed>
</trkpt>
<trkpt lat="56.116390" lon="26.416708">
<ele>89.350647</ele>
<time>2010-08-29T15:20:16Z</time>
<desc>lat.=56.116390, lon.=26.416708, Alt.=89.350647m. Speed=19.908001m/h.</desc>
<speed>5.530000</speed>
</trkpt>
<trkpt lat="56.116444" lon="26.416672">
<ele>90.159241</ele>
<time>2010-08-29T15:20:17Z</time>
<desc>lat.=56.116444, lon.=26.416672, Alt.=90.159241m. Speed=20.988001m/h.</desc>
<speed>5.830000</speed>
</trkpt>
<trkpt lat="56.116497" lon="26.416641">
<ele>91.434631</ele>
<time>2010-08-29T15:20:18Z</time>
<desc>lat.=56.116497, lon.=26.416641, Alt.=91.434631m. Speed=19.980000m/h.</desc>
<speed>5.550000</speed>
</trkpt>
<trkpt lat="56.116554" lon="26.416615">
<ele>92.797913</ele>
<time>2010-08-29T15:20:19Z</time>
<desc>lat.=56.116554, lon.=26.416615, Alt.=92.797913m. Speed=20.628000m/h.</desc>
<speed>5.730000</speed>
</trkpt>
<trkpt lat="56.116600" lon="26.416595">
<ele>93.979553</ele>
<time>2010-08-29T15:20:20Z</time>
<desc>lat.=56.116600, lon.=26.416595, Alt.=93.979553m. Speed=19.440001m/h.</desc>
<speed>5.400000</speed>
</trkpt>
<trkpt lat="56.116646" lon="26.416569">
<ele>94.499084</ele>
<time>2010-08-29T15:20:21Z</time>
<desc>lat.=56.116646, lon.=26.416569, Alt.=94.499084m. Speed=19.403999m/h.</desc>
<speed>5.390000</speed>
</trkpt>
<trkpt lat="56.116699" lon="26.416548">
<ele>95.770569</ele>
<time>2010-08-29T15:20:22Z</time>
<desc>lat.=56.116699, lon.=26.416548, Alt.=95.770569m. Speed=18.900000m/h.</desc>
<speed>5.250000</speed>
</trkpt>
<trkpt lat="56.116753" lon="26.416531">
<ele>97.922913</ele>
<time>2010-08-29T15:20:23Z</time>
<desc>lat.=56.116753, lon.=26.416531, Alt.=97.922913m. Speed=20.879999m/h.</desc>
<speed>5.800000</speed>
</trkpt>
<trkpt lat="56.116806" lon="26.416515">
<ele>98.391663</ele>
<time>2010-08-29T15:20:24Z</time>
<desc>lat.=56.116806, lon.=26.416515, Alt.=98.391663m. Speed=21.455999m/h.</desc>
<speed>5.960000</speed>
</trkpt>
<trkpt lat="56.116859" lon="26.416506">
<ele>99.016663</ele>
<time>2010-08-29T15:20:25Z</time>
<desc>lat.=56.116859, lon.=26.416506, Alt.=99.016663m. Speed=21.275999m/h.</desc>
<speed>5.910000</speed>
</trkpt>
<trkpt lat="56.116909" lon="26.416498">
<ele>99.620178</ele>
<time>2010-08-29T15:20:26Z</time>
<desc>lat.=56.116909, lon.=26.416498, Alt.=99.620178m. Speed=21.240000m/h.</desc>
<speed>5.900000</speed>
</trkpt>
<trkpt lat="56.116959" lon="26.416489">
<ele>100.442444</ele>
<time>2010-08-29T15:20:27Z</time>
<desc>lat.=56.116959, lon.=26.416489, Alt.=100.442444m. Speed=21.024000m/h.</desc>
<speed>5.840000</speed>
</trkpt>
<trkpt lat="56.117004" lon="26.416481">
<ele>100.204163</ele>
<time>2010-08-29T15:20:28Z</time>
<desc>lat.=56.117004, lon.=26.416481, Alt.=100.204163m. Speed=19.764000m/h.</desc>
<speed>5.490000</speed>
</trkpt>
<trkpt lat="56.117054" lon="26.416479">
<ele>100.301819</ele>
<time>2010-08-29T15:20:29Z</time>
<desc>lat.=56.117054, lon.=26.416479, Alt.=100.301819m. Speed=19.296000m/h.</desc>
<speed>5.360000</speed>
</trkpt>
<trkpt lat="56.117100" lon="26.416483">
<ele>100.563538</ele>
<time>2010-08-29T15:20:30Z</time>
<desc>lat.=56.117100, lon.=26.416483, Alt.=100.563538m. Speed=20.124001m/h.</desc>
<speed>5.590000</speed>
</trkpt>
<trkpt lat="56.117149" lon="26.416485">
<ele>100.409241</ele>
<time>2010-08-29T15:20:31Z</time>
<desc>lat.=56.117149, lon.=26.416485, Alt.=100.409241m. Speed=18.540001m/h.</desc>
<speed>5.150000</speed>
</trkpt>
<trkpt lat="56.117195" lon="26.416481">
<ele>100.135803</ele>
<time>2010-08-29T15:20:32Z</time>
<desc>lat.=56.117195, lon.=26.416481, Alt.=100.135803m. Speed=18.035999m/h.</desc>
<speed>5.010000</speed>
</trkpt>
<trkpt lat="56.117241" lon="26.416477">
<ele>99.538147</ele>
<time>2010-08-29T15:20:33Z</time>
<desc>lat.=56.117241, lon.=26.416477, Alt.=99.538147m. Speed=18.756001m/h.</desc>
<speed>5.210000</speed>
</trkpt>
<trkpt lat="56.117290" lon="26.416475">
<ele>97.711975</ele>
<time>2010-08-29T15:20:34Z</time>
<desc>lat.=56.117290, lon.=26.416475, Alt.=97.711975m. Speed=17.388000m/h.</desc>
<speed>4.830000</speed>
</trkpt>
<trkpt lat="56.117340" lon="26.416466">
<ele>96.758850</ele>
<time>2010-08-29T15:20:35Z</time>
<desc>lat.=56.117340, lon.=26.416466, Alt.=96.758850m. Speed=17.063999m/h.</desc>
<speed>4.740000</speed>
</trkpt>
<trkpt lat="56.117386" lon="26.416462">
<ele>96.350647</ele>
<time>2010-08-29T15:20:36Z</time>
<desc>lat.=56.117386, lon.=26.416462, Alt.=96.350647m. Speed=17.280001m/h.</desc>
<speed>4.800000</speed>
</trkpt>
<trkpt lat="56.117439" lon="26.416449">
<ele>95.098694</ele>
<time>2010-08-29T15:20:37Z</time>
<desc>lat.=56.117439, lon.=26.416449, Alt.=95.098694m. Speed=17.676001m/h.</desc>
<speed>4.910000</speed>
</trkpt>
<trkpt lat="56.117489" lon="26.416445">
<ele>94.485413</ele>
<time>2010-08-29T15:20:38Z</time>
<desc>lat.=56.117489, lon.=26.416445, Alt.=94.485413m. Speed=17.459999m/h.</desc>
<speed>4.850000</speed>
</trkpt>
<trkpt lat="56.117538" lon="26.416439">
<ele>94.120178</ele>
<time>2010-08-29T15:20:39Z</time>
<desc>lat.=56.117538, lon.=26.416439, Alt.=94.120178m. Speed=18.972000m/h.</desc>
<speed>5.270000</speed>
</trkpt>
<trkpt lat="56.117588" lon="26.416407">
<ele>94.413147</ele>
<time>2010-08-29T15:20:40Z</time>
<desc>lat.=56.117588, lon.=26.416407, Alt.=94.413147m. Speed=18.972000m/h.</desc>
<speed>5.270000</speed>
</trkpt>
<trkpt lat="56.117638" lon="26.416401">
<ele>94.835022</ele>
<time>2010-08-29T15:20:41Z</time>
<desc>lat.=56.117638, lon.=26.416401, Alt.=94.835022m. Speed=21.455999m/h.</desc>
<speed>5.960000</speed>
</trkpt>
<trkpt lat="56.117699" lon="26.416393">
<ele>96.182678</ele>
<time>2010-08-29T15:20:42Z</time>
<desc>lat.=56.117699, lon.=26.416393, Alt.=96.182678m. Speed=21.528000m/h.</desc>
<speed>5.980000</speed>
</trkpt>
<trkpt lat="56.117756" lon="26.416380">
<ele>96.309631</ele>
<time>2010-08-29T15:20:43Z</time>
<desc>lat.=56.117756, lon.=26.416380, Alt.=96.309631m. Speed=22.139999m/h.</desc>
<speed>6.150000</speed>
</trkpt>
<trkpt lat="56.117817" lon="26.416365">
<ele>96.774475</ele>
<time>2010-08-29T15:20:44Z</time>
<desc>lat.=56.117817, lon.=26.416365, Alt.=96.774475m. Speed=23.544001m/h.</desc>
<speed>6.540000</speed>
</trkpt>
<trkpt lat="56.117878" lon="26.416349">
<ele>97.026428</ele>
<time>2010-08-29T15:20:45Z</time>
<desc>lat.=56.117878, lon.=26.416349, Alt.=97.026428m. Speed=22.572001m/h.</desc>
<speed>6.270000</speed>
</trkpt>
<trkpt lat="56.117931" lon="26.416313">
<ele>96.979553</ele>
<time>2010-08-29T15:20:46Z</time>
<desc>lat.=56.117931, lon.=26.416313, Alt.=96.979553m. Speed=21.132000m/h.</desc>
<speed>5.870000</speed>
</trkpt>
<trkpt lat="56.117985" lon="26.416298">
<ele>97.313538</ele>
<time>2010-08-29T15:20:47Z</time>
<desc>lat.=56.117985, lon.=26.416298, Alt.=97.313538m. Speed=20.412001m/h.</desc>
<speed>5.670000</speed>
</trkpt>
<trkpt lat="56.118034" lon="26.416283">
<ele>97.514709</ele>
<time>2010-08-29T15:20:48Z</time>
<desc>lat.=56.118034, lon.=26.416283, Alt.=97.514709m. Speed=21.312000m/h.</desc>
<speed>5.920000</speed>
</trkpt>
<trkpt lat="56.118088" lon="26.416281">
<ele>95.803772</ele>
<time>2010-08-29T15:20:49Z</time>
<desc>lat.=56.118088, lon.=26.416281, Alt.=95.803772m. Speed=20.195999m/h.</desc>
<speed>5.610000</speed>
</trkpt>
<trkpt lat="56.118141" lon="26.416271">
<ele>94.991272</ele>
<time>2010-08-29T15:20:50Z</time>
<desc>lat.=56.118141, lon.=26.416271, Alt.=94.991272m. Speed=18.108000m/h.</desc>
<speed>5.030000</speed>
</trkpt>
<trkpt lat="56.118187" lon="26.416262">
<ele>93.553772</ele>
<time>2010-08-29T15:20:51Z</time>
<desc>lat.=56.118187, lon.=26.416262, Alt.=93.553772m. Speed=17.351999m/h.</desc>
<speed>4.820000</speed>
</trkpt>
<trkpt lat="56.118244" lon="26.416252">
<ele>94.502991</ele>
<time>2010-08-29T15:20:52Z</time>
<desc>lat.=56.118244, lon.=26.416252, Alt.=94.502991m. Speed=18.143999m/h.</desc>
<speed>5.040000</speed>
</trkpt>
<trkpt lat="56.118301" lon="26.416233">
<ele>95.182678</ele>
<time>2010-08-29T15:20:53Z</time>
<desc>lat.=56.118301, lon.=26.416233, Alt.=95.182678m. Speed=19.584000m/h.</desc>
<speed>5.440000</speed>
</trkpt>
<trkpt lat="56.118362" lon="26.416214">
<ele>95.487366</ele>
<time>2010-08-29T15:20:54Z</time>
<desc>lat.=56.118362, lon.=26.416214, Alt.=95.487366m. Speed=21.420000m/h.</desc>
<speed>5.950000</speed>
</trkpt>
<trkpt lat="56.118423" lon="26.416195">
<ele>95.157288</ele>
<time>2010-08-29T15:20:55Z</time>
<desc>lat.=56.118423, lon.=26.416195, Alt.=95.157288m. Speed=21.492001m/h.</desc>
<speed>5.970000</speed>
</trkpt>
<trkpt lat="56.118477" lon="26.416174">
<ele>94.280334</ele>
<time>2010-08-29T15:20:56Z</time>
<desc>lat.=56.118477, lon.=26.416174, Alt.=94.280334m. Speed=21.816000m/h.</desc>
<speed>6.060000</speed>
</trkpt>
<trkpt lat="56.118534" lon="26.416155">
<ele>93.741272</ele>
<time>2010-08-29T15:20:57Z</time>
<desc>lat.=56.118534, lon.=26.416155, Alt.=93.741272m. Speed=21.996000m/h.</desc>
<speed>6.110000</speed>
</trkpt>
<trkpt lat="56.118587" lon="26.416124">
<ele>93.506897</ele>
<time>2010-08-29T15:20:58Z</time>
<desc>lat.=56.118587, lon.=26.416124, Alt.=93.506897m. Speed=21.924000m/h.</desc>
<speed>6.090000</speed>
</trkpt>
<trkpt lat="56.118641" lon="26.416094">
<ele>93.051819</ele>
<time>2010-08-29T15:20:59Z</time>
<desc>lat.=56.118641, lon.=26.416094, Alt.=93.051819m. Speed=21.708000m/h.</desc>
<speed>6.030000</speed>
</trkpt>
<trkpt lat="56.118690" lon="26.416061">
<ele>93.122131</ele>
<time>2010-08-29T15:21:00Z</time>
<desc>lat.=56.118690, lon.=26.416061, Alt.=93.122131m. Speed=21.455999m/h.</desc>
<speed>5.960000</speed>
</trkpt>
<trkpt lat="56.118740" lon="26.416025">
<ele>92.792053</ele>
<time>2010-08-29T15:21:01Z</time>
<desc>lat.=56.118740, lon.=26.416025, Alt.=92.792053m. Speed=20.664000m/h.</desc>
<speed>5.740000</speed>
</trkpt>
<trkpt lat="56.118790" lon="26.415985">
<ele>92.944397</ele>
<time>2010-08-29T15:21:02Z</time>
<desc>lat.=56.118790, lon.=26.415985, Alt.=92.944397m. Speed=19.332001m/h.</desc>
<speed>5.370000</speed>
</trkpt>
<trkpt lat="56.118835" lon="26.415943">
<ele>93.323303</ele>
<time>2010-08-29T15:21:03Z</time>
<desc>lat.=56.118835, lon.=26.415943, Alt.=93.323303m. Speed=17.927999m/h.</desc>
<speed>4.980000</speed>
</trkpt>
<trkpt lat="56.118877" lon="26.415901">
<ele>94.960022</ele>
<time>2010-08-29T15:21:04Z</time>
<desc>lat.=56.118877, lon.=26.415901, Alt.=94.960022m. Speed=18.035999m/h.</desc>
<speed>5.010000</speed>
</trkpt>
<trkpt lat="56.118919" lon="26.415863">
<ele>95.340881</ele>
<time>2010-08-29T15:21:05Z</time>
<desc>lat.=56.118919, lon.=26.415863, Alt.=95.340881m. Speed=17.459999m/h.</desc>
<speed>4.850000</speed>
</trkpt>
<trkpt lat="56.118958" lon="26.415833">
<ele>95.801819</ele>
<time>2010-08-29T15:21:06Z</time>
<desc>lat.=56.118958, lon.=26.415833, Alt.=95.801819m. Speed=16.200001m/h.</desc>
<speed>4.500000</speed>
</trkpt>
<trkpt lat="56.118996" lon="26.415802">
<ele>96.333069</ele>
<time>2010-08-29T15:21:07Z</time>
<desc>lat.=56.118996, lon.=26.415802, Alt.=96.333069m. Speed=15.948000m/h.</desc>
<speed>4.430000</speed>
</trkpt>
<trkpt lat="56.119034" lon="26.415770">
<ele>97.049866</ele>
<time>2010-08-29T15:21:08Z</time>
<desc>lat.=56.119034, lon.=26.415770, Alt.=97.049866m. Speed=17.568001m/h.</desc>
<speed>4.880000</speed>
</trkpt>
<trkpt lat="56.119072" lon="26.415733">
<ele>97.725647</ele>
<time>2010-08-29T15:21:09Z</time>
<desc>lat.=56.119072, lon.=26.415733, Alt.=97.725647m. Speed=16.200001m/h.</desc>
<speed>4.500000</speed>
</trkpt>
<trkpt lat="56.119110" lon="26.415699">
<ele>98.649475</ele>
<time>2010-08-29T15:21:10Z</time>
<desc>lat.=56.119110, lon.=26.415699, Alt.=98.649475m. Speed=16.452000m/h.</desc>
<speed>4.570000</speed>
</trkpt>
<trkpt lat="56.119148" lon="26.415665">
<ele>99.270569</ele>
<time>2010-08-29T15:21:11Z</time>
<desc>lat.=56.119148, lon.=26.415665, Alt.=99.270569m. Speed=16.632000m/h.</desc>
<speed>4.620000</speed>
</trkpt>
<trkpt lat="56.119186" lon="26.415632">
<ele>99.010803</ele>
<time>2010-08-29T15:21:12Z</time>
<desc>lat.=56.119186, lon.=26.415632, Alt.=99.010803m. Speed=16.344000m/h.</desc>
<speed>4.540000</speed>
</trkpt>
<trkpt lat="56.119221" lon="26.415596">
<ele>99.692444</ele>
<time>2010-08-29T15:21:13Z</time>
<desc>lat.=56.119221, lon.=26.415596, Alt.=99.692444m. Speed=17.784000m/h.</desc>
<speed>4.940000</speed>
</trkpt>
<trkpt lat="56.119259" lon="26.415560">
<ele>100.022522</ele>
<time>2010-08-29T15:21:14Z</time>
<desc>lat.=56.119259, lon.=26.415560, Alt.=100.022522m. Speed=16.091999m/h.</desc>
<speed>4.470000</speed>
</trkpt>
<trkpt lat="56.119301" lon="26.415518">
<ele>100.251038</ele>
<time>2010-08-29T15:21:15Z</time>
<desc>lat.=56.119301, lon.=26.415518, Alt.=100.251038m. Speed=18.756001m/h.</desc>
<speed>5.210000</speed>
</trkpt>
<trkpt lat="56.119343" lon="26.415472">
<ele>100.965881</ele>
<time>2010-08-29T15:21:16Z</time>
<desc>lat.=56.119343, lon.=26.415472, Alt.=100.965881m. Speed=19.152000m/h.</desc>
<speed>5.320000</speed>
</trkpt>
<trkpt lat="56.119385" lon="26.415424">
<ele>101.370178</ele>
<time>2010-08-29T15:21:17Z</time>
<desc>lat.=56.119385, lon.=26.415424, Alt.=101.370178m. Speed=19.115999m/h.</desc>
<speed>5.310000</speed>
</trkpt>
<trkpt lat="56.119419" lon="26.415377">
<ele>101.999084</ele>
<time>2010-08-29T15:21:18Z</time>
<desc>lat.=56.119419, lon.=26.415377, Alt.=101.999084m. Speed=19.115999m/h.</desc>
<speed>5.310000</speed>
</trkpt>
<trkpt lat="56.119457" lon="26.415323">
<ele>102.286194</ele>
<time>2010-08-29T15:21:19Z</time>
<desc>lat.=56.119457, lon.=26.415323, Alt.=102.286194m. Speed=19.908001m/h.</desc>
<speed>5.530000</speed>
</trkpt>
<trkpt lat="56.119492" lon="26.415257">
<ele>102.044006</ele>
<time>2010-08-29T15:21:20Z</time>
<desc>lat.=56.119492, lon.=26.415257, Alt.=102.044006m. Speed=20.591999m/h.</desc>
<speed>5.720000</speed>
</trkpt>
<trkpt lat="56.119534" lon="26.415194">
<ele>101.167053</ele>
<time>2010-08-29T15:21:21Z</time>
<desc>lat.=56.119534, lon.=26.415194, Alt.=101.167053m. Speed=20.016001m/h.</desc>
<speed>5.560000</speed>
</trkpt>
<trkpt lat="56.119572" lon="26.415121">
<ele>100.678772</ele>
<time>2010-08-29T15:21:22Z</time>
<desc>lat.=56.119572, lon.=26.415121, Alt.=100.678772m. Speed=19.548000m/h.</desc>
<speed>5.430000</speed>
</trkpt>
<trkpt lat="56.119610" lon="26.415051">
<ele>100.221741</ele>
<time>2010-08-29T15:21:23Z</time>
<desc>lat.=56.119610, lon.=26.415051, Alt.=100.221741m. Speed=18.468000m/h.</desc>
<speed>5.130000</speed>
</trkpt>
<trkpt lat="56.119644" lon="26.414986">
<ele>100.045959</ele>
<time>2010-08-29T15:21:24Z</time>
<desc>lat.=56.119644, lon.=26.414986, Alt.=100.045959m. Speed=17.316000m/h.</desc>
<speed>4.810000</speed>
</trkpt>
<trkpt lat="56.119671" lon="26.414927">
<ele>100.315491</ele>
<time>2010-08-29T15:21:25Z</time>
<desc>lat.=56.119671, lon.=26.414927, Alt.=100.315491m. Speed=15.624000m/h.</desc>
<speed>4.340000</speed>
</trkpt>
<trkpt lat="56.119701" lon="26.414869">
<ele>99.260803</ele>
<time>2010-08-29T15:21:26Z</time>
<desc>lat.=56.119701, lon.=26.414869, Alt.=99.260803m. Speed=15.372000m/h.</desc>
<speed>4.270000</speed>
</trkpt>
<trkpt lat="56.119732" lon="26.414827">
<ele>98.313538</ele>
<time>2010-08-29T15:21:27Z</time>
<desc>lat.=56.119732, lon.=26.414827, Alt.=98.313538m. Speed=13.968000m/h.</desc>
<speed>3.880000</speed>
</trkpt>
<trkpt lat="56.119755" lon="26.414776">
<ele>97.940491</ele>
<time>2010-08-29T15:21:28Z</time>
<desc>lat.=56.119755, lon.=26.414776, Alt.=97.940491m. Speed=13.500000m/h.</desc>
<speed>3.750000</speed>
</trkpt>
<trkpt lat="56.119778" lon="26.414738">
<ele>97.606506</ele>
<time>2010-08-29T15:21:29Z</time>
<desc>lat.=56.119778, lon.=26.414738, Alt.=97.606506m. Speed=13.824000m/h.</desc>
<speed>3.840000</speed>
</trkpt>
<trkpt lat="56.119808" lon="26.414690">
<ele>96.518616</ele>
<time>2010-08-29T15:21:30Z</time>
<desc>lat.=56.119808, lon.=26.414690, Alt.=96.518616m. Speed=15.480000m/h.</desc>
<speed>4.300000</speed>
</trkpt>
<trkpt lat="56.119862" lon="26.414639">
<ele>98.504944</ele>
<time>2010-08-29T15:21:31Z</time>
<desc>lat.=56.119862, lon.=26.414639, Alt.=98.504944m. Speed=19.872000m/h.</desc>
<speed>5.520000</speed>
</trkpt>
<trkpt lat="56.119904" lon="26.414577">
<ele>99.079163</ele>
<time>2010-08-29T15:21:32Z</time>
<desc>lat.=56.119904, lon.=26.414577, Alt.=99.079163m. Speed=17.388000m/h.</desc>
<speed>4.830000</speed>
</trkpt>
<trkpt lat="56.119942" lon="26.414507">
<ele>98.563538</ele>
<time>2010-08-29T15:21:33Z</time>
<desc>lat.=56.119942, lon.=26.414507, Alt.=98.563538m. Speed=17.604000m/h.</desc>
<speed>4.890000</speed>
</trkpt>
<trkpt lat="56.119968" lon="26.414446">
<ele>98.313538</ele>
<time>2010-08-29T15:21:34Z</time>
<desc>lat.=56.119968, lon.=26.414446, Alt.=98.313538m. Speed=18.288000m/h.</desc>
<speed>5.080000</speed>
</trkpt>
<trkpt lat="56.120007" lon="26.414385">
<ele>98.469788</ele>
<time>2010-08-29T15:21:35Z</time>
<desc>lat.=56.120007, lon.=26.414385, Alt.=98.469788m. Speed=19.872000m/h.</desc>
<speed>5.520000</speed>
</trkpt>
<trkpt lat="56.120041" lon="26.414320">
<ele>98.577209</ele>
<time>2010-08-29T15:21:36Z</time>
<desc>lat.=56.120041, lon.=26.414320, Alt.=98.577209m. Speed=21.240000m/h.</desc>
<speed>5.900000</speed>
</trkpt>
<trkpt lat="56.120083" lon="26.414244">
<ele>98.565491</ele>
<time>2010-08-29T15:21:37Z</time>
<desc>lat.=56.120083, lon.=26.414244, Alt.=98.565491m. Speed=21.959999m/h.</desc>
<speed>6.100000</speed>
</trkpt>
<trkpt lat="56.120125" lon="26.414167">
<ele>98.174866</ele>
<time>2010-08-29T15:21:38Z</time>
<desc>lat.=56.120125, lon.=26.414167, Alt.=98.174866m. Speed=21.996000m/h.</desc>
<speed>6.110000</speed>
</trkpt>
<trkpt lat="56.120171" lon="26.414099">
<ele>98.325256</ele>
<time>2010-08-29T15:21:39Z</time>
<desc>lat.=56.120171, lon.=26.414099, Alt.=98.325256m. Speed=21.600000m/h.</desc>
<speed>6.000000</speed>
</trkpt>
<trkpt lat="56.120209" lon="26.414030">
<ele>98.934631</ele>
<time>2010-08-29T15:21:40Z</time>
<desc>lat.=56.120209, lon.=26.414030, Alt.=98.934631m. Speed=19.691999m/h.</desc>
<speed>5.470000</speed>
</trkpt>
<trkpt lat="56.120247" lon="26.413961">
<ele>98.690491</ele>
<time>2010-08-29T15:21:41Z</time>
<desc>lat.=56.120247, lon.=26.413961, Alt.=98.690491m. Speed=20.304001m/h.</desc>
<speed>5.640000</speed>
</trkpt>
<trkpt lat="56.120285" lon="26.413847">
<ele>99.096741</ele>
<time>2010-08-29T15:21:42Z</time>
<desc>lat.=56.120285, lon.=26.413847, Alt.=99.096741m. Speed=21.780001m/h.</desc>
<speed>6.050000</speed>
</trkpt>
<trkpt lat="56.120323" lon="26.413754">
<ele>99.917053</ele>
<time>2010-08-29T15:21:43Z</time>
<desc>lat.=56.120323, lon.=26.413754, Alt.=99.917053m. Speed=21.384001m/h.</desc>
<speed>5.940000</speed>
</trkpt>
<trkpt lat="56.120365" lon="26.413677">
<ele>99.506897</ele>
<time>2010-08-29T15:21:44Z</time>
<desc>lat.=56.120365, lon.=26.413677, Alt.=99.506897m. Speed=21.312000m/h.</desc>
<speed>5.920000</speed>
</trkpt>
<trkpt lat="56.120403" lon="26.413607">
<ele>99.331116</ele>
<time>2010-08-29T15:21:45Z</time>
<desc>lat.=56.120403, lon.=26.413607, Alt.=99.331116m. Speed=20.844000m/h.</desc>
<speed>5.790000</speed>
</trkpt>
<trkpt lat="56.120445" lon="26.413530">
<ele>101.278381</ele>
<time>2010-08-29T15:21:46Z</time>
<desc>lat.=56.120445, lon.=26.413530, Alt.=101.278381m. Speed=20.520000m/h.</desc>
<speed>5.700000</speed>
</trkpt>
<trkpt lat="56.120480" lon="26.413450">
<ele>101.754944</ele>
<time>2010-08-29T15:21:47Z</time>
<desc>lat.=56.120480, lon.=26.413450, Alt.=101.754944m. Speed=19.620001m/h.</desc>
<speed>5.450000</speed>
</trkpt>
<trkpt lat="56.120518" lon="26.413374">
<ele>101.881897</ele>
<time>2010-08-29T15:21:48Z</time>
<desc>lat.=56.120518, lon.=26.413374, Alt.=101.881897m. Speed=20.160000m/h.</desc>
<speed>5.600000</speed>
</trkpt>
<trkpt lat="56.120552" lon="26.413301">
<ele>102.858459</ele>
<time>2010-08-29T15:21:49Z</time>
<desc>lat.=56.120552, lon.=26.413301, Alt.=102.858459m. Speed=21.924000m/h.</desc>
<speed>6.090000</speed>
</trkpt>
<trkpt lat="56.120586" lon="26.413223">
<ele>102.475647</ele>
<time>2010-08-29T15:21:50Z</time>
<desc>lat.=56.120586, lon.=26.413223, Alt.=102.475647m. Speed=21.275999m/h.</desc>
<speed>5.910000</speed>
</trkpt>
<trkpt lat="56.120621" lon="26.413151">
<ele>100.907288</ele>
<time>2010-08-29T15:21:51Z</time>
<desc>lat.=56.120621, lon.=26.413151, Alt.=100.907288m. Speed=22.643999m/h.</desc>
<speed>6.290000</speed>
</trkpt>
<trkpt lat="56.120655" lon="26.413073">
<ele>100.120178</ele>
<time>2010-08-29T15:21:52Z</time>
<desc>lat.=56.120655, lon.=26.413073, Alt.=100.120178m. Speed=23.040001m/h.</desc>
<speed>6.400000</speed>
</trkpt>
<trkpt lat="56.120686" lon="26.412994">
<ele>97.881897</ele>
<time>2010-08-29T15:21:53Z</time>
<desc>lat.=56.120686, lon.=26.412994, Alt.=97.881897m. Speed=23.796000m/h.</desc>
<speed>6.610000</speed>
</trkpt>
<trkpt lat="56.120716" lon="26.412912">
<ele>95.819397</ele>
<time>2010-08-29T15:21:54Z</time>
<desc>lat.=56.120716, lon.=26.412912, Alt.=95.819397m. Speed=24.444000m/h.</desc>
<speed>6.790000</speed>
</trkpt>
<trkpt lat="56.120750" lon="26.412840">
<ele>93.670959</ele>
<time>2010-08-29T15:21:55Z</time>
<desc>lat.=56.120750, lon.=26.412840, Alt.=93.670959m. Speed=25.559999m/h.</desc>
<speed>7.100000</speed>
</trkpt>
<trkpt lat="56.120785" lon="26.412745">
<ele>91.528381</ele>
<time>2010-08-29T15:21:56Z</time>
<desc>lat.=56.120785, lon.=26.412745, Alt.=91.528381m. Speed=25.955999m/h.</desc>
<speed>7.210000</speed>
</trkpt>
<trkpt lat="56.120819" lon="26.412653">
<ele>89.206116</ele>
<time>2010-08-29T15:21:57Z</time>
<desc>lat.=56.120819, lon.=26.412653, Alt.=89.206116m. Speed=25.920000m/h.</desc>
<speed>7.200000</speed>
</trkpt>
<trkpt lat="56.120857" lon="26.412561">
<ele>88.297913</ele>
<time>2010-08-29T15:21:58Z</time>
<desc>lat.=56.120857, lon.=26.412561, Alt.=88.297913m. Speed=26.892000m/h.</desc>
<speed>7.470000</speed>
</trkpt>
<trkpt lat="56.120907" lon="26.412457">
<ele>89.311584</ele>
<time>2010-08-29T15:21:59Z</time>
<desc>lat.=56.120907, lon.=26.412457, Alt.=89.311584m. Speed=27.540001m/h.</desc>
<speed>7.650000</speed>
</trkpt>
<trkpt lat="56.120945" lon="26.412359">
<ele>89.256897</ele>
<time>2010-08-29T15:22:00Z</time>
<desc>lat.=56.120945, lon.=26.412359, Alt.=89.256897m. Speed=26.964001m/h.</desc>
<speed>7.490000</speed>
</trkpt>
<trkpt lat="56.120979" lon="26.412258">
<ele>89.210022</ele>
<time>2010-08-29T15:22:01Z</time>
<desc>lat.=56.120979, lon.=26.412258, Alt.=89.210022m. Speed=27.431999m/h.</desc>
<speed>7.620000</speed>
</trkpt>
<trkpt lat="56.121017" lon="26.412161">
<ele>89.174866</ele>
<time>2010-08-29T15:22:02Z</time>
<desc>lat.=56.121017, lon.=26.412161, Alt.=89.174866m. Speed=25.667999m/h.</desc>
<speed>7.130000</speed>
</trkpt>
<trkpt lat="56.121052" lon="26.412067">
<ele>88.823303</ele>
<time>2010-08-29T15:22:03Z</time>
<desc>lat.=56.121052, lon.=26.412067, Alt.=88.823303m. Speed=24.983999m/h.</desc>
<speed>6.940000</speed>
</trkpt>
<trkpt lat="56.121082" lon="26.411978">
<ele>88.458069</ele>
<time>2010-08-29T15:22:04Z</time>
<desc>lat.=56.121082, lon.=26.411978, Alt.=88.458069m. Speed=23.040001m/h.</desc>
<speed>6.400000</speed>
</trkpt>
<trkpt lat="56.121113" lon="26.411890">
<ele>88.887756</ele>
<time>2010-08-29T15:22:05Z</time>
<desc>lat.=56.121113, lon.=26.411890, Alt.=88.887756m. Speed=21.312000m/h.</desc>
<speed>5.920000</speed>
</trkpt>
<trkpt lat="56.121143" lon="26.411798">
<ele>89.137756</ele>
<time>2010-08-29T15:22:06Z</time>
<desc>lat.=56.121143, lon.=26.411798, Alt.=89.137756m. Speed=22.032000m/h.</desc>
<speed>6.120000</speed>
</trkpt>
<trkpt lat="56.121170" lon="26.411707">
<ele>89.196350</ele>
<time>2010-08-29T15:22:07Z</time>
<desc>lat.=56.121170, lon.=26.411707, Alt.=89.196350m. Speed=23.040001m/h.</desc>
<speed>6.400000</speed>
</trkpt>
<trkpt lat="56.121197" lon="26.411617">
<ele>89.174866</ele>
<time>2010-08-29T15:22:08Z</time>
<desc>lat.=56.121197, lon.=26.411617, Alt.=89.174866m. Speed=22.247999m/h.</desc>
<speed>6.180000</speed>
</trkpt>
<trkpt lat="56.121227" lon="26.411526">
<ele>89.331116</ele>
<time>2010-08-29T15:22:09Z</time>
<desc>lat.=56.121227, lon.=26.411526, Alt.=89.331116m. Speed=22.500000m/h.</desc>
<speed>6.250000</speed>
</trkpt>
<trkpt lat="56.121258" lon="26.411436">
<ele>89.618225</ele>
<time>2010-08-29T15:22:10Z</time>
<desc>lat.=56.121258, lon.=26.411436, Alt.=89.618225m. Speed=22.284000m/h.</desc>
<speed>6.190000</speed>
</trkpt>
<trkpt lat="56.121288" lon="26.411343">
<ele>90.131897</ele>
<time>2010-08-29T15:22:11Z</time>
<desc>lat.=56.121288, lon.=26.411343, Alt.=90.131897m. Speed=20.700001m/h.</desc>
<speed>5.750000</speed>
</trkpt>
<trkpt lat="56.121315" lon="26.411253">
<ele>90.344788</ele>
<time>2010-08-29T15:22:12Z</time>
<desc>lat.=56.121315, lon.=26.411253, Alt.=90.344788m. Speed=20.268000m/h.</desc>
<speed>5.630000</speed>
</trkpt>
<trkpt lat="56.121346" lon="26.411163">
<ele>91.211975</ele>
<time>2010-08-29T15:22:13Z</time>
<desc>lat.=56.121346, lon.=26.411163, Alt.=91.211975m. Speed=19.511999m/h.</desc>
<speed>5.420000</speed>
</trkpt>
<trkpt lat="56.121376" lon="26.411076">
<ele>92.266663</ele>
<time>2010-08-29T15:22:14Z</time>
<desc>lat.=56.121376, lon.=26.411076, Alt.=92.266663m. Speed=19.764000m/h.</desc>
<speed>5.490000</speed>
</trkpt>
<trkpt lat="56.121399" lon="26.410999">
<ele>93.083069</ele>
<time>2010-08-29T15:22:15Z</time>
<desc>lat.=56.121399, lon.=26.410999, Alt.=93.083069m. Speed=18.000000m/h.</desc>
<speed>5.000000</speed>
</trkpt>
<trkpt lat="56.121418" lon="26.410923">
<ele>93.317444</ele>
<time>2010-08-29T15:22:16Z</time>
<desc>lat.=56.121418, lon.=26.410923, Alt.=93.317444m. Speed=16.488001m/h.</desc>
<speed>4.580000</speed>
</trkpt>
<trkpt lat="56.121441" lon="26.410866">
<ele>93.456116</ele>
<time>2010-08-29T15:22:17Z</time>
<desc>lat.=56.121441, lon.=26.410866, Alt.=93.456116m. Speed=15.768000m/h.</desc>
<speed>4.380000</speed>
</trkpt>
<trkpt lat="56.121464" lon="26.410826">
<ele>94.067444</ele>
<time>2010-08-29T15:22:18Z</time>
<desc>lat.=56.121464, lon.=26.410826, Alt.=94.067444m. Speed=15.948000m/h.</desc>
<speed>4.430000</speed>
</trkpt>
<trkpt lat="56.121487" lon="26.410772">
<ele>94.329163</ele>
<time>2010-08-29T15:22:19Z</time>
<desc>lat.=56.121487, lon.=26.410772, Alt.=94.329163m. Speed=16.271999m/h.</desc>
<speed>4.520000</speed>
</trkpt>
<trkpt lat="56.121510" lon="26.410717">
<ele>94.297913</ele>
<time>2010-08-29T15:22:20Z</time>
<desc>lat.=56.121510, lon.=26.410717, Alt.=94.297913m. Speed=15.984000m/h.</desc>
<speed>4.440000</speed>
</trkpt>
<trkpt lat="56.121529" lon="26.410667">
<ele>94.393616</ele>
<time>2010-08-29T15:22:21Z</time>
<desc>lat.=56.121529, lon.=26.410667, Alt.=94.393616m. Speed=14.868000m/h.</desc>
<speed>4.130000</speed>
</trkpt>
<trkpt lat="56.121548" lon="26.410606">
<ele>95.751038</ele>
<time>2010-08-29T15:22:22Z</time>
<desc>lat.=56.121548, lon.=26.410606, Alt.=95.751038m. Speed=15.048000m/h.</desc>
<speed>4.180000</speed>
</trkpt>
<trkpt lat="56.121567" lon="26.410549">
<ele>96.131897</ele>
<time>2010-08-29T15:22:23Z</time>
<desc>lat.=56.121567, lon.=26.410549, Alt.=96.131897m. Speed=15.084000m/h.</desc>
<speed>4.190000</speed>
</trkpt>
<trkpt lat="56.121582" lon="26.410496">
<ele>96.532288</ele>
<time>2010-08-29T15:22:24Z</time>
<desc>lat.=56.121582, lon.=26.410496, Alt.=96.532288m. Speed=14.724000m/h.</desc>
<speed>4.090000</speed>
</trkpt>
<trkpt lat="56.121597" lon="26.410442">
<ele>96.241272</ele>
<time>2010-08-29T15:22:25Z</time>
<desc>lat.=56.121597, lon.=26.410442, Alt.=96.241272m. Speed=14.724000m/h.</desc>
<speed>4.090000</speed>
</trkpt>
<trkpt lat="56.121613" lon="26.410389">
<ele>95.170959</ele>
<time>2010-08-29T15:22:26Z</time>
<desc>lat.=56.121613, lon.=26.410389, Alt.=95.170959m. Speed=14.436000m/h.</desc>
<speed>4.010000</speed>
</trkpt>
<trkpt lat="56.121628" lon="26.410328">
<ele>95.979553</ele>
<time>2010-08-29T15:22:27Z</time>
<desc>lat.=56.121628, lon.=26.410328, Alt.=95.979553m. Speed=14.688000m/h.</desc>
<speed>4.080000</speed>
</trkpt>
<trkpt lat="56.121651" lon="26.410267">
<ele>97.350647</ele>
<time>2010-08-29T15:22:28Z</time>
<desc>lat.=56.121651, lon.=26.410267, Alt.=97.350647m. Speed=16.236000m/h.</desc>
<speed>4.510000</speed>
</trkpt>
<trkpt lat="56.121666" lon="26.410198">
<ele>98.159241</ele>
<time>2010-08-29T15:22:29Z</time>
<desc>lat.=56.121666, lon.=26.410198, Alt.=98.159241m. Speed=16.775999m/h.</desc>
<speed>4.660000</speed>
</trkpt>
<trkpt lat="56.121681" lon="26.410130">
<ele>97.850647</ele>
<time>2010-08-29T15:22:30Z</time>
<desc>lat.=56.121681, lon.=26.410130, Alt.=97.850647m. Speed=16.992001m/h.</desc>
<speed>4.720000</speed>
</trkpt>
<trkpt lat="56.121704" lon="26.410053">
<ele>97.331116</ele>
<time>2010-08-29T15:22:31Z</time>
<desc>lat.=56.121704, lon.=26.410053, Alt.=97.331116m. Speed=19.368000m/h.</desc>
<speed>5.380000</speed>
</trkpt>
<trkpt lat="56.121731" lon="26.409977">
<ele>97.276428</ele>
<time>2010-08-29T15:22:32Z</time>
<desc>lat.=56.121731, lon.=26.409977, Alt.=97.276428m. Speed=19.224001m/h.</desc>
<speed>5.340000</speed>
</trkpt>
<trkpt lat="56.121758" lon="26.409904">
<ele>97.393616</ele>
<time>2010-08-29T15:22:33Z</time>
<desc>lat.=56.121758, lon.=26.409904, Alt.=97.393616m. Speed=19.764000m/h.</desc>
<speed>5.490000</speed>
</trkpt>
<trkpt lat="56.121784" lon="26.409811">
<ele>97.522522</ele>
<time>2010-08-29T15:22:34Z</time>
<desc>lat.=56.121784, lon.=26.409811, Alt.=97.522522m. Speed=22.212000m/h.</desc>
<speed>6.170000</speed>
</trkpt>
<trkpt lat="56.121807" lon="26.409723">
<ele>96.622131</ele>
<time>2010-08-29T15:22:35Z</time>
<desc>lat.=56.121807, lon.=26.409723, Alt.=96.622131m. Speed=21.096001m/h.</desc>
<speed>5.860000</speed>
</trkpt>
<trkpt lat="56.121834" lon="26.409632">
<ele>96.934631</ele>
<time>2010-08-29T15:22:36Z</time>
<desc>lat.=56.121834, lon.=26.409632, Alt.=96.934631m. Speed=21.816000m/h.</desc>
<speed>6.060000</speed>
</trkpt>
<trkpt lat="56.121868" lon="26.409540">
<ele>97.477600</ele>
<time>2010-08-29T15:22:37Z</time>
<desc>lat.=56.121868, lon.=26.409540, Alt.=97.477600m. Speed=21.996000m/h.</desc>
<speed>6.110000</speed>
</trkpt>
<trkpt lat="56.121899" lon="26.409454">
<ele>97.502991</ele>
<time>2010-08-29T15:22:38Z</time>
<desc>lat.=56.121899, lon.=26.409454, Alt.=97.502991m. Speed=20.628000m/h.</desc>
<speed>5.730000</speed>
</trkpt>
<trkpt lat="56.121925" lon="26.409367">
<ele>97.006897</ele>
<time>2010-08-29T15:22:39Z</time>
<desc>lat.=56.121925, lon.=26.409367, Alt.=97.006897m. Speed=19.872000m/h.</desc>
<speed>5.520000</speed>
</trkpt>
<trkpt lat="56.121948" lon="26.409290">
<ele>96.581116</ele>
<time>2010-08-29T15:22:40Z</time>
<desc>lat.=56.121948, lon.=26.409290, Alt.=96.581116m. Speed=19.799999m/h.</desc>
<speed>5.500000</speed>
</trkpt>
<trkpt lat="56.121971" lon="26.409208">
<ele>96.420959</ele>
<time>2010-08-29T15:22:41Z</time>
<desc>lat.=56.121971, lon.=26.409208, Alt.=96.420959m. Speed=20.844000m/h.</desc>
<speed>5.790000</speed>
</trkpt>
<trkpt lat="56.121998" lon="26.409130">
<ele>96.335022</ele>
<time>2010-08-29T15:22:42Z</time>
<desc>lat.=56.121998, lon.=26.409130, Alt.=96.335022m. Speed=20.628000m/h.</desc>
<speed>5.730000</speed>
</trkpt>
<trkpt lat="56.122021" lon="26.409044">
<ele>96.055725</ele>
<time>2010-08-29T15:22:43Z</time>
<desc>lat.=56.122021, lon.=26.409044, Alt.=96.055725m. Speed=20.736000m/h.</desc>
<speed>5.760000</speed>
</trkpt>
<trkpt lat="56.122044" lon="26.408970">
<ele>95.190491</ele>
<time>2010-08-29T15:22:44Z</time>
<desc>lat.=56.122044, lon.=26.408970, Alt.=95.190491m. Speed=20.124001m/h.</desc>
<speed>5.590000</speed>
</trkpt>
<trkpt lat="56.122070" lon="26.408901">
<ele>94.860413</ele>
<time>2010-08-29T15:22:45Z</time>
<desc>lat.=56.122070, lon.=26.408901, Alt.=94.860413m. Speed=19.764000m/h.</desc>
<speed>5.490000</speed>
</trkpt>
<trkpt lat="56.122097" lon="26.408825">
<ele>94.778381</ele>
<time>2010-08-29T15:22:46Z</time>
<desc>lat.=56.122097, lon.=26.408825, Alt.=94.778381m. Speed=21.672001m/h.</desc>
<speed>6.020000</speed>
</trkpt>
<trkpt lat="56.122128" lon="26.408737">
<ele>95.569397</ele>
<time>2010-08-29T15:22:47Z</time>
<desc>lat.=56.122128, lon.=26.408737, Alt.=95.569397m. Speed=22.356001m/h.</desc>
<speed>6.210000</speed>
</trkpt>
<trkpt lat="56.122158" lon="26.408648">
<ele>95.961975</ele>
<time>2010-08-29T15:22:48Z</time>
<desc>lat.=56.122158, lon.=26.408648, Alt.=95.961975m. Speed=21.780001m/h.</desc>
<speed>6.050000</speed>
</trkpt>
<trkpt lat="56.122185" lon="26.408562">
<ele>95.129944</ele>
<time>2010-08-29T15:22:49Z</time>
<desc>lat.=56.122185, lon.=26.408562, Alt.=95.129944m. Speed=21.816000m/h.</desc>
<speed>6.060000</speed>
</trkpt>
<trkpt lat="56.122211" lon="26.408478">
<ele>95.545959</ele>
<time>2010-08-29T15:22:50Z</time>
<desc>lat.=56.122211, lon.=26.408478, Alt.=95.545959m. Speed=21.312000m/h.</desc>
<speed>5.920000</speed>
</trkpt>
<trkpt lat="56.122234" lon="26.408390">
<ele>96.397522</ele>
<time>2010-08-29T15:22:51Z</time>
<desc>lat.=56.122234, lon.=26.408390, Alt.=96.397522m. Speed=20.591999m/h.</desc>
<speed>5.720000</speed>
</trkpt>
<trkpt lat="56.122261" lon="26.408300">
<ele>97.422913</ele>
<time>2010-08-29T15:22:52Z</time>
<desc>lat.=56.122261, lon.=26.408300, Alt.=97.422913m. Speed=20.771999m/h.</desc>
<speed>5.770000</speed>
</trkpt>
<trkpt lat="56.122288" lon="26.408218">
<ele>97.581116</ele>
<time>2010-08-29T15:22:53Z</time>
<desc>lat.=56.122288, lon.=26.408218, Alt.=97.581116m. Speed=20.952000m/h.</desc>
<speed>5.820000</speed>
</trkpt>
<trkpt lat="56.122314" lon="26.408140">
<ele>97.215881</ele>
<time>2010-08-29T15:22:54Z</time>
<desc>lat.=56.122314, lon.=26.408140, Alt.=97.215881m. Speed=20.916000m/h.</desc>
<speed>5.810000</speed>
</trkpt>
<trkpt lat="56.122345" lon="26.408066">
<ele>97.569397</ele>
<time>2010-08-29T15:22:55Z</time>
<desc>lat.=56.122345, lon.=26.408066, Alt.=97.569397m. Speed=22.572001m/h.</desc>
<speed>6.270000</speed>
</trkpt>
<trkpt lat="56.122372" lon="26.407978">
<ele>97.419006</ele>
<time>2010-08-29T15:22:56Z</time>
<desc>lat.=56.122372, lon.=26.407978, Alt.=97.419006m. Speed=22.860001m/h.</desc>
<speed>6.350000</speed>
</trkpt>
<trkpt lat="56.122395" lon="26.407896">
<ele>97.471741</ele>
<time>2010-08-29T15:22:57Z</time>
<desc>lat.=56.122395, lon.=26.407896, Alt.=97.471741m. Speed=21.600000m/h.</desc>
<speed>6.000000</speed>
</trkpt>
<trkpt lat="56.122421" lon="26.407810">
<ele>97.442444</ele>
<time>2010-08-29T15:22:58Z</time>
<desc>lat.=56.122421, lon.=26.407810, Alt.=97.442444m. Speed=20.916000m/h.</desc>
<speed>5.810000</speed>
</trkpt>
<trkpt lat="56.122448" lon="26.407732">
<ele>97.665100</ele>
<time>2010-08-29T15:22:59Z</time>
<desc>lat.=56.122448, lon.=26.407732, Alt.=97.665100m. Speed=21.024000m/h.</desc>
<speed>5.840000</speed>
</trkpt>
<trkpt lat="56.122471" lon="26.407658">
<ele>97.622131</ele>
<time>2010-08-29T15:23:00Z</time>
<desc>lat.=56.122471, lon.=26.407658, Alt.=97.622131m. Speed=20.483999m/h.</desc>
<speed>5.690000</speed>
</trkpt>
<trkpt lat="56.122494" lon="26.407579">
<ele>97.239319</ele>
<time>2010-08-29T15:23:01Z</time>
<desc>lat.=56.122494, lon.=26.407579, Alt.=97.239319m. Speed=19.764000m/h.</desc>
<speed>5.490000</speed>
</trkpt>
<trkpt lat="56.122517" lon="26.407503">
<ele>97.151428</ele>
<time>2010-08-29T15:23:02Z</time>
<desc>lat.=56.122517, lon.=26.407503, Alt.=97.151428m. Speed=20.016001m/h.</desc>
<speed>5.560000</speed>
</trkpt>
<trkpt lat="56.122540" lon="26.407421">
<ele>96.817444</ele>
<time>2010-08-29T15:23:03Z</time>
<desc>lat.=56.122540, lon.=26.407421, Alt.=96.817444m. Speed=20.808001m/h.</desc>
<speed>5.780000</speed>
</trkpt>
<trkpt lat="56.122562" lon="26.407333">
<ele>96.360413</ele>
<time>2010-08-29T15:23:04Z</time>
<desc>lat.=56.122562, lon.=26.407333, Alt.=96.360413m. Speed=22.896000m/h.</desc>
<speed>6.360000</speed>
</trkpt>
<trkpt lat="56.122593" lon="26.407238">
<ele>96.612366</ele>
<time>2010-08-29T15:23:05Z</time>
<desc>lat.=56.122593, lon.=26.407238, Alt.=96.612366m. Speed=21.996000m/h.</desc>
<speed>6.110000</speed>
</trkpt>
<trkpt lat="56.122620" lon="26.407148">
<ele>97.252991</ele>
<time>2010-08-29T15:23:06Z</time>
<desc>lat.=56.122620, lon.=26.407148, Alt.=97.252991m. Speed=21.384001m/h.</desc>
<speed>5.940000</speed>
</trkpt>
<trkpt lat="56.122646" lon="26.407063">
<ele>96.633850</ele>
<time>2010-08-29T15:23:07Z</time>
<desc>lat.=56.122646, lon.=26.407063, Alt.=96.633850m. Speed=20.952000m/h.</desc>
<speed>5.820000</speed>
</trkpt>
<trkpt lat="56.122673" lon="26.406981">
<ele>96.331116</ele>
<time>2010-08-29T15:23:08Z</time>
<desc>lat.=56.122673, lon.=26.406981, Alt.=96.331116m. Speed=20.879999m/h.</desc>
<speed>5.800000</speed>
</trkpt>
<trkpt lat="56.122700" lon="26.406897">
<ele>96.024475</ele>
<time>2010-08-29T15:23:09Z</time>
<desc>lat.=56.122700, lon.=26.406897, Alt.=96.024475m. Speed=20.160000m/h.</desc>
<speed>5.600000</speed>
</trkpt>
<trkpt lat="56.122730" lon="26.406818">
<ele>96.045959</ele>
<time>2010-08-29T15:23:10Z</time>
<desc>lat.=56.122730, lon.=26.406818, Alt.=96.045959m. Speed=19.440001m/h.</desc>
<speed>5.400000</speed>
</trkpt>
<trkpt lat="56.122757" lon="26.406750">
<ele>96.377991</ele>
<time>2010-08-29T15:23:11Z</time>
<desc>lat.=56.122757, lon.=26.406750, Alt.=96.377991m. Speed=20.879999m/h.</desc>
<speed>5.800000</speed>
</trkpt>
<trkpt lat="56.122780" lon="26.406679">
<ele>96.577209</ele>
<time>2010-08-29T15:23:12Z</time>
<desc>lat.=56.122780, lon.=26.406679, Alt.=96.577209m. Speed=20.448000m/h.</desc>
<speed>5.680000</speed>
</trkpt>
<trkpt lat="56.122810" lon="26.406609">
<ele>96.608459</ele>
<time>2010-08-29T15:23:13Z</time>
<desc>lat.=56.122810, lon.=26.406609, Alt.=96.608459m. Speed=20.268000m/h.</desc>
<speed>5.630000</speed>
</trkpt>
<trkpt lat="56.122837" lon="26.406532">
<ele>96.608459</ele>
<time>2010-08-29T15:23:14Z</time>
<desc>lat.=56.122837, lon.=26.406532, Alt.=96.608459m. Speed=20.304001m/h.</desc>
<speed>5.640000</speed>
</trkpt>
<trkpt lat="56.122864" lon="26.406452">
<ele>96.838928</ele>
<time>2010-08-29T15:23:15Z</time>
<desc>lat.=56.122864, lon.=26.406452, Alt.=96.838928m. Speed=21.672001m/h.</desc>
<speed>6.020000</speed>
</trkpt>
<trkpt lat="56.122898" lon="26.406374">
<ele>97.083069</ele>
<time>2010-08-29T15:23:16Z</time>
<desc>lat.=56.122898, lon.=26.406374, Alt.=97.083069m. Speed=21.024000m/h.</desc>
<speed>5.840000</speed>
</trkpt>
<trkpt lat="56.122929" lon="26.406305">
<ele>96.831116</ele>
<time>2010-08-29T15:23:17Z</time>
<desc>lat.=56.122929, lon.=26.406305, Alt.=96.831116m. Speed=21.024000m/h.</desc>
<speed>5.840000</speed>
</trkpt>
<trkpt lat="56.122967" lon="26.406233">
<ele>97.010803</ele>
<time>2010-08-29T15:23:18Z</time>
<desc>lat.=56.122967, lon.=26.406233, Alt.=97.010803m. Speed=22.356001m/h.</desc>
<speed>6.210000</speed>
</trkpt>
<trkpt lat="56.123001" lon="26.406147">
<ele>95.776428</ele>
<time>2010-08-29T15:23:19Z</time>
<desc>lat.=56.123001, lon.=26.406147, Alt.=95.776428m. Speed=24.587999m/h.</desc>
<speed>6.830000</speed>
</trkpt>
<trkpt lat="56.123039" lon="26.406063">
<ele>95.924866</ele>
<time>2010-08-29T15:23:20Z</time>
<desc>lat.=56.123039, lon.=26.406063, Alt.=95.924866m. Speed=22.392000m/h.</desc>
<speed>6.220000</speed>
</trkpt>
<trkpt lat="56.123074" lon="26.405987">
<ele>96.575256</ele>
<time>2010-08-29T15:23:21Z</time>
<desc>lat.=56.123074, lon.=26.405987, Alt.=96.575256m. Speed=21.600000m/h.</desc>
<speed>6.000000</speed>
</trkpt>
<trkpt lat="56.123112" lon="26.405916">
<ele>96.575256</ele>
<time>2010-08-29T15:23:22Z</time>
<desc>lat.=56.123112, lon.=26.405916, Alt.=96.575256m. Speed=21.312000m/h.</desc>
<speed>5.920000</speed>
</trkpt>
<trkpt lat="56.123150" lon="26.405840">
<ele>96.565491</ele>
<time>2010-08-29T15:23:23Z</time>
<desc>lat.=56.123150, lon.=26.405840, Alt.=96.565491m. Speed=20.448000m/h.</desc>
<speed>5.680000</speed>
</trkpt>
<trkpt lat="56.123188" lon="26.405769">
<ele>96.901428</ele>
<time>2010-08-29T15:23:24Z</time>
<desc>lat.=56.123188, lon.=26.405769, Alt.=96.901428m. Speed=19.188000m/h.</desc>
<speed>5.330000</speed>
</trkpt>
<trkpt lat="56.123219" lon="26.405699">
<ele>97.151428</ele>
<time>2010-08-29T15:23:25Z</time>
<desc>lat.=56.123219, lon.=26.405699, Alt.=97.151428m. Speed=19.007999m/h.</desc>
<speed>5.280000</speed>
</trkpt>
<trkpt lat="56.123249" lon="26.405638">
<ele>97.053772</ele>
<time>2010-08-29T15:23:26Z</time>
<desc>lat.=56.123249, lon.=26.405638, Alt.=97.053772m. Speed=17.747999m/h.</desc>
<speed>4.930000</speed>
</trkpt>
<trkpt lat="56.123280" lon="26.405581">
<ele>96.856506</ele>
<time>2010-08-29T15:23:27Z</time>
<desc>lat.=56.123280, lon.=26.405581, Alt.=96.856506m. Speed=16.955999m/h.</desc>
<speed>4.710000</speed>
</trkpt>
<trkpt lat="56.123310" lon="26.405527">
<ele>98.725647</ele>
<time>2010-08-29T15:23:28Z</time>
<desc>lat.=56.123310, lon.=26.405527, Alt.=98.725647m. Speed=16.128000m/h.</desc>
<speed>4.480000</speed>
</trkpt>
<trkpt lat="56.123333" lon="26.405478">
<ele>97.879944</ele>
<time>2010-08-29T15:23:29Z</time>
<desc>lat.=56.123333, lon.=26.405478, Alt.=97.879944m. Speed=15.228000m/h.</desc>
<speed>4.230000</speed>
</trkpt>
<trkpt lat="56.123356" lon="26.405430">
<ele>97.752991</ele>
<time>2010-08-29T15:23:30Z</time>
<desc>lat.=56.123356, lon.=26.405430, Alt.=97.752991m. Speed=14.508000m/h.</desc>
<speed>4.030000</speed>
</trkpt>
<trkpt lat="56.123379" lon="26.405382">
<ele>97.487366</ele>
<time>2010-08-29T15:23:31Z</time>
<desc>lat.=56.123379, lon.=26.405382, Alt.=97.487366m. Speed=14.652000m/h.</desc>
<speed>4.070000</speed>
</trkpt>
<trkpt lat="56.123402" lon="26.405334">
<ele>96.831116</ele>
<time>2010-08-29T15:23:32Z</time>
<desc>lat.=56.123402, lon.=26.405334, Alt.=96.831116m. Speed=13.860000m/h.</desc>
<speed>3.850000</speed>
</trkpt>
<trkpt lat="56.123425" lon="26.405285">
<ele>97.360413</ele>
<time>2010-08-29T15:23:33Z</time>
<desc>lat.=56.123425, lon.=26.405285, Alt.=97.360413m. Speed=12.960000m/h.</desc>
<speed>3.600000</speed>
</trkpt>
<trkpt lat="56.123451" lon="26.405241">
<ele>98.182678</ele>
<time>2010-08-29T15:23:34Z</time>
<desc>lat.=56.123451, lon.=26.405241, Alt.=98.182678m. Speed=15.156000m/h.</desc>
<speed>4.210000</speed>
</trkpt>
<trkpt lat="56.123482" lon="26.405197">
<ele>97.321350</ele>
<time>2010-08-29T15:23:35Z</time>
<desc>lat.=56.123482, lon.=26.405197, Alt.=97.321350m. Speed=17.316000m/h.</desc>
<speed>4.810000</speed>
</trkpt>
<trkpt lat="56.123516" lon="26.405153">
<ele>96.405334</ele>
<time>2010-08-29T15:23:36Z</time>
<desc>lat.=56.123516, lon.=26.405153, Alt.=96.405334m. Speed=18.180000m/h.</desc>
<speed>5.050000</speed>
</trkpt>
<trkpt lat="56.123550" lon="26.405098">
<ele>96.239319</ele>
<time>2010-08-29T15:23:37Z</time>
<desc>lat.=56.123550, lon.=26.405098, Alt.=96.239319m. Speed=18.576000m/h.</desc>
<speed>5.160000</speed>
</trkpt>
<trkpt lat="56.123585" lon="26.405043">
<ele>94.983459</ele>
<time>2010-08-29T15:23:38Z</time>
<desc>lat.=56.123585, lon.=26.405043, Alt.=94.983459m. Speed=19.908001m/h.</desc>
<speed>5.530000</speed>
</trkpt>
<trkpt lat="56.123623" lon="26.404985">
<ele>94.127991</ele>
<time>2010-08-29T15:23:39Z</time>
<desc>lat.=56.123623, lon.=26.404985, Alt.=94.127991m. Speed=20.952000m/h.</desc>
<speed>5.820000</speed>
</trkpt>
<trkpt lat="56.123665" lon="26.404936">
<ele>92.397522</ele>
<time>2010-08-29T15:23:40Z</time>
<desc>lat.=56.123665, lon.=26.404936, Alt.=92.397522m. Speed=21.348000m/h.</desc>
<speed>5.930000</speed>
</trkpt>
<trkpt lat="56.123703" lon="26.404877">
<ele>91.096741</ele>
<time>2010-08-29T15:23:41Z</time>
<desc>lat.=56.123703, lon.=26.404877, Alt.=91.096741m. Speed=21.924000m/h.</desc>
<speed>6.090000</speed>
</trkpt>
<trkpt lat="56.123745" lon="26.404816">
<ele>90.266663</ele>
<time>2010-08-29T15:23:42Z</time>
<desc>lat.=56.123745, lon.=26.404816, Alt.=90.266663m. Speed=22.104000m/h.</desc>
<speed>6.140000</speed>
</trkpt>
<trkpt lat="56.123787" lon="26.404743">
<ele>89.430725</ele>
<time>2010-08-29T15:23:43Z</time>
<desc>lat.=56.123787, lon.=26.404743, Alt.=89.430725m. Speed=22.716000m/h.</desc>
<speed>6.310000</speed>
</trkpt>
<trkpt lat="56.123833" lon="26.404673">
<ele>89.276428</ele>
<time>2010-08-29T15:23:44Z</time>
<desc>lat.=56.123833, lon.=26.404673, Alt.=89.276428m. Speed=22.680000m/h.</desc>
<speed>6.300000</speed>
</trkpt>
<trkpt lat="56.123878" lon="26.404604">
<ele>89.124084</ele>
<time>2010-08-29T15:23:45Z</time>
<desc>lat.=56.123878, lon.=26.404604, Alt.=89.124084m. Speed=22.896000m/h.</desc>
<speed>6.360000</speed>
</trkpt>
<trkpt lat="56.123928" lon="26.404533">
<ele>89.532288</ele>
<time>2010-08-29T15:23:46Z</time>
<desc>lat.=56.123928, lon.=26.404533, Alt.=89.532288m. Speed=23.507999m/h.</desc>
<speed>6.530000</speed>
</trkpt>
<trkpt lat="56.123974" lon="26.404469">
<ele>88.813538</ele>
<time>2010-08-29T15:23:47Z</time>
<desc>lat.=56.123974, lon.=26.404469, Alt.=88.813538m. Speed=23.903999m/h.</desc>
<speed>6.640000</speed>
</trkpt>
<trkpt lat="56.124020" lon="26.404400">
<ele>88.676819</ele>
<time>2010-08-29T15:23:48Z</time>
<desc>lat.=56.124020, lon.=26.404400, Alt.=88.676819m. Speed=24.516001m/h.</desc>
<speed>6.810000</speed>
</trkpt>
<trkpt lat="56.124069" lon="26.404325">
<ele>88.950256</ele>
<time>2010-08-29T15:23:49Z</time>
<desc>lat.=56.124069, lon.=26.404325, Alt.=88.950256m. Speed=24.264000m/h.</desc>
<speed>6.740000</speed>
</trkpt>
<trkpt lat="56.124119" lon="26.404249">
<ele>89.919006</ele>
<time>2010-08-29T15:23:50Z</time>
<desc>lat.=56.124119, lon.=26.404249, Alt.=89.919006m. Speed=23.832001m/h.</desc>
<speed>6.620000</speed>
</trkpt>
<trkpt lat="56.124168" lon="26.404179">
<ele>91.153381</ele>
<time>2010-08-29T15:23:51Z</time>
<desc>lat.=56.124168, lon.=26.404179, Alt.=91.153381m. Speed=22.716000m/h.</desc>
<speed>6.310000</speed>
</trkpt>
<trkpt lat="56.124210" lon="26.404110">
<ele>91.520569</ele>
<time>2010-08-29T15:23:52Z</time>
<desc>lat.=56.124210, lon.=26.404110, Alt.=91.520569m. Speed=21.024000m/h.</desc>
<speed>5.840000</speed>
</trkpt>
<trkpt lat="56.124252" lon="26.404047">
<ele>91.770569</ele>
<time>2010-08-29T15:23:53Z</time>
<desc>lat.=56.124252, lon.=26.404047, Alt.=91.770569m. Speed=19.584000m/h.</desc>
<speed>5.440000</speed>
</trkpt>
<trkpt lat="56.124287" lon="26.403986">
<ele>92.723694</ele>
<time>2010-08-29T15:23:54Z</time>
<desc>lat.=56.124287, lon.=26.403986, Alt.=92.723694m. Speed=18.108000m/h.</desc>
<speed>5.030000</speed>
</trkpt>
<trkpt lat="56.124321" lon="26.403933">
<ele>92.983459</ele>
<time>2010-08-29T15:23:55Z</time>
<desc>lat.=56.124321, lon.=26.403933, Alt.=92.983459m. Speed=17.136000m/h.</desc>
<speed>4.760000</speed>
</trkpt>
<trkpt lat="56.124348" lon="26.403881">
<ele>93.489319</ele>
<time>2010-08-29T15:23:56Z</time>
<desc>lat.=56.124348, lon.=26.403881, Alt.=93.489319m. Speed=15.228000m/h.</desc>
<speed>4.230000</speed>
</trkpt>
<trkpt lat="56.124378" lon="26.403830">
<ele>94.018616</ele>
<time>2010-08-29T15:23:57Z</time>
<desc>lat.=56.124378, lon.=26.403830, Alt.=94.018616m. Speed=13.680000m/h.</desc>
<speed>3.800000</speed>
</trkpt>
<trkpt lat="56.124401" lon="26.403786">
<ele>94.038147</ele>
<time>2010-08-29T15:23:58Z</time>
<desc>lat.=56.124401, lon.=26.403786, Alt.=94.038147m. Speed=12.996000m/h.</desc>
<speed>3.610000</speed>
</trkpt>
<trkpt lat="56.124424" lon="26.403748">
<ele>94.786194</ele>
<time>2010-08-29T15:23:59Z</time>
<desc>lat.=56.124424, lon.=26.403748, Alt.=94.786194m. Speed=11.988000m/h.</desc>
<speed>3.330000</speed>
</trkpt>
<trkpt lat="56.124443" lon="26.403709">
<ele>93.645569</ele>
<time>2010-08-29T15:24:00Z</time>
<desc>lat.=56.124443, lon.=26.403709, Alt.=93.645569m. Speed=10.800000m/h.</desc>
<speed>3.000000</speed>
</trkpt>
<trkpt lat="56.124458" lon="26.403681">
<ele>93.202209</ele>
<time>2010-08-29T15:24:01Z</time>
<desc>lat.=56.124458, lon.=26.403681, Alt.=93.202209m. Speed=9.648000m/h.</desc>
<speed>2.680000</speed>
</trkpt>
<trkpt lat="56.124477" lon="26.403648">
<ele>93.276428</ele>
<time>2010-08-29T15:24:02Z</time>
<desc>lat.=56.124477, lon.=26.403648, Alt.=93.276428m. Speed=10.368000m/h.</desc>
<speed>2.880000</speed>
</trkpt>
<trkpt lat="56.124493" lon="26.403616">
<ele>92.467834</ele>
<time>2010-08-29T15:24:03Z</time>
<desc>lat.=56.124493, lon.=26.403616, Alt.=92.467834m. Speed=10.944000m/h.</desc>
<speed>3.040000</speed>
</trkpt>
<trkpt lat="56.124516" lon="26.403587">
<ele>92.444397</ele>
<time>2010-08-29T15:24:04Z</time>
<desc>lat.=56.124516, lon.=26.403587, Alt.=92.444397m. Speed=11.988000m/h.</desc>
<speed>3.330000</speed>
</trkpt>
<trkpt lat="56.124535" lon="26.403551">
<ele>92.206116</ele>
<time>2010-08-29T15:24:05Z</time>
<desc>lat.=56.124535, lon.=26.403551, Alt.=92.206116m. Speed=11.592000m/h.</desc>
<speed>3.220000</speed>
</trkpt>
<trkpt lat="56.124554" lon="26.403507">
<ele>92.532288</ele>
<time>2010-08-29T15:24:06Z</time>
<desc>lat.=56.124554, lon.=26.403507, Alt.=92.532288m. Speed=12.348000m/h.</desc>
<speed>3.430000</speed>
</trkpt>
<trkpt lat="56.124569" lon="26.403469">
<ele>92.229553</ele>
<time>2010-08-29T15:24:07Z</time>
<desc>lat.=56.124569, lon.=26.403469, Alt.=92.229553m. Speed=10.584000m/h.</desc>
<speed>2.940000</speed>
</trkpt>
<trkpt lat="56.124584" lon="26.403433">
<ele>90.919006</ele>
<time>2010-08-29T15:24:08Z</time>
<desc>lat.=56.124584, lon.=26.403433, Alt.=90.919006m. Speed=10.260000m/h.</desc>
<speed>2.850000</speed>
</trkpt>
<trkpt lat="56.124603" lon="26.403412">
<ele>90.590881</ele>
<time>2010-08-29T15:24:09Z</time>
<desc>lat.=56.124603, lon.=26.403412, Alt.=90.590881m. Speed=10.080000m/h.</desc>
<speed>2.800000</speed>
</trkpt>
<trkpt lat="56.124626" lon="26.403400">
<ele>93.229553</ele>
<time>2010-08-29T15:24:10Z</time>
<desc>lat.=56.124626, lon.=26.403400, Alt.=93.229553m. Speed=9.288000m/h.</desc>
<speed>2.580000</speed>
</trkpt>
<trkpt lat="56.124638" lon="26.403379">
<ele>94.497131</ele>
<time>2010-08-29T15:24:11Z</time>
<desc>lat.=56.124638, lon.=26.403379, Alt.=94.497131m. Speed=7.848000m/h.</desc>
<speed>2.180000</speed>
</trkpt>
<trkpt lat="56.124649" lon="26.403343">
<ele>94.901428</ele>
<time>2010-08-29T15:24:12Z</time>
<desc>lat.=56.124649, lon.=26.403343, Alt.=94.901428m. Speed=7.812000m/h.</desc>
<speed>2.170000</speed>
</trkpt>
<trkpt lat="56.124660" lon="26.403313">
<ele>94.932678</ele>
<time>2010-08-29T15:24:13Z</time>
<desc>lat.=56.124660, lon.=26.403313, Alt.=94.932678m. Speed=6.696000m/h.</desc>
<speed>1.860000</speed>
</trkpt>
<trkpt lat="56.124668" lon="26.403296">
<ele>96.135803</ele>
<time>2010-08-29T15:24:14Z</time>
<desc>lat.=56.124668, lon.=26.403296, Alt.=96.135803m. Speed=6.552000m/h.</desc>
<speed>1.820000</speed>
</trkpt>
<trkpt lat="56.124680" lon="26.403282">
<ele>97.022522</ele>
<time>2010-08-29T15:24:15Z</time>
<desc>lat.=56.124680, lon.=26.403282, Alt.=97.022522m. Speed=8.136000m/h.</desc>
<speed>2.260000</speed>
</trkpt>
<trkpt lat="56.124699" lon="26.403254">
<ele>96.551819</ele>
<time>2010-08-29T15:24:16Z</time>
<desc>lat.=56.124699, lon.=26.403254, Alt.=96.551819m. Speed=9.108000m/h.</desc>
<speed>2.530000</speed>
</trkpt>
<trkpt lat="56.124714" lon="26.403223">
<ele>97.260803</ele>
<time>2010-08-29T15:24:17Z</time>
<desc>lat.=56.124714, lon.=26.403223, Alt.=97.260803m. Speed=8.028000m/h.</desc>
<speed>2.230000</speed>
</trkpt>
<trkpt lat="56.124737" lon="26.403196">
<ele>98.340881</ele>
<time>2010-08-29T15:24:18Z</time>
<desc>lat.=56.124737, lon.=26.403196, Alt.=98.340881m. Speed=10.944000m/h.</desc>
<speed>3.040000</speed>
</trkpt>
<trkpt lat="56.124756" lon="26.403166">
<ele>98.979553</ele>
<time>2010-08-29T15:24:19Z</time>
<desc>lat.=56.124756, lon.=26.403166, Alt.=98.979553m. Speed=9.180000m/h.</desc>
<speed>2.550000</speed>
</trkpt>
<trkpt lat="56.124779" lon="26.403120">
<ele>99.163147</ele>
<time>2010-08-29T15:24:20Z</time>
<desc>lat.=56.124779, lon.=26.403120, Alt.=99.163147m. Speed=11.484000m/h.</desc>
<speed>3.190000</speed>
</trkpt>
<trkpt lat="56.124798" lon="26.403074">
<ele>99.227600</ele>
<time>2010-08-29T15:24:21Z</time>
<desc>lat.=56.124798, lon.=26.403074, Alt.=99.227600m. Speed=11.664000m/h.</desc>
<speed>3.240000</speed>
</trkpt>
<trkpt lat="56.124825" lon="26.403036">
<ele>100.135803</ele>
<time>2010-08-29T15:24:22Z</time>
<desc>lat.=56.124825, lon.=26.403036, Alt.=100.135803m. Speed=12.492000m/h.</desc>
<speed>3.470000</speed>
</trkpt>
<trkpt lat="56.124844" lon="26.403000">
<ele>99.983459</ele>
<time>2010-08-29T15:24:23Z</time>
<desc>lat.=56.124844, lon.=26.403000, Alt.=99.983459m. Speed=10.152000m/h.</desc>
<speed>2.820000</speed>
</trkpt>
<trkpt lat="56.124863" lon="26.402967">
<ele>100.706116</ele>
<time>2010-08-29T15:24:24Z</time>
<desc>lat.=56.124863, lon.=26.402967, Alt.=100.706116m. Speed=10.008000m/h.</desc>
<speed>2.780000</speed>
</trkpt>
<trkpt lat="56.124882" lon="26.402935">
<ele>98.975647</ele>
<time>2010-08-29T15:24:25Z</time>
<desc>lat.=56.124882, lon.=26.402935, Alt.=98.975647m. Speed=12.096000m/h.</desc>
<speed>3.360000</speed>
</trkpt>
<trkpt lat="56.124905" lon="26.402899">
<ele>98.805725</ele>
<time>2010-08-29T15:24:26Z</time>
<desc>lat.=56.124905, lon.=26.402899, Alt.=98.805725m. Speed=12.312000m/h.</desc>
<speed>3.420000</speed>
</trkpt>
<trkpt lat="56.124931" lon="26.402855">
<ele>100.071350</ele>
<time>2010-08-29T15:24:27Z</time>
<desc>lat.=56.124931, lon.=26.402855, Alt.=100.071350m. Speed=13.284000m/h.</desc>
<speed>3.690000</speed>
</trkpt>
<trkpt lat="56.124958" lon="26.402809">
<ele>100.153381</ele>
<time>2010-08-29T15:24:28Z</time>
<desc>lat.=56.124958, lon.=26.402809, Alt.=100.153381m. Speed=14.256000m/h.</desc>
<speed>3.960000</speed>
</trkpt>
<trkpt lat="56.124985" lon="26.402775">
<ele>101.876038</ele>
<time>2010-08-29T15:24:29Z</time>
<desc>lat.=56.124985, lon.=26.402775, Alt.=101.876038m. Speed=14.040000m/h.</desc>
<speed>3.900000</speed>
</trkpt>
<trkpt lat="56.125008" lon="26.402723">
<ele>103.088928</ele>
<time>2010-08-29T15:24:30Z</time>
<desc>lat.=56.125008, lon.=26.402723, Alt.=103.088928m. Speed=15.480000m/h.</desc>
<speed>4.300000</speed>
</trkpt>
<trkpt lat="56.125034" lon="26.402676">
<ele>104.032288</ele>
<time>2010-08-29T15:24:31Z</time>
<desc>lat.=56.125034, lon.=26.402676, Alt.=104.032288m. Speed=14.760000m/h.</desc>
<speed>4.100000</speed>
</trkpt>
<trkpt lat="56.125057" lon="26.402624">
<ele>104.383850</ele>
<time>2010-08-29T15:24:32Z</time>
<desc>lat.=56.125057, lon.=26.402624, Alt.=104.383850m. Speed=15.444000m/h.</desc>
<speed>4.290000</speed>
</trkpt>
<trkpt lat="56.125084" lon="26.402561">
<ele>105.088928</ele>
<time>2010-08-29T15:24:33Z</time>
<desc>lat.=56.125084, lon.=26.402561, Alt.=105.088928m. Speed=15.660000m/h.</desc>
<speed>4.350000</speed>
</trkpt>
<trkpt lat="56.125111" lon="26.402496">
<ele>105.838928</ele>
<time>2010-08-29T15:24:34Z</time>
<desc>lat.=56.125111, lon.=26.402496, Alt.=105.838928m. Speed=16.308001m/h.</desc>
<speed>4.530000</speed>
</trkpt>
<trkpt lat="56.125134" lon="26.402431">
<ele>105.555725</ele>
<time>2010-08-29T15:24:35Z</time>
<desc>lat.=56.125134, lon.=26.402431, Alt.=105.555725m. Speed=17.712000m/h.</desc>
<speed>4.920000</speed>
</trkpt>
<trkpt lat="56.125160" lon="26.402357">
<ele>106.008850</ele>
<time>2010-08-29T15:24:36Z</time>
<desc>lat.=56.125160, lon.=26.402357, Alt.=106.008850m. Speed=17.496000m/h.</desc>
<speed>4.860000</speed>
</trkpt>
<trkpt lat="56.125187" lon="26.402283">
<ele>106.059631</ele>
<time>2010-08-29T15:24:37Z</time>
<desc>lat.=56.125187, lon.=26.402283, Alt.=106.059631m. Speed=16.848000m/h.</desc>
<speed>4.680000</speed>
</trkpt>
<trkpt lat="56.125206" lon="26.402227">
<ele>106.208069</ele>
<time>2010-08-29T15:24:38Z</time>
<desc>lat.=56.125206, lon.=26.402227, Alt.=106.208069m. Speed=15.948000m/h.</desc>
<speed>4.430000</speed>
</trkpt>
<trkpt lat="56.125229" lon="26.402163">
<ele>106.690491</ele>
<time>2010-08-29T15:24:39Z</time>
<desc>lat.=56.125229, lon.=26.402163, Alt.=106.690491m. Speed=15.732000m/h.</desc>
<speed>4.370000</speed>
</trkpt>
<trkpt lat="56.125252" lon="26.402109">
<ele>107.409241</ele>
<time>2010-08-29T15:24:40Z</time>
<desc>lat.=56.125252, lon.=26.402109, Alt.=107.409241m. Speed=15.300000m/h.</desc>
<speed>4.250000</speed>
</trkpt>
<trkpt lat="56.125278" lon="26.402054">
<ele>107.915100</ele>
<time>2010-08-29T15:24:41Z</time>
<desc>lat.=56.125278, lon.=26.402054, Alt.=107.915100m. Speed=14.976000m/h.</desc>
<speed>4.160000</speed>
</trkpt>
<trkpt lat="56.125301" lon="26.401997">
<ele>106.698303</ele>
<time>2010-08-29T15:24:42Z</time>
<desc>lat.=56.125301, lon.=26.401997, Alt.=106.698303m. Speed=15.840000m/h.</desc>
<speed>4.400000</speed>
</trkpt>
<trkpt lat="56.125324" lon="26.401934">
<ele>106.540100</ele>
<time>2010-08-29T15:24:43Z</time>
<desc>lat.=56.125324, lon.=26.401934, Alt.=106.540100m. Speed=16.020000m/h.</desc>
<speed>4.450000</speed>
</trkpt>
<trkpt lat="56.125343" lon="26.401876">
<ele>106.881897</ele>
<time>2010-08-29T15:24:44Z</time>
<desc>lat.=56.125343, lon.=26.401876, Alt.=106.881897m. Speed=15.732000m/h.</desc>
<speed>4.370000</speed>
</trkpt>
<trkpt lat="56.125362" lon="26.401817">
<ele>107.809631</ele>
<time>2010-08-29T15:24:45Z</time>
<desc>lat.=56.125362, lon.=26.401817, Alt.=107.809631m. Speed=17.063999m/h.</desc>
<speed>4.740000</speed>
</trkpt>
<trkpt lat="56.125381" lon="26.401747">
<ele>108.200256</ele>
<time>2010-08-29T15:24:46Z</time>
<desc>lat.=56.125381, lon.=26.401747, Alt.=108.200256m. Speed=17.747999m/h.</desc>
<speed>4.930000</speed>
</trkpt>
<trkpt lat="56.125401" lon="26.401680">
<ele>107.063538</ele>
<time>2010-08-29T15:24:47Z</time>
<desc>lat.=56.125401, lon.=26.401680, Alt.=107.063538m. Speed=19.152000m/h.</desc>
<speed>5.320000</speed>
</trkpt>
<trkpt lat="56.125427" lon="26.401617">
<ele>106.971741</ele>
<time>2010-08-29T15:24:48Z</time>
<desc>lat.=56.125427, lon.=26.401617, Alt.=106.971741m. Speed=17.856001m/h.</desc>
<speed>4.960000</speed>
</trkpt>
<trkpt lat="56.125458" lon="26.401546">
<ele>107.049866</ele>
<time>2010-08-29T15:24:49Z</time>
<desc>lat.=56.125458, lon.=26.401546, Alt.=107.049866m. Speed=17.964001m/h.</desc>
<speed>4.990000</speed>
</trkpt>
<trkpt lat="56.125481" lon="26.401476">
<ele>107.458069</ele>
<time>2010-08-29T15:24:50Z</time>
<desc>lat.=56.125481, lon.=26.401476, Alt.=107.458069m. Speed=17.459999m/h.</desc>
<speed>4.850000</speed>
</trkpt>
<trkpt lat="56.125507" lon="26.401407">
<ele>107.713928</ele>
<time>2010-08-29T15:24:51Z</time>
<desc>lat.=56.125507, lon.=26.401407, Alt.=107.713928m. Speed=16.524000m/h.</desc>
<speed>4.590000</speed>
</trkpt>
<trkpt lat="56.125530" lon="26.401346">
<ele>107.305725</ele>
<time>2010-08-29T15:24:52Z</time>
<desc>lat.=56.125530, lon.=26.401346, Alt.=107.305725m. Speed=15.624000m/h.</desc>
<speed>4.340000</speed>
</trkpt>
<trkpt lat="56.125549" lon="26.401287">
<ele>106.981506</ele>
<time>2010-08-29T15:24:53Z</time>
<desc>lat.=56.125549, lon.=26.401287, Alt.=106.981506m. Speed=14.796000m/h.</desc>
<speed>4.110000</speed>
</trkpt>
<trkpt lat="56.125565" lon="26.401234">
<ele>106.024475</ele>
<time>2010-08-29T15:24:54Z</time>
<desc>lat.=56.125565, lon.=26.401234, Alt.=106.024475m. Speed=14.292000m/h.</desc>
<speed>3.970000</speed>
</trkpt>
<trkpt lat="56.125580" lon="26.401182">
<ele>105.790100</ele>
<time>2010-08-29T15:24:55Z</time>
<desc>lat.=56.125580, lon.=26.401182, Alt.=105.790100m. Speed=13.320000m/h.</desc>
<speed>3.700000</speed>
</trkpt>
<trkpt lat="56.125599" lon="26.401121">
<ele>106.305725</ele>
<time>2010-08-29T15:24:56Z</time>
<desc>lat.=56.125599, lon.=26.401121, Alt.=106.305725m. Speed=13.536000m/h.</desc>
<speed>3.760000</speed>
</trkpt>
<trkpt lat="56.125614" lon="26.401064">
<ele>105.514709</ele>
<time>2010-08-29T15:24:57Z</time>
<desc>lat.=56.125614, lon.=26.401064, Alt.=105.514709m. Speed=14.292000m/h.</desc>
<speed>3.970000</speed>
</trkpt>
<trkpt lat="56.125626" lon="26.401014">
<ele>104.088928</ele>
<time>2010-08-29T15:24:58Z</time>
<desc>lat.=56.125626, lon.=26.401014, Alt.=104.088928m. Speed=13.176000m/h.</desc>
<speed>3.660000</speed>
</trkpt>
<trkpt lat="56.125641" lon="26.400963">
<ele>103.799866</ele>
<time>2010-08-29T15:24:59Z</time>
<desc>lat.=56.125641, lon.=26.400963, Alt.=103.799866m. Speed=14.040000m/h.</desc>
<speed>3.900000</speed>
</trkpt>
<trkpt lat="56.125656" lon="26.400908">
<ele>104.178772</ele>
<time>2010-08-29T15:25:00Z</time>
<desc>lat.=56.125656, lon.=26.400908, Alt.=104.178772m. Speed=14.472000m/h.</desc>
<speed>4.020000</speed>
</trkpt>
<trkpt lat="56.125671" lon="26.400856">
<ele>104.682678</ele>
<time>2010-08-29T15:25:01Z</time>
<desc>lat.=56.125671, lon.=26.400856, Alt.=104.682678m. Speed=14.652000m/h.</desc>
<speed>4.070000</speed>
</trkpt>
<trkpt lat="56.125687" lon="26.400801">
<ele>104.610413</ele>
<time>2010-08-29T15:25:02Z</time>
<desc>lat.=56.125687, lon.=26.400801, Alt.=104.610413m. Speed=15.516000m/h.</desc>
<speed>4.310000</speed>
</trkpt>
<trkpt lat="56.125706" lon="26.400743">
<ele>104.854553</ele>
<time>2010-08-29T15:25:03Z</time>
<desc>lat.=56.125706, lon.=26.400743, Alt.=104.854553m. Speed=15.516000m/h.</desc>
<speed>4.310000</speed>
</trkpt>
<trkpt lat="56.125721" lon="26.400682">
<ele>105.424866</ele>
<time>2010-08-29T15:25:04Z</time>
<desc>lat.=56.125721, lon.=26.400682, Alt.=105.424866m. Speed=15.228000m/h.</desc>
<speed>4.230000</speed>
</trkpt>
<trkpt lat="56.125732" lon="26.400623">
<ele>105.344788</ele>
<time>2010-08-29T15:25:05Z</time>
<desc>lat.=56.125732, lon.=26.400623, Alt.=105.344788m. Speed=15.984000m/h.</desc>
<speed>4.440000</speed>
</trkpt>
<trkpt lat="56.125744" lon="26.400558">
<ele>104.799866</ele>
<time>2010-08-29T15:25:06Z</time>
<desc>lat.=56.125744, lon.=26.400558, Alt.=104.799866m. Speed=16.308001m/h.</desc>
<speed>4.530000</speed>
</trkpt>
<trkpt lat="56.125759" lon="26.400490">
<ele>104.571350</ele>
<time>2010-08-29T15:25:07Z</time>
<desc>lat.=56.125759, lon.=26.400490, Alt.=104.571350m. Speed=16.812000m/h.</desc>
<speed>4.670000</speed>
</trkpt>
<trkpt lat="56.125771" lon="26.400414">
<ele>104.321350</ele>
<time>2010-08-29T15:25:08Z</time>
<desc>lat.=56.125771, lon.=26.400414, Alt.=104.321350m. Speed=17.459999m/h.</desc>
<speed>4.850000</speed>
</trkpt>
<trkpt lat="56.125786" lon="26.400331">
<ele>103.958069</ele>
<time>2010-08-29T15:25:09Z</time>
<desc>lat.=56.125786, lon.=26.400331, Alt.=103.958069m. Speed=17.388000m/h.</desc>
<speed>4.830000</speed>
</trkpt>
<trkpt lat="56.125797" lon="26.400257">
<ele>104.178772</ele>
<time>2010-08-29T15:25:10Z</time>
<desc>lat.=56.125797, lon.=26.400257, Alt.=104.178772m. Speed=16.884001m/h.</desc>
<speed>4.690000</speed>
</trkpt>
<trkpt lat="56.125809" lon="26.400181">
<ele>103.721741</ele>
<time>2010-08-29T15:25:11Z</time>
<desc>lat.=56.125809, lon.=26.400181, Alt.=103.721741m. Speed=16.379999m/h.</desc>
<speed>4.550000</speed>
</trkpt>
<trkpt lat="56.125820" lon="26.400101">
<ele>103.227600</ele>
<time>2010-08-29T15:25:12Z</time>
<desc>lat.=56.125820, lon.=26.400101, Alt.=103.227600m. Speed=16.920000m/h.</desc>
<speed>4.700000</speed>
</trkpt>
<trkpt lat="56.125835" lon="26.400026">
<ele>102.985413</ele>
<time>2010-08-29T15:25:13Z</time>
<desc>lat.=56.125835, lon.=26.400026, Alt.=102.985413m. Speed=16.200001m/h.</desc>
<speed>4.500000</speed>
</trkpt>
<trkpt lat="56.125847" lon="26.399956">
<ele>102.438538</ele>
<time>2010-08-29T15:25:14Z</time>
<desc>lat.=56.125847, lon.=26.399956, Alt.=102.438538m. Speed=16.848000m/h.</desc>
<speed>4.680000</speed>
</trkpt>
<trkpt lat="56.125858" lon="26.399881">
<ele>102.057678</ele>
<time>2010-08-29T15:25:15Z</time>
<desc>lat.=56.125858, lon.=26.399881, Alt.=102.057678m. Speed=17.459999m/h.</desc>
<speed>4.850000</speed>
</trkpt>
<trkpt lat="56.125866" lon="26.399799">
<ele>102.122131</ele>
<time>2010-08-29T15:25:16Z</time>
<desc>lat.=56.125866, lon.=26.399799, Alt.=102.122131m. Speed=18.936001m/h.</desc>
<speed>5.260000</speed>
</trkpt>
<trkpt lat="56.125874" lon="26.399712">
<ele>101.190491</ele>
<time>2010-08-29T15:25:17Z</time>
<desc>lat.=56.125874, lon.=26.399712, Alt.=101.190491m. Speed=20.448000m/h.</desc>
<speed>5.680000</speed>
</trkpt>
<trkpt lat="56.125885" lon="26.399614">
<ele>101.024475</ele>
<time>2010-08-29T15:25:18Z</time>
<desc>lat.=56.125885, lon.=26.399614, Alt.=101.024475m. Speed=22.823999m/h.</desc>
<speed>6.340000</speed>
</trkpt>
<trkpt lat="56.125893" lon="26.399511">
<ele>100.626038</ele>
<time>2010-08-29T15:25:19Z</time>
<desc>lat.=56.125893, lon.=26.399511, Alt.=100.626038m. Speed=21.959999m/h.</desc>
<speed>6.100000</speed>
</trkpt>
<trkpt lat="56.125896" lon="26.399416">
<ele>100.629944</ele>
<time>2010-08-29T15:25:20Z</time>
<desc>lat.=56.125896, lon.=26.399416, Alt.=100.629944m. Speed=21.816000m/h.</desc>
<speed>6.060000</speed>
</trkpt>
<trkpt lat="56.125900" lon="26.399317">
<ele>100.065491</ele>
<time>2010-08-29T15:25:21Z</time>
<desc>lat.=56.125900, lon.=26.399317, Alt.=100.065491m. Speed=21.924000m/h.</desc>
<speed>6.090000</speed>
</trkpt>
<trkpt lat="56.125908" lon="26.399223">
<ele>99.733459</ele>
<time>2010-08-29T15:25:22Z</time>
<desc>lat.=56.125908, lon.=26.399223, Alt.=99.733459m. Speed=21.636000m/h.</desc>
<speed>6.010000</speed>
</trkpt>
<trkpt lat="56.125916" lon="26.399128">
<ele>99.493225</ele>
<time>2010-08-29T15:25:23Z</time>
<desc>lat.=56.125916, lon.=26.399128, Alt.=99.493225m. Speed=21.492001m/h.</desc>
<speed>5.970000</speed>
</trkpt>
<trkpt lat="56.125919" lon="26.399033">
<ele>99.262756</ele>
<time>2010-08-29T15:25:24Z</time>
<desc>lat.=56.125919, lon.=26.399033, Alt.=99.262756m. Speed=20.771999m/h.</desc>
<speed>5.770000</speed>
</trkpt>
<trkpt lat="56.125927" lon="26.398941">
<ele>99.188538</ele>
<time>2010-08-29T15:25:25Z</time>
<desc>lat.=56.125927, lon.=26.398941, Alt.=99.188538m. Speed=20.268000m/h.</desc>
<speed>5.630000</speed>
</trkpt>
<trkpt lat="56.125927" lon="26.398849">
<ele>99.092834</ele>
<time>2010-08-29T15:25:26Z</time>
<desc>lat.=56.125927, lon.=26.398849, Alt.=99.092834m. Speed=19.368000m/h.</desc>
<speed>5.380000</speed>
</trkpt>
<trkpt lat="56.125935" lon="26.398766">
<ele>99.096741</ele>
<time>2010-08-29T15:25:27Z</time>
<desc>lat.=56.125935, lon.=26.398766, Alt.=99.096741m. Speed=18.972000m/h.</desc>
<speed>5.270000</speed>
</trkpt>
<trkpt lat="56.125946" lon="26.398674">
<ele>98.936584</ele>
<time>2010-08-29T15:25:28Z</time>
<desc>lat.=56.125946, lon.=26.398674, Alt.=98.936584m. Speed=19.836000m/h.</desc>
<speed>5.510000</speed>
</trkpt>
<trkpt lat="56.125954" lon="26.398579">
<ele>98.626038</ele>
<time>2010-08-29T15:25:29Z</time>
<desc>lat.=56.125954, lon.=26.398579, Alt.=98.626038m. Speed=19.691999m/h.</desc>
<speed>5.470000</speed>
</trkpt>
<trkpt lat="56.125957" lon="26.398497">
<ele>98.260803</ele>
<time>2010-08-29T15:25:30Z</time>
<desc>lat.=56.125957, lon.=26.398497, Alt.=98.260803m. Speed=19.691999m/h.</desc>
<speed>5.470000</speed>
</trkpt>
<trkpt lat="56.125961" lon="26.398415">
<ele>98.118225</ele>
<time>2010-08-29T15:25:31Z</time>
<desc>lat.=56.125961, lon.=26.398415, Alt.=98.118225m. Speed=19.188000m/h.</desc>
<speed>5.330000</speed>
</trkpt>
<trkpt lat="56.125961" lon="26.398331">
<ele>97.862366</ele>
<time>2010-08-29T15:25:32Z</time>
<desc>lat.=56.125961, lon.=26.398331, Alt.=97.862366m. Speed=18.719999m/h.</desc>
<speed>5.200000</speed>
</trkpt>
<trkpt lat="56.125965" lon="26.398251">
<ele>98.100647</ele>
<time>2010-08-29T15:25:33Z</time>
<desc>lat.=56.125965, lon.=26.398251, Alt.=98.100647m. Speed=18.072001m/h.</desc>
<speed>5.020000</speed>
</trkpt>
<trkpt lat="56.125969" lon="26.398172">
<ele>98.202209</ele>
<time>2010-08-29T15:25:34Z</time>
<desc>lat.=56.125969, lon.=26.398172, Alt.=98.202209m. Speed=18.180000m/h.</desc>
<speed>5.050000</speed>
</trkpt>
<trkpt lat="56.125973" lon="26.398092">
<ele>98.016663</ele>
<time>2010-08-29T15:25:35Z</time>
<desc>lat.=56.125973, lon.=26.398092, Alt.=98.016663m. Speed=18.468000m/h.</desc>
<speed>5.130000</speed>
</trkpt>
<trkpt lat="56.125980" lon="26.398010">
<ele>98.051819</ele>
<time>2010-08-29T15:25:36Z</time>
<desc>lat.=56.125980, lon.=26.398010, Alt.=98.051819m. Speed=18.612000m/h.</desc>
<speed>5.170000</speed>
</trkpt>
<trkpt lat="56.125984" lon="26.397928">
<ele>97.547913</ele>
<time>2010-08-29T15:25:37Z</time>
<desc>lat.=56.125984, lon.=26.397928, Alt.=97.547913m. Speed=19.728001m/h.</desc>
<speed>5.480000</speed>
</trkpt>
<trkpt lat="56.125992" lon="26.397840">
<ele>96.938538</ele>
<time>2010-08-29T15:25:38Z</time>
<desc>lat.=56.125992, lon.=26.397840, Alt.=96.938538m. Speed=19.980000m/h.</desc>
<speed>5.550000</speed>
</trkpt>
<trkpt lat="56.125996" lon="26.397749">
<ele>96.502991</ele>
<time>2010-08-29T15:25:39Z</time>
<desc>lat.=56.125996, lon.=26.397749, Alt.=96.502991m. Speed=19.944000m/h.</desc>
<speed>5.540000</speed>
</trkpt>
<trkpt lat="56.125999" lon="26.397659">
<ele>96.133850</ele>
<time>2010-08-29T15:25:40Z</time>
<desc>lat.=56.125999, lon.=26.397659, Alt.=96.133850m. Speed=20.412001m/h.</desc>
<speed>5.670000</speed>
</trkpt>
<trkpt lat="56.126003" lon="26.397564">
<ele>96.249084</ele>
<time>2010-08-29T15:25:41Z</time>
<desc>lat.=56.126003, lon.=26.397564, Alt.=96.249084m. Speed=18.936001m/h.</desc>
<speed>5.260000</speed>
</trkpt>
<trkpt lat="56.126011" lon="26.397484">
<ele>96.538147</ele>
<time>2010-08-29T15:25:42Z</time>
<desc>lat.=56.126011, lon.=26.397484, Alt.=96.538147m. Speed=18.072001m/h.</desc>
<speed>5.020000</speed>
</trkpt>
<trkpt lat="56.126019" lon="26.397408">
<ele>96.102600</ele>
<time>2010-08-29T15:25:43Z</time>
<desc>lat.=56.126019, lon.=26.397408, Alt.=96.102600m. Speed=16.308001m/h.</desc>
<speed>4.530000</speed>
</trkpt>
<trkpt lat="56.126022" lon="26.397341">
<ele>95.174866</ele>
<time>2010-08-29T15:25:44Z</time>
<desc>lat.=56.126022, lon.=26.397341, Alt.=95.174866m. Speed=15.516000m/h.</desc>
<speed>4.310000</speed>
</trkpt>
<trkpt lat="56.126026" lon="26.397272">
<ele>95.112366</ele>
<time>2010-08-29T15:25:45Z</time>
<desc>lat.=56.126026, lon.=26.397272, Alt.=95.112366m. Speed=15.732000m/h.</desc>
<speed>4.370000</speed>
</trkpt>
<trkpt lat="56.126030" lon="26.397198">
<ele>94.911194</ele>
<time>2010-08-29T15:25:46Z</time>
<desc>lat.=56.126030, lon.=26.397198, Alt.=94.911194m. Speed=16.596001m/h.</desc>
<speed>4.610000</speed>
</trkpt>
<trkpt lat="56.126038" lon="26.397133">
<ele>95.202209</ele>
<time>2010-08-29T15:25:47Z</time>
<desc>lat.=56.126038, lon.=26.397133, Alt.=95.202209m. Speed=15.336000m/h.</desc>
<speed>4.260000</speed>
</trkpt>
<trkpt lat="56.126045" lon="26.397070">
<ele>93.420959</ele>
<time>2010-08-29T15:25:48Z</time>
<desc>lat.=56.126045, lon.=26.397070, Alt.=93.420959m. Speed=14.148000m/h.</desc>
<speed>3.930000</speed>
</trkpt>
<trkpt lat="56.126053" lon="26.397009">
<ele>93.254944</ele>
<time>2010-08-29T15:25:49Z</time>
<desc>lat.=56.126053, lon.=26.397009, Alt.=93.254944m. Speed=15.588000m/h.</desc>
<speed>4.330000</speed>
</trkpt>
<trkpt lat="56.126064" lon="26.396944">
<ele>92.881897</ele>
<time>2010-08-29T15:25:50Z</time>
<desc>lat.=56.126064, lon.=26.396944, Alt.=92.881897m. Speed=15.768000m/h.</desc>
<speed>4.380000</speed>
</trkpt>
<trkpt lat="56.126080" lon="26.396870">
<ele>93.567444</ele>
<time>2010-08-29T15:25:51Z</time>
<desc>lat.=56.126080, lon.=26.396870, Alt.=93.567444m. Speed=14.904000m/h.</desc>
<speed>4.140000</speed>
</trkpt>
<trkpt lat="56.126095" lon="26.396811">
<ele>93.983459</ele>
<time>2010-08-29T15:25:52Z</time>
<desc>lat.=56.126095, lon.=26.396811, Alt.=93.983459m. Speed=14.184000m/h.</desc>
<speed>3.940000</speed>
</trkpt>
<trkpt lat="56.126106" lon="26.396748">
<ele>93.891663</ele>
<time>2010-08-29T15:25:53Z</time>
<desc>lat.=56.126106, lon.=26.396748, Alt.=93.891663m. Speed=13.752000m/h.</desc>
<speed>3.820000</speed>
</trkpt>
<trkpt lat="56.126118" lon="26.396690">
<ele>94.495178</ele>
<time>2010-08-29T15:25:54Z</time>
<desc>lat.=56.126118, lon.=26.396690, Alt.=94.495178m. Speed=13.932000m/h.</desc>
<speed>3.870000</speed>
</trkpt>
<trkpt lat="56.126129" lon="26.396635">
<ele>94.729553</ele>
<time>2010-08-29T15:25:55Z</time>
<desc>lat.=56.126129, lon.=26.396635, Alt.=94.729553m. Speed=13.176000m/h.</desc>
<speed>3.660000</speed>
</trkpt>
<trkpt lat="56.126144" lon="26.396574">
<ele>95.352600</ele>
<time>2010-08-29T15:25:56Z</time>
<desc>lat.=56.126144, lon.=26.396574, Alt.=95.352600m. Speed=14.796000m/h.</desc>
<speed>4.110000</speed>
</trkpt>
<trkpt lat="56.126160" lon="26.396503">
<ele>95.596741</ele>
<time>2010-08-29T15:25:57Z</time>
<desc>lat.=56.126160, lon.=26.396503, Alt.=95.596741m. Speed=17.172001m/h.</desc>
<speed>4.770000</speed>
</trkpt>
<trkpt lat="56.126179" lon="26.396441">
<ele>95.991272</ele>
<time>2010-08-29T15:25:58Z</time>
<desc>lat.=56.126179, lon.=26.396441, Alt.=95.991272m. Speed=17.496000m/h.</desc>
<speed>4.860000</speed>
</trkpt>
<trkpt lat="56.126198" lon="26.396372">
<ele>96.118225</ele>
<time>2010-08-29T15:25:59Z</time>
<desc>lat.=56.126198, lon.=26.396372, Alt.=96.118225m. Speed=17.784000m/h.</desc>
<speed>4.940000</speed>
</trkpt>
<trkpt lat="56.126221" lon="26.396307">
<ele>96.751038</ele>
<time>2010-08-29T15:26:00Z</time>
<desc>lat.=56.126221, lon.=26.396307, Alt.=96.751038m. Speed=19.152000m/h.</desc>
<speed>5.320000</speed>
</trkpt>
<trkpt lat="56.126240" lon="26.396227">
<ele>96.700256</ele>
<time>2010-08-29T15:26:01Z</time>
<desc>lat.=56.126240, lon.=26.396227, Alt.=96.700256m. Speed=19.764000m/h.</desc>
<speed>5.490000</speed>
</trkpt>
<trkpt lat="56.126263" lon="26.396137">
<ele>97.086975</ele>
<time>2010-08-29T15:26:02Z</time>
<desc>lat.=56.126263, lon.=26.396137, Alt.=97.086975m. Speed=21.743999m/h.</desc>
<speed>6.040000</speed>
</trkpt>
<trkpt lat="56.126286" lon="26.396051">
<ele>96.272522</ele>
<time>2010-08-29T15:26:03Z</time>
<desc>lat.=56.126286, lon.=26.396051, Alt.=96.272522m. Speed=21.492001m/h.</desc>
<speed>5.970000</speed>
</trkpt>
<trkpt lat="56.126312" lon="26.395962">
<ele>96.432678</ele>
<time>2010-08-29T15:26:04Z</time>
<desc>lat.=56.126312, lon.=26.395962, Alt.=96.432678m. Speed=20.808001m/h.</desc>
<speed>5.780000</speed>
</trkpt>
<trkpt lat="56.126339" lon="26.395889">
<ele>97.092834</ele>
<time>2010-08-29T15:26:05Z</time>
<desc>lat.=56.126339, lon.=26.395889, Alt.=97.092834m. Speed=19.872000m/h.</desc>
<speed>5.520000</speed>
</trkpt>
<trkpt lat="56.126362" lon="26.395807">
<ele>97.442444</ele>
<time>2010-08-29T15:26:06Z</time>
<desc>lat.=56.126362, lon.=26.395807, Alt.=97.442444m. Speed=19.332001m/h.</desc>
<speed>5.370000</speed>
</trkpt>
<trkpt lat="56.126389" lon="26.395739">
<ele>98.174866</ele>
<time>2010-08-29T15:26:07Z</time>
<desc>lat.=56.126389, lon.=26.395739, Alt.=98.174866m. Speed=18.323999m/h.</desc>
<speed>5.090000</speed>
</trkpt>
<trkpt lat="56.126411" lon="26.395674">
<ele>98.825256</ele>
<time>2010-08-29T15:26:08Z</time>
<desc>lat.=56.126411, lon.=26.395674, Alt.=98.825256m. Speed=17.280001m/h.</desc>
<speed>4.800000</speed>
</trkpt>
<trkpt lat="56.126431" lon="26.395599">
<ele>98.481506</ele>
<time>2010-08-29T15:26:09Z</time>
<desc>lat.=56.126431, lon.=26.395599, Alt.=98.481506m. Speed=17.388000m/h.</desc>
<speed>4.830000</speed>
</trkpt>
<trkpt lat="56.126450" lon="26.395533">
<ele>97.852600</ele>
<time>2010-08-29T15:26:10Z</time>
<desc>lat.=56.126450, lon.=26.395533, Alt.=97.852600m. Speed=18.180000m/h.</desc>
<speed>5.050000</speed>
</trkpt>
<trkpt lat="56.126469" lon="26.395458">
<ele>97.637756</ele>
<time>2010-08-29T15:26:11Z</time>
<desc>lat.=56.126469, lon.=26.395458, Alt.=97.637756m. Speed=17.459999m/h.</desc>
<speed>4.850000</speed>
</trkpt>
<trkpt lat="56.126492" lon="26.395388">
<ele>97.676819</ele>
<time>2010-08-29T15:26:12Z</time>
<desc>lat.=56.126492, lon.=26.395388, Alt.=97.676819m. Speed=17.747999m/h.</desc>
<speed>4.930000</speed>
</trkpt>
<trkpt lat="56.126514" lon="26.395323">
<ele>98.233459</ele>
<time>2010-08-29T15:26:13Z</time>
<desc>lat.=56.126514, lon.=26.395323, Alt.=98.233459m. Speed=17.136000m/h.</desc>
<speed>4.760000</speed>
</trkpt>
<trkpt lat="56.126534" lon="26.395254">
<ele>97.981506</ele>
<time>2010-08-29T15:26:14Z</time>
<desc>lat.=56.126534, lon.=26.395254, Alt.=97.981506m. Speed=17.424000m/h.</desc>
<speed>4.840000</speed>
</trkpt>
<trkpt lat="56.126560" lon="26.395187">
<ele>97.829163</ele>
<time>2010-08-29T15:26:15Z</time>
<desc>lat.=56.126560, lon.=26.395187, Alt.=97.829163m. Speed=17.424000m/h.</desc>
<speed>4.840000</speed>
</trkpt>
<trkpt lat="56.126587" lon="26.395128">
<ele>98.637756</ele>
<time>2010-08-29T15:26:16Z</time>
<desc>lat.=56.126587, lon.=26.395128, Alt.=98.637756m. Speed=17.532000m/h.</desc>
<speed>4.870000</speed>
</trkpt>
<trkpt lat="56.126610" lon="26.395054">
<ele>98.377991</ele>
<time>2010-08-29T15:26:17Z</time>
<desc>lat.=56.126610, lon.=26.395054, Alt.=98.377991m. Speed=18.396000m/h.</desc>
<speed>5.110000</speed>
</trkpt>
<trkpt lat="56.126633" lon="26.394981">
<ele>98.690491</ele>
<time>2010-08-29T15:26:18Z</time>
<desc>lat.=56.126633, lon.=26.394981, Alt.=98.690491m. Speed=19.368000m/h.</desc>
<speed>5.380000</speed>
</trkpt>
<trkpt lat="56.126659" lon="26.394905">
<ele>99.165100</ele>
<time>2010-08-29T15:26:19Z</time>
<desc>lat.=56.126659, lon.=26.394905, Alt.=99.165100m. Speed=19.944000m/h.</desc>
<speed>5.540000</speed>
</trkpt>
<trkpt lat="56.126690" lon="26.394829">
<ele>99.307678</ele>
<time>2010-08-29T15:26:20Z</time>
<desc>lat.=56.126690, lon.=26.394829, Alt.=99.307678m. Speed=20.412001m/h.</desc>
<speed>5.670000</speed>
</trkpt>
<trkpt lat="56.126720" lon="26.394754">
<ele>100.071350</ele>
<time>2010-08-29T15:26:21Z</time>
<desc>lat.=56.126720, lon.=26.394754, Alt.=100.071350m. Speed=21.059999m/h.</desc>
<speed>5.850000</speed>
</trkpt>
<trkpt lat="56.126755" lon="26.394672">
<ele>100.702209</ele>
<time>2010-08-29T15:26:22Z</time>
<desc>lat.=56.126755, lon.=26.394672, Alt.=100.702209m. Speed=21.563999m/h.</desc>
<speed>5.990000</speed>
</trkpt>
<trkpt lat="56.126789" lon="26.394590">
<ele>100.674866</ele>
<time>2010-08-29T15:26:23Z</time>
<desc>lat.=56.126789, lon.=26.394590, Alt.=100.674866m. Speed=21.816000m/h.</desc>
<speed>6.060000</speed>
</trkpt>
<trkpt lat="56.126823" lon="26.394505">
<ele>101.211975</ele>
<time>2010-08-29T15:26:24Z</time>
<desc>lat.=56.126823, lon.=26.394505, Alt.=101.211975m. Speed=20.988001m/h.</desc>
<speed>5.830000</speed>
</trkpt>
<trkpt lat="56.126858" lon="26.394426">
<ele>102.016663</ele>
<time>2010-08-29T15:26:25Z</time>
<desc>lat.=56.126858, lon.=26.394426, Alt.=102.016663m. Speed=19.908001m/h.</desc>
<speed>5.530000</speed>
</trkpt>
<trkpt lat="56.126884" lon="26.394348">
<ele>102.749084</ele>
<time>2010-08-29T15:26:26Z</time>
<desc>lat.=56.126884, lon.=26.394348, Alt.=102.749084m. Speed=19.620001m/h.</desc>
<speed>5.450000</speed>
</trkpt>
<trkpt lat="56.126915" lon="26.394281">
<ele>103.430725</ele>
<time>2010-08-29T15:26:27Z</time>
<desc>lat.=56.126915, lon.=26.394281, Alt.=103.430725m. Speed=18.612000m/h.</desc>
<speed>5.170000</speed>
</trkpt>
<trkpt lat="56.126942" lon="26.394211">
<ele>102.889709</ele>
<time>2010-08-29T15:26:28Z</time>
<desc>lat.=56.126942, lon.=26.394211, Alt.=102.889709m. Speed=18.612000m/h.</desc>
<speed>5.170000</speed>
</trkpt>
<trkpt lat="56.126968" lon="26.394135">
<ele>103.542053</ele>
<time>2010-08-29T15:26:29Z</time>
<desc>lat.=56.126968, lon.=26.394135, Alt.=103.542053m. Speed=19.332001m/h.</desc>
<speed>5.370000</speed>
</trkpt>
<trkpt lat="56.127003" lon="26.394064">
<ele>104.811584</ele>
<time>2010-08-29T15:26:30Z</time>
<desc>lat.=56.127003, lon.=26.394064, Alt.=104.811584m. Speed=20.195999m/h.</desc>
<speed>5.610000</speed>
</trkpt>
<trkpt lat="56.127029" lon="26.393997">
<ele>104.309631</ele>
<time>2010-08-29T15:26:31Z</time>
<desc>lat.=56.127029, lon.=26.393997, Alt.=104.309631m. Speed=18.576000m/h.</desc>
<speed>5.160000</speed>
</trkpt>
<trkpt lat="56.127056" lon="26.393932">
<ele>104.694397</ele>
<time>2010-08-29T15:26:32Z</time>
<desc>lat.=56.127056, lon.=26.393932, Alt.=104.694397m. Speed=19.044001m/h.</desc>
<speed>5.290000</speed>
</trkpt>
<trkpt lat="56.127087" lon="26.393864">
<ele>104.553772</ele>
<time>2010-08-29T15:26:33Z</time>
<desc>lat.=56.127087, lon.=26.393864, Alt.=104.553772m. Speed=20.879999m/h.</desc>
<speed>5.800000</speed>
</trkpt>
<trkpt lat="56.127113" lon="26.393789">
<ele>104.393616</ele>
<time>2010-08-29T15:26:34Z</time>
<desc>lat.=56.127113, lon.=26.393789, Alt.=104.393616m. Speed=20.736000m/h.</desc>
<speed>5.760000</speed>
</trkpt>
<trkpt lat="56.127148" lon="26.393703">
<ele>105.725647</ele>
<time>2010-08-29T15:26:35Z</time>
<desc>lat.=56.127148, lon.=26.393703, Alt.=105.725647m. Speed=20.952000m/h.</desc>
<speed>5.820000</speed>
</trkpt>
<trkpt lat="56.127178" lon="26.393621">
<ele>105.508850</ele>
<time>2010-08-29T15:26:36Z</time>
<desc>lat.=56.127178, lon.=26.393621, Alt.=105.508850m. Speed=21.024000m/h.</desc>
<speed>5.840000</speed>
</trkpt>
<trkpt lat="56.127205" lon="26.393543">
<ele>105.256897</ele>
<time>2010-08-29T15:26:37Z</time>
<desc>lat.=56.127205, lon.=26.393543, Alt.=105.256897m. Speed=20.483999m/h.</desc>
<speed>5.690000</speed>
</trkpt>
<trkpt lat="56.127232" lon="26.393465">
<ele>105.272522</ele>
<time>2010-08-29T15:26:38Z</time>
<desc>lat.=56.127232, lon.=26.393465, Alt.=105.272522m. Speed=21.672001m/h.</desc>
<speed>6.020000</speed>
</trkpt>
<trkpt lat="56.127258" lon="26.393381">
<ele>105.483459</ele>
<time>2010-08-29T15:26:39Z</time>
<desc>lat.=56.127258, lon.=26.393381, Alt.=105.483459m. Speed=19.980000m/h.</desc>
<speed>5.550000</speed>
</trkpt>
<trkpt lat="56.127281" lon="26.393303">
<ele>105.725647</ele>
<time>2010-08-29T15:26:40Z</time>
<desc>lat.=56.127281, lon.=26.393303, Alt.=105.725647m. Speed=18.719999m/h.</desc>
<speed>5.200000</speed>
</trkpt>
<trkpt lat="56.127300" lon="26.393232">
<ele>105.885803</ele>
<time>2010-08-29T15:26:41Z</time>
<desc>lat.=56.127300, lon.=26.393232, Alt.=105.885803m. Speed=18.864000m/h.</desc>
<speed>5.240000</speed>
</trkpt>
<trkpt lat="56.127323" lon="26.393158">
<ele>105.649475</ele>
<time>2010-08-29T15:26:42Z</time>
<desc>lat.=56.127323, lon.=26.393158, Alt.=105.649475m. Speed=20.483999m/h.</desc>
<speed>5.690000</speed>
</trkpt>
<trkpt lat="56.127346" lon="26.393078">
<ele>106.213928</ele>
<time>2010-08-29T15:26:43Z</time>
<desc>lat.=56.127346, lon.=26.393078, Alt.=106.213928m. Speed=20.268000m/h.</desc>
<speed>5.630000</speed>
</trkpt>
<trkpt lat="56.127369" lon="26.393005">
<ele>106.602600</ele>
<time>2010-08-29T15:26:44Z</time>
<desc>lat.=56.127369, lon.=26.393005, Alt.=106.602600m. Speed=20.052000m/h.</desc>
<speed>5.570000</speed>
</trkpt>
<trkpt lat="56.127392" lon="26.392931">
<ele>106.622131</ele>
<time>2010-08-29T15:26:45Z</time>
<desc>lat.=56.127392, lon.=26.392931, Alt.=106.622131m. Speed=20.736000m/h.</desc>
<speed>5.760000</speed>
</trkpt>
<trkpt lat="56.127415" lon="26.392855">
<ele>106.795959</ele>
<time>2010-08-29T15:26:46Z</time>
<desc>lat.=56.127415, lon.=26.392855, Alt.=106.795959m. Speed=21.816000m/h.</desc>
<speed>6.060000</speed>
</trkpt>
<trkpt lat="56.127438" lon="26.392765">
<ele>106.180725</ele>
<time>2010-08-29T15:26:47Z</time>
<desc>lat.=56.127438, lon.=26.392765, Alt.=106.180725m. Speed=20.952000m/h.</desc>
<speed>5.820000</speed>
</trkpt>
<trkpt lat="56.127460" lon="26.392677">
<ele>106.333069</ele>
<time>2010-08-29T15:26:48Z</time>
<desc>lat.=56.127460, lon.=26.392677, Alt.=106.333069m. Speed=20.052000m/h.</desc>
<speed>5.570000</speed>
</trkpt>
<trkpt lat="56.127483" lon="26.392595">
<ele>106.434631</ele>
<time>2010-08-29T15:26:49Z</time>
<desc>lat.=56.127483, lon.=26.392595, Alt.=106.434631m. Speed=18.648001m/h.</desc>
<speed>5.180000</speed>
</trkpt>
<trkpt lat="56.127502" lon="26.392523">
<ele>106.446350</ele>
<time>2010-08-29T15:26:50Z</time>
<desc>lat.=56.127502, lon.=26.392523, Alt.=106.446350m. Speed=17.100000m/h.</desc>
<speed>4.750000</speed>
</trkpt>
<trkpt lat="56.127522" lon="26.392448">
<ele>106.768616</ele>
<time>2010-08-29T15:26:51Z</time>
<desc>lat.=56.127522, lon.=26.392448, Alt.=106.768616m. Speed=17.496000m/h.</desc>
<speed>4.860000</speed>
</trkpt>
<trkpt lat="56.127537" lon="26.392378">
<ele>106.989319</ele>
<time>2010-08-29T15:26:52Z</time>
<desc>lat.=56.127537, lon.=26.392378, Alt.=106.989319m. Speed=15.588000m/h.</desc>
<speed>4.330000</speed>
</trkpt>
<trkpt lat="56.127552" lon="26.392315">
<ele>106.942444</ele>
<time>2010-08-29T15:26:53Z</time>
<desc>lat.=56.127552, lon.=26.392315, Alt.=106.942444m. Speed=15.588000m/h.</desc>
<speed>4.330000</speed>
</trkpt>
<trkpt lat="56.127563" lon="26.392231">
<ele>105.368225</ele>
<time>2010-08-29T15:26:54Z</time>
<desc>lat.=56.127563, lon.=26.392231, Alt.=105.368225m. Speed=16.524000m/h.</desc>
<speed>4.590000</speed>
</trkpt>
<trkpt lat="56.127575" lon="26.392155">
<ele>104.922913</ele>
<time>2010-08-29T15:26:55Z</time>
<desc>lat.=56.127575, lon.=26.392155, Alt.=104.922913m. Speed=16.812000m/h.</desc>
<speed>4.670000</speed>
</trkpt>
<trkpt lat="56.127594" lon="26.392080">
<ele>105.669006</ele>
<time>2010-08-29T15:26:56Z</time>
<desc>lat.=56.127594, lon.=26.392080, Alt.=105.669006m. Speed=17.676001m/h.</desc>
<speed>4.910000</speed>
</trkpt>
<trkpt lat="56.127613" lon="26.391996">
<ele>105.985413</ele>
<time>2010-08-29T15:26:57Z</time>
<desc>lat.=56.127613, lon.=26.391996, Alt.=105.985413m. Speed=19.332001m/h.</desc>
<speed>5.370000</speed>
</trkpt>
<trkpt lat="56.127632" lon="26.391907">
<ele>106.202209</ele>
<time>2010-08-29T15:26:58Z</time>
<desc>lat.=56.127632, lon.=26.391907, Alt.=106.202209m. Speed=20.195999m/h.</desc>
<speed>5.610000</speed>
</trkpt>
<trkpt lat="56.127651" lon="26.391821">
<ele>105.784241</ele>
<time>2010-08-29T15:26:59Z</time>
<desc>lat.=56.127651, lon.=26.391821, Alt.=105.784241m. Speed=20.591999m/h.</desc>
<speed>5.720000</speed>
</trkpt>
<trkpt lat="56.127666" lon="26.391733">
<ele>105.295959</ele>
<time>2010-08-29T15:27:00Z</time>
<desc>lat.=56.127666, lon.=26.391733, Alt.=105.295959m. Speed=22.068001m/h.</desc>
<speed>6.130000</speed>
</trkpt>
<trkpt lat="56.127686" lon="26.391642">
<ele>105.042053</ele>
<time>2010-08-29T15:27:01Z</time>
<desc>lat.=56.127686, lon.=26.391642, Alt.=105.042053m. Speed=21.888000m/h.</desc>
<speed>6.080000</speed>
</trkpt>
<trkpt lat="56.127708" lon="26.391548">
<ele>105.795959</ele>
<time>2010-08-29T15:27:02Z</time>
<desc>lat.=56.127708, lon.=26.391548, Alt.=105.795959m. Speed=22.139999m/h.</desc>
<speed>6.150000</speed>
</trkpt>
<trkpt lat="56.127724" lon="26.391459">
<ele>105.965881</ele>
<time>2010-08-29T15:27:03Z</time>
<desc>lat.=56.127724, lon.=26.391459, Alt.=105.965881m. Speed=22.320000m/h.</desc>
<speed>6.200000</speed>
</trkpt>
<trkpt lat="56.127747" lon="26.391361">
<ele>105.885803</ele>
<time>2010-08-29T15:27:04Z</time>
<desc>lat.=56.127747, lon.=26.391361, Alt.=105.885803m. Speed=23.400000m/h.</desc>
<speed>6.500000</speed>
</trkpt>
<trkpt lat="56.127769" lon="26.391254">
<ele>105.557678</ele>
<time>2010-08-29T15:27:05Z</time>
<desc>lat.=56.127769, lon.=26.391254, Alt.=105.557678m. Speed=23.615999m/h.</desc>
<speed>6.560000</speed>
</trkpt>
<trkpt lat="56.127789" lon="26.391151">
<ele>105.170959</ele>
<time>2010-08-29T15:27:06Z</time>
<desc>lat.=56.127789, lon.=26.391151, Alt.=105.170959m. Speed=23.148001m/h.</desc>
<speed>6.430000</speed>
</trkpt>
<trkpt lat="56.127811" lon="26.391045">
<ele>105.391663</ele>
<time>2010-08-29T15:27:07Z</time>
<desc>lat.=56.127811, lon.=26.391045, Alt.=105.391663m. Speed=23.868000m/h.</desc>
<speed>6.630000</speed>
</trkpt>
<trkpt lat="56.127834" lon="26.390947">
<ele>105.252991</ele>
<time>2010-08-29T15:27:08Z</time>
<desc>lat.=56.127834, lon.=26.390947, Alt.=105.252991m. Speed=23.004000m/h.</desc>
<speed>6.390000</speed>
</trkpt>
<trkpt lat="56.127857" lon="26.390852">
<ele>105.243225</ele>
<time>2010-08-29T15:27:09Z</time>
<desc>lat.=56.127857, lon.=26.390852, Alt.=105.243225m. Speed=22.896000m/h.</desc>
<speed>6.360000</speed>
</trkpt>
<trkpt lat="56.127880" lon="26.390755">
<ele>105.280334</ele>
<time>2010-08-29T15:27:10Z</time>
<desc>lat.=56.127880, lon.=26.390755, Alt.=105.280334m. Speed=22.320000m/h.</desc>
<speed>6.200000</speed>
</trkpt>
<trkpt lat="56.127899" lon="26.390661">
<ele>104.469788</ele>
<time>2010-08-29T15:27:11Z</time>
<desc>lat.=56.127899, lon.=26.390661, Alt.=104.469788m. Speed=21.851999m/h.</desc>
<speed>6.070000</speed>
</trkpt>
<trkpt lat="56.127918" lon="26.390575">
<ele>104.475647</ele>
<time>2010-08-29T15:27:12Z</time>
<desc>lat.=56.127918, lon.=26.390575, Alt.=104.475647m. Speed=21.275999m/h.</desc>
<speed>5.910000</speed>
</trkpt>
<trkpt lat="56.127926" lon="26.390480">
<ele>102.362366</ele>
<time>2010-08-29T15:27:13Z</time>
<desc>lat.=56.127926, lon.=26.390480, Alt.=102.362366m. Speed=20.483999m/h.</desc>
<speed>5.690000</speed>
</trkpt>
<trkpt lat="56.127934" lon="26.390392">
<ele>100.895569</ele>
<time>2010-08-29T15:27:14Z</time>
<desc>lat.=56.127934, lon.=26.390392, Alt.=100.895569m. Speed=18.792000m/h.</desc>
<speed>5.220000</speed>
</trkpt>
<trkpt lat="56.127953" lon="26.390322">
<ele>100.309631</ele>
<time>2010-08-29T15:27:15Z</time>
<desc>lat.=56.127953, lon.=26.390322, Alt.=100.309631m. Speed=18.792000m/h.</desc>
<speed>5.220000</speed>
</trkpt>
<trkpt lat="56.127968" lon="26.390247">
<ele>100.836975</ele>
<time>2010-08-29T15:27:16Z</time>
<desc>lat.=56.127968, lon.=26.390247, Alt.=100.836975m. Speed=19.691999m/h.</desc>
<speed>5.470000</speed>
</trkpt>
<trkpt lat="56.127983" lon="26.390162">
<ele>100.419006</ele>
<time>2010-08-29T15:27:17Z</time>
<desc>lat.=56.127983, lon.=26.390162, Alt.=100.419006m. Speed=18.972000m/h.</desc>
<speed>5.270000</speed>
</trkpt>
<trkpt lat="56.128002" lon="26.390078">
<ele>100.010803</ele>
<time>2010-08-29T15:27:18Z</time>
<desc>lat.=56.128002, lon.=26.390078, Alt.=100.010803m. Speed=20.591999m/h.</desc>
<speed>5.720000</speed>
</trkpt>
<trkpt lat="56.128017" lon="26.389996">
<ele>100.731506</ele>
<time>2010-08-29T15:27:19Z</time>
<desc>lat.=56.128017, lon.=26.389996, Alt.=100.731506m. Speed=20.087999m/h.</desc>
<speed>5.580000</speed>
</trkpt>
<trkpt lat="56.128033" lon="26.389915">
<ele>101.440491</ele>
<time>2010-08-29T15:27:20Z</time>
<desc>lat.=56.128033, lon.=26.389915, Alt.=101.440491m. Speed=20.160000m/h.</desc>
<speed>5.600000</speed>
</trkpt>
<trkpt lat="56.128048" lon="26.389830">
<ele>101.126038</ele>
<time>2010-08-29T15:27:21Z</time>
<desc>lat.=56.128048, lon.=26.389830, Alt.=101.126038m. Speed=20.124001m/h.</desc>
<speed>5.590000</speed>
</trkpt>
<trkpt lat="56.128063" lon="26.389742">
<ele>101.151428</ele>
<time>2010-08-29T15:27:22Z</time>
<desc>lat.=56.128063, lon.=26.389742, Alt.=101.151428m. Speed=20.412001m/h.</desc>
<speed>5.670000</speed>
</trkpt>
<trkpt lat="56.128078" lon="26.389647">
<ele>101.420959</ele>
<time>2010-08-29T15:27:23Z</time>
<desc>lat.=56.128078, lon.=26.389647, Alt.=101.420959m. Speed=20.016001m/h.</desc>
<speed>5.560000</speed>
</trkpt>
<trkpt lat="56.128098" lon="26.389559">
<ele>101.776428</ele>
<time>2010-08-29T15:27:24Z</time>
<desc>lat.=56.128098, lon.=26.389559, Alt.=101.776428m. Speed=21.240000m/h.</desc>
<speed>5.900000</speed>
</trkpt>
<trkpt lat="56.128109" lon="26.389469">
<ele>102.711975</ele>
<time>2010-08-29T15:27:25Z</time>
<desc>lat.=56.128109, lon.=26.389469, Alt.=102.711975m. Speed=21.528000m/h.</desc>
<speed>5.980000</speed>
</trkpt>
<trkpt lat="56.128124" lon="26.389372">
<ele>103.044006</ele>
<time>2010-08-29T15:27:26Z</time>
<desc>lat.=56.128124, lon.=26.389372, Alt.=103.044006m. Speed=21.780001m/h.</desc>
<speed>6.050000</speed>
</trkpt>
<trkpt lat="56.128139" lon="26.389265">
<ele>103.294006</ele>
<time>2010-08-29T15:27:27Z</time>
<desc>lat.=56.128139, lon.=26.389265, Alt.=103.294006m. Speed=22.464001m/h.</desc>
<speed>6.240000</speed>
</trkpt>
<trkpt lat="56.128155" lon="26.389168">
<ele>102.245178</ele>
<time>2010-08-29T15:27:28Z</time>
<desc>lat.=56.128155, lon.=26.389168, Alt.=102.245178m. Speed=22.284000m/h.</desc>
<speed>6.190000</speed>
</trkpt>
<trkpt lat="56.128166" lon="26.389067">
<ele>101.649475</ele>
<time>2010-08-29T15:27:29Z</time>
<desc>lat.=56.128166, lon.=26.389067, Alt.=101.649475m. Speed=22.464001m/h.</desc>
<speed>6.240000</speed>
</trkpt>
<trkpt lat="56.128170" lon="26.388958">
<ele>101.069397</ele>
<time>2010-08-29T15:27:30Z</time>
<desc>lat.=56.128170, lon.=26.388958, Alt.=101.069397m. Speed=22.608000m/h.</desc>
<speed>6.280000</speed>
</trkpt>
<trkpt lat="56.128178" lon="26.388851">
<ele>100.016663</ele>
<time>2010-08-29T15:27:31Z</time>
<desc>lat.=56.128178, lon.=26.388851, Alt.=100.016663m. Speed=23.688000m/h.</desc>
<speed>6.580000</speed>
</trkpt>
<trkpt lat="56.128185" lon="26.388744">
<ele>99.772522</ele>
<time>2010-08-29T15:27:32Z</time>
<desc>lat.=56.128185, lon.=26.388744, Alt.=99.772522m. Speed=24.912001m/h.</desc>
<speed>6.920000</speed>
</trkpt>
<trkpt lat="56.128189" lon="26.388641">
<ele>100.008850</ele>
<time>2010-08-29T15:27:33Z</time>
<desc>lat.=56.128189, lon.=26.388641, Alt.=100.008850m. Speed=25.056000m/h.</desc>
<speed>6.960000</speed>
</trkpt>
<trkpt lat="56.128193" lon="26.388533">
<ele>100.426819</ele>
<time>2010-08-29T15:27:34Z</time>
<desc>lat.=56.128193, lon.=26.388533, Alt.=100.426819m. Speed=25.164000m/h.</desc>
<speed>6.990000</speed>
</trkpt>
<trkpt lat="56.128185" lon="26.388416">
<ele>99.661194</ele>
<time>2010-08-29T15:27:35Z</time>
<desc>lat.=56.128185, lon.=26.388416, Alt.=99.661194m. Speed=24.480000m/h.</desc>
<speed>6.800000</speed>
</trkpt>
<trkpt lat="56.128174" lon="26.388292">
<ele>97.917053</ele>
<time>2010-08-29T15:27:36Z</time>
<desc>lat.=56.128174, lon.=26.388292, Alt.=97.917053m. Speed=24.660000m/h.</desc>
<speed>6.850000</speed>
</trkpt>
<trkpt lat="56.128162" lon="26.388182">
<ele>96.934631</ele>
<time>2010-08-29T15:27:37Z</time>
<desc>lat.=56.128162, lon.=26.388182, Alt.=96.934631m. Speed=25.164000m/h.</desc>
<speed>6.990000</speed>
</trkpt>
<trkpt lat="56.128147" lon="26.388069">
<ele>96.874084</ele>
<time>2010-08-29T15:27:38Z</time>
<desc>lat.=56.128147, lon.=26.388069, Alt.=96.874084m. Speed=26.820000m/h.</desc>
<speed>7.450000</speed>
</trkpt>
<trkpt lat="56.128136" lon="26.387957">
<ele>97.639709</ele>
<time>2010-08-29T15:27:39Z</time>
<desc>lat.=56.128136, lon.=26.387957, Alt.=97.639709m. Speed=27.612000m/h.</desc>
<speed>7.670000</speed>
</trkpt>
<trkpt lat="56.128117" lon="26.387840">
<ele>97.817444</ele>
<time>2010-08-29T15:27:40Z</time>
<desc>lat.=56.128117, lon.=26.387840, Alt.=97.817444m. Speed=27.792000m/h.</desc>
<speed>7.720000</speed>
</trkpt>
<trkpt lat="56.128090" lon="26.387726">
<ele>97.829163</ele>
<time>2010-08-29T15:27:41Z</time>
<desc>lat.=56.128090, lon.=26.387726, Alt.=97.829163m. Speed=26.100000m/h.</desc>
<speed>7.250000</speed>
</trkpt>
<trkpt lat="56.128063" lon="26.387617">
<ele>97.813538</ele>
<time>2010-08-29T15:27:42Z</time>
<desc>lat.=56.128063, lon.=26.387617, Alt.=97.813538m. Speed=25.884001m/h.</desc>
<speed>7.190000</speed>
</trkpt>
<trkpt lat="56.128040" lon="26.387520">
<ele>97.721741</ele>
<time>2010-08-29T15:27:43Z</time>
<desc>lat.=56.128040, lon.=26.387520, Alt.=97.721741m. Speed=22.860001m/h.</desc>
<speed>6.350000</speed>
</trkpt>
<trkpt lat="56.128017" lon="26.387428">
<ele>97.659241</ele>
<time>2010-08-29T15:27:44Z</time>
<desc>lat.=56.128017, lon.=26.387428, Alt.=97.659241m. Speed=23.256001m/h.</desc>
<speed>6.460000</speed>
</trkpt>
<trkpt lat="56.127995" lon="26.387333">
<ele>97.506897</ele>
<time>2010-08-29T15:27:45Z</time>
<desc>lat.=56.127995, lon.=26.387333, Alt.=97.506897m. Speed=23.004000m/h.</desc>
<speed>6.390000</speed>
</trkpt>
<trkpt lat="56.127979" lon="26.387239">
<ele>97.460022</ele>
<time>2010-08-29T15:27:46Z</time>
<desc>lat.=56.127979, lon.=26.387239, Alt.=97.460022m. Speed=22.572001m/h.</desc>
<speed>6.270000</speed>
</trkpt>
<trkpt lat="56.127960" lon="26.387152">
<ele>96.979553</ele>
<time>2010-08-29T15:27:47Z</time>
<desc>lat.=56.127960, lon.=26.387152, Alt.=96.979553m. Speed=22.320000m/h.</desc>
<speed>6.200000</speed>
</trkpt>
<trkpt lat="56.127937" lon="26.387068">
<ele>97.055725</ele>
<time>2010-08-29T15:27:48Z</time>
<desc>lat.=56.127937, lon.=26.387068, Alt.=97.055725m. Speed=19.188000m/h.</desc>
<speed>5.330000</speed>
</trkpt>
<trkpt lat="56.127926" lon="26.386990">
<ele>97.196350</ele>
<time>2010-08-29T15:27:49Z</time>
<desc>lat.=56.127926, lon.=26.386990, Alt.=97.196350m. Speed=17.424000m/h.</desc>
<speed>4.840000</speed>
</trkpt>
<trkpt lat="56.127914" lon="26.386908">
<ele>97.126038</ele>
<time>2010-08-29T15:27:50Z</time>
<desc>lat.=56.127914, lon.=26.386908, Alt.=97.126038m. Speed=17.351999m/h.</desc>
<speed>4.820000</speed>
</trkpt>
<trkpt lat="56.127907" lon="26.386824">
<ele>97.446350</ele>
<time>2010-08-29T15:27:51Z</time>
<desc>lat.=56.127907, lon.=26.386824, Alt.=97.446350m. Speed=18.360001m/h.</desc>
<speed>5.100000</speed>
</trkpt>
<trkpt lat="56.127892" lon="26.386742">
<ele>96.821350</ele>
<time>2010-08-29T15:27:52Z</time>
<desc>lat.=56.127892, lon.=26.386742, Alt.=96.821350m. Speed=18.108000m/h.</desc>
<speed>5.030000</speed>
</trkpt>
<trkpt lat="56.127876" lon="26.386658">
<ele>96.868225</ele>
<time>2010-08-29T15:27:53Z</time>
<desc>lat.=56.127876, lon.=26.386658, Alt.=96.868225m. Speed=18.288000m/h.</desc>
<speed>5.080000</speed>
</trkpt>
<trkpt lat="56.127861" lon="26.386572">
<ele>96.747131</ele>
<time>2010-08-29T15:27:54Z</time>
<desc>lat.=56.127861, lon.=26.386572, Alt.=96.747131m. Speed=18.216000m/h.</desc>
<speed>5.060000</speed>
</trkpt>
<trkpt lat="56.127846" lon="26.386477">
<ele>95.147522</ele>
<time>2010-08-29T15:27:55Z</time>
<desc>lat.=56.127846, lon.=26.386477, Alt.=95.147522m. Speed=18.900000m/h.</desc>
<speed>5.250000</speed>
</trkpt>
<trkpt lat="56.127827" lon="26.386406">
<ele>95.018616</ele>
<time>2010-08-29T15:27:56Z</time>
<desc>lat.=56.127827, lon.=26.386406, Alt.=95.018616m. Speed=18.035999m/h.</desc>
<speed>5.010000</speed>
</trkpt>
<trkpt lat="56.127808" lon="26.386326">
<ele>94.239319</ele>
<time>2010-08-29T15:27:57Z</time>
<desc>lat.=56.127808, lon.=26.386326, Alt.=94.239319m. Speed=17.459999m/h.</desc>
<speed>4.850000</speed>
</trkpt>
<trkpt lat="56.127792" lon="26.386244">
<ele>94.085022</ele>
<time>2010-08-29T15:27:58Z</time>
<desc>lat.=56.127792, lon.=26.386244, Alt.=94.085022m. Speed=17.639999m/h.</desc>
<speed>4.900000</speed>
</trkpt>
<trkpt lat="56.127777" lon="26.386162">
<ele>94.645569</ele>
<time>2010-08-29T15:27:59Z</time>
<desc>lat.=56.127777, lon.=26.386162, Alt.=94.645569m. Speed=17.280001m/h.</desc>
<speed>4.800000</speed>
</trkpt>
<trkpt lat="56.127766" lon="26.386080">
<ele>95.184631</ele>
<time>2010-08-29T15:28:00Z</time>
<desc>lat.=56.127766, lon.=26.386080, Alt.=95.184631m. Speed=17.280001m/h.</desc>
<speed>4.800000</speed>
</trkpt>
<trkpt lat="56.127754" lon="26.386005">
<ele>95.469788</ele>
<time>2010-08-29T15:28:01Z</time>
<desc>lat.=56.127754, lon.=26.386005, Alt.=95.469788m. Speed=17.063999m/h.</desc>
<speed>4.740000</speed>
</trkpt>
<trkpt lat="56.127735" lon="26.385929">
<ele>95.999084</ele>
<time>2010-08-29T15:28:02Z</time>
<desc>lat.=56.127735, lon.=26.385929, Alt.=95.999084m. Speed=16.992001m/h.</desc>
<speed>4.720000</speed>
</trkpt>
<trkpt lat="56.127720" lon="26.385859">
<ele>96.294006</ele>
<time>2010-08-29T15:28:03Z</time>
<desc>lat.=56.127720, lon.=26.385859, Alt.=96.294006m. Speed=16.344000m/h.</desc>
<speed>4.540000</speed>
</trkpt>
<trkpt lat="56.127705" lon="26.385782">
<ele>96.323303</ele>
<time>2010-08-29T15:28:04Z</time>
<desc>lat.=56.127705, lon.=26.385782, Alt.=96.323303m. Speed=17.316000m/h.</desc>
<speed>4.810000</speed>
</trkpt>
<trkpt lat="56.127693" lon="26.385717">
<ele>97.305725</ele>
<time>2010-08-29T15:28:05Z</time>
<desc>lat.=56.127693, lon.=26.385717, Alt.=97.305725m. Speed=16.848000m/h.</desc>
<speed>4.680000</speed>
</trkpt>
<trkpt lat="56.127678" lon="26.385645">
<ele>97.278381</ele>
<time>2010-08-29T15:28:06Z</time>
<desc>lat.=56.127678, lon.=26.385645, Alt.=97.278381m. Speed=14.760000m/h.</desc>
<speed>4.100000</speed>
</trkpt>
<trkpt lat="56.127663" lon="26.385578">
<ele>97.356506</ele>
<time>2010-08-29T15:28:07Z</time>
<desc>lat.=56.127663, lon.=26.385578, Alt.=97.356506m. Speed=12.672000m/h.</desc>
<speed>3.520000</speed>
</trkpt>
<trkpt lat="56.127647" lon="26.385517">
<ele>97.752991</ele>
<time>2010-08-29T15:28:08Z</time>
<desc>lat.=56.127647, lon.=26.385517, Alt.=97.752991m. Speed=14.364000m/h.</desc>
<speed>3.990000</speed>
</trkpt>
<trkpt lat="56.127628" lon="26.385445">
<ele>97.745178</ele>
<time>2010-08-29T15:28:09Z</time>
<desc>lat.=56.127628, lon.=26.385445, Alt.=97.745178m. Speed=16.200001m/h.</desc>
<speed>4.500000</speed>
</trkpt>
<trkpt lat="56.127617" lon="26.385376">
<ele>98.290100</ele>
<time>2010-08-29T15:28:10Z</time>
<desc>lat.=56.127617, lon.=26.385376, Alt.=98.290100m. Speed=16.236000m/h.</desc>
<speed>4.510000</speed>
</trkpt>
<trkpt lat="56.127609" lon="26.385305">
<ele>98.770569</ele>
<time>2010-08-29T15:28:11Z</time>
<desc>lat.=56.127609, lon.=26.385305, Alt.=98.770569m. Speed=15.840000m/h.</desc>
<speed>4.400000</speed>
</trkpt>
<trkpt lat="56.127594" lon="26.385237">
<ele>99.356506</ele>
<time>2010-08-29T15:28:12Z</time>
<desc>lat.=56.127594, lon.=26.385237, Alt.=99.356506m. Speed=14.688000m/h.</desc>
<speed>4.080000</speed>
</trkpt>
<trkpt lat="56.127583" lon="26.385170">
<ele>99.754944</ele>
<time>2010-08-29T15:28:13Z</time>
<desc>lat.=56.127583, lon.=26.385170, Alt.=99.754944m. Speed=15.300000m/h.</desc>
<speed>4.250000</speed>
</trkpt>
<trkpt lat="56.127563" lon="26.385105">
<ele>98.506897</ele>
<time>2010-08-29T15:28:14Z</time>
<desc>lat.=56.127563, lon.=26.385105, Alt.=98.506897m. Speed=15.444000m/h.</desc>
<speed>4.290000</speed>
</trkpt>
<trkpt lat="56.127548" lon="26.385038">
<ele>98.184631</ele>
<time>2010-08-29T15:28:15Z</time>
<desc>lat.=56.127548, lon.=26.385038, Alt.=98.184631m. Speed=16.128000m/h.</desc>
<speed>4.480000</speed>
</trkpt>
<trkpt lat="56.127529" lon="26.384970">
<ele>99.844788</ele>
<time>2010-08-29T15:28:16Z</time>
<desc>lat.=56.127529, lon.=26.384970, Alt.=99.844788m. Speed=17.532000m/h.</desc>
<speed>4.870000</speed>
</trkpt>
<trkpt lat="56.127510" lon="26.384890">
<ele>99.692444</ele>
<time>2010-08-29T15:28:17Z</time>
<desc>lat.=56.127510, lon.=26.384890, Alt.=99.692444m. Speed=16.488001m/h.</desc>
<speed>4.580000</speed>
</trkpt>
<trkpt lat="56.127491" lon="26.384817">
<ele>100.358459</ele>
<time>2010-08-29T15:28:18Z</time>
<desc>lat.=56.127491, lon.=26.384817, Alt.=100.358459m. Speed=15.804000m/h.</desc>
<speed>4.390000</speed>
</trkpt>
<trkpt lat="56.127476" lon="26.384756">
<ele>101.161194</ele>
<time>2010-08-29T15:28:19Z</time>
<desc>lat.=56.127476, lon.=26.384756, Alt.=101.161194m. Speed=14.616000m/h.</desc>
<speed>4.060000</speed>
</trkpt>
<trkpt lat="56.127468" lon="26.384695">
<ele>101.626038</ele>
<time>2010-08-29T15:28:20Z</time>
<desc>lat.=56.127468, lon.=26.384695, Alt.=101.626038m. Speed=13.896000m/h.</desc>
<speed>3.860000</speed>
</trkpt>
<trkpt lat="56.127457" lon="26.384642">
<ele>101.524475</ele>
<time>2010-08-29T15:28:21Z</time>
<desc>lat.=56.127457, lon.=26.384642, Alt.=101.524475m. Speed=9.792000m/h.</desc>
<speed>2.720000</speed>
</trkpt>
<trkpt lat="56.127445" lon="26.384588">
<ele>101.231506</ele>
<time>2010-08-29T15:28:22Z</time>
<desc>lat.=56.127445, lon.=26.384588, Alt.=101.231506m. Speed=10.836000m/h.</desc>
<speed>3.010000</speed>
</trkpt>
<trkpt lat="56.127434" lon="26.384523">
<ele>101.223694</ele>
<time>2010-08-29T15:28:23Z</time>
<desc>lat.=56.127434, lon.=26.384523, Alt.=101.223694m. Speed=13.788000m/h.</desc>
<speed>3.830000</speed>
</trkpt>
<trkpt lat="56.127422" lon="26.384462">
<ele>101.401428</ele>
<time>2010-08-29T15:28:24Z</time>
<desc>lat.=56.127422, lon.=26.384462, Alt.=101.401428m. Speed=14.400000m/h.</desc>
<speed>4.000000</speed>
</trkpt>
<trkpt lat="56.127411" lon="26.384394">
<ele>101.487366</ele>
<time>2010-08-29T15:28:25Z</time>
<desc>lat.=56.127411, lon.=26.384394, Alt.=101.487366m. Speed=14.400000m/h.</desc>
<speed>4.000000</speed>
</trkpt>
<trkpt lat="56.127407" lon="26.384319">
<ele>102.096741</ele>
<time>2010-08-29T15:28:26Z</time>
<desc>lat.=56.127407, lon.=26.384319, Alt.=102.096741m. Speed=14.256000m/h.</desc>
<speed>3.960000</speed>
</trkpt>
<trkpt lat="56.127399" lon="26.384256">
<ele>102.391663</ele>
<time>2010-08-29T15:28:27Z</time>
<desc>lat.=56.127399, lon.=26.384256, Alt.=102.391663m. Speed=14.004000m/h.</desc>
<speed>3.890000</speed>
</trkpt>
<trkpt lat="56.127384" lon="26.384203">
<ele>102.938538</ele>
<time>2010-08-29T15:28:28Z</time>
<desc>lat.=56.127384, lon.=26.384203, Alt.=102.938538m. Speed=13.356000m/h.</desc>
<speed>3.710000</speed>
</trkpt>
<trkpt lat="56.127369" lon="26.384159">
<ele>102.745178</ele>
<time>2010-08-29T15:28:29Z</time>
<desc>lat.=56.127369, lon.=26.384159, Alt.=102.745178m. Speed=10.368000m/h.</desc>
<speed>2.880000</speed>
</trkpt>
<trkpt lat="56.127354" lon="26.384117">
<ele>102.485413</ele>
<time>2010-08-29T15:28:30Z</time>
<desc>lat.=56.127354, lon.=26.384117, Alt.=102.485413m. Speed=10.692000m/h.</desc>
<speed>2.970000</speed>
</trkpt>
<trkpt lat="56.127338" lon="26.384058">
<ele>102.516663</ele>
<time>2010-08-29T15:28:31Z</time>
<desc>lat.=56.127338, lon.=26.384058, Alt.=102.516663m. Speed=11.448000m/h.</desc>
<speed>3.180000</speed>
</trkpt>
<trkpt lat="56.127327" lon="26.384012">
<ele>102.792053</ele>
<time>2010-08-29T15:28:32Z</time>
<desc>lat.=56.127327, lon.=26.384012, Alt.=102.792053m. Speed=9.324000m/h.</desc>
<speed>2.590000</speed>
</trkpt>
<trkpt lat="56.127319" lon="26.383982">
<ele>103.502991</ele>
<time>2010-08-29T15:28:33Z</time>
<desc>lat.=56.127319, lon.=26.383982, Alt.=103.502991m. Speed=8.208000m/h.</desc>
<speed>2.280000</speed>
</trkpt>
<trkpt lat="56.127312" lon="26.383947">
<ele>104.194397</ele>
<time>2010-08-29T15:28:34Z</time>
<desc>lat.=56.127312, lon.=26.383947, Alt.=104.194397m. Speed=9.288000m/h.</desc>
<speed>2.580000</speed>
</trkpt>
<trkpt lat="56.127300" lon="26.383905">
<ele>104.614319</ele>
<time>2010-08-29T15:28:35Z</time>
<desc>lat.=56.127300, lon.=26.383905, Alt.=104.614319m. Speed=9.288000m/h.</desc>
<speed>2.580000</speed>
</trkpt>
<trkpt lat="56.127289" lon="26.383848">
<ele>105.008850</ele>
<time>2010-08-29T15:28:36Z</time>
<desc>lat.=56.127289, lon.=26.383848, Alt.=105.008850m. Speed=11.088000m/h.</desc>
<speed>3.080000</speed>
</trkpt>
<trkpt lat="56.127277" lon="26.383801">
<ele>105.758850</ele>
<time>2010-08-29T15:28:37Z</time>
<desc>lat.=56.127277, lon.=26.383801, Alt.=105.758850m. Speed=11.448000m/h.</desc>
<speed>3.180000</speed>
</trkpt>
<trkpt lat="56.127262" lon="26.383730">
<ele>104.676819</ele>
<time>2010-08-29T15:28:38Z</time>
<desc>lat.=56.127262, lon.=26.383730, Alt.=104.676819m. Speed=10.800000m/h.</desc>
<speed>3.000000</speed>
</trkpt>
<trkpt lat="56.127251" lon="26.383696">
<ele>105.057678</ele>
<time>2010-08-29T15:28:39Z</time>
<desc>lat.=56.127251, lon.=26.383696, Alt.=105.057678m. Speed=3.744000m/h.</desc>
<speed>1.040000</speed>
</trkpt>
<trkpt lat="56.127247" lon="26.383688">
<ele>105.762756</ele>
<time>2010-08-29T15:28:40Z</time>
<desc>lat.=56.127247, lon.=26.383688, Alt.=105.762756m. Speed=0.468000m/h.</desc>
<speed>0.130000</speed>
</trkpt>
<trkpt lat="56.127251" lon="26.383678">
<ele>104.710022</ele>
<time>2010-08-29T15:28:41Z</time>
<desc>lat.=56.127251, lon.=26.383678, Alt.=104.710022m. Speed=0.252000m/h.</desc>
<speed>0.070000</speed>
</trkpt>
<trkpt lat="56.127251" lon="26.383675">
<ele>104.510803</ele>
<time>2010-08-29T15:28:42Z</time>
<desc>lat.=56.127251, lon.=26.383675, Alt.=104.510803m. Speed=0.648000m/h.</desc>
<speed>0.180000</speed>
</trkpt>
<trkpt lat="56.127247" lon="26.383673">
<ele>104.768616</ele>
<time>2010-08-29T15:28:43Z</time>
<desc>lat.=56.127247, lon.=26.383673, Alt.=104.768616m. Speed=0.396000m/h.</desc>
<speed>0.110000</speed>
</trkpt>
<trkpt lat="56.127247" lon="26.383671">
<ele>104.811584</ele>
<time>2010-08-29T15:28:44Z</time>
<desc>lat.=56.127247, lon.=26.383671, Alt.=104.811584m. Speed=0.216000m/h.</desc>
<speed>0.060000</speed>
</trkpt>
<trkpt lat="56.127247" lon="26.383669">
<ele>104.844788</ele>
<time>2010-08-29T15:28:45Z</time>
<desc>lat.=56.127247, lon.=26.383669, Alt.=104.844788m. Speed=0.036000m/h.</desc>
<speed>0.010000</speed>
</trkpt>
<trkpt lat="56.127247" lon="26.383669">
<ele>104.864319</ele>
<time>2010-08-29T15:28:46Z</time>
<desc>lat.=56.127247, lon.=26.383669, Alt.=104.864319m. Speed=0.324000m/h.</desc>
<speed>0.090000</speed>
</trkpt>
<trkpt lat="56.127247" lon="26.383669">
<ele>104.874084</ele>
<time>2010-08-29T15:28:47Z</time>
<desc>lat.=56.127247, lon.=26.383669, Alt.=104.874084m. Speed=0.360000m/h.</desc>
<speed>0.100000</speed>
</trkpt>
<trkpt lat="56.127243" lon="26.383669">
<ele>104.877991</ele>
<time>2010-08-29T15:28:48Z</time>
<desc>lat.=56.127243, lon.=26.383669, Alt.=104.877991m. Speed=0.072000m/h.</desc>
<speed>0.020000</speed>
</trkpt>
<trkpt lat="56.127243" lon="26.383671">
<ele>104.879944</ele>
<time>2010-08-29T15:28:49Z</time>
<desc>lat.=56.127243, lon.=26.383671, Alt.=104.879944m. Speed=0.108000m/h.</desc>
<speed>0.030000</speed>
</trkpt>
<trkpt lat="56.127243" lon="26.383671">
<ele>104.872131</ele>
<time>2010-08-29T15:28:50Z</time>
<desc>lat.=56.127243, lon.=26.383671, Alt.=104.872131m. Speed=0.216000m/h.</desc>
<speed>0.060000</speed>
</trkpt>
<trkpt lat="56.127243" lon="26.383669">
<ele>104.860413</ele>
<time>2010-08-29T15:28:51Z</time>
<desc>lat.=56.127243, lon.=26.383669, Alt.=104.860413m. Speed=0.612000m/h.</desc>
<speed>0.170000</speed>
</trkpt>
<trkpt lat="56.127243" lon="26.383665">
<ele>104.850647</ele>
<time>2010-08-29T15:28:52Z</time>
<desc>lat.=56.127243, lon.=26.383665, Alt.=104.850647m. Speed=0.900000m/h.</desc>
<speed>0.250000</speed>
</trkpt>
<trkpt lat="56.127243" lon="26.383661">
<ele>104.840881</ele>
<time>2010-08-29T15:28:53Z</time>
<desc>lat.=56.127243, lon.=26.383661, Alt.=104.840881m. Speed=0.612000m/h.</desc>
<speed>0.170000</speed>
</trkpt>
<trkpt lat="56.127243" lon="26.383659">
<ele>104.823303</ele>
<time>2010-08-29T15:28:54Z</time>
<desc>lat.=56.127243, lon.=26.383659, Alt.=104.823303m. Speed=0.468000m/h.</desc>
<speed>0.130000</speed>
</trkpt>
<trkpt lat="56.127243" lon="26.383657">
<ele>104.807678</ele>
<time>2010-08-29T15:28:55Z</time>
<desc>lat.=56.127243, lon.=26.383657, Alt.=104.807678m. Speed=0.504000m/h.</desc>
<speed>0.140000</speed>
</trkpt>
<trkpt lat="56.127247" lon="26.383654">
<ele>104.799866</ele>
<time>2010-08-29T15:28:56Z</time>
<desc>lat.=56.127247, lon.=26.383654, Alt.=104.799866m. Speed=0.144000m/h.</desc>
<speed>0.040000</speed>
</trkpt>
<trkpt lat="56.127247" lon="26.383654">
<ele>104.795959</ele>
<time>2010-08-29T15:28:57Z</time>
<desc>lat.=56.127247, lon.=26.383654, Alt.=104.795959m. Speed=0.144000m/h.</desc>
<speed>0.040000</speed>
</trkpt>
<trkpt lat="56.127247" lon="26.383654">
<ele>104.797913</ele>
<time>2010-08-29T15:28:58Z</time>
<desc>lat.=56.127247, lon.=26.383654, Alt.=104.797913m. Speed=0.216000m/h.</desc>
<speed>0.060000</speed>
</trkpt>
<trkpt lat="56.127247" lon="26.383652">
<ele>104.794006</ele>
<time>2010-08-29T15:28:59Z</time>
<desc>lat.=56.127247, lon.=26.383652, Alt.=104.794006m. Speed=0.360000m/h.</desc>
<speed>0.100000</speed>
</trkpt>
<trkpt lat="56.127247" lon="26.383650">
<ele>104.788147</ele>
<time>2010-08-29T15:29:00Z</time>
<desc>lat.=56.127247, lon.=26.383650, Alt.=104.788147m. Speed=0.288000m/h.</desc>
<speed>0.080000</speed>
</trkpt>
<trkpt lat="56.127243" lon="26.383650">
<ele>104.794006</ele>
<time>2010-08-29T15:29:01Z</time>
<desc>lat.=56.127243, lon.=26.383650, Alt.=104.794006m. Speed=0.180000m/h.</desc>
<speed>0.050000</speed>
</trkpt>
<trkpt lat="56.127243" lon="26.383650">
<ele>104.809631</ele>
<time>2010-08-29T15:29:02Z</time>
<desc>lat.=56.127243, lon.=26.383650, Alt.=104.809631m. Speed=0.252000m/h.</desc>
<speed>0.070000</speed>
</trkpt>
<trkpt lat="56.127243" lon="26.383650">
<ele>104.817444</ele>
<time>2010-08-29T15:29:03Z</time>
<desc>lat.=56.127243, lon.=26.383650, Alt.=104.817444m. Speed=0.288000m/h.</desc>
<speed>0.080000</speed>
</trkpt>
<trkpt lat="56.127243" lon="26.383652">
<ele>104.831116</ele>
<time>2010-08-29T15:29:04Z</time>
<desc>lat.=56.127243, lon.=26.383652, Alt.=104.831116m. Speed=0.072000m/h.</desc>
<speed>0.020000</speed>
</trkpt>
<trkpt lat="56.127243" lon="26.383652">
<ele>104.842834</ele>
<time>2010-08-29T15:29:05Z</time>
<desc>lat.=56.127243, lon.=26.383652, Alt.=104.842834m. Speed=0.252000m/h.</desc>
<speed>0.070000</speed>
</trkpt>
<trkpt lat="56.127243" lon="26.383650">
<ele>104.850647</ele>
<time>2010-08-29T15:29:06Z</time>
<desc>lat.=56.127243, lon.=26.383650, Alt.=104.850647m. Speed=0.576000m/h.</desc>
<speed>0.160000</speed>
</trkpt>
<trkpt lat="56.127243" lon="26.383648">
<ele>104.850647</ele>
<time>2010-08-29T15:29:07Z</time>
<desc>lat.=56.127243, lon.=26.383648, Alt.=104.850647m. Speed=0.900000m/h.</desc>
<speed>0.250000</speed>
</trkpt>
<trkpt lat="56.127243" lon="26.383644">
<ele>104.852600</ele>
<time>2010-08-29T15:29:08Z</time>
<desc>lat.=56.127243, lon.=26.383644, Alt.=104.852600m. Speed=0.612000m/h.</desc>
<speed>0.170000</speed>
</trkpt>
<trkpt lat="56.127243" lon="26.383640">
<ele>104.872131</ele>
<time>2010-08-29T15:29:09Z</time>
<desc>lat.=56.127243, lon.=26.383640, Alt.=104.872131m. Speed=0.936000m/h.</desc>
<speed>0.260000</speed>
</trkpt>
<trkpt lat="56.127243" lon="26.383636">
<ele>104.885803</ele>
<time>2010-08-29T15:29:10Z</time>
<desc>lat.=56.127243, lon.=26.383636, Alt.=104.885803m. Speed=1.044000m/h.</desc>
<speed>0.290000</speed>
</trkpt>
<trkpt lat="56.127239" lon="26.383633">
<ele>104.893616</ele>
<time>2010-08-29T15:29:11Z</time>
<desc>lat.=56.127239, lon.=26.383633, Alt.=104.893616m. Speed=0.576000m/h.</desc>
<speed>0.160000</speed>
</trkpt>
<trkpt lat="56.127239" lon="26.383631">
<ele>104.887756</ele>
<time>2010-08-29T15:29:12Z</time>
<desc>lat.=56.127239, lon.=26.383631, Alt.=104.887756m. Speed=0.756000m/h.</desc>
<speed>0.210000</speed>
</trkpt>
<trkpt lat="56.127239" lon="26.383627">
<ele>104.872131</ele>
<time>2010-08-29T15:29:13Z</time>
<desc>lat.=56.127239, lon.=26.383627, Alt.=104.872131m. Speed=0.720000m/h.</desc>
<speed>0.200000</speed>
</trkpt>
<trkpt lat="56.127239" lon="26.383623">
<ele>104.848694</ele>
<time>2010-08-29T15:29:14Z</time>
<desc>lat.=56.127239, lon.=26.383623, Alt.=104.848694m. Speed=0.684000m/h.</desc>
<speed>0.190000</speed>
</trkpt>
<trkpt lat="56.127243" lon="26.383621">
<ele>104.835022</ele>
<time>2010-08-29T15:29:15Z</time>
<desc>lat.=56.127243, lon.=26.383621, Alt.=104.835022m. Speed=0.684000m/h.</desc>
<speed>0.190000</speed>
</trkpt>
<trkpt lat="56.127239" lon="26.383619">
<ele>104.817444</ele>
<time>2010-08-29T15:29:16Z</time>
<desc>lat.=56.127239, lon.=26.383619, Alt.=104.817444m. Speed=1.728000m/h.</desc>
<speed>0.480000</speed>
</trkpt>
<trkpt lat="56.127243" lon="26.383612">
<ele>104.797913</ele>
<time>2010-08-29T15:29:17Z</time>
<desc>lat.=56.127243, lon.=26.383612, Alt.=104.797913m. Speed=1.332000m/h.</desc>
<speed>0.370000</speed>
</trkpt>
<trkpt lat="56.127243" lon="26.383606">
<ele>104.784241</ele>
<time>2010-08-29T15:29:18Z</time>
<desc>lat.=56.127243, lon.=26.383606, Alt.=104.784241m. Speed=1.044000m/h.</desc>
<speed>0.290000</speed>
</trkpt>
<trkpt lat="56.127243" lon="26.383602">
<ele>104.774475</ele>
<time>2010-08-29T15:29:19Z</time>
<desc>lat.=56.127243, lon.=26.383602, Alt.=104.774475m. Speed=0.900000m/h.</desc>
<speed>0.250000</speed>
</trkpt>
<trkpt lat="56.127243" lon="26.383598">
<ele>104.768616</ele>
<time>2010-08-29T15:29:20Z</time>
<desc>lat.=56.127243, lon.=26.383598, Alt.=104.768616m. Speed=0.756000m/h.</desc>
<speed>0.210000</speed>
</trkpt>
<trkpt lat="56.127247" lon="26.383595">
<ele>104.752991</ele>
<time>2010-08-29T15:29:21Z</time>
<desc>lat.=56.127247, lon.=26.383595, Alt.=104.752991m. Speed=0.432000m/h.</desc>
<speed>0.120000</speed>
</trkpt>
<trkpt lat="56.127247" lon="26.383595">
<ele>104.739319</ele>
<time>2010-08-29T15:29:22Z</time>
<desc>lat.=56.127247, lon.=26.383595, Alt.=104.739319m. Speed=0.612000m/h.</desc>
<speed>0.170000</speed>
</trkpt>
<trkpt lat="56.127247" lon="26.383596">
<ele>104.723694</ele>
<time>2010-08-29T15:29:23Z</time>
<desc>lat.=56.127247, lon.=26.383596, Alt.=104.723694m. Speed=0.540000m/h.</desc>
<speed>0.150000</speed>
</trkpt>
<trkpt lat="56.127247" lon="26.383600">
<ele>104.711975</ele>
<time>2010-08-29T15:29:24Z</time>
<desc>lat.=56.127247, lon.=26.383600, Alt.=104.711975m. Speed=0.108000m/h.</desc>
<speed>0.030000</speed>
</trkpt>
<trkpt lat="56.127247" lon="26.383600">
<ele>104.702209</ele>
<time>2010-08-29T15:29:25Z</time>
<desc>lat.=56.127247, lon.=26.383600, Alt.=104.702209m. Speed=0.360000m/h.</desc>
<speed>0.100000</speed>
</trkpt>
<trkpt lat="56.127243" lon="26.383600">
<ele>104.694397</ele>
<time>2010-08-29T15:29:26Z</time>
<desc>lat.=56.127243, lon.=26.383600, Alt.=104.694397m. Speed=0.036000m/h.</desc>
<speed>0.010000</speed>
</trkpt>
<trkpt lat="56.127243" lon="26.383598">
<ele>104.688538</ele>
<time>2010-08-29T15:29:27Z</time>
<desc>lat.=56.127243, lon.=26.383598, Alt.=104.688538m. Speed=0.108000m/h.</desc>
<speed>0.030000</speed>
</trkpt>
<trkpt lat="56.127243" lon="26.383600">
<ele>104.686584</ele>
<time>2010-08-29T15:29:28Z</time>
<desc>lat.=56.127243, lon.=26.383600, Alt.=104.686584m. Speed=0.036000m/h.</desc>
<speed>0.010000</speed>
</trkpt>
<trkpt lat="56.127243" lon="26.383600">
<ele>104.702209</ele>
<time>2010-08-29T15:29:29Z</time>
<desc>lat.=56.127243, lon.=26.383600, Alt.=104.702209m. Speed=0.540000m/h.</desc>
<speed>0.150000</speed>
</trkpt>
<trkpt lat="56.127247" lon="26.383600">
<ele>104.711975</ele>
<time>2010-08-29T15:29:30Z</time>
<desc>lat.=56.127247, lon.=26.383600, Alt.=104.711975m. Speed=0.540000m/h.</desc>
<speed>0.150000</speed>
</trkpt>
<trkpt lat="56.127247" lon="26.383602">
<ele>104.715881</ele>
<time>2010-08-29T15:29:31Z</time>
<desc>lat.=56.127247, lon.=26.383602, Alt.=104.715881m. Speed=0.108000m/h.</desc>
<speed>0.030000</speed>
</trkpt>
<trkpt lat="56.127247" lon="26.383602">
<ele>104.723694</ele>
<time>2010-08-29T15:29:32Z</time>
<desc>lat.=56.127247, lon.=26.383602, Alt.=104.723694m. Speed=0.324000m/h.</desc>
<speed>0.090000</speed>
</trkpt>
<trkpt lat="56.127247" lon="26.383602">
<ele>104.729553</ele>
<time>2010-08-29T15:29:33Z</time>
<desc>lat.=56.127247, lon.=26.383602, Alt.=104.729553m. Speed=0.072000m/h.</desc>
<speed>0.020000</speed>
</trkpt>
<trkpt lat="56.127247" lon="26.383602">
<ele>104.725647</ele>
<time>2010-08-29T15:29:34Z</time>
<desc>lat.=56.127247, lon.=26.383602, Alt.=104.725647m. Speed=0.036000m/h.</desc>
<speed>0.010000</speed>
</trkpt>
<trkpt lat="56.127247" lon="26.383602">
<ele>104.721741</ele>
<time>2010-08-29T15:29:35Z</time>
<desc>lat.=56.127247, lon.=26.383602, Alt.=104.721741m. Speed=0.396000m/h.</desc>
<speed>0.110000</speed>
</trkpt>
<trkpt lat="56.127247" lon="26.383604">
<ele>104.710022</ele>
<time>2010-08-29T15:29:36Z</time>
<desc>lat.=56.127247, lon.=26.383604, Alt.=104.710022m. Speed=0.360000m/h.</desc>
<speed>0.100000</speed>
</trkpt>
<trkpt lat="56.127247" lon="26.383606">
<ele>104.690491</ele>
<time>2010-08-29T15:29:37Z</time>
<desc>lat.=56.127247, lon.=26.383606, Alt.=104.690491m. Speed=0.072000m/h.</desc>
<speed>0.020000</speed>
</trkpt>
<trkpt lat="56.127247" lon="26.383606">
<ele>104.672913</ele>
<time>2010-08-29T15:29:38Z</time>
<desc>lat.=56.127247, lon.=26.383606, Alt.=104.672913m. Speed=0.180000m/h.</desc>
<speed>0.050000</speed>
</trkpt>
<trkpt lat="56.127247" lon="26.383606">
<ele>104.674866</ele>
<time>2010-08-29T15:29:39Z</time>
<desc>lat.=56.127247, lon.=26.383606, Alt.=104.674866m. Speed=0.180000m/h.</desc>
<speed>0.050000</speed>
</trkpt>
<trkpt lat="56.127247" lon="26.383606">
<ele>104.674866</ele>
<time>2010-08-29T15:29:40Z</time>
<desc>lat.=56.127247, lon.=26.383606, Alt.=104.674866m. Speed=0.216000m/h.</desc>
<speed>0.060000</speed>
</trkpt>
<trkpt lat="56.127247" lon="26.383606">
<ele>104.672913</ele>
<time>2010-08-29T15:29:41Z</time>
<desc>lat.=56.127247, lon.=26.383606, Alt.=104.672913m. Speed=0.756000m/h.</desc>
<speed>0.210000</speed>
</trkpt>
<trkpt lat="56.127247" lon="26.383604">
<ele>104.672913</ele>
<time>2010-08-29T15:29:42Z</time>
<desc>lat.=56.127247, lon.=26.383604, Alt.=104.672913m. Speed=0.936000m/h.</desc>
<speed>0.260000</speed>
</trkpt>
<trkpt lat="56.127243" lon="26.383600">
<ele>104.672913</ele>
<time>2010-08-29T15:29:43Z</time>
<desc>lat.=56.127243, lon.=26.383600, Alt.=104.672913m. Speed=1.152000m/h.</desc>
<speed>0.320000</speed>
</trkpt>
<trkpt lat="56.127243" lon="26.383596">
<ele>104.665100</ele>
<time>2010-08-29T15:29:44Z</time>
<desc>lat.=56.127243, lon.=26.383596, Alt.=104.665100m. Speed=1.764000m/h.</desc>
<speed>0.490000</speed>
</trkpt>
<trkpt lat="56.127239" lon="26.383591">
<ele>104.643616</ele>
<time>2010-08-29T15:29:45Z</time>
<desc>lat.=56.127239, lon.=26.383591, Alt.=104.643616m. Speed=2.052000m/h.</desc>
<speed>0.570000</speed>
</trkpt>
<trkpt lat="56.127235" lon="26.383583">
<ele>104.618225</ele>
<time>2010-08-29T15:29:46Z</time>
<desc>lat.=56.127235, lon.=26.383583, Alt.=104.618225m. Speed=1.620000m/h.</desc>
<speed>0.450000</speed>
</trkpt>
<trkpt lat="56.127235" lon="26.383577">
<ele>104.598694</ele>
<time>2010-08-29T15:29:47Z</time>
<desc>lat.=56.127235, lon.=26.383577, Alt.=104.598694m. Speed=1.224000m/h.</desc>
<speed>0.340000</speed>
</trkpt>
<trkpt lat="56.127232" lon="26.383574">
<ele>104.577209</ele>
<time>2010-08-29T15:29:48Z</time>
<desc>lat.=56.127232, lon.=26.383574, Alt.=104.577209m. Speed=0.972000m/h.</desc>
<speed>0.270000</speed>
</trkpt>
<trkpt lat="56.127232" lon="26.383570">
<ele>104.547913</ele>
<time>2010-08-29T15:29:49Z</time>
<desc>lat.=56.127232, lon.=26.383570, Alt.=104.547913m. Speed=0.720000m/h.</desc>
<speed>0.200000</speed>
</trkpt>
<trkpt lat="56.127228" lon="26.383568">
<ele>104.510803</ele>
<time>2010-08-29T15:29:50Z</time>
<desc>lat.=56.127228, lon.=26.383568, Alt.=104.510803m. Speed=0.828000m/h.</desc>
<speed>0.230000</speed>
</trkpt>
<trkpt lat="56.127228" lon="26.383566">
<ele>104.473694</ele>
<time>2010-08-29T15:29:51Z</time>
<desc>lat.=56.127228, lon.=26.383566, Alt.=104.473694m. Speed=1.008000m/h.</desc>
<speed>0.280000</speed>
</trkpt>
<trkpt lat="56.127228" lon="26.383562">
<ele>104.428772</ele>
<time>2010-08-29T15:29:52Z</time>
<desc>lat.=56.127228, lon.=26.383562, Alt.=104.428772m. Speed=1.656000m/h.</desc>
<speed>0.460000</speed>
</trkpt>
<trkpt lat="56.127224" lon="26.383554">
<ele>104.376038</ele>
<time>2010-08-29T15:29:53Z</time>
<desc>lat.=56.127224, lon.=26.383554, Alt.=104.376038m. Speed=2.196000m/h.</desc>
<speed>0.610000</speed>
</trkpt>
<trkpt lat="56.127220" lon="26.383547">
<ele>104.323303</ele>
<time>2010-08-29T15:29:54Z</time>
<desc>lat.=56.127220, lon.=26.383547, Alt.=104.323303m. Speed=3.384000m/h.</desc>
<speed>0.940000</speed>
</trkpt>
<trkpt lat="56.127216" lon="26.383533">
<ele>104.272522</ele>
<time>2010-08-29T15:29:55Z</time>
<desc>lat.=56.127216, lon.=26.383533, Alt.=104.272522m. Speed=4.608000m/h.</desc>
<speed>1.280000</speed>
</trkpt>
<trkpt lat="56.127205" lon="26.383509">
<ele>104.122131</ele>
<time>2010-08-29T15:29:56Z</time>
<desc>lat.=56.127205, lon.=26.383509, Alt.=104.122131m. Speed=7.380000m/h.</desc>
<speed>2.050000</speed>
</trkpt>
<trkpt lat="56.127186" lon="26.383469">
<ele>103.877991</ele>
<time>2010-08-29T15:29:57Z</time>
<desc>lat.=56.127186, lon.=26.383469, Alt.=103.877991m. Speed=8.676000m/h.</desc>
<speed>2.410000</speed>
</trkpt>
<trkpt lat="56.127178" lon="26.383434">
<ele>103.614319</ele>
<time>2010-08-29T15:29:58Z</time>
<desc>lat.=56.127178, lon.=26.383434, Alt.=103.614319m. Speed=8.388000m/h.</desc>
<speed>2.330000</speed>
</trkpt>
<trkpt lat="56.127167" lon="26.383385">
<ele>103.917053</ele>
<time>2010-08-29T15:29:59Z</time>
<desc>lat.=56.127167, lon.=26.383385, Alt.=103.917053m. Speed=11.664000m/h.</desc>
<speed>3.240000</speed>
</trkpt>
<trkpt lat="56.127163" lon="26.383337">
<ele>103.893616</ele>
<time>2010-08-29T15:30:00Z</time>
<desc>lat.=56.127163, lon.=26.383337, Alt.=103.893616m. Speed=9.504000m/h.</desc>
<speed>2.640000</speed>
</trkpt>
<trkpt lat="56.127155" lon="26.383287">
<ele>103.727600</ele>
<time>2010-08-29T15:30:01Z</time>
<desc>lat.=56.127155, lon.=26.383287, Alt.=103.727600m. Speed=10.944000m/h.</desc>
<speed>3.040000</speed>
</trkpt>
<trkpt lat="56.127151" lon="26.383236">
<ele>103.622131</ele>
<time>2010-08-29T15:30:02Z</time>
<desc>lat.=56.127151, lon.=26.383236, Alt.=103.622131m. Speed=11.592000m/h.</desc>
<speed>3.220000</speed>
</trkpt>
<trkpt lat="56.127140" lon="26.383183">
<ele>103.766663</ele>
<time>2010-08-29T15:30:03Z</time>
<desc>lat.=56.127140, lon.=26.383183, Alt.=103.766663m. Speed=11.556000m/h.</desc>
<speed>3.210000</speed>
</trkpt>
<trkpt lat="56.127132" lon="26.383129">
<ele>103.526428</ele>
<time>2010-08-29T15:30:04Z</time>
<desc>lat.=56.127132, lon.=26.383129, Alt.=103.526428m. Speed=12.672000m/h.</desc>
<speed>3.520000</speed>
</trkpt>
<trkpt lat="56.127117" lon="26.383057">
<ele>103.461975</ele>
<time>2010-08-29T15:30:05Z</time>
<desc>lat.=56.127117, lon.=26.383057, Alt.=103.461975m. Speed=13.464000m/h.</desc>
<speed>3.740000</speed>
</trkpt>
<trkpt lat="56.127106" lon="26.382977">
<ele>103.295959</ele>
<time>2010-08-29T15:30:06Z</time>
<desc>lat.=56.127106, lon.=26.382977, Alt.=103.295959m. Speed=13.284000m/h.</desc>
<speed>3.690000</speed>
</trkpt>
<trkpt lat="56.127098" lon="26.382906">
<ele>102.450256</ele>
<time>2010-08-29T15:30:07Z</time>
<desc>lat.=56.127098, lon.=26.382906, Alt.=102.450256m. Speed=15.228000m/h.</desc>
<speed>4.230000</speed>
</trkpt>
<trkpt lat="56.127090" lon="26.382835">
<ele>101.827209</ele>
<time>2010-08-29T15:30:08Z</time>
<desc>lat.=56.127090, lon.=26.382835, Alt.=101.827209m. Speed=15.336000m/h.</desc>
<speed>4.260000</speed>
</trkpt>
<trkpt lat="56.127090" lon="26.382776">
<ele>101.725647</ele>
<time>2010-08-29T15:30:09Z</time>
<desc>lat.=56.127090, lon.=26.382776, Alt.=101.725647m. Speed=13.896000m/h.</desc>
<speed>3.860000</speed>
</trkpt>
<trkpt lat="56.127087" lon="26.382719">
<ele>101.669006</ele>
<time>2010-08-29T15:30:10Z</time>
<desc>lat.=56.127087, lon.=26.382719, Alt.=101.669006m. Speed=14.112000m/h.</desc>
<speed>3.920000</speed>
</trkpt>
<trkpt lat="56.127083" lon="26.382656">
<ele>101.692444</ele>
<time>2010-08-29T15:30:11Z</time>
<desc>lat.=56.127083, lon.=26.382656, Alt.=101.692444m. Speed=13.860000m/h.</desc>
<speed>3.850000</speed>
</trkpt>
<trkpt lat="56.127079" lon="26.382597">
<ele>101.831116</ele>
<time>2010-08-29T15:30:12Z</time>
<desc>lat.=56.127079, lon.=26.382597, Alt.=101.831116m. Speed=12.528000m/h.</desc>
<speed>3.480000</speed>
</trkpt>
<trkpt lat="56.127075" lon="26.382542">
<ele>103.795959</ele>
<time>2010-08-29T15:30:13Z</time>
<desc>lat.=56.127075, lon.=26.382542, Alt.=103.795959m. Speed=14.256000m/h.</desc>
<speed>3.960000</speed>
</trkpt>
<trkpt lat="56.127079" lon="26.382488">
<ele>103.811584</ele>
<time>2010-08-29T15:30:14Z</time>
<desc>lat.=56.127079, lon.=26.382488, Alt.=103.811584m. Speed=10.368000m/h.</desc>
<speed>2.880000</speed>
</trkpt>
<trkpt lat="56.127083" lon="26.382441">
<ele>104.163147</ele>
<time>2010-08-29T15:30:15Z</time>
<desc>lat.=56.127083, lon.=26.382441, Alt.=104.163147m. Speed=9.216000m/h.</desc>
<speed>2.560000</speed>
</trkpt>
<trkpt lat="56.127087" lon="26.382393">
<ele>104.967834</ele>
<time>2010-08-29T15:30:16Z</time>
<desc>lat.=56.127087, lon.=26.382393, Alt.=104.967834m. Speed=11.304000m/h.</desc>
<speed>3.140000</speed>
</trkpt>
<trkpt lat="56.127087" lon="26.382324">
<ele>105.979553</ele>
<time>2010-08-29T15:30:17Z</time>
<desc>lat.=56.127087, lon.=26.382324, Alt.=105.979553m. Speed=12.852000m/h.</desc>
<speed>3.570000</speed>
</trkpt>
<trkpt lat="56.127090" lon="26.382246">
<ele>105.463928</ele>
<time>2010-08-29T15:30:18Z</time>
<desc>lat.=56.127090, lon.=26.382246, Alt.=105.463928m. Speed=14.292000m/h.</desc>
<speed>3.970000</speed>
</trkpt>
<trkpt lat="56.127094" lon="26.382170">
<ele>105.774475</ele>
<time>2010-08-29T15:30:19Z</time>
<desc>lat.=56.127094, lon.=26.382170, Alt.=105.774475m. Speed=14.868000m/h.</desc>
<speed>4.130000</speed>
</trkpt>
<trkpt lat="56.127094" lon="26.382090">
<ele>105.557678</ele>
<time>2010-08-29T15:30:20Z</time>
<desc>lat.=56.127094, lon.=26.382090, Alt.=105.557678m. Speed=15.300000m/h.</desc>
<speed>4.250000</speed>
</trkpt>
<trkpt lat="56.127098" lon="26.382011">
<ele>106.194397</ele>
<time>2010-08-29T15:30:21Z</time>
<desc>lat.=56.127098, lon.=26.382011, Alt.=106.194397m. Speed=16.992001m/h.</desc>
<speed>4.720000</speed>
</trkpt>
<trkpt lat="56.127102" lon="26.381924">
<ele>107.262756</ele>
<time>2010-08-29T15:30:22Z</time>
<desc>lat.=56.127102, lon.=26.381924, Alt.=107.262756m. Speed=20.412001m/h.</desc>
<speed>5.670000</speed>
</trkpt>
<trkpt lat="56.127102" lon="26.381824">
<ele>106.419006</ele>
<time>2010-08-29T15:30:23Z</time>
<desc>lat.=56.127102, lon.=26.381824, Alt.=106.419006m. Speed=17.028000m/h.</desc>
<speed>4.730000</speed>
</trkpt>
<trkpt lat="56.127102" lon="26.381729">
<ele>106.038147</ele>
<time>2010-08-29T15:30:24Z</time>
<desc>lat.=56.127102, lon.=26.381729, Alt.=106.038147m. Speed=17.927999m/h.</desc>
<speed>4.980000</speed>
</trkpt>
<trkpt lat="56.127113" lon="26.381634">
<ele>106.461975</ele>
<time>2010-08-29T15:30:25Z</time>
<desc>lat.=56.127113, lon.=26.381634, Alt.=106.461975m. Speed=18.360001m/h.</desc>
<speed>5.100000</speed>
</trkpt>
<trkpt lat="56.127129" lon="26.381548">
<ele>106.600647</ele>
<time>2010-08-29T15:30:26Z</time>
<desc>lat.=56.127129, lon.=26.381548, Alt.=106.600647m. Speed=18.684000m/h.</desc>
<speed>5.190000</speed>
</trkpt>
<trkpt lat="56.127151" lon="26.381477">
<ele>107.264709</ele>
<time>2010-08-29T15:30:27Z</time>
<desc>lat.=56.127151, lon.=26.381477, Alt.=107.264709m. Speed=17.820000m/h.</desc>
<speed>4.950000</speed>
</trkpt>
<trkpt lat="56.127167" lon="26.381395">
<ele>107.754944</ele>
<time>2010-08-29T15:30:28Z</time>
<desc>lat.=56.127167, lon.=26.381395, Alt.=107.754944m. Speed=19.836000m/h.</desc>
<speed>5.510000</speed>
</trkpt>
<trkpt lat="56.127182" lon="26.381321">
<ele>108.655334</ele>
<time>2010-08-29T15:30:29Z</time>
<desc>lat.=56.127182, lon.=26.381321, Alt.=108.655334m. Speed=17.280001m/h.</desc>
<speed>4.800000</speed>
</trkpt>
<trkpt lat="56.127209" lon="26.381258">
<ele>109.723694</ele>
<time>2010-08-29T15:30:30Z</time>
<desc>lat.=56.127209, lon.=26.381258, Alt.=109.723694m. Speed=16.452000m/h.</desc>
<speed>4.570000</speed>
</trkpt>
<trkpt lat="56.127232" lon="26.381189">
<ele>110.434631</ele>
<time>2010-08-29T15:30:31Z</time>
<desc>lat.=56.127232, lon.=26.381189, Alt.=110.434631m. Speed=16.164000m/h.</desc>
<speed>4.490000</speed>
</trkpt>
<trkpt lat="56.127258" lon="26.381124">
<ele>110.958069</ele>
<time>2010-08-29T15:30:32Z</time>
<desc>lat.=56.127258, lon.=26.381124, Alt.=110.958069m. Speed=15.588000m/h.</desc>
<speed>4.330000</speed>
</trkpt>
<trkpt lat="56.127281" lon="26.381062">
<ele>111.747131</ele>
<time>2010-08-29T15:30:33Z</time>
<desc>lat.=56.127281, lon.=26.381062, Alt.=111.747131m. Speed=13.536000m/h.</desc>
<speed>3.760000</speed>
</trkpt>
<trkpt lat="56.127289" lon="26.380999">
<ele>113.217834</ele>
<time>2010-08-29T15:30:34Z</time>
<desc>lat.=56.127289, lon.=26.380999, Alt.=113.217834m. Speed=12.924000m/h.</desc>
<speed>3.590000</speed>
</trkpt>
<trkpt lat="56.127300" lon="26.380938">
<ele>114.586975</ele>
<time>2010-08-29T15:30:35Z</time>
<desc>lat.=56.127300, lon.=26.380938, Alt.=114.586975m. Speed=13.392000m/h.</desc>
<speed>3.720000</speed>
</trkpt>
<trkpt lat="56.127319" lon="26.380880">
<ele>115.467834</ele>
<time>2010-08-29T15:30:36Z</time>
<desc>lat.=56.127319, lon.=26.380880, Alt.=115.467834m. Speed=13.392000m/h.</desc>
<speed>3.720000</speed>
</trkpt>
<trkpt lat="56.127346" lon="26.380829">
<ele>115.467834</ele>
<time>2010-08-29T15:30:37Z</time>
<desc>lat.=56.127346, lon.=26.380829, Alt.=115.467834m. Speed=14.940000m/h.</desc>
<speed>4.150000</speed>
</trkpt>
<trkpt lat="56.127377" lon="26.380781">
<ele>116.336975</ele>
<time>2010-08-29T15:30:38Z</time>
<desc>lat.=56.127377, lon.=26.380781, Alt.=116.336975m. Speed=14.148000m/h.</desc>
<speed>3.930000</speed>
</trkpt>
<trkpt lat="56.127407" lon="26.380718">
<ele>117.251038</ele>
<time>2010-08-29T15:30:39Z</time>
<desc>lat.=56.127407, lon.=26.380718, Alt.=117.251038m. Speed=16.955999m/h.</desc>
<speed>4.710000</speed>
</trkpt>
<trkpt lat="56.127441" lon="26.380644">
<ele>118.680725</ele>
<time>2010-08-29T15:30:40Z</time>
<desc>lat.=56.127441, lon.=26.380644, Alt.=118.680725m. Speed=18.143999m/h.</desc>
<speed>5.040000</speed>
</trkpt>
<trkpt lat="56.127476" lon="26.380577">
<ele>119.256897</ele>
<time>2010-08-29T15:30:41Z</time>
<desc>lat.=56.127476, lon.=26.380577, Alt.=119.256897m. Speed=18.972000m/h.</desc>
<speed>5.270000</speed>
</trkpt>
<trkpt lat="56.127533" lon="26.380529">
<ele>117.085022</ele>
<time>2010-08-29T15:30:42Z</time>
<desc>lat.=56.127533, lon.=26.380529, Alt.=117.085022m. Speed=18.396000m/h.</desc>
<speed>5.110000</speed>
</trkpt>
<trkpt lat="56.127563" lon="26.380468">
<ele>109.245178</ele>
<time>2010-08-29T15:30:43Z</time>
<desc>lat.=56.127563, lon.=26.380468, Alt.=109.245178m. Speed=17.820000m/h.</desc>
<speed>4.950000</speed>
</trkpt>
<trkpt lat="56.127598" lon="26.380413">
<ele>109.081116</ele>
<time>2010-08-29T15:30:44Z</time>
<desc>lat.=56.127598, lon.=26.380413, Alt.=109.081116m. Speed=15.588000m/h.</desc>
<speed>4.330000</speed>
</trkpt>
<trkpt lat="56.127628" lon="26.380358">
<ele>108.167053</ele>
<time>2010-08-29T15:30:45Z</time>
<desc>lat.=56.127628, lon.=26.380358, Alt.=108.167053m. Speed=17.459999m/h.</desc>
<speed>4.850000</speed>
</trkpt>
<trkpt lat="56.127655" lon="26.380301">
<ele>107.706116</ele>
<time>2010-08-29T15:30:46Z</time>
<desc>lat.=56.127655, lon.=26.380301, Alt.=107.706116m. Speed=17.100000m/h.</desc>
<speed>4.750000</speed>
</trkpt>
<trkpt lat="56.127686" lon="26.380245">
<ele>107.428772</ele>
<time>2010-08-29T15:30:47Z</time>
<desc>lat.=56.127686, lon.=26.380245, Alt.=107.428772m. Speed=15.624000m/h.</desc>
<speed>4.340000</speed>
</trkpt>
<trkpt lat="56.127712" lon="26.380192">
<ele>106.549866</ele>
<time>2010-08-29T15:30:48Z</time>
<desc>lat.=56.127712, lon.=26.380192, Alt.=106.549866m. Speed=16.344000m/h.</desc>
<speed>4.540000</speed>
</trkpt>
<trkpt lat="56.127747" lon="26.380146">
<ele>107.053772</ele>
<time>2010-08-29T15:30:49Z</time>
<desc>lat.=56.127747, lon.=26.380146, Alt.=107.053772m. Speed=15.732000m/h.</desc>
<speed>4.370000</speed>
</trkpt>
<trkpt lat="56.127777" lon="26.380102">
<ele>107.340881</ele>
<time>2010-08-29T15:30:50Z</time>
<desc>lat.=56.127777, lon.=26.380102, Alt.=107.340881m. Speed=16.020000m/h.</desc>
<speed>4.450000</speed>
</trkpt>
<trkpt lat="56.127811" lon="26.380056">
<ele>107.747131</ele>
<time>2010-08-29T15:30:51Z</time>
<desc>lat.=56.127811, lon.=26.380056, Alt.=107.747131m. Speed=18.108000m/h.</desc>
<speed>5.030000</speed>
</trkpt>
<trkpt lat="56.127850" lon="26.379999">
<ele>108.235413</ele>
<time>2010-08-29T15:30:52Z</time>
<desc>lat.=56.127850, lon.=26.379999, Alt.=108.235413m. Speed=18.180000m/h.</desc>
<speed>5.050000</speed>
</trkpt>
<trkpt lat="56.127888" lon="26.379938">
<ele>108.713928</ele>
<time>2010-08-29T15:30:53Z</time>
<desc>lat.=56.127888, lon.=26.379938, Alt.=108.713928m. Speed=18.612000m/h.</desc>
<speed>5.170000</speed>
</trkpt>
<trkpt lat="56.127922" lon="26.379881">
<ele>108.586975</ele>
<time>2010-08-29T15:30:54Z</time>
<desc>lat.=56.127922, lon.=26.379881, Alt.=108.586975m. Speed=18.756001m/h.</desc>
<speed>5.210000</speed>
</trkpt>
<trkpt lat="56.127953" lon="26.379818">
<ele>108.417053</ele>
<time>2010-08-29T15:30:55Z</time>
<desc>lat.=56.127953, lon.=26.379818, Alt.=108.417053m. Speed=17.388000m/h.</desc>
<speed>4.830000</speed>
</trkpt>
<trkpt lat="56.127979" lon="26.379757">
<ele>107.901428</ele>
<time>2010-08-29T15:30:56Z</time>
<desc>lat.=56.127979, lon.=26.379757, Alt.=107.901428m. Speed=17.028000m/h.</desc>
<speed>4.730000</speed>
</trkpt>
<trkpt lat="56.128014" lon="26.379696">
<ele>108.202209</ele>
<time>2010-08-29T15:30:57Z</time>
<desc>lat.=56.128014, lon.=26.379696, Alt.=108.202209m. Speed=18.216000m/h.</desc>
<speed>5.060000</speed>
</trkpt>
<trkpt lat="56.128048" lon="26.379646">
<ele>108.225647</ele>
<time>2010-08-29T15:30:58Z</time>
<desc>lat.=56.128048, lon.=26.379646, Alt.=108.225647m. Speed=17.028000m/h.</desc>
<speed>4.730000</speed>
</trkpt>
<trkpt lat="56.128078" lon="26.379595">
<ele>108.280334</ele>
<time>2010-08-29T15:30:59Z</time>
<desc>lat.=56.128078, lon.=26.379595, Alt.=108.280334m. Speed=16.488001m/h.</desc>
<speed>4.580000</speed>
</trkpt>
<trkpt lat="56.128105" lon="26.379549">
<ele>108.602600</ele>
<time>2010-08-29T15:31:00Z</time>
<desc>lat.=56.128105, lon.=26.379549, Alt.=108.602600m. Speed=16.200001m/h.</desc>
<speed>4.500000</speed>
</trkpt>
<trkpt lat="56.128139" lon="26.379496">
<ele>109.268616</ele>
<time>2010-08-29T15:31:01Z</time>
<desc>lat.=56.128139, lon.=26.379496, Alt.=109.268616m. Speed=15.372000m/h.</desc>
<speed>4.270000</speed>
</trkpt>
<trkpt lat="56.128170" lon="26.379435">
<ele>109.856506</ele>
<time>2010-08-29T15:31:02Z</time>
<desc>lat.=56.128170, lon.=26.379435, Alt.=109.856506m. Speed=16.884001m/h.</desc>
<speed>4.690000</speed>
</trkpt>
<trkpt lat="56.128204" lon="26.379375">
<ele>110.260803</ele>
<time>2010-08-29T15:31:03Z</time>
<desc>lat.=56.128204, lon.=26.379375, Alt.=110.260803m. Speed=16.379999m/h.</desc>
<speed>4.550000</speed>
</trkpt>
<trkpt lat="56.128235" lon="26.379316">
<ele>110.801819</ele>
<time>2010-08-29T15:31:04Z</time>
<desc>lat.=56.128235, lon.=26.379316, Alt.=110.801819m. Speed=16.416000m/h.</desc>
<speed>4.560000</speed>
</trkpt>
<trkpt lat="56.128269" lon="26.379257">
<ele>111.825256</ele>
<time>2010-08-29T15:31:05Z</time>
<desc>lat.=56.128269, lon.=26.379257, Alt.=111.825256m. Speed=17.316000m/h.</desc>
<speed>4.810000</speed>
</trkpt>
<trkpt lat="56.128300" lon="26.379202">
<ele>112.149475</ele>
<time>2010-08-29T15:31:06Z</time>
<desc>lat.=56.128300, lon.=26.379202, Alt.=112.149475m. Speed=17.604000m/h.</desc>
<speed>4.890000</speed>
</trkpt>
<trkpt lat="56.128330" lon="26.379147">
<ele>112.086975</ele>
<time>2010-08-29T15:31:07Z</time>
<desc>lat.=56.128330, lon.=26.379147, Alt.=112.086975m. Speed=16.452000m/h.</desc>
<speed>4.570000</speed>
</trkpt>
<trkpt lat="56.128357" lon="26.379093">
<ele>112.102600</ele>
<time>2010-08-29T15:31:08Z</time>
<desc>lat.=56.128357, lon.=26.379093, Alt.=112.102600m. Speed=15.228000m/h.</desc>
<speed>4.230000</speed>
</trkpt>
<trkpt lat="56.128384" lon="26.379053">
<ele>112.045959</ele>
<time>2010-08-29T15:31:09Z</time>
<desc>lat.=56.128384, lon.=26.379053, Alt.=112.045959m. Speed=15.552000m/h.</desc>
<speed>4.320000</speed>
</trkpt>
<trkpt lat="56.128414" lon="26.379002">
<ele>113.016663</ele>
<time>2010-08-29T15:31:10Z</time>
<desc>lat.=56.128414, lon.=26.379002, Alt.=113.016663m. Speed=11.412000m/h.</desc>
<speed>3.170000</speed>
</trkpt>
<trkpt lat="56.128437" lon="26.378960">
<ele>113.208069</ele>
<time>2010-08-29T15:31:11Z</time>
<desc>lat.=56.128437, lon.=26.378960, Alt.=113.208069m. Speed=13.284000m/h.</desc>
<speed>3.690000</speed>
</trkpt>
<trkpt lat="56.128464" lon="26.378918">
<ele>113.612366</ele>
<time>2010-08-29T15:31:12Z</time>
<desc>lat.=56.128464, lon.=26.378918, Alt.=113.612366m. Speed=13.680000m/h.</desc>
<speed>3.800000</speed>
</trkpt>
<trkpt lat="56.128490" lon="26.378880">
<ele>114.141663</ele>
<time>2010-08-29T15:31:13Z</time>
<desc>lat.=56.128490, lon.=26.378880, Alt.=114.141663m. Speed=13.212000m/h.</desc>
<speed>3.670000</speed>
</trkpt>
<trkpt lat="56.128517" lon="26.378841">
<ele>114.813538</ele>
<time>2010-08-29T15:31:14Z</time>
<desc>lat.=56.128517, lon.=26.378841, Alt.=114.813538m. Speed=13.212000m/h.</desc>
<speed>3.670000</speed>
</trkpt>
<trkpt lat="56.128540" lon="26.378803">
<ele>115.241272</ele>
<time>2010-08-29T15:31:15Z</time>
<desc>lat.=56.128540, lon.=26.378803, Alt.=115.241272m. Speed=12.024000m/h.</desc>
<speed>3.340000</speed>
</trkpt>
<trkpt lat="56.128559" lon="26.378767">
<ele>115.815491</ele>
<time>2010-08-29T15:31:16Z</time>
<desc>lat.=56.128559, lon.=26.378767, Alt.=115.815491m. Speed=9.612000m/h.</desc>
<speed>2.670000</speed>
</trkpt>
<trkpt lat="56.128574" lon="26.378735">
<ele>116.331116</ele>
<time>2010-08-29T15:31:17Z</time>
<desc>lat.=56.128574, lon.=26.378735, Alt.=116.331116m. Speed=8.712000m/h.</desc>
<speed>2.420000</speed>
</trkpt>
<trkpt lat="56.128590" lon="26.378702">
<ele>116.745178</ele>
<time>2010-08-29T15:31:18Z</time>
<desc>lat.=56.128590, lon.=26.378702, Alt.=116.745178m. Speed=8.244000m/h.</desc>
<speed>2.290000</speed>
</trkpt>
<trkpt lat="56.128624" lon="26.378633">
<ele>117.004944</ele>
<time>2010-08-29T15:31:19Z</time>
<desc>lat.=56.128624, lon.=26.378633, Alt.=117.004944m. Speed=14.220000m/h.</desc>
<speed>3.950000</speed>
</trkpt>
<trkpt lat="56.128666" lon="26.378553">
<ele>117.247131</ele>
<time>2010-08-29T15:31:20Z</time>
<desc>lat.=56.128666, lon.=26.378553, Alt.=117.247131m. Speed=15.948000m/h.</desc>
<speed>4.430000</speed>
</trkpt>
<trkpt lat="56.128696" lon="26.378506">
<ele>117.770569</ele>
<time>2010-08-29T15:31:21Z</time>
<desc>lat.=56.128696, lon.=26.378506, Alt.=117.770569m. Speed=15.984000m/h.</desc>
<speed>4.440000</speed>
</trkpt>
<trkpt lat="56.128735" lon="26.378448">
<ele>118.368225</ele>
<time>2010-08-29T15:31:22Z</time>
<desc>lat.=56.128735, lon.=26.378448, Alt.=118.368225m. Speed=17.388000m/h.</desc>
<speed>4.830000</speed>
</trkpt>
<trkpt lat="56.128773" lon="26.378387">
<ele>119.124084</ele>
<time>2010-08-29T15:31:23Z</time>
<desc>lat.=56.128773, lon.=26.378387, Alt.=119.124084m. Speed=19.080000m/h.</desc>
<speed>5.300000</speed>
</trkpt>
<trkpt lat="56.128803" lon="26.378328">
<ele>119.307678</ele>
<time>2010-08-29T15:31:24Z</time>
<desc>lat.=56.128803, lon.=26.378328, Alt.=119.307678m. Speed=16.344000m/h.</desc>
<speed>4.540000</speed>
</trkpt>
<trkpt lat="56.128849" lon="26.378244">
<ele>119.737366</ele>
<time>2010-08-29T15:31:25Z</time>
<desc>lat.=56.128849, lon.=26.378244, Alt.=119.737366m. Speed=22.032000m/h.</desc>
<speed>6.120000</speed>
</trkpt>
<trkpt lat="56.128895" lon="26.378157">
<ele>119.930725</ele>
<time>2010-08-29T15:31:26Z</time>
<desc>lat.=56.128895, lon.=26.378157, Alt.=119.930725m. Speed=20.304001m/h.</desc>
<speed>5.640000</speed>
</trkpt>
<trkpt lat="56.128937" lon="26.378078">
<ele>120.155334</ele>
<time>2010-08-29T15:31:27Z</time>
<desc>lat.=56.128937, lon.=26.378078, Alt.=120.155334m. Speed=21.348000m/h.</desc>
<speed>5.930000</speed>
</trkpt>
<trkpt lat="56.128971" lon="26.378014">
<ele>120.512756</ele>
<time>2010-08-29T15:31:28Z</time>
<desc>lat.=56.128971, lon.=26.378014, Alt.=120.512756m. Speed=19.728001m/h.</desc>
<speed>5.480000</speed>
</trkpt>
<trkpt lat="56.129013" lon="26.377941">
<ele>121.045959</ele>
<time>2010-08-29T15:31:29Z</time>
<desc>lat.=56.129013, lon.=26.377941, Alt.=121.045959m. Speed=20.340000m/h.</desc>
<speed>5.650000</speed>
</trkpt>
<trkpt lat="56.129055" lon="26.377869">
<ele>121.551819</ele>
<time>2010-08-29T15:31:30Z</time>
<desc>lat.=56.129055, lon.=26.377869, Alt.=121.551819m. Speed=20.988001m/h.</desc>
<speed>5.830000</speed>
</trkpt>
<trkpt lat="56.129089" lon="26.377792">
<ele>122.143616</ele>
<time>2010-08-29T15:31:31Z</time>
<desc>lat.=56.129089, lon.=26.377792, Alt.=122.143616m. Speed=20.375999m/h.</desc>
<speed>5.660000</speed>
</trkpt>
<trkpt lat="56.129131" lon="26.377708">
<ele>122.540100</ele>
<time>2010-08-29T15:31:32Z</time>
<desc>lat.=56.129131, lon.=26.377708, Alt.=122.540100m. Speed=21.816000m/h.</desc>
<speed>6.060000</speed>
</trkpt>
<trkpt lat="56.129177" lon="26.377615">
<ele>123.426819</ele>
<time>2010-08-29T15:31:33Z</time>
<desc>lat.=56.129177, lon.=26.377615, Alt.=123.426819m. Speed=21.924000m/h.</desc>
<speed>6.090000</speed>
</trkpt>
<trkpt lat="56.129215" lon="26.377544">
<ele>124.172913</ele>
<time>2010-08-29T15:31:34Z</time>
<desc>lat.=56.129215, lon.=26.377544, Alt.=124.172913m. Speed=20.628000m/h.</desc>
<speed>5.730000</speed>
</trkpt>
<trkpt lat="56.129253" lon="26.377481">
<ele>124.362366</ele>
<time>2010-08-29T15:31:35Z</time>
<desc>lat.=56.129253, lon.=26.377481, Alt.=124.362366m. Speed=20.591999m/h.</desc>
<speed>5.720000</speed>
</trkpt>
<trkpt lat="56.129292" lon="26.377411">
<ele>124.860413</ele>
<time>2010-08-29T15:31:36Z</time>
<desc>lat.=56.129292, lon.=26.377411, Alt.=124.860413m. Speed=20.268000m/h.</desc>
<speed>5.630000</speed>
</trkpt>
<trkpt lat="56.129322" lon="26.377337">
<ele>122.770569</ele>
<time>2010-08-29T15:31:37Z</time>
<desc>lat.=56.129322, lon.=26.377337, Alt.=122.770569m. Speed=19.296000m/h.</desc>
<speed>5.360000</speed>
</trkpt>
<trkpt lat="56.129356" lon="26.377260">
<ele>121.469788</ele>
<time>2010-08-29T15:31:38Z</time>
<desc>lat.=56.129356, lon.=26.377260, Alt.=121.469788m. Speed=19.368000m/h.</desc>
<speed>5.380000</speed>
</trkpt>
<trkpt lat="56.129391" lon="26.377176">
<ele>121.661194</ele>
<time>2010-08-29T15:31:39Z</time>
<desc>lat.=56.129391, lon.=26.377176, Alt.=121.661194m. Speed=18.900000m/h.</desc>
<speed>5.250000</speed>
</trkpt>
<trkpt lat="56.129421" lon="26.377102">
<ele>121.973694</ele>
<time>2010-08-29T15:31:40Z</time>
<desc>lat.=56.129421, lon.=26.377102, Alt.=121.973694m. Speed=18.252001m/h.</desc>
<speed>5.070000</speed>
</trkpt>
<trkpt lat="56.129448" lon="26.377039">
<ele>121.719788</ele>
<time>2010-08-29T15:31:41Z</time>
<desc>lat.=56.129448, lon.=26.377039, Alt.=121.719788m. Speed=17.856001m/h.</desc>
<speed>4.960000</speed>
</trkpt>
<trkpt lat="56.129475" lon="26.376972">
<ele>121.473694</ele>
<time>2010-08-29T15:31:42Z</time>
<desc>lat.=56.129475, lon.=26.376972, Alt.=121.473694m. Speed=17.568001m/h.</desc>
<speed>4.880000</speed>
</trkpt>
<trkpt lat="56.129498" lon="26.376900">
<ele>121.028381</ele>
<time>2010-08-29T15:31:43Z</time>
<desc>lat.=56.129498, lon.=26.376900, Alt.=121.028381m. Speed=17.063999m/h.</desc>
<speed>4.740000</speed>
</trkpt>
<trkpt lat="56.129520" lon="26.376831">
<ele>120.465881</ele>
<time>2010-08-29T15:31:44Z</time>
<desc>lat.=56.129520, lon.=26.376831, Alt.=120.465881m. Speed=16.488001m/h.</desc>
<speed>4.580000</speed>
</trkpt>
<trkpt lat="56.129539" lon="26.376772">
<ele>120.079163</ele>
<time>2010-08-29T15:31:45Z</time>
<desc>lat.=56.129539, lon.=26.376772, Alt.=120.079163m. Speed=16.056000m/h.</desc>
<speed>4.460000</speed>
</trkpt>
<trkpt lat="56.129555" lon="26.376711">
<ele>119.544006</ele>
<time>2010-08-29T15:31:46Z</time>
<desc>lat.=56.129555, lon.=26.376711, Alt.=119.544006m. Speed=15.912000m/h.</desc>
<speed>4.420000</speed>
</trkpt>
<trkpt lat="56.129574" lon="26.376654">
<ele>119.354553</ele>
<time>2010-08-29T15:31:47Z</time>
<desc>lat.=56.129574, lon.=26.376654, Alt.=119.354553m. Speed=16.056000m/h.</desc>
<speed>4.460000</speed>
</trkpt>
<trkpt lat="56.129593" lon="26.376591">
<ele>118.987366</ele>
<time>2010-08-29T15:31:48Z</time>
<desc>lat.=56.129593, lon.=26.376591, Alt.=118.987366m. Speed=16.704000m/h.</desc>
<speed>4.640000</speed>
</trkpt>
<trkpt lat="56.129612" lon="26.376526">
<ele>118.563538</ele>
<time>2010-08-29T15:31:49Z</time>
<desc>lat.=56.129612, lon.=26.376526, Alt.=118.563538m. Speed=16.344000m/h.</desc>
<speed>4.540000</speed>
</trkpt>
<trkpt lat="56.129631" lon="26.376461">
<ele>117.909241</ele>
<time>2010-08-29T15:31:50Z</time>
<desc>lat.=56.129631, lon.=26.376461, Alt.=117.909241m. Speed=15.732000m/h.</desc>
<speed>4.370000</speed>
</trkpt>
<trkpt lat="56.129650" lon="26.376406">
<ele>118.272522</ele>
<time>2010-08-29T15:31:51Z</time>
<desc>lat.=56.129650, lon.=26.376406, Alt.=118.272522m. Speed=14.436000m/h.</desc>
<speed>4.010000</speed>
</trkpt>
<trkpt lat="56.129669" lon="26.376350">
<ele>118.676819</ele>
<time>2010-08-29T15:31:52Z</time>
<desc>lat.=56.129669, lon.=26.376350, Alt.=118.676819m. Speed=14.580000m/h.</desc>
<speed>4.050000</speed>
</trkpt>
<trkpt lat="56.129681" lon="26.376293">
<ele>119.055725</ele>
<time>2010-08-29T15:31:53Z</time>
<desc>lat.=56.129681, lon.=26.376293, Alt.=119.055725m. Speed=13.284000m/h.</desc>
<speed>3.690000</speed>
</trkpt>
<trkpt lat="56.129696" lon="26.376236">
<ele>119.303772</ele>
<time>2010-08-29T15:31:54Z</time>
<desc>lat.=56.129696, lon.=26.376236, Alt.=119.303772m. Speed=14.364000m/h.</desc>
<speed>3.990000</speed>
</trkpt>
<trkpt lat="56.129711" lon="26.376171">
<ele>119.565491</ele>
<time>2010-08-29T15:31:55Z</time>
<desc>lat.=56.129711, lon.=26.376171, Alt.=119.565491m. Speed=16.308001m/h.</desc>
<speed>4.530000</speed>
</trkpt>
<trkpt lat="56.129730" lon="26.376095">
<ele>119.911194</ele>
<time>2010-08-29T15:31:56Z</time>
<desc>lat.=56.129730, lon.=26.376095, Alt.=119.911194m. Speed=18.108000m/h.</desc>
<speed>5.030000</speed>
</trkpt>
<trkpt lat="56.129753" lon="26.376028">
<ele>120.211975</ele>
<time>2010-08-29T15:31:57Z</time>
<desc>lat.=56.129753, lon.=26.376028, Alt.=120.211975m. Speed=17.351999m/h.</desc>
<speed>4.820000</speed>
</trkpt>
<trkpt lat="56.129772" lon="26.375971">
<ele>120.530334</ele>
<time>2010-08-29T15:31:58Z</time>
<desc>lat.=56.129772, lon.=26.375971, Alt.=120.530334m. Speed=15.228000m/h.</desc>
<speed>4.230000</speed>
</trkpt>
<trkpt lat="56.129803" lon="26.375902">
<ele>120.764709</ele>
<time>2010-08-29T15:31:59Z</time>
<desc>lat.=56.129803, lon.=26.375902, Alt.=120.764709m. Speed=16.704000m/h.</desc>
<speed>4.640000</speed>
</trkpt>
<trkpt lat="56.129826" lon="26.375839">
<ele>121.165100</ele>
<time>2010-08-29T15:32:00Z</time>
<desc>lat.=56.129826, lon.=26.375839, Alt.=121.165100m. Speed=15.480000m/h.</desc>
<speed>4.300000</speed>
</trkpt>
<trkpt lat="56.129848" lon="26.375774">
<ele>121.336975</ele>
<time>2010-08-29T15:32:01Z</time>
<desc>lat.=56.129848, lon.=26.375774, Alt.=121.336975m. Speed=16.632000m/h.</desc>
<speed>4.620000</speed>
</trkpt>
<trkpt lat="56.129868" lon="26.375708">
<ele>121.868225</ele>
<time>2010-08-29T15:32:02Z</time>
<desc>lat.=56.129868, lon.=26.375708, Alt.=121.868225m. Speed=17.856001m/h.</desc>
<speed>4.960000</speed>
</trkpt>
<trkpt lat="56.129887" lon="26.375637">
<ele>122.239319</ele>
<time>2010-08-29T15:32:03Z</time>
<desc>lat.=56.129887, lon.=26.375637, Alt.=122.239319m. Speed=17.639999m/h.</desc>
<speed>4.900000</speed>
</trkpt>
<trkpt lat="56.129906" lon="26.375563">
<ele>122.721741</ele>
<time>2010-08-29T15:32:04Z</time>
<desc>lat.=56.129906, lon.=26.375563, Alt.=122.721741m. Speed=16.704000m/h.</desc>
<speed>4.640000</speed>
</trkpt>
<trkpt lat="56.129929" lon="26.375494">
<ele>123.055725</ele>
<time>2010-08-29T15:32:05Z</time>
<desc>lat.=56.129929, lon.=26.375494, Alt.=123.055725m. Speed=17.532000m/h.</desc>
<speed>4.870000</speed>
</trkpt>
<trkpt lat="56.129955" lon="26.375397">
<ele>123.379944</ele>
<time>2010-08-29T15:32:06Z</time>
<desc>lat.=56.129955, lon.=26.375397, Alt.=123.379944m. Speed=18.900000m/h.</desc>
<speed>5.250000</speed>
</trkpt>
<trkpt lat="56.129978" lon="26.375292">
<ele>123.481506</ele>
<time>2010-08-29T15:32:07Z</time>
<desc>lat.=56.129978, lon.=26.375292, Alt.=123.481506m. Speed=20.988001m/h.</desc>
<speed>5.830000</speed>
</trkpt>
<trkpt lat="56.129997" lon="26.375195">
<ele>123.618225</ele>
<time>2010-08-29T15:32:08Z</time>
<desc>lat.=56.129997, lon.=26.375195, Alt.=123.618225m. Speed=18.576000m/h.</desc>
<speed>5.160000</speed>
</trkpt>
<trkpt lat="56.130020" lon="26.375101">
<ele>124.178772</ele>
<time>2010-08-29T15:32:09Z</time>
<desc>lat.=56.130020, lon.=26.375101, Alt.=124.178772m. Speed=18.180000m/h.</desc>
<speed>5.050000</speed>
</trkpt>
<trkpt lat="56.130039" lon="26.375000">
<ele>124.358459</ele>
<time>2010-08-29T15:32:10Z</time>
<desc>lat.=56.130039, lon.=26.375000, Alt.=124.358459m. Speed=19.152000m/h.</desc>
<speed>5.320000</speed>
</trkpt>
<trkpt lat="56.130058" lon="26.374908">
<ele>124.340881</ele>
<time>2010-08-29T15:32:11Z</time>
<desc>lat.=56.130058, lon.=26.374908, Alt.=124.340881m. Speed=20.412001m/h.</desc>
<speed>5.670000</speed>
</trkpt>
<trkpt lat="56.130085" lon="26.374834">
<ele>124.639709</ele>
<time>2010-08-29T15:32:12Z</time>
<desc>lat.=56.130085, lon.=26.374834, Alt.=124.639709m. Speed=23.615999m/h.</desc>
<speed>6.560000</speed>
</trkpt>
<trkpt lat="56.130116" lon="26.374750">
<ele>124.626038</ele>
<time>2010-08-29T15:32:13Z</time>
<desc>lat.=56.130116, lon.=26.374750, Alt.=124.626038m. Speed=21.888000m/h.</desc>
<speed>6.080000</speed>
</trkpt>
<trkpt lat="56.130142" lon="26.374672">
<ele>124.547913</ele>
<time>2010-08-29T15:32:14Z</time>
<desc>lat.=56.130142, lon.=26.374672, Alt.=124.547913m. Speed=20.268000m/h.</desc>
<speed>5.630000</speed>
</trkpt>
<trkpt lat="56.130169" lon="26.374596">
<ele>124.877991</ele>
<time>2010-08-29T15:32:15Z</time>
<desc>lat.=56.130169, lon.=26.374596, Alt.=124.877991m. Speed=18.719999m/h.</desc>
<speed>5.200000</speed>
</trkpt>
<trkpt lat="56.130188" lon="26.374516">
<ele>124.762756</ele>
<time>2010-08-29T15:32:16Z</time>
<desc>lat.=56.130188, lon.=26.374516, Alt.=124.762756m. Speed=20.195999m/h.</desc>
<speed>5.610000</speed>
</trkpt>
<trkpt lat="56.130222" lon="26.374434">
<ele>124.602600</ele>
<time>2010-08-29T15:32:17Z</time>
<desc>lat.=56.130222, lon.=26.374434, Alt.=124.602600m. Speed=20.087999m/h.</desc>
<speed>5.580000</speed>
</trkpt>
<trkpt lat="56.130249" lon="26.374365">
<ele>123.192444</ele>
<time>2010-08-29T15:32:18Z</time>
<desc>lat.=56.130249, lon.=26.374365, Alt.=123.192444m. Speed=18.792000m/h.</desc>
<speed>5.220000</speed>
</trkpt>
<trkpt lat="56.130276" lon="26.374287">
<ele>122.794006</ele>
<time>2010-08-29T15:32:19Z</time>
<desc>lat.=56.130276, lon.=26.374287, Alt.=122.794006m. Speed=18.360001m/h.</desc>
<speed>5.100000</speed>
</trkpt>
<trkpt lat="56.130310" lon="26.374210">
<ele>122.856506</ele>
<time>2010-08-29T15:32:20Z</time>
<desc>lat.=56.130310, lon.=26.374210, Alt.=122.856506m. Speed=17.927999m/h.</desc>
<speed>4.980000</speed>
</trkpt>
<trkpt lat="56.130337" lon="26.374151">
<ele>123.463928</ele>
<time>2010-08-29T15:32:21Z</time>
<desc>lat.=56.130337, lon.=26.374151, Alt.=123.463928m. Speed=16.740000m/h.</desc>
<speed>4.650000</speed>
</trkpt>
<trkpt lat="56.130367" lon="26.374088">
<ele>124.004944</ele>
<time>2010-08-29T15:32:22Z</time>
<desc>lat.=56.130367, lon.=26.374088, Alt.=124.004944m. Speed=18.072001m/h.</desc>
<speed>5.020000</speed>
</trkpt>
<trkpt lat="56.130398" lon="26.374031">
<ele>124.215881</ele>
<time>2010-08-29T15:32:23Z</time>
<desc>lat.=56.130398, lon.=26.374031, Alt.=124.215881m. Speed=18.719999m/h.</desc>
<speed>5.200000</speed>
</trkpt>
<trkpt lat="56.130428" lon="26.373970">
<ele>123.993225</ele>
<time>2010-08-29T15:32:24Z</time>
<desc>lat.=56.130428, lon.=26.373970, Alt.=123.993225m. Speed=19.944000m/h.</desc>
<speed>5.540000</speed>
</trkpt>
<trkpt lat="56.130466" lon="26.373899">
<ele>123.751038</ele>
<time>2010-08-29T15:32:25Z</time>
<desc>lat.=56.130466, lon.=26.373899, Alt.=123.751038m. Speed=21.888000m/h.</desc>
<speed>6.080000</speed>
</trkpt>
<trkpt lat="56.130501" lon="26.373825">
<ele>123.856506</ele>
<time>2010-08-29T15:32:26Z</time>
<desc>lat.=56.130501, lon.=26.373825, Alt.=123.856506m. Speed=22.284000m/h.</desc>
<speed>6.190000</speed>
</trkpt>
<trkpt lat="56.130535" lon="26.373753">
<ele>123.899475</ele>
<time>2010-08-29T15:32:27Z</time>
<desc>lat.=56.130535, lon.=26.373753, Alt.=123.899475m. Speed=20.879999m/h.</desc>
<speed>5.800000</speed>
</trkpt>
<trkpt lat="56.130569" lon="26.373680">
<ele>123.975647</ele>
<time>2010-08-29T15:32:28Z</time>
<desc>lat.=56.130569, lon.=26.373680, Alt.=123.975647m. Speed=21.348000m/h.</desc>
<speed>5.930000</speed>
</trkpt>
<trkpt lat="56.130604" lon="26.373615">
<ele>124.075256</ele>
<time>2010-08-29T15:32:29Z</time>
<desc>lat.=56.130604, lon.=26.373615, Alt.=124.075256m. Speed=20.232000m/h.</desc>
<speed>5.620000</speed>
</trkpt>
<trkpt lat="56.130638" lon="26.373552">
<ele>124.231506</ele>
<time>2010-08-29T15:32:30Z</time>
<desc>lat.=56.130638, lon.=26.373552, Alt.=124.231506m. Speed=19.332001m/h.</desc>
<speed>5.370000</speed>
</trkpt>
<trkpt lat="56.130672" lon="26.373493">
<ele>124.239319</ele>
<time>2010-08-29T15:32:31Z</time>
<desc>lat.=56.130672, lon.=26.373493, Alt.=124.239319m. Speed=18.756001m/h.</desc>
<speed>5.210000</speed>
</trkpt>
<trkpt lat="56.130707" lon="26.373425">
<ele>124.532288</ele>
<time>2010-08-29T15:32:32Z</time>
<desc>lat.=56.130707, lon.=26.373425, Alt.=124.532288m. Speed=18.431999m/h.</desc>
<speed>5.120000</speed>
</trkpt>
<trkpt lat="56.130741" lon="26.373360">
<ele>124.676819</ele>
<time>2010-08-29T15:32:33Z</time>
<desc>lat.=56.130741, lon.=26.373360, Alt.=124.676819m. Speed=18.936001m/h.</desc>
<speed>5.260000</speed>
</trkpt>
<trkpt lat="56.130768" lon="26.373285">
<ele>124.172913</ele>
<time>2010-08-29T15:32:34Z</time>
<desc>lat.=56.130768, lon.=26.373285, Alt.=124.172913m. Speed=20.556000m/h.</desc>
<speed>5.710000</speed>
</trkpt>
<trkpt lat="56.130795" lon="26.373192">
<ele>124.243225</ele>
<time>2010-08-29T15:32:35Z</time>
<desc>lat.=56.130795, lon.=26.373192, Alt.=124.243225m. Speed=20.232000m/h.</desc>
<speed>5.620000</speed>
</trkpt>
<trkpt lat="56.130829" lon="26.373135">
<ele>124.723694</ele>
<time>2010-08-29T15:32:36Z</time>
<desc>lat.=56.130829, lon.=26.373135, Alt.=124.723694m. Speed=20.844000m/h.</desc>
<speed>5.790000</speed>
</trkpt>
<trkpt lat="56.130863" lon="26.373068">
<ele>124.817444</ele>
<time>2010-08-29T15:32:37Z</time>
<desc>lat.=56.130863, lon.=26.373068, Alt.=124.817444m. Speed=20.340000m/h.</desc>
<speed>5.650000</speed>
</trkpt>
<trkpt lat="56.130894" lon="26.373009">
<ele>124.844788</ele>
<time>2010-08-29T15:32:38Z</time>
<desc>lat.=56.130894, lon.=26.373009, Alt.=124.844788m. Speed=18.431999m/h.</desc>
<speed>5.120000</speed>
</trkpt>
<trkpt lat="56.130928" lon="26.372950">
<ele>124.643616</ele>
<time>2010-08-29T15:32:39Z</time>
<desc>lat.=56.130928, lon.=26.372950, Alt.=124.643616m. Speed=18.612000m/h.</desc>
<speed>5.170000</speed>
</trkpt>
<trkpt lat="56.130962" lon="26.372868">
<ele>124.792053</ele>
<time>2010-08-29T15:32:40Z</time>
<desc>lat.=56.130962, lon.=26.372868, Alt.=124.792053m. Speed=19.872000m/h.</desc>
<speed>5.520000</speed>
</trkpt>
<trkpt lat="56.131001" lon="26.372772">
<ele>124.372131</ele>
<time>2010-08-29T15:32:41Z</time>
<desc>lat.=56.131001, lon.=26.372772, Alt.=124.372131m. Speed=22.104000m/h.</desc>
<speed>6.140000</speed>
</trkpt>
<trkpt lat="56.131039" lon="26.372671">
<ele>124.481506</ele>
<time>2010-08-29T15:32:42Z</time>
<desc>lat.=56.131039, lon.=26.372671, Alt.=124.481506m. Speed=22.752001m/h.</desc>
<speed>6.320000</speed>
</trkpt>
<trkpt lat="56.131077" lon="26.372595">
<ele>124.749084</ele>
<time>2010-08-29T15:32:43Z</time>
<desc>lat.=56.131077, lon.=26.372595, Alt.=124.749084m. Speed=21.420000m/h.</desc>
<speed>5.950000</speed>
</trkpt>
<trkpt lat="56.131126" lon="26.372515">
<ele>124.108459</ele>
<time>2010-08-29T15:32:44Z</time>
<desc>lat.=56.131126, lon.=26.372515, Alt.=124.108459m. Speed=21.275999m/h.</desc>
<speed>5.910000</speed>
</trkpt>
<trkpt lat="56.131165" lon="26.372442">
<ele>124.042053</ele>
<time>2010-08-29T15:32:45Z</time>
<desc>lat.=56.131165, lon.=26.372442, Alt.=124.042053m. Speed=20.700001m/h.</desc>
<speed>5.750000</speed>
</trkpt>
<trkpt lat="56.131203" lon="26.372374">
<ele>123.627991</ele>
<time>2010-08-29T15:32:46Z</time>
<desc>lat.=56.131203, lon.=26.372374, Alt.=123.627991m. Speed=19.980000m/h.</desc>
<speed>5.550000</speed>
</trkpt>
<trkpt lat="56.131237" lon="26.372311">
<ele>123.520569</ele>
<time>2010-08-29T15:32:47Z</time>
<desc>lat.=56.131237, lon.=26.372311, Alt.=123.520569m. Speed=19.368000m/h.</desc>
<speed>5.380000</speed>
</trkpt>
<trkpt lat="56.131268" lon="26.372236">
<ele>123.657288</ele>
<time>2010-08-29T15:32:48Z</time>
<desc>lat.=56.131268, lon.=26.372236, Alt.=123.657288m. Speed=19.224001m/h.</desc>
<speed>5.340000</speed>
</trkpt>
<trkpt lat="56.131302" lon="26.372162">
<ele>123.657288</ele>
<time>2010-08-29T15:32:49Z</time>
<desc>lat.=56.131302, lon.=26.372162, Alt.=123.657288m. Speed=19.728001m/h.</desc>
<speed>5.480000</speed>
</trkpt>
<trkpt lat="56.131332" lon="26.372097">
<ele>123.432678</ele>
<time>2010-08-29T15:32:50Z</time>
<desc>lat.=56.131332, lon.=26.372097, Alt.=123.432678m. Speed=21.528000m/h.</desc>
<speed>5.980000</speed>
</trkpt>
<trkpt lat="56.131371" lon="26.372021">
<ele>123.338928</ele>
<time>2010-08-29T15:32:51Z</time>
<desc>lat.=56.131371, lon.=26.372021, Alt.=123.338928m. Speed=21.743999m/h.</desc>
<speed>6.040000</speed>
</trkpt>
<trkpt lat="56.131413" lon="26.371950">
<ele>123.729553</ele>
<time>2010-08-29T15:32:52Z</time>
<desc>lat.=56.131413, lon.=26.371950, Alt.=123.729553m. Speed=22.392000m/h.</desc>
<speed>6.220000</speed>
</trkpt>
<trkpt lat="56.131454" lon="26.371876">
<ele>123.606506</ele>
<time>2010-08-29T15:32:53Z</time>
<desc>lat.=56.131454, lon.=26.371876, Alt.=123.606506m. Speed=22.247999m/h.</desc>
<speed>6.180000</speed>
</trkpt>
<trkpt lat="56.131493" lon="26.371803">
<ele>123.313538</ele>
<time>2010-08-29T15:32:54Z</time>
<desc>lat.=56.131493, lon.=26.371803, Alt.=123.313538m. Speed=22.212000m/h.</desc>
<speed>6.170000</speed>
</trkpt>
<trkpt lat="56.131527" lon="26.371733">
<ele>122.936584</ele>
<time>2010-08-29T15:32:55Z</time>
<desc>lat.=56.131527, lon.=26.371733, Alt.=122.936584m. Speed=21.204000m/h.</desc>
<speed>5.890000</speed>
</trkpt>
<trkpt lat="56.131565" lon="26.371674">
<ele>122.411194</ele>
<time>2010-08-29T15:32:56Z</time>
<desc>lat.=56.131565, lon.=26.371674, Alt.=122.411194m. Speed=21.528000m/h.</desc>
<speed>5.980000</speed>
</trkpt>
<trkpt lat="56.131603" lon="26.371597">
<ele>121.752991</ele>
<time>2010-08-29T15:32:57Z</time>
<desc>lat.=56.131603, lon.=26.371597, Alt.=121.752991m. Speed=20.988001m/h.</desc>
<speed>5.830000</speed>
</trkpt>
<trkpt lat="56.131638" lon="26.371515">
<ele>121.200256</ele>
<time>2010-08-29T15:32:58Z</time>
<desc>lat.=56.131638, lon.=26.371515, Alt.=121.200256m. Speed=20.052000m/h.</desc>
<speed>5.570000</speed>
</trkpt>
<trkpt lat="56.131676" lon="26.371452">
<ele>122.057678</ele>
<time>2010-08-29T15:32:59Z</time>
<desc>lat.=56.131676, lon.=26.371452, Alt.=122.057678m. Speed=20.087999m/h.</desc>
<speed>5.580000</speed>
</trkpt>
<trkpt lat="56.131710" lon="26.371384">
<ele>122.317444</ele>
<time>2010-08-29T15:33:00Z</time>
<desc>lat.=56.131710, lon.=26.371384, Alt.=122.317444m. Speed=19.260000m/h.</desc>
<speed>5.350000</speed>
</trkpt>
<trkpt lat="56.131741" lon="26.371298">
<ele>121.309631</ele>
<time>2010-08-29T15:33:01Z</time>
<desc>lat.=56.131741, lon.=26.371298, Alt.=121.309631m. Speed=20.160000m/h.</desc>
<speed>5.600000</speed>
</trkpt>
<trkpt lat="56.131771" lon="26.371216">
<ele>120.387756</ele>
<time>2010-08-29T15:33:02Z</time>
<desc>lat.=56.131771, lon.=26.371216, Alt.=120.387756m. Speed=20.556000m/h.</desc>
<speed>5.710000</speed>
</trkpt>
<trkpt lat="56.131805" lon="26.371151">
<ele>119.452209</ele>
<time>2010-08-29T15:33:03Z</time>
<desc>lat.=56.131805, lon.=26.371151, Alt.=119.452209m. Speed=19.224001m/h.</desc>
<speed>5.340000</speed>
</trkpt>
<trkpt lat="56.131840" lon="26.371077">
<ele>118.471741</ele>
<time>2010-08-29T15:33:04Z</time>
<desc>lat.=56.131840, lon.=26.371077, Alt.=118.471741m. Speed=21.204000m/h.</desc>
<speed>5.890000</speed>
</trkpt>
<trkpt lat="56.131874" lon="26.371006">
<ele>118.102600</ele>
<time>2010-08-29T15:33:05Z</time>
<desc>lat.=56.131874, lon.=26.371006, Alt.=118.102600m. Speed=20.664000m/h.</desc>
<speed>5.740000</speed>
</trkpt>
<trkpt lat="56.131908" lon="26.370937">
<ele>118.876038</ele>
<time>2010-08-29T15:33:06Z</time>
<desc>lat.=56.131908, lon.=26.370937, Alt.=118.876038m. Speed=20.844000m/h.</desc>
<speed>5.790000</speed>
</trkpt>
<trkpt lat="56.131947" lon="26.370867">
<ele>118.467834</ele>
<time>2010-08-29T15:33:07Z</time>
<desc>lat.=56.131947, lon.=26.370867, Alt.=118.467834m. Speed=23.112000m/h.</desc>
<speed>6.420000</speed>
</trkpt>
<trkpt lat="56.131985" lon="26.370790">
<ele>117.629944</ele>
<time>2010-08-29T15:33:08Z</time>
<desc>lat.=56.131985, lon.=26.370790, Alt.=117.629944m. Speed=21.996000m/h.</desc>
<speed>6.110000</speed>
</trkpt>
<trkpt lat="56.132023" lon="26.370716">
<ele>117.393616</ele>
<time>2010-08-29T15:33:09Z</time>
<desc>lat.=56.132023, lon.=26.370716, Alt.=117.393616m. Speed=22.752001m/h.</desc>
<speed>6.320000</speed>
</trkpt>
<trkpt lat="56.132061" lon="26.370636">
<ele>117.524475</ele>
<time>2010-08-29T15:33:10Z</time>
<desc>lat.=56.132061, lon.=26.370636, Alt.=117.524475m. Speed=22.427999m/h.</desc>
<speed>6.230000</speed>
</trkpt>
<trkpt lat="56.132099" lon="26.370560">
<ele>117.864319</ele>
<time>2010-08-29T15:33:11Z</time>
<desc>lat.=56.132099, lon.=26.370560, Alt.=117.864319m. Speed=21.384001m/h.</desc>
<speed>5.940000</speed>
</trkpt>
<trkpt lat="56.132133" lon="26.370483">
<ele>118.026428</ele>
<time>2010-08-29T15:33:12Z</time>
<desc>lat.=56.132133, lon.=26.370483, Alt.=118.026428m. Speed=20.340000m/h.</desc>
<speed>5.650000</speed>
</trkpt>
<trkpt lat="56.132168" lon="26.370424">
<ele>118.256897</ele>
<time>2010-08-29T15:33:13Z</time>
<desc>lat.=56.132168, lon.=26.370424, Alt.=118.256897m. Speed=19.332001m/h.</desc>
<speed>5.370000</speed>
</trkpt>
<trkpt lat="56.132198" lon="26.370361">
<ele>117.635803</ele>
<time>2010-08-29T15:33:14Z</time>
<desc>lat.=56.132198, lon.=26.370361, Alt.=117.635803m. Speed=19.007999m/h.</desc>
<speed>5.280000</speed>
</trkpt>
<trkpt lat="56.132233" lon="26.370289">
<ele>117.045959</ele>
<time>2010-08-29T15:33:15Z</time>
<desc>lat.=56.132233, lon.=26.370289, Alt.=117.045959m. Speed=20.340000m/h.</desc>
<speed>5.650000</speed>
</trkpt>
<trkpt lat="56.132263" lon="26.370228">
<ele>117.020569</ele>
<time>2010-08-29T15:33:16Z</time>
<desc>lat.=56.132263, lon.=26.370228, Alt.=117.020569m. Speed=20.195999m/h.</desc>
<speed>5.610000</speed>
</trkpt>
<trkpt lat="56.132298" lon="26.370161">
<ele>116.776428</ele>
<time>2010-08-29T15:33:17Z</time>
<desc>lat.=56.132298, lon.=26.370161, Alt.=116.776428m. Speed=20.771999m/h.</desc>
<speed>5.770000</speed>
</trkpt>
<trkpt lat="56.132332" lon="26.370092">
<ele>117.348694</ele>
<time>2010-08-29T15:33:18Z</time>
<desc>lat.=56.132332, lon.=26.370092, Alt.=117.348694m. Speed=21.600000m/h.</desc>
<speed>6.000000</speed>
</trkpt>
<trkpt lat="56.132374" lon="26.370022">
<ele>117.393616</ele>
<time>2010-08-29T15:33:19Z</time>
<desc>lat.=56.132374, lon.=26.370022, Alt.=117.393616m. Speed=23.472000m/h.</desc>
<speed>6.520000</speed>
</trkpt>
<trkpt lat="56.132412" lon="26.369953">
<ele>117.020569</ele>
<time>2010-08-29T15:33:20Z</time>
<desc>lat.=56.132412, lon.=26.369953, Alt.=117.020569m. Speed=23.184000m/h.</desc>
<speed>6.440000</speed>
</trkpt>
<trkpt lat="56.132450" lon="26.369873">
<ele>116.672913</ele>
<time>2010-08-29T15:33:21Z</time>
<desc>lat.=56.132450, lon.=26.369873, Alt.=116.672913m. Speed=22.968000m/h.</desc>
<speed>6.380000</speed>
</trkpt>
<trkpt lat="56.132484" lon="26.369795">
<ele>116.286194</ele>
<time>2010-08-29T15:33:22Z</time>
<desc>lat.=56.132484, lon.=26.369795, Alt.=116.286194m. Speed=22.823999m/h.</desc>
<speed>6.340000</speed>
</trkpt>
<trkpt lat="56.132523" lon="26.369715">
<ele>116.422913</ele>
<time>2010-08-29T15:33:23Z</time>
<desc>lat.=56.132523, lon.=26.369715, Alt.=116.422913m. Speed=23.112000m/h.</desc>
<speed>6.420000</speed>
</trkpt>
<trkpt lat="56.132561" lon="26.369631">
<ele>116.737366</ele>
<time>2010-08-29T15:33:24Z</time>
<desc>lat.=56.132561, lon.=26.369631, Alt.=116.737366m. Speed=21.888000m/h.</desc>
<speed>6.080000</speed>
</trkpt>
<trkpt lat="56.132603" lon="26.369558">
<ele>117.379944</ele>
<time>2010-08-29T15:33:25Z</time>
<desc>lat.=56.132603, lon.=26.369558, Alt.=117.379944m. Speed=20.412001m/h.</desc>
<speed>5.670000</speed>
</trkpt>
<trkpt lat="56.132633" lon="26.369478">
<ele>118.711975</ele>
<time>2010-08-29T15:33:26Z</time>
<desc>lat.=56.132633, lon.=26.369478, Alt.=118.711975m. Speed=20.700001m/h.</desc>
<speed>5.750000</speed>
</trkpt>
<trkpt lat="56.132664" lon="26.369408">
<ele>118.704163</ele>
<time>2010-08-29T15:33:27Z</time>
<desc>lat.=56.132664, lon.=26.369408, Alt.=118.704163m. Speed=19.620001m/h.</desc>
<speed>5.450000</speed>
</trkpt>
<trkpt lat="56.132690" lon="26.369339">
<ele>117.717834</ele>
<time>2010-08-29T15:33:28Z</time>
<desc>lat.=56.132690, lon.=26.369339, Alt.=117.717834m. Speed=20.448000m/h.</desc>
<speed>5.680000</speed>
</trkpt>
<trkpt lat="56.132721" lon="26.369276">
<ele>120.604553</ele>
<time>2010-08-29T15:33:29Z</time>
<desc>lat.=56.132721, lon.=26.369276, Alt.=120.604553m. Speed=19.836000m/h.</desc>
<speed>5.510000</speed>
</trkpt>
<trkpt lat="56.132755" lon="26.369209">
<ele>120.604553</ele>
<time>2010-08-29T15:33:30Z</time>
<desc>lat.=56.132755, lon.=26.369209, Alt.=120.604553m. Speed=20.304001m/h.</desc>
<speed>5.640000</speed>
</trkpt>
<trkpt lat="56.132790" lon="26.369144">
<ele>120.864319</ele>
<time>2010-08-29T15:33:31Z</time>
<desc>lat.=56.132790, lon.=26.369144, Alt.=120.864319m. Speed=20.375999m/h.</desc>
<speed>5.660000</speed>
</trkpt>
<trkpt lat="56.132828" lon="26.369076">
<ele>121.776428</ele>
<time>2010-08-29T15:33:32Z</time>
<desc>lat.=56.132828, lon.=26.369076, Alt.=121.776428m. Speed=20.700001m/h.</desc>
<speed>5.750000</speed>
</trkpt>
<trkpt lat="56.132862" lon="26.369005">
<ele>121.692444</ele>
<time>2010-08-29T15:33:33Z</time>
<desc>lat.=56.132862, lon.=26.369005, Alt.=121.692444m. Speed=20.664000m/h.</desc>
<speed>5.740000</speed>
</trkpt>
<trkpt lat="56.132904" lon="26.368931">
<ele>121.743225</ele>
<time>2010-08-29T15:33:34Z</time>
<desc>lat.=56.132904, lon.=26.368931, Alt.=121.743225m. Speed=21.563999m/h.</desc>
<speed>5.990000</speed>
</trkpt>
<trkpt lat="56.132938" lon="26.368851">
<ele>122.542053</ele>
<time>2010-08-29T15:33:35Z</time>
<desc>lat.=56.132938, lon.=26.368851, Alt.=122.542053m. Speed=20.844000m/h.</desc>
<speed>5.790000</speed>
</trkpt>
<trkpt lat="56.132973" lon="26.368780">
<ele>123.071350</ele>
<time>2010-08-29T15:33:36Z</time>
<desc>lat.=56.132973, lon.=26.368780, Alt.=123.071350m. Speed=19.296000m/h.</desc>
<speed>5.360000</speed>
</trkpt>
<trkpt lat="56.133003" lon="26.368713">
<ele>123.086975</ele>
<time>2010-08-29T15:33:37Z</time>
<desc>lat.=56.133003, lon.=26.368713, Alt.=123.086975m. Speed=18.864000m/h.</desc>
<speed>5.240000</speed>
</trkpt>
<trkpt lat="56.133038" lon="26.368652">
<ele>123.629944</ele>
<time>2010-08-29T15:33:38Z</time>
<desc>lat.=56.133038, lon.=26.368652, Alt.=123.629944m. Speed=18.143999m/h.</desc>
<speed>5.040000</speed>
</trkpt>
<trkpt lat="56.133064" lon="26.368593">
<ele>123.565491</ele>
<time>2010-08-29T15:33:39Z</time>
<desc>lat.=56.133064, lon.=26.368593, Alt.=123.565491m. Speed=17.280001m/h.</desc>
<speed>4.800000</speed>
</trkpt>
<trkpt lat="56.133095" lon="26.368538">
<ele>124.889709</ele>
<time>2010-08-29T15:33:40Z</time>
<desc>lat.=56.133095, lon.=26.368538, Alt.=124.889709m. Speed=16.452000m/h.</desc>
<speed>4.570000</speed>
</trkpt>
<trkpt lat="56.133125" lon="26.368486">
<ele>126.374084</ele>
<time>2010-08-29T15:33:41Z</time>
<desc>lat.=56.133125, lon.=26.368486, Alt.=126.374084m. Speed=17.243999m/h.</desc>
<speed>4.790000</speed>
</trkpt>
<trkpt lat="56.133152" lon="26.368427">
<ele>127.190491</ele>
<time>2010-08-29T15:33:42Z</time>
<desc>lat.=56.133152, lon.=26.368427, Alt.=127.190491m. Speed=18.216000m/h.</desc>
<speed>5.060000</speed>
</trkpt>
<trkpt lat="56.133190" lon="26.368362">
<ele>125.790100</ele>
<time>2010-08-29T15:33:43Z</time>
<desc>lat.=56.133190, lon.=26.368362, Alt.=125.790100m. Speed=19.296000m/h.</desc>
<speed>5.360000</speed>
</trkpt>
<trkpt lat="56.133228" lon="26.368296">
<ele>125.567444</ele>
<time>2010-08-29T15:33:44Z</time>
<desc>lat.=56.133228, lon.=26.368296, Alt.=125.567444m. Speed=18.719999m/h.</desc>
<speed>5.200000</speed>
</trkpt>
<trkpt lat="56.133247" lon="26.368235">
<ele>126.680725</ele>
<time>2010-08-29T15:33:45Z</time>
<desc>lat.=56.133247, lon.=26.368235, Alt.=126.680725m. Speed=14.580000m/h.</desc>
<speed>4.050000</speed>
</trkpt>
<trkpt lat="56.133270" lon="26.368170">
<ele>126.821350</ele>
<time>2010-08-29T15:33:46Z</time>
<desc>lat.=56.133270, lon.=26.368170, Alt.=126.821350m. Speed=18.360001m/h.</desc>
<speed>5.100000</speed>
</trkpt>
<trkpt lat="56.133305" lon="26.368099">
<ele>126.928772</ele>
<time>2010-08-29T15:33:47Z</time>
<desc>lat.=56.133305, lon.=26.368099, Alt.=126.928772m. Speed=19.511999m/h.</desc>
<speed>5.420000</speed>
</trkpt>
<trkpt lat="56.133339" lon="26.368023">
<ele>126.667053</ele>
<time>2010-08-29T15:33:48Z</time>
<desc>lat.=56.133339, lon.=26.368023, Alt.=126.667053m. Speed=22.427999m/h.</desc>
<speed>6.230000</speed>
</trkpt>
<trkpt lat="56.133377" lon="26.367950">
<ele>127.067444</ele>
<time>2010-08-29T15:33:49Z</time>
<desc>lat.=56.133377, lon.=26.367950, Alt.=127.067444m. Speed=20.340000m/h.</desc>
<speed>5.650000</speed>
</trkpt>
<trkpt lat="56.133411" lon="26.367880">
<ele>127.210022</ele>
<time>2010-08-29T15:33:50Z</time>
<desc>lat.=56.133411, lon.=26.367880, Alt.=127.210022m. Speed=20.304001m/h.</desc>
<speed>5.640000</speed>
</trkpt>
<trkpt lat="56.133450" lon="26.367813">
<ele>126.350647</ele>
<time>2010-08-29T15:33:51Z</time>
<desc>lat.=56.133450, lon.=26.367813, Alt.=126.350647m. Speed=18.972000m/h.</desc>
<speed>5.270000</speed>
</trkpt>
<trkpt lat="56.133484" lon="26.367750">
<ele>125.124084</ele>
<time>2010-08-29T15:33:52Z</time>
<desc>lat.=56.133484, lon.=26.367750, Alt.=125.124084m. Speed=19.260000m/h.</desc>
<speed>5.350000</speed>
</trkpt>
<trkpt lat="56.133518" lon="26.367691">
<ele>123.864319</ele>
<time>2010-08-29T15:33:53Z</time>
<desc>lat.=56.133518, lon.=26.367691, Alt.=123.864319m. Speed=17.820000m/h.</desc>
<speed>4.950000</speed>
</trkpt>
<trkpt lat="56.133549" lon="26.367643">
<ele>124.553772</ele>
<time>2010-08-29T15:33:54Z</time>
<desc>lat.=56.133549, lon.=26.367643, Alt.=124.553772m. Speed=13.824000m/h.</desc>
<speed>3.840000</speed>
</trkpt>
<trkpt lat="56.133579" lon="26.367592">
<ele>124.704163</ele>
<time>2010-08-29T15:33:55Z</time>
<desc>lat.=56.133579, lon.=26.367592, Alt.=124.704163m. Speed=18.108000m/h.</desc>
<speed>5.030000</speed>
</trkpt>
<trkpt lat="56.133606" lon="26.367533">
<ele>124.961975</ele>
<time>2010-08-29T15:33:56Z</time>
<desc>lat.=56.133606, lon.=26.367533, Alt.=124.961975m. Speed=15.156000m/h.</desc>
<speed>4.210000</speed>
</trkpt>
<trkpt lat="56.133633" lon="26.367479">
<ele>124.393616</ele>
<time>2010-08-29T15:33:57Z</time>
<desc>lat.=56.133633, lon.=26.367479, Alt.=124.393616m. Speed=15.948000m/h.</desc>
<speed>4.430000</speed>
</trkpt>
<trkpt lat="56.133659" lon="26.367416">
<ele>122.983459</ele>
<time>2010-08-29T15:33:58Z</time>
<desc>lat.=56.133659, lon.=26.367416, Alt.=122.983459m. Speed=17.280001m/h.</desc>
<speed>4.800000</speed>
</trkpt>
<trkpt lat="56.133701" lon="26.367344">
<ele>123.200256</ele>
<time>2010-08-29T15:33:59Z</time>
<desc>lat.=56.133701, lon.=26.367344, Alt.=123.200256m. Speed=17.388000m/h.</desc>
<speed>4.830000</speed>
</trkpt>
<trkpt lat="56.133739" lon="26.367270">
<ele>123.577209</ele>
<time>2010-08-29T15:34:00Z</time>
<desc>lat.=56.133739, lon.=26.367270, Alt.=123.577209m. Speed=18.143999m/h.</desc>
<speed>5.040000</speed>
</trkpt>
<trkpt lat="56.133766" lon="26.367197">
<ele>121.856506</ele>
<time>2010-08-29T15:34:01Z</time>
<desc>lat.=56.133766, lon.=26.367197, Alt.=121.856506m. Speed=19.764000m/h.</desc>
<speed>5.490000</speed>
</trkpt>
<trkpt lat="56.133793" lon="26.367134">
<ele>121.381897</ele>
<time>2010-08-29T15:34:02Z</time>
<desc>lat.=56.133793, lon.=26.367134, Alt.=121.381897m. Speed=16.775999m/h.</desc>
<speed>4.660000</speed>
</trkpt>
<trkpt lat="56.133820" lon="26.367079">
<ele>121.276428</ele>
<time>2010-08-29T15:34:03Z</time>
<desc>lat.=56.133820, lon.=26.367079, Alt.=121.276428m. Speed=14.832000m/h.</desc>
<speed>4.120000</speed>
</trkpt>
<trkpt lat="56.133858" lon="26.367002">
<ele>121.659241</ele>
<time>2010-08-29T15:34:04Z</time>
<desc>lat.=56.133858, lon.=26.367002, Alt.=121.659241m. Speed=18.035999m/h.</desc>
<speed>5.010000</speed>
</trkpt>
<trkpt lat="56.133884" lon="26.366940">
<ele>121.467834</ele>
<time>2010-08-29T15:34:05Z</time>
<desc>lat.=56.133884, lon.=26.366940, Alt.=121.467834m. Speed=16.452000m/h.</desc>
<speed>4.570000</speed>
</trkpt>
<trkpt lat="56.133911" lon="26.366877">
<ele>121.397522</ele>
<time>2010-08-29T15:34:06Z</time>
<desc>lat.=56.133911, lon.=26.366877, Alt.=121.397522m. Speed=15.444000m/h.</desc>
<speed>4.290000</speed>
</trkpt>
<trkpt lat="56.133938" lon="26.366806">
<ele>121.385803</ele>
<time>2010-08-29T15:34:07Z</time>
<desc>lat.=56.133938, lon.=26.366806, Alt.=121.385803m. Speed=14.976000m/h.</desc>
<speed>4.160000</speed>
</trkpt>
<trkpt lat="56.133961" lon="26.366747">
<ele>121.219788</ele>
<time>2010-08-29T15:34:08Z</time>
<desc>lat.=56.133961, lon.=26.366747, Alt.=121.219788m. Speed=15.156000m/h.</desc>
<speed>4.210000</speed>
</trkpt>
<trkpt lat="56.133984" lon="26.366713">
<ele>121.309631</ele>
<time>2010-08-29T15:34:09Z</time>
<desc>lat.=56.133984, lon.=26.366713, Alt.=121.309631m. Speed=14.220000m/h.</desc>
<speed>3.950000</speed>
</trkpt>
<trkpt lat="56.134014" lon="26.366682">
<ele>121.838928</ele>
<time>2010-08-29T15:34:10Z</time>
<desc>lat.=56.134014, lon.=26.366682, Alt.=121.838928m. Speed=11.304000m/h.</desc>
<speed>3.140000</speed>
</trkpt>
<trkpt lat="56.134045" lon="26.366640">
<ele>120.725647</ele>
<time>2010-08-29T15:34:11Z</time>
<desc>lat.=56.134045, lon.=26.366640, Alt.=120.725647m. Speed=16.091999m/h.</desc>
<speed>4.470000</speed>
</trkpt>
<trkpt lat="56.134087" lon="26.366573">
<ele>118.383850</ele>
<time>2010-08-29T15:34:12Z</time>
<desc>lat.=56.134087, lon.=26.366573, Alt.=118.383850m. Speed=18.792000m/h.</desc>
<speed>5.220000</speed>
</trkpt>
<trkpt lat="56.134125" lon="26.366505">
<ele>118.083069</ele>
<time>2010-08-29T15:34:13Z</time>
<desc>lat.=56.134125, lon.=26.366505, Alt.=118.083069m. Speed=18.431999m/h.</desc>
<speed>5.120000</speed>
</trkpt>
<trkpt lat="56.134155" lon="26.366430">
<ele>118.344788</ele>
<time>2010-08-29T15:34:14Z</time>
<desc>lat.=56.134155, lon.=26.366430, Alt.=118.344788m. Speed=19.368000m/h.</desc>
<speed>5.380000</speed>
</trkpt>
<trkpt lat="56.134182" lon="26.366356">
<ele>119.163147</ele>
<time>2010-08-29T15:34:15Z</time>
<desc>lat.=56.134182, lon.=26.366356, Alt.=119.163147m. Speed=17.351999m/h.</desc>
<speed>4.820000</speed>
</trkpt>
<trkpt lat="56.134209" lon="26.366291">
<ele>118.932678</ele>
<time>2010-08-29T15:34:16Z</time>
<desc>lat.=56.134209, lon.=26.366291, Alt.=118.932678m. Speed=17.351999m/h.</desc>
<speed>4.820000</speed>
</trkpt>
<trkpt lat="56.134235" lon="26.366228">
<ele>118.725647</ele>
<time>2010-08-29T15:34:17Z</time>
<desc>lat.=56.134235, lon.=26.366228, Alt.=118.725647m. Speed=15.264000m/h.</desc>
<speed>4.240000</speed>
</trkpt>
<trkpt lat="56.134266" lon="26.366142">
<ele>116.797913</ele>
<time>2010-08-29T15:34:18Z</time>
<desc>lat.=56.134266, lon.=26.366142, Alt.=116.797913m. Speed=18.504000m/h.</desc>
<speed>5.140000</speed>
</trkpt>
<trkpt lat="56.134289" lon="26.366077">
<ele>116.083069</ele>
<time>2010-08-29T15:34:19Z</time>
<desc>lat.=56.134289, lon.=26.366077, Alt.=116.083069m. Speed=15.192000m/h.</desc>
<speed>4.220000</speed>
</trkpt>
<trkpt lat="56.134323" lon="26.366011">
<ele>117.325256</ele>
<time>2010-08-29T15:34:20Z</time>
<desc>lat.=56.134323, lon.=26.366011, Alt.=117.325256m. Speed=17.100000m/h.</desc>
<speed>4.750000</speed>
</trkpt>
<trkpt lat="56.134365" lon="26.365936">
<ele>118.131897</ele>
<time>2010-08-29T15:34:21Z</time>
<desc>lat.=56.134365, lon.=26.365936, Alt.=118.131897m. Speed=17.747999m/h.</desc>
<speed>4.930000</speed>
</trkpt>
<trkpt lat="56.134411" lon="26.365864">
<ele>119.450256</ele>
<time>2010-08-29T15:34:22Z</time>
<desc>lat.=56.134411, lon.=26.365864, Alt.=119.450256m. Speed=17.820000m/h.</desc>
<speed>4.950000</speed>
</trkpt>
<trkpt lat="56.134441" lon="26.365807">
<ele>119.258850</ele>
<time>2010-08-29T15:34:23Z</time>
<desc>lat.=56.134441, lon.=26.365807, Alt.=119.258850m. Speed=16.020000m/h.</desc>
<speed>4.450000</speed>
</trkpt>
<trkpt lat="56.134480" lon="26.365772">
<ele>119.647522</ele>
<time>2010-08-29T15:34:24Z</time>
<desc>lat.=56.134480, lon.=26.365772, Alt.=119.647522m. Speed=15.192000m/h.</desc>
<speed>4.220000</speed>
</trkpt>
<trkpt lat="56.134514" lon="26.365721">
<ele>120.542053</ele>
<time>2010-08-29T15:34:25Z</time>
<desc>lat.=56.134514, lon.=26.365721, Alt.=120.542053m. Speed=16.596001m/h.</desc>
<speed>4.610000</speed>
</trkpt>
<trkpt lat="56.134548" lon="26.365665">
<ele>120.098694</ele>
<time>2010-08-29T15:34:26Z</time>
<desc>lat.=56.134548, lon.=26.365665, Alt.=120.098694m. Speed=16.884001m/h.</desc>
<speed>4.690000</speed>
</trkpt>
<trkpt lat="56.134583" lon="26.365608">
<ele>119.799866</ele>
<time>2010-08-29T15:34:27Z</time>
<desc>lat.=56.134583, lon.=26.365608, Alt.=119.799866m. Speed=16.236000m/h.</desc>
<speed>4.510000</speed>
</trkpt>
<trkpt lat="56.134613" lon="26.365545">
<ele>118.516663</ele>
<time>2010-08-29T15:34:28Z</time>
<desc>lat.=56.134613, lon.=26.365545, Alt.=118.516663m. Speed=16.452000m/h.</desc>
<speed>4.570000</speed>
</trkpt>
<trkpt lat="56.134647" lon="26.365488">
<ele>116.530334</ele>
<time>2010-08-29T15:34:29Z</time>
<desc>lat.=56.134647, lon.=26.365488, Alt.=116.530334m. Speed=15.840000m/h.</desc>
<speed>4.400000</speed>
</trkpt>
<trkpt lat="56.134674" lon="26.365440">
<ele>115.088928</ele>
<time>2010-08-29T15:34:30Z</time>
<desc>lat.=56.134674, lon.=26.365440, Alt.=115.088928m. Speed=14.832000m/h.</desc>
<speed>4.120000</speed>
</trkpt>
<trkpt lat="56.134705" lon="26.365387">
<ele>113.647522</ele>
<time>2010-08-29T15:34:31Z</time>
<desc>lat.=56.134705, lon.=26.365387, Alt.=113.647522m. Speed=15.948000m/h.</desc>
<speed>4.430000</speed>
</trkpt>
<trkpt lat="56.134735" lon="26.365339">
<ele>112.254944</ele>
<time>2010-08-29T15:34:32Z</time>
<desc>lat.=56.134735, lon.=26.365339, Alt.=112.254944m. Speed=15.480000m/h.</desc>
<speed>4.300000</speed>
</trkpt>
<trkpt lat="56.134766" lon="26.365286">
<ele>111.409241</ele>
<time>2010-08-29T15:34:33Z</time>
<desc>lat.=56.134766, lon.=26.365286, Alt.=111.409241m. Speed=16.200001m/h.</desc>
<speed>4.500000</speed>
</trkpt>
<trkpt lat="56.134796" lon="26.365240">
<ele>109.823303</ele>
<time>2010-08-29T15:34:34Z</time>
<desc>lat.=56.134796, lon.=26.365240, Alt.=109.823303m. Speed=16.884001m/h.</desc>
<speed>4.690000</speed>
</trkpt>
<trkpt lat="56.134830" lon="26.365175">
<ele>108.739319</ele>
<time>2010-08-29T15:34:35Z</time>
<desc>lat.=56.134830, lon.=26.365175, Alt.=108.739319m. Speed=17.424000m/h.</desc>
<speed>4.840000</speed>
</trkpt>
<trkpt lat="56.134857" lon="26.365116">
<ele>108.444397</ele>
<time>2010-08-29T15:34:36Z</time>
<desc>lat.=56.134857, lon.=26.365116, Alt.=108.444397m. Speed=15.768000m/h.</desc>
<speed>4.380000</speed>
</trkpt>
<trkpt lat="56.134892" lon="26.365055">
<ele>107.963928</ele>
<time>2010-08-29T15:34:37Z</time>
<desc>lat.=56.134892, lon.=26.365055, Alt.=107.963928m. Speed=16.488001m/h.</desc>
<speed>4.580000</speed>
</trkpt>
<trkpt lat="56.134918" lon="26.365007">
<ele>107.229553</ele>
<time>2010-08-29T15:34:38Z</time>
<desc>lat.=56.134918, lon.=26.365007, Alt.=107.229553m. Speed=15.192000m/h.</desc>
<speed>4.220000</speed>
</trkpt>
<trkpt lat="56.134949" lon="26.364952">
<ele>107.397522</ele>
<time>2010-08-29T15:34:39Z</time>
<desc>lat.=56.134949, lon.=26.364952, Alt.=107.397522m. Speed=15.444000m/h.</desc>
<speed>4.290000</speed>
</trkpt>
<trkpt lat="56.134987" lon="26.364908">
<ele>107.374084</ele>
<time>2010-08-29T15:34:40Z</time>
<desc>lat.=56.134987, lon.=26.364908, Alt.=107.374084m. Speed=14.760000m/h.</desc>
<speed>4.100000</speed>
</trkpt>
<trkpt lat="56.135021" lon="26.364876">
<ele>108.075256</ele>
<time>2010-08-29T15:34:41Z</time>
<desc>lat.=56.135021, lon.=26.364876, Alt.=108.075256m. Speed=10.800000m/h.</desc>
<speed>3.000000</speed>
</trkpt>
<trkpt lat="56.135052" lon="26.364872">
<ele>108.559631</ele>
<time>2010-08-29T15:34:42Z</time>
<desc>lat.=56.135052, lon.=26.364872, Alt.=108.559631m. Speed=9.720000m/h.</desc>
<speed>2.700000</speed>
</trkpt>
<trkpt lat="56.135071" lon="26.364887">
<ele>107.797913</ele>
<time>2010-08-29T15:34:43Z</time>
<desc>lat.=56.135071, lon.=26.364887, Alt.=107.797913m. Speed=9.144000m/h.</desc>
<speed>2.540000</speed>
</trkpt>
<trkpt lat="56.135094" lon="26.364901">
<ele>107.528381</ele>
<time>2010-08-29T15:34:44Z</time>
<desc>lat.=56.135094, lon.=26.364901, Alt.=107.528381m. Speed=7.236000m/h.</desc>
<speed>2.010000</speed>
</trkpt>
<trkpt lat="56.135109" lon="26.364931">
<ele>107.559631</ele>
<time>2010-08-29T15:34:45Z</time>
<desc>lat.=56.135109, lon.=26.364931, Alt.=107.559631m. Speed=6.156000m/h.</desc>
<speed>1.710000</speed>
</trkpt>
<trkpt lat="56.135113" lon="26.364962">
<ele>107.256897</ele>
<time>2010-08-29T15:34:46Z</time>
<desc>lat.=56.135113, lon.=26.364962, Alt.=107.256897m. Speed=5.652000m/h.</desc>
<speed>1.570000</speed>
</trkpt>
<trkpt lat="56.135120" lon="26.364986">
<ele>107.036194</ele>
<time>2010-08-29T15:34:47Z</time>
<desc>lat.=56.135120, lon.=26.364986, Alt.=107.036194m. Speed=6.228000m/h.</desc>
<speed>1.730000</speed>
</trkpt>
<trkpt lat="56.135128" lon="26.365005">
<ele>106.852600</ele>
<time>2010-08-29T15:34:48Z</time>
<desc>lat.=56.135128, lon.=26.365005, Alt.=106.852600m. Speed=4.716000m/h.</desc>
<speed>1.310000</speed>
</trkpt>
<trkpt lat="56.135136" lon="26.365030">
<ele>106.715881</ele>
<time>2010-08-29T15:34:49Z</time>
<desc>lat.=56.135136, lon.=26.365030, Alt.=106.715881m. Speed=6.552000m/h.</desc>
<speed>1.820000</speed>
</trkpt>
<trkpt lat="56.135151" lon="26.365057">
<ele>106.790100</ele>
<time>2010-08-29T15:34:50Z</time>
<desc>lat.=56.135151, lon.=26.365057, Alt.=106.790100m. Speed=7.056000m/h.</desc>
<speed>1.960000</speed>
</trkpt>
<trkpt lat="56.135159" lon="26.365084">
<ele>106.477600</ele>
<time>2010-08-29T15:34:51Z</time>
<desc>lat.=56.135159, lon.=26.365084, Alt.=106.477600m. Speed=7.200000m/h.</desc>
<speed>2.000000</speed>
</trkpt>
<trkpt lat="56.135170" lon="26.365120">
<ele>106.538147</ele>
<time>2010-08-29T15:34:52Z</time>
<desc>lat.=56.135170, lon.=26.365120, Alt.=106.538147m. Speed=8.028000m/h.</desc>
<speed>2.230000</speed>
</trkpt>
<trkpt lat="56.135178" lon="26.365164">
<ele>106.432678</ele>
<time>2010-08-29T15:34:53Z</time>
<desc>lat.=56.135178, lon.=26.365164, Alt.=106.432678m. Speed=8.532000m/h.</desc>
<speed>2.370000</speed>
</trkpt>
<trkpt lat="56.135189" lon="26.365204">
<ele>106.450256</ele>
<time>2010-08-29T15:34:54Z</time>
<desc>lat.=56.135189, lon.=26.365204, Alt.=106.450256m. Speed=8.712000m/h.</desc>
<speed>2.420000</speed>
</trkpt>
<trkpt lat="56.135193" lon="26.365244">
<ele>106.833069</ele>
<time>2010-08-29T15:34:55Z</time>
<desc>lat.=56.135193, lon.=26.365244, Alt.=106.833069m. Speed=9.684000m/h.</desc>
<speed>2.690000</speed>
</trkpt>
<trkpt lat="56.135201" lon="26.365286">
<ele>106.659241</ele>
<time>2010-08-29T15:34:56Z</time>
<desc>lat.=56.135201, lon.=26.365286, Alt.=106.659241m. Speed=9.216000m/h.</desc>
<speed>2.560000</speed>
</trkpt>
<trkpt lat="56.135208" lon="26.365326">
<ele>107.344788</ele>
<time>2010-08-29T15:34:57Z</time>
<desc>lat.=56.135208, lon.=26.365326, Alt.=107.344788m. Speed=8.856000m/h.</desc>
<speed>2.460000</speed>
</trkpt>
<trkpt lat="56.135216" lon="26.365362">
<ele>107.038147</ele>
<time>2010-08-29T15:34:58Z</time>
<desc>lat.=56.135216, lon.=26.365362, Alt.=107.038147m. Speed=8.496000m/h.</desc>
<speed>2.360000</speed>
</trkpt>
<trkpt lat="56.135227" lon="26.365402">
<ele>107.045959</ele>
<time>2010-08-29T15:34:59Z</time>
<desc>lat.=56.135227, lon.=26.365402, Alt.=107.045959m. Speed=8.748000m/h.</desc>
<speed>2.430000</speed>
</trkpt>
<trkpt lat="56.135235" lon="26.365437">
<ele>106.670959</ele>
<time>2010-08-29T15:35:00Z</time>
<desc>lat.=56.135235, lon.=26.365437, Alt.=106.670959m. Speed=8.748000m/h.</desc>
<speed>2.430000</speed>
</trkpt>
<trkpt lat="56.135242" lon="26.365473">
<ele>105.999084</ele>
<time>2010-08-29T15:35:01Z</time>
<desc>lat.=56.135242, lon.=26.365473, Alt.=105.999084m. Speed=8.856000m/h.</desc>
<speed>2.460000</speed>
</trkpt>
<trkpt lat="56.135250" lon="26.365511">
<ele>105.647522</ele>
<time>2010-08-29T15:35:02Z</time>
<desc>lat.=56.135250, lon.=26.365511, Alt.=105.647522m. Speed=8.172000m/h.</desc>
<speed>2.270000</speed>
</trkpt>
<trkpt lat="56.135250" lon="26.365543">
<ele>105.428772</ele>
<time>2010-08-29T15:35:03Z</time>
<desc>lat.=56.135250, lon.=26.365543, Alt.=105.428772m. Speed=7.452000m/h.</desc>
<speed>2.070000</speed>
</trkpt>
<trkpt lat="56.135250" lon="26.365576">
<ele>105.358459</ele>
<time>2010-08-29T15:35:04Z</time>
<desc>lat.=56.135250, lon.=26.365576, Alt.=105.358459m. Speed=6.876000m/h.</desc>
<speed>1.910000</speed>
</trkpt>
<trkpt lat="56.135254" lon="26.365606">
<ele>105.354553</ele>
<time>2010-08-29T15:35:05Z</time>
<desc>lat.=56.135254, lon.=26.365606, Alt.=105.354553m. Speed=7.020000m/h.</desc>
<speed>1.950000</speed>
</trkpt>
<trkpt lat="56.135258" lon="26.365631">
<ele>103.682678</ele>
<time>2010-08-29T15:35:06Z</time>
<desc>lat.=56.135258, lon.=26.365631, Alt.=103.682678m. Speed=6.588000m/h.</desc>
<speed>1.830000</speed>
</trkpt>
<trkpt lat="56.135254" lon="26.365648">
<ele>103.971741</ele>
<time>2010-08-29T15:35:07Z</time>
<desc>lat.=56.135254, lon.=26.365648, Alt.=103.971741m. Speed=5.436000m/h.</desc>
<speed>1.510000</speed>
</trkpt>
<trkpt lat="56.135250" lon="26.365673">
<ele>104.163147</ele>
<time>2010-08-29T15:35:08Z</time>
<desc>lat.=56.135250, lon.=26.365673, Alt.=104.163147m. Speed=6.660000m/h.</desc>
<speed>1.850000</speed>
</trkpt>
<trkpt lat="56.135235" lon="26.365685">
<ele>104.233459</ele>
<time>2010-08-29T15:35:09Z</time>
<desc>lat.=56.135235, lon.=26.365685, Alt.=104.233459m. Speed=7.056000m/h.</desc>
<speed>1.960000</speed>
</trkpt>
<trkpt lat="56.135216" lon="26.365709">
<ele>104.319397</ele>
<time>2010-08-29T15:35:10Z</time>
<desc>lat.=56.135216, lon.=26.365709, Alt.=104.319397m. Speed=7.056000m/h.</desc>
<speed>1.960000</speed>
</trkpt>
<trkpt lat="56.135201" lon="26.365725">
<ele>104.430725</ele>
<time>2010-08-29T15:35:11Z</time>
<desc>lat.=56.135201, lon.=26.365725, Alt.=104.430725m. Speed=6.156000m/h.</desc>
<speed>1.710000</speed>
</trkpt>
<trkpt lat="56.135189" lon="26.365744">
<ele>104.335022</ele>
<time>2010-08-29T15:35:12Z</time>
<desc>lat.=56.135189, lon.=26.365744, Alt.=104.335022m. Speed=5.220000m/h.</desc>
<speed>1.450000</speed>
</trkpt>
<trkpt lat="56.135181" lon="26.365755">
<ele>104.403381</ele>
<time>2010-08-29T15:35:13Z</time>
<desc>lat.=56.135181, lon.=26.365755, Alt.=104.403381m. Speed=5.148000m/h.</desc>
<speed>1.430000</speed>
</trkpt>
<trkpt lat="56.135170" lon="26.365774">
<ele>104.772522</ele>
<time>2010-08-29T15:35:14Z</time>
<desc>lat.=56.135170, lon.=26.365774, Alt.=104.772522m. Speed=5.868000m/h.</desc>
<speed>1.630000</speed>
</trkpt>
<trkpt lat="56.135162" lon="26.365793">
<ele>104.547913</ele>
<time>2010-08-29T15:35:15Z</time>
<desc>lat.=56.135162, lon.=26.365793, Alt.=104.547913m. Speed=5.328000m/h.</desc>
<speed>1.480000</speed>
</trkpt>
<trkpt lat="56.135155" lon="26.365814">
<ele>104.872131</ele>
<time>2010-08-29T15:35:16Z</time>
<desc>lat.=56.135155, lon.=26.365814, Alt.=104.872131m. Speed=5.508000m/h.</desc>
<speed>1.530000</speed>
</trkpt>
<trkpt lat="56.135143" lon="26.365839">
<ele>105.495178</ele>
<time>2010-08-29T15:35:17Z</time>
<desc>lat.=56.135143, lon.=26.365839, Alt.=105.495178m. Speed=7.776000m/h.</desc>
<speed>2.160000</speed>
</trkpt>
<trkpt lat="56.135132" lon="26.365862">
<ele>105.801819</ele>
<time>2010-08-29T15:35:18Z</time>
<desc>lat.=56.135132, lon.=26.365862, Alt.=105.801819m. Speed=5.976000m/h.</desc>
<speed>1.660000</speed>
</trkpt>
<trkpt lat="56.135136" lon="26.365894">
<ele>105.665100</ele>
<time>2010-08-29T15:35:19Z</time>
<desc>lat.=56.135136, lon.=26.365894, Alt.=105.665100m. Speed=8.640000m/h.</desc>
<speed>2.400000</speed>
</trkpt>
<trkpt lat="56.135143" lon="26.365931">
<ele>105.403381</ele>
<time>2010-08-29T15:35:20Z</time>
<desc>lat.=56.135143, lon.=26.365931, Alt.=105.403381m. Speed=6.048000m/h.</desc>
<speed>1.680000</speed>
</trkpt>
<trkpt lat="56.135151" lon="26.365957">
<ele>105.143616</ele>
<time>2010-08-29T15:35:21Z</time>
<desc>lat.=56.135151, lon.=26.365957, Alt.=105.143616m. Speed=5.760000m/h.</desc>
<speed>1.600000</speed>
</trkpt>
<trkpt lat="56.135151" lon="26.365976">
<ele>105.290100</ele>
<time>2010-08-29T15:35:22Z</time>
<desc>lat.=56.135151, lon.=26.365976, Alt.=105.290100m. Speed=4.932000m/h.</desc>
<speed>1.370000</speed>
</trkpt>
<trkpt lat="56.135147" lon="26.365986">
<ele>105.608459</ele>
<time>2010-08-29T15:35:23Z</time>
<desc>lat.=56.135147, lon.=26.365986, Alt.=105.608459m. Speed=0.396000m/h.</desc>
<speed>0.110000</speed>
</trkpt>
<trkpt lat="56.135143" lon="26.365986">
<ele>105.719788</ele>
<time>2010-08-29T15:35:24Z</time>
<desc>lat.=56.135143, lon.=26.365986, Alt.=105.719788m. Speed=0.648000m/h.</desc>
<speed>0.180000</speed>
</trkpt>
<trkpt lat="56.135147" lon="26.365993">
<ele>104.637756</ele>
<time>2010-08-29T15:35:25Z</time>
<desc>lat.=56.135147, lon.=26.365993, Alt.=104.637756m. Speed=0.252000m/h.</desc>
<speed>0.070000</speed>
</trkpt>
<trkpt lat="56.135151" lon="26.365993">
<ele>104.100647</ele>
<time>2010-08-29T15:35:26Z</time>
<desc>lat.=56.135151, lon.=26.365993, Alt.=104.100647m. Speed=0.648000m/h.</desc>
<speed>0.180000</speed>
</trkpt>
<trkpt lat="56.135151" lon="26.365992">
<ele>104.149475</ele>
<time>2010-08-29T15:35:27Z</time>
<desc>lat.=56.135151, lon.=26.365992, Alt.=104.149475m. Speed=0.252000m/h.</desc>
<speed>0.070000</speed>
</trkpt>
<trkpt lat="56.135147" lon="26.365992">
<ele>104.200256</ele>
<time>2010-08-29T15:35:28Z</time>
<desc>lat.=56.135147, lon.=26.365992, Alt.=104.200256m. Speed=0.576000m/h.</desc>
<speed>0.160000</speed>
</trkpt>
<trkpt lat="56.135151" lon="26.365990">
<ele>104.223694</ele>
<time>2010-08-29T15:35:29Z</time>
<desc>lat.=56.135151, lon.=26.365990, Alt.=104.223694m. Speed=0.108000m/h.</desc>
<speed>0.030000</speed>
</trkpt>
<trkpt lat="56.135151" lon="26.365990">
<ele>104.231506</ele>
<time>2010-08-29T15:35:30Z</time>
<desc>lat.=56.135151, lon.=26.365990, Alt.=104.231506m. Speed=0.000000m/h.</desc>
<speed>0.000000</speed>
</trkpt>
<trkpt lat="56.135151" lon="26.365990">
<ele>104.252991</ele>
<time>2010-08-29T15:35:31Z</time>
<desc>lat.=56.135151, lon.=26.365990, Alt.=104.252991m. Speed=0.180000m/h.</desc>
<speed>0.050000</speed>
</trkpt>
<trkpt lat="56.135151" lon="26.365990">
<ele>104.258850</ele>
<time>2010-08-29T15:35:32Z</time>
<desc>lat.=56.135151, lon.=26.365990, Alt.=104.258850m. Speed=0.072000m/h.</desc>
<speed>0.020000</speed>
</trkpt>
<trkpt lat="56.135151" lon="26.365990">
<ele>104.258850</ele>
<time>2010-08-29T15:35:33Z</time>
<desc>lat.=56.135151, lon.=26.365990, Alt.=104.258850m. Speed=0.072000m/h.</desc>
<speed>0.020000</speed>
</trkpt>
<trkpt lat="56.135151" lon="26.365990">
<ele>104.262756</ele>
<time>2010-08-29T15:35:34Z</time>
<desc>lat.=56.135151, lon.=26.365990, Alt.=104.262756m. Speed=0.792000m/h.</desc>
<speed>0.220000</speed>
</trkpt>
<trkpt lat="56.135151" lon="26.365988">
<ele>104.278381</ele>
<time>2010-08-29T15:35:35Z</time>
<desc>lat.=56.135151, lon.=26.365988, Alt.=104.278381m. Speed=0.828000m/h.</desc>
<speed>0.230000</speed>
</trkpt>
<trkpt lat="56.135155" lon="26.365988">
<ele>104.303772</ele>
<time>2010-08-29T15:35:36Z</time>
<desc>lat.=56.135155, lon.=26.365988, Alt.=104.303772m. Speed=1.620000m/h.</desc>
<speed>0.450000</speed>
</trkpt>
<trkpt lat="56.135159" lon="26.365992">
<ele>104.336975</ele>
<time>2010-08-29T15:35:37Z</time>
<desc>lat.=56.135159, lon.=26.365992, Alt.=104.336975m. Speed=0.468000m/h.</desc>
<speed>0.130000</speed>
</trkpt>
<trkpt lat="56.135159" lon="26.365992">
<ele>104.360413</ele>
<time>2010-08-29T15:35:38Z</time>
<desc>lat.=56.135159, lon.=26.365992, Alt.=104.360413m. Speed=1.224000m/h.</desc>
<speed>0.340000</speed>
</trkpt>
<trkpt lat="56.135162" lon="26.365993">
<ele>104.366272</ele>
<time>2010-08-29T15:35:39Z</time>
<desc>lat.=56.135162, lon.=26.365993, Alt.=104.366272m. Speed=0.396000m/h.</desc>
<speed>0.110000</speed>
</trkpt>
<trkpt lat="56.135162" lon="26.365995">
<ele>104.307678</ele>
<time>2010-08-29T15:35:40Z</time>
<desc>lat.=56.135162, lon.=26.365995, Alt.=104.307678m. Speed=0.324000m/h.</desc>
<speed>0.090000</speed>
</trkpt>
<trkpt lat="56.135162" lon="26.365997">
<ele>104.327209</ele>
<time>2010-08-29T15:35:41Z</time>
<desc>lat.=56.135162, lon.=26.365997, Alt.=104.327209m. Speed=0.000000m/h.</desc>
<speed>0.000000</speed>
</trkpt>
<trkpt lat="56.135162" lon="26.365997">
<ele>104.333069</ele>
<time>2010-08-29T15:35:42Z</time>
<desc>lat.=56.135162, lon.=26.365997, Alt.=104.333069m. Speed=0.036000m/h.</desc>
<speed>0.010000</speed>
</trkpt>
<trkpt lat="56.135162" lon="26.365997">
<ele>104.333069</ele>
<time>2010-08-29T15:35:43Z</time>
<desc>lat.=56.135162, lon.=26.365997, Alt.=104.333069m. Speed=0.108000m/h.</desc>
<speed>0.030000</speed>
</trkpt>
<trkpt lat="56.135162" lon="26.365997">
<ele>104.315491</ele>
<time>2010-08-29T15:35:44Z</time>
<desc>lat.=56.135162, lon.=26.365997, Alt.=104.315491m. Speed=0.108000m/h.</desc>
<speed>0.030000</speed>
</trkpt>
<trkpt lat="56.135159" lon="26.365997">
<ele>104.307678</ele>
<time>2010-08-29T15:35:45Z</time>
<desc>lat.=56.135159, lon.=26.365997, Alt.=104.307678m. Speed=0.000000m/h.</desc>
<speed>0.000000</speed>
</trkpt>
<trkpt lat="56.135159" lon="26.365997">
<ele>104.305725</ele>
<time>2010-08-29T15:35:46Z</time>
<desc>lat.=56.135159, lon.=26.365997, Alt.=104.305725m. Speed=0.000000m/h.</desc>
<speed>0.000000</speed>
</trkpt>
<trkpt lat="56.135159" lon="26.365997">
<ele>104.313538</ele>
<time>2010-08-29T15:35:47Z</time>
<desc>lat.=56.135159, lon.=26.365997, Alt.=104.313538m. Speed=0.000000m/h.</desc>
<speed>0.000000</speed>
</trkpt>
<trkpt lat="56.135159" lon="26.365999">
<ele>104.315491</ele>
<time>2010-08-29T15:35:48Z</time>
<desc>lat.=56.135159, lon.=26.365999, Alt.=104.315491m. Speed=0.000000m/h.</desc>
<speed>0.000000</speed>
</trkpt>
<trkpt lat="56.135159" lon="26.365999">
<ele>104.313538</ele>
<time>2010-08-29T15:35:49Z</time>
<desc>lat.=56.135159, lon.=26.365999, Alt.=104.313538m. Speed=0.000000m/h.</desc>
<speed>0.000000</speed>
</trkpt>
<trkpt lat="56.135159" lon="26.365999">
<ele>104.327209</ele>
<time>2010-08-29T15:35:50Z</time>
<desc>lat.=56.135159, lon.=26.365999, Alt.=104.327209m. Speed=0.000000m/h.</desc>
<speed>0.000000</speed>
</trkpt>
<trkpt lat="56.135159" lon="26.365999">
<ele>104.323303</ele>
<time>2010-08-29T15:35:51Z</time>
<desc>lat.=56.135159, lon.=26.365999, Alt.=104.323303m. Speed=0.000000m/h.</desc>
<speed>0.000000</speed>
</trkpt>
<trkpt lat="56.135159" lon="26.365999">
<ele>104.329163</ele>
<time>2010-08-29T15:35:52Z</time>
<desc>lat.=56.135159, lon.=26.365999, Alt.=104.329163m. Speed=0.000000m/h.</desc>
<speed>0.000000</speed>
</trkpt>
<trkpt lat="56.135159" lon="26.365999">
<ele>104.336975</ele>
<time>2010-08-29T15:35:53Z</time>
<desc>lat.=56.135159, lon.=26.365999, Alt.=104.336975m. Speed=0.000000m/h.</desc>
<speed>0.000000</speed>
</trkpt>
<trkpt lat="56.135159" lon="26.365999">
<ele>104.338928</ele>
<time>2010-08-29T15:35:54Z</time>
<desc>lat.=56.135159, lon.=26.365999, Alt.=104.338928m. Speed=0.000000m/h.</desc>
<speed>0.000000</speed>
</trkpt>
<trkpt lat="56.135159" lon="26.365999">
<ele>104.344788</ele>
<time>2010-08-29T15:35:55Z</time>
<desc>lat.=56.135159, lon.=26.365999, Alt.=104.344788m. Speed=0.000000m/h.</desc>
<speed>0.000000</speed>
</trkpt>
<trkpt lat="56.135159" lon="26.365999">
<ele>104.348694</ele>
<time>2010-08-29T15:35:56Z</time>
<desc>lat.=56.135159, lon.=26.365999, Alt.=104.348694m. Speed=0.000000m/h.</desc>
<speed>0.000000</speed>
</trkpt>
<trkpt lat="56.135159" lon="26.365999">
<ele>104.356506</ele>
<time>2010-08-29T15:35:57Z</time>
<desc>lat.=56.135159, lon.=26.365999, Alt.=104.356506m. Speed=0.000000m/h.</desc>
<speed>0.000000</speed>
</trkpt>
<trkpt lat="56.135159" lon="26.365999">
<ele>104.368225</ele>
<time>2010-08-29T15:35:58Z</time>
<desc>lat.=56.135159, lon.=26.365999, Alt.=104.368225m. Speed=0.000000m/h.</desc>
<speed>0.000000</speed>
</trkpt>
<trkpt lat="56.135159" lon="26.365999">
<ele>104.376038</ele>
<time>2010-08-29T15:35:59Z</time>
<desc>lat.=56.135159, lon.=26.365999, Alt.=104.376038m. Speed=0.000000m/h.</desc>
<speed>0.000000</speed>
</trkpt>
<trkpt lat="56.135159" lon="26.365999">
<ele>104.383850</ele>
<time>2010-08-29T15:36:00Z</time>
<desc>lat.=56.135159, lon.=26.365999, Alt.=104.383850m. Speed=0.000000m/h.</desc>
<speed>0.000000</speed>
</trkpt>
<trkpt lat="56.135159" lon="26.365999">
<ele>104.387756</ele>
<time>2010-08-29T15:36:01Z</time>
<desc>lat.=56.135159, lon.=26.365999, Alt.=104.387756m. Speed=0.000000m/h.</desc>
<speed>0.000000</speed>
</trkpt>
<trkpt lat="56.135159" lon="26.365999">
<ele>104.389709</ele>
<time>2010-08-29T15:36:02Z</time>
<desc>lat.=56.135159, lon.=26.365999, Alt.=104.389709m. Speed=0.000000m/h.</desc>
<speed>0.000000</speed>
</trkpt>
<trkpt lat="56.135159" lon="26.365999">
<ele>104.395569</ele>
<time>2010-08-29T15:36:03Z</time>
<desc>lat.=56.135159, lon.=26.365999, Alt.=104.395569m. Speed=0.000000m/h.</desc>
<speed>0.000000</speed>
</trkpt>
<trkpt lat="56.135159" lon="26.365999">
<ele>104.399475</ele>
<time>2010-08-29T15:36:04Z</time>
<desc>lat.=56.135159, lon.=26.365999, Alt.=104.399475m. Speed=0.036000m/h.</desc>
<speed>0.010000</speed>
</trkpt>
<trkpt lat="56.135159" lon="26.365999">
<ele>104.403381</ele>
<time>2010-08-29T15:36:05Z</time>
<desc>lat.=56.135159, lon.=26.365999, Alt.=104.403381m. Speed=0.000000m/h.</desc>
<speed>0.000000</speed>
</trkpt>
<trkpt lat="56.135159" lon="26.365999">
<ele>104.407288</ele>
<time>2010-08-29T15:36:06Z</time>
<desc>lat.=56.135159, lon.=26.365999, Alt.=104.407288m. Speed=0.000000m/h.</desc>
<speed>0.000000</speed>
</trkpt>
<trkpt lat="56.135159" lon="26.365999">
<ele>104.411194</ele>
<time>2010-08-29T15:36:07Z</time>
<desc>lat.=56.135159, lon.=26.365999, Alt.=104.411194m. Speed=0.000000m/h.</desc>
<speed>0.000000</speed>
</trkpt>
<trkpt lat="56.135159" lon="26.365999">
<ele>104.415100</ele>
<time>2010-08-29T15:36:08Z</time>
<desc>lat.=56.135159, lon.=26.365999, Alt.=104.415100m. Speed=0.000000m/h.</desc>
<speed>0.000000</speed>
</trkpt>
<trkpt lat="56.135159" lon="26.365999">
<ele>104.419006</ele>
<time>2010-08-29T15:36:09Z</time>
<desc>lat.=56.135159, lon.=26.365999, Alt.=104.419006m. Speed=0.000000m/h.</desc>
<speed>0.000000</speed>
</trkpt>
<trkpt lat="56.135159" lon="26.365999">
<ele>104.420959</ele>
<time>2010-08-29T15:36:10Z</time>
<desc>lat.=56.135159, lon.=26.365999, Alt.=104.420959m. Speed=0.000000m/h.</desc>
<speed>0.000000</speed>
</trkpt>
<trkpt lat="56.135159" lon="26.365999">
<ele>104.420959</ele>
<time>2010-08-29T15:36:11Z</time>
<desc>lat.=56.135159, lon.=26.365999, Alt.=104.420959m. Speed=0.000000m/h.</desc>
<speed>0.000000</speed>
</trkpt>
<trkpt lat="56.135159" lon="26.365999">
<ele>104.422913</ele>
<time>2010-08-29T15:36:12Z</time>
<desc>lat.=56.135159, lon.=26.365999, Alt.=104.422913m. Speed=0.000000m/h.</desc>
<speed>0.000000</speed>
</trkpt>
<trkpt lat="56.135159" lon="26.365999">
<ele>104.424866</ele>
<time>2010-08-29T15:36:13Z</time>
<desc>lat.=56.135159, lon.=26.365999, Alt.=104.424866m. Speed=0.000000m/h.</desc>
<speed>0.000000</speed>
</trkpt>
<trkpt lat="56.135159" lon="26.365999">
<ele>104.424866</ele>
<time>2010-08-29T15:36:14Z</time>
<desc>lat.=56.135159, lon.=26.365999, Alt.=104.424866m. Speed=0.000000m/h.</desc>
<speed>0.000000</speed>
</trkpt>
<trkpt lat="56.135159" lon="26.365999">
<ele>104.424866</ele>
<time>2010-08-29T15:36:15Z</time>
<desc>lat.=56.135159, lon.=26.365999, Alt.=104.424866m. Speed=0.000000m/h.</desc>
<speed>0.000000</speed>
</trkpt>
<trkpt lat="56.135159" lon="26.365999">
<ele>104.424866</ele>
<time>2010-08-29T15:36:16Z</time>
<desc>lat.=56.135159, lon.=26.365999, Alt.=104.424866m. Speed=0.000000m/h.</desc>
<speed>0.000000</speed>
</trkpt>
<trkpt lat="56.135159" lon="26.365999">
<ele>104.426819</ele>
<time>2010-08-29T15:36:17Z</time>
<desc>lat.=56.135159, lon.=26.365999, Alt.=104.426819m. Speed=0.000000m/h.</desc>
<speed>0.000000</speed>
</trkpt>
<trkpt lat="56.135159" lon="26.365999">
<ele>104.428772</ele>
<time>2010-08-29T15:36:18Z</time>
<desc>lat.=56.135159, lon.=26.365999, Alt.=104.428772m. Speed=0.000000m/h.</desc>
<speed>0.000000</speed>
</trkpt>
<trkpt lat="56.135159" lon="26.365999">
<ele>104.430725</ele>
<time>2010-08-29T15:36:19Z</time>
<desc>lat.=56.135159, lon.=26.365999, Alt.=104.430725m. Speed=0.000000m/h.</desc>
<speed>0.000000</speed>
</trkpt>
<trkpt lat="56.135159" lon="26.365999">
<ele>104.432678</ele>
<time>2010-08-29T15:36:20Z</time>
<desc>lat.=56.135159, lon.=26.365999, Alt.=104.432678m. Speed=0.000000m/h.</desc>
<speed>0.000000</speed>
</trkpt>
<trkpt lat="56.135159" lon="26.365999">
<ele>104.430725</ele>
<time>2010-08-29T15:36:21Z</time>
<desc>lat.=56.135159, lon.=26.365999, Alt.=104.430725m. Speed=0.000000m/h.</desc>
<speed>0.000000</speed>
</trkpt>
<trkpt lat="56.135159" lon="26.366001">
<ele>104.430725</ele>
<time>2010-08-29T15:36:22Z</time>
<desc>lat.=56.135159, lon.=26.366001, Alt.=104.430725m. Speed=0.000000m/h.</desc>
<speed>0.000000</speed>
</trkpt>
<trkpt lat="56.135159" lon="26.366001">
<ele>104.430725</ele>
<time>2010-08-29T15:36:23Z</time>
<desc>lat.=56.135159, lon.=26.366001, Alt.=104.430725m. Speed=0.000000m/h.</desc>
<speed>0.000000</speed>
</trkpt>
<trkpt lat="56.135159" lon="26.366001">
<ele>104.428772</ele>
<time>2010-08-29T15:36:24Z</time>
<desc>lat.=56.135159, lon.=26.366001, Alt.=104.428772m. Speed=0.000000m/h.</desc>
<speed>0.000000</speed>
</trkpt>
<trkpt lat="56.135159" lon="26.366001">
<ele>104.430725</ele>
<time>2010-08-29T15:36:25Z</time>
<desc>lat.=56.135159, lon.=26.366001, Alt.=104.430725m. Speed=0.000000m/h.</desc>
<speed>0.000000</speed>
</trkpt>
<trkpt lat="56.135159" lon="26.366001">
<ele>104.430725</ele>
<time>2010-08-29T15:36:26Z</time>
<desc>lat.=56.135159, lon.=26.366001, Alt.=104.430725m. Speed=0.000000m/h.</desc>
<speed>0.000000</speed>
</trkpt>
<trkpt lat="56.135159" lon="26.366001">
<ele>104.434631</ele>
<time>2010-08-29T15:36:27Z</time>
<desc>lat.=56.135159, lon.=26.366001, Alt.=104.434631m. Speed=0.000000m/h.</desc>
<speed>0.000000</speed>
</trkpt>
<trkpt lat="56.135159" lon="26.366001">
<ele>104.436584</ele>
<time>2010-08-29T15:36:28Z</time>
<desc>lat.=56.135159, lon.=26.366001, Alt.=104.436584m. Speed=0.000000m/h.</desc>
<speed>0.000000</speed>
</trkpt>
<trkpt lat="56.135159" lon="26.366001">
<ele>104.438538</ele>
<time>2010-08-29T15:36:29Z</time>
<desc>lat.=56.135159, lon.=26.366001, Alt.=104.438538m. Speed=0.000000m/h.</desc>
<speed>0.000000</speed>
</trkpt>
<trkpt lat="56.135159" lon="26.366001">
<ele>104.440491</ele>
<time>2010-08-29T15:36:30Z</time>
<desc>lat.=56.135159, lon.=26.366001, Alt.=104.440491m. Speed=0.000000m/h.</desc>
<speed>0.000000</speed>
</trkpt>
<trkpt lat="56.135159" lon="26.366001">
<ele>104.442444</ele>
<time>2010-08-29T15:36:31Z</time>
<desc>lat.=56.135159, lon.=26.366001, Alt.=104.442444m. Speed=0.000000m/h.</desc>
<speed>0.000000</speed>
</trkpt>
<trkpt lat="56.135159" lon="26.366001">
<ele>104.444397</ele>
<time>2010-08-29T15:36:32Z</time>
<desc>lat.=56.135159, lon.=26.366001, Alt.=104.444397m. Speed=0.000000m/h.</desc>
<speed>0.000000</speed>
</trkpt>
<trkpt lat="56.135159" lon="26.366001">
<ele>104.446350</ele>
<time>2010-08-29T15:36:33Z</time>
<desc>lat.=56.135159, lon.=26.366001, Alt.=104.446350m. Speed=0.000000m/h.</desc>
<speed>0.000000</speed>
</trkpt>
<trkpt lat="56.135159" lon="26.366001">
<ele>104.450256</ele>
<time>2010-08-29T15:36:34Z</time>
<desc>lat.=56.135159, lon.=26.366001, Alt.=104.450256m. Speed=0.000000m/h.</desc>
<speed>0.000000</speed>
</trkpt>
<trkpt lat="56.135159" lon="26.366001">
<ele>104.452209</ele>
<time>2010-08-29T15:36:35Z</time>
<desc>lat.=56.135159, lon.=26.366001, Alt.=104.452209m. Speed=0.000000m/h.</desc>
<speed>0.000000</speed>
</trkpt>
<trkpt lat="56.135159" lon="26.366001">
<ele>104.456116</ele>
<time>2010-08-29T15:36:36Z</time>
<desc>lat.=56.135159, lon.=26.366001, Alt.=104.456116m. Speed=0.000000m/h.</desc>
<speed>0.000000</speed>
</trkpt>
<trkpt lat="56.135159" lon="26.366001">
<ele>104.458069</ele>
<time>2010-08-29T15:36:37Z</time>
<desc>lat.=56.135159, lon.=26.366001, Alt.=104.458069m. Speed=0.000000m/h.</desc>
<speed>0.000000</speed>
</trkpt>
<trkpt lat="56.135159" lon="26.366001">
<ele>104.461975</ele>
<time>2010-08-29T15:36:38Z</time>
<desc>lat.=56.135159, lon.=26.366001, Alt.=104.461975m. Speed=0.000000m/h.</desc>
<speed>0.000000</speed>
</trkpt>
<trkpt lat="56.135159" lon="26.366001">
<ele>104.465881</ele>
<time>2010-08-29T15:36:39Z</time>
<desc>lat.=56.135159, lon.=26.366001, Alt.=104.465881m. Speed=0.000000m/h.</desc>
<speed>0.000000</speed>
</trkpt>
<trkpt lat="56.135159" lon="26.366001">
<ele>104.469788</ele>
<time>2010-08-29T15:36:40Z</time>
<desc>lat.=56.135159, lon.=26.366001, Alt.=104.469788m. Speed=0.000000m/h.</desc>
<speed>0.000000</speed>
</trkpt>
<trkpt lat="56.135159" lon="26.366001">
<ele>104.473694</ele>
<time>2010-08-29T15:36:41Z</time>
<desc>lat.=56.135159, lon.=26.366001, Alt.=104.473694m. Speed=0.000000m/h.</desc>
<speed>0.000000</speed>
</trkpt>
<trkpt lat="56.135159" lon="26.366001">
<ele>104.477600</ele>
<time>2010-08-29T15:36:42Z</time>
<desc>lat.=56.135159, lon.=26.366001, Alt.=104.477600m. Speed=0.000000m/h.</desc>
<speed>0.000000</speed>
</trkpt>
<trkpt lat="56.135159" lon="26.366001">
<ele>104.479553</ele>
<time>2010-08-29T15:36:43Z</time>
<desc>lat.=56.135159, lon.=26.366001, Alt.=104.479553m. Speed=0.000000m/h.</desc>
<speed>0.000000</speed>
</trkpt>
<trkpt lat="56.135159" lon="26.366001">
<ele>104.483459</ele>
<time>2010-08-29T15:36:44Z</time>
<desc>lat.=56.135159, lon.=26.366001, Alt.=104.483459m. Speed=0.000000m/h.</desc>
<speed>0.000000</speed>
</trkpt>
<trkpt lat="56.135159" lon="26.366001">
<ele>104.483459</ele>
<time>2010-08-29T15:36:45Z</time>
<desc>lat.=56.135159, lon.=26.366001, Alt.=104.483459m. Speed=0.000000m/h.</desc>
<speed>0.000000</speed>
</trkpt>
<trkpt lat="56.135159" lon="26.366001">
<ele>104.485413</ele>
<time>2010-08-29T15:36:46Z</time>
<desc>lat.=56.135159, lon.=26.366001, Alt.=104.485413m. Speed=0.000000m/h.</desc>
<speed>0.000000</speed>
</trkpt>
<trkpt lat="56.135159" lon="26.366001">
<ele>104.489319</ele>
<time>2010-08-29T15:36:47Z</time>
<desc>lat.=56.135159, lon.=26.366001, Alt.=104.489319m. Speed=0.000000m/h.</desc>
<speed>0.000000</speed>
</trkpt>
<trkpt lat="56.135159" lon="26.366001">
<ele>104.493225</ele>
<time>2010-08-29T15:36:48Z</time>
<desc>lat.=56.135159, lon.=26.366001, Alt.=104.493225m. Speed=0.000000m/h.</desc>
<speed>0.000000</speed>
</trkpt>
<trkpt lat="56.135159" lon="26.366001">
<ele>104.495178</ele>
<time>2010-08-29T15:36:49Z</time>
<desc>lat.=56.135159, lon.=26.366001, Alt.=104.495178m. Speed=0.000000m/h.</desc>
<speed>0.000000</speed>
</trkpt>
<trkpt lat="56.135159" lon="26.366001">
<ele>104.499084</ele>
<time>2010-08-29T15:36:50Z</time>
<desc>lat.=56.135159, lon.=26.366001, Alt.=104.499084m. Speed=0.000000m/h.</desc>
<speed>0.000000</speed>
</trkpt>
<trkpt lat="56.135159" lon="26.366001">
<ele>104.501038</ele>
<time>2010-08-29T15:36:51Z</time>
<desc>lat.=56.135159, lon.=26.366001, Alt.=104.501038m. Speed=0.000000m/h.</desc>
<speed>0.000000</speed>
</trkpt>
<trkpt lat="56.135159" lon="26.366001">
<ele>104.504944</ele>
<time>2010-08-29T15:36:52Z</time>
<desc>lat.=56.135159, lon.=26.366001, Alt.=104.504944m. Speed=0.000000m/h.</desc>
<speed>0.000000</speed>
</trkpt>
<trkpt lat="56.135159" lon="26.366001">
<ele>104.508850</ele>
<time>2010-08-29T15:36:53Z</time>
<desc>lat.=56.135159, lon.=26.366001, Alt.=104.508850m. Speed=0.000000m/h.</desc>
<speed>0.000000</speed>
</trkpt>
<trkpt lat="56.135159" lon="26.366001">
<ele>104.510803</ele>
<time>2010-08-29T15:36:54Z</time>
<desc>lat.=56.135159, lon.=26.366001, Alt.=104.510803m. Speed=0.000000m/h.</desc>
<speed>0.000000</speed>
</trkpt>
<trkpt lat="56.135159" lon="26.366001">
<ele>104.514709</ele>
<time>2010-08-29T15:36:55Z</time>
<desc>lat.=56.135159, lon.=26.366001, Alt.=104.514709m. Speed=0.000000m/h.</desc>
<speed>0.000000</speed>
</trkpt>
<trkpt lat="56.135159" lon="26.366001">
<ele>104.518616</ele>
<time>2010-08-29T15:36:56Z</time>
<desc>lat.=56.135159, lon.=26.366001, Alt.=104.518616m. Speed=0.000000m/h.</desc>
<speed>0.000000</speed>
</trkpt>
<trkpt lat="56.135159" lon="26.366001">
<ele>104.522522</ele>
<time>2010-08-29T15:36:57Z</time>
<desc>lat.=56.135159, lon.=26.366001, Alt.=104.522522m. Speed=0.000000m/h.</desc>
<speed>0.000000</speed>
</trkpt>
<trkpt lat="56.135159" lon="26.366001">
<ele>104.526428</ele>
<time>2010-08-29T15:36:58Z</time>
<desc>lat.=56.135159, lon.=26.366001, Alt.=104.526428m. Speed=0.000000m/h.</desc>
<speed>0.000000</speed>
</trkpt>
<trkpt lat="56.135159" lon="26.366001">
<ele>104.530334</ele>
<time>2010-08-29T15:36:59Z</time>
<desc>lat.=56.135159, lon.=26.366001, Alt.=104.530334m. Speed=0.000000m/h.</desc>
<speed>0.000000</speed>
</trkpt>
<trkpt lat="56.135159" lon="26.366001">
<ele>104.532288</ele>
<time>2010-08-29T15:37:00Z</time>
<desc>lat.=56.135159, lon.=26.366001, Alt.=104.532288m. Speed=0.000000m/h.</desc>
<speed>0.000000</speed>
</trkpt>
<trkpt lat="56.135159" lon="26.366001">
<ele>104.536194</ele>
<time>2010-08-29T15:37:01Z</time>
<desc>lat.=56.135159, lon.=26.366001, Alt.=104.536194m. Speed=0.000000m/h.</desc>
<speed>0.000000</speed>
</trkpt>
<trkpt lat="56.135159" lon="26.366001">
<ele>104.540100</ele>
<time>2010-08-29T15:37:02Z</time>
<desc>lat.=56.135159, lon.=26.366001, Alt.=104.540100m. Speed=0.000000m/h.</desc>
<speed>0.000000</speed>
</trkpt>
<trkpt lat="56.135159" lon="26.366001">
<ele>104.544006</ele>
<time>2010-08-29T15:37:03Z</time>
<desc>lat.=56.135159, lon.=26.366001, Alt.=104.544006m. Speed=0.000000m/h.</desc>
<speed>0.000000</speed>
</trkpt>
<trkpt lat="56.135159" lon="26.366001">
<ele>104.547913</ele>
<time>2010-08-29T15:37:04Z</time>
<desc>lat.=56.135159, lon.=26.366001, Alt.=104.547913m. Speed=0.000000m/h.</desc>
<speed>0.000000</speed>
</trkpt>
<trkpt lat="56.135159" lon="26.366001">
<ele>104.551819</ele>
<time>2010-08-29T15:37:05Z</time>
<desc>lat.=56.135159, lon.=26.366001, Alt.=104.551819m. Speed=0.000000m/h.</desc>
<speed>0.000000</speed>
</trkpt>
<trkpt lat="56.135159" lon="26.366001">
<ele>104.553772</ele>
<time>2010-08-29T15:37:06Z</time>
<desc>lat.=56.135159, lon.=26.366001, Alt.=104.553772m. Speed=0.000000m/h.</desc>
<speed>0.000000</speed>
</trkpt>
<trkpt lat="56.135159" lon="26.366001">
<ele>104.557678</ele>
<time>2010-08-29T15:37:07Z</time>
<desc>lat.=56.135159, lon.=26.366001, Alt.=104.557678m. Speed=0.000000m/h.</desc>
<speed>0.000000</speed>
</trkpt>
<trkpt lat="56.135159" lon="26.366001">
<ele>104.559631</ele>
<time>2010-08-29T15:37:08Z</time>
<desc>lat.=56.135159, lon.=26.366001, Alt.=104.559631m. Speed=0.000000m/h.</desc>
<speed>0.000000</speed>
</trkpt>
<trkpt lat="56.135159" lon="26.366001">
<ele>104.563538</ele>
<time>2010-08-29T15:37:09Z</time>
<desc>lat.=56.135159, lon.=26.366001, Alt.=104.563538m. Speed=0.000000m/h.</desc>
<speed>0.000000</speed>
</trkpt>
<trkpt lat="56.135159" lon="26.366001">
<ele>104.565491</ele>
<time>2010-08-29T15:37:10Z</time>
<desc>lat.=56.135159, lon.=26.366001, Alt.=104.565491m. Speed=0.000000m/h.</desc>
<speed>0.000000</speed>
</trkpt>
<trkpt lat="56.135159" lon="26.366001">
<ele>104.567444</ele>
<time>2010-08-29T15:37:11Z</time>
<desc>lat.=56.135159, lon.=26.366001, Alt.=104.567444m. Speed=0.000000m/h.</desc>
<speed>0.000000</speed>
</trkpt>
<trkpt lat="56.135159" lon="26.366001">
<ele>104.569397</ele>
<time>2010-08-29T15:37:12Z</time>
<desc>lat.=56.135159, lon.=26.366001, Alt.=104.569397m. Speed=0.000000m/h.</desc>
<speed>0.000000</speed>
</trkpt>
<trkpt lat="56.135159" lon="26.366001">
<ele>104.569397</ele>
<time>2010-08-29T15:37:13Z</time>
<desc>lat.=56.135159, lon.=26.366001, Alt.=104.569397m. Speed=0.000000m/h.</desc>
<speed>0.000000</speed>
</trkpt>
<trkpt lat="56.135159" lon="26.366001">
<ele>104.571350</ele>
<time>2010-08-29T15:37:14Z</time>
<desc>lat.=56.135159, lon.=26.366001, Alt.=104.571350m. Speed=0.000000m/h.</desc>
<speed>0.000000</speed>
</trkpt>
<trkpt lat="56.135159" lon="26.366001">
<ele>104.573303</ele>
<time>2010-08-29T15:37:15Z</time>
<desc>lat.=56.135159, lon.=26.366001, Alt.=104.573303m. Speed=0.000000m/h.</desc>
<speed>0.000000</speed>
</trkpt>
<trkpt lat="56.135159" lon="26.366001">
<ele>104.575256</ele>
<time>2010-08-29T15:37:16Z</time>
<desc>lat.=56.135159, lon.=26.366001, Alt.=104.575256m. Speed=0.000000m/h.</desc>
<speed>0.000000</speed>
</trkpt>
<trkpt lat="56.135159" lon="26.366001">
<ele>104.579163</ele>
<time>2010-08-29T15:37:17Z</time>
<desc>lat.=56.135159, lon.=26.366001, Alt.=104.579163m. Speed=0.000000m/h.</desc>
<speed>0.000000</speed>
</trkpt>
<trkpt lat="56.135159" lon="26.366001">
<ele>104.581116</ele>
<time>2010-08-29T15:37:18Z</time>
<desc>lat.=56.135159, lon.=26.366001, Alt.=104.581116m. Speed=0.000000m/h.</desc>
<speed>0.000000</speed>
</trkpt>
<trkpt lat="56.135159" lon="26.366001">
<ele>104.581116</ele>
<time>2010-08-29T15:37:19Z</time>
<desc>lat.=56.135159, lon.=26.366001, Alt.=104.581116m. Speed=0.000000m/h.</desc>
<speed>0.000000</speed>
</trkpt>
<trkpt lat="56.135159" lon="26.366001">
<ele>104.583069</ele>
<time>2010-08-29T15:37:20Z</time>
<desc>lat.=56.135159, lon.=26.366001, Alt.=104.583069m. Speed=0.000000m/h.</desc>
<speed>0.000000</speed>
</trkpt>
<trkpt lat="56.135159" lon="26.366001">
<ele>104.585022</ele>
<time>2010-08-29T15:37:21Z</time>
<desc>lat.=56.135159, lon.=26.366001, Alt.=104.585022m. Speed=0.000000m/h.</desc>
<speed>0.000000</speed>
</trkpt>
<trkpt lat="56.135159" lon="26.366001">
<ele>104.585022</ele>
<time>2010-08-29T15:37:22Z</time>
<desc>lat.=56.135159, lon.=26.366001, Alt.=104.585022m. Speed=0.000000m/h.</desc>
<speed>0.000000</speed>
</trkpt>
<trkpt lat="56.135159" lon="26.366001">
<ele>104.586975</ele>
<time>2010-08-29T15:37:23Z</time>
<desc>lat.=56.135159, lon.=26.366001, Alt.=104.586975m. Speed=0.000000m/h.</desc>
<speed>0.000000</speed>
</trkpt>
<trkpt lat="56.135159" lon="26.366001">
<ele>104.588928</ele>
<time>2010-08-29T15:37:24Z</time>
<desc>lat.=56.135159, lon.=26.366001, Alt.=104.588928m. Speed=0.000000m/h.</desc>
<speed>0.000000</speed>
</trkpt>
<trkpt lat="56.135159" lon="26.366001">
<ele>104.588928</ele>
<time>2010-08-29T15:37:25Z</time>
<desc>lat.=56.135159, lon.=26.366001, Alt.=104.588928m. Speed=0.000000m/h.</desc>
<speed>0.000000</speed>
</trkpt>
<trkpt lat="56.135159" lon="26.366001">
<ele>104.588928</ele>
<time>2010-08-29T15:37:26Z</time>
<desc>lat.=56.135159, lon.=26.366001, Alt.=104.588928m. Speed=0.000000m/h.</desc>
<speed>0.000000</speed>
</trkpt>
<trkpt lat="56.135159" lon="26.366001">
<ele>104.588928</ele>
<time>2010-08-29T15:37:27Z</time>
<desc>lat.=56.135159, lon.=26.366001, Alt.=104.588928m. Speed=0.000000m/h.</desc>
<speed>0.000000</speed>
</trkpt>
<trkpt lat="56.135159" lon="26.366001">
<ele>104.588928</ele>
<time>2010-08-29T15:37:28Z</time>
<desc>lat.=56.135159, lon.=26.366001, Alt.=104.588928m. Speed=0.000000m/h.</desc>
<speed>0.000000</speed>
</trkpt>
<trkpt lat="56.135159" lon="26.366001">
<ele>104.590881</ele>
<time>2010-08-29T15:37:29Z</time>
<desc>lat.=56.135159, lon.=26.366001, Alt.=104.590881m. Speed=0.000000m/h.</desc>
<speed>0.000000</speed>
</trkpt>
<trkpt lat="56.135159" lon="26.366001">
<ele>104.592834</ele>
<time>2010-08-29T15:37:30Z</time>
<desc>lat.=56.135159, lon.=26.366001, Alt.=104.592834m. Speed=0.000000m/h.</desc>
<speed>0.000000</speed>
</trkpt>
<trkpt lat="56.135159" lon="26.366001">
<ele>104.592834</ele>
<time>2010-08-29T15:37:31Z</time>
<desc>lat.=56.135159, lon.=26.366001, Alt.=104.592834m. Speed=0.000000m/h.</desc>
<speed>0.000000</speed>
</trkpt>
<trkpt lat="56.135159" lon="26.366001">
<ele>104.594788</ele>
<time>2010-08-29T15:37:32Z</time>
<desc>lat.=56.135159, lon.=26.366001, Alt.=104.594788m. Speed=0.000000m/h.</desc>
<speed>0.000000</speed>
</trkpt>
<trkpt lat="56.135159" lon="26.366001">
<ele>104.596741</ele>
<time>2010-08-29T15:37:33Z</time>
<desc>lat.=56.135159, lon.=26.366001, Alt.=104.596741m. Speed=0.036000m/h.</desc>
<speed>0.010000</speed>
</trkpt>
<trkpt lat="56.135159" lon="26.366001">
<ele>104.596741</ele>
<time>2010-08-29T15:37:34Z</time>
<desc>lat.=56.135159, lon.=26.366001, Alt.=104.596741m. Speed=0.000000m/h.</desc>
<speed>0.000000</speed>
</trkpt>
<trkpt lat="56.135159" lon="26.366001">
<ele>104.598694</ele>
<time>2010-08-29T15:37:35Z</time>
<desc>lat.=56.135159, lon.=26.366001, Alt.=104.598694m. Speed=0.000000m/h.</desc>
<speed>0.000000</speed>
</trkpt>
<trkpt lat="56.135159" lon="26.365999">
<ele>104.600647</ele>
<time>2010-08-29T15:37:36Z</time>
<desc>lat.=56.135159, lon.=26.365999, Alt.=104.600647m. Speed=0.000000m/h.</desc>
<speed>0.000000</speed>
</trkpt>
<trkpt lat="56.135159" lon="26.365999">
<ele>104.602600</ele>
<time>2010-08-29T15:37:37Z</time>
<desc>lat.=56.135159, lon.=26.365999, Alt.=104.602600m. Speed=0.000000m/h.</desc>
<speed>0.000000</speed>
</trkpt>
<trkpt lat="56.135159" lon="26.365999">
<ele>104.602600</ele>
<time>2010-08-29T15:37:38Z</time>
<desc>lat.=56.135159, lon.=26.365999, Alt.=104.602600m. Speed=0.036000m/h.</desc>
<speed>0.010000</speed>
</trkpt>
<trkpt lat="56.135159" lon="26.365999">
<ele>104.604553</ele>
<time>2010-08-29T15:37:39Z</time>
<desc>lat.=56.135159, lon.=26.365999, Alt.=104.604553m. Speed=0.000000m/h.</desc>
<speed>0.000000</speed>
</trkpt>
<trkpt lat="56.135159" lon="26.365999">
<ele>104.604553</ele>
<time>2010-08-29T15:37:40Z</time>
<desc>lat.=56.135159, lon.=26.365999, Alt.=104.604553m. Speed=0.000000m/h.</desc>
<speed>0.000000</speed>
</trkpt>
<trkpt lat="56.135159" lon="26.365999">
<ele>104.604553</ele>
<time>2010-08-29T15:37:41Z</time>
<desc>lat.=56.135159, lon.=26.365999, Alt.=104.604553m. Speed=0.000000m/h.</desc>
<speed>0.000000</speed>
</trkpt>
<trkpt lat="56.135159" lon="26.365999">
<ele>104.604553</ele>
<time>2010-08-29T15:37:42Z</time>
<desc>lat.=56.135159, lon.=26.365999, Alt.=104.604553m. Speed=0.000000m/h.</desc>
<speed>0.000000</speed>
</trkpt>
<trkpt lat="56.135159" lon="26.365999">
<ele>104.606506</ele>
<time>2010-08-29T15:37:43Z</time>
<desc>lat.=56.135159, lon.=26.365999, Alt.=104.606506m. Speed=0.000000m/h.</desc>
<speed>0.000000</speed>
</trkpt>
<trkpt lat="56.135159" lon="26.365999">
<ele>104.608459</ele>
<time>2010-08-29T15:37:44Z</time>
<desc>lat.=56.135159, lon.=26.365999, Alt.=104.608459m. Speed=0.000000m/h.</desc>
<speed>0.000000</speed>
</trkpt>
<trkpt lat="56.135159" lon="26.365999">
<ele>104.608459</ele>
<time>2010-08-29T15:37:45Z</time>
<desc>lat.=56.135159, lon.=26.365999, Alt.=104.608459m. Speed=0.000000m/h.</desc>
<speed>0.000000</speed>
</trkpt>
<trkpt lat="56.135159" lon="26.365999">
<ele>104.610413</ele>
<time>2010-08-29T15:37:46Z</time>
<desc>lat.=56.135159, lon.=26.365999, Alt.=104.610413m. Speed=0.000000m/h.</desc>
<speed>0.000000</speed>
</trkpt>
<trkpt lat="56.135159" lon="26.365999">
<ele>104.610413</ele>
<time>2010-08-29T15:37:47Z</time>
<desc>lat.=56.135159, lon.=26.365999, Alt.=104.610413m. Speed=0.000000m/h.</desc>
<speed>0.000000</speed>
</trkpt>
<trkpt lat="56.135159" lon="26.365999">
<ele>104.610413</ele>
<time>2010-08-29T15:37:48Z</time>
<desc>lat.=56.135159, lon.=26.365999, Alt.=104.610413m. Speed=0.000000m/h.</desc>
<speed>0.000000</speed>
</trkpt>
<trkpt lat="56.135159" lon="26.365999">
<ele>104.610413</ele>
<time>2010-08-29T15:37:49Z</time>
<desc>lat.=56.135159, lon.=26.365999, Alt.=104.610413m. Speed=0.000000m/h.</desc>
<speed>0.000000</speed>
</trkpt>
<trkpt lat="56.135159" lon="26.365999">
<ele>104.610413</ele>
<time>2010-08-29T15:37:50Z</time>
<desc>lat.=56.135159, lon.=26.365999, Alt.=104.610413m. Speed=0.000000m/h.</desc>
<speed>0.000000</speed>
</trkpt>
<trkpt lat="56.135159" lon="26.365999">
<ele>104.608459</ele>
<time>2010-08-29T15:37:51Z</time>
<desc>lat.=56.135159, lon.=26.365999, Alt.=104.608459m. Speed=0.000000m/h.</desc>
<speed>0.000000</speed>
</trkpt>
<trkpt lat="56.135159" lon="26.365999">
<ele>104.610413</ele>
<time>2010-08-29T15:37:52Z</time>
<desc>lat.=56.135159, lon.=26.365999, Alt.=104.610413m. Speed=0.000000m/h.</desc>
<speed>0.000000</speed>
</trkpt>
<trkpt lat="56.135159" lon="26.365999">
<ele>104.610413</ele>
<time>2010-08-29T15:37:53Z</time>
<desc>lat.=56.135159, lon.=26.365999, Alt.=104.610413m. Speed=0.000000m/h.</desc>
<speed>0.000000</speed>
</trkpt>
<trkpt lat="56.135159" lon="26.365999">
<ele>104.610413</ele>
<time>2010-08-29T15:37:54Z</time>
<desc>lat.=56.135159, lon.=26.365999, Alt.=104.610413m. Speed=0.000000m/h.</desc>
<speed>0.000000</speed>
</trkpt>
<trkpt lat="56.135159" lon="26.365999">
<ele>104.608459</ele>
<time>2010-08-29T15:37:55Z</time>
<desc>lat.=56.135159, lon.=26.365999, Alt.=104.608459m. Speed=0.000000m/h.</desc>
<speed>0.000000</speed>
</trkpt>
<trkpt lat="56.135159" lon="26.365999">
<ele>104.608459</ele>
<time>2010-08-29T15:37:56Z</time>
<desc>lat.=56.135159, lon.=26.365999, Alt.=104.608459m. Speed=0.000000m/h.</desc>
<speed>0.000000</speed>
</trkpt>
<trkpt lat="56.135159" lon="26.365999">
<ele>104.606506</ele>
<time>2010-08-29T15:37:57Z</time>
<desc>lat.=56.135159, lon.=26.365999, Alt.=104.606506m. Speed=0.000000m/h.</desc>
<speed>0.000000</speed>
</trkpt>
<trkpt lat="56.135159" lon="26.365999">
<ele>104.608459</ele>
<time>2010-08-29T15:37:58Z</time>
<desc>lat.=56.135159, lon.=26.365999, Alt.=104.608459m. Speed=0.000000m/h.</desc>
<speed>0.000000</speed>
</trkpt>
<trkpt lat="56.135159" lon="26.365999">
<ele>104.608459</ele>
<time>2010-08-29T15:37:59Z</time>
<desc>lat.=56.135159, lon.=26.365999, Alt.=104.608459m. Speed=0.000000m/h.</desc>
<speed>0.000000</speed>
</trkpt>
<trkpt lat="56.135159" lon="26.365999">
<ele>104.608459</ele>
<time>2010-08-29T15:38:00Z</time>
<desc>lat.=56.135159, lon.=26.365999, Alt.=104.608459m. Speed=0.000000m/h.</desc>
<speed>0.000000</speed>
</trkpt>
<trkpt lat="56.135159" lon="26.365999">
<ele>104.608459</ele>
<time>2010-08-29T15:38:01Z</time>
<desc>lat.=56.135159, lon.=26.365999, Alt.=104.608459m. Speed=0.000000m/h.</desc>
<speed>0.000000</speed>
</trkpt>
<trkpt lat="56.135159" lon="26.365999">
<ele>104.608459</ele>
<time>2010-08-29T15:38:02Z</time>
<desc>lat.=56.135159, lon.=26.365999, Alt.=104.608459m. Speed=0.000000m/h.</desc>
<speed>0.000000</speed>
</trkpt>
<trkpt lat="56.135159" lon="26.365999">
<ele>104.608459</ele>
<time>2010-08-29T15:38:03Z</time>
<desc>lat.=56.135159, lon.=26.365999, Alt.=104.608459m. Speed=0.000000m/h.</desc>
<speed>0.000000</speed>
</trkpt>
<trkpt lat="56.135159" lon="26.365999">
<ele>104.608459</ele>
<time>2010-08-29T15:38:04Z</time>
<desc>lat.=56.135159, lon.=26.365999, Alt.=104.608459m. Speed=0.000000m/h.</desc>
<speed>0.000000</speed>
</trkpt>
<trkpt lat="56.135159" lon="26.365999">
<ele>104.610413</ele>
<time>2010-08-29T15:38:05Z</time>
<desc>lat.=56.135159, lon.=26.365999, Alt.=104.610413m. Speed=0.000000m/h.</desc>
<speed>0.000000</speed>
</trkpt>
<trkpt lat="56.135159" lon="26.365999">
<ele>104.610413</ele>
<time>2010-08-29T15:38:06Z</time>
<desc>lat.=56.135159, lon.=26.365999, Alt.=104.610413m. Speed=0.000000m/h.</desc>
<speed>0.000000</speed>
</trkpt>
<trkpt lat="56.135159" lon="26.365999">
<ele>104.612366</ele>
<time>2010-08-29T15:38:07Z</time>
<desc>lat.=56.135159, lon.=26.365999, Alt.=104.612366m. Speed=0.000000m/h.</desc>
<speed>0.000000</speed>
</trkpt>
<trkpt lat="56.135159" lon="26.365999">
<ele>104.614319</ele>
<time>2010-08-29T15:38:08Z</time>
<desc>lat.=56.135159, lon.=26.365999, Alt.=104.614319m. Speed=0.000000m/h.</desc>
<speed>0.000000</speed>
</trkpt>
<trkpt lat="56.135159" lon="26.365999">
<ele>104.616272</ele>
<time>2010-08-29T15:38:09Z</time>
<desc>lat.=56.135159, lon.=26.365999, Alt.=104.616272m. Speed=0.000000m/h.</desc>
<speed>0.000000</speed>
</trkpt>
<trkpt lat="56.135159" lon="26.365999">
<ele>104.616272</ele>
<time>2010-08-29T15:38:10Z</time>
<desc>lat.=56.135159, lon.=26.365999, Alt.=104.616272m. Speed=0.000000m/h.</desc>
<speed>0.000000</speed>
</trkpt>
<trkpt lat="56.135159" lon="26.365999">
<ele>104.618225</ele>
<time>2010-08-29T15:38:11Z</time>
<desc>lat.=56.135159, lon.=26.365999, Alt.=104.618225m. Speed=0.000000m/h.</desc>
<speed>0.000000</speed>
</trkpt>
<trkpt lat="56.135159" lon="26.365999">
<ele>104.620178</ele>
<time>2010-08-29T15:38:12Z</time>
<desc>lat.=56.135159, lon.=26.365999, Alt.=104.620178m. Speed=0.000000m/h.</desc>
<speed>0.000000</speed>
</trkpt>
<trkpt lat="56.135159" lon="26.365999">
<ele>104.622131</ele>
<time>2010-08-29T15:38:13Z</time>
<desc>lat.=56.135159, lon.=26.365999, Alt.=104.622131m. Speed=0.036000m/h.</desc>
<speed>0.010000</speed>
</trkpt>
<trkpt lat="56.135159" lon="26.365999">
<ele>104.624084</ele>
<time>2010-08-29T15:38:14Z</time>
<desc>lat.=56.135159, lon.=26.365999, Alt.=104.624084m. Speed=0.000000m/h.</desc>
<speed>0.000000</speed>
</trkpt>
<trkpt lat="56.135159" lon="26.365999">
<ele>104.626038</ele>
<time>2010-08-29T15:38:15Z</time>
<desc>lat.=56.135159, lon.=26.365999, Alt.=104.626038m. Speed=0.000000m/h.</desc>
<speed>0.000000</speed>
</trkpt>
<trkpt lat="56.135159" lon="26.365999">
<ele>104.626038</ele>
<time>2010-08-29T15:38:16Z</time>
<desc>lat.=56.135159, lon.=26.365999, Alt.=104.626038m. Speed=0.000000m/h.</desc>
<speed>0.000000</speed>
</trkpt>
<trkpt lat="56.135159" lon="26.365999">
<ele>104.627991</ele>
<time>2010-08-29T15:38:17Z</time>
<desc>lat.=56.135159, lon.=26.365999, Alt.=104.627991m. Speed=0.000000m/h.</desc>
<speed>0.000000</speed>
</trkpt>
<trkpt lat="56.135159" lon="26.365999">
<ele>104.629944</ele>
<time>2010-08-29T15:38:18Z</time>
<desc>lat.=56.135159, lon.=26.365999, Alt.=104.629944m. Speed=0.000000m/h.</desc>
<speed>0.000000</speed>
</trkpt>
<trkpt lat="56.135159" lon="26.365999">
<ele>104.633850</ele>
<time>2010-08-29T15:38:19Z</time>
<desc>lat.=56.135159, lon.=26.365999, Alt.=104.633850m. Speed=0.000000m/h.</desc>
<speed>0.000000</speed>
</trkpt>
<trkpt lat="56.135159" lon="26.365999">
<ele>104.633850</ele>
<time>2010-08-29T15:38:20Z</time>
<desc>lat.=56.135159, lon.=26.365999, Alt.=104.633850m. Speed=0.000000m/h.</desc>
<speed>0.000000</speed>
</trkpt>
<trkpt lat="56.135159" lon="26.365999">
<ele>104.635803</ele>
<time>2010-08-29T15:38:21Z</time>
<desc>lat.=56.135159, lon.=26.365999, Alt.=104.635803m. Speed=0.000000m/h.</desc>
<speed>0.000000</speed>
</trkpt>
<trkpt lat="56.135159" lon="26.365999">
<ele>104.635803</ele>
<time>2010-08-29T15:38:22Z</time>
<desc>lat.=56.135159, lon.=26.365999, Alt.=104.635803m. Speed=0.000000m/h.</desc>
<speed>0.000000</speed>
</trkpt>
<trkpt lat="56.135159" lon="26.365999">
<ele>104.637756</ele>
<time>2010-08-29T15:38:23Z</time>
<desc>lat.=56.135159, lon.=26.365999, Alt.=104.637756m. Speed=0.036000m/h.</desc>
<speed>0.010000</speed>
</trkpt>
<trkpt lat="56.135159" lon="26.365999">
<ele>104.639709</ele>
<time>2010-08-29T15:38:24Z</time>
<desc>lat.=56.135159, lon.=26.365999, Alt.=104.639709m. Speed=0.036000m/h.</desc>
<speed>0.010000</speed>
</trkpt>
<trkpt lat="56.135159" lon="26.365999">
<ele>104.639709</ele>
<time>2010-08-29T15:38:25Z</time>
<desc>lat.=56.135159, lon.=26.365999, Alt.=104.639709m. Speed=0.036000m/h.</desc>
<speed>0.010000</speed>
</trkpt>
<trkpt lat="56.135159" lon="26.366001">
<ele>104.637756</ele>
<time>2010-08-29T15:38:26Z</time>
<desc>lat.=56.135159, lon.=26.366001, Alt.=104.637756m. Speed=0.000000m/h.</desc>
<speed>0.000000</speed>
</trkpt>
<trkpt lat="56.135159" lon="26.366001">
<ele>104.639709</ele>
<time>2010-08-29T15:38:27Z</time>
<desc>lat.=56.135159, lon.=26.366001, Alt.=104.639709m. Speed=0.000000m/h.</desc>
<speed>0.000000</speed>
</trkpt>
<trkpt lat="56.135159" lon="26.366001">
<ele>104.639709</ele>
<time>2010-08-29T15:38:28Z</time>
<desc>lat.=56.135159, lon.=26.366001, Alt.=104.639709m. Speed=0.000000m/h.</desc>
<speed>0.000000</speed>
</trkpt>
<trkpt lat="56.135159" lon="26.366001">
<ele>104.639709</ele>
<time>2010-08-29T15:38:29Z</time>
<desc>lat.=56.135159, lon.=26.366001, Alt.=104.639709m. Speed=0.000000m/h.</desc>
<speed>0.000000</speed>
</trkpt>
<trkpt lat="56.135159" lon="26.366001">
<ele>104.641663</ele>
<time>2010-08-29T15:38:30Z</time>
<desc>lat.=56.135159, lon.=26.366001, Alt.=104.641663m. Speed=0.000000m/h.</desc>
<speed>0.000000</speed>
</trkpt>
<trkpt lat="56.135159" lon="26.366001">
<ele>104.641663</ele>
<time>2010-08-29T15:38:31Z</time>
<desc>lat.=56.135159, lon.=26.366001, Alt.=104.641663m. Speed=0.000000m/h.</desc>
<speed>0.000000</speed>
</trkpt>
<trkpt lat="56.135159" lon="26.366001">
<ele>104.641663</ele>
<time>2010-08-29T15:38:32Z</time>
<desc>lat.=56.135159, lon.=26.366001, Alt.=104.641663m. Speed=0.000000m/h.</desc>
<speed>0.000000</speed>
</trkpt>
<trkpt lat="56.135159" lon="26.366001">
<ele>104.641663</ele>
<time>2010-08-29T15:38:33Z</time>
<desc>lat.=56.135159, lon.=26.366001, Alt.=104.641663m. Speed=0.000000m/h.</desc>
<speed>0.000000</speed>
</trkpt>
<trkpt lat="56.135159" lon="26.366001">
<ele>104.641663</ele>
<time>2010-08-29T15:38:34Z</time>
<desc>lat.=56.135159, lon.=26.366001, Alt.=104.641663m. Speed=0.000000m/h.</desc>
<speed>0.000000</speed>
</trkpt>
<trkpt lat="56.135159" lon="26.366001">
<ele>104.641663</ele>
<time>2010-08-29T15:38:35Z</time>
<desc>lat.=56.135159, lon.=26.366001, Alt.=104.641663m. Speed=0.000000m/h.</desc>
<speed>0.000000</speed>
</trkpt>
<trkpt lat="56.135159" lon="26.366001">
<ele>104.643616</ele>
<time>2010-08-29T15:38:36Z</time>
<desc>lat.=56.135159, lon.=26.366001, Alt.=104.643616m. Speed=0.000000m/h.</desc>
<speed>0.000000</speed>
</trkpt>
<trkpt lat="56.135159" lon="26.366001">
<ele>104.641663</ele>
<time>2010-08-29T15:38:37Z</time>
<desc>lat.=56.135159, lon.=26.366001, Alt.=104.641663m. Speed=0.000000m/h.</desc>
<speed>0.000000</speed>
</trkpt>
<trkpt lat="56.135159" lon="26.366001">
<ele>104.641663</ele>
<time>2010-08-29T15:38:38Z</time>
<desc>lat.=56.135159, lon.=26.366001, Alt.=104.641663m. Speed=0.036000m/h.</desc>
<speed>0.010000</speed>
</trkpt>
<trkpt lat="56.135159" lon="26.366001">
<ele>104.643616</ele>
<time>2010-08-29T15:38:39Z</time>
<desc>lat.=56.135159, lon.=26.366001, Alt.=104.643616m. Speed=0.000000m/h.</desc>
<speed>0.000000</speed>
</trkpt>
<trkpt lat="56.135159" lon="26.366001">
<ele>104.641663</ele>
<time>2010-08-29T15:38:40Z</time>
<desc>lat.=56.135159, lon.=26.366001, Alt.=104.641663m. Speed=0.036000m/h.</desc>
<speed>0.010000</speed>
</trkpt>
<trkpt lat="56.135159" lon="26.366001">
<ele>104.643616</ele>
<time>2010-08-29T15:38:41Z</time>
<desc>lat.=56.135159, lon.=26.366001, Alt.=104.643616m. Speed=0.000000m/h.</desc>
<speed>0.000000</speed>
</trkpt>
<trkpt lat="56.135159" lon="26.366001">
<ele>104.645569</ele>
<time>2010-08-29T15:38:42Z</time>
<desc>lat.=56.135159, lon.=26.366001, Alt.=104.645569m. Speed=0.000000m/h.</desc>
<speed>0.000000</speed>
</trkpt>
<trkpt lat="56.135159" lon="26.366001">
<ele>104.647522</ele>
<time>2010-08-29T15:38:43Z</time>
<desc>lat.=56.135159, lon.=26.366001, Alt.=104.647522m. Speed=0.000000m/h.</desc>
<speed>0.000000</speed>
</trkpt>
<trkpt lat="56.135159" lon="26.366001">
<ele>104.647522</ele>
<time>2010-08-29T15:38:44Z</time>
<desc>lat.=56.135159, lon.=26.366001, Alt.=104.647522m. Speed=0.000000m/h.</desc>
<speed>0.000000</speed>
</trkpt>
<trkpt lat="56.135159" lon="26.366001">
<ele>104.649475</ele>
<time>2010-08-29T15:38:45Z</time>
<desc>lat.=56.135159, lon.=26.366001, Alt.=104.649475m. Speed=0.000000m/h.</desc>
<speed>0.000000</speed>
</trkpt>
<trkpt lat="56.135159" lon="26.366001">
<ele>104.649475</ele>
<time>2010-08-29T15:38:46Z</time>
<desc>lat.=56.135159, lon.=26.366001, Alt.=104.649475m. Speed=0.000000m/h.</desc>
<speed>0.000000</speed>
</trkpt>
<trkpt lat="56.135159" lon="26.366001">
<ele>104.651428</ele>
<time>2010-08-29T15:38:47Z</time>
<desc>lat.=56.135159, lon.=26.366001, Alt.=104.651428m. Speed=0.000000m/h.</desc>
<speed>0.000000</speed>
</trkpt>
<trkpt lat="56.135159" lon="26.366001">
<ele>104.651428</ele>
<time>2010-08-29T15:38:48Z</time>
<desc>lat.=56.135159, lon.=26.366001, Alt.=104.651428m. Speed=0.000000m/h.</desc>
<speed>0.000000</speed>
</trkpt>
<trkpt lat="56.135159" lon="26.366001">
<ele>104.653381</ele>
<time>2010-08-29T15:38:49Z</time>
<desc>lat.=56.135159, lon.=26.366001, Alt.=104.653381m. Speed=0.000000m/h.</desc>
<speed>0.000000</speed>
</trkpt>
<trkpt lat="56.135159" lon="26.366001">
<ele>104.653381</ele>
<time>2010-08-29T15:38:50Z</time>
<desc>lat.=56.135159, lon.=26.366001, Alt.=104.653381m. Speed=0.000000m/h.</desc>
<speed>0.000000</speed>
</trkpt>
<trkpt lat="56.135159" lon="26.366001">
<ele>104.655334</ele>
<time>2010-08-29T15:38:51Z</time>
<desc>lat.=56.135159, lon.=26.366001, Alt.=104.655334m. Speed=0.000000m/h.</desc>
<speed>0.000000</speed>
</trkpt>
<trkpt lat="56.135159" lon="26.366001">
<ele>104.655334</ele>
<time>2010-08-29T15:38:52Z</time>
<desc>lat.=56.135159, lon.=26.366001, Alt.=104.655334m. Speed=0.036000m/h.</desc>
<speed>0.010000</speed>
</trkpt>
<trkpt lat="56.135159" lon="26.366001">
<ele>104.657288</ele>
<time>2010-08-29T15:38:53Z</time>
<desc>lat.=56.135159, lon.=26.366001, Alt.=104.657288m. Speed=0.000000m/h.</desc>
<speed>0.000000</speed>
</trkpt>
<trkpt lat="56.135159" lon="26.366001">
<ele>104.657288</ele>
<time>2010-08-29T15:38:54Z</time>
<desc>lat.=56.135159, lon.=26.366001, Alt.=104.657288m. Speed=0.000000m/h.</desc>
<speed>0.000000</speed>
</trkpt>
<trkpt lat="56.135159" lon="26.366001">
<ele>104.659241</ele>
<time>2010-08-29T15:38:55Z</time>
<desc>lat.=56.135159, lon.=26.366001, Alt.=104.659241m. Speed=0.000000m/h.</desc>
<speed>0.000000</speed>
</trkpt>
<trkpt lat="56.135159" lon="26.366001">
<ele>104.661194</ele>
<time>2010-08-29T15:38:56Z</time>
<desc>lat.=56.135159, lon.=26.366001, Alt.=104.661194m. Speed=0.036000m/h.</desc>
<speed>0.010000</speed>
</trkpt>
<trkpt lat="56.135159" lon="26.366001">
<ele>104.663147</ele>
<time>2010-08-29T15:38:57Z</time>
<desc>lat.=56.135159, lon.=26.366001, Alt.=104.663147m. Speed=0.000000m/h.</desc>
<speed>0.000000</speed>
</trkpt>
<trkpt lat="56.135159" lon="26.366001">
<ele>104.665100</ele>
<time>2010-08-29T15:38:58Z</time>
<desc>lat.=56.135159, lon.=26.366001, Alt.=104.665100m. Speed=0.000000m/h.</desc>
<speed>0.000000</speed>
</trkpt>
<trkpt lat="56.135159" lon="26.366001">
<ele>104.665100</ele>
<time>2010-08-29T15:38:59Z</time>
<desc>lat.=56.135159, lon.=26.366001, Alt.=104.665100m. Speed=0.036000m/h.</desc>
<speed>0.010000</speed>
</trkpt>
<trkpt lat="56.135159" lon="26.366001">
<ele>104.667053</ele>
<time>2010-08-29T15:39:00Z</time>
<desc>lat.=56.135159, lon.=26.366001, Alt.=104.667053m. Speed=0.000000m/h.</desc>
<speed>0.000000</speed>
</trkpt>
<trkpt lat="56.135159" lon="26.366001">
<ele>104.669006</ele>
<time>2010-08-29T15:39:01Z</time>
<desc>lat.=56.135159, lon.=26.366001, Alt.=104.669006m. Speed=0.000000m/h.</desc>
<speed>0.000000</speed>
</trkpt>
<trkpt lat="56.135159" lon="26.366001">
<ele>104.669006</ele>
<time>2010-08-29T15:39:02Z</time>
<desc>lat.=56.135159, lon.=26.366001, Alt.=104.669006m. Speed=0.000000m/h.</desc>
<speed>0.000000</speed>
</trkpt>
<trkpt lat="56.135159" lon="26.366001">
<ele>104.670959</ele>
<time>2010-08-29T15:39:03Z</time>
<desc>lat.=56.135159, lon.=26.366001, Alt.=104.670959m. Speed=0.036000m/h.</desc>
<speed>0.010000</speed>
</trkpt>
<trkpt lat="56.135159" lon="26.365999">
<ele>104.670959</ele>
<time>2010-08-29T15:39:04Z</time>
<desc>lat.=56.135159, lon.=26.365999, Alt.=104.670959m. Speed=0.000000m/h.</desc>
<speed>0.000000</speed>
</trkpt>
<trkpt lat="56.135159" lon="26.365999">
<ele>104.672913</ele>
<time>2010-08-29T15:39:05Z</time>
<desc>lat.=56.135159, lon.=26.365999, Alt.=104.672913m. Speed=0.000000m/h.</desc>
<speed>0.000000</speed>
</trkpt>
<trkpt lat="56.135159" lon="26.365999">
<ele>104.672913</ele>
<time>2010-08-29T15:39:06Z</time>
<desc>lat.=56.135159, lon.=26.365999, Alt.=104.672913m. Speed=0.036000m/h.</desc>
<speed>0.010000</speed>
</trkpt>
<trkpt lat="56.135159" lon="26.365999">
<ele>104.672913</ele>
<time>2010-08-29T15:39:07Z</time>
<desc>lat.=56.135159, lon.=26.365999, Alt.=104.672913m. Speed=0.000000m/h.</desc>
<speed>0.000000</speed>
</trkpt>
<trkpt lat="56.135159" lon="26.365999">
<ele>104.672913</ele>
<time>2010-08-29T15:39:08Z</time>
<desc>lat.=56.135159, lon.=26.365999, Alt.=104.672913m. Speed=0.036000m/h.</desc>
<speed>0.010000</speed>
</trkpt>
<trkpt lat="56.135159" lon="26.365999">
<ele>104.672913</ele>
<time>2010-08-29T15:39:09Z</time>
<desc>lat.=56.135159, lon.=26.365999, Alt.=104.672913m. Speed=0.036000m/h.</desc>
<speed>0.010000</speed>
</trkpt>
<trkpt lat="56.135159" lon="26.365999">
<ele>104.670959</ele>
<time>2010-08-29T15:39:10Z</time>
<desc>lat.=56.135159, lon.=26.365999, Alt.=104.670959m. Speed=0.036000m/h.</desc>
<speed>0.010000</speed>
</trkpt>
<trkpt lat="56.135159" lon="26.365999">
<ele>104.670959</ele>
<time>2010-08-29T15:39:11Z</time>
<desc>lat.=56.135159, lon.=26.365999, Alt.=104.670959m. Speed=0.000000m/h.</desc>
<speed>0.000000</speed>
</trkpt>
<trkpt lat="56.135159" lon="26.365999">
<ele>104.670959</ele>
<time>2010-08-29T15:39:12Z</time>
<desc>lat.=56.135159, lon.=26.365999, Alt.=104.670959m. Speed=0.000000m/h.</desc>
<speed>0.000000</speed>
</trkpt>
<trkpt lat="56.135159" lon="26.365999">
<ele>104.670959</ele>
<time>2010-08-29T15:39:13Z</time>
<desc>lat.=56.135159, lon.=26.365999, Alt.=104.670959m. Speed=0.000000m/h.</desc>
<speed>0.000000</speed>
</trkpt>
<trkpt lat="56.135159" lon="26.365999">
<ele>104.670959</ele>
<time>2010-08-29T15:39:14Z</time>
<desc>lat.=56.135159, lon.=26.365999, Alt.=104.670959m. Speed=0.000000m/h.</desc>
<speed>0.000000</speed>
</trkpt>
<trkpt lat="56.135159" lon="26.365999">
<ele>104.669006</ele>
<time>2010-08-29T15:39:15Z</time>
<desc>lat.=56.135159, lon.=26.365999, Alt.=104.669006m. Speed=0.000000m/h.</desc>
<speed>0.000000</speed>
</trkpt>
<trkpt lat="56.135159" lon="26.365999">
<ele>104.669006</ele>
<time>2010-08-29T15:39:16Z</time>
<desc>lat.=56.135159, lon.=26.365999, Alt.=104.669006m. Speed=0.000000m/h.</desc>
<speed>0.000000</speed>
</trkpt>
<trkpt lat="56.135159" lon="26.365999">
<ele>104.669006</ele>
<time>2010-08-29T15:39:17Z</time>
<desc>lat.=56.135159, lon.=26.365999, Alt.=104.669006m. Speed=0.036000m/h.</desc>
<speed>0.010000</speed>
</trkpt>
<trkpt lat="56.135159" lon="26.365999">
<ele>104.669006</ele>
<time>2010-08-29T15:39:18Z</time>
<desc>lat.=56.135159, lon.=26.365999, Alt.=104.669006m. Speed=0.000000m/h.</desc>
<speed>0.000000</speed>
</trkpt>
<trkpt lat="56.135159" lon="26.365999">
<ele>104.670959</ele>
<time>2010-08-29T15:39:19Z</time>
<desc>lat.=56.135159, lon.=26.365999, Alt.=104.670959m. Speed=0.000000m/h.</desc>
<speed>0.000000</speed>
</trkpt>
<trkpt lat="56.135159" lon="26.365999">
<ele>104.669006</ele>
<time>2010-08-29T15:39:20Z</time>
<desc>lat.=56.135159, lon.=26.365999, Alt.=104.669006m. Speed=0.000000m/h.</desc>
<speed>0.000000</speed>
</trkpt>
<trkpt lat="56.135159" lon="26.365999">
<ele>104.669006</ele>
<time>2010-08-29T15:39:21Z</time>
<desc>lat.=56.135159, lon.=26.365999, Alt.=104.669006m. Speed=0.000000m/h.</desc>
<speed>0.000000</speed>
</trkpt>
<trkpt lat="56.135159" lon="26.365999">
<ele>104.669006</ele>
<time>2010-08-29T15:39:22Z</time>
<desc>lat.=56.135159, lon.=26.365999, Alt.=104.669006m. Speed=0.000000m/h.</desc>
<speed>0.000000</speed>
</trkpt>
<trkpt lat="56.135159" lon="26.365999">
<ele>104.670959</ele>
<time>2010-08-29T15:39:23Z</time>
<desc>lat.=56.135159, lon.=26.365999, Alt.=104.670959m. Speed=0.000000m/h.</desc>
<speed>0.000000</speed>
</trkpt>
<trkpt lat="56.135159" lon="26.365999">
<ele>104.672913</ele>
<time>2010-08-29T15:39:24Z</time>
<desc>lat.=56.135159, lon.=26.365999, Alt.=104.672913m. Speed=0.036000m/h.</desc>
<speed>0.010000</speed>
</trkpt>
<trkpt lat="56.135159" lon="26.365999">
<ele>104.672913</ele>
<time>2010-08-29T15:39:25Z</time>
<desc>lat.=56.135159, lon.=26.365999, Alt.=104.672913m. Speed=0.036000m/h.</desc>
<speed>0.010000</speed>
</trkpt>
<trkpt lat="56.135159" lon="26.365999">
<ele>104.672913</ele>
<time>2010-08-29T15:39:26Z</time>
<desc>lat.=56.135159, lon.=26.365999, Alt.=104.672913m. Speed=0.000000m/h.</desc>
<speed>0.000000</speed>
</trkpt>
<trkpt lat="56.135159" lon="26.365999">
<ele>104.672913</ele>
<time>2010-08-29T15:39:27Z</time>
<desc>lat.=56.135159, lon.=26.365999, Alt.=104.672913m. Speed=0.000000m/h.</desc>
<speed>0.000000</speed>
</trkpt>
<trkpt lat="56.135159" lon="26.365999">
<ele>104.672913</ele>
<time>2010-08-29T15:39:28Z</time>
<desc>lat.=56.135159, lon.=26.365999, Alt.=104.672913m. Speed=0.000000m/h.</desc>
<speed>0.000000</speed>
</trkpt>
<trkpt lat="56.135159" lon="26.365999">
<ele>104.670959</ele>
<time>2010-08-29T15:39:29Z</time>
<desc>lat.=56.135159, lon.=26.365999, Alt.=104.670959m. Speed=0.000000m/h.</desc>
<speed>0.000000</speed>
</trkpt>
<trkpt lat="56.135159" lon="26.365999">
<ele>104.670959</ele>
<time>2010-08-29T15:39:30Z</time>
<desc>lat.=56.135159, lon.=26.365999, Alt.=104.670959m. Speed=0.000000m/h.</desc>
<speed>0.000000</speed>
</trkpt>
<trkpt lat="56.135159" lon="26.365999">
<ele>104.672913</ele>
<time>2010-08-29T15:39:31Z</time>
<desc>lat.=56.135159, lon.=26.365999, Alt.=104.672913m. Speed=0.000000m/h.</desc>
<speed>0.000000</speed>
</trkpt>
<trkpt lat="56.135159" lon="26.365999">
<ele>104.670959</ele>
<time>2010-08-29T15:39:32Z</time>
<desc>lat.=56.135159, lon.=26.365999, Alt.=104.670959m. Speed=0.000000m/h.</desc>
<speed>0.000000</speed>
</trkpt>
<trkpt lat="56.135159" lon="26.365999">
<ele>104.670959</ele>
<time>2010-08-29T15:39:33Z</time>
<desc>lat.=56.135159, lon.=26.365999, Alt.=104.670959m. Speed=0.000000m/h.</desc>
<speed>0.000000</speed>
</trkpt>
<trkpt lat="56.135159" lon="26.365999">
<ele>104.672913</ele>
<time>2010-08-29T15:39:34Z</time>
<desc>lat.=56.135159, lon.=26.365999, Alt.=104.672913m. Speed=0.000000m/h.</desc>
<speed>0.000000</speed>
</trkpt>
<trkpt lat="56.135159" lon="26.365999">
<ele>104.674866</ele>
<time>2010-08-29T15:39:35Z</time>
<desc>lat.=56.135159, lon.=26.365999, Alt.=104.674866m. Speed=0.000000m/h.</desc>
<speed>0.000000</speed>
</trkpt>
<trkpt lat="56.135159" lon="26.365999">
<ele>104.674866</ele>
<time>2010-08-29T15:39:36Z</time>
<desc>lat.=56.135159, lon.=26.365999, Alt.=104.674866m. Speed=0.000000m/h.</desc>
<speed>0.000000</speed>
</trkpt>
<trkpt lat="56.135159" lon="26.365997">
<ele>104.674866</ele>
<time>2010-08-29T15:39:37Z</time>
<desc>lat.=56.135159, lon.=26.365997, Alt.=104.674866m. Speed=0.000000m/h.</desc>
<speed>0.000000</speed>
</trkpt>
<trkpt lat="56.135159" lon="26.365997">
<ele>104.676819</ele>
<time>2010-08-29T15:39:38Z</time>
<desc>lat.=56.135159, lon.=26.365997, Alt.=104.676819m. Speed=0.000000m/h.</desc>
<speed>0.000000</speed>
</trkpt>
<trkpt lat="56.135159" lon="26.365997">
<ele>104.674866</ele>
<time>2010-08-29T15:39:39Z</time>
<desc>lat.=56.135159, lon.=26.365997, Alt.=104.674866m. Speed=0.000000m/h.</desc>
<speed>0.000000</speed>
</trkpt>
<trkpt lat="56.135159" lon="26.365997">
<ele>104.674866</ele>
<time>2010-08-29T15:39:40Z</time>
<desc>lat.=56.135159, lon.=26.365997, Alt.=104.674866m. Speed=0.000000m/h.</desc>
<speed>0.000000</speed>
</trkpt>
<trkpt lat="56.135159" lon="26.365997">
<ele>104.674866</ele>
<time>2010-08-29T15:39:41Z</time>
<desc>lat.=56.135159, lon.=26.365997, Alt.=104.674866m. Speed=0.000000m/h.</desc>
<speed>0.000000</speed>
</trkpt>
<trkpt lat="56.135159" lon="26.365997">
<ele>104.674866</ele>
<time>2010-08-29T15:39:42Z</time>
<desc>lat.=56.135159, lon.=26.365997, Alt.=104.674866m. Speed=0.000000m/h.</desc>
<speed>0.000000</speed>
</trkpt>
<trkpt lat="56.135159" lon="26.365997">
<ele>104.672913</ele>
<time>2010-08-29T15:39:43Z</time>
<desc>lat.=56.135159, lon.=26.365997, Alt.=104.672913m. Speed=0.000000m/h.</desc>
<speed>0.000000</speed>
</trkpt>
<trkpt lat="56.135159" lon="26.365997">
<ele>104.674866</ele>
<time>2010-08-29T15:39:44Z</time>
<desc>lat.=56.135159, lon.=26.365997, Alt.=104.674866m. Speed=0.000000m/h.</desc>
<speed>0.000000</speed>
</trkpt>
<trkpt lat="56.135159" lon="26.365997">
<ele>104.672913</ele>
<time>2010-08-29T15:39:45Z</time>
<desc>lat.=56.135159, lon.=26.365997, Alt.=104.672913m. Speed=0.000000m/h.</desc>
<speed>0.000000</speed>
</trkpt>
<trkpt lat="56.135159" lon="26.365997">
<ele>104.672913</ele>
<time>2010-08-29T15:39:46Z</time>
<desc>lat.=56.135159, lon.=26.365997, Alt.=104.672913m. Speed=0.000000m/h.</desc>
<speed>0.000000</speed>
</trkpt>
<trkpt lat="56.135159" lon="26.365997">
<ele>104.674866</ele>
<time>2010-08-29T15:39:47Z</time>
<desc>lat.=56.135159, lon.=26.365997, Alt.=104.674866m. Speed=0.000000m/h.</desc>
<speed>0.000000</speed>
</trkpt>
<trkpt lat="56.135159" lon="26.365997">
<ele>104.674866</ele>
<time>2010-08-29T15:39:48Z</time>
<desc>lat.=56.135159, lon.=26.365997, Alt.=104.674866m. Speed=0.000000m/h.</desc>
<speed>0.000000</speed>
</trkpt>
<trkpt lat="56.135159" lon="26.365997">
<ele>104.672913</ele>
<time>2010-08-29T15:39:49Z</time>
<desc>lat.=56.135159, lon.=26.365997, Alt.=104.672913m. Speed=0.000000m/h.</desc>
<speed>0.000000</speed>
</trkpt>
<trkpt lat="56.135159" lon="26.365997">
<ele>104.672913</ele>
<time>2010-08-29T15:39:50Z</time>
<desc>lat.=56.135159, lon.=26.365997, Alt.=104.672913m. Speed=0.036000m/h.</desc>
<speed>0.010000</speed>
</trkpt>
<trkpt lat="56.135159" lon="26.365997">
<ele>104.672913</ele>
<time>2010-08-29T15:39:51Z</time>
<desc>lat.=56.135159, lon.=26.365997, Alt.=104.672913m. Speed=0.000000m/h.</desc>
<speed>0.000000</speed>
</trkpt>
<trkpt lat="56.135159" lon="26.365997">
<ele>104.670959</ele>
<time>2010-08-29T15:39:52Z</time>
<desc>lat.=56.135159, lon.=26.365997, Alt.=104.670959m. Speed=0.000000m/h.</desc>
<speed>0.000000</speed>
</trkpt>
<trkpt lat="56.135159" lon="26.365997">
<ele>104.670959</ele>
<time>2010-08-29T15:39:53Z</time>
<desc>lat.=56.135159, lon.=26.365997, Alt.=104.670959m. Speed=0.000000m/h.</desc>
<speed>0.000000</speed>
</trkpt>
<trkpt lat="56.135159" lon="26.365997">
<ele>104.669006</ele>
<time>2010-08-29T15:39:54Z</time>
<desc>lat.=56.135159, lon.=26.365997, Alt.=104.669006m. Speed=0.000000m/h.</desc>
<speed>0.000000</speed>
</trkpt>
<trkpt lat="56.135159" lon="26.365997">
<ele>104.670959</ele>
<time>2010-08-29T15:39:55Z</time>
<desc>lat.=56.135159, lon.=26.365997, Alt.=104.670959m. Speed=0.000000m/h.</desc>
<speed>0.000000</speed>
</trkpt>
<trkpt lat="56.135159" lon="26.365997">
<ele>104.670959</ele>
<time>2010-08-29T15:39:56Z</time>
<desc>lat.=56.135159, lon.=26.365997, Alt.=104.670959m. Speed=0.000000m/h.</desc>
<speed>0.000000</speed>
</trkpt>
<trkpt lat="56.135159" lon="26.365997">
<ele>104.670959</ele>
<time>2010-08-29T15:39:57Z</time>
<desc>lat.=56.135159, lon.=26.365997, Alt.=104.670959m. Speed=0.000000m/h.</desc>
<speed>0.000000</speed>
</trkpt>
<trkpt lat="56.135159" lon="26.365997">
<ele>104.672913</ele>
<time>2010-08-29T15:39:58Z</time>
<desc>lat.=56.135159, lon.=26.365997, Alt.=104.672913m. Speed=0.000000m/h.</desc>
<speed>0.000000</speed>
</trkpt>
<trkpt lat="56.135159" lon="26.365997">
<ele>104.672913</ele>
<time>2010-08-29T15:39:59Z</time>
<desc>lat.=56.135159, lon.=26.365997, Alt.=104.672913m. Speed=0.000000m/h.</desc>
<speed>0.000000</speed>
</trkpt>
<trkpt lat="56.135159" lon="26.365997">
<ele>104.672913</ele>
<time>2010-08-29T15:40:00Z</time>
<desc>lat.=56.135159, lon.=26.365997, Alt.=104.672913m. Speed=0.000000m/h.</desc>
<speed>0.000000</speed>
</trkpt>
<trkpt lat="56.135159" lon="26.365997">
<ele>104.672913</ele>
<time>2010-08-29T15:40:01Z</time>
<desc>lat.=56.135159, lon.=26.365997, Alt.=104.672913m. Speed=0.000000m/h.</desc>
<speed>0.000000</speed>
</trkpt>
<trkpt lat="56.135159" lon="26.365997">
<ele>104.674866</ele>
<time>2010-08-29T15:40:02Z</time>
<desc>lat.=56.135159, lon.=26.365997, Alt.=104.674866m. Speed=0.000000m/h.</desc>
<speed>0.000000</speed>
</trkpt>
<trkpt lat="56.135159" lon="26.365997">
<ele>104.676819</ele>
<time>2010-08-29T15:40:03Z</time>
<desc>lat.=56.135159, lon.=26.365997, Alt.=104.676819m. Speed=0.000000m/h.</desc>
<speed>0.000000</speed>
</trkpt>
<trkpt lat="56.135159" lon="26.365997">
<ele>104.674866</ele>
<time>2010-08-29T15:40:04Z</time>
<desc>lat.=56.135159, lon.=26.365997, Alt.=104.674866m. Speed=0.000000m/h.</desc>
<speed>0.000000</speed>
</trkpt>
<trkpt lat="56.135159" lon="26.365997">
<ele>104.676819</ele>
<time>2010-08-29T15:40:05Z</time>
<desc>lat.=56.135159, lon.=26.365997, Alt.=104.676819m. Speed=0.000000m/h.</desc>
<speed>0.000000</speed>
</trkpt>
<trkpt lat="56.135159" lon="26.365997">
<ele>104.676819</ele>
<time>2010-08-29T15:40:06Z</time>
<desc>lat.=56.135159, lon.=26.365997, Alt.=104.676819m. Speed=0.000000m/h.</desc>
<speed>0.000000</speed>
</trkpt>
<trkpt lat="56.135159" lon="26.365997">
<ele>104.678772</ele>
<time>2010-08-29T15:40:07Z</time>
<desc>lat.=56.135159, lon.=26.365997, Alt.=104.678772m. Speed=0.000000m/h.</desc>
<speed>0.000000</speed>
</trkpt>
<trkpt lat="56.135159" lon="26.365997">
<ele>104.678772</ele>
<time>2010-08-29T15:40:08Z</time>
<desc>lat.=56.135159, lon.=26.365997, Alt.=104.678772m. Speed=0.000000m/h.</desc>
<speed>0.000000</speed>
</trkpt>
<trkpt lat="56.135159" lon="26.365997">
<ele>104.678772</ele>
<time>2010-08-29T15:40:09Z</time>
<desc>lat.=56.135159, lon.=26.365997, Alt.=104.678772m. Speed=0.000000m/h.</desc>
<speed>0.000000</speed>
</trkpt>
<trkpt lat="56.135159" lon="26.365997">
<ele>104.680725</ele>
<time>2010-08-29T15:40:10Z</time>
<desc>lat.=56.135159, lon.=26.365997, Alt.=104.680725m. Speed=0.000000m/h.</desc>
<speed>0.000000</speed>
</trkpt>
<trkpt lat="56.135159" lon="26.365997">
<ele>104.684631</ele>
<time>2010-08-29T15:40:11Z</time>
<desc>lat.=56.135159, lon.=26.365997, Alt.=104.684631m. Speed=0.000000m/h.</desc>
<speed>0.000000</speed>
</trkpt>
<trkpt lat="56.135159" lon="26.365997">
<ele>104.686584</ele>
<time>2010-08-29T15:40:12Z</time>
<desc>lat.=56.135159, lon.=26.365997, Alt.=104.686584m. Speed=0.000000m/h.</desc>
<speed>0.000000</speed>
</trkpt>
<trkpt lat="56.135159" lon="26.365997">
<ele>104.688538</ele>
<time>2010-08-29T15:40:13Z</time>
<desc>lat.=56.135159, lon.=26.365997, Alt.=104.688538m. Speed=0.036000m/h.</desc>
<speed>0.010000</speed>
</trkpt>
<trkpt lat="56.135159" lon="26.365997">
<ele>104.690491</ele>
<time>2010-08-29T15:40:14Z</time>
<desc>lat.=56.135159, lon.=26.365997, Alt.=104.690491m. Speed=0.000000m/h.</desc>
<speed>0.000000</speed>
</trkpt>
<trkpt lat="56.135159" lon="26.365997">
<ele>104.692444</ele>
<time>2010-08-29T15:40:15Z</time>
<desc>lat.=56.135159, lon.=26.365997, Alt.=104.692444m. Speed=0.000000m/h.</desc>
<speed>0.000000</speed>
</trkpt>
<trkpt lat="56.135159" lon="26.365997">
<ele>104.694397</ele>
<time>2010-08-29T15:40:16Z</time>
<desc>lat.=56.135159, lon.=26.365997, Alt.=104.694397m. Speed=0.000000m/h.</desc>
<speed>0.000000</speed>
</trkpt>
<trkpt lat="56.135159" lon="26.365997">
<ele>104.696350</ele>
<time>2010-08-29T15:40:17Z</time>
<desc>lat.=56.135159, lon.=26.365997, Alt.=104.696350m. Speed=0.000000m/h.</desc>
<speed>0.000000</speed>
</trkpt>
<trkpt lat="56.135159" lon="26.365997">
<ele>104.698303</ele>
<time>2010-08-29T15:40:18Z</time>
<desc>lat.=56.135159, lon.=26.365997, Alt.=104.698303m. Speed=0.036000m/h.</desc>
<speed>0.010000</speed>
</trkpt>
<trkpt lat="56.135159" lon="26.365997">
<ele>104.702209</ele>
<time>2010-08-29T15:40:19Z</time>
<desc>lat.=56.135159, lon.=26.365997, Alt.=104.702209m. Speed=0.000000m/h.</desc>
<speed>0.000000</speed>
</trkpt>
<trkpt lat="56.135159" lon="26.365997">
<ele>104.704163</ele>
<time>2010-08-29T15:40:20Z</time>
<desc>lat.=56.135159, lon.=26.365997, Alt.=104.704163m. Speed=0.000000m/h.</desc>
<speed>0.000000</speed>
</trkpt>
<trkpt lat="56.135159" lon="26.365997">
<ele>104.706116</ele>
<time>2010-08-29T15:40:21Z</time>
<desc>lat.=56.135159, lon.=26.365997, Alt.=104.706116m. Speed=0.000000m/h.</desc>
<speed>0.000000</speed>
</trkpt>
<trkpt lat="56.135159" lon="26.365997">
<ele>104.708069</ele>
<time>2010-08-29T15:40:22Z</time>
<desc>lat.=56.135159, lon.=26.365997, Alt.=104.708069m. Speed=0.036000m/h.</desc>
<speed>0.010000</speed>
</trkpt>
<trkpt lat="56.135159" lon="26.365997">
<ele>104.711975</ele>
<time>2010-08-29T15:40:23Z</time>
<desc>lat.=56.135159, lon.=26.365997, Alt.=104.711975m. Speed=0.036000m/h.</desc>
<speed>0.010000</speed>
</trkpt>
<trkpt lat="56.135159" lon="26.365997">
<ele>104.713928</ele>
<time>2010-08-29T15:40:24Z</time>
<desc>lat.=56.135159, lon.=26.365997, Alt.=104.713928m. Speed=0.036000m/h.</desc>
<speed>0.010000</speed>
</trkpt>
<trkpt lat="56.135159" lon="26.365997">
<ele>104.715881</ele>
<time>2010-08-29T15:40:25Z</time>
<desc>lat.=56.135159, lon.=26.365997, Alt.=104.715881m. Speed=0.000000m/h.</desc>
<speed>0.000000</speed>
</trkpt>
<trkpt lat="56.135159" lon="26.365997">
<ele>104.715881</ele>
<time>2010-08-29T15:40:26Z</time>
<desc>lat.=56.135159, lon.=26.365997, Alt.=104.715881m. Speed=0.000000m/h.</desc>
<speed>0.000000</speed>
</trkpt>
<trkpt lat="56.135159" lon="26.365997">
<ele>104.717834</ele>
<time>2010-08-29T15:40:27Z</time>
<desc>lat.=56.135159, lon.=26.365997, Alt.=104.717834m. Speed=0.000000m/h.</desc>
<speed>0.000000</speed>
</trkpt>
<trkpt lat="56.135159" lon="26.365997">
<ele>104.717834</ele>
<time>2010-08-29T15:40:28Z</time>
<desc>lat.=56.135159, lon.=26.365997, Alt.=104.717834m. Speed=0.000000m/h.</desc>
<speed>0.000000</speed>
</trkpt>
<trkpt lat="56.135159" lon="26.365997">
<ele>104.717834</ele>
<time>2010-08-29T15:40:29Z</time>
<desc>lat.=56.135159, lon.=26.365997, Alt.=104.717834m. Speed=0.000000m/h.</desc>
<speed>0.000000</speed>
</trkpt>
<trkpt lat="56.135159" lon="26.365997">
<ele>104.721741</ele>
<time>2010-08-29T15:40:30Z</time>
<desc>lat.=56.135159, lon.=26.365997, Alt.=104.721741m. Speed=0.000000m/h.</desc>
<speed>0.000000</speed>
</trkpt>
<trkpt lat="56.135159" lon="26.365997">
<ele>104.723694</ele>
<time>2010-08-29T15:40:31Z</time>
<desc>lat.=56.135159, lon.=26.365997, Alt.=104.723694m. Speed=0.000000m/h.</desc>
<speed>0.000000</speed>
</trkpt>
<trkpt lat="56.135159" lon="26.365997">
<ele>104.725647</ele>
<time>2010-08-29T15:40:32Z</time>
<desc>lat.=56.135159, lon.=26.365997, Alt.=104.725647m. Speed=0.000000m/h.</desc>
<speed>0.000000</speed>
</trkpt>
<trkpt lat="56.135159" lon="26.365997">
<ele>104.727600</ele>
<time>2010-08-29T15:40:33Z</time>
<desc>lat.=56.135159, lon.=26.365997, Alt.=104.727600m. Speed=0.000000m/h.</desc>
<speed>0.000000</speed>
</trkpt>
<trkpt lat="56.135159" lon="26.365997">
<ele>104.727600</ele>
<time>2010-08-29T15:40:34Z</time>
<desc>lat.=56.135159, lon.=26.365997, Alt.=104.727600m. Speed=0.000000m/h.</desc>
<speed>0.000000</speed>
</trkpt>
<trkpt lat="56.135159" lon="26.365997">
<ele>104.729553</ele>
<time>2010-08-29T15:40:35Z</time>
<desc>lat.=56.135159, lon.=26.365997, Alt.=104.729553m. Speed=0.000000m/h.</desc>
<speed>0.000000</speed>
</trkpt>
<trkpt lat="56.135159" lon="26.365997">
<ele>104.731506</ele>
<time>2010-08-29T15:40:36Z</time>
<desc>lat.=56.135159, lon.=26.365997, Alt.=104.731506m. Speed=0.000000m/h.</desc>
<speed>0.000000</speed>
</trkpt>
<trkpt lat="56.135159" lon="26.365997">
<ele>104.733459</ele>
<time>2010-08-29T15:40:37Z</time>
<desc>lat.=56.135159, lon.=26.365997, Alt.=104.733459m. Speed=0.000000m/h.</desc>
<speed>0.000000</speed>
</trkpt>
<trkpt lat="56.135159" lon="26.365997">
<ele>104.733459</ele>
<time>2010-08-29T15:40:38Z</time>
<desc>lat.=56.135159, lon.=26.365997, Alt.=104.733459m. Speed=0.000000m/h.</desc>
<speed>0.000000</speed>
</trkpt>
<trkpt lat="56.135159" lon="26.365997">
<ele>104.735413</ele>
<time>2010-08-29T15:40:39Z</time>
<desc>lat.=56.135159, lon.=26.365997, Alt.=104.735413m. Speed=0.000000m/h.</desc>
<speed>0.000000</speed>
</trkpt>
<trkpt lat="56.135159" lon="26.365997">
<ele>104.739319</ele>
<time>2010-08-29T15:40:40Z</time>
<desc>lat.=56.135159, lon.=26.365997, Alt.=104.739319m. Speed=0.000000m/h.</desc>
<speed>0.000000</speed>
</trkpt>
<trkpt lat="56.135159" lon="26.365997">
<ele>104.739319</ele>
<time>2010-08-29T15:40:41Z</time>
<desc>lat.=56.135159, lon.=26.365997, Alt.=104.739319m. Speed=0.000000m/h.</desc>
<speed>0.000000</speed>
</trkpt>
<trkpt lat="56.135159" lon="26.365997">
<ele>104.741272</ele>
<time>2010-08-29T15:40:42Z</time>
<desc>lat.=56.135159, lon.=26.365997, Alt.=104.741272m. Speed=0.000000m/h.</desc>
<speed>0.000000</speed>
</trkpt>
<trkpt lat="56.135159" lon="26.365997">
<ele>104.743225</ele>
<time>2010-08-29T15:40:43Z</time>
<desc>lat.=56.135159, lon.=26.365997, Alt.=104.743225m. Speed=0.000000m/h.</desc>
<speed>0.000000</speed>
</trkpt>
<trkpt lat="56.135159" lon="26.365997">
<ele>104.745178</ele>
<time>2010-08-29T15:40:44Z</time>
<desc>lat.=56.135159, lon.=26.365997, Alt.=104.745178m. Speed=0.000000m/h.</desc>
<speed>0.000000</speed>
</trkpt>
<trkpt lat="56.135159" lon="26.365997">
<ele>104.747131</ele>
<time>2010-08-29T15:40:45Z</time>
<desc>lat.=56.135159, lon.=26.365997, Alt.=104.747131m. Speed=0.000000m/h.</desc>
<speed>0.000000</speed>
</trkpt>
<trkpt lat="56.135159" lon="26.365997">
<ele>104.749084</ele>
<time>2010-08-29T15:40:46Z</time>
<desc>lat.=56.135159, lon.=26.365997, Alt.=104.749084m. Speed=0.000000m/h.</desc>
<speed>0.000000</speed>
</trkpt>
<trkpt lat="56.135159" lon="26.365997">
<ele>104.751038</ele>
<time>2010-08-29T15:40:47Z</time>
<desc>lat.=56.135159, lon.=26.365997, Alt.=104.751038m. Speed=0.000000m/h.</desc>
<speed>0.000000</speed>
</trkpt>
<trkpt lat="56.135159" lon="26.365997">
<ele>104.752991</ele>
<time>2010-08-29T15:40:48Z</time>
<desc>lat.=56.135159, lon.=26.365997, Alt.=104.752991m. Speed=0.000000m/h.</desc>
<speed>0.000000</speed>
</trkpt>
<trkpt lat="56.135159" lon="26.365997">
<ele>104.754944</ele>
<time>2010-08-29T15:40:49Z</time>
<desc>lat.=56.135159, lon.=26.365997, Alt.=104.754944m. Speed=0.000000m/h.</desc>
<speed>0.000000</speed>
</trkpt>
<trkpt lat="56.135159" lon="26.365997">
<ele>104.756897</ele>
<time>2010-08-29T15:40:50Z</time>
<desc>lat.=56.135159, lon.=26.365997, Alt.=104.756897m. Speed=0.000000m/h.</desc>
<speed>0.000000</speed>
</trkpt>
<trkpt lat="56.135159" lon="26.365997">
<ele>104.758850</ele>
<time>2010-08-29T15:40:51Z</time>
<desc>lat.=56.135159, lon.=26.365997, Alt.=104.758850m. Speed=0.000000m/h.</desc>
<speed>0.000000</speed>
</trkpt>
<trkpt lat="56.135159" lon="26.365997">
<ele>104.758850</ele>
<time>2010-08-29T15:40:52Z</time>
<desc>lat.=56.135159, lon.=26.365997, Alt.=104.758850m. Speed=0.000000m/h.</desc>
<speed>0.000000</speed>
</trkpt>
<trkpt lat="56.135159" lon="26.365997">
<ele>104.758850</ele>
<time>2010-08-29T15:40:53Z</time>
<desc>lat.=56.135159, lon.=26.365997, Alt.=104.758850m. Speed=0.000000m/h.</desc>
<speed>0.000000</speed>
</trkpt>
<trkpt lat="56.135159" lon="26.365997">
<ele>104.760803</ele>
<time>2010-08-29T15:40:54Z</time>
<desc>lat.=56.135159, lon.=26.365997, Alt.=104.760803m. Speed=0.000000m/h.</desc>
<speed>0.000000</speed>
</trkpt>
<trkpt lat="56.135159" lon="26.365997">
<ele>104.760803</ele>
<time>2010-08-29T15:40:55Z</time>
<desc>lat.=56.135159, lon.=26.365997, Alt.=104.760803m. Speed=0.000000m/h.</desc>
<speed>0.000000</speed>
</trkpt>
<trkpt lat="56.135159" lon="26.365997">
<ele>104.760803</ele>
<time>2010-08-29T15:40:56Z</time>
<desc>lat.=56.135159, lon.=26.365997, Alt.=104.760803m. Speed=0.000000m/h.</desc>
<speed>0.000000</speed>
</trkpt>
<trkpt lat="56.135159" lon="26.365997">
<ele>104.758850</ele>
<time>2010-08-29T15:40:57Z</time>
<desc>lat.=56.135159, lon.=26.365997, Alt.=104.758850m. Speed=0.000000m/h.</desc>
<speed>0.000000</speed>
</trkpt>
<trkpt lat="56.135159" lon="26.365997">
<ele>104.758850</ele>
<time>2010-08-29T15:40:58Z</time>
<desc>lat.=56.135159, lon.=26.365997, Alt.=104.758850m. Speed=0.000000m/h.</desc>
<speed>0.000000</speed>
</trkpt>
<trkpt lat="56.135159" lon="26.365997">
<ele>104.758850</ele>
<time>2010-08-29T15:40:59Z</time>
<desc>lat.=56.135159, lon.=26.365997, Alt.=104.758850m. Speed=0.000000m/h.</desc>
<speed>0.000000</speed>
</trkpt>
<trkpt lat="56.135159" lon="26.365997">
<ele>104.760803</ele>
<time>2010-08-29T15:41:00Z</time>
<desc>lat.=56.135159, lon.=26.365997, Alt.=104.760803m. Speed=0.000000m/h.</desc>
<speed>0.000000</speed>
</trkpt>
<trkpt lat="56.135159" lon="26.365997">
<ele>104.760803</ele>
<time>2010-08-29T15:41:01Z</time>
<desc>lat.=56.135159, lon.=26.365997, Alt.=104.760803m. Speed=0.000000m/h.</desc>
<speed>0.000000</speed>
</trkpt>
<trkpt lat="56.135159" lon="26.365997">
<ele>104.762756</ele>
<time>2010-08-29T15:41:02Z</time>
<desc>lat.=56.135159, lon.=26.365997, Alt.=104.762756m. Speed=0.000000m/h.</desc>
<speed>0.000000</speed>
</trkpt>
<trkpt lat="56.135159" lon="26.365997">
<ele>104.762756</ele>
<time>2010-08-29T15:41:03Z</time>
<desc>lat.=56.135159, lon.=26.365997, Alt.=104.762756m. Speed=0.000000m/h.</desc>
<speed>0.000000</speed>
</trkpt>
<trkpt lat="56.135159" lon="26.365997">
<ele>104.764709</ele>
<time>2010-08-29T15:41:04Z</time>
<desc>lat.=56.135159, lon.=26.365997, Alt.=104.764709m. Speed=0.000000m/h.</desc>
<speed>0.000000</speed>
</trkpt>
<trkpt lat="56.135159" lon="26.365997">
<ele>104.766663</ele>
<time>2010-08-29T15:41:05Z</time>
<desc>lat.=56.135159, lon.=26.365997, Alt.=104.766663m. Speed=0.000000m/h.</desc>
<speed>0.000000</speed>
</trkpt>
<trkpt lat="56.135159" lon="26.365997">
<ele>104.768616</ele>
<time>2010-08-29T15:41:06Z</time>
<desc>lat.=56.135159, lon.=26.365997, Alt.=104.768616m. Speed=0.000000m/h.</desc>
<speed>0.000000</speed>
</trkpt>
<trkpt lat="56.135159" lon="26.365997">
<ele>104.768616</ele>
<time>2010-08-29T15:41:07Z</time>
<desc>lat.=56.135159, lon.=26.365997, Alt.=104.768616m. Speed=0.000000m/h.</desc>
<speed>0.000000</speed>
</trkpt>
<trkpt lat="56.135159" lon="26.365997">
<ele>104.768616</ele>
<time>2010-08-29T15:41:08Z</time>
<desc>lat.=56.135159, lon.=26.365997, Alt.=104.768616m. Speed=0.000000m/h.</desc>
<speed>0.000000</speed>
</trkpt>
<trkpt lat="56.135159" lon="26.365997">
<ele>104.768616</ele>
<time>2010-08-29T15:41:09Z</time>
<desc>lat.=56.135159, lon.=26.365997, Alt.=104.768616m. Speed=0.000000m/h.</desc>
<speed>0.000000</speed>
</trkpt>
<trkpt lat="56.135159" lon="26.365997">
<ele>104.768616</ele>
<time>2010-08-29T15:41:10Z</time>
<desc>lat.=56.135159, lon.=26.365997, Alt.=104.768616m. Speed=0.000000m/h.</desc>
<speed>0.000000</speed>
</trkpt>
<trkpt lat="56.135159" lon="26.365997">
<ele>104.770569</ele>
<time>2010-08-29T15:41:11Z</time>
<desc>lat.=56.135159, lon.=26.365997, Alt.=104.770569m. Speed=0.000000m/h.</desc>
<speed>0.000000</speed>
</trkpt>
<trkpt lat="56.135159" lon="26.365997">
<ele>104.770569</ele>
<time>2010-08-29T15:41:12Z</time>
<desc>lat.=56.135159, lon.=26.365997, Alt.=104.770569m. Speed=0.000000m/h.</desc>
<speed>0.000000</speed>
</trkpt>
<trkpt lat="56.135159" lon="26.365997">
<ele>104.770569</ele>
<time>2010-08-29T15:41:13Z</time>
<desc>lat.=56.135159, lon.=26.365997, Alt.=104.770569m. Speed=0.036000m/h.</desc>
<speed>0.010000</speed>
</trkpt>
<trkpt lat="56.135159" lon="26.365997">
<ele>104.768616</ele>
<time>2010-08-29T15:41:14Z</time>
<desc>lat.=56.135159, lon.=26.365997, Alt.=104.768616m. Speed=0.000000m/h.</desc>
<speed>0.000000</speed>
</trkpt>
<trkpt lat="56.135159" lon="26.365997">
<ele>104.768616</ele>
<time>2010-08-29T15:41:15Z</time>
<desc>lat.=56.135159, lon.=26.365997, Alt.=104.768616m. Speed=0.000000m/h.</desc>
<speed>0.000000</speed>
</trkpt>
<trkpt lat="56.135159" lon="26.365997">
<ele>104.768616</ele>
<time>2010-08-29T15:41:16Z</time>
<desc>lat.=56.135159, lon.=26.365997, Alt.=104.768616m. Speed=0.000000m/h.</desc>
<speed>0.000000</speed>
</trkpt>
<trkpt lat="56.135159" lon="26.365997">
<ele>104.768616</ele>
<time>2010-08-29T15:41:17Z</time>
<desc>lat.=56.135159, lon.=26.365997, Alt.=104.768616m. Speed=0.036000m/h.</desc>
<speed>0.010000</speed>
</trkpt>
<trkpt lat="56.135159" lon="26.365997">
<ele>104.768616</ele>
<time>2010-08-29T15:41:18Z</time>
<desc>lat.=56.135159, lon.=26.365997, Alt.=104.768616m. Speed=0.000000m/h.</desc>
<speed>0.000000</speed>
</trkpt>
<trkpt lat="56.135159" lon="26.365997">
<ele>104.770569</ele>
<time>2010-08-29T15:41:19Z</time>
<desc>lat.=56.135159, lon.=26.365997, Alt.=104.770569m. Speed=0.036000m/h.</desc>
<speed>0.010000</speed>
</trkpt>
<trkpt lat="56.135159" lon="26.365997">
<ele>104.770569</ele>
<time>2010-08-29T15:41:20Z</time>
<desc>lat.=56.135159, lon.=26.365997, Alt.=104.770569m. Speed=0.000000m/h.</desc>
<speed>0.000000</speed>
</trkpt>
<trkpt lat="56.135159" lon="26.365997">
<ele>104.772522</ele>
<time>2010-08-29T15:41:21Z</time>
<desc>lat.=56.135159, lon.=26.365997, Alt.=104.772522m. Speed=0.036000m/h.</desc>
<speed>0.010000</speed>
</trkpt>
<trkpt lat="56.135159" lon="26.365997">
<ele>104.774475</ele>
<time>2010-08-29T15:41:22Z</time>
<desc>lat.=56.135159, lon.=26.365997, Alt.=104.774475m. Speed=0.000000m/h.</desc>
<speed>0.000000</speed>
</trkpt>
<trkpt lat="56.135159" lon="26.365997">
<ele>104.774475</ele>
<time>2010-08-29T15:41:23Z</time>
<desc>lat.=56.135159, lon.=26.365997, Alt.=104.774475m. Speed=0.000000m/h.</desc>
<speed>0.000000</speed>
</trkpt>
<trkpt lat="56.135159" lon="26.365997">
<ele>104.772522</ele>
<time>2010-08-29T15:41:24Z</time>
<desc>lat.=56.135159, lon.=26.365997, Alt.=104.772522m. Speed=0.000000m/h.</desc>
<speed>0.000000</speed>
</trkpt>
<trkpt lat="56.135159" lon="26.365997">
<ele>104.772522</ele>
<time>2010-08-29T15:41:25Z</time>
<desc>lat.=56.135159, lon.=26.365997, Alt.=104.772522m. Speed=0.036000m/h.</desc>
<speed>0.010000</speed>
</trkpt>
<trkpt lat="56.135159" lon="26.365997">
<ele>104.772522</ele>
<time>2010-08-29T15:41:26Z</time>
<desc>lat.=56.135159, lon.=26.365997, Alt.=104.772522m. Speed=0.000000m/h.</desc>
<speed>0.000000</speed>
</trkpt>
<trkpt lat="56.135159" lon="26.365997">
<ele>104.772522</ele>
<time>2010-08-29T15:41:27Z</time>
<desc>lat.=56.135159, lon.=26.365997, Alt.=104.772522m. Speed=0.000000m/h.</desc>
<speed>0.000000</speed>
</trkpt>
<trkpt lat="56.135159" lon="26.365997">
<ele>104.772522</ele>
<time>2010-08-29T15:41:28Z</time>
<desc>lat.=56.135159, lon.=26.365997, Alt.=104.772522m. Speed=0.000000m/h.</desc>
<speed>0.000000</speed>
</trkpt>
<trkpt lat="56.135159" lon="26.365997">
<ele>104.772522</ele>
<time>2010-08-29T15:41:29Z</time>
<desc>lat.=56.135159, lon.=26.365997, Alt.=104.772522m. Speed=0.036000m/h.</desc>
<speed>0.010000</speed>
</trkpt>
<trkpt lat="56.135159" lon="26.365995">
<ele>104.772522</ele>
<time>2010-08-29T15:41:30Z</time>
<desc>lat.=56.135159, lon.=26.365995, Alt.=104.772522m. Speed=0.000000m/h.</desc>
<speed>0.000000</speed>
</trkpt>
<trkpt lat="56.135159" lon="26.365995">
<ele>104.772522</ele>
<time>2010-08-29T15:41:31Z</time>
<desc>lat.=56.135159, lon.=26.365995, Alt.=104.772522m. Speed=0.036000m/h.</desc>
<speed>0.010000</speed>
</trkpt>
<trkpt lat="56.135159" lon="26.365995">
<ele>104.772522</ele>
<time>2010-08-29T15:41:32Z</time>
<desc>lat.=56.135159, lon.=26.365995, Alt.=104.772522m. Speed=0.000000m/h.</desc>
<speed>0.000000</speed>
</trkpt>
<trkpt lat="56.135159" lon="26.365995">
<ele>104.772522</ele>
<time>2010-08-29T15:41:33Z</time>
<desc>lat.=56.135159, lon.=26.365995, Alt.=104.772522m. Speed=0.000000m/h.</desc>
<speed>0.000000</speed>
</trkpt>
<trkpt lat="56.135159" lon="26.365995">
<ele>104.772522</ele>
<time>2010-08-29T15:41:34Z</time>
<desc>lat.=56.135159, lon.=26.365995, Alt.=104.772522m. Speed=0.000000m/h.</desc>
<speed>0.000000</speed>
</trkpt>
<trkpt lat="56.135159" lon="26.365995">
<ele>104.774475</ele>
<time>2010-08-29T15:41:35Z</time>
<desc>lat.=56.135159, lon.=26.365995, Alt.=104.774475m. Speed=0.000000m/h.</desc>
<speed>0.000000</speed>
</trkpt>
<trkpt lat="56.135159" lon="26.365995">
<ele>104.778381</ele>
<time>2010-08-29T15:41:36Z</time>
<desc>lat.=56.135159, lon.=26.365995, Alt.=104.778381m. Speed=0.000000m/h.</desc>
<speed>0.000000</speed>
</trkpt>
<trkpt lat="56.135159" lon="26.365995">
<ele>104.780334</ele>
<time>2010-08-29T15:41:37Z</time>
<desc>lat.=56.135159, lon.=26.365995, Alt.=104.780334m. Speed=0.000000m/h.</desc>
<speed>0.000000</speed>
</trkpt>
<trkpt lat="56.135159" lon="26.365995">
<ele>104.782288</ele>
<time>2010-08-29T15:41:38Z</time>
<desc>lat.=56.135159, lon.=26.365995, Alt.=104.782288m. Speed=0.000000m/h.</desc>
<speed>0.000000</speed>
</trkpt>
<trkpt lat="56.135159" lon="26.365995">
<ele>104.784241</ele>
<time>2010-08-29T15:41:39Z</time>
<desc>lat.=56.135159, lon.=26.365995, Alt.=104.784241m. Speed=0.000000m/h.</desc>
<speed>0.000000</speed>
</trkpt>
<trkpt lat="56.135159" lon="26.365995">
<ele>104.784241</ele>
<time>2010-08-29T15:41:40Z</time>
<desc>lat.=56.135159, lon.=26.365995, Alt.=104.784241m. Speed=0.000000m/h.</desc>
<speed>0.000000</speed>
</trkpt>
<trkpt lat="56.135159" lon="26.365995">
<ele>104.788147</ele>
<time>2010-08-29T15:41:41Z</time>
<desc>lat.=56.135159, lon.=26.365995, Alt.=104.788147m. Speed=0.036000m/h.</desc>
<speed>0.010000</speed>
</trkpt>
<trkpt lat="56.135159" lon="26.365995">
<ele>104.792053</ele>
<time>2010-08-29T15:41:42Z</time>
<desc>lat.=56.135159, lon.=26.365995, Alt.=104.792053m. Speed=0.036000m/h.</desc>
<speed>0.010000</speed>
</trkpt>
<trkpt lat="56.135159" lon="26.365995">
<ele>104.794006</ele>
<time>2010-08-29T15:41:43Z</time>
<desc>lat.=56.135159, lon.=26.365995, Alt.=104.794006m. Speed=0.000000m/h.</desc>
<speed>0.000000</speed>
</trkpt>
<trkpt lat="56.135159" lon="26.365995">
<ele>104.797913</ele>
<time>2010-08-29T15:41:44Z</time>
<desc>lat.=56.135159, lon.=26.365995, Alt.=104.797913m. Speed=0.000000m/h.</desc>
<speed>0.000000</speed>
</trkpt>
<trkpt lat="56.135159" lon="26.365995">
<ele>104.801819</ele>
<time>2010-08-29T15:41:45Z</time>
<desc>lat.=56.135159, lon.=26.365995, Alt.=104.801819m. Speed=0.036000m/h.</desc>
<speed>0.010000</speed>
</trkpt>
<trkpt lat="56.135159" lon="26.365995">
<ele>104.801819</ele>
<time>2010-08-29T15:41:46Z</time>
<desc>lat.=56.135159, lon.=26.365995, Alt.=104.801819m. Speed=0.000000m/h.</desc>
<speed>0.000000</speed>
</trkpt>
<trkpt lat="56.135159" lon="26.365995">
<ele>104.803772</ele>
<time>2010-08-29T15:41:47Z</time>
<desc>lat.=56.135159, lon.=26.365995, Alt.=104.803772m. Speed=0.000000m/h.</desc>
<speed>0.000000</speed>
</trkpt>
<trkpt lat="56.135159" lon="26.365995">
<ele>104.805725</ele>
<time>2010-08-29T15:41:48Z</time>
<desc>lat.=56.135159, lon.=26.365995, Alt.=104.805725m. Speed=0.000000m/h.</desc>
<speed>0.000000</speed>
</trkpt>
<trkpt lat="56.135159" lon="26.365995">
<ele>104.807678</ele>
<time>2010-08-29T15:41:49Z</time>
<desc>lat.=56.135159, lon.=26.365995, Alt.=104.807678m. Speed=0.000000m/h.</desc>
<speed>0.000000</speed>
</trkpt>
<trkpt lat="56.135159" lon="26.365997">
<ele>104.809631</ele>
<time>2010-08-29T15:41:50Z</time>
<desc>lat.=56.135159, lon.=26.365997, Alt.=104.809631m. Speed=0.000000m/h.</desc>
<speed>0.000000</speed>
</trkpt>
<trkpt lat="56.135159" lon="26.365997">
<ele>104.809631</ele>
<time>2010-08-29T15:41:51Z</time>
<desc>lat.=56.135159, lon.=26.365997, Alt.=104.809631m. Speed=0.036000m/h.</desc>
<speed>0.010000</speed>
</trkpt>
<trkpt lat="56.135159" lon="26.365997">
<ele>104.811584</ele>
<time>2010-08-29T15:41:52Z</time>
<desc>lat.=56.135159, lon.=26.365997, Alt.=104.811584m. Speed=0.000000m/h.</desc>
<speed>0.000000</speed>
</trkpt>
<trkpt lat="56.135159" lon="26.365997">
<ele>104.813538</ele>
<time>2010-08-29T15:41:53Z</time>
<desc>lat.=56.135159, lon.=26.365997, Alt.=104.813538m. Speed=0.000000m/h.</desc>
<speed>0.000000</speed>
</trkpt>
<trkpt lat="56.135159" lon="26.365997">
<ele>104.815491</ele>
<time>2010-08-29T15:41:54Z</time>
<desc>lat.=56.135159, lon.=26.365997, Alt.=104.815491m. Speed=0.000000m/h.</desc>
<speed>0.000000</speed>
</trkpt>
<trkpt lat="56.135159" lon="26.365997">
<ele>104.817444</ele>
<time>2010-08-29T15:41:55Z</time>
<desc>lat.=56.135159, lon.=26.365997, Alt.=104.817444m. Speed=0.000000m/h.</desc>
<speed>0.000000</speed>
</trkpt>
<trkpt lat="56.135159" lon="26.365997">
<ele>104.819397</ele>
<time>2010-08-29T15:41:56Z</time>
<desc>lat.=56.135159, lon.=26.365997, Alt.=104.819397m. Speed=0.000000m/h.</desc>
<speed>0.000000</speed>
</trkpt>
<trkpt lat="56.135159" lon="26.365997">
<ele>104.819397</ele>
<time>2010-08-29T15:41:57Z</time>
<desc>lat.=56.135159, lon.=26.365997, Alt.=104.819397m. Speed=0.000000m/h.</desc>
<speed>0.000000</speed>
</trkpt>
<trkpt lat="56.135159" lon="26.365997">
<ele>104.821350</ele>
<time>2010-08-29T15:41:58Z</time>
<desc>lat.=56.135159, lon.=26.365997, Alt.=104.821350m. Speed=0.000000m/h.</desc>
<speed>0.000000</speed>
</trkpt>
<trkpt lat="56.135159" lon="26.365997">
<ele>104.823303</ele>
<time>2010-08-29T15:41:59Z</time>
<desc>lat.=56.135159, lon.=26.365997, Alt.=104.823303m. Speed=0.000000m/h.</desc>
<speed>0.000000</speed>
</trkpt>
<trkpt lat="56.135159" lon="26.365997">
<ele>104.823303</ele>
<time>2010-08-29T15:42:00Z</time>
<desc>lat.=56.135159, lon.=26.365997, Alt.=104.823303m. Speed=0.000000m/h.</desc>
<speed>0.000000</speed>
</trkpt>
<trkpt lat="56.135159" lon="26.365997">
<ele>104.825256</ele>
<time>2010-08-29T15:42:01Z</time>
<desc>lat.=56.135159, lon.=26.365997, Alt.=104.825256m. Speed=0.000000m/h.</desc>
<speed>0.000000</speed>
</trkpt>
<trkpt lat="56.135159" lon="26.365997">
<ele>104.827209</ele>
<time>2010-08-29T15:42:02Z</time>
<desc>lat.=56.135159, lon.=26.365997, Alt.=104.827209m. Speed=0.000000m/h.</desc>
<speed>0.000000</speed>
</trkpt>
<trkpt lat="56.135159" lon="26.365997">
<ele>104.829163</ele>
<time>2010-08-29T15:42:03Z</time>
<desc>lat.=56.135159, lon.=26.365997, Alt.=104.829163m. Speed=0.000000m/h.</desc>
<speed>0.000000</speed>
</trkpt>
<trkpt lat="56.135159" lon="26.365997">
<ele>104.831116</ele>
<time>2010-08-29T15:42:04Z</time>
<desc>lat.=56.135159, lon.=26.365997, Alt.=104.831116m. Speed=0.000000m/h.</desc>
<speed>0.000000</speed>
</trkpt>
<trkpt lat="56.135159" lon="26.365997">
<ele>104.833069</ele>
<time>2010-08-29T15:42:05Z</time>
<desc>lat.=56.135159, lon.=26.365997, Alt.=104.833069m. Speed=0.000000m/h.</desc>
<speed>0.000000</speed>
</trkpt>
<trkpt lat="56.135159" lon="26.365997">
<ele>104.835022</ele>
<time>2010-08-29T15:42:06Z</time>
<desc>lat.=56.135159, lon.=26.365997, Alt.=104.835022m. Speed=0.000000m/h.</desc>
<speed>0.000000</speed>
</trkpt>
<trkpt lat="56.135159" lon="26.365997">
<ele>104.835022</ele>
<time>2010-08-29T15:42:07Z</time>
<desc>lat.=56.135159, lon.=26.365997, Alt.=104.835022m. Speed=0.000000m/h.</desc>
<speed>0.000000</speed>
</trkpt>
<trkpt lat="56.135159" lon="26.365997">
<ele>104.836975</ele>
<time>2010-08-29T15:42:08Z</time>
<desc>lat.=56.135159, lon.=26.365997, Alt.=104.836975m. Speed=0.000000m/h.</desc>
<speed>0.000000</speed>
</trkpt>
<trkpt lat="56.135159" lon="26.365997">
<ele>104.838928</ele>
<time>2010-08-29T15:42:09Z</time>
<desc>lat.=56.135159, lon.=26.365997, Alt.=104.838928m. Speed=0.000000m/h.</desc>
<speed>0.000000</speed>
</trkpt>
<trkpt lat="56.135159" lon="26.365997">
<ele>104.838928</ele>
<time>2010-08-29T15:42:10Z</time>
<desc>lat.=56.135159, lon.=26.365997, Alt.=104.838928m. Speed=0.000000m/h.</desc>
<speed>0.000000</speed>
</trkpt>
<trkpt lat="56.135159" lon="26.365997">
<ele>104.840881</ele>
<time>2010-08-29T15:42:11Z</time>
<desc>lat.=56.135159, lon.=26.365997, Alt.=104.840881m. Speed=0.000000m/h.</desc>
<speed>0.000000</speed>
</trkpt>
<trkpt lat="56.135159" lon="26.365997">
<ele>104.842834</ele>
<time>2010-08-29T15:42:12Z</time>
<desc>lat.=56.135159, lon.=26.365997, Alt.=104.842834m. Speed=0.000000m/h.</desc>
<speed>0.000000</speed>
</trkpt>
<trkpt lat="56.135159" lon="26.365997">
<ele>104.844788</ele>
<time>2010-08-29T15:42:13Z</time>
<desc>lat.=56.135159, lon.=26.365997, Alt.=104.844788m. Speed=0.000000m/h.</desc>
<speed>0.000000</speed>
</trkpt>
<trkpt lat="56.135159" lon="26.365997">
<ele>104.842834</ele>
<time>2010-08-29T15:42:14Z</time>
<desc>lat.=56.135159, lon.=26.365997, Alt.=104.842834m. Speed=0.036000m/h.</desc>
<speed>0.010000</speed>
</trkpt>
<trkpt lat="56.135159" lon="26.365997">
<ele>104.842834</ele>
<time>2010-08-29T15:42:15Z</time>
<desc>lat.=56.135159, lon.=26.365997, Alt.=104.842834m. Speed=0.036000m/h.</desc>
<speed>0.010000</speed>
</trkpt>
<trkpt lat="56.135159" lon="26.365997">
<ele>104.844788</ele>
<time>2010-08-29T15:42:16Z</time>
<desc>lat.=56.135159, lon.=26.365997, Alt.=104.844788m. Speed=0.000000m/h.</desc>
<speed>0.000000</speed>
</trkpt>
<trkpt lat="56.135159" lon="26.365997">
<ele>104.844788</ele>
<time>2010-08-29T15:42:17Z</time>
<desc>lat.=56.135159, lon.=26.365997, Alt.=104.844788m. Speed=0.036000m/h.</desc>
<speed>0.010000</speed>
</trkpt>
<trkpt lat="56.135159" lon="26.365997">
<ele>104.844788</ele>
<time>2010-08-29T15:42:18Z</time>
<desc>lat.=56.135159, lon.=26.365997, Alt.=104.844788m. Speed=0.000000m/h.</desc>
<speed>0.000000</speed>
</trkpt>
<trkpt lat="56.135159" lon="26.365999">
<ele>104.844788</ele>
<time>2010-08-29T15:42:19Z</time>
<desc>lat.=56.135159, lon.=26.365999, Alt.=104.844788m. Speed=0.000000m/h.</desc>
<speed>0.000000</speed>
</trkpt>
<trkpt lat="56.135159" lon="26.365999">
<ele>104.842834</ele>
<time>2010-08-29T15:42:20Z</time>
<desc>lat.=56.135159, lon.=26.365999, Alt.=104.842834m. Speed=0.000000m/h.</desc>
<speed>0.000000</speed>
</trkpt>
<trkpt lat="56.135159" lon="26.365999">
<ele>104.842834</ele>
<time>2010-08-29T15:42:21Z</time>
<desc>lat.=56.135159, lon.=26.365999, Alt.=104.842834m. Speed=0.000000m/h.</desc>
<speed>0.000000</speed>
</trkpt>
<trkpt lat="56.135159" lon="26.365999">
<ele>104.844788</ele>
<time>2010-08-29T15:42:22Z</time>
<desc>lat.=56.135159, lon.=26.365999, Alt.=104.844788m. Speed=0.000000m/h.</desc>
<speed>0.000000</speed>
</trkpt>
<trkpt lat="56.135159" lon="26.365999">
<ele>104.844788</ele>
<time>2010-08-29T15:42:23Z</time>
<desc>lat.=56.135159, lon.=26.365999, Alt.=104.844788m. Speed=0.000000m/h.</desc>
<speed>0.000000</speed>
</trkpt>
<trkpt lat="56.135159" lon="26.365999">
<ele>104.842834</ele>
<time>2010-08-29T15:42:24Z</time>
<desc>lat.=56.135159, lon.=26.365999, Alt.=104.842834m. Speed=0.000000m/h.</desc>
<speed>0.000000</speed>
</trkpt>
<trkpt lat="56.135159" lon="26.365999">
<ele>104.842834</ele>
<time>2010-08-29T15:42:25Z</time>
<desc>lat.=56.135159, lon.=26.365999, Alt.=104.842834m. Speed=0.000000m/h.</desc>
<speed>0.000000</speed>
</trkpt>
<trkpt lat="56.135159" lon="26.365999">
<ele>104.840881</ele>
<time>2010-08-29T15:42:26Z</time>
<desc>lat.=56.135159, lon.=26.365999, Alt.=104.840881m. Speed=0.036000m/h.</desc>
<speed>0.010000</speed>
</trkpt>
<trkpt lat="56.135159" lon="26.365999">
<ele>104.838928</ele>
<time>2010-08-29T15:42:27Z</time>
<desc>lat.=56.135159, lon.=26.365999, Alt.=104.838928m. Speed=0.000000m/h.</desc>
<speed>0.000000</speed>
</trkpt>
<trkpt lat="56.135159" lon="26.365999">
<ele>104.836975</ele>
<time>2010-08-29T15:42:28Z</time>
<desc>lat.=56.135159, lon.=26.365999, Alt.=104.836975m. Speed=0.000000m/h.</desc>
<speed>0.000000</speed>
</trkpt>
<trkpt lat="56.135159" lon="26.365999">
<ele>104.835022</ele>
<time>2010-08-29T15:42:29Z</time>
<desc>lat.=56.135159, lon.=26.365999, Alt.=104.835022m. Speed=0.000000m/h.</desc>
<speed>0.000000</speed>
</trkpt>
<trkpt lat="56.135159" lon="26.365999">
<ele>104.835022</ele>
<time>2010-08-29T15:42:30Z</time>
<desc>lat.=56.135159, lon.=26.365999, Alt.=104.835022m. Speed=0.000000m/h.</desc>
<speed>0.000000</speed>
</trkpt>
<trkpt lat="56.135159" lon="26.365999">
<ele>104.833069</ele>
<time>2010-08-29T15:42:31Z</time>
<desc>lat.=56.135159, lon.=26.365999, Alt.=104.833069m. Speed=0.000000m/h.</desc>
<speed>0.000000</speed>
</trkpt>
<trkpt lat="56.135159" lon="26.365999">
<ele>104.831116</ele>
<time>2010-08-29T15:42:32Z</time>
<desc>lat.=56.135159, lon.=26.365999, Alt.=104.831116m. Speed=0.000000m/h.</desc>
<speed>0.000000</speed>
</trkpt>
<trkpt lat="56.135159" lon="26.365999">
<ele>104.829163</ele>
<time>2010-08-29T15:42:33Z</time>
<desc>lat.=56.135159, lon.=26.365999, Alt.=104.829163m. Speed=0.000000m/h.</desc>
<speed>0.000000</speed>
</trkpt>
<trkpt lat="56.135159" lon="26.365999">
<ele>104.827209</ele>
<time>2010-08-29T15:42:34Z</time>
<desc>lat.=56.135159, lon.=26.365999, Alt.=104.827209m. Speed=0.000000m/h.</desc>
<speed>0.000000</speed>
</trkpt>
<trkpt lat="56.135159" lon="26.365999">
<ele>104.825256</ele>
<time>2010-08-29T15:42:35Z</time>
<desc>lat.=56.135159, lon.=26.365999, Alt.=104.825256m. Speed=0.000000m/h.</desc>
<speed>0.000000</speed>
</trkpt>
<trkpt lat="56.135159" lon="26.365999">
<ele>104.823303</ele>
<time>2010-08-29T15:42:36Z</time>
<desc>lat.=56.135159, lon.=26.365999, Alt.=104.823303m. Speed=0.000000m/h.</desc>
<speed>0.000000</speed>
</trkpt>
<trkpt lat="56.135159" lon="26.365999">
<ele>104.821350</ele>
<time>2010-08-29T15:42:37Z</time>
<desc>lat.=56.135159, lon.=26.365999, Alt.=104.821350m. Speed=0.000000m/h.</desc>
<speed>0.000000</speed>
</trkpt>
<trkpt lat="56.135159" lon="26.365999">
<ele>104.821350</ele>
<time>2010-08-29T15:42:38Z</time>
<desc>lat.=56.135159, lon.=26.365999, Alt.=104.821350m. Speed=0.036000m/h.</desc>
<speed>0.010000</speed>
</trkpt>
<trkpt lat="56.135159" lon="26.365999">
<ele>104.821350</ele>
<time>2010-08-29T15:42:39Z</time>
<desc>lat.=56.135159, lon.=26.365999, Alt.=104.821350m. Speed=0.000000m/h.</desc>
<speed>0.000000</speed>
</trkpt>
<trkpt lat="56.135159" lon="26.365999">
<ele>104.819397</ele>
<time>2010-08-29T15:42:40Z</time>
<desc>lat.=56.135159, lon.=26.365999, Alt.=104.819397m. Speed=0.000000m/h.</desc>
<speed>0.000000</speed>
</trkpt>
<trkpt lat="56.135159" lon="26.365999">
<ele>104.817444</ele>
<time>2010-08-29T15:42:41Z</time>
<desc>lat.=56.135159, lon.=26.365999, Alt.=104.817444m. Speed=0.000000m/h.</desc>
<speed>0.000000</speed>
</trkpt>
<trkpt lat="56.135159" lon="26.365999">
<ele>104.815491</ele>
<time>2010-08-29T15:42:42Z</time>
<desc>lat.=56.135159, lon.=26.365999, Alt.=104.815491m. Speed=0.000000m/h.</desc>
<speed>0.000000</speed>
</trkpt>
<trkpt lat="56.135159" lon="26.365999">
<ele>104.811584</ele>
<time>2010-08-29T15:42:43Z</time>
<desc>lat.=56.135159, lon.=26.365999, Alt.=104.811584m. Speed=0.000000m/h.</desc>
<speed>0.000000</speed>
</trkpt>
<trkpt lat="56.135159" lon="26.365999">
<ele>104.809631</ele>
<time>2010-08-29T15:42:44Z</time>
<desc>lat.=56.135159, lon.=26.365999, Alt.=104.809631m. Speed=0.000000m/h.</desc>
<speed>0.000000</speed>
</trkpt>
<trkpt lat="56.135159" lon="26.365999">
<ele>104.809631</ele>
<time>2010-08-29T15:42:45Z</time>
<desc>lat.=56.135159, lon.=26.365999, Alt.=104.809631m. Speed=0.000000m/h.</desc>
<speed>0.000000</speed>
</trkpt>
<trkpt lat="56.135159" lon="26.365999">
<ele>104.807678</ele>
<time>2010-08-29T15:42:46Z</time>
<desc>lat.=56.135159, lon.=26.365999, Alt.=104.807678m. Speed=0.000000m/h.</desc>
<speed>0.000000</speed>
</trkpt>
<trkpt lat="56.135159" lon="26.365999">
<ele>104.805725</ele>
<time>2010-08-29T15:42:47Z</time>
<desc>lat.=56.135159, lon.=26.365999, Alt.=104.805725m. Speed=0.000000m/h.</desc>
<speed>0.000000</speed>
</trkpt>
<trkpt lat="56.135159" lon="26.365999">
<ele>104.805725</ele>
<time>2010-08-29T15:42:48Z</time>
<desc>lat.=56.135159, lon.=26.365999, Alt.=104.805725m. Speed=0.000000m/h.</desc>
<speed>0.000000</speed>
</trkpt>
<trkpt lat="56.135159" lon="26.365999">
<ele>104.801819</ele>
<time>2010-08-29T15:42:49Z</time>
<desc>lat.=56.135159, lon.=26.365999, Alt.=104.801819m. Speed=0.000000m/h.</desc>
<speed>0.000000</speed>
</trkpt>
<trkpt lat="56.135159" lon="26.365999">
<ele>104.799866</ele>
<time>2010-08-29T15:42:50Z</time>
<desc>lat.=56.135159, lon.=26.365999, Alt.=104.799866m. Speed=0.000000m/h.</desc>
<speed>0.000000</speed>
</trkpt>
<trkpt lat="56.135159" lon="26.365999">
<ele>104.797913</ele>
<time>2010-08-29T15:42:51Z</time>
<desc>lat.=56.135159, lon.=26.365999, Alt.=104.797913m. Speed=0.000000m/h.</desc>
<speed>0.000000</speed>
</trkpt>
<trkpt lat="56.135159" lon="26.365999">
<ele>104.795959</ele>
<time>2010-08-29T15:42:52Z</time>
<desc>lat.=56.135159, lon.=26.365999, Alt.=104.795959m. Speed=0.000000m/h.</desc>
<speed>0.000000</speed>
</trkpt>
<trkpt lat="56.135159" lon="26.365999">
<ele>104.795959</ele>
<time>2010-08-29T15:42:53Z</time>
<desc>lat.=56.135159, lon.=26.365999, Alt.=104.795959m. Speed=0.000000m/h.</desc>
<speed>0.000000</speed>
</trkpt>
<trkpt lat="56.135159" lon="26.365999">
<ele>104.795959</ele>
<time>2010-08-29T15:42:54Z</time>
<desc>lat.=56.135159, lon.=26.365999, Alt.=104.795959m. Speed=0.000000m/h.</desc>
<speed>0.000000</speed>
</trkpt>
<trkpt lat="56.135159" lon="26.365999">
<ele>104.794006</ele>
<time>2010-08-29T15:42:55Z</time>
<desc>lat.=56.135159, lon.=26.365999, Alt.=104.794006m. Speed=0.000000m/h.</desc>
<speed>0.000000</speed>
</trkpt>
<trkpt lat="56.135159" lon="26.365999">
<ele>104.792053</ele>
<time>2010-08-29T15:42:56Z</time>
<desc>lat.=56.135159, lon.=26.365999, Alt.=104.792053m. Speed=0.000000m/h.</desc>
<speed>0.000000</speed>
</trkpt>
<trkpt lat="56.135159" lon="26.365999">
<ele>104.788147</ele>
<time>2010-08-29T15:42:57Z</time>
<desc>lat.=56.135159, lon.=26.365999, Alt.=104.788147m. Speed=0.000000m/h.</desc>
<speed>0.000000</speed>
</trkpt>
<trkpt lat="56.135159" lon="26.365999">
<ele>104.786194</ele>
<time>2010-08-29T15:42:58Z</time>
<desc>lat.=56.135159, lon.=26.365999, Alt.=104.786194m. Speed=0.000000m/h.</desc>
<speed>0.000000</speed>
</trkpt>
<trkpt lat="56.135159" lon="26.365999">
<ele>104.784241</ele>
<time>2010-08-29T15:42:59Z</time>
<desc>lat.=56.135159, lon.=26.365999, Alt.=104.784241m. Speed=0.036000m/h.</desc>
<speed>0.010000</speed>
</trkpt>
<trkpt lat="56.135159" lon="26.365999">
<ele>104.782288</ele>
<time>2010-08-29T15:43:00Z</time>
<desc>lat.=56.135159, lon.=26.365999, Alt.=104.782288m. Speed=0.000000m/h.</desc>
<speed>0.000000</speed>
</trkpt>
<trkpt lat="56.135159" lon="26.365999">
<ele>104.780334</ele>
<time>2010-08-29T15:43:01Z</time>
<desc>lat.=56.135159, lon.=26.365999, Alt.=104.780334m. Speed=0.036000m/h.</desc>
<speed>0.010000</speed>
</trkpt>
<trkpt lat="56.135159" lon="26.365999">
<ele>104.778381</ele>
<time>2010-08-29T15:43:02Z</time>
<desc>lat.=56.135159, lon.=26.365999, Alt.=104.778381m. Speed=0.000000m/h.</desc>
<speed>0.000000</speed>
</trkpt>
<trkpt lat="56.135159" lon="26.365999">
<ele>104.776428</ele>
<time>2010-08-29T15:43:03Z</time>
<desc>lat.=56.135159, lon.=26.365999, Alt.=104.776428m. Speed=0.000000m/h.</desc>
<speed>0.000000</speed>
</trkpt>
<trkpt lat="56.135159" lon="26.365999">
<ele>104.776428</ele>
<time>2010-08-29T15:43:04Z</time>
<desc>lat.=56.135159, lon.=26.365999, Alt.=104.776428m. Speed=0.000000m/h.</desc>
<speed>0.000000</speed>
</trkpt>
<trkpt lat="56.135159" lon="26.365999">
<ele>104.776428</ele>
<time>2010-08-29T15:43:05Z</time>
<desc>lat.=56.135159, lon.=26.365999, Alt.=104.776428m. Speed=0.036000m/h.</desc>
<speed>0.010000</speed>
</trkpt>
<trkpt lat="56.135159" lon="26.365999">
<ele>104.772522</ele>
<time>2010-08-29T15:43:06Z</time>
<desc>lat.=56.135159, lon.=26.365999, Alt.=104.772522m. Speed=0.000000m/h.</desc>
<speed>0.000000</speed>
</trkpt>
<trkpt lat="56.135159" lon="26.365999">
<ele>104.772522</ele>
<time>2010-08-29T15:43:07Z</time>
<desc>lat.=56.135159, lon.=26.365999, Alt.=104.772522m. Speed=0.000000m/h.</desc>
<speed>0.000000</speed>
</trkpt>
<trkpt lat="56.135159" lon="26.365999">
<ele>104.770569</ele>
<time>2010-08-29T15:43:08Z</time>
<desc>lat.=56.135159, lon.=26.365999, Alt.=104.770569m. Speed=0.000000m/h.</desc>
<speed>0.000000</speed>
</trkpt>
<trkpt lat="56.135159" lon="26.365999">
<ele>104.766663</ele>
<time>2010-08-29T15:43:09Z</time>
<desc>lat.=56.135159, lon.=26.365999, Alt.=104.766663m. Speed=0.036000m/h.</desc>
<speed>0.010000</speed>
</trkpt>
<trkpt lat="56.135159" lon="26.365999">
<ele>104.764709</ele>
<time>2010-08-29T15:43:10Z</time>
<desc>lat.=56.135159, lon.=26.365999, Alt.=104.764709m. Speed=0.000000m/h.</desc>
<speed>0.000000</speed>
</trkpt>
<trkpt lat="56.135159" lon="26.365999">
<ele>104.764709</ele>
<time>2010-08-29T15:43:11Z</time>
<desc>lat.=56.135159, lon.=26.365999, Alt.=104.764709m. Speed=0.000000m/h.</desc>
<speed>0.000000</speed>
</trkpt>
<trkpt lat="56.135159" lon="26.365999">
<ele>104.762756</ele>
<time>2010-08-29T15:43:12Z</time>
<desc>lat.=56.135159, lon.=26.365999, Alt.=104.762756m. Speed=0.000000m/h.</desc>
<speed>0.000000</speed>
</trkpt>
<trkpt lat="56.135159" lon="26.365999">
<ele>104.760803</ele>
<time>2010-08-29T15:43:13Z</time>
<desc>lat.=56.135159, lon.=26.365999, Alt.=104.760803m. Speed=0.000000m/h.</desc>
<speed>0.000000</speed>
</trkpt>
<trkpt lat="56.135159" lon="26.365999">
<ele>104.758850</ele>
<time>2010-08-29T15:43:14Z</time>
<desc>lat.=56.135159, lon.=26.365999, Alt.=104.758850m. Speed=0.000000m/h.</desc>
<speed>0.000000</speed>
</trkpt>
<trkpt lat="56.135159" lon="26.365999">
<ele>104.756897</ele>
<time>2010-08-29T15:43:15Z</time>
<desc>lat.=56.135159, lon.=26.365999, Alt.=104.756897m. Speed=0.000000m/h.</desc>
<speed>0.000000</speed>
</trkpt>
<trkpt lat="56.135159" lon="26.365999">
<ele>104.752991</ele>
<time>2010-08-29T15:43:16Z</time>
<desc>lat.=56.135159, lon.=26.365999, Alt.=104.752991m. Speed=0.036000m/h.</desc>
<speed>0.010000</speed>
</trkpt>
<trkpt lat="56.135159" lon="26.365999">
<ele>104.751038</ele>
<time>2010-08-29T15:43:17Z</time>
<desc>lat.=56.135159, lon.=26.365999, Alt.=104.751038m. Speed=0.000000m/h.</desc>
<speed>0.000000</speed>
</trkpt>
<trkpt lat="56.135159" lon="26.365999">
<ele>104.749084</ele>
<time>2010-08-29T15:43:18Z</time>
<desc>lat.=56.135159, lon.=26.365999, Alt.=104.749084m. Speed=0.000000m/h.</desc>
<speed>0.000000</speed>
</trkpt>
<trkpt lat="56.135159" lon="26.365999">
<ele>104.745178</ele>
<time>2010-08-29T15:43:19Z</time>
<desc>lat.=56.135159, lon.=26.365999, Alt.=104.745178m. Speed=0.000000m/h.</desc>
<speed>0.000000</speed>
</trkpt>
<trkpt lat="56.135159" lon="26.365999">
<ele>104.743225</ele>
<time>2010-08-29T15:43:20Z</time>
<desc>lat.=56.135159, lon.=26.365999, Alt.=104.743225m. Speed=0.036000m/h.</desc>
<speed>0.010000</speed>
</trkpt>
<trkpt lat="56.135159" lon="26.365999">
<ele>104.743225</ele>
<time>2010-08-29T15:43:21Z</time>
<desc>lat.=56.135159, lon.=26.365999, Alt.=104.743225m. Speed=0.036000m/h.</desc>
<speed>0.010000</speed>
</trkpt>
<trkpt lat="56.135159" lon="26.365999">
<ele>104.741272</ele>
<time>2010-08-29T15:43:22Z</time>
<desc>lat.=56.135159, lon.=26.365999, Alt.=104.741272m. Speed=0.000000m/h.</desc>
<speed>0.000000</speed>
</trkpt>
<trkpt lat="56.135159" lon="26.365999">
<ele>104.739319</ele>
<time>2010-08-29T15:43:23Z</time>
<desc>lat.=56.135159, lon.=26.365999, Alt.=104.739319m. Speed=0.000000m/h.</desc>
<speed>0.000000</speed>
</trkpt>
<trkpt lat="56.135159" lon="26.365999">
<ele>104.741272</ele>
<time>2010-08-29T15:43:24Z</time>
<desc>lat.=56.135159, lon.=26.365999, Alt.=104.741272m. Speed=0.000000m/h.</desc>
<speed>0.000000</speed>
</trkpt>
<trkpt lat="56.135159" lon="26.365999">
<ele>104.739319</ele>
<time>2010-08-29T15:43:25Z</time>
<desc>lat.=56.135159, lon.=26.365999, Alt.=104.739319m. Speed=0.036000m/h.</desc>
<speed>0.010000</speed>
</trkpt>
<trkpt lat="56.135159" lon="26.365999">
<ele>104.739319</ele>
<time>2010-08-29T15:43:26Z</time>
<desc>lat.=56.135159, lon.=26.365999, Alt.=104.739319m. Speed=0.000000m/h.</desc>
<speed>0.000000</speed>
</trkpt>
<trkpt lat="56.135159" lon="26.365999">
<ele>104.739319</ele>
<time>2010-08-29T15:43:27Z</time>
<desc>lat.=56.135159, lon.=26.365999, Alt.=104.739319m. Speed=0.000000m/h.</desc>
<speed>0.000000</speed>
</trkpt>
<trkpt lat="56.135159" lon="26.365999">
<ele>104.739319</ele>
<time>2010-08-29T15:43:28Z</time>
<desc>lat.=56.135159, lon.=26.365999, Alt.=104.739319m. Speed=0.000000m/h.</desc>
<speed>0.000000</speed>
</trkpt>
<trkpt lat="56.135159" lon="26.365999">
<ele>104.739319</ele>
<time>2010-08-29T15:43:29Z</time>
<desc>lat.=56.135159, lon.=26.365999, Alt.=104.739319m. Speed=0.036000m/h.</desc>
<speed>0.010000</speed>
</trkpt>
<trkpt lat="56.135159" lon="26.365999">
<ele>104.739319</ele>
<time>2010-08-29T15:43:30Z</time>
<desc>lat.=56.135159, lon.=26.365999, Alt.=104.739319m. Speed=0.000000m/h.</desc>
<speed>0.000000</speed>
</trkpt>
<trkpt lat="56.135159" lon="26.365999">
<ele>104.739319</ele>
<time>2010-08-29T15:43:31Z</time>
<desc>lat.=56.135159, lon.=26.365999, Alt.=104.739319m. Speed=0.000000m/h.</desc>
<speed>0.000000</speed>
</trkpt>
<trkpt lat="56.135159" lon="26.365999">
<ele>104.741272</ele>
<time>2010-08-29T15:43:32Z</time>
<desc>lat.=56.135159, lon.=26.365999, Alt.=104.741272m. Speed=0.000000m/h.</desc>
<speed>0.000000</speed>
</trkpt>
<trkpt lat="56.135159" lon="26.365999">
<ele>104.741272</ele>
<time>2010-08-29T15:43:33Z</time>
<desc>lat.=56.135159, lon.=26.365999, Alt.=104.741272m. Speed=0.000000m/h.</desc>
<speed>0.000000</speed>
</trkpt>
<trkpt lat="56.135159" lon="26.365999">
<ele>104.741272</ele>
<time>2010-08-29T15:43:34Z</time>
<desc>lat.=56.135159, lon.=26.365999, Alt.=104.741272m. Speed=0.000000m/h.</desc>
<speed>0.000000</speed>
</trkpt>
<trkpt lat="56.135159" lon="26.365999">
<ele>104.741272</ele>
<time>2010-08-29T15:43:35Z</time>
<desc>lat.=56.135159, lon.=26.365999, Alt.=104.741272m. Speed=0.000000m/h.</desc>
<speed>0.000000</speed>
</trkpt>
<trkpt lat="56.135159" lon="26.365999">
<ele>104.739319</ele>
<time>2010-08-29T15:43:36Z</time>
<desc>lat.=56.135159, lon.=26.365999, Alt.=104.739319m. Speed=0.000000m/h.</desc>
<speed>0.000000</speed>
</trkpt>
<trkpt lat="56.135159" lon="26.365999">
<ele>104.741272</ele>
<time>2010-08-29T15:43:37Z</time>
<desc>lat.=56.135159, lon.=26.365999, Alt.=104.741272m. Speed=0.036000m/h.</desc>
<speed>0.010000</speed>
</trkpt>
<trkpt lat="56.135159" lon="26.365999">
<ele>104.741272</ele>
<time>2010-08-29T15:43:38Z</time>
<desc>lat.=56.135159, lon.=26.365999, Alt.=104.741272m. Speed=0.000000m/h.</desc>
<speed>0.000000</speed>
</trkpt>
<trkpt lat="56.135159" lon="26.365999">
<ele>104.741272</ele>
<time>2010-08-29T15:43:39Z</time>
<desc>lat.=56.135159, lon.=26.365999, Alt.=104.741272m. Speed=0.000000m/h.</desc>
<speed>0.000000</speed>
</trkpt>
<trkpt lat="56.135159" lon="26.365999">
<ele>104.741272</ele>
<time>2010-08-29T15:43:40Z</time>
<desc>lat.=56.135159, lon.=26.365999, Alt.=104.741272m. Speed=0.000000m/h.</desc>
<speed>0.000000</speed>
</trkpt>
<trkpt lat="56.135159" lon="26.365999">
<ele>104.741272</ele>
<time>2010-08-29T15:43:41Z</time>
<desc>lat.=56.135159, lon.=26.365999, Alt.=104.741272m. Speed=0.000000m/h.</desc>
<speed>0.000000</speed>
</trkpt>
<trkpt lat="56.135159" lon="26.365999">
<ele>104.741272</ele>
<time>2010-08-29T15:43:42Z</time>
<desc>lat.=56.135159, lon.=26.365999, Alt.=104.741272m. Speed=0.036000m/h.</desc>
<speed>0.010000</speed>
</trkpt>
<trkpt lat="56.135159" lon="26.365999">
<ele>104.741272</ele>
<time>2010-08-29T15:43:43Z</time>
<desc>lat.=56.135159, lon.=26.365999, Alt.=104.741272m. Speed=0.000000m/h.</desc>
<speed>0.000000</speed>
</trkpt>
<trkpt lat="56.135159" lon="26.365999">
<ele>104.741272</ele>
<time>2010-08-29T15:43:44Z</time>
<desc>lat.=56.135159, lon.=26.365999, Alt.=104.741272m. Speed=0.000000m/h.</desc>
<speed>0.000000</speed>
</trkpt>
<trkpt lat="56.135159" lon="26.365999">
<ele>104.739319</ele>
<time>2010-08-29T15:43:45Z</time>
<desc>lat.=56.135159, lon.=26.365999, Alt.=104.739319m. Speed=0.000000m/h.</desc>
<speed>0.000000</speed>
</trkpt>
<trkpt lat="56.135159" lon="26.365999">
<ele>104.737366</ele>
<time>2010-08-29T15:43:46Z</time>
<desc>lat.=56.135159, lon.=26.365999, Alt.=104.737366m. Speed=0.000000m/h.</desc>
<speed>0.000000</speed>
</trkpt>
<trkpt lat="56.135159" lon="26.365999">
<ele>104.737366</ele>
<time>2010-08-29T15:43:47Z</time>
<desc>lat.=56.135159, lon.=26.365999, Alt.=104.737366m. Speed=0.000000m/h.</desc>
<speed>0.000000</speed>
</trkpt>
<trkpt lat="56.135159" lon="26.365999">
<ele>104.737366</ele>
<time>2010-08-29T15:43:48Z</time>
<desc>lat.=56.135159, lon.=26.365999, Alt.=104.737366m. Speed=0.000000m/h.</desc>
<speed>0.000000</speed>
</trkpt>
<trkpt lat="56.135159" lon="26.365999">
<ele>104.735413</ele>
<time>2010-08-29T15:43:49Z</time>
<desc>lat.=56.135159, lon.=26.365999, Alt.=104.735413m. Speed=0.036000m/h.</desc>
<speed>0.010000</speed>
</trkpt>
<trkpt lat="56.135159" lon="26.365999">
<ele>104.735413</ele>
<time>2010-08-29T15:43:50Z</time>
<desc>lat.=56.135159, lon.=26.365999, Alt.=104.735413m. Speed=0.036000m/h.</desc>
<speed>0.010000</speed>
</trkpt>
<trkpt lat="56.135159" lon="26.365999">
<ele>104.735413</ele>
<time>2010-08-29T15:43:51Z</time>
<desc>lat.=56.135159, lon.=26.365999, Alt.=104.735413m. Speed=0.000000m/h.</desc>
<speed>0.000000</speed>
</trkpt>
<trkpt lat="56.135159" lon="26.365999">
<ele>104.737366</ele>
<time>2010-08-29T15:43:52Z</time>
<desc>lat.=56.135159, lon.=26.365999, Alt.=104.737366m. Speed=0.036000m/h.</desc>
<speed>0.010000</speed>
</trkpt>
<trkpt lat="56.135159" lon="26.365999">
<ele>104.735413</ele>
<time>2010-08-29T15:43:53Z</time>
<desc>lat.=56.135159, lon.=26.365999, Alt.=104.735413m. Speed=0.000000m/h.</desc>
<speed>0.000000</speed>
</trkpt>
<trkpt lat="56.135159" lon="26.365999">
<ele>104.737366</ele>
<time>2010-08-29T15:43:54Z</time>
<desc>lat.=56.135159, lon.=26.365999, Alt.=104.737366m. Speed=0.000000m/h.</desc>
<speed>0.000000</speed>
</trkpt>
<trkpt lat="56.135159" lon="26.365999">
<ele>104.737366</ele>
<time>2010-08-29T15:43:55Z</time>
<desc>lat.=56.135159, lon.=26.365999, Alt.=104.737366m. Speed=0.000000m/h.</desc>
<speed>0.000000</speed>
</trkpt>
<trkpt lat="56.135159" lon="26.365999">
<ele>104.737366</ele>
<time>2010-08-29T15:43:56Z</time>
<desc>lat.=56.135159, lon.=26.365999, Alt.=104.737366m. Speed=0.000000m/h.</desc>
<speed>0.000000</speed>
</trkpt>
<trkpt lat="56.135159" lon="26.365999">
<ele>104.739319</ele>
<time>2010-08-29T15:43:57Z</time>
<desc>lat.=56.135159, lon.=26.365999, Alt.=104.739319m. Speed=0.000000m/h.</desc>
<speed>0.000000</speed>
</trkpt>
<trkpt lat="56.135159" lon="26.365999">
<ele>104.737366</ele>
<time>2010-08-29T15:43:58Z</time>
<desc>lat.=56.135159, lon.=26.365999, Alt.=104.737366m. Speed=0.000000m/h.</desc>
<speed>0.000000</speed>
</trkpt>
<trkpt lat="56.135159" lon="26.365999">
<ele>104.737366</ele>
<time>2010-08-29T15:43:59Z</time>
<desc>lat.=56.135159, lon.=26.365999, Alt.=104.737366m. Speed=0.000000m/h.</desc>
<speed>0.000000</speed>
</trkpt>
<trkpt lat="56.135159" lon="26.365999">
<ele>104.737366</ele>
<time>2010-08-29T15:44:00Z</time>
<desc>lat.=56.135159, lon.=26.365999, Alt.=104.737366m. Speed=0.000000m/h.</desc>
<speed>0.000000</speed>
</trkpt>
<trkpt lat="56.135159" lon="26.365999">
<ele>104.739319</ele>
<time>2010-08-29T15:44:01Z</time>
<desc>lat.=56.135159, lon.=26.365999, Alt.=104.739319m. Speed=0.036000m/h.</desc>
<speed>0.010000</speed>
</trkpt>
<trkpt lat="56.135159" lon="26.365999">
<ele>104.739319</ele>
<time>2010-08-29T15:44:02Z</time>
<desc>lat.=56.135159, lon.=26.365999, Alt.=104.739319m. Speed=0.000000m/h.</desc>
<speed>0.000000</speed>
</trkpt>
<trkpt lat="56.135159" lon="26.365999">
<ele>104.739319</ele>
<time>2010-08-29T15:44:03Z</time>
<desc>lat.=56.135159, lon.=26.365999, Alt.=104.739319m. Speed=0.000000m/h.</desc>
<speed>0.000000</speed>
</trkpt>
<trkpt lat="56.135159" lon="26.365999">
<ele>104.739319</ele>
<time>2010-08-29T15:44:04Z</time>
<desc>lat.=56.135159, lon.=26.365999, Alt.=104.739319m. Speed=0.000000m/h.</desc>
<speed>0.000000</speed>
</trkpt>
<trkpt lat="56.135159" lon="26.365999">
<ele>104.739319</ele>
<time>2010-08-29T15:44:05Z</time>
<desc>lat.=56.135159, lon.=26.365999, Alt.=104.739319m. Speed=0.036000m/h.</desc>
<speed>0.010000</speed>
</trkpt>
<trkpt lat="56.135159" lon="26.365999">
<ele>104.741272</ele>
<time>2010-08-29T15:44:06Z</time>
<desc>lat.=56.135159, lon.=26.365999, Alt.=104.741272m. Speed=0.000000m/h.</desc>
<speed>0.000000</speed>
</trkpt>
<trkpt lat="56.135159" lon="26.365999">
<ele>104.741272</ele>
<time>2010-08-29T15:44:07Z</time>
<desc>lat.=56.135159, lon.=26.365999, Alt.=104.741272m. Speed=0.000000m/h.</desc>
<speed>0.000000</speed>
</trkpt>
<trkpt lat="56.135159" lon="26.365999">
<ele>104.741272</ele>
<time>2010-08-29T15:44:08Z</time>
<desc>lat.=56.135159, lon.=26.365999, Alt.=104.741272m. Speed=0.000000m/h.</desc>
<speed>0.000000</speed>
</trkpt>
<trkpt lat="56.135159" lon="26.365999">
<ele>104.741272</ele>
<time>2010-08-29T15:44:09Z</time>
<desc>lat.=56.135159, lon.=26.365999, Alt.=104.741272m. Speed=0.000000m/h.</desc>
<speed>0.000000</speed>
</trkpt>
<trkpt lat="56.135159" lon="26.365999">
<ele>104.741272</ele>
<time>2010-08-29T15:44:10Z</time>
<desc>lat.=56.135159, lon.=26.365999, Alt.=104.741272m. Speed=0.000000m/h.</desc>
<speed>0.000000</speed>
</trkpt>
<trkpt lat="56.135159" lon="26.365999">
<ele>104.739319</ele>
<time>2010-08-29T15:44:11Z</time>
<desc>lat.=56.135159, lon.=26.365999, Alt.=104.739319m. Speed=0.036000m/h.</desc>
<speed>0.010000</speed>
</trkpt>
<trkpt lat="56.135159" lon="26.365999">
<ele>104.741272</ele>
<time>2010-08-29T15:44:12Z</time>
<desc>lat.=56.135159, lon.=26.365999, Alt.=104.741272m. Speed=0.000000m/h.</desc>
<speed>0.000000</speed>
</trkpt>
<trkpt lat="56.135159" lon="26.365999">
<ele>104.743225</ele>
<time>2010-08-29T15:44:13Z</time>
<desc>lat.=56.135159, lon.=26.365999, Alt.=104.743225m. Speed=0.000000m/h.</desc>
<speed>0.000000</speed>
</trkpt>
<trkpt lat="56.135159" lon="26.365999">
<ele>104.745178</ele>
<time>2010-08-29T15:44:14Z</time>
<desc>lat.=56.135159, lon.=26.365999, Alt.=104.745178m. Speed=0.000000m/h.</desc>
<speed>0.000000</speed>
</trkpt>
<trkpt lat="56.135159" lon="26.365999">
<ele>104.747131</ele>
<time>2010-08-29T15:44:15Z</time>
<desc>lat.=56.135159, lon.=26.365999, Alt.=104.747131m. Speed=0.036000m/h.</desc>
<speed>0.010000</speed>
</trkpt>
<trkpt lat="56.135159" lon="26.365999">
<ele>104.747131</ele>
<time>2010-08-29T15:44:16Z</time>
<desc>lat.=56.135159, lon.=26.365999, Alt.=104.747131m. Speed=0.000000m/h.</desc>
<speed>0.000000</speed>
</trkpt>
<trkpt lat="56.135159" lon="26.365999">
<ele>104.749084</ele>
<time>2010-08-29T15:44:17Z</time>
<desc>lat.=56.135159, lon.=26.365999, Alt.=104.749084m. Speed=0.000000m/h.</desc>
<speed>0.000000</speed>
</trkpt>
<trkpt lat="56.135159" lon="26.365999">
<ele>104.751038</ele>
<time>2010-08-29T15:44:18Z</time>
<desc>lat.=56.135159, lon.=26.365999, Alt.=104.751038m. Speed=0.000000m/h.</desc>
<speed>0.000000</speed>
</trkpt>
<trkpt lat="56.135159" lon="26.365999">
<ele>104.752991</ele>
<time>2010-08-29T15:44:19Z</time>
<desc>lat.=56.135159, lon.=26.365999, Alt.=104.752991m. Speed=0.000000m/h.</desc>
<speed>0.000000</speed>
</trkpt>
<trkpt lat="56.135159" lon="26.365999">
<ele>104.752991</ele>
<time>2010-08-29T15:44:20Z</time>
<desc>lat.=56.135159, lon.=26.365999, Alt.=104.752991m. Speed=0.000000m/h.</desc>
<speed>0.000000</speed>
</trkpt>
<trkpt lat="56.135159" lon="26.365999">
<ele>104.752991</ele>
<time>2010-08-29T15:44:21Z</time>
<desc>lat.=56.135159, lon.=26.365999, Alt.=104.752991m. Speed=0.000000m/h.</desc>
<speed>0.000000</speed>
</trkpt>
<trkpt lat="56.135159" lon="26.365999">
<ele>104.754944</ele>
<time>2010-08-29T15:44:22Z</time>
<desc>lat.=56.135159, lon.=26.365999, Alt.=104.754944m. Speed=0.000000m/h.</desc>
<speed>0.000000</speed>
</trkpt>
<trkpt lat="56.135159" lon="26.365999">
<ele>104.752991</ele>
<time>2010-08-29T15:44:23Z</time>
<desc>lat.=56.135159, lon.=26.365999, Alt.=104.752991m. Speed=0.036000m/h.</desc>
<speed>0.010000</speed>
</trkpt>
<trkpt lat="56.135159" lon="26.365999">
<ele>104.754944</ele>
<time>2010-08-29T15:44:24Z</time>
<desc>lat.=56.135159, lon.=26.365999, Alt.=104.754944m. Speed=0.036000m/h.</desc>
<speed>0.010000</speed>
</trkpt>
<trkpt lat="56.135159" lon="26.366001">
<ele>104.756897</ele>
<time>2010-08-29T15:44:25Z</time>
<desc>lat.=56.135159, lon.=26.366001, Alt.=104.756897m. Speed=0.000000m/h.</desc>
<speed>0.000000</speed>
</trkpt>
<trkpt lat="56.135159" lon="26.366001">
<ele>104.754944</ele>
<time>2010-08-29T15:44:26Z</time>
<desc>lat.=56.135159, lon.=26.366001, Alt.=104.754944m. Speed=0.000000m/h.</desc>
<speed>0.000000</speed>
</trkpt>
<trkpt lat="56.135159" lon="26.366001">
<ele>104.754944</ele>
<time>2010-08-29T15:44:27Z</time>
<desc>lat.=56.135159, lon.=26.366001, Alt.=104.754944m. Speed=0.036000m/h.</desc>
<speed>0.010000</speed>
</trkpt>
<trkpt lat="56.135159" lon="26.366001">
<ele>104.754944</ele>
<time>2010-08-29T15:44:28Z</time>
<desc>lat.=56.135159, lon.=26.366001, Alt.=104.754944m. Speed=0.000000m/h.</desc>
<speed>0.000000</speed>
</trkpt>
<trkpt lat="56.135159" lon="26.366001">
<ele>104.752991</ele>
<time>2010-08-29T15:44:29Z</time>
<desc>lat.=56.135159, lon.=26.366001, Alt.=104.752991m. Speed=0.036000m/h.</desc>
<speed>0.010000</speed>
</trkpt>
<trkpt lat="56.135159" lon="26.366001">
<ele>104.752991</ele>
<time>2010-08-29T15:44:30Z</time>
<desc>lat.=56.135159, lon.=26.366001, Alt.=104.752991m. Speed=0.036000m/h.</desc>
<speed>0.010000</speed>
</trkpt>
<trkpt lat="56.135159" lon="26.366001">
<ele>104.752991</ele>
<time>2010-08-29T15:44:31Z</time>
<desc>lat.=56.135159, lon.=26.366001, Alt.=104.752991m. Speed=0.072000m/h.</desc>
<speed>0.020000</speed>
</trkpt>
<trkpt lat="56.135159" lon="26.366001">
<ele>104.752991</ele>
<time>2010-08-29T15:44:32Z</time>
<desc>lat.=56.135159, lon.=26.366001, Alt.=104.752991m. Speed=0.000000m/h.</desc>
<speed>0.000000</speed>
</trkpt>
<trkpt lat="56.135159" lon="26.366001">
<ele>104.751038</ele>
<time>2010-08-29T15:44:33Z</time>
<desc>lat.=56.135159, lon.=26.366001, Alt.=104.751038m. Speed=0.036000m/h.</desc>
<speed>0.010000</speed>
</trkpt>
<trkpt lat="56.135159" lon="26.366001">
<ele>104.751038</ele>
<time>2010-08-29T15:44:34Z</time>
<desc>lat.=56.135159, lon.=26.366001, Alt.=104.751038m. Speed=0.000000m/h.</desc>
<speed>0.000000</speed>
</trkpt>
<trkpt lat="56.135159" lon="26.366001">
<ele>104.749084</ele>
<time>2010-08-29T15:44:35Z</time>
<desc>lat.=56.135159, lon.=26.366001, Alt.=104.749084m. Speed=0.000000m/h.</desc>
<speed>0.000000</speed>
</trkpt>
<trkpt lat="56.135159" lon="26.366001">
<ele>104.749084</ele>
<time>2010-08-29T15:44:36Z</time>
<desc>lat.=56.135159, lon.=26.366001, Alt.=104.749084m. Speed=0.000000m/h.</desc>
<speed>0.000000</speed>
</trkpt>
<trkpt lat="56.135159" lon="26.366001">
<ele>104.747131</ele>
<time>2010-08-29T15:44:37Z</time>
<desc>lat.=56.135159, lon.=26.366001, Alt.=104.747131m. Speed=0.000000m/h.</desc>
<speed>0.000000</speed>
</trkpt>
<trkpt lat="56.135159" lon="26.366001">
<ele>104.745178</ele>
<time>2010-08-29T15:44:38Z</time>
<desc>lat.=56.135159, lon.=26.366001, Alt.=104.745178m. Speed=0.000000m/h.</desc>
<speed>0.000000</speed>
</trkpt>
<trkpt lat="56.135159" lon="26.366001">
<ele>104.745178</ele>
<time>2010-08-29T15:44:39Z</time>
<desc>lat.=56.135159, lon.=26.366001, Alt.=104.745178m. Speed=0.000000m/h.</desc>
<speed>0.000000</speed>
</trkpt>
<trkpt lat="56.135159" lon="26.366001">
<ele>104.743225</ele>
<time>2010-08-29T15:44:40Z</time>
<desc>lat.=56.135159, lon.=26.366001, Alt.=104.743225m. Speed=0.000000m/h.</desc>
<speed>0.000000</speed>
</trkpt>
<trkpt lat="56.135159" lon="26.366001">
<ele>104.741272</ele>
<time>2010-08-29T15:44:41Z</time>
<desc>lat.=56.135159, lon.=26.366001, Alt.=104.741272m. Speed=0.000000m/h.</desc>
<speed>0.000000</speed>
</trkpt>
<trkpt lat="56.135159" lon="26.366001">
<ele>104.741272</ele>
<time>2010-08-29T15:44:42Z</time>
<desc>lat.=56.135159, lon.=26.366001, Alt.=104.741272m. Speed=0.000000m/h.</desc>
<speed>0.000000</speed>
</trkpt>
<trkpt lat="56.135159" lon="26.366001">
<ele>104.739319</ele>
<time>2010-08-29T15:44:43Z</time>
<desc>lat.=56.135159, lon.=26.366001, Alt.=104.739319m. Speed=0.036000m/h.</desc>
<speed>0.010000</speed>
</trkpt>
<trkpt lat="56.135159" lon="26.366001">
<ele>104.739319</ele>
<time>2010-08-29T15:44:44Z</time>
<desc>lat.=56.135159, lon.=26.366001, Alt.=104.739319m. Speed=0.000000m/h.</desc>
<speed>0.000000</speed>
</trkpt>
<trkpt lat="56.135159" lon="26.366001">
<ele>104.739319</ele>
<time>2010-08-29T15:44:45Z</time>
<desc>lat.=56.135159, lon.=26.366001, Alt.=104.739319m. Speed=0.000000m/h.</desc>
<speed>0.000000</speed>
</trkpt>
<trkpt lat="56.135159" lon="26.366001">
<ele>104.739319</ele>
<time>2010-08-29T15:44:46Z</time>
<desc>lat.=56.135159, lon.=26.366001, Alt.=104.739319m. Speed=0.036000m/h.</desc>
<speed>0.010000</speed>
</trkpt>
<trkpt lat="56.135159" lon="26.366001">
<ele>104.739319</ele>
<time>2010-08-29T15:44:47Z</time>
<desc>lat.=56.135159, lon.=26.366001, Alt.=104.739319m. Speed=0.000000m/h.</desc>
<speed>0.000000</speed>
</trkpt>
<trkpt lat="56.135159" lon="26.366001">
<ele>104.737366</ele>
<time>2010-08-29T15:44:48Z</time>
<desc>lat.=56.135159, lon.=26.366001, Alt.=104.737366m. Speed=0.000000m/h.</desc>
<speed>0.000000</speed>
</trkpt>
<trkpt lat="56.135159" lon="26.366001">
<ele>104.737366</ele>
<time>2010-08-29T15:44:49Z</time>
<desc>lat.=56.135159, lon.=26.366001, Alt.=104.737366m. Speed=0.000000m/h.</desc>
<speed>0.000000</speed>
</trkpt>
<trkpt lat="56.135159" lon="26.366001">
<ele>104.735413</ele>
<time>2010-08-29T15:44:50Z</time>
<desc>lat.=56.135159, lon.=26.366001, Alt.=104.735413m. Speed=0.000000m/h.</desc>
<speed>0.000000</speed>
</trkpt>
<trkpt lat="56.135159" lon="26.366001">
<ele>104.733459</ele>
<time>2010-08-29T15:44:51Z</time>
<desc>lat.=56.135159, lon.=26.366001, Alt.=104.733459m. Speed=0.036000m/h.</desc>
<speed>0.010000</speed>
</trkpt>
<trkpt lat="56.135159" lon="26.366001">
<ele>104.733459</ele>
<time>2010-08-29T15:44:52Z</time>
<desc>lat.=56.135159, lon.=26.366001, Alt.=104.733459m. Speed=0.000000m/h.</desc>
<speed>0.000000</speed>
</trkpt>
<trkpt lat="56.135159" lon="26.366001">
<ele>104.733459</ele>
<time>2010-08-29T15:44:53Z</time>
<desc>lat.=56.135159, lon.=26.366001, Alt.=104.733459m. Speed=0.000000m/h.</desc>
<speed>0.000000</speed>
</trkpt>
<trkpt lat="56.135159" lon="26.366001">
<ele>104.731506</ele>
<time>2010-08-29T15:44:54Z</time>
<desc>lat.=56.135159, lon.=26.366001, Alt.=104.731506m. Speed=0.036000m/h.</desc>
<speed>0.010000</speed>
</trkpt>
<trkpt lat="56.135159" lon="26.366001">
<ele>104.731506</ele>
<time>2010-08-29T15:44:55Z</time>
<desc>lat.=56.135159, lon.=26.366001, Alt.=104.731506m. Speed=0.000000m/h.</desc>
<speed>0.000000</speed>
</trkpt>
<trkpt lat="56.135159" lon="26.366001">
<ele>104.729553</ele>
<time>2010-08-29T15:44:56Z</time>
<desc>lat.=56.135159, lon.=26.366001, Alt.=104.729553m. Speed=0.000000m/h.</desc>
<speed>0.000000</speed>
</trkpt>
<trkpt lat="56.135159" lon="26.366001">
<ele>104.729553</ele>
<time>2010-08-29T15:44:57Z</time>
<desc>lat.=56.135159, lon.=26.366001, Alt.=104.729553m. Speed=0.000000m/h.</desc>
<speed>0.000000</speed>
</trkpt>
<trkpt lat="56.135159" lon="26.366001">
<ele>104.727600</ele>
<time>2010-08-29T15:44:58Z</time>
<desc>lat.=56.135159, lon.=26.366001, Alt.=104.727600m. Speed=0.036000m/h.</desc>
<speed>0.010000</speed>
</trkpt>
<trkpt lat="56.135159" lon="26.366001">
<ele>104.725647</ele>
<time>2010-08-29T15:44:59Z</time>
<desc>lat.=56.135159, lon.=26.366001, Alt.=104.725647m. Speed=0.000000m/h.</desc>
<speed>0.000000</speed>
</trkpt>
<trkpt lat="56.135159" lon="26.366001">
<ele>104.723694</ele>
<time>2010-08-29T15:45:00Z</time>
<desc>lat.=56.135159, lon.=26.366001, Alt.=104.723694m. Speed=0.000000m/h.</desc>
<speed>0.000000</speed>
</trkpt>
<trkpt lat="56.135159" lon="26.366001">
<ele>104.723694</ele>
<time>2010-08-29T15:45:01Z</time>
<desc>lat.=56.135159, lon.=26.366001, Alt.=104.723694m. Speed=0.000000m/h.</desc>
<speed>0.000000</speed>
</trkpt>
<trkpt lat="56.135159" lon="26.366001">
<ele>104.721741</ele>
<time>2010-08-29T15:45:02Z</time>
<desc>lat.=56.135159, lon.=26.366001, Alt.=104.721741m. Speed=0.000000m/h.</desc>
<speed>0.000000</speed>
</trkpt>
<trkpt lat="56.135159" lon="26.366001">
<ele>104.721741</ele>
<time>2010-08-29T15:45:03Z</time>
<desc>lat.=56.135159, lon.=26.366001, Alt.=104.721741m. Speed=0.000000m/h.</desc>
<speed>0.000000</speed>
</trkpt>
<trkpt lat="56.135159" lon="26.366001">
<ele>104.721741</ele>
<time>2010-08-29T15:45:04Z</time>
<desc>lat.=56.135159, lon.=26.366001, Alt.=104.721741m. Speed=0.000000m/h.</desc>
<speed>0.000000</speed>
</trkpt>
<trkpt lat="56.135159" lon="26.366001">
<ele>104.719788</ele>
<time>2010-08-29T15:45:05Z</time>
<desc>lat.=56.135159, lon.=26.366001, Alt.=104.719788m. Speed=0.000000m/h.</desc>
<speed>0.000000</speed>
</trkpt>
<trkpt lat="56.135159" lon="26.366001">
<ele>104.719788</ele>
<time>2010-08-29T15:45:06Z</time>
<desc>lat.=56.135159, lon.=26.366001, Alt.=104.719788m. Speed=0.000000m/h.</desc>
<speed>0.000000</speed>
</trkpt>
<trkpt lat="56.135159" lon="26.366001">
<ele>104.719788</ele>
<time>2010-08-29T15:45:07Z</time>
<desc>lat.=56.135159, lon.=26.366001, Alt.=104.719788m. Speed=0.000000m/h.</desc>
<speed>0.000000</speed>
</trkpt>
<trkpt lat="56.135159" lon="26.366001">
<ele>104.717834</ele>
<time>2010-08-29T15:45:08Z</time>
<desc>lat.=56.135159, lon.=26.366001, Alt.=104.717834m. Speed=0.000000m/h.</desc>
<speed>0.000000</speed>
</trkpt>
<trkpt lat="56.135159" lon="26.366001">
<ele>104.717834</ele>
<time>2010-08-29T15:45:09Z</time>
<desc>lat.=56.135159, lon.=26.366001, Alt.=104.717834m. Speed=0.000000m/h.</desc>
<speed>0.000000</speed>
</trkpt>
<trkpt lat="56.135159" lon="26.366001">
<ele>104.717834</ele>
<time>2010-08-29T15:45:10Z</time>
<desc>lat.=56.135159, lon.=26.366001, Alt.=104.717834m. Speed=0.000000m/h.</desc>
<speed>0.000000</speed>
</trkpt>
<trkpt lat="56.135159" lon="26.366001">
<ele>104.717834</ele>
<time>2010-08-29T15:45:11Z</time>
<desc>lat.=56.135159, lon.=26.366001, Alt.=104.717834m. Speed=0.000000m/h.</desc>
<speed>0.000000</speed>
</trkpt>
<trkpt lat="56.135159" lon="26.366001">
<ele>104.717834</ele>
<time>2010-08-29T15:45:12Z</time>
<desc>lat.=56.135159, lon.=26.366001, Alt.=104.717834m. Speed=0.000000m/h.</desc>
<speed>0.000000</speed>
</trkpt>
<trkpt lat="56.135159" lon="26.366001">
<ele>104.717834</ele>
<time>2010-08-29T15:45:13Z</time>
<desc>lat.=56.135159, lon.=26.366001, Alt.=104.717834m. Speed=0.000000m/h.</desc>
<speed>0.000000</speed>
</trkpt>
<trkpt lat="56.135159" lon="26.366001">
<ele>104.717834</ele>
<time>2010-08-29T15:45:14Z</time>
<desc>lat.=56.135159, lon.=26.366001, Alt.=104.717834m. Speed=0.000000m/h.</desc>
<speed>0.000000</speed>
</trkpt>
<trkpt lat="56.135159" lon="26.366001">
<ele>104.717834</ele>
<time>2010-08-29T15:45:15Z</time>
<desc>lat.=56.135159, lon.=26.366001, Alt.=104.717834m. Speed=0.000000m/h.</desc>
<speed>0.000000</speed>
</trkpt>
<trkpt lat="56.135159" lon="26.366001">
<ele>104.719788</ele>
<time>2010-08-29T15:45:16Z</time>
<desc>lat.=56.135159, lon.=26.366001, Alt.=104.719788m. Speed=0.000000m/h.</desc>
<speed>0.000000</speed>
</trkpt>
<trkpt lat="56.135159" lon="26.366001">
<ele>104.721741</ele>
<time>2010-08-29T15:45:17Z</time>
<desc>lat.=56.135159, lon.=26.366001, Alt.=104.721741m. Speed=0.000000m/h.</desc>
<speed>0.000000</speed>
</trkpt>
<trkpt lat="56.135159" lon="26.366001">
<ele>104.723694</ele>
<time>2010-08-29T15:45:18Z</time>
<desc>lat.=56.135159, lon.=26.366001, Alt.=104.723694m. Speed=0.000000m/h.</desc>
<speed>0.000000</speed>
</trkpt>
<trkpt lat="56.135159" lon="26.366001">
<ele>104.725647</ele>
<time>2010-08-29T15:45:19Z</time>
<desc>lat.=56.135159, lon.=26.366001, Alt.=104.725647m. Speed=0.000000m/h.</desc>
<speed>0.000000</speed>
</trkpt>
<trkpt lat="56.135159" lon="26.366001">
<ele>104.725647</ele>
<time>2010-08-29T15:45:20Z</time>
<desc>lat.=56.135159, lon.=26.366001, Alt.=104.725647m. Speed=0.000000m/h.</desc>
<speed>0.000000</speed>
</trkpt>
<trkpt lat="56.135159" lon="26.366001">
<ele>104.727600</ele>
<time>2010-08-29T15:45:21Z</time>
<desc>lat.=56.135159, lon.=26.366001, Alt.=104.727600m. Speed=0.000000m/h.</desc>
<speed>0.000000</speed>
</trkpt>
<trkpt lat="56.135159" lon="26.366001">
<ele>104.729553</ele>
<time>2010-08-29T15:45:22Z</time>
<desc>lat.=56.135159, lon.=26.366001, Alt.=104.729553m. Speed=0.000000m/h.</desc>
<speed>0.000000</speed>
</trkpt>
<trkpt lat="56.135159" lon="26.366001">
<ele>104.729553</ele>
<time>2010-08-29T15:45:23Z</time>
<desc>lat.=56.135159, lon.=26.366001, Alt.=104.729553m. Speed=0.000000m/h.</desc>
<speed>0.000000</speed>
</trkpt>
<trkpt lat="56.135159" lon="26.366001">
<ele>104.731506</ele>
<time>2010-08-29T15:45:24Z</time>
<desc>lat.=56.135159, lon.=26.366001, Alt.=104.731506m. Speed=0.000000m/h.</desc>
<speed>0.000000</speed>
</trkpt>
<trkpt lat="56.135159" lon="26.366001">
<ele>104.731506</ele>
<time>2010-08-29T15:45:25Z</time>
<desc>lat.=56.135159, lon.=26.366001, Alt.=104.731506m. Speed=0.000000m/h.</desc>
<speed>0.000000</speed>
</trkpt>
<trkpt lat="56.135159" lon="26.366001">
<ele>104.733459</ele>
<time>2010-08-29T15:45:26Z</time>
<desc>lat.=56.135159, lon.=26.366001, Alt.=104.733459m. Speed=0.000000m/h.</desc>
<speed>0.000000</speed>
</trkpt>
<trkpt lat="56.135159" lon="26.366001">
<ele>104.733459</ele>
<time>2010-08-29T15:45:27Z</time>
<desc>lat.=56.135159, lon.=26.366001, Alt.=104.733459m. Speed=0.036000m/h.</desc>
<speed>0.010000</speed>
</trkpt>
<trkpt lat="56.135159" lon="26.366001">
<ele>104.735413</ele>
<time>2010-08-29T15:45:28Z</time>
<desc>lat.=56.135159, lon.=26.366001, Alt.=104.735413m. Speed=0.036000m/h.</desc>
<speed>0.010000</speed>
</trkpt>
<trkpt lat="56.135159" lon="26.366001">
<ele>104.735413</ele>
<time>2010-08-29T15:45:29Z</time>
<desc>lat.=56.135159, lon.=26.366001, Alt.=104.735413m. Speed=0.036000m/h.</desc>
<speed>0.010000</speed>
</trkpt>
<trkpt lat="56.135159" lon="26.366001">
<ele>104.737366</ele>
<time>2010-08-29T15:45:30Z</time>
<desc>lat.=56.135159, lon.=26.366001, Alt.=104.737366m. Speed=0.036000m/h.</desc>
<speed>0.010000</speed>
</trkpt>
<trkpt lat="56.135159" lon="26.366001">
<ele>104.739319</ele>
<time>2010-08-29T15:45:31Z</time>
<desc>lat.=56.135159, lon.=26.366001, Alt.=104.739319m. Speed=0.000000m/h.</desc>
<speed>0.000000</speed>
</trkpt>
<trkpt lat="56.135159" lon="26.366001">
<ele>104.741272</ele>
<time>2010-08-29T15:45:32Z</time>
<desc>lat.=56.135159, lon.=26.366001, Alt.=104.741272m. Speed=0.036000m/h.</desc>
<speed>0.010000</speed>
</trkpt>
<trkpt lat="56.135159" lon="26.366001">
<ele>104.745178</ele>
<time>2010-08-29T15:45:33Z</time>
<desc>lat.=56.135159, lon.=26.366001, Alt.=104.745178m. Speed=0.000000m/h.</desc>
<speed>0.000000</speed>
</trkpt>
<trkpt lat="56.135159" lon="26.366001">
<ele>104.747131</ele>
<time>2010-08-29T15:45:34Z</time>
<desc>lat.=56.135159, lon.=26.366001, Alt.=104.747131m. Speed=0.036000m/h.</desc>
<speed>0.010000</speed>
</trkpt>
<trkpt lat="56.135159" lon="26.366001">
<ele>104.749084</ele>
<time>2010-08-29T15:45:35Z</time>
<desc>lat.=56.135159, lon.=26.366001, Alt.=104.749084m. Speed=0.036000m/h.</desc>
<speed>0.010000</speed>
</trkpt>
<trkpt lat="56.135159" lon="26.366001">
<ele>104.749084</ele>
<time>2010-08-29T15:45:36Z</time>
<desc>lat.=56.135159, lon.=26.366001, Alt.=104.749084m. Speed=0.000000m/h.</desc>
<speed>0.000000</speed>
</trkpt>
<trkpt lat="56.135159" lon="26.366001">
<ele>104.751038</ele>
<time>2010-08-29T15:45:37Z</time>
<desc>lat.=56.135159, lon.=26.366001, Alt.=104.751038m. Speed=0.036000m/h.</desc>
<speed>0.010000</speed>
</trkpt>
<trkpt lat="56.135159" lon="26.365999">
<ele>104.752991</ele>
<time>2010-08-29T15:45:38Z</time>
<desc>lat.=56.135159, lon.=26.365999, Alt.=104.752991m. Speed=0.036000m/h.</desc>
<speed>0.010000</speed>
</trkpt>
<trkpt lat="56.135159" lon="26.365999">
<ele>104.756897</ele>
<time>2010-08-29T15:45:39Z</time>
<desc>lat.=56.135159, lon.=26.365999, Alt.=104.756897m. Speed=0.000000m/h.</desc>
<speed>0.000000</speed>
</trkpt>
<trkpt lat="56.135159" lon="26.365999">
<ele>104.758850</ele>
<time>2010-08-29T15:45:40Z</time>
<desc>lat.=56.135159, lon.=26.365999, Alt.=104.758850m. Speed=0.000000m/h.</desc>
<speed>0.000000</speed>
</trkpt>
<trkpt lat="56.135159" lon="26.365999">
<ele>104.760803</ele>
<time>2010-08-29T15:45:41Z</time>
<desc>lat.=56.135159, lon.=26.365999, Alt.=104.760803m. Speed=0.000000m/h.</desc>
<speed>0.000000</speed>
</trkpt>
<trkpt lat="56.135159" lon="26.365999">
<ele>104.762756</ele>
<time>2010-08-29T15:45:42Z</time>
<desc>lat.=56.135159, lon.=26.365999, Alt.=104.762756m. Speed=0.000000m/h.</desc>
<speed>0.000000</speed>
</trkpt>
<trkpt lat="56.135162" lon="26.365999">
<ele>104.764709</ele>
<time>2010-08-29T15:45:43Z</time>
<desc>lat.=56.135162, lon.=26.365999, Alt.=104.764709m. Speed=0.000000m/h.</desc>
<speed>0.000000</speed>
</trkpt>
<trkpt lat="56.135162" lon="26.365999">
<ele>104.768616</ele>
<time>2010-08-29T15:45:44Z</time>
<desc>lat.=56.135162, lon.=26.365999, Alt.=104.768616m. Speed=0.000000m/h.</desc>
<speed>0.000000</speed>
</trkpt>
<trkpt lat="56.135162" lon="26.365999">
<ele>104.770569</ele>
<time>2010-08-29T15:45:45Z</time>
<desc>lat.=56.135162, lon.=26.365999, Alt.=104.770569m. Speed=0.000000m/h.</desc>
<speed>0.000000</speed>
</trkpt>
<trkpt lat="56.135162" lon="26.365999">
<ele>104.772522</ele>
<time>2010-08-29T15:45:46Z</time>
<desc>lat.=56.135162, lon.=26.365999, Alt.=104.772522m. Speed=0.036000m/h.</desc>
<speed>0.010000</speed>
</trkpt>
<trkpt lat="56.135162" lon="26.365999">
<ele>104.774475</ele>
<time>2010-08-29T15:45:47Z</time>
<desc>lat.=56.135162, lon.=26.365999, Alt.=104.774475m. Speed=0.000000m/h.</desc>
<speed>0.000000</speed>
</trkpt>
<trkpt lat="56.135162" lon="26.365999">
<ele>104.774475</ele>
<time>2010-08-29T15:45:48Z</time>
<desc>lat.=56.135162, lon.=26.365999, Alt.=104.774475m. Speed=0.000000m/h.</desc>
<speed>0.000000</speed>
</trkpt>
<trkpt lat="56.135162" lon="26.365999">
<ele>104.778381</ele>
<time>2010-08-29T15:45:49Z</time>
<desc>lat.=56.135162, lon.=26.365999, Alt.=104.778381m. Speed=0.000000m/h.</desc>
<speed>0.000000</speed>
</trkpt>
<trkpt lat="56.135162" lon="26.365999">
<ele>104.778381</ele>
<time>2010-08-29T15:45:50Z</time>
<desc>lat.=56.135162, lon.=26.365999, Alt.=104.778381m. Speed=0.000000m/h.</desc>
<speed>0.000000</speed>
</trkpt>
<trkpt lat="56.135162" lon="26.366001">
<ele>104.780334</ele>
<time>2010-08-29T15:45:51Z</time>
<desc>lat.=56.135162, lon.=26.366001, Alt.=104.780334m. Speed=0.036000m/h.</desc>
<speed>0.010000</speed>
</trkpt>
<trkpt lat="56.135162" lon="26.366001">
<ele>104.780334</ele>
<time>2010-08-29T15:45:52Z</time>
<desc>lat.=56.135162, lon.=26.366001, Alt.=104.780334m. Speed=0.000000m/h.</desc>
<speed>0.000000</speed>
</trkpt>
<trkpt lat="56.135162" lon="26.366001">
<ele>104.780334</ele>
<time>2010-08-29T15:45:53Z</time>
<desc>lat.=56.135162, lon.=26.366001, Alt.=104.780334m. Speed=0.000000m/h.</desc>
<speed>0.000000</speed>
</trkpt>
<trkpt lat="56.135162" lon="26.366001">
<ele>104.780334</ele>
<time>2010-08-29T15:45:54Z</time>
<desc>lat.=56.135162, lon.=26.366001, Alt.=104.780334m. Speed=0.036000m/h.</desc>
<speed>0.010000</speed>
</trkpt>
<trkpt lat="56.135162" lon="26.366001">
<ele>104.782288</ele>
<time>2010-08-29T15:45:55Z</time>
<desc>lat.=56.135162, lon.=26.366001, Alt.=104.782288m. Speed=0.000000m/h.</desc>
<speed>0.000000</speed>
</trkpt>
<trkpt lat="56.135162" lon="26.366001">
<ele>104.782288</ele>
<time>2010-08-29T15:45:56Z</time>
<desc>lat.=56.135162, lon.=26.366001, Alt.=104.782288m. Speed=0.000000m/h.</desc>
<speed>0.000000</speed>
</trkpt>
<trkpt lat="56.135162" lon="26.365999">
<ele>104.778381</ele>
<time>2010-08-29T15:45:57Z</time>
<desc>lat.=56.135162, lon.=26.365999, Alt.=104.778381m. Speed=0.036000m/h.</desc>
<speed>0.010000</speed>
</trkpt>
<trkpt lat="56.135162" lon="26.366001">
<ele>104.778381</ele>
<time>2010-08-29T15:45:58Z</time>
<desc>lat.=56.135162, lon.=26.366001, Alt.=104.778381m. Speed=0.000000m/h.</desc>
<speed>0.000000</speed>
</trkpt>
<trkpt lat="56.135162" lon="26.366001">
<ele>104.776428</ele>
<time>2010-08-29T15:45:59Z</time>
<desc>lat.=56.135162, lon.=26.366001, Alt.=104.776428m. Speed=0.072000m/h.</desc>
<speed>0.020000</speed>
</trkpt>
<trkpt lat="56.135162" lon="26.366001">
<ele>104.774475</ele>
<time>2010-08-29T15:46:00Z</time>
<desc>lat.=56.135162, lon.=26.366001, Alt.=104.774475m. Speed=0.000000m/h.</desc>
<speed>0.000000</speed>
</trkpt>
<trkpt lat="56.135162" lon="26.366001">
<ele>104.772522</ele>
<time>2010-08-29T15:46:01Z</time>
<desc>lat.=56.135162, lon.=26.366001, Alt.=104.772522m. Speed=0.000000m/h.</desc>
<speed>0.000000</speed>
</trkpt>
<trkpt lat="56.135162" lon="26.366001">
<ele>104.772522</ele>
<time>2010-08-29T15:46:02Z</time>
<desc>lat.=56.135162, lon.=26.366001, Alt.=104.772522m. Speed=0.000000m/h.</desc>
<speed>0.000000</speed>
</trkpt>
<trkpt lat="56.135162" lon="26.366001">
<ele>104.772522</ele>
<time>2010-08-29T15:46:03Z</time>
<desc>lat.=56.135162, lon.=26.366001, Alt.=104.772522m. Speed=0.000000m/h.</desc>
<speed>0.000000</speed>
</trkpt>
<trkpt lat="56.135162" lon="26.366001">
<ele>104.772522</ele>
<time>2010-08-29T15:46:04Z</time>
<desc>lat.=56.135162, lon.=26.366001, Alt.=104.772522m. Speed=0.000000m/h.</desc>
<speed>0.000000</speed>
</trkpt>
<trkpt lat="56.135162" lon="26.366001">
<ele>104.770569</ele>
<time>2010-08-29T15:46:05Z</time>
<desc>lat.=56.135162, lon.=26.366001, Alt.=104.770569m. Speed=0.000000m/h.</desc>
<speed>0.000000</speed>
</trkpt>
<trkpt lat="56.135162" lon="26.366001">
<ele>104.770569</ele>
<time>2010-08-29T15:46:06Z</time>
<desc>lat.=56.135162, lon.=26.366001, Alt.=104.770569m. Speed=0.000000m/h.</desc>
<speed>0.000000</speed>
</trkpt>
<trkpt lat="56.135162" lon="26.366001">
<ele>104.768616</ele>
<time>2010-08-29T15:46:07Z</time>
<desc>lat.=56.135162, lon.=26.366001, Alt.=104.768616m. Speed=0.000000m/h.</desc>
<speed>0.000000</speed>
</trkpt>
<trkpt lat="56.135159" lon="26.366001">
<ele>104.766663</ele>
<time>2010-08-29T15:46:08Z</time>
<desc>lat.=56.135159, lon.=26.366001, Alt.=104.766663m. Speed=0.000000m/h.</desc>
<speed>0.000000</speed>
</trkpt>
<trkpt lat="56.135159" lon="26.366001">
<ele>104.766663</ele>
<time>2010-08-29T15:46:09Z</time>
<desc>lat.=56.135159, lon.=26.366001, Alt.=104.766663m. Speed=0.000000m/h.</desc>
<speed>0.000000</speed>
</trkpt>
<trkpt lat="56.135162" lon="26.366001">
<ele>104.762756</ele>
<time>2010-08-29T15:46:10Z</time>
<desc>lat.=56.135162, lon.=26.366001, Alt.=104.762756m. Speed=0.000000m/h.</desc>
<speed>0.000000</speed>
</trkpt>
<trkpt lat="56.135162" lon="26.366001">
<ele>104.762756</ele>
<time>2010-08-29T15:46:11Z</time>
<desc>lat.=56.135162, lon.=26.366001, Alt.=104.762756m. Speed=0.000000m/h.</desc>
<speed>0.000000</speed>
</trkpt>
<trkpt lat="56.135162" lon="26.366001">
<ele>104.760803</ele>
<time>2010-08-29T15:46:12Z</time>
<desc>lat.=56.135162, lon.=26.366001, Alt.=104.760803m. Speed=0.036000m/h.</desc>
<speed>0.010000</speed>
</trkpt>
<trkpt lat="56.135159" lon="26.366001">
<ele>104.760803</ele>
<time>2010-08-29T15:46:13Z</time>
<desc>lat.=56.135159, lon.=26.366001, Alt.=104.760803m. Speed=0.000000m/h.</desc>
<speed>0.000000</speed>
</trkpt>
<trkpt lat="56.135159" lon="26.366001">
<ele>104.756897</ele>
<time>2010-08-29T15:46:14Z</time>
<desc>lat.=56.135159, lon.=26.366001, Alt.=104.756897m. Speed=0.000000m/h.</desc>
<speed>0.000000</speed>
</trkpt>
<trkpt lat="56.135159" lon="26.366001">
<ele>104.756897</ele>
<time>2010-08-29T15:46:15Z</time>
<desc>lat.=56.135159, lon.=26.366001, Alt.=104.756897m. Speed=0.072000m/h.</desc>
<speed>0.020000</speed>
</trkpt>
<trkpt lat="56.135159" lon="26.366001">
<ele>104.754944</ele>
<time>2010-08-29T15:46:16Z</time>
<desc>lat.=56.135159, lon.=26.366001, Alt.=104.754944m. Speed=0.072000m/h.</desc>
<speed>0.020000</speed>
</trkpt>
<trkpt lat="56.135159" lon="26.366001">
<ele>104.754944</ele>
<time>2010-08-29T15:46:17Z</time>
<desc>lat.=56.135159, lon.=26.366001, Alt.=104.754944m. Speed=0.036000m/h.</desc>
<speed>0.010000</speed>
</trkpt>
<trkpt lat="56.135159" lon="26.366001">
<ele>104.751038</ele>
<time>2010-08-29T15:46:18Z</time>
<desc>lat.=56.135159, lon.=26.366001, Alt.=104.751038m. Speed=0.036000m/h.</desc>
<speed>0.010000</speed>
</trkpt>
<trkpt lat="56.135159" lon="26.366001">
<ele>104.749084</ele>
<time>2010-08-29T15:46:19Z</time>
<desc>lat.=56.135159, lon.=26.366001, Alt.=104.749084m. Speed=0.072000m/h.</desc>
<speed>0.020000</speed>
</trkpt>
<trkpt lat="56.135159" lon="26.366001">
<ele>104.747131</ele>
<time>2010-08-29T15:46:20Z</time>
<desc>lat.=56.135159, lon.=26.366001, Alt.=104.747131m. Speed=0.036000m/h.</desc>
<speed>0.010000</speed>
</trkpt>
<trkpt lat="56.135159" lon="26.366001">
<ele>104.745178</ele>
<time>2010-08-29T15:46:21Z</time>
<desc>lat.=56.135159, lon.=26.366001, Alt.=104.745178m. Speed=0.000000m/h.</desc>
<speed>0.000000</speed>
</trkpt>
<trkpt lat="56.135159" lon="26.366001">
<ele>104.743225</ele>
<time>2010-08-29T15:46:22Z</time>
<desc>lat.=56.135159, lon.=26.366001, Alt.=104.743225m. Speed=0.000000m/h.</desc>
<speed>0.000000</speed>
</trkpt>
<trkpt lat="56.135159" lon="26.366001">
<ele>104.741272</ele>
<time>2010-08-29T15:46:23Z</time>
<desc>lat.=56.135159, lon.=26.366001, Alt.=104.741272m. Speed=0.000000m/h.</desc>
<speed>0.000000</speed>
</trkpt>
<trkpt lat="56.135159" lon="26.366001">
<ele>104.741272</ele>
<time>2010-08-29T15:46:24Z</time>
<desc>lat.=56.135159, lon.=26.366001, Alt.=104.741272m. Speed=0.000000m/h.</desc>
<speed>0.000000</speed>
</trkpt>
<trkpt lat="56.135159" lon="26.366001">
<ele>104.739319</ele>
<time>2010-08-29T15:46:25Z</time>
<desc>lat.=56.135159, lon.=26.366001, Alt.=104.739319m. Speed=0.000000m/h.</desc>
<speed>0.000000</speed>
</trkpt>
<trkpt lat="56.135159" lon="26.366001">
<ele>104.737366</ele>
<time>2010-08-29T15:46:26Z</time>
<desc>lat.=56.135159, lon.=26.366001, Alt.=104.737366m. Speed=0.000000m/h.</desc>
<speed>0.000000</speed>
</trkpt>
<trkpt lat="56.135159" lon="26.366001">
<ele>104.733459</ele>
<time>2010-08-29T15:46:27Z</time>
<desc>lat.=56.135159, lon.=26.366001, Alt.=104.733459m. Speed=0.000000m/h.</desc>
<speed>0.000000</speed>
</trkpt>
<trkpt lat="56.135159" lon="26.366001">
<ele>104.733459</ele>
<time>2010-08-29T15:46:28Z</time>
<desc>lat.=56.135159, lon.=26.366001, Alt.=104.733459m. Speed=0.000000m/h.</desc>
<speed>0.000000</speed>
</trkpt>
<trkpt lat="56.135159" lon="26.366001">
<ele>104.731506</ele>
<time>2010-08-29T15:46:29Z</time>
<desc>lat.=56.135159, lon.=26.366001, Alt.=104.731506m. Speed=0.000000m/h.</desc>
<speed>0.000000</speed>
</trkpt>
<trkpt lat="56.135159" lon="26.366001">
<ele>104.727600</ele>
<time>2010-08-29T15:46:30Z</time>
<desc>lat.=56.135159, lon.=26.366001, Alt.=104.727600m. Speed=0.000000m/h.</desc>
<speed>0.000000</speed>
</trkpt>
<trkpt lat="56.135159" lon="26.366001">
<ele>104.725647</ele>
<time>2010-08-29T15:46:31Z</time>
<desc>lat.=56.135159, lon.=26.366001, Alt.=104.725647m. Speed=0.036000m/h.</desc>
<speed>0.010000</speed>
</trkpt>
<trkpt lat="56.135159" lon="26.366001">
<ele>104.725647</ele>
<time>2010-08-29T15:46:32Z</time>
<desc>lat.=56.135159, lon.=26.366001, Alt.=104.725647m. Speed=0.000000m/h.</desc>
<speed>0.000000</speed>
</trkpt>
<trkpt lat="56.135159" lon="26.366001">
<ele>104.725647</ele>
<time>2010-08-29T15:46:33Z</time>
<desc>lat.=56.135159, lon.=26.366001, Alt.=104.725647m. Speed=0.000000m/h.</desc>
<speed>0.000000</speed>
</trkpt>
<trkpt lat="56.135159" lon="26.366001">
<ele>104.723694</ele>
<time>2010-08-29T15:46:34Z</time>
<desc>lat.=56.135159, lon.=26.366001, Alt.=104.723694m. Speed=0.036000m/h.</desc>
<speed>0.010000</speed>
</trkpt>
<trkpt lat="56.135159" lon="26.366001">
<ele>104.723694</ele>
<time>2010-08-29T15:46:35Z</time>
<desc>lat.=56.135159, lon.=26.366001, Alt.=104.723694m. Speed=0.072000m/h.</desc>
<speed>0.020000</speed>
</trkpt>
<trkpt lat="56.135159" lon="26.366001">
<ele>104.721741</ele>
<time>2010-08-29T15:46:36Z</time>
<desc>lat.=56.135159, lon.=26.366001, Alt.=104.721741m. Speed=0.000000m/h.</desc>
<speed>0.000000</speed>
</trkpt>
<trkpt lat="56.135159" lon="26.366003">
<ele>104.719788</ele>
<time>2010-08-29T15:46:37Z</time>
<desc>lat.=56.135159, lon.=26.366003, Alt.=104.719788m. Speed=0.000000m/h.</desc>
<speed>0.000000</speed>
</trkpt>
<trkpt lat="56.135159" lon="26.366003">
<ele>104.719788</ele>
<time>2010-08-29T15:46:38Z</time>
<desc>lat.=56.135159, lon.=26.366003, Alt.=104.719788m. Speed=0.000000m/h.</desc>
<speed>0.000000</speed>
</trkpt>
<trkpt lat="56.135159" lon="26.366003">
<ele>104.719788</ele>
<time>2010-08-29T15:46:39Z</time>
<desc>lat.=56.135159, lon.=26.366003, Alt.=104.719788m. Speed=0.000000m/h.</desc>
<speed>0.000000</speed>
</trkpt>
<trkpt lat="56.135159" lon="26.366003">
<ele>104.717834</ele>
<time>2010-08-29T15:46:40Z</time>
<desc>lat.=56.135159, lon.=26.366003, Alt.=104.717834m. Speed=0.000000m/h.</desc>
<speed>0.000000</speed>
</trkpt>
<trkpt lat="56.135159" lon="26.366003">
<ele>104.717834</ele>
<time>2010-08-29T15:46:41Z</time>
<desc>lat.=56.135159, lon.=26.366003, Alt.=104.717834m. Speed=0.000000m/h.</desc>
<speed>0.000000</speed>
</trkpt>
<trkpt lat="56.135159" lon="26.366003">
<ele>104.715881</ele>
<time>2010-08-29T15:46:42Z</time>
<desc>lat.=56.135159, lon.=26.366003, Alt.=104.715881m. Speed=0.000000m/h.</desc>
<speed>0.000000</speed>
</trkpt>
<trkpt lat="56.135159" lon="26.366003">
<ele>104.713928</ele>
<time>2010-08-29T15:46:43Z</time>
<desc>lat.=56.135159, lon.=26.366003, Alt.=104.713928m. Speed=0.000000m/h.</desc>
<speed>0.000000</speed>
</trkpt>
<trkpt lat="56.135159" lon="26.366003">
<ele>104.710022</ele>
<time>2010-08-29T15:46:44Z</time>
<desc>lat.=56.135159, lon.=26.366003, Alt.=104.710022m. Speed=0.036000m/h.</desc>
<speed>0.010000</speed>
</trkpt>
<trkpt lat="56.135159" lon="26.366003">
<ele>104.706116</ele>
<time>2010-08-29T15:46:45Z</time>
<desc>lat.=56.135159, lon.=26.366003, Alt.=104.706116m. Speed=0.036000m/h.</desc>
<speed>0.010000</speed>
</trkpt>
<trkpt lat="56.135159" lon="26.366003">
<ele>104.702209</ele>
<time>2010-08-29T15:46:46Z</time>
<desc>lat.=56.135159, lon.=26.366003, Alt.=104.702209m. Speed=0.000000m/h.</desc>
<speed>0.000000</speed>
</trkpt>
<trkpt lat="56.135159" lon="26.366003">
<ele>104.700256</ele>
<time>2010-08-29T15:46:47Z</time>
<desc>lat.=56.135159, lon.=26.366003, Alt.=104.700256m. Speed=0.000000m/h.</desc>
<speed>0.000000</speed>
</trkpt>
<trkpt lat="56.135159" lon="26.366003">
<ele>104.696350</ele>
<time>2010-08-29T15:46:48Z</time>
<desc>lat.=56.135159, lon.=26.366003, Alt.=104.696350m. Speed=0.036000m/h.</desc>
<speed>0.010000</speed>
</trkpt>
<trkpt lat="56.135159" lon="26.366003">
<ele>104.694397</ele>
<time>2010-08-29T15:46:49Z</time>
<desc>lat.=56.135159, lon.=26.366003, Alt.=104.694397m. Speed=0.000000m/h.</desc>
<speed>0.000000</speed>
</trkpt>
<trkpt lat="56.135159" lon="26.366003">
<ele>104.692444</ele>
<time>2010-08-29T15:46:50Z</time>
<desc>lat.=56.135159, lon.=26.366003, Alt.=104.692444m. Speed=0.000000m/h.</desc>
<speed>0.000000</speed>
</trkpt>
<trkpt lat="56.135159" lon="26.366003">
<ele>104.690491</ele>
<time>2010-08-29T15:46:51Z</time>
<desc>lat.=56.135159, lon.=26.366003, Alt.=104.690491m. Speed=0.000000m/h.</desc>
<speed>0.000000</speed>
</trkpt>
<trkpt lat="56.135159" lon="26.366003">
<ele>104.686584</ele>
<time>2010-08-29T15:46:52Z</time>
<desc>lat.=56.135159, lon.=26.366003, Alt.=104.686584m. Speed=0.000000m/h.</desc>
<speed>0.000000</speed>
</trkpt>
<trkpt lat="56.135159" lon="26.366003">
<ele>104.684631</ele>
<time>2010-08-29T15:46:53Z</time>
<desc>lat.=56.135159, lon.=26.366003, Alt.=104.684631m. Speed=0.000000m/h.</desc>
<speed>0.000000</speed>
</trkpt>
<trkpt lat="56.135159" lon="26.366003">
<ele>104.682678</ele>
<time>2010-08-29T15:46:54Z</time>
<desc>lat.=56.135159, lon.=26.366003, Alt.=104.682678m. Speed=0.000000m/h.</desc>
<speed>0.000000</speed>
</trkpt>
<trkpt lat="56.135159" lon="26.366003">
<ele>104.680725</ele>
<time>2010-08-29T15:46:55Z</time>
<desc>lat.=56.135159, lon.=26.366003, Alt.=104.680725m. Speed=0.000000m/h.</desc>
<speed>0.000000</speed>
</trkpt>
<trkpt lat="56.135159" lon="26.366005">
<ele>104.682678</ele>
<time>2010-08-29T15:46:56Z</time>
<desc>lat.=56.135159, lon.=26.366005, Alt.=104.682678m. Speed=0.000000m/h.</desc>
<speed>0.000000</speed>
</trkpt>
<trkpt lat="56.135159" lon="26.366005">
<ele>104.680725</ele>
<time>2010-08-29T15:46:57Z</time>
<desc>lat.=56.135159, lon.=26.366005, Alt.=104.680725m. Speed=0.000000m/h.</desc>
<speed>0.000000</speed>
</trkpt>
<trkpt lat="56.135159" lon="26.366005">
<ele>104.680725</ele>
<time>2010-08-29T15:46:58Z</time>
<desc>lat.=56.135159, lon.=26.366005, Alt.=104.680725m. Speed=0.000000m/h.</desc>
<speed>0.000000</speed>
</trkpt>
<trkpt lat="56.135159" lon="26.366005">
<ele>104.680725</ele>
<time>2010-08-29T15:46:59Z</time>
<desc>lat.=56.135159, lon.=26.366005, Alt.=104.680725m. Speed=0.000000m/h.</desc>
<speed>0.000000</speed>
</trkpt>
<trkpt lat="56.135159" lon="26.366005">
<ele>104.678772</ele>
<time>2010-08-29T15:47:00Z</time>
<desc>lat.=56.135159, lon.=26.366005, Alt.=104.678772m. Speed=0.000000m/h.</desc>
<speed>0.000000</speed>
</trkpt>
<trkpt lat="56.135159" lon="26.366005">
<ele>104.678772</ele>
<time>2010-08-29T15:47:01Z</time>
<desc>lat.=56.135159, lon.=26.366005, Alt.=104.678772m. Speed=0.000000m/h.</desc>
<speed>0.000000</speed>
</trkpt>
<trkpt lat="56.135159" lon="26.366005">
<ele>104.678772</ele>
<time>2010-08-29T15:47:02Z</time>
<desc>lat.=56.135159, lon.=26.366005, Alt.=104.678772m. Speed=0.000000m/h.</desc>
<speed>0.000000</speed>
</trkpt>
<trkpt lat="56.135159" lon="26.366005">
<ele>104.676819</ele>
<time>2010-08-29T15:47:03Z</time>
<desc>lat.=56.135159, lon.=26.366005, Alt.=104.676819m. Speed=0.036000m/h.</desc>
<speed>0.010000</speed>
</trkpt>
<trkpt lat="56.135159" lon="26.366005">
<ele>104.676819</ele>
<time>2010-08-29T15:47:04Z</time>
<desc>lat.=56.135159, lon.=26.366005, Alt.=104.676819m. Speed=0.036000m/h.</desc>
<speed>0.010000</speed>
</trkpt>
<trkpt lat="56.135159" lon="26.366005">
<ele>104.676819</ele>
<time>2010-08-29T15:47:05Z</time>
<desc>lat.=56.135159, lon.=26.366005, Alt.=104.676819m. Speed=0.000000m/h.</desc>
<speed>0.000000</speed>
</trkpt>
<trkpt lat="56.135159" lon="26.366005">
<ele>104.676819</ele>
<time>2010-08-29T15:47:06Z</time>
<desc>lat.=56.135159, lon.=26.366005, Alt.=104.676819m. Speed=0.000000m/h.</desc>
<speed>0.000000</speed>
</trkpt>
<trkpt lat="56.135159" lon="26.366005">
<ele>104.676819</ele>
<time>2010-08-29T15:47:07Z</time>
<desc>lat.=56.135159, lon.=26.366005, Alt.=104.676819m. Speed=0.000000m/h.</desc>
<speed>0.000000</speed>
</trkpt>
<trkpt lat="56.135159" lon="26.366005">
<ele>104.676819</ele>
<time>2010-08-29T15:47:08Z</time>
<desc>lat.=56.135159, lon.=26.366005, Alt.=104.676819m. Speed=0.000000m/h.</desc>
<speed>0.000000</speed>
</trkpt>
<trkpt lat="56.135159" lon="26.366005">
<ele>104.676819</ele>
<time>2010-08-29T15:47:09Z</time>
<desc>lat.=56.135159, lon.=26.366005, Alt.=104.676819m. Speed=0.000000m/h.</desc>
<speed>0.000000</speed>
</trkpt>
<trkpt lat="56.135159" lon="26.366005">
<ele>104.678772</ele>
<time>2010-08-29T15:47:10Z</time>
<desc>lat.=56.135159, lon.=26.366005, Alt.=104.678772m. Speed=0.000000m/h.</desc>
<speed>0.000000</speed>
</trkpt>
<trkpt lat="56.135159" lon="26.366005">
<ele>104.680725</ele>
<time>2010-08-29T15:47:11Z</time>
<desc>lat.=56.135159, lon.=26.366005, Alt.=104.680725m. Speed=0.000000m/h.</desc>
<speed>0.000000</speed>
</trkpt>
<trkpt lat="56.135159" lon="26.366005">
<ele>104.682678</ele>
<time>2010-08-29T15:47:12Z</time>
<desc>lat.=56.135159, lon.=26.366005, Alt.=104.682678m. Speed=0.000000m/h.</desc>
<speed>0.000000</speed>
</trkpt>
<trkpt lat="56.135159" lon="26.366005">
<ele>104.682678</ele>
<time>2010-08-29T15:47:13Z</time>
<desc>lat.=56.135159, lon.=26.366005, Alt.=104.682678m. Speed=0.000000m/h.</desc>
<speed>0.000000</speed>
</trkpt>
<trkpt lat="56.135159" lon="26.366005">
<ele>104.684631</ele>
<time>2010-08-29T15:47:14Z</time>
<desc>lat.=56.135159, lon.=26.366005, Alt.=104.684631m. Speed=0.000000m/h.</desc>
<speed>0.000000</speed>
</trkpt>
<trkpt lat="56.135159" lon="26.366005">
<ele>104.684631</ele>
<time>2010-08-29T15:47:15Z</time>
<desc>lat.=56.135159, lon.=26.366005, Alt.=104.684631m. Speed=0.000000m/h.</desc>
<speed>0.000000</speed>
</trkpt>
<trkpt lat="56.135159" lon="26.366005">
<ele>104.684631</ele>
<time>2010-08-29T15:47:16Z</time>
<desc>lat.=56.135159, lon.=26.366005, Alt.=104.684631m. Speed=0.036000m/h.</desc>
<speed>0.010000</speed>
</trkpt>
<trkpt lat="56.135159" lon="26.366005">
<ele>104.686584</ele>
<time>2010-08-29T15:47:17Z</time>
<desc>lat.=56.135159, lon.=26.366005, Alt.=104.686584m. Speed=0.000000m/h.</desc>
<speed>0.000000</speed>
</trkpt>
<trkpt lat="56.135159" lon="26.366005">
<ele>104.688538</ele>
<time>2010-08-29T15:47:18Z</time>
<desc>lat.=56.135159, lon.=26.366005, Alt.=104.688538m. Speed=0.000000m/h.</desc>
<speed>0.000000</speed>
</trkpt>
<trkpt lat="56.135159" lon="26.366005">
<ele>104.690491</ele>
<time>2010-08-29T15:47:19Z</time>
<desc>lat.=56.135159, lon.=26.366005, Alt.=104.690491m. Speed=0.000000m/h.</desc>
<speed>0.000000</speed>
</trkpt>
<trkpt lat="56.135159" lon="26.366005">
<ele>104.690491</ele>
<time>2010-08-29T15:47:20Z</time>
<desc>lat.=56.135159, lon.=26.366005, Alt.=104.690491m. Speed=0.000000m/h.</desc>
<speed>0.000000</speed>
</trkpt>
<trkpt lat="56.135159" lon="26.366005">
<ele>104.694397</ele>
<time>2010-08-29T15:47:21Z</time>
<desc>lat.=56.135159, lon.=26.366005, Alt.=104.694397m. Speed=0.000000m/h.</desc>
<speed>0.000000</speed>
</trkpt>
<trkpt lat="56.135159" lon="26.366005">
<ele>104.694397</ele>
<time>2010-08-29T15:47:22Z</time>
<desc>lat.=56.135159, lon.=26.366005, Alt.=104.694397m. Speed=0.000000m/h.</desc>
<speed>0.000000</speed>
</trkpt>
<trkpt lat="56.135159" lon="26.366005">
<ele>104.696350</ele>
<time>2010-08-29T15:47:23Z</time>
<desc>lat.=56.135159, lon.=26.366005, Alt.=104.696350m. Speed=0.000000m/h.</desc>
<speed>0.000000</speed>
</trkpt>
<trkpt lat="56.135159" lon="26.366005">
<ele>104.698303</ele>
<time>2010-08-29T15:47:24Z</time>
<desc>lat.=56.135159, lon.=26.366005, Alt.=104.698303m. Speed=0.000000m/h.</desc>
<speed>0.000000</speed>
</trkpt>
<trkpt lat="56.135159" lon="26.366005">
<ele>104.700256</ele>
<time>2010-08-29T15:47:25Z</time>
<desc>lat.=56.135159, lon.=26.366005, Alt.=104.700256m. Speed=0.000000m/h.</desc>
<speed>0.000000</speed>
</trkpt>
<trkpt lat="56.135159" lon="26.366005">
<ele>104.700256</ele>
<time>2010-08-29T15:47:26Z</time>
<desc>lat.=56.135159, lon.=26.366005, Alt.=104.700256m. Speed=0.000000m/h.</desc>
<speed>0.000000</speed>
</trkpt>
<trkpt lat="56.135159" lon="26.366005">
<ele>104.700256</ele>
<time>2010-08-29T15:47:27Z</time>
<desc>lat.=56.135159, lon.=26.366005, Alt.=104.700256m. Speed=0.036000m/h.</desc>
<speed>0.010000</speed>
</trkpt>
<trkpt lat="56.135159" lon="26.366005">
<ele>104.704163</ele>
<time>2010-08-29T15:47:28Z</time>
<desc>lat.=56.135159, lon.=26.366005, Alt.=104.704163m. Speed=0.000000m/h.</desc>
<speed>0.000000</speed>
</trkpt>
<trkpt lat="56.135159" lon="26.366005">
<ele>104.704163</ele>
<time>2010-08-29T15:47:29Z</time>
<desc>lat.=56.135159, lon.=26.366005, Alt.=104.704163m. Speed=0.000000m/h.</desc>
<speed>0.000000</speed>
</trkpt>
<trkpt lat="56.135159" lon="26.366005">
<ele>104.704163</ele>
<time>2010-08-29T15:47:30Z</time>
<desc>lat.=56.135159, lon.=26.366005, Alt.=104.704163m. Speed=0.000000m/h.</desc>
<speed>0.000000</speed>
</trkpt>
<trkpt lat="56.135159" lon="26.366005">
<ele>104.706116</ele>
<time>2010-08-29T15:47:31Z</time>
<desc>lat.=56.135159, lon.=26.366005, Alt.=104.706116m. Speed=0.000000m/h.</desc>
<speed>0.000000</speed>
</trkpt>
<trkpt lat="56.135159" lon="26.366005">
<ele>104.704163</ele>
<time>2010-08-29T15:47:32Z</time>
<desc>lat.=56.135159, lon.=26.366005, Alt.=104.704163m. Speed=0.000000m/h.</desc>
<speed>0.000000</speed>
</trkpt>
<trkpt lat="56.135159" lon="26.366005">
<ele>104.706116</ele>
<time>2010-08-29T15:47:33Z</time>
<desc>lat.=56.135159, lon.=26.366005, Alt.=104.706116m. Speed=0.000000m/h.</desc>
<speed>0.000000</speed>
</trkpt>
<trkpt lat="56.135159" lon="26.366005">
<ele>104.706116</ele>
<time>2010-08-29T15:47:34Z</time>
<desc>lat.=56.135159, lon.=26.366005, Alt.=104.706116m. Speed=0.000000m/h.</desc>
<speed>0.000000</speed>
</trkpt>
<trkpt lat="56.135159" lon="26.366005">
<ele>104.706116</ele>
<time>2010-08-29T15:47:35Z</time>
<desc>lat.=56.135159, lon.=26.366005, Alt.=104.706116m. Speed=0.000000m/h.</desc>
<speed>0.000000</speed>
</trkpt>
<trkpt lat="56.135159" lon="26.366005">
<ele>104.706116</ele>
<time>2010-08-29T15:47:36Z</time>
<desc>lat.=56.135159, lon.=26.366005, Alt.=104.706116m. Speed=0.000000m/h.</desc>
<speed>0.000000</speed>
</trkpt>
<trkpt lat="56.135159" lon="26.366005">
<ele>104.708069</ele>
<time>2010-08-29T15:47:37Z</time>
<desc>lat.=56.135159, lon.=26.366005, Alt.=104.708069m. Speed=0.036000m/h.</desc>
<speed>0.010000</speed>
</trkpt>
<trkpt lat="56.135159" lon="26.366005">
<ele>104.706116</ele>
<time>2010-08-29T15:47:38Z</time>
<desc>lat.=56.135159, lon.=26.366005, Alt.=104.706116m. Speed=0.000000m/h.</desc>
<speed>0.000000</speed>
</trkpt>
<trkpt lat="56.135159" lon="26.366005">
<ele>104.708069</ele>
<time>2010-08-29T15:47:39Z</time>
<desc>lat.=56.135159, lon.=26.366005, Alt.=104.708069m. Speed=0.000000m/h.</desc>
<speed>0.000000</speed>
</trkpt>
<trkpt lat="56.135159" lon="26.366005">
<ele>104.708069</ele>
<time>2010-08-29T15:47:40Z</time>
<desc>lat.=56.135159, lon.=26.366005, Alt.=104.708069m. Speed=0.000000m/h.</desc>
<speed>0.000000</speed>
</trkpt>
<trkpt lat="56.135159" lon="26.366005">
<ele>104.710022</ele>
<time>2010-08-29T15:47:41Z</time>
<desc>lat.=56.135159, lon.=26.366005, Alt.=104.710022m. Speed=0.000000m/h.</desc>
<speed>0.000000</speed>
</trkpt>
<trkpt lat="56.135159" lon="26.366005">
<ele>104.711975</ele>
<time>2010-08-29T15:47:42Z</time>
<desc>lat.=56.135159, lon.=26.366005, Alt.=104.711975m. Speed=0.000000m/h.</desc>
<speed>0.000000</speed>
</trkpt>
<trkpt lat="56.135159" lon="26.366005">
<ele>104.711975</ele>
<time>2010-08-29T15:47:43Z</time>
<desc>lat.=56.135159, lon.=26.366005, Alt.=104.711975m. Speed=0.036000m/h.</desc>
<speed>0.010000</speed>
</trkpt>
<trkpt lat="56.135159" lon="26.366005">
<ele>104.711975</ele>
<time>2010-08-29T15:47:44Z</time>
<desc>lat.=56.135159, lon.=26.366005, Alt.=104.711975m. Speed=0.000000m/h.</desc>
<speed>0.000000</speed>
</trkpt>
<trkpt lat="56.135159" lon="26.366005">
<ele>104.711975</ele>
<time>2010-08-29T15:47:45Z</time>
<desc>lat.=56.135159, lon.=26.366005, Alt.=104.711975m. Speed=0.000000m/h.</desc>
<speed>0.000000</speed>
</trkpt>
<trkpt lat="56.135159" lon="26.366005">
<ele>104.711975</ele>
<time>2010-08-29T15:47:46Z</time>
<desc>lat.=56.135159, lon.=26.366005, Alt.=104.711975m. Speed=0.000000m/h.</desc>
<speed>0.000000</speed>
</trkpt>
<trkpt lat="56.135159" lon="26.366005">
<ele>104.711975</ele>
<time>2010-08-29T15:47:47Z</time>
<desc>lat.=56.135159, lon.=26.366005, Alt.=104.711975m. Speed=0.000000m/h.</desc>
<speed>0.000000</speed>
</trkpt>
<trkpt lat="56.135159" lon="26.366005">
<ele>104.715881</ele>
<time>2010-08-29T15:47:48Z</time>
<desc>lat.=56.135159, lon.=26.366005, Alt.=104.715881m. Speed=0.000000m/h.</desc>
<speed>0.000000</speed>
</trkpt>
<trkpt lat="56.135159" lon="26.366005">
<ele>104.717834</ele>
<time>2010-08-29T15:47:49Z</time>
<desc>lat.=56.135159, lon.=26.366005, Alt.=104.717834m. Speed=0.036000m/h.</desc>
<speed>0.010000</speed>
</trkpt>
<trkpt lat="56.135159" lon="26.366005">
<ele>104.719788</ele>
<time>2010-08-29T15:47:50Z</time>
<desc>lat.=56.135159, lon.=26.366005, Alt.=104.719788m. Speed=0.000000m/h.</desc>
<speed>0.000000</speed>
</trkpt>
<trkpt lat="56.135159" lon="26.366005">
<ele>104.719788</ele>
<time>2010-08-29T15:47:51Z</time>
<desc>lat.=56.135159, lon.=26.366005, Alt.=104.719788m. Speed=0.000000m/h.</desc>
<speed>0.000000</speed>
</trkpt>
<trkpt lat="56.135159" lon="26.366005">
<ele>104.721741</ele>
<time>2010-08-29T15:47:52Z</time>
<desc>lat.=56.135159, lon.=26.366005, Alt.=104.721741m. Speed=0.000000m/h.</desc>
<speed>0.000000</speed>
</trkpt>
<trkpt lat="56.135159" lon="26.366005">
<ele>104.721741</ele>
<time>2010-08-29T15:47:53Z</time>
<desc>lat.=56.135159, lon.=26.366005, Alt.=104.721741m. Speed=0.000000m/h.</desc>
<speed>0.000000</speed>
</trkpt>
<trkpt lat="56.135159" lon="26.366005">
<ele>104.723694</ele>
<time>2010-08-29T15:47:54Z</time>
<desc>lat.=56.135159, lon.=26.366005, Alt.=104.723694m. Speed=0.000000m/h.</desc>
<speed>0.000000</speed>
</trkpt>
<trkpt lat="56.135159" lon="26.366005">
<ele>104.725647</ele>
<time>2010-08-29T15:47:55Z</time>
<desc>lat.=56.135159, lon.=26.366005, Alt.=104.725647m. Speed=0.000000m/h.</desc>
<speed>0.000000</speed>
</trkpt>
<trkpt lat="56.135159" lon="26.366005">
<ele>104.725647</ele>
<time>2010-08-29T15:47:56Z</time>
<desc>lat.=56.135159, lon.=26.366005, Alt.=104.725647m. Speed=0.000000m/h.</desc>
<speed>0.000000</speed>
</trkpt>
<trkpt lat="56.135159" lon="26.366005">
<ele>104.727600</ele>
<time>2010-08-29T15:47:57Z</time>
<desc>lat.=56.135159, lon.=26.366005, Alt.=104.727600m. Speed=0.000000m/h.</desc>
<speed>0.000000</speed>
</trkpt>
<trkpt lat="56.135159" lon="26.366005">
<ele>104.727600</ele>
<time>2010-08-29T15:47:58Z</time>
<desc>lat.=56.135159, lon.=26.366005, Alt.=104.727600m. Speed=0.036000m/h.</desc>
<speed>0.010000</speed>
</trkpt>
<trkpt lat="56.135159" lon="26.366005">
<ele>104.729553</ele>
<time>2010-08-29T15:47:59Z</time>
<desc>lat.=56.135159, lon.=26.366005, Alt.=104.729553m. Speed=0.000000m/h.</desc>
<speed>0.000000</speed>
</trkpt>
<trkpt lat="56.135159" lon="26.366005">
<ele>104.729553</ele>
<time>2010-08-29T15:48:00Z</time>
<desc>lat.=56.135159, lon.=26.366005, Alt.=104.729553m. Speed=0.036000m/h.</desc>
<speed>0.010000</speed>
</trkpt>
<trkpt lat="56.135159" lon="26.366005">
<ele>104.729553</ele>
<time>2010-08-29T15:48:01Z</time>
<desc>lat.=56.135159, lon.=26.366005, Alt.=104.729553m. Speed=0.036000m/h.</desc>
<speed>0.010000</speed>
</trkpt>
<trkpt lat="56.135159" lon="26.366005">
<ele>104.729553</ele>
<time>2010-08-29T15:48:02Z</time>
<desc>lat.=56.135159, lon.=26.366005, Alt.=104.729553m. Speed=0.000000m/h.</desc>
<speed>0.000000</speed>
</trkpt>
<trkpt lat="56.135159" lon="26.366005">
<ele>104.731506</ele>
<time>2010-08-29T15:48:03Z</time>
<desc>lat.=56.135159, lon.=26.366005, Alt.=104.731506m. Speed=0.000000m/h.</desc>
<speed>0.000000</speed>
</trkpt>
<trkpt lat="56.135159" lon="26.366005">
<ele>104.731506</ele>
<time>2010-08-29T15:48:04Z</time>
<desc>lat.=56.135159, lon.=26.366005, Alt.=104.731506m. Speed=0.000000m/h.</desc>
<speed>0.000000</speed>
</trkpt>
<trkpt lat="56.135159" lon="26.366005">
<ele>104.731506</ele>
<time>2010-08-29T15:48:05Z</time>
<desc>lat.=56.135159, lon.=26.366005, Alt.=104.731506m. Speed=0.000000m/h.</desc>
<speed>0.000000</speed>
</trkpt>
<trkpt lat="56.135159" lon="26.366005">
<ele>104.733459</ele>
<time>2010-08-29T15:48:06Z</time>
<desc>lat.=56.135159, lon.=26.366005, Alt.=104.733459m. Speed=0.000000m/h.</desc>
<speed>0.000000</speed>
</trkpt>
<trkpt lat="56.135159" lon="26.366005">
<ele>104.735413</ele>
<time>2010-08-29T15:48:07Z</time>
<desc>lat.=56.135159, lon.=26.366005, Alt.=104.735413m. Speed=0.000000m/h.</desc>
<speed>0.000000</speed>
</trkpt>
<trkpt lat="56.135159" lon="26.366005">
<ele>104.737366</ele>
<time>2010-08-29T15:48:08Z</time>
<desc>lat.=56.135159, lon.=26.366005, Alt.=104.737366m. Speed=0.000000m/h.</desc>
<speed>0.000000</speed>
</trkpt>
<trkpt lat="56.135159" lon="26.366005">
<ele>104.739319</ele>
<time>2010-08-29T15:48:09Z</time>
<desc>lat.=56.135159, lon.=26.366005, Alt.=104.739319m. Speed=0.000000m/h.</desc>
<speed>0.000000</speed>
</trkpt>
<trkpt lat="56.135159" lon="26.366005">
<ele>104.739319</ele>
<time>2010-08-29T15:48:10Z</time>
<desc>lat.=56.135159, lon.=26.366005, Alt.=104.739319m. Speed=0.000000m/h.</desc>
<speed>0.000000</speed>
</trkpt>
<trkpt lat="56.135159" lon="26.366005">
<ele>104.739319</ele>
<time>2010-08-29T15:48:11Z</time>
<desc>lat.=56.135159, lon.=26.366005, Alt.=104.739319m. Speed=0.000000m/h.</desc>
<speed>0.000000</speed>
</trkpt>
<trkpt lat="56.135159" lon="26.366005">
<ele>104.739319</ele>
<time>2010-08-29T15:48:12Z</time>
<desc>lat.=56.135159, lon.=26.366005, Alt.=104.739319m. Speed=0.000000m/h.</desc>
<speed>0.000000</speed>
</trkpt>
<trkpt lat="56.135159" lon="26.366005">
<ele>104.739319</ele>
<time>2010-08-29T15:48:13Z</time>
<desc>lat.=56.135159, lon.=26.366005, Alt.=104.739319m. Speed=0.000000m/h.</desc>
<speed>0.000000</speed>
</trkpt>
<trkpt lat="56.135159" lon="26.366005">
<ele>104.741272</ele>
<time>2010-08-29T15:48:14Z</time>
<desc>lat.=56.135159, lon.=26.366005, Alt.=104.741272m. Speed=0.036000m/h.</desc>
<speed>0.010000</speed>
</trkpt>
<trkpt lat="56.135159" lon="26.366005">
<ele>104.743225</ele>
<time>2010-08-29T15:48:15Z</time>
<desc>lat.=56.135159, lon.=26.366005, Alt.=104.743225m. Speed=0.000000m/h.</desc>
<speed>0.000000</speed>
</trkpt>
<trkpt lat="56.135159" lon="26.366005">
<ele>104.745178</ele>
<time>2010-08-29T15:48:16Z</time>
<desc>lat.=56.135159, lon.=26.366005, Alt.=104.745178m. Speed=0.000000m/h.</desc>
<speed>0.000000</speed>
</trkpt>
<trkpt lat="56.135159" lon="26.366005">
<ele>104.747131</ele>
<time>2010-08-29T15:48:17Z</time>
<desc>lat.=56.135159, lon.=26.366005, Alt.=104.747131m. Speed=0.000000m/h.</desc>
<speed>0.000000</speed>
</trkpt>
<trkpt lat="56.135159" lon="26.366005">
<ele>104.749084</ele>
<time>2010-08-29T15:48:18Z</time>
<desc>lat.=56.135159, lon.=26.366005, Alt.=104.749084m. Speed=0.000000m/h.</desc>
<speed>0.000000</speed>
</trkpt>
<trkpt lat="56.135159" lon="26.366005">
<ele>104.752991</ele>
<time>2010-08-29T15:48:19Z</time>
<desc>lat.=56.135159, lon.=26.366005, Alt.=104.752991m. Speed=0.000000m/h.</desc>
<speed>0.000000</speed>
</trkpt>
<trkpt lat="56.135159" lon="26.366005">
<ele>104.752991</ele>
<time>2010-08-29T15:48:20Z</time>
<desc>lat.=56.135159, lon.=26.366005, Alt.=104.752991m. Speed=0.000000m/h.</desc>
<speed>0.000000</speed>
</trkpt>
<trkpt lat="56.135159" lon="26.366005">
<ele>104.754944</ele>
<time>2010-08-29T15:48:21Z</time>
<desc>lat.=56.135159, lon.=26.366005, Alt.=104.754944m. Speed=0.000000m/h.</desc>
<speed>0.000000</speed>
</trkpt>
<trkpt lat="56.135159" lon="26.366005">
<ele>104.756897</ele>
<time>2010-08-29T15:48:22Z</time>
<desc>lat.=56.135159, lon.=26.366005, Alt.=104.756897m. Speed=0.000000m/h.</desc>
<speed>0.000000</speed>
</trkpt>
<trkpt lat="56.135159" lon="26.366005">
<ele>104.758850</ele>
<time>2010-08-29T15:48:23Z</time>
<desc>lat.=56.135159, lon.=26.366005, Alt.=104.758850m. Speed=0.000000m/h.</desc>
<speed>0.000000</speed>
</trkpt>
<trkpt lat="56.135159" lon="26.366005">
<ele>104.762756</ele>
<time>2010-08-29T15:48:24Z</time>
<desc>lat.=56.135159, lon.=26.366005, Alt.=104.762756m. Speed=0.000000m/h.</desc>
<speed>0.000000</speed>
</trkpt>
<trkpt lat="56.135159" lon="26.366005">
<ele>104.766663</ele>
<time>2010-08-29T15:48:25Z</time>
<desc>lat.=56.135159, lon.=26.366005, Alt.=104.766663m. Speed=0.036000m/h.</desc>
<speed>0.010000</speed>
</trkpt>
<trkpt lat="56.135159" lon="26.366005">
<ele>104.766663</ele>
<time>2010-08-29T15:48:26Z</time>
<desc>lat.=56.135159, lon.=26.366005, Alt.=104.766663m. Speed=0.036000m/h.</desc>
<speed>0.010000</speed>
</trkpt>
<trkpt lat="56.135159" lon="26.366005">
<ele>104.768616</ele>
<time>2010-08-29T15:48:27Z</time>
<desc>lat.=56.135159, lon.=26.366005, Alt.=104.768616m. Speed=0.000000m/h.</desc>
<speed>0.000000</speed>
</trkpt>
<trkpt lat="56.135159" lon="26.366005">
<ele>104.772522</ele>
<time>2010-08-29T15:48:28Z</time>
<desc>lat.=56.135159, lon.=26.366005, Alt.=104.772522m. Speed=0.000000m/h.</desc>
<speed>0.000000</speed>
</trkpt>
<trkpt lat="56.135159" lon="26.366005">
<ele>104.774475</ele>
<time>2010-08-29T15:48:29Z</time>
<desc>lat.=56.135159, lon.=26.366005, Alt.=104.774475m. Speed=0.000000m/h.</desc>
<speed>0.000000</speed>
</trkpt>
<trkpt lat="56.135159" lon="26.366005">
<ele>104.778381</ele>
<time>2010-08-29T15:48:30Z</time>
<desc>lat.=56.135159, lon.=26.366005, Alt.=104.778381m. Speed=0.000000m/h.</desc>
<speed>0.000000</speed>
</trkpt>
<trkpt lat="56.135159" lon="26.366005">
<ele>104.780334</ele>
<time>2010-08-29T15:48:31Z</time>
<desc>lat.=56.135159, lon.=26.366005, Alt.=104.780334m. Speed=0.000000m/h.</desc>
<speed>0.000000</speed>
</trkpt>
<trkpt lat="56.135159" lon="26.366005">
<ele>104.784241</ele>
<time>2010-08-29T15:48:32Z</time>
<desc>lat.=56.135159, lon.=26.366005, Alt.=104.784241m. Speed=0.036000m/h.</desc>
<speed>0.010000</speed>
</trkpt>
<trkpt lat="56.135159" lon="26.366005">
<ele>104.788147</ele>
<time>2010-08-29T15:48:33Z</time>
<desc>lat.=56.135159, lon.=26.366005, Alt.=104.788147m. Speed=0.036000m/h.</desc>
<speed>0.010000</speed>
</trkpt>
<trkpt lat="56.135159" lon="26.366005">
<ele>104.790100</ele>
<time>2010-08-29T15:48:34Z</time>
<desc>lat.=56.135159, lon.=26.366005, Alt.=104.790100m. Speed=0.036000m/h.</desc>
<speed>0.010000</speed>
</trkpt>
<trkpt lat="56.135159" lon="26.366005">
<ele>104.794006</ele>
<time>2010-08-29T15:48:35Z</time>
<desc>lat.=56.135159, lon.=26.366005, Alt.=104.794006m. Speed=0.000000m/h.</desc>
<speed>0.000000</speed>
</trkpt>
<trkpt lat="56.135159" lon="26.366005">
<ele>104.797913</ele>
<time>2010-08-29T15:48:36Z</time>
<desc>lat.=56.135159, lon.=26.366005, Alt.=104.797913m. Speed=0.036000m/h.</desc>
<speed>0.010000</speed>
</trkpt>
<trkpt lat="56.135159" lon="26.366005">
<ele>104.801819</ele>
<time>2010-08-29T15:48:37Z</time>
<desc>lat.=56.135159, lon.=26.366005, Alt.=104.801819m. Speed=0.000000m/h.</desc>
<speed>0.000000</speed>
</trkpt>
<trkpt lat="56.135159" lon="26.366005">
<ele>104.805725</ele>
<time>2010-08-29T15:48:38Z</time>
<desc>lat.=56.135159, lon.=26.366005, Alt.=104.805725m. Speed=0.000000m/h.</desc>
<speed>0.000000</speed>
</trkpt>
<trkpt lat="56.135159" lon="26.366005">
<ele>104.807678</ele>
<time>2010-08-29T15:48:39Z</time>
<desc>lat.=56.135159, lon.=26.366005, Alt.=104.807678m. Speed=0.000000m/h.</desc>
<speed>0.000000</speed>
</trkpt>
<trkpt lat="56.135159" lon="26.366005">
<ele>104.809631</ele>
<time>2010-08-29T15:48:40Z</time>
<desc>lat.=56.135159, lon.=26.366005, Alt.=104.809631m. Speed=0.000000m/h.</desc>
<speed>0.000000</speed>
</trkpt>
<trkpt lat="56.135159" lon="26.366007">
<ele>104.813538</ele>
<time>2010-08-29T15:48:41Z</time>
<desc>lat.=56.135159, lon.=26.366007, Alt.=104.813538m. Speed=0.036000m/h.</desc>
<speed>0.010000</speed>
</trkpt>
<trkpt lat="56.135159" lon="26.366007">
<ele>104.815491</ele>
<time>2010-08-29T15:48:42Z</time>
<desc>lat.=56.135159, lon.=26.366007, Alt.=104.815491m. Speed=0.000000m/h.</desc>
<speed>0.000000</speed>
</trkpt>
<trkpt lat="56.135159" lon="26.366007">
<ele>104.817444</ele>
<time>2010-08-29T15:48:43Z</time>
<desc>lat.=56.135159, lon.=26.366007, Alt.=104.817444m. Speed=0.036000m/h.</desc>
<speed>0.010000</speed>
</trkpt>
<trkpt lat="56.135159" lon="26.366007">
<ele>104.821350</ele>
<time>2010-08-29T15:48:44Z</time>
<desc>lat.=56.135159, lon.=26.366007, Alt.=104.821350m. Speed=0.036000m/h.</desc>
<speed>0.010000</speed>
</trkpt>
<trkpt lat="56.135159" lon="26.366007">
<ele>104.823303</ele>
<time>2010-08-29T15:48:45Z</time>
<desc>lat.=56.135159, lon.=26.366007, Alt.=104.823303m. Speed=0.000000m/h.</desc>
<speed>0.000000</speed>
</trkpt>
<trkpt lat="56.135159" lon="26.366007">
<ele>104.825256</ele>
<time>2010-08-29T15:48:46Z</time>
<desc>lat.=56.135159, lon.=26.366007, Alt.=104.825256m. Speed=0.036000m/h.</desc>
<speed>0.010000</speed>
</trkpt>
<trkpt lat="56.135159" lon="26.366007">
<ele>104.827209</ele>
<time>2010-08-29T15:48:47Z</time>
<desc>lat.=56.135159, lon.=26.366007, Alt.=104.827209m. Speed=0.000000m/h.</desc>
<speed>0.000000</speed>
</trkpt>
<trkpt lat="56.135159" lon="26.366007">
<ele>104.829163</ele>
<time>2010-08-29T15:48:48Z</time>
<desc>lat.=56.135159, lon.=26.366007, Alt.=104.829163m. Speed=0.000000m/h.</desc>
<speed>0.000000</speed>
</trkpt>
<trkpt lat="56.135159" lon="26.366007">
<ele>104.831116</ele>
<time>2010-08-29T15:48:49Z</time>
<desc>lat.=56.135159, lon.=26.366007, Alt.=104.831116m. Speed=0.036000m/h.</desc>
<speed>0.010000</speed>
</trkpt>
<trkpt lat="56.135159" lon="26.366007">
<ele>104.835022</ele>
<time>2010-08-29T15:48:50Z</time>
<desc>lat.=56.135159, lon.=26.366007, Alt.=104.835022m. Speed=0.000000m/h.</desc>
<speed>0.000000</speed>
</trkpt>
<trkpt lat="56.135159" lon="26.366007">
<ele>104.836975</ele>
<time>2010-08-29T15:48:51Z</time>
<desc>lat.=56.135159, lon.=26.366007, Alt.=104.836975m. Speed=0.036000m/h.</desc>
<speed>0.010000</speed>
</trkpt>
<trkpt lat="56.135159" lon="26.366007">
<ele>104.840881</ele>
<time>2010-08-29T15:48:52Z</time>
<desc>lat.=56.135159, lon.=26.366007, Alt.=104.840881m. Speed=0.036000m/h.</desc>
<speed>0.010000</speed>
</trkpt>
<trkpt lat="56.135159" lon="26.366007">
<ele>104.844788</ele>
<time>2010-08-29T15:48:53Z</time>
<desc>lat.=56.135159, lon.=26.366007, Alt.=104.844788m. Speed=0.000000m/h.</desc>
<speed>0.000000</speed>
</trkpt>
<trkpt lat="56.135159" lon="26.366007">
<ele>104.848694</ele>
<time>2010-08-29T15:48:54Z</time>
<desc>lat.=56.135159, lon.=26.366007, Alt.=104.848694m. Speed=0.000000m/h.</desc>
<speed>0.000000</speed>
</trkpt>
<trkpt lat="56.135159" lon="26.366007">
<ele>104.852600</ele>
<time>2010-08-29T15:48:55Z</time>
<desc>lat.=56.135159, lon.=26.366007, Alt.=104.852600m. Speed=0.036000m/h.</desc>
<speed>0.010000</speed>
</trkpt>
<trkpt lat="56.135159" lon="26.366007">
<ele>104.856506</ele>
<time>2010-08-29T15:48:56Z</time>
<desc>lat.=56.135159, lon.=26.366007, Alt.=104.856506m. Speed=0.000000m/h.</desc>
<speed>0.000000</speed>
</trkpt>
<trkpt lat="56.135159" lon="26.366007">
<ele>104.858459</ele>
<time>2010-08-29T15:48:57Z</time>
<desc>lat.=56.135159, lon.=26.366007, Alt.=104.858459m. Speed=0.036000m/h.</desc>
<speed>0.010000</speed>
</trkpt>
<trkpt lat="56.135159" lon="26.366007">
<ele>104.860413</ele>
<time>2010-08-29T15:48:58Z</time>
<desc>lat.=56.135159, lon.=26.366007, Alt.=104.860413m. Speed=0.036000m/h.</desc>
<speed>0.010000</speed>
</trkpt>
<trkpt lat="56.135159" lon="26.366007">
<ele>104.864319</ele>
<time>2010-08-29T15:48:59Z</time>
<desc>lat.=56.135159, lon.=26.366007, Alt.=104.864319m. Speed=0.000000m/h.</desc>
<speed>0.000000</speed>
</trkpt>
<trkpt lat="56.135159" lon="26.366007">
<ele>104.868225</ele>
<time>2010-08-29T15:49:00Z</time>
<desc>lat.=56.135159, lon.=26.366007, Alt.=104.868225m. Speed=0.000000m/h.</desc>
<speed>0.000000</speed>
</trkpt>
<trkpt lat="56.135159" lon="26.366007">
<ele>104.870178</ele>
<time>2010-08-29T15:49:01Z</time>
<desc>lat.=56.135159, lon.=26.366007, Alt.=104.870178m. Speed=0.000000m/h.</desc>
<speed>0.000000</speed>
</trkpt>
<trkpt lat="56.135159" lon="26.366007">
<ele>104.874084</ele>
<time>2010-08-29T15:49:02Z</time>
<desc>lat.=56.135159, lon.=26.366007, Alt.=104.874084m. Speed=0.000000m/h.</desc>
<speed>0.000000</speed>
</trkpt>
<trkpt lat="56.135159" lon="26.366007">
<ele>104.876038</ele>
<time>2010-08-29T15:49:03Z</time>
<desc>lat.=56.135159, lon.=26.366007, Alt.=104.876038m. Speed=0.000000m/h.</desc>
<speed>0.000000</speed>
</trkpt>
<trkpt lat="56.135159" lon="26.366007">
<ele>104.879944</ele>
<time>2010-08-29T15:49:04Z</time>
<desc>lat.=56.135159, lon.=26.366007, Alt.=104.879944m. Speed=0.000000m/h.</desc>
<speed>0.000000</speed>
</trkpt>
<trkpt lat="56.135159" lon="26.366007">
<ele>104.881897</ele>
<time>2010-08-29T15:49:05Z</time>
<desc>lat.=56.135159, lon.=26.366007, Alt.=104.881897m. Speed=0.000000m/h.</desc>
<speed>0.000000</speed>
</trkpt>
<trkpt lat="56.135159" lon="26.366007">
<ele>104.885803</ele>
<time>2010-08-29T15:49:06Z</time>
<desc>lat.=56.135159, lon.=26.366007, Alt.=104.885803m. Speed=0.000000m/h.</desc>
<speed>0.000000</speed>
</trkpt>
<trkpt lat="56.135159" lon="26.366007">
<ele>104.889709</ele>
<time>2010-08-29T15:49:07Z</time>
<desc>lat.=56.135159, lon.=26.366007, Alt.=104.889709m. Speed=0.000000m/h.</desc>
<speed>0.000000</speed>
</trkpt>
<trkpt lat="56.135159" lon="26.366007">
<ele>104.893616</ele>
<time>2010-08-29T15:49:08Z</time>
<desc>lat.=56.135159, lon.=26.366007, Alt.=104.893616m. Speed=0.000000m/h.</desc>
<speed>0.000000</speed>
</trkpt>
<trkpt lat="56.135159" lon="26.366007">
<ele>104.897522</ele>
<time>2010-08-29T15:49:09Z</time>
<desc>lat.=56.135159, lon.=26.366007, Alt.=104.897522m. Speed=0.000000m/h.</desc>
<speed>0.000000</speed>
</trkpt>
<trkpt lat="56.135159" lon="26.366009">
<ele>104.899475</ele>
<time>2010-08-29T15:49:10Z</time>
<desc>lat.=56.135159, lon.=26.366009, Alt.=104.899475m. Speed=0.000000m/h.</desc>
<speed>0.000000</speed>
</trkpt>
<trkpt lat="56.135159" lon="26.366009">
<ele>104.901428</ele>
<time>2010-08-29T15:49:11Z</time>
<desc>lat.=56.135159, lon.=26.366009, Alt.=104.901428m. Speed=0.000000m/h.</desc>
<speed>0.000000</speed>
</trkpt>
<trkpt lat="56.135159" lon="26.366009">
<ele>104.903381</ele>
<time>2010-08-29T15:49:12Z</time>
<desc>lat.=56.135159, lon.=26.366009, Alt.=104.903381m. Speed=0.000000m/h.</desc>
<speed>0.000000</speed>
</trkpt>
<trkpt lat="56.135159" lon="26.366009">
<ele>104.905334</ele>
<time>2010-08-29T15:49:13Z</time>
<desc>lat.=56.135159, lon.=26.366009, Alt.=104.905334m. Speed=0.036000m/h.</desc>
<speed>0.010000</speed>
</trkpt>
<trkpt lat="56.135159" lon="26.366009">
<ele>104.907288</ele>
<time>2010-08-29T15:49:14Z</time>
<desc>lat.=56.135159, lon.=26.366009, Alt.=104.907288m. Speed=0.036000m/h.</desc>
<speed>0.010000</speed>
</trkpt>
<trkpt lat="56.135159" lon="26.366009">
<ele>104.909241</ele>
<time>2010-08-29T15:49:15Z</time>
<desc>lat.=56.135159, lon.=26.366009, Alt.=104.909241m. Speed=0.000000m/h.</desc>
<speed>0.000000</speed>
</trkpt>
<trkpt lat="56.135159" lon="26.366009">
<ele>104.913147</ele>
<time>2010-08-29T15:49:16Z</time>
<desc>lat.=56.135159, lon.=26.366009, Alt.=104.913147m. Speed=0.000000m/h.</desc>
<speed>0.000000</speed>
</trkpt>
<trkpt lat="56.135159" lon="26.366009">
<ele>104.915100</ele>
<time>2010-08-29T15:49:17Z</time>
<desc>lat.=56.135159, lon.=26.366009, Alt.=104.915100m. Speed=0.000000m/h.</desc>
<speed>0.000000</speed>
</trkpt>
<trkpt lat="56.135159" lon="26.366009">
<ele>104.915100</ele>
<time>2010-08-29T15:49:18Z</time>
<desc>lat.=56.135159, lon.=26.366009, Alt.=104.915100m. Speed=0.000000m/h.</desc>
<speed>0.000000</speed>
</trkpt>
<trkpt lat="56.135159" lon="26.366009">
<ele>104.917053</ele>
<time>2010-08-29T15:49:19Z</time>
<desc>lat.=56.135159, lon.=26.366009, Alt.=104.917053m. Speed=0.000000m/h.</desc>
<speed>0.000000</speed>
</trkpt>
<trkpt lat="56.135159" lon="26.366009">
<ele>104.919006</ele>
<time>2010-08-29T15:49:20Z</time>
<desc>lat.=56.135159, lon.=26.366009, Alt.=104.919006m. Speed=0.000000m/h.</desc>
<speed>0.000000</speed>
</trkpt>
<trkpt lat="56.135159" lon="26.366009">
<ele>104.920959</ele>
<time>2010-08-29T15:49:21Z</time>
<desc>lat.=56.135159, lon.=26.366009, Alt.=104.920959m. Speed=0.000000m/h.</desc>
<speed>0.000000</speed>
</trkpt>
<trkpt lat="56.135159" lon="26.366009">
<ele>104.922913</ele>
<time>2010-08-29T15:49:22Z</time>
<desc>lat.=56.135159, lon.=26.366009, Alt.=104.922913m. Speed=0.036000m/h.</desc>
<speed>0.010000</speed>
</trkpt>
<trkpt lat="56.135159" lon="26.366009">
<ele>104.926819</ele>
<time>2010-08-29T15:49:23Z</time>
<desc>lat.=56.135159, lon.=26.366009, Alt.=104.926819m. Speed=0.000000m/h.</desc>
<speed>0.000000</speed>
</trkpt>
<trkpt lat="56.135159" lon="26.366009">
<ele>104.928772</ele>
<time>2010-08-29T15:49:24Z</time>
<desc>lat.=56.135159, lon.=26.366009, Alt.=104.928772m. Speed=0.000000m/h.</desc>
<speed>0.000000</speed>
</trkpt>
<trkpt lat="56.135159" lon="26.366009">
<ele>104.930725</ele>
<time>2010-08-29T15:49:25Z</time>
<desc>lat.=56.135159, lon.=26.366009, Alt.=104.930725m. Speed=0.000000m/h.</desc>
<speed>0.000000</speed>
</trkpt>
<trkpt lat="56.135159" lon="26.366009">
<ele>104.934631</ele>
<time>2010-08-29T15:49:26Z</time>
<desc>lat.=56.135159, lon.=26.366009, Alt.=104.934631m. Speed=0.000000m/h.</desc>
<speed>0.000000</speed>
</trkpt>
<trkpt lat="56.135159" lon="26.366009">
<ele>104.936584</ele>
<time>2010-08-29T15:49:27Z</time>
<desc>lat.=56.135159, lon.=26.366009, Alt.=104.936584m. Speed=0.036000m/h.</desc>
<speed>0.010000</speed>
</trkpt>
<trkpt lat="56.135159" lon="26.366009">
<ele>104.938538</ele>
<time>2010-08-29T15:49:28Z</time>
<desc>lat.=56.135159, lon.=26.366009, Alt.=104.938538m. Speed=0.000000m/h.</desc>
<speed>0.000000</speed>
</trkpt>
<trkpt lat="56.135159" lon="26.366009">
<ele>104.940491</ele>
<time>2010-08-29T15:49:29Z</time>
<desc>lat.=56.135159, lon.=26.366009, Alt.=104.940491m. Speed=0.000000m/h.</desc>
<speed>0.000000</speed>
</trkpt>
<trkpt lat="56.135159" lon="26.366009">
<ele>104.938538</ele>
<time>2010-08-29T15:49:30Z</time>
<desc>lat.=56.135159, lon.=26.366009, Alt.=104.938538m. Speed=0.000000m/h.</desc>
<speed>0.000000</speed>
</trkpt>
<trkpt lat="56.135159" lon="26.366009">
<ele>104.940491</ele>
<time>2010-08-29T15:49:31Z</time>
<desc>lat.=56.135159, lon.=26.366009, Alt.=104.940491m. Speed=0.000000m/h.</desc>
<speed>0.000000</speed>
</trkpt>
<trkpt lat="56.135159" lon="26.366009">
<ele>104.940491</ele>
<time>2010-08-29T15:49:32Z</time>
<desc>lat.=56.135159, lon.=26.366009, Alt.=104.940491m. Speed=0.000000m/h.</desc>
<speed>0.000000</speed>
</trkpt>
<trkpt lat="56.135159" lon="26.366009">
<ele>104.944397</ele>
<time>2010-08-29T15:49:33Z</time>
<desc>lat.=56.135159, lon.=26.366009, Alt.=104.944397m. Speed=0.000000m/h.</desc>
<speed>0.000000</speed>
</trkpt>
<trkpt lat="56.135159" lon="26.366009">
<ele>104.944397</ele>
<time>2010-08-29T15:49:34Z</time>
<desc>lat.=56.135159, lon.=26.366009, Alt.=104.944397m. Speed=0.036000m/h.</desc>
<speed>0.010000</speed>
</trkpt>
<trkpt lat="56.135159" lon="26.366009">
<ele>104.948303</ele>
<time>2010-08-29T15:49:35Z</time>
<desc>lat.=56.135159, lon.=26.366009, Alt.=104.948303m. Speed=0.000000m/h.</desc>
<speed>0.000000</speed>
</trkpt>
<trkpt lat="56.135159" lon="26.366009">
<ele>104.950256</ele>
<time>2010-08-29T15:49:36Z</time>
<desc>lat.=56.135159, lon.=26.366009, Alt.=104.950256m. Speed=0.036000m/h.</desc>
<speed>0.010000</speed>
</trkpt>
<trkpt lat="56.135159" lon="26.366009">
<ele>104.954163</ele>
<time>2010-08-29T15:49:37Z</time>
<desc>lat.=56.135159, lon.=26.366009, Alt.=104.954163m. Speed=0.000000m/h.</desc>
<speed>0.000000</speed>
</trkpt>
<trkpt lat="56.135159" lon="26.366009">
<ele>104.956116</ele>
<time>2010-08-29T15:49:38Z</time>
<desc>lat.=56.135159, lon.=26.366009, Alt.=104.956116m. Speed=0.000000m/h.</desc>
<speed>0.000000</speed>
</trkpt>
<trkpt lat="56.135159" lon="26.366009">
<ele>104.958069</ele>
<time>2010-08-29T15:49:39Z</time>
<desc>lat.=56.135159, lon.=26.366009, Alt.=104.958069m. Speed=0.036000m/h.</desc>
<speed>0.010000</speed>
</trkpt>
<trkpt lat="56.135159" lon="26.366009">
<ele>104.961975</ele>
<time>2010-08-29T15:49:40Z</time>
<desc>lat.=56.135159, lon.=26.366009, Alt.=104.961975m. Speed=0.000000m/h.</desc>
<speed>0.000000</speed>
</trkpt>
<trkpt lat="56.135159" lon="26.366009">
<ele>104.963928</ele>
<time>2010-08-29T15:49:41Z</time>
<desc>lat.=56.135159, lon.=26.366009, Alt.=104.963928m. Speed=0.000000m/h.</desc>
<speed>0.000000</speed>
</trkpt>
<trkpt lat="56.135159" lon="26.366009">
<ele>104.965881</ele>
<time>2010-08-29T15:49:42Z</time>
<desc>lat.=56.135159, lon.=26.366009, Alt.=104.965881m. Speed=0.000000m/h.</desc>
<speed>0.000000</speed>
</trkpt>
<trkpt lat="56.135159" lon="26.366009">
<ele>104.967834</ele>
<time>2010-08-29T15:49:43Z</time>
<desc>lat.=56.135159, lon.=26.366009, Alt.=104.967834m. Speed=0.000000m/h.</desc>
<speed>0.000000</speed>
</trkpt>
<trkpt lat="56.135159" lon="26.366009">
<ele>104.971741</ele>
<time>2010-08-29T15:49:44Z</time>
<desc>lat.=56.135159, lon.=26.366009, Alt.=104.971741m. Speed=0.000000m/h.</desc>
<speed>0.000000</speed>
</trkpt>
<trkpt lat="56.135159" lon="26.366009">
<ele>104.973694</ele>
<time>2010-08-29T15:49:45Z</time>
<desc>lat.=56.135159, lon.=26.366009, Alt.=104.973694m. Speed=0.000000m/h.</desc>
<speed>0.000000</speed>
</trkpt>
<trkpt lat="56.135159" lon="26.366009">
<ele>104.975647</ele>
<time>2010-08-29T15:49:46Z</time>
<desc>lat.=56.135159, lon.=26.366009, Alt.=104.975647m. Speed=0.000000m/h.</desc>
<speed>0.000000</speed>
</trkpt>
<trkpt lat="56.135159" lon="26.366009">
<ele>104.977600</ele>
<time>2010-08-29T15:49:47Z</time>
<desc>lat.=56.135159, lon.=26.366009, Alt.=104.977600m. Speed=0.000000m/h.</desc>
<speed>0.000000</speed>
</trkpt>
<trkpt lat="56.135159" lon="26.366009">
<ele>104.977600</ele>
<time>2010-08-29T15:49:48Z</time>
<desc>lat.=56.135159, lon.=26.366009, Alt.=104.977600m. Speed=0.000000m/h.</desc>
<speed>0.000000</speed>
</trkpt>
<trkpt lat="56.135159" lon="26.366009">
<ele>104.981506</ele>
<time>2010-08-29T15:49:49Z</time>
<desc>lat.=56.135159, lon.=26.366009, Alt.=104.981506m. Speed=0.000000m/h.</desc>
<speed>0.000000</speed>
</trkpt>
<trkpt lat="56.135159" lon="26.366009">
<ele>104.983459</ele>
<time>2010-08-29T15:49:50Z</time>
<desc>lat.=56.135159, lon.=26.366009, Alt.=104.983459m. Speed=0.000000m/h.</desc>
<speed>0.000000</speed>
</trkpt>
<trkpt lat="56.135159" lon="26.366009">
<ele>104.987366</ele>
<time>2010-08-29T15:49:51Z</time>
<desc>lat.=56.135159, lon.=26.366009, Alt.=104.987366m. Speed=0.000000m/h.</desc>
<speed>0.000000</speed>
</trkpt>
<trkpt lat="56.135159" lon="26.366009">
<ele>104.987366</ele>
<time>2010-08-29T15:49:52Z</time>
<desc>lat.=56.135159, lon.=26.366009, Alt.=104.987366m. Speed=0.036000m/h.</desc>
<speed>0.010000</speed>
</trkpt>
<trkpt lat="56.135159" lon="26.366009">
<ele>104.989319</ele>
<time>2010-08-29T15:49:53Z</time>
<desc>lat.=56.135159, lon.=26.366009, Alt.=104.989319m. Speed=0.036000m/h.</desc>
<speed>0.010000</speed>
</trkpt>
<trkpt lat="56.135159" lon="26.366009">
<ele>104.991272</ele>
<time>2010-08-29T15:49:54Z</time>
<desc>lat.=56.135159, lon.=26.366009, Alt.=104.991272m. Speed=0.000000m/h.</desc>
<speed>0.000000</speed>
</trkpt>
<trkpt lat="56.135159" lon="26.366009">
<ele>104.995178</ele>
<time>2010-08-29T15:49:55Z</time>
<desc>lat.=56.135159, lon.=26.366009, Alt.=104.995178m. Speed=0.036000m/h.</desc>
<speed>0.010000</speed>
</trkpt>
<trkpt lat="56.135159" lon="26.366009">
<ele>104.995178</ele>
<time>2010-08-29T15:49:56Z</time>
<desc>lat.=56.135159, lon.=26.366009, Alt.=104.995178m. Speed=0.036000m/h.</desc>
<speed>0.010000</speed>
</trkpt>
<trkpt lat="56.135159" lon="26.366009">
<ele>104.999084</ele>
<time>2010-08-29T15:49:57Z</time>
<desc>lat.=56.135159, lon.=26.366009, Alt.=104.999084m. Speed=0.000000m/h.</desc>
<speed>0.000000</speed>
</trkpt>
<trkpt lat="56.135159" lon="26.366009">
<ele>105.001038</ele>
<time>2010-08-29T15:49:58Z</time>
<desc>lat.=56.135159, lon.=26.366009, Alt.=105.001038m. Speed=0.000000m/h.</desc>
<speed>0.000000</speed>
</trkpt>
<trkpt lat="56.135159" lon="26.366009">
<ele>105.004944</ele>
<time>2010-08-29T15:49:59Z</time>
<desc>lat.=56.135159, lon.=26.366009, Alt.=105.004944m. Speed=0.000000m/h.</desc>
<speed>0.000000</speed>
</trkpt>
<trkpt lat="56.135159" lon="26.366009">
<ele>105.008850</ele>
<time>2010-08-29T15:50:00Z</time>
<desc>lat.=56.135159, lon.=26.366009, Alt.=105.008850m. Speed=0.000000m/h.</desc>
<speed>0.000000</speed>
</trkpt>
<trkpt lat="56.135159" lon="26.366009">
<ele>105.012756</ele>
<time>2010-08-29T15:50:01Z</time>
<desc>lat.=56.135159, lon.=26.366009, Alt.=105.012756m. Speed=0.000000m/h.</desc>
<speed>0.000000</speed>
</trkpt>
<trkpt lat="56.135159" lon="26.366009">
<ele>105.016663</ele>
<time>2010-08-29T15:50:02Z</time>
<desc>lat.=56.135159, lon.=26.366009, Alt.=105.016663m. Speed=0.000000m/h.</desc>
<speed>0.000000</speed>
</trkpt>
<trkpt lat="56.135159" lon="26.366009">
<ele>105.020569</ele>
<time>2010-08-29T15:50:03Z</time>
<desc>lat.=56.135159, lon.=26.366009, Alt.=105.020569m. Speed=0.000000m/h.</desc>
<speed>0.000000</speed>
</trkpt>
<trkpt lat="56.135159" lon="26.366009">
<ele>105.024475</ele>
<time>2010-08-29T15:50:04Z</time>
<desc>lat.=56.135159, lon.=26.366009, Alt.=105.024475m. Speed=0.036000m/h.</desc>
<speed>0.010000</speed>
</trkpt>
<trkpt lat="56.135159" lon="26.366009">
<ele>105.028381</ele>
<time>2010-08-29T15:50:05Z</time>
<desc>lat.=56.135159, lon.=26.366009, Alt.=105.028381m. Speed=0.000000m/h.</desc>
<speed>0.000000</speed>
</trkpt>
<trkpt lat="56.135159" lon="26.366009">
<ele>105.032288</ele>
<time>2010-08-29T15:50:06Z</time>
<desc>lat.=56.135159, lon.=26.366009, Alt.=105.032288m. Speed=0.000000m/h.</desc>
<speed>0.000000</speed>
</trkpt>
<trkpt lat="56.135159" lon="26.366009">
<ele>105.038147</ele>
<time>2010-08-29T15:50:07Z</time>
<desc>lat.=56.135159, lon.=26.366009, Alt.=105.038147m. Speed=0.036000m/h.</desc>
<speed>0.010000</speed>
</trkpt>
<trkpt lat="56.135159" lon="26.366009">
<ele>105.040100</ele>
<time>2010-08-29T15:50:08Z</time>
<desc>lat.=56.135159, lon.=26.366009, Alt.=105.040100m. Speed=0.000000m/h.</desc>
<speed>0.000000</speed>
</trkpt>
<trkpt lat="56.135159" lon="26.366009">
<ele>105.044006</ele>
<time>2010-08-29T15:50:09Z</time>
<desc>lat.=56.135159, lon.=26.366009, Alt.=105.044006m. Speed=0.000000m/h.</desc>
<speed>0.000000</speed>
</trkpt>
<trkpt lat="56.135159" lon="26.366009">
<ele>105.047913</ele>
<time>2010-08-29T15:50:10Z</time>
<desc>lat.=56.135159, lon.=26.366009, Alt.=105.047913m. Speed=0.000000m/h.</desc>
<speed>0.000000</speed>
</trkpt>
<trkpt lat="56.135159" lon="26.366009">
<ele>105.051819</ele>
<time>2010-08-29T15:50:11Z</time>
<desc>lat.=56.135159, lon.=26.366009, Alt.=105.051819m. Speed=0.000000m/h.</desc>
<speed>0.000000</speed>
</trkpt>
<trkpt lat="56.135159" lon="26.366009">
<ele>105.055725</ele>
<time>2010-08-29T15:50:12Z</time>
<desc>lat.=56.135159, lon.=26.366009, Alt.=105.055725m. Speed=0.000000m/h.</desc>
<speed>0.000000</speed>
</trkpt>
<trkpt lat="56.135159" lon="26.366009">
<ele>105.059631</ele>
<time>2010-08-29T15:50:13Z</time>
<desc>lat.=56.135159, lon.=26.366009, Alt.=105.059631m. Speed=0.036000m/h.</desc>
<speed>0.010000</speed>
</trkpt>
<trkpt lat="56.135159" lon="26.366009">
<ele>105.063538</ele>
<time>2010-08-29T15:50:14Z</time>
<desc>lat.=56.135159, lon.=26.366009, Alt.=105.063538m. Speed=0.000000m/h.</desc>
<speed>0.000000</speed>
</trkpt>
<trkpt lat="56.135159" lon="26.366009">
<ele>105.067444</ele>
<time>2010-08-29T15:50:15Z</time>
<desc>lat.=56.135159, lon.=26.366009, Alt.=105.067444m. Speed=0.036000m/h.</desc>
<speed>0.010000</speed>
</trkpt>
<trkpt lat="56.135159" lon="26.366009">
<ele>105.069397</ele>
<time>2010-08-29T15:50:16Z</time>
<desc>lat.=56.135159, lon.=26.366009, Alt.=105.069397m. Speed=0.036000m/h.</desc>
<speed>0.010000</speed>
</trkpt>
<trkpt lat="56.135159" lon="26.366009">
<ele>105.071350</ele>
<time>2010-08-29T15:50:17Z</time>
<desc>lat.=56.135159, lon.=26.366009, Alt.=105.071350m. Speed=0.000000m/h.</desc>
<speed>0.000000</speed>
</trkpt>
<trkpt lat="56.135159" lon="26.366011">
<ele>105.075256</ele>
<time>2010-08-29T15:50:18Z</time>
<desc>lat.=56.135159, lon.=26.366011, Alt.=105.075256m. Speed=0.036000m/h.</desc>
<speed>0.010000</speed>
</trkpt>
<trkpt lat="56.135159" lon="26.366011">
<ele>105.079163</ele>
<time>2010-08-29T15:50:19Z</time>
<desc>lat.=56.135159, lon.=26.366011, Alt.=105.079163m. Speed=0.036000m/h.</desc>
<speed>0.010000</speed>
</trkpt>
<trkpt lat="56.135159" lon="26.366011">
<ele>105.083069</ele>
<time>2010-08-29T15:50:20Z</time>
<desc>lat.=56.135159, lon.=26.366011, Alt.=105.083069m. Speed=0.000000m/h.</desc>
<speed>0.000000</speed>
</trkpt>
<trkpt lat="56.135159" lon="26.366011">
<ele>105.086975</ele>
<time>2010-08-29T15:50:21Z</time>
<desc>lat.=56.135159, lon.=26.366011, Alt.=105.086975m. Speed=0.036000m/h.</desc>
<speed>0.010000</speed>
</trkpt>
<trkpt lat="56.135159" lon="26.366011">
<ele>105.086975</ele>
<time>2010-08-29T15:50:22Z</time>
<desc>lat.=56.135159, lon.=26.366011, Alt.=105.086975m. Speed=0.000000m/h.</desc>
<speed>0.000000</speed>
</trkpt>
<trkpt lat="56.135159" lon="26.366011">
<ele>105.090881</ele>
<time>2010-08-29T15:50:23Z</time>
<desc>lat.=56.135159, lon.=26.366011, Alt.=105.090881m. Speed=0.000000m/h.</desc>
<speed>0.000000</speed>
</trkpt>
<trkpt lat="56.135159" lon="26.366011">
<ele>105.094788</ele>
<time>2010-08-29T15:50:24Z</time>
<desc>lat.=56.135159, lon.=26.366011, Alt.=105.094788m. Speed=0.000000m/h.</desc>
<speed>0.000000</speed>
</trkpt>
<trkpt lat="56.135159" lon="26.366011">
<ele>105.098694</ele>
<time>2010-08-29T15:50:25Z</time>
<desc>lat.=56.135159, lon.=26.366011, Alt.=105.098694m. Speed=0.000000m/h.</desc>
<speed>0.000000</speed>
</trkpt>
<trkpt lat="56.135159" lon="26.366011">
<ele>105.102600</ele>
<time>2010-08-29T15:50:26Z</time>
<desc>lat.=56.135159, lon.=26.366011, Alt.=105.102600m. Speed=0.000000m/h.</desc>
<speed>0.000000</speed>
</trkpt>
<trkpt lat="56.135159" lon="26.366011">
<ele>105.104553</ele>
<time>2010-08-29T15:50:27Z</time>
<desc>lat.=56.135159, lon.=26.366011, Alt.=105.104553m. Speed=0.000000m/h.</desc>
<speed>0.000000</speed>
</trkpt>
<trkpt lat="56.135159" lon="26.366011">
<ele>105.108459</ele>
<time>2010-08-29T15:50:28Z</time>
<desc>lat.=56.135159, lon.=26.366011, Alt.=105.108459m. Speed=0.036000m/h.</desc>
<speed>0.010000</speed>
</trkpt>
<trkpt lat="56.135159" lon="26.366011">
<ele>105.110413</ele>
<time>2010-08-29T15:50:29Z</time>
<desc>lat.=56.135159, lon.=26.366011, Alt.=105.110413m. Speed=0.000000m/h.</desc>
<speed>0.000000</speed>
</trkpt>
<trkpt lat="56.135159" lon="26.366011">
<ele>105.112366</ele>
<time>2010-08-29T15:50:30Z</time>
<desc>lat.=56.135159, lon.=26.366011, Alt.=105.112366m. Speed=0.000000m/h.</desc>
<speed>0.000000</speed>
</trkpt>
<trkpt lat="56.135159" lon="26.366011">
<ele>105.116272</ele>
<time>2010-08-29T15:50:31Z</time>
<desc>lat.=56.135159, lon.=26.366011, Alt.=105.116272m. Speed=0.036000m/h.</desc>
<speed>0.010000</speed>
</trkpt>
<trkpt lat="56.135159" lon="26.366011">
<ele>105.118225</ele>
<time>2010-08-29T15:50:32Z</time>
<desc>lat.=56.135159, lon.=26.366011, Alt.=105.118225m. Speed=0.108000m/h.</desc>
<speed>0.030000</speed>
</trkpt>
<trkpt lat="56.135159" lon="26.366011">
<ele>105.114319</ele>
<time>2010-08-29T15:50:33Z</time>
<desc>lat.=56.135159, lon.=26.366011, Alt.=105.114319m. Speed=0.072000m/h.</desc>
<speed>0.020000</speed>
</trkpt>
<trkpt lat="56.135159" lon="26.366011">
<ele>105.108459</ele>
<time>2010-08-29T15:50:34Z</time>
<desc>lat.=56.135159, lon.=26.366011, Alt.=105.108459m. Speed=0.036000m/h.</desc>
<speed>0.010000</speed>
</trkpt>
<trkpt lat="56.135159" lon="26.366011">
<ele>105.106506</ele>
<time>2010-08-29T15:50:35Z</time>
<desc>lat.=56.135159, lon.=26.366011, Alt.=105.106506m. Speed=0.000000m/h.</desc>
<speed>0.000000</speed>
</trkpt>
<trkpt lat="56.135159" lon="26.366011">
<ele>105.100647</ele>
<time>2010-08-29T15:50:36Z</time>
<desc>lat.=56.135159, lon.=26.366011, Alt.=105.100647m. Speed=0.000000m/h.</desc>
<speed>0.000000</speed>
</trkpt>
<trkpt lat="56.135159" lon="26.366011">
<ele>105.098694</ele>
<time>2010-08-29T15:50:37Z</time>
<desc>lat.=56.135159, lon.=26.366011, Alt.=105.098694m. Speed=0.000000m/h.</desc>
<speed>0.000000</speed>
</trkpt>
<trkpt lat="56.135159" lon="26.366011">
<ele>105.096741</ele>
<time>2010-08-29T15:50:38Z</time>
<desc>lat.=56.135159, lon.=26.366011, Alt.=105.096741m. Speed=0.000000m/h.</desc>
<speed>0.000000</speed>
</trkpt>
<trkpt lat="56.135159" lon="26.366011">
<ele>105.094788</ele>
<time>2010-08-29T15:50:39Z</time>
<desc>lat.=56.135159, lon.=26.366011, Alt.=105.094788m. Speed=0.072000m/h.</desc>
<speed>0.020000</speed>
</trkpt>
<trkpt lat="56.135159" lon="26.366011">
<ele>105.090881</ele>
<time>2010-08-29T15:50:40Z</time>
<desc>lat.=56.135159, lon.=26.366011, Alt.=105.090881m. Speed=0.144000m/h.</desc>
<speed>0.040000</speed>
</trkpt>
<trkpt lat="56.135159" lon="26.366011">
<ele>105.085022</ele>
<time>2010-08-29T15:50:41Z</time>
<desc>lat.=56.135159, lon.=26.366011, Alt.=105.085022m. Speed=0.252000m/h.</desc>
<speed>0.070000</speed>
</trkpt>
<trkpt lat="56.135159" lon="26.366011">
<ele>105.083069</ele>
<time>2010-08-29T15:50:42Z</time>
<desc>lat.=56.135159, lon.=26.366011, Alt.=105.083069m. Speed=0.252000m/h.</desc>
<speed>0.070000</speed>
</trkpt>
<trkpt lat="56.135159" lon="26.366011">
<ele>105.086975</ele>
<time>2010-08-29T15:50:43Z</time>
<desc>lat.=56.135159, lon.=26.366011, Alt.=105.086975m. Speed=0.036000m/h.</desc>
<speed>0.010000</speed>
</trkpt>
<trkpt lat="56.135159" lon="26.366011">
<ele>105.086975</ele>
<time>2010-08-29T15:50:44Z</time>
<desc>lat.=56.135159, lon.=26.366011, Alt.=105.086975m. Speed=0.000000m/h.</desc>
<speed>0.000000</speed>
</trkpt>
<trkpt lat="56.135159" lon="26.366011">
<ele>105.086975</ele>
<time>2010-08-29T15:50:45Z</time>
<desc>lat.=56.135159, lon.=26.366011, Alt.=105.086975m. Speed=0.036000m/h.</desc>
<speed>0.010000</speed>
</trkpt>
<trkpt lat="56.135159" lon="26.366011">
<ele>105.088928</ele>
<time>2010-08-29T15:50:46Z</time>
<desc>lat.=56.135159, lon.=26.366011, Alt.=105.088928m. Speed=0.000000m/h.</desc>
<speed>0.000000</speed>
</trkpt>
<trkpt lat="56.135159" lon="26.366011">
<ele>105.088928</ele>
<time>2010-08-29T15:50:47Z</time>
<desc>lat.=56.135159, lon.=26.366011, Alt.=105.088928m. Speed=0.000000m/h.</desc>
<speed>0.000000</speed>
</trkpt>
<trkpt lat="56.135159" lon="26.366011">
<ele>105.090881</ele>
<time>2010-08-29T15:50:48Z</time>
<desc>lat.=56.135159, lon.=26.366011, Alt.=105.090881m. Speed=0.000000m/h.</desc>
<speed>0.000000</speed>
</trkpt>
<trkpt lat="56.135159" lon="26.366011">
<ele>105.090881</ele>
<time>2010-08-29T15:50:49Z</time>
<desc>lat.=56.135159, lon.=26.366011, Alt.=105.090881m. Speed=0.000000m/h.</desc>
<speed>0.000000</speed>
</trkpt>
<trkpt lat="56.135159" lon="26.366011">
<ele>105.090881</ele>
<time>2010-08-29T15:50:50Z</time>
<desc>lat.=56.135159, lon.=26.366011, Alt.=105.090881m. Speed=0.072000m/h.</desc>
<speed>0.020000</speed>
</trkpt>
<trkpt lat="56.135159" lon="26.366011">
<ele>105.092834</ele>
<time>2010-08-29T15:50:51Z</time>
<desc>lat.=56.135159, lon.=26.366011, Alt.=105.092834m. Speed=0.000000m/h.</desc>
<speed>0.000000</speed>
</trkpt>
<trkpt lat="56.135159" lon="26.366011">
<ele>105.092834</ele>
<time>2010-08-29T15:50:52Z</time>
<desc>lat.=56.135159, lon.=26.366011, Alt.=105.092834m. Speed=0.000000m/h.</desc>
<speed>0.000000</speed>
</trkpt>
<trkpt lat="56.135159" lon="26.366011">
<ele>105.094788</ele>
<time>2010-08-29T15:50:53Z</time>
<desc>lat.=56.135159, lon.=26.366011, Alt.=105.094788m. Speed=0.036000m/h.</desc>
<speed>0.010000</speed>
</trkpt>
<trkpt lat="56.135159" lon="26.366011">
<ele>105.098694</ele>
<time>2010-08-29T15:50:54Z</time>
<desc>lat.=56.135159, lon.=26.366011, Alt.=105.098694m. Speed=0.000000m/h.</desc>
<speed>0.000000</speed>
</trkpt>
<trkpt lat="56.135159" lon="26.366011">
<ele>105.098694</ele>
<time>2010-08-29T15:50:55Z</time>
<desc>lat.=56.135159, lon.=26.366011, Alt.=105.098694m. Speed=0.000000m/h.</desc>
<speed>0.000000</speed>
</trkpt>
<trkpt lat="56.135159" lon="26.366011">
<ele>105.096741</ele>
<time>2010-08-29T15:50:56Z</time>
<desc>lat.=56.135159, lon.=26.366011, Alt.=105.096741m. Speed=0.108000m/h.</desc>
<speed>0.030000</speed>
</trkpt>
<trkpt lat="56.135159" lon="26.366011">
<ele>105.094788</ele>
<time>2010-08-29T15:50:57Z</time>
<desc>lat.=56.135159, lon.=26.366011, Alt.=105.094788m. Speed=0.180000m/h.</desc>
<speed>0.050000</speed>
</trkpt>
<trkpt lat="56.135159" lon="26.366011">
<ele>105.096741</ele>
<time>2010-08-29T15:50:58Z</time>
<desc>lat.=56.135159, lon.=26.366011, Alt.=105.096741m. Speed=0.000000m/h.</desc>
<speed>0.000000</speed>
</trkpt>
<trkpt lat="56.135159" lon="26.366011">
<ele>105.098694</ele>
<time>2010-08-29T15:50:59Z</time>
<desc>lat.=56.135159, lon.=26.366011, Alt.=105.098694m. Speed=0.036000m/h.</desc>
<speed>0.010000</speed>
</trkpt>
<trkpt lat="56.135159" lon="26.366011">
<ele>105.102600</ele>
<time>2010-08-29T15:51:00Z</time>
<desc>lat.=56.135159, lon.=26.366011, Alt.=105.102600m. Speed=0.000000m/h.</desc>
<speed>0.000000</speed>
</trkpt>
<trkpt lat="56.135159" lon="26.366011">
<ele>105.104553</ele>
<time>2010-08-29T15:51:01Z</time>
<desc>lat.=56.135159, lon.=26.366011, Alt.=105.104553m. Speed=0.000000m/h.</desc>
<speed>0.000000</speed>
</trkpt>
<trkpt lat="56.135159" lon="26.366011">
<ele>105.106506</ele>
<time>2010-08-29T15:51:02Z</time>
<desc>lat.=56.135159, lon.=26.366011, Alt.=105.106506m. Speed=0.036000m/h.</desc>
<speed>0.010000</speed>
</trkpt>
<trkpt lat="56.135159" lon="26.366011">
<ele>105.106506</ele>
<time>2010-08-29T15:51:03Z</time>
<desc>lat.=56.135159, lon.=26.366011, Alt.=105.106506m. Speed=0.000000m/h.</desc>
<speed>0.000000</speed>
</trkpt>
<trkpt lat="56.135159" lon="26.366011">
<ele>105.106506</ele>
<time>2010-08-29T15:51:04Z</time>
<desc>lat.=56.135159, lon.=26.366011, Alt.=105.106506m. Speed=0.000000m/h.</desc>
<speed>0.000000</speed>
</trkpt>
<trkpt lat="56.135159" lon="26.366011">
<ele>105.106506</ele>
<time>2010-08-29T15:51:05Z</time>
<desc>lat.=56.135159, lon.=26.366011, Alt.=105.106506m. Speed=0.000000m/h.</desc>
<speed>0.000000</speed>
</trkpt>
<trkpt lat="56.135159" lon="26.366011">
<ele>105.108459</ele>
<time>2010-08-29T15:51:06Z</time>
<desc>lat.=56.135159, lon.=26.366011, Alt.=105.108459m. Speed=0.000000m/h.</desc>
<speed>0.000000</speed>
</trkpt>
<trkpt lat="56.135159" lon="26.366011">
<ele>105.108459</ele>
<time>2010-08-29T15:51:07Z</time>
<desc>lat.=56.135159, lon.=26.366011, Alt.=105.108459m. Speed=0.000000m/h.</desc>
<speed>0.000000</speed>
</trkpt>
<trkpt lat="56.135159" lon="26.366011">
<ele>105.110413</ele>
<time>2010-08-29T15:51:08Z</time>
<desc>lat.=56.135159, lon.=26.366011, Alt.=105.110413m. Speed=0.000000m/h.</desc>
<speed>0.000000</speed>
</trkpt>
<trkpt lat="56.135159" lon="26.366011">
<ele>105.112366</ele>
<time>2010-08-29T15:51:09Z</time>
<desc>lat.=56.135159, lon.=26.366011, Alt.=105.112366m. Speed=0.036000m/h.</desc>
<speed>0.010000</speed>
</trkpt>
<trkpt lat="56.135159" lon="26.366011">
<ele>105.112366</ele>
<time>2010-08-29T15:51:10Z</time>
<desc>lat.=56.135159, lon.=26.366011, Alt.=105.112366m. Speed=0.000000m/h.</desc>
<speed>0.000000</speed>
</trkpt>
<trkpt lat="56.135159" lon="26.366011">
<ele>105.114319</ele>
<time>2010-08-29T15:51:11Z</time>
<desc>lat.=56.135159, lon.=26.366011, Alt.=105.114319m. Speed=0.000000m/h.</desc>
<speed>0.000000</speed>
</trkpt>
<trkpt lat="56.135159" lon="26.366011">
<ele>105.116272</ele>
<time>2010-08-29T15:51:12Z</time>
<desc>lat.=56.135159, lon.=26.366011, Alt.=105.116272m. Speed=0.000000m/h.</desc>
<speed>0.000000</speed>
</trkpt>
<trkpt lat="56.135159" lon="26.366011">
<ele>105.118225</ele>
<time>2010-08-29T15:51:13Z</time>
<desc>lat.=56.135159, lon.=26.366011, Alt.=105.118225m. Speed=0.072000m/h.</desc>
<speed>0.020000</speed>
</trkpt>
<trkpt lat="56.135159" lon="26.366011">
<ele>105.120178</ele>
<time>2010-08-29T15:51:14Z</time>
<desc>lat.=56.135159, lon.=26.366011, Alt.=105.120178m. Speed=0.000000m/h.</desc>
<speed>0.000000</speed>
</trkpt>
<trkpt lat="56.135159" lon="26.366011">
<ele>105.122131</ele>
<time>2010-08-29T15:51:15Z</time>
<desc>lat.=56.135159, lon.=26.366011, Alt.=105.122131m. Speed=0.000000m/h.</desc>
<speed>0.000000</speed>
</trkpt>
<trkpt lat="56.135159" lon="26.366011">
<ele>105.124084</ele>
<time>2010-08-29T15:51:16Z</time>
<desc>lat.=56.135159, lon.=26.366011, Alt.=105.124084m. Speed=0.000000m/h.</desc>
<speed>0.000000</speed>
</trkpt>
<trkpt lat="56.135159" lon="26.366011">
<ele>105.126038</ele>
<time>2010-08-29T15:51:17Z</time>
<desc>lat.=56.135159, lon.=26.366011, Alt.=105.126038m. Speed=0.000000m/h.</desc>
<speed>0.000000</speed>
</trkpt>
<trkpt lat="56.135159" lon="26.366011">
<ele>105.124084</ele>
<time>2010-08-29T15:51:18Z</time>
<desc>lat.=56.135159, lon.=26.366011, Alt.=105.124084m. Speed=0.036000m/h.</desc>
<speed>0.010000</speed>
</trkpt>
<trkpt lat="56.135159" lon="26.366011">
<ele>105.124084</ele>
<time>2010-08-29T15:51:19Z</time>
<desc>lat.=56.135159, lon.=26.366011, Alt.=105.124084m. Speed=0.000000m/h.</desc>
<speed>0.000000</speed>
</trkpt>
<trkpt lat="56.135159" lon="26.366011">
<ele>105.126038</ele>
<time>2010-08-29T15:51:20Z</time>
<desc>lat.=56.135159, lon.=26.366011, Alt.=105.126038m. Speed=0.036000m/h.</desc>
<speed>0.010000</speed>
</trkpt>
<trkpt lat="56.135159" lon="26.366011">
<ele>105.122131</ele>
<time>2010-08-29T15:51:21Z</time>
<desc>lat.=56.135159, lon.=26.366011, Alt.=105.122131m. Speed=0.000000m/h.</desc>
<speed>0.000000</speed>
</trkpt>
<trkpt lat="56.135159" lon="26.366011">
<ele>105.124084</ele>
<time>2010-08-29T15:51:22Z</time>
<desc>lat.=56.135159, lon.=26.366011, Alt.=105.124084m. Speed=0.000000m/h.</desc>
<speed>0.000000</speed>
</trkpt>
<trkpt lat="56.135159" lon="26.366011">
<ele>105.124084</ele>
<time>2010-08-29T15:51:23Z</time>
<desc>lat.=56.135159, lon.=26.366011, Alt.=105.124084m. Speed=0.000000m/h.</desc>
<speed>0.000000</speed>
</trkpt>
<trkpt lat="56.135159" lon="26.366011">
<ele>105.124084</ele>
<time>2010-08-29T15:51:24Z</time>
<desc>lat.=56.135159, lon.=26.366011, Alt.=105.124084m. Speed=0.000000m/h.</desc>
<speed>0.000000</speed>
</trkpt>
<trkpt lat="56.135159" lon="26.366011">
<ele>105.124084</ele>
<time>2010-08-29T15:51:25Z</time>
<desc>lat.=56.135159, lon.=26.366011, Alt.=105.124084m. Speed=0.036000m/h.</desc>
<speed>0.010000</speed>
</trkpt>
<trkpt lat="56.135159" lon="26.366011">
<ele>105.126038</ele>
<time>2010-08-29T15:51:26Z</time>
<desc>lat.=56.135159, lon.=26.366011, Alt.=105.126038m. Speed=0.036000m/h.</desc>
<speed>0.010000</speed>
</trkpt>
<trkpt lat="56.135159" lon="26.366011">
<ele>105.127991</ele>
<time>2010-08-29T15:51:27Z</time>
<desc>lat.=56.135159, lon.=26.366011, Alt.=105.127991m. Speed=0.072000m/h.</desc>
<speed>0.020000</speed>
</trkpt>
<trkpt lat="56.135159" lon="26.366011">
<ele>105.129944</ele>
<time>2010-08-29T15:51:28Z</time>
<desc>lat.=56.135159, lon.=26.366011, Alt.=105.129944m. Speed=0.000000m/h.</desc>
<speed>0.000000</speed>
</trkpt>
<trkpt lat="56.135159" lon="26.366011">
<ele>105.129944</ele>
<time>2010-08-29T15:51:29Z</time>
<desc>lat.=56.135159, lon.=26.366011, Alt.=105.129944m. Speed=0.000000m/h.</desc>
<speed>0.000000</speed>
</trkpt>
<trkpt lat="56.135159" lon="26.366011">
<ele>105.127991</ele>
<time>2010-08-29T15:51:30Z</time>
<desc>lat.=56.135159, lon.=26.366011, Alt.=105.127991m. Speed=0.036000m/h.</desc>
<speed>0.010000</speed>
</trkpt>
<trkpt lat="56.135159" lon="26.366011">
<ele>105.129944</ele>
<time>2010-08-29T15:51:31Z</time>
<desc>lat.=56.135159, lon.=26.366011, Alt.=105.129944m. Speed=0.036000m/h.</desc>
<speed>0.010000</speed>
</trkpt>
<trkpt lat="56.135159" lon="26.366011">
<ele>105.129944</ele>
<time>2010-08-29T15:51:32Z</time>
<desc>lat.=56.135159, lon.=26.366011, Alt.=105.129944m. Speed=0.000000m/h.</desc>
<speed>0.000000</speed>
</trkpt>
<trkpt lat="56.135159" lon="26.366011">
<ele>105.129944</ele>
<time>2010-08-29T15:51:33Z</time>
<desc>lat.=56.135159, lon.=26.366011, Alt.=105.129944m. Speed=0.000000m/h.</desc>
<speed>0.000000</speed>
</trkpt>
<trkpt lat="56.135159" lon="26.366011">
<ele>105.127991</ele>
<time>2010-08-29T15:51:34Z</time>
<desc>lat.=56.135159, lon.=26.366011, Alt.=105.127991m. Speed=0.000000m/h.</desc>
<speed>0.000000</speed>
</trkpt>
<trkpt lat="56.135159" lon="26.366011">
<ele>105.129944</ele>
<time>2010-08-29T15:51:35Z</time>
<desc>lat.=56.135159, lon.=26.366011, Alt.=105.129944m. Speed=0.000000m/h.</desc>
<speed>0.000000</speed>
</trkpt>
<trkpt lat="56.135159" lon="26.366011">
<ele>105.129944</ele>
<time>2010-08-29T15:51:36Z</time>
<desc>lat.=56.135159, lon.=26.366011, Alt.=105.129944m. Speed=0.000000m/h.</desc>
<speed>0.000000</speed>
</trkpt>
<trkpt lat="56.135159" lon="26.366011">
<ele>105.131897</ele>
<time>2010-08-29T15:51:37Z</time>
<desc>lat.=56.135159, lon.=26.366011, Alt.=105.131897m. Speed=0.000000m/h.</desc>
<speed>0.000000</speed>
</trkpt>
<trkpt lat="56.135159" lon="26.366011">
<ele>105.133850</ele>
<time>2010-08-29T15:51:38Z</time>
<desc>lat.=56.135159, lon.=26.366011, Alt.=105.133850m. Speed=0.036000m/h.</desc>
<speed>0.010000</speed>
</trkpt>
<trkpt lat="56.135159" lon="26.366011">
<ele>105.133850</ele>
<time>2010-08-29T15:51:39Z</time>
<desc>lat.=56.135159, lon.=26.366011, Alt.=105.133850m. Speed=0.036000m/h.</desc>
<speed>0.010000</speed>
</trkpt>
<trkpt lat="56.135159" lon="26.366011">
<ele>105.129944</ele>
<time>2010-08-29T15:51:40Z</time>
<desc>lat.=56.135159, lon.=26.366011, Alt.=105.129944m. Speed=0.000000m/h.</desc>
<speed>0.000000</speed>
</trkpt>
<trkpt lat="56.135159" lon="26.366011">
<ele>105.127991</ele>
<time>2010-08-29T15:51:41Z</time>
<desc>lat.=56.135159, lon.=26.366011, Alt.=105.127991m. Speed=0.000000m/h.</desc>
<speed>0.000000</speed>
</trkpt>
<trkpt lat="56.135159" lon="26.366011">
<ele>105.127991</ele>
<time>2010-08-29T15:51:42Z</time>
<desc>lat.=56.135159, lon.=26.366011, Alt.=105.127991m. Speed=0.000000m/h.</desc>
<speed>0.000000</speed>
</trkpt>
<trkpt lat="56.135159" lon="26.366011">
<ele>105.127991</ele>
<time>2010-08-29T15:51:43Z</time>
<desc>lat.=56.135159, lon.=26.366011, Alt.=105.127991m. Speed=0.000000m/h.</desc>
<speed>0.000000</speed>
</trkpt>
<trkpt lat="56.135159" lon="26.366011">
<ele>105.127991</ele>
<time>2010-08-29T15:51:44Z</time>
<desc>lat.=56.135159, lon.=26.366011, Alt.=105.127991m. Speed=0.000000m/h.</desc>
<speed>0.000000</speed>
</trkpt>
<trkpt lat="56.135159" lon="26.366011">
<ele>105.127991</ele>
<time>2010-08-29T15:51:45Z</time>
<desc>lat.=56.135159, lon.=26.366011, Alt.=105.127991m. Speed=0.036000m/h.</desc>
<speed>0.010000</speed>
</trkpt>
<trkpt lat="56.135159" lon="26.366011">
<ele>105.126038</ele>
<time>2010-08-29T15:51:46Z</time>
<desc>lat.=56.135159, lon.=26.366011, Alt.=105.126038m. Speed=0.000000m/h.</desc>
<speed>0.000000</speed>
</trkpt>
<trkpt lat="56.135159" lon="26.366011">
<ele>105.124084</ele>
<time>2010-08-29T15:51:47Z</time>
<desc>lat.=56.135159, lon.=26.366011, Alt.=105.124084m. Speed=0.036000m/h.</desc>
<speed>0.010000</speed>
</trkpt>
<trkpt lat="56.135159" lon="26.366011">
<ele>105.124084</ele>
<time>2010-08-29T15:51:48Z</time>
<desc>lat.=56.135159, lon.=26.366011, Alt.=105.124084m. Speed=0.000000m/h.</desc>
<speed>0.000000</speed>
</trkpt>
<trkpt lat="56.135159" lon="26.366011">
<ele>105.122131</ele>
<time>2010-08-29T15:51:49Z</time>
<desc>lat.=56.135159, lon.=26.366011, Alt.=105.122131m. Speed=0.000000m/h.</desc>
<speed>0.000000</speed>
</trkpt>
<trkpt lat="56.135159" lon="26.366011">
<ele>105.122131</ele>
<time>2010-08-29T15:51:50Z</time>
<desc>lat.=56.135159, lon.=26.366011, Alt.=105.122131m. Speed=0.036000m/h.</desc>
<speed>0.010000</speed>
</trkpt>
<trkpt lat="56.135159" lon="26.366011">
<ele>105.122131</ele>
<time>2010-08-29T15:51:51Z</time>
<desc>lat.=56.135159, lon.=26.366011, Alt.=105.122131m. Speed=0.000000m/h.</desc>
<speed>0.000000</speed>
</trkpt>
<trkpt lat="56.135159" lon="26.366011">
<ele>105.122131</ele>
<time>2010-08-29T15:51:52Z</time>
<desc>lat.=56.135159, lon.=26.366011, Alt.=105.122131m. Speed=0.000000m/h.</desc>
<speed>0.000000</speed>
</trkpt>
<trkpt lat="56.135159" lon="26.366011">
<ele>105.118225</ele>
<time>2010-08-29T15:51:53Z</time>
<desc>lat.=56.135159, lon.=26.366011, Alt.=105.118225m. Speed=0.000000m/h.</desc>
<speed>0.000000</speed>
</trkpt>
<trkpt lat="56.135159" lon="26.366011">
<ele>105.116272</ele>
<time>2010-08-29T15:51:54Z</time>
<desc>lat.=56.135159, lon.=26.366011, Alt.=105.116272m. Speed=0.036000m/h.</desc>
<speed>0.010000</speed>
</trkpt>
<trkpt lat="56.135159" lon="26.366011">
<ele>105.114319</ele>
<time>2010-08-29T15:51:55Z</time>
<desc>lat.=56.135159, lon.=26.366011, Alt.=105.114319m. Speed=0.036000m/h.</desc>
<speed>0.010000</speed>
</trkpt>
<trkpt lat="56.135159" lon="26.366011">
<ele>105.112366</ele>
<time>2010-08-29T15:51:56Z</time>
<desc>lat.=56.135159, lon.=26.366011, Alt.=105.112366m. Speed=0.000000m/h.</desc>
<speed>0.000000</speed>
</trkpt>
<trkpt lat="56.135159" lon="26.366011">
<ele>105.112366</ele>
<time>2010-08-29T15:51:57Z</time>
<desc>lat.=56.135159, lon.=26.366011, Alt.=105.112366m. Speed=0.000000m/h.</desc>
<speed>0.000000</speed>
</trkpt>
<trkpt lat="56.135159" lon="26.366011">
<ele>105.110413</ele>
<time>2010-08-29T15:51:58Z</time>
<desc>lat.=56.135159, lon.=26.366011, Alt.=105.110413m. Speed=0.036000m/h.</desc>
<speed>0.010000</speed>
</trkpt>
<trkpt lat="56.135159" lon="26.366011">
<ele>105.108459</ele>
<time>2010-08-29T15:51:59Z</time>
<desc>lat.=56.135159, lon.=26.366011, Alt.=105.108459m. Speed=0.000000m/h.</desc>
<speed>0.000000</speed>
</trkpt>
<trkpt lat="56.135159" lon="26.366011">
<ele>105.106506</ele>
<time>2010-08-29T15:52:00Z</time>
<desc>lat.=56.135159, lon.=26.366011, Alt.=105.106506m. Speed=0.000000m/h.</desc>
<speed>0.000000</speed>
</trkpt>
<trkpt lat="56.135159" lon="26.366011">
<ele>105.104553</ele>
<time>2010-08-29T15:52:01Z</time>
<desc>lat.=56.135159, lon.=26.366011, Alt.=105.104553m. Speed=0.000000m/h.</desc>
<speed>0.000000</speed>
</trkpt>
<trkpt lat="56.135159" lon="26.366013">
<ele>105.102600</ele>
<time>2010-08-29T15:52:02Z</time>
<desc>lat.=56.135159, lon.=26.366013, Alt.=105.102600m. Speed=0.000000m/h.</desc>
<speed>0.000000</speed>
</trkpt>
<trkpt lat="56.135159" lon="26.366013">
<ele>105.100647</ele>
<time>2010-08-29T15:52:03Z</time>
<desc>lat.=56.135159, lon.=26.366013, Alt.=105.100647m. Speed=0.000000m/h.</desc>
<speed>0.000000</speed>
</trkpt>
<trkpt lat="56.135159" lon="26.366013">
<ele>105.098694</ele>
<time>2010-08-29T15:52:04Z</time>
<desc>lat.=56.135159, lon.=26.366013, Alt.=105.098694m. Speed=0.000000m/h.</desc>
<speed>0.000000</speed>
</trkpt>
<trkpt lat="56.135159" lon="26.366013">
<ele>105.098694</ele>
<time>2010-08-29T15:52:05Z</time>
<desc>lat.=56.135159, lon.=26.366013, Alt.=105.098694m. Speed=0.000000m/h.</desc>
<speed>0.000000</speed>
</trkpt>
<trkpt lat="56.135159" lon="26.366013">
<ele>105.096741</ele>
<time>2010-08-29T15:52:06Z</time>
<desc>lat.=56.135159, lon.=26.366013, Alt.=105.096741m. Speed=0.036000m/h.</desc>
<speed>0.010000</speed>
</trkpt>
<trkpt lat="56.135159" lon="26.366013">
<ele>105.094788</ele>
<time>2010-08-29T15:52:07Z</time>
<desc>lat.=56.135159, lon.=26.366013, Alt.=105.094788m. Speed=0.036000m/h.</desc>
<speed>0.010000</speed>
</trkpt>
<trkpt lat="56.135159" lon="26.366013">
<ele>105.094788</ele>
<time>2010-08-29T15:52:08Z</time>
<desc>lat.=56.135159, lon.=26.366013, Alt.=105.094788m. Speed=0.000000m/h.</desc>
<speed>0.000000</speed>
</trkpt>
<trkpt lat="56.135159" lon="26.366013">
<ele>105.092834</ele>
<time>2010-08-29T15:52:09Z</time>
<desc>lat.=56.135159, lon.=26.366013, Alt.=105.092834m. Speed=0.000000m/h.</desc>
<speed>0.000000</speed>
</trkpt>
<trkpt lat="56.135159" lon="26.366013">
<ele>105.092834</ele>
<time>2010-08-29T15:52:10Z</time>
<desc>lat.=56.135159, lon.=26.366013, Alt.=105.092834m. Speed=0.000000m/h.</desc>
<speed>0.000000</speed>
</trkpt>
<trkpt lat="56.135159" lon="26.366013">
<ele>105.092834</ele>
<time>2010-08-29T15:52:11Z</time>
<desc>lat.=56.135159, lon.=26.366013, Alt.=105.092834m. Speed=0.036000m/h.</desc>
<speed>0.010000</speed>
</trkpt>
<trkpt lat="56.135159" lon="26.366013">
<ele>105.094788</ele>
<time>2010-08-29T15:52:12Z</time>
<desc>lat.=56.135159, lon.=26.366013, Alt.=105.094788m. Speed=0.000000m/h.</desc>
<speed>0.000000</speed>
</trkpt>
<trkpt lat="56.135159" lon="26.366013">
<ele>105.094788</ele>
<time>2010-08-29T15:52:13Z</time>
<desc>lat.=56.135159, lon.=26.366013, Alt.=105.094788m. Speed=0.000000m/h.</desc>
<speed>0.000000</speed>
</trkpt>
<trkpt lat="56.135159" lon="26.366013">
<ele>105.098694</ele>
<time>2010-08-29T15:52:14Z</time>
<desc>lat.=56.135159, lon.=26.366013, Alt.=105.098694m. Speed=0.036000m/h.</desc>
<speed>0.010000</speed>
</trkpt>
<trkpt lat="56.135159" lon="26.366013">
<ele>105.098694</ele>
<time>2010-08-29T15:52:15Z</time>
<desc>lat.=56.135159, lon.=26.366013, Alt.=105.098694m. Speed=0.000000m/h.</desc>
<speed>0.000000</speed>
</trkpt>
<trkpt lat="56.135159" lon="26.366013">
<ele>105.100647</ele>
<time>2010-08-29T15:52:16Z</time>
<desc>lat.=56.135159, lon.=26.366013, Alt.=105.100647m. Speed=0.000000m/h.</desc>
<speed>0.000000</speed>
</trkpt>
<trkpt lat="56.135159" lon="26.366013">
<ele>105.098694</ele>
<time>2010-08-29T15:52:17Z</time>
<desc>lat.=56.135159, lon.=26.366013, Alt.=105.098694m. Speed=0.000000m/h.</desc>
<speed>0.000000</speed>
</trkpt>
<trkpt lat="56.135159" lon="26.366013">
<ele>105.098694</ele>
<time>2010-08-29T15:52:18Z</time>
<desc>lat.=56.135159, lon.=26.366013, Alt.=105.098694m. Speed=0.036000m/h.</desc>
<speed>0.010000</speed>
</trkpt>
<trkpt lat="56.135159" lon="26.366013">
<ele>105.098694</ele>
<time>2010-08-29T15:52:19Z</time>
<desc>lat.=56.135159, lon.=26.366013, Alt.=105.098694m. Speed=0.000000m/h.</desc>
<speed>0.000000</speed>
</trkpt>
<trkpt lat="56.135159" lon="26.366013">
<ele>105.094788</ele>
<time>2010-08-29T15:52:20Z</time>
<desc>lat.=56.135159, lon.=26.366013, Alt.=105.094788m. Speed=0.036000m/h.</desc>
<speed>0.010000</speed>
</trkpt>
<trkpt lat="56.135159" lon="26.366013">
<ele>105.092834</ele>
<time>2010-08-29T15:52:21Z</time>
<desc>lat.=56.135159, lon.=26.366013, Alt.=105.092834m. Speed=0.000000m/h.</desc>
<speed>0.000000</speed>
</trkpt>
<trkpt lat="56.135159" lon="26.366013">
<ele>105.090881</ele>
<time>2010-08-29T15:52:22Z</time>
<desc>lat.=56.135159, lon.=26.366013, Alt.=105.090881m. Speed=0.000000m/h.</desc>
<speed>0.000000</speed>
</trkpt>
<trkpt lat="56.135159" lon="26.366013">
<ele>105.090881</ele>
<time>2010-08-29T15:52:23Z</time>
<desc>lat.=56.135159, lon.=26.366013, Alt.=105.090881m. Speed=0.072000m/h.</desc>
<speed>0.020000</speed>
</trkpt>
<trkpt lat="56.135159" lon="26.366013">
<ele>105.088928</ele>
<time>2010-08-29T15:52:24Z</time>
<desc>lat.=56.135159, lon.=26.366013, Alt.=105.088928m. Speed=0.000000m/h.</desc>
<speed>0.000000</speed>
</trkpt>
<trkpt lat="56.135159" lon="26.366013">
<ele>105.086975</ele>
<time>2010-08-29T15:52:25Z</time>
<desc>lat.=56.135159, lon.=26.366013, Alt.=105.086975m. Speed=0.000000m/h.</desc>
<speed>0.000000</speed>
</trkpt>
<trkpt lat="56.135159" lon="26.366013">
<ele>105.086975</ele>
<time>2010-08-29T15:52:26Z</time>
<desc>lat.=56.135159, lon.=26.366013, Alt.=105.086975m. Speed=0.036000m/h.</desc>
<speed>0.010000</speed>
</trkpt>
<trkpt lat="56.135159" lon="26.366013">
<ele>105.083069</ele>
<time>2010-08-29T15:52:27Z</time>
<desc>lat.=56.135159, lon.=26.366013, Alt.=105.083069m. Speed=0.000000m/h.</desc>
<speed>0.000000</speed>
</trkpt>
<trkpt lat="56.135159" lon="26.366013">
<ele>105.081116</ele>
<time>2010-08-29T15:52:28Z</time>
<desc>lat.=56.135159, lon.=26.366013, Alt.=105.081116m. Speed=0.036000m/h.</desc>
<speed>0.010000</speed>
</trkpt>
<trkpt lat="56.135159" lon="26.366013">
<ele>105.079163</ele>
<time>2010-08-29T15:52:29Z</time>
<desc>lat.=56.135159, lon.=26.366013, Alt.=105.079163m. Speed=0.000000m/h.</desc>
<speed>0.000000</speed>
</trkpt>
<trkpt lat="56.135159" lon="26.366013">
<ele>105.077209</ele>
<time>2010-08-29T15:52:30Z</time>
<desc>lat.=56.135159, lon.=26.366013, Alt.=105.077209m. Speed=0.000000m/h.</desc>
<speed>0.000000</speed>
</trkpt>
<trkpt lat="56.135159" lon="26.366013">
<ele>105.075256</ele>
<time>2010-08-29T15:52:31Z</time>
<desc>lat.=56.135159, lon.=26.366013, Alt.=105.075256m. Speed=0.036000m/h.</desc>
<speed>0.010000</speed>
</trkpt>
<trkpt lat="56.135159" lon="26.366013">
<ele>105.075256</ele>
<time>2010-08-29T15:52:32Z</time>
<desc>lat.=56.135159, lon.=26.366013, Alt.=105.075256m. Speed=0.000000m/h.</desc>
<speed>0.000000</speed>
</trkpt>
<trkpt lat="56.135159" lon="26.366013">
<ele>105.075256</ele>
<time>2010-08-29T15:52:33Z</time>
<desc>lat.=56.135159, lon.=26.366013, Alt.=105.075256m. Speed=0.000000m/h.</desc>
<speed>0.000000</speed>
</trkpt>
<trkpt lat="56.135159" lon="26.366013">
<ele>105.073303</ele>
<time>2010-08-29T15:52:34Z</time>
<desc>lat.=56.135159, lon.=26.366013, Alt.=105.073303m. Speed=0.000000m/h.</desc>
<speed>0.000000</speed>
</trkpt>
<trkpt lat="56.135159" lon="26.366013">
<ele>105.071350</ele>
<time>2010-08-29T15:52:35Z</time>
<desc>lat.=56.135159, lon.=26.366013, Alt.=105.071350m. Speed=0.036000m/h.</desc>
<speed>0.010000</speed>
</trkpt>
<trkpt lat="56.135159" lon="26.366013">
<ele>105.071350</ele>
<time>2010-08-29T15:52:36Z</time>
<desc>lat.=56.135159, lon.=26.366013, Alt.=105.071350m. Speed=0.000000m/h.</desc>
<speed>0.000000</speed>
</trkpt>
<trkpt lat="56.135159" lon="26.366013">
<ele>105.071350</ele>
<time>2010-08-29T15:52:37Z</time>
<desc>lat.=56.135159, lon.=26.366013, Alt.=105.071350m. Speed=0.000000m/h.</desc>
<speed>0.000000</speed>
</trkpt>
<trkpt lat="56.135159" lon="26.366013">
<ele>105.067444</ele>
<time>2010-08-29T15:52:38Z</time>
<desc>lat.=56.135159, lon.=26.366013, Alt.=105.067444m. Speed=0.000000m/h.</desc>
<speed>0.000000</speed>
</trkpt>
<trkpt lat="56.135159" lon="26.366013">
<ele>105.069397</ele>
<time>2010-08-29T15:52:39Z</time>
<desc>lat.=56.135159, lon.=26.366013, Alt.=105.069397m. Speed=0.000000m/h.</desc>
<speed>0.000000</speed>
</trkpt>
<trkpt lat="56.135159" lon="26.366013">
<ele>105.067444</ele>
<time>2010-08-29T15:52:40Z</time>
<desc>lat.=56.135159, lon.=26.366013, Alt.=105.067444m. Speed=0.036000m/h.</desc>
<speed>0.010000</speed>
</trkpt>
<trkpt lat="56.135159" lon="26.366013">
<ele>105.067444</ele>
<time>2010-08-29T15:52:41Z</time>
<desc>lat.=56.135159, lon.=26.366013, Alt.=105.067444m. Speed=0.000000m/h.</desc>
<speed>0.000000</speed>
</trkpt>
<trkpt lat="56.135159" lon="26.366013">
<ele>105.063538</ele>
<time>2010-08-29T15:52:42Z</time>
<desc>lat.=56.135159, lon.=26.366013, Alt.=105.063538m. Speed=0.036000m/h.</desc>
<speed>0.010000</speed>
</trkpt>
<trkpt lat="56.135159" lon="26.366013">
<ele>105.059631</ele>
<time>2010-08-29T15:52:43Z</time>
<desc>lat.=56.135159, lon.=26.366013, Alt.=105.059631m. Speed=0.000000m/h.</desc>
<speed>0.000000</speed>
</trkpt>
<trkpt lat="56.135159" lon="26.366013">
<ele>105.057678</ele>
<time>2010-08-29T15:52:44Z</time>
<desc>lat.=56.135159, lon.=26.366013, Alt.=105.057678m. Speed=0.000000m/h.</desc>
<speed>0.000000</speed>
</trkpt>
<trkpt lat="56.135159" lon="26.366013">
<ele>105.055725</ele>
<time>2010-08-29T15:52:45Z</time>
<desc>lat.=56.135159, lon.=26.366013, Alt.=105.055725m. Speed=0.000000m/h.</desc>
<speed>0.000000</speed>
</trkpt>
<trkpt lat="56.135159" lon="26.366013">
<ele>105.053772</ele>
<time>2010-08-29T15:52:46Z</time>
<desc>lat.=56.135159, lon.=26.366013, Alt.=105.053772m. Speed=0.000000m/h.</desc>
<speed>0.000000</speed>
</trkpt>
<trkpt lat="56.135159" lon="26.366013">
<ele>105.055725</ele>
<time>2010-08-29T15:52:47Z</time>
<desc>lat.=56.135159, lon.=26.366013, Alt.=105.055725m. Speed=0.036000m/h.</desc>
<speed>0.010000</speed>
</trkpt>
<trkpt lat="56.135159" lon="26.366013">
<ele>105.055725</ele>
<time>2010-08-29T15:52:48Z</time>
<desc>lat.=56.135159, lon.=26.366013, Alt.=105.055725m. Speed=0.000000m/h.</desc>
<speed>0.000000</speed>
</trkpt>
<trkpt lat="56.135159" lon="26.366013">
<ele>105.055725</ele>
<time>2010-08-29T15:52:49Z</time>
<desc>lat.=56.135159, lon.=26.366013, Alt.=105.055725m. Speed=0.000000m/h.</desc>
<speed>0.000000</speed>
</trkpt>
<trkpt lat="56.135159" lon="26.366013">
<ele>105.053772</ele>
<time>2010-08-29T15:52:50Z</time>
<desc>lat.=56.135159, lon.=26.366013, Alt.=105.053772m. Speed=0.036000m/h.</desc>
<speed>0.010000</speed>
</trkpt>
<trkpt lat="56.135159" lon="26.366013">
<ele>105.049866</ele>
<time>2010-08-29T15:52:51Z</time>
<desc>lat.=56.135159, lon.=26.366013, Alt.=105.049866m. Speed=0.072000m/h.</desc>
<speed>0.020000</speed>
</trkpt>
<trkpt lat="56.135159" lon="26.366013">
<ele>105.045959</ele>
<time>2010-08-29T15:52:52Z</time>
<desc>lat.=56.135159, lon.=26.366013, Alt.=105.045959m. Speed=0.036000m/h.</desc>
<speed>0.010000</speed>
</trkpt>
<trkpt lat="56.135159" lon="26.366013">
<ele>105.042053</ele>
<time>2010-08-29T15:52:53Z</time>
<desc>lat.=56.135159, lon.=26.366013, Alt.=105.042053m. Speed=0.036000m/h.</desc>
<speed>0.010000</speed>
</trkpt>
<trkpt lat="56.135159" lon="26.366013">
<ele>105.038147</ele>
<time>2010-08-29T15:52:54Z</time>
<desc>lat.=56.135159, lon.=26.366013, Alt.=105.038147m. Speed=0.036000m/h.</desc>
<speed>0.010000</speed>
</trkpt>
<trkpt lat="56.135159" lon="26.366013">
<ele>105.036194</ele>
<time>2010-08-29T15:52:55Z</time>
<desc>lat.=56.135159, lon.=26.366013, Alt.=105.036194m. Speed=0.036000m/h.</desc>
<speed>0.010000</speed>
</trkpt>
<trkpt lat="56.135159" lon="26.366013">
<ele>105.036194</ele>
<time>2010-08-29T15:52:56Z</time>
<desc>lat.=56.135159, lon.=26.366013, Alt.=105.036194m. Speed=0.036000m/h.</desc>
<speed>0.010000</speed>
</trkpt>
<trkpt lat="56.135159" lon="26.366013">
<ele>105.038147</ele>
<time>2010-08-29T15:52:57Z</time>
<desc>lat.=56.135159, lon.=26.366013, Alt.=105.038147m. Speed=0.000000m/h.</desc>
<speed>0.000000</speed>
</trkpt>
<trkpt lat="56.135159" lon="26.366013">
<ele>105.040100</ele>
<time>2010-08-29T15:52:58Z</time>
<desc>lat.=56.135159, lon.=26.366013, Alt.=105.040100m. Speed=0.072000m/h.</desc>
<speed>0.020000</speed>
</trkpt>
<trkpt lat="56.135159" lon="26.366013">
<ele>105.038147</ele>
<time>2010-08-29T15:52:59Z</time>
<desc>lat.=56.135159, lon.=26.366013, Alt.=105.038147m. Speed=0.036000m/h.</desc>
<speed>0.010000</speed>
</trkpt>
<trkpt lat="56.135159" lon="26.366013">
<ele>105.036194</ele>
<time>2010-08-29T15:53:00Z</time>
<desc>lat.=56.135159, lon.=26.366013, Alt.=105.036194m. Speed=0.000000m/h.</desc>
<speed>0.000000</speed>
</trkpt>
<trkpt lat="56.135159" lon="26.366013">
<ele>105.034241</ele>
<time>2010-08-29T15:53:01Z</time>
<desc>lat.=56.135159, lon.=26.366013, Alt.=105.034241m. Speed=0.036000m/h.</desc>
<speed>0.010000</speed>
</trkpt>
<trkpt lat="56.135159" lon="26.366013">
<ele>105.032288</ele>
<time>2010-08-29T15:53:02Z</time>
<desc>lat.=56.135159, lon.=26.366013, Alt.=105.032288m. Speed=0.036000m/h.</desc>
<speed>0.010000</speed>
</trkpt>
<trkpt lat="56.135159" lon="26.366013">
<ele>105.032288</ele>
<time>2010-08-29T15:53:03Z</time>
<desc>lat.=56.135159, lon.=26.366013, Alt.=105.032288m. Speed=0.036000m/h.</desc>
<speed>0.010000</speed>
</trkpt>
<trkpt lat="56.135159" lon="26.366013">
<ele>105.032288</ele>
<time>2010-08-29T15:53:04Z</time>
<desc>lat.=56.135159, lon.=26.366013, Alt.=105.032288m. Speed=0.000000m/h.</desc>
<speed>0.000000</speed>
</trkpt>
<trkpt lat="56.135159" lon="26.366013">
<ele>105.034241</ele>
<time>2010-08-29T15:53:05Z</time>
<desc>lat.=56.135159, lon.=26.366013, Alt.=105.034241m. Speed=0.000000m/h.</desc>
<speed>0.000000</speed>
</trkpt>
<trkpt lat="56.135159" lon="26.366013">
<ele>105.036194</ele>
<time>2010-08-29T15:53:06Z</time>
<desc>lat.=56.135159, lon.=26.366013, Alt.=105.036194m. Speed=0.000000m/h.</desc>
<speed>0.000000</speed>
</trkpt>
<trkpt lat="56.135159" lon="26.366013">
<ele>105.034241</ele>
<time>2010-08-29T15:53:07Z</time>
<desc>lat.=56.135159, lon.=26.366013, Alt.=105.034241m. Speed=0.000000m/h.</desc>
<speed>0.000000</speed>
</trkpt>
<trkpt lat="56.135159" lon="26.366013">
<ele>105.032288</ele>
<time>2010-08-29T15:53:08Z</time>
<desc>lat.=56.135159, lon.=26.366013, Alt.=105.032288m. Speed=0.000000m/h.</desc>
<speed>0.000000</speed>
</trkpt>
<trkpt lat="56.135159" lon="26.366013">
<ele>105.032288</ele>
<time>2010-08-29T15:53:09Z</time>
<desc>lat.=56.135159, lon.=26.366013, Alt.=105.032288m. Speed=0.000000m/h.</desc>
<speed>0.000000</speed>
</trkpt>
<trkpt lat="56.135159" lon="26.366013">
<ele>105.032288</ele>
<time>2010-08-29T15:53:10Z</time>
<desc>lat.=56.135159, lon.=26.366013, Alt.=105.032288m. Speed=0.000000m/h.</desc>
<speed>0.000000</speed>
</trkpt>
<trkpt lat="56.135159" lon="26.366013">
<ele>105.032288</ele>
<time>2010-08-29T15:53:11Z</time>
<desc>lat.=56.135159, lon.=26.366013, Alt.=105.032288m. Speed=0.000000m/h.</desc>
<speed>0.000000</speed>
</trkpt>
<trkpt lat="56.135159" lon="26.366013">
<ele>105.030334</ele>
<time>2010-08-29T15:53:12Z</time>
<desc>lat.=56.135159, lon.=26.366013, Alt.=105.030334m. Speed=0.000000m/h.</desc>
<speed>0.000000</speed>
</trkpt>
<trkpt lat="56.135159" lon="26.366013">
<ele>105.028381</ele>
<time>2010-08-29T15:53:13Z</time>
<desc>lat.=56.135159, lon.=26.366013, Alt.=105.028381m. Speed=0.000000m/h.</desc>
<speed>0.000000</speed>
</trkpt>
<trkpt lat="56.135159" lon="26.366013">
<ele>105.028381</ele>
<time>2010-08-29T15:53:14Z</time>
<desc>lat.=56.135159, lon.=26.366013, Alt.=105.028381m. Speed=0.000000m/h.</desc>
<speed>0.000000</speed>
</trkpt>
<trkpt lat="56.135159" lon="26.366013">
<ele>105.028381</ele>
<time>2010-08-29T15:53:15Z</time>
<desc>lat.=56.135159, lon.=26.366013, Alt.=105.028381m. Speed=0.000000m/h.</desc>
<speed>0.000000</speed>
</trkpt>
<trkpt lat="56.135159" lon="26.366013">
<ele>105.026428</ele>
<time>2010-08-29T15:53:16Z</time>
<desc>lat.=56.135159, lon.=26.366013, Alt.=105.026428m. Speed=0.000000m/h.</desc>
<speed>0.000000</speed>
</trkpt>
<trkpt lat="56.135159" lon="26.366013">
<ele>105.026428</ele>
<time>2010-08-29T15:53:17Z</time>
<desc>lat.=56.135159, lon.=26.366013, Alt.=105.026428m. Speed=0.000000m/h.</desc>
<speed>0.000000</speed>
</trkpt>
<trkpt lat="56.135159" lon="26.366013">
<ele>105.028381</ele>
<time>2010-08-29T15:53:18Z</time>
<desc>lat.=56.135159, lon.=26.366013, Alt.=105.028381m. Speed=0.000000m/h.</desc>
<speed>0.000000</speed>
</trkpt>
<trkpt lat="56.135159" lon="26.366013">
<ele>105.026428</ele>
<time>2010-08-29T15:53:19Z</time>
<desc>lat.=56.135159, lon.=26.366013, Alt.=105.026428m. Speed=0.000000m/h.</desc>
<speed>0.000000</speed>
</trkpt>
<trkpt lat="56.135159" lon="26.366013">
<ele>105.028381</ele>
<time>2010-08-29T15:53:20Z</time>
<desc>lat.=56.135159, lon.=26.366013, Alt.=105.028381m. Speed=0.000000m/h.</desc>
<speed>0.000000</speed>
</trkpt>
<trkpt lat="56.135159" lon="26.366013">
<ele>105.028381</ele>
<time>2010-08-29T15:53:21Z</time>
<desc>lat.=56.135159, lon.=26.366013, Alt.=105.028381m. Speed=0.036000m/h.</desc>
<speed>0.010000</speed>
</trkpt>
<trkpt lat="56.135159" lon="26.366013">
<ele>105.032288</ele>
<time>2010-08-29T15:53:22Z</time>
<desc>lat.=56.135159, lon.=26.366013, Alt.=105.032288m. Speed=0.036000m/h.</desc>
<speed>0.010000</speed>
</trkpt>
<trkpt lat="56.135159" lon="26.366013">
<ele>105.032288</ele>
<time>2010-08-29T15:53:23Z</time>
<desc>lat.=56.135159, lon.=26.366013, Alt.=105.032288m. Speed=0.000000m/h.</desc>
<speed>0.000000</speed>
</trkpt>
<trkpt lat="56.135159" lon="26.366013">
<ele>105.034241</ele>
<time>2010-08-29T15:53:24Z</time>
<desc>lat.=56.135159, lon.=26.366013, Alt.=105.034241m. Speed=0.036000m/h.</desc>
<speed>0.010000</speed>
</trkpt>
<trkpt lat="56.135159" lon="26.366013">
<ele>105.034241</ele>
<time>2010-08-29T15:53:25Z</time>
<desc>lat.=56.135159, lon.=26.366013, Alt.=105.034241m. Speed=0.000000m/h.</desc>
<speed>0.000000</speed>
</trkpt>
<trkpt lat="56.135159" lon="26.366011">
<ele>105.036194</ele>
<time>2010-08-29T15:53:26Z</time>
<desc>lat.=56.135159, lon.=26.366011, Alt.=105.036194m. Speed=0.000000m/h.</desc>
<speed>0.000000</speed>
</trkpt>
<trkpt lat="56.135159" lon="26.366011">
<ele>105.038147</ele>
<time>2010-08-29T15:53:27Z</time>
<desc>lat.=56.135159, lon.=26.366011, Alt.=105.038147m. Speed=0.000000m/h.</desc>
<speed>0.000000</speed>
</trkpt>
<trkpt lat="56.135159" lon="26.366011">
<ele>105.038147</ele>
<time>2010-08-29T15:53:28Z</time>
<desc>lat.=56.135159, lon.=26.366011, Alt.=105.038147m. Speed=0.000000m/h.</desc>
<speed>0.000000</speed>
</trkpt>
<trkpt lat="56.135159" lon="26.366011">
<ele>105.042053</ele>
<time>2010-08-29T15:53:29Z</time>
<desc>lat.=56.135159, lon.=26.366011, Alt.=105.042053m. Speed=0.036000m/h.</desc>
<speed>0.010000</speed>
</trkpt>
<trkpt lat="56.135159" lon="26.366011">
<ele>105.044006</ele>
<time>2010-08-29T15:53:30Z</time>
<desc>lat.=56.135159, lon.=26.366011, Alt.=105.044006m. Speed=0.000000m/h.</desc>
<speed>0.000000</speed>
</trkpt>
<trkpt lat="56.135159" lon="26.366013">
<ele>105.045959</ele>
<time>2010-08-29T15:53:31Z</time>
<desc>lat.=56.135159, lon.=26.366013, Alt.=105.045959m. Speed=0.000000m/h.</desc>
<speed>0.000000</speed>
</trkpt>
<trkpt lat="56.135159" lon="26.366013">
<ele>105.047913</ele>
<time>2010-08-29T15:53:32Z</time>
<desc>lat.=56.135159, lon.=26.366013, Alt.=105.047913m. Speed=0.000000m/h.</desc>
<speed>0.000000</speed>
</trkpt>
<trkpt lat="56.135159" lon="26.366013">
<ele>105.051819</ele>
<time>2010-08-29T15:53:33Z</time>
<desc>lat.=56.135159, lon.=26.366013, Alt.=105.051819m. Speed=0.000000m/h.</desc>
<speed>0.000000</speed>
</trkpt>
<trkpt lat="56.135159" lon="26.366013">
<ele>105.053772</ele>
<time>2010-08-29T15:53:34Z</time>
<desc>lat.=56.135159, lon.=26.366013, Alt.=105.053772m. Speed=0.000000m/h.</desc>
<speed>0.000000</speed>
</trkpt>
<trkpt lat="56.135159" lon="26.366013">
<ele>105.055725</ele>
<time>2010-08-29T15:53:35Z</time>
<desc>lat.=56.135159, lon.=26.366013, Alt.=105.055725m. Speed=0.036000m/h.</desc>
<speed>0.010000</speed>
</trkpt>
<trkpt lat="56.135159" lon="26.366013">
<ele>105.059631</ele>
<time>2010-08-29T15:53:36Z</time>
<desc>lat.=56.135159, lon.=26.366013, Alt.=105.059631m. Speed=0.000000m/h.</desc>
<speed>0.000000</speed>
</trkpt>
<trkpt lat="56.135159" lon="26.366013">
<ele>105.061584</ele>
<time>2010-08-29T15:53:37Z</time>
<desc>lat.=56.135159, lon.=26.366013, Alt.=105.061584m. Speed=0.000000m/h.</desc>
<speed>0.000000</speed>
</trkpt>
<trkpt lat="56.135159" lon="26.366013">
<ele>105.065491</ele>
<time>2010-08-29T15:53:38Z</time>
<desc>lat.=56.135159, lon.=26.366013, Alt.=105.065491m. Speed=0.036000m/h.</desc>
<speed>0.010000</speed>
</trkpt>
<trkpt lat="56.135159" lon="26.366013">
<ele>105.065491</ele>
<time>2010-08-29T15:53:39Z</time>
<desc>lat.=56.135159, lon.=26.366013, Alt.=105.065491m. Speed=0.000000m/h.</desc>
<speed>0.000000</speed>
</trkpt>
<trkpt lat="56.135159" lon="26.366013">
<ele>105.067444</ele>
<time>2010-08-29T15:53:40Z</time>
<desc>lat.=56.135159, lon.=26.366013, Alt.=105.067444m. Speed=0.000000m/h.</desc>
<speed>0.000000</speed>
</trkpt>
<trkpt lat="56.135159" lon="26.366013">
<ele>105.069397</ele>
<time>2010-08-29T15:53:41Z</time>
<desc>lat.=56.135159, lon.=26.366013, Alt.=105.069397m. Speed=0.036000m/h.</desc>
<speed>0.010000</speed>
</trkpt>
<trkpt lat="56.135159" lon="26.366013">
<ele>105.071350</ele>
<time>2010-08-29T15:53:42Z</time>
<desc>lat.=56.135159, lon.=26.366013, Alt.=105.071350m. Speed=0.000000m/h.</desc>
<speed>0.000000</speed>
</trkpt>
<trkpt lat="56.135159" lon="26.366013">
<ele>105.073303</ele>
<time>2010-08-29T15:53:43Z</time>
<desc>lat.=56.135159, lon.=26.366013, Alt.=105.073303m. Speed=0.036000m/h.</desc>
<speed>0.010000</speed>
</trkpt>
<trkpt lat="56.135159" lon="26.366013">
<ele>105.075256</ele>
<time>2010-08-29T15:53:44Z</time>
<desc>lat.=56.135159, lon.=26.366013, Alt.=105.075256m. Speed=0.000000m/h.</desc>
<speed>0.000000</speed>
</trkpt>
<trkpt lat="56.135159" lon="26.366013">
<ele>105.077209</ele>
<time>2010-08-29T15:53:45Z</time>
<desc>lat.=56.135159, lon.=26.366013, Alt.=105.077209m. Speed=0.036000m/h.</desc>
<speed>0.010000</speed>
</trkpt>
<trkpt lat="56.135159" lon="26.366013">
<ele>105.079163</ele>
<time>2010-08-29T15:53:46Z</time>
<desc>lat.=56.135159, lon.=26.366013, Alt.=105.079163m. Speed=0.072000m/h.</desc>
<speed>0.020000</speed>
</trkpt>
<trkpt lat="56.135159" lon="26.366013">
<ele>105.081116</ele>
<time>2010-08-29T15:53:47Z</time>
<desc>lat.=56.135159, lon.=26.366013, Alt.=105.081116m. Speed=0.000000m/h.</desc>
<speed>0.000000</speed>
</trkpt>
<trkpt lat="56.135159" lon="26.366013">
<ele>105.081116</ele>
<time>2010-08-29T15:53:48Z</time>
<desc>lat.=56.135159, lon.=26.366013, Alt.=105.081116m. Speed=0.000000m/h.</desc>
<speed>0.000000</speed>
</trkpt>
<trkpt lat="56.135159" lon="26.366013">
<ele>105.081116</ele>
<time>2010-08-29T15:53:49Z</time>
<desc>lat.=56.135159, lon.=26.366013, Alt.=105.081116m. Speed=0.000000m/h.</desc>
<speed>0.000000</speed>
</trkpt>
<trkpt lat="56.135159" lon="26.366013">
<ele>105.081116</ele>
<time>2010-08-29T15:53:50Z</time>
<desc>lat.=56.135159, lon.=26.366013, Alt.=105.081116m. Speed=0.036000m/h.</desc>
<speed>0.010000</speed>
</trkpt>
<trkpt lat="56.135159" lon="26.366013">
<ele>105.079163</ele>
<time>2010-08-29T15:53:51Z</time>
<desc>lat.=56.135159, lon.=26.366013, Alt.=105.079163m. Speed=0.000000m/h.</desc>
<speed>0.000000</speed>
</trkpt>
<trkpt lat="56.135159" lon="26.366013">
<ele>105.079163</ele>
<time>2010-08-29T15:53:52Z</time>
<desc>lat.=56.135159, lon.=26.366013, Alt.=105.079163m. Speed=0.036000m/h.</desc>
<speed>0.010000</speed>
</trkpt>
<trkpt lat="56.135159" lon="26.366013">
<ele>105.079163</ele>
<time>2010-08-29T15:53:53Z</time>
<desc>lat.=56.135159, lon.=26.366013, Alt.=105.079163m. Speed=0.000000m/h.</desc>
<speed>0.000000</speed>
</trkpt>
<trkpt lat="56.135159" lon="26.366013">
<ele>105.079163</ele>
<time>2010-08-29T15:53:54Z</time>
<desc>lat.=56.135159, lon.=26.366013, Alt.=105.079163m. Speed=0.000000m/h.</desc>
<speed>0.000000</speed>
</trkpt>
<trkpt lat="56.135159" lon="26.366013">
<ele>105.077209</ele>
<time>2010-08-29T15:53:55Z</time>
<desc>lat.=56.135159, lon.=26.366013, Alt.=105.077209m. Speed=0.036000m/h.</desc>
<speed>0.010000</speed>
</trkpt>
<trkpt lat="56.135159" lon="26.366013">
<ele>105.077209</ele>
<time>2010-08-29T15:53:56Z</time>
<desc>lat.=56.135159, lon.=26.366013, Alt.=105.077209m. Speed=0.000000m/h.</desc>
<speed>0.000000</speed>
</trkpt>
<trkpt lat="56.135159" lon="26.366013">
<ele>105.077209</ele>
<time>2010-08-29T15:53:57Z</time>
<desc>lat.=56.135159, lon.=26.366013, Alt.=105.077209m. Speed=0.036000m/h.</desc>
<speed>0.010000</speed>
</trkpt>
<trkpt lat="56.135159" lon="26.366013">
<ele>105.077209</ele>
<time>2010-08-29T15:53:58Z</time>
<desc>lat.=56.135159, lon.=26.366013, Alt.=105.077209m. Speed=0.036000m/h.</desc>
<speed>0.010000</speed>
</trkpt>
<trkpt lat="56.135159" lon="26.366013">
<ele>105.077209</ele>
<time>2010-08-29T15:53:59Z</time>
<desc>lat.=56.135159, lon.=26.366013, Alt.=105.077209m. Speed=0.000000m/h.</desc>
<speed>0.000000</speed>
</trkpt>
<trkpt lat="56.135159" lon="26.366013">
<ele>105.075256</ele>
<time>2010-08-29T15:54:00Z</time>
<desc>lat.=56.135159, lon.=26.366013, Alt.=105.075256m. Speed=0.000000m/h.</desc>
<speed>0.000000</speed>
</trkpt>
<trkpt lat="56.135159" lon="26.366013">
<ele>105.075256</ele>
<time>2010-08-29T15:54:01Z</time>
<desc>lat.=56.135159, lon.=26.366013, Alt.=105.075256m. Speed=0.036000m/h.</desc>
<speed>0.010000</speed>
</trkpt>
<trkpt lat="56.135159" lon="26.366013">
<ele>105.075256</ele>
<time>2010-08-29T15:54:02Z</time>
<desc>lat.=56.135159, lon.=26.366013, Alt.=105.075256m. Speed=0.036000m/h.</desc>
<speed>0.010000</speed>
</trkpt>
<trkpt lat="56.135159" lon="26.366013">
<ele>105.075256</ele>
<time>2010-08-29T15:54:03Z</time>
<desc>lat.=56.135159, lon.=26.366013, Alt.=105.075256m. Speed=0.036000m/h.</desc>
<speed>0.010000</speed>
</trkpt>
<trkpt lat="56.135159" lon="26.366013">
<ele>105.075256</ele>
<time>2010-08-29T15:54:04Z</time>
<desc>lat.=56.135159, lon.=26.366013, Alt.=105.075256m. Speed=0.000000m/h.</desc>
<speed>0.000000</speed>
</trkpt>
<trkpt lat="56.135159" lon="26.366013">
<ele>105.075256</ele>
<time>2010-08-29T15:54:05Z</time>
<desc>lat.=56.135159, lon.=26.366013, Alt.=105.075256m. Speed=0.000000m/h.</desc>
<speed>0.000000</speed>
</trkpt>
<trkpt lat="56.135159" lon="26.366013">
<ele>105.073303</ele>
<time>2010-08-29T15:54:06Z</time>
<desc>lat.=56.135159, lon.=26.366013, Alt.=105.073303m. Speed=0.000000m/h.</desc>
<speed>0.000000</speed>
</trkpt>
<trkpt lat="56.135159" lon="26.366013">
<ele>105.073303</ele>
<time>2010-08-29T15:54:07Z</time>
<desc>lat.=56.135159, lon.=26.366013, Alt.=105.073303m. Speed=0.000000m/h.</desc>
<speed>0.000000</speed>
</trkpt>
<trkpt lat="56.135159" lon="26.366013">
<ele>105.071350</ele>
<time>2010-08-29T15:54:08Z</time>
<desc>lat.=56.135159, lon.=26.366013, Alt.=105.071350m. Speed=0.000000m/h.</desc>
<speed>0.000000</speed>
</trkpt>
<trkpt lat="56.135159" lon="26.366013">
<ele>105.071350</ele>
<time>2010-08-29T15:54:09Z</time>
<desc>lat.=56.135159, lon.=26.366013, Alt.=105.071350m. Speed=0.000000m/h.</desc>
<speed>0.000000</speed>
</trkpt>
<trkpt lat="56.135159" lon="26.366013">
<ele>105.071350</ele>
<time>2010-08-29T15:54:10Z</time>
<desc>lat.=56.135159, lon.=26.366013, Alt.=105.071350m. Speed=0.000000m/h.</desc>
<speed>0.000000</speed>
</trkpt>
<trkpt lat="56.135159" lon="26.366013">
<ele>105.071350</ele>
<time>2010-08-29T15:54:11Z</time>
<desc>lat.=56.135159, lon.=26.366013, Alt.=105.071350m. Speed=0.000000m/h.</desc>
<speed>0.000000</speed>
</trkpt>
<trkpt lat="56.135159" lon="26.366013">
<ele>105.073303</ele>
<time>2010-08-29T15:54:12Z</time>
<desc>lat.=56.135159, lon.=26.366013, Alt.=105.073303m. Speed=0.000000m/h.</desc>
<speed>0.000000</speed>
</trkpt>
<trkpt lat="56.135159" lon="26.366013">
<ele>105.073303</ele>
<time>2010-08-29T15:54:13Z</time>
<desc>lat.=56.135159, lon.=26.366013, Alt.=105.073303m. Speed=0.000000m/h.</desc>
<speed>0.000000</speed>
</trkpt>
<trkpt lat="56.135159" lon="26.366013">
<ele>105.073303</ele>
<time>2010-08-29T15:54:14Z</time>
<desc>lat.=56.135159, lon.=26.366013, Alt.=105.073303m. Speed=0.000000m/h.</desc>
<speed>0.000000</speed>
</trkpt>
<trkpt lat="56.135159" lon="26.366013">
<ele>105.071350</ele>
<time>2010-08-29T15:54:15Z</time>
<desc>lat.=56.135159, lon.=26.366013, Alt.=105.071350m. Speed=0.000000m/h.</desc>
<speed>0.000000</speed>
</trkpt>
<trkpt lat="56.135159" lon="26.366013">
<ele>105.069397</ele>
<time>2010-08-29T15:54:16Z</time>
<desc>lat.=56.135159, lon.=26.366013, Alt.=105.069397m. Speed=0.000000m/h.</desc>
<speed>0.000000</speed>
</trkpt>
<trkpt lat="56.135159" lon="26.366013">
<ele>105.069397</ele>
<time>2010-08-29T15:54:17Z</time>
<desc>lat.=56.135159, lon.=26.366013, Alt.=105.069397m. Speed=0.000000m/h.</desc>
<speed>0.000000</speed>
</trkpt>
<trkpt lat="56.135159" lon="26.366013">
<ele>105.069397</ele>
<time>2010-08-29T15:54:18Z</time>
<desc>lat.=56.135159, lon.=26.366013, Alt.=105.069397m. Speed=0.000000m/h.</desc>
<speed>0.000000</speed>
</trkpt>
<trkpt lat="56.135159" lon="26.366013">
<ele>105.069397</ele>
<time>2010-08-29T15:54:19Z</time>
<desc>lat.=56.135159, lon.=26.366013, Alt.=105.069397m. Speed=0.000000m/h.</desc>
<speed>0.000000</speed>
</trkpt>
<trkpt lat="56.135159" lon="26.366013">
<ele>105.069397</ele>
<time>2010-08-29T15:54:20Z</time>
<desc>lat.=56.135159, lon.=26.366013, Alt.=105.069397m. Speed=0.000000m/h.</desc>
<speed>0.000000</speed>
</trkpt>
<trkpt lat="56.135159" lon="26.366013">
<ele>105.069397</ele>
<time>2010-08-29T15:54:21Z</time>
<desc>lat.=56.135159, lon.=26.366013, Alt.=105.069397m. Speed=0.036000m/h.</desc>
<speed>0.010000</speed>
</trkpt>
<trkpt lat="56.135159" lon="26.366013">
<ele>105.069397</ele>
<time>2010-08-29T15:54:22Z</time>
<desc>lat.=56.135159, lon.=26.366013, Alt.=105.069397m. Speed=0.000000m/h.</desc>
<speed>0.000000</speed>
</trkpt>
<trkpt lat="56.135159" lon="26.366013">
<ele>105.069397</ele>
<time>2010-08-29T15:54:23Z</time>
<desc>lat.=56.135159, lon.=26.366013, Alt.=105.069397m. Speed=0.000000m/h.</desc>
<speed>0.000000</speed>
</trkpt>
<trkpt lat="56.135159" lon="26.366013">
<ele>105.069397</ele>
<time>2010-08-29T15:54:24Z</time>
<desc>lat.=56.135159, lon.=26.366013, Alt.=105.069397m. Speed=0.000000m/h.</desc>
<speed>0.000000</speed>
</trkpt>
<trkpt lat="56.135159" lon="26.366013">
<ele>105.067444</ele>
<time>2010-08-29T15:54:25Z</time>
<desc>lat.=56.135159, lon.=26.366013, Alt.=105.067444m. Speed=0.036000m/h.</desc>
<speed>0.010000</speed>
</trkpt>
<trkpt lat="56.135159" lon="26.366013">
<ele>105.067444</ele>
<time>2010-08-29T15:54:26Z</time>
<desc>lat.=56.135159, lon.=26.366013, Alt.=105.067444m. Speed=0.036000m/h.</desc>
<speed>0.010000</speed>
</trkpt>
<trkpt lat="56.135159" lon="26.366013">
<ele>105.067444</ele>
<time>2010-08-29T15:54:27Z</time>
<desc>lat.=56.135159, lon.=26.366013, Alt.=105.067444m. Speed=0.036000m/h.</desc>
<speed>0.010000</speed>
</trkpt>
<trkpt lat="56.135159" lon="26.366013">
<ele>105.065491</ele>
<time>2010-08-29T15:54:28Z</time>
<desc>lat.=56.135159, lon.=26.366013, Alt.=105.065491m. Speed=0.036000m/h.</desc>
<speed>0.010000</speed>
</trkpt>
<trkpt lat="56.135159" lon="26.366013">
<ele>105.063538</ele>
<time>2010-08-29T15:54:29Z</time>
<desc>lat.=56.135159, lon.=26.366013, Alt.=105.063538m. Speed=0.036000m/h.</desc>
<speed>0.010000</speed>
</trkpt>
<trkpt lat="56.135159" lon="26.366013">
<ele>105.061584</ele>
<time>2010-08-29T15:54:30Z</time>
<desc>lat.=56.135159, lon.=26.366013, Alt.=105.061584m. Speed=0.036000m/h.</desc>
<speed>0.010000</speed>
</trkpt>
<trkpt lat="56.135159" lon="26.366013">
<ele>105.059631</ele>
<time>2010-08-29T15:54:31Z</time>
<desc>lat.=56.135159, lon.=26.366013, Alt.=105.059631m. Speed=0.000000m/h.</desc>
<speed>0.000000</speed>
</trkpt>
<trkpt lat="56.135159" lon="26.366013">
<ele>105.057678</ele>
<time>2010-08-29T15:54:32Z</time>
<desc>lat.=56.135159, lon.=26.366013, Alt.=105.057678m. Speed=0.000000m/h.</desc>
<speed>0.000000</speed>
</trkpt>
<trkpt lat="56.135159" lon="26.366013">
<ele>105.057678</ele>
<time>2010-08-29T15:54:33Z</time>
<desc>lat.=56.135159, lon.=26.366013, Alt.=105.057678m. Speed=0.000000m/h.</desc>
<speed>0.000000</speed>
</trkpt>
<trkpt lat="56.135159" lon="26.366013">
<ele>105.055725</ele>
<time>2010-08-29T15:54:34Z</time>
<desc>lat.=56.135159, lon.=26.366013, Alt.=105.055725m. Speed=0.000000m/h.</desc>
<speed>0.000000</speed>
</trkpt>
<trkpt lat="56.135159" lon="26.366013">
<ele>105.055725</ele>
<time>2010-08-29T15:54:35Z</time>
<desc>lat.=56.135159, lon.=26.366013, Alt.=105.055725m. Speed=0.000000m/h.</desc>
<speed>0.000000</speed>
</trkpt>
<trkpt lat="56.135159" lon="26.366013">
<ele>105.055725</ele>
<time>2010-08-29T15:54:36Z</time>
<desc>lat.=56.135159, lon.=26.366013, Alt.=105.055725m. Speed=0.036000m/h.</desc>
<speed>0.010000</speed>
</trkpt>
<trkpt lat="56.135159" lon="26.366013">
<ele>105.053772</ele>
<time>2010-08-29T15:54:37Z</time>
<desc>lat.=56.135159, lon.=26.366013, Alt.=105.053772m. Speed=0.000000m/h.</desc>
<speed>0.000000</speed>
</trkpt>
<trkpt lat="56.135159" lon="26.366013">
<ele>105.051819</ele>
<time>2010-08-29T15:54:38Z</time>
<desc>lat.=56.135159, lon.=26.366013, Alt.=105.051819m. Speed=0.000000m/h.</desc>
<speed>0.000000</speed>
</trkpt>
<trkpt lat="56.135159" lon="26.366013">
<ele>105.049866</ele>
<time>2010-08-29T15:54:39Z</time>
<desc>lat.=56.135159, lon.=26.366013, Alt.=105.049866m. Speed=0.000000m/h.</desc>
<speed>0.000000</speed>
</trkpt>
<trkpt lat="56.135159" lon="26.366013">
<ele>105.051819</ele>
<time>2010-08-29T15:54:40Z</time>
<desc>lat.=56.135159, lon.=26.366013, Alt.=105.051819m. Speed=0.036000m/h.</desc>
<speed>0.010000</speed>
</trkpt>
<trkpt lat="56.135159" lon="26.366013">
<ele>105.049866</ele>
<time>2010-08-29T15:54:41Z</time>
<desc>lat.=56.135159, lon.=26.366013, Alt.=105.049866m. Speed=0.036000m/h.</desc>
<speed>0.010000</speed>
</trkpt>
<trkpt lat="56.135159" lon="26.366013">
<ele>105.047913</ele>
<time>2010-08-29T15:54:42Z</time>
<desc>lat.=56.135159, lon.=26.366013, Alt.=105.047913m. Speed=0.036000m/h.</desc>
<speed>0.010000</speed>
</trkpt>
<trkpt lat="56.135159" lon="26.366013">
<ele>105.047913</ele>
<time>2010-08-29T15:54:43Z</time>
<desc>lat.=56.135159, lon.=26.366013, Alt.=105.047913m. Speed=0.000000m/h.</desc>
<speed>0.000000</speed>
</trkpt>
<trkpt lat="56.135159" lon="26.366013">
<ele>105.045959</ele>
<time>2010-08-29T15:54:44Z</time>
<desc>lat.=56.135159, lon.=26.366013, Alt.=105.045959m. Speed=0.000000m/h.</desc>
<speed>0.000000</speed>
</trkpt>
<trkpt lat="56.135159" lon="26.366013">
<ele>105.044006</ele>
<time>2010-08-29T15:54:45Z</time>
<desc>lat.=56.135159, lon.=26.366013, Alt.=105.044006m. Speed=0.000000m/h.</desc>
<speed>0.000000</speed>
</trkpt>
<trkpt lat="56.135159" lon="26.366013">
<ele>105.044006</ele>
<time>2010-08-29T15:54:46Z</time>
<desc>lat.=56.135159, lon.=26.366013, Alt.=105.044006m. Speed=0.000000m/h.</desc>
<speed>0.000000</speed>
</trkpt>
<trkpt lat="56.135159" lon="26.366013">
<ele>105.042053</ele>
<time>2010-08-29T15:54:47Z</time>
<desc>lat.=56.135159, lon.=26.366013, Alt.=105.042053m. Speed=0.072000m/h.</desc>
<speed>0.020000</speed>
</trkpt>
<trkpt lat="56.135159" lon="26.366013">
<ele>105.042053</ele>
<time>2010-08-29T15:54:48Z</time>
<desc>lat.=56.135159, lon.=26.366013, Alt.=105.042053m. Speed=0.036000m/h.</desc>
<speed>0.010000</speed>
</trkpt>
<trkpt lat="56.135159" lon="26.366013">
<ele>105.042053</ele>
<time>2010-08-29T15:54:49Z</time>
<desc>lat.=56.135159, lon.=26.366013, Alt.=105.042053m. Speed=0.036000m/h.</desc>
<speed>0.010000</speed>
</trkpt>
<trkpt lat="56.135159" lon="26.366013">
<ele>105.040100</ele>
<time>2010-08-29T15:54:50Z</time>
<desc>lat.=56.135159, lon.=26.366013, Alt.=105.040100m. Speed=0.036000m/h.</desc>
<speed>0.010000</speed>
</trkpt>
<trkpt lat="56.135159" lon="26.366013">
<ele>105.038147</ele>
<time>2010-08-29T15:54:51Z</time>
<desc>lat.=56.135159, lon.=26.366013, Alt.=105.038147m. Speed=0.000000m/h.</desc>
<speed>0.000000</speed>
</trkpt>
<trkpt lat="56.135159" lon="26.366013">
<ele>105.038147</ele>
<time>2010-08-29T15:54:52Z</time>
<desc>lat.=56.135159, lon.=26.366013, Alt.=105.038147m. Speed=0.036000m/h.</desc>
<speed>0.010000</speed>
</trkpt>
<trkpt lat="56.135159" lon="26.366013">
<ele>105.036194</ele>
<time>2010-08-29T15:54:53Z</time>
<desc>lat.=56.135159, lon.=26.366013, Alt.=105.036194m. Speed=0.036000m/h.</desc>
<speed>0.010000</speed>
</trkpt>
<trkpt lat="56.135159" lon="26.366013">
<ele>105.034241</ele>
<time>2010-08-29T15:54:54Z</time>
<desc>lat.=56.135159, lon.=26.366013, Alt.=105.034241m. Speed=0.000000m/h.</desc>
<speed>0.000000</speed>
</trkpt>
<trkpt lat="56.135159" lon="26.366013">
<ele>105.032288</ele>
<time>2010-08-29T15:54:55Z</time>
<desc>lat.=56.135159, lon.=26.366013, Alt.=105.032288m. Speed=0.000000m/h.</desc>
<speed>0.000000</speed>
</trkpt>
<trkpt lat="56.135159" lon="26.366013">
<ele>105.032288</ele>
<time>2010-08-29T15:54:56Z</time>
<desc>lat.=56.135159, lon.=26.366013, Alt.=105.032288m. Speed=0.000000m/h.</desc>
<speed>0.000000</speed>
</trkpt>
<trkpt lat="56.135159" lon="26.366013">
<ele>105.030334</ele>
<time>2010-08-29T15:54:57Z</time>
<desc>lat.=56.135159, lon.=26.366013, Alt.=105.030334m. Speed=0.000000m/h.</desc>
<speed>0.000000</speed>
</trkpt>
<trkpt lat="56.135159" lon="26.366013">
<ele>105.028381</ele>
<time>2010-08-29T15:54:58Z</time>
<desc>lat.=56.135159, lon.=26.366013, Alt.=105.028381m. Speed=0.036000m/h.</desc>
<speed>0.010000</speed>
</trkpt>
<trkpt lat="56.135159" lon="26.366013">
<ele>105.026428</ele>
<time>2010-08-29T15:54:59Z</time>
<desc>lat.=56.135159, lon.=26.366013, Alt.=105.026428m. Speed=0.000000m/h.</desc>
<speed>0.000000</speed>
</trkpt>
<trkpt lat="56.135159" lon="26.366013">
<ele>105.026428</ele>
<time>2010-08-29T15:55:00Z</time>
<desc>lat.=56.135159, lon.=26.366013, Alt.=105.026428m. Speed=0.000000m/h.</desc>
<speed>0.000000</speed>
</trkpt>
<trkpt lat="56.135159" lon="26.366013">
<ele>105.026428</ele>
<time>2010-08-29T15:55:01Z</time>
<desc>lat.=56.135159, lon.=26.366013, Alt.=105.026428m. Speed=0.000000m/h.</desc>
<speed>0.000000</speed>
</trkpt>
<trkpt lat="56.135159" lon="26.366013">
<ele>105.024475</ele>
<time>2010-08-29T15:55:02Z</time>
<desc>lat.=56.135159, lon.=26.366013, Alt.=105.024475m. Speed=0.036000m/h.</desc>
<speed>0.010000</speed>
</trkpt>
<trkpt lat="56.135159" lon="26.366013">
<ele>105.024475</ele>
<time>2010-08-29T15:55:03Z</time>
<desc>lat.=56.135159, lon.=26.366013, Alt.=105.024475m. Speed=0.000000m/h.</desc>
<speed>0.000000</speed>
</trkpt>
<trkpt lat="56.135159" lon="26.366013">
<ele>105.024475</ele>
<time>2010-08-29T15:55:04Z</time>
<desc>lat.=56.135159, lon.=26.366013, Alt.=105.024475m. Speed=0.000000m/h.</desc>
<speed>0.000000</speed>
</trkpt>
<trkpt lat="56.135159" lon="26.366013">
<ele>105.026428</ele>
<time>2010-08-29T15:55:05Z</time>
<desc>lat.=56.135159, lon.=26.366013, Alt.=105.026428m. Speed=0.036000m/h.</desc>
<speed>0.010000</speed>
</trkpt>
<trkpt lat="56.135159" lon="26.366013">
<ele>105.028381</ele>
<time>2010-08-29T15:55:06Z</time>
<desc>lat.=56.135159, lon.=26.366013, Alt.=105.028381m. Speed=0.036000m/h.</desc>
<speed>0.010000</speed>
</trkpt>
<trkpt lat="56.135159" lon="26.366013">
<ele>105.028381</ele>
<time>2010-08-29T15:55:07Z</time>
<desc>lat.=56.135159, lon.=26.366013, Alt.=105.028381m. Speed=0.000000m/h.</desc>
<speed>0.000000</speed>
</trkpt>
<trkpt lat="56.135159" lon="26.366013">
<ele>105.026428</ele>
<time>2010-08-29T15:55:08Z</time>
<desc>lat.=56.135159, lon.=26.366013, Alt.=105.026428m. Speed=0.036000m/h.</desc>
<speed>0.010000</speed>
</trkpt>
<trkpt lat="56.135159" lon="26.366013">
<ele>105.028381</ele>
<time>2010-08-29T15:55:09Z</time>
<desc>lat.=56.135159, lon.=26.366013, Alt.=105.028381m. Speed=0.036000m/h.</desc>
<speed>0.010000</speed>
</trkpt>
<trkpt lat="56.135159" lon="26.366013">
<ele>105.028381</ele>
<time>2010-08-29T15:55:10Z</time>
<desc>lat.=56.135159, lon.=26.366013, Alt.=105.028381m. Speed=0.000000m/h.</desc>
<speed>0.000000</speed>
</trkpt>
<trkpt lat="56.135159" lon="26.366013">
<ele>105.026428</ele>
<time>2010-08-29T15:55:11Z</time>
<desc>lat.=56.135159, lon.=26.366013, Alt.=105.026428m. Speed=0.000000m/h.</desc>
<speed>0.000000</speed>
</trkpt>
<trkpt lat="56.135159" lon="26.366013">
<ele>105.028381</ele>
<time>2010-08-29T15:55:12Z</time>
<desc>lat.=56.135159, lon.=26.366013, Alt.=105.028381m. Speed=0.000000m/h.</desc>
<speed>0.000000</speed>
</trkpt>
<trkpt lat="56.135159" lon="26.366013">
<ele>105.030334</ele>
<time>2010-08-29T15:55:13Z</time>
<desc>lat.=56.135159, lon.=26.366013, Alt.=105.030334m. Speed=0.036000m/h.</desc>
<speed>0.010000</speed>
</trkpt>
<trkpt lat="56.135159" lon="26.366013">
<ele>105.030334</ele>
<time>2010-08-29T15:55:14Z</time>
<desc>lat.=56.135159, lon.=26.366013, Alt.=105.030334m. Speed=0.000000m/h.</desc>
<speed>0.000000</speed>
</trkpt>
<trkpt lat="56.135159" lon="26.366013">
<ele>105.030334</ele>
<time>2010-08-29T15:55:15Z</time>
<desc>lat.=56.135159, lon.=26.366013, Alt.=105.030334m. Speed=0.036000m/h.</desc>
<speed>0.010000</speed>
</trkpt>
<trkpt lat="56.135159" lon="26.366013">
<ele>105.032288</ele>
<time>2010-08-29T15:55:16Z</time>
<desc>lat.=56.135159, lon.=26.366013, Alt.=105.032288m. Speed=0.036000m/h.</desc>
<speed>0.010000</speed>
</trkpt>
<trkpt lat="56.135159" lon="26.366013">
<ele>105.030334</ele>
<time>2010-08-29T15:55:17Z</time>
<desc>lat.=56.135159, lon.=26.366013, Alt.=105.030334m. Speed=0.000000m/h.</desc>
<speed>0.000000</speed>
</trkpt>
<trkpt lat="56.135159" lon="26.366013">
<ele>105.028381</ele>
<time>2010-08-29T15:55:18Z</time>
<desc>lat.=56.135159, lon.=26.366013, Alt.=105.028381m. Speed=0.000000m/h.</desc>
<speed>0.000000</speed>
</trkpt>
<trkpt lat="56.135159" lon="26.366013">
<ele>105.026428</ele>
<time>2010-08-29T15:55:19Z</time>
<desc>lat.=56.135159, lon.=26.366013, Alt.=105.026428m. Speed=0.000000m/h.</desc>
<speed>0.000000</speed>
</trkpt>
<trkpt lat="56.135159" lon="26.366013">
<ele>105.026428</ele>
<time>2010-08-29T15:55:20Z</time>
<desc>lat.=56.135159, lon.=26.366013, Alt.=105.026428m. Speed=0.000000m/h.</desc>
<speed>0.000000</speed>
</trkpt>
<trkpt lat="56.135159" lon="26.366013">
<ele>105.026428</ele>
<time>2010-08-29T15:55:21Z</time>
<desc>lat.=56.135159, lon.=26.366013, Alt.=105.026428m. Speed=0.036000m/h.</desc>
<speed>0.010000</speed>
</trkpt>
<trkpt lat="56.135159" lon="26.366013">
<ele>105.024475</ele>
<time>2010-08-29T15:55:22Z</time>
<desc>lat.=56.135159, lon.=26.366013, Alt.=105.024475m. Speed=0.036000m/h.</desc>
<speed>0.010000</speed>
</trkpt>
<trkpt lat="56.135159" lon="26.366013">
<ele>105.024475</ele>
<time>2010-08-29T15:55:23Z</time>
<desc>lat.=56.135159, lon.=26.366013, Alt.=105.024475m. Speed=0.036000m/h.</desc>
<speed>0.010000</speed>
</trkpt>
<trkpt lat="56.135159" lon="26.366013">
<ele>105.024475</ele>
<time>2010-08-29T15:55:24Z</time>
<desc>lat.=56.135159, lon.=26.366013, Alt.=105.024475m. Speed=0.072000m/h.</desc>
<speed>0.020000</speed>
</trkpt>
<trkpt lat="56.135159" lon="26.366013">
<ele>105.022522</ele>
<time>2010-08-29T15:55:25Z</time>
<desc>lat.=56.135159, lon.=26.366013, Alt.=105.022522m. Speed=0.180000m/h.</desc>
<speed>0.050000</speed>
</trkpt>
<trkpt lat="56.135159" lon="26.366013">
<ele>105.022522</ele>
<time>2010-08-29T15:55:26Z</time>
<desc>lat.=56.135159, lon.=26.366013, Alt.=105.022522m. Speed=0.000000m/h.</desc>
<speed>0.000000</speed>
</trkpt>
<trkpt lat="56.135159" lon="26.366013">
<ele>105.024475</ele>
<time>2010-08-29T15:55:27Z</time>
<desc>lat.=56.135159, lon.=26.366013, Alt.=105.024475m. Speed=0.036000m/h.</desc>
<speed>0.010000</speed>
</trkpt>
<trkpt lat="56.135159" lon="26.366013">
<ele>105.024475</ele>
<time>2010-08-29T15:55:28Z</time>
<desc>lat.=56.135159, lon.=26.366013, Alt.=105.024475m. Speed=0.144000m/h.</desc>
<speed>0.040000</speed>
</trkpt>
<trkpt lat="56.135159" lon="26.366013">
<ele>105.022522</ele>
<time>2010-08-29T15:55:29Z</time>
<desc>lat.=56.135159, lon.=26.366013, Alt.=105.022522m. Speed=0.216000m/h.</desc>
<speed>0.060000</speed>
</trkpt>
<trkpt lat="56.135159" lon="26.366013">
<ele>105.022522</ele>
<time>2010-08-29T15:55:30Z</time>
<desc>lat.=56.135159, lon.=26.366013, Alt.=105.022522m. Speed=0.684000m/h.</desc>
<speed>0.190000</speed>
</trkpt>
<trkpt lat="56.135162" lon="26.366014">
<ele>105.020569</ele>
<time>2010-08-29T15:55:31Z</time>
<desc>lat.=56.135162, lon.=26.366014, Alt.=105.020569m. Speed=0.792000m/h.</desc>
<speed>0.220000</speed>
</trkpt>
<trkpt lat="56.135162" lon="26.366016">
<ele>105.016663</ele>
<time>2010-08-29T15:55:32Z</time>
<desc>lat.=56.135162, lon.=26.366016, Alt.=105.016663m. Speed=0.756000m/h.</desc>
<speed>0.210000</speed>
</trkpt>
<trkpt lat="56.135162" lon="26.366018">
<ele>105.014709</ele>
<time>2010-08-29T15:55:33Z</time>
<desc>lat.=56.135162, lon.=26.366018, Alt.=105.014709m. Speed=0.468000m/h.</desc>
<speed>0.130000</speed>
</trkpt>
<trkpt lat="56.135162" lon="26.366020">
<ele>105.010803</ele>
<time>2010-08-29T15:55:34Z</time>
<desc>lat.=56.135162, lon.=26.366020, Alt.=105.010803m. Speed=0.540000m/h.</desc>
<speed>0.150000</speed>
</trkpt>
<trkpt lat="56.135162" lon="26.366020">
<ele>104.995178</ele>
<time>2010-08-29T15:55:35Z</time>
<desc>lat.=56.135162, lon.=26.366020, Alt.=104.995178m. Speed=1.692000m/h.</desc>
<speed>0.470000</speed>
</trkpt>
<trkpt lat="56.135162" lon="26.366028">
<ele>104.944397</ele>
<time>2010-08-29T15:55:36Z</time>
<desc>lat.=56.135162, lon.=26.366028, Alt.=104.944397m. Speed=1.944000m/h.</desc>
<speed>0.540000</speed>
</trkpt>
<trkpt lat="56.135159" lon="26.366030">
<ele>104.887756</ele>
<time>2010-08-29T15:55:37Z</time>
<desc>lat.=56.135159, lon.=26.366030, Alt.=104.887756m. Speed=1.296000m/h.</desc>
<speed>0.360000</speed>
</trkpt>
<trkpt lat="56.135159" lon="26.366034">
<ele>104.958069</ele>
<time>2010-08-29T15:55:38Z</time>
<desc>lat.=56.135159, lon.=26.366034, Alt.=104.958069m. Speed=0.900000m/h.</desc>
<speed>0.250000</speed>
</trkpt>
<trkpt lat="56.135155" lon="26.366034">
<ele>104.942444</ele>
<time>2010-08-29T15:55:39Z</time>
<desc>lat.=56.135155, lon.=26.366034, Alt.=104.942444m. Speed=1.224000m/h.</desc>
<speed>0.340000</speed>
</trkpt>
<trkpt lat="56.135155" lon="26.366035">
<ele>104.940491</ele>
<time>2010-08-29T15:55:40Z</time>
<desc>lat.=56.135155, lon.=26.366035, Alt.=104.940491m. Speed=1.584000m/h.</desc>
<speed>0.440000</speed>
</trkpt>
<trkpt lat="56.135151" lon="26.366037">
<ele>104.938538</ele>
<time>2010-08-29T15:55:41Z</time>
<desc>lat.=56.135151, lon.=26.366037, Alt.=104.938538m. Speed=0.900000m/h.</desc>
<speed>0.250000</speed>
</trkpt>
<trkpt lat="56.135155" lon="26.366043">
<ele>104.983459</ele>
<time>2010-08-29T15:55:42Z</time>
<desc>lat.=56.135155, lon.=26.366043, Alt.=104.983459m. Speed=0.216000m/h.</desc>
<speed>0.060000</speed>
</trkpt>
<trkpt lat="56.135147" lon="26.366041">
<ele>105.032288</ele>
<time>2010-08-29T15:55:43Z</time>
<desc>lat.=56.135147, lon.=26.366041, Alt.=105.032288m. Speed=0.936000m/h.</desc>
<speed>0.260000</speed>
</trkpt>
<trkpt lat="56.135147" lon="26.366039">
<ele>105.049866</ele>
<time>2010-08-29T15:55:44Z</time>
<desc>lat.=56.135147, lon.=26.366039, Alt.=105.049866m. Speed=0.972000m/h.</desc>
<speed>0.270000</speed>
</trkpt>
<trkpt lat="56.135143" lon="26.366041">
<ele>105.057678</ele>
<time>2010-08-29T15:55:45Z</time>
<desc>lat.=56.135143, lon.=26.366041, Alt.=105.057678m. Speed=0.360000m/h.</desc>
<speed>0.100000</speed>
</trkpt>
<trkpt lat="56.135143" lon="26.366041">
<ele>105.075256</ele>
<time>2010-08-29T15:55:46Z</time>
<desc>lat.=56.135143, lon.=26.366041, Alt.=105.075256m. Speed=0.324000m/h.</desc>
<speed>0.090000</speed>
</trkpt>
<trkpt lat="56.135143" lon="26.366041">
<ele>105.086975</ele>
<time>2010-08-29T15:55:47Z</time>
<desc>lat.=56.135143, lon.=26.366041, Alt.=105.086975m. Speed=0.036000m/h.</desc>
<speed>0.010000</speed>
</trkpt>
<trkpt lat="56.135143" lon="26.366041">
<ele>105.098694</ele>
<time>2010-08-29T15:55:48Z</time>
<desc>lat.=56.135143, lon.=26.366041, Alt.=105.098694m. Speed=0.216000m/h.</desc>
<speed>0.060000</speed>
</trkpt>
<trkpt lat="56.135143" lon="26.366041">
<ele>105.112366</ele>
<time>2010-08-29T15:55:49Z</time>
<desc>lat.=56.135143, lon.=26.366041, Alt.=105.112366m. Speed=0.432000m/h.</desc>
<speed>0.120000</speed>
</trkpt>
<trkpt lat="56.135143" lon="26.366041">
<ele>105.131897</ele>
<time>2010-08-29T15:55:50Z</time>
<desc>lat.=56.135143, lon.=26.366041, Alt.=105.131897m. Speed=1.404000m/h.</desc>
<speed>0.390000</speed>
</trkpt>
<trkpt lat="56.135139" lon="26.366034">
<ele>105.100647</ele>
<time>2010-08-29T15:55:51Z</time>
<desc>lat.=56.135139, lon.=26.366034, Alt.=105.100647m. Speed=1.224000m/h.</desc>
<speed>0.340000</speed>
</trkpt>
<trkpt lat="56.135147" lon="26.366030">
<ele>104.743225</ele>
<time>2010-08-29T15:55:52Z</time>
<desc>lat.=56.135147, lon.=26.366030, Alt.=104.743225m. Speed=0.612000m/h.</desc>
<speed>0.170000</speed>
</trkpt>
<trkpt lat="56.135147" lon="26.366024">
<ele>104.747131</ele>
<time>2010-08-29T15:55:53Z</time>
<desc>lat.=56.135147, lon.=26.366024, Alt.=104.747131m. Speed=0.972000m/h.</desc>
<speed>0.270000</speed>
</trkpt>
<trkpt lat="56.135147" lon="26.366020">
<ele>104.784241</ele>
<time>2010-08-29T15:55:54Z</time>
<desc>lat.=56.135147, lon.=26.366020, Alt.=104.784241m. Speed=0.972000m/h.</desc>
<speed>0.270000</speed>
</trkpt>
<trkpt lat="56.135147" lon="26.366018">
<ele>104.809631</ele>
<time>2010-08-29T15:55:55Z</time>
<desc>lat.=56.135147, lon.=26.366018, Alt.=104.809631m. Speed=0.504000m/h.</desc>
<speed>0.140000</speed>
</trkpt>
<trkpt lat="56.135147" lon="26.366016">
<ele>104.799866</ele>
<time>2010-08-29T15:55:56Z</time>
<desc>lat.=56.135147, lon.=26.366016, Alt.=104.799866m. Speed=0.612000m/h.</desc>
<speed>0.170000</speed>
</trkpt>
<trkpt lat="56.135147" lon="26.366013">
<ele>104.795959</ele>
<time>2010-08-29T15:55:57Z</time>
<desc>lat.=56.135147, lon.=26.366013, Alt.=104.795959m. Speed=0.252000m/h.</desc>
<speed>0.070000</speed>
</trkpt>
<trkpt lat="56.135147" lon="26.366014">
<ele>104.797913</ele>
<time>2010-08-29T15:55:58Z</time>
<desc>lat.=56.135147, lon.=26.366014, Alt.=104.797913m. Speed=0.396000m/h.</desc>
<speed>0.110000</speed>
</trkpt>
<trkpt lat="56.135147" lon="26.366014">
<ele>104.805725</ele>
<time>2010-08-29T15:55:59Z</time>
<desc>lat.=56.135147, lon.=26.366014, Alt.=104.805725m. Speed=0.756000m/h.</desc>
<speed>0.210000</speed>
</trkpt>
<trkpt lat="56.135147" lon="26.366018">
<ele>104.815491</ele>
<time>2010-08-29T15:56:00Z</time>
<desc>lat.=56.135147, lon.=26.366018, Alt.=104.815491m. Speed=0.324000m/h.</desc>
<speed>0.090000</speed>
</trkpt>
<trkpt lat="56.135147" lon="26.366018">
<ele>104.833069</ele>
<time>2010-08-29T15:56:01Z</time>
<desc>lat.=56.135147, lon.=26.366018, Alt.=104.833069m. Speed=0.360000m/h.</desc>
<speed>0.100000</speed>
</trkpt>
<trkpt lat="56.135147" lon="26.366020">
<ele>104.844788</ele>
<time>2010-08-29T15:56:02Z</time>
<desc>lat.=56.135147, lon.=26.366020, Alt.=104.844788m. Speed=0.324000m/h.</desc>
<speed>0.090000</speed>
</trkpt>
<trkpt lat="56.135147" lon="26.366020">
<ele>104.862366</ele>
<time>2010-08-29T15:56:03Z</time>
<desc>lat.=56.135147, lon.=26.366020, Alt.=104.862366m. Speed=0.144000m/h.</desc>
<speed>0.040000</speed>
</trkpt>
<trkpt lat="56.135143" lon="26.366020">
<ele>104.877991</ele>
<time>2010-08-29T15:56:04Z</time>
<desc>lat.=56.135143, lon.=26.366020, Alt.=104.877991m. Speed=0.180000m/h.</desc>
<speed>0.050000</speed>
</trkpt>
<trkpt lat="56.135143" lon="26.366018">
<ele>104.887756</ele>
<time>2010-08-29T15:56:05Z</time>
<desc>lat.=56.135143, lon.=26.366018, Alt.=104.887756m. Speed=0.432000m/h.</desc>
<speed>0.120000</speed>
</trkpt>
<trkpt lat="56.135143" lon="26.366016">
<ele>104.903381</ele>
<time>2010-08-29T15:56:06Z</time>
<desc>lat.=56.135143, lon.=26.366016, Alt.=104.903381m. Speed=0.036000m/h.</desc>
<speed>0.010000</speed>
</trkpt>
<trkpt lat="56.135143" lon="26.366016">
<ele>104.911194</ele>
<time>2010-08-29T15:56:07Z</time>
<desc>lat.=56.135143, lon.=26.366016, Alt.=104.911194m. Speed=0.252000m/h.</desc>
<speed>0.070000</speed>
</trkpt>
<trkpt lat="56.135143" lon="26.366016">
<ele>104.915100</ele>
<time>2010-08-29T15:56:08Z</time>
<desc>lat.=56.135143, lon.=26.366016, Alt.=104.915100m. Speed=0.576000m/h.</desc>
<speed>0.160000</speed>
</trkpt>
<trkpt lat="56.135143" lon="26.366013">
<ele>104.917053</ele>
<time>2010-08-29T15:56:09Z</time>
<desc>lat.=56.135143, lon.=26.366013, Alt.=104.917053m. Speed=0.180000m/h.</desc>
<speed>0.050000</speed>
</trkpt>
<trkpt lat="56.135143" lon="26.366013">
<ele>104.919006</ele>
<time>2010-08-29T15:56:10Z</time>
<desc>lat.=56.135143, lon.=26.366013, Alt.=104.919006m. Speed=0.540000m/h.</desc>
<speed>0.150000</speed>
</trkpt>
<trkpt lat="56.135143" lon="26.366011">
<ele>104.922913</ele>
<time>2010-08-29T15:56:11Z</time>
<desc>lat.=56.135143, lon.=26.366011, Alt.=104.922913m. Speed=0.324000m/h.</desc>
<speed>0.090000</speed>
</trkpt>
<trkpt lat="56.135143" lon="26.366009">
<ele>104.924866</ele>
<time>2010-08-29T15:56:12Z</time>
<desc>lat.=56.135143, lon.=26.366009, Alt.=104.924866m. Speed=0.216000m/h.</desc>
<speed>0.060000</speed>
</trkpt>
<trkpt lat="56.135147" lon="26.366009">
<ele>104.928772</ele>
<time>2010-08-29T15:56:13Z</time>
<desc>lat.=56.135147, lon.=26.366009, Alt.=104.928772m. Speed=0.432000m/h.</desc>
<speed>0.120000</speed>
</trkpt>
<trkpt lat="56.135143" lon="26.366011">
<ele>104.936584</ele>
<time>2010-08-29T15:56:14Z</time>
<desc>lat.=56.135143, lon.=26.366011, Alt.=104.936584m. Speed=0.900000m/h.</desc>
<speed>0.250000</speed>
</trkpt>
<trkpt lat="56.135143" lon="26.366014">
<ele>104.942444</ele>
<time>2010-08-29T15:56:15Z</time>
<desc>lat.=56.135143, lon.=26.366014, Alt.=104.942444m. Speed=0.324000m/h.</desc>
<speed>0.090000</speed>
</trkpt>
<trkpt lat="56.135143" lon="26.366016">
<ele>104.952209</ele>
<time>2010-08-29T15:56:16Z</time>
<desc>lat.=56.135143, lon.=26.366016, Alt.=104.952209m. Speed=0.108000m/h.</desc>
<speed>0.030000</speed>
</trkpt>
<trkpt lat="56.135147" lon="26.366016">
<ele>104.963928</ele>
<time>2010-08-29T15:56:17Z</time>
<desc>lat.=56.135147, lon.=26.366016, Alt.=104.963928m. Speed=0.036000m/h.</desc>
<speed>0.010000</speed>
</trkpt>
<trkpt lat="56.135147" lon="26.366016">
<ele>104.969788</ele>
<time>2010-08-29T15:56:18Z</time>
<desc>lat.=56.135147, lon.=26.366016, Alt.=104.969788m. Speed=0.216000m/h.</desc>
<speed>0.060000</speed>
</trkpt>
<trkpt lat="56.135143" lon="26.366016">
<ele>104.975647</ele>
<time>2010-08-29T15:56:19Z</time>
<desc>lat.=56.135143, lon.=26.366016, Alt.=104.975647m. Speed=0.180000m/h.</desc>
<speed>0.050000</speed>
</trkpt>
<trkpt lat="56.135143" lon="26.366014">
<ele>104.981506</ele>
<time>2010-08-29T15:56:20Z</time>
<desc>lat.=56.135143, lon.=26.366014, Alt.=104.981506m. Speed=0.108000m/h.</desc>
<speed>0.030000</speed>
</trkpt>
<trkpt lat="56.135143" lon="26.366016">
<ele>104.979553</ele>
<time>2010-08-29T15:56:21Z</time>
<desc>lat.=56.135143, lon.=26.366016, Alt.=104.979553m. Speed=0.324000m/h.</desc>
<speed>0.090000</speed>
</trkpt>
<trkpt lat="56.135143" lon="26.366016">
<ele>104.969788</ele>
<time>2010-08-29T15:56:22Z</time>
<desc>lat.=56.135143, lon.=26.366016, Alt.=104.969788m. Speed=0.072000m/h.</desc>
<speed>0.020000</speed>
</trkpt>
<trkpt lat="56.135143" lon="26.366016">
<ele>104.960022</ele>
<time>2010-08-29T15:56:23Z</time>
<desc>lat.=56.135143, lon.=26.366016, Alt.=104.960022m. Speed=0.036000m/h.</desc>
<speed>0.010000</speed>
</trkpt>
<trkpt lat="56.135143" lon="26.366016">
<ele>104.936584</ele>
<time>2010-08-29T15:56:24Z</time>
<desc>lat.=56.135143, lon.=26.366016, Alt.=104.936584m. Speed=0.072000m/h.</desc>
<speed>0.020000</speed>
</trkpt>
<trkpt lat="56.135143" lon="26.366016">
<ele>104.915100</ele>
<time>2010-08-29T15:56:25Z</time>
<desc>lat.=56.135143, lon.=26.366016, Alt.=104.915100m. Speed=0.252000m/h.</desc>
<speed>0.070000</speed>
</trkpt>
<trkpt lat="56.135147" lon="26.366016">
<ele>104.895569</ele>
<time>2010-08-29T15:56:26Z</time>
<desc>lat.=56.135147, lon.=26.366016, Alt.=104.895569m. Speed=1.512000m/h.</desc>
<speed>0.420000</speed>
</trkpt>
<trkpt lat="56.135151" lon="26.366005">
<ele>104.948303</ele>
<time>2010-08-29T15:56:27Z</time>
<desc>lat.=56.135151, lon.=26.366005, Alt.=104.948303m. Speed=2.844000m/h.</desc>
<speed>0.790000</speed>
</trkpt>
<trkpt lat="56.135155" lon="26.365990">
<ele>105.067444</ele>
<time>2010-08-29T15:56:28Z</time>
<desc>lat.=56.135155, lon.=26.365990, Alt.=105.067444m. Speed=3.060000m/h.</desc>
<speed>0.850000</speed>
</trkpt>
<trkpt lat="56.135151" lon="26.365980">
<ele>105.167053</ele>
<time>2010-08-29T15:56:29Z</time>
<desc>lat.=56.135151, lon.=26.365980, Alt.=105.167053m. Speed=3.528000m/h.</desc>
<speed>0.980000</speed>
</trkpt>
<trkpt lat="56.135151" lon="26.365965">
<ele>105.147522</ele>
<time>2010-08-29T15:56:30Z</time>
<desc>lat.=56.135151, lon.=26.365965, Alt.=105.147522m. Speed=4.320000m/h.</desc>
<speed>1.200000</speed>
</trkpt>
<trkpt lat="56.135139" lon="26.365950">
<ele>105.100647</ele>
<time>2010-08-29T15:56:31Z</time>
<desc>lat.=56.135139, lon.=26.365950, Alt.=105.100647m. Speed=6.264000m/h.</desc>
<speed>1.740000</speed>
</trkpt>
<trkpt lat="56.135124" lon="26.365942">
<ele>104.961975</ele>
<time>2010-08-29T15:56:32Z</time>
<desc>lat.=56.135124, lon.=26.365942, Alt.=104.961975m. Speed=7.092000m/h.</desc>
<speed>1.970000</speed>
</trkpt>
<trkpt lat="56.135109" lon="26.365946">
<ele>104.799866</ele>
<time>2010-08-29T15:56:33Z</time>
<desc>lat.=56.135109, lon.=26.365946, Alt.=104.799866m. Speed=6.264000m/h.</desc>
<speed>1.740000</speed>
</trkpt>
<trkpt lat="56.135098" lon="26.365957">
<ele>104.624084</ele>
<time>2010-08-29T15:56:34Z</time>
<desc>lat.=56.135098, lon.=26.365957, Alt.=104.624084m. Speed=4.464000m/h.</desc>
<speed>1.240000</speed>
</trkpt>
<trkpt lat="56.135086" lon="26.365957">
<ele>104.659241</ele>
<time>2010-08-29T15:56:35Z</time>
<desc>lat.=56.135086, lon.=26.365957, Alt.=104.659241m. Speed=5.688000m/h.</desc>
<speed>1.580000</speed>
</trkpt>
<trkpt lat="56.135075" lon="26.365946">
<ele>104.514709</ele>
<time>2010-08-29T15:56:36Z</time>
<desc>lat.=56.135075, lon.=26.365946, Alt.=104.514709m. Speed=7.992000m/h.</desc>
<speed>2.220000</speed>
</trkpt>
<trkpt lat="56.135063" lon="26.365917">
<ele>104.344788</ele>
<time>2010-08-29T15:56:37Z</time>
<desc>lat.=56.135063, lon.=26.365917, Alt.=104.344788m. Speed=6.624000m/h.</desc>
<speed>1.840000</speed>
</trkpt>
<trkpt lat="56.135052" lon="26.365896">
<ele>104.331116</ele>
<time>2010-08-29T15:56:38Z</time>
<desc>lat.=56.135052, lon.=26.365896, Alt.=104.331116m. Speed=6.876000m/h.</desc>
<speed>1.910000</speed>
</trkpt>
<trkpt lat="56.135036" lon="26.365875">
<ele>104.840881</ele>
<time>2010-08-29T15:56:39Z</time>
<desc>lat.=56.135036, lon.=26.365875, Alt.=104.840881m. Speed=9.432000m/h.</desc>
<speed>2.620000</speed>
</trkpt>
<trkpt lat="56.135025" lon="26.365845">
<ele>105.387756</ele>
<time>2010-08-29T15:56:40Z</time>
<desc>lat.=56.135025, lon.=26.365845, Alt.=105.387756m. Speed=8.316000m/h.</desc>
<speed>2.310000</speed>
</trkpt>
<trkpt lat="56.135010" lon="26.365818">
<ele>106.102600</ele>
<time>2010-08-29T15:56:41Z</time>
<desc>lat.=56.135010, lon.=26.365818, Alt.=106.102600m. Speed=8.496000m/h.</desc>
<speed>2.360000</speed>
</trkpt>
<trkpt lat="56.134998" lon="26.365788">
<ele>106.512756</ele>
<time>2010-08-29T15:56:42Z</time>
<desc>lat.=56.134998, lon.=26.365788, Alt.=106.512756m. Speed=7.380000m/h.</desc>
<speed>2.050000</speed>
</trkpt>
<trkpt lat="56.134995" lon="26.365755">
<ele>106.754944</ele>
<time>2010-08-29T15:56:43Z</time>
<desc>lat.=56.134995, lon.=26.365755, Alt.=106.754944m. Speed=6.228000m/h.</desc>
<speed>1.730000</speed>
</trkpt>
<trkpt lat="56.134991" lon="26.365713">
<ele>107.247131</ele>
<time>2010-08-29T15:56:44Z</time>
<desc>lat.=56.134991, lon.=26.365713, Alt.=107.247131m. Speed=5.148000m/h.</desc>
<speed>1.430000</speed>
</trkpt>
<trkpt lat="56.134991" lon="26.365686">
<ele>107.354553</ele>
<time>2010-08-29T15:56:45Z</time>
<desc>lat.=56.134991, lon.=26.365686, Alt.=107.354553m. Speed=5.688000m/h.</desc>
<speed>1.580000</speed>
</trkpt>
<trkpt lat="56.135006" lon="26.365669">
<ele>107.401428</ele>
<time>2010-08-29T15:56:46Z</time>
<desc>lat.=56.135006, lon.=26.365669, Alt.=107.401428m. Speed=4.536000m/h.</desc>
<speed>1.260000</speed>
</trkpt>
<trkpt lat="56.135017" lon="26.365671">
<ele>107.497131</ele>
<time>2010-08-29T15:56:47Z</time>
<desc>lat.=56.135017, lon.=26.365671, Alt.=107.497131m. Speed=4.608000m/h.</desc>
<speed>1.280000</speed>
</trkpt>
<trkpt lat="56.135033" lon="26.365671">
<ele>107.448303</ele>
<time>2010-08-29T15:56:48Z</time>
<desc>lat.=56.135033, lon.=26.365671, Alt.=107.448303m. Speed=4.716000m/h.</desc>
<speed>1.310000</speed>
</trkpt>
<trkpt lat="56.135044" lon="26.365677">
<ele>107.624084</ele>
<time>2010-08-29T15:56:49Z</time>
<desc>lat.=56.135044, lon.=26.365677, Alt.=107.624084m. Speed=5.004000m/h.</desc>
<speed>1.390000</speed>
</trkpt>
<trkpt lat="56.135052" lon="26.365685">
<ele>107.661194</ele>
<time>2010-08-29T15:56:50Z</time>
<desc>lat.=56.135052, lon.=26.365685, Alt.=107.661194m. Speed=3.528000m/h.</desc>
<speed>0.980000</speed>
</trkpt>
<trkpt lat="56.135059" lon="26.365681">
<ele>107.252991</ele>
<time>2010-08-29T15:56:51Z</time>
<desc>lat.=56.135059, lon.=26.365681, Alt.=107.252991m. Speed=0.648000m/h.</desc>
<speed>0.180000</speed>
</trkpt>
<trkpt lat="56.135059" lon="26.365679">
<ele>107.059631</ele>
<time>2010-08-29T15:56:52Z</time>
<desc>lat.=56.135059, lon.=26.365679, Alt.=107.059631m. Speed=0.180000m/h.</desc>
<speed>0.050000</speed>
</trkpt>
<trkpt lat="56.135056" lon="26.365675">
<ele>106.999084</ele>
<time>2010-08-29T15:56:53Z</time>
<desc>lat.=56.135056, lon.=26.365675, Alt.=106.999084m. Speed=0.216000m/h.</desc>
<speed>0.060000</speed>
</trkpt>
<trkpt lat="56.135056" lon="26.365669">
<ele>107.030334</ele>
<time>2010-08-29T15:56:54Z</time>
<desc>lat.=56.135056, lon.=26.365669, Alt.=107.030334m. Speed=0.252000m/h.</desc>
<speed>0.070000</speed>
</trkpt>
<trkpt lat="56.135056" lon="26.365669">
<ele>107.065491</ele>
<time>2010-08-29T15:56:55Z</time>
<desc>lat.=56.135056, lon.=26.365669, Alt.=107.065491m. Speed=0.288000m/h.</desc>
<speed>0.080000</speed>
</trkpt>
<trkpt lat="56.135056" lon="26.365669">
<ele>107.100647</ele>
<time>2010-08-29T15:56:56Z</time>
<desc>lat.=56.135056, lon.=26.365669, Alt.=107.100647m. Speed=0.288000m/h.</desc>
<speed>0.080000</speed>
</trkpt>
<trkpt lat="56.135052" lon="26.365669">
<ele>107.131897</ele>
<time>2010-08-29T15:56:57Z</time>
<desc>lat.=56.135052, lon.=26.365669, Alt.=107.131897m. Speed=0.216000m/h.</desc>
<speed>0.060000</speed>
</trkpt>
<trkpt lat="56.135052" lon="26.365669">
<ele>107.159241</ele>
<time>2010-08-29T15:56:58Z</time>
<desc>lat.=56.135052, lon.=26.365669, Alt.=107.159241m. Speed=0.252000m/h.</desc>
<speed>0.070000</speed>
</trkpt>
<trkpt lat="56.135052" lon="26.365669">
<ele>107.182678</ele>
<time>2010-08-29T15:56:59Z</time>
<desc>lat.=56.135052, lon.=26.365669, Alt.=107.182678m. Speed=0.324000m/h.</desc>
<speed>0.090000</speed>
</trkpt>
<trkpt lat="56.135052" lon="26.365667">
<ele>107.204163</ele>
<time>2010-08-29T15:57:00Z</time>
<desc>lat.=56.135052, lon.=26.365667, Alt.=107.204163m. Speed=0.072000m/h.</desc>
<speed>0.020000</speed>
</trkpt>
<trkpt lat="56.135052" lon="26.365667">
<ele>107.223694</ele>
<time>2010-08-29T15:57:01Z</time>
<desc>lat.=56.135052, lon.=26.365667, Alt.=107.223694m. Speed=0.144000m/h.</desc>
<speed>0.040000</speed>
</trkpt>
<trkpt lat="56.135052" lon="26.365667">
<ele>107.239319</ele>
<time>2010-08-29T15:57:02Z</time>
<desc>lat.=56.135052, lon.=26.365667, Alt.=107.239319m. Speed=0.180000m/h.</desc>
<speed>0.050000</speed>
</trkpt>
<trkpt lat="56.135052" lon="26.365667">
<ele>107.252991</ele>
<time>2010-08-29T15:57:03Z</time>
<desc>lat.=56.135052, lon.=26.365667, Alt.=107.252991m. Speed=0.108000m/h.</desc>
<speed>0.030000</speed>
</trkpt>
<trkpt lat="56.135052" lon="26.365667">
<ele>107.266663</ele>
<time>2010-08-29T15:57:04Z</time>
<desc>lat.=56.135052, lon.=26.365667, Alt.=107.266663m. Speed=0.108000m/h.</desc>
<speed>0.030000</speed>
</trkpt>
<trkpt lat="56.135048" lon="26.365665">
<ele>107.278381</ele>
<time>2010-08-29T15:57:05Z</time>
<desc>lat.=56.135048, lon.=26.365665, Alt.=107.278381m. Speed=0.036000m/h.</desc>
<speed>0.010000</speed>
</trkpt>
<trkpt lat="56.135048" lon="26.365667">
<ele>107.292053</ele>
<time>2010-08-29T15:57:06Z</time>
<desc>lat.=56.135048, lon.=26.365667, Alt.=107.292053m. Speed=0.108000m/h.</desc>
<speed>0.030000</speed>
</trkpt>
<trkpt lat="56.135048" lon="26.365667">
<ele>107.288147</ele>
<time>2010-08-29T15:57:07Z</time>
<desc>lat.=56.135048, lon.=26.365667, Alt.=107.288147m. Speed=0.000000m/h.</desc>
<speed>0.000000</speed>
</trkpt>
<trkpt lat="56.135048" lon="26.365667">
<ele>107.288147</ele>
<time>2010-08-29T15:57:08Z</time>
<desc>lat.=56.135048, lon.=26.365667, Alt.=107.288147m. Speed=0.072000m/h.</desc>
<speed>0.020000</speed>
</trkpt>
<trkpt lat="56.135048" lon="26.365665">
<ele>107.288147</ele>
<time>2010-08-29T15:57:09Z</time>
<desc>lat.=56.135048, lon.=26.365665, Alt.=107.288147m. Speed=0.036000m/h.</desc>
<speed>0.010000</speed>
</trkpt>
<trkpt lat="56.135048" lon="26.365665">
<ele>107.286194</ele>
<time>2010-08-29T15:57:10Z</time>
<desc>lat.=56.135048, lon.=26.365665, Alt.=107.286194m. Speed=0.072000m/h.</desc>
<speed>0.020000</speed>
</trkpt>
<trkpt lat="56.135048" lon="26.365665">
<ele>107.286194</ele>
<time>2010-08-29T15:57:11Z</time>
<desc>lat.=56.135048, lon.=26.365665, Alt.=107.286194m. Speed=0.036000m/h.</desc>
<speed>0.010000</speed>
</trkpt>
<trkpt lat="56.135048" lon="26.365665">
<ele>107.286194</ele>
<time>2010-08-29T15:57:12Z</time>
<desc>lat.=56.135048, lon.=26.365665, Alt.=107.286194m. Speed=0.144000m/h.</desc>
<speed>0.040000</speed>
</trkpt>
<trkpt lat="56.135048" lon="26.365665">
<ele>107.286194</ele>
<time>2010-08-29T15:57:13Z</time>
<desc>lat.=56.135048, lon.=26.365665, Alt.=107.286194m. Speed=0.072000m/h.</desc>
<speed>0.020000</speed>
</trkpt>
<trkpt lat="56.135048" lon="26.365665">
<ele>107.286194</ele>
<time>2010-08-29T15:57:14Z</time>
<desc>lat.=56.135048, lon.=26.365665, Alt.=107.286194m. Speed=0.108000m/h.</desc>
<speed>0.030000</speed>
</trkpt>
<trkpt lat="56.135048" lon="26.365665">
<ele>107.286194</ele>
<time>2010-08-29T15:57:15Z</time>
<desc>lat.=56.135048, lon.=26.365665, Alt.=107.286194m. Speed=0.108000m/h.</desc>
<speed>0.030000</speed>
</trkpt>
<trkpt lat="56.135048" lon="26.365665">
<ele>107.290100</ele>
<time>2010-08-29T15:57:16Z</time>
<desc>lat.=56.135048, lon.=26.365665, Alt.=107.290100m. Speed=0.072000m/h.</desc>
<speed>0.020000</speed>
</trkpt>
<trkpt lat="56.135048" lon="26.365665">
<ele>107.290100</ele>
<time>2010-08-29T15:57:17Z</time>
<desc>lat.=56.135048, lon.=26.365665, Alt.=107.290100m. Speed=0.108000m/h.</desc>
<speed>0.030000</speed>
</trkpt>
<trkpt lat="56.135048" lon="26.365665">
<ele>107.292053</ele>
<time>2010-08-29T15:57:18Z</time>
<desc>lat.=56.135048, lon.=26.365665, Alt.=107.292053m. Speed=0.072000m/h.</desc>
<speed>0.020000</speed>
</trkpt>
<trkpt lat="56.135048" lon="26.365665">
<ele>107.297913</ele>
<time>2010-08-29T15:57:19Z</time>
<desc>lat.=56.135048, lon.=26.365665, Alt.=107.297913m. Speed=0.036000m/h.</desc>
<speed>0.010000</speed>
</trkpt>
<trkpt lat="56.135048" lon="26.365665">
<ele>107.305725</ele>
<time>2010-08-29T15:57:20Z</time>
<desc>lat.=56.135048, lon.=26.365665, Alt.=107.305725m. Speed=0.216000m/h.</desc>
<speed>0.060000</speed>
</trkpt>
<trkpt lat="56.135048" lon="26.365665">
<ele>107.311584</ele>
<time>2010-08-29T15:57:21Z</time>
<desc>lat.=56.135048, lon.=26.365665, Alt.=107.311584m. Speed=0.144000m/h.</desc>
<speed>0.040000</speed>
</trkpt>
<trkpt lat="56.135048" lon="26.365665">
<ele>107.309631</ele>
<time>2010-08-29T15:57:22Z</time>
<desc>lat.=56.135048, lon.=26.365665, Alt.=107.309631m. Speed=0.036000m/h.</desc>
<speed>0.010000</speed>
</trkpt>
<trkpt lat="56.135048" lon="26.365665">
<ele>107.313538</ele>
<time>2010-08-29T15:57:23Z</time>
<desc>lat.=56.135048, lon.=26.365665, Alt.=107.313538m. Speed=0.108000m/h.</desc>
<speed>0.030000</speed>
</trkpt>
<trkpt lat="56.135048" lon="26.365665">
<ele>107.311584</ele>
<time>2010-08-29T15:57:24Z</time>
<desc>lat.=56.135048, lon.=26.365665, Alt.=107.311584m. Speed=0.144000m/h.</desc>
<speed>0.040000</speed>
</trkpt>
<trkpt lat="56.135048" lon="26.365665">
<ele>107.315491</ele>
<time>2010-08-29T15:57:25Z</time>
<desc>lat.=56.135048, lon.=26.365665, Alt.=107.315491m. Speed=0.072000m/h.</desc>
<speed>0.020000</speed>
</trkpt>
<trkpt lat="56.135048" lon="26.365665">
<ele>107.317444</ele>
<time>2010-08-29T15:57:26Z</time>
<desc>lat.=56.135048, lon.=26.365665, Alt.=107.317444m. Speed=0.108000m/h.</desc>
<speed>0.030000</speed>
</trkpt>
<trkpt lat="56.135048" lon="26.365665">
<ele>107.315491</ele>
<time>2010-08-29T15:57:27Z</time>
<desc>lat.=56.135048, lon.=26.365665, Alt.=107.315491m. Speed=0.288000m/h.</desc>
<speed>0.080000</speed>
</trkpt>
<trkpt lat="56.135048" lon="26.365665">
<ele>107.315491</ele>
<time>2010-08-29T15:57:28Z</time>
<desc>lat.=56.135048, lon.=26.365665, Alt.=107.315491m. Speed=0.576000m/h.</desc>
<speed>0.160000</speed>
</trkpt>
<trkpt lat="56.135048" lon="26.365665">
<ele>107.315491</ele>
<time>2010-08-29T15:57:29Z</time>
<desc>lat.=56.135048, lon.=26.365665, Alt.=107.315491m. Speed=0.396000m/h.</desc>
<speed>0.110000</speed>
</trkpt>
<trkpt lat="56.135048" lon="26.365664">
<ele>107.315491</ele>
<time>2010-08-29T15:57:30Z</time>
<desc>lat.=56.135048, lon.=26.365664, Alt.=107.315491m. Speed=0.432000m/h.</desc>
<speed>0.120000</speed>
</trkpt>
<trkpt lat="56.135052" lon="26.365664">
<ele>107.311584</ele>
<time>2010-08-29T15:57:31Z</time>
<desc>lat.=56.135052, lon.=26.365664, Alt.=107.311584m. Speed=0.756000m/h.</desc>
<speed>0.210000</speed>
</trkpt>
<trkpt lat="56.135052" lon="26.365664">
<ele>107.311584</ele>
<time>2010-08-29T15:57:32Z</time>
<desc>lat.=56.135052, lon.=26.365664, Alt.=107.311584m. Speed=0.900000m/h.</desc>
<speed>0.250000</speed>
</trkpt>
<trkpt lat="56.135056" lon="26.365664">
<ele>107.313538</ele>
<time>2010-08-29T15:57:33Z</time>
<desc>lat.=56.135056, lon.=26.365664, Alt.=107.313538m. Speed=0.900000m/h.</desc>
<speed>0.250000</speed>
</trkpt>
<trkpt lat="56.135059" lon="26.365665">
<ele>107.315491</ele>
<time>2010-08-29T15:57:34Z</time>
<desc>lat.=56.135059, lon.=26.365665, Alt.=107.315491m. Speed=0.972000m/h.</desc>
<speed>0.270000</speed>
</trkpt>
<trkpt lat="56.135059" lon="26.365665">
<ele>107.301819</ele>
<time>2010-08-29T15:57:35Z</time>
<desc>lat.=56.135059, lon.=26.365665, Alt.=107.301819m. Speed=1.260000m/h.</desc>
<speed>0.350000</speed>
</trkpt>
<trkpt lat="56.135078" lon="26.365685">
<ele>106.227600</ele>
<time>2010-08-29T15:57:36Z</time>
<desc>lat.=56.135078, lon.=26.365685, Alt.=106.227600m. Speed=1.404000m/h.</desc>
<speed>0.390000</speed>
</trkpt>
<trkpt lat="56.135082" lon="26.365686">
<ele>106.020569</ele>
<time>2010-08-29T15:57:37Z</time>
<desc>lat.=56.135082, lon.=26.365686, Alt.=106.020569m. Speed=1.476000m/h.</desc>
<speed>0.410000</speed>
</trkpt>
<trkpt lat="56.135094" lon="26.365686">
<ele>105.881897</ele>
<time>2010-08-29T15:57:38Z</time>
<desc>lat.=56.135094, lon.=26.365686, Alt.=105.881897m. Speed=1.620000m/h.</desc>
<speed>0.450000</speed>
</trkpt>
<trkpt lat="56.135101" lon="26.365686">
<ele>105.919006</ele>
<time>2010-08-29T15:57:39Z</time>
<desc>lat.=56.135101, lon.=26.365686, Alt.=105.919006m. Speed=1.872000m/h.</desc>
<speed>0.520000</speed>
</trkpt>
<trkpt lat="56.135120" lon="26.365681">
<ele>105.825256</ele>
<time>2010-08-29T15:57:40Z</time>
<desc>lat.=56.135120, lon.=26.365681, Alt.=105.825256m. Speed=3.276000m/h.</desc>
<speed>0.910000</speed>
</trkpt>
<trkpt lat="56.135151" lon="26.365690">
<ele>104.512756</ele>
<time>2010-08-29T15:57:41Z</time>
<desc>lat.=56.135151, lon.=26.365690, Alt.=104.512756m. Speed=5.508000m/h.</desc>
<speed>1.530000</speed>
</trkpt>
<trkpt lat="56.135178" lon="26.365698">
<ele>103.497131</ele>
<time>2010-08-29T15:57:42Z</time>
<desc>lat.=56.135178, lon.=26.365698, Alt.=103.497131m. Speed=6.804000m/h.</desc>
<speed>1.890000</speed>
</trkpt>
<trkpt lat="56.135204" lon="26.365681">
<ele>103.049866</ele>
<time>2010-08-29T15:57:43Z</time>
<desc>lat.=56.135204, lon.=26.365681, Alt.=103.049866m. Speed=6.768000m/h.</desc>
<speed>1.880000</speed>
</trkpt>
<trkpt lat="56.135227" lon="26.365665">
<ele>102.422913</ele>
<time>2010-08-29T15:57:44Z</time>
<desc>lat.=56.135227, lon.=26.365665, Alt.=102.422913m. Speed=6.768000m/h.</desc>
<speed>1.880000</speed>
</trkpt>
<trkpt lat="56.135250" lon="26.365629">
<ele>102.172913</ele>
<time>2010-08-29T15:57:45Z</time>
<desc>lat.=56.135250, lon.=26.365629, Alt.=102.172913m. Speed=4.716000m/h.</desc>
<speed>1.310000</speed>
</trkpt>
<trkpt lat="56.135254" lon="26.365604">
<ele>102.044006</ele>
<time>2010-08-29T15:57:46Z</time>
<desc>lat.=56.135254, lon.=26.365604, Alt.=102.044006m. Speed=4.752000m/h.</desc>
<speed>1.320000</speed>
</trkpt>
<trkpt lat="56.135250" lon="26.365580">
<ele>102.182678</ele>
<time>2010-08-29T15:57:47Z</time>
<desc>lat.=56.135250, lon.=26.365580, Alt.=102.182678m. Speed=4.860000m/h.</desc>
<speed>1.350000</speed>
</trkpt>
<trkpt lat="56.135250" lon="26.365557">
<ele>102.268616</ele>
<time>2010-08-29T15:57:48Z</time>
<desc>lat.=56.135250, lon.=26.365557, Alt.=102.268616m. Speed=5.328000m/h.</desc>
<speed>1.480000</speed>
</trkpt>
<trkpt lat="56.135246" lon="26.365528">
<ele>102.295959</ele>
<time>2010-08-29T15:57:49Z</time>
<desc>lat.=56.135246, lon.=26.365528, Alt.=102.295959m. Speed=6.228000m/h.</desc>
<speed>1.730000</speed>
</trkpt>
<trkpt lat="56.135242" lon="26.365499">
<ele>102.352600</ele>
<time>2010-08-29T15:57:50Z</time>
<desc>lat.=56.135242, lon.=26.365499, Alt.=102.352600m. Speed=6.156000m/h.</desc>
<speed>1.710000</speed>
</trkpt>
<trkpt lat="56.135242" lon="26.365465">
<ele>102.417053</ele>
<time>2010-08-29T15:57:51Z</time>
<desc>lat.=56.135242, lon.=26.365465, Alt.=102.417053m. Speed=8.280000m/h.</desc>
<speed>2.300000</speed>
</trkpt>
<trkpt lat="56.135242" lon="26.365425">
<ele>102.538147</ele>
<time>2010-08-29T15:57:52Z</time>
<desc>lat.=56.135242, lon.=26.365425, Alt.=102.538147m. Speed=7.524000m/h.</desc>
<speed>2.090000</speed>
</trkpt>
<trkpt lat="56.135239" lon="26.365391">
<ele>102.641663</ele>
<time>2010-08-29T15:57:53Z</time>
<desc>lat.=56.135239, lon.=26.365391, Alt.=102.641663m. Speed=7.524000m/h.</desc>
<speed>2.090000</speed>
</trkpt>
<trkpt lat="56.135231" lon="26.365362">
<ele>102.780334</ele>
<time>2010-08-29T15:57:54Z</time>
<desc>lat.=56.135231, lon.=26.365362, Alt.=102.780334m. Speed=7.020000m/h.</desc>
<speed>1.950000</speed>
</trkpt>
<trkpt lat="56.135223" lon="26.365328">
<ele>103.018616</ele>
<time>2010-08-29T15:57:55Z</time>
<desc>lat.=56.135223, lon.=26.365328, Alt.=103.018616m. Speed=7.344000m/h.</desc>
<speed>2.040000</speed>
</trkpt>
<trkpt lat="56.135220" lon="26.365297">
<ele>103.305725</ele>
<time>2010-08-29T15:57:56Z</time>
<desc>lat.=56.135220, lon.=26.365297, Alt.=103.305725m. Speed=7.164000m/h.</desc>
<speed>1.990000</speed>
</trkpt>
<trkpt lat="56.135212" lon="26.365263">
<ele>103.413147</ele>
<time>2010-08-29T15:57:57Z</time>
<desc>lat.=56.135212, lon.=26.365263, Alt.=103.413147m. Speed=8.388000m/h.</desc>
<speed>2.330000</speed>
</trkpt>
<trkpt lat="56.135201" lon="26.365217">
<ele>103.501038</ele>
<time>2010-08-29T15:57:58Z</time>
<desc>lat.=56.135201, lon.=26.365217, Alt.=103.501038m. Speed=8.460000m/h.</desc>
<speed>2.350000</speed>
</trkpt>
<trkpt lat="56.135193" lon="26.365179">
<ele>103.551819</ele>
<time>2010-08-29T15:57:59Z</time>
<desc>lat.=56.135193, lon.=26.365179, Alt.=103.551819m. Speed=8.748000m/h.</desc>
<speed>2.430000</speed>
</trkpt>
<trkpt lat="56.135181" lon="26.365137">
<ele>103.393616</ele>
<time>2010-08-29T15:58:00Z</time>
<desc>lat.=56.135181, lon.=26.365137, Alt.=103.393616m. Speed=9.288000m/h.</desc>
<speed>2.580000</speed>
</trkpt>
<trkpt lat="56.135178" lon="26.365103">
<ele>103.460022</ele>
<time>2010-08-29T15:58:01Z</time>
<desc>lat.=56.135178, lon.=26.365103, Alt.=103.460022m. Speed=9.000000m/h.</desc>
<speed>2.500000</speed>
</trkpt>
<trkpt lat="56.135174" lon="26.365061">
<ele>103.487366</ele>
<time>2010-08-29T15:58:02Z</time>
<desc>lat.=56.135174, lon.=26.365061, Alt.=103.487366m. Speed=9.216000m/h.</desc>
<speed>2.560000</speed>
</trkpt>
<trkpt lat="56.135170" lon="26.365025">
<ele>103.629944</ele>
<time>2010-08-29T15:58:03Z</time>
<desc>lat.=56.135170, lon.=26.365025, Alt.=103.629944m. Speed=9.108000m/h.</desc>
<speed>2.530000</speed>
</trkpt>
<trkpt lat="56.135166" lon="26.364983">
<ele>103.944397</ele>
<time>2010-08-29T15:58:04Z</time>
<desc>lat.=56.135166, lon.=26.364983, Alt.=103.944397m. Speed=9.324000m/h.</desc>
<speed>2.590000</speed>
</trkpt>
<trkpt lat="56.135159" lon="26.364941">
<ele>104.198303</ele>
<time>2010-08-29T15:58:05Z</time>
<desc>lat.=56.135159, lon.=26.364941, Alt.=104.198303m. Speed=8.568000m/h.</desc>
<speed>2.380000</speed>
</trkpt>
<trkpt lat="56.135155" lon="26.364897">
<ele>104.725647</ele>
<time>2010-08-29T15:58:06Z</time>
<desc>lat.=56.135155, lon.=26.364897, Alt.=104.725647m. Speed=9.720000m/h.</desc>
<speed>2.700000</speed>
</trkpt>
<trkpt lat="56.135151" lon="26.364849">
<ele>104.725647</ele>
<time>2010-08-29T15:58:07Z</time>
<desc>lat.=56.135151, lon.=26.364849, Alt.=104.725647m. Speed=9.504000m/h.</desc>
<speed>2.640000</speed>
</trkpt>
<trkpt lat="56.135155" lon="26.364805">
<ele>104.741272</ele>
<time>2010-08-29T15:58:08Z</time>
<desc>lat.=56.135155, lon.=26.364805, Alt.=104.741272m. Speed=9.396000m/h.</desc>
<speed>2.610000</speed>
</trkpt>
<trkpt lat="56.135159" lon="26.364758">
<ele>104.555725</ele>
<time>2010-08-29T15:58:09Z</time>
<desc>lat.=56.135159, lon.=26.364758, Alt.=104.555725m. Speed=11.412000m/h.</desc>
<speed>3.170000</speed>
</trkpt>
<trkpt lat="56.135170" lon="26.364714">
<ele>104.491272</ele>
<time>2010-08-29T15:58:10Z</time>
<desc>lat.=56.135170, lon.=26.364714, Alt.=104.491272m. Speed=11.160000m/h.</desc>
<speed>3.100000</speed>
</trkpt>
<trkpt lat="56.135181" lon="26.364658">
<ele>104.096741</ele>
<time>2010-08-29T15:58:11Z</time>
<desc>lat.=56.135181, lon.=26.364658, Alt.=104.096741m. Speed=12.096000m/h.</desc>
<speed>3.360000</speed>
</trkpt>
<trkpt lat="56.135193" lon="26.364609">
<ele>103.372131</ele>
<time>2010-08-29T15:58:12Z</time>
<desc>lat.=56.135193, lon.=26.364609, Alt.=103.372131m. Speed=10.584000m/h.</desc>
<speed>2.940000</speed>
</trkpt>
<trkpt lat="56.135212" lon="26.364569">
<ele>103.366272</ele>
<time>2010-08-29T15:58:13Z</time>
<desc>lat.=56.135212, lon.=26.364569, Alt.=103.366272m. Speed=10.728000m/h.</desc>
<speed>2.980000</speed>
</trkpt>
<trkpt lat="56.135231" lon="26.364534">
<ele>103.178772</ele>
<time>2010-08-29T15:58:14Z</time>
<desc>lat.=56.135231, lon.=26.364534, Alt.=103.178772m. Speed=10.296000m/h.</desc>
<speed>2.860000</speed>
</trkpt>
<trkpt lat="56.135250" lon="26.364502">
<ele>103.057678</ele>
<time>2010-08-29T15:58:15Z</time>
<desc>lat.=56.135250, lon.=26.364502, Alt.=103.057678m. Speed=9.612000m/h.</desc>
<speed>2.670000</speed>
</trkpt>
<trkpt lat="56.135273" lon="26.364477">
<ele>102.614319</ele>
<time>2010-08-29T15:58:16Z</time>
<desc>lat.=56.135273, lon.=26.364477, Alt.=102.614319m. Speed=9.612000m/h.</desc>
<speed>2.670000</speed>
</trkpt>
<trkpt lat="56.135296" lon="26.364458">
<ele>102.399475</ele>
<time>2010-08-29T15:58:17Z</time>
<desc>lat.=56.135296, lon.=26.364458, Alt.=102.399475m. Speed=8.172000m/h.</desc>
<speed>2.270000</speed>
</trkpt>
<trkpt lat="56.135319" lon="26.364435">
<ele>102.063538</ele>
<time>2010-08-29T15:58:18Z</time>
<desc>lat.=56.135319, lon.=26.364435, Alt.=102.063538m. Speed=9.432000m/h.</desc>
<speed>2.620000</speed>
</trkpt>
<trkpt lat="56.135342" lon="26.364414">
<ele>101.768616</ele>
<time>2010-08-29T15:58:19Z</time>
<desc>lat.=56.135342, lon.=26.364414, Alt.=101.768616m. Speed=8.208000m/h.</desc>
<speed>2.280000</speed>
</trkpt>
<trkpt lat="56.135357" lon="26.364397">
<ele>101.686584</ele>
<time>2010-08-29T15:58:20Z</time>
<desc>lat.=56.135357, lon.=26.364397, Alt.=101.686584m. Speed=7.632000m/h.</desc>
<speed>2.120000</speed>
</trkpt>
<trkpt lat="56.135372" lon="26.364380">
<ele>101.540100</ele>
<time>2010-08-29T15:58:21Z</time>
<desc>lat.=56.135372, lon.=26.364380, Alt.=101.540100m. Speed=7.812000m/h.</desc>
<speed>2.170000</speed>
</trkpt>
<trkpt lat="56.135391" lon="26.364349">
<ele>101.807678</ele>
<time>2010-08-29T15:58:22Z</time>
<desc>lat.=56.135391, lon.=26.364349, Alt.=101.807678m. Speed=7.884000m/h.</desc>
<speed>2.190000</speed>
</trkpt>
<trkpt lat="56.135403" lon="26.364323">
<ele>101.610413</ele>
<time>2010-08-29T15:58:23Z</time>
<desc>lat.=56.135403, lon.=26.364323, Alt.=101.610413m. Speed=7.740000m/h.</desc>
<speed>2.150000</speed>
</trkpt>
<trkpt lat="56.135414" lon="26.364304">
<ele>101.188538</ele>
<time>2010-08-29T15:58:24Z</time>
<desc>lat.=56.135414, lon.=26.364304, Alt.=101.188538m. Speed=5.616000m/h.</desc>
<speed>1.560000</speed>
</trkpt>
<trkpt lat="56.135426" lon="26.364288">
<ele>101.022522</ele>
<time>2010-08-29T15:58:25Z</time>
<desc>lat.=56.135426, lon.=26.364288, Alt.=101.022522m. Speed=6.156000m/h.</desc>
<speed>1.710000</speed>
</trkpt>
<trkpt lat="56.135441" lon="26.364265">
<ele>100.690491</ele>
<time>2010-08-29T15:58:26Z</time>
<desc>lat.=56.135441, lon.=26.364265, Alt.=100.690491m. Speed=7.020000m/h.</desc>
<speed>1.950000</speed>
</trkpt>
<trkpt lat="56.135460" lon="26.364241">
<ele>100.629944</ele>
<time>2010-08-29T15:58:27Z</time>
<desc>lat.=56.135460, lon.=26.364241, Alt.=100.629944m. Speed=8.064000m/h.</desc>
<speed>2.240000</speed>
</trkpt>
<trkpt lat="56.135487" lon="26.364212">
<ele>100.792053</ele>
<time>2010-08-29T15:58:28Z</time>
<desc>lat.=56.135487, lon.=26.364212, Alt.=100.792053m. Speed=8.172000m/h.</desc>
<speed>2.270000</speed>
</trkpt>
<trkpt lat="56.135506" lon="26.364193">
<ele>101.313538</ele>
<time>2010-08-29T15:58:29Z</time>
<desc>lat.=56.135506, lon.=26.364193, Alt.=101.313538m. Speed=7.596000m/h.</desc>
<speed>2.110000</speed>
</trkpt>
<trkpt lat="56.135521" lon="26.364168">
<ele>101.286194</ele>
<time>2010-08-29T15:58:30Z</time>
<desc>lat.=56.135521, lon.=26.364168, Alt.=101.286194m. Speed=6.264000m/h.</desc>
<speed>1.740000</speed>
</trkpt>
<trkpt lat="56.135532" lon="26.364143">
<ele>101.294006</ele>
<time>2010-08-29T15:58:31Z</time>
<desc>lat.=56.135532, lon.=26.364143, Alt.=101.294006m. Speed=8.748000m/h.</desc>
<speed>2.430000</speed>
</trkpt>
<trkpt lat="56.135548" lon="26.364111">
<ele>101.208069</ele>
<time>2010-08-29T15:58:32Z</time>
<desc>lat.=56.135548, lon.=26.364111, Alt.=101.208069m. Speed=9.396000m/h.</desc>
<speed>2.610000</speed>
</trkpt>
<trkpt lat="56.135563" lon="26.364067">
<ele>101.022522</ele>
<time>2010-08-29T15:58:33Z</time>
<desc>lat.=56.135563, lon.=26.364067, Alt.=101.022522m. Speed=11.664000m/h.</desc>
<speed>3.240000</speed>
</trkpt>
<trkpt lat="56.135590" lon="26.364019">
<ele>100.954163</ele>
<time>2010-08-29T15:58:34Z</time>
<desc>lat.=56.135590, lon.=26.364019, Alt.=100.954163m. Speed=15.372000m/h.</desc>
<speed>4.270000</speed>
</trkpt>
<trkpt lat="56.135628" lon="26.363976">
<ele>100.860413</ele>
<time>2010-08-29T15:58:35Z</time>
<desc>lat.=56.135628, lon.=26.363976, Alt.=100.860413m. Speed=17.351999m/h.</desc>
<speed>4.820000</speed>
</trkpt>
<trkpt lat="56.135666" lon="26.363928">
<ele>100.735413</ele>
<time>2010-08-29T15:58:36Z</time>
<desc>lat.=56.135666, lon.=26.363928, Alt.=100.735413m. Speed=17.712000m/h.</desc>
<speed>4.920000</speed>
</trkpt>
<trkpt lat="56.135704" lon="26.363895">
<ele>100.729553</ele>
<time>2010-08-29T15:58:37Z</time>
<desc>lat.=56.135704, lon.=26.363895, Alt.=100.729553m. Speed=15.840000m/h.</desc>
<speed>4.400000</speed>
</trkpt>
<trkpt lat="56.135746" lon="26.363853">
<ele>100.536194</ele>
<time>2010-08-29T15:58:38Z</time>
<desc>lat.=56.135746, lon.=26.363853, Alt.=100.536194m. Speed=18.035999m/h.</desc>
<speed>5.010000</speed>
</trkpt>
<trkpt lat="56.135799" lon="26.363785">
<ele>100.169006</ele>
<time>2010-08-29T15:58:39Z</time>
<desc>lat.=56.135799, lon.=26.363785, Alt.=100.169006m. Speed=20.195999m/h.</desc>
<speed>5.610000</speed>
</trkpt>
<trkpt lat="56.135841" lon="26.363735">
<ele>99.981506</ele>
<time>2010-08-29T15:58:40Z</time>
<desc>lat.=56.135841, lon.=26.363735, Alt.=99.981506m. Speed=17.820000m/h.</desc>
<speed>4.950000</speed>
</trkpt>
<trkpt lat="56.135887" lon="26.363678">
<ele>99.770569</ele>
<time>2010-08-29T15:58:41Z</time>
<desc>lat.=56.135887, lon.=26.363678, Alt.=99.770569m. Speed=20.268000m/h.</desc>
<speed>5.630000</speed>
</trkpt>
<trkpt lat="56.135929" lon="26.363623">
<ele>99.510803</ele>
<time>2010-08-29T15:58:42Z</time>
<desc>lat.=56.135929, lon.=26.363623, Alt.=99.510803m. Speed=19.656000m/h.</desc>
<speed>5.460000</speed>
</trkpt>
<trkpt lat="56.135963" lon="26.363575">
<ele>99.338928</ele>
<time>2010-08-29T15:58:43Z</time>
<desc>lat.=56.135963, lon.=26.363575, Alt.=99.338928m. Speed=19.511999m/h.</desc>
<speed>5.420000</speed>
</trkpt>
<trkpt lat="56.136009" lon="26.363518">
<ele>99.126038</ele>
<time>2010-08-29T15:58:44Z</time>
<desc>lat.=56.136009, lon.=26.363518, Alt.=99.126038m. Speed=19.728001m/h.</desc>
<speed>5.480000</speed>
</trkpt>
<trkpt lat="56.136055" lon="26.363455">
<ele>98.944397</ele>
<time>2010-08-29T15:58:45Z</time>
<desc>lat.=56.136055, lon.=26.363455, Alt.=98.944397m. Speed=20.916000m/h.</desc>
<speed>5.810000</speed>
</trkpt>
<trkpt lat="56.136097" lon="26.363394">
<ele>98.700256</ele>
<time>2010-08-29T15:58:46Z</time>
<desc>lat.=56.136097, lon.=26.363394, Alt.=98.700256m. Speed=20.268000m/h.</desc>
<speed>5.630000</speed>
</trkpt>
<trkpt lat="56.136147" lon="26.363335">
<ele>98.493225</ele>
<time>2010-08-29T15:58:47Z</time>
<desc>lat.=56.136147, lon.=26.363335, Alt.=98.493225m. Speed=21.563999m/h.</desc>
<speed>5.990000</speed>
</trkpt>
<trkpt lat="56.136192" lon="26.363268">
<ele>98.346741</ele>
<time>2010-08-29T15:58:48Z</time>
<desc>lat.=56.136192, lon.=26.363268, Alt.=98.346741m. Speed=20.520000m/h.</desc>
<speed>5.700000</speed>
</trkpt>
<trkpt lat="56.136238" lon="26.363209">
<ele>98.149475</ele>
<time>2010-08-29T15:58:49Z</time>
<desc>lat.=56.136238, lon.=26.363209, Alt.=98.149475m. Speed=19.836000m/h.</desc>
<speed>5.510000</speed>
</trkpt>
<trkpt lat="56.136276" lon="26.363134">
<ele>98.139709</ele>
<time>2010-08-29T15:58:50Z</time>
<desc>lat.=56.136276, lon.=26.363134, Alt.=98.139709m. Speed=18.180000m/h.</desc>
<speed>5.050000</speed>
</trkpt>
<trkpt lat="56.136318" lon="26.363058">
<ele>98.190491</ele>
<time>2010-08-29T15:58:51Z</time>
<desc>lat.=56.136318, lon.=26.363058, Alt.=98.190491m. Speed=18.540001m/h.</desc>
<speed>5.150000</speed>
</trkpt>
<trkpt lat="56.136379" lon="26.362974">
<ele>98.235413</ele>
<time>2010-08-29T15:58:52Z</time>
<desc>lat.=56.136379, lon.=26.362974, Alt.=98.235413m. Speed=21.275999m/h.</desc>
<speed>5.910000</speed>
</trkpt>
<trkpt lat="56.136433" lon="26.362894">
<ele>98.516663</ele>
<time>2010-08-29T15:58:53Z</time>
<desc>lat.=56.136433, lon.=26.362894, Alt.=98.516663m. Speed=21.816000m/h.</desc>
<speed>6.060000</speed>
</trkpt>
<trkpt lat="56.136482" lon="26.362823">
<ele>98.555725</ele>
<time>2010-08-29T15:58:54Z</time>
<desc>lat.=56.136482, lon.=26.362823, Alt.=98.555725m. Speed=21.924000m/h.</desc>
<speed>6.090000</speed>
</trkpt>
<trkpt lat="56.136528" lon="26.362768">
<ele>98.335022</ele>
<time>2010-08-29T15:58:55Z</time>
<desc>lat.=56.136528, lon.=26.362768, Alt.=98.335022m. Speed=20.952000m/h.</desc>
<speed>5.820000</speed>
</trkpt>
<trkpt lat="56.136574" lon="26.362711">
<ele>98.243225</ele>
<time>2010-08-29T15:58:56Z</time>
<desc>lat.=56.136574, lon.=26.362711, Alt.=98.243225m. Speed=20.591999m/h.</desc>
<speed>5.720000</speed>
</trkpt>
<trkpt lat="56.136623" lon="26.362656">
<ele>96.733459</ele>
<time>2010-08-29T15:58:57Z</time>
<desc>lat.=56.136623, lon.=26.362656, Alt.=96.733459m. Speed=21.312000m/h.</desc>
<speed>5.920000</speed>
</trkpt>
<trkpt lat="56.136665" lon="26.362604">
<ele>96.266663</ele>
<time>2010-08-29T15:58:58Z</time>
<desc>lat.=56.136665, lon.=26.362604, Alt.=96.266663m. Speed=19.728001m/h.</desc>
<speed>5.480000</speed>
</trkpt>
<trkpt lat="56.136703" lon="26.362553">
<ele>96.085022</ele>
<time>2010-08-29T15:58:59Z</time>
<desc>lat.=56.136703, lon.=26.362553, Alt.=96.085022m. Speed=17.856001m/h.</desc>
<speed>4.960000</speed>
</trkpt>
<trkpt lat="56.136742" lon="26.362505">
<ele>95.731506</ele>
<time>2010-08-29T15:59:00Z</time>
<desc>lat.=56.136742, lon.=26.362505, Alt.=95.731506m. Speed=18.431999m/h.</desc>
<speed>5.120000</speed>
</trkpt>
<trkpt lat="56.136784" lon="26.362455">
<ele>95.266663</ele>
<time>2010-08-29T15:59:01Z</time>
<desc>lat.=56.136784, lon.=26.362455, Alt.=95.266663m. Speed=18.431999m/h.</desc>
<speed>5.120000</speed>
</trkpt>
<trkpt lat="56.136818" lon="26.362406">
<ele>94.973694</ele>
<time>2010-08-29T15:59:02Z</time>
<desc>lat.=56.136818, lon.=26.362406, Alt.=94.973694m. Speed=17.459999m/h.</desc>
<speed>4.850000</speed>
</trkpt>
<trkpt lat="56.136845" lon="26.362358">
<ele>94.684631</ele>
<time>2010-08-29T15:59:03Z</time>
<desc>lat.=56.136845, lon.=26.362358, Alt.=94.684631m. Speed=14.220000m/h.</desc>
<speed>3.950000</speed>
</trkpt>
<trkpt lat="56.136868" lon="26.362326">
<ele>94.251038</ele>
<time>2010-08-29T15:59:04Z</time>
<desc>lat.=56.136868, lon.=26.362326, Alt.=94.251038m. Speed=10.800000m/h.</desc>
<speed>3.000000</speed>
</trkpt>
<trkpt lat="56.136890" lon="26.362289">
<ele>93.872131</ele>
<time>2010-08-29T15:59:05Z</time>
<desc>lat.=56.136890, lon.=26.362289, Alt.=93.872131m. Speed=12.636000m/h.</desc>
<speed>3.510000</speed>
</trkpt>
<trkpt lat="56.136932" lon="26.362242">
<ele>93.618225</ele>
<time>2010-08-29T15:59:06Z</time>
<desc>lat.=56.136932, lon.=26.362242, Alt.=93.618225m. Speed=17.100000m/h.</desc>
<speed>4.750000</speed>
</trkpt>
<trkpt lat="56.136971" lon="26.362196">
<ele>93.389709</ele>
<time>2010-08-29T15:59:07Z</time>
<desc>lat.=56.136971, lon.=26.362196, Alt.=93.389709m. Speed=17.388000m/h.</desc>
<speed>4.830000</speed>
</trkpt>
<trkpt lat="56.137016" lon="26.362135">
<ele>93.217834</ele>
<time>2010-08-29T15:59:08Z</time>
<desc>lat.=56.137016, lon.=26.362135, Alt.=93.217834m. Speed=17.100000m/h.</desc>
<speed>4.750000</speed>
</trkpt>
<trkpt lat="56.137054" lon="26.362087">
<ele>93.045959</ele>
<time>2010-08-29T15:59:09Z</time>
<desc>lat.=56.137054, lon.=26.362087, Alt.=93.045959m. Speed=16.884001m/h.</desc>
<speed>4.690000</speed>
</trkpt>
<trkpt lat="56.137093" lon="26.362036">
<ele>92.782288</ele>
<time>2010-08-29T15:59:10Z</time>
<desc>lat.=56.137093, lon.=26.362036, Alt.=92.782288m. Speed=17.459999m/h.</desc>
<speed>4.850000</speed>
</trkpt>
<trkpt lat="56.137142" lon="26.361965">
<ele>92.196350</ele>
<time>2010-08-29T15:59:11Z</time>
<desc>lat.=56.137142, lon.=26.361965, Alt.=92.196350m. Speed=19.080000m/h.</desc>
<speed>5.300000</speed>
</trkpt>
<trkpt lat="56.137192" lon="26.361897">
<ele>91.598694</ele>
<time>2010-08-29T15:59:12Z</time>
<desc>lat.=56.137192, lon.=26.361897, Alt.=91.598694m. Speed=19.944000m/h.</desc>
<speed>5.540000</speed>
</trkpt>
<trkpt lat="56.137241" lon="26.361834">
<ele>91.424866</ele>
<time>2010-08-29T15:59:13Z</time>
<desc>lat.=56.137241, lon.=26.361834, Alt.=91.424866m. Speed=21.672001m/h.</desc>
<speed>6.020000</speed>
</trkpt>
<trkpt lat="56.137291" lon="26.361767">
<ele>91.141663</ele>
<time>2010-08-29T15:59:14Z</time>
<desc>lat.=56.137291, lon.=26.361767, Alt.=91.141663m. Speed=23.436001m/h.</desc>
<speed>6.510000</speed>
</trkpt>
<trkpt lat="56.137337" lon="26.361706">
<ele>90.710022</ele>
<time>2010-08-29T15:59:15Z</time>
<desc>lat.=56.137337, lon.=26.361706, Alt.=90.710022m. Speed=23.004000m/h.</desc>
<speed>6.390000</speed>
</trkpt>
<trkpt lat="56.137379" lon="26.361641">
<ele>90.522522</ele>
<time>2010-08-29T15:59:16Z</time>
<desc>lat.=56.137379, lon.=26.361641, Alt.=90.522522m. Speed=22.500000m/h.</desc>
<speed>6.250000</speed>
</trkpt>
<trkpt lat="56.137424" lon="26.361578">
<ele>90.288147</ele>
<time>2010-08-29T15:59:17Z</time>
<desc>lat.=56.137424, lon.=26.361578, Alt.=90.288147m. Speed=23.364000m/h.</desc>
<speed>6.490000</speed>
</trkpt>
<trkpt lat="56.137489" lon="26.361511">
<ele>89.819397</ele>
<time>2010-08-29T15:59:18Z</time>
<desc>lat.=56.137489, lon.=26.361511, Alt.=89.819397m. Speed=24.516001m/h.</desc>
<speed>6.810000</speed>
</trkpt>
<trkpt lat="56.137543" lon="26.361435">
<ele>89.780334</ele>
<time>2010-08-29T15:59:19Z</time>
<desc>lat.=56.137543, lon.=26.361435, Alt.=89.780334m. Speed=24.480000m/h.</desc>
<speed>6.800000</speed>
</trkpt>
<trkpt lat="56.137596" lon="26.361368">
<ele>89.629944</ele>
<time>2010-08-29T15:59:20Z</time>
<desc>lat.=56.137596, lon.=26.361368, Alt.=89.629944m. Speed=24.804001m/h.</desc>
<speed>6.890000</speed>
</trkpt>
<trkpt lat="56.137646" lon="26.361298">
<ele>89.579163</ele>
<time>2010-08-29T15:59:21Z</time>
<desc>lat.=56.137646, lon.=26.361298, Alt.=89.579163m. Speed=24.840000m/h.</desc>
<speed>6.900000</speed>
</trkpt>
<trkpt lat="56.137695" lon="26.361229">
<ele>89.338928</ele>
<time>2010-08-29T15:59:22Z</time>
<desc>lat.=56.137695, lon.=26.361229, Alt.=89.338928m. Speed=24.048000m/h.</desc>
<speed>6.680000</speed>
</trkpt>
<trkpt lat="56.137745" lon="26.361156">
<ele>89.200256</ele>
<time>2010-08-29T15:59:23Z</time>
<desc>lat.=56.137745, lon.=26.361156, Alt.=89.200256m. Speed=24.516001m/h.</desc>
<speed>6.810000</speed>
</trkpt>
<trkpt lat="56.137802" lon="26.361078">
<ele>89.210022</ele>
<time>2010-08-29T15:59:24Z</time>
<desc>lat.=56.137802, lon.=26.361078, Alt.=89.210022m. Speed=26.351999m/h.</desc>
<speed>7.320000</speed>
</trkpt>
<trkpt lat="56.137859" lon="26.360998">
<ele>88.848694</ele>
<time>2010-08-29T15:59:25Z</time>
<desc>lat.=56.137859, lon.=26.360998, Alt.=88.848694m. Speed=26.568001m/h.</desc>
<speed>7.380000</speed>
</trkpt>
<trkpt lat="56.137909" lon="26.360941">
<ele>88.436584</ele>
<time>2010-08-29T15:59:26Z</time>
<desc>lat.=56.137909, lon.=26.360941, Alt.=88.436584m. Speed=25.164000m/h.</desc>
<speed>6.990000</speed>
</trkpt>
<trkpt lat="56.137955" lon="26.360880">
<ele>88.311584</ele>
<time>2010-08-29T15:59:27Z</time>
<desc>lat.=56.137955, lon.=26.360880, Alt.=88.311584m. Speed=24.840000m/h.</desc>
<speed>6.900000</speed>
</trkpt>
<trkpt lat="56.138000" lon="26.360811">
<ele>88.118225</ele>
<time>2010-08-29T15:59:28Z</time>
<desc>lat.=56.138000, lon.=26.360811, Alt.=88.118225m. Speed=24.048000m/h.</desc>
<speed>6.680000</speed>
</trkpt>
<trkpt lat="56.138050" lon="26.360744">
<ele>87.817444</ele>
<time>2010-08-29T15:59:29Z</time>
<desc>lat.=56.138050, lon.=26.360744, Alt.=87.817444m. Speed=24.011999m/h.</desc>
<speed>6.670000</speed>
</trkpt>
<trkpt lat="56.138088" lon="26.360664">
<ele>87.294006</ele>
<time>2010-08-29T15:59:30Z</time>
<desc>lat.=56.138088, lon.=26.360664, Alt.=87.294006m. Speed=23.903999m/h.</desc>
<speed>6.640000</speed>
</trkpt>
<trkpt lat="56.138142" lon="26.360590">
<ele>86.377991</ele>
<time>2010-08-29T15:59:31Z</time>
<desc>lat.=56.138142, lon.=26.360590, Alt.=86.377991m. Speed=24.732000m/h.</desc>
<speed>6.870000</speed>
</trkpt>
<trkpt lat="56.138199" lon="26.360523">
<ele>85.895569</ele>
<time>2010-08-29T15:59:32Z</time>
<desc>lat.=56.138199, lon.=26.360523, Alt.=85.895569m. Speed=24.840000m/h.</desc>
<speed>6.900000</speed>
</trkpt>
<trkpt lat="56.138248" lon="26.360451">
<ele>85.760803</ele>
<time>2010-08-29T15:59:33Z</time>
<desc>lat.=56.138248, lon.=26.360451, Alt.=85.760803m. Speed=25.091999m/h.</desc>
<speed>6.970000</speed>
</trkpt>
<trkpt lat="56.138294" lon="26.360380">
<ele>85.460022</ele>
<time>2010-08-29T15:59:34Z</time>
<desc>lat.=56.138294, lon.=26.360380, Alt.=85.460022m. Speed=26.136000m/h.</desc>
<speed>7.260000</speed>
</trkpt>
<trkpt lat="56.138340" lon="26.360306">
<ele>85.211975</ele>
<time>2010-08-29T15:59:35Z</time>
<desc>lat.=56.138340, lon.=26.360306, Alt.=85.211975m. Speed=25.308001m/h.</desc>
<speed>7.030000</speed>
</trkpt>
<trkpt lat="56.138386" lon="26.360222">
<ele>85.397522</ele>
<time>2010-08-29T15:59:36Z</time>
<desc>lat.=56.138386, lon.=26.360222, Alt.=85.397522m. Speed=25.236000m/h.</desc>
<speed>7.010000</speed>
</trkpt>
<trkpt lat="56.138432" lon="26.360146">
<ele>85.247131</ele>
<time>2010-08-29T15:59:37Z</time>
<desc>lat.=56.138432, lon.=26.360146, Alt.=85.247131m. Speed=24.336000m/h.</desc>
<speed>6.760000</speed>
</trkpt>
<trkpt lat="56.138470" lon="26.360071">
<ele>85.403381</ele>
<time>2010-08-29T15:59:38Z</time>
<desc>lat.=56.138470, lon.=26.360071, Alt.=85.403381m. Speed=23.472000m/h.</desc>
<speed>6.520000</speed>
</trkpt>
<trkpt lat="56.138508" lon="26.359995">
<ele>85.317444</ele>
<time>2010-08-29T15:59:39Z</time>
<desc>lat.=56.138508, lon.=26.359995, Alt.=85.317444m. Speed=22.860001m/h.</desc>
<speed>6.350000</speed>
</trkpt>
<trkpt lat="56.138550" lon="26.359917">
<ele>85.374084</ele>
<time>2010-08-29T15:59:40Z</time>
<desc>lat.=56.138550, lon.=26.359917, Alt.=85.374084m. Speed=22.716000m/h.</desc>
<speed>6.310000</speed>
</trkpt>
<trkpt lat="56.138592" lon="26.359837">
<ele>85.438538</ele>
<time>2010-08-29T15:59:41Z</time>
<desc>lat.=56.138592, lon.=26.359837, Alt.=85.438538m. Speed=22.752001m/h.</desc>
<speed>6.320000</speed>
</trkpt>
<trkpt lat="56.138630" lon="26.359768">
<ele>85.252991</ele>
<time>2010-08-29T15:59:42Z</time>
<desc>lat.=56.138630, lon.=26.359768, Alt.=85.252991m. Speed=22.247999m/h.</desc>
<speed>6.180000</speed>
</trkpt>
<trkpt lat="56.138668" lon="26.359695">
<ele>85.024475</ele>
<time>2010-08-29T15:59:43Z</time>
<desc>lat.=56.138668, lon.=26.359695, Alt.=85.024475m. Speed=21.059999m/h.</desc>
<speed>5.850000</speed>
</trkpt>
<trkpt lat="56.138706" lon="26.359629">
<ele>85.001038</ele>
<time>2010-08-29T15:59:44Z</time>
<desc>lat.=56.138706, lon.=26.359629, Alt.=85.001038m. Speed=20.195999m/h.</desc>
<speed>5.610000</speed>
</trkpt>
<trkpt lat="56.138744" lon="26.359566">
<ele>84.864319</ele>
<time>2010-08-29T15:59:45Z</time>
<desc>lat.=56.138744, lon.=26.359566, Alt.=84.864319m. Speed=19.403999m/h.</desc>
<speed>5.390000</speed>
</trkpt>
<trkpt lat="56.138775" lon="26.359503">
<ele>84.799866</ele>
<time>2010-08-29T15:59:46Z</time>
<desc>lat.=56.138775, lon.=26.359503, Alt.=84.799866m. Speed=18.360001m/h.</desc>
<speed>5.100000</speed>
</trkpt>
<trkpt lat="56.138802" lon="26.359449">
<ele>84.813538</ele>
<time>2010-08-29T15:59:47Z</time>
<desc>lat.=56.138802, lon.=26.359449, Alt.=84.813538m. Speed=17.136000m/h.</desc>
<speed>4.760000</speed>
</trkpt>
<trkpt lat="56.138821" lon="26.359386">
<ele>85.094788</ele>
<time>2010-08-29T15:59:48Z</time>
<desc>lat.=56.138821, lon.=26.359386, Alt.=85.094788m. Speed=17.351999m/h.</desc>
<speed>4.820000</speed>
</trkpt>
<trkpt lat="56.138855" lon="26.359331">
<ele>85.219788</ele>
<time>2010-08-29T15:59:49Z</time>
<desc>lat.=56.138855, lon.=26.359331, Alt.=85.219788m. Speed=16.775999m/h.</desc>
<speed>4.660000</speed>
</trkpt>
<trkpt lat="56.138885" lon="26.359280">
<ele>85.549866</ele>
<time>2010-08-29T15:59:50Z</time>
<desc>lat.=56.138885, lon.=26.359280, Alt.=85.549866m. Speed=16.775999m/h.</desc>
<speed>4.660000</speed>
</trkpt>
<trkpt lat="56.138916" lon="26.359226">
<ele>86.489319</ele>
<time>2010-08-29T15:59:51Z</time>
<desc>lat.=56.138916, lon.=26.359226, Alt.=86.489319m. Speed=16.020000m/h.</desc>
<speed>4.450000</speed>
</trkpt>
<trkpt lat="56.138943" lon="26.359177">
<ele>86.899475</ele>
<time>2010-08-29T15:59:52Z</time>
<desc>lat.=56.138943, lon.=26.359177, Alt.=86.899475m. Speed=15.660000m/h.</desc>
<speed>4.350000</speed>
</trkpt>
<trkpt lat="56.138973" lon="26.359127">
<ele>87.063538</ele>
<time>2010-08-29T15:59:53Z</time>
<desc>lat.=56.138973, lon.=26.359127, Alt.=87.063538m. Speed=15.156000m/h.</desc>
<speed>4.210000</speed>
</trkpt>
<trkpt lat="56.139000" lon="26.359076">
<ele>86.969788</ele>
<time>2010-08-29T15:59:54Z</time>
<desc>lat.=56.139000, lon.=26.359076, Alt.=86.969788m. Speed=15.876000m/h.</desc>
<speed>4.410000</speed>
</trkpt>
<trkpt lat="56.139023" lon="26.359022">
<ele>86.975647</ele>
<time>2010-08-29T15:59:55Z</time>
<desc>lat.=56.139023, lon.=26.359022, Alt.=86.975647m. Speed=15.120000m/h.</desc>
<speed>4.200000</speed>
</trkpt>
<trkpt lat="56.139046" lon="26.358974">
<ele>87.081116</ele>
<time>2010-08-29T15:59:56Z</time>
<desc>lat.=56.139046, lon.=26.358974, Alt.=87.081116m. Speed=13.392000m/h.</desc>
<speed>3.720000</speed>
</trkpt>
<trkpt lat="56.139069" lon="26.358931">
<ele>86.588928</ele>
<time>2010-08-29T15:59:57Z</time>
<desc>lat.=56.139069, lon.=26.358931, Alt.=86.588928m. Speed=14.508000m/h.</desc>
<speed>4.030000</speed>
</trkpt>
<trkpt lat="56.139088" lon="26.358875">
<ele>86.532288</ele>
<time>2010-08-29T15:59:58Z</time>
<desc>lat.=56.139088, lon.=26.358875, Alt.=86.532288m. Speed=15.012000m/h.</desc>
<speed>4.170000</speed>
</trkpt>
<trkpt lat="56.139114" lon="26.358828">
<ele>86.176819</ele>
<time>2010-08-29T15:59:59Z</time>
<desc>lat.=56.139114, lon.=26.358828, Alt.=86.176819m. Speed=16.020000m/h.</desc>
<speed>4.450000</speed>
</trkpt>
<trkpt lat="56.139141" lon="26.358763">
<ele>86.178772</ele>
<time>2010-08-29T16:00:00Z</time>
<desc>lat.=56.139141, lon.=26.358763, Alt.=86.178772m. Speed=18.143999m/h.</desc>
<speed>5.040000</speed>
</trkpt>
<trkpt lat="56.139172" lon="26.358700">
<ele>87.479553</ele>
<time>2010-08-29T16:00:01Z</time>
<desc>lat.=56.139172, lon.=26.358700, Alt.=87.479553m. Speed=18.216000m/h.</desc>
<speed>5.060000</speed>
</trkpt>
<trkpt lat="56.139191" lon="26.358637">
<ele>88.725647</ele>
<time>2010-08-29T16:00:02Z</time>
<desc>lat.=56.139191, lon.=26.358637, Alt.=88.725647m. Speed=19.080000m/h.</desc>
<speed>5.300000</speed>
</trkpt>
<trkpt lat="56.139221" lon="26.358570">
<ele>89.307678</ele>
<time>2010-08-29T16:00:03Z</time>
<desc>lat.=56.139221, lon.=26.358570, Alt.=89.307678m. Speed=19.548000m/h.</desc>
<speed>5.430000</speed>
</trkpt>
<trkpt lat="56.139252" lon="26.358500">
<ele>89.501038</ele>
<time>2010-08-29T16:00:04Z</time>
<desc>lat.=56.139252, lon.=26.358500, Alt.=89.501038m. Speed=20.195999m/h.</desc>
<speed>5.610000</speed>
</trkpt>
<trkpt lat="56.139282" lon="26.358425">
<ele>90.547913</ele>
<time>2010-08-29T16:00:05Z</time>
<desc>lat.=56.139282, lon.=26.358425, Alt.=90.547913m. Speed=21.024000m/h.</desc>
<speed>5.840000</speed>
</trkpt>
<trkpt lat="56.139313" lon="26.358349">
<ele>91.430725</ele>
<time>2010-08-29T16:00:06Z</time>
<desc>lat.=56.139313, lon.=26.358349, Alt.=91.430725m. Speed=20.808001m/h.</desc>
<speed>5.780000</speed>
</trkpt>
<trkpt lat="56.139343" lon="26.358273">
<ele>92.124084</ele>
<time>2010-08-29T16:00:07Z</time>
<desc>lat.=56.139343, lon.=26.358273, Alt.=92.124084m. Speed=20.736000m/h.</desc>
<speed>5.760000</speed>
</trkpt>
<trkpt lat="56.139374" lon="26.358200">
<ele>92.426819</ele>
<time>2010-08-29T16:00:08Z</time>
<desc>lat.=56.139374, lon.=26.358200, Alt.=92.426819m. Speed=20.664000m/h.</desc>
<speed>5.740000</speed>
</trkpt>
<trkpt lat="56.139404" lon="26.358128">
<ele>92.733459</ele>
<time>2010-08-29T16:00:09Z</time>
<desc>lat.=56.139404, lon.=26.358128, Alt.=92.733459m. Speed=20.628000m/h.</desc>
<speed>5.730000</speed>
</trkpt>
<trkpt lat="56.139435" lon="26.358046">
<ele>92.706116</ele>
<time>2010-08-29T16:00:10Z</time>
<desc>lat.=56.139435, lon.=26.358046, Alt.=92.706116m. Speed=20.628000m/h.</desc>
<speed>5.730000</speed>
</trkpt>
<trkpt lat="56.139462" lon="26.357971">
<ele>92.965881</ele>
<time>2010-08-29T16:00:11Z</time>
<desc>lat.=56.139462, lon.=26.357971, Alt.=92.965881m. Speed=20.340000m/h.</desc>
<speed>5.650000</speed>
</trkpt>
<trkpt lat="56.139492" lon="26.357903">
<ele>93.010803</ele>
<time>2010-08-29T16:00:12Z</time>
<desc>lat.=56.139492, lon.=26.357903, Alt.=93.010803m. Speed=20.664000m/h.</desc>
<speed>5.740000</speed>
</trkpt>
<trkpt lat="56.139526" lon="26.357832">
<ele>92.885803</ele>
<time>2010-08-29T16:00:13Z</time>
<desc>lat.=56.139526, lon.=26.357832, Alt.=92.885803m. Speed=20.736000m/h.</desc>
<speed>5.760000</speed>
</trkpt>
<trkpt lat="56.139561" lon="26.357758">
<ele>92.971741</ele>
<time>2010-08-29T16:00:14Z</time>
<desc>lat.=56.139561, lon.=26.357758, Alt.=92.971741m. Speed=20.448000m/h.</desc>
<speed>5.680000</speed>
</trkpt>
<trkpt lat="56.139587" lon="26.357685">
<ele>92.829163</ele>
<time>2010-08-29T16:00:15Z</time>
<desc>lat.=56.139587, lon.=26.357685, Alt.=92.829163m. Speed=20.591999m/h.</desc>
<speed>5.720000</speed>
</trkpt>
<trkpt lat="56.139614" lon="26.357609">
<ele>92.696350</ele>
<time>2010-08-29T16:00:16Z</time>
<desc>lat.=56.139614, lon.=26.357609, Alt.=92.696350m. Speed=20.340000m/h.</desc>
<speed>5.650000</speed>
</trkpt>
<trkpt lat="56.139648" lon="26.357534">
<ele>93.044006</ele>
<time>2010-08-29T16:00:17Z</time>
<desc>lat.=56.139648, lon.=26.357534, Alt.=93.044006m. Speed=20.304001m/h.</desc>
<speed>5.640000</speed>
</trkpt>
<trkpt lat="56.139675" lon="26.357460">
<ele>93.118225</ele>
<time>2010-08-29T16:00:18Z</time>
<desc>lat.=56.139675, lon.=26.357460, Alt.=93.118225m. Speed=20.124001m/h.</desc>
<speed>5.590000</speed>
</trkpt>
<trkpt lat="56.139702" lon="26.357388">
<ele>93.356506</ele>
<time>2010-08-29T16:00:19Z</time>
<desc>lat.=56.139702, lon.=26.357388, Alt.=93.356506m. Speed=19.836000m/h.</desc>
<speed>5.510000</speed>
</trkpt>
<trkpt lat="56.139729" lon="26.357315">
<ele>93.237366</ele>
<time>2010-08-29T16:00:20Z</time>
<desc>lat.=56.139729, lon.=26.357315, Alt.=93.237366m. Speed=19.368000m/h.</desc>
<speed>5.380000</speed>
</trkpt>
<trkpt lat="56.139755" lon="26.357241">
<ele>93.354553</ele>
<time>2010-08-29T16:00:21Z</time>
<desc>lat.=56.139755, lon.=26.357241, Alt.=93.354553m. Speed=19.296000m/h.</desc>
<speed>5.360000</speed>
</trkpt>
<trkpt lat="56.139778" lon="26.357170">
<ele>93.270569</ele>
<time>2010-08-29T16:00:22Z</time>
<desc>lat.=56.139778, lon.=26.357170, Alt.=93.270569m. Speed=18.827999m/h.</desc>
<speed>5.230000</speed>
</trkpt>
<trkpt lat="56.139797" lon="26.357107">
<ele>93.651428</ele>
<time>2010-08-29T16:00:23Z</time>
<desc>lat.=56.139797, lon.=26.357107, Alt.=93.651428m. Speed=18.000000m/h.</desc>
<speed>5.000000</speed>
</trkpt>
<trkpt lat="56.139820" lon="26.357042">
<ele>93.456116</ele>
<time>2010-08-29T16:00:24Z</time>
<desc>lat.=56.139820, lon.=26.357042, Alt.=93.456116m. Speed=18.323999m/h.</desc>
<speed>5.090000</speed>
</trkpt>
<trkpt lat="56.139847" lon="26.356974">
<ele>93.208069</ele>
<time>2010-08-29T16:00:25Z</time>
<desc>lat.=56.139847, lon.=26.356974, Alt.=93.208069m. Speed=18.252001m/h.</desc>
<speed>5.070000</speed>
</trkpt>
<trkpt lat="56.139866" lon="26.356903">
<ele>93.110413</ele>
<time>2010-08-29T16:00:26Z</time>
<desc>lat.=56.139866, lon.=26.356903, Alt.=93.110413m. Speed=18.072001m/h.</desc>
<speed>5.020000</speed>
</trkpt>
<trkpt lat="56.139889" lon="26.356836">
<ele>93.032288</ele>
<time>2010-08-29T16:00:27Z</time>
<desc>lat.=56.139889, lon.=26.356836, Alt.=93.032288m. Speed=17.424000m/h.</desc>
<speed>4.840000</speed>
</trkpt>
<trkpt lat="56.139912" lon="26.356766">
<ele>93.676819</ele>
<time>2010-08-29T16:00:28Z</time>
<desc>lat.=56.139912, lon.=26.356766, Alt.=93.676819m. Speed=16.559999m/h.</desc>
<speed>4.600000</speed>
</trkpt>
<trkpt lat="56.139927" lon="26.356695">
<ele>94.065491</ele>
<time>2010-08-29T16:00:29Z</time>
<desc>lat.=56.139927, lon.=26.356695, Alt.=94.065491m. Speed=17.747999m/h.</desc>
<speed>4.930000</speed>
</trkpt>
<trkpt lat="56.139950" lon="26.356623">
<ele>94.098694</ele>
<time>2010-08-29T16:00:30Z</time>
<desc>lat.=56.139950, lon.=26.356623, Alt.=94.098694m. Speed=17.712000m/h.</desc>
<speed>4.920000</speed>
</trkpt>
<trkpt lat="56.139977" lon="26.356562">
<ele>93.463928</ele>
<time>2010-08-29T16:00:31Z</time>
<desc>lat.=56.139977, lon.=26.356562, Alt.=93.463928m. Speed=16.452000m/h.</desc>
<speed>4.570000</speed>
</trkpt>
<trkpt lat="56.139996" lon="26.356499">
<ele>94.114319</ele>
<time>2010-08-29T16:00:32Z</time>
<desc>lat.=56.139996, lon.=26.356499, Alt.=94.114319m. Speed=15.984000m/h.</desc>
<speed>4.440000</speed>
</trkpt>
<trkpt lat="56.140018" lon="26.356438">
<ele>93.657288</ele>
<time>2010-08-29T16:00:33Z</time>
<desc>lat.=56.140018, lon.=26.356438, Alt.=93.657288m. Speed=16.164000m/h.</desc>
<speed>4.490000</speed>
</trkpt>
<trkpt lat="56.140041" lon="26.356380">
<ele>93.659241</ele>
<time>2010-08-29T16:00:34Z</time>
<desc>lat.=56.140041, lon.=26.356380, Alt.=93.659241m. Speed=15.300000m/h.</desc>
<speed>4.250000</speed>
</trkpt>
<trkpt lat="56.140060" lon="26.356318">
<ele>94.788147</ele>
<time>2010-08-29T16:00:35Z</time>
<desc>lat.=56.140060, lon.=26.356318, Alt.=94.788147m. Speed=15.372000m/h.</desc>
<speed>4.270000</speed>
</trkpt>
<trkpt lat="56.140083" lon="26.356260">
<ele>94.758850</ele>
<time>2010-08-29T16:00:36Z</time>
<desc>lat.=56.140083, lon.=26.356260, Alt.=94.758850m. Speed=15.588000m/h.</desc>
<speed>4.330000</speed>
</trkpt>
<trkpt lat="56.140110" lon="26.356199">
<ele>94.909241</ele>
<time>2010-08-29T16:00:37Z</time>
<desc>lat.=56.140110, lon.=26.356199, Alt.=94.909241m. Speed=18.216000m/h.</desc>
<speed>5.060000</speed>
</trkpt>
<trkpt lat="56.140137" lon="26.356131">
<ele>95.020569</ele>
<time>2010-08-29T16:00:38Z</time>
<desc>lat.=56.140137, lon.=26.356131, Alt.=95.020569m. Speed=20.304001m/h.</desc>
<speed>5.640000</speed>
</trkpt>
<trkpt lat="56.140171" lon="26.356050">
<ele>95.163147</ele>
<time>2010-08-29T16:00:39Z</time>
<desc>lat.=56.140171, lon.=26.356050, Alt.=95.163147m. Speed=21.455999m/h.</desc>
<speed>5.960000</speed>
</trkpt>
<trkpt lat="56.140198" lon="26.355970">
<ele>95.192444</ele>
<time>2010-08-29T16:00:40Z</time>
<desc>lat.=56.140198, lon.=26.355970, Alt.=95.192444m. Speed=22.535999m/h.</desc>
<speed>6.260000</speed>
</trkpt>
<trkpt lat="56.140228" lon="26.355886">
<ele>95.215881</ele>
<time>2010-08-29T16:00:41Z</time>
<desc>lat.=56.140228, lon.=26.355886, Alt.=95.215881m. Speed=22.572001m/h.</desc>
<speed>6.270000</speed>
</trkpt>
<trkpt lat="56.140255" lon="26.355803">
<ele>95.194397</ele>
<time>2010-08-29T16:00:42Z</time>
<desc>lat.=56.140255, lon.=26.355803, Alt.=95.194397m. Speed=21.924000m/h.</desc>
<speed>6.090000</speed>
</trkpt>
<trkpt lat="56.140274" lon="26.355717">
<ele>95.131897</ele>
<time>2010-08-29T16:00:43Z</time>
<desc>lat.=56.140274, lon.=26.355717, Alt.=95.131897m. Speed=21.384001m/h.</desc>
<speed>5.940000</speed>
</trkpt>
<trkpt lat="56.140297" lon="26.355631">
<ele>94.801819</ele>
<time>2010-08-29T16:00:44Z</time>
<desc>lat.=56.140297, lon.=26.355631, Alt.=94.801819m. Speed=20.916000m/h.</desc>
<speed>5.810000</speed>
</trkpt>
<trkpt lat="56.140316" lon="26.355545">
<ele>94.981506</ele>
<time>2010-08-29T16:00:45Z</time>
<desc>lat.=56.140316, lon.=26.355545, Alt.=94.981506m. Speed=21.096001m/h.</desc>
<speed>5.860000</speed>
</trkpt>
<trkpt lat="56.140335" lon="26.355461">
<ele>95.219788</ele>
<time>2010-08-29T16:00:46Z</time>
<desc>lat.=56.140335, lon.=26.355461, Alt.=95.219788m. Speed=21.996000m/h.</desc>
<speed>6.110000</speed>
</trkpt>
<trkpt lat="56.140362" lon="26.355368">
<ele>95.377991</ele>
<time>2010-08-29T16:00:47Z</time>
<desc>lat.=56.140362, lon.=26.355368, Alt.=95.377991m. Speed=22.860001m/h.</desc>
<speed>6.350000</speed>
</trkpt>
<trkpt lat="56.140388" lon="26.355268">
<ele>95.254944</ele>
<time>2010-08-29T16:00:48Z</time>
<desc>lat.=56.140388, lon.=26.355268, Alt.=95.254944m. Speed=23.544001m/h.</desc>
<speed>6.540000</speed>
</trkpt>
<trkpt lat="56.140411" lon="26.355169">
<ele>95.311584</ele>
<time>2010-08-29T16:00:49Z</time>
<desc>lat.=56.140411, lon.=26.355169, Alt.=95.311584m. Speed=24.011999m/h.</desc>
<speed>6.670000</speed>
</trkpt>
<trkpt lat="56.140434" lon="26.355070">
<ele>95.274475</ele>
<time>2010-08-29T16:00:50Z</time>
<desc>lat.=56.140434, lon.=26.355070, Alt.=95.274475m. Speed=24.587999m/h.</desc>
<speed>6.830000</speed>
</trkpt>
<trkpt lat="56.140457" lon="26.354971">
<ele>94.909241</ele>
<time>2010-08-29T16:00:51Z</time>
<desc>lat.=56.140457, lon.=26.354971, Alt.=94.909241m. Speed=25.344000m/h.</desc>
<speed>7.040000</speed>
</trkpt>
<trkpt lat="56.140484" lon="26.354866">
<ele>95.055725</ele>
<time>2010-08-29T16:00:52Z</time>
<desc>lat.=56.140484, lon.=26.354866, Alt.=95.055725m. Speed=25.992001m/h.</desc>
<speed>7.220000</speed>
</trkpt>
<trkpt lat="56.140511" lon="26.354757">
<ele>94.885803</ele>
<time>2010-08-29T16:00:53Z</time>
<desc>lat.=56.140511, lon.=26.354757, Alt.=94.885803m. Speed=26.784000m/h.</desc>
<speed>7.440000</speed>
</trkpt>
<trkpt lat="56.140537" lon="26.354649">
<ele>94.653381</ele>
<time>2010-08-29T16:00:54Z</time>
<desc>lat.=56.140537, lon.=26.354649, Alt.=94.653381m. Speed=26.316000m/h.</desc>
<speed>7.310000</speed>
</trkpt>
<trkpt lat="56.140564" lon="26.354544">
<ele>94.565491</ele>
<time>2010-08-29T16:00:55Z</time>
<desc>lat.=56.140564, lon.=26.354544, Alt.=94.565491m. Speed=26.100000m/h.</desc>
<speed>7.250000</speed>
</trkpt>
<trkpt lat="56.140587" lon="26.354433">
<ele>94.649475</ele>
<time>2010-08-29T16:00:56Z</time>
<desc>lat.=56.140587, lon.=26.354433, Alt.=94.649475m. Speed=25.632000m/h.</desc>
<speed>7.120000</speed>
</trkpt>
<trkpt lat="56.140614" lon="26.354330">
<ele>94.827209</ele>
<time>2010-08-29T16:00:57Z</time>
<desc>lat.=56.140614, lon.=26.354330, Alt.=94.827209m. Speed=25.379999m/h.</desc>
<speed>7.050000</speed>
</trkpt>
<trkpt lat="56.140636" lon="26.354227">
<ele>94.315491</ele>
<time>2010-08-29T16:00:58Z</time>
<desc>lat.=56.140636, lon.=26.354227, Alt.=94.315491m. Speed=25.308001m/h.</desc>
<speed>7.030000</speed>
</trkpt>
<trkpt lat="56.140663" lon="26.354124">
<ele>94.278381</ele>
<time>2010-08-29T16:00:59Z</time>
<desc>lat.=56.140663, lon.=26.354124, Alt.=94.278381m. Speed=25.200001m/h.</desc>
<speed>7.000000</speed>
</trkpt>
<trkpt lat="56.140682" lon="26.354019">
<ele>93.956116</ele>
<time>2010-08-29T16:01:00Z</time>
<desc>lat.=56.140682, lon.=26.354019, Alt.=93.956116m. Speed=24.768000m/h.</desc>
<speed>6.880000</speed>
</trkpt>
<trkpt lat="56.140705" lon="26.353912">
<ele>93.778381</ele>
<time>2010-08-29T16:01:01Z</time>
<desc>lat.=56.140705, lon.=26.353912, Alt.=93.778381m. Speed=25.632000m/h.</desc>
<speed>7.120000</speed>
</trkpt>
<trkpt lat="56.140732" lon="26.353804">
<ele>93.831116</ele>
<time>2010-08-29T16:01:02Z</time>
<desc>lat.=56.140732, lon.=26.353804, Alt.=93.831116m. Speed=26.063999m/h.</desc>
<speed>7.240000</speed>
</trkpt>
<trkpt lat="56.140759" lon="26.353691">
<ele>93.710022</ele>
<time>2010-08-29T16:01:03Z</time>
<desc>lat.=56.140759, lon.=26.353691, Alt.=93.710022m. Speed=27.540001m/h.</desc>
<speed>7.650000</speed>
</trkpt>
<trkpt lat="56.140785" lon="26.353579">
<ele>93.612366</ele>
<time>2010-08-29T16:01:04Z</time>
<desc>lat.=56.140785, lon.=26.353579, Alt.=93.612366m. Speed=28.115999m/h.</desc>
<speed>7.810000</speed>
</trkpt>
<trkpt lat="56.140812" lon="26.353464">
<ele>93.704163</ele>
<time>2010-08-29T16:01:05Z</time>
<desc>lat.=56.140812, lon.=26.353464, Alt.=93.704163m. Speed=27.612000m/h.</desc>
<speed>7.670000</speed>
</trkpt>
<trkpt lat="56.140835" lon="26.353352">
<ele>93.624084</ele>
<time>2010-08-29T16:01:06Z</time>
<desc>lat.=56.140835, lon.=26.353352, Alt.=93.624084m. Speed=26.892000m/h.</desc>
<speed>7.470000</speed>
</trkpt>
<trkpt lat="56.140858" lon="26.353241">
<ele>93.610413</ele>
<time>2010-08-29T16:01:07Z</time>
<desc>lat.=56.140858, lon.=26.353241, Alt.=93.610413m. Speed=26.208000m/h.</desc>
<speed>7.280000</speed>
</trkpt>
<trkpt lat="56.140881" lon="26.353136">
<ele>93.735413</ele>
<time>2010-08-29T16:01:08Z</time>
<desc>lat.=56.140881, lon.=26.353136, Alt.=93.735413m. Speed=25.308001m/h.</desc>
<speed>7.030000</speed>
</trkpt>
<trkpt lat="56.140907" lon="26.353035">
<ele>93.854553</ele>
<time>2010-08-29T16:01:09Z</time>
<desc>lat.=56.140907, lon.=26.353035, Alt.=93.854553m. Speed=24.624001m/h.</desc>
<speed>6.840000</speed>
</trkpt>
<trkpt lat="56.140930" lon="26.352934">
<ele>93.844788</ele>
<time>2010-08-29T16:01:10Z</time>
<desc>lat.=56.140930, lon.=26.352934, Alt.=93.844788m. Speed=24.228001m/h.</desc>
<speed>6.730000</speed>
</trkpt>
<trkpt lat="56.140949" lon="26.352829">
<ele>94.155334</ele>
<time>2010-08-29T16:01:11Z</time>
<desc>lat.=56.140949, lon.=26.352829, Alt.=94.155334m. Speed=25.128000m/h.</desc>
<speed>6.980000</speed>
</trkpt>
<trkpt lat="56.140976" lon="26.352724">
<ele>93.946350</ele>
<time>2010-08-29T16:01:12Z</time>
<desc>lat.=56.140976, lon.=26.352724, Alt.=93.946350m. Speed=25.128000m/h.</desc>
<speed>6.980000</speed>
</trkpt>
<trkpt lat="56.141003" lon="26.352617">
<ele>93.727600</ele>
<time>2010-08-29T16:01:13Z</time>
<desc>lat.=56.141003, lon.=26.352617, Alt.=93.727600m. Speed=25.452000m/h.</desc>
<speed>7.070000</speed>
</trkpt>
<trkpt lat="56.141029" lon="26.352514">
<ele>93.044006</ele>
<time>2010-08-29T16:01:14Z</time>
<desc>lat.=56.141029, lon.=26.352514, Alt.=93.044006m. Speed=25.992001m/h.</desc>
<speed>7.220000</speed>
</trkpt>
<trkpt lat="56.141052" lon="26.352413">
<ele>92.620178</ele>
<time>2010-08-29T16:01:15Z</time>
<desc>lat.=56.141052, lon.=26.352413, Alt.=92.620178m. Speed=25.020000m/h.</desc>
<speed>6.950000</speed>
</trkpt>
<trkpt lat="56.141075" lon="26.352310">
<ele>93.321350</ele>
<time>2010-08-29T16:01:16Z</time>
<desc>lat.=56.141075, lon.=26.352310, Alt.=93.321350m. Speed=23.903999m/h.</desc>
<speed>6.640000</speed>
</trkpt>
<trkpt lat="56.141098" lon="26.352213">
<ele>93.862366</ele>
<time>2010-08-29T16:01:17Z</time>
<desc>lat.=56.141098, lon.=26.352213, Alt.=93.862366m. Speed=22.931999m/h.</desc>
<speed>6.370000</speed>
</trkpt>
<trkpt lat="56.141121" lon="26.352119">
<ele>93.844788</ele>
<time>2010-08-29T16:01:18Z</time>
<desc>lat.=56.141121, lon.=26.352119, Alt.=93.844788m. Speed=22.572001m/h.</desc>
<speed>6.270000</speed>
</trkpt>
<trkpt lat="56.141140" lon="26.352024">
<ele>93.751038</ele>
<time>2010-08-29T16:01:19Z</time>
<desc>lat.=56.141140, lon.=26.352024, Alt.=93.751038m. Speed=23.076000m/h.</desc>
<speed>6.410000</speed>
</trkpt>
<trkpt lat="56.141167" lon="26.351927">
<ele>93.481506</ele>
<time>2010-08-29T16:01:20Z</time>
<desc>lat.=56.141167, lon.=26.351927, Alt.=93.481506m. Speed=23.400000m/h.</desc>
<speed>6.500000</speed>
</trkpt>
<trkpt lat="56.141190" lon="26.351830">
<ele>93.594788</ele>
<time>2010-08-29T16:01:21Z</time>
<desc>lat.=56.141190, lon.=26.351830, Alt.=93.594788m. Speed=24.120001m/h.</desc>
<speed>6.700000</speed>
</trkpt>
<trkpt lat="56.141212" lon="26.351730">
<ele>93.602600</ele>
<time>2010-08-29T16:01:22Z</time>
<desc>lat.=56.141212, lon.=26.351730, Alt.=93.602600m. Speed=24.840000m/h.</desc>
<speed>6.900000</speed>
</trkpt>
<trkpt lat="56.141239" lon="26.351627">
<ele>93.690491</ele>
<time>2010-08-29T16:01:23Z</time>
<desc>lat.=56.141239, lon.=26.351627, Alt.=93.690491m. Speed=24.552000m/h.</desc>
<speed>6.820000</speed>
</trkpt>
<trkpt lat="56.141262" lon="26.351526">
<ele>93.672913</ele>
<time>2010-08-29T16:01:24Z</time>
<desc>lat.=56.141262, lon.=26.351526, Alt.=93.672913m. Speed=25.559999m/h.</desc>
<speed>7.100000</speed>
</trkpt>
<trkpt lat="56.141289" lon="26.351425">
<ele>93.258850</ele>
<time>2010-08-29T16:01:25Z</time>
<desc>lat.=56.141289, lon.=26.351425, Alt.=93.258850m. Speed=24.983999m/h.</desc>
<speed>6.940000</speed>
</trkpt>
<trkpt lat="56.141312" lon="26.351324">
<ele>93.028381</ele>
<time>2010-08-29T16:01:26Z</time>
<desc>lat.=56.141312, lon.=26.351324, Alt.=93.028381m. Speed=24.156000m/h.</desc>
<speed>6.710000</speed>
</trkpt>
<trkpt lat="56.141331" lon="26.351225">
<ele>93.040100</ele>
<time>2010-08-29T16:01:27Z</time>
<desc>lat.=56.141331, lon.=26.351225, Alt.=93.040100m. Speed=23.219999m/h.</desc>
<speed>6.450000</speed>
</trkpt>
<trkpt lat="56.141354" lon="26.351128">
<ele>93.458069</ele>
<time>2010-08-29T16:01:28Z</time>
<desc>lat.=56.141354, lon.=26.351128, Alt.=93.458069m. Speed=22.212000m/h.</desc>
<speed>6.170000</speed>
</trkpt>
<trkpt lat="56.141373" lon="26.351036">
<ele>93.458069</ele>
<time>2010-08-29T16:01:29Z</time>
<desc>lat.=56.141373, lon.=26.351036, Alt.=93.458069m. Speed=21.708000m/h.</desc>
<speed>6.030000</speed>
</trkpt>
<trkpt lat="56.141392" lon="26.350946">
<ele>93.710022</ele>
<time>2010-08-29T16:01:30Z</time>
<desc>lat.=56.141392, lon.=26.350946, Alt.=93.710022m. Speed=21.492001m/h.</desc>
<speed>5.970000</speed>
</trkpt>
<trkpt lat="56.141411" lon="26.350857">
<ele>93.665100</ele>
<time>2010-08-29T16:01:31Z</time>
<desc>lat.=56.141411, lon.=26.350857, Alt.=93.665100m. Speed=22.032000m/h.</desc>
<speed>6.120000</speed>
</trkpt>
<trkpt lat="56.141430" lon="26.350763">
<ele>93.694397</ele>
<time>2010-08-29T16:01:32Z</time>
<desc>lat.=56.141430, lon.=26.350763, Alt.=93.694397m. Speed=22.284000m/h.</desc>
<speed>6.190000</speed>
</trkpt>
<trkpt lat="56.141449" lon="26.350668">
<ele>93.627991</ele>
<time>2010-08-29T16:01:33Z</time>
<desc>lat.=56.141449, lon.=26.350668, Alt.=93.627991m. Speed=22.535999m/h.</desc>
<speed>6.260000</speed>
</trkpt>
<trkpt lat="56.141472" lon="26.350573">
<ele>93.811584</ele>
<time>2010-08-29T16:01:34Z</time>
<desc>lat.=56.141472, lon.=26.350573, Alt.=93.811584m. Speed=22.427999m/h.</desc>
<speed>6.230000</speed>
</trkpt>
<trkpt lat="56.141499" lon="26.350485">
<ele>93.794006</ele>
<time>2010-08-29T16:01:35Z</time>
<desc>lat.=56.141499, lon.=26.350485, Alt.=93.794006m. Speed=22.860001m/h.</desc>
<speed>6.350000</speed>
</trkpt>
<trkpt lat="56.141525" lon="26.350393">
<ele>93.731506</ele>
<time>2010-08-29T16:01:36Z</time>
<desc>lat.=56.141525, lon.=26.350393, Alt.=93.731506m. Speed=23.364000m/h.</desc>
<speed>6.490000</speed>
</trkpt>
<trkpt lat="56.141548" lon="26.350298">
<ele>93.352600</ele>
<time>2010-08-29T16:01:37Z</time>
<desc>lat.=56.141548, lon.=26.350298, Alt.=93.352600m. Speed=23.580000m/h.</desc>
<speed>6.550000</speed>
</trkpt>
<trkpt lat="56.141571" lon="26.350203">
<ele>93.419006</ele>
<time>2010-08-29T16:01:38Z</time>
<desc>lat.=56.141571, lon.=26.350203, Alt.=93.419006m. Speed=23.184000m/h.</desc>
<speed>6.440000</speed>
</trkpt>
<trkpt lat="56.141590" lon="26.350103">
<ele>93.235413</ele>
<time>2010-08-29T16:01:39Z</time>
<desc>lat.=56.141590, lon.=26.350103, Alt.=93.235413m. Speed=23.580000m/h.</desc>
<speed>6.550000</speed>
</trkpt>
<trkpt lat="56.141613" lon="26.350006">
<ele>93.313538</ele>
<time>2010-08-29T16:01:40Z</time>
<desc>lat.=56.141613, lon.=26.350006, Alt.=93.313538m. Speed=23.724001m/h.</desc>
<speed>6.590000</speed>
</trkpt>
<trkpt lat="56.141636" lon="26.349909">
<ele>94.116272</ele>
<time>2010-08-29T16:01:41Z</time>
<desc>lat.=56.141636, lon.=26.349909, Alt.=94.116272m. Speed=23.903999m/h.</desc>
<speed>6.640000</speed>
</trkpt>
<trkpt lat="56.141655" lon="26.349810">
<ele>94.231506</ele>
<time>2010-08-29T16:01:42Z</time>
<desc>lat.=56.141655, lon.=26.349810, Alt.=94.231506m. Speed=24.552000m/h.</desc>
<speed>6.820000</speed>
</trkpt>
<trkpt lat="56.141674" lon="26.349707">
<ele>94.440491</ele>
<time>2010-08-29T16:01:43Z</time>
<desc>lat.=56.141674, lon.=26.349707, Alt.=94.440491m. Speed=24.552000m/h.</desc>
<speed>6.820000</speed>
</trkpt>
<trkpt lat="56.141697" lon="26.349606">
<ele>94.895569</ele>
<time>2010-08-29T16:01:44Z</time>
<desc>lat.=56.141697, lon.=26.349606, Alt.=94.895569m. Speed=23.868000m/h.</desc>
<speed>6.630000</speed>
</trkpt>
<trkpt lat="56.141720" lon="26.349506">
<ele>95.044006</ele>
<time>2010-08-29T16:01:45Z</time>
<desc>lat.=56.141720, lon.=26.349506, Alt.=95.044006m. Speed=23.903999m/h.</desc>
<speed>6.640000</speed>
</trkpt>
<trkpt lat="56.141743" lon="26.349407">
<ele>95.319397</ele>
<time>2010-08-29T16:01:46Z</time>
<desc>lat.=56.141743, lon.=26.349407, Alt.=95.319397m. Speed=24.299999m/h.</desc>
<speed>6.750000</speed>
</trkpt>
<trkpt lat="56.141766" lon="26.349312">
<ele>95.190491</ele>
<time>2010-08-29T16:01:47Z</time>
<desc>lat.=56.141766, lon.=26.349312, Alt.=95.190491m. Speed=23.832001m/h.</desc>
<speed>6.620000</speed>
</trkpt>
<trkpt lat="56.141796" lon="26.349213">
<ele>95.266663</ele>
<time>2010-08-29T16:01:48Z</time>
<desc>lat.=56.141796, lon.=26.349213, Alt.=95.266663m. Speed=23.327999m/h.</desc>
<speed>6.480000</speed>
</trkpt>
<trkpt lat="56.141819" lon="26.349117">
<ele>95.319397</ele>
<time>2010-08-29T16:01:49Z</time>
<desc>lat.=56.141819, lon.=26.349117, Alt.=95.319397m. Speed=22.572001m/h.</desc>
<speed>6.270000</speed>
</trkpt>
<trkpt lat="56.141834" lon="26.349024">
<ele>96.331116</ele>
<time>2010-08-29T16:01:50Z</time>
<desc>lat.=56.141834, lon.=26.349024, Alt.=96.331116m. Speed=22.068001m/h.</desc>
<speed>6.130000</speed>
</trkpt>
<trkpt lat="56.141853" lon="26.348934">
<ele>96.401428</ele>
<time>2010-08-29T16:01:51Z</time>
<desc>lat.=56.141853, lon.=26.348934, Alt.=96.401428m. Speed=21.492001m/h.</desc>
<speed>5.970000</speed>
</trkpt>
<trkpt lat="56.141872" lon="26.348848">
<ele>96.364319</ele>
<time>2010-08-29T16:01:52Z</time>
<desc>lat.=56.141872, lon.=26.348848, Alt.=96.364319m. Speed=22.139999m/h.</desc>
<speed>6.150000</speed>
</trkpt>
<trkpt lat="56.141891" lon="26.348751">
<ele>96.506897</ele>
<time>2010-08-29T16:01:53Z</time>
<desc>lat.=56.141891, lon.=26.348751, Alt.=96.506897m. Speed=22.643999m/h.</desc>
<speed>6.290000</speed>
</trkpt>
<trkpt lat="56.141911" lon="26.348658">
<ele>96.674866</ele>
<time>2010-08-29T16:01:54Z</time>
<desc>lat.=56.141911, lon.=26.348658, Alt.=96.674866m. Speed=22.572001m/h.</desc>
<speed>6.270000</speed>
</trkpt>
<trkpt lat="56.141933" lon="26.348566">
<ele>96.860413</ele>
<time>2010-08-29T16:01:55Z</time>
<desc>lat.=56.141933, lon.=26.348566, Alt.=96.860413m. Speed=22.464001m/h.</desc>
<speed>6.240000</speed>
</trkpt>
<trkpt lat="56.141956" lon="26.348475">
<ele>96.936584</ele>
<time>2010-08-29T16:01:56Z</time>
<desc>lat.=56.141956, lon.=26.348475, Alt.=96.936584m. Speed=22.931999m/h.</desc>
<speed>6.370000</speed>
</trkpt>
<trkpt lat="56.141975" lon="26.348381">
<ele>97.126038</ele>
<time>2010-08-29T16:01:57Z</time>
<desc>lat.=56.141975, lon.=26.348381, Alt.=97.126038m. Speed=23.219999m/h.</desc>
<speed>6.450000</speed>
</trkpt>
<trkpt lat="56.141998" lon="26.348288">
<ele>97.088928</ele>
<time>2010-08-29T16:01:58Z</time>
<desc>lat.=56.141998, lon.=26.348288, Alt.=97.088928m. Speed=23.219999m/h.</desc>
<speed>6.450000</speed>
</trkpt>
<trkpt lat="56.142021" lon="26.348188">
<ele>97.100647</ele>
<time>2010-08-29T16:01:59Z</time>
<desc>lat.=56.142021, lon.=26.348188, Alt.=97.100647m. Speed=23.652000m/h.</desc>
<speed>6.570000</speed>
</trkpt>
<trkpt lat="56.142044" lon="26.348089">
<ele>97.073303</ele>
<time>2010-08-29T16:02:00Z</time>
<desc>lat.=56.142044, lon.=26.348089, Alt.=97.073303m. Speed=24.191999m/h.</desc>
<speed>6.720000</speed>
</trkpt>
<trkpt lat="56.142075" lon="26.347992">
<ele>96.876038</ele>
<time>2010-08-29T16:02:01Z</time>
<desc>lat.=56.142075, lon.=26.347992, Alt.=96.876038m. Speed=24.408001m/h.</desc>
<speed>6.780000</speed>
</trkpt>
<trkpt lat="56.142101" lon="26.347895">
<ele>96.610413</ele>
<time>2010-08-29T16:02:02Z</time>
<desc>lat.=56.142101, lon.=26.347895, Alt.=96.610413m. Speed=24.695999m/h.</desc>
<speed>6.860000</speed>
</trkpt>
<trkpt lat="56.142128" lon="26.347801">
<ele>95.991272</ele>
<time>2010-08-29T16:02:03Z</time>
<desc>lat.=56.142128, lon.=26.347801, Alt.=95.991272m. Speed=23.832001m/h.</desc>
<speed>6.620000</speed>
</trkpt>
<trkpt lat="56.142147" lon="26.347702">
<ele>95.905334</ele>
<time>2010-08-29T16:02:04Z</time>
<desc>lat.=56.142147, lon.=26.347702, Alt.=95.905334m. Speed=23.004000m/h.</desc>
<speed>6.390000</speed>
</trkpt>
<trkpt lat="56.142170" lon="26.347609">
<ele>95.885803</ele>
<time>2010-08-29T16:02:05Z</time>
<desc>lat.=56.142170, lon.=26.347609, Alt.=95.885803m. Speed=22.104000m/h.</desc>
<speed>6.140000</speed>
</trkpt>
<trkpt lat="56.142189" lon="26.347525">
<ele>95.979553</ele>
<time>2010-08-29T16:02:06Z</time>
<desc>lat.=56.142189, lon.=26.347525, Alt.=95.979553m. Speed=21.888000m/h.</desc>
<speed>6.080000</speed>
</trkpt>
<trkpt lat="56.142212" lon="26.347433">
<ele>96.061584</ele>
<time>2010-08-29T16:02:07Z</time>
<desc>lat.=56.142212, lon.=26.347433, Alt.=96.061584m. Speed=22.356001m/h.</desc>
<speed>6.210000</speed>
</trkpt>
<trkpt lat="56.142231" lon="26.347342">
<ele>96.536194</ele>
<time>2010-08-29T16:02:08Z</time>
<desc>lat.=56.142231, lon.=26.347342, Alt.=96.536194m. Speed=22.535999m/h.</desc>
<speed>6.260000</speed>
</trkpt>
<trkpt lat="56.142254" lon="26.347250">
<ele>96.415100</ele>
<time>2010-08-29T16:02:09Z</time>
<desc>lat.=56.142254, lon.=26.347250, Alt.=96.415100m. Speed=22.716000m/h.</desc>
<speed>6.310000</speed>
</trkpt>
<trkpt lat="56.142277" lon="26.347158">
<ele>95.993225</ele>
<time>2010-08-29T16:02:10Z</time>
<desc>lat.=56.142277, lon.=26.347158, Alt.=95.993225m. Speed=23.148001m/h.</desc>
<speed>6.430000</speed>
</trkpt>
<trkpt lat="56.142300" lon="26.347061">
<ele>95.895569</ele>
<time>2010-08-29T16:02:11Z</time>
<desc>lat.=56.142300, lon.=26.347061, Alt.=95.895569m. Speed=23.219999m/h.</desc>
<speed>6.450000</speed>
</trkpt>
<trkpt lat="56.142319" lon="26.346966">
<ele>95.883850</ele>
<time>2010-08-29T16:02:12Z</time>
<desc>lat.=56.142319, lon.=26.346966, Alt.=95.883850m. Speed=23.076000m/h.</desc>
<speed>6.410000</speed>
</trkpt>
<trkpt lat="56.142342" lon="26.346869">
<ele>96.010803</ele>
<time>2010-08-29T16:02:13Z</time>
<desc>lat.=56.142342, lon.=26.346869, Alt.=96.010803m. Speed=23.507999m/h.</desc>
<speed>6.530000</speed>
</trkpt>
<trkpt lat="56.142361" lon="26.346771">
<ele>95.881897</ele>
<time>2010-08-29T16:02:14Z</time>
<desc>lat.=56.142361, lon.=26.346771, Alt.=95.881897m. Speed=22.896000m/h.</desc>
<speed>6.360000</speed>
</trkpt>
<trkpt lat="56.142380" lon="26.346678">
<ele>95.741272</ele>
<time>2010-08-29T16:02:15Z</time>
<desc>lat.=56.142380, lon.=26.346678, Alt.=95.741272m. Speed=21.996000m/h.</desc>
<speed>6.110000</speed>
</trkpt>
<trkpt lat="56.142399" lon="26.346590">
<ele>95.372131</ele>
<time>2010-08-29T16:02:16Z</time>
<desc>lat.=56.142399, lon.=26.346590, Alt.=95.372131m. Speed=20.988001m/h.</desc>
<speed>5.830000</speed>
</trkpt>
<trkpt lat="56.142418" lon="26.346508">
<ele>95.305725</ele>
<time>2010-08-29T16:02:17Z</time>
<desc>lat.=56.142418, lon.=26.346508, Alt.=95.305725m. Speed=19.188000m/h.</desc>
<speed>5.330000</speed>
</trkpt>
<trkpt lat="56.142437" lon="26.346430">
<ele>95.085022</ele>
<time>2010-08-29T16:02:18Z</time>
<desc>lat.=56.142437, lon.=26.346430, Alt.=95.085022m. Speed=19.080000m/h.</desc>
<speed>5.300000</speed>
</trkpt>
<trkpt lat="56.142452" lon="26.346350">
<ele>94.940491</ele>
<time>2010-08-29T16:02:19Z</time>
<desc>lat.=56.142452, lon.=26.346350, Alt.=94.940491m. Speed=18.792000m/h.</desc>
<speed>5.220000</speed>
</trkpt>
<trkpt lat="56.142464" lon="26.346262">
<ele>95.530334</ele>
<time>2010-08-29T16:02:20Z</time>
<desc>lat.=56.142464, lon.=26.346262, Alt.=95.530334m. Speed=19.007999m/h.</desc>
<speed>5.280000</speed>
</trkpt>
<trkpt lat="56.142479" lon="26.346180">
<ele>95.440491</ele>
<time>2010-08-29T16:02:21Z</time>
<desc>lat.=56.142479, lon.=26.346180, Alt.=95.440491m. Speed=18.827999m/h.</desc>
<speed>5.230000</speed>
</trkpt>
<trkpt lat="56.142502" lon="26.346104">
<ele>95.196350</ele>
<time>2010-08-29T16:02:22Z</time>
<desc>lat.=56.142502, lon.=26.346104, Alt.=95.196350m. Speed=19.007999m/h.</desc>
<speed>5.280000</speed>
</trkpt>
<trkpt lat="56.142525" lon="26.346024">
<ele>94.920959</ele>
<time>2010-08-29T16:02:23Z</time>
<desc>lat.=56.142525, lon.=26.346024, Alt.=94.920959m. Speed=19.224001m/h.</desc>
<speed>5.340000</speed>
</trkpt>
<trkpt lat="56.142544" lon="26.345943">
<ele>95.038147</ele>
<time>2010-08-29T16:02:24Z</time>
<desc>lat.=56.142544, lon.=26.345943, Alt.=95.038147m. Speed=19.224001m/h.</desc>
<speed>5.340000</speed>
</trkpt>
<trkpt lat="56.142567" lon="26.345865">
<ele>94.907288</ele>
<time>2010-08-29T16:02:25Z</time>
<desc>lat.=56.142567, lon.=26.345865, Alt.=94.907288m. Speed=18.431999m/h.</desc>
<speed>5.120000</speed>
</trkpt>
<trkpt lat="56.142586" lon="26.345793">
<ele>94.739319</ele>
<time>2010-08-29T16:02:26Z</time>
<desc>lat.=56.142586, lon.=26.345793, Alt.=94.739319m. Speed=17.747999m/h.</desc>
<speed>4.930000</speed>
</trkpt>
<trkpt lat="56.142605" lon="26.345722">
<ele>94.311584</ele>
<time>2010-08-29T16:02:27Z</time>
<desc>lat.=56.142605, lon.=26.345722, Alt.=94.311584m. Speed=17.208000m/h.</desc>
<speed>4.780000</speed>
</trkpt>
<trkpt lat="56.142620" lon="26.345655">
<ele>93.956116</ele>
<time>2010-08-29T16:02:28Z</time>
<desc>lat.=56.142620, lon.=26.345655, Alt.=93.956116m. Speed=16.596001m/h.</desc>
<speed>4.610000</speed>
</trkpt>
<trkpt lat="56.142632" lon="26.345592">
<ele>93.512756</ele>
<time>2010-08-29T16:02:29Z</time>
<desc>lat.=56.142632, lon.=26.345592, Alt.=93.512756m. Speed=16.128000m/h.</desc>
<speed>4.480000</speed>
</trkpt>
<trkpt lat="56.142647" lon="26.345533">
<ele>92.762756</ele>
<time>2010-08-29T16:02:30Z</time>
<desc>lat.=56.142647, lon.=26.345533, Alt.=92.762756m. Speed=15.588000m/h.</desc>
<speed>4.330000</speed>
</trkpt>
<trkpt lat="56.142658" lon="26.345472">
<ele>92.801819</ele>
<time>2010-08-29T16:02:31Z</time>
<desc>lat.=56.142658, lon.=26.345472, Alt.=92.801819m. Speed=15.120000m/h.</desc>
<speed>4.200000</speed>
</trkpt>
<trkpt lat="56.142673" lon="26.345407">
<ele>92.665100</ele>
<time>2010-08-29T16:02:32Z</time>
<desc>lat.=56.142673, lon.=26.345407, Alt.=92.665100m. Speed=14.724000m/h.</desc>
<speed>4.090000</speed>
</trkpt>
<trkpt lat="56.142689" lon="26.345346">
<ele>92.549866</ele>
<time>2010-08-29T16:02:33Z</time>
<desc>lat.=56.142689, lon.=26.345346, Alt.=92.549866m. Speed=14.220000m/h.</desc>
<speed>3.950000</speed>
</trkpt>
<trkpt lat="56.142696" lon="26.345289">
<ele>92.405334</ele>
<time>2010-08-29T16:02:34Z</time>
<desc>lat.=56.142696, lon.=26.345289, Alt.=92.405334m. Speed=13.932000m/h.</desc>
<speed>3.870000</speed>
</trkpt>
<trkpt lat="56.142704" lon="26.345232">
<ele>92.100647</ele>
<time>2010-08-29T16:02:35Z</time>
<desc>lat.=56.142704, lon.=26.345232, Alt.=92.100647m. Speed=13.608000m/h.</desc>
<speed>3.780000</speed>
</trkpt>
<trkpt lat="56.142719" lon="26.345182">
<ele>91.221741</ele>
<time>2010-08-29T16:02:36Z</time>
<desc>lat.=56.142719, lon.=26.345182, Alt.=91.221741m. Speed=12.420000m/h.</desc>
<speed>3.450000</speed>
</trkpt>
<trkpt lat="56.142731" lon="26.345146">
<ele>91.124084</ele>
<time>2010-08-29T16:02:37Z</time>
<desc>lat.=56.142731, lon.=26.345146, Alt.=91.124084m. Speed=8.928000m/h.</desc>
<speed>2.480000</speed>
</trkpt>
<trkpt lat="56.142746" lon="26.345127">
<ele>90.999084</ele>
<time>2010-08-29T16:02:38Z</time>
<desc>lat.=56.142746, lon.=26.345127, Alt.=90.999084m. Speed=5.544000m/h.</desc>
<speed>1.540000</speed>
</trkpt>
<trkpt lat="56.142757" lon="26.345118">
<ele>91.270569</ele>
<time>2010-08-29T16:02:39Z</time>
<desc>lat.=56.142757, lon.=26.345118, Alt.=91.270569m. Speed=4.428000m/h.</desc>
<speed>1.230000</speed>
</trkpt>
<trkpt lat="56.142769" lon="26.345104">
<ele>91.424866</ele>
<time>2010-08-29T16:02:40Z</time>
<desc>lat.=56.142769, lon.=26.345104, Alt.=91.424866m. Speed=5.616000m/h.</desc>
<speed>1.560000</speed>
</trkpt>
<trkpt lat="56.142784" lon="26.345089">
<ele>91.126038</ele>
<time>2010-08-29T16:02:41Z</time>
<desc>lat.=56.142784, lon.=26.345089, Alt.=91.126038m. Speed=6.732000m/h.</desc>
<speed>1.870000</speed>
</trkpt>
<trkpt lat="56.142799" lon="26.345070">
<ele>90.815491</ele>
<time>2010-08-29T16:02:42Z</time>
<desc>lat.=56.142799, lon.=26.345070, Alt.=90.815491m. Speed=5.328000m/h.</desc>
<speed>1.480000</speed>
</trkpt>
<trkpt lat="56.142803" lon="26.345053">
<ele>90.850647</ele>
<time>2010-08-29T16:02:43Z</time>
<desc>lat.=56.142803, lon.=26.345053, Alt.=90.850647m. Speed=4.500000m/h.</desc>
<speed>1.250000</speed>
</trkpt>
<trkpt lat="56.142807" lon="26.345036">
<ele>90.645569</ele>
<time>2010-08-29T16:02:44Z</time>
<desc>lat.=56.142807, lon.=26.345036, Alt.=90.645569m. Speed=4.248000m/h.</desc>
<speed>1.180000</speed>
</trkpt>
<trkpt lat="56.142815" lon="26.345022">
<ele>90.231506</ele>
<time>2010-08-29T16:02:45Z</time>
<desc>lat.=56.142815, lon.=26.345022, Alt.=90.231506m. Speed=3.996000m/h.</desc>
<speed>1.110000</speed>
</trkpt>
<trkpt lat="56.142818" lon="26.345011">
<ele>89.807678</ele>
<time>2010-08-29T16:02:46Z</time>
<desc>lat.=56.142818, lon.=26.345011, Alt.=89.807678m. Speed=3.852000m/h.</desc>
<speed>1.070000</speed>
</trkpt>
<trkpt lat="56.142822" lon="26.345011">
<ele>89.155334</ele>
<time>2010-08-29T16:02:47Z</time>
<desc>lat.=56.142822, lon.=26.345011, Alt.=89.155334m. Speed=3.096000m/h.</desc>
<speed>0.860000</speed>
</trkpt>
<trkpt lat="56.142834" lon="26.345003">
<ele>88.649475</ele>
<time>2010-08-29T16:02:48Z</time>
<desc>lat.=56.142834, lon.=26.345003, Alt.=88.649475m. Speed=4.428000m/h.</desc>
<speed>1.230000</speed>
</trkpt>
<trkpt lat="56.142838" lon="26.344975">
<ele>89.270569</ele>
<time>2010-08-29T16:02:49Z</time>
<desc>lat.=56.142838, lon.=26.344975, Alt.=89.270569m. Speed=5.724000m/h.</desc>
<speed>1.590000</speed>
</trkpt>
<trkpt lat="56.142841" lon="26.344948">
<ele>89.477600</ele>
<time>2010-08-29T16:02:50Z</time>
<desc>lat.=56.142841, lon.=26.344948, Alt.=89.477600m. Speed=5.436000m/h.</desc>
<speed>1.510000</speed>
</trkpt>
<trkpt lat="56.142845" lon="26.344933">
<ele>89.752991</ele>
<time>2010-08-29T16:02:51Z</time>
<desc>lat.=56.142845, lon.=26.344933, Alt.=89.752991m. Speed=5.940000m/h.</desc>
<speed>1.650000</speed>
</trkpt>
<trkpt lat="56.142845" lon="26.344902">
<ele>89.928772</ele>
<time>2010-08-29T16:02:52Z</time>
<desc>lat.=56.142845, lon.=26.344902, Alt.=89.928772m. Speed=6.840000m/h.</desc>
<speed>1.900000</speed>
</trkpt>
<trkpt lat="56.142845" lon="26.344868">
<ele>90.586975</ele>
<time>2010-08-29T16:02:53Z</time>
<desc>lat.=56.142845, lon.=26.344868, Alt.=90.586975m. Speed=7.560000m/h.</desc>
<speed>2.100000</speed>
</trkpt>
<trkpt lat="56.142841" lon="26.344835">
<ele>91.424866</ele>
<time>2010-08-29T16:02:54Z</time>
<desc>lat.=56.142841, lon.=26.344835, Alt.=91.424866m. Speed=6.840000m/h.</desc>
<speed>1.900000</speed>
</trkpt>
<trkpt lat="56.142826" lon="26.344810">
<ele>91.887756</ele>
<time>2010-08-29T16:02:55Z</time>
<desc>lat.=56.142826, lon.=26.344810, Alt.=91.887756m. Speed=7.488000m/h.</desc>
<speed>2.080000</speed>
</trkpt>
<trkpt lat="56.142807" lon="26.344801">
<ele>92.901428</ele>
<time>2010-08-29T16:02:56Z</time>
<desc>lat.=56.142807, lon.=26.344801, Alt.=92.901428m. Speed=8.820000m/h.</desc>
<speed>2.450000</speed>
</trkpt>
<trkpt lat="56.142784" lon="26.344788">
<ele>93.110413</ele>
<time>2010-08-29T16:02:57Z</time>
<desc>lat.=56.142784, lon.=26.344788, Alt.=93.110413m. Speed=10.008000m/h.</desc>
<speed>2.780000</speed>
</trkpt>
<trkpt lat="56.142757" lon="26.344770">
<ele>93.333069</ele>
<time>2010-08-29T16:02:58Z</time>
<desc>lat.=56.142757, lon.=26.344770, Alt.=93.333069m. Speed=11.088000m/h.</desc>
<speed>3.080000</speed>
</trkpt>
<trkpt lat="56.142723" lon="26.344755">
<ele>93.778381</ele>
<time>2010-08-29T16:02:59Z</time>
<desc>lat.=56.142723, lon.=26.344755, Alt.=93.778381m. Speed=11.556000m/h.</desc>
<speed>3.210000</speed>
</trkpt>
<trkpt lat="56.142689" lon="26.344742">
<ele>94.192444</ele>
<time>2010-08-29T16:03:00Z</time>
<desc>lat.=56.142689, lon.=26.344742, Alt.=94.192444m. Speed=12.744000m/h.</desc>
<speed>3.540000</speed>
</trkpt>
<trkpt lat="56.142658" lon="26.344730">
<ele>94.370178</ele>
<time>2010-08-29T16:03:01Z</time>
<desc>lat.=56.142658, lon.=26.344730, Alt.=94.370178m. Speed=13.572000m/h.</desc>
<speed>3.770000</speed>
</trkpt>
<trkpt lat="56.142616" lon="26.344728">
<ele>94.891663</ele>
<time>2010-08-29T16:03:02Z</time>
<desc>lat.=56.142616, lon.=26.344728, Alt.=94.891663m. Speed=16.344000m/h.</desc>
<speed>4.540000</speed>
</trkpt>
<trkpt lat="56.142570" lon="26.344721">
<ele>94.924866</ele>
<time>2010-08-29T16:03:03Z</time>
<desc>lat.=56.142570, lon.=26.344721, Alt.=94.924866m. Speed=13.788000m/h.</desc>
<speed>3.830000</speed>
</trkpt>
<trkpt lat="56.142525" lon="26.344717">
<ele>94.419006</ele>
<time>2010-08-29T16:03:04Z</time>
<desc>lat.=56.142525, lon.=26.344717, Alt.=94.419006m. Speed=14.976000m/h.</desc>
<speed>4.160000</speed>
</trkpt>
<trkpt lat="56.142487" lon="26.344711">
<ele>94.122131</ele>
<time>2010-08-29T16:03:05Z</time>
<desc>lat.=56.142487, lon.=26.344711, Alt.=94.122131m. Speed=16.559999m/h.</desc>
<speed>4.600000</speed>
</trkpt>
<trkpt lat="56.142437" lon="26.344702">
<ele>94.440491</ele>
<time>2010-08-29T16:03:06Z</time>
<desc>lat.=56.142437, lon.=26.344702, Alt.=94.440491m. Speed=17.280001m/h.</desc>
<speed>4.800000</speed>
</trkpt>
<trkpt lat="56.142395" lon="26.344688">
<ele>94.672913</ele>
<time>2010-08-29T16:03:07Z</time>
<desc>lat.=56.142395, lon.=26.344688, Alt.=94.672913m. Speed=17.208000m/h.</desc>
<speed>4.780000</speed>
</trkpt>
<trkpt lat="56.142345" lon="26.344667">
<ele>95.512756</ele>
<time>2010-08-29T16:03:08Z</time>
<desc>lat.=56.142345, lon.=26.344667, Alt.=95.512756m. Speed=17.639999m/h.</desc>
<speed>4.900000</speed>
</trkpt>
<trkpt lat="56.142296" lon="26.344654">
<ele>96.549866</ele>
<time>2010-08-29T16:03:09Z</time>
<desc>lat.=56.142296, lon.=26.344654, Alt.=96.549866m. Speed=19.188000m/h.</desc>
<speed>5.330000</speed>
</trkpt>
<trkpt lat="56.142250" lon="26.344633">
<ele>97.469788</ele>
<time>2010-08-29T16:03:10Z</time>
<desc>lat.=56.142250, lon.=26.344633, Alt.=97.469788m. Speed=16.271999m/h.</desc>
<speed>4.520000</speed>
</trkpt>
<trkpt lat="56.142204" lon="26.344606">
<ele>98.073303</ele>
<time>2010-08-29T16:03:11Z</time>
<desc>lat.=56.142204, lon.=26.344606, Alt.=98.073303m. Speed=19.115999m/h.</desc>
<speed>5.310000</speed>
</trkpt>
<trkpt lat="56.142159" lon="26.344576">
<ele>98.686584</ele>
<time>2010-08-29T16:03:12Z</time>
<desc>lat.=56.142159, lon.=26.344576, Alt.=98.686584m. Speed=20.448000m/h.</desc>
<speed>5.680000</speed>
</trkpt>
<trkpt lat="56.142105" lon="26.344561">
<ele>98.518616</ele>
<time>2010-08-29T16:03:13Z</time>
<desc>lat.=56.142105, lon.=26.344561, Alt.=98.518616m. Speed=19.764000m/h.</desc>
<speed>5.490000</speed>
</trkpt>
<trkpt lat="56.142052" lon="26.344538">
<ele>98.907288</ele>
<time>2010-08-29T16:03:14Z</time>
<desc>lat.=56.142052, lon.=26.344538, Alt.=98.907288m. Speed=19.908001m/h.</desc>
<speed>5.530000</speed>
</trkpt>
<trkpt lat="56.141994" lon="26.344513">
<ele>99.016663</ele>
<time>2010-08-29T16:03:15Z</time>
<desc>lat.=56.141994, lon.=26.344513, Alt.=99.016663m. Speed=22.139999m/h.</desc>
<speed>6.150000</speed>
</trkpt>
<trkpt lat="56.141941" lon="26.344490">
<ele>98.704163</ele>
<time>2010-08-29T16:03:16Z</time>
<desc>lat.=56.141941, lon.=26.344490, Alt.=98.704163m. Speed=22.104000m/h.</desc>
<speed>6.140000</speed>
</trkpt>
<trkpt lat="56.141888" lon="26.344475">
<ele>98.575256</ele>
<time>2010-08-29T16:03:17Z</time>
<desc>lat.=56.141888, lon.=26.344475, Alt.=98.575256m. Speed=20.808001m/h.</desc>
<speed>5.780000</speed>
</trkpt>
<trkpt lat="56.141834" lon="26.344461">
<ele>98.493225</ele>
<time>2010-08-29T16:03:18Z</time>
<desc>lat.=56.141834, lon.=26.344461, Alt.=98.493225m. Speed=20.304001m/h.</desc>
<speed>5.640000</speed>
</trkpt>
<trkpt lat="56.141785" lon="26.344446">
<ele>97.831116</ele>
<time>2010-08-29T16:03:19Z</time>
<desc>lat.=56.141785, lon.=26.344446, Alt.=97.831116m. Speed=19.980000m/h.</desc>
<speed>5.550000</speed>
</trkpt>
<trkpt lat="56.141735" lon="26.344429">
<ele>97.227600</ele>
<time>2010-08-29T16:03:20Z</time>
<desc>lat.=56.141735, lon.=26.344429, Alt.=97.227600m. Speed=20.232000m/h.</desc>
<speed>5.620000</speed>
</trkpt>
<trkpt lat="56.141685" lon="26.344408">
<ele>97.196350</ele>
<time>2010-08-29T16:03:21Z</time>
<desc>lat.=56.141685, lon.=26.344408, Alt.=97.196350m. Speed=20.087999m/h.</desc>
<speed>5.580000</speed>
</trkpt>
<trkpt lat="56.141636" lon="26.344391">
<ele>97.364319</ele>
<time>2010-08-29T16:03:22Z</time>
<desc>lat.=56.141636, lon.=26.344391, Alt.=97.364319m. Speed=20.160000m/h.</desc>
<speed>5.600000</speed>
</trkpt>
<trkpt lat="56.141579" lon="26.344381">
<ele>98.411194</ele>
<time>2010-08-29T16:03:23Z</time>
<desc>lat.=56.141579, lon.=26.344381, Alt.=98.411194m. Speed=20.375999m/h.</desc>
<speed>5.660000</speed>
</trkpt>
<trkpt lat="56.141525" lon="26.344378">
<ele>98.465881</ele>
<time>2010-08-29T16:03:24Z</time>
<desc>lat.=56.141525, lon.=26.344378, Alt.=98.465881m. Speed=20.160000m/h.</desc>
<speed>5.600000</speed>
</trkpt>
<trkpt lat="56.141472" lon="26.344372">
<ele>98.280334</ele>
<time>2010-08-29T16:03:25Z</time>
<desc>lat.=56.141472, lon.=26.344372, Alt.=98.280334m. Speed=19.872000m/h.</desc>
<speed>5.520000</speed>
</trkpt>
<trkpt lat="56.141422" lon="26.344364">
<ele>98.176819</ele>
<time>2010-08-29T16:03:26Z</time>
<desc>lat.=56.141422, lon.=26.344364, Alt.=98.176819m. Speed=20.087999m/h.</desc>
<speed>5.580000</speed>
</trkpt>
<trkpt lat="56.141365" lon="26.344353">
<ele>98.073303</ele>
<time>2010-08-29T16:03:27Z</time>
<desc>lat.=56.141365, lon.=26.344353, Alt.=98.073303m. Speed=23.004000m/h.</desc>
<speed>6.390000</speed>
</trkpt>
<trkpt lat="56.141308" lon="26.344349">
<ele>97.829163</ele>
<time>2010-08-29T16:03:28Z</time>
<desc>lat.=56.141308, lon.=26.344349, Alt.=97.829163m. Speed=23.364000m/h.</desc>
<speed>6.490000</speed>
</trkpt>
<trkpt lat="56.141251" lon="26.344347">
<ele>97.864319</ele>
<time>2010-08-29T16:03:29Z</time>
<desc>lat.=56.141251, lon.=26.344347, Alt.=97.864319m. Speed=22.788000m/h.</desc>
<speed>6.330000</speed>
</trkpt>
<trkpt lat="56.141193" lon="26.344337">
<ele>97.940491</ele>
<time>2010-08-29T16:03:30Z</time>
<desc>lat.=56.141193, lon.=26.344337, Alt.=97.940491m. Speed=21.492001m/h.</desc>
<speed>5.970000</speed>
</trkpt>
<trkpt lat="56.141140" lon="26.344330">
<ele>97.624084</ele>
<time>2010-08-29T16:03:31Z</time>
<desc>lat.=56.141140, lon.=26.344330, Alt.=97.624084m. Speed=21.563999m/h.</desc>
<speed>5.990000</speed>
</trkpt>
<trkpt lat="56.141083" lon="26.344322">
<ele>97.829163</ele>
<time>2010-08-29T16:03:32Z</time>
<desc>lat.=56.141083, lon.=26.344322, Alt.=97.829163m. Speed=21.780001m/h.</desc>
<speed>6.050000</speed>
</trkpt>
<trkpt lat="56.141022" lon="26.344322">
<ele>97.825256</ele>
<time>2010-08-29T16:03:33Z</time>
<desc>lat.=56.141022, lon.=26.344322, Alt.=97.825256m. Speed=21.636000m/h.</desc>
<speed>6.010000</speed>
</trkpt>
<trkpt lat="56.140968" lon="26.344316">
<ele>97.747131</ele>
<time>2010-08-29T16:03:34Z</time>
<desc>lat.=56.140968, lon.=26.344316, Alt.=97.747131m. Speed=20.664000m/h.</desc>
<speed>5.740000</speed>
</trkpt>
<trkpt lat="56.140923" lon="26.344284">
<ele>97.639709</ele>
<time>2010-08-29T16:03:35Z</time>
<desc>lat.=56.140923, lon.=26.344284, Alt.=97.639709m. Speed=19.799999m/h.</desc>
<speed>5.500000</speed>
</trkpt>
<trkpt lat="56.140869" lon="26.344288">
<ele>97.163147</ele>
<time>2010-08-29T16:03:36Z</time>
<desc>lat.=56.140869, lon.=26.344288, Alt.=97.163147m. Speed=18.936001m/h.</desc>
<speed>5.260000</speed>
</trkpt>
<trkpt lat="56.140823" lon="26.344284">
<ele>97.266663</ele>
<time>2010-08-29T16:03:37Z</time>
<desc>lat.=56.140823, lon.=26.344284, Alt.=97.266663m. Speed=18.684000m/h.</desc>
<speed>5.190000</speed>
</trkpt>
<trkpt lat="56.140774" lon="26.344278">
<ele>97.891663</ele>
<time>2010-08-29T16:03:38Z</time>
<desc>lat.=56.140774, lon.=26.344278, Alt.=97.891663m. Speed=19.836000m/h.</desc>
<speed>5.510000</speed>
</trkpt>
<trkpt lat="56.140724" lon="26.344263">
<ele>98.598694</ele>
<time>2010-08-29T16:03:39Z</time>
<desc>lat.=56.140724, lon.=26.344263, Alt.=98.598694m. Speed=19.656000m/h.</desc>
<speed>5.460000</speed>
</trkpt>
<trkpt lat="56.140675" lon="26.344244">
<ele>98.817444</ele>
<time>2010-08-29T16:03:40Z</time>
<desc>lat.=56.140675, lon.=26.344244, Alt.=98.817444m. Speed=21.312000m/h.</desc>
<speed>5.920000</speed>
</trkpt>
<trkpt lat="56.140625" lon="26.344227">
<ele>98.838928</ele>
<time>2010-08-29T16:03:41Z</time>
<desc>lat.=56.140625, lon.=26.344227, Alt.=98.838928m. Speed=20.195999m/h.</desc>
<speed>5.610000</speed>
</trkpt>
<trkpt lat="56.140575" lon="26.344213">
<ele>98.924866</ele>
<time>2010-08-29T16:03:42Z</time>
<desc>lat.=56.140575, lon.=26.344213, Alt.=98.924866m. Speed=19.728001m/h.</desc>
<speed>5.480000</speed>
</trkpt>
<trkpt lat="56.140526" lon="26.344191">
<ele>99.096741</ele>
<time>2010-08-29T16:03:43Z</time>
<desc>lat.=56.140526, lon.=26.344191, Alt.=99.096741m. Speed=20.736000m/h.</desc>
<speed>5.760000</speed>
</trkpt>
<trkpt lat="56.140476" lon="26.344164">
<ele>98.741272</ele>
<time>2010-08-29T16:03:44Z</time>
<desc>lat.=56.140476, lon.=26.344164, Alt.=98.741272m. Speed=22.247999m/h.</desc>
<speed>6.180000</speed>
</trkpt>
<trkpt lat="56.140419" lon="26.344141">
<ele>98.958069</ele>
<time>2010-08-29T16:03:45Z</time>
<desc>lat.=56.140419, lon.=26.344141, Alt.=98.958069m. Speed=23.112000m/h.</desc>
<speed>6.420000</speed>
</trkpt>
<trkpt lat="56.140369" lon="26.344122">
<ele>98.872131</ele>
<time>2010-08-29T16:03:46Z</time>
<desc>lat.=56.140369, lon.=26.344122, Alt.=98.872131m. Speed=21.959999m/h.</desc>
<speed>6.100000</speed>
</trkpt>
<trkpt lat="56.140316" lon="26.344099">
<ele>98.774475</ele>
<time>2010-08-29T16:03:47Z</time>
<desc>lat.=56.140316, lon.=26.344099, Alt.=98.774475m. Speed=21.996000m/h.</desc>
<speed>6.110000</speed>
</trkpt>
<trkpt lat="56.140255" lon="26.344080">
<ele>98.604553</ele>
<time>2010-08-29T16:03:48Z</time>
<desc>lat.=56.140255, lon.=26.344080, Alt.=98.604553m. Speed=23.688000m/h.</desc>
<speed>6.580000</speed>
</trkpt>
<trkpt lat="56.140198" lon="26.344067">
<ele>98.672913</ele>
<time>2010-08-29T16:03:49Z</time>
<desc>lat.=56.140198, lon.=26.344067, Alt.=98.672913m. Speed=23.040001m/h.</desc>
<speed>6.400000</speed>
</trkpt>
<trkpt lat="56.140137" lon="26.344051">
<ele>98.555725</ele>
<time>2010-08-29T16:03:50Z</time>
<desc>lat.=56.140137, lon.=26.344051, Alt.=98.555725m. Speed=22.643999m/h.</desc>
<speed>6.290000</speed>
</trkpt>
<trkpt lat="56.140087" lon="26.344040">
<ele>98.430725</ele>
<time>2010-08-29T16:03:51Z</time>
<desc>lat.=56.140087, lon.=26.344040, Alt.=98.430725m. Speed=21.492001m/h.</desc>
<speed>5.970000</speed>
</trkpt>
<trkpt lat="56.140030" lon="26.344019">
<ele>98.190491</ele>
<time>2010-08-29T16:03:52Z</time>
<desc>lat.=56.140030, lon.=26.344019, Alt.=98.190491m. Speed=21.959999m/h.</desc>
<speed>6.100000</speed>
</trkpt>
<trkpt lat="56.139977" lon="26.343992">
<ele>97.723694</ele>
<time>2010-08-29T16:03:53Z</time>
<desc>lat.=56.139977, lon.=26.343992, Alt.=97.723694m. Speed=21.851999m/h.</desc>
<speed>6.070000</speed>
</trkpt>
<trkpt lat="56.139927" lon="26.343971">
<ele>97.145569</ele>
<time>2010-08-29T16:03:54Z</time>
<desc>lat.=56.139927, lon.=26.343971, Alt.=97.145569m. Speed=22.032000m/h.</desc>
<speed>6.120000</speed>
</trkpt>
<trkpt lat="56.139870" lon="26.343960">
<ele>97.249084</ele>
<time>2010-08-29T16:03:55Z</time>
<desc>lat.=56.139870, lon.=26.343960, Alt.=97.249084m. Speed=20.808001m/h.</desc>
<speed>5.780000</speed>
</trkpt>
<trkpt lat="56.139812" lon="26.343948">
<ele>97.526428</ele>
<time>2010-08-29T16:03:56Z</time>
<desc>lat.=56.139812, lon.=26.343948, Alt.=97.526428m. Speed=21.024000m/h.</desc>
<speed>5.840000</speed>
</trkpt>
<trkpt lat="56.139759" lon="26.343933">
<ele>97.473694</ele>
<time>2010-08-29T16:03:57Z</time>
<desc>lat.=56.139759, lon.=26.343933, Alt.=97.473694m. Speed=20.520000m/h.</desc>
<speed>5.700000</speed>
</trkpt>
<trkpt lat="56.139709" lon="26.343903">
<ele>97.405334</ele>
<time>2010-08-29T16:03:58Z</time>
<desc>lat.=56.139709, lon.=26.343903, Alt.=97.405334m. Speed=19.836000m/h.</desc>
<speed>5.510000</speed>
</trkpt>
<trkpt lat="56.139660" lon="26.343884">
<ele>97.169006</ele>
<time>2010-08-29T16:03:59Z</time>
<desc>lat.=56.139660, lon.=26.343884, Alt.=97.169006m. Speed=19.260000m/h.</desc>
<speed>5.350000</speed>
</trkpt>
<trkpt lat="56.139614" lon="26.343868">
<ele>97.110413</ele>
<time>2010-08-29T16:04:00Z</time>
<desc>lat.=56.139614, lon.=26.343868, Alt.=97.110413m. Speed=18.684000m/h.</desc>
<speed>5.190000</speed>
</trkpt>
<trkpt lat="56.139568" lon="26.343845">
<ele>97.004944</ele>
<time>2010-08-29T16:04:01Z</time>
<desc>lat.=56.139568, lon.=26.343845, Alt.=97.004944m. Speed=18.180000m/h.</desc>
<speed>5.050000</speed>
</trkpt>
<trkpt lat="56.139519" lon="26.343826">
<ele>97.377991</ele>
<time>2010-08-29T16:04:02Z</time>
<desc>lat.=56.139519, lon.=26.343826, Alt.=97.377991m. Speed=17.856001m/h.</desc>
<speed>4.960000</speed>
</trkpt>
<trkpt lat="56.139477" lon="26.343815">
<ele>97.481506</ele>
<time>2010-08-29T16:04:03Z</time>
<desc>lat.=56.139477, lon.=26.343815, Alt.=97.481506m. Speed=17.388000m/h.</desc>
<speed>4.830000</speed>
</trkpt>
<trkpt lat="56.139439" lon="26.343801">
<ele>97.889709</ele>
<time>2010-08-29T16:04:04Z</time>
<desc>lat.=56.139439, lon.=26.343801, Alt.=97.889709m. Speed=16.740000m/h.</desc>
<speed>4.650000</speed>
</trkpt>
<trkpt lat="56.139400" lon="26.343784">
<ele>98.268616</ele>
<time>2010-08-29T16:04:05Z</time>
<desc>lat.=56.139400, lon.=26.343784, Alt.=98.268616m. Speed=16.308001m/h.</desc>
<speed>4.530000</speed>
</trkpt>
<trkpt lat="56.139362" lon="26.343769">
<ele>98.497131</ele>
<time>2010-08-29T16:04:06Z</time>
<desc>lat.=56.139362, lon.=26.343769, Alt.=98.497131m. Speed=16.128000m/h.</desc>
<speed>4.480000</speed>
</trkpt>
<trkpt lat="56.139320" lon="26.343754">
<ele>98.756897</ele>
<time>2010-08-29T16:04:07Z</time>
<desc>lat.=56.139320, lon.=26.343754, Alt.=98.756897m. Speed=18.972000m/h.</desc>
<speed>5.270000</speed>
</trkpt>
<trkpt lat="56.139278" lon="26.343731">
<ele>99.008850</ele>
<time>2010-08-29T16:04:08Z</time>
<desc>lat.=56.139278, lon.=26.343731, Alt.=99.008850m. Speed=17.496000m/h.</desc>
<speed>4.860000</speed>
</trkpt>
<trkpt lat="56.139233" lon="26.343714">
<ele>99.215881</ele>
<time>2010-08-29T16:04:09Z</time>
<desc>lat.=56.139233, lon.=26.343714, Alt.=99.215881m. Speed=19.007999m/h.</desc>
<speed>5.280000</speed>
</trkpt>
<trkpt lat="56.139187" lon="26.343695">
<ele>99.522522</ele>
<time>2010-08-29T16:04:10Z</time>
<desc>lat.=56.139187, lon.=26.343695, Alt.=99.522522m. Speed=19.188000m/h.</desc>
<speed>5.330000</speed>
</trkpt>
<trkpt lat="56.139141" lon="26.343674">
<ele>99.438538</ele>
<time>2010-08-29T16:04:11Z</time>
<desc>lat.=56.139141, lon.=26.343674, Alt.=99.438538m. Speed=20.087999m/h.</desc>
<speed>5.580000</speed>
</trkpt>
<trkpt lat="56.139088" lon="26.343662">
<ele>99.655334</ele>
<time>2010-08-29T16:04:12Z</time>
<desc>lat.=56.139088, lon.=26.343662, Alt.=99.655334m. Speed=21.204000m/h.</desc>
<speed>5.890000</speed>
</trkpt>
<trkpt lat="56.139038" lon="26.343641">
<ele>99.815491</ele>
<time>2010-08-29T16:04:13Z</time>
<desc>lat.=56.139038, lon.=26.343641, Alt.=99.815491m. Speed=21.024000m/h.</desc>
<speed>5.840000</speed>
</trkpt>
<trkpt lat="56.138985" lon="26.343632">
<ele>99.252991</ele>
<time>2010-08-29T16:04:14Z</time>
<desc>lat.=56.138985, lon.=26.343632, Alt.=99.252991m. Speed=19.044001m/h.</desc>
<speed>5.290000</speed>
</trkpt>
<trkpt lat="56.138931" lon="26.343615">
<ele>99.549866</ele>
<time>2010-08-29T16:04:15Z</time>
<desc>lat.=56.138931, lon.=26.343615, Alt.=99.549866m. Speed=22.068001m/h.</desc>
<speed>6.130000</speed>
</trkpt>
<trkpt lat="56.138874" lon="26.343599">
<ele>99.215881</ele>
<time>2010-08-29T16:04:16Z</time>
<desc>lat.=56.138874, lon.=26.343599, Alt.=99.215881m. Speed=21.743999m/h.</desc>
<speed>6.040000</speed>
</trkpt>
<trkpt lat="56.138817" lon="26.343578">
<ele>99.147522</ele>
<time>2010-08-29T16:04:17Z</time>
<desc>lat.=56.138817, lon.=26.343578, Alt.=99.147522m. Speed=21.455999m/h.</desc>
<speed>5.960000</speed>
</trkpt>
<trkpt lat="56.138763" lon="26.343557">
<ele>99.030334</ele>
<time>2010-08-29T16:04:18Z</time>
<desc>lat.=56.138763, lon.=26.343557, Alt.=99.030334m. Speed=21.420000m/h.</desc>
<speed>5.950000</speed>
</trkpt>
<trkpt lat="56.138710" lon="26.343538">
<ele>98.897522</ele>
<time>2010-08-29T16:04:19Z</time>
<desc>lat.=56.138710, lon.=26.343538, Alt.=98.897522m. Speed=20.664000m/h.</desc>
<speed>5.740000</speed>
</trkpt>
<trkpt lat="56.138660" lon="26.343523">
<ele>98.708069</ele>
<time>2010-08-29T16:04:20Z</time>
<desc>lat.=56.138660, lon.=26.343523, Alt.=98.708069m. Speed=20.160000m/h.</desc>
<speed>5.600000</speed>
</trkpt>
<trkpt lat="56.138611" lon="26.343510">
<ele>98.450256</ele>
<time>2010-08-29T16:04:21Z</time>
<desc>lat.=56.138611, lon.=26.343510, Alt.=98.450256m. Speed=19.224001m/h.</desc>
<speed>5.340000</speed>
</trkpt>
<trkpt lat="56.138557" lon="26.343491">
<ele>99.362366</ele>
<time>2010-08-29T16:04:22Z</time>
<desc>lat.=56.138557, lon.=26.343491, Alt.=99.362366m. Speed=19.440001m/h.</desc>
<speed>5.400000</speed>
</trkpt>
<trkpt lat="56.138500" lon="26.343468">
<ele>99.663147</ele>
<time>2010-08-29T16:04:23Z</time>
<desc>lat.=56.138500, lon.=26.343468, Alt.=99.663147m. Speed=20.591999m/h.</desc>
<speed>5.720000</speed>
</trkpt>
<trkpt lat="56.138439" lon="26.343443">
<ele>100.383850</ele>
<time>2010-08-29T16:04:24Z</time>
<desc>lat.=56.138439, lon.=26.343443, Alt.=100.383850m. Speed=20.556000m/h.</desc>
<speed>5.710000</speed>
</trkpt>
<trkpt lat="56.138386" lon="26.343424">
<ele>100.727600</ele>
<time>2010-08-29T16:04:25Z</time>
<desc>lat.=56.138386, lon.=26.343424, Alt.=100.727600m. Speed=21.888000m/h.</desc>
<speed>6.080000</speed>
</trkpt>
<trkpt lat="56.138336" lon="26.343405">
<ele>100.997131</ele>
<time>2010-08-29T16:04:26Z</time>
<desc>lat.=56.138336, lon.=26.343405, Alt.=100.997131m. Speed=21.528000m/h.</desc>
<speed>5.980000</speed>
</trkpt>
<trkpt lat="56.138283" lon="26.343380">
<ele>100.965881</ele>
<time>2010-08-29T16:04:27Z</time>
<desc>lat.=56.138283, lon.=26.343380, Alt.=100.965881m. Speed=22.427999m/h.</desc>
<speed>6.230000</speed>
</trkpt>
<trkpt lat="56.138222" lon="26.343357">
<ele>100.876038</ele>
<time>2010-08-29T16:04:28Z</time>
<desc>lat.=56.138222, lon.=26.343357, Alt.=100.876038m. Speed=23.112000m/h.</desc>
<speed>6.420000</speed>
</trkpt>
<trkpt lat="56.138168" lon="26.343332">
<ele>100.446350</ele>
<time>2010-08-29T16:04:29Z</time>
<desc>lat.=56.138168, lon.=26.343332, Alt.=100.446350m. Speed=22.608000m/h.</desc>
<speed>6.280000</speed>
</trkpt>
<trkpt lat="56.138107" lon="26.343315">
<ele>100.477600</ele>
<time>2010-08-29T16:04:30Z</time>
<desc>lat.=56.138107, lon.=26.343315, Alt.=100.477600m. Speed=21.959999m/h.</desc>
<speed>6.100000</speed>
</trkpt>
<trkpt lat="56.138054" lon="26.343298">
<ele>99.604553</ele>
<time>2010-08-29T16:04:31Z</time>
<desc>lat.=56.138054, lon.=26.343298, Alt.=99.604553m. Speed=23.256001m/h.</desc>
<speed>6.460000</speed>
</trkpt>
<trkpt lat="56.137997" lon="26.343281">
<ele>99.608459</ele>
<time>2010-08-29T16:04:32Z</time>
<desc>lat.=56.137997, lon.=26.343281, Alt.=99.608459m. Speed=22.608000m/h.</desc>
<speed>6.280000</speed>
</trkpt>
<trkpt lat="56.137936" lon="26.343262">
<ele>99.778381</ele>
<time>2010-08-29T16:04:33Z</time>
<desc>lat.=56.137936, lon.=26.343262, Alt.=99.778381m. Speed=22.068001m/h.</desc>
<speed>6.130000</speed>
</trkpt>
<trkpt lat="56.137882" lon="26.343245">
<ele>99.440491</ele>
<time>2010-08-29T16:04:34Z</time>
<desc>lat.=56.137882, lon.=26.343245, Alt.=99.440491m. Speed=23.004000m/h.</desc>
<speed>6.390000</speed>
</trkpt>
<trkpt lat="56.137825" lon="26.343233">
<ele>98.473694</ele>
<time>2010-08-29T16:04:35Z</time>
<desc>lat.=56.137825, lon.=26.343233, Alt.=98.473694m. Speed=23.076000m/h.</desc>
<speed>6.410000</speed>
</trkpt>
<trkpt lat="56.137768" lon="26.343216">
<ele>97.963928</ele>
<time>2010-08-29T16:04:36Z</time>
<desc>lat.=56.137768, lon.=26.343216, Alt.=97.963928m. Speed=23.184000m/h.</desc>
<speed>6.440000</speed>
</trkpt>
<trkpt lat="56.137711" lon="26.343199">
<ele>97.905334</ele>
<time>2010-08-29T16:04:37Z</time>
<desc>lat.=56.137711, lon.=26.343199, Alt.=97.905334m. Speed=22.176001m/h.</desc>
<speed>6.160000</speed>
</trkpt>
<trkpt lat="56.137653" lon="26.343182">
<ele>97.797913</ele>
<time>2010-08-29T16:04:38Z</time>
<desc>lat.=56.137653, lon.=26.343182, Alt.=97.797913m. Speed=21.924000m/h.</desc>
<speed>6.090000</speed>
</trkpt>
<trkpt lat="56.137600" lon="26.343164">
<ele>97.639709</ele>
<time>2010-08-29T16:04:39Z</time>
<desc>lat.=56.137600, lon.=26.343164, Alt.=97.639709m. Speed=22.176001m/h.</desc>
<speed>6.160000</speed>
</trkpt>
<trkpt lat="56.137547" lon="26.343145">
<ele>98.001038</ele>
<time>2010-08-29T16:04:40Z</time>
<desc>lat.=56.137547, lon.=26.343145, Alt.=98.001038m. Speed=24.084000m/h.</desc>
<speed>6.690000</speed>
</trkpt>
<trkpt lat="56.137489" lon="26.343132">
<ele>97.278381</ele>
<time>2010-08-29T16:04:41Z</time>
<desc>lat.=56.137489, lon.=26.343132, Alt.=97.278381m. Speed=24.695999m/h.</desc>
<speed>6.860000</speed>
</trkpt>
<trkpt lat="56.137432" lon="26.343117">
<ele>97.008850</ele>
<time>2010-08-29T16:04:42Z</time>
<desc>lat.=56.137432, lon.=26.343117, Alt.=97.008850m. Speed=23.868000m/h.</desc>
<speed>6.630000</speed>
</trkpt>
<trkpt lat="56.137371" lon="26.343096">
<ele>96.776428</ele>
<time>2010-08-29T16:04:43Z</time>
<desc>lat.=56.137371, lon.=26.343096, Alt.=96.776428m. Speed=24.732000m/h.</desc>
<speed>6.870000</speed>
</trkpt>
<trkpt lat="56.137314" lon="26.343081">
<ele>96.784241</ele>
<time>2010-08-29T16:04:44Z</time>
<desc>lat.=56.137314, lon.=26.343081, Alt.=96.784241m. Speed=25.559999m/h.</desc>
<speed>7.100000</speed>
</trkpt>
<trkpt lat="56.137249" lon="26.343058">
<ele>96.614319</ele>
<time>2010-08-29T16:04:45Z</time>
<desc>lat.=56.137249, lon.=26.343058, Alt.=96.614319m. Speed=25.884001m/h.</desc>
<speed>7.190000</speed>
</trkpt>
<trkpt lat="56.137184" lon="26.343042">
<ele>96.514709</ele>
<time>2010-08-29T16:04:46Z</time>
<desc>lat.=56.137184, lon.=26.343042, Alt.=96.514709m. Speed=25.632000m/h.</desc>
<speed>7.120000</speed>
</trkpt>
<trkpt lat="56.137123" lon="26.343023">
<ele>96.376038</ele>
<time>2010-08-29T16:04:47Z</time>
<desc>lat.=56.137123, lon.=26.343023, Alt.=96.376038m. Speed=25.020000m/h.</desc>
<speed>6.950000</speed>
</trkpt>
<trkpt lat="56.137062" lon="26.343006">
<ele>96.397522</ele>
<time>2010-08-29T16:04:48Z</time>
<desc>lat.=56.137062, lon.=26.343006, Alt.=96.397522m. Speed=25.200001m/h.</desc>
<speed>7.000000</speed>
</trkpt>
<trkpt lat="56.136997" lon="26.342989">
<ele>96.266663</ele>
<time>2010-08-29T16:04:49Z</time>
<desc>lat.=56.136997, lon.=26.342989, Alt.=96.266663m. Speed=25.812000m/h.</desc>
<speed>7.170000</speed>
</trkpt>
<trkpt lat="56.136932" lon="26.342976">
<ele>96.186584</ele>
<time>2010-08-29T16:04:50Z</time>
<desc>lat.=56.136932, lon.=26.342976, Alt.=96.186584m. Speed=25.236000m/h.</desc>
<speed>7.010000</speed>
</trkpt>
<trkpt lat="56.136871" lon="26.342960">
<ele>96.495178</ele>
<time>2010-08-29T16:04:51Z</time>
<desc>lat.=56.136871, lon.=26.342960, Alt.=96.495178m. Speed=23.615999m/h.</desc>
<speed>6.560000</speed>
</trkpt>
<trkpt lat="56.136810" lon="26.342939">
<ele>96.290100</ele>
<time>2010-08-29T16:04:52Z</time>
<desc>lat.=56.136810, lon.=26.342939, Alt.=96.290100m. Speed=24.264000m/h.</desc>
<speed>6.740000</speed>
</trkpt>
<trkpt lat="56.136753" lon="26.342924">
<ele>95.999084</ele>
<time>2010-08-29T16:04:53Z</time>
<desc>lat.=56.136753, lon.=26.342924, Alt.=95.999084m. Speed=21.780001m/h.</desc>
<speed>6.050000</speed>
</trkpt>
<trkpt lat="56.136700" lon="26.342905">
<ele>96.370178</ele>
<time>2010-08-29T16:04:54Z</time>
<desc>lat.=56.136700, lon.=26.342905, Alt.=96.370178m. Speed=21.420000m/h.</desc>
<speed>5.950000</speed>
</trkpt>
<trkpt lat="56.136642" lon="26.342896">
<ele>96.161194</ele>
<time>2010-08-29T16:04:55Z</time>
<desc>lat.=56.136642, lon.=26.342896, Alt.=96.161194m. Speed=21.312000m/h.</desc>
<speed>5.920000</speed>
</trkpt>
<trkpt lat="56.136585" lon="26.342884">
<ele>96.506897</ele>
<time>2010-08-29T16:04:56Z</time>
<desc>lat.=56.136585, lon.=26.342884, Alt.=96.506897m. Speed=20.808001m/h.</desc>
<speed>5.780000</speed>
</trkpt>
<trkpt lat="56.136528" lon="26.342875">
<ele>95.952209</ele>
<time>2010-08-29T16:04:57Z</time>
<desc>lat.=56.136528, lon.=26.342875, Alt.=95.952209m. Speed=22.176001m/h.</desc>
<speed>6.160000</speed>
</trkpt>
<trkpt lat="56.136471" lon="26.342861">
<ele>96.170959</ele>
<time>2010-08-29T16:04:58Z</time>
<desc>lat.=56.136471, lon.=26.342861, Alt.=96.170959m. Speed=22.176001m/h.</desc>
<speed>6.160000</speed>
</trkpt>
<trkpt lat="56.136414" lon="26.342840">
<ele>96.403381</ele>
<time>2010-08-29T16:04:59Z</time>
<desc>lat.=56.136414, lon.=26.342840, Alt.=96.403381m. Speed=23.040001m/h.</desc>
<speed>6.400000</speed>
</trkpt>
<trkpt lat="56.136353" lon="26.342819">
<ele>96.692444</ele>
<time>2010-08-29T16:05:00Z</time>
<desc>lat.=56.136353, lon.=26.342819, Alt.=96.692444m. Speed=23.760000m/h.</desc>
<speed>6.600000</speed>
</trkpt>
<trkpt lat="56.136295" lon="26.342806">
<ele>96.692444</ele>
<time>2010-08-29T16:05:01Z</time>
<desc>lat.=56.136295, lon.=26.342806, Alt.=96.692444m. Speed=24.804001m/h.</desc>
<speed>6.890000</speed>
</trkpt>
<trkpt lat="56.136230" lon="26.342793">
<ele>96.881897</ele>
<time>2010-08-29T16:05:02Z</time>
<desc>lat.=56.136230, lon.=26.342793, Alt.=96.881897m. Speed=25.524000m/h.</desc>
<speed>7.090000</speed>
</trkpt>
<trkpt lat="56.136173" lon="26.342779">
<ele>96.651428</ele>
<time>2010-08-29T16:05:03Z</time>
<desc>lat.=56.136173, lon.=26.342779, Alt.=96.651428m. Speed=25.632000m/h.</desc>
<speed>7.120000</speed>
</trkpt>
<trkpt lat="56.136108" lon="26.342768">
<ele>96.807678</ele>
<time>2010-08-29T16:05:04Z</time>
<desc>lat.=56.136108, lon.=26.342768, Alt.=96.807678m. Speed=25.416000m/h.</desc>
<speed>7.060000</speed>
</trkpt>
<trkpt lat="56.136047" lon="26.342751">
<ele>97.217834</ele>
<time>2010-08-29T16:05:05Z</time>
<desc>lat.=56.136047, lon.=26.342751, Alt.=97.217834m. Speed=24.408001m/h.</desc>
<speed>6.780000</speed>
</trkpt>
<trkpt lat="56.135990" lon="26.342735">
<ele>97.090881</ele>
<time>2010-08-29T16:05:06Z</time>
<desc>lat.=56.135990, lon.=26.342735, Alt.=97.090881m. Speed=23.796000m/h.</desc>
<speed>6.610000</speed>
</trkpt>
<trkpt lat="56.135925" lon="26.342720">
<ele>96.797913</ele>
<time>2010-08-29T16:05:07Z</time>
<desc>lat.=56.135925, lon.=26.342720, Alt.=96.797913m. Speed=23.256001m/h.</desc>
<speed>6.460000</speed>
</trkpt>
<trkpt lat="56.135860" lon="26.342707">
<ele>97.163147</ele>
<time>2010-08-29T16:05:08Z</time>
<desc>lat.=56.135860, lon.=26.342707, Alt.=97.163147m. Speed=23.688000m/h.</desc>
<speed>6.580000</speed>
</trkpt>
<trkpt lat="56.135807" lon="26.342693">
<ele>95.788147</ele>
<time>2010-08-29T16:05:09Z</time>
<desc>lat.=56.135807, lon.=26.342693, Alt.=95.788147m. Speed=23.112000m/h.</desc>
<speed>6.420000</speed>
</trkpt>
<trkpt lat="56.135750" lon="26.342680">
<ele>95.465881</ele>
<time>2010-08-29T16:05:10Z</time>
<desc>lat.=56.135750, lon.=26.342680, Alt.=95.465881m. Speed=23.796000m/h.</desc>
<speed>6.610000</speed>
</trkpt>
<trkpt lat="56.135693" lon="26.342663">
<ele>95.407288</ele>
<time>2010-08-29T16:05:11Z</time>
<desc>lat.=56.135693, lon.=26.342663, Alt.=95.407288m. Speed=22.931999m/h.</desc>
<speed>6.370000</speed>
</trkpt>
<trkpt lat="56.135632" lon="26.342651">
<ele>95.932678</ele>
<time>2010-08-29T16:05:12Z</time>
<desc>lat.=56.135632, lon.=26.342651, Alt.=95.932678m. Speed=25.128000m/h.</desc>
<speed>6.980000</speed>
</trkpt>
<trkpt lat="56.135571" lon="26.342640">
<ele>95.762756</ele>
<time>2010-08-29T16:05:13Z</time>
<desc>lat.=56.135571, lon.=26.342640, Alt.=95.762756m. Speed=24.120001m/h.</desc>
<speed>6.700000</speed>
</trkpt>
<trkpt lat="56.135513" lon="26.342625">
<ele>96.038147</ele>
<time>2010-08-29T16:05:14Z</time>
<desc>lat.=56.135513, lon.=26.342625, Alt.=96.038147m. Speed=25.524000m/h.</desc>
<speed>7.090000</speed>
</trkpt>
<trkpt lat="56.135448" lon="26.342615">
<ele>95.971741</ele>
<time>2010-08-29T16:05:15Z</time>
<desc>lat.=56.135448, lon.=26.342615, Alt.=95.971741m. Speed=25.236000m/h.</desc>
<speed>7.010000</speed>
</trkpt>
<trkpt lat="56.135387" lon="26.342600">
<ele>95.739319</ele>
<time>2010-08-29T16:05:16Z</time>
<desc>lat.=56.135387, lon.=26.342600, Alt.=95.739319m. Speed=26.136000m/h.</desc>
<speed>7.260000</speed>
</trkpt>
<trkpt lat="56.135323" lon="26.342587">
<ele>95.774475</ele>
<time>2010-08-29T16:05:17Z</time>
<desc>lat.=56.135323, lon.=26.342587, Alt.=95.774475m. Speed=25.236000m/h.</desc>
<speed>7.010000</speed>
</trkpt>
<trkpt lat="56.135262" lon="26.342577">
<ele>95.573303</ele>
<time>2010-08-29T16:05:18Z</time>
<desc>lat.=56.135262, lon.=26.342577, Alt.=95.573303m. Speed=24.840000m/h.</desc>
<speed>6.900000</speed>
</trkpt>
<trkpt lat="56.135204" lon="26.342566">
<ele>95.606506</ele>
<time>2010-08-29T16:05:19Z</time>
<desc>lat.=56.135204, lon.=26.342566, Alt.=95.606506m. Speed=23.796000m/h.</desc>
<speed>6.610000</speed>
</trkpt>
<trkpt lat="56.135143" lon="26.342552">
<ele>95.600647</ele>
<time>2010-08-29T16:05:20Z</time>
<desc>lat.=56.135143, lon.=26.342552, Alt.=95.600647m. Speed=23.219999m/h.</desc>
<speed>6.450000</speed>
</trkpt>
<trkpt lat="56.135082" lon="26.342543">
<ele>95.711975</ele>
<time>2010-08-29T16:05:21Z</time>
<desc>lat.=56.135082, lon.=26.342543, Alt.=95.711975m. Speed=23.004000m/h.</desc>
<speed>6.390000</speed>
</trkpt>
<trkpt lat="56.135029" lon="26.342537">
<ele>95.659241</ele>
<time>2010-08-29T16:05:22Z</time>
<desc>lat.=56.135029, lon.=26.342537, Alt.=95.659241m. Speed=21.636000m/h.</desc>
<speed>6.010000</speed>
</trkpt>
<trkpt lat="56.134975" lon="26.342525">
<ele>96.321350</ele>
<time>2010-08-29T16:05:23Z</time>
<desc>lat.=56.134975, lon.=26.342525, Alt.=96.321350m. Speed=23.256001m/h.</desc>
<speed>6.460000</speed>
</trkpt>
<trkpt lat="56.134922" lon="26.342520">
<ele>96.366272</ele>
<time>2010-08-29T16:05:24Z</time>
<desc>lat.=56.134922, lon.=26.342520, Alt.=96.366272m. Speed=24.372000m/h.</desc>
<speed>6.770000</speed>
</trkpt>
<trkpt lat="56.134865" lon="26.342505">
<ele>96.493225</ele>
<time>2010-08-29T16:05:25Z</time>
<desc>lat.=56.134865, lon.=26.342505, Alt.=96.493225m. Speed=23.400000m/h.</desc>
<speed>6.500000</speed>
</trkpt>
<trkpt lat="56.134796" lon="26.342485">
<ele>98.012756</ele>
<time>2010-08-29T16:05:26Z</time>
<desc>lat.=56.134796, lon.=26.342485, Alt.=98.012756m. Speed=25.992001m/h.</desc>
<speed>7.220000</speed>
</trkpt>
<trkpt lat="56.134731" lon="26.342468">
<ele>98.180725</ele>
<time>2010-08-29T16:05:27Z</time>
<desc>lat.=56.134731, lon.=26.342468, Alt.=98.180725m. Speed=24.768000m/h.</desc>
<speed>6.880000</speed>
</trkpt>
<trkpt lat="56.134670" lon="26.342461">
<ele>98.688538</ele>
<time>2010-08-29T16:05:28Z</time>
<desc>lat.=56.134670, lon.=26.342461, Alt.=98.688538m. Speed=24.552000m/h.</desc>
<speed>6.820000</speed>
</trkpt>
<trkpt lat="56.134605" lon="26.342461">
<ele>98.329163</ele>
<time>2010-08-29T16:05:29Z</time>
<desc>lat.=56.134605, lon.=26.342461, Alt.=98.329163m. Speed=25.236000m/h.</desc>
<speed>7.010000</speed>
</trkpt>
<trkpt lat="56.134544" lon="26.342455">
<ele>98.401428</ele>
<time>2010-08-29T16:05:30Z</time>
<desc>lat.=56.134544, lon.=26.342455, Alt.=98.401428m. Speed=25.200001m/h.</desc>
<speed>7.000000</speed>
</trkpt>
<trkpt lat="56.134483" lon="26.342449">
<ele>97.663147</ele>
<time>2010-08-29T16:05:31Z</time>
<desc>lat.=56.134483, lon.=26.342449, Alt.=97.663147m. Speed=25.056000m/h.</desc>
<speed>6.960000</speed>
</trkpt>
<trkpt lat="56.134422" lon="26.342440">
<ele>97.669006</ele>
<time>2010-08-29T16:05:32Z</time>
<desc>lat.=56.134422, lon.=26.342440, Alt.=97.669006m. Speed=24.120001m/h.</desc>
<speed>6.700000</speed>
</trkpt>
<trkpt lat="56.134365" lon="26.342422">
<ele>97.612366</ele>
<time>2010-08-29T16:05:33Z</time>
<desc>lat.=56.134365, lon.=26.342422, Alt.=97.612366m. Speed=23.615999m/h.</desc>
<speed>6.560000</speed>
</trkpt>
<trkpt lat="56.134308" lon="26.342417">
<ele>97.969788</ele>
<time>2010-08-29T16:05:34Z</time>
<desc>lat.=56.134308, lon.=26.342417, Alt.=97.969788m. Speed=22.788000m/h.</desc>
<speed>6.330000</speed>
</trkpt>
<trkpt lat="56.134251" lon="26.342413">
<ele>98.676819</ele>
<time>2010-08-29T16:05:35Z</time>
<desc>lat.=56.134251, lon.=26.342413, Alt.=98.676819m. Speed=22.104000m/h.</desc>
<speed>6.140000</speed>
</trkpt>
<trkpt lat="56.134197" lon="26.342409">
<ele>98.821350</ele>
<time>2010-08-29T16:05:36Z</time>
<desc>lat.=56.134197, lon.=26.342409, Alt.=98.821350m. Speed=21.708000m/h.</desc>
<speed>6.030000</speed>
</trkpt>
<trkpt lat="56.134148" lon="26.342402">
<ele>100.276428</ele>
<time>2010-08-29T16:05:37Z</time>
<desc>lat.=56.134148, lon.=26.342402, Alt.=100.276428m. Speed=21.132000m/h.</desc>
<speed>5.870000</speed>
</trkpt>
<trkpt lat="56.134090" lon="26.342403">
<ele>100.479553</ele>
<time>2010-08-29T16:05:38Z</time>
<desc>lat.=56.134090, lon.=26.342403, Alt.=100.479553m. Speed=22.068001m/h.</desc>
<speed>6.130000</speed>
</trkpt>
<trkpt lat="56.134033" lon="26.342394">
<ele>100.446350</ele>
<time>2010-08-29T16:05:39Z</time>
<desc>lat.=56.134033, lon.=26.342394, Alt.=100.446350m. Speed=22.176001m/h.</desc>
<speed>6.160000</speed>
</trkpt>
<trkpt lat="56.133972" lon="26.342388">
<ele>100.493225</ele>
<time>2010-08-29T16:05:40Z</time>
<desc>lat.=56.133972, lon.=26.342388, Alt.=100.493225m. Speed=23.292000m/h.</desc>
<speed>6.470000</speed>
</trkpt>
<trkpt lat="56.133915" lon="26.342377">
<ele>101.051819</ele>
<time>2010-08-29T16:05:41Z</time>
<desc>lat.=56.133915, lon.=26.342377, Alt.=101.051819m. Speed=24.191999m/h.</desc>
<speed>6.720000</speed>
</trkpt>
<trkpt lat="56.133858" lon="26.342365">
<ele>100.831116</ele>
<time>2010-08-29T16:05:42Z</time>
<desc>lat.=56.133858, lon.=26.342365, Alt.=100.831116m. Speed=24.695999m/h.</desc>
<speed>6.860000</speed>
</trkpt>
<trkpt lat="56.133797" lon="26.342358">
<ele>100.872131</ele>
<time>2010-08-29T16:05:43Z</time>
<desc>lat.=56.133797, lon.=26.342358, Alt.=100.872131m. Speed=24.408001m/h.</desc>
<speed>6.780000</speed>
</trkpt>
<trkpt lat="56.133732" lon="26.342350">
<ele>100.944397</ele>
<time>2010-08-29T16:05:44Z</time>
<desc>lat.=56.133732, lon.=26.342350, Alt.=100.944397m. Speed=24.011999m/h.</desc>
<speed>6.670000</speed>
</trkpt>
<trkpt lat="56.133671" lon="26.342342">
<ele>101.090881</ele>
<time>2010-08-29T16:05:45Z</time>
<desc>lat.=56.133671, lon.=26.342342, Alt.=101.090881m. Speed=24.191999m/h.</desc>
<speed>6.720000</speed>
</trkpt>
<trkpt lat="56.133614" lon="26.342339">
<ele>100.610413</ele>
<time>2010-08-29T16:05:46Z</time>
<desc>lat.=56.133614, lon.=26.342339, Alt.=100.610413m. Speed=22.212000m/h.</desc>
<speed>6.170000</speed>
</trkpt>
<trkpt lat="56.133560" lon="26.342339">
<ele>100.579163</ele>
<time>2010-08-29T16:05:47Z</time>
<desc>lat.=56.133560, lon.=26.342339, Alt.=100.579163m. Speed=22.247999m/h.</desc>
<speed>6.180000</speed>
</trkpt>
<trkpt lat="56.133507" lon="26.342337">
<ele>100.612366</ele>
<time>2010-08-29T16:05:48Z</time>
<desc>lat.=56.133507, lon.=26.342337, Alt.=100.612366m. Speed=20.916000m/h.</desc>
<speed>5.810000</speed>
</trkpt>
<trkpt lat="56.133450" lon="26.342327">
<ele>100.821350</ele>
<time>2010-08-29T16:05:49Z</time>
<desc>lat.=56.133450, lon.=26.342327, Alt.=100.821350m. Speed=21.600000m/h.</desc>
<speed>6.000000</speed>
</trkpt>
<trkpt lat="56.133392" lon="26.342318">
<ele>100.948303</ele>
<time>2010-08-29T16:05:50Z</time>
<desc>lat.=56.133392, lon.=26.342318, Alt.=100.948303m. Speed=22.427999m/h.</desc>
<speed>6.230000</speed>
</trkpt>
<trkpt lat="56.133331" lon="26.342310">
<ele>101.354553</ele>
<time>2010-08-29T16:05:51Z</time>
<desc>lat.=56.133331, lon.=26.342310, Alt.=101.354553m. Speed=23.544001m/h.</desc>
<speed>6.540000</speed>
</trkpt>
<trkpt lat="56.133266" lon="26.342312">
<ele>100.346741</ele>
<time>2010-08-29T16:05:52Z</time>
<desc>lat.=56.133266, lon.=26.342312, Alt.=100.346741m. Speed=24.444000m/h.</desc>
<speed>6.790000</speed>
</trkpt>
<trkpt lat="56.133205" lon="26.342323">
<ele>100.454163</ele>
<time>2010-08-29T16:05:53Z</time>
<desc>lat.=56.133205, lon.=26.342323, Alt.=100.454163m. Speed=24.084000m/h.</desc>
<speed>6.690000</speed>
</trkpt>
<trkpt lat="56.133148" lon="26.342319">
<ele>100.331116</ele>
<time>2010-08-29T16:05:54Z</time>
<desc>lat.=56.133148, lon.=26.342319, Alt.=100.331116m. Speed=23.004000m/h.</desc>
<speed>6.390000</speed>
</trkpt>
<trkpt lat="56.133091" lon="26.342316">
<ele>100.434631</ele>
<time>2010-08-29T16:05:55Z</time>
<desc>lat.=56.133091, lon.=26.342316, Alt.=100.434631m. Speed=25.164000m/h.</desc>
<speed>6.990000</speed>
</trkpt>
<trkpt lat="56.133030" lon="26.342312">
<ele>100.504944</ele>
<time>2010-08-29T16:05:56Z</time>
<desc>lat.=56.133030, lon.=26.342312, Alt.=100.504944m. Speed=24.983999m/h.</desc>
<speed>6.940000</speed>
</trkpt>
<trkpt lat="56.132965" lon="26.342310">
<ele>100.752991</ele>
<time>2010-08-29T16:05:57Z</time>
<desc>lat.=56.132965, lon.=26.342310, Alt.=100.752991m. Speed=25.091999m/h.</desc>
<speed>6.970000</speed>
</trkpt>
<trkpt lat="56.132904" lon="26.342306">
<ele>100.612366</ele>
<time>2010-08-29T16:05:58Z</time>
<desc>lat.=56.132904, lon.=26.342306, Alt.=100.612366m. Speed=24.120001m/h.</desc>
<speed>6.700000</speed>
</trkpt>
<trkpt lat="56.132847" lon="26.342306">
<ele>100.618225</ele>
<time>2010-08-29T16:05:59Z</time>
<desc>lat.=56.132847, lon.=26.342306, Alt.=100.618225m. Speed=23.364000m/h.</desc>
<speed>6.490000</speed>
</trkpt>
<trkpt lat="56.132790" lon="26.342299">
<ele>100.825256</ele>
<time>2010-08-29T16:06:00Z</time>
<desc>lat.=56.132790, lon.=26.342299, Alt.=100.825256m. Speed=23.040001m/h.</desc>
<speed>6.400000</speed>
</trkpt>
<trkpt lat="56.132732" lon="26.342297">
<ele>100.364319</ele>
<time>2010-08-29T16:06:01Z</time>
<desc>lat.=56.132732, lon.=26.342297, Alt.=100.364319m. Speed=22.716000m/h.</desc>
<speed>6.310000</speed>
</trkpt>
<trkpt lat="56.132671" lon="26.342291">
<ele>100.288147</ele>
<time>2010-08-29T16:06:02Z</time>
<desc>lat.=56.132671, lon.=26.342291, Alt.=100.288147m. Speed=22.320000m/h.</desc>
<speed>6.200000</speed>
</trkpt>
<trkpt lat="56.132610" lon="26.342289">
<ele>99.805725</ele>
<time>2010-08-29T16:06:03Z</time>
<desc>lat.=56.132610, lon.=26.342289, Alt.=99.805725m. Speed=23.832001m/h.</desc>
<speed>6.620000</speed>
</trkpt>
<trkpt lat="56.132549" lon="26.342287">
<ele>99.909241</ele>
<time>2010-08-29T16:06:04Z</time>
<desc>lat.=56.132549, lon.=26.342287, Alt.=99.909241m. Speed=25.524000m/h.</desc>
<speed>7.090000</speed>
</trkpt>
<trkpt lat="56.132488" lon="26.342289">
<ele>100.311584</ele>
<time>2010-08-29T16:06:05Z</time>
<desc>lat.=56.132488, lon.=26.342289, Alt.=100.311584m. Speed=24.732000m/h.</desc>
<speed>6.870000</speed>
</trkpt>
<trkpt lat="56.132420" lon="26.342283">
<ele>101.254944</ele>
<time>2010-08-29T16:06:06Z</time>
<desc>lat.=56.132420, lon.=26.342283, Alt.=101.254944m. Speed=25.740000m/h.</desc>
<speed>7.150000</speed>
</trkpt>
<trkpt lat="56.132355" lon="26.342283">
<ele>101.645569</ele>
<time>2010-08-29T16:06:07Z</time>
<desc>lat.=56.132355, lon.=26.342283, Alt.=101.645569m. Speed=25.632000m/h.</desc>
<speed>7.120000</speed>
</trkpt>
<trkpt lat="56.132290" lon="26.342283">
<ele>102.016663</ele>
<time>2010-08-29T16:06:08Z</time>
<desc>lat.=56.132290, lon.=26.342283, Alt.=102.016663m. Speed=24.948000m/h.</desc>
<speed>6.930000</speed>
</trkpt>
<trkpt lat="56.132233" lon="26.342287">
<ele>101.700256</ele>
<time>2010-08-29T16:06:09Z</time>
<desc>lat.=56.132233, lon.=26.342287, Alt.=101.700256m. Speed=24.120001m/h.</desc>
<speed>6.700000</speed>
</trkpt>
<trkpt lat="56.132172" lon="26.342289">
<ele>101.499084</ele>
<time>2010-08-29T16:06:10Z</time>
<desc>lat.=56.132172, lon.=26.342289, Alt.=101.499084m. Speed=24.624001m/h.</desc>
<speed>6.840000</speed>
</trkpt>
<trkpt lat="56.132107" lon="26.342283">
<ele>101.311584</ele>
<time>2010-08-29T16:06:11Z</time>
<desc>lat.=56.132107, lon.=26.342283, Alt.=101.311584m. Speed=25.308001m/h.</desc>
<speed>7.030000</speed>
</trkpt>
<trkpt lat="56.132046" lon="26.342291">
<ele>101.231506</ele>
<time>2010-08-29T16:06:12Z</time>
<desc>lat.=56.132046, lon.=26.342291, Alt.=101.231506m. Speed=25.596001m/h.</desc>
<speed>7.110000</speed>
</trkpt>
<trkpt lat="56.131981" lon="26.342306">
<ele>101.700256</ele>
<time>2010-08-29T16:06:13Z</time>
<desc>lat.=56.131981, lon.=26.342306, Alt.=101.700256m. Speed=27.108000m/h.</desc>
<speed>7.530000</speed>
</trkpt>
<trkpt lat="56.131916" lon="26.342300">
<ele>102.506897</ele>
<time>2010-08-29T16:06:14Z</time>
<desc>lat.=56.131916, lon.=26.342300, Alt.=102.506897m. Speed=26.604000m/h.</desc>
<speed>7.390000</speed>
</trkpt>
<trkpt lat="56.131847" lon="26.342306">
<ele>102.583069</ele>
<time>2010-08-29T16:06:15Z</time>
<desc>lat.=56.131847, lon.=26.342306, Alt.=102.583069m. Speed=28.080000m/h.</desc>
<speed>7.800000</speed>
</trkpt>
<trkpt lat="56.131779" lon="26.342310">
<ele>102.618225</ele>
<time>2010-08-29T16:06:16Z</time>
<desc>lat.=56.131779, lon.=26.342310, Alt.=102.618225m. Speed=28.656000m/h.</desc>
<speed>7.960000</speed>
</trkpt>
<trkpt lat="56.131710" lon="26.342312">
<ele>102.501038</ele>
<time>2010-08-29T16:06:17Z</time>
<desc>lat.=56.131710, lon.=26.342312, Alt.=102.501038m. Speed=29.052000m/h.</desc>
<speed>8.070000</speed>
</trkpt>
<trkpt lat="56.131641" lon="26.342314">
<ele>102.458069</ele>
<time>2010-08-29T16:06:18Z</time>
<desc>lat.=56.131641, lon.=26.342314, Alt.=102.458069m. Speed=27.864000m/h.</desc>
<speed>7.740000</speed>
</trkpt>
<trkpt lat="56.131573" lon="26.342316">
<ele>102.444397</ele>
<time>2010-08-29T16:06:19Z</time>
<desc>lat.=56.131573, lon.=26.342316, Alt.=102.444397m. Speed=27.143999m/h.</desc>
<speed>7.540000</speed>
</trkpt>
<trkpt lat="56.131500" lon="26.342323">
<ele>101.850647</ele>
<time>2010-08-29T16:06:20Z</time>
<desc>lat.=56.131500, lon.=26.342323, Alt.=101.850647m. Speed=26.172001m/h.</desc>
<speed>7.270000</speed>
</trkpt>
<trkpt lat="56.131435" lon="26.342327">
<ele>101.977600</ele>
<time>2010-08-29T16:06:21Z</time>
<desc>lat.=56.131435, lon.=26.342327, Alt.=101.977600m. Speed=26.568001m/h.</desc>
<speed>7.380000</speed>
</trkpt>
<trkpt lat="56.131363" lon="26.342325">
<ele>102.120178</ele>
<time>2010-08-29T16:06:22Z</time>
<desc>lat.=56.131363, lon.=26.342325, Alt.=102.120178m. Speed=27.035999m/h.</desc>
<speed>7.510000</speed>
</trkpt>
<trkpt lat="56.131290" lon="26.342329">
<ele>101.756897</ele>
<time>2010-08-29T16:06:23Z</time>
<desc>lat.=56.131290, lon.=26.342329, Alt.=101.756897m. Speed=27.035999m/h.</desc>
<speed>7.510000</speed>
</trkpt>
<trkpt lat="56.131218" lon="26.342335">
<ele>101.409241</ele>
<time>2010-08-29T16:06:24Z</time>
<desc>lat.=56.131218, lon.=26.342335, Alt.=101.409241m. Speed=27.936001m/h.</desc>
<speed>7.760000</speed>
</trkpt>
<trkpt lat="56.131149" lon="26.342344">
<ele>101.012756</ele>
<time>2010-08-29T16:06:25Z</time>
<desc>lat.=56.131149, lon.=26.342344, Alt.=101.012756m. Speed=28.188000m/h.</desc>
<speed>7.830000</speed>
</trkpt>
<trkpt lat="56.131077" lon="26.342356">
<ele>100.489319</ele>
<time>2010-08-29T16:06:26Z</time>
<desc>lat.=56.131077, lon.=26.342356, Alt.=100.489319m. Speed=28.476000m/h.</desc>
<speed>7.910000</speed>
</trkpt>
<trkpt lat="56.131008" lon="26.342367">
<ele>100.133850</ele>
<time>2010-08-29T16:06:27Z</time>
<desc>lat.=56.131008, lon.=26.342367, Alt.=100.133850m. Speed=26.856001m/h.</desc>
<speed>7.460000</speed>
</trkpt>
<trkpt lat="56.130939" lon="26.342373">
<ele>99.987366</ele>
<time>2010-08-29T16:06:28Z</time>
<desc>lat.=56.130939, lon.=26.342373, Alt.=99.987366m. Speed=26.784000m/h.</desc>
<speed>7.440000</speed>
</trkpt>
<trkpt lat="56.130871" lon="26.342373">
<ele>100.821350</ele>
<time>2010-08-29T16:06:29Z</time>
<desc>lat.=56.130871, lon.=26.342373, Alt.=100.821350m. Speed=26.208000m/h.</desc>
<speed>7.280000</speed>
</trkpt>
<trkpt lat="56.130810" lon="26.342388">
<ele>100.844788</ele>
<time>2010-08-29T16:06:30Z</time>
<desc>lat.=56.130810, lon.=26.342388, Alt.=100.844788m. Speed=25.379999m/h.</desc>
<speed>7.050000</speed>
</trkpt>
<trkpt lat="56.130741" lon="26.342402">
<ele>100.790100</ele>
<time>2010-08-29T16:06:31Z</time>
<desc>lat.=56.130741, lon.=26.342402, Alt.=100.790100m. Speed=27.864000m/h.</desc>
<speed>7.740000</speed>
</trkpt>
<trkpt lat="56.130669" lon="26.342422">
<ele>102.194397</ele>
<time>2010-08-29T16:06:32Z</time>
<desc>lat.=56.130669, lon.=26.342422, Alt.=102.194397m. Speed=29.591999m/h.</desc>
<speed>8.220000</speed>
</trkpt>
<trkpt lat="56.130596" lon="26.342428">
<ele>102.655334</ele>
<time>2010-08-29T16:06:33Z</time>
<desc>lat.=56.130596, lon.=26.342428, Alt.=102.655334m. Speed=29.195999m/h.</desc>
<speed>8.110000</speed>
</trkpt>
<trkpt lat="56.130520" lon="26.342434">
<ele>102.590881</ele>
<time>2010-08-29T16:06:34Z</time>
<desc>lat.=56.130520, lon.=26.342434, Alt.=102.590881m. Speed=29.664000m/h.</desc>
<speed>8.240000</speed>
</trkpt>
<trkpt lat="56.130451" lon="26.342432">
<ele>102.948303</ele>
<time>2010-08-29T16:06:35Z</time>
<desc>lat.=56.130451, lon.=26.342432, Alt.=102.948303m. Speed=29.556000m/h.</desc>
<speed>8.210000</speed>
</trkpt>
<trkpt lat="56.130379" lon="26.342424">
<ele>103.616272</ele>
<time>2010-08-29T16:06:36Z</time>
<desc>lat.=56.130379, lon.=26.342424, Alt.=103.616272m. Speed=29.556000m/h.</desc>
<speed>8.210000</speed>
</trkpt>
<trkpt lat="56.130306" lon="26.342426">
<ele>103.897522</ele>
<time>2010-08-29T16:06:37Z</time>
<desc>lat.=56.130306, lon.=26.342426, Alt.=103.897522m. Speed=30.024000m/h.</desc>
<speed>8.340000</speed>
</trkpt>
<trkpt lat="56.130230" lon="26.342432">
<ele>104.419006</ele>
<time>2010-08-29T16:06:38Z</time>
<desc>lat.=56.130230, lon.=26.342432, Alt.=104.419006m. Speed=29.448000m/h.</desc>
<speed>8.180000</speed>
</trkpt>
<trkpt lat="56.130154" lon="26.342443">
<ele>104.225647</ele>
<time>2010-08-29T16:06:39Z</time>
<desc>lat.=56.130154, lon.=26.342443, Alt.=104.225647m. Speed=29.520000m/h.</desc>
<speed>8.200000</speed>
</trkpt>
<trkpt lat="56.130081" lon="26.342459">
<ele>103.917053</ele>
<time>2010-08-29T16:06:40Z</time>
<desc>lat.=56.130081, lon.=26.342459, Alt.=103.917053m. Speed=29.771999m/h.</desc>
<speed>8.270000</speed>
</trkpt>
<trkpt lat="56.130009" lon="26.342472">
<ele>104.014709</ele>
<time>2010-08-29T16:06:41Z</time>
<desc>lat.=56.130009, lon.=26.342472, Alt.=104.014709m. Speed=28.620001m/h.</desc>
<speed>7.950000</speed>
</trkpt>
<trkpt lat="56.129940" lon="26.342482">
<ele>104.317444</ele>
<time>2010-08-29T16:06:42Z</time>
<desc>lat.=56.129940, lon.=26.342482, Alt.=104.317444m. Speed=28.080000m/h.</desc>
<speed>7.800000</speed>
</trkpt>
<trkpt lat="56.129871" lon="26.342493">
<ele>104.411194</ele>
<time>2010-08-29T16:06:43Z</time>
<desc>lat.=56.129871, lon.=26.342493, Alt.=104.411194m. Speed=27.468000m/h.</desc>
<speed>7.630000</speed>
</trkpt>
<trkpt lat="56.129807" lon="26.342506">
<ele>103.311584</ele>
<time>2010-08-29T16:06:44Z</time>
<desc>lat.=56.129807, lon.=26.342506, Alt.=103.311584m. Speed=26.784000m/h.</desc>
<speed>7.440000</speed>
</trkpt>
<trkpt lat="56.129745" lon="26.342527">
<ele>102.842834</ele>
<time>2010-08-29T16:06:45Z</time>
<desc>lat.=56.129745, lon.=26.342527, Alt.=102.842834m. Speed=24.840000m/h.</desc>
<speed>6.900000</speed>
</trkpt>
<trkpt lat="56.129684" lon="26.342552">
<ele>102.450256</ele>
<time>2010-08-29T16:06:46Z</time>
<desc>lat.=56.129684, lon.=26.342552, Alt.=102.450256m. Speed=25.524000m/h.</desc>
<speed>7.090000</speed>
</trkpt>
<trkpt lat="56.129623" lon="26.342573">
<ele>101.081116</ele>
<time>2010-08-29T16:06:47Z</time>
<desc>lat.=56.129623, lon.=26.342573, Alt.=101.081116m. Speed=25.488001m/h.</desc>
<speed>7.080000</speed>
</trkpt>
<trkpt lat="56.129559" lon="26.342579">
<ele>100.864319</ele>
<time>2010-08-29T16:06:48Z</time>
<desc>lat.=56.129559, lon.=26.342579, Alt.=100.864319m. Speed=26.388000m/h.</desc>
<speed>7.330000</speed>
</trkpt>
<trkpt lat="56.129494" lon="26.342592">
<ele>100.446350</ele>
<time>2010-08-29T16:06:49Z</time>
<desc>lat.=56.129494, lon.=26.342592, Alt.=100.446350m. Speed=27.072001m/h.</desc>
<speed>7.520000</speed>
</trkpt>
<trkpt lat="56.129429" lon="26.342604">
<ele>99.696350</ele>
<time>2010-08-29T16:06:50Z</time>
<desc>lat.=56.129429, lon.=26.342604, Alt.=99.696350m. Speed=26.136000m/h.</desc>
<speed>7.260000</speed>
</trkpt>
<trkpt lat="56.129360" lon="26.342617">
<ele>99.057678</ele>
<time>2010-08-29T16:06:51Z</time>
<desc>lat.=56.129360, lon.=26.342617, Alt.=99.057678m. Speed=27.396000m/h.</desc>
<speed>7.610000</speed>
</trkpt>
<trkpt lat="56.129288" lon="26.342628">
<ele>98.501038</ele>
<time>2010-08-29T16:06:52Z</time>
<desc>lat.=56.129288, lon.=26.342628, Alt.=98.501038m. Speed=27.108000m/h.</desc>
<speed>7.530000</speed>
</trkpt>
<trkpt lat="56.129211" lon="26.342640">
<ele>98.655334</ele>
<time>2010-08-29T16:06:53Z</time>
<desc>lat.=56.129211, lon.=26.342640, Alt.=98.655334m. Speed=27.108000m/h.</desc>
<speed>7.530000</speed>
</trkpt>
<trkpt lat="56.129143" lon="26.342648">
<ele>98.780334</ele>
<time>2010-08-29T16:06:54Z</time>
<desc>lat.=56.129143, lon.=26.342648, Alt.=98.780334m. Speed=26.100000m/h.</desc>
<speed>7.250000</speed>
</trkpt>
<trkpt lat="56.129078" lon="26.342661">
<ele>98.741272</ele>
<time>2010-08-29T16:06:55Z</time>
<desc>lat.=56.129078, lon.=26.342661, Alt.=98.741272m. Speed=25.559999m/h.</desc>
<speed>7.100000</speed>
</trkpt>
<trkpt lat="56.129013" lon="26.342678">
<ele>99.622131</ele>
<time>2010-08-29T16:06:56Z</time>
<desc>lat.=56.129013, lon.=26.342678, Alt.=99.622131m. Speed=25.559999m/h.</desc>
<speed>7.100000</speed>
</trkpt>
<trkpt lat="56.128948" lon="26.342690">
<ele>100.178772</ele>
<time>2010-08-29T16:06:57Z</time>
<desc>lat.=56.128948, lon.=26.342690, Alt.=100.178772m. Speed=24.768000m/h.</desc>
<speed>6.880000</speed>
</trkpt>
<trkpt lat="56.128887" lon="26.342716">
<ele>100.508850</ele>
<time>2010-08-29T16:06:58Z</time>
<desc>lat.=56.128887, lon.=26.342716, Alt.=100.508850m. Speed=25.416000m/h.</desc>
<speed>7.060000</speed>
</trkpt>
<trkpt lat="56.128830" lon="26.342728">
<ele>99.950256</ele>
<time>2010-08-29T16:06:59Z</time>
<desc>lat.=56.128830, lon.=26.342728, Alt.=99.950256m. Speed=25.524000m/h.</desc>
<speed>7.090000</speed>
</trkpt>
<trkpt lat="56.128761" lon="26.342739">
<ele>100.106506</ele>
<time>2010-08-29T16:07:00Z</time>
<desc>lat.=56.128761, lon.=26.342739, Alt.=100.106506m. Speed=26.388000m/h.</desc>
<speed>7.330000</speed>
</trkpt>
<trkpt lat="56.128696" lon="26.342760">
<ele>99.436584</ele>
<time>2010-08-29T16:07:01Z</time>
<desc>lat.=56.128696, lon.=26.342760, Alt.=99.436584m. Speed=26.100000m/h.</desc>
<speed>7.250000</speed>
</trkpt>
<trkpt lat="56.128632" lon="26.342773">
<ele>98.920959</ele>
<time>2010-08-29T16:07:02Z</time>
<desc>lat.=56.128632, lon.=26.342773, Alt.=98.920959m. Speed=25.920000m/h.</desc>
<speed>7.200000</speed>
</trkpt>
<trkpt lat="56.128567" lon="26.342785">
<ele>98.553772</ele>
<time>2010-08-29T16:07:03Z</time>
<desc>lat.=56.128567, lon.=26.342785, Alt.=98.553772m. Speed=26.208000m/h.</desc>
<speed>7.280000</speed>
</trkpt>
<trkpt lat="56.128502" lon="26.342800">
<ele>98.411194</ele>
<time>2010-08-29T16:07:04Z</time>
<desc>lat.=56.128502, lon.=26.342800, Alt.=98.411194m. Speed=26.820000m/h.</desc>
<speed>7.450000</speed>
</trkpt>
<trkpt lat="56.128433" lon="26.342810">
<ele>98.065491</ele>
<time>2010-08-29T16:07:05Z</time>
<desc>lat.=56.128433, lon.=26.342810, Alt.=98.065491m. Speed=26.532000m/h.</desc>
<speed>7.370000</speed>
</trkpt>
<trkpt lat="56.128365" lon="26.342829">
<ele>98.083069</ele>
<time>2010-08-29T16:07:06Z</time>
<desc>lat.=56.128365, lon.=26.342829, Alt.=98.083069m. Speed=26.784000m/h.</desc>
<speed>7.440000</speed>
</trkpt>
<trkpt lat="56.128300" lon="26.342842">
<ele>98.063538</ele>
<time>2010-08-29T16:07:07Z</time>
<desc>lat.=56.128300, lon.=26.342842, Alt.=98.063538m. Speed=26.892000m/h.</desc>
<speed>7.470000</speed>
</trkpt>
<trkpt lat="56.128231" lon="26.342867">
<ele>98.143616</ele>
<time>2010-08-29T16:07:08Z</time>
<desc>lat.=56.128231, lon.=26.342867, Alt.=98.143616m. Speed=26.604000m/h.</desc>
<speed>7.390000</speed>
</trkpt>
<trkpt lat="56.128162" lon="26.342890">
<ele>97.915100</ele>
<time>2010-08-29T16:07:09Z</time>
<desc>lat.=56.128162, lon.=26.342890, Alt.=97.915100m. Speed=27.756001m/h.</desc>
<speed>7.710000</speed>
</trkpt>
<trkpt lat="56.128098" lon="26.342915">
<ele>97.085022</ele>
<time>2010-08-29T16:07:10Z</time>
<desc>lat.=56.128098, lon.=26.342915, Alt.=97.085022m. Speed=27.396000m/h.</desc>
<speed>7.610000</speed>
</trkpt>
<trkpt lat="56.128029" lon="26.342934">
<ele>97.063538</ele>
<time>2010-08-29T16:07:11Z</time>
<desc>lat.=56.128029, lon.=26.342934, Alt.=97.063538m. Speed=28.115999m/h.</desc>
<speed>7.810000</speed>
</trkpt>
<trkpt lat="56.127956" lon="26.342951">
<ele>97.547913</ele>
<time>2010-08-29T16:07:12Z</time>
<desc>lat.=56.127956, lon.=26.342951, Alt.=97.547913m. Speed=28.872000m/h.</desc>
<speed>8.020000</speed>
</trkpt>
<trkpt lat="56.127880" lon="26.342970">
<ele>97.889709</ele>
<time>2010-08-29T16:07:13Z</time>
<desc>lat.=56.127880, lon.=26.342970, Alt.=97.889709m. Speed=29.483999m/h.</desc>
<speed>8.190000</speed>
</trkpt>
<trkpt lat="56.127811" lon="26.342999">
<ele>96.922913</ele>
<time>2010-08-29T16:07:14Z</time>
<desc>lat.=56.127811, lon.=26.342999, Alt.=96.922913m. Speed=27.936001m/h.</desc>
<speed>7.760000</speed>
</trkpt>
<trkpt lat="56.127739" lon="26.343029">
<ele>96.106506</ele>
<time>2010-08-29T16:07:15Z</time>
<desc>lat.=56.127739, lon.=26.343029, Alt.=96.106506m. Speed=27.719999m/h.</desc>
<speed>7.700000</speed>
</trkpt>
<trkpt lat="56.127674" lon="26.343061">
<ele>94.710022</ele>
<time>2010-08-29T16:07:16Z</time>
<desc>lat.=56.127674, lon.=26.343061, Alt.=94.710022m. Speed=26.712000m/h.</desc>
<speed>7.420000</speed>
</trkpt>
<trkpt lat="56.127605" lon="26.343090">
<ele>94.055725</ele>
<time>2010-08-29T16:07:17Z</time>
<desc>lat.=56.127605, lon.=26.343090, Alt.=94.055725m. Speed=26.208000m/h.</desc>
<speed>7.280000</speed>
</trkpt>
<trkpt lat="56.127541" lon="26.343115">
<ele>93.469788</ele>
<time>2010-08-29T16:07:18Z</time>
<desc>lat.=56.127541, lon.=26.343115, Alt.=93.469788m. Speed=27.072001m/h.</desc>
<speed>7.520000</speed>
</trkpt>
<trkpt lat="56.127472" lon="26.343134">
<ele>93.256897</ele>
<time>2010-08-29T16:07:19Z</time>
<desc>lat.=56.127472, lon.=26.343134, Alt.=93.256897m. Speed=27.035999m/h.</desc>
<speed>7.510000</speed>
</trkpt>
<trkpt lat="56.127407" lon="26.343157">
<ele>92.629944</ele>
<time>2010-08-29T16:07:20Z</time>
<desc>lat.=56.127407, lon.=26.343157, Alt.=92.629944m. Speed=26.208000m/h.</desc>
<speed>7.280000</speed>
</trkpt>
<trkpt lat="56.127342" lon="26.343178">
<ele>92.381897</ele>
<time>2010-08-29T16:07:21Z</time>
<desc>lat.=56.127342, lon.=26.343178, Alt.=92.381897m. Speed=26.784000m/h.</desc>
<speed>7.440000</speed>
</trkpt>
<trkpt lat="56.127270" lon="26.343204">
<ele>92.475647</ele>
<time>2010-08-29T16:07:22Z</time>
<desc>lat.=56.127270, lon.=26.343204, Alt.=92.475647m. Speed=27.431999m/h.</desc>
<speed>7.620000</speed>
</trkpt>
<trkpt lat="56.127197" lon="26.343224">
<ele>93.106506</ele>
<time>2010-08-29T16:07:23Z</time>
<desc>lat.=56.127197, lon.=26.343224, Alt.=93.106506m. Speed=27.180000m/h.</desc>
<speed>7.550000</speed>
</trkpt>
<trkpt lat="56.127129" lon="26.343246">
<ele>93.965881</ele>
<time>2010-08-29T16:07:24Z</time>
<desc>lat.=56.127129, lon.=26.343246, Alt.=93.965881m. Speed=27.323999m/h.</desc>
<speed>7.590000</speed>
</trkpt>
<trkpt lat="56.127056" lon="26.343260">
<ele>94.797913</ele>
<time>2010-08-29T16:07:25Z</time>
<desc>lat.=56.127056, lon.=26.343260, Alt.=94.797913m. Speed=27.504000m/h.</desc>
<speed>7.640000</speed>
</trkpt>
<trkpt lat="56.126987" lon="26.343283">
<ele>94.659241</ele>
<time>2010-08-29T16:07:26Z</time>
<desc>lat.=56.126987, lon.=26.343283, Alt.=94.659241m. Speed=27.180000m/h.</desc>
<speed>7.550000</speed>
</trkpt>
<trkpt lat="56.126919" lon="26.343302">
<ele>95.026428</ele>
<time>2010-08-29T16:07:27Z</time>
<desc>lat.=56.126919, lon.=26.343302, Alt.=95.026428m. Speed=27.684000m/h.</desc>
<speed>7.690000</speed>
</trkpt>
<trkpt lat="56.126850" lon="26.343323">
<ele>95.180725</ele>
<time>2010-08-29T16:07:28Z</time>
<desc>lat.=56.126850, lon.=26.343323, Alt.=95.180725m. Speed=27.792000m/h.</desc>
<speed>7.720000</speed>
</trkpt>
<trkpt lat="56.126778" lon="26.343353">
<ele>94.303772</ele>
<time>2010-08-29T16:07:29Z</time>
<desc>lat.=56.126778, lon.=26.343353, Alt.=94.303772m. Speed=28.584000m/h.</desc>
<speed>7.940000</speed>
</trkpt>
<trkpt lat="56.126709" lon="26.343382">
<ele>93.790100</ele>
<time>2010-08-29T16:07:30Z</time>
<desc>lat.=56.126709, lon.=26.343382, Alt.=93.790100m. Speed=28.332001m/h.</desc>
<speed>7.870000</speed>
</trkpt>
<trkpt lat="56.126640" lon="26.343410">
<ele>94.766663</ele>
<time>2010-08-29T16:07:31Z</time>
<desc>lat.=56.126640, lon.=26.343410, Alt.=94.766663m. Speed=28.044001m/h.</desc>
<speed>7.790000</speed>
</trkpt>
<trkpt lat="56.126572" lon="26.343441">
<ele>94.708069</ele>
<time>2010-08-29T16:07:32Z</time>
<desc>lat.=56.126572, lon.=26.343441, Alt.=94.708069m. Speed=28.728001m/h.</desc>
<speed>7.980000</speed>
</trkpt>
<trkpt lat="56.126499" lon="26.343470">
<ele>95.284241</ele>
<time>2010-08-29T16:07:33Z</time>
<desc>lat.=56.126499, lon.=26.343470, Alt.=95.284241m. Speed=28.584000m/h.</desc>
<speed>7.940000</speed>
</trkpt>
<trkpt lat="56.126427" lon="26.343502">
<ele>94.727600</ele>
<time>2010-08-29T16:07:34Z</time>
<desc>lat.=56.126427, lon.=26.343502, Alt.=94.727600m. Speed=29.412001m/h.</desc>
<speed>8.170000</speed>
</trkpt>
<trkpt lat="56.126347" lon="26.343527">
<ele>95.813538</ele>
<time>2010-08-29T16:07:35Z</time>
<desc>lat.=56.126347, lon.=26.343527, Alt.=95.813538m. Speed=30.924000m/h.</desc>
<speed>8.590000</speed>
</trkpt>
<trkpt lat="56.126274" lon="26.343557">
<ele>96.122131</ele>
<time>2010-08-29T16:07:36Z</time>
<desc>lat.=56.126274, lon.=26.343557, Alt.=96.122131m. Speed=29.664000m/h.</desc>
<speed>8.240000</speed>
</trkpt>
<trkpt lat="56.126198" lon="26.343586">
<ele>95.932678</ele>
<time>2010-08-29T16:07:37Z</time>
<desc>lat.=56.126198, lon.=26.343586, Alt.=95.932678m. Speed=30.096001m/h.</desc>
<speed>8.360000</speed>
</trkpt>
<trkpt lat="56.126122" lon="26.343622">
<ele>95.772522</ele>
<time>2010-08-29T16:07:38Z</time>
<desc>lat.=56.126122, lon.=26.343622, Alt.=95.772522m. Speed=28.980000m/h.</desc>
<speed>8.050000</speed>
</trkpt>
<trkpt lat="56.126049" lon="26.343655">
<ele>95.461975</ele>
<time>2010-08-29T16:07:39Z</time>
<desc>lat.=56.126049, lon.=26.343655, Alt.=95.461975m. Speed=28.620001m/h.</desc>
<speed>7.950000</speed>
</trkpt>
<trkpt lat="56.125984" lon="26.343685">
<ele>95.745178</ele>
<time>2010-08-29T16:07:40Z</time>
<desc>lat.=56.125984, lon.=26.343685, Alt.=95.745178m. Speed=27.792000m/h.</desc>
<speed>7.720000</speed>
</trkpt>
<trkpt lat="56.125912" lon="26.343716">
<ele>95.372131</ele>
<time>2010-08-29T16:07:41Z</time>
<desc>lat.=56.125912, lon.=26.343716, Alt.=95.372131m. Speed=29.664000m/h.</desc>
<speed>8.240000</speed>
</trkpt>
<trkpt lat="56.125843" lon="26.343748">
<ele>96.001038</ele>
<time>2010-08-29T16:07:42Z</time>
<desc>lat.=56.125843, lon.=26.343748, Alt.=96.001038m. Speed=28.764000m/h.</desc>
<speed>7.990000</speed>
</trkpt>
<trkpt lat="56.125767" lon="26.343782">
<ele>95.745178</ele>
<time>2010-08-29T16:07:43Z</time>
<desc>lat.=56.125767, lon.=26.343782, Alt.=95.745178m. Speed=28.799999m/h.</desc>
<speed>8.000000</speed>
</trkpt>
<trkpt lat="56.125702" lon="26.343809">
<ele>96.227600</ele>
<time>2010-08-29T16:07:44Z</time>
<desc>lat.=56.125702, lon.=26.343809, Alt.=96.227600m. Speed=28.296000m/h.</desc>
<speed>7.860000</speed>
</trkpt>
<trkpt lat="56.125633" lon="26.343845">
<ele>95.794006</ele>
<time>2010-08-29T16:07:45Z</time>
<desc>lat.=56.125633, lon.=26.343845, Alt.=95.794006m. Speed=28.872000m/h.</desc>
<speed>8.020000</speed>
</trkpt>
<trkpt lat="56.125565" lon="26.343878">
<ele>95.260803</ele>
<time>2010-08-29T16:07:46Z</time>
<desc>lat.=56.125565, lon.=26.343878, Alt.=95.260803m. Speed=29.195999m/h.</desc>
<speed>8.110000</speed>
</trkpt>
<trkpt lat="56.125492" lon="26.343908">
<ele>95.348694</ele>
<time>2010-08-29T16:07:47Z</time>
<desc>lat.=56.125492, lon.=26.343908, Alt.=95.348694m. Speed=29.448000m/h.</desc>
<speed>8.180000</speed>
</trkpt>
<trkpt lat="56.125420" lon="26.343935">
<ele>95.581116</ele>
<time>2010-08-29T16:07:48Z</time>
<desc>lat.=56.125420, lon.=26.343935, Alt.=95.581116m. Speed=29.771999m/h.</desc>
<speed>8.270000</speed>
</trkpt>
<trkpt lat="56.125343" lon="26.343964">
<ele>96.622131</ele>
<time>2010-08-29T16:07:49Z</time>
<desc>lat.=56.125343, lon.=26.343964, Alt.=96.622131m. Speed=32.183998m/h.</desc>
<speed>8.939999</speed>
</trkpt>
<trkpt lat="56.125275" lon="26.343992">
<ele>97.094788</ele>
<time>2010-08-29T16:07:50Z</time>
<desc>lat.=56.125275, lon.=26.343992, Alt.=97.094788m. Speed=30.636000m/h.</desc>
<speed>8.510000</speed>
</trkpt>
<trkpt lat="56.125202" lon="26.344023">
<ele>96.815491</ele>
<time>2010-08-29T16:07:51Z</time>
<desc>lat.=56.125202, lon.=26.344023, Alt.=96.815491m. Speed=30.780001m/h.</desc>
<speed>8.550000</speed>
</trkpt>
<trkpt lat="56.125130" lon="26.344057">
<ele>96.723694</ele>
<time>2010-08-29T16:07:52Z</time>
<desc>lat.=56.125130, lon.=26.344057, Alt.=96.723694m. Speed=30.528000m/h.</desc>
<speed>8.480000</speed>
</trkpt>
<trkpt lat="56.125061" lon="26.344091">
<ele>96.901428</ele>
<time>2010-08-29T16:07:53Z</time>
<desc>lat.=56.125061, lon.=26.344091, Alt.=96.901428m. Speed=29.483999m/h.</desc>
<speed>8.190000</speed>
</trkpt>
<trkpt lat="56.124992" lon="26.344116">
<ele>97.850647</ele>
<time>2010-08-29T16:07:54Z</time>
<desc>lat.=56.124992, lon.=26.344116, Alt.=97.850647m. Speed=28.511999m/h.</desc>
<speed>7.920000</speed>
</trkpt>
<trkpt lat="56.124928" lon="26.344139">
<ele>99.182678</ele>
<time>2010-08-29T16:07:55Z</time>
<desc>lat.=56.124928, lon.=26.344139, Alt.=99.182678m. Speed=27.972000m/h.</desc>
<speed>7.770000</speed>
</trkpt>
<trkpt lat="56.124859" lon="26.344175">
<ele>99.006897</ele>
<time>2010-08-29T16:07:56Z</time>
<desc>lat.=56.124859, lon.=26.344175, Alt.=99.006897m. Speed=28.044001m/h.</desc>
<speed>7.790000</speed>
</trkpt>
<trkpt lat="56.124790" lon="26.344215">
<ele>98.210022</ele>
<time>2010-08-29T16:07:57Z</time>
<desc>lat.=56.124790, lon.=26.344215, Alt.=98.210022m. Speed=28.332001m/h.</desc>
<speed>7.870000</speed>
</trkpt>
<trkpt lat="56.124725" lon="26.344250">
<ele>98.026428</ele>
<time>2010-08-29T16:07:58Z</time>
<desc>lat.=56.124725, lon.=26.344250, Alt.=98.026428m. Speed=28.620001m/h.</desc>
<speed>7.950000</speed>
</trkpt>
<trkpt lat="56.124657" lon="26.344286">
<ele>96.581116</ele>
<time>2010-08-29T16:07:59Z</time>
<desc>lat.=56.124657, lon.=26.344286, Alt.=96.581116m. Speed=28.836000m/h.</desc>
<speed>8.010000</speed>
</trkpt>
<trkpt lat="56.124584" lon="26.344324">
<ele>95.508850</ele>
<time>2010-08-29T16:08:00Z</time>
<desc>lat.=56.124584, lon.=26.344324, Alt.=95.508850m. Speed=29.952000m/h.</desc>
<speed>8.320000</speed>
</trkpt>
<trkpt lat="56.124512" lon="26.344362">
<ele>95.047913</ele>
<time>2010-08-29T16:08:01Z</time>
<desc>lat.=56.124512, lon.=26.344362, Alt.=95.047913m. Speed=29.916000m/h.</desc>
<speed>8.310000</speed>
</trkpt>
<trkpt lat="56.124439" lon="26.344393">
<ele>95.596741</ele>
<time>2010-08-29T16:08:02Z</time>
<desc>lat.=56.124439, lon.=26.344393, Alt.=95.596741m. Speed=29.771999m/h.</desc>
<speed>8.270000</speed>
</trkpt>
<trkpt lat="56.124367" lon="26.344427">
<ele>95.368225</ele>
<time>2010-08-29T16:08:03Z</time>
<desc>lat.=56.124367, lon.=26.344427, Alt.=95.368225m. Speed=28.836000m/h.</desc>
<speed>8.010000</speed>
</trkpt>
<trkpt lat="56.124298" lon="26.344452">
<ele>95.180725</ele>
<time>2010-08-29T16:08:04Z</time>
<desc>lat.=56.124298, lon.=26.344452, Alt.=95.180725m. Speed=28.368000m/h.</desc>
<speed>7.880000</speed>
</trkpt>
<trkpt lat="56.124229" lon="26.344481">
<ele>95.299866</ele>
<time>2010-08-29T16:08:05Z</time>
<desc>lat.=56.124229, lon.=26.344481, Alt.=95.299866m. Speed=27.864000m/h.</desc>
<speed>7.740000</speed>
</trkpt>
<trkpt lat="56.124165" lon="26.344513">
<ele>95.602600</ele>
<time>2010-08-29T16:08:06Z</time>
<desc>lat.=56.124165, lon.=26.344513, Alt.=95.602600m. Speed=27.719999m/h.</desc>
<speed>7.700000</speed>
</trkpt>
<trkpt lat="56.124096" lon="26.344543">
<ele>95.362366</ele>
<time>2010-08-29T16:08:07Z</time>
<desc>lat.=56.124096, lon.=26.344543, Alt.=95.362366m. Speed=27.827999m/h.</desc>
<speed>7.730000</speed>
</trkpt>
<trkpt lat="56.124031" lon="26.344570">
<ele>95.538147</ele>
<time>2010-08-29T16:08:08Z</time>
<desc>lat.=56.124031, lon.=26.344570, Alt.=95.538147m. Speed=27.864000m/h.</desc>
<speed>7.740000</speed>
</trkpt>
<trkpt lat="56.123966" lon="26.344604">
<ele>95.670959</ele>
<time>2010-08-29T16:08:09Z</time>
<desc>lat.=56.123966, lon.=26.344604, Alt.=95.670959m. Speed=28.260000m/h.</desc>
<speed>7.850000</speed>
</trkpt>
<trkpt lat="56.123898" lon="26.344645">
<ele>95.696350</ele>
<time>2010-08-29T16:08:10Z</time>
<desc>lat.=56.123898, lon.=26.344645, Alt.=95.696350m. Speed=28.691999m/h.</desc>
<speed>7.970000</speed>
</trkpt>
<trkpt lat="56.123833" lon="26.344677">
<ele>95.975647</ele>
<time>2010-08-29T16:08:11Z</time>
<desc>lat.=56.123833, lon.=26.344677, Alt.=95.975647m. Speed=28.799999m/h.</desc>
<speed>8.000000</speed>
</trkpt>
<trkpt lat="56.123764" lon="26.344709">
<ele>96.401428</ele>
<time>2010-08-29T16:08:12Z</time>
<desc>lat.=56.123764, lon.=26.344709, Alt.=96.401428m. Speed=29.232000m/h.</desc>
<speed>8.120000</speed>
</trkpt>
<trkpt lat="56.123695" lon="26.344746">
<ele>96.581116</ele>
<time>2010-08-29T16:08:13Z</time>
<desc>lat.=56.123695, lon.=26.344746, Alt.=96.581116m. Speed=28.944000m/h.</desc>
<speed>8.040000</speed>
</trkpt>
<trkpt lat="56.123623" lon="26.344788">
<ele>96.018616</ele>
<time>2010-08-29T16:08:14Z</time>
<desc>lat.=56.123623, lon.=26.344788, Alt.=96.018616m. Speed=29.195999m/h.</desc>
<speed>8.110000</speed>
</trkpt>
<trkpt lat="56.123550" lon="26.344831">
<ele>95.108459</ele>
<time>2010-08-29T16:08:15Z</time>
<desc>lat.=56.123550, lon.=26.344831, Alt.=95.108459m. Speed=29.268000m/h.</desc>
<speed>8.130000</speed>
</trkpt>
<trkpt lat="56.123482" lon="26.344868">
<ele>94.987366</ele>
<time>2010-08-29T16:08:16Z</time>
<desc>lat.=56.123482, lon.=26.344868, Alt.=94.987366m. Speed=28.296000m/h.</desc>
<speed>7.860000</speed>
</trkpt>
<trkpt lat="56.123413" lon="26.344898">
<ele>94.913147</ele>
<time>2010-08-29T16:08:17Z</time>
<desc>lat.=56.123413, lon.=26.344898, Alt.=94.913147m. Speed=27.504000m/h.</desc>
<speed>7.640000</speed>
</trkpt>
<trkpt lat="56.123348" lon="26.344931">
<ele>95.137756</ele>
<time>2010-08-29T16:08:18Z</time>
<desc>lat.=56.123348, lon.=26.344931, Alt.=95.137756m. Speed=26.856001m/h.</desc>
<speed>7.460000</speed>
</trkpt>
<trkpt lat="56.123283" lon="26.344967">
<ele>95.235413</ele>
<time>2010-08-29T16:08:19Z</time>
<desc>lat.=56.123283, lon.=26.344967, Alt.=95.235413m. Speed=26.172001m/h.</desc>
<speed>7.270000</speed>
</trkpt>
<trkpt lat="56.123222" lon="26.345001">
<ele>95.110413</ele>
<time>2010-08-29T16:08:20Z</time>
<desc>lat.=56.123222, lon.=26.345001, Alt.=95.110413m. Speed=25.416000m/h.</desc>
<speed>7.060000</speed>
</trkpt>
<trkpt lat="56.123161" lon="26.345034">
<ele>95.200256</ele>
<time>2010-08-29T16:08:21Z</time>
<desc>lat.=56.123161, lon.=26.345034, Alt.=95.200256m. Speed=24.983999m/h.</desc>
<speed>6.940000</speed>
</trkpt>
<trkpt lat="56.123108" lon="26.345068">
<ele>95.040100</ele>
<time>2010-08-29T16:08:22Z</time>
<desc>lat.=56.123108, lon.=26.345068, Alt.=95.040100m. Speed=24.372000m/h.</desc>
<speed>6.770000</speed>
</trkpt>
<trkpt lat="56.123051" lon="26.345100">
<ele>94.954163</ele>
<time>2010-08-29T16:08:23Z</time>
<desc>lat.=56.123051, lon.=26.345100, Alt.=94.954163m. Speed=24.695999m/h.</desc>
<speed>6.860000</speed>
</trkpt>
<trkpt lat="56.122990" lon="26.345129">
<ele>94.911194</ele>
<time>2010-08-29T16:08:24Z</time>
<desc>lat.=56.122990, lon.=26.345129, Alt.=94.911194m. Speed=24.695999m/h.</desc>
<speed>6.860000</speed>
</trkpt>
<trkpt lat="56.122932" lon="26.345167">
<ele>95.110413</ele>
<time>2010-08-29T16:08:25Z</time>
<desc>lat.=56.122932, lon.=26.345167, Alt.=95.110413m. Speed=25.704000m/h.</desc>
<speed>7.140000</speed>
</trkpt>
<trkpt lat="56.122868" lon="26.345205">
<ele>94.911194</ele>
<time>2010-08-29T16:08:26Z</time>
<desc>lat.=56.122868, lon.=26.345205, Alt.=94.911194m. Speed=26.063999m/h.</desc>
<speed>7.240000</speed>
</trkpt>
<trkpt lat="56.122803" lon="26.345234">
<ele>94.836975</ele>
<time>2010-08-29T16:08:27Z</time>
<desc>lat.=56.122803, lon.=26.345234, Alt.=94.836975m. Speed=26.496000m/h.</desc>
<speed>7.360000</speed>
</trkpt>
<trkpt lat="56.122742" lon="26.345264">
<ele>95.297913</ele>
<time>2010-08-29T16:08:28Z</time>
<desc>lat.=56.122742, lon.=26.345264, Alt.=95.297913m. Speed=26.820000m/h.</desc>
<speed>7.450000</speed>
</trkpt>
<trkpt lat="56.122677" lon="26.345299">
<ele>95.147522</ele>
<time>2010-08-29T16:08:29Z</time>
<desc>lat.=56.122677, lon.=26.345299, Alt.=95.147522m. Speed=27.323999m/h.</desc>
<speed>7.590000</speed>
</trkpt>
<trkpt lat="56.122612" lon="26.345331">
<ele>95.063538</ele>
<time>2010-08-29T16:08:30Z</time>
<desc>lat.=56.122612, lon.=26.345331, Alt.=95.063538m. Speed=27.504000m/h.</desc>
<speed>7.640000</speed>
</trkpt>
<trkpt lat="56.122547" lon="26.345362">
<ele>95.649475</ele>
<time>2010-08-29T16:08:31Z</time>
<desc>lat.=56.122547, lon.=26.345362, Alt.=95.649475m. Speed=27.864000m/h.</desc>
<speed>7.740000</speed>
</trkpt>
<trkpt lat="56.122478" lon="26.345392">
<ele>96.239319</ele>
<time>2010-08-29T16:08:32Z</time>
<desc>lat.=56.122478, lon.=26.345392, Alt.=96.239319m. Speed=28.260000m/h.</desc>
<speed>7.850000</speed>
</trkpt>
<trkpt lat="56.122414" lon="26.345428">
<ele>97.016663</ele>
<time>2010-08-29T16:08:33Z</time>
<desc>lat.=56.122414, lon.=26.345428, Alt.=97.016663m. Speed=28.764000m/h.</desc>
<speed>7.990000</speed>
</trkpt>
<trkpt lat="56.122345" lon="26.345463">
<ele>96.920959</ele>
<time>2010-08-29T16:08:34Z</time>
<desc>lat.=56.122345, lon.=26.345463, Alt.=96.920959m. Speed=28.656000m/h.</desc>
<speed>7.960000</speed>
</trkpt>
<trkpt lat="56.122276" lon="26.345509">
<ele>96.532288</ele>
<time>2010-08-29T16:08:35Z</time>
<desc>lat.=56.122276, lon.=26.345509, Alt.=96.532288m. Speed=29.340000m/h.</desc>
<speed>8.150000</speed>
</trkpt>
<trkpt lat="56.122204" lon="26.345554">
<ele>96.204163</ele>
<time>2010-08-29T16:08:36Z</time>
<desc>lat.=56.122204, lon.=26.345554, Alt.=96.204163m. Speed=29.124001m/h.</desc>
<speed>8.090000</speed>
</trkpt>
<trkpt lat="56.122135" lon="26.345598">
<ele>96.012756</ele>
<time>2010-08-29T16:08:37Z</time>
<desc>lat.=56.122135, lon.=26.345598, Alt.=96.012756m. Speed=29.087999m/h.</desc>
<speed>8.080000</speed>
</trkpt>
<trkpt lat="56.122066" lon="26.345631">
<ele>96.151428</ele>
<time>2010-08-29T16:08:38Z</time>
<desc>lat.=56.122066, lon.=26.345631, Alt.=96.151428m. Speed=28.224001m/h.</desc>
<speed>7.840000</speed>
</trkpt>
<trkpt lat="56.122002" lon="26.345663">
<ele>96.014709</ele>
<time>2010-08-29T16:08:39Z</time>
<desc>lat.=56.122002, lon.=26.345663, Alt.=96.014709m. Speed=27.143999m/h.</desc>
<speed>7.540000</speed>
</trkpt>
<trkpt lat="56.121937" lon="26.345692">
<ele>95.696350</ele>
<time>2010-08-29T16:08:40Z</time>
<desc>lat.=56.121937, lon.=26.345692, Alt.=95.696350m. Speed=27.252001m/h.</desc>
<speed>7.570000</speed>
</trkpt>
<trkpt lat="56.121872" lon="26.345726">
<ele>95.860413</ele>
<time>2010-08-29T16:08:41Z</time>
<desc>lat.=56.121872, lon.=26.345726, Alt.=95.860413m. Speed=26.351999m/h.</desc>
<speed>7.320000</speed>
</trkpt>
<trkpt lat="56.121811" lon="26.345758">
<ele>95.999084</ele>
<time>2010-08-29T16:08:42Z</time>
<desc>lat.=56.121811, lon.=26.345758, Alt.=95.999084m. Speed=25.379999m/h.</desc>
<speed>7.050000</speed>
</trkpt>
<trkpt lat="56.121758" lon="26.345778">
<ele>96.862366</ele>
<time>2010-08-29T16:08:43Z</time>
<desc>lat.=56.121758, lon.=26.345778, Alt.=96.862366m. Speed=25.091999m/h.</desc>
<speed>6.970000</speed>
</trkpt>
<trkpt lat="56.121700" lon="26.345800">
<ele>97.813538</ele>
<time>2010-08-29T16:08:44Z</time>
<desc>lat.=56.121700, lon.=26.345800, Alt.=97.813538m. Speed=24.732000m/h.</desc>
<speed>6.870000</speed>
</trkpt>
<trkpt lat="56.121639" lon="26.345829">
<ele>97.747131</ele>
<time>2010-08-29T16:08:45Z</time>
<desc>lat.=56.121639, lon.=26.345829, Alt.=97.747131m. Speed=25.488001m/h.</desc>
<speed>7.080000</speed>
</trkpt>
<trkpt lat="56.121578" lon="26.345856">
<ele>98.176819</ele>
<time>2010-08-29T16:08:46Z</time>
<desc>lat.=56.121578, lon.=26.345856, Alt.=98.176819m. Speed=25.704000m/h.</desc>
<speed>7.140000</speed>
</trkpt>
<trkpt lat="56.121517" lon="26.345894">
<ele>98.169006</ele>
<time>2010-08-29T16:08:47Z</time>
<desc>lat.=56.121517, lon.=26.345894, Alt.=98.169006m. Speed=26.316000m/h.</desc>
<speed>7.310000</speed>
</trkpt>
<trkpt lat="56.121449" lon="26.345934">
<ele>97.594788</ele>
<time>2010-08-29T16:08:48Z</time>
<desc>lat.=56.121449, lon.=26.345934, Alt.=97.594788m. Speed=26.532000m/h.</desc>
<speed>7.370000</speed>
</trkpt>
<trkpt lat="56.121384" lon="26.345968">
<ele>97.217834</ele>
<time>2010-08-29T16:08:49Z</time>
<desc>lat.=56.121384, lon.=26.345968, Alt.=97.217834m. Speed=26.927999m/h.</desc>
<speed>7.480000</speed>
</trkpt>
<trkpt lat="56.121319" lon="26.346008">
<ele>97.270569</ele>
<time>2010-08-29T16:08:50Z</time>
<desc>lat.=56.121319, lon.=26.346008, Alt.=97.270569m. Speed=27.360001m/h.</desc>
<speed>7.600000</speed>
</trkpt>
<trkpt lat="56.121254" lon="26.346048">
<ele>97.463928</ele>
<time>2010-08-29T16:08:51Z</time>
<desc>lat.=56.121254, lon.=26.346048, Alt.=97.463928m. Speed=27.756001m/h.</desc>
<speed>7.710000</speed>
</trkpt>
<trkpt lat="56.121185" lon="26.346085">
<ele>97.071350</ele>
<time>2010-08-29T16:08:52Z</time>
<desc>lat.=56.121185, lon.=26.346085, Alt.=97.071350m. Speed=28.224001m/h.</desc>
<speed>7.840000</speed>
</trkpt>
<trkpt lat="56.121120" lon="26.346123">
<ele>97.010803</ele>
<time>2010-08-29T16:08:53Z</time>
<desc>lat.=56.121120, lon.=26.346123, Alt.=97.010803m. Speed=28.368000m/h.</desc>
<speed>7.880000</speed>
</trkpt>
<trkpt lat="56.121048" lon="26.346167">
<ele>96.161194</ele>
<time>2010-08-29T16:08:54Z</time>
<desc>lat.=56.121048, lon.=26.346167, Alt.=96.161194m. Speed=28.476000m/h.</desc>
<speed>7.910000</speed>
</trkpt>
<trkpt lat="56.120979" lon="26.346207">
<ele>95.954163</ele>
<time>2010-08-29T16:08:55Z</time>
<desc>lat.=56.120979, lon.=26.346207, Alt.=95.954163m. Speed=28.908001m/h.</desc>
<speed>8.030000</speed>
</trkpt>
<trkpt lat="56.120914" lon="26.346231">
<ele>97.002991</ele>
<time>2010-08-29T16:08:56Z</time>
<desc>lat.=56.120914, lon.=26.346231, Alt.=97.002991m. Speed=28.872000m/h.</desc>
<speed>8.020000</speed>
</trkpt>
<trkpt lat="56.120842" lon="26.346268">
<ele>96.608459</ele>
<time>2010-08-29T16:08:57Z</time>
<desc>lat.=56.120842, lon.=26.346268, Alt.=96.608459m. Speed=29.160000m/h.</desc>
<speed>8.100000</speed>
</trkpt>
<trkpt lat="56.120770" lon="26.346308">
<ele>95.963928</ele>
<time>2010-08-29T16:08:58Z</time>
<desc>lat.=56.120770, lon.=26.346308, Alt.=95.963928m. Speed=29.556000m/h.</desc>
<speed>8.210000</speed>
</trkpt>
<trkpt lat="56.120697" lon="26.346346">
<ele>95.245178</ele>
<time>2010-08-29T16:08:59Z</time>
<desc>lat.=56.120697, lon.=26.346346, Alt.=95.245178m. Speed=29.988001m/h.</desc>
<speed>8.330000</speed>
</trkpt>
<trkpt lat="56.120625" lon="26.346392">
<ele>94.450256</ele>
<time>2010-08-29T16:09:00Z</time>
<desc>lat.=56.120625, lon.=26.346392, Alt.=94.450256m. Speed=29.952000m/h.</desc>
<speed>8.320000</speed>
</trkpt>
<trkpt lat="56.120544" lon="26.346441">
<ele>93.401428</ele>
<time>2010-08-29T16:09:01Z</time>
<desc>lat.=56.120544, lon.=26.346441, Alt.=93.401428m. Speed=31.247999m/h.</desc>
<speed>8.680000</speed>
</trkpt>
<trkpt lat="56.120472" lon="26.346478">
<ele>93.251038</ele>
<time>2010-08-29T16:09:02Z</time>
<desc>lat.=56.120472, lon.=26.346478, Alt.=93.251038m. Speed=30.600000m/h.</desc>
<speed>8.500000</speed>
</trkpt>
<trkpt lat="56.120399" lon="26.346518">
<ele>93.143616</ele>
<time>2010-08-29T16:09:03Z</time>
<desc>lat.=56.120399, lon.=26.346518, Alt.=93.143616m. Speed=32.147999m/h.</desc>
<speed>8.930000</speed>
</trkpt>
<trkpt lat="56.120323" lon="26.346563">
<ele>92.717834</ele>
<time>2010-08-29T16:09:04Z</time>
<desc>lat.=56.120323, lon.=26.346563, Alt.=92.717834m. Speed=30.816000m/h.</desc>
<speed>8.560000</speed>
</trkpt>
<trkpt lat="56.120251" lon="26.346603">
<ele>92.846741</ele>
<time>2010-08-29T16:09:05Z</time>
<desc>lat.=56.120251, lon.=26.346603, Alt.=92.846741m. Speed=29.736000m/h.</desc>
<speed>8.260000</speed>
</trkpt>
<trkpt lat="56.120178" lon="26.346647">
<ele>92.381897</ele>
<time>2010-08-29T16:09:06Z</time>
<desc>lat.=56.120178, lon.=26.346647, Alt.=92.381897m. Speed=28.980000m/h.</desc>
<speed>8.050000</speed>
</trkpt>
<trkpt lat="56.120110" lon="26.346685">
<ele>92.180725</ele>
<time>2010-08-29T16:09:07Z</time>
<desc>lat.=56.120110, lon.=26.346685, Alt.=92.180725m. Speed=28.080000m/h.</desc>
<speed>7.800000</speed>
</trkpt>
<trkpt lat="56.120045" lon="26.346724">
<ele>92.200256</ele>
<time>2010-08-29T16:09:08Z</time>
<desc>lat.=56.120045, lon.=26.346724, Alt.=92.200256m. Speed=27.360001m/h.</desc>
<speed>7.600000</speed>
</trkpt>
<trkpt lat="56.119984" lon="26.346762">
<ele>92.266663</ele>
<time>2010-08-29T16:09:09Z</time>
<desc>lat.=56.119984, lon.=26.346762, Alt.=92.266663m. Speed=26.604000m/h.</desc>
<speed>7.390000</speed>
</trkpt>
<trkpt lat="56.119923" lon="26.346796">
<ele>92.626038</ele>
<time>2010-08-29T16:09:10Z</time>
<desc>lat.=56.119923, lon.=26.346796, Alt.=92.626038m. Speed=25.920000m/h.</desc>
<speed>7.200000</speed>
</trkpt>
<trkpt lat="56.119862" lon="26.346828">
<ele>92.823303</ele>
<time>2010-08-29T16:09:11Z</time>
<desc>lat.=56.119862, lon.=26.346828, Alt.=92.823303m. Speed=25.200001m/h.</desc>
<speed>7.000000</speed>
</trkpt>
<trkpt lat="56.119804" lon="26.346863">
<ele>92.792053</ele>
<time>2010-08-29T16:09:12Z</time>
<desc>lat.=56.119804, lon.=26.346863, Alt.=92.792053m. Speed=24.480000m/h.</desc>
<speed>6.800000</speed>
</trkpt>
<trkpt lat="56.119751" lon="26.346889">
<ele>94.016663</ele>
<time>2010-08-29T16:09:13Z</time>
<desc>lat.=56.119751, lon.=26.346889, Alt.=94.016663m. Speed=23.832001m/h.</desc>
<speed>6.620000</speed>
</trkpt>
<trkpt lat="56.119690" lon="26.346920">
<ele>93.358459</ele>
<time>2010-08-29T16:09:14Z</time>
<desc>lat.=56.119690, lon.=26.346920, Alt.=93.358459m. Speed=23.292000m/h.</desc>
<speed>6.470000</speed>
</trkpt>
<trkpt lat="56.119633" lon="26.346945">
<ele>93.127991</ele>
<time>2010-08-29T16:09:15Z</time>
<desc>lat.=56.119633, lon.=26.346945, Alt.=93.127991m. Speed=23.400000m/h.</desc>
<speed>6.500000</speed>
</trkpt>
<trkpt lat="56.119579" lon="26.346972">
<ele>94.276428</ele>
<time>2010-08-29T16:09:16Z</time>
<desc>lat.=56.119579, lon.=26.346972, Alt.=94.276428m. Speed=23.903999m/h.</desc>
<speed>6.640000</speed>
</trkpt>
<trkpt lat="56.119522" lon="26.347008">
<ele>94.379944</ele>
<time>2010-08-29T16:09:17Z</time>
<desc>lat.=56.119522, lon.=26.347008, Alt.=94.379944m. Speed=24.156000m/h.</desc>
<speed>6.710000</speed>
</trkpt>
<trkpt lat="56.119461" lon="26.347048">
<ele>93.838928</ele>
<time>2010-08-29T16:09:18Z</time>
<desc>lat.=56.119461, lon.=26.347048, Alt.=93.838928m. Speed=24.372000m/h.</desc>
<speed>6.770000</speed>
</trkpt>
<trkpt lat="56.119400" lon="26.347084">
<ele>93.499084</ele>
<time>2010-08-29T16:09:19Z</time>
<desc>lat.=56.119400, lon.=26.347084, Alt.=93.499084m. Speed=24.624001m/h.</desc>
<speed>6.840000</speed>
</trkpt>
<trkpt lat="56.119343" lon="26.347115">
<ele>93.583069</ele>
<time>2010-08-29T16:09:20Z</time>
<desc>lat.=56.119343, lon.=26.347115, Alt.=93.583069m. Speed=24.804001m/h.</desc>
<speed>6.890000</speed>
</trkpt>
<trkpt lat="56.119286" lon="26.347139">
<ele>94.028381</ele>
<time>2010-08-29T16:09:21Z</time>
<desc>lat.=56.119286, lon.=26.347139, Alt.=94.028381m. Speed=24.804001m/h.</desc>
<speed>6.890000</speed>
</trkpt>
<trkpt lat="56.119228" lon="26.347174">
<ele>94.233459</ele>
<time>2010-08-29T16:09:22Z</time>
<desc>lat.=56.119228, lon.=26.347174, Alt.=94.233459m. Speed=24.768000m/h.</desc>
<speed>6.880000</speed>
</trkpt>
<trkpt lat="56.119171" lon="26.347208">
<ele>94.559631</ele>
<time>2010-08-29T16:09:23Z</time>
<desc>lat.=56.119171, lon.=26.347208, Alt.=94.559631m. Speed=25.416000m/h.</desc>
<speed>7.060000</speed>
</trkpt>
<trkpt lat="56.119110" lon="26.347239">
<ele>94.657288</ele>
<time>2010-08-29T16:09:24Z</time>
<desc>lat.=56.119110, lon.=26.347239, Alt.=94.657288m. Speed=25.236000m/h.</desc>
<speed>7.010000</speed>
</trkpt>
<trkpt lat="56.119049" lon="26.347277">
<ele>94.176819</ele>
<time>2010-08-29T16:09:25Z</time>
<desc>lat.=56.119049, lon.=26.347277, Alt.=94.176819m. Speed=25.632000m/h.</desc>
<speed>7.120000</speed>
</trkpt>
<trkpt lat="56.118988" lon="26.347309">
<ele>94.290100</ele>
<time>2010-08-29T16:09:26Z</time>
<desc>lat.=56.118988, lon.=26.347309, Alt.=94.290100m. Speed=25.632000m/h.</desc>
<speed>7.120000</speed>
</trkpt>
<trkpt lat="56.118931" lon="26.347338">
<ele>94.848694</ele>
<time>2010-08-29T16:09:27Z</time>
<desc>lat.=56.118931, lon.=26.347338, Alt.=94.848694m. Speed=25.775999m/h.</desc>
<speed>7.160000</speed>
</trkpt>
<trkpt lat="56.118870" lon="26.347368">
<ele>95.200256</ele>
<time>2010-08-29T16:09:28Z</time>
<desc>lat.=56.118870, lon.=26.347368, Alt.=95.200256m. Speed=25.992001m/h.</desc>
<speed>7.220000</speed>
</trkpt>
<trkpt lat="56.118805" lon="26.347404">
<ele>94.846741</ele>
<time>2010-08-29T16:09:29Z</time>
<desc>lat.=56.118805, lon.=26.347404, Alt.=94.846741m. Speed=26.243999m/h.</desc>
<speed>7.290000</speed>
</trkpt>
<trkpt lat="56.118740" lon="26.347441">
<ele>94.655334</ele>
<time>2010-08-29T16:09:30Z</time>
<desc>lat.=56.118740, lon.=26.347441, Alt.=94.655334m. Speed=26.604000m/h.</desc>
<speed>7.390000</speed>
</trkpt>
<trkpt lat="56.118675" lon="26.347479">
<ele>94.571350</ele>
<time>2010-08-29T16:09:31Z</time>
<desc>lat.=56.118675, lon.=26.347479, Alt.=94.571350m. Speed=26.927999m/h.</desc>
<speed>7.480000</speed>
</trkpt>
<trkpt lat="56.118614" lon="26.347509">
<ele>94.946350</ele>
<time>2010-08-29T16:09:32Z</time>
<desc>lat.=56.118614, lon.=26.347509, Alt.=94.946350m. Speed=27.288000m/h.</desc>
<speed>7.580000</speed>
</trkpt>
<trkpt lat="56.118546" lon="26.347544">
<ele>94.866272</ele>
<time>2010-08-29T16:09:33Z</time>
<desc>lat.=56.118546, lon.=26.347544, Alt.=94.866272m. Speed=27.900000m/h.</desc>
<speed>7.750000</speed>
</trkpt>
<trkpt lat="56.118481" lon="26.347578">
<ele>95.348694</ele>
<time>2010-08-29T16:09:34Z</time>
<desc>lat.=56.118481, lon.=26.347578, Alt.=95.348694m. Speed=27.864000m/h.</desc>
<speed>7.740000</speed>
</trkpt>
<trkpt lat="56.118416" lon="26.347618">
<ele>95.301819</ele>
<time>2010-08-29T16:09:35Z</time>
<desc>lat.=56.118416, lon.=26.347618, Alt.=95.301819m. Speed=28.188000m/h.</desc>
<speed>7.830000</speed>
</trkpt>
<trkpt lat="56.118347" lon="26.347654">
<ele>95.100647</ele>
<time>2010-08-29T16:09:36Z</time>
<desc>lat.=56.118347, lon.=26.347654, Alt.=95.100647m. Speed=29.160000m/h.</desc>
<speed>8.100000</speed>
</trkpt>
<trkpt lat="56.118279" lon="26.347681">
<ele>95.458069</ele>
<time>2010-08-29T16:09:37Z</time>
<desc>lat.=56.118279, lon.=26.347681, Alt.=95.458069m. Speed=28.980000m/h.</desc>
<speed>8.050000</speed>
</trkpt>
<trkpt lat="56.118206" lon="26.347717">
<ele>95.506897</ele>
<time>2010-08-29T16:09:38Z</time>
<desc>lat.=56.118206, lon.=26.347717, Alt.=95.506897m. Speed=29.520000m/h.</desc>
<speed>8.200000</speed>
</trkpt>
<trkpt lat="56.118137" lon="26.347754">
<ele>95.571350</ele>
<time>2010-08-29T16:09:39Z</time>
<desc>lat.=56.118137, lon.=26.347754, Alt.=95.571350m. Speed=28.980000m/h.</desc>
<speed>8.050000</speed>
</trkpt>
<trkpt lat="56.118073" lon="26.347805">
<ele>98.336975</ele>
<time>2010-08-29T16:09:40Z</time>
<desc>lat.=56.118073, lon.=26.347805, Alt.=98.336975m. Speed=29.412001m/h.</desc>
<speed>8.170000</speed>
</trkpt>
<trkpt lat="56.118000" lon="26.347839">
<ele>97.377991</ele>
<time>2010-08-29T16:09:41Z</time>
<desc>lat.=56.118000, lon.=26.347839, Alt.=97.377991m. Speed=29.124001m/h.</desc>
<speed>8.090000</speed>
</trkpt>
<trkpt lat="56.117928" lon="26.347874">
<ele>96.460022</ele>
<time>2010-08-29T16:09:42Z</time>
<desc>lat.=56.117928, lon.=26.347874, Alt.=96.460022m. Speed=29.340000m/h.</desc>
<speed>8.150000</speed>
</trkpt>
<trkpt lat="56.117851" lon="26.347916">
<ele>96.290100</ele>
<time>2010-08-29T16:09:43Z</time>
<desc>lat.=56.117851, lon.=26.347916, Alt.=96.290100m. Speed=31.032000m/h.</desc>
<speed>8.620000</speed>
</trkpt>
<trkpt lat="56.117775" lon="26.347954">
<ele>96.368225</ele>
<time>2010-08-29T16:09:44Z</time>
<desc>lat.=56.117775, lon.=26.347954, Alt.=96.368225m. Speed=29.736000m/h.</desc>
<speed>8.260000</speed>
</trkpt>
<trkpt lat="56.117702" lon="26.347994">
<ele>96.358459</ele>
<time>2010-08-29T16:09:45Z</time>
<desc>lat.=56.117702, lon.=26.347994, Alt.=96.358459m. Speed=29.952000m/h.</desc>
<speed>8.320000</speed>
</trkpt>
<trkpt lat="56.117622" lon="26.348036">
<ele>95.883850</ele>
<time>2010-08-29T16:09:46Z</time>
<desc>lat.=56.117622, lon.=26.348036, Alt.=95.883850m. Speed=30.096001m/h.</desc>
<speed>8.360000</speed>
</trkpt>
<trkpt lat="56.117550" lon="26.348072">
<ele>95.801819</ele>
<time>2010-08-29T16:09:47Z</time>
<desc>lat.=56.117550, lon.=26.348072, Alt.=95.801819m. Speed=29.375999m/h.</desc>
<speed>8.160000</speed>
</trkpt>
<trkpt lat="56.117481" lon="26.348103">
<ele>95.647522</ele>
<time>2010-08-29T16:09:48Z</time>
<desc>lat.=56.117481, lon.=26.348103, Alt.=95.647522m. Speed=28.908001m/h.</desc>
<speed>8.030000</speed>
</trkpt>
<trkpt lat="56.117413" lon="26.348145">
<ele>95.545959</ele>
<time>2010-08-29T16:09:49Z</time>
<desc>lat.=56.117413, lon.=26.348145, Alt.=95.545959m. Speed=28.403999m/h.</desc>
<speed>7.890000</speed>
</trkpt>
<trkpt lat="56.117348" lon="26.348186">
<ele>95.336975</ele>
<time>2010-08-29T16:09:50Z</time>
<desc>lat.=56.117348, lon.=26.348186, Alt.=95.336975m. Speed=27.540001m/h.</desc>
<speed>7.650000</speed>
</trkpt>
<trkpt lat="56.117287" lon="26.348223">
<ele>95.217834</ele>
<time>2010-08-29T16:09:51Z</time>
<desc>lat.=56.117287, lon.=26.348223, Alt.=95.217834m. Speed=26.351999m/h.</desc>
<speed>7.320000</speed>
</trkpt>
<trkpt lat="56.117226" lon="26.348257">
<ele>95.405334</ele>
<time>2010-08-29T16:09:52Z</time>
<desc>lat.=56.117226, lon.=26.348257, Alt.=95.405334m. Speed=25.632000m/h.</desc>
<speed>7.120000</speed>
</trkpt>
<trkpt lat="56.117168" lon="26.348288">
<ele>95.252991</ele>
<time>2010-08-29T16:09:53Z</time>
<desc>lat.=56.117168, lon.=26.348288, Alt.=95.252991m. Speed=25.020000m/h.</desc>
<speed>6.950000</speed>
</trkpt>
<trkpt lat="56.117107" lon="26.348316">
<ele>95.137756</ele>
<time>2010-08-29T16:09:54Z</time>
<desc>lat.=56.117107, lon.=26.348316, Alt.=95.137756m. Speed=24.587999m/h.</desc>
<speed>6.830000</speed>
</trkpt>
<trkpt lat="56.117050" lon="26.348347">
<ele>95.044006</ele>
<time>2010-08-29T16:09:55Z</time>
<desc>lat.=56.117050, lon.=26.348347, Alt.=95.044006m. Speed=24.084000m/h.</desc>
<speed>6.690000</speed>
</trkpt>
<trkpt lat="56.116993" lon="26.348362">
<ele>95.045959</ele>
<time>2010-08-29T16:09:56Z</time>
<desc>lat.=56.116993, lon.=26.348362, Alt.=95.045959m. Speed=23.580000m/h.</desc>
<speed>6.550000</speed>
</trkpt>
<trkpt lat="56.116940" lon="26.348383">
<ele>95.149475</ele>
<time>2010-08-29T16:09:57Z</time>
<desc>lat.=56.116940, lon.=26.348383, Alt.=95.149475m. Speed=24.444000m/h.</desc>
<speed>6.790000</speed>
</trkpt>
<trkpt lat="56.116879" lon="26.348410">
<ele>95.387756</ele>
<time>2010-08-29T16:09:58Z</time>
<desc>lat.=56.116879, lon.=26.348410, Alt.=95.387756m. Speed=25.452000m/h.</desc>
<speed>7.070000</speed>
</trkpt>
<trkpt lat="56.116817" lon="26.348444">
<ele>95.141663</ele>
<time>2010-08-29T16:09:59Z</time>
<desc>lat.=56.116817, lon.=26.348444, Alt.=95.141663m. Speed=24.228001m/h.</desc>
<speed>6.730000</speed>
</trkpt>
<trkpt lat="56.116756" lon="26.348475">
<ele>95.725647</ele>
<time>2010-08-29T16:10:00Z</time>
<desc>lat.=56.116756, lon.=26.348475, Alt.=95.725647m. Speed=26.136000m/h.</desc>
<speed>7.260000</speed>
</trkpt>
<trkpt lat="56.116695" lon="26.348509">
<ele>95.508850</ele>
<time>2010-08-29T16:10:01Z</time>
<desc>lat.=56.116695, lon.=26.348509, Alt.=95.508850m. Speed=25.920000m/h.</desc>
<speed>7.200000</speed>
</trkpt>
<trkpt lat="56.116634" lon="26.348547">
<ele>95.327209</ele>
<time>2010-08-29T16:10:02Z</time>
<desc>lat.=56.116634, lon.=26.348547, Alt.=95.327209m. Speed=26.676001m/h.</desc>
<speed>7.410000</speed>
</trkpt>
<trkpt lat="56.116573" lon="26.348597">
<ele>94.829163</ele>
<time>2010-08-29T16:10:03Z</time>
<desc>lat.=56.116573, lon.=26.348597, Alt.=94.829163m. Speed=26.063999m/h.</desc>
<speed>7.240000</speed>
</trkpt>
<trkpt lat="56.116508" lon="26.348625">
<ele>94.286194</ele>
<time>2010-08-29T16:10:04Z</time>
<desc>lat.=56.116508, lon.=26.348625, Alt.=94.286194m. Speed=25.128000m/h.</desc>
<speed>6.980000</speed>
</trkpt>
<trkpt lat="56.116447" lon="26.348652">
<ele>94.067444</ele>
<time>2010-08-29T16:10:05Z</time>
<desc>lat.=56.116447, lon.=26.348652, Alt.=94.067444m. Speed=24.552000m/h.</desc>
<speed>6.820000</speed>
</trkpt>
<trkpt lat="56.116386" lon="26.348684">
<ele>94.624084</ele>
<time>2010-08-29T16:10:06Z</time>
<desc>lat.=56.116386, lon.=26.348684, Alt.=94.624084m. Speed=24.048000m/h.</desc>
<speed>6.680000</speed>
</trkpt>
<trkpt lat="56.116329" lon="26.348717">
<ele>95.506897</ele>
<time>2010-08-29T16:10:07Z</time>
<desc>lat.=56.116329, lon.=26.348717, Alt.=95.506897m. Speed=23.400000m/h.</desc>
<speed>6.500000</speed>
</trkpt>
<trkpt lat="56.116276" lon="26.348745">
<ele>95.606506</ele>
<time>2010-08-29T16:10:08Z</time>
<desc>lat.=56.116276, lon.=26.348745, Alt.=95.606506m. Speed=22.788000m/h.</desc>
<speed>6.330000</speed>
</trkpt>
<trkpt lat="56.116222" lon="26.348774">
<ele>95.440491</ele>
<time>2010-08-29T16:10:09Z</time>
<desc>lat.=56.116222, lon.=26.348774, Alt.=95.440491m. Speed=22.284000m/h.</desc>
<speed>6.190000</speed>
</trkpt>
<trkpt lat="56.116173" lon="26.348804">
<ele>95.411194</ele>
<time>2010-08-29T16:10:10Z</time>
<desc>lat.=56.116173, lon.=26.348804, Alt.=95.411194m. Speed=22.788000m/h.</desc>
<speed>6.330000</speed>
</trkpt>
<trkpt lat="56.116112" lon="26.348839">
<ele>95.383850</ele>
<time>2010-08-29T16:10:11Z</time>
<desc>lat.=56.116112, lon.=26.348839, Alt.=95.383850m. Speed=23.112000m/h.</desc>
<speed>6.420000</speed>
</trkpt>
<trkpt lat="56.116055" lon="26.348875">
<ele>95.366272</ele>
<time>2010-08-29T16:10:12Z</time>
<desc>lat.=56.116055, lon.=26.348875, Alt.=95.366272m. Speed=23.760000m/h.</desc>
<speed>6.600000</speed>
</trkpt>
<trkpt lat="56.115997" lon="26.348917">
<ele>94.688538</ele>
<time>2010-08-29T16:10:13Z</time>
<desc>lat.=56.115997, lon.=26.348917, Alt.=94.688538m. Speed=23.832001m/h.</desc>
<speed>6.620000</speed>
</trkpt>
<trkpt lat="56.115940" lon="26.348951">
<ele>94.411194</ele>
<time>2010-08-29T16:10:14Z</time>
<desc>lat.=56.115940, lon.=26.348951, Alt.=94.411194m. Speed=23.832001m/h.</desc>
<speed>6.620000</speed>
</trkpt>
<trkpt lat="56.115883" lon="26.348978">
<ele>93.786194</ele>
<time>2010-08-29T16:10:15Z</time>
<desc>lat.=56.115883, lon.=26.348978, Alt.=93.786194m. Speed=24.191999m/h.</desc>
<speed>6.720000</speed>
</trkpt>
<trkpt lat="56.115822" lon="26.349020">
<ele>93.432678</ele>
<time>2010-08-29T16:10:16Z</time>
<desc>lat.=56.115822, lon.=26.349020, Alt.=93.432678m. Speed=24.552000m/h.</desc>
<speed>6.820000</speed>
</trkpt>
<trkpt lat="56.115753" lon="26.349062">
<ele>93.090881</ele>
<time>2010-08-29T16:10:17Z</time>
<desc>lat.=56.115753, lon.=26.349062, Alt.=93.090881m. Speed=25.632000m/h.</desc>
<speed>7.120000</speed>
</trkpt>
<trkpt lat="56.115692" lon="26.349104">
<ele>92.780334</ele>
<time>2010-08-29T16:10:18Z</time>
<desc>lat.=56.115692, lon.=26.349104, Alt.=92.780334m. Speed=25.992001m/h.</desc>
<speed>7.220000</speed>
</trkpt>
<trkpt lat="56.115631" lon="26.349138">
<ele>92.614319</ele>
<time>2010-08-29T16:10:19Z</time>
<desc>lat.=56.115631, lon.=26.349138, Alt.=92.614319m. Speed=26.316000m/h.</desc>
<speed>7.310000</speed>
</trkpt>
<trkpt lat="56.115570" lon="26.349171">
<ele>92.778381</ele>
<time>2010-08-29T16:10:20Z</time>
<desc>lat.=56.115570, lon.=26.349171, Alt.=92.778381m. Speed=26.568001m/h.</desc>
<speed>7.380000</speed>
</trkpt>
<trkpt lat="56.115505" lon="26.349203">
<ele>93.370178</ele>
<time>2010-08-29T16:10:21Z</time>
<desc>lat.=56.115505, lon.=26.349203, Alt.=93.370178m. Speed=27.108000m/h.</desc>
<speed>7.530000</speed>
</trkpt>
<trkpt lat="56.115437" lon="26.349241">
<ele>93.680725</ele>
<time>2010-08-29T16:10:22Z</time>
<desc>lat.=56.115437, lon.=26.349241, Alt.=93.680725m. Speed=27.000000m/h.</desc>
<speed>7.500000</speed>
</trkpt>
<trkpt lat="56.115372" lon="26.349279">
<ele>93.991272</ele>
<time>2010-08-29T16:10:23Z</time>
<desc>lat.=56.115372, lon.=26.349279, Alt.=93.991272m. Speed=27.108000m/h.</desc>
<speed>7.530000</speed>
</trkpt>
<trkpt lat="56.115307" lon="26.349316">
<ele>94.170959</ele>
<time>2010-08-29T16:10:24Z</time>
<desc>lat.=56.115307, lon.=26.349316, Alt.=94.170959m. Speed=27.468000m/h.</desc>
<speed>7.630000</speed>
</trkpt>
<trkpt lat="56.115246" lon="26.349354">
<ele>94.200256</ele>
<time>2010-08-29T16:10:25Z</time>
<desc>lat.=56.115246, lon.=26.349354, Alt.=94.200256m. Speed=26.028000m/h.</desc>
<speed>7.230000</speed>
</trkpt>
<trkpt lat="56.115189" lon="26.349388">
<ele>94.055725</ele>
<time>2010-08-29T16:10:26Z</time>
<desc>lat.=56.115189, lon.=26.349388, Alt.=94.055725m. Speed=26.172001m/h.</desc>
<speed>7.270000</speed>
</trkpt>
<trkpt lat="56.115124" lon="26.349421">
<ele>94.061584</ele>
<time>2010-08-29T16:10:27Z</time>
<desc>lat.=56.115124, lon.=26.349421, Alt.=94.061584m. Speed=25.632000m/h.</desc>
<speed>7.120000</speed>
</trkpt>
<trkpt lat="56.115063" lon="26.349457">
<ele>93.956116</ele>
<time>2010-08-29T16:10:28Z</time>
<desc>lat.=56.115063, lon.=26.349457, Alt.=93.956116m. Speed=25.775999m/h.</desc>
<speed>7.160000</speed>
</trkpt>
<trkpt lat="56.115002" lon="26.349491">
<ele>94.057678</ele>
<time>2010-08-29T16:10:29Z</time>
<desc>lat.=56.115002, lon.=26.349491, Alt.=94.057678m. Speed=25.596001m/h.</desc>
<speed>7.110000</speed>
</trkpt>
<trkpt lat="56.114941" lon="26.349524">
<ele>94.430725</ele>
<time>2010-08-29T16:10:30Z</time>
<desc>lat.=56.114941, lon.=26.349524, Alt.=94.430725m. Speed=26.100000m/h.</desc>
<speed>7.250000</speed>
</trkpt>
<trkpt lat="56.114880" lon="26.349552">
<ele>94.971741</ele>
<time>2010-08-29T16:10:31Z</time>
<desc>lat.=56.114880, lon.=26.349552, Alt.=94.971741m. Speed=26.459999m/h.</desc>
<speed>7.350000</speed>
</trkpt>
<trkpt lat="56.114819" lon="26.349581">
<ele>95.081116</ele>
<time>2010-08-29T16:10:32Z</time>
<desc>lat.=56.114819, lon.=26.349581, Alt.=95.081116m. Speed=26.856001m/h.</desc>
<speed>7.460000</speed>
</trkpt>
<trkpt lat="56.114754" lon="26.349611">
<ele>95.403381</ele>
<time>2010-08-29T16:10:33Z</time>
<desc>lat.=56.114754, lon.=26.349611, Alt.=95.403381m. Speed=26.747999m/h.</desc>
<speed>7.430000</speed>
</trkpt>
<trkpt lat="56.114689" lon="26.349646">
<ele>95.542053</ele>
<time>2010-08-29T16:10:34Z</time>
<desc>lat.=56.114689, lon.=26.349646, Alt.=95.542053m. Speed=27.468000m/h.</desc>
<speed>7.630000</speed>
</trkpt>
<trkpt lat="56.114620" lon="26.349686">
<ele>95.676819</ele>
<time>2010-08-29T16:10:35Z</time>
<desc>lat.=56.114620, lon.=26.349686, Alt.=95.676819m. Speed=27.108000m/h.</desc>
<speed>7.530000</speed>
</trkpt>
<trkpt lat="56.114555" lon="26.349730">
<ele>96.573303</ele>
<time>2010-08-29T16:10:36Z</time>
<desc>lat.=56.114555, lon.=26.349730, Alt.=96.573303m. Speed=26.243999m/h.</desc>
<speed>7.290000</speed>
</trkpt>
<trkpt lat="56.114491" lon="26.349768">
<ele>96.616272</ele>
<time>2010-08-29T16:10:37Z</time>
<desc>lat.=56.114491, lon.=26.349768, Alt.=96.616272m. Speed=26.100000m/h.</desc>
<speed>7.250000</speed>
</trkpt>
<trkpt lat="56.114429" lon="26.349806">
<ele>97.600647</ele>
<time>2010-08-29T16:10:38Z</time>
<desc>lat.=56.114429, lon.=26.349806, Alt.=97.600647m. Speed=25.559999m/h.</desc>
<speed>7.100000</speed>
</trkpt>
<trkpt lat="56.114368" lon="26.349840">
<ele>97.780334</ele>
<time>2010-08-29T16:10:39Z</time>
<desc>lat.=56.114368, lon.=26.349840, Alt.=97.780334m. Speed=24.480000m/h.</desc>
<speed>6.800000</speed>
</trkpt>
<trkpt lat="56.114311" lon="26.349873">
<ele>97.987366</ele>
<time>2010-08-29T16:10:40Z</time>
<desc>lat.=56.114311, lon.=26.349873, Alt.=97.987366m. Speed=23.796000m/h.</desc>
<speed>6.610000</speed>
</trkpt>
<trkpt lat="56.114258" lon="26.349907">
<ele>98.266663</ele>
<time>2010-08-29T16:10:41Z</time>
<desc>lat.=56.114258, lon.=26.349907, Alt.=98.266663m. Speed=22.572001m/h.</desc>
<speed>6.270000</speed>
</trkpt>
<trkpt lat="56.114201" lon="26.349943">
<ele>97.692444</ele>
<time>2010-08-29T16:10:42Z</time>
<desc>lat.=56.114201, lon.=26.349943, Alt.=97.692444m. Speed=22.247999m/h.</desc>
<speed>6.180000</speed>
</trkpt>
<trkpt lat="56.114151" lon="26.349962">
<ele>97.088928</ele>
<time>2010-08-29T16:10:43Z</time>
<desc>lat.=56.114151, lon.=26.349962, Alt.=97.088928m. Speed=19.296000m/h.</desc>
<speed>5.360000</speed>
</trkpt>
<trkpt lat="56.114109" lon="26.349983">
<ele>96.991272</ele>
<time>2010-08-29T16:10:44Z</time>
<desc>lat.=56.114109, lon.=26.349983, Alt.=96.991272m. Speed=14.940000m/h.</desc>
<speed>4.150000</speed>
</trkpt>
<trkpt lat="56.114079" lon="26.350002">
<ele>96.141663</ele>
<time>2010-08-29T16:10:45Z</time>
<desc>lat.=56.114079, lon.=26.350002, Alt.=96.141663m. Speed=10.692000m/h.</desc>
<speed>2.970000</speed>
</trkpt>
<trkpt lat="56.114059" lon="26.350012">
<ele>96.157288</ele>
<time>2010-08-29T16:10:46Z</time>
<desc>lat.=56.114059, lon.=26.350012, Alt.=96.157288m. Speed=6.768000m/h.</desc>
<speed>1.880000</speed>
</trkpt>
<trkpt lat="56.114048" lon="26.350014">
<ele>96.204163</ele>
<time>2010-08-29T16:10:47Z</time>
<desc>lat.=56.114048, lon.=26.350014, Alt.=96.204163m. Speed=2.412000m/h.</desc>
<speed>0.670000</speed>
</trkpt>
<trkpt lat="56.114048" lon="26.350014">
<ele>96.454163</ele>
<time>2010-08-29T16:10:48Z</time>
<desc>lat.=56.114048, lon.=26.350014, Alt.=96.454163m. Speed=0.468000m/h.</desc>
<speed>0.130000</speed>
</trkpt>
<trkpt lat="56.114048" lon="26.350018">
<ele>96.735413</ele>
<time>2010-08-29T16:10:49Z</time>
<desc>lat.=56.114048, lon.=26.350018, Alt.=96.735413m. Speed=0.900000m/h.</desc>
<speed>0.250000</speed>
</trkpt>
<trkpt lat="56.114048" lon="26.350019">
<ele>96.883850</ele>
<time>2010-08-29T16:10:50Z</time>
<desc>lat.=56.114048, lon.=26.350019, Alt.=96.883850m. Speed=0.684000m/h.</desc>
<speed>0.190000</speed>
</trkpt>
<trkpt lat="56.114048" lon="26.350021">
<ele>96.866272</ele>
<time>2010-08-29T16:10:51Z</time>
<desc>lat.=56.114048, lon.=26.350021, Alt.=96.866272m. Speed=0.180000m/h.</desc>
<speed>0.050000</speed>
</trkpt>
<trkpt lat="56.114048" lon="26.350023">
<ele>96.854553</ele>
<time>2010-08-29T16:10:52Z</time>
<desc>lat.=56.114048, lon.=26.350023, Alt.=96.854553m. Speed=0.108000m/h.</desc>
<speed>0.030000</speed>
</trkpt>
<trkpt lat="56.114048" lon="26.350023">
<ele>96.842834</ele>
<time>2010-08-29T16:10:53Z</time>
<desc>lat.=56.114048, lon.=26.350023, Alt.=96.842834m. Speed=0.144000m/h.</desc>
<speed>0.040000</speed>
</trkpt>
<trkpt lat="56.114048" lon="26.350023">
<ele>96.833069</ele>
<time>2010-08-29T16:10:54Z</time>
<desc>lat.=56.114048, lon.=26.350023, Alt.=96.833069m. Speed=0.576000m/h.</desc>
<speed>0.160000</speed>
</trkpt>
<trkpt lat="56.114048" lon="26.350025">
<ele>96.835022</ele>
<time>2010-08-29T16:10:55Z</time>
<desc>lat.=56.114048, lon.=26.350025, Alt.=96.835022m. Speed=0.288000m/h.</desc>
<speed>0.080000</speed>
</trkpt>
<trkpt lat="56.114048" lon="26.350027">
<ele>96.836975</ele>
<time>2010-08-29T16:10:56Z</time>
<desc>lat.=56.114048, lon.=26.350027, Alt.=96.836975m. Speed=0.576000m/h.</desc>
<speed>0.160000</speed>
</trkpt>
<trkpt lat="56.114052" lon="26.350027">
<ele>96.835022</ele>
<time>2010-08-29T16:10:57Z</time>
<desc>lat.=56.114052, lon.=26.350027, Alt.=96.835022m. Speed=0.216000m/h.</desc>
<speed>0.060000</speed>
</trkpt>
<trkpt lat="56.114052" lon="26.350025">
<ele>96.838928</ele>
<time>2010-08-29T16:10:58Z</time>
<desc>lat.=56.114052, lon.=26.350025, Alt.=96.838928m. Speed=0.180000m/h.</desc>
<speed>0.050000</speed>
</trkpt>
<trkpt lat="56.114052" lon="26.350027">
<ele>96.848694</ele>
<time>2010-08-29T16:10:59Z</time>
<desc>lat.=56.114052, lon.=26.350027, Alt.=96.848694m. Speed=0.216000m/h.</desc>
<speed>0.060000</speed>
</trkpt>
<trkpt lat="56.114052" lon="26.350027">
<ele>96.852600</ele>
<time>2010-08-29T16:11:00Z</time>
<desc>lat.=56.114052, lon.=26.350027, Alt.=96.852600m. Speed=0.288000m/h.</desc>
<speed>0.080000</speed>
</trkpt>
<trkpt lat="56.114052" lon="26.350027">
<ele>96.854553</ele>
<time>2010-08-29T16:11:01Z</time>
<desc>lat.=56.114052, lon.=26.350027, Alt.=96.854553m. Speed=0.288000m/h.</desc>
<speed>0.080000</speed>
</trkpt>
<trkpt lat="56.114052" lon="26.350027">
<ele>96.876038</ele>
<time>2010-08-29T16:11:02Z</time>
<desc>lat.=56.114052, lon.=26.350027, Alt.=96.876038m. Speed=0.720000m/h.</desc>
<speed>0.200000</speed>
</trkpt>
<trkpt lat="56.114056" lon="26.350029">
<ele>96.866272</ele>
<time>2010-08-29T16:11:03Z</time>
<desc>lat.=56.114056, lon.=26.350029, Alt.=96.866272m. Speed=0.108000m/h.</desc>
<speed>0.030000</speed>
</trkpt>
<trkpt lat="56.114056" lon="26.350029">
<ele>96.862366</ele>
<time>2010-08-29T16:11:04Z</time>
<desc>lat.=56.114056, lon.=26.350029, Alt.=96.862366m. Speed=0.180000m/h.</desc>
<speed>0.050000</speed>
</trkpt>
<trkpt lat="56.114056" lon="26.350027">
<ele>96.874084</ele>
<time>2010-08-29T16:11:05Z</time>
<desc>lat.=56.114056, lon.=26.350027, Alt.=96.874084m. Speed=0.252000m/h.</desc>
<speed>0.070000</speed>
</trkpt>
<trkpt lat="56.114056" lon="26.350027">
<ele>96.893616</ele>
<time>2010-08-29T16:11:06Z</time>
<desc>lat.=56.114056, lon.=26.350027, Alt.=96.893616m. Speed=0.396000m/h.</desc>
<speed>0.110000</speed>
</trkpt>
<trkpt lat="56.114056" lon="26.350023">
<ele>96.905334</ele>
<time>2010-08-29T16:11:07Z</time>
<desc>lat.=56.114056, lon.=26.350023, Alt.=96.905334m. Speed=0.252000m/h.</desc>
<speed>0.070000</speed>
</trkpt>
<trkpt lat="56.114056" lon="26.350023">
<ele>96.922913</ele>
<time>2010-08-29T16:11:08Z</time>
<desc>lat.=56.114056, lon.=26.350023, Alt.=96.922913m. Speed=0.036000m/h.</desc>
<speed>0.010000</speed>
</trkpt>
<trkpt lat="56.114056" lon="26.350023">
<ele>96.936584</ele>
<time>2010-08-29T16:11:09Z</time>
<desc>lat.=56.114056, lon.=26.350023, Alt.=96.936584m. Speed=0.000000m/h.</desc>
<speed>0.000000</speed>
</trkpt>
<trkpt lat="56.114056" lon="26.350023">
<ele>96.919006</ele>
<time>2010-08-29T16:11:10Z</time>
<desc>lat.=56.114056, lon.=26.350023, Alt.=96.919006m. Speed=0.000000m/h.</desc>
<speed>0.000000</speed>
</trkpt>
<trkpt lat="56.114056" lon="26.350021">
<ele>96.928772</ele>
<time>2010-08-29T16:11:11Z</time>
<desc>lat.=56.114056, lon.=26.350021, Alt.=96.928772m. Speed=0.000000m/h.</desc>
<speed>0.000000</speed>
</trkpt>
<trkpt lat="56.114056" lon="26.350021">
<ele>96.920959</ele>
<time>2010-08-29T16:11:12Z</time>
<desc>lat.=56.114056, lon.=26.350021, Alt.=96.920959m. Speed=0.000000m/h.</desc>
<speed>0.000000</speed>
</trkpt>
<trkpt lat="56.114056" lon="26.350021">
<ele>96.911194</ele>
<time>2010-08-29T16:11:13Z</time>
<desc>lat.=56.114056, lon.=26.350021, Alt.=96.911194m. Speed=0.036000m/h.</desc>
<speed>0.010000</speed>
</trkpt>
<trkpt lat="56.114056" lon="26.350021">
<ele>96.907288</ele>
<time>2010-08-29T16:11:14Z</time>
<desc>lat.=56.114056, lon.=26.350021, Alt.=96.907288m. Speed=0.072000m/h.</desc>
<speed>0.020000</speed>
</trkpt>
<trkpt lat="56.114056" lon="26.350021">
<ele>96.913147</ele>
<time>2010-08-29T16:11:15Z</time>
<desc>lat.=56.114056, lon.=26.350021, Alt.=96.913147m. Speed=0.000000m/h.</desc>
<speed>0.000000</speed>
</trkpt>
<trkpt lat="56.114056" lon="26.350021">
<ele>96.899475</ele>
<time>2010-08-29T16:11:16Z</time>
<desc>lat.=56.114056, lon.=26.350021, Alt.=96.899475m. Speed=0.000000m/h.</desc>
<speed>0.000000</speed>
</trkpt>
<trkpt lat="56.114056" lon="26.350021">
<ele>96.899475</ele>
<time>2010-08-29T16:11:17Z</time>
<desc>lat.=56.114056, lon.=26.350021, Alt.=96.899475m. Speed=0.000000m/h.</desc>
<speed>0.000000</speed>
</trkpt>
<trkpt lat="56.114056" lon="26.350021">
<ele>96.897522</ele>
<time>2010-08-29T16:11:18Z</time>
<desc>lat.=56.114056, lon.=26.350021, Alt.=96.897522m. Speed=0.000000m/h.</desc>
<speed>0.000000</speed>
</trkpt>
<trkpt lat="56.114056" lon="26.350021">
<ele>96.899475</ele>
<time>2010-08-29T16:11:19Z</time>
<desc>lat.=56.114056, lon.=26.350021, Alt.=96.899475m. Speed=0.036000m/h.</desc>
<speed>0.010000</speed>
</trkpt>
<trkpt lat="56.114056" lon="26.350021">
<ele>96.897522</ele>
<time>2010-08-29T16:11:20Z</time>
<desc>lat.=56.114056, lon.=26.350021, Alt.=96.897522m. Speed=0.036000m/h.</desc>
<speed>0.010000</speed>
</trkpt>
<trkpt lat="56.114056" lon="26.350021">
<ele>96.895569</ele>
<time>2010-08-29T16:11:21Z</time>
<desc>lat.=56.114056, lon.=26.350021, Alt.=96.895569m. Speed=0.000000m/h.</desc>
<speed>0.000000</speed>
</trkpt>
<trkpt lat="56.114056" lon="26.350021">
<ele>96.876038</ele>
<time>2010-08-29T16:11:22Z</time>
<desc>lat.=56.114056, lon.=26.350021, Alt.=96.876038m. Speed=0.000000m/h.</desc>
<speed>0.000000</speed>
</trkpt>
<trkpt lat="56.114056" lon="26.350021">
<ele>96.876038</ele>
<time>2010-08-29T16:11:23Z</time>
<desc>lat.=56.114056, lon.=26.350021, Alt.=96.876038m. Speed=0.000000m/h.</desc>
<speed>0.000000</speed>
</trkpt>
<trkpt lat="56.114056" lon="26.350021">
<ele>96.879944</ele>
<time>2010-08-29T16:11:24Z</time>
<desc>lat.=56.114056, lon.=26.350021, Alt.=96.879944m. Speed=0.000000m/h.</desc>
<speed>0.000000</speed>
</trkpt>
<trkpt lat="56.114056" lon="26.350021">
<ele>96.879944</ele>
<time>2010-08-29T16:11:25Z</time>
<desc>lat.=56.114056, lon.=26.350021, Alt.=96.879944m. Speed=0.000000m/h.</desc>
<speed>0.000000</speed>
</trkpt>
<trkpt lat="56.114056" lon="26.350021">
<ele>96.874084</ele>
<time>2010-08-29T16:11:26Z</time>
<desc>lat.=56.114056, lon.=26.350021, Alt.=96.874084m. Speed=0.000000m/h.</desc>
<speed>0.000000</speed>
</trkpt>
<trkpt lat="56.114056" lon="26.350021">
<ele>96.868225</ele>
<time>2010-08-29T16:11:27Z</time>
<desc>lat.=56.114056, lon.=26.350021, Alt.=96.868225m. Speed=0.000000m/h.</desc>
<speed>0.000000</speed>
</trkpt>
<trkpt lat="56.114056" lon="26.350021">
<ele>96.864319</ele>
<time>2010-08-29T16:11:28Z</time>
<desc>lat.=56.114056, lon.=26.350021, Alt.=96.864319m. Speed=0.000000m/h.</desc>
<speed>0.000000</speed>
</trkpt>
<trkpt lat="56.114056" lon="26.350021">
<ele>96.862366</ele>
<time>2010-08-29T16:11:29Z</time>
<desc>lat.=56.114056, lon.=26.350021, Alt.=96.862366m. Speed=0.000000m/h.</desc>
<speed>0.000000</speed>
</trkpt>
<trkpt lat="56.114056" lon="26.350021">
<ele>96.858459</ele>
<time>2010-08-29T16:11:30Z</time>
<desc>lat.=56.114056, lon.=26.350021, Alt.=96.858459m. Speed=0.072000m/h.</desc>
<speed>0.020000</speed>
</trkpt>
<trkpt lat="56.114056" lon="26.350021">
<ele>96.860413</ele>
<time>2010-08-29T16:11:31Z</time>
<desc>lat.=56.114056, lon.=26.350021, Alt.=96.860413m. Speed=0.288000m/h.</desc>
<speed>0.080000</speed>
</trkpt>
<trkpt lat="56.114056" lon="26.350019">
<ele>96.864319</ele>
<time>2010-08-29T16:11:32Z</time>
<desc>lat.=56.114056, lon.=26.350019, Alt.=96.864319m. Speed=0.180000m/h.</desc>
<speed>0.050000</speed>
</trkpt>
<trkpt lat="56.114056" lon="26.350021">
<ele>96.835022</ele>
<time>2010-08-29T16:11:33Z</time>
<desc>lat.=56.114056, lon.=26.350021, Alt.=96.835022m. Speed=0.216000m/h.</desc>
<speed>0.060000</speed>
</trkpt>
<trkpt lat="56.114056" lon="26.350019">
<ele>96.801819</ele>
<time>2010-08-29T16:11:34Z</time>
<desc>lat.=56.114056, lon.=26.350019, Alt.=96.801819m. Speed=0.180000m/h.</desc>
<speed>0.050000</speed>
</trkpt>
<trkpt lat="56.114056" lon="26.350019">
<ele>96.866272</ele>
<time>2010-08-29T16:11:35Z</time>
<desc>lat.=56.114056, lon.=26.350019, Alt.=96.866272m. Speed=0.000000m/h.</desc>
<speed>0.000000</speed>
</trkpt>
<trkpt lat="56.114056" lon="26.350019">
<ele>96.872131</ele>
<time>2010-08-29T16:11:36Z</time>
<desc>lat.=56.114056, lon.=26.350019, Alt.=96.872131m. Speed=0.000000m/h.</desc>
<speed>0.000000</speed>
</trkpt>
<trkpt lat="56.114056" lon="26.350019">
<ele>96.870178</ele>
<time>2010-08-29T16:11:37Z</time>
<desc>lat.=56.114056, lon.=26.350019, Alt.=96.870178m. Speed=0.216000m/h.</desc>
<speed>0.060000</speed>
</trkpt>
<trkpt lat="56.114056" lon="26.350019">
<ele>96.868225</ele>
<time>2010-08-29T16:11:38Z</time>
<desc>lat.=56.114056, lon.=26.350019, Alt.=96.868225m. Speed=0.000000m/h.</desc>
<speed>0.000000</speed>
</trkpt>
<trkpt lat="56.114056" lon="26.350019">
<ele>96.852600</ele>
<time>2010-08-29T16:11:39Z</time>
<desc>lat.=56.114056, lon.=26.350019, Alt.=96.852600m. Speed=0.216000m/h.</desc>
<speed>0.060000</speed>
</trkpt>
<trkpt lat="56.114056" lon="26.350019">
<ele>96.856506</ele>
<time>2010-08-29T16:11:40Z</time>
<desc>lat.=56.114056, lon.=26.350019, Alt.=96.856506m. Speed=0.324000m/h.</desc>
<speed>0.090000</speed>
</trkpt>
<trkpt lat="56.114056" lon="26.350019">
<ele>96.760803</ele>
<time>2010-08-29T16:11:41Z</time>
<desc>lat.=56.114056, lon.=26.350019, Alt.=96.760803m. Speed=0.000000m/h.</desc>
<speed>0.000000</speed>
</trkpt>
<trkpt lat="56.114056" lon="26.350019">
<ele>96.743225</ele>
<time>2010-08-29T16:11:42Z</time>
<desc>lat.=56.114056, lon.=26.350019, Alt.=96.743225m. Speed=0.288000m/h.</desc>
<speed>0.080000</speed>
</trkpt>
<trkpt lat="56.114056" lon="26.350019">
<ele>96.745178</ele>
<time>2010-08-29T16:11:43Z</time>
<desc>lat.=56.114056, lon.=26.350019, Alt.=96.745178m. Speed=0.000000m/h.</desc>
<speed>0.000000</speed>
</trkpt>
<trkpt lat="56.114056" lon="26.350019">
<ele>96.752991</ele>
<time>2010-08-29T16:11:44Z</time>
<desc>lat.=56.114056, lon.=26.350019, Alt.=96.752991m. Speed=0.108000m/h.</desc>
<speed>0.030000</speed>
</trkpt>
<trkpt lat="56.114056" lon="26.350019">
<ele>96.751038</ele>
<time>2010-08-29T16:11:45Z</time>
<desc>lat.=56.114056, lon.=26.350019, Alt.=96.751038m. Speed=0.144000m/h.</desc>
<speed>0.040000</speed>
</trkpt>
<trkpt lat="56.114056" lon="26.350019">
<ele>96.752991</ele>
<time>2010-08-29T16:11:46Z</time>
<desc>lat.=56.114056, lon.=26.350019, Alt.=96.752991m. Speed=0.216000m/h.</desc>
<speed>0.060000</speed>
</trkpt>
<trkpt lat="56.114052" lon="26.350019">
<ele>96.737366</ele>
<time>2010-08-29T16:11:47Z</time>
<desc>lat.=56.114052, lon.=26.350019, Alt.=96.737366m. Speed=0.396000m/h.</desc>
<speed>0.110000</speed>
</trkpt>
<trkpt lat="56.114052" lon="26.350019">
<ele>96.743225</ele>
<time>2010-08-29T16:11:48Z</time>
<desc>lat.=56.114052, lon.=26.350019, Alt.=96.743225m. Speed=0.180000m/h.</desc>
<speed>0.050000</speed>
</trkpt>
<trkpt lat="56.114052" lon="26.350019">
<ele>96.743225</ele>
<time>2010-08-29T16:11:49Z</time>
<desc>lat.=56.114052, lon.=26.350019, Alt.=96.743225m. Speed=0.072000m/h.</desc>
<speed>0.020000</speed>
</trkpt>
<trkpt lat="56.114052" lon="26.350019">
<ele>96.741272</ele>
<time>2010-08-29T16:11:50Z</time>
<desc>lat.=56.114052, lon.=26.350019, Alt.=96.741272m. Speed=0.144000m/h.</desc>
<speed>0.040000</speed>
</trkpt>
<trkpt lat="56.114052" lon="26.350019">
<ele>96.737366</ele>
<time>2010-08-29T16:11:51Z</time>
<desc>lat.=56.114052, lon.=26.350019, Alt.=96.737366m. Speed=0.108000m/h.</desc>
<speed>0.030000</speed>
</trkpt>
<trkpt lat="56.114052" lon="26.350019">
<ele>96.733459</ele>
<time>2010-08-29T16:11:52Z</time>
<desc>lat.=56.114052, lon.=26.350019, Alt.=96.733459m. Speed=0.072000m/h.</desc>
<speed>0.020000</speed>
</trkpt>
<trkpt lat="56.114052" lon="26.350019">
<ele>96.735413</ele>
<time>2010-08-29T16:11:53Z</time>
<desc>lat.=56.114052, lon.=26.350019, Alt.=96.735413m. Speed=0.036000m/h.</desc>
<speed>0.010000</speed>
</trkpt>
<trkpt lat="56.114052" lon="26.350019">
<ele>96.735413</ele>
<time>2010-08-29T16:11:54Z</time>
<desc>lat.=56.114052, lon.=26.350019, Alt.=96.735413m. Speed=0.396000m/h.</desc>
<speed>0.110000</speed>
</trkpt>
<trkpt lat="56.114052" lon="26.350019">
<ele>96.731506</ele>
<time>2010-08-29T16:11:55Z</time>
<desc>lat.=56.114052, lon.=26.350019, Alt.=96.731506m. Speed=0.360000m/h.</desc>
<speed>0.100000</speed>
</trkpt>
<trkpt lat="56.114052" lon="26.350019">
<ele>96.719788</ele>
<time>2010-08-29T16:11:56Z</time>
<desc>lat.=56.114052, lon.=26.350019, Alt.=96.719788m. Speed=0.720000m/h.</desc>
<speed>0.200000</speed>
</trkpt>
<trkpt lat="56.114052" lon="26.350016">
<ele>97.004944</ele>
<time>2010-08-29T16:11:57Z</time>
<desc>lat.=56.114052, lon.=26.350016, Alt.=97.004944m. Speed=1.260000m/h.</desc>
<speed>0.350000</speed>
</trkpt>
<trkpt lat="56.114052" lon="26.350021">
<ele>97.264709</ele>
<time>2010-08-29T16:11:58Z</time>
<desc>lat.=56.114052, lon.=26.350021, Alt.=97.264709m. Speed=3.708000m/h.</desc>
<speed>1.030000</speed>
</trkpt>
<trkpt lat="56.114044" lon="26.350029">
<ele>97.381897</ele>
<time>2010-08-29T16:11:59Z</time>
<desc>lat.=56.114044, lon.=26.350029, Alt.=97.381897m. Speed=5.148000m/h.</desc>
<speed>1.430000</speed>
</trkpt>
<trkpt lat="56.114029" lon="26.350039">
<ele>97.862366</ele>
<time>2010-08-29T16:12:00Z</time>
<desc>lat.=56.114029, lon.=26.350039, Alt.=97.862366m. Speed=5.292000m/h.</desc>
<speed>1.470000</speed>
</trkpt>
<trkpt lat="56.114017" lon="26.350042">
<ele>98.608459</ele>
<time>2010-08-29T16:12:01Z</time>
<desc>lat.=56.114017, lon.=26.350042, Alt.=98.608459m. Speed=6.552000m/h.</desc>
<speed>1.820000</speed>
</trkpt>
<trkpt lat="56.113998" lon="26.350042">
<ele>99.631897</ele>
<time>2010-08-29T16:12:02Z</time>
<desc>lat.=56.113998, lon.=26.350042, Alt.=99.631897m. Speed=7.020000m/h.</desc>
<speed>1.950000</speed>
</trkpt>
<trkpt lat="56.113979" lon="26.350052">
<ele>100.176819</ele>
<time>2010-08-29T16:12:03Z</time>
<desc>lat.=56.113979, lon.=26.350052, Alt.=100.176819m. Speed=8.244000m/h.</desc>
<speed>2.290000</speed>
</trkpt>
<trkpt lat="56.113953" lon="26.350060">
<ele>99.356506</ele>
<time>2010-08-29T16:12:04Z</time>
<desc>lat.=56.113953, lon.=26.350060, Alt.=99.356506m. Speed=9.360000m/h.</desc>
<speed>2.600000</speed>
</trkpt>
<trkpt lat="56.113926" lon="26.350065">
<ele>99.210022</ele>
<time>2010-08-29T16:12:05Z</time>
<desc>lat.=56.113926, lon.=26.350065, Alt.=99.210022m. Speed=10.188000m/h.</desc>
<speed>2.830000</speed>
</trkpt>
<trkpt lat="56.113899" lon="26.350075">
<ele>99.210022</ele>
<time>2010-08-29T16:12:06Z</time>
<desc>lat.=56.113899, lon.=26.350075, Alt.=99.210022m. Speed=11.664000m/h.</desc>
<speed>3.240000</speed>
</trkpt>
<trkpt lat="56.113873" lon="26.350088">
<ele>99.299866</ele>
<time>2010-08-29T16:12:07Z</time>
<desc>lat.=56.113873, lon.=26.350088, Alt.=99.299866m. Speed=10.980000m/h.</desc>
<speed>3.050000</speed>
</trkpt>
<trkpt lat="56.113842" lon="26.350100">
<ele>99.280334</ele>
<time>2010-08-29T16:12:08Z</time>
<desc>lat.=56.113842, lon.=26.350100, Alt.=99.280334m. Speed=10.980000m/h.</desc>
<speed>3.050000</speed>
</trkpt>
<trkpt lat="56.113819" lon="26.350117">
<ele>99.331116</ele>
<time>2010-08-29T16:12:09Z</time>
<desc>lat.=56.113819, lon.=26.350117, Alt.=99.331116m. Speed=10.188000m/h.</desc>
<speed>2.830000</speed>
</trkpt>
<trkpt lat="56.113796" lon="26.350130">
<ele>99.606506</ele>
<time>2010-08-29T16:12:10Z</time>
<desc>lat.=56.113796, lon.=26.350130, Alt.=99.606506m. Speed=9.900000m/h.</desc>
<speed>2.750000</speed>
</trkpt>
<trkpt lat="56.113773" lon="26.350143">
<ele>99.827209</ele>
<time>2010-08-29T16:12:11Z</time>
<desc>lat.=56.113773, lon.=26.350143, Alt.=99.827209m. Speed=9.684000m/h.</desc>
<speed>2.690000</speed>
</trkpt>
<trkpt lat="56.113750" lon="26.350159">
<ele>99.950256</ele>
<time>2010-08-29T16:12:12Z</time>
<desc>lat.=56.113750, lon.=26.350159, Alt.=99.950256m. Speed=9.216000m/h.</desc>
<speed>2.560000</speed>
</trkpt>
<trkpt lat="56.113728" lon="26.350174">
<ele>100.135803</ele>
<time>2010-08-29T16:12:13Z</time>
<desc>lat.=56.113728, lon.=26.350174, Alt.=100.135803m. Speed=9.396000m/h.</desc>
<speed>2.610000</speed>
</trkpt>
<trkpt lat="56.113705" lon="26.350185">
<ele>100.172913</ele>
<time>2010-08-29T16:12:14Z</time>
<desc>lat.=56.113705, lon.=26.350185, Alt.=100.172913m. Speed=9.000000m/h.</desc>
<speed>2.500000</speed>
</trkpt>
<trkpt lat="56.113682" lon="26.350195">
<ele>100.487366</ele>
<time>2010-08-29T16:12:15Z</time>
<desc>lat.=56.113682, lon.=26.350195, Alt.=100.487366m. Speed=9.252000m/h.</desc>
<speed>2.570000</speed>
</trkpt>
<trkpt lat="56.113659" lon="26.350206">
<ele>100.618225</ele>
<time>2010-08-29T16:12:16Z</time>
<desc>lat.=56.113659, lon.=26.350206, Alt.=100.618225m. Speed=11.772000m/h.</desc>
<speed>3.270000</speed>
</trkpt>
<trkpt lat="56.113628" lon="26.350227">
<ele>100.467834</ele>
<time>2010-08-29T16:12:17Z</time>
<desc>lat.=56.113628, lon.=26.350227, Alt.=100.467834m. Speed=12.780000m/h.</desc>
<speed>3.550000</speed>
</trkpt>
<trkpt lat="56.113598" lon="26.350248">
<ele>100.559631</ele>
<time>2010-08-29T16:12:18Z</time>
<desc>lat.=56.113598, lon.=26.350248, Alt.=100.559631m. Speed=13.320000m/h.</desc>
<speed>3.700000</speed>
</trkpt>
<trkpt lat="56.113564" lon="26.350267">
<ele>100.508850</ele>
<time>2010-08-29T16:12:19Z</time>
<desc>lat.=56.113564, lon.=26.350267, Alt.=100.508850m. Speed=14.256000m/h.</desc>
<speed>3.960000</speed>
</trkpt>
<trkpt lat="56.113529" lon="26.350290">
<ele>100.889709</ele>
<time>2010-08-29T16:12:20Z</time>
<desc>lat.=56.113529, lon.=26.350290, Alt.=100.889709m. Speed=15.408000m/h.</desc>
<speed>4.280000</speed>
</trkpt>
<trkpt lat="56.113491" lon="26.350319">
<ele>101.100647</ele>
<time>2010-08-29T16:12:21Z</time>
<desc>lat.=56.113491, lon.=26.350319, Alt.=101.100647m. Speed=17.028000m/h.</desc>
<speed>4.730000</speed>
</trkpt>
<trkpt lat="56.113453" lon="26.350348">
<ele>101.256897</ele>
<time>2010-08-29T16:12:22Z</time>
<desc>lat.=56.113453, lon.=26.350348, Alt.=101.256897m. Speed=17.424000m/h.</desc>
<speed>4.840000</speed>
</trkpt>
<trkpt lat="56.113407" lon="26.350365">
<ele>101.170959</ele>
<time>2010-08-29T16:12:23Z</time>
<desc>lat.=56.113407, lon.=26.350365, Alt.=101.170959m. Speed=18.792000m/h.</desc>
<speed>5.220000</speed>
</trkpt>
<trkpt lat="56.113365" lon="26.350372">
<ele>101.333069</ele>
<time>2010-08-29T16:12:24Z</time>
<desc>lat.=56.113365, lon.=26.350372, Alt.=101.333069m. Speed=18.684000m/h.</desc>
<speed>5.190000</speed>
</trkpt>
<trkpt lat="56.113319" lon="26.350386">
<ele>101.530334</ele>
<time>2010-08-29T16:12:25Z</time>
<desc>lat.=56.113319, lon.=26.350386, Alt.=101.530334m. Speed=19.728001m/h.</desc>
<speed>5.480000</speed>
</trkpt>
<trkpt lat="56.113270" lon="26.350405">
<ele>101.629944</ele>
<time>2010-08-29T16:12:26Z</time>
<desc>lat.=56.113270, lon.=26.350405, Alt.=101.629944m. Speed=20.412001m/h.</desc>
<speed>5.670000</speed>
</trkpt>
<trkpt lat="56.113216" lon="26.350435">
<ele>100.364319</ele>
<time>2010-08-29T16:12:27Z</time>
<desc>lat.=56.113216, lon.=26.350435, Alt.=100.364319m. Speed=21.059999m/h.</desc>
<speed>5.850000</speed>
</trkpt>
<trkpt lat="56.113159" lon="26.350466">
<ele>100.182678</ele>
<time>2010-08-29T16:12:28Z</time>
<desc>lat.=56.113159, lon.=26.350466, Alt.=100.182678m. Speed=21.636000m/h.</desc>
<speed>6.010000</speed>
</trkpt>
<trkpt lat="56.113102" lon="26.350502">
<ele>99.415100</ele>
<time>2010-08-29T16:12:29Z</time>
<desc>lat.=56.113102, lon.=26.350502, Alt.=99.415100m. Speed=22.247999m/h.</desc>
<speed>6.180000</speed>
</trkpt>
<trkpt lat="56.113045" lon="26.350533">
<ele>99.178772</ele>
<time>2010-08-29T16:12:30Z</time>
<desc>lat.=56.113045, lon.=26.350533, Alt.=99.178772m. Speed=22.500000m/h.</desc>
<speed>6.250000</speed>
</trkpt>
<trkpt lat="56.112991" lon="26.350559">
<ele>99.102600</ele>
<time>2010-08-29T16:12:31Z</time>
<desc>lat.=56.112991, lon.=26.350559, Alt.=99.102600m. Speed=21.888000m/h.</desc>
<speed>6.080000</speed>
</trkpt>
<trkpt lat="56.112938" lon="26.350588">
<ele>99.155334</ele>
<time>2010-08-29T16:12:32Z</time>
<desc>lat.=56.112938, lon.=26.350588, Alt.=99.155334m. Speed=21.420000m/h.</desc>
<speed>5.950000</speed>
</trkpt>
<trkpt lat="56.112881" lon="26.350615">
<ele>98.842834</ele>
<time>2010-08-29T16:12:33Z</time>
<desc>lat.=56.112881, lon.=26.350615, Alt.=98.842834m. Speed=21.996000m/h.</desc>
<speed>6.110000</speed>
</trkpt>
<trkpt lat="56.112823" lon="26.350649">
<ele>98.965881</ele>
<time>2010-08-29T16:12:34Z</time>
<desc>lat.=56.112823, lon.=26.350649, Alt.=98.965881m. Speed=22.392000m/h.</desc>
<speed>6.220000</speed>
</trkpt>
<trkpt lat="56.112770" lon="26.350677">
<ele>99.129944</ele>
<time>2010-08-29T16:12:35Z</time>
<desc>lat.=56.112770, lon.=26.350677, Alt.=99.129944m. Speed=23.148001m/h.</desc>
<speed>6.430000</speed>
</trkpt>
<trkpt lat="56.112717" lon="26.350710">
<ele>99.184631</ele>
<time>2010-08-29T16:12:36Z</time>
<desc>lat.=56.112717, lon.=26.350710, Alt.=99.184631m. Speed=22.356001m/h.</desc>
<speed>6.210000</speed>
</trkpt>
<trkpt lat="56.112663" lon="26.350742">
<ele>99.126038</ele>
<time>2010-08-29T16:12:37Z</time>
<desc>lat.=56.112663, lon.=26.350742, Alt.=99.126038m. Speed=22.680000m/h.</desc>
<speed>6.300000</speed>
</trkpt>
<trkpt lat="56.112610" lon="26.350769">
<ele>99.184631</ele>
<time>2010-08-29T16:12:38Z</time>
<desc>lat.=56.112610, lon.=26.350769, Alt.=99.184631m. Speed=20.448000m/h.</desc>
<speed>5.680000</speed>
</trkpt>
<trkpt lat="56.112560" lon="26.350794">
<ele>99.264709</ele>
<time>2010-08-29T16:12:39Z</time>
<desc>lat.=56.112560, lon.=26.350794, Alt.=99.264709m. Speed=21.528000m/h.</desc>
<speed>5.980000</speed>
</trkpt>
<trkpt lat="56.112503" lon="26.350819">
<ele>99.647522</ele>
<time>2010-08-29T16:12:40Z</time>
<desc>lat.=56.112503, lon.=26.350819, Alt.=99.647522m. Speed=22.860001m/h.</desc>
<speed>6.350000</speed>
</trkpt>
<trkpt lat="56.112446" lon="26.350853">
<ele>99.419006</ele>
<time>2010-08-29T16:12:41Z</time>
<desc>lat.=56.112446, lon.=26.350853, Alt.=99.419006m. Speed=23.472000m/h.</desc>
<speed>6.520000</speed>
</trkpt>
<trkpt lat="56.112389" lon="26.350883">
<ele>99.524475</ele>
<time>2010-08-29T16:12:42Z</time>
<desc>lat.=56.112389, lon.=26.350883, Alt.=99.524475m. Speed=24.048000m/h.</desc>
<speed>6.680000</speed>
</trkpt>
<trkpt lat="56.112328" lon="26.350910">
<ele>99.446350</ele>
<time>2010-08-29T16:12:43Z</time>
<desc>lat.=56.112328, lon.=26.350910, Alt.=99.446350m. Speed=24.084000m/h.</desc>
<speed>6.690000</speed>
</trkpt>
<trkpt lat="56.112270" lon="26.350939">
<ele>99.545959</ele>
<time>2010-08-29T16:12:44Z</time>
<desc>lat.=56.112270, lon.=26.350939, Alt.=99.545959m. Speed=24.084000m/h.</desc>
<speed>6.690000</speed>
</trkpt>
<trkpt lat="56.112213" lon="26.350969">
<ele>99.854553</ele>
<time>2010-08-29T16:12:45Z</time>
<desc>lat.=56.112213, lon.=26.350969, Alt.=99.854553m. Speed=24.156000m/h.</desc>
<speed>6.710000</speed>
</trkpt>
<trkpt lat="56.112156" lon="26.351004">
<ele>99.928772</ele>
<time>2010-08-29T16:12:46Z</time>
<desc>lat.=56.112156, lon.=26.351004, Alt.=99.928772m. Speed=24.516001m/h.</desc>
<speed>6.810000</speed>
</trkpt>
<trkpt lat="56.112095" lon="26.351038">
<ele>100.073303</ele>
<time>2010-08-29T16:12:47Z</time>
<desc>lat.=56.112095, lon.=26.351038, Alt.=100.073303m. Speed=24.624001m/h.</desc>
<speed>6.840000</speed>
</trkpt>
<trkpt lat="56.112038" lon="26.351072">
<ele>100.032288</ele>
<time>2010-08-29T16:12:48Z</time>
<desc>lat.=56.112038, lon.=26.351072, Alt.=100.032288m. Speed=24.875999m/h.</desc>
<speed>6.910000</speed>
</trkpt>
<trkpt lat="56.111980" lon="26.351107">
<ele>100.186584</ele>
<time>2010-08-29T16:12:49Z</time>
<desc>lat.=56.111980, lon.=26.351107, Alt.=100.186584m. Speed=24.804001m/h.</desc>
<speed>6.890000</speed>
</trkpt>
<trkpt lat="56.111919" lon="26.351143">
<ele>100.139709</ele>
<time>2010-08-29T16:12:50Z</time>
<desc>lat.=56.111919, lon.=26.351143, Alt.=100.139709m. Speed=24.444000m/h.</desc>
<speed>6.790000</speed>
</trkpt>
<trkpt lat="56.111862" lon="26.351173">
<ele>100.127991</ele>
<time>2010-08-29T16:12:51Z</time>
<desc>lat.=56.111862, lon.=26.351173, Alt.=100.127991m. Speed=23.724001m/h.</desc>
<speed>6.590000</speed>
</trkpt>
<trkpt lat="56.111805" lon="26.351204">
<ele>100.174866</ele>
<time>2010-08-29T16:12:52Z</time>
<desc>lat.=56.111805, lon.=26.351204, Alt.=100.174866m. Speed=23.148001m/h.</desc>
<speed>6.430000</speed>
</trkpt>
<trkpt lat="56.111748" lon="26.351236">
<ele>99.620178</ele>
<time>2010-08-29T16:12:53Z</time>
<desc>lat.=56.111748, lon.=26.351236, Alt.=99.620178m. Speed=22.896000m/h.</desc>
<speed>6.360000</speed>
</trkpt>
<trkpt lat="56.111691" lon="26.351269">
<ele>99.661194</ele>
<time>2010-08-29T16:12:54Z</time>
<desc>lat.=56.111691, lon.=26.351269, Alt.=99.661194m. Speed=23.184000m/h.</desc>
<speed>6.440000</speed>
</trkpt>
<trkpt lat="56.111637" lon="26.351299">
<ele>99.620178</ele>
<time>2010-08-29T16:12:55Z</time>
<desc>lat.=56.111637, lon.=26.351299, Alt.=99.620178m. Speed=23.615999m/h.</desc>
<speed>6.560000</speed>
</trkpt>
<trkpt lat="56.111576" lon="26.351332">
<ele>99.465881</ele>
<time>2010-08-29T16:12:56Z</time>
<desc>lat.=56.111576, lon.=26.351332, Alt.=99.465881m. Speed=24.084000m/h.</desc>
<speed>6.690000</speed>
</trkpt>
<trkpt lat="56.111519" lon="26.351362">
<ele>99.571350</ele>
<time>2010-08-29T16:12:57Z</time>
<desc>lat.=56.111519, lon.=26.351362, Alt.=99.571350m. Speed=24.768000m/h.</desc>
<speed>6.880000</speed>
</trkpt>
<trkpt lat="56.111462" lon="26.351393">
<ele>99.790100</ele>
<time>2010-08-29T16:12:58Z</time>
<desc>lat.=56.111462, lon.=26.351393, Alt.=99.790100m. Speed=24.624001m/h.</desc>
<speed>6.840000</speed>
</trkpt>
<trkpt lat="56.111408" lon="26.351423">
<ele>100.917053</ele>
<time>2010-08-29T16:12:59Z</time>
<desc>lat.=56.111408, lon.=26.351423, Alt.=100.917053m. Speed=25.740000m/h.</desc>
<speed>7.150000</speed>
</trkpt>
<trkpt lat="56.111343" lon="26.351460">
<ele>100.710022</ele>
<time>2010-08-29T16:13:00Z</time>
<desc>lat.=56.111343, lon.=26.351460, Alt.=100.710022m. Speed=24.948000m/h.</desc>
<speed>6.930000</speed>
</trkpt>
<trkpt lat="56.111282" lon="26.351492">
<ele>100.723694</ele>
<time>2010-08-29T16:13:01Z</time>
<desc>lat.=56.111282, lon.=26.351492, Alt.=100.723694m. Speed=24.156000m/h.</desc>
<speed>6.710000</speed>
</trkpt>
<trkpt lat="56.111225" lon="26.351524">
<ele>100.581116</ele>
<time>2010-08-29T16:13:02Z</time>
<desc>lat.=56.111225, lon.=26.351524, Alt.=100.581116m. Speed=23.940001m/h.</desc>
<speed>6.650000</speed>
</trkpt>
<trkpt lat="56.111172" lon="26.351553">
<ele>100.659241</ele>
<time>2010-08-29T16:13:03Z</time>
<desc>lat.=56.111172, lon.=26.351553, Alt.=100.659241m. Speed=22.680000m/h.</desc>
<speed>6.300000</speed>
</trkpt>
<trkpt lat="56.111115" lon="26.351580">
<ele>100.751038</ele>
<time>2010-08-29T16:13:04Z</time>
<desc>lat.=56.111115, lon.=26.351580, Alt.=100.751038m. Speed=24.120001m/h.</desc>
<speed>6.700000</speed>
</trkpt>
<trkpt lat="56.111057" lon="26.351610">
<ele>101.045959</ele>
<time>2010-08-29T16:13:05Z</time>
<desc>lat.=56.111057, lon.=26.351610, Alt.=101.045959m. Speed=23.364000m/h.</desc>
<speed>6.490000</speed>
</trkpt>
<trkpt lat="56.111000" lon="26.351645">
<ele>101.085022</ele>
<time>2010-08-29T16:13:06Z</time>
<desc>lat.=56.111000, lon.=26.351645, Alt.=101.085022m. Speed=23.760000m/h.</desc>
<speed>6.600000</speed>
</trkpt>
<trkpt lat="56.110943" lon="26.351677">
<ele>101.284241</ele>
<time>2010-08-29T16:13:07Z</time>
<desc>lat.=56.110943, lon.=26.351677, Alt.=101.284241m. Speed=24.191999m/h.</desc>
<speed>6.720000</speed>
</trkpt>
<trkpt lat="56.110889" lon="26.351706">
<ele>102.006897</ele>
<time>2010-08-29T16:13:08Z</time>
<desc>lat.=56.110889, lon.=26.351706, Alt.=102.006897m. Speed=24.228001m/h.</desc>
<speed>6.730000</speed>
</trkpt>
<trkpt lat="56.110832" lon="26.351736">
<ele>102.401428</ele>
<time>2010-08-29T16:13:09Z</time>
<desc>lat.=56.110832, lon.=26.351736, Alt.=102.401428m. Speed=24.048000m/h.</desc>
<speed>6.680000</speed>
</trkpt>
<trkpt lat="56.110771" lon="26.351767">
<ele>102.483459</ele>
<time>2010-08-29T16:13:10Z</time>
<desc>lat.=56.110771, lon.=26.351767, Alt.=102.483459m. Speed=24.228001m/h.</desc>
<speed>6.730000</speed>
</trkpt>
<trkpt lat="56.110714" lon="26.351797">
<ele>102.520569</ele>
<time>2010-08-29T16:13:11Z</time>
<desc>lat.=56.110714, lon.=26.351797, Alt.=102.520569m. Speed=22.716000m/h.</desc>
<speed>6.310000</speed>
</trkpt>
<trkpt lat="56.110653" lon="26.351831">
<ele>102.643616</ele>
<time>2010-08-29T16:13:12Z</time>
<desc>lat.=56.110653, lon.=26.351831, Alt.=102.643616m. Speed=22.896000m/h.</desc>
<speed>6.360000</speed>
</trkpt>
<trkpt lat="56.110600" lon="26.351868">
<ele>103.198303</ele>
<time>2010-08-29T16:13:13Z</time>
<desc>lat.=56.110600, lon.=26.351868, Alt.=103.198303m. Speed=21.780001m/h.</desc>
<speed>6.050000</speed>
</trkpt>
<trkpt lat="56.110542" lon="26.351892">
<ele>103.245178</ele>
<time>2010-08-29T16:13:14Z</time>
<desc>lat.=56.110542, lon.=26.351892, Alt.=103.245178m. Speed=22.176001m/h.</desc>
<speed>6.160000</speed>
</trkpt>
<trkpt lat="56.110489" lon="26.351923">
<ele>103.557678</ele>
<time>2010-08-29T16:13:15Z</time>
<desc>lat.=56.110489, lon.=26.351923, Alt.=103.557678m. Speed=21.455999m/h.</desc>
<speed>5.960000</speed>
</trkpt>
<trkpt lat="56.110435" lon="26.351952">
<ele>103.879944</ele>
<time>2010-08-29T16:13:16Z</time>
<desc>lat.=56.110435, lon.=26.351952, Alt.=103.879944m. Speed=20.700001m/h.</desc>
<speed>5.750000</speed>
</trkpt>
<trkpt lat="56.110386" lon="26.351984">
<ele>104.167053</ele>
<time>2010-08-29T16:13:17Z</time>
<desc>lat.=56.110386, lon.=26.351984, Alt.=104.167053m. Speed=21.492001m/h.</desc>
<speed>5.970000</speed>
</trkpt>
<trkpt lat="56.110332" lon="26.352009">
<ele>103.672913</ele>
<time>2010-08-29T16:13:18Z</time>
<desc>lat.=56.110332, lon.=26.352009, Alt.=103.672913m. Speed=22.392000m/h.</desc>
<speed>6.220000</speed>
</trkpt>
<trkpt lat="56.110275" lon="26.352034">
<ele>103.532288</ele>
<time>2010-08-29T16:13:19Z</time>
<desc>lat.=56.110275, lon.=26.352034, Alt.=103.532288m. Speed=23.364000m/h.</desc>
<speed>6.490000</speed>
</trkpt>
<trkpt lat="56.110218" lon="26.352066">
<ele>103.292053</ele>
<time>2010-08-29T16:13:20Z</time>
<desc>lat.=56.110218, lon.=26.352066, Alt.=103.292053m. Speed=23.976000m/h.</desc>
<speed>6.660000</speed>
</trkpt>
<trkpt lat="56.110157" lon="26.352093">
<ele>103.333069</ele>
<time>2010-08-29T16:13:21Z</time>
<desc>lat.=56.110157, lon.=26.352093, Alt.=103.333069m. Speed=24.191999m/h.</desc>
<speed>6.720000</speed>
</trkpt>
<trkpt lat="56.110100" lon="26.352119">
<ele>103.206116</ele>
<time>2010-08-29T16:13:22Z</time>
<desc>lat.=56.110100, lon.=26.352119, Alt.=103.206116m. Speed=24.552000m/h.</desc>
<speed>6.820000</speed>
</trkpt>
<trkpt lat="56.110043" lon="26.352150">
<ele>103.145569</ele>
<time>2010-08-29T16:13:23Z</time>
<desc>lat.=56.110043, lon.=26.352150, Alt.=103.145569m. Speed=24.120001m/h.</desc>
<speed>6.700000</speed>
</trkpt>
<trkpt lat="56.109982" lon="26.352182">
<ele>102.963928</ele>
<time>2010-08-29T16:13:24Z</time>
<desc>lat.=56.109982, lon.=26.352182, Alt.=102.963928m. Speed=23.976000m/h.</desc>
<speed>6.660000</speed>
</trkpt>
<trkpt lat="56.109924" lon="26.352217">
<ele>102.452209</ele>
<time>2010-08-29T16:13:25Z</time>
<desc>lat.=56.109924, lon.=26.352217, Alt.=102.452209m. Speed=24.660000m/h.</desc>
<speed>6.850000</speed>
</trkpt>
<trkpt lat="56.109863" lon="26.352249">
<ele>102.368225</ele>
<time>2010-08-29T16:13:26Z</time>
<desc>lat.=56.109863, lon.=26.352249, Alt.=102.368225m. Speed=24.840000m/h.</desc>
<speed>6.900000</speed>
</trkpt>
<trkpt lat="56.109806" lon="26.352280">
<ele>102.401428</ele>
<time>2010-08-29T16:13:27Z</time>
<desc>lat.=56.109806, lon.=26.352280, Alt.=102.401428m. Speed=24.660000m/h.</desc>
<speed>6.850000</speed>
</trkpt>
<trkpt lat="56.109749" lon="26.352310">
<ele>103.299866</ele>
<time>2010-08-29T16:13:28Z</time>
<desc>lat.=56.109749, lon.=26.352310, Alt.=103.299866m. Speed=24.336000m/h.</desc>
<speed>6.760000</speed>
</trkpt>
<trkpt lat="56.109688" lon="26.352343">
<ele>102.887756</ele>
<time>2010-08-29T16:13:29Z</time>
<desc>lat.=56.109688, lon.=26.352343, Alt.=102.887756m. Speed=24.875999m/h.</desc>
<speed>6.910000</speed>
</trkpt>
<trkpt lat="56.109627" lon="26.352381">
<ele>102.774475</ele>
<time>2010-08-29T16:13:30Z</time>
<desc>lat.=56.109627, lon.=26.352381, Alt.=102.774475m. Speed=25.308001m/h.</desc>
<speed>7.030000</speed>
</trkpt>
<trkpt lat="56.109566" lon="26.352413">
<ele>102.596741</ele>
<time>2010-08-29T16:13:31Z</time>
<desc>lat.=56.109566, lon.=26.352413, Alt.=102.596741m. Speed=25.775999m/h.</desc>
<speed>7.160000</speed>
</trkpt>
<trkpt lat="56.109505" lon="26.352444">
<ele>102.395569</ele>
<time>2010-08-29T16:13:32Z</time>
<desc>lat.=56.109505, lon.=26.352444, Alt.=102.395569m. Speed=25.379999m/h.</desc>
<speed>7.050000</speed>
</trkpt>
<trkpt lat="56.109444" lon="26.352478">
<ele>102.233459</ele>
<time>2010-08-29T16:13:33Z</time>
<desc>lat.=56.109444, lon.=26.352478, Alt.=102.233459m. Speed=24.732000m/h.</desc>
<speed>6.870000</speed>
</trkpt>
<trkpt lat="56.109386" lon="26.352509">
<ele>102.362366</ele>
<time>2010-08-29T16:13:34Z</time>
<desc>lat.=56.109386, lon.=26.352509, Alt.=102.362366m. Speed=24.048000m/h.</desc>
<speed>6.680000</speed>
</trkpt>
<trkpt lat="56.109329" lon="26.352541">
<ele>102.223694</ele>
<time>2010-08-29T16:13:35Z</time>
<desc>lat.=56.109329, lon.=26.352541, Alt.=102.223694m. Speed=23.364000m/h.</desc>
<speed>6.490000</speed>
</trkpt>
<trkpt lat="56.109276" lon="26.352570">
<ele>102.073303</ele>
<time>2010-08-29T16:13:36Z</time>
<desc>lat.=56.109276, lon.=26.352570, Alt.=102.073303m. Speed=22.788000m/h.</desc>
<speed>6.330000</speed>
</trkpt>
<trkpt lat="56.109222" lon="26.352598">
<ele>101.932678</ele>
<time>2010-08-29T16:13:37Z</time>
<desc>lat.=56.109222, lon.=26.352598, Alt.=101.932678m. Speed=22.068001m/h.</desc>
<speed>6.130000</speed>
</trkpt>
<trkpt lat="56.109173" lon="26.352627">
<ele>101.731506</ele>
<time>2010-08-29T16:13:38Z</time>
<desc>lat.=56.109173, lon.=26.352627, Alt.=101.731506m. Speed=21.743999m/h.</desc>
<speed>6.040000</speed>
</trkpt>
<trkpt lat="56.109119" lon="26.352659">
<ele>101.694397</ele>
<time>2010-08-29T16:13:39Z</time>
<desc>lat.=56.109119, lon.=26.352659, Alt.=101.694397m. Speed=22.572001m/h.</desc>
<speed>6.270000</speed>
</trkpt>
<trkpt lat="56.109066" lon="26.352690">
<ele>101.682678</ele>
<time>2010-08-29T16:13:40Z</time>
<desc>lat.=56.109066, lon.=26.352690, Alt.=101.682678m. Speed=22.931999m/h.</desc>
<speed>6.370000</speed>
</trkpt>
<trkpt lat="56.109009" lon="26.352716">
<ele>101.889709</ele>
<time>2010-08-29T16:13:41Z</time>
<desc>lat.=56.109009, lon.=26.352716, Alt.=101.889709m. Speed=23.292000m/h.</desc>
<speed>6.470000</speed>
</trkpt>
<trkpt lat="56.108952" lon="26.352745">
<ele>101.803772</ele>
<time>2010-08-29T16:13:42Z</time>
<desc>lat.=56.108952, lon.=26.352745, Alt.=101.803772m. Speed=23.364000m/h.</desc>
<speed>6.490000</speed>
</trkpt>
<trkpt lat="56.108894" lon="26.352776">
<ele>102.034241</ele>
<time>2010-08-29T16:13:43Z</time>
<desc>lat.=56.108894, lon.=26.352776, Alt.=102.034241m. Speed=23.615999m/h.</desc>
<speed>6.560000</speed>
</trkpt>
<trkpt lat="56.108841" lon="26.352806">
<ele>101.786194</ele>
<time>2010-08-29T16:13:44Z</time>
<desc>lat.=56.108841, lon.=26.352806, Alt.=101.786194m. Speed=23.292000m/h.</desc>
<speed>6.470000</speed>
</trkpt>
<trkpt lat="56.108784" lon="26.352839">
<ele>101.682678</ele>
<time>2010-08-29T16:13:45Z</time>
<desc>lat.=56.108784, lon.=26.352839, Alt.=101.682678m. Speed=22.716000m/h.</desc>
<speed>6.310000</speed>
</trkpt>
<trkpt lat="56.108730" lon="26.352865">
<ele>101.651428</ele>
<time>2010-08-29T16:13:46Z</time>
<desc>lat.=56.108730, lon.=26.352865, Alt.=101.651428m. Speed=21.743999m/h.</desc>
<speed>6.040000</speed>
</trkpt>
<trkpt lat="56.108681" lon="26.352892">
<ele>101.559631</ele>
<time>2010-08-29T16:13:47Z</time>
<desc>lat.=56.108681, lon.=26.352892, Alt.=101.559631m. Speed=21.528000m/h.</desc>
<speed>5.980000</speed>
</trkpt>
<trkpt lat="56.108631" lon="26.352921">
<ele>101.704163</ele>
<time>2010-08-29T16:13:48Z</time>
<desc>lat.=56.108631, lon.=26.352921, Alt.=101.704163m. Speed=20.736000m/h.</desc>
<speed>5.760000</speed>
</trkpt>
<trkpt lat="56.108582" lon="26.352949">
<ele>101.573303</ele>
<time>2010-08-29T16:13:49Z</time>
<desc>lat.=56.108582, lon.=26.352949, Alt.=101.573303m. Speed=20.304001m/h.</desc>
<speed>5.640000</speed>
</trkpt>
<trkpt lat="56.108532" lon="26.352978">
<ele>102.020569</ele>
<time>2010-08-29T16:13:50Z</time>
<desc>lat.=56.108532, lon.=26.352978, Alt.=102.020569m. Speed=20.844000m/h.</desc>
<speed>5.790000</speed>
</trkpt>
<trkpt lat="56.108482" lon="26.353003">
<ele>102.346741</ele>
<time>2010-08-29T16:13:51Z</time>
<desc>lat.=56.108482, lon.=26.353003, Alt.=102.346741m. Speed=21.348000m/h.</desc>
<speed>5.930000</speed>
</trkpt>
<trkpt lat="56.108429" lon="26.353033">
<ele>102.387756</ele>
<time>2010-08-29T16:13:52Z</time>
<desc>lat.=56.108429, lon.=26.353033, Alt.=102.387756m. Speed=22.032000m/h.</desc>
<speed>6.120000</speed>
</trkpt>
<trkpt lat="56.108379" lon="26.353064">
<ele>102.323303</ele>
<time>2010-08-29T16:13:53Z</time>
<desc>lat.=56.108379, lon.=26.353064, Alt.=102.323303m. Speed=22.320000m/h.</desc>
<speed>6.200000</speed>
</trkpt>
<trkpt lat="56.108326" lon="26.353096">
<ele>102.186584</ele>
<time>2010-08-29T16:13:54Z</time>
<desc>lat.=56.108326, lon.=26.353096, Alt.=102.186584m. Speed=22.247999m/h.</desc>
<speed>6.180000</speed>
</trkpt>
<trkpt lat="56.108273" lon="26.353127">
<ele>102.028381</ele>
<time>2010-08-29T16:13:55Z</time>
<desc>lat.=56.108273, lon.=26.353127, Alt.=102.028381m. Speed=22.680000m/h.</desc>
<speed>6.300000</speed>
</trkpt>
<trkpt lat="56.108219" lon="26.353159">
<ele>102.045959</ele>
<time>2010-08-29T16:13:56Z</time>
<desc>lat.=56.108219, lon.=26.353159, Alt.=102.045959m. Speed=22.968000m/h.</desc>
<speed>6.380000</speed>
</trkpt>
<trkpt lat="56.108162" lon="26.353189">
<ele>102.024475</ele>
<time>2010-08-29T16:13:57Z</time>
<desc>lat.=56.108162, lon.=26.353189, Alt.=102.024475m. Speed=22.392000m/h.</desc>
<speed>6.220000</speed>
</trkpt>
<trkpt lat="56.108109" lon="26.353216">
<ele>102.030334</ele>
<time>2010-08-29T16:13:58Z</time>
<desc>lat.=56.108109, lon.=26.353216, Alt.=102.030334m. Speed=21.816000m/h.</desc>
<speed>6.060000</speed>
</trkpt>
<trkpt lat="56.108059" lon="26.353245">
<ele>101.938538</ele>
<time>2010-08-29T16:13:59Z</time>
<desc>lat.=56.108059, lon.=26.353245, Alt.=101.938538m. Speed=22.068001m/h.</desc>
<speed>6.130000</speed>
</trkpt>
<trkpt lat="56.108006" lon="26.353279">
<ele>101.815491</ele>
<time>2010-08-29T16:14:00Z</time>
<desc>lat.=56.108006, lon.=26.353279, Alt.=101.815491m. Speed=22.320000m/h.</desc>
<speed>6.200000</speed>
</trkpt>
<trkpt lat="56.107952" lon="26.353310">
<ele>101.600647</ele>
<time>2010-08-29T16:14:01Z</time>
<desc>lat.=56.107952, lon.=26.353310, Alt.=101.600647m. Speed=22.931999m/h.</desc>
<speed>6.370000</speed>
</trkpt>
<trkpt lat="56.107895" lon="26.353338">
<ele>101.497131</ele>
<time>2010-08-29T16:14:02Z</time>
<desc>lat.=56.107895, lon.=26.353338, Alt.=101.497131m. Speed=22.752001m/h.</desc>
<speed>6.320000</speed>
</trkpt>
<trkpt lat="56.107838" lon="26.353363">
<ele>101.551819</ele>
<time>2010-08-29T16:14:03Z</time>
<desc>lat.=56.107838, lon.=26.353363, Alt.=101.551819m. Speed=23.724001m/h.</desc>
<speed>6.590000</speed>
</trkpt>
<trkpt lat="56.107784" lon="26.353395">
<ele>101.526428</ele>
<time>2010-08-29T16:14:04Z</time>
<desc>lat.=56.107784, lon.=26.353395, Alt.=101.526428m. Speed=22.680000m/h.</desc>
<speed>6.300000</speed>
</trkpt>
<trkpt lat="56.107731" lon="26.353426">
<ele>101.567444</ele>
<time>2010-08-29T16:14:05Z</time>
<desc>lat.=56.107731, lon.=26.353426, Alt.=101.567444m. Speed=22.356001m/h.</desc>
<speed>6.210000</speed>
</trkpt>
<trkpt lat="56.107677" lon="26.353458">
<ele>101.354553</ele>
<time>2010-08-29T16:14:06Z</time>
<desc>lat.=56.107677, lon.=26.353458, Alt.=101.354553m. Speed=21.924000m/h.</desc>
<speed>6.090000</speed>
</trkpt>
<trkpt lat="56.107624" lon="26.353485">
<ele>100.854553</ele>
<time>2010-08-29T16:14:07Z</time>
<desc>lat.=56.107624, lon.=26.353485, Alt.=100.854553m. Speed=22.535999m/h.</desc>
<speed>6.260000</speed>
</trkpt>
<trkpt lat="56.107571" lon="26.353514">
<ele>100.594788</ele>
<time>2010-08-29T16:14:08Z</time>
<desc>lat.=56.107571, lon.=26.353514, Alt.=100.594788m. Speed=22.896000m/h.</desc>
<speed>6.360000</speed>
</trkpt>
<trkpt lat="56.107517" lon="26.353544">
<ele>100.524475</ele>
<time>2010-08-29T16:14:09Z</time>
<desc>lat.=56.107517, lon.=26.353544, Alt.=100.524475m. Speed=22.572001m/h.</desc>
<speed>6.270000</speed>
</trkpt>
<trkpt lat="56.107464" lon="26.353571">
<ele>100.335022</ele>
<time>2010-08-29T16:14:10Z</time>
<desc>lat.=56.107464, lon.=26.353571, Alt.=100.335022m. Speed=22.176001m/h.</desc>
<speed>6.160000</speed>
</trkpt>
<trkpt lat="56.107410" lon="26.353598">
<ele>100.319397</ele>
<time>2010-08-29T16:14:11Z</time>
<desc>lat.=56.107410, lon.=26.353598, Alt.=100.319397m. Speed=22.104000m/h.</desc>
<speed>6.140000</speed>
</trkpt>
<trkpt lat="56.107357" lon="26.353624">
<ele>100.399475</ele>
<time>2010-08-29T16:14:12Z</time>
<desc>lat.=56.107357, lon.=26.353624, Alt.=100.399475m. Speed=21.204000m/h.</desc>
<speed>5.890000</speed>
</trkpt>
<trkpt lat="56.107307" lon="26.353653">
<ele>100.407288</ele>
<time>2010-08-29T16:14:13Z</time>
<desc>lat.=56.107307, lon.=26.353653, Alt.=100.407288m. Speed=20.988001m/h.</desc>
<speed>5.830000</speed>
</trkpt>
<trkpt lat="56.107258" lon="26.353683">
<ele>100.391663</ele>
<time>2010-08-29T16:14:14Z</time>
<desc>lat.=56.107258, lon.=26.353683, Alt.=100.391663m. Speed=20.771999m/h.</desc>
<speed>5.770000</speed>
</trkpt>
<trkpt lat="56.107208" lon="26.353708">
<ele>100.225647</ele>
<time>2010-08-29T16:14:15Z</time>
<desc>lat.=56.107208, lon.=26.353708, Alt.=100.225647m. Speed=21.672001m/h.</desc>
<speed>6.020000</speed>
</trkpt>
<trkpt lat="56.107159" lon="26.353739">
<ele>100.114319</ele>
<time>2010-08-29T16:14:16Z</time>
<desc>lat.=56.107159, lon.=26.353739, Alt.=100.114319m. Speed=21.743999m/h.</desc>
<speed>6.040000</speed>
</trkpt>
<trkpt lat="56.107105" lon="26.353764">
<ele>99.561584</ele>
<time>2010-08-29T16:14:17Z</time>
<desc>lat.=56.107105, lon.=26.353764, Alt.=99.561584m. Speed=22.680000m/h.</desc>
<speed>6.300000</speed>
</trkpt>
<trkpt lat="56.107056" lon="26.353792">
<ele>100.034241</ele>
<time>2010-08-29T16:14:18Z</time>
<desc>lat.=56.107056, lon.=26.353792, Alt.=100.034241m. Speed=22.823999m/h.</desc>
<speed>6.340000</speed>
</trkpt>
<trkpt lat="56.107002" lon="26.353825">
<ele>99.868225</ele>
<time>2010-08-29T16:14:19Z</time>
<desc>lat.=56.107002, lon.=26.353825, Alt.=99.868225m. Speed=23.292000m/h.</desc>
<speed>6.470000</speed>
</trkpt>
<trkpt lat="56.106945" lon="26.353851">
<ele>99.950256</ele>
<time>2010-08-29T16:14:20Z</time>
<desc>lat.=56.106945, lon.=26.353851, Alt.=99.950256m. Speed=23.292000m/h.</desc>
<speed>6.470000</speed>
</trkpt>
<trkpt lat="56.106888" lon="26.353880">
<ele>100.151428</ele>
<time>2010-08-29T16:14:21Z</time>
<desc>lat.=56.106888, lon.=26.353880, Alt.=100.151428m. Speed=23.364000m/h.</desc>
<speed>6.490000</speed>
</trkpt>
<trkpt lat="56.106831" lon="26.353914">
<ele>100.276428</ele>
<time>2010-08-29T16:14:22Z</time>
<desc>lat.=56.106831, lon.=26.353914, Alt.=100.276428m. Speed=23.868000m/h.</desc>
<speed>6.630000</speed>
</trkpt>
<trkpt lat="56.106777" lon="26.353947">
<ele>100.219788</ele>
<time>2010-08-29T16:14:23Z</time>
<desc>lat.=56.106777, lon.=26.353947, Alt.=100.219788m. Speed=22.788000m/h.</desc>
<speed>6.330000</speed>
</trkpt>
<trkpt lat="56.106724" lon="26.353970">
<ele>100.254944</ele>
<time>2010-08-29T16:14:24Z</time>
<desc>lat.=56.106724, lon.=26.353970, Alt.=100.254944m. Speed=22.464001m/h.</desc>
<speed>6.240000</speed>
</trkpt>
<trkpt lat="56.106670" lon="26.353994">
<ele>99.917053</ele>
<time>2010-08-29T16:14:25Z</time>
<desc>lat.=56.106670, lon.=26.353994, Alt.=99.917053m. Speed=21.743999m/h.</desc>
<speed>6.040000</speed>
</trkpt>
<trkpt lat="56.106621" lon="26.354017">
<ele>99.737366</ele>
<time>2010-08-29T16:14:26Z</time>
<desc>lat.=56.106621, lon.=26.354017, Alt.=99.737366m. Speed=21.312000m/h.</desc>
<speed>5.920000</speed>
</trkpt>
<trkpt lat="56.106571" lon="26.354042">
<ele>99.819397</ele>
<time>2010-08-29T16:14:27Z</time>
<desc>lat.=56.106571, lon.=26.354042, Alt.=99.819397m. Speed=20.844000m/h.</desc>
<speed>5.790000</speed>
</trkpt>
<trkpt lat="56.106522" lon="26.354071">
<ele>99.801819</ele>
<time>2010-08-29T16:14:28Z</time>
<desc>lat.=56.106522, lon.=26.354071, Alt.=99.801819m. Speed=21.096001m/h.</desc>
<speed>5.860000</speed>
</trkpt>
<trkpt lat="56.106472" lon="26.354105">
<ele>99.624084</ele>
<time>2010-08-29T16:14:29Z</time>
<desc>lat.=56.106472, lon.=26.354105, Alt.=99.624084m. Speed=20.628000m/h.</desc>
<speed>5.730000</speed>
</trkpt>
<trkpt lat="56.106419" lon="26.354137">
<ele>99.717834</ele>
<time>2010-08-29T16:14:30Z</time>
<desc>lat.=56.106419, lon.=26.354137, Alt.=99.717834m. Speed=21.240000m/h.</desc>
<speed>5.900000</speed>
</trkpt>
<trkpt lat="56.106369" lon="26.354166">
<ele>99.877991</ele>
<time>2010-08-29T16:14:31Z</time>
<desc>lat.=56.106369, lon.=26.354166, Alt.=99.877991m. Speed=22.104000m/h.</desc>
<speed>6.140000</speed>
</trkpt>
<trkpt lat="56.106316" lon="26.354193">
<ele>99.838928</ele>
<time>2010-08-29T16:14:32Z</time>
<desc>lat.=56.106316, lon.=26.354193, Alt.=99.838928m. Speed=22.320000m/h.</desc>
<speed>6.200000</speed>
</trkpt>
<trkpt lat="56.106262" lon="26.354227">
<ele>99.735413</ele>
<time>2010-08-29T16:14:33Z</time>
<desc>lat.=56.106262, lon.=26.354227, Alt.=99.735413m. Speed=23.076000m/h.</desc>
<speed>6.410000</speed>
</trkpt>
<trkpt lat="56.106209" lon="26.354258">
<ele>99.719788</ele>
<time>2010-08-29T16:14:34Z</time>
<desc>lat.=56.106209, lon.=26.354258, Alt.=99.719788m. Speed=23.652000m/h.</desc>
<speed>6.570000</speed>
</trkpt>
<trkpt lat="56.106152" lon="26.354290">
<ele>99.518616</ele>
<time>2010-08-29T16:14:35Z</time>
<desc>lat.=56.106152, lon.=26.354290, Alt.=99.518616m. Speed=23.796000m/h.</desc>
<speed>6.610000</speed>
</trkpt>
<trkpt lat="56.106094" lon="26.354313">
<ele>99.448303</ele>
<time>2010-08-29T16:14:36Z</time>
<desc>lat.=56.106094, lon.=26.354313, Alt.=99.448303m. Speed=24.011999m/h.</desc>
<speed>6.670000</speed>
</trkpt>
<trkpt lat="56.106037" lon="26.354342">
<ele>99.534241</ele>
<time>2010-08-29T16:14:37Z</time>
<desc>lat.=56.106037, lon.=26.354342, Alt.=99.534241m. Speed=23.940001m/h.</desc>
<speed>6.650000</speed>
</trkpt>
<trkpt lat="56.105980" lon="26.354372">
<ele>99.563538</ele>
<time>2010-08-29T16:14:38Z</time>
<desc>lat.=56.105980, lon.=26.354372, Alt.=99.563538m. Speed=23.544001m/h.</desc>
<speed>6.540000</speed>
</trkpt>
<trkpt lat="56.105923" lon="26.354403">
<ele>99.694397</ele>
<time>2010-08-29T16:14:39Z</time>
<desc>lat.=56.105923, lon.=26.354403, Alt.=99.694397m. Speed=23.004000m/h.</desc>
<speed>6.390000</speed>
</trkpt>
<trkpt lat="56.105869" lon="26.354427">
<ele>99.651428</ele>
<time>2010-08-29T16:14:40Z</time>
<desc>lat.=56.105869, lon.=26.354427, Alt.=99.651428m. Speed=23.327999m/h.</desc>
<speed>6.480000</speed>
</trkpt>
<trkpt lat="56.105808" lon="26.354460">
<ele>99.743225</ele>
<time>2010-08-29T16:14:41Z</time>
<desc>lat.=56.105808, lon.=26.354460, Alt.=99.743225m. Speed=24.120001m/h.</desc>
<speed>6.700000</speed>
</trkpt>
<trkpt lat="56.105751" lon="26.354492">
<ele>99.922913</ele>
<time>2010-08-29T16:14:42Z</time>
<desc>lat.=56.105751, lon.=26.354492, Alt.=99.922913m. Speed=24.624001m/h.</desc>
<speed>6.840000</speed>
</trkpt>
<trkpt lat="56.105690" lon="26.354525">
<ele>99.848694</ele>
<time>2010-08-29T16:14:43Z</time>
<desc>lat.=56.105690, lon.=26.354525, Alt.=99.848694m. Speed=25.200001m/h.</desc>
<speed>7.000000</speed>
</trkpt>
<trkpt lat="56.105633" lon="26.354557">
<ele>99.866272</ele>
<time>2010-08-29T16:14:44Z</time>
<desc>lat.=56.105633, lon.=26.354557, Alt.=99.866272m. Speed=25.488001m/h.</desc>
<speed>7.080000</speed>
</trkpt>
<trkpt lat="56.105568" lon="26.354589">
<ele>99.854553</ele>
<time>2010-08-29T16:14:45Z</time>
<desc>lat.=56.105568, lon.=26.354589, Alt.=99.854553m. Speed=26.208000m/h.</desc>
<speed>7.280000</speed>
</trkpt>
<trkpt lat="56.105507" lon="26.354624">
<ele>99.799866</ele>
<time>2010-08-29T16:14:46Z</time>
<desc>lat.=56.105507, lon.=26.354624, Alt.=99.799866m. Speed=26.496000m/h.</desc>
<speed>7.360000</speed>
</trkpt>
<trkpt lat="56.105442" lon="26.354658">
<ele>99.948303</ele>
<time>2010-08-29T16:14:47Z</time>
<desc>lat.=56.105442, lon.=26.354658, Alt.=99.948303m. Speed=26.784000m/h.</desc>
<speed>7.440000</speed>
</trkpt>
<trkpt lat="56.105377" lon="26.354692">
<ele>99.782288</ele>
<time>2010-08-29T16:14:48Z</time>
<desc>lat.=56.105377, lon.=26.354692, Alt.=99.782288m. Speed=26.532000m/h.</desc>
<speed>7.370000</speed>
</trkpt>
<trkpt lat="56.105312" lon="26.354723">
<ele>99.967834</ele>
<time>2010-08-29T16:14:49Z</time>
<desc>lat.=56.105312, lon.=26.354723, Alt.=99.967834m. Speed=25.740000m/h.</desc>
<speed>7.150000</speed>
</trkpt>
<trkpt lat="56.105251" lon="26.354759">
<ele>99.971741</ele>
<time>2010-08-29T16:14:50Z</time>
<desc>lat.=56.105251, lon.=26.354759, Alt.=99.971741m. Speed=25.379999m/h.</desc>
<speed>7.050000</speed>
</trkpt>
<trkpt lat="56.105190" lon="26.354794">
<ele>99.969788</ele>
<time>2010-08-29T16:14:51Z</time>
<desc>lat.=56.105190, lon.=26.354794, Alt.=99.969788m. Speed=25.955999m/h.</desc>
<speed>7.210000</speed>
</trkpt>
<trkpt lat="56.105129" lon="26.354828">
<ele>99.897522</ele>
<time>2010-08-29T16:14:52Z</time>
<desc>lat.=56.105129, lon.=26.354828, Alt.=99.897522m. Speed=26.712000m/h.</desc>
<speed>7.420000</speed>
</trkpt>
<trkpt lat="56.105064" lon="26.354864">
<ele>100.993225</ele>
<time>2010-08-29T16:14:53Z</time>
<desc>lat.=56.105064, lon.=26.354864, Alt.=100.993225m. Speed=27.072001m/h.</desc>
<speed>7.520000</speed>
</trkpt>
<trkpt lat="56.105000" lon="26.354898">
<ele>100.592834</ele>
<time>2010-08-29T16:14:54Z</time>
<desc>lat.=56.105000, lon.=26.354898, Alt.=100.592834m. Speed=27.936001m/h.</desc>
<speed>7.760000</speed>
</trkpt>
<trkpt lat="56.104931" lon="26.354931">
<ele>100.434631</ele>
<time>2010-08-29T16:14:55Z</time>
<desc>lat.=56.104931, lon.=26.354931, Alt.=100.434631m. Speed=27.396000m/h.</desc>
<speed>7.610000</speed>
</trkpt>
<trkpt lat="56.104866" lon="26.354965">
<ele>100.376038</ele>
<time>2010-08-29T16:14:56Z</time>
<desc>lat.=56.104866, lon.=26.354965, Alt.=100.376038m. Speed=26.747999m/h.</desc>
<speed>7.430000</speed>
</trkpt>
<trkpt lat="56.104801" lon="26.354998">
<ele>100.370178</ele>
<time>2010-08-29T16:14:57Z</time>
<desc>lat.=56.104801, lon.=26.354998, Alt.=100.370178m. Speed=25.992001m/h.</desc>
<speed>7.220000</speed>
</trkpt>
<trkpt lat="56.104740" lon="26.355030">
<ele>100.065491</ele>
<time>2010-08-29T16:14:58Z</time>
<desc>lat.=56.104740, lon.=26.355030, Alt.=100.065491m. Speed=25.920000m/h.</desc>
<speed>7.200000</speed>
</trkpt>
<trkpt lat="56.104675" lon="26.355066">
<ele>99.961975</ele>
<time>2010-08-29T16:14:59Z</time>
<desc>lat.=56.104675, lon.=26.355066, Alt.=99.961975m. Speed=25.271999m/h.</desc>
<speed>7.020000</speed>
</trkpt>
<trkpt lat="56.104614" lon="26.355103">
<ele>99.778381</ele>
<time>2010-08-29T16:15:00Z</time>
<desc>lat.=56.104614, lon.=26.355103, Alt.=99.778381m. Speed=25.632000m/h.</desc>
<speed>7.120000</speed>
</trkpt>
<trkpt lat="56.104553" lon="26.355139">
<ele>99.627991</ele>
<time>2010-08-29T16:15:01Z</time>
<desc>lat.=56.104553, lon.=26.355139, Alt.=99.627991m. Speed=25.775999m/h.</desc>
<speed>7.160000</speed>
</trkpt>
<trkpt lat="56.104492" lon="26.355175">
<ele>99.454163</ele>
<time>2010-08-29T16:15:02Z</time>
<desc>lat.=56.104492, lon.=26.355175, Alt.=99.454163m. Speed=25.955999m/h.</desc>
<speed>7.210000</speed>
</trkpt>
<trkpt lat="56.104431" lon="26.355209">
<ele>99.301819</ele>
<time>2010-08-29T16:15:03Z</time>
<desc>lat.=56.104431, lon.=26.355209, Alt.=99.301819m. Speed=26.208000m/h.</desc>
<speed>7.280000</speed>
</trkpt>
<trkpt lat="56.104366" lon="26.355244">
<ele>99.155334</ele>
<time>2010-08-29T16:15:04Z</time>
<desc>lat.=56.104366, lon.=26.355244, Alt.=99.155334m. Speed=26.280001m/h.</desc>
<speed>7.300000</speed>
</trkpt>
<trkpt lat="56.104305" lon="26.355278">
<ele>98.954163</ele>
<time>2010-08-29T16:15:05Z</time>
<desc>lat.=56.104305, lon.=26.355278, Alt.=98.954163m. Speed=26.532000m/h.</desc>
<speed>7.370000</speed>
</trkpt>
<trkpt lat="56.104240" lon="26.355314">
<ele>99.444397</ele>
<time>2010-08-29T16:15:06Z</time>
<desc>lat.=56.104240, lon.=26.355314, Alt.=99.444397m. Speed=26.676001m/h.</desc>
<speed>7.410000</speed>
</trkpt>
<trkpt lat="56.104176" lon="26.355350">
<ele>99.411194</ele>
<time>2010-08-29T16:15:07Z</time>
<desc>lat.=56.104176, lon.=26.355350, Alt.=99.411194m. Speed=26.820000m/h.</desc>
<speed>7.450000</speed>
</trkpt>
<trkpt lat="56.104111" lon="26.355383">
<ele>98.897522</ele>
<time>2010-08-29T16:15:08Z</time>
<desc>lat.=56.104111, lon.=26.355383, Alt.=98.897522m. Speed=27.000000m/h.</desc>
<speed>7.500000</speed>
</trkpt>
<trkpt lat="56.104050" lon="26.355417">
<ele>98.913147</ele>
<time>2010-08-29T16:15:09Z</time>
<desc>lat.=56.104050, lon.=26.355417, Alt.=98.913147m. Speed=27.108000m/h.</desc>
<speed>7.530000</speed>
</trkpt>
<trkpt lat="56.103985" lon="26.355452">
<ele>98.897522</ele>
<time>2010-08-29T16:15:10Z</time>
<desc>lat.=56.103985, lon.=26.355452, Alt.=98.897522m. Speed=27.540001m/h.</desc>
<speed>7.650000</speed>
</trkpt>
<trkpt lat="56.103916" lon="26.355488">
<ele>98.829163</ele>
<time>2010-08-29T16:15:11Z</time>
<desc>lat.=56.103916, lon.=26.355488, Alt.=98.829163m. Speed=27.648001m/h.</desc>
<speed>7.680000</speed>
</trkpt>
<trkpt lat="56.103851" lon="26.355522">
<ele>98.774475</ele>
<time>2010-08-29T16:15:12Z</time>
<desc>lat.=56.103851, lon.=26.355522, Alt.=98.774475m. Speed=28.007999m/h.</desc>
<speed>7.780000</speed>
</trkpt>
<trkpt lat="56.103783" lon="26.355558">
<ele>98.729553</ele>
<time>2010-08-29T16:15:13Z</time>
<desc>lat.=56.103783, lon.=26.355558, Alt.=98.729553m. Speed=27.684000m/h.</desc>
<speed>7.690000</speed>
</trkpt>
<trkpt lat="56.103718" lon="26.355597">
<ele>98.659241</ele>
<time>2010-08-29T16:15:14Z</time>
<desc>lat.=56.103718, lon.=26.355597, Alt.=98.659241m. Speed=26.892000m/h.</desc>
<speed>7.470000</speed>
</trkpt>
<trkpt lat="56.103657" lon="26.355631">
<ele>98.569397</ele>
<time>2010-08-29T16:15:15Z</time>
<desc>lat.=56.103657, lon.=26.355631, Alt.=98.569397m. Speed=26.496000m/h.</desc>
<speed>7.360000</speed>
</trkpt>
<trkpt lat="56.103596" lon="26.355665">
<ele>98.545959</ele>
<time>2010-08-29T16:15:16Z</time>
<desc>lat.=56.103596, lon.=26.355665, Alt.=98.545959m. Speed=26.280001m/h.</desc>
<speed>7.300000</speed>
</trkpt>
<trkpt lat="56.103531" lon="26.355700">
<ele>98.477600</ele>
<time>2010-08-29T16:15:17Z</time>
<desc>lat.=56.103531, lon.=26.355700, Alt.=98.477600m. Speed=26.604000m/h.</desc>
<speed>7.390000</speed>
</trkpt>
<trkpt lat="56.103466" lon="26.355732">
<ele>98.432678</ele>
<time>2010-08-29T16:15:18Z</time>
<desc>lat.=56.103466, lon.=26.355732, Alt.=98.432678m. Speed=26.712000m/h.</desc>
<speed>7.420000</speed>
</trkpt>
<trkpt lat="56.103401" lon="26.355770">
<ele>98.356506</ele>
<time>2010-08-29T16:15:19Z</time>
<desc>lat.=56.103401, lon.=26.355770, Alt.=98.356506m. Speed=27.216000m/h.</desc>
<speed>7.560000</speed>
</trkpt>
<trkpt lat="56.103340" lon="26.355806">
<ele>98.278381</ele>
<time>2010-08-29T16:15:20Z</time>
<desc>lat.=56.103340, lon.=26.355806, Alt.=98.278381m. Speed=27.648001m/h.</desc>
<speed>7.680000</speed>
</trkpt>
<trkpt lat="56.103271" lon="26.355843">
<ele>98.151428</ele>
<time>2010-08-29T16:15:21Z</time>
<desc>lat.=56.103271, lon.=26.355843, Alt.=98.151428m. Speed=27.792000m/h.</desc>
<speed>7.720000</speed>
</trkpt>
<trkpt lat="56.103207" lon="26.355879">
<ele>98.112366</ele>
<time>2010-08-29T16:15:22Z</time>
<desc>lat.=56.103207, lon.=26.355879, Alt.=98.112366m. Speed=27.719999m/h.</desc>
<speed>7.700000</speed>
</trkpt>
<trkpt lat="56.103142" lon="26.355915">
<ele>98.305725</ele>
<time>2010-08-29T16:15:23Z</time>
<desc>lat.=56.103142, lon.=26.355915, Alt.=98.305725m. Speed=27.936001m/h.</desc>
<speed>7.760000</speed>
</trkpt>
<trkpt lat="56.103077" lon="26.355949">
<ele>98.297913</ele>
<time>2010-08-29T16:15:24Z</time>
<desc>lat.=56.103077, lon.=26.355949, Alt.=98.297913m. Speed=28.368000m/h.</desc>
<speed>7.880000</speed>
</trkpt>
<trkpt lat="56.103008" lon="26.355991">
<ele>98.124084</ele>
<time>2010-08-29T16:15:25Z</time>
<desc>lat.=56.103008, lon.=26.355991, Alt.=98.124084m. Speed=28.944000m/h.</desc>
<speed>8.040000</speed>
</trkpt>
<trkpt lat="56.102940" lon="26.356033">
<ele>97.956116</ele>
<time>2010-08-29T16:15:26Z</time>
<desc>lat.=56.102940, lon.=26.356033, Alt.=97.956116m. Speed=29.232000m/h.</desc>
<speed>8.120000</speed>
</trkpt>
<trkpt lat="56.102871" lon="26.356073">
<ele>97.602600</ele>
<time>2010-08-29T16:15:27Z</time>
<desc>lat.=56.102871, lon.=26.356073, Alt.=97.602600m. Speed=29.375999m/h.</desc>
<speed>8.160000</speed>
</trkpt>
<trkpt lat="56.102798" lon="26.356112">
<ele>97.426819</ele>
<time>2010-08-29T16:15:28Z</time>
<desc>lat.=56.102798, lon.=26.356112, Alt.=97.426819m. Speed=29.340000m/h.</desc>
<speed>8.150000</speed>
</trkpt>
<trkpt lat="56.102730" lon="26.356150">
<ele>97.311584</ele>
<time>2010-08-29T16:15:29Z</time>
<desc>lat.=56.102730, lon.=26.356150, Alt.=97.311584m. Speed=29.520000m/h.</desc>
<speed>8.200000</speed>
</trkpt>
<trkpt lat="56.102657" lon="26.356190">
<ele>97.104553</ele>
<time>2010-08-29T16:15:30Z</time>
<desc>lat.=56.102657, lon.=26.356190, Alt.=97.104553m. Speed=28.476000m/h.</desc>
<speed>7.910000</speed>
</trkpt>
<trkpt lat="56.102592" lon="26.356230">
<ele>96.922913</ele>
<time>2010-08-29T16:15:31Z</time>
<desc>lat.=56.102592, lon.=26.356230, Alt.=96.922913m. Speed=28.332001m/h.</desc>
<speed>7.870000</speed>
</trkpt>
<trkpt lat="56.102528" lon="26.356270">
<ele>96.919006</ele>
<time>2010-08-29T16:15:32Z</time>
<desc>lat.=56.102528, lon.=26.356270, Alt.=96.919006m. Speed=27.719999m/h.</desc>
<speed>7.700000</speed>
</trkpt>
<trkpt lat="56.102463" lon="26.356306">
<ele>96.690491</ele>
<time>2010-08-29T16:15:33Z</time>
<desc>lat.=56.102463, lon.=26.356306, Alt.=96.690491m. Speed=26.784000m/h.</desc>
<speed>7.440000</speed>
</trkpt>
<trkpt lat="56.102398" lon="26.356339">
<ele>96.608459</ele>
<time>2010-08-29T16:15:34Z</time>
<desc>lat.=56.102398, lon.=26.356339, Alt.=96.608459m. Speed=26.424000m/h.</desc>
<speed>7.340000</speed>
</trkpt>
<trkpt lat="56.102337" lon="26.356369">
<ele>96.544006</ele>
<time>2010-08-29T16:15:35Z</time>
<desc>lat.=56.102337, lon.=26.356369, Alt.=96.544006m. Speed=25.775999m/h.</desc>
<speed>7.160000</speed>
</trkpt>
<trkpt lat="56.102276" lon="26.356398">
<ele>96.530334</ele>
<time>2010-08-29T16:15:36Z</time>
<desc>lat.=56.102276, lon.=26.356398, Alt.=96.530334m. Speed=25.271999m/h.</desc>
<speed>7.020000</speed>
</trkpt>
<trkpt lat="56.102215" lon="26.356432">
<ele>96.413147</ele>
<time>2010-08-29T16:15:37Z</time>
<desc>lat.=56.102215, lon.=26.356432, Alt.=96.413147m. Speed=25.200001m/h.</desc>
<speed>7.000000</speed>
</trkpt>
<trkpt lat="56.102158" lon="26.356466">
<ele>96.348694</ele>
<time>2010-08-29T16:15:38Z</time>
<desc>lat.=56.102158, lon.=26.356466, Alt.=96.348694m. Speed=25.091999m/h.</desc>
<speed>6.970000</speed>
</trkpt>
<trkpt lat="56.102097" lon="26.356501">
<ele>96.155334</ele>
<time>2010-08-29T16:15:39Z</time>
<desc>lat.=56.102097, lon.=26.356501, Alt.=96.155334m. Speed=25.488001m/h.</desc>
<speed>7.080000</speed>
</trkpt>
<trkpt lat="56.102036" lon="26.356531">
<ele>96.071350</ele>
<time>2010-08-29T16:15:40Z</time>
<desc>lat.=56.102036, lon.=26.356531, Alt.=96.071350m. Speed=25.920000m/h.</desc>
<speed>7.200000</speed>
</trkpt>
<trkpt lat="56.101974" lon="26.356564">
<ele>95.981506</ele>
<time>2010-08-29T16:15:41Z</time>
<desc>lat.=56.101974, lon.=26.356564, Alt.=95.981506m. Speed=26.280001m/h.</desc>
<speed>7.300000</speed>
</trkpt>
<trkpt lat="56.101910" lon="26.356598">
<ele>95.842834</ele>
<time>2010-08-29T16:15:42Z</time>
<desc>lat.=56.101910, lon.=26.356598, Alt.=95.842834m. Speed=26.459999m/h.</desc>
<speed>7.350000</speed>
</trkpt>
<trkpt lat="56.101845" lon="26.356630">
<ele>95.823303</ele>
<time>2010-08-29T16:15:43Z</time>
<desc>lat.=56.101845, lon.=26.356630, Alt.=95.823303m. Speed=26.568001m/h.</desc>
<speed>7.380000</speed>
</trkpt>
<trkpt lat="56.101784" lon="26.356667">
<ele>96.057678</ele>
<time>2010-08-29T16:15:44Z</time>
<desc>lat.=56.101784, lon.=26.356667, Alt.=96.057678m. Speed=26.604000m/h.</desc>
<speed>7.390000</speed>
</trkpt>
<trkpt lat="56.101719" lon="26.356701">
<ele>95.917053</ele>
<time>2010-08-29T16:15:45Z</time>
<desc>lat.=56.101719, lon.=26.356701, Alt.=95.917053m. Speed=26.964001m/h.</desc>
<speed>7.490000</speed>
</trkpt>
<trkpt lat="56.101654" lon="26.356739">
<ele>95.889709</ele>
<time>2010-08-29T16:15:46Z</time>
<desc>lat.=56.101654, lon.=26.356739, Alt.=95.889709m. Speed=27.360001m/h.</desc>
<speed>7.600000</speed>
</trkpt>
<trkpt lat="56.101589" lon="26.356771">
<ele>96.419006</ele>
<time>2010-08-29T16:15:47Z</time>
<desc>lat.=56.101589, lon.=26.356771, Alt.=96.419006m. Speed=27.288000m/h.</desc>
<speed>7.580000</speed>
</trkpt>
<trkpt lat="56.101524" lon="26.356806">
<ele>96.338928</ele>
<time>2010-08-29T16:15:48Z</time>
<desc>lat.=56.101524, lon.=26.356806, Alt.=96.338928m. Speed=27.827999m/h.</desc>
<speed>7.730000</speed>
</trkpt>
<trkpt lat="56.101456" lon="26.356844">
<ele>96.504944</ele>
<time>2010-08-29T16:15:49Z</time>
<desc>lat.=56.101456, lon.=26.356844, Alt.=96.504944m. Speed=27.972000m/h.</desc>
<speed>7.770000</speed>
</trkpt>
<trkpt lat="56.101391" lon="26.356880">
<ele>96.516663</ele>
<time>2010-08-29T16:15:50Z</time>
<desc>lat.=56.101391, lon.=26.356880, Alt.=96.516663m. Speed=28.511999m/h.</desc>
<speed>7.920000</speed>
</trkpt>
<trkpt lat="56.101322" lon="26.356915">
<ele>96.649475</ele>
<time>2010-08-29T16:15:51Z</time>
<desc>lat.=56.101322, lon.=26.356915, Alt.=96.649475m. Speed=28.728001m/h.</desc>
<speed>7.980000</speed>
</trkpt>
<trkpt lat="56.101254" lon="26.356951">
<ele>96.879944</ele>
<time>2010-08-29T16:15:52Z</time>
<desc>lat.=56.101254, lon.=26.356951, Alt.=96.879944m. Speed=28.764000m/h.</desc>
<speed>7.990000</speed>
</trkpt>
<trkpt lat="56.101185" lon="26.356991">
<ele>96.743225</ele>
<time>2010-08-29T16:15:53Z</time>
<desc>lat.=56.101185, lon.=26.356991, Alt.=96.743225m. Speed=29.304001m/h.</desc>
<speed>8.140000</speed>
</trkpt>
<trkpt lat="56.101116" lon="26.357029">
<ele>97.124084</ele>
<time>2010-08-29T16:15:54Z</time>
<desc>lat.=56.101116, lon.=26.357029, Alt.=97.124084m. Speed=29.340000m/h.</desc>
<speed>8.150000</speed>
</trkpt>
<trkpt lat="56.101044" lon="26.357067">
<ele>97.231506</ele>
<time>2010-08-29T16:15:55Z</time>
<desc>lat.=56.101044, lon.=26.357067, Alt.=97.231506m. Speed=29.556000m/h.</desc>
<speed>8.210000</speed>
</trkpt>
<trkpt lat="56.100975" lon="26.357109">
<ele>97.438538</ele>
<time>2010-08-29T16:15:56Z</time>
<desc>lat.=56.100975, lon.=26.357109, Alt.=97.438538m. Speed=29.916000m/h.</desc>
<speed>8.310000</speed>
</trkpt>
<trkpt lat="56.100903" lon="26.357151">
<ele>97.799866</ele>
<time>2010-08-29T16:15:57Z</time>
<desc>lat.=56.100903, lon.=26.357151, Alt.=97.799866m. Speed=30.059999m/h.</desc>
<speed>8.350000</speed>
</trkpt>
<trkpt lat="56.100830" lon="26.357193">
<ele>97.626038</ele>
<time>2010-08-29T16:15:58Z</time>
<desc>lat.=56.100830, lon.=26.357193, Alt.=97.626038m. Speed=30.600000m/h.</desc>
<speed>8.500000</speed>
</trkpt>
<trkpt lat="56.100758" lon="26.357233">
<ele>97.438538</ele>
<time>2010-08-29T16:15:59Z</time>
<desc>lat.=56.100758, lon.=26.357233, Alt.=97.438538m. Speed=30.672001m/h.</desc>
<speed>8.520000</speed>
</trkpt>
<trkpt lat="56.100685" lon="26.357273">
<ele>97.151428</ele>
<time>2010-08-29T16:16:00Z</time>
<desc>lat.=56.100685, lon.=26.357273, Alt.=97.151428m. Speed=30.204000m/h.</desc>
<speed>8.390000</speed>
</trkpt>
<trkpt lat="56.100616" lon="26.357311">
<ele>97.110413</ele>
<time>2010-08-29T16:16:01Z</time>
<desc>lat.=56.100616, lon.=26.357311, Alt.=97.110413m. Speed=29.483999m/h.</desc>
<speed>8.190000</speed>
</trkpt>
<trkpt lat="56.100552" lon="26.357351">
<ele>97.196350</ele>
<time>2010-08-29T16:16:02Z</time>
<desc>lat.=56.100552, lon.=26.357351, Alt.=97.196350m. Speed=28.764000m/h.</desc>
<speed>7.990000</speed>
</trkpt>
<trkpt lat="56.100483" lon="26.357386">
<ele>97.561584</ele>
<time>2010-08-29T16:16:03Z</time>
<desc>lat.=56.100483, lon.=26.357386, Alt.=97.561584m. Speed=27.792000m/h.</desc>
<speed>7.720000</speed>
</trkpt>
<trkpt lat="56.100418" lon="26.357418">
<ele>97.471741</ele>
<time>2010-08-29T16:16:04Z</time>
<desc>lat.=56.100418, lon.=26.357418, Alt.=97.471741m. Speed=27.360001m/h.</desc>
<speed>7.600000</speed>
</trkpt>
<trkpt lat="56.100353" lon="26.357454">
<ele>97.760803</ele>
<time>2010-08-29T16:16:05Z</time>
<desc>lat.=56.100353, lon.=26.357454, Alt.=97.760803m. Speed=26.964001m/h.</desc>
<speed>7.490000</speed>
</trkpt>
<trkpt lat="56.100288" lon="26.357494">
<ele>97.754944</ele>
<time>2010-08-29T16:16:06Z</time>
<desc>lat.=56.100288, lon.=26.357494, Alt.=97.754944m. Speed=26.964001m/h.</desc>
<speed>7.490000</speed>
</trkpt>
<trkpt lat="56.100224" lon="26.357529">
<ele>97.887756</ele>
<time>2010-08-29T16:16:07Z</time>
<desc>lat.=56.100224, lon.=26.357529, Alt.=97.887756m. Speed=27.252001m/h.</desc>
<speed>7.570000</speed>
</trkpt>
<trkpt lat="56.100159" lon="26.357563">
<ele>97.682678</ele>
<time>2010-08-29T16:16:08Z</time>
<desc>lat.=56.100159, lon.=26.357563, Alt.=97.682678m. Speed=27.684000m/h.</desc>
<speed>7.690000</speed>
</trkpt>
<trkpt lat="56.100094" lon="26.357597">
<ele>97.827209</ele>
<time>2010-08-29T16:16:09Z</time>
<desc>lat.=56.100094, lon.=26.357597, Alt.=97.827209m. Speed=28.044001m/h.</desc>
<speed>7.790000</speed>
</trkpt>
<trkpt lat="56.100025" lon="26.357635">
<ele>97.840881</ele>
<time>2010-08-29T16:16:10Z</time>
<desc>lat.=56.100025, lon.=26.357635, Alt.=97.840881m. Speed=28.260000m/h.</desc>
<speed>7.850000</speed>
</trkpt>
<trkpt lat="56.099957" lon="26.357674">
<ele>97.885803</ele>
<time>2010-08-29T16:16:11Z</time>
<desc>lat.=56.099957, lon.=26.357674, Alt.=97.885803m. Speed=28.620001m/h.</desc>
<speed>7.950000</speed>
</trkpt>
<trkpt lat="56.099888" lon="26.357712">
<ele>98.325256</ele>
<time>2010-08-29T16:16:12Z</time>
<desc>lat.=56.099888, lon.=26.357712, Alt.=98.325256m. Speed=28.908001m/h.</desc>
<speed>8.030000</speed>
</trkpt>
<trkpt lat="56.099819" lon="26.357752">
<ele>98.532288</ele>
<time>2010-08-29T16:16:13Z</time>
<desc>lat.=56.099819, lon.=26.357752, Alt.=98.532288m. Speed=28.908001m/h.</desc>
<speed>8.030000</speed>
</trkpt>
<trkpt lat="56.099751" lon="26.357792">
<ele>98.590881</ele>
<time>2010-08-29T16:16:14Z</time>
<desc>lat.=56.099751, lon.=26.357792, Alt.=98.590881m. Speed=29.232000m/h.</desc>
<speed>8.120000</speed>
</trkpt>
<trkpt lat="56.099682" lon="26.357832">
<ele>98.731506</ele>
<time>2010-08-29T16:16:15Z</time>
<desc>lat.=56.099682, lon.=26.357832, Alt.=98.731506m. Speed=29.160000m/h.</desc>
<speed>8.100000</speed>
</trkpt>
<trkpt lat="56.099613" lon="26.357868">
<ele>99.067444</ele>
<time>2010-08-29T16:16:16Z</time>
<desc>lat.=56.099613, lon.=26.357868, Alt.=99.067444m. Speed=28.908001m/h.</desc>
<speed>8.030000</speed>
</trkpt>
<trkpt lat="56.099545" lon="26.357904">
<ele>99.370178</ele>
<time>2010-08-29T16:16:17Z</time>
<desc>lat.=56.099545, lon.=26.357904, Alt.=99.370178m. Speed=28.188000m/h.</desc>
<speed>7.830000</speed>
</trkpt>
<trkpt lat="56.099476" lon="26.357943">
<ele>99.690491</ele>
<time>2010-08-29T16:16:18Z</time>
<desc>lat.=56.099476, lon.=26.357943, Alt.=99.690491m. Speed=27.576000m/h.</desc>
<speed>7.660000</speed>
</trkpt>
<trkpt lat="56.099411" lon="26.357981">
<ele>99.991272</ele>
<time>2010-08-29T16:16:19Z</time>
<desc>lat.=56.099411, lon.=26.357981, Alt.=99.991272m. Speed=26.639999m/h.</desc>
<speed>7.400000</speed>
</trkpt>
<trkpt lat="56.099346" lon="26.358015">
<ele>100.297913</ele>
<time>2010-08-29T16:16:20Z</time>
<desc>lat.=56.099346, lon.=26.358015, Alt.=100.297913m. Speed=26.172001m/h.</desc>
<speed>7.270000</speed>
</trkpt>
<trkpt lat="56.099285" lon="26.358046">
<ele>100.614319</ele>
<time>2010-08-29T16:16:21Z</time>
<desc>lat.=56.099285, lon.=26.358046, Alt.=100.614319m. Speed=25.452000m/h.</desc>
<speed>7.070000</speed>
</trkpt>
<trkpt lat="56.099224" lon="26.358074">
<ele>100.948303</ele>
<time>2010-08-29T16:16:22Z</time>
<desc>lat.=56.099224, lon.=26.358074, Alt.=100.948303m. Speed=24.948000m/h.</desc>
<speed>6.930000</speed>
</trkpt>
<trkpt lat="56.099163" lon="26.358105">
<ele>101.141663</ele>
<time>2010-08-29T16:16:23Z</time>
<desc>lat.=56.099163, lon.=26.358105, Alt.=101.141663m. Speed=24.804001m/h.</desc>
<speed>6.890000</speed>
</trkpt>
<trkpt lat="56.099106" lon="26.358141">
<ele>101.399475</ele>
<time>2010-08-29T16:16:24Z</time>
<desc>lat.=56.099106, lon.=26.358141, Alt.=101.399475m. Speed=25.308001m/h.</desc>
<speed>7.030000</speed>
</trkpt>
<trkpt lat="56.099041" lon="26.358179">
<ele>100.883850</ele>
<time>2010-08-29T16:16:25Z</time>
<desc>lat.=56.099041, lon.=26.358179, Alt.=100.883850m. Speed=25.955999m/h.</desc>
<speed>7.210000</speed>
</trkpt>
<trkpt lat="56.098980" lon="26.358213">
<ele>100.883850</ele>
<time>2010-08-29T16:16:26Z</time>
<desc>lat.=56.098980, lon.=26.358213, Alt.=100.883850m. Speed=26.388000m/h.</desc>
<speed>7.330000</speed>
</trkpt>
<trkpt lat="56.098919" lon="26.358248">
<ele>100.711975</ele>
<time>2010-08-29T16:16:27Z</time>
<desc>lat.=56.098919, lon.=26.358248, Alt.=100.711975m. Speed=26.676001m/h.</desc>
<speed>7.410000</speed>
</trkpt>
<trkpt lat="56.098854" lon="26.358280">
<ele>100.540100</ele>
<time>2010-08-29T16:16:28Z</time>
<desc>lat.=56.098854, lon.=26.358280, Alt.=100.540100m. Speed=26.927999m/h.</desc>
<speed>7.480000</speed>
</trkpt>
<trkpt lat="56.098789" lon="26.358316">
<ele>100.151428</ele>
<time>2010-08-29T16:16:29Z</time>
<desc>lat.=56.098789, lon.=26.358316, Alt.=100.151428m. Speed=27.360001m/h.</desc>
<speed>7.600000</speed>
</trkpt>
<trkpt lat="56.098724" lon="26.358353">
<ele>100.085022</ele>
<time>2010-08-29T16:16:30Z</time>
<desc>lat.=56.098724, lon.=26.358353, Alt.=100.085022m. Speed=27.216000m/h.</desc>
<speed>7.560000</speed>
</trkpt>
<trkpt lat="56.098660" lon="26.358389">
<ele>100.088928</ele>
<time>2010-08-29T16:16:31Z</time>
<desc>lat.=56.098660, lon.=26.358389, Alt.=100.088928m. Speed=27.360001m/h.</desc>
<speed>7.600000</speed>
</trkpt>
<trkpt lat="56.098598" lon="26.358423">
<ele>100.243225</ele>
<time>2010-08-29T16:16:32Z</time>
<desc>lat.=56.098598, lon.=26.358423, Alt.=100.243225m. Speed=27.504000m/h.</desc>
<speed>7.640000</speed>
</trkpt>
<trkpt lat="56.098530" lon="26.358458">
<ele>100.411194</ele>
<time>2010-08-29T16:16:33Z</time>
<desc>lat.=56.098530, lon.=26.358458, Alt.=100.411194m. Speed=27.431999m/h.</desc>
<speed>7.620000</speed>
</trkpt>
<trkpt lat="56.098465" lon="26.358492">
<ele>100.419006</ele>
<time>2010-08-29T16:16:34Z</time>
<desc>lat.=56.098465, lon.=26.358492, Alt.=100.419006m. Speed=27.648001m/h.</desc>
<speed>7.680000</speed>
</trkpt>
<trkpt lat="56.098400" lon="26.358526">
<ele>100.415100</ele>
<time>2010-08-29T16:16:35Z</time>
<desc>lat.=56.098400, lon.=26.358526, Alt.=100.415100m. Speed=27.540001m/h.</desc>
<speed>7.650000</speed>
</trkpt>
<trkpt lat="56.098331" lon="26.358564">
<ele>100.198303</ele>
<time>2010-08-29T16:16:36Z</time>
<desc>lat.=56.098331, lon.=26.358564, Alt.=100.198303m. Speed=28.007999m/h.</desc>
<speed>7.780000</speed>
</trkpt>
<trkpt lat="56.098267" lon="26.358601">
<ele>99.899475</ele>
<time>2010-08-29T16:16:37Z</time>
<desc>lat.=56.098267, lon.=26.358601, Alt.=99.899475m. Speed=27.576000m/h.</desc>
<speed>7.660000</speed>
</trkpt>
<trkpt lat="56.098202" lon="26.358639">
<ele>100.100647</ele>
<time>2010-08-29T16:16:38Z</time>
<desc>lat.=56.098202, lon.=26.358639, Alt.=100.100647m. Speed=26.747999m/h.</desc>
<speed>7.430000</speed>
</trkpt>
<trkpt lat="56.098137" lon="26.358677">
<ele>100.059631</ele>
<time>2010-08-29T16:16:39Z</time>
<desc>lat.=56.098137, lon.=26.358677, Alt.=100.059631m. Speed=26.028000m/h.</desc>
<speed>7.230000</speed>
</trkpt>
<trkpt lat="56.098076" lon="26.358711">
<ele>99.946350</ele>
<time>2010-08-29T16:16:40Z</time>
<desc>lat.=56.098076, lon.=26.358711, Alt.=99.946350m. Speed=25.416000m/h.</desc>
<speed>7.060000</speed>
</trkpt>
<trkpt lat="56.098019" lon="26.358740">
<ele>99.879944</ele>
<time>2010-08-29T16:16:41Z</time>
<desc>lat.=56.098019, lon.=26.358740, Alt.=99.879944m. Speed=24.875999m/h.</desc>
<speed>6.910000</speed>
</trkpt>
<trkpt lat="56.097961" lon="26.358776">
<ele>100.073303</ele>
<time>2010-08-29T16:16:42Z</time>
<desc>lat.=56.097961, lon.=26.358776, Alt.=100.073303m. Speed=25.379999m/h.</desc>
<speed>7.050000</speed>
</trkpt>
<trkpt lat="56.097900" lon="26.358809">
<ele>100.038147</ele>
<time>2010-08-29T16:16:43Z</time>
<desc>lat.=56.097900, lon.=26.358809, Alt.=100.038147m. Speed=25.667999m/h.</desc>
<speed>7.130000</speed>
</trkpt>
<trkpt lat="56.097839" lon="26.358843">
<ele>100.577209</ele>
<time>2010-08-29T16:16:44Z</time>
<desc>lat.=56.097839, lon.=26.358843, Alt.=100.577209m. Speed=26.063999m/h.</desc>
<speed>7.240000</speed>
</trkpt>
<trkpt lat="56.097778" lon="26.358870">
<ele>100.585022</ele>
<time>2010-08-29T16:16:45Z</time>
<desc>lat.=56.097778, lon.=26.358870, Alt.=100.585022m. Speed=26.388000m/h.</desc>
<speed>7.330000</speed>
</trkpt>
<trkpt lat="56.097713" lon="26.358904">
<ele>100.602600</ele>
<time>2010-08-29T16:16:46Z</time>
<desc>lat.=56.097713, lon.=26.358904, Alt.=100.602600m. Speed=26.820000m/h.</desc>
<speed>7.450000</speed>
</trkpt>
<trkpt lat="56.097652" lon="26.358942">
<ele>100.713928</ele>
<time>2010-08-29T16:16:47Z</time>
<desc>lat.=56.097652, lon.=26.358942, Alt.=100.713928m. Speed=27.180000m/h.</desc>
<speed>7.550000</speed>
</trkpt>
<trkpt lat="56.097588" lon="26.358982">
<ele>100.821350</ele>
<time>2010-08-29T16:16:48Z</time>
<desc>lat.=56.097588, lon.=26.358982, Alt.=100.821350m. Speed=27.360001m/h.</desc>
<speed>7.600000</speed>
</trkpt>
<trkpt lat="56.097523" lon="26.359015">
<ele>101.063538</ele>
<time>2010-08-29T16:16:49Z</time>
<desc>lat.=56.097523, lon.=26.359015, Alt.=101.063538m. Speed=27.612000m/h.</desc>
<speed>7.670000</speed>
</trkpt>
<trkpt lat="56.097458" lon="26.359047">
<ele>101.149475</ele>
<time>2010-08-29T16:16:50Z</time>
<desc>lat.=56.097458, lon.=26.359047, Alt.=101.149475m. Speed=27.576000m/h.</desc>
<speed>7.660000</speed>
</trkpt>
<trkpt lat="56.097393" lon="26.359077">
<ele>101.211975</ele>
<time>2010-08-29T16:16:51Z</time>
<desc>lat.=56.097393, lon.=26.359077, Alt.=101.211975m. Speed=26.820000m/h.</desc>
<speed>7.450000</speed>
</trkpt>
<trkpt lat="56.097328" lon="26.359118">
<ele>101.417053</ele>
<time>2010-08-29T16:16:52Z</time>
<desc>lat.=56.097328, lon.=26.359118, Alt.=101.417053m. Speed=26.208000m/h.</desc>
<speed>7.280000</speed>
</trkpt>
<trkpt lat="56.097267" lon="26.359152">
<ele>101.563538</ele>
<time>2010-08-29T16:16:53Z</time>
<desc>lat.=56.097267, lon.=26.359152, Alt.=101.563538m. Speed=26.028000m/h.</desc>
<speed>7.230000</speed>
</trkpt>
<trkpt lat="56.097206" lon="26.359186">
<ele>101.665100</ele>
<time>2010-08-29T16:16:54Z</time>
<desc>lat.=56.097206, lon.=26.359186, Alt.=101.665100m. Speed=26.063999m/h.</desc>
<speed>7.240000</speed>
</trkpt>
<trkpt lat="56.097141" lon="26.359219">
<ele>101.792053</ele>
<time>2010-08-29T16:16:55Z</time>
<desc>lat.=56.097141, lon.=26.359219, Alt.=101.792053m. Speed=26.136000m/h.</desc>
<speed>7.260000</speed>
</trkpt>
<trkpt lat="56.097080" lon="26.359257">
<ele>101.879944</ele>
<time>2010-08-29T16:16:56Z</time>
<desc>lat.=56.097080, lon.=26.359257, Alt.=101.879944m. Speed=26.424000m/h.</desc>
<speed>7.340000</speed>
</trkpt>
<trkpt lat="56.097015" lon="26.359291">
<ele>101.920959</ele>
<time>2010-08-29T16:16:57Z</time>
<desc>lat.=56.097015, lon.=26.359291, Alt.=101.920959m. Speed=26.676001m/h.</desc>
<speed>7.410000</speed>
</trkpt>
<trkpt lat="56.096954" lon="26.359331">
<ele>101.835022</ele>
<time>2010-08-29T16:16:58Z</time>
<desc>lat.=56.096954, lon.=26.359331, Alt.=101.835022m. Speed=26.604000m/h.</desc>
<speed>7.390000</speed>
</trkpt>
<trkpt lat="56.096889" lon="26.359364">
<ele>101.862366</ele>
<time>2010-08-29T16:16:59Z</time>
<desc>lat.=56.096889, lon.=26.359364, Alt.=101.862366m. Speed=26.063999m/h.</desc>
<speed>7.240000</speed>
</trkpt>
<trkpt lat="56.096828" lon="26.359398">
<ele>101.969788</ele>
<time>2010-08-29T16:17:00Z</time>
<desc>lat.=56.096828, lon.=26.359398, Alt.=101.969788m. Speed=25.164000m/h.</desc>
<speed>6.990000</speed>
</trkpt>
<trkpt lat="56.096767" lon="26.359428">
<ele>102.028381</ele>
<time>2010-08-29T16:17:01Z</time>
<desc>lat.=56.096767, lon.=26.359428, Alt.=102.028381m. Speed=24.408001m/h.</desc>
<speed>6.780000</speed>
</trkpt>
<trkpt lat="56.096710" lon="26.359455">
<ele>102.071350</ele>
<time>2010-08-29T16:17:02Z</time>
<desc>lat.=56.096710, lon.=26.359455, Alt.=102.071350m. Speed=23.832001m/h.</desc>
<speed>6.620000</speed>
</trkpt>
<trkpt lat="56.096653" lon="26.359497">
<ele>101.948303</ele>
<time>2010-08-29T16:17:03Z</time>
<desc>lat.=56.096653, lon.=26.359497, Alt.=101.948303m. Speed=23.652000m/h.</desc>
<speed>6.570000</speed>
</trkpt>
<trkpt lat="56.096596" lon="26.359528">
<ele>101.954163</ele>
<time>2010-08-29T16:17:04Z</time>
<desc>lat.=56.096596, lon.=26.359528, Alt.=101.954163m. Speed=23.903999m/h.</desc>
<speed>6.640000</speed>
</trkpt>
<trkpt lat="56.096535" lon="26.359556">
<ele>101.848694</ele>
<time>2010-08-29T16:17:05Z</time>
<desc>lat.=56.096535, lon.=26.359556, Alt.=101.848694m. Speed=24.480000m/h.</desc>
<speed>6.800000</speed>
</trkpt>
<trkpt lat="56.096481" lon="26.359589">
<ele>102.032288</ele>
<time>2010-08-29T16:17:06Z</time>
<desc>lat.=56.096481, lon.=26.359589, Alt.=102.032288m. Speed=25.020000m/h.</desc>
<speed>6.950000</speed>
</trkpt>
<trkpt lat="56.096420" lon="26.359623">
<ele>102.235413</ele>
<time>2010-08-29T16:17:07Z</time>
<desc>lat.=56.096420, lon.=26.359623, Alt.=102.235413m. Speed=25.091999m/h.</desc>
<speed>6.970000</speed>
</trkpt>
<trkpt lat="56.096363" lon="26.359659">
<ele>102.366272</ele>
<time>2010-08-29T16:17:08Z</time>
<desc>lat.=56.096363, lon.=26.359659, Alt.=102.366272m. Speed=25.056000m/h.</desc>
<speed>6.960000</speed>
</trkpt>
<trkpt lat="56.096302" lon="26.359697">
<ele>102.618225</ele>
<time>2010-08-29T16:17:09Z</time>
<desc>lat.=56.096302, lon.=26.359697, Alt.=102.618225m. Speed=25.704000m/h.</desc>
<speed>7.140000</speed>
</trkpt>
<trkpt lat="56.096241" lon="26.359730">
<ele>103.036194</ele>
<time>2010-08-29T16:17:10Z</time>
<desc>lat.=56.096241, lon.=26.359730, Alt.=103.036194m. Speed=25.812000m/h.</desc>
<speed>7.170000</speed>
</trkpt>
<trkpt lat="56.096180" lon="26.359766">
<ele>103.317444</ele>
<time>2010-08-29T16:17:11Z</time>
<desc>lat.=56.096180, lon.=26.359766, Alt.=103.317444m. Speed=26.316000m/h.</desc>
<speed>7.310000</speed>
</trkpt>
<trkpt lat="56.096119" lon="26.359804">
<ele>103.442444</ele>
<time>2010-08-29T16:17:12Z</time>
<desc>lat.=56.096119, lon.=26.359804, Alt.=103.442444m. Speed=26.676001m/h.</desc>
<speed>7.410000</speed>
</trkpt>
<trkpt lat="56.096054" lon="26.359842">
<ele>103.518616</ele>
<time>2010-08-29T16:17:13Z</time>
<desc>lat.=56.096054, lon.=26.359842, Alt.=103.518616m. Speed=26.964001m/h.</desc>
<speed>7.490000</speed>
</trkpt>
<trkpt lat="56.095989" lon="26.359879">
<ele>103.762756</ele>
<time>2010-08-29T16:17:14Z</time>
<desc>lat.=56.095989, lon.=26.359879, Alt.=103.762756m. Speed=27.035999m/h.</desc>
<speed>7.510000</speed>
</trkpt>
<trkpt lat="56.095924" lon="26.359913">
<ele>104.161194</ele>
<time>2010-08-29T16:17:15Z</time>
<desc>lat.=56.095924, lon.=26.359913, Alt.=104.161194m. Speed=27.612000m/h.</desc>
<speed>7.670000</speed>
</trkpt>
<trkpt lat="56.095860" lon="26.359951">
<ele>104.307678</ele>
<time>2010-08-29T16:17:16Z</time>
<desc>lat.=56.095860, lon.=26.359951, Alt.=104.307678m. Speed=27.000000m/h.</desc>
<speed>7.500000</speed>
</trkpt>
<trkpt lat="56.095795" lon="26.359985">
<ele>104.456116</ele>
<time>2010-08-29T16:17:17Z</time>
<desc>lat.=56.095795, lon.=26.359985, Alt.=104.456116m. Speed=26.136000m/h.</desc>
<speed>7.260000</speed>
</trkpt>
<trkpt lat="56.095734" lon="26.360022">
<ele>104.626038</ele>
<time>2010-08-29T16:17:18Z</time>
<desc>lat.=56.095734, lon.=26.360022, Alt.=104.626038m. Speed=25.667999m/h.</desc>
<speed>7.130000</speed>
</trkpt>
<trkpt lat="56.095673" lon="26.360054">
<ele>104.932678</ele>
<time>2010-08-29T16:17:19Z</time>
<desc>lat.=56.095673, lon.=26.360054, Alt.=104.932678m. Speed=24.660000m/h.</desc>
<speed>6.850000</speed>
</trkpt>
<trkpt lat="56.095615" lon="26.360090">
<ele>105.237366</ele>
<time>2010-08-29T16:17:20Z</time>
<desc>lat.=56.095615, lon.=26.360090, Alt.=105.237366m. Speed=24.048000m/h.</desc>
<speed>6.680000</speed>
</trkpt>
<trkpt lat="56.095558" lon="26.360123">
<ele>105.510803</ele>
<time>2010-08-29T16:17:21Z</time>
<desc>lat.=56.095558, lon.=26.360123, Alt.=105.510803m. Speed=23.184000m/h.</desc>
<speed>6.440000</speed>
</trkpt>
<trkpt lat="56.095501" lon="26.360149">
<ele>105.813538</ele>
<time>2010-08-29T16:17:22Z</time>
<desc>lat.=56.095501, lon.=26.360149, Alt.=105.813538m. Speed=22.716000m/h.</desc>
<speed>6.310000</speed>
</trkpt>
<trkpt lat="56.095448" lon="26.360149">
<ele>106.155334</ele>
<time>2010-08-29T16:17:23Z</time>
<desc>lat.=56.095448, lon.=26.360149, Alt.=106.155334m. Speed=22.788000m/h.</desc>
<speed>6.330000</speed>
</trkpt>
<trkpt lat="56.095394" lon="26.360184">
<ele>106.280334</ele>
<time>2010-08-29T16:17:24Z</time>
<desc>lat.=56.095394, lon.=26.360184, Alt.=106.280334m. Speed=23.400000m/h.</desc>
<speed>6.500000</speed>
</trkpt>
<trkpt lat="56.095337" lon="26.360216">
<ele>106.411194</ele>
<time>2010-08-29T16:17:25Z</time>
<desc>lat.=56.095337, lon.=26.360216, Alt.=106.411194m. Speed=23.292000m/h.</desc>
<speed>6.470000</speed>
</trkpt>
<trkpt lat="56.095284" lon="26.360249">
<ele>106.612366</ele>
<time>2010-08-29T16:17:26Z</time>
<desc>lat.=56.095284, lon.=26.360249, Alt.=106.612366m. Speed=23.400000m/h.</desc>
<speed>6.500000</speed>
</trkpt>
<trkpt lat="56.095226" lon="26.360277">
<ele>106.903381</ele>
<time>2010-08-29T16:17:27Z</time>
<desc>lat.=56.095226, lon.=26.360277, Alt.=106.903381m. Speed=23.400000m/h.</desc>
<speed>6.500000</speed>
</trkpt>
<trkpt lat="56.095169" lon="26.360308">
<ele>107.088928</ele>
<time>2010-08-29T16:17:28Z</time>
<desc>lat.=56.095169, lon.=26.360308, Alt.=107.088928m. Speed=22.572001m/h.</desc>
<speed>6.270000</speed>
</trkpt>
<trkpt lat="56.095116" lon="26.360334">
<ele>107.260803</ele>
<time>2010-08-29T16:17:29Z</time>
<desc>lat.=56.095116, lon.=26.360334, Alt.=107.260803m. Speed=21.924000m/h.</desc>
<speed>6.090000</speed>
</trkpt>
<trkpt lat="56.095062" lon="26.360363">
<ele>107.403381</ele>
<time>2010-08-29T16:17:30Z</time>
<desc>lat.=56.095062, lon.=26.360363, Alt.=107.403381m. Speed=20.952000m/h.</desc>
<speed>5.820000</speed>
</trkpt>
<trkpt lat="56.095013" lon="26.360384">
<ele>106.672913</ele>
<time>2010-08-29T16:17:31Z</time>
<desc>lat.=56.095013, lon.=26.360384, Alt.=106.672913m. Speed=20.844000m/h.</desc>
<speed>5.790000</speed>
</trkpt>
<trkpt lat="56.094959" lon="26.360407">
<ele>106.446350</ele>
<time>2010-08-29T16:17:32Z</time>
<desc>lat.=56.094959, lon.=26.360407, Alt.=106.446350m. Speed=21.851999m/h.</desc>
<speed>6.070000</speed>
</trkpt>
<trkpt lat="56.094906" lon="26.360434">
<ele>106.194397</ele>
<time>2010-08-29T16:17:33Z</time>
<desc>lat.=56.094906, lon.=26.360434, Alt.=106.194397m. Speed=21.996000m/h.</desc>
<speed>6.110000</speed>
</trkpt>
<trkpt lat="56.094852" lon="26.360466">
<ele>106.094788</ele>
<time>2010-08-29T16:17:34Z</time>
<desc>lat.=56.094852, lon.=26.360466, Alt.=106.094788m. Speed=22.356001m/h.</desc>
<speed>6.210000</speed>
</trkpt>
<trkpt lat="56.094799" lon="26.360498">
<ele>106.077209</ele>
<time>2010-08-29T16:17:35Z</time>
<desc>lat.=56.094799, lon.=26.360498, Alt.=106.077209m. Speed=22.643999m/h.</desc>
<speed>6.290000</speed>
</trkpt>
<trkpt lat="56.094746" lon="26.360529">
<ele>106.049866</ele>
<time>2010-08-29T16:17:36Z</time>
<desc>lat.=56.094746, lon.=26.360529, Alt.=106.049866m. Speed=22.752001m/h.</desc>
<speed>6.320000</speed>
</trkpt>
<trkpt lat="56.094688" lon="26.360559">
<ele>105.987366</ele>
<time>2010-08-29T16:17:37Z</time>
<desc>lat.=56.094688, lon.=26.360559, Alt.=105.987366m. Speed=23.256001m/h.</desc>
<speed>6.460000</speed>
</trkpt>
<trkpt lat="56.094631" lon="26.360590">
<ele>105.952209</ele>
<time>2010-08-29T16:17:38Z</time>
<desc>lat.=56.094631, lon.=26.360590, Alt.=105.952209m. Speed=23.544001m/h.</desc>
<speed>6.540000</speed>
</trkpt>
<trkpt lat="56.094574" lon="26.360624">
<ele>105.967834</ele>
<time>2010-08-29T16:17:39Z</time>
<desc>lat.=56.094574, lon.=26.360624, Alt.=105.967834m. Speed=24.084000m/h.</desc>
<speed>6.690000</speed>
</trkpt>
<trkpt lat="56.094521" lon="26.360661">
<ele>105.909241</ele>
<time>2010-08-29T16:17:40Z</time>
<desc>lat.=56.094521, lon.=26.360661, Alt.=105.909241m. Speed=24.372000m/h.</desc>
<speed>6.770000</speed>
</trkpt>
<trkpt lat="56.094463" lon="26.360697">
<ele>105.860413</ele>
<time>2010-08-29T16:17:41Z</time>
<desc>lat.=56.094463, lon.=26.360697, Alt.=105.860413m. Speed=24.912001m/h.</desc>
<speed>6.920000</speed>
</trkpt>
<trkpt lat="56.094406" lon="26.360731">
<ele>105.864319</ele>
<time>2010-08-29T16:17:42Z</time>
<desc>lat.=56.094406, lon.=26.360731, Alt.=105.864319m. Speed=24.804001m/h.</desc>
<speed>6.890000</speed>
</trkpt>
<trkpt lat="56.094345" lon="26.360764">
<ele>105.604553</ele>
<time>2010-08-29T16:17:43Z</time>
<desc>lat.=56.094345, lon.=26.360764, Alt.=105.604553m. Speed=25.344000m/h.</desc>
<speed>7.040000</speed>
</trkpt>
<trkpt lat="56.094284" lon="26.360796">
<ele>105.489319</ele>
<time>2010-08-29T16:17:44Z</time>
<desc>lat.=56.094284, lon.=26.360796, Alt.=105.489319m. Speed=25.308001m/h.</desc>
<speed>7.030000</speed>
</trkpt>
<trkpt lat="56.094223" lon="26.360830">
<ele>105.333069</ele>
<time>2010-08-29T16:17:45Z</time>
<desc>lat.=56.094223, lon.=26.360830, Alt.=105.333069m. Speed=25.632000m/h.</desc>
<speed>7.120000</speed>
</trkpt>
<trkpt lat="56.094162" lon="26.360861">
<ele>105.186584</ele>
<time>2010-08-29T16:17:46Z</time>
<desc>lat.=56.094162, lon.=26.360861, Alt.=105.186584m. Speed=25.920000m/h.</desc>
<speed>7.200000</speed>
</trkpt>
<trkpt lat="56.094097" lon="26.360897">
<ele>105.122131</ele>
<time>2010-08-29T16:17:47Z</time>
<desc>lat.=56.094097, lon.=26.360897, Alt.=105.122131m. Speed=26.424000m/h.</desc>
<speed>7.340000</speed>
</trkpt>
<trkpt lat="56.094032" lon="26.360933">
<ele>105.002991</ele>
<time>2010-08-29T16:17:48Z</time>
<desc>lat.=56.094032, lon.=26.360933, Alt.=105.002991m. Speed=26.676001m/h.</desc>
<speed>7.410000</speed>
</trkpt>
<trkpt lat="56.093967" lon="26.360968">
<ele>104.987366</ele>
<time>2010-08-29T16:17:49Z</time>
<desc>lat.=56.093967, lon.=26.360968, Alt.=104.987366m. Speed=27.143999m/h.</desc>
<speed>7.540000</speed>
</trkpt>
<trkpt lat="56.093903" lon="26.361004">
<ele>104.952209</ele>
<time>2010-08-29T16:17:50Z</time>
<desc>lat.=56.093903, lon.=26.361004, Alt.=104.952209m. Speed=27.648001m/h.</desc>
<speed>7.680000</speed>
</trkpt>
<trkpt lat="56.093838" lon="26.361044">
<ele>104.899475</ele>
<time>2010-08-29T16:17:51Z</time>
<desc>lat.=56.093838, lon.=26.361044, Alt.=104.899475m. Speed=28.115999m/h.</desc>
<speed>7.810000</speed>
</trkpt>
<trkpt lat="56.093769" lon="26.361082">
<ele>104.821350</ele>
<time>2010-08-29T16:17:52Z</time>
<desc>lat.=56.093769, lon.=26.361082, Alt.=104.821350m. Speed=28.440001m/h.</desc>
<speed>7.900000</speed>
</trkpt>
<trkpt lat="56.093704" lon="26.361120">
<ele>104.778381</ele>
<time>2010-08-29T16:17:53Z</time>
<desc>lat.=56.093704, lon.=26.361120, Alt.=104.778381m. Speed=28.332001m/h.</desc>
<speed>7.870000</speed>
</trkpt>
<trkpt lat="56.093636" lon="26.361158">
<ele>104.747131</ele>
<time>2010-08-29T16:17:54Z</time>
<desc>lat.=56.093636, lon.=26.361158, Alt.=104.747131m. Speed=27.648001m/h.</desc>
<speed>7.680000</speed>
</trkpt>
<trkpt lat="56.093571" lon="26.361191">
<ele>104.717834</ele>
<time>2010-08-29T16:17:55Z</time>
<desc>lat.=56.093571, lon.=26.361191, Alt.=104.717834m. Speed=26.676001m/h.</desc>
<speed>7.410000</speed>
</trkpt>
<trkpt lat="56.093510" lon="26.361223">
<ele>104.694397</ele>
<time>2010-08-29T16:17:56Z</time>
<desc>lat.=56.093510, lon.=26.361223, Alt.=104.694397m. Speed=26.172001m/h.</desc>
<speed>7.270000</speed>
</trkpt>
<trkpt lat="56.093445" lon="26.361258">
<ele>104.706116</ele>
<time>2010-08-29T16:17:57Z</time>
<desc>lat.=56.093445, lon.=26.361258, Alt.=104.706116m. Speed=25.559999m/h.</desc>
<speed>7.100000</speed>
</trkpt>
<trkpt lat="56.093384" lon="26.361290">
<ele>104.704163</ele>
<time>2010-08-29T16:17:58Z</time>
<desc>lat.=56.093384, lon.=26.361290, Alt.=104.704163m. Speed=26.172001m/h.</desc>
<speed>7.270000</speed>
</trkpt>
<trkpt lat="56.093319" lon="26.361320">
<ele>104.768616</ele>
<time>2010-08-29T16:17:59Z</time>
<desc>lat.=56.093319, lon.=26.361320, Alt.=104.768616m. Speed=26.243999m/h.</desc>
<speed>7.290000</speed>
</trkpt>
<trkpt lat="56.093254" lon="26.361351">
<ele>104.752991</ele>
<time>2010-08-29T16:18:00Z</time>
<desc>lat.=56.093254, lon.=26.361351, Alt.=104.752991m. Speed=26.568001m/h.</desc>
<speed>7.380000</speed>
</trkpt>
<trkpt lat="56.093189" lon="26.361382">
<ele>104.733459</ele>
<time>2010-08-29T16:18:01Z</time>
<desc>lat.=56.093189, lon.=26.361382, Alt.=104.733459m. Speed=26.712000m/h.</desc>
<speed>7.420000</speed>
</trkpt>
<trkpt lat="56.093124" lon="26.361414">
<ele>104.723694</ele>
<time>2010-08-29T16:18:02Z</time>
<desc>lat.=56.093124, lon.=26.361414, Alt.=104.723694m. Speed=26.820000m/h.</desc>
<speed>7.450000</speed>
</trkpt>
<trkpt lat="56.093063" lon="26.361450">
<ele>104.786194</ele>
<time>2010-08-29T16:18:03Z</time>
<desc>lat.=56.093063, lon.=26.361450, Alt.=104.786194m. Speed=26.927999m/h.</desc>
<speed>7.480000</speed>
</trkpt>
<trkpt lat="56.092999" lon="26.361486">
<ele>104.799866</ele>
<time>2010-08-29T16:18:04Z</time>
<desc>lat.=56.092999, lon.=26.361486, Alt.=104.799866m. Speed=26.676001m/h.</desc>
<speed>7.410000</speed>
</trkpt>
<trkpt lat="56.092934" lon="26.361519">
<ele>104.846741</ele>
<time>2010-08-29T16:18:05Z</time>
<desc>lat.=56.092934, lon.=26.361519, Alt.=104.846741m. Speed=25.596001m/h.</desc>
<speed>7.110000</speed>
</trkpt>
<trkpt lat="56.092873" lon="26.361551">
<ele>104.956116</ele>
<time>2010-08-29T16:18:06Z</time>
<desc>lat.=56.092873, lon.=26.361551, Alt.=104.956116m. Speed=25.164000m/h.</desc>
<speed>6.990000</speed>
</trkpt>
<trkpt lat="56.092815" lon="26.361589">
<ele>105.077209</ele>
<time>2010-08-29T16:18:07Z</time>
<desc>lat.=56.092815, lon.=26.361589, Alt.=105.077209m. Speed=24.912001m/h.</desc>
<speed>6.920000</speed>
</trkpt>
<trkpt lat="56.092754" lon="26.361620">
<ele>105.225647</ele>
<time>2010-08-29T16:18:08Z</time>
<desc>lat.=56.092754, lon.=26.361620, Alt.=105.225647m. Speed=25.128000m/h.</desc>
<speed>6.980000</speed>
</trkpt>
<trkpt lat="56.092693" lon="26.361650">
<ele>105.350647</ele>
<time>2010-08-29T16:18:09Z</time>
<desc>lat.=56.092693, lon.=26.361650, Alt.=105.350647m. Speed=25.452000m/h.</desc>
<speed>7.070000</speed>
</trkpt>
<trkpt lat="56.092632" lon="26.361692">
<ele>105.528381</ele>
<time>2010-08-29T16:18:10Z</time>
<desc>lat.=56.092632, lon.=26.361692, Alt.=105.528381m. Speed=25.524000m/h.</desc>
<speed>7.090000</speed>
</trkpt>
<trkpt lat="56.092571" lon="26.361729">
<ele>105.711975</ele>
<time>2010-08-29T16:18:11Z</time>
<desc>lat.=56.092571, lon.=26.361729, Alt.=105.711975m. Speed=26.063999m/h.</desc>
<speed>7.240000</speed>
</trkpt>
<trkpt lat="56.092510" lon="26.361763">
<ele>105.860413</ele>
<time>2010-08-29T16:18:12Z</time>
<desc>lat.=56.092510, lon.=26.361763, Alt.=105.860413m. Speed=26.316000m/h.</desc>
<speed>7.310000</speed>
</trkpt>
<trkpt lat="56.092449" lon="26.361799">
<ele>105.991272</ele>
<time>2010-08-29T16:18:13Z</time>
<desc>lat.=56.092449, lon.=26.361799, Alt.=105.991272m. Speed=27.035999m/h.</desc>
<speed>7.510000</speed>
</trkpt>
<trkpt lat="56.092384" lon="26.361837">
<ele>106.217834</ele>
<time>2010-08-29T16:18:14Z</time>
<desc>lat.=56.092384, lon.=26.361837, Alt.=106.217834m. Speed=26.784000m/h.</desc>
<speed>7.440000</speed>
</trkpt>
<trkpt lat="56.092319" lon="26.361887">
<ele>106.510803</ele>
<time>2010-08-29T16:18:15Z</time>
<desc>lat.=56.092319, lon.=26.361887, Alt.=106.510803m. Speed=27.143999m/h.</desc>
<speed>7.540000</speed>
</trkpt>
<trkpt lat="56.092255" lon="26.361925">
<ele>106.602600</ele>
<time>2010-08-29T16:18:16Z</time>
<desc>lat.=56.092255, lon.=26.361925, Alt.=106.602600m. Speed=26.604000m/h.</desc>
<speed>7.390000</speed>
</trkpt>
<trkpt lat="56.092190" lon="26.361956">
<ele>106.864319</ele>
<time>2010-08-29T16:18:17Z</time>
<desc>lat.=56.092190, lon.=26.361956, Alt.=106.864319m. Speed=25.775999m/h.</desc>
<speed>7.160000</speed>
</trkpt>
<trkpt lat="56.092129" lon="26.361992">
<ele>107.020569</ele>
<time>2010-08-29T16:18:18Z</time>
<desc>lat.=56.092129, lon.=26.361992, Alt.=107.020569m. Speed=24.912001m/h.</desc>
<speed>6.920000</speed>
</trkpt>
<trkpt lat="56.092068" lon="26.362020">
<ele>107.315491</ele>
<time>2010-08-29T16:18:19Z</time>
<desc>lat.=56.092068, lon.=26.362020, Alt.=107.315491m. Speed=24.336000m/h.</desc>
<speed>6.760000</speed>
</trkpt>
<trkpt lat="56.092014" lon="26.362059">
<ele>107.588928</ele>
<time>2010-08-29T16:18:20Z</time>
<desc>lat.=56.092014, lon.=26.362059, Alt.=107.588928m. Speed=23.472000m/h.</desc>
<speed>6.520000</speed>
</trkpt>
<trkpt lat="56.091957" lon="26.362093">
<ele>107.920959</ele>
<time>2010-08-29T16:18:21Z</time>
<desc>lat.=56.091957, lon.=26.362093, Alt.=107.920959m. Speed=23.112000m/h.</desc>
<speed>6.420000</speed>
</trkpt>
<trkpt lat="56.091904" lon="26.362123">
<ele>107.899475</ele>
<time>2010-08-29T16:18:22Z</time>
<desc>lat.=56.091904, lon.=26.362123, Alt.=107.899475m. Speed=22.284000m/h.</desc>
<speed>6.190000</speed>
</trkpt>
<trkpt lat="56.091846" lon="26.362152">
<ele>106.481506</ele>
<time>2010-08-29T16:18:23Z</time>
<desc>lat.=56.091846, lon.=26.362152, Alt.=106.481506m. Speed=23.040001m/h.</desc>
<speed>6.400000</speed>
</trkpt>
<trkpt lat="56.091789" lon="26.362181">
<ele>106.420959</ele>
<time>2010-08-29T16:18:24Z</time>
<desc>lat.=56.091789, lon.=26.362181, Alt.=106.420959m. Speed=22.968000m/h.</desc>
<speed>6.380000</speed>
</trkpt>
<trkpt lat="56.091736" lon="26.362206">
<ele>106.014709</ele>
<time>2010-08-29T16:18:25Z</time>
<desc>lat.=56.091736, lon.=26.362206, Alt.=106.014709m. Speed=23.688000m/h.</desc>
<speed>6.580000</speed>
</trkpt>
<trkpt lat="56.091679" lon="26.362232">
<ele>106.055725</ele>
<time>2010-08-29T16:18:26Z</time>
<desc>lat.=56.091679, lon.=26.362232, Alt.=106.055725m. Speed=23.327999m/h.</desc>
<speed>6.480000</speed>
</trkpt>
<trkpt lat="56.091621" lon="26.362263">
<ele>106.241272</ele>
<time>2010-08-29T16:18:27Z</time>
<desc>lat.=56.091621, lon.=26.362263, Alt.=106.241272m. Speed=23.652000m/h.</desc>
<speed>6.570000</speed>
</trkpt>
<trkpt lat="56.091568" lon="26.362297">
<ele>107.004944</ele>
<time>2010-08-29T16:18:28Z</time>
<desc>lat.=56.091568, lon.=26.362297, Alt.=107.004944m. Speed=23.940001m/h.</desc>
<speed>6.650000</speed>
</trkpt>
<trkpt lat="56.091511" lon="26.362329">
<ele>107.092834</ele>
<time>2010-08-29T16:18:29Z</time>
<desc>lat.=56.091511, lon.=26.362329, Alt.=107.092834m. Speed=23.868000m/h.</desc>
<speed>6.630000</speed>
</trkpt>
<trkpt lat="56.091454" lon="26.362364">
<ele>107.208069</ele>
<time>2010-08-29T16:18:30Z</time>
<desc>lat.=56.091454, lon.=26.362364, Alt.=107.208069m. Speed=24.480000m/h.</desc>
<speed>6.800000</speed>
</trkpt>
<trkpt lat="56.091396" lon="26.362396">
<ele>107.165100</ele>
<time>2010-08-29T16:18:31Z</time>
<desc>lat.=56.091396, lon.=26.362396, Alt.=107.165100m. Speed=24.516001m/h.</desc>
<speed>6.810000</speed>
</trkpt>
<trkpt lat="56.091335" lon="26.362431">
<ele>107.141663</ele>
<time>2010-08-29T16:18:32Z</time>
<desc>lat.=56.091335, lon.=26.362431, Alt.=107.141663m. Speed=24.587999m/h.</desc>
<speed>6.830000</speed>
</trkpt>
<trkpt lat="56.091278" lon="26.362461">
<ele>107.079163</ele>
<time>2010-08-29T16:18:33Z</time>
<desc>lat.=56.091278, lon.=26.362461, Alt.=107.079163m. Speed=24.299999m/h.</desc>
<speed>6.750000</speed>
</trkpt>
<trkpt lat="56.091221" lon="26.362494">
<ele>107.247131</ele>
<time>2010-08-29T16:18:34Z</time>
<desc>lat.=56.091221, lon.=26.362494, Alt.=107.247131m. Speed=23.832001m/h.</desc>
<speed>6.620000</speed>
</trkpt>
<trkpt lat="56.091164" lon="26.362522">
<ele>107.204163</ele>
<time>2010-08-29T16:18:35Z</time>
<desc>lat.=56.091164, lon.=26.362522, Alt.=107.204163m. Speed=23.256001m/h.</desc>
<speed>6.460000</speed>
</trkpt>
<trkpt lat="56.091110" lon="26.362551">
<ele>107.094788</ele>
<time>2010-08-29T16:18:36Z</time>
<desc>lat.=56.091110, lon.=26.362551, Alt.=107.094788m. Speed=22.068001m/h.</desc>
<speed>6.130000</speed>
</trkpt>
<trkpt lat="56.091061" lon="26.362577">
<ele>107.161194</ele>
<time>2010-08-29T16:18:37Z</time>
<desc>lat.=56.091061, lon.=26.362577, Alt.=107.161194m. Speed=21.528000m/h.</desc>
<speed>5.980000</speed>
</trkpt>
<trkpt lat="56.091007" lon="26.362606">
<ele>107.323303</ele>
<time>2010-08-29T16:18:38Z</time>
<desc>lat.=56.091007, lon.=26.362606, Alt.=107.323303m. Speed=20.844000m/h.</desc>
<speed>5.790000</speed>
</trkpt>
<trkpt lat="56.090958" lon="26.362637">
<ele>107.381897</ele>
<time>2010-08-29T16:18:39Z</time>
<desc>lat.=56.090958, lon.=26.362637, Alt.=107.381897m. Speed=20.844000m/h.</desc>
<speed>5.790000</speed>
</trkpt>
<trkpt lat="56.090908" lon="26.362663">
<ele>107.540100</ele>
<time>2010-08-29T16:18:40Z</time>
<desc>lat.=56.090908, lon.=26.362663, Alt.=107.540100m. Speed=21.743999m/h.</desc>
<speed>6.040000</speed>
</trkpt>
<trkpt lat="56.090855" lon="26.362686">
<ele>107.649475</ele>
<time>2010-08-29T16:18:41Z</time>
<desc>lat.=56.090855, lon.=26.362686, Alt.=107.649475m. Speed=21.672001m/h.</desc>
<speed>6.020000</speed>
</trkpt>
<trkpt lat="56.090801" lon="26.362719">
<ele>107.575256</ele>
<time>2010-08-29T16:18:42Z</time>
<desc>lat.=56.090801, lon.=26.362719, Alt.=107.575256m. Speed=22.284000m/h.</desc>
<speed>6.190000</speed>
</trkpt>
<trkpt lat="56.090748" lon="26.362749">
<ele>107.397522</ele>
<time>2010-08-29T16:18:43Z</time>
<desc>lat.=56.090748, lon.=26.362749, Alt.=107.397522m. Speed=23.040001m/h.</desc>
<speed>6.400000</speed>
</trkpt>
<trkpt lat="56.090691" lon="26.362780">
<ele>106.805725</ele>
<time>2010-08-29T16:18:44Z</time>
<desc>lat.=56.090691, lon.=26.362780, Alt.=106.805725m. Speed=23.760000m/h.</desc>
<speed>6.600000</speed>
</trkpt>
<trkpt lat="56.090633" lon="26.362812">
<ele>106.682678</ele>
<time>2010-08-29T16:18:45Z</time>
<desc>lat.=56.090633, lon.=26.362812, Alt.=106.682678m. Speed=23.868000m/h.</desc>
<speed>6.630000</speed>
</trkpt>
<trkpt lat="56.090576" lon="26.362839">
<ele>106.460022</ele>
<time>2010-08-29T16:18:46Z</time>
<desc>lat.=56.090576, lon.=26.362839, Alt.=106.460022m. Speed=23.400000m/h.</desc>
<speed>6.500000</speed>
</trkpt>
<trkpt lat="56.090519" lon="26.362867">
<ele>106.362366</ele>
<time>2010-08-29T16:18:47Z</time>
<desc>lat.=56.090519, lon.=26.362867, Alt.=106.362366m. Speed=24.516001m/h.</desc>
<speed>6.810000</speed>
</trkpt>
<trkpt lat="56.090462" lon="26.362898">
<ele>106.502991</ele>
<time>2010-08-29T16:18:48Z</time>
<desc>lat.=56.090462, lon.=26.362898, Alt.=106.502991m. Speed=24.336000m/h.</desc>
<speed>6.760000</speed>
</trkpt>
<trkpt lat="56.090405" lon="26.362928">
<ele>106.502991</ele>
<time>2010-08-29T16:18:49Z</time>
<desc>lat.=56.090405, lon.=26.362928, Alt.=106.502991m. Speed=24.695999m/h.</desc>
<speed>6.860000</speed>
</trkpt>
<trkpt lat="56.090343" lon="26.362955">
<ele>106.526428</ele>
<time>2010-08-29T16:18:50Z</time>
<desc>lat.=56.090343, lon.=26.362955, Alt.=106.526428m. Speed=24.587999m/h.</desc>
<speed>6.830000</speed>
</trkpt>
<trkpt lat="56.090286" lon="26.362986">
<ele>106.797913</ele>
<time>2010-08-29T16:18:51Z</time>
<desc>lat.=56.090286, lon.=26.362986, Alt.=106.797913m. Speed=23.976000m/h.</desc>
<speed>6.660000</speed>
</trkpt>
<trkpt lat="56.090229" lon="26.363022">
<ele>106.794006</ele>
<time>2010-08-29T16:18:52Z</time>
<desc>lat.=56.090229, lon.=26.363022, Alt.=106.794006m. Speed=23.327999m/h.</desc>
<speed>6.480000</speed>
</trkpt>
<trkpt lat="56.090176" lon="26.363056">
<ele>107.053772</ele>
<time>2010-08-29T16:18:53Z</time>
<desc>lat.=56.090176, lon.=26.363056, Alt.=107.053772m. Speed=22.860001m/h.</desc>
<speed>6.350000</speed>
</trkpt>
<trkpt lat="56.090122" lon="26.363085">
<ele>107.245178</ele>
<time>2010-08-29T16:18:54Z</time>
<desc>lat.=56.090122, lon.=26.363085, Alt.=107.245178m. Speed=22.032000m/h.</desc>
<speed>6.120000</speed>
</trkpt>
<trkpt lat="56.090069" lon="26.363111">
<ele>107.678772</ele>
<time>2010-08-29T16:18:55Z</time>
<desc>lat.=56.090069, lon.=26.363111, Alt.=107.678772m. Speed=21.636000m/h.</desc>
<speed>6.010000</speed>
</trkpt>
<trkpt lat="56.090019" lon="26.363140">
<ele>107.987366</ele>
<time>2010-08-29T16:18:56Z</time>
<desc>lat.=56.090019, lon.=26.363140, Alt.=107.987366m. Speed=21.132000m/h.</desc>
<speed>5.870000</speed>
</trkpt>
<trkpt lat="56.089970" lon="26.363169">
<ele>108.299866</ele>
<time>2010-08-29T16:18:57Z</time>
<desc>lat.=56.089970, lon.=26.363169, Alt.=108.299866m. Speed=20.016001m/h.</desc>
<speed>5.560000</speed>
</trkpt>
<trkpt lat="56.089920" lon="26.363197">
<ele>108.544006</ele>
<time>2010-08-29T16:18:58Z</time>
<desc>lat.=56.089920, lon.=26.363197, Alt.=108.544006m. Speed=20.916000m/h.</desc>
<speed>5.810000</speed>
</trkpt>
<trkpt lat="56.089863" lon="26.363222">
<ele>107.376038</ele>
<time>2010-08-29T16:18:59Z</time>
<desc>lat.=56.089863, lon.=26.363222, Alt.=107.376038m. Speed=21.708000m/h.</desc>
<speed>6.030000</speed>
</trkpt>
<trkpt lat="56.089809" lon="26.363251">
<ele>107.352600</ele>
<time>2010-08-29T16:19:00Z</time>
<desc>lat.=56.089809, lon.=26.363251, Alt.=107.352600m. Speed=21.959999m/h.</desc>
<speed>6.100000</speed>
</trkpt>
<trkpt lat="56.089756" lon="26.363279">
<ele>107.335022</ele>
<time>2010-08-29T16:19:01Z</time>
<desc>lat.=56.089756, lon.=26.363279, Alt.=107.335022m. Speed=22.680000m/h.</desc>
<speed>6.300000</speed>
</trkpt>
<trkpt lat="56.089703" lon="26.363308">
<ele>107.262756</ele>
<time>2010-08-29T16:19:02Z</time>
<desc>lat.=56.089703, lon.=26.363308, Alt.=107.262756m. Speed=22.320000m/h.</desc>
<speed>6.200000</speed>
</trkpt>
<trkpt lat="56.089653" lon="26.363340">
<ele>107.266663</ele>
<time>2010-08-29T16:19:03Z</time>
<desc>lat.=56.089653, lon.=26.363340, Alt.=107.266663m. Speed=22.680000m/h.</desc>
<speed>6.300000</speed>
</trkpt>
<trkpt lat="56.089600" lon="26.363371">
<ele>107.247131</ele>
<time>2010-08-29T16:19:04Z</time>
<desc>lat.=56.089600, lon.=26.363371, Alt.=107.247131m. Speed=22.968000m/h.</desc>
<speed>6.380000</speed>
</trkpt>
<trkpt lat="56.089542" lon="26.363398">
<ele>107.379944</ele>
<time>2010-08-29T16:19:05Z</time>
<desc>lat.=56.089542, lon.=26.363398, Alt.=107.379944m. Speed=23.112000m/h.</desc>
<speed>6.420000</speed>
</trkpt>
<trkpt lat="56.089489" lon="26.363430">
<ele>107.348694</ele>
<time>2010-08-29T16:19:06Z</time>
<desc>lat.=56.089489, lon.=26.363430, Alt.=107.348694m. Speed=23.400000m/h.</desc>
<speed>6.500000</speed>
</trkpt>
<trkpt lat="56.089432" lon="26.363461">
<ele>107.436584</ele>
<time>2010-08-29T16:19:07Z</time>
<desc>lat.=56.089432, lon.=26.363461, Alt.=107.436584m. Speed=23.796000m/h.</desc>
<speed>6.610000</speed>
</trkpt>
<trkpt lat="56.089375" lon="26.363489">
<ele>107.342834</ele>
<time>2010-08-29T16:19:08Z</time>
<desc>lat.=56.089375, lon.=26.363489, Alt.=107.342834m. Speed=23.580000m/h.</desc>
<speed>6.550000</speed>
</trkpt>
<trkpt lat="56.089317" lon="26.363523">
<ele>107.258850</ele>
<time>2010-08-29T16:19:09Z</time>
<desc>lat.=56.089317, lon.=26.363523, Alt.=107.258850m. Speed=23.652000m/h.</desc>
<speed>6.570000</speed>
</trkpt>
<trkpt lat="56.089260" lon="26.363556">
<ele>107.206116</ele>
<time>2010-08-29T16:19:10Z</time>
<desc>lat.=56.089260, lon.=26.363556, Alt.=107.206116m. Speed=23.436001m/h.</desc>
<speed>6.510000</speed>
</trkpt>
<trkpt lat="56.089207" lon="26.363586">
<ele>107.127991</ele>
<time>2010-08-29T16:19:11Z</time>
<desc>lat.=56.089207, lon.=26.363586, Alt.=107.127991m. Speed=22.608000m/h.</desc>
<speed>6.280000</speed>
</trkpt>
<trkpt lat="56.089153" lon="26.363617">
<ele>107.083069</ele>
<time>2010-08-29T16:19:12Z</time>
<desc>lat.=56.089153, lon.=26.363617, Alt.=107.083069m. Speed=21.888000m/h.</desc>
<speed>6.080000</speed>
</trkpt>
<trkpt lat="56.089104" lon="26.363646">
<ele>106.985413</ele>
<time>2010-08-29T16:19:13Z</time>
<desc>lat.=56.089104, lon.=26.363646, Alt.=106.985413m. Speed=22.212000m/h.</desc>
<speed>6.170000</speed>
</trkpt>
<trkpt lat="56.089050" lon="26.363672">
<ele>107.051819</ele>
<time>2010-08-29T16:19:14Z</time>
<desc>lat.=56.089050, lon.=26.363672, Alt.=107.051819m. Speed=21.275999m/h.</desc>
<speed>5.910000</speed>
</trkpt>
<trkpt lat="56.089001" lon="26.363705">
<ele>107.073303</ele>
<time>2010-08-29T16:19:15Z</time>
<desc>lat.=56.089001, lon.=26.363705, Alt.=107.073303m. Speed=22.104000m/h.</desc>
<speed>6.140000</speed>
</trkpt>
<trkpt lat="56.088951" lon="26.363741">
<ele>107.006897</ele>
<time>2010-08-29T16:19:16Z</time>
<desc>lat.=56.088951, lon.=26.363741, Alt.=107.006897m. Speed=21.996000m/h.</desc>
<speed>6.110000</speed>
</trkpt>
<trkpt lat="56.088898" lon="26.363777">
<ele>106.924866</ele>
<time>2010-08-29T16:19:17Z</time>
<desc>lat.=56.088898, lon.=26.363777, Alt.=106.924866m. Speed=22.247999m/h.</desc>
<speed>6.180000</speed>
</trkpt>
<trkpt lat="56.088844" lon="26.363802">
<ele>106.926819</ele>
<time>2010-08-29T16:19:18Z</time>
<desc>lat.=56.088844, lon.=26.363802, Alt.=106.926819m. Speed=22.716000m/h.</desc>
<speed>6.310000</speed>
</trkpt>
<trkpt lat="56.088787" lon="26.363829">
<ele>106.842834</ele>
<time>2010-08-29T16:19:19Z</time>
<desc>lat.=56.088787, lon.=26.363829, Alt.=106.842834m. Speed=23.076000m/h.</desc>
<speed>6.410000</speed>
</trkpt>
<trkpt lat="56.088730" lon="26.363861">
<ele>106.784241</ele>
<time>2010-08-29T16:19:20Z</time>
<desc>lat.=56.088730, lon.=26.363861, Alt.=106.784241m. Speed=23.724001m/h.</desc>
<speed>6.590000</speed>
</trkpt>
<trkpt lat="56.088676" lon="26.363895">
<ele>106.813538</ele>
<time>2010-08-29T16:19:21Z</time>
<desc>lat.=56.088676, lon.=26.363895, Alt.=106.813538m. Speed=23.903999m/h.</desc>
<speed>6.640000</speed>
</trkpt>
<trkpt lat="56.088615" lon="26.363928">
<ele>106.674866</ele>
<time>2010-08-29T16:19:22Z</time>
<desc>lat.=56.088615, lon.=26.363928, Alt.=106.674866m. Speed=24.264000m/h.</desc>
<speed>6.740000</speed>
</trkpt>
<trkpt lat="56.088554" lon="26.363956">
<ele>105.788147</ele>
<time>2010-08-29T16:19:23Z</time>
<desc>lat.=56.088554, lon.=26.363956, Alt.=105.788147m. Speed=24.552000m/h.</desc>
<speed>6.820000</speed>
</trkpt>
<trkpt lat="56.088497" lon="26.363991">
<ele>106.139709</ele>
<time>2010-08-29T16:19:24Z</time>
<desc>lat.=56.088497, lon.=26.363991, Alt.=106.139709m. Speed=25.344000m/h.</desc>
<speed>7.040000</speed>
</trkpt>
<trkpt lat="56.088436" lon="26.364023">
<ele>106.169006</ele>
<time>2010-08-29T16:19:25Z</time>
<desc>lat.=56.088436, lon.=26.364023, Alt.=106.169006m. Speed=25.524000m/h.</desc>
<speed>7.090000</speed>
</trkpt>
<trkpt lat="56.088371" lon="26.364052">
<ele>105.342834</ele>
<time>2010-08-29T16:19:26Z</time>
<desc>lat.=56.088371, lon.=26.364052, Alt.=105.342834m. Speed=25.992001m/h.</desc>
<speed>7.220000</speed>
</trkpt>
<trkpt lat="56.088310" lon="26.364088">
<ele>105.436584</ele>
<time>2010-08-29T16:19:27Z</time>
<desc>lat.=56.088310, lon.=26.364088, Alt.=105.436584m. Speed=26.459999m/h.</desc>
<speed>7.350000</speed>
</trkpt>
<trkpt lat="56.088245" lon="26.364120">
<ele>105.325256</ele>
<time>2010-08-29T16:19:28Z</time>
<desc>lat.=56.088245, lon.=26.364120, Alt.=105.325256m. Speed=26.927999m/h.</desc>
<speed>7.480000</speed>
</trkpt>
<trkpt lat="56.088181" lon="26.364155">
<ele>105.294006</ele>
<time>2010-08-29T16:19:29Z</time>
<desc>lat.=56.088181, lon.=26.364155, Alt.=105.294006m. Speed=27.323999m/h.</desc>
<speed>7.590000</speed>
</trkpt>
<trkpt lat="56.088112" lon="26.364191">
<ele>105.624084</ele>
<time>2010-08-29T16:19:30Z</time>
<desc>lat.=56.088112, lon.=26.364191, Alt.=105.624084m. Speed=27.468000m/h.</desc>
<speed>7.630000</speed>
</trkpt>
<trkpt lat="56.088047" lon="26.364225">
<ele>105.520569</ele>
<time>2010-08-29T16:19:31Z</time>
<desc>lat.=56.088047, lon.=26.364225, Alt.=105.520569m. Speed=26.712000m/h.</desc>
<speed>7.420000</speed>
</trkpt>
<trkpt lat="56.087982" lon="26.364260">
<ele>105.252991</ele>
<time>2010-08-29T16:19:32Z</time>
<desc>lat.=56.087982, lon.=26.364260, Alt.=105.252991m. Speed=26.028000m/h.</desc>
<speed>7.230000</speed>
</trkpt>
<trkpt lat="56.087921" lon="26.364296">
<ele>104.629944</ele>
<time>2010-08-29T16:19:33Z</time>
<desc>lat.=56.087921, lon.=26.364296, Alt.=104.629944m. Speed=25.812000m/h.</desc>
<speed>7.170000</speed>
</trkpt>
<trkpt lat="56.087856" lon="26.364330">
<ele>104.360413</ele>
<time>2010-08-29T16:19:34Z</time>
<desc>lat.=56.087856, lon.=26.364330, Alt.=104.360413m. Speed=25.091999m/h.</desc>
<speed>6.970000</speed>
</trkpt>
<trkpt lat="56.087795" lon="26.364367">
<ele>104.575256</ele>
<time>2010-08-29T16:19:35Z</time>
<desc>lat.=56.087795, lon.=26.364367, Alt.=104.575256m. Speed=25.920000m/h.</desc>
<speed>7.200000</speed>
</trkpt>
<trkpt lat="56.087734" lon="26.364403">
<ele>104.606506</ele>
<time>2010-08-29T16:19:36Z</time>
<desc>lat.=56.087734, lon.=26.364403, Alt.=104.606506m. Speed=26.747999m/h.</desc>
<speed>7.430000</speed>
</trkpt>
<trkpt lat="56.087673" lon="26.364439">
<ele>104.290100</ele>
<time>2010-08-29T16:19:37Z</time>
<desc>lat.=56.087673, lon.=26.364439, Alt.=104.290100m. Speed=26.927999m/h.</desc>
<speed>7.480000</speed>
</trkpt>
<trkpt lat="56.087608" lon="26.364477">
<ele>104.262756</ele>
<time>2010-08-29T16:19:38Z</time>
<desc>lat.=56.087608, lon.=26.364477, Alt.=104.262756m. Speed=27.468000m/h.</desc>
<speed>7.630000</speed>
</trkpt>
<trkpt lat="56.087540" lon="26.364513">
<ele>104.206116</ele>
<time>2010-08-29T16:19:39Z</time>
<desc>lat.=56.087540, lon.=26.364513, Alt.=104.206116m. Speed=27.864000m/h.</desc>
<speed>7.740000</speed>
</trkpt>
<trkpt lat="56.087471" lon="26.364548">
<ele>104.094788</ele>
<time>2010-08-29T16:19:40Z</time>
<desc>lat.=56.087471, lon.=26.364548, Alt.=104.094788m. Speed=27.900000m/h.</desc>
<speed>7.750000</speed>
</trkpt>
<trkpt lat="56.087402" lon="26.364584">
<ele>103.795959</ele>
<time>2010-08-29T16:19:41Z</time>
<desc>lat.=56.087402, lon.=26.364584, Alt.=103.795959m. Speed=28.476000m/h.</desc>
<speed>7.910000</speed>
</trkpt>
<trkpt lat="56.087334" lon="26.364624">
<ele>103.821350</ele>
<time>2010-08-29T16:19:42Z</time>
<desc>lat.=56.087334, lon.=26.364624, Alt.=103.821350m. Speed=28.656000m/h.</desc>
<speed>7.960000</speed>
</trkpt>
<trkpt lat="56.087265" lon="26.364664">
<ele>103.579163</ele>
<time>2010-08-29T16:19:43Z</time>
<desc>lat.=56.087265, lon.=26.364664, Alt.=103.579163m. Speed=29.052000m/h.</desc>
<speed>8.070000</speed>
</trkpt>
<trkpt lat="56.087196" lon="26.364704">
<ele>103.426819</ele>
<time>2010-08-29T16:19:44Z</time>
<desc>lat.=56.087196, lon.=26.364704, Alt.=103.426819m. Speed=29.304001m/h.</desc>
<speed>8.140000</speed>
</trkpt>
<trkpt lat="56.087124" lon="26.364746">
<ele>103.249084</ele>
<time>2010-08-29T16:19:45Z</time>
<desc>lat.=56.087124, lon.=26.364746, Alt.=103.249084m. Speed=29.087999m/h.</desc>
<speed>8.080000</speed>
</trkpt>
<trkpt lat="56.087055" lon="26.364784">
<ele>103.090881</ele>
<time>2010-08-29T16:19:46Z</time>
<desc>lat.=56.087055, lon.=26.364784, Alt.=103.090881m. Speed=28.403999m/h.</desc>
<speed>7.890000</speed>
</trkpt>
<trkpt lat="56.086990" lon="26.364819">
<ele>102.950256</ele>
<time>2010-08-29T16:19:47Z</time>
<desc>lat.=56.086990, lon.=26.364819, Alt.=102.950256m. Speed=27.719999m/h.</desc>
<speed>7.700000</speed>
</trkpt>
<trkpt lat="56.086922" lon="26.364855">
<ele>102.868225</ele>
<time>2010-08-29T16:19:48Z</time>
<desc>lat.=56.086922, lon.=26.364855, Alt.=102.868225m. Speed=27.288000m/h.</desc>
<speed>7.580000</speed>
</trkpt>
<trkpt lat="56.086861" lon="26.364887">
<ele>102.762756</ele>
<time>2010-08-29T16:19:49Z</time>
<desc>lat.=56.086861, lon.=26.364887, Alt.=102.762756m. Speed=26.747999m/h.</desc>
<speed>7.430000</speed>
</trkpt>
<trkpt lat="56.086796" lon="26.364922">
<ele>102.540100</ele>
<time>2010-08-29T16:19:50Z</time>
<desc>lat.=56.086796, lon.=26.364922, Alt.=102.540100m. Speed=26.532000m/h.</desc>
<speed>7.370000</speed>
</trkpt>
<trkpt lat="56.086731" lon="26.364960">
<ele>102.247131</ele>
<time>2010-08-29T16:19:51Z</time>
<desc>lat.=56.086731, lon.=26.364960, Alt.=102.247131m. Speed=27.072001m/h.</desc>
<speed>7.520000</speed>
</trkpt>
<trkpt lat="56.086666" lon="26.364994">
<ele>102.167053</ele>
<time>2010-08-29T16:19:52Z</time>
<desc>lat.=56.086666, lon.=26.364994, Alt.=102.167053m. Speed=26.892000m/h.</desc>
<speed>7.470000</speed>
</trkpt>
<trkpt lat="56.086601" lon="26.365030">
<ele>102.122131</ele>
<time>2010-08-29T16:19:53Z</time>
<desc>lat.=56.086601, lon.=26.365030, Alt.=102.122131m. Speed=26.784000m/h.</desc>
<speed>7.440000</speed>
</trkpt>
<trkpt lat="56.086536" lon="26.365068">
<ele>101.995178</ele>
<time>2010-08-29T16:19:54Z</time>
<desc>lat.=56.086536, lon.=26.365068, Alt.=101.995178m. Speed=26.892000m/h.</desc>
<speed>7.470000</speed>
</trkpt>
<trkpt lat="56.086475" lon="26.365110">
<ele>101.731506</ele>
<time>2010-08-29T16:19:55Z</time>
<desc>lat.=56.086475, lon.=26.365110, Alt.=101.731506m. Speed=26.243999m/h.</desc>
<speed>7.290000</speed>
</trkpt>
<trkpt lat="56.086414" lon="26.365147">
<ele>101.610413</ele>
<time>2010-08-29T16:19:56Z</time>
<desc>lat.=56.086414, lon.=26.365147, Alt.=101.610413m. Speed=25.775999m/h.</desc>
<speed>7.160000</speed>
</trkpt>
<trkpt lat="56.086353" lon="26.365177">
<ele>101.719788</ele>
<time>2010-08-29T16:19:57Z</time>
<desc>lat.=56.086353, lon.=26.365177, Alt.=101.719788m. Speed=25.992001m/h.</desc>
<speed>7.220000</speed>
</trkpt>
<trkpt lat="56.086288" lon="26.365211">
<ele>101.635803</ele>
<time>2010-08-29T16:19:58Z</time>
<desc>lat.=56.086288, lon.=26.365211, Alt.=101.635803m. Speed=26.747999m/h.</desc>
<speed>7.430000</speed>
</trkpt>
<trkpt lat="56.086224" lon="26.365244">
<ele>101.627991</ele>
<time>2010-08-29T16:19:59Z</time>
<desc>lat.=56.086224, lon.=26.365244, Alt.=101.627991m. Speed=26.639999m/h.</desc>
<speed>7.400000</speed>
</trkpt>
<trkpt lat="56.086163" lon="26.365274">
<ele>101.438538</ele>
<time>2010-08-29T16:20:00Z</time>
<desc>lat.=56.086163, lon.=26.365274, Alt.=101.438538m. Speed=26.496000m/h.</desc>
<speed>7.360000</speed>
</trkpt>
<trkpt lat="56.086098" lon="26.365303">
<ele>101.264709</ele>
<time>2010-08-29T16:20:01Z</time>
<desc>lat.=56.086098, lon.=26.365303, Alt.=101.264709m. Speed=26.459999m/h.</desc>
<speed>7.350000</speed>
</trkpt>
<trkpt lat="56.086033" lon="26.365334">
<ele>101.288147</ele>
<time>2010-08-29T16:20:02Z</time>
<desc>lat.=56.086033, lon.=26.365334, Alt.=101.288147m. Speed=26.459999m/h.</desc>
<speed>7.350000</speed>
</trkpt>
<trkpt lat="56.085968" lon="26.365372">
<ele>101.149475</ele>
<time>2010-08-29T16:20:03Z</time>
<desc>lat.=56.085968, lon.=26.365372, Alt.=101.149475m. Speed=26.424000m/h.</desc>
<speed>7.340000</speed>
</trkpt>
<trkpt lat="56.085907" lon="26.365414">
<ele>101.161194</ele>
<time>2010-08-29T16:20:04Z</time>
<desc>lat.=56.085907, lon.=26.365414, Alt.=101.161194m. Speed=26.243999m/h.</desc>
<speed>7.290000</speed>
</trkpt>
<trkpt lat="56.085846" lon="26.365450">
<ele>100.971741</ele>
<time>2010-08-29T16:20:05Z</time>
<desc>lat.=56.085846, lon.=26.365450, Alt.=100.971741m. Speed=26.172001m/h.</desc>
<speed>7.270000</speed>
</trkpt>
<trkpt lat="56.085785" lon="26.365484">
<ele>100.919006</ele>
<time>2010-08-29T16:20:06Z</time>
<desc>lat.=56.085785, lon.=26.365484, Alt.=100.919006m. Speed=26.280001m/h.</desc>
<speed>7.300000</speed>
</trkpt>
<trkpt lat="56.085716" lon="26.365517">
<ele>100.848694</ele>
<time>2010-08-29T16:20:07Z</time>
<desc>lat.=56.085716, lon.=26.365517, Alt.=100.848694m. Speed=26.172001m/h.</desc>
<speed>7.270000</speed>
</trkpt>
<trkpt lat="56.085651" lon="26.365547">
<ele>100.788147</ele>
<time>2010-08-29T16:20:08Z</time>
<desc>lat.=56.085651, lon.=26.365547, Alt.=100.788147m. Speed=26.136000m/h.</desc>
<speed>7.260000</speed>
</trkpt>
<trkpt lat="56.085590" lon="26.365582">
<ele>100.657288</ele>
<time>2010-08-29T16:20:09Z</time>
<desc>lat.=56.085590, lon.=26.365582, Alt.=100.657288m. Speed=26.280001m/h.</desc>
<speed>7.300000</speed>
</trkpt>
<trkpt lat="56.085526" lon="26.365616">
<ele>100.737366</ele>
<time>2010-08-29T16:20:10Z</time>
<desc>lat.=56.085526, lon.=26.365616, Alt.=100.737366m. Speed=26.208000m/h.</desc>
<speed>7.280000</speed>
</trkpt>
<trkpt lat="56.085464" lon="26.365646">
<ele>100.786194</ele>
<time>2010-08-29T16:20:11Z</time>
<desc>lat.=56.085464, lon.=26.365646, Alt.=100.786194m. Speed=26.028000m/h.</desc>
<speed>7.230000</speed>
</trkpt>
<trkpt lat="56.085403" lon="26.365679">
<ele>100.895569</ele>
<time>2010-08-29T16:20:12Z</time>
<desc>lat.=56.085403, lon.=26.365679, Alt.=100.895569m. Speed=26.028000m/h.</desc>
<speed>7.230000</speed>
</trkpt>
<trkpt lat="56.085339" lon="26.365711">
<ele>100.856506</ele>
<time>2010-08-29T16:20:13Z</time>
<desc>lat.=56.085339, lon.=26.365711, Alt.=100.856506m. Speed=25.524000m/h.</desc>
<speed>7.090000</speed>
</trkpt>
<trkpt lat="56.085278" lon="26.365740">
<ele>100.823303</ele>
<time>2010-08-29T16:20:14Z</time>
<desc>lat.=56.085278, lon.=26.365740, Alt.=100.823303m. Speed=26.280001m/h.</desc>
<speed>7.300000</speed>
</trkpt>
<trkpt lat="56.085217" lon="26.365772">
<ele>100.758850</ele>
<time>2010-08-29T16:20:15Z</time>
<desc>lat.=56.085217, lon.=26.365772, Alt.=100.758850m. Speed=25.920000m/h.</desc>
<speed>7.200000</speed>
</trkpt>
<trkpt lat="56.085155" lon="26.365805">
<ele>100.674866</ele>
<time>2010-08-29T16:20:16Z</time>
<desc>lat.=56.085155, lon.=26.365805, Alt.=100.674866m. Speed=25.667999m/h.</desc>
<speed>7.130000</speed>
</trkpt>
<trkpt lat="56.085094" lon="26.365839">
<ele>100.555725</ele>
<time>2010-08-29T16:20:17Z</time>
<desc>lat.=56.085094, lon.=26.365839, Alt.=100.555725m. Speed=24.372000m/h.</desc>
<speed>6.770000</speed>
</trkpt>
<trkpt lat="56.085041" lon="26.365871">
<ele>100.532288</ele>
<time>2010-08-29T16:20:18Z</time>
<desc>lat.=56.085041, lon.=26.365871, Alt.=100.532288m. Speed=23.580000m/h.</desc>
<speed>6.550000</speed>
</trkpt>
<trkpt lat="56.084988" lon="26.365906">
<ele>100.704163</ele>
<time>2010-08-29T16:20:19Z</time>
<desc>lat.=56.084988, lon.=26.365906, Alt.=100.704163m. Speed=22.788000m/h.</desc>
<speed>6.330000</speed>
</trkpt>
<trkpt lat="56.084934" lon="26.365942">
<ele>100.725647</ele>
<time>2010-08-29T16:20:20Z</time>
<desc>lat.=56.084934, lon.=26.365942, Alt.=100.725647m. Speed=23.040001m/h.</desc>
<speed>6.400000</speed>
</trkpt>
<trkpt lat="56.084885" lon="26.365974">
<ele>100.694397</ele>
<time>2010-08-29T16:20:21Z</time>
<desc>lat.=56.084885, lon.=26.365974, Alt.=100.694397m. Speed=21.240000m/h.</desc>
<speed>5.900000</speed>
</trkpt>
<trkpt lat="56.084827" lon="26.366003">
<ele>100.446350</ele>
<time>2010-08-29T16:20:22Z</time>
<desc>lat.=56.084827, lon.=26.366003, Alt.=100.446350m. Speed=22.427999m/h.</desc>
<speed>6.230000</speed>
</trkpt>
<trkpt lat="56.084774" lon="26.366028">
<ele>100.317444</ele>
<time>2010-08-29T16:20:23Z</time>
<desc>lat.=56.084774, lon.=26.366028, Alt.=100.317444m. Speed=21.420000m/h.</desc>
<speed>5.950000</speed>
</trkpt>
<trkpt lat="56.084724" lon="26.366047">
<ele>100.184631</ele>
<time>2010-08-29T16:20:24Z</time>
<desc>lat.=56.084724, lon.=26.366047, Alt.=100.184631m. Speed=21.059999m/h.</desc>
<speed>5.850000</speed>
</trkpt>
<trkpt lat="56.084671" lon="26.366076">
<ele>100.081116</ele>
<time>2010-08-29T16:20:25Z</time>
<desc>lat.=56.084671, lon.=26.366076, Alt.=100.081116m. Speed=20.736000m/h.</desc>
<speed>5.760000</speed>
</trkpt>
<trkpt lat="56.084621" lon="26.366100">
<ele>100.086975</ele>
<time>2010-08-29T16:20:26Z</time>
<desc>lat.=56.084621, lon.=26.366100, Alt.=100.086975m. Speed=22.032000m/h.</desc>
<speed>6.120000</speed>
</trkpt>
<trkpt lat="56.084572" lon="26.366125">
<ele>99.870178</ele>
<time>2010-08-29T16:20:27Z</time>
<desc>lat.=56.084572, lon.=26.366125, Alt.=99.870178m. Speed=22.176001m/h.</desc>
<speed>6.160000</speed>
</trkpt>
<trkpt lat="56.084522" lon="26.366152">
<ele>99.706116</ele>
<time>2010-08-29T16:20:28Z</time>
<desc>lat.=56.084522, lon.=26.366152, Alt.=99.706116m. Speed=21.132000m/h.</desc>
<speed>5.870000</speed>
</trkpt>
<trkpt lat="56.084469" lon="26.366182">
<ele>99.672913</ele>
<time>2010-08-29T16:20:29Z</time>
<desc>lat.=56.084469, lon.=26.366182, Alt.=99.672913m. Speed=21.816000m/h.</desc>
<speed>6.060000</speed>
</trkpt>
<trkpt lat="56.084415" lon="26.366211">
<ele>99.807678</ele>
<time>2010-08-29T16:20:30Z</time>
<desc>lat.=56.084415, lon.=26.366211, Alt.=99.807678m. Speed=22.212000m/h.</desc>
<speed>6.170000</speed>
</trkpt>
<trkpt lat="56.084362" lon="26.366243">
<ele>99.975647</ele>
<time>2010-08-29T16:20:31Z</time>
<desc>lat.=56.084362, lon.=26.366243, Alt.=99.975647m. Speed=22.284000m/h.</desc>
<speed>6.190000</speed>
</trkpt>
<trkpt lat="56.084309" lon="26.366280">
<ele>100.206116</ele>
<time>2010-08-29T16:20:32Z</time>
<desc>lat.=56.084309, lon.=26.366280, Alt.=100.206116m. Speed=22.356001m/h.</desc>
<speed>6.210000</speed>
</trkpt>
<trkpt lat="56.084259" lon="26.366314">
<ele>100.159241</ele>
<time>2010-08-29T16:20:33Z</time>
<desc>lat.=56.084259, lon.=26.366314, Alt.=100.159241m. Speed=22.716000m/h.</desc>
<speed>6.310000</speed>
</trkpt>
<trkpt lat="56.084202" lon="26.366341">
<ele>100.094788</ele>
<time>2010-08-29T16:20:34Z</time>
<desc>lat.=56.084202, lon.=26.366341, Alt.=100.094788m. Speed=23.040001m/h.</desc>
<speed>6.400000</speed>
</trkpt>
<trkpt lat="56.084148" lon="26.366365">
<ele>99.981506</ele>
<time>2010-08-29T16:20:35Z</time>
<desc>lat.=56.084148, lon.=26.366365, Alt.=99.981506m. Speed=23.112000m/h.</desc>
<speed>6.420000</speed>
</trkpt>
<trkpt lat="56.084091" lon="26.366390">
<ele>99.862366</ele>
<time>2010-08-29T16:20:36Z</time>
<desc>lat.=56.084091, lon.=26.366390, Alt.=99.862366m. Speed=22.896000m/h.</desc>
<speed>6.360000</speed>
</trkpt>
<trkpt lat="56.084034" lon="26.366421">
<ele>99.879944</ele>
<time>2010-08-29T16:20:37Z</time>
<desc>lat.=56.084034, lon.=26.366421, Alt.=99.879944m. Speed=23.148001m/h.</desc>
<speed>6.430000</speed>
</trkpt>
<trkpt lat="56.083981" lon="26.366451">
<ele>100.067444</ele>
<time>2010-08-29T16:20:38Z</time>
<desc>lat.=56.083981, lon.=26.366451, Alt.=100.067444m. Speed=22.320000m/h.</desc>
<speed>6.200000</speed>
</trkpt>
<trkpt lat="56.083923" lon="26.366478">
<ele>100.032288</ele>
<time>2010-08-29T16:20:39Z</time>
<desc>lat.=56.083923, lon.=26.366478, Alt.=100.032288m. Speed=23.292000m/h.</desc>
<speed>6.470000</speed>
</trkpt>
<trkpt lat="56.083870" lon="26.366510">
<ele>100.071350</ele>
<time>2010-08-29T16:20:40Z</time>
<desc>lat.=56.083870, lon.=26.366510, Alt.=100.071350m. Speed=22.716000m/h.</desc>
<speed>6.310000</speed>
</trkpt>
<trkpt lat="56.083813" lon="26.366543">
<ele>99.838928</ele>
<time>2010-08-29T16:20:41Z</time>
<desc>lat.=56.083813, lon.=26.366543, Alt.=99.838928m. Speed=23.615999m/h.</desc>
<speed>6.560000</speed>
</trkpt>
<trkpt lat="56.083759" lon="26.366575">
<ele>99.602600</ele>
<time>2010-08-29T16:20:42Z</time>
<desc>lat.=56.083759, lon.=26.366575, Alt.=99.602600m. Speed=23.364000m/h.</desc>
<speed>6.490000</speed>
</trkpt>
<trkpt lat="56.083698" lon="26.366606">
<ele>99.336975</ele>
<time>2010-08-29T16:20:43Z</time>
<desc>lat.=56.083698, lon.=26.366606, Alt.=99.336975m. Speed=23.688000m/h.</desc>
<speed>6.580000</speed>
</trkpt>
<trkpt lat="56.083641" lon="26.366636">
<ele>99.184631</ele>
<time>2010-08-29T16:20:44Z</time>
<desc>lat.=56.083641, lon.=26.366636, Alt.=99.184631m. Speed=24.120001m/h.</desc>
<speed>6.700000</speed>
</trkpt>
<trkpt lat="56.083588" lon="26.366667">
<ele>98.989319</ele>
<time>2010-08-29T16:20:45Z</time>
<desc>lat.=56.083588, lon.=26.366667, Alt.=98.989319m. Speed=24.048000m/h.</desc>
<speed>6.680000</speed>
</trkpt>
<trkpt lat="56.083530" lon="26.366707">
<ele>99.415100</ele>
<time>2010-08-29T16:20:46Z</time>
<desc>lat.=56.083530, lon.=26.366707, Alt.=99.415100m. Speed=24.299999m/h.</desc>
<speed>6.750000</speed>
</trkpt>
<trkpt lat="56.083473" lon="26.366747">
<ele>99.229553</ele>
<time>2010-08-29T16:20:47Z</time>
<desc>lat.=56.083473, lon.=26.366747, Alt.=99.229553m. Speed=24.444000m/h.</desc>
<speed>6.790000</speed>
</trkpt>
<trkpt lat="56.083416" lon="26.366781">
<ele>98.940491</ele>
<time>2010-08-29T16:20:48Z</time>
<desc>lat.=56.083416, lon.=26.366781, Alt.=98.940491m. Speed=24.048000m/h.</desc>
<speed>6.680000</speed>
</trkpt>
<trkpt lat="56.083355" lon="26.366812">
<ele>98.827209</ele>
<time>2010-08-29T16:20:49Z</time>
<desc>lat.=56.083355, lon.=26.366812, Alt.=98.827209m. Speed=24.695999m/h.</desc>
<speed>6.860000</speed>
</trkpt>
<trkpt lat="56.083298" lon="26.366842">
<ele>98.944397</ele>
<time>2010-08-29T16:20:50Z</time>
<desc>lat.=56.083298, lon.=26.366842, Alt.=98.944397m. Speed=24.695999m/h.</desc>
<speed>6.860000</speed>
</trkpt>
<trkpt lat="56.083241" lon="26.366875">
<ele>99.051819</ele>
<time>2010-08-29T16:20:51Z</time>
<desc>lat.=56.083241, lon.=26.366875, Alt.=99.051819m. Speed=25.271999m/h.</desc>
<speed>7.020000</speed>
</trkpt>
<trkpt lat="56.083179" lon="26.366905">
<ele>98.809631</ele>
<time>2010-08-29T16:20:52Z</time>
<desc>lat.=56.083179, lon.=26.366905, Alt.=98.809631m. Speed=25.200001m/h.</desc>
<speed>7.000000</speed>
</trkpt>
<trkpt lat="56.083115" lon="26.366940">
<ele>98.436584</ele>
<time>2010-08-29T16:20:53Z</time>
<desc>lat.=56.083115, lon.=26.366940, Alt.=98.436584m. Speed=25.416000m/h.</desc>
<speed>7.060000</speed>
</trkpt>
<trkpt lat="56.083050" lon="26.366974">
<ele>98.370178</ele>
<time>2010-08-29T16:20:54Z</time>
<desc>lat.=56.083050, lon.=26.366974, Alt.=98.370178m. Speed=25.812000m/h.</desc>
<speed>7.170000</speed>
</trkpt>
<trkpt lat="56.082989" lon="26.367004">
<ele>98.096741</ele>
<time>2010-08-29T16:20:55Z</time>
<desc>lat.=56.082989, lon.=26.367004, Alt.=98.096741m. Speed=25.920000m/h.</desc>
<speed>7.200000</speed>
</trkpt>
<trkpt lat="56.082932" lon="26.367035">
<ele>98.545959</ele>
<time>2010-08-29T16:20:56Z</time>
<desc>lat.=56.082932, lon.=26.367035, Alt.=98.545959m. Speed=26.316000m/h.</desc>
<speed>7.310000</speed>
</trkpt>
<trkpt lat="56.082867" lon="26.367065">
<ele>98.508850</ele>
<time>2010-08-29T16:20:57Z</time>
<desc>lat.=56.082867, lon.=26.367065, Alt.=98.508850m. Speed=25.488001m/h.</desc>
<speed>7.080000</speed>
</trkpt>
<trkpt lat="56.082809" lon="26.367098">
<ele>98.487366</ele>
<time>2010-08-29T16:20:58Z</time>
<desc>lat.=56.082809, lon.=26.367098, Alt.=98.487366m. Speed=24.948000m/h.</desc>
<speed>6.930000</speed>
</trkpt>
<trkpt lat="56.082748" lon="26.367128">
<ele>98.420959</ele>
<time>2010-08-29T16:20:59Z</time>
<desc>lat.=56.082748, lon.=26.367128, Alt.=98.420959m. Speed=24.264000m/h.</desc>
<speed>6.740000</speed>
</trkpt>
<trkpt lat="56.082691" lon="26.367161">
<ele>98.448303</ele>
<time>2010-08-29T16:21:00Z</time>
<desc>lat.=56.082691, lon.=26.367161, Alt.=98.448303m. Speed=23.903999m/h.</desc>
<speed>6.640000</speed>
</trkpt>
<trkpt lat="56.082634" lon="26.367193">
<ele>98.297913</ele>
<time>2010-08-29T16:21:01Z</time>
<desc>lat.=56.082634, lon.=26.367193, Alt.=98.297913m. Speed=23.507999m/h.</desc>
<speed>6.530000</speed>
</trkpt>
<trkpt lat="56.082581" lon="26.367222">
<ele>98.038147</ele>
<time>2010-08-29T16:21:02Z</time>
<desc>lat.=56.082581, lon.=26.367222, Alt.=98.038147m. Speed=22.896000m/h.</desc>
<speed>6.360000</speed>
</trkpt>
<trkpt lat="56.082527" lon="26.367249">
<ele>98.151428</ele>
<time>2010-08-29T16:21:03Z</time>
<desc>lat.=56.082527, lon.=26.367249, Alt.=98.151428m. Speed=22.247999m/h.</desc>
<speed>6.180000</speed>
</trkpt>
<trkpt lat="56.082474" lon="26.367277">
<ele>97.540100</ele>
<time>2010-08-29T16:21:04Z</time>
<desc>lat.=56.082474, lon.=26.367277, Alt.=97.540100m. Speed=22.139999m/h.</desc>
<speed>6.150000</speed>
</trkpt>
<trkpt lat="56.082420" lon="26.367306">
<ele>97.231506</ele>
<time>2010-08-29T16:21:05Z</time>
<desc>lat.=56.082420, lon.=26.367306, Alt.=97.231506m. Speed=22.176001m/h.</desc>
<speed>6.160000</speed>
</trkpt>
<trkpt lat="56.082371" lon="26.367334">
<ele>98.514709</ele>
<time>2010-08-29T16:21:06Z</time>
<desc>lat.=56.082371, lon.=26.367334, Alt.=98.514709m. Speed=22.464001m/h.</desc>
<speed>6.240000</speed>
</trkpt>
<trkpt lat="56.082317" lon="26.367365">
<ele>98.014709</ele>
<time>2010-08-29T16:21:07Z</time>
<desc>lat.=56.082317, lon.=26.367365, Alt.=98.014709m. Speed=22.968000m/h.</desc>
<speed>6.380000</speed>
</trkpt>
<trkpt lat="56.082260" lon="26.367399">
<ele>97.930725</ele>
<time>2010-08-29T16:21:08Z</time>
<desc>lat.=56.082260, lon.=26.367399, Alt.=97.930725m. Speed=23.436001m/h.</desc>
<speed>6.510000</speed>
</trkpt>
<trkpt lat="56.082203" lon="26.367428">
<ele>97.835022</ele>
<time>2010-08-29T16:21:09Z</time>
<desc>lat.=56.082203, lon.=26.367428, Alt.=97.835022m. Speed=24.120001m/h.</desc>
<speed>6.700000</speed>
</trkpt>
<trkpt lat="56.082142" lon="26.367456">
<ele>97.963928</ele>
<time>2010-08-29T16:21:10Z</time>
<desc>lat.=56.082142, lon.=26.367456, Alt.=97.963928m. Speed=24.191999m/h.</desc>
<speed>6.720000</speed>
</trkpt>
<trkpt lat="56.082085" lon="26.367489">
<ele>97.950256</ele>
<time>2010-08-29T16:21:11Z</time>
<desc>lat.=56.082085, lon.=26.367489, Alt.=97.950256m. Speed=24.875999m/h.</desc>
<speed>6.910000</speed>
</trkpt>
<trkpt lat="56.082027" lon="26.367523">
<ele>97.897522</ele>
<time>2010-08-29T16:21:12Z</time>
<desc>lat.=56.082027, lon.=26.367523, Alt.=97.897522m. Speed=25.164000m/h.</desc>
<speed>6.990000</speed>
</trkpt>
<trkpt lat="56.081966" lon="26.367559">
<ele>98.028381</ele>
<time>2010-08-29T16:21:13Z</time>
<desc>lat.=56.081966, lon.=26.367559, Alt.=98.028381m. Speed=25.524000m/h.</desc>
<speed>7.090000</speed>
</trkpt>
<trkpt lat="56.081905" lon="26.367596">
<ele>98.028381</ele>
<time>2010-08-29T16:21:14Z</time>
<desc>lat.=56.081905, lon.=26.367596, Alt.=98.028381m. Speed=26.351999m/h.</desc>
<speed>7.320000</speed>
</trkpt>
<trkpt lat="56.081841" lon="26.367634">
<ele>97.827209</ele>
<time>2010-08-29T16:21:15Z</time>
<desc>lat.=56.081841, lon.=26.367634, Alt.=97.827209m. Speed=26.243999m/h.</desc>
<speed>7.290000</speed>
</trkpt>
<trkpt lat="56.081776" lon="26.367674">
<ele>97.770569</ele>
<time>2010-08-29T16:21:16Z</time>
<desc>lat.=56.081776, lon.=26.367674, Alt.=97.770569m. Speed=26.316000m/h.</desc>
<speed>7.310000</speed>
</trkpt>
<trkpt lat="56.081715" lon="26.367710">
<ele>97.934631</ele>
<time>2010-08-29T16:21:17Z</time>
<desc>lat.=56.081715, lon.=26.367710, Alt.=97.934631m. Speed=26.316000m/h.</desc>
<speed>7.310000</speed>
</trkpt>
<trkpt lat="56.081654" lon="26.367743">
<ele>98.161194</ele>
<time>2010-08-29T16:21:18Z</time>
<desc>lat.=56.081654, lon.=26.367743, Alt.=98.161194m. Speed=26.316000m/h.</desc>
<speed>7.310000</speed>
</trkpt>
<trkpt lat="56.081593" lon="26.367777">
<ele>98.211975</ele>
<time>2010-08-29T16:21:19Z</time>
<desc>lat.=56.081593, lon.=26.367777, Alt.=98.211975m. Speed=25.596001m/h.</desc>
<speed>7.110000</speed>
</trkpt>
<trkpt lat="56.081532" lon="26.367811">
<ele>98.229553</ele>
<time>2010-08-29T16:21:20Z</time>
<desc>lat.=56.081532, lon.=26.367811, Alt.=98.229553m. Speed=25.020000m/h.</desc>
<speed>6.950000</speed>
</trkpt>
<trkpt lat="56.081474" lon="26.367846">
<ele>98.114319</ele>
<time>2010-08-29T16:21:21Z</time>
<desc>lat.=56.081474, lon.=26.367846, Alt.=98.114319m. Speed=24.408001m/h.</desc>
<speed>6.780000</speed>
</trkpt>
<trkpt lat="56.081417" lon="26.367878">
<ele>98.075256</ele>
<time>2010-08-29T16:21:22Z</time>
<desc>lat.=56.081417, lon.=26.367878, Alt.=98.075256m. Speed=24.228001m/h.</desc>
<speed>6.730000</speed>
</trkpt>
<trkpt lat="56.081360" lon="26.367910">
<ele>98.305725</ele>
<time>2010-08-29T16:21:23Z</time>
<desc>lat.=56.081360, lon.=26.367910, Alt.=98.305725m. Speed=24.120001m/h.</desc>
<speed>6.700000</speed>
</trkpt>
<trkpt lat="56.081303" lon="26.367941">
<ele>98.426819</ele>
<time>2010-08-29T16:21:24Z</time>
<desc>lat.=56.081303, lon.=26.367941, Alt.=98.426819m. Speed=24.768000m/h.</desc>
<speed>6.880000</speed>
</trkpt>
<trkpt lat="56.081245" lon="26.367971">
<ele>98.653381</ele>
<time>2010-08-29T16:21:25Z</time>
<desc>lat.=56.081245, lon.=26.367971, Alt.=98.653381m. Speed=25.200001m/h.</desc>
<speed>7.000000</speed>
</trkpt>
<trkpt lat="56.081181" lon="26.368006">
<ele>98.631897</ele>
<time>2010-08-29T16:21:26Z</time>
<desc>lat.=56.081181, lon.=26.368006, Alt.=98.631897m. Speed=25.488001m/h.</desc>
<speed>7.080000</speed>
</trkpt>
<trkpt lat="56.081120" lon="26.368032">
<ele>98.778381</ele>
<time>2010-08-29T16:21:27Z</time>
<desc>lat.=56.081120, lon.=26.368032, Alt.=98.778381m. Speed=25.559999m/h.</desc>
<speed>7.100000</speed>
</trkpt>
<trkpt lat="56.081055" lon="26.368063">
<ele>98.936584</ele>
<time>2010-08-29T16:21:28Z</time>
<desc>lat.=56.081055, lon.=26.368063, Alt.=98.936584m. Speed=25.920000m/h.</desc>
<speed>7.200000</speed>
</trkpt>
<trkpt lat="56.080994" lon="26.368097">
<ele>98.881897</ele>
<time>2010-08-29T16:21:29Z</time>
<desc>lat.=56.080994, lon.=26.368097, Alt.=98.881897m. Speed=26.388000m/h.</desc>
<speed>7.330000</speed>
</trkpt>
<trkpt lat="56.080929" lon="26.368134">
<ele>98.715881</ele>
<time>2010-08-29T16:21:30Z</time>
<desc>lat.=56.080929, lon.=26.368134, Alt.=98.715881m. Speed=26.388000m/h.</desc>
<speed>7.330000</speed>
</trkpt>
<trkpt lat="56.080868" lon="26.368168">
<ele>98.657288</ele>
<time>2010-08-29T16:21:31Z</time>
<desc>lat.=56.080868, lon.=26.368168, Alt.=98.657288m. Speed=26.676001m/h.</desc>
<speed>7.410000</speed>
</trkpt>
<trkpt lat="56.080803" lon="26.368202">
<ele>98.588928</ele>
<time>2010-08-29T16:21:32Z</time>
<desc>lat.=56.080803, lon.=26.368202, Alt.=98.588928m. Speed=27.180000m/h.</desc>
<speed>7.550000</speed>
</trkpt>
<trkpt lat="56.080738" lon="26.368240">
<ele>98.506897</ele>
<time>2010-08-29T16:21:33Z</time>
<desc>lat.=56.080738, lon.=26.368240, Alt.=98.506897m. Speed=27.360001m/h.</desc>
<speed>7.600000</speed>
</trkpt>
<trkpt lat="56.080673" lon="26.368280">
<ele>98.502991</ele>
<time>2010-08-29T16:21:34Z</time>
<desc>lat.=56.080673, lon.=26.368280, Alt.=98.502991m. Speed=27.719999m/h.</desc>
<speed>7.700000</speed>
</trkpt>
<trkpt lat="56.080608" lon="26.368317">
<ele>98.477600</ele>
<time>2010-08-29T16:21:35Z</time>
<desc>lat.=56.080608, lon.=26.368317, Alt.=98.477600m. Speed=27.756001m/h.</desc>
<speed>7.710000</speed>
</trkpt>
<trkpt lat="56.080540" lon="26.368351">
<ele>98.436584</ele>
<time>2010-08-29T16:21:36Z</time>
<desc>lat.=56.080540, lon.=26.368351, Alt.=98.436584m. Speed=27.576000m/h.</desc>
<speed>7.660000</speed>
</trkpt>
<trkpt lat="56.080475" lon="26.368385">
<ele>98.346741</ele>
<time>2010-08-29T16:21:37Z</time>
<desc>lat.=56.080475, lon.=26.368385, Alt.=98.346741m. Speed=26.927999m/h.</desc>
<speed>7.480000</speed>
</trkpt>
<trkpt lat="56.080410" lon="26.368422">
<ele>98.274475</ele>
<time>2010-08-29T16:21:38Z</time>
<desc>lat.=56.080410, lon.=26.368422, Alt.=98.274475m. Speed=26.243999m/h.</desc>
<speed>7.290000</speed>
</trkpt>
<trkpt lat="56.080349" lon="26.368458">
<ele>98.098694</ele>
<time>2010-08-29T16:21:39Z</time>
<desc>lat.=56.080349, lon.=26.368458, Alt.=98.098694m. Speed=25.596001m/h.</desc>
<speed>7.110000</speed>
</trkpt>
<trkpt lat="56.080288" lon="26.368492">
<ele>98.143616</ele>
<time>2010-08-29T16:21:40Z</time>
<desc>lat.=56.080288, lon.=26.368492, Alt.=98.143616m. Speed=24.732000m/h.</desc>
<speed>6.870000</speed>
</trkpt>
<trkpt lat="56.080231" lon="26.368521">
<ele>98.083069</ele>
<time>2010-08-29T16:21:41Z</time>
<desc>lat.=56.080231, lon.=26.368521, Alt.=98.083069m. Speed=24.120001m/h.</desc>
<speed>6.700000</speed>
</trkpt>
<trkpt lat="56.080173" lon="26.368547">
<ele>97.969788</ele>
<time>2010-08-29T16:21:42Z</time>
<desc>lat.=56.080173, lon.=26.368547, Alt.=97.969788m. Speed=23.544001m/h.</desc>
<speed>6.540000</speed>
</trkpt>
<trkpt lat="56.080120" lon="26.368572">
<ele>97.846741</ele>
<time>2010-08-29T16:21:43Z</time>
<desc>lat.=56.080120, lon.=26.368572, Alt.=97.846741m. Speed=23.004000m/h.</desc>
<speed>6.390000</speed>
</trkpt>
<trkpt lat="56.080067" lon="26.368603">
<ele>97.723694</ele>
<time>2010-08-29T16:21:44Z</time>
<desc>lat.=56.080067, lon.=26.368603, Alt.=97.723694m. Speed=22.643999m/h.</desc>
<speed>6.290000</speed>
</trkpt>
<trkpt lat="56.080013" lon="26.368635">
<ele>97.895569</ele>
<time>2010-08-29T16:21:45Z</time>
<desc>lat.=56.080013, lon.=26.368635, Alt.=97.895569m. Speed=22.572001m/h.</desc>
<speed>6.270000</speed>
</trkpt>
<trkpt lat="56.079960" lon="26.368664">
<ele>97.846741</ele>
<time>2010-08-29T16:21:46Z</time>
<desc>lat.=56.079960, lon.=26.368664, Alt.=97.846741m. Speed=22.788000m/h.</desc>
<speed>6.330000</speed>
</trkpt>
<trkpt lat="56.079903" lon="26.368694">
<ele>97.794006</ele>
<time>2010-08-29T16:21:47Z</time>
<desc>lat.=56.079903, lon.=26.368694, Alt.=97.794006m. Speed=23.184000m/h.</desc>
<speed>6.440000</speed>
</trkpt>
<trkpt lat="56.079845" lon="26.368725">
<ele>97.729553</ele>
<time>2010-08-29T16:21:48Z</time>
<desc>lat.=56.079845, lon.=26.368725, Alt.=97.729553m. Speed=23.724001m/h.</desc>
<speed>6.590000</speed>
</trkpt>
<trkpt lat="56.079788" lon="26.368753">
<ele>97.823303</ele>
<time>2010-08-29T16:21:49Z</time>
<desc>lat.=56.079788, lon.=26.368753, Alt.=97.823303m. Speed=23.724001m/h.</desc>
<speed>6.590000</speed>
</trkpt>
<trkpt lat="56.079731" lon="26.368782">
<ele>98.010803</ele>
<time>2010-08-29T16:21:50Z</time>
<desc>lat.=56.079731, lon.=26.368782, Alt.=98.010803m. Speed=24.299999m/h.</desc>
<speed>6.750000</speed>
</trkpt>
<trkpt lat="56.079670" lon="26.368816">
<ele>98.180725</ele>
<time>2010-08-29T16:21:51Z</time>
<desc>lat.=56.079670, lon.=26.368816, Alt.=98.180725m. Speed=24.587999m/h.</desc>
<speed>6.830000</speed>
</trkpt>
<trkpt lat="56.079613" lon="26.368851">
<ele>98.358459</ele>
<time>2010-08-29T16:21:52Z</time>
<desc>lat.=56.079613, lon.=26.368851, Alt.=98.358459m. Speed=24.875999m/h.</desc>
<speed>6.910000</speed>
</trkpt>
<trkpt lat="56.079552" lon="26.368889">
<ele>98.426819</ele>
<time>2010-08-29T16:21:53Z</time>
<desc>lat.=56.079552, lon.=26.368889, Alt.=98.426819m. Speed=25.236000m/h.</desc>
<speed>7.010000</speed>
</trkpt>
<trkpt lat="56.079491" lon="26.368919">
<ele>98.419006</ele>
<time>2010-08-29T16:21:54Z</time>
<desc>lat.=56.079491, lon.=26.368919, Alt.=98.419006m. Speed=25.667999m/h.</desc>
<speed>7.130000</speed>
</trkpt>
<trkpt lat="56.079430" lon="26.368948">
<ele>98.510803</ele>
<time>2010-08-29T16:21:55Z</time>
<desc>lat.=56.079430, lon.=26.368948, Alt.=98.510803m. Speed=26.063999m/h.</desc>
<speed>7.240000</speed>
</trkpt>
<trkpt lat="56.079369" lon="26.368980">
<ele>98.733459</ele>
<time>2010-08-29T16:21:56Z</time>
<desc>lat.=56.079369, lon.=26.368980, Alt.=98.733459m. Speed=26.351999m/h.</desc>
<speed>7.320000</speed>
</trkpt>
<trkpt lat="56.079304" lon="26.369015">
<ele>98.639709</ele>
<time>2010-08-29T16:21:57Z</time>
<desc>lat.=56.079304, lon.=26.369015, Alt.=98.639709m. Speed=24.732000m/h.</desc>
<speed>6.870000</speed>
</trkpt>
<trkpt lat="56.079247" lon="26.369053">
<ele>98.590881</ele>
<time>2010-08-29T16:21:58Z</time>
<desc>lat.=56.079247, lon.=26.369053, Alt.=98.590881m. Speed=25.308001m/h.</desc>
<speed>7.030000</speed>
</trkpt>
<trkpt lat="56.079185" lon="26.369085">
<ele>98.501038</ele>
<time>2010-08-29T16:21:59Z</time>
<desc>lat.=56.079185, lon.=26.369085, Alt.=98.501038m. Speed=24.084000m/h.</desc>
<speed>6.690000</speed>
</trkpt>
<trkpt lat="56.079128" lon="26.369118">
<ele>98.643616</ele>
<time>2010-08-29T16:22:00Z</time>
<desc>lat.=56.079128, lon.=26.369118, Alt.=98.643616m. Speed=24.011999m/h.</desc>
<speed>6.670000</speed>
</trkpt>
<trkpt lat="56.079075" lon="26.369152">
<ele>98.647522</ele>
<time>2010-08-29T16:22:01Z</time>
<desc>lat.=56.079075, lon.=26.369152, Alt.=98.647522m. Speed=24.299999m/h.</desc>
<speed>6.750000</speed>
</trkpt>
<trkpt lat="56.079018" lon="26.369188">
<ele>98.596741</ele>
<time>2010-08-29T16:22:02Z</time>
<desc>lat.=56.079018, lon.=26.369188, Alt.=98.596741m. Speed=25.164000m/h.</desc>
<speed>6.990000</speed>
</trkpt>
<trkpt lat="56.078957" lon="26.369225">
<ele>98.567444</ele>
<time>2010-08-29T16:22:03Z</time>
<desc>lat.=56.078957, lon.=26.369225, Alt.=98.567444m. Speed=25.488001m/h.</desc>
<speed>7.080000</speed>
</trkpt>
<trkpt lat="56.078896" lon="26.369255">
<ele>98.651428</ele>
<time>2010-08-29T16:22:04Z</time>
<desc>lat.=56.078896, lon.=26.369255, Alt.=98.651428m. Speed=25.812000m/h.</desc>
<speed>7.170000</speed>
</trkpt>
<trkpt lat="56.078835" lon="26.369286">
<ele>98.698303</ele>
<time>2010-08-29T16:22:05Z</time>
<desc>lat.=56.078835, lon.=26.369286, Alt.=98.698303m. Speed=26.351999m/h.</desc>
<speed>7.320000</speed>
</trkpt>
<trkpt lat="56.078770" lon="26.369318">
<ele>98.635803</ele>
<time>2010-08-29T16:22:06Z</time>
<desc>lat.=56.078770, lon.=26.369318, Alt.=98.635803m. Speed=26.712000m/h.</desc>
<speed>7.420000</speed>
</trkpt>
<trkpt lat="56.078705" lon="26.369354">
<ele>98.704163</ele>
<time>2010-08-29T16:22:07Z</time>
<desc>lat.=56.078705, lon.=26.369354, Alt.=98.704163m. Speed=27.216000m/h.</desc>
<speed>7.560000</speed>
</trkpt>
<trkpt lat="56.078640" lon="26.369390">
<ele>98.594788</ele>
<time>2010-08-29T16:22:08Z</time>
<desc>lat.=56.078640, lon.=26.369390, Alt.=98.594788m. Speed=27.719999m/h.</desc>
<speed>7.700000</speed>
</trkpt>
<trkpt lat="56.078575" lon="26.369427">
<ele>98.516663</ele>
<time>2010-08-29T16:22:09Z</time>
<desc>lat.=56.078575, lon.=26.369427, Alt.=98.516663m. Speed=28.260000m/h.</desc>
<speed>7.850000</speed>
</trkpt>
<trkpt lat="56.078506" lon="26.369465">
<ele>98.567444</ele>
<time>2010-08-29T16:22:10Z</time>
<desc>lat.=56.078506, lon.=26.369465, Alt.=98.567444m. Speed=28.836000m/h.</desc>
<speed>8.010000</speed>
</trkpt>
<trkpt lat="56.078438" lon="26.369505">
<ele>98.725647</ele>
<time>2010-08-29T16:22:11Z</time>
<desc>lat.=56.078438, lon.=26.369505, Alt.=98.725647m. Speed=29.195999m/h.</desc>
<speed>8.110000</speed>
</trkpt>
<trkpt lat="56.078365" lon="26.369549">
<ele>98.708069</ele>
<time>2010-08-29T16:22:12Z</time>
<desc>lat.=56.078365, lon.=26.369549, Alt.=98.708069m. Speed=29.808001m/h.</desc>
<speed>8.280000</speed>
</trkpt>
<trkpt lat="56.078297" lon="26.369591">
<ele>98.788147</ele>
<time>2010-08-29T16:22:13Z</time>
<desc>lat.=56.078297, lon.=26.369591, Alt.=98.788147m. Speed=30.059999m/h.</desc>
<speed>8.350000</speed>
</trkpt>
<trkpt lat="56.078224" lon="26.369629">
<ele>98.887756</ele>
<time>2010-08-29T16:22:14Z</time>
<desc>lat.=56.078224, lon.=26.369629, Alt.=98.887756m. Speed=30.492001m/h.</desc>
<speed>8.470000</speed>
</trkpt>
<trkpt lat="56.078152" lon="26.369667">
<ele>99.096741</ele>
<time>2010-08-29T16:22:15Z</time>
<desc>lat.=56.078152, lon.=26.369667, Alt.=99.096741m. Speed=29.664000m/h.</desc>
<speed>8.240000</speed>
</trkpt>
<trkpt lat="56.078079" lon="26.369703">
<ele>99.176819</ele>
<time>2010-08-29T16:22:16Z</time>
<desc>lat.=56.078079, lon.=26.369703, Alt.=99.176819m. Speed=29.232000m/h.</desc>
<speed>8.120000</speed>
</trkpt>
<trkpt lat="56.078011" lon="26.369743">
<ele>99.252991</ele>
<time>2010-08-29T16:22:17Z</time>
<desc>lat.=56.078011, lon.=26.369743, Alt.=99.252991m. Speed=28.403999m/h.</desc>
<speed>7.890000</speed>
</trkpt>
<trkpt lat="56.077946" lon="26.369781">
<ele>99.251038</ele>
<time>2010-08-29T16:22:18Z</time>
<desc>lat.=56.077946, lon.=26.369781, Alt.=99.251038m. Speed=27.612000m/h.</desc>
<speed>7.670000</speed>
</trkpt>
<trkpt lat="56.077881" lon="26.369820">
<ele>99.254944</ele>
<time>2010-08-29T16:22:19Z</time>
<desc>lat.=56.077881, lon.=26.369820, Alt.=99.254944m. Speed=26.820000m/h.</desc>
<speed>7.450000</speed>
</trkpt>
<trkpt lat="56.077816" lon="26.369854">
<ele>99.204163</ele>
<time>2010-08-29T16:22:20Z</time>
<desc>lat.=56.077816, lon.=26.369854, Alt.=99.204163m. Speed=26.892000m/h.</desc>
<speed>7.470000</speed>
</trkpt>
<trkpt lat="56.077751" lon="26.369894">
<ele>99.463928</ele>
<time>2010-08-29T16:22:21Z</time>
<desc>lat.=56.077751, lon.=26.369894, Alt.=99.463928m. Speed=27.180000m/h.</desc>
<speed>7.550000</speed>
</trkpt>
<trkpt lat="56.077686" lon="26.369930">
<ele>99.563538</ele>
<time>2010-08-29T16:22:22Z</time>
<desc>lat.=56.077686, lon.=26.369930, Alt.=99.563538m. Speed=27.396000m/h.</desc>
<speed>7.610000</speed>
</trkpt>
<trkpt lat="56.077621" lon="26.369965">
<ele>99.661194</ele>
<time>2010-08-29T16:22:23Z</time>
<desc>lat.=56.077621, lon.=26.369965, Alt.=99.661194m. Speed=27.576000m/h.</desc>
<speed>7.660000</speed>
</trkpt>
<trkpt lat="56.077553" lon="26.370003">
<ele>99.836975</ele>
<time>2010-08-29T16:22:24Z</time>
<desc>lat.=56.077553, lon.=26.370003, Alt.=99.836975m. Speed=27.900000m/h.</desc>
<speed>7.750000</speed>
</trkpt>
<trkpt lat="56.077488" lon="26.370037">
<ele>100.059631</ele>
<time>2010-08-29T16:22:25Z</time>
<desc>lat.=56.077488, lon.=26.370037, Alt.=100.059631m. Speed=27.936001m/h.</desc>
<speed>7.760000</speed>
</trkpt>
<trkpt lat="56.077423" lon="26.370077">
<ele>100.047913</ele>
<time>2010-08-29T16:22:26Z</time>
<desc>lat.=56.077423, lon.=26.370077, Alt.=100.047913m. Speed=28.332001m/h.</desc>
<speed>7.870000</speed>
</trkpt>
<trkpt lat="56.077354" lon="26.370113">
<ele>100.079163</ele>
<time>2010-08-29T16:22:27Z</time>
<desc>lat.=56.077354, lon.=26.370113, Alt.=100.079163m. Speed=28.620001m/h.</desc>
<speed>7.950000</speed>
</trkpt>
<trkpt lat="56.077286" lon="26.370152">
<ele>100.086975</ele>
<time>2010-08-29T16:22:28Z</time>
<desc>lat.=56.077286, lon.=26.370152, Alt.=100.086975m. Speed=28.691999m/h.</desc>
<speed>7.970000</speed>
</trkpt>
<trkpt lat="56.077213" lon="26.370188">
<ele>99.883850</ele>
<time>2010-08-29T16:22:29Z</time>
<desc>lat.=56.077213, lon.=26.370188, Alt.=99.883850m. Speed=29.520000m/h.</desc>
<speed>8.200000</speed>
</trkpt>
<trkpt lat="56.077145" lon="26.370224">
<ele>99.864319</ele>
<time>2010-08-29T16:22:30Z</time>
<desc>lat.=56.077145, lon.=26.370224, Alt.=99.864319m. Speed=29.591999m/h.</desc>
<speed>8.220000</speed>
</trkpt>
<trkpt lat="56.077072" lon="26.370264">
<ele>99.958069</ele>
<time>2010-08-29T16:22:31Z</time>
<desc>lat.=56.077072, lon.=26.370264, Alt.=99.958069m. Speed=29.952000m/h.</desc>
<speed>8.320000</speed>
</trkpt>
<trkpt lat="56.077000" lon="26.370304">
<ele>100.016663</ele>
<time>2010-08-29T16:22:32Z</time>
<desc>lat.=56.077000, lon.=26.370304, Alt.=100.016663m. Speed=30.096001m/h.</desc>
<speed>8.360000</speed>
</trkpt>
<trkpt lat="56.076927" lon="26.370342">
<ele>100.014709</ele>
<time>2010-08-29T16:22:33Z</time>
<desc>lat.=56.076927, lon.=26.370342, Alt.=100.014709m. Speed=30.420000m/h.</desc>
<speed>8.450000</speed>
</trkpt>
<trkpt lat="56.076855" lon="26.370380">
<ele>100.135803</ele>
<time>2010-08-29T16:22:34Z</time>
<desc>lat.=56.076855, lon.=26.370380, Alt.=100.135803m. Speed=30.816000m/h.</desc>
<speed>8.560000</speed>
</trkpt>
<trkpt lat="56.076782" lon="26.370422">
<ele>100.192444</ele>
<time>2010-08-29T16:22:35Z</time>
<desc>lat.=56.076782, lon.=26.370422, Alt.=100.192444m. Speed=31.104000m/h.</desc>
<speed>8.640000</speed>
</trkpt>
<trkpt lat="56.076710" lon="26.370466">
<ele>100.083069</ele>
<time>2010-08-29T16:22:36Z</time>
<desc>lat.=56.076710, lon.=26.370466, Alt.=100.083069m. Speed=31.176001m/h.</desc>
<speed>8.660000</speed>
</trkpt>
<trkpt lat="56.076633" lon="26.370508">
<ele>100.137756</ele>
<time>2010-08-29T16:22:37Z</time>
<desc>lat.=56.076633, lon.=26.370508, Alt.=100.137756m. Speed=31.104000m/h.</desc>
<speed>8.640000</speed>
</trkpt>
<trkpt lat="56.076565" lon="26.370552">
<ele>100.174866</ele>
<time>2010-08-29T16:22:38Z</time>
<desc>lat.=56.076565, lon.=26.370552, Alt.=100.174866m. Speed=30.312000m/h.</desc>
<speed>8.420000</speed>
</trkpt>
<trkpt lat="56.076492" lon="26.370594">
<ele>100.305725</ele>
<time>2010-08-29T16:22:39Z</time>
<desc>lat.=56.076492, lon.=26.370594, Alt.=100.305725m. Speed=29.412001m/h.</desc>
<speed>8.170000</speed>
</trkpt>
<trkpt lat="56.076424" lon="26.370634">
<ele>100.315491</ele>
<time>2010-08-29T16:22:40Z</time>
<desc>lat.=56.076424, lon.=26.370634, Alt.=100.315491m. Speed=28.620001m/h.</desc>
<speed>7.950000</speed>
</trkpt>
<trkpt lat="56.076355" lon="26.370672">
<ele>100.438538</ele>
<time>2010-08-29T16:22:41Z</time>
<desc>lat.=56.076355, lon.=26.370672, Alt.=100.438538m. Speed=27.684000m/h.</desc>
<speed>7.690000</speed>
</trkpt>
<trkpt lat="56.076290" lon="26.370705">
<ele>100.499084</ele>
<time>2010-08-29T16:22:42Z</time>
<desc>lat.=56.076290, lon.=26.370705, Alt.=100.499084m. Speed=26.747999m/h.</desc>
<speed>7.430000</speed>
</trkpt>
<trkpt lat="56.076229" lon="26.370733">
<ele>100.471741</ele>
<time>2010-08-29T16:22:43Z</time>
<desc>lat.=56.076229, lon.=26.370733, Alt.=100.471741m. Speed=25.992001m/h.</desc>
<speed>7.220000</speed>
</trkpt>
<trkpt lat="56.076168" lon="26.370764">
<ele>100.417053</ele>
<time>2010-08-29T16:22:44Z</time>
<desc>lat.=56.076168, lon.=26.370764, Alt.=100.417053m. Speed=25.271999m/h.</desc>
<speed>7.020000</speed>
</trkpt>
<trkpt lat="56.076111" lon="26.370794">
<ele>100.381897</ele>
<time>2010-08-29T16:22:45Z</time>
<desc>lat.=56.076111, lon.=26.370794, Alt.=100.381897m. Speed=24.480000m/h.</desc>
<speed>6.800000</speed>
</trkpt>
<trkpt lat="56.076054" lon="26.370825">
<ele>100.409241</ele>
<time>2010-08-29T16:22:46Z</time>
<desc>lat.=56.076054, lon.=26.370825, Alt.=100.409241m. Speed=24.084000m/h.</desc>
<speed>6.690000</speed>
</trkpt>
<trkpt lat="56.075996" lon="26.370857">
<ele>100.413147</ele>
<time>2010-08-29T16:22:47Z</time>
<desc>lat.=56.075996, lon.=26.370857, Alt.=100.413147m. Speed=24.587999m/h.</desc>
<speed>6.830000</speed>
</trkpt>
<trkpt lat="56.075935" lon="26.370888">
<ele>100.411194</ele>
<time>2010-08-29T16:22:48Z</time>
<desc>lat.=56.075935, lon.=26.370888, Alt.=100.411194m. Speed=24.516001m/h.</desc>
<speed>6.810000</speed>
</trkpt>
<trkpt lat="56.075878" lon="26.370922">
<ele>100.288147</ele>
<time>2010-08-29T16:22:49Z</time>
<desc>lat.=56.075878, lon.=26.370922, Alt.=100.288147m. Speed=24.983999m/h.</desc>
<speed>6.940000</speed>
</trkpt>
<trkpt lat="56.075817" lon="26.370955">
<ele>100.405334</ele>
<time>2010-08-29T16:22:50Z</time>
<desc>lat.=56.075817, lon.=26.370955, Alt.=100.405334m. Speed=25.308001m/h.</desc>
<speed>7.030000</speed>
</trkpt>
<trkpt lat="56.075760" lon="26.370987">
<ele>100.512756</ele>
<time>2010-08-29T16:22:51Z</time>
<desc>lat.=56.075760, lon.=26.370987, Alt.=100.512756m. Speed=25.200001m/h.</desc>
<speed>7.000000</speed>
</trkpt>
<trkpt lat="56.075699" lon="26.371023">
<ele>100.602600</ele>
<time>2010-08-29T16:22:52Z</time>
<desc>lat.=56.075699, lon.=26.371023, Alt.=100.602600m. Speed=24.372000m/h.</desc>
<speed>6.770000</speed>
</trkpt>
<trkpt lat="56.075642" lon="26.371059">
<ele>100.735413</ele>
<time>2010-08-29T16:22:53Z</time>
<desc>lat.=56.075642, lon.=26.371059, Alt.=100.735413m. Speed=23.652000m/h.</desc>
<speed>6.570000</speed>
</trkpt>
<trkpt lat="56.075584" lon="26.371092">
<ele>100.823303</ele>
<time>2010-08-29T16:22:54Z</time>
<desc>lat.=56.075584, lon.=26.371092, Alt.=100.823303m. Speed=24.191999m/h.</desc>
<speed>6.720000</speed>
</trkpt>
<trkpt lat="56.075527" lon="26.371124">
<ele>100.893616</ele>
<time>2010-08-29T16:22:55Z</time>
<desc>lat.=56.075527, lon.=26.371124, Alt.=100.893616m. Speed=23.796000m/h.</desc>
<speed>6.610000</speed>
</trkpt>
<trkpt lat="56.075474" lon="26.371149">
<ele>100.915100</ele>
<time>2010-08-29T16:22:56Z</time>
<desc>lat.=56.075474, lon.=26.371149, Alt.=100.915100m. Speed=22.968000m/h.</desc>
<speed>6.380000</speed>
</trkpt>
<trkpt lat="56.075424" lon="26.371172">
<ele>100.979553</ele>
<time>2010-08-29T16:22:57Z</time>
<desc>lat.=56.075424, lon.=26.371172, Alt.=100.979553m. Speed=19.620001m/h.</desc>
<speed>5.450000</speed>
</trkpt>
<trkpt lat="56.075382" lon="26.371195">
<ele>100.817444</ele>
<time>2010-08-29T16:22:58Z</time>
<desc>lat.=56.075382, lon.=26.371195, Alt.=100.817444m. Speed=15.804000m/h.</desc>
<speed>4.390000</speed>
</trkpt>
<trkpt lat="56.075348" lon="26.371212">
<ele>100.696350</ele>
<time>2010-08-29T16:22:59Z</time>
<desc>lat.=56.075348, lon.=26.371212, Alt.=100.696350m. Speed=11.736000m/h.</desc>
<speed>3.260000</speed>
</trkpt>
<trkpt lat="56.075325" lon="26.371225">
<ele>100.805725</ele>
<time>2010-08-29T16:23:00Z</time>
<desc>lat.=56.075325, lon.=26.371225, Alt.=100.805725m. Speed=7.812000m/h.</desc>
<speed>2.170000</speed>
</trkpt>
<trkpt lat="56.075310" lon="26.371231">
<ele>100.764709</ele>
<time>2010-08-29T16:23:01Z</time>
<desc>lat.=56.075310, lon.=26.371231, Alt.=100.764709m. Speed=3.744000m/h.</desc>
<speed>1.040000</speed>
</trkpt>
<trkpt lat="56.075306" lon="26.371235">
<ele>100.862366</ele>
<time>2010-08-29T16:23:02Z</time>
<desc>lat.=56.075306, lon.=26.371235, Alt.=100.862366m. Speed=1.908000m/h.</desc>
<speed>0.530000</speed>
</trkpt>
<trkpt lat="56.075302" lon="26.371229">
<ele>100.393616</ele>
<time>2010-08-29T16:23:03Z</time>
<desc>lat.=56.075302, lon.=26.371229, Alt.=100.393616m. Speed=1.440000m/h.</desc>
<speed>0.400000</speed>
</trkpt>
<trkpt lat="56.075302" lon="26.371227">
<ele>100.280334</ele>
<time>2010-08-29T16:23:04Z</time>
<desc>lat.=56.075302, lon.=26.371227, Alt.=100.280334m. Speed=0.540000m/h.</desc>
<speed>0.150000</speed>
</trkpt>
<trkpt lat="56.075302" lon="26.371227">
<ele>100.284241</ele>
<time>2010-08-29T16:23:05Z</time>
<desc>lat.=56.075302, lon.=26.371227, Alt.=100.284241m. Speed=0.432000m/h.</desc>
<speed>0.120000</speed>
</trkpt>
<trkpt lat="56.075302" lon="26.371227">
<ele>100.225647</ele>
<time>2010-08-29T16:23:06Z</time>
<desc>lat.=56.075302, lon.=26.371227, Alt.=100.225647m. Speed=0.360000m/h.</desc>
<speed>0.100000</speed>
</trkpt>
<trkpt lat="56.075302" lon="26.371227">
<ele>100.180725</ele>
<time>2010-08-29T16:23:07Z</time>
<desc>lat.=56.075302, lon.=26.371227, Alt.=100.180725m. Speed=0.108000m/h.</desc>
<speed>0.030000</speed>
</trkpt>
<trkpt lat="56.075302" lon="26.371227">
<ele>100.137756</ele>
<time>2010-08-29T16:23:08Z</time>
<desc>lat.=56.075302, lon.=26.371227, Alt.=100.137756m. Speed=0.144000m/h.</desc>
<speed>0.040000</speed>
</trkpt>
<trkpt lat="56.075302" lon="26.371227">
<ele>100.083069</ele>
<time>2010-08-29T16:23:09Z</time>
<desc>lat.=56.075302, lon.=26.371227, Alt.=100.083069m. Speed=0.288000m/h.</desc>
<speed>0.080000</speed>
</trkpt>
<trkpt lat="56.075302" lon="26.371227">
<ele>100.049866</ele>
<time>2010-08-29T16:23:10Z</time>
<desc>lat.=56.075302, lon.=26.371227, Alt.=100.049866m. Speed=0.468000m/h.</desc>
<speed>0.130000</speed>
</trkpt>
<trkpt lat="56.075302" lon="26.371229">
<ele>99.997131</ele>
<time>2010-08-29T16:23:11Z</time>
<desc>lat.=56.075302, lon.=26.371229, Alt.=99.997131m. Speed=0.288000m/h.</desc>
<speed>0.080000</speed>
</trkpt>
<trkpt lat="56.075302" lon="26.371229">
<ele>99.952209</ele>
<time>2010-08-29T16:23:12Z</time>
<desc>lat.=56.075302, lon.=26.371229, Alt.=99.952209m. Speed=0.684000m/h.</desc>
<speed>0.190000</speed>
</trkpt>
<trkpt lat="56.075302" lon="26.371233">
<ele>99.903381</ele>
<time>2010-08-29T16:23:13Z</time>
<desc>lat.=56.075302, lon.=26.371233, Alt.=99.903381m. Speed=0.360000m/h.</desc>
<speed>0.100000</speed>
</trkpt>
<trkpt lat="56.075306" lon="26.371233">
<ele>99.868225</ele>
<time>2010-08-29T16:23:14Z</time>
<desc>lat.=56.075306, lon.=26.371233, Alt.=99.868225m. Speed=0.468000m/h.</desc>
<speed>0.130000</speed>
</trkpt>
<trkpt lat="56.075306" lon="26.371235">
<ele>99.833069</ele>
<time>2010-08-29T16:23:15Z</time>
<desc>lat.=56.075306, lon.=26.371235, Alt.=99.833069m. Speed=0.468000m/h.</desc>
<speed>0.130000</speed>
</trkpt>
<trkpt lat="56.075306" lon="26.371237">
<ele>99.803772</ele>
<time>2010-08-29T16:23:16Z</time>
<desc>lat.=56.075306, lon.=26.371237, Alt.=99.803772m. Speed=0.504000m/h.</desc>
<speed>0.140000</speed>
</trkpt>
<trkpt lat="56.075306" lon="26.371241">
<ele>99.778381</ele>
<time>2010-08-29T16:23:17Z</time>
<desc>lat.=56.075306, lon.=26.371241, Alt.=99.778381m. Speed=0.828000m/h.</desc>
<speed>0.230000</speed>
</trkpt>
<trkpt lat="56.075306" lon="26.371243">
<ele>99.752991</ele>
<time>2010-08-29T16:23:18Z</time>
<desc>lat.=56.075306, lon.=26.371243, Alt.=99.752991m. Speed=0.756000m/h.</desc>
<speed>0.210000</speed>
</trkpt>
<trkpt lat="56.075306" lon="26.371246">
<ele>99.704163</ele>
<time>2010-08-29T16:23:19Z</time>
<desc>lat.=56.075306, lon.=26.371246, Alt.=99.704163m. Speed=0.540000m/h.</desc>
<speed>0.150000</speed>
</trkpt>
<trkpt lat="56.075306" lon="26.371248">
<ele>99.657288</ele>
<time>2010-08-29T16:23:20Z</time>
<desc>lat.=56.075306, lon.=26.371248, Alt.=99.657288m. Speed=0.612000m/h.</desc>
<speed>0.170000</speed>
</trkpt>
<trkpt lat="56.075306" lon="26.371252">
<ele>99.618225</ele>
<time>2010-08-29T16:23:21Z</time>
<desc>lat.=56.075306, lon.=26.371252, Alt.=99.618225m. Speed=0.540000m/h.</desc>
<speed>0.150000</speed>
</trkpt>
<trkpt lat="56.075306" lon="26.371254">
<ele>99.594788</ele>
<time>2010-08-29T16:23:22Z</time>
<desc>lat.=56.075306, lon.=26.371254, Alt.=99.594788m. Speed=0.252000m/h.</desc>
<speed>0.070000</speed>
</trkpt>
<trkpt lat="56.075306" lon="26.371254">
<ele>99.579163</ele>
<time>2010-08-29T16:23:23Z</time>
<desc>lat.=56.075306, lon.=26.371254, Alt.=99.579163m. Speed=0.036000m/h.</desc>
<speed>0.010000</speed>
</trkpt>
<trkpt lat="56.075306" lon="26.371254">
<ele>99.571350</ele>
<time>2010-08-29T16:23:24Z</time>
<desc>lat.=56.075306, lon.=26.371254, Alt.=99.571350m. Speed=0.108000m/h.</desc>
<speed>0.030000</speed>
</trkpt>
<trkpt lat="56.075306" lon="26.371254">
<ele>99.555725</ele>
<time>2010-08-29T16:23:25Z</time>
<desc>lat.=56.075306, lon.=26.371254, Alt.=99.555725m. Speed=0.576000m/h.</desc>
<speed>0.160000</speed>
</trkpt>
<trkpt lat="56.075306" lon="26.371258">
<ele>99.542053</ele>
<time>2010-08-29T16:23:26Z</time>
<desc>lat.=56.075306, lon.=26.371258, Alt.=99.542053m. Speed=0.072000m/h.</desc>
<speed>0.020000</speed>
</trkpt>
<trkpt lat="56.075306" lon="26.371258">
<ele>99.530334</ele>
<time>2010-08-29T16:23:27Z</time>
<desc>lat.=56.075306, lon.=26.371258, Alt.=99.530334m. Speed=0.288000m/h.</desc>
<speed>0.080000</speed>
</trkpt>
<trkpt lat="56.075306" lon="26.371256">
<ele>99.518616</ele>
<time>2010-08-29T16:23:28Z</time>
<desc>lat.=56.075306, lon.=26.371256, Alt.=99.518616m. Speed=0.216000m/h.</desc>
<speed>0.060000</speed>
</trkpt>
<trkpt lat="56.075306" lon="26.371256">
<ele>99.510803</ele>
<time>2010-08-29T16:23:29Z</time>
<desc>lat.=56.075306, lon.=26.371256, Alt.=99.510803m. Speed=0.180000m/h.</desc>
<speed>0.050000</speed>
</trkpt>
<trkpt lat="56.075306" lon="26.371256">
<ele>99.502991</ele>
<time>2010-08-29T16:23:30Z</time>
<desc>lat.=56.075306, lon.=26.371256, Alt.=99.502991m. Speed=0.144000m/h.</desc>
<speed>0.040000</speed>
</trkpt>
<trkpt lat="56.075306" lon="26.371256">
<ele>99.497131</ele>
<time>2010-08-29T16:23:31Z</time>
<desc>lat.=56.075306, lon.=26.371256, Alt.=99.497131m. Speed=0.324000m/h.</desc>
<speed>0.090000</speed>
</trkpt>
<trkpt lat="56.075306" lon="26.371254">
<ele>99.491272</ele>
<time>2010-08-29T16:23:32Z</time>
<desc>lat.=56.075306, lon.=26.371254, Alt.=99.491272m. Speed=0.180000m/h.</desc>
<speed>0.050000</speed>
</trkpt>
<trkpt lat="56.075306" lon="26.371254">
<ele>99.483459</ele>
<time>2010-08-29T16:23:33Z</time>
<desc>lat.=56.075306, lon.=26.371254, Alt.=99.483459m. Speed=0.144000m/h.</desc>
<speed>0.040000</speed>
</trkpt>
<trkpt lat="56.075306" lon="26.371254">
<ele>99.473694</ele>
<time>2010-08-29T16:23:34Z</time>
<desc>lat.=56.075306, lon.=26.371254, Alt.=99.473694m. Speed=0.432000m/h.</desc>
<speed>0.120000</speed>
</trkpt>
<trkpt lat="56.075306" lon="26.371252">
<ele>99.461975</ele>
<time>2010-08-29T16:23:35Z</time>
<desc>lat.=56.075306, lon.=26.371252, Alt.=99.461975m. Speed=0.324000m/h.</desc>
<speed>0.090000</speed>
</trkpt>
<trkpt lat="56.075310" lon="26.371252">
<ele>99.454163</ele>
<time>2010-08-29T16:23:36Z</time>
<desc>lat.=56.075310, lon.=26.371252, Alt.=99.454163m. Speed=0.432000m/h.</desc>
<speed>0.120000</speed>
</trkpt>
<trkpt lat="56.075310" lon="26.371252">
<ele>99.446350</ele>
<time>2010-08-29T16:23:37Z</time>
<desc>lat.=56.075310, lon.=26.371252, Alt.=99.446350m. Speed=0.396000m/h.</desc>
<speed>0.110000</speed>
</trkpt>
<trkpt lat="56.075310" lon="26.371252">
<ele>99.440491</ele>
<time>2010-08-29T16:23:38Z</time>
<desc>lat.=56.075310, lon.=26.371252, Alt.=99.440491m. Speed=0.432000m/h.</desc>
<speed>0.120000</speed>
</trkpt>
<trkpt lat="56.075310" lon="26.371250">
<ele>99.428772</ele>
<time>2010-08-29T16:23:39Z</time>
<desc>lat.=56.075310, lon.=26.371250, Alt.=99.428772m. Speed=0.540000m/h.</desc>
<speed>0.150000</speed>
</trkpt>
<trkpt lat="56.075314" lon="26.371250">
<ele>99.417053</ele>
<time>2010-08-29T16:23:40Z</time>
<desc>lat.=56.075314, lon.=26.371250, Alt.=99.417053m. Speed=0.360000m/h.</desc>
<speed>0.100000</speed>
</trkpt>
<trkpt lat="56.075314" lon="26.371248">
<ele>99.407288</ele>
<time>2010-08-29T16:23:41Z</time>
<desc>lat.=56.075314, lon.=26.371248, Alt.=99.407288m. Speed=0.432000m/h.</desc>
<speed>0.120000</speed>
</trkpt>
<trkpt lat="56.075314" lon="26.371246">
<ele>99.397522</ele>
<time>2010-08-29T16:23:42Z</time>
<desc>lat.=56.075314, lon.=26.371246, Alt.=99.397522m. Speed=0.252000m/h.</desc>
<speed>0.070000</speed>
</trkpt>
<trkpt lat="56.075314" lon="26.371246">
<ele>99.391663</ele>
<time>2010-08-29T16:23:43Z</time>
<desc>lat.=56.075314, lon.=26.371246, Alt.=99.391663m. Speed=0.324000m/h.</desc>
<speed>0.090000</speed>
</trkpt>
<trkpt lat="56.075317" lon="26.371246">
<ele>99.383850</ele>
<time>2010-08-29T16:23:44Z</time>
<desc>lat.=56.075317, lon.=26.371246, Alt.=99.383850m. Speed=0.648000m/h.</desc>
<speed>0.180000</speed>
</trkpt>
<trkpt lat="56.075317" lon="26.371246">
<ele>99.377991</ele>
<time>2010-08-29T16:23:45Z</time>
<desc>lat.=56.075317, lon.=26.371246, Alt.=99.377991m. Speed=0.504000m/h.</desc>
<speed>0.140000</speed>
</trkpt>
<trkpt lat="56.075317" lon="26.371246">
<ele>99.368225</ele>
<time>2010-08-29T16:23:46Z</time>
<desc>lat.=56.075317, lon.=26.371246, Alt.=99.368225m. Speed=0.972000m/h.</desc>
<speed>0.270000</speed>
</trkpt>
<trkpt lat="56.075321" lon="26.371246">
<ele>99.360413</ele>
<time>2010-08-29T16:23:47Z</time>
<desc>lat.=56.075321, lon.=26.371246, Alt.=99.360413m. Speed=0.828000m/h.</desc>
<speed>0.230000</speed>
</trkpt>
<trkpt lat="56.075325" lon="26.371248">
<ele>99.350647</ele>
<time>2010-08-29T16:23:48Z</time>
<desc>lat.=56.075325, lon.=26.371248, Alt.=99.350647m. Speed=0.612000m/h.</desc>
<speed>0.170000</speed>
</trkpt>
<trkpt lat="56.075325" lon="26.371250">
<ele>99.350647</ele>
<time>2010-08-29T16:23:49Z</time>
<desc>lat.=56.075325, lon.=26.371250, Alt.=99.350647m. Speed=0.504000m/h.</desc>
<speed>0.140000</speed>
</trkpt>
<trkpt lat="56.075325" lon="26.371250">
<ele>99.352600</ele>
<time>2010-08-29T16:23:50Z</time>
<desc>lat.=56.075325, lon.=26.371250, Alt.=99.352600m. Speed=0.324000m/h.</desc>
<speed>0.090000</speed>
</trkpt>
<trkpt lat="56.075325" lon="26.371252">
<ele>99.358459</ele>
<time>2010-08-29T16:23:51Z</time>
<desc>lat.=56.075325, lon.=26.371252, Alt.=99.358459m. Speed=0.396000m/h.</desc>
<speed>0.110000</speed>
</trkpt>
<trkpt lat="56.075329" lon="26.371252">
<ele>99.362366</ele>
<time>2010-08-29T16:23:52Z</time>
<desc>lat.=56.075329, lon.=26.371252, Alt.=99.362366m. Speed=0.288000m/h.</desc>
<speed>0.080000</speed>
</trkpt>
<trkpt lat="56.075329" lon="26.371252">
<ele>99.368225</ele>
<time>2010-08-29T16:23:53Z</time>
<desc>lat.=56.075329, lon.=26.371252, Alt.=99.368225m. Speed=0.288000m/h.</desc>
<speed>0.080000</speed>
</trkpt>
<trkpt lat="56.075329" lon="26.371250">
<ele>99.368225</ele>
<time>2010-08-29T16:23:54Z</time>
<desc>lat.=56.075329, lon.=26.371250, Alt.=99.368225m. Speed=0.108000m/h.</desc>
<speed>0.030000</speed>
</trkpt>
<trkpt lat="56.075329" lon="26.371250">
<ele>99.370178</ele>
<time>2010-08-29T16:23:55Z</time>
<desc>lat.=56.075329, lon.=26.371250, Alt.=99.370178m. Speed=0.324000m/h.</desc>
<speed>0.090000</speed>
</trkpt>
<trkpt lat="56.075329" lon="26.371248">
<ele>99.368225</ele>
<time>2010-08-29T16:23:56Z</time>
<desc>lat.=56.075329, lon.=26.371248, Alt.=99.368225m. Speed=0.216000m/h.</desc>
<speed>0.060000</speed>
</trkpt>
<trkpt lat="56.075329" lon="26.371246">
<ele>99.364319</ele>
<time>2010-08-29T16:23:57Z</time>
<desc>lat.=56.075329, lon.=26.371246, Alt.=99.364319m. Speed=0.108000m/h.</desc>
<speed>0.030000</speed>
</trkpt>
<trkpt lat="56.075329" lon="26.371246">
<ele>99.364319</ele>
<time>2010-08-29T16:23:58Z</time>
<desc>lat.=56.075329, lon.=26.371246, Alt.=99.364319m. Speed=0.216000m/h.</desc>
<speed>0.060000</speed>
</trkpt>
<trkpt lat="56.075329" lon="26.371248">
<ele>99.360413</ele>
<time>2010-08-29T16:23:59Z</time>
<desc>lat.=56.075329, lon.=26.371248, Alt.=99.360413m. Speed=0.180000m/h.</desc>
<speed>0.050000</speed>
</trkpt>
<trkpt lat="56.075325" lon="26.371246">
<ele>99.352600</ele>
<time>2010-08-29T16:24:00Z</time>
<desc>lat.=56.075325, lon.=26.371246, Alt.=99.352600m. Speed=0.468000m/h.</desc>
<speed>0.130000</speed>
</trkpt>
<trkpt lat="56.075329" lon="26.371246">
<ele>99.348694</ele>
<time>2010-08-29T16:24:01Z</time>
<desc>lat.=56.075329, lon.=26.371246, Alt.=99.348694m. Speed=0.288000m/h.</desc>
<speed>0.080000</speed>
</trkpt>
<trkpt lat="56.075329" lon="26.371246">
<ele>99.354553</ele>
<time>2010-08-29T16:24:02Z</time>
<desc>lat.=56.075329, lon.=26.371246, Alt.=99.354553m. Speed=0.288000m/h.</desc>
<speed>0.080000</speed>
</trkpt>
<trkpt lat="56.075329" lon="26.371248">
<ele>99.358459</ele>
<time>2010-08-29T16:24:03Z</time>
<desc>lat.=56.075329, lon.=26.371248, Alt.=99.358459m. Speed=0.324000m/h.</desc>
<speed>0.090000</speed>
</trkpt>
<trkpt lat="56.075329" lon="26.371246">
<ele>99.362366</ele>
<time>2010-08-29T16:24:04Z</time>
<desc>lat.=56.075329, lon.=26.371246, Alt.=99.362366m. Speed=0.756000m/h.</desc>
<speed>0.210000</speed>
</trkpt>
<trkpt lat="56.075333" lon="26.371246">
<ele>99.366272</ele>
<time>2010-08-29T16:24:05Z</time>
<desc>lat.=56.075333, lon.=26.371246, Alt.=99.366272m. Speed=0.540000m/h.</desc>
<speed>0.150000</speed>
</trkpt>
<trkpt lat="56.075333" lon="26.371244">
<ele>99.368225</ele>
<time>2010-08-29T16:24:06Z</time>
<desc>lat.=56.075333, lon.=26.371244, Alt.=99.368225m. Speed=0.540000m/h.</desc>
<speed>0.150000</speed>
</trkpt>
<trkpt lat="56.075333" lon="26.371244">
<ele>99.368225</ele>
<time>2010-08-29T16:24:07Z</time>
<desc>lat.=56.075333, lon.=26.371244, Alt.=99.368225m. Speed=0.612000m/h.</desc>
<speed>0.170000</speed>
</trkpt>
<trkpt lat="56.075336" lon="26.371244">
<ele>99.368225</ele>
<time>2010-08-29T16:24:08Z</time>
<desc>lat.=56.075336, lon.=26.371244, Alt.=99.368225m. Speed=0.792000m/h.</desc>
<speed>0.220000</speed>
</trkpt>
<trkpt lat="56.075336" lon="26.371244">
<ele>99.364319</ele>
<time>2010-08-29T16:24:09Z</time>
<desc>lat.=56.075336, lon.=26.371244, Alt.=99.364319m. Speed=0.864000m/h.</desc>
<speed>0.240000</speed>
</trkpt>
<trkpt lat="56.075340" lon="26.371244">
<ele>99.358459</ele>
<time>2010-08-29T16:24:10Z</time>
<desc>lat.=56.075340, lon.=26.371244, Alt.=99.358459m. Speed=0.720000m/h.</desc>
<speed>0.200000</speed>
</trkpt>
<trkpt lat="56.075340" lon="26.371244">
<ele>99.354553</ele>
<time>2010-08-29T16:24:11Z</time>
<desc>lat.=56.075340, lon.=26.371244, Alt.=99.354553m. Speed=0.936000m/h.</desc>
<speed>0.260000</speed>
</trkpt>
<trkpt lat="56.075344" lon="26.371244">
<ele>99.346741</ele>
<time>2010-08-29T16:24:12Z</time>
<desc>lat.=56.075344, lon.=26.371244, Alt.=99.346741m. Speed=0.900000m/h.</desc>
<speed>0.250000</speed>
</trkpt>
<trkpt lat="56.075348" lon="26.371244">
<ele>99.338928</ele>
<time>2010-08-29T16:24:13Z</time>
<desc>lat.=56.075348, lon.=26.371244, Alt.=99.338928m. Speed=0.684000m/h.</desc>
<speed>0.190000</speed>
</trkpt>
<trkpt lat="56.075348" lon="26.371244">
<ele>99.335022</ele>
<time>2010-08-29T16:24:14Z</time>
<desc>lat.=56.075348, lon.=26.371244, Alt.=99.335022m. Speed=0.540000m/h.</desc>
<speed>0.150000</speed>
</trkpt>
<trkpt lat="56.075348" lon="26.371246">
<ele>99.331116</ele>
<time>2010-08-29T16:24:15Z</time>
<desc>lat.=56.075348, lon.=26.371246, Alt.=99.331116m. Speed=0.504000m/h.</desc>
<speed>0.140000</speed>
</trkpt>
<trkpt lat="56.075352" lon="26.371246">
<ele>99.331116</ele>
<time>2010-08-29T16:24:16Z</time>
<desc>lat.=56.075352, lon.=26.371246, Alt.=99.331116m. Speed=0.252000m/h.</desc>
<speed>0.070000</speed>
</trkpt>
<trkpt lat="56.075352" lon="26.371246">
<ele>99.331116</ele>
<time>2010-08-29T16:24:17Z</time>
<desc>lat.=56.075352, lon.=26.371246, Alt.=99.331116m. Speed=0.648000m/h.</desc>
<speed>0.180000</speed>
</trkpt>
<trkpt lat="56.075352" lon="26.371246">
<ele>99.333069</ele>
<time>2010-08-29T16:24:18Z</time>
<desc>lat.=56.075352, lon.=26.371246, Alt.=99.333069m. Speed=0.432000m/h.</desc>
<speed>0.120000</speed>
</trkpt>
<trkpt lat="56.075356" lon="26.371246">
<ele>99.333069</ele>
<time>2010-08-29T16:24:19Z</time>
<desc>lat.=56.075356, lon.=26.371246, Alt.=99.333069m. Speed=0.432000m/h.</desc>
<speed>0.120000</speed>
</trkpt>
<trkpt lat="56.075356" lon="26.371244">
<ele>99.329163</ele>
<time>2010-08-29T16:24:20Z</time>
<desc>lat.=56.075356, lon.=26.371244, Alt.=99.329163m. Speed=0.540000m/h.</desc>
<speed>0.150000</speed>
</trkpt>
<trkpt lat="56.075356" lon="26.371244">
<ele>99.331116</ele>
<time>2010-08-29T16:24:21Z</time>
<desc>lat.=56.075356, lon.=26.371244, Alt.=99.331116m. Speed=0.216000m/h.</desc>
<speed>0.060000</speed>
</trkpt>
<trkpt lat="56.075356" lon="26.371246">
<ele>99.329163</ele>
<time>2010-08-29T16:24:22Z</time>
<desc>lat.=56.075356, lon.=26.371246, Alt.=99.329163m. Speed=0.108000m/h.</desc>
<speed>0.030000</speed>
</trkpt>
<trkpt lat="56.075356" lon="26.371246">
<ele>99.331116</ele>
<time>2010-08-29T16:24:23Z</time>
<desc>lat.=56.075356, lon.=26.371246, Alt.=99.331116m. Speed=0.252000m/h.</desc>
<speed>0.070000</speed>
</trkpt>
<trkpt lat="56.075356" lon="26.371244">
<ele>99.329163</ele>
<time>2010-08-29T16:24:24Z</time>
<desc>lat.=56.075356, lon.=26.371244, Alt.=99.329163m. Speed=0.072000m/h.</desc>
<speed>0.020000</speed>
</trkpt>
<trkpt lat="56.075356" lon="26.371244">
<ele>99.331116</ele>
<time>2010-08-29T16:24:25Z</time>
<desc>lat.=56.075356, lon.=26.371244, Alt.=99.331116m. Speed=0.216000m/h.</desc>
<speed>0.060000</speed>
</trkpt>
<trkpt lat="56.075356" lon="26.371244">
<ele>99.335022</ele>
<time>2010-08-29T16:24:26Z</time>
<desc>lat.=56.075356, lon.=26.371244, Alt.=99.335022m. Speed=0.432000m/h.</desc>
<speed>0.120000</speed>
</trkpt>
<trkpt lat="56.075352" lon="26.371243">
<ele>99.338928</ele>
<time>2010-08-29T16:24:27Z</time>
<desc>lat.=56.075352, lon.=26.371243, Alt.=99.338928m. Speed=0.324000m/h.</desc>
<speed>0.090000</speed>
</trkpt>
<trkpt lat="56.075352" lon="26.371244">
<ele>99.348694</ele>
<time>2010-08-29T16:24:28Z</time>
<desc>lat.=56.075352, lon.=26.371244, Alt.=99.348694m. Speed=0.396000m/h.</desc>
<speed>0.110000</speed>
</trkpt>
<trkpt lat="56.075352" lon="26.371243">
<ele>99.350647</ele>
<time>2010-08-29T16:24:29Z</time>
<desc>lat.=56.075352, lon.=26.371243, Alt.=99.350647m. Speed=0.504000m/h.</desc>
<speed>0.140000</speed>
</trkpt>
<trkpt lat="56.075352" lon="26.371241">
<ele>99.352600</ele>
<time>2010-08-29T16:24:30Z</time>
<desc>lat.=56.075352, lon.=26.371241, Alt.=99.352600m. Speed=0.288000m/h.</desc>
<speed>0.080000</speed>
</trkpt>
<trkpt lat="56.075352" lon="26.371241">
<ele>99.352600</ele>
<time>2010-08-29T16:24:31Z</time>
<desc>lat.=56.075352, lon.=26.371241, Alt.=99.352600m. Speed=0.036000m/h.</desc>
<speed>0.010000</speed>
</trkpt>
<trkpt lat="56.075352" lon="26.371241">
<ele>99.352600</ele>
<time>2010-08-29T16:24:32Z</time>
<desc>lat.=56.075352, lon.=26.371241, Alt.=99.352600m. Speed=0.144000m/h.</desc>
<speed>0.040000</speed>
</trkpt>
<trkpt lat="56.075348" lon="26.371241">
<ele>99.352600</ele>
<time>2010-08-29T16:24:33Z</time>
<desc>lat.=56.075348, lon.=26.371241, Alt.=99.352600m. Speed=0.396000m/h.</desc>
<speed>0.110000</speed>
</trkpt>
<trkpt lat="56.075348" lon="26.371239">
<ele>99.344788</ele>
<time>2010-08-29T16:24:34Z</time>
<desc>lat.=56.075348, lon.=26.371239, Alt.=99.344788m. Speed=0.288000m/h.</desc>
<speed>0.080000</speed>
</trkpt>
<trkpt lat="56.075348" lon="26.371239">
<ele>99.335022</ele>
<time>2010-08-29T16:24:35Z</time>
<desc>lat.=56.075348, lon.=26.371239, Alt.=99.335022m. Speed=0.396000m/h.</desc>
<speed>0.110000</speed>
</trkpt>
<trkpt lat="56.075348" lon="26.371239">
<ele>99.329163</ele>
<time>2010-08-29T16:24:36Z</time>
<desc>lat.=56.075348, lon.=26.371239, Alt.=99.329163m. Speed=0.648000m/h.</desc>
<speed>0.180000</speed>
</trkpt>
<trkpt lat="56.075344" lon="26.371237">
<ele>99.323303</ele>
<time>2010-08-29T16:24:37Z</time>
<desc>lat.=56.075344, lon.=26.371237, Alt.=99.323303m. Speed=0.720000m/h.</desc>
<speed>0.200000</speed>
</trkpt>
<trkpt lat="56.075344" lon="26.371235">
<ele>99.319397</ele>
<time>2010-08-29T16:24:38Z</time>
<desc>lat.=56.075344, lon.=26.371235, Alt.=99.319397m. Speed=0.576000m/h.</desc>
<speed>0.160000</speed>
</trkpt>
<trkpt lat="56.075344" lon="26.371235">
<ele>99.305725</ele>
<time>2010-08-29T16:24:39Z</time>
<desc>lat.=56.075344, lon.=26.371235, Alt.=99.305725m. Speed=0.612000m/h.</desc>
<speed>0.170000</speed>
</trkpt>
<trkpt lat="56.075340" lon="26.371235">
<ele>99.292053</ele>
<time>2010-08-29T16:24:40Z</time>
<desc>lat.=56.075340, lon.=26.371235, Alt.=99.292053m. Speed=0.432000m/h.</desc>
<speed>0.120000</speed>
</trkpt>
<trkpt lat="56.075340" lon="26.371235">
<ele>99.280334</ele>
<time>2010-08-29T16:24:41Z</time>
<desc>lat.=56.075340, lon.=26.371235, Alt.=99.280334m. Speed=0.180000m/h.</desc>
<speed>0.050000</speed>
</trkpt>
<trkpt lat="56.075340" lon="26.371235">
<ele>99.272522</ele>
<time>2010-08-29T16:24:42Z</time>
<desc>lat.=56.075340, lon.=26.371235, Alt.=99.272522m. Speed=0.684000m/h.</desc>
<speed>0.190000</speed>
</trkpt>
<trkpt lat="56.075336" lon="26.371233">
<ele>99.268616</ele>
<time>2010-08-29T16:24:43Z</time>
<desc>lat.=56.075336, lon.=26.371233, Alt.=99.268616m. Speed=0.720000m/h.</desc>
<speed>0.200000</speed>
</trkpt>
<trkpt lat="56.075336" lon="26.371233">
<ele>99.260803</ele>
<time>2010-08-29T16:24:44Z</time>
<desc>lat.=56.075336, lon.=26.371233, Alt.=99.260803m. Speed=0.900000m/h.</desc>
<speed>0.250000</speed>
</trkpt>
<trkpt lat="56.075333" lon="26.371235">
<ele>99.251038</ele>
<time>2010-08-29T16:24:45Z</time>
<desc>lat.=56.075333, lon.=26.371235, Alt.=99.251038m. Speed=1.476000m/h.</desc>
<speed>0.410000</speed>
</trkpt>
<trkpt lat="56.075329" lon="26.371237">
<ele>99.243225</ele>
<time>2010-08-29T16:24:46Z</time>
<desc>lat.=56.075329, lon.=26.371237, Alt.=99.243225m. Speed=3.024000m/h.</desc>
<speed>0.840000</speed>
</trkpt>
<trkpt lat="56.075325" lon="26.371244">
<ele>99.243225</ele>
<time>2010-08-29T16:24:47Z</time>
<desc>lat.=56.075325, lon.=26.371244, Alt.=99.243225m. Speed=6.876000m/h.</desc>
<speed>1.910000</speed>
</trkpt>
<trkpt lat="56.075306" lon="26.371254">
<ele>99.465881</ele>
<time>2010-08-29T16:24:48Z</time>
<desc>lat.=56.075306, lon.=26.371254, Alt.=99.465881m. Speed=7.740000m/h.</desc>
<speed>2.150000</speed>
</trkpt>
<trkpt lat="56.075287" lon="26.371267">
<ele>99.751038</ele>
<time>2010-08-29T16:24:49Z</time>
<desc>lat.=56.075287, lon.=26.371267, Alt.=99.751038m. Speed=8.568000m/h.</desc>
<speed>2.380000</speed>
</trkpt>
<trkpt lat="56.075264" lon="26.371281">
<ele>99.784241</ele>
<time>2010-08-29T16:24:50Z</time>
<desc>lat.=56.075264, lon.=26.371281, Alt.=99.784241m. Speed=9.288000m/h.</desc>
<speed>2.580000</speed>
</trkpt>
<trkpt lat="56.075241" lon="26.371290">
<ele>100.225647</ele>
<time>2010-08-29T16:24:51Z</time>
<desc>lat.=56.075241, lon.=26.371290, Alt.=100.225647m. Speed=9.504000m/h.</desc>
<speed>2.640000</speed>
</trkpt>
<trkpt lat="56.075214" lon="26.371309">
<ele>100.249084</ele>
<time>2010-08-29T16:24:52Z</time>
<desc>lat.=56.075214, lon.=26.371309, Alt.=100.249084m. Speed=10.296000m/h.</desc>
<speed>2.860000</speed>
</trkpt>
<trkpt lat="56.075188" lon="26.371325">
<ele>100.270569</ele>
<time>2010-08-29T16:24:53Z</time>
<desc>lat.=56.075188, lon.=26.371325, Alt.=100.270569m. Speed=11.016000m/h.</desc>
<speed>3.060000</speed>
</trkpt>
<trkpt lat="56.075161" lon="26.371336">
<ele>100.458069</ele>
<time>2010-08-29T16:24:54Z</time>
<desc>lat.=56.075161, lon.=26.371336, Alt.=100.458069m. Speed=11.232000m/h.</desc>
<speed>3.120000</speed>
</trkpt>
<trkpt lat="56.075130" lon="26.371351">
<ele>100.362366</ele>
<time>2010-08-29T16:24:55Z</time>
<desc>lat.=56.075130, lon.=26.371351, Alt.=100.362366m. Speed=11.052000m/h.</desc>
<speed>3.070000</speed>
</trkpt>
<trkpt lat="56.075100" lon="26.371370">
<ele>100.348694</ele>
<time>2010-08-29T16:24:56Z</time>
<desc>lat.=56.075100, lon.=26.371370, Alt.=100.348694m. Speed=11.556000m/h.</desc>
<speed>3.210000</speed>
</trkpt>
<trkpt lat="56.075069" lon="26.371384">
<ele>99.622131</ele>
<time>2010-08-29T16:24:57Z</time>
<desc>lat.=56.075069, lon.=26.371384, Alt.=99.622131m. Speed=12.924000m/h.</desc>
<speed>3.590000</speed>
</trkpt>
<trkpt lat="56.075035" lon="26.371399">
<ele>99.590881</ele>
<time>2010-08-29T16:24:58Z</time>
<desc>lat.=56.075035, lon.=26.371399, Alt.=99.590881m. Speed=14.148000m/h.</desc>
<speed>3.930000</speed>
</trkpt>
<trkpt lat="56.075001" lon="26.371424">
<ele>99.389709</ele>
<time>2010-08-29T16:24:59Z</time>
<desc>lat.=56.075001, lon.=26.371424, Alt.=99.389709m. Speed=15.372000m/h.</desc>
<speed>4.270000</speed>
</trkpt>
<trkpt lat="56.074963" lon="26.371445">
<ele>99.235413</ele>
<time>2010-08-29T16:25:00Z</time>
<desc>lat.=56.074963, lon.=26.371445, Alt.=99.235413m. Speed=16.091999m/h.</desc>
<speed>4.470000</speed>
</trkpt>
<trkpt lat="56.074921" lon="26.371468">
<ele>99.098694</ele>
<time>2010-08-29T16:25:01Z</time>
<desc>lat.=56.074921, lon.=26.371468, Alt.=99.098694m. Speed=16.992001m/h.</desc>
<speed>4.720000</speed>
</trkpt>
<trkpt lat="56.074875" lon="26.371487">
<ele>99.237366</ele>
<time>2010-08-29T16:25:02Z</time>
<desc>lat.=56.074875, lon.=26.371487, Alt.=99.237366m. Speed=17.747999m/h.</desc>
<speed>4.930000</speed>
</trkpt>
<trkpt lat="56.074829" lon="26.371502">
<ele>99.127991</ele>
<time>2010-08-29T16:25:03Z</time>
<desc>lat.=56.074829, lon.=26.371502, Alt.=99.127991m. Speed=18.468000m/h.</desc>
<speed>5.130000</speed>
</trkpt>
<trkpt lat="56.074783" lon="26.371521">
<ele>99.245178</ele>
<time>2010-08-29T16:25:04Z</time>
<desc>lat.=56.074783, lon.=26.371521, Alt.=99.245178m. Speed=19.296000m/h.</desc>
<speed>5.360000</speed>
</trkpt>
<trkpt lat="56.074738" lon="26.371540">
<ele>99.438538</ele>
<time>2010-08-29T16:25:05Z</time>
<desc>lat.=56.074738, lon.=26.371540, Alt.=99.438538m. Speed=19.836000m/h.</desc>
<speed>5.510000</speed>
</trkpt>
<trkpt lat="56.074688" lon="26.371569">
<ele>99.665100</ele>
<time>2010-08-29T16:25:06Z</time>
<desc>lat.=56.074688, lon.=26.371569, Alt.=99.665100m. Speed=20.520000m/h.</desc>
<speed>5.700000</speed>
</trkpt>
<trkpt lat="56.074638" lon="26.371597">
<ele>99.911194</ele>
<time>2010-08-29T16:25:07Z</time>
<desc>lat.=56.074638, lon.=26.371597, Alt.=99.911194m. Speed=20.591999m/h.</desc>
<speed>5.720000</speed>
</trkpt>
<trkpt lat="56.074585" lon="26.371628">
<ele>99.678772</ele>
<time>2010-08-29T16:25:08Z</time>
<desc>lat.=56.074585, lon.=26.371628, Alt.=99.678772m. Speed=21.096001m/h.</desc>
<speed>5.860000</speed>
</trkpt>
<trkpt lat="56.074535" lon="26.371656">
<ele>99.809631</ele>
<time>2010-08-29T16:25:09Z</time>
<desc>lat.=56.074535, lon.=26.371656, Alt.=99.809631m. Speed=21.563999m/h.</desc>
<speed>5.990000</speed>
</trkpt>
<trkpt lat="56.074482" lon="26.371681">
<ele>100.047913</ele>
<time>2010-08-29T16:25:10Z</time>
<desc>lat.=56.074482, lon.=26.371681, Alt.=100.047913m. Speed=22.032000m/h.</desc>
<speed>6.120000</speed>
</trkpt>
<trkpt lat="56.074429" lon="26.371708">
<ele>99.991272</ele>
<time>2010-08-29T16:25:11Z</time>
<desc>lat.=56.074429, lon.=26.371708, Alt.=99.991272m. Speed=22.392000m/h.</desc>
<speed>6.220000</speed>
</trkpt>
<trkpt lat="56.074379" lon="26.371735">
<ele>100.428772</ele>
<time>2010-08-29T16:25:12Z</time>
<desc>lat.=56.074379, lon.=26.371735, Alt.=100.428772m. Speed=22.464001m/h.</desc>
<speed>6.240000</speed>
</trkpt>
<trkpt lat="56.074326" lon="26.371759">
<ele>100.231506</ele>
<time>2010-08-29T16:25:13Z</time>
<desc>lat.=56.074326, lon.=26.371759, Alt.=100.231506m. Speed=21.743999m/h.</desc>
<speed>6.040000</speed>
</trkpt>
<trkpt lat="56.074272" lon="26.371788">
<ele>99.879944</ele>
<time>2010-08-29T16:25:14Z</time>
<desc>lat.=56.074272, lon.=26.371788, Alt.=99.879944m. Speed=21.204000m/h.</desc>
<speed>5.890000</speed>
</trkpt>
<trkpt lat="56.074223" lon="26.371815">
<ele>99.999084</ele>
<time>2010-08-29T16:25:15Z</time>
<desc>lat.=56.074223, lon.=26.371815, Alt.=99.999084m. Speed=20.664000m/h.</desc>
<speed>5.740000</speed>
</trkpt>
<trkpt lat="56.074173" lon="26.371841">
<ele>99.956116</ele>
<time>2010-08-29T16:25:16Z</time>
<desc>lat.=56.074173, lon.=26.371841, Alt.=99.956116m. Speed=19.980000m/h.</desc>
<speed>5.550000</speed>
</trkpt>
<trkpt lat="56.074127" lon="26.371864">
<ele>100.169006</ele>
<time>2010-08-29T16:25:17Z</time>
<desc>lat.=56.074127, lon.=26.371864, Alt.=100.169006m. Speed=19.728001m/h.</desc>
<speed>5.480000</speed>
</trkpt>
<trkpt lat="56.074078" lon="26.371893">
<ele>100.243225</ele>
<time>2010-08-29T16:25:18Z</time>
<desc>lat.=56.074078, lon.=26.371893, Alt.=100.243225m. Speed=20.232000m/h.</desc>
<speed>5.620000</speed>
</trkpt>
<trkpt lat="56.074028" lon="26.371922">
<ele>100.532288</ele>
<time>2010-08-29T16:25:19Z</time>
<desc>lat.=56.074028, lon.=26.371922, Alt.=100.532288m. Speed=20.448000m/h.</desc>
<speed>5.680000</speed>
</trkpt>
<trkpt lat="56.073978" lon="26.371952">
<ele>100.518616</ele>
<time>2010-08-29T16:25:20Z</time>
<desc>lat.=56.073978, lon.=26.371952, Alt.=100.518616m. Speed=21.096001m/h.</desc>
<speed>5.860000</speed>
</trkpt>
<trkpt lat="56.073929" lon="26.371973">
<ele>100.469788</ele>
<time>2010-08-29T16:25:21Z</time>
<desc>lat.=56.073929, lon.=26.371973, Alt.=100.469788m. Speed=21.636000m/h.</desc>
<speed>6.010000</speed>
</trkpt>
<trkpt lat="56.073875" lon="26.372002">
<ele>100.325256</ele>
<time>2010-08-29T16:25:22Z</time>
<desc>lat.=56.073875, lon.=26.372002, Alt.=100.325256m. Speed=21.888000m/h.</desc>
<speed>6.080000</speed>
</trkpt>
<trkpt lat="56.073822" lon="26.372032">
<ele>100.006897</ele>
<time>2010-08-29T16:25:23Z</time>
<desc>lat.=56.073822, lon.=26.372032, Alt.=100.006897m. Speed=22.572001m/h.</desc>
<speed>6.270000</speed>
</trkpt>
<trkpt lat="56.073769" lon="26.372065">
<ele>100.149475</ele>
<time>2010-08-29T16:25:24Z</time>
<desc>lat.=56.073769, lon.=26.372065, Alt.=100.149475m. Speed=23.256001m/h.</desc>
<speed>6.460000</speed>
</trkpt>
<trkpt lat="56.073711" lon="26.372093">
<ele>100.167053</ele>
<time>2010-08-29T16:25:25Z</time>
<desc>lat.=56.073711, lon.=26.372093, Alt.=100.167053m. Speed=22.788000m/h.</desc>
<speed>6.330000</speed>
</trkpt>
<trkpt lat="56.073658" lon="26.372120">
<ele>100.530334</ele>
<time>2010-08-29T16:25:26Z</time>
<desc>lat.=56.073658, lon.=26.372120, Alt.=100.530334m. Speed=22.104000m/h.</desc>
<speed>6.140000</speed>
</trkpt>
<trkpt lat="56.073605" lon="26.372149">
<ele>100.674866</ele>
<time>2010-08-29T16:25:27Z</time>
<desc>lat.=56.073605, lon.=26.372149, Alt.=100.674866m. Speed=21.348000m/h.</desc>
<speed>5.930000</speed>
</trkpt>
<trkpt lat="56.073555" lon="26.372173">
<ele>100.254944</ele>
<time>2010-08-29T16:25:28Z</time>
<desc>lat.=56.073555, lon.=26.372173, Alt.=100.254944m. Speed=20.736000m/h.</desc>
<speed>5.760000</speed>
</trkpt>
<trkpt lat="56.073505" lon="26.372198">
<ele>100.245178</ele>
<time>2010-08-29T16:25:29Z</time>
<desc>lat.=56.073505, lon.=26.372198, Alt.=100.245178m. Speed=20.016001m/h.</desc>
<speed>5.560000</speed>
</trkpt>
<trkpt lat="56.073456" lon="26.372223">
<ele>100.129944</ele>
<time>2010-08-29T16:25:30Z</time>
<desc>lat.=56.073456, lon.=26.372223, Alt.=100.129944m. Speed=19.224001m/h.</desc>
<speed>5.340000</speed>
</trkpt>
<trkpt lat="56.073410" lon="26.372250">
<ele>99.948303</ele>
<time>2010-08-29T16:25:31Z</time>
<desc>lat.=56.073410, lon.=26.372250, Alt.=99.948303m. Speed=18.648001m/h.</desc>
<speed>5.180000</speed>
</trkpt>
<trkpt lat="56.073368" lon="26.372274">
<ele>100.026428</ele>
<time>2010-08-29T16:25:32Z</time>
<desc>lat.=56.073368, lon.=26.372274, Alt.=100.026428m. Speed=17.964001m/h.</desc>
<speed>4.990000</speed>
</trkpt>
<trkpt lat="56.073322" lon="26.372295">
<ele>99.713928</ele>
<time>2010-08-29T16:25:33Z</time>
<desc>lat.=56.073322, lon.=26.372295, Alt.=99.713928m. Speed=17.351999m/h.</desc>
<speed>4.820000</speed>
</trkpt>
<trkpt lat="56.073280" lon="26.372316">
<ele>99.395569</ele>
<time>2010-08-29T16:25:34Z</time>
<desc>lat.=56.073280, lon.=26.372316, Alt.=99.395569m. Speed=16.812000m/h.</desc>
<speed>4.670000</speed>
</trkpt>
<trkpt lat="56.073242" lon="26.372332">
<ele>99.797913</ele>
<time>2010-08-29T16:25:35Z</time>
<desc>lat.=56.073242, lon.=26.372332, Alt.=99.797913m. Speed=16.164000m/h.</desc>
<speed>4.490000</speed>
</trkpt>
<trkpt lat="56.073204" lon="26.372351">
<ele>99.997131</ele>
<time>2010-08-29T16:25:36Z</time>
<desc>lat.=56.073204, lon.=26.372351, Alt.=99.997131m. Speed=15.660000m/h.</desc>
<speed>4.350000</speed>
</trkpt>
<trkpt lat="56.073170" lon="26.372372">
<ele>100.053772</ele>
<time>2010-08-29T16:25:37Z</time>
<desc>lat.=56.073170, lon.=26.372372, Alt.=100.053772m. Speed=15.048000m/h.</desc>
<speed>4.180000</speed>
</trkpt>
<trkpt lat="56.073132" lon="26.372387">
<ele>100.051819</ele>
<time>2010-08-29T16:25:38Z</time>
<desc>lat.=56.073132, lon.=26.372387, Alt.=100.051819m. Speed=14.508000m/h.</desc>
<speed>4.030000</speed>
</trkpt>
<trkpt lat="56.073101" lon="26.372402">
<ele>100.614319</ele>
<time>2010-08-29T16:25:39Z</time>
<desc>lat.=56.073101, lon.=26.372402, Alt.=100.614319m. Speed=14.328000m/h.</desc>
<speed>3.980000</speed>
</trkpt>
<trkpt lat="56.073067" lon="26.372417">
<ele>101.342834</ele>
<time>2010-08-29T16:25:40Z</time>
<desc>lat.=56.073067, lon.=26.372417, Alt.=101.342834m. Speed=14.688000m/h.</desc>
<speed>4.080000</speed>
</trkpt>
<trkpt lat="56.073029" lon="26.372435">
<ele>101.051819</ele>
<time>2010-08-29T16:25:41Z</time>
<desc>lat.=56.073029, lon.=26.372435, Alt.=101.051819m. Speed=15.768000m/h.</desc>
<speed>4.380000</speed>
</trkpt>
<trkpt lat="56.072990" lon="26.372454">
<ele>100.801819</ele>
<time>2010-08-29T16:25:42Z</time>
<desc>lat.=56.072990, lon.=26.372454, Alt.=100.801819m. Speed=15.552000m/h.</desc>
<speed>4.320000</speed>
</trkpt>
<trkpt lat="56.072948" lon="26.372471">
<ele>100.858459</ele>
<time>2010-08-29T16:25:43Z</time>
<desc>lat.=56.072948, lon.=26.372471, Alt.=100.858459m. Speed=16.379999m/h.</desc>
<speed>4.550000</speed>
</trkpt>
<trkpt lat="56.072910" lon="26.372490">
<ele>100.868225</ele>
<time>2010-08-29T16:25:44Z</time>
<desc>lat.=56.072910, lon.=26.372490, Alt.=100.868225m. Speed=15.660000m/h.</desc>
<speed>4.350000</speed>
</trkpt>
<trkpt lat="56.072872" lon="26.372505">
<ele>100.686584</ele>
<time>2010-08-29T16:25:45Z</time>
<desc>lat.=56.072872, lon.=26.372505, Alt.=100.686584m. Speed=15.120000m/h.</desc>
<speed>4.200000</speed>
</trkpt>
<trkpt lat="56.072842" lon="26.372526">
<ele>100.821350</ele>
<time>2010-08-29T16:25:46Z</time>
<desc>lat.=56.072842, lon.=26.372526, Alt.=100.821350m. Speed=14.688000m/h.</desc>
<speed>4.080000</speed>
</trkpt>
<trkpt lat="56.072807" lon="26.372543">
<ele>100.792053</ele>
<time>2010-08-29T16:25:47Z</time>
<desc>lat.=56.072807, lon.=26.372543, Alt.=100.792053m. Speed=14.220000m/h.</desc>
<speed>3.950000</speed>
</trkpt>
<trkpt lat="56.072773" lon="26.372559">
<ele>100.989319</ele>
<time>2010-08-29T16:25:48Z</time>
<desc>lat.=56.072773, lon.=26.372559, Alt.=100.989319m. Speed=13.248000m/h.</desc>
<speed>3.680000</speed>
</trkpt>
<trkpt lat="56.072739" lon="26.372576">
<ele>100.684631</ele>
<time>2010-08-29T16:25:49Z</time>
<desc>lat.=56.072739, lon.=26.372576, Alt.=100.684631m. Speed=13.968000m/h.</desc>
<speed>3.880000</speed>
</trkpt>
<trkpt lat="56.072704" lon="26.372599">
<ele>100.848694</ele>
<time>2010-08-29T16:25:50Z</time>
<desc>lat.=56.072704, lon.=26.372599, Alt.=100.848694m. Speed=14.688000m/h.</desc>
<speed>4.080000</speed>
</trkpt>
<trkpt lat="56.072670" lon="26.372614">
<ele>100.897522</ele>
<time>2010-08-29T16:25:51Z</time>
<desc>lat.=56.072670, lon.=26.372614, Alt.=100.897522m. Speed=15.012000m/h.</desc>
<speed>4.170000</speed>
</trkpt>
<trkpt lat="56.072636" lon="26.372631">
<ele>100.856506</ele>
<time>2010-08-29T16:25:52Z</time>
<desc>lat.=56.072636, lon.=26.372631, Alt.=100.856506m. Speed=15.048000m/h.</desc>
<speed>4.180000</speed>
</trkpt>
<trkpt lat="56.072598" lon="26.372646">
<ele>100.915100</ele>
<time>2010-08-29T16:25:53Z</time>
<desc>lat.=56.072598, lon.=26.372646, Alt.=100.915100m. Speed=14.508000m/h.</desc>
<speed>4.030000</speed>
</trkpt>
<trkpt lat="56.072563" lon="26.372665">
<ele>100.856506</ele>
<time>2010-08-29T16:25:54Z</time>
<desc>lat.=56.072563, lon.=26.372665, Alt.=100.856506m. Speed=14.580000m/h.</desc>
<speed>4.050000</speed>
</trkpt>
<trkpt lat="56.072525" lon="26.372684">
<ele>100.885803</ele>
<time>2010-08-29T16:25:55Z</time>
<desc>lat.=56.072525, lon.=26.372684, Alt.=100.885803m. Speed=15.552000m/h.</desc>
<speed>4.320000</speed>
</trkpt>
<trkpt lat="56.072487" lon="26.372702">
<ele>101.122131</ele>
<time>2010-08-29T16:25:56Z</time>
<desc>lat.=56.072487, lon.=26.372702, Alt.=101.122131m. Speed=15.480000m/h.</desc>
<speed>4.300000</speed>
</trkpt>
<trkpt lat="56.072449" lon="26.372715">
<ele>101.210022</ele>
<time>2010-08-29T16:25:57Z</time>
<desc>lat.=56.072449, lon.=26.372715, Alt.=101.210022m. Speed=16.379999m/h.</desc>
<speed>4.550000</speed>
</trkpt>
<trkpt lat="56.072411" lon="26.372734">
<ele>101.297913</ele>
<time>2010-08-29T16:25:58Z</time>
<desc>lat.=56.072411, lon.=26.372734, Alt.=101.297913m. Speed=15.624000m/h.</desc>
<speed>4.340000</speed>
</trkpt>
<trkpt lat="56.072372" lon="26.372755">
<ele>101.475647</ele>
<time>2010-08-29T16:25:59Z</time>
<desc>lat.=56.072372, lon.=26.372755, Alt.=101.475647m. Speed=14.976000m/h.</desc>
<speed>4.160000</speed>
</trkpt>
<trkpt lat="56.072342" lon="26.372774">
<ele>101.905334</ele>
<time>2010-08-29T16:26:00Z</time>
<desc>lat.=56.072342, lon.=26.372774, Alt.=101.905334m. Speed=14.472000m/h.</desc>
<speed>4.020000</speed>
</trkpt>
<trkpt lat="56.072308" lon="26.372791">
<ele>101.844788</ele>
<time>2010-08-29T16:26:01Z</time>
<desc>lat.=56.072308, lon.=26.372791, Alt.=101.844788m. Speed=13.896000m/h.</desc>
<speed>3.860000</speed>
</trkpt>
<trkpt lat="56.072273" lon="26.372805">
<ele>101.794006</ele>
<time>2010-08-29T16:26:02Z</time>
<desc>lat.=56.072273, lon.=26.372805, Alt.=101.794006m. Speed=13.176000m/h.</desc>
<speed>3.660000</speed>
</trkpt>
<trkpt lat="56.072243" lon="26.372820">
<ele>101.782288</ele>
<time>2010-08-29T16:26:03Z</time>
<desc>lat.=56.072243, lon.=26.372820, Alt.=101.782288m. Speed=14.040000m/h.</desc>
<speed>3.900000</speed>
</trkpt>
<trkpt lat="56.072208" lon="26.372835">
<ele>101.813538</ele>
<time>2010-08-29T16:26:04Z</time>
<desc>lat.=56.072208, lon.=26.372835, Alt.=101.813538m. Speed=14.076000m/h.</desc>
<speed>3.910000</speed>
</trkpt>
<trkpt lat="56.072174" lon="26.372850">
<ele>101.948303</ele>
<time>2010-08-29T16:26:05Z</time>
<desc>lat.=56.072174, lon.=26.372850, Alt.=101.948303m. Speed=14.148000m/h.</desc>
<speed>3.930000</speed>
</trkpt>
<trkpt lat="56.072136" lon="26.372866">
<ele>101.520569</ele>
<time>2010-08-29T16:26:06Z</time>
<desc>lat.=56.072136, lon.=26.372866, Alt.=101.520569m. Speed=13.752000m/h.</desc>
<speed>3.820000</speed>
</trkpt>
<trkpt lat="56.072105" lon="26.372877">
<ele>101.186584</ele>
<time>2010-08-29T16:26:07Z</time>
<desc>lat.=56.072105, lon.=26.372877, Alt.=101.186584m. Speed=13.464000m/h.</desc>
<speed>3.740000</speed>
</trkpt>
<trkpt lat="56.072071" lon="26.372892">
<ele>101.233459</ele>
<time>2010-08-29T16:26:08Z</time>
<desc>lat.=56.072071, lon.=26.372892, Alt.=101.233459m. Speed=13.572000m/h.</desc>
<speed>3.770000</speed>
</trkpt>
<trkpt lat="56.072037" lon="26.372906">
<ele>101.026428</ele>
<time>2010-08-29T16:26:09Z</time>
<desc>lat.=56.072037, lon.=26.372906, Alt.=101.026428m. Speed=14.184000m/h.</desc>
<speed>3.940000</speed>
</trkpt>
<trkpt lat="56.072002" lon="26.372927">
<ele>101.090881</ele>
<time>2010-08-29T16:26:10Z</time>
<desc>lat.=56.072002, lon.=26.372927, Alt.=101.090881m. Speed=15.192000m/h.</desc>
<speed>4.220000</speed>
</trkpt>
<trkpt lat="56.071964" lon="26.372946">
<ele>101.030334</ele>
<time>2010-08-29T16:26:11Z</time>
<desc>lat.=56.071964, lon.=26.372946, Alt.=101.030334m. Speed=16.091999m/h.</desc>
<speed>4.470000</speed>
</trkpt>
<trkpt lat="56.071922" lon="26.372965">
<ele>100.702209</ele>
<time>2010-08-29T16:26:12Z</time>
<desc>lat.=56.071922, lon.=26.372965, Alt.=100.702209m. Speed=17.568001m/h.</desc>
<speed>4.880000</speed>
</trkpt>
<trkpt lat="56.071880" lon="26.372982">
<ele>100.172913</ele>
<time>2010-08-29T16:26:13Z</time>
<desc>lat.=56.071880, lon.=26.372982, Alt.=100.172913m. Speed=17.712000m/h.</desc>
<speed>4.920000</speed>
</trkpt>
<trkpt lat="56.071835" lon="26.372995">
<ele>99.663147</ele>
<time>2010-08-29T16:26:14Z</time>
<desc>lat.=56.071835, lon.=26.372995, Alt.=99.663147m. Speed=18.864000m/h.</desc>
<speed>5.240000</speed>
</trkpt>
<trkpt lat="56.071789" lon="26.373014">
<ele>99.258850</ele>
<time>2010-08-29T16:26:15Z</time>
<desc>lat.=56.071789, lon.=26.373014, Alt.=99.258850m. Speed=19.872000m/h.</desc>
<speed>5.520000</speed>
</trkpt>
<trkpt lat="56.071739" lon="26.373037">
<ele>99.038147</ele>
<time>2010-08-29T16:26:16Z</time>
<desc>lat.=56.071739, lon.=26.373037, Alt.=99.038147m. Speed=20.412001m/h.</desc>
<speed>5.670000</speed>
</trkpt>
<trkpt lat="56.071690" lon="26.373056">
<ele>98.901428</ele>
<time>2010-08-29T16:26:17Z</time>
<desc>lat.=56.071690, lon.=26.373056, Alt.=98.901428m. Speed=20.736000m/h.</desc>
<speed>5.760000</speed>
</trkpt>
<trkpt lat="56.071640" lon="26.373072">
<ele>98.823303</ele>
<time>2010-08-29T16:26:18Z</time>
<desc>lat.=56.071640, lon.=26.373072, Alt.=98.823303m. Speed=19.944000m/h.</desc>
<speed>5.540000</speed>
</trkpt>
<trkpt lat="56.071590" lon="26.373091">
<ele>98.729553</ele>
<time>2010-08-29T16:26:19Z</time>
<desc>lat.=56.071590, lon.=26.373091, Alt.=98.729553m. Speed=19.368000m/h.</desc>
<speed>5.380000</speed>
</trkpt>
<trkpt lat="56.071548" lon="26.373108">
<ele>99.149475</ele>
<time>2010-08-29T16:26:20Z</time>
<desc>lat.=56.071548, lon.=26.373108, Alt.=99.149475m. Speed=18.612000m/h.</desc>
<speed>5.170000</speed>
</trkpt>
<trkpt lat="56.071503" lon="26.373127">
<ele>99.426819</ele>
<time>2010-08-29T16:26:21Z</time>
<desc>lat.=56.071503, lon.=26.373127, Alt.=99.426819m. Speed=19.476000m/h.</desc>
<speed>5.410000</speed>
</trkpt>
<trkpt lat="56.071453" lon="26.373150">
<ele>99.629944</ele>
<time>2010-08-29T16:26:22Z</time>
<desc>lat.=56.071453, lon.=26.373150, Alt.=99.629944m. Speed=19.764000m/h.</desc>
<speed>5.490000</speed>
</trkpt>
<trkpt lat="56.071404" lon="26.373171">
<ele>99.770569</ele>
<time>2010-08-29T16:26:23Z</time>
<desc>lat.=56.071404, lon.=26.373171, Alt.=99.770569m. Speed=20.412001m/h.</desc>
<speed>5.670000</speed>
</trkpt>
<trkpt lat="56.071354" lon="26.373192">
<ele>99.965881</ele>
<time>2010-08-29T16:26:24Z</time>
<desc>lat.=56.071354, lon.=26.373192, Alt.=99.965881m. Speed=20.591999m/h.</desc>
<speed>5.720000</speed>
</trkpt>
<trkpt lat="56.071304" lon="26.373215">
<ele>100.149475</ele>
<time>2010-08-29T16:26:25Z</time>
<desc>lat.=56.071304, lon.=26.373215, Alt.=100.149475m. Speed=21.240000m/h.</desc>
<speed>5.900000</speed>
</trkpt>
<trkpt lat="56.071251" lon="26.373236">
<ele>100.561584</ele>
<time>2010-08-29T16:26:26Z</time>
<desc>lat.=56.071251, lon.=26.373236, Alt.=100.561584m. Speed=21.888000m/h.</desc>
<speed>6.080000</speed>
</trkpt>
<trkpt lat="56.071198" lon="26.373257">
<ele>100.702209</ele>
<time>2010-08-29T16:26:27Z</time>
<desc>lat.=56.071198, lon.=26.373257, Alt.=100.702209m. Speed=22.356001m/h.</desc>
<speed>6.210000</speed>
</trkpt>
<trkpt lat="56.071140" lon="26.373281">
<ele>100.473694</ele>
<time>2010-08-29T16:26:28Z</time>
<desc>lat.=56.071140, lon.=26.373281, Alt.=100.473694m. Speed=22.931999m/h.</desc>
<speed>6.370000</speed>
</trkpt>
<trkpt lat="56.071083" lon="26.373310">
<ele>100.176819</ele>
<time>2010-08-29T16:26:29Z</time>
<desc>lat.=56.071083, lon.=26.373310, Alt.=100.176819m. Speed=23.292000m/h.</desc>
<speed>6.470000</speed>
</trkpt>
<trkpt lat="56.071030" lon="26.373341">
<ele>99.983459</ele>
<time>2010-08-29T16:26:30Z</time>
<desc>lat.=56.071030, lon.=26.373341, Alt.=99.983459m. Speed=23.436001m/h.</desc>
<speed>6.510000</speed>
</trkpt>
<trkpt lat="56.070972" lon="26.373363">
<ele>99.928772</ele>
<time>2010-08-29T16:26:31Z</time>
<desc>lat.=56.070972, lon.=26.373363, Alt.=99.928772m. Speed=22.716000m/h.</desc>
<speed>6.310000</speed>
</trkpt>
<trkpt lat="56.070915" lon="26.373388">
<ele>100.079163</ele>
<time>2010-08-29T16:26:32Z</time>
<desc>lat.=56.070915, lon.=26.373388, Alt.=100.079163m. Speed=22.068001m/h.</desc>
<speed>6.130000</speed>
</trkpt>
<trkpt lat="56.070862" lon="26.373409">
<ele>100.014709</ele>
<time>2010-08-29T16:26:33Z</time>
<desc>lat.=56.070862, lon.=26.373409, Alt.=100.014709m. Speed=21.600000m/h.</desc>
<speed>6.000000</speed>
</trkpt>
<trkpt lat="56.070812" lon="26.373430">
<ele>100.243225</ele>
<time>2010-08-29T16:26:34Z</time>
<desc>lat.=56.070812, lon.=26.373430, Alt.=100.243225m. Speed=21.204000m/h.</desc>
<speed>5.890000</speed>
</trkpt>
<trkpt lat="56.070759" lon="26.373455">
<ele>100.239319</ele>
<time>2010-08-29T16:26:35Z</time>
<desc>lat.=56.070759, lon.=26.373455, Alt.=100.239319m. Speed=21.743999m/h.</desc>
<speed>6.040000</speed>
</trkpt>
<trkpt lat="56.070705" lon="26.373480">
<ele>100.614319</ele>
<time>2010-08-29T16:26:36Z</time>
<desc>lat.=56.070705, lon.=26.373480, Alt.=100.614319m. Speed=22.212000m/h.</desc>
<speed>6.170000</speed>
</trkpt>
<trkpt lat="56.070652" lon="26.373505">
<ele>101.129944</ele>
<time>2010-08-29T16:26:37Z</time>
<desc>lat.=56.070652, lon.=26.373505, Alt.=101.129944m. Speed=22.896000m/h.</desc>
<speed>6.360000</speed>
</trkpt>
<trkpt lat="56.070595" lon="26.373528">
<ele>99.913147</ele>
<time>2010-08-29T16:26:38Z</time>
<desc>lat.=56.070595, lon.=26.373528, Alt.=99.913147m. Speed=23.292000m/h.</desc>
<speed>6.470000</speed>
</trkpt>
<trkpt lat="56.070538" lon="26.373549">
<ele>99.991272</ele>
<time>2010-08-29T16:26:39Z</time>
<desc>lat.=56.070538, lon.=26.373549, Alt.=99.991272m. Speed=23.544001m/h.</desc>
<speed>6.540000</speed>
</trkpt>
<trkpt lat="56.070477" lon="26.373573">
<ele>99.799866</ele>
<time>2010-08-29T16:26:40Z</time>
<desc>lat.=56.070477, lon.=26.373573, Alt.=99.799866m. Speed=23.688000m/h.</desc>
<speed>6.580000</speed>
</trkpt>
<trkpt lat="56.070419" lon="26.373598">
<ele>99.604553</ele>
<time>2010-08-29T16:26:41Z</time>
<desc>lat.=56.070419, lon.=26.373598, Alt.=99.604553m. Speed=23.940001m/h.</desc>
<speed>6.650000</speed>
</trkpt>
<trkpt lat="56.070358" lon="26.373623">
<ele>99.446350</ele>
<time>2010-08-29T16:26:42Z</time>
<desc>lat.=56.070358, lon.=26.373623, Alt.=99.446350m. Speed=23.760000m/h.</desc>
<speed>6.600000</speed>
</trkpt>
<trkpt lat="56.070301" lon="26.373644">
<ele>99.569397</ele>
<time>2010-08-29T16:26:43Z</time>
<desc>lat.=56.070301, lon.=26.373644, Alt.=99.569397m. Speed=24.156000m/h.</desc>
<speed>6.710000</speed>
</trkpt>
<trkpt lat="56.070244" lon="26.373671">
<ele>99.440491</ele>
<time>2010-08-29T16:26:44Z</time>
<desc>lat.=56.070244, lon.=26.373671, Alt.=99.440491m. Speed=24.624001m/h.</desc>
<speed>6.840000</speed>
</trkpt>
<trkpt lat="56.070183" lon="26.373693">
<ele>99.592834</ele>
<time>2010-08-29T16:26:45Z</time>
<desc>lat.=56.070183, lon.=26.373693, Alt.=99.592834m. Speed=25.091999m/h.</desc>
<speed>6.970000</speed>
</trkpt>
<trkpt lat="56.070118" lon="26.373716">
<ele>99.536194</ele>
<time>2010-08-29T16:26:46Z</time>
<desc>lat.=56.070118, lon.=26.373716, Alt.=99.536194m. Speed=25.955999m/h.</desc>
<speed>7.210000</speed>
</trkpt>
<trkpt lat="56.070057" lon="26.373745">
<ele>99.594788</ele>
<time>2010-08-29T16:26:47Z</time>
<desc>lat.=56.070057, lon.=26.373745, Alt.=99.594788m. Speed=25.128000m/h.</desc>
<speed>6.980000</speed>
</trkpt>
<trkpt lat="56.069996" lon="26.373772">
<ele>99.434631</ele>
<time>2010-08-29T16:26:48Z</time>
<desc>lat.=56.069996, lon.=26.373772, Alt.=99.434631m. Speed=24.552000m/h.</desc>
<speed>6.820000</speed>
</trkpt>
<trkpt lat="56.069935" lon="26.373800">
<ele>99.295959</ele>
<time>2010-08-29T16:26:49Z</time>
<desc>lat.=56.069935, lon.=26.373800, Alt.=99.295959m. Speed=23.868000m/h.</desc>
<speed>6.630000</speed>
</trkpt>
<trkpt lat="56.069878" lon="26.373821">
<ele>99.329163</ele>
<time>2010-08-29T16:26:50Z</time>
<desc>lat.=56.069878, lon.=26.373821, Alt.=99.329163m. Speed=23.292000m/h.</desc>
<speed>6.470000</speed>
</trkpt>
<trkpt lat="56.069824" lon="26.373840">
<ele>99.557678</ele>
<time>2010-08-29T16:26:51Z</time>
<desc>lat.=56.069824, lon.=26.373840, Alt.=99.557678m. Speed=22.680000m/h.</desc>
<speed>6.300000</speed>
</trkpt>
<trkpt lat="56.069771" lon="26.373857">
<ele>100.323303</ele>
<time>2010-08-29T16:26:52Z</time>
<desc>lat.=56.069771, lon.=26.373857, Alt.=100.323303m. Speed=22.212000m/h.</desc>
<speed>6.170000</speed>
</trkpt>
<trkpt lat="56.069717" lon="26.373880">
<ele>100.522522</ele>
<time>2010-08-29T16:26:53Z</time>
<desc>lat.=56.069717, lon.=26.373880, Alt.=100.522522m. Speed=22.896000m/h.</desc>
<speed>6.360000</speed>
</trkpt>
<trkpt lat="56.069664" lon="26.373905">
<ele>100.561584</ele>
<time>2010-08-29T16:26:54Z</time>
<desc>lat.=56.069664, lon.=26.373905, Alt.=100.561584m. Speed=23.327999m/h.</desc>
<speed>6.480000</speed>
</trkpt>
<trkpt lat="56.069607" lon="26.373930">
<ele>100.674866</ele>
<time>2010-08-29T16:26:55Z</time>
<desc>lat.=56.069607, lon.=26.373930, Alt.=100.674866m. Speed=23.940001m/h.</desc>
<speed>6.650000</speed>
</trkpt>
<trkpt lat="56.069546" lon="26.373957">
<ele>100.682678</ele>
<time>2010-08-29T16:26:56Z</time>
<desc>lat.=56.069546, lon.=26.373957, Alt.=100.682678m. Speed=24.516001m/h.</desc>
<speed>6.810000</speed>
</trkpt>
<trkpt lat="56.069485" lon="26.373978">
<ele>100.682678</ele>
<time>2010-08-29T16:26:57Z</time>
<desc>lat.=56.069485, lon.=26.373978, Alt.=100.682678m. Speed=24.983999m/h.</desc>
<speed>6.940000</speed>
</trkpt>
<trkpt lat="56.069424" lon="26.374002">
<ele>100.499084</ele>
<time>2010-08-29T16:26:58Z</time>
<desc>lat.=56.069424, lon.=26.374002, Alt.=100.499084m. Speed=25.271999m/h.</desc>
<speed>7.020000</speed>
</trkpt>
<trkpt lat="56.069359" lon="26.374023">
<ele>100.577209</ele>
<time>2010-08-29T16:26:59Z</time>
<desc>lat.=56.069359, lon.=26.374023, Alt.=100.577209m. Speed=26.208000m/h.</desc>
<speed>7.280000</speed>
</trkpt>
<trkpt lat="56.069294" lon="26.374043">
<ele>100.803772</ele>
<time>2010-08-29T16:27:00Z</time>
<desc>lat.=56.069294, lon.=26.374043, Alt.=100.803772m. Speed=26.784000m/h.</desc>
<speed>7.440000</speed>
</trkpt>
<trkpt lat="56.069233" lon="26.374065">
<ele>100.702209</ele>
<time>2010-08-29T16:27:01Z</time>
<desc>lat.=56.069233, lon.=26.374065, Alt.=100.702209m. Speed=26.280001m/h.</desc>
<speed>7.300000</speed>
</trkpt>
<trkpt lat="56.069168" lon="26.374092">
<ele>100.735413</ele>
<time>2010-08-29T16:27:02Z</time>
<desc>lat.=56.069168, lon.=26.374092, Alt.=100.735413m. Speed=25.812000m/h.</desc>
<speed>7.170000</speed>
</trkpt>
<trkpt lat="56.069107" lon="26.374119">
<ele>100.741272</ele>
<time>2010-08-29T16:27:03Z</time>
<desc>lat.=56.069107, lon.=26.374119, Alt.=100.741272m. Speed=25.020000m/h.</desc>
<speed>6.950000</speed>
</trkpt>
<trkpt lat="56.069046" lon="26.374142">
<ele>100.854553</ele>
<time>2010-08-29T16:27:04Z</time>
<desc>lat.=56.069046, lon.=26.374142, Alt.=100.854553m. Speed=24.299999m/h.</desc>
<speed>6.750000</speed>
</trkpt>
<trkpt lat="56.068989" lon="26.374165">
<ele>100.704163</ele>
<time>2010-08-29T16:27:05Z</time>
<desc>lat.=56.068989, lon.=26.374165, Alt.=100.704163m. Speed=23.652000m/h.</desc>
<speed>6.570000</speed>
</trkpt>
<trkpt lat="56.068932" lon="26.374184">
<ele>100.692444</ele>
<time>2010-08-29T16:27:06Z</time>
<desc>lat.=56.068932, lon.=26.374184, Alt.=100.692444m. Speed=23.256001m/h.</desc>
<speed>6.460000</speed>
</trkpt>
<trkpt lat="56.068878" lon="26.374203">
<ele>100.799866</ele>
<time>2010-08-29T16:27:07Z</time>
<desc>lat.=56.068878, lon.=26.374203, Alt.=100.799866m. Speed=22.608000m/h.</desc>
<speed>6.280000</speed>
</trkpt>
<trkpt lat="56.068825" lon="26.374224">
<ele>100.817444</ele>
<time>2010-08-29T16:27:08Z</time>
<desc>lat.=56.068825, lon.=26.374224, Alt.=100.817444m. Speed=21.888000m/h.</desc>
<speed>6.080000</speed>
</trkpt>
<trkpt lat="56.068771" lon="26.374243">
<ele>100.897522</ele>
<time>2010-08-29T16:27:09Z</time>
<desc>lat.=56.068771, lon.=26.374243, Alt.=100.897522m. Speed=21.636000m/h.</desc>
<speed>6.010000</speed>
</trkpt>
<trkpt lat="56.068718" lon="26.374264">
<ele>100.727600</ele>
<time>2010-08-29T16:27:10Z</time>
<desc>lat.=56.068718, lon.=26.374264, Alt.=100.727600m. Speed=21.924000m/h.</desc>
<speed>6.090000</speed>
</trkpt>
<trkpt lat="56.068661" lon="26.374283">
<ele>100.790100</ele>
<time>2010-08-29T16:27:11Z</time>
<desc>lat.=56.068661, lon.=26.374283, Alt.=100.790100m. Speed=22.427999m/h.</desc>
<speed>6.230000</speed>
</trkpt>
<trkpt lat="56.068607" lon="26.374300">
<ele>101.120178</ele>
<time>2010-08-29T16:27:12Z</time>
<desc>lat.=56.068607, lon.=26.374300, Alt.=101.120178m. Speed=22.752001m/h.</desc>
<speed>6.320000</speed>
</trkpt>
<trkpt lat="56.068554" lon="26.374321">
<ele>101.057678</ele>
<time>2010-08-29T16:27:13Z</time>
<desc>lat.=56.068554, lon.=26.374321, Alt.=101.057678m. Speed=23.219999m/h.</desc>
<speed>6.450000</speed>
</trkpt>
<trkpt lat="56.068497" lon="26.374346">
<ele>101.085022</ele>
<time>2010-08-29T16:27:14Z</time>
<desc>lat.=56.068497, lon.=26.374346, Alt.=101.085022m. Speed=23.615999m/h.</desc>
<speed>6.560000</speed>
</trkpt>
<trkpt lat="56.068439" lon="26.374369">
<ele>101.245178</ele>
<time>2010-08-29T16:27:15Z</time>
<desc>lat.=56.068439, lon.=26.374369, Alt.=101.245178m. Speed=23.903999m/h.</desc>
<speed>6.640000</speed>
</trkpt>
<trkpt lat="56.068378" lon="26.374393">
<ele>101.366272</ele>
<time>2010-08-29T16:27:16Z</time>
<desc>lat.=56.068378, lon.=26.374393, Alt.=101.366272m. Speed=24.840000m/h.</desc>
<speed>6.900000</speed>
</trkpt>
<trkpt lat="56.068317" lon="26.374418">
<ele>101.297913</ele>
<time>2010-08-29T16:27:17Z</time>
<desc>lat.=56.068317, lon.=26.374418, Alt.=101.297913m. Speed=24.768000m/h.</desc>
<speed>6.880000</speed>
</trkpt>
<trkpt lat="56.068256" lon="26.374439">
<ele>101.422913</ele>
<time>2010-08-29T16:27:18Z</time>
<desc>lat.=56.068256, lon.=26.374439, Alt.=101.422913m. Speed=24.983999m/h.</desc>
<speed>6.940000</speed>
</trkpt>
<trkpt lat="56.068195" lon="26.374460">
<ele>101.608459</ele>
<time>2010-08-29T16:27:19Z</time>
<desc>lat.=56.068195, lon.=26.374460, Alt.=101.608459m. Speed=25.488001m/h.</desc>
<speed>7.080000</speed>
</trkpt>
<trkpt lat="56.068134" lon="26.374479">
<ele>101.682678</ele>
<time>2010-08-29T16:27:20Z</time>
<desc>lat.=56.068134, lon.=26.374479, Alt.=101.682678m. Speed=25.379999m/h.</desc>
<speed>7.050000</speed>
</trkpt>
<trkpt lat="56.068073" lon="26.374495">
<ele>101.965881</ele>
<time>2010-08-29T16:27:21Z</time>
<desc>lat.=56.068073, lon.=26.374495, Alt.=101.965881m. Speed=25.524000m/h.</desc>
<speed>7.090000</speed>
</trkpt>
<trkpt lat="56.068008" lon="26.374510">
<ele>102.057678</ele>
<time>2010-08-29T16:27:22Z</time>
<desc>lat.=56.068008, lon.=26.374510, Alt.=102.057678m. Speed=26.208000m/h.</desc>
<speed>7.280000</speed>
</trkpt>
<trkpt lat="56.067944" lon="26.374523">
<ele>102.210022</ele>
<time>2010-08-29T16:27:23Z</time>
<desc>lat.=56.067944, lon.=26.374523, Alt.=102.210022m. Speed=25.524000m/h.</desc>
<speed>7.090000</speed>
</trkpt>
<trkpt lat="56.067883" lon="26.374542">
<ele>102.284241</ele>
<time>2010-08-29T16:27:24Z</time>
<desc>lat.=56.067883, lon.=26.374542, Alt.=102.284241m. Speed=25.056000m/h.</desc>
<speed>6.960000</speed>
</trkpt>
<trkpt lat="56.067818" lon="26.374559">
<ele>102.301819</ele>
<time>2010-08-29T16:27:25Z</time>
<desc>lat.=56.067818, lon.=26.374559, Alt.=102.301819m. Speed=24.840000m/h.</desc>
<speed>6.900000</speed>
</trkpt>
<trkpt lat="56.067757" lon="26.374580">
<ele>101.969788</ele>
<time>2010-08-29T16:27:26Z</time>
<desc>lat.=56.067757, lon.=26.374580, Alt.=101.969788m. Speed=25.559999m/h.</desc>
<speed>7.100000</speed>
</trkpt>
<trkpt lat="56.067692" lon="26.374599">
<ele>101.717834</ele>
<time>2010-08-29T16:27:27Z</time>
<desc>lat.=56.067692, lon.=26.374599, Alt.=101.717834m. Speed=26.100000m/h.</desc>
<speed>7.250000</speed>
</trkpt>
<trkpt lat="56.067627" lon="26.374622">
<ele>101.387756</ele>
<time>2010-08-29T16:27:28Z</time>
<desc>lat.=56.067627, lon.=26.374622, Alt.=101.387756m. Speed=25.559999m/h.</desc>
<speed>7.100000</speed>
</trkpt>
<trkpt lat="56.067566" lon="26.374643">
<ele>101.346741</ele>
<time>2010-08-29T16:27:29Z</time>
<desc>lat.=56.067566, lon.=26.374643, Alt.=101.346741m. Speed=24.732000m/h.</desc>
<speed>6.870000</speed>
</trkpt>
<trkpt lat="56.067505" lon="26.374664">
<ele>101.221741</ele>
<time>2010-08-29T16:27:30Z</time>
<desc>lat.=56.067505, lon.=26.374664, Alt.=101.221741m. Speed=24.120001m/h.</desc>
<speed>6.700000</speed>
</trkpt>
<trkpt lat="56.067448" lon="26.374680">
<ele>101.192444</ele>
<time>2010-08-29T16:27:31Z</time>
<desc>lat.=56.067448, lon.=26.374680, Alt.=101.192444m. Speed=23.400000m/h.</desc>
<speed>6.500000</speed>
</trkpt>
<trkpt lat="56.067390" lon="26.374699">
<ele>101.217834</ele>
<time>2010-08-29T16:27:32Z</time>
<desc>lat.=56.067390, lon.=26.374699, Alt.=101.217834m. Speed=22.643999m/h.</desc>
<speed>6.290000</speed>
</trkpt>
<trkpt lat="56.067337" lon="26.374716">
<ele>101.008850</ele>
<time>2010-08-29T16:27:33Z</time>
<desc>lat.=56.067337, lon.=26.374716, Alt.=101.008850m. Speed=21.959999m/h.</desc>
<speed>6.100000</speed>
</trkpt>
<trkpt lat="56.067280" lon="26.374733">
<ele>101.002991</ele>
<time>2010-08-29T16:27:34Z</time>
<desc>lat.=56.067280, lon.=26.374733, Alt.=101.002991m. Speed=21.492001m/h.</desc>
<speed>5.970000</speed>
</trkpt>
<trkpt lat="56.067230" lon="26.374750">
<ele>101.192444</ele>
<time>2010-08-29T16:27:35Z</time>
<desc>lat.=56.067230, lon.=26.374750, Alt.=101.192444m. Speed=20.771999m/h.</desc>
<speed>5.770000</speed>
</trkpt>
<trkpt lat="56.067177" lon="26.374765">
<ele>101.200256</ele>
<time>2010-08-29T16:27:36Z</time>
<desc>lat.=56.067177, lon.=26.374765, Alt.=101.200256m. Speed=21.420000m/h.</desc>
<speed>5.950000</speed>
</trkpt>
<trkpt lat="56.067123" lon="26.374783">
<ele>101.165100</ele>
<time>2010-08-29T16:27:37Z</time>
<desc>lat.=56.067123, lon.=26.374783, Alt.=101.165100m. Speed=21.743999m/h.</desc>
<speed>6.040000</speed>
</trkpt>
<trkpt lat="56.067066" lon="26.374802">
<ele>101.129944</ele>
<time>2010-08-29T16:27:38Z</time>
<desc>lat.=56.067066, lon.=26.374802, Alt.=101.129944m. Speed=22.032000m/h.</desc>
<speed>6.120000</speed>
</trkpt>
<trkpt lat="56.067013" lon="26.374815">
<ele>101.368225</ele>
<time>2010-08-29T16:27:39Z</time>
<desc>lat.=56.067013, lon.=26.374815, Alt.=101.368225m. Speed=22.068001m/h.</desc>
<speed>6.130000</speed>
</trkpt>
<trkpt lat="56.066959" lon="26.374830">
<ele>101.493225</ele>
<time>2010-08-29T16:27:40Z</time>
<desc>lat.=56.066959, lon.=26.374830, Alt.=101.493225m. Speed=22.572001m/h.</desc>
<speed>6.270000</speed>
</trkpt>
<trkpt lat="56.066902" lon="26.374846">
<ele>101.573303</ele>
<time>2010-08-29T16:27:41Z</time>
<desc>lat.=56.066902, lon.=26.374846, Alt.=101.573303m. Speed=22.752001m/h.</desc>
<speed>6.320000</speed>
</trkpt>
<trkpt lat="56.066845" lon="26.374863">
<ele>101.745178</ele>
<time>2010-08-29T16:27:42Z</time>
<desc>lat.=56.066845, lon.=26.374863, Alt.=101.745178m. Speed=22.896000m/h.</desc>
<speed>6.360000</speed>
</trkpt>
<trkpt lat="56.066788" lon="26.374882">
<ele>101.782288</ele>
<time>2010-08-29T16:27:43Z</time>
<desc>lat.=56.066788, lon.=26.374882, Alt.=101.782288m. Speed=23.219999m/h.</desc>
<speed>6.450000</speed>
</trkpt>
<trkpt lat="56.066734" lon="26.374899">
<ele>101.799866</ele>
<time>2010-08-29T16:27:44Z</time>
<desc>lat.=56.066734, lon.=26.374899, Alt.=101.799866m. Speed=23.364000m/h.</desc>
<speed>6.490000</speed>
</trkpt>
<trkpt lat="56.066673" lon="26.374918">
<ele>101.885803</ele>
<time>2010-08-29T16:27:45Z</time>
<desc>lat.=56.066673, lon.=26.374918, Alt.=101.885803m. Speed=23.400000m/h.</desc>
<speed>6.500000</speed>
</trkpt>
<trkpt lat="56.066616" lon="26.374933">
<ele>101.854553</ele>
<time>2010-08-29T16:27:46Z</time>
<desc>lat.=56.066616, lon.=26.374933, Alt.=101.854553m. Speed=23.796000m/h.</desc>
<speed>6.610000</speed>
</trkpt>
<trkpt lat="56.066555" lon="26.374949">
<ele>102.126038</ele>
<time>2010-08-29T16:27:47Z</time>
<desc>lat.=56.066555, lon.=26.374949, Alt.=102.126038m. Speed=24.336000m/h.</desc>
<speed>6.760000</speed>
</trkpt>
<trkpt lat="56.066494" lon="26.374966">
<ele>102.239319</ele>
<time>2010-08-29T16:27:48Z</time>
<desc>lat.=56.066494, lon.=26.374966, Alt.=102.239319m. Speed=24.264000m/h.</desc>
<speed>6.740000</speed>
</trkpt>
<trkpt lat="56.066437" lon="26.374981">
<ele>102.258850</ele>
<time>2010-08-29T16:27:49Z</time>
<desc>lat.=56.066437, lon.=26.374981, Alt.=102.258850m. Speed=23.615999m/h.</desc>
<speed>6.560000</speed>
</trkpt>
<trkpt lat="56.066380" lon="26.374996">
<ele>102.450256</ele>
<time>2010-08-29T16:27:50Z</time>
<desc>lat.=56.066380, lon.=26.374996, Alt.=102.450256m. Speed=22.968000m/h.</desc>
<speed>6.380000</speed>
</trkpt>
<trkpt lat="56.066326" lon="26.375010">
<ele>102.463928</ele>
<time>2010-08-29T16:27:51Z</time>
<desc>lat.=56.066326, lon.=26.375010, Alt.=102.463928m. Speed=22.212000m/h.</desc>
<speed>6.170000</speed>
</trkpt>
<trkpt lat="56.066273" lon="26.375015">
<ele>102.491272</ele>
<time>2010-08-29T16:27:52Z</time>
<desc>lat.=56.066273, lon.=26.375015, Alt.=102.491272m. Speed=21.528000m/h.</desc>
<speed>5.980000</speed>
</trkpt>
<trkpt lat="56.066223" lon="26.375025">
<ele>102.604553</ele>
<time>2010-08-29T16:27:53Z</time>
<desc>lat.=56.066223, lon.=26.375025, Alt.=102.604553m. Speed=20.988001m/h.</desc>
<speed>5.830000</speed>
</trkpt>
<trkpt lat="56.066170" lon="26.375031">
<ele>102.739319</ele>
<time>2010-08-29T16:27:54Z</time>
<desc>lat.=56.066170, lon.=26.375031, Alt.=102.739319m. Speed=20.808001m/h.</desc>
<speed>5.780000</speed>
</trkpt>
<trkpt lat="56.066120" lon="26.375044">
<ele>102.928772</ele>
<time>2010-08-29T16:27:55Z</time>
<desc>lat.=56.066120, lon.=26.375044, Alt.=102.928772m. Speed=21.492001m/h.</desc>
<speed>5.970000</speed>
</trkpt>
<trkpt lat="56.066063" lon="26.375057">
<ele>103.110413</ele>
<time>2010-08-29T16:27:56Z</time>
<desc>lat.=56.066063, lon.=26.375057, Alt.=103.110413m. Speed=22.572001m/h.</desc>
<speed>6.270000</speed>
</trkpt>
<trkpt lat="56.066006" lon="26.375072">
<ele>103.143616</ele>
<time>2010-08-29T16:27:57Z</time>
<desc>lat.=56.066006, lon.=26.375072, Alt.=103.143616m. Speed=22.716000m/h.</desc>
<speed>6.310000</speed>
</trkpt>
<trkpt lat="56.065948" lon="26.375088">
<ele>103.016663</ele>
<time>2010-08-29T16:27:58Z</time>
<desc>lat.=56.065948, lon.=26.375088, Alt.=103.016663m. Speed=22.680000m/h.</desc>
<speed>6.300000</speed>
</trkpt>
<trkpt lat="56.065891" lon="26.375101">
<ele>102.940491</ele>
<time>2010-08-29T16:27:59Z</time>
<desc>lat.=56.065891, lon.=26.375101, Alt.=102.940491m. Speed=23.544001m/h.</desc>
<speed>6.540000</speed>
</trkpt>
<trkpt lat="56.065834" lon="26.375116">
<ele>102.911194</ele>
<time>2010-08-29T16:28:00Z</time>
<desc>lat.=56.065834, lon.=26.375116, Alt.=102.911194m. Speed=23.436001m/h.</desc>
<speed>6.510000</speed>
</trkpt>
<trkpt lat="56.065781" lon="26.375149">
<ele>102.905334</ele>
<time>2010-08-29T16:28:01Z</time>
<desc>lat.=56.065781, lon.=26.375149, Alt.=102.905334m. Speed=22.572001m/h.</desc>
<speed>6.270000</speed>
</trkpt>
<trkpt lat="56.065723" lon="26.375179">
<ele>103.049866</ele>
<time>2010-08-29T16:28:02Z</time>
<desc>lat.=56.065723, lon.=26.375179, Alt.=103.049866m. Speed=22.752001m/h.</desc>
<speed>6.320000</speed>
</trkpt>
<trkpt lat="56.065666" lon="26.375198">
<ele>103.044006</ele>
<time>2010-08-29T16:28:03Z</time>
<desc>lat.=56.065666, lon.=26.375198, Alt.=103.044006m. Speed=22.968000m/h.</desc>
<speed>6.380000</speed>
</trkpt>
<trkpt lat="56.065609" lon="26.375214">
<ele>103.071350</ele>
<time>2010-08-29T16:28:04Z</time>
<desc>lat.=56.065609, lon.=26.375214, Alt.=103.071350m. Speed=23.868000m/h.</desc>
<speed>6.630000</speed>
</trkpt>
<trkpt lat="56.065548" lon="26.375227">
<ele>102.864319</ele>
<time>2010-08-29T16:28:05Z</time>
<desc>lat.=56.065548, lon.=26.375227, Alt.=102.864319m. Speed=24.516001m/h.</desc>
<speed>6.810000</speed>
</trkpt>
<trkpt lat="56.065487" lon="26.375238">
<ele>102.432678</ele>
<time>2010-08-29T16:28:06Z</time>
<desc>lat.=56.065487, lon.=26.375238, Alt.=102.432678m. Speed=25.056000m/h.</desc>
<speed>6.960000</speed>
</trkpt>
<trkpt lat="56.065426" lon="26.375252">
<ele>102.577209</ele>
<time>2010-08-29T16:28:07Z</time>
<desc>lat.=56.065426, lon.=26.375252, Alt.=102.577209m. Speed=25.271999m/h.</desc>
<speed>7.020000</speed>
</trkpt>
<trkpt lat="56.065365" lon="26.375265">
<ele>102.497131</ele>
<time>2010-08-29T16:28:08Z</time>
<desc>lat.=56.065365, lon.=26.375265, Alt.=102.497131m. Speed=25.344000m/h.</desc>
<speed>7.040000</speed>
</trkpt>
<trkpt lat="56.065300" lon="26.375280">
<ele>102.790100</ele>
<time>2010-08-29T16:28:09Z</time>
<desc>lat.=56.065300, lon.=26.375280, Alt.=102.790100m. Speed=25.596001m/h.</desc>
<speed>7.110000</speed>
</trkpt>
<trkpt lat="56.065235" lon="26.375294">
<ele>103.483459</ele>
<time>2010-08-29T16:28:10Z</time>
<desc>lat.=56.065235, lon.=26.375294, Alt.=103.483459m. Speed=26.028000m/h.</desc>
<speed>7.230000</speed>
</trkpt>
<trkpt lat="56.065170" lon="26.375313">
<ele>103.895569</ele>
<time>2010-08-29T16:28:11Z</time>
<desc>lat.=56.065170, lon.=26.375313, Alt.=103.895569m. Speed=26.568001m/h.</desc>
<speed>7.380000</speed>
</trkpt>
<trkpt lat="56.065102" lon="26.375332">
<ele>104.260803</ele>
<time>2010-08-29T16:28:12Z</time>
<desc>lat.=56.065102, lon.=26.375332, Alt.=104.260803m. Speed=26.856001m/h.</desc>
<speed>7.460000</speed>
</trkpt>
<trkpt lat="56.065037" lon="26.375349">
<ele>104.399475</ele>
<time>2010-08-29T16:28:13Z</time>
<desc>lat.=56.065037, lon.=26.375349, Alt.=104.399475m. Speed=26.927999m/h.</desc>
<speed>7.480000</speed>
</trkpt>
<trkpt lat="56.064968" lon="26.375362">
<ele>104.208069</ele>
<time>2010-08-29T16:28:14Z</time>
<desc>lat.=56.064968, lon.=26.375362, Alt.=104.208069m. Speed=27.216000m/h.</desc>
<speed>7.560000</speed>
</trkpt>
<trkpt lat="56.064903" lon="26.375376">
<ele>103.922913</ele>
<time>2010-08-29T16:28:15Z</time>
<desc>lat.=56.064903, lon.=26.375376, Alt.=103.922913m. Speed=26.676001m/h.</desc>
<speed>7.410000</speed>
</trkpt>
<trkpt lat="56.064835" lon="26.375395">
<ele>104.001038</ele>
<time>2010-08-29T16:28:16Z</time>
<desc>lat.=56.064835, lon.=26.375395, Alt.=104.001038m. Speed=25.920000m/h.</desc>
<speed>7.200000</speed>
</trkpt>
<trkpt lat="56.064774" lon="26.375406">
<ele>103.872131</ele>
<time>2010-08-29T16:28:17Z</time>
<desc>lat.=56.064774, lon.=26.375406, Alt.=103.872131m. Speed=25.308001m/h.</desc>
<speed>7.030000</speed>
</trkpt>
<trkpt lat="56.064713" lon="26.375420">
<ele>103.862366</ele>
<time>2010-08-29T16:28:18Z</time>
<desc>lat.=56.064713, lon.=26.375420, Alt.=103.862366m. Speed=24.624001m/h.</desc>
<speed>6.840000</speed>
</trkpt>
<trkpt lat="56.064651" lon="26.375431">
<ele>103.889709</ele>
<time>2010-08-29T16:28:19Z</time>
<desc>lat.=56.064651, lon.=26.375431, Alt.=103.889709m. Speed=24.048000m/h.</desc>
<speed>6.680000</speed>
</trkpt>
<trkpt lat="56.064594" lon="26.375443">
<ele>103.879944</ele>
<time>2010-08-29T16:28:20Z</time>
<desc>lat.=56.064594, lon.=26.375443, Alt.=103.879944m. Speed=23.292000m/h.</desc>
<speed>6.470000</speed>
</trkpt>
<trkpt lat="56.064537" lon="26.375456">
<ele>103.874084</ele>
<time>2010-08-29T16:28:21Z</time>
<desc>lat.=56.064537, lon.=26.375456, Alt.=103.874084m. Speed=23.040001m/h.</desc>
<speed>6.400000</speed>
</trkpt>
<trkpt lat="56.064480" lon="26.375469">
<ele>103.805725</ele>
<time>2010-08-29T16:28:22Z</time>
<desc>lat.=56.064480, lon.=26.375469, Alt.=103.805725m. Speed=23.724001m/h.</desc>
<speed>6.590000</speed>
</trkpt>
<trkpt lat="56.064419" lon="26.375484">
<ele>103.573303</ele>
<time>2010-08-29T16:28:23Z</time>
<desc>lat.=56.064419, lon.=26.375484, Alt.=103.573303m. Speed=24.120001m/h.</desc>
<speed>6.700000</speed>
</trkpt>
<trkpt lat="56.064358" lon="26.375500">
<ele>103.557678</ele>
<time>2010-08-29T16:28:24Z</time>
<desc>lat.=56.064358, lon.=26.375500, Alt.=103.557678m. Speed=24.480000m/h.</desc>
<speed>6.800000</speed>
</trkpt>
<trkpt lat="56.064301" lon="26.375509">
<ele>103.360413</ele>
<time>2010-08-29T16:28:25Z</time>
<desc>lat.=56.064301, lon.=26.375509, Alt.=103.360413m. Speed=23.400000m/h.</desc>
<speed>6.500000</speed>
</trkpt>
<trkpt lat="56.064243" lon="26.375521">
<ele>103.366272</ele>
<time>2010-08-29T16:28:26Z</time>
<desc>lat.=56.064243, lon.=26.375521, Alt.=103.366272m. Speed=22.427999m/h.</desc>
<speed>6.230000</speed>
</trkpt>
<trkpt lat="56.064186" lon="26.375532">
<ele>103.458069</ele>
<time>2010-08-29T16:28:27Z</time>
<desc>lat.=56.064186, lon.=26.375532, Alt.=103.458069m. Speed=21.816000m/h.</desc>
<speed>6.060000</speed>
</trkpt>
<trkpt lat="56.064137" lon="26.375542">
<ele>103.385803</ele>
<time>2010-08-29T16:28:28Z</time>
<desc>lat.=56.064137, lon.=26.375542, Alt.=103.385803m. Speed=21.167999m/h.</desc>
<speed>5.880000</speed>
</trkpt>
<trkpt lat="56.064087" lon="26.375553">
<ele>103.389709</ele>
<time>2010-08-29T16:28:29Z</time>
<desc>lat.=56.064087, lon.=26.375553, Alt.=103.389709m. Speed=20.736000m/h.</desc>
<speed>5.760000</speed>
</trkpt>
<trkpt lat="56.064034" lon="26.375565">
<ele>103.370178</ele>
<time>2010-08-29T16:28:30Z</time>
<desc>lat.=56.064034, lon.=26.375565, Alt.=103.370178m. Speed=20.160000m/h.</desc>
<speed>5.600000</speed>
</trkpt>
<trkpt lat="56.063984" lon="26.375574">
<ele>103.419006</ele>
<time>2010-08-29T16:28:31Z</time>
<desc>lat.=56.063984, lon.=26.375574, Alt.=103.419006m. Speed=19.476000m/h.</desc>
<speed>5.410000</speed>
</trkpt>
<trkpt lat="56.063938" lon="26.375584">
<ele>103.430725</ele>
<time>2010-08-29T16:28:32Z</time>
<desc>lat.=56.063938, lon.=26.375584, Alt.=103.430725m. Speed=18.936001m/h.</desc>
<speed>5.260000</speed>
</trkpt>
<trkpt lat="56.063896" lon="26.375593">
<ele>103.432678</ele>
<time>2010-08-29T16:28:33Z</time>
<desc>lat.=56.063896, lon.=26.375593, Alt.=103.432678m. Speed=18.108000m/h.</desc>
<speed>5.030000</speed>
</trkpt>
<trkpt lat="56.063850" lon="26.375597">
<ele>103.479553</ele>
<time>2010-08-29T16:28:34Z</time>
<desc>lat.=56.063850, lon.=26.375597, Alt.=103.479553m. Speed=17.784000m/h.</desc>
<speed>4.940000</speed>
</trkpt>
<trkpt lat="56.063808" lon="26.375605">
<ele>103.508850</ele>
<time>2010-08-29T16:28:35Z</time>
<desc>lat.=56.063808, lon.=26.375605, Alt.=103.508850m. Speed=17.208000m/h.</desc>
<speed>4.780000</speed>
</trkpt>
<trkpt lat="56.063766" lon="26.375612">
<ele>103.501038</ele>
<time>2010-08-29T16:28:36Z</time>
<desc>lat.=56.063766, lon.=26.375612, Alt.=103.501038m. Speed=16.667999m/h.</desc>
<speed>4.630000</speed>
</trkpt>
<trkpt lat="56.063725" lon="26.375622">
<ele>103.374084</ele>
<time>2010-08-29T16:28:37Z</time>
<desc>lat.=56.063725, lon.=26.375622, Alt.=103.374084m. Speed=16.596001m/h.</desc>
<speed>4.610000</speed>
</trkpt>
<trkpt lat="56.063683" lon="26.375629">
<ele>103.524475</ele>
<time>2010-08-29T16:28:38Z</time>
<desc>lat.=56.063683, lon.=26.375629, Alt.=103.524475m. Speed=17.351999m/h.</desc>
<speed>4.820000</speed>
</trkpt>
<trkpt lat="56.063641" lon="26.375639">
<ele>103.575256</ele>
<time>2010-08-29T16:28:39Z</time>
<desc>lat.=56.063641, lon.=26.375639, Alt.=103.575256m. Speed=17.820000m/h.</desc>
<speed>4.950000</speed>
</trkpt>
<trkpt lat="56.063599" lon="26.375645">
<ele>103.524475</ele>
<time>2010-08-29T16:28:40Z</time>
<desc>lat.=56.063599, lon.=26.375645, Alt.=103.524475m. Speed=18.900000m/h.</desc>
<speed>5.250000</speed>
</trkpt>
<trkpt lat="56.063553" lon="26.375654">
<ele>103.436584</ele>
<time>2010-08-29T16:28:41Z</time>
<desc>lat.=56.063553, lon.=26.375654, Alt.=103.436584m. Speed=19.548000m/h.</desc>
<speed>5.430000</speed>
</trkpt>
<trkpt lat="56.063503" lon="26.375662">
<ele>103.348694</ele>
<time>2010-08-29T16:28:42Z</time>
<desc>lat.=56.063503, lon.=26.375662, Alt.=103.348694m. Speed=20.052000m/h.</desc>
<speed>5.570000</speed>
</trkpt>
<trkpt lat="56.063450" lon="26.375669">
<ele>103.372131</ele>
<time>2010-08-29T16:28:43Z</time>
<desc>lat.=56.063450, lon.=26.375669, Alt.=103.372131m. Speed=20.591999m/h.</desc>
<speed>5.720000</speed>
</trkpt>
<trkpt lat="56.063400" lon="26.375677">
<ele>103.399475</ele>
<time>2010-08-29T16:28:44Z</time>
<desc>lat.=56.063400, lon.=26.375677, Alt.=103.399475m. Speed=21.275999m/h.</desc>
<speed>5.910000</speed>
</trkpt>
<trkpt lat="56.063343" lon="26.375689">
<ele>103.448303</ele>
<time>2010-08-29T16:28:45Z</time>
<desc>lat.=56.063343, lon.=26.375689, Alt.=103.448303m. Speed=21.888000m/h.</desc>
<speed>6.080000</speed>
</trkpt>
<trkpt lat="56.063290" lon="26.375696">
<ele>103.610413</ele>
<time>2010-08-29T16:28:46Z</time>
<desc>lat.=56.063290, lon.=26.375696, Alt.=103.610413m. Speed=22.356001m/h.</desc>
<speed>6.210000</speed>
</trkpt>
<trkpt lat="56.063232" lon="26.375708">
<ele>103.602600</ele>
<time>2010-08-29T16:28:47Z</time>
<desc>lat.=56.063232, lon.=26.375708, Alt.=103.602600m. Speed=22.931999m/h.</desc>
<speed>6.370000</speed>
</trkpt>
<trkpt lat="56.063175" lon="26.375715">
<ele>104.001038</ele>
<time>2010-08-29T16:28:48Z</time>
<desc>lat.=56.063175, lon.=26.375715, Alt.=104.001038m. Speed=23.076000m/h.</desc>
<speed>6.410000</speed>
</trkpt>
<trkpt lat="56.063118" lon="26.375723">
<ele>103.971741</ele>
<time>2010-08-29T16:28:49Z</time>
<desc>lat.=56.063118, lon.=26.375723, Alt.=103.971741m. Speed=23.688000m/h.</desc>
<speed>6.580000</speed>
</trkpt>
<trkpt lat="56.063061" lon="26.375729">
<ele>103.975647</ele>
<time>2010-08-29T16:28:50Z</time>
<desc>lat.=56.063061, lon.=26.375729, Alt.=103.975647m. Speed=23.724001m/h.</desc>
<speed>6.590000</speed>
</trkpt>
<trkpt lat="56.063004" lon="26.375738">
<ele>104.034241</ele>
<time>2010-08-29T16:28:51Z</time>
<desc>lat.=56.063004, lon.=26.375738, Alt.=104.034241m. Speed=23.760000m/h.</desc>
<speed>6.600000</speed>
</trkpt>
<trkpt lat="56.062943" lon="26.375748">
<ele>104.081116</ele>
<time>2010-08-29T16:28:52Z</time>
<desc>lat.=56.062943, lon.=26.375748, Alt.=104.081116m. Speed=23.184000m/h.</desc>
<speed>6.440000</speed>
</trkpt>
<trkpt lat="56.062885" lon="26.375763">
<ele>104.237366</ele>
<time>2010-08-29T16:28:53Z</time>
<desc>lat.=56.062885, lon.=26.375763, Alt.=104.237366m. Speed=22.860001m/h.</desc>
<speed>6.350000</speed>
</trkpt>
<trkpt lat="56.062828" lon="26.375772">
<ele>104.274475</ele>
<time>2010-08-29T16:28:54Z</time>
<desc>lat.=56.062828, lon.=26.375772, Alt.=104.274475m. Speed=21.888000m/h.</desc>
<speed>6.080000</speed>
</trkpt>
<trkpt lat="56.062775" lon="26.375780">
<ele>104.399475</ele>
<time>2010-08-29T16:28:55Z</time>
<desc>lat.=56.062775, lon.=26.375780, Alt.=104.399475m. Speed=21.455999m/h.</desc>
<speed>5.960000</speed>
</trkpt>
<trkpt lat="56.062721" lon="26.375790">
<ele>104.528381</ele>
<time>2010-08-29T16:28:56Z</time>
<desc>lat.=56.062721, lon.=26.375790, Alt.=104.528381m. Speed=20.700001m/h.</desc>
<speed>5.750000</speed>
</trkpt>
<trkpt lat="56.062672" lon="26.375801">
<ele>104.292053</ele>
<time>2010-08-29T16:28:57Z</time>
<desc>lat.=56.062672, lon.=26.375801, Alt.=104.292053m. Speed=20.844000m/h.</desc>
<speed>5.790000</speed>
</trkpt>
<trkpt lat="56.062618" lon="26.375813">
<ele>103.952209</ele>
<time>2010-08-29T16:28:58Z</time>
<desc>lat.=56.062618, lon.=26.375813, Alt.=103.952209m. Speed=20.916000m/h.</desc>
<speed>5.810000</speed>
</trkpt>
<trkpt lat="56.062565" lon="26.375822">
<ele>103.686584</ele>
<time>2010-08-29T16:28:59Z</time>
<desc>lat.=56.062565, lon.=26.375822, Alt.=103.686584m. Speed=21.851999m/h.</desc>
<speed>6.070000</speed>
</trkpt>
<trkpt lat="56.062508" lon="26.375830">
<ele>103.518616</ele>
<time>2010-08-29T16:29:00Z</time>
<desc>lat.=56.062508, lon.=26.375830, Alt.=103.518616m. Speed=21.708000m/h.</desc>
<speed>6.030000</speed>
</trkpt>
<trkpt lat="56.062454" lon="26.375834">
<ele>103.360413</ele>
<time>2010-08-29T16:29:01Z</time>
<desc>lat.=56.062454, lon.=26.375834, Alt.=103.360413m. Speed=21.780001m/h.</desc>
<speed>6.050000</speed>
</trkpt>
<trkpt lat="56.062401" lon="26.375839">
<ele>103.307678</ele>
<time>2010-08-29T16:29:02Z</time>
<desc>lat.=56.062401, lon.=26.375839, Alt.=103.307678m. Speed=21.888000m/h.</desc>
<speed>6.080000</speed>
</trkpt>
<trkpt lat="56.062344" lon="26.375854">
<ele>103.088928</ele>
<time>2010-08-29T16:29:03Z</time>
<desc>lat.=56.062344, lon.=26.375854, Alt.=103.088928m. Speed=21.743999m/h.</desc>
<speed>6.040000</speed>
</trkpt>
<trkpt lat="56.062290" lon="26.375866">
<ele>103.143616</ele>
<time>2010-08-29T16:29:04Z</time>
<desc>lat.=56.062290, lon.=26.375866, Alt.=103.143616m. Speed=21.743999m/h.</desc>
<speed>6.040000</speed>
</trkpt>
<trkpt lat="56.062233" lon="26.375874">
<ele>103.042053</ele>
<time>2010-08-29T16:29:05Z</time>
<desc>lat.=56.062233, lon.=26.375874, Alt.=103.042053m. Speed=21.816000m/h.</desc>
<speed>6.060000</speed>
</trkpt>
<trkpt lat="56.062180" lon="26.375881">
<ele>103.016663</ele>
<time>2010-08-29T16:29:06Z</time>
<desc>lat.=56.062180, lon.=26.375881, Alt.=103.016663m. Speed=21.924000m/h.</desc>
<speed>6.090000</speed>
</trkpt>
<trkpt lat="56.062126" lon="26.375893">
<ele>103.036194</ele>
<time>2010-08-29T16:29:07Z</time>
<desc>lat.=56.062126, lon.=26.375893, Alt.=103.036194m. Speed=21.959999m/h.</desc>
<speed>6.100000</speed>
</trkpt>
<trkpt lat="56.062073" lon="26.375902">
<ele>103.192444</ele>
<time>2010-08-29T16:29:08Z</time>
<desc>lat.=56.062073, lon.=26.375902, Alt.=103.192444m. Speed=21.780001m/h.</desc>
<speed>6.050000</speed>
</trkpt>
<trkpt lat="56.062016" lon="26.375912">
<ele>103.317444</ele>
<time>2010-08-29T16:29:09Z</time>
<desc>lat.=56.062016, lon.=26.375912, Alt.=103.317444m. Speed=21.780001m/h.</desc>
<speed>6.050000</speed>
</trkpt>
<trkpt lat="56.061962" lon="26.375917">
<ele>103.454163</ele>
<time>2010-08-29T16:29:10Z</time>
<desc>lat.=56.061962, lon.=26.375917, Alt.=103.454163m. Speed=21.708000m/h.</desc>
<speed>6.030000</speed>
</trkpt>
<trkpt lat="56.061905" lon="26.375923">
<ele>103.514709</ele>
<time>2010-08-29T16:29:11Z</time>
<desc>lat.=56.061905, lon.=26.375923, Alt.=103.514709m. Speed=21.600000m/h.</desc>
<speed>6.000000</speed>
</trkpt>
<trkpt lat="56.061852" lon="26.375933">
<ele>103.629944</ele>
<time>2010-08-29T16:29:12Z</time>
<desc>lat.=56.061852, lon.=26.375933, Alt.=103.629944m. Speed=21.563999m/h.</desc>
<speed>5.990000</speed>
</trkpt>
<trkpt lat="56.061794" lon="26.375940">
<ele>103.776428</ele>
<time>2010-08-29T16:29:13Z</time>
<desc>lat.=56.061794, lon.=26.375940, Alt.=103.776428m. Speed=21.528000m/h.</desc>
<speed>5.980000</speed>
</trkpt>
<trkpt lat="56.061741" lon="26.375946">
<ele>103.854553</ele>
<time>2010-08-29T16:29:14Z</time>
<desc>lat.=56.061741, lon.=26.375946, Alt.=103.854553m. Speed=22.356001m/h.</desc>
<speed>6.210000</speed>
</trkpt>
<trkpt lat="56.061684" lon="26.375956">
<ele>103.858459</ele>
<time>2010-08-29T16:29:15Z</time>
<desc>lat.=56.061684, lon.=26.375956, Alt.=103.858459m. Speed=22.788000m/h.</desc>
<speed>6.330000</speed>
</trkpt>
<trkpt lat="56.061630" lon="26.375967">
<ele>103.881897</ele>
<time>2010-08-29T16:29:16Z</time>
<desc>lat.=56.061630, lon.=26.375967, Alt.=103.881897m. Speed=23.256001m/h.</desc>
<speed>6.460000</speed>
</trkpt>
<trkpt lat="56.061569" lon="26.375977">
<ele>103.782288</ele>
<time>2010-08-29T16:29:17Z</time>
<desc>lat.=56.061569, lon.=26.375977, Alt.=103.782288m. Speed=23.544001m/h.</desc>
<speed>6.540000</speed>
</trkpt>
<trkpt lat="56.061512" lon="26.375984">
<ele>103.842834</ele>
<time>2010-08-29T16:29:18Z</time>
<desc>lat.=56.061512, lon.=26.375984, Alt.=103.842834m. Speed=22.788000m/h.</desc>
<speed>6.330000</speed>
</trkpt>
<trkpt lat="56.061459" lon="26.375990">
<ele>103.907288</ele>
<time>2010-08-29T16:29:19Z</time>
<desc>lat.=56.061459, lon.=26.375990, Alt.=103.907288m. Speed=21.996000m/h.</desc>
<speed>6.110000</speed>
</trkpt>
<trkpt lat="56.061401" lon="26.375996">
<ele>103.958069</ele>
<time>2010-08-29T16:29:20Z</time>
<desc>lat.=56.061401, lon.=26.375996, Alt.=103.958069m. Speed=21.420000m/h.</desc>
<speed>5.950000</speed>
</trkpt>
<trkpt lat="56.061352" lon="26.376005">
<ele>103.911194</ele>
<time>2010-08-29T16:29:21Z</time>
<desc>lat.=56.061352, lon.=26.376005, Alt.=103.911194m. Speed=21.096001m/h.</desc>
<speed>5.860000</speed>
</trkpt>
<trkpt lat="56.061298" lon="26.376009">
<ele>103.967834</ele>
<time>2010-08-29T16:29:22Z</time>
<desc>lat.=56.061298, lon.=26.376009, Alt.=103.967834m. Speed=20.520000m/h.</desc>
<speed>5.700000</speed>
</trkpt>
<trkpt lat="56.061249" lon="26.376019">
<ele>104.028381</ele>
<time>2010-08-29T16:29:23Z</time>
<desc>lat.=56.061249, lon.=26.376019, Alt.=104.028381m. Speed=20.087999m/h.</desc>
<speed>5.580000</speed>
</trkpt>
<trkpt lat="56.061199" lon="26.376026">
<ele>103.983459</ele>
<time>2010-08-29T16:29:24Z</time>
<desc>lat.=56.061199, lon.=26.376026, Alt.=103.983459m. Speed=19.620001m/h.</desc>
<speed>5.450000</speed>
</trkpt>
<trkpt lat="56.061150" lon="26.376032">
<ele>103.969788</ele>
<time>2010-08-29T16:29:25Z</time>
<desc>lat.=56.061150, lon.=26.376032, Alt.=103.969788m. Speed=20.412001m/h.</desc>
<speed>5.670000</speed>
</trkpt>
<trkpt lat="56.061100" lon="26.376038">
<ele>103.934631</ele>
<time>2010-08-29T16:29:26Z</time>
<desc>lat.=56.061100, lon.=26.376038, Alt.=103.934631m. Speed=20.844000m/h.</desc>
<speed>5.790000</speed>
</trkpt>
<trkpt lat="56.061047" lon="26.376045">
<ele>103.872131</ele>
<time>2010-08-29T16:29:27Z</time>
<desc>lat.=56.061047, lon.=26.376045, Alt.=103.872131m. Speed=21.563999m/h.</desc>
<speed>5.990000</speed>
</trkpt>
<trkpt lat="56.060993" lon="26.376055">
<ele>103.854553</ele>
<time>2010-08-29T16:29:28Z</time>
<desc>lat.=56.060993, lon.=26.376055, Alt.=103.854553m. Speed=22.176001m/h.</desc>
<speed>6.160000</speed>
</trkpt>
<trkpt lat="56.060936" lon="26.376059">
<ele>103.752991</ele>
<time>2010-08-29T16:29:29Z</time>
<desc>lat.=56.060936, lon.=26.376059, Alt.=103.752991m. Speed=22.535999m/h.</desc>
<speed>6.260000</speed>
</trkpt>
<trkpt lat="56.060879" lon="26.376064">
<ele>103.555725</ele>
<time>2010-08-29T16:29:30Z</time>
<desc>lat.=56.060879, lon.=26.376064, Alt.=103.555725m. Speed=22.896000m/h.</desc>
<speed>6.360000</speed>
</trkpt>
<trkpt lat="56.060822" lon="26.376076">
<ele>103.501038</ele>
<time>2010-08-29T16:29:31Z</time>
<desc>lat.=56.060822, lon.=26.376076, Alt.=103.501038m. Speed=23.292000m/h.</desc>
<speed>6.470000</speed>
</trkpt>
<trkpt lat="56.060768" lon="26.376087">
<ele>103.592834</ele>
<time>2010-08-29T16:29:32Z</time>
<desc>lat.=56.060768, lon.=26.376087, Alt.=103.592834m. Speed=22.464001m/h.</desc>
<speed>6.240000</speed>
</trkpt>
<trkpt lat="56.060711" lon="26.376097">
<ele>103.387756</ele>
<time>2010-08-29T16:29:33Z</time>
<desc>lat.=56.060711, lon.=26.376097, Alt.=103.387756m. Speed=21.708000m/h.</desc>
<speed>6.030000</speed>
</trkpt>
<trkpt lat="56.060658" lon="26.376104">
<ele>103.321350</ele>
<time>2010-08-29T16:29:34Z</time>
<desc>lat.=56.060658, lon.=26.376104, Alt.=103.321350m. Speed=20.879999m/h.</desc>
<speed>5.800000</speed>
</trkpt>
<trkpt lat="56.060608" lon="26.376110">
<ele>103.432678</ele>
<time>2010-08-29T16:29:35Z</time>
<desc>lat.=56.060608, lon.=26.376110, Alt.=103.432678m. Speed=20.160000m/h.</desc>
<speed>5.600000</speed>
</trkpt>
<trkpt lat="56.060555" lon="26.376118">
<ele>103.153381</ele>
<time>2010-08-29T16:29:36Z</time>
<desc>lat.=56.060555, lon.=26.376118, Alt.=103.153381m. Speed=19.764000m/h.</desc>
<speed>5.490000</speed>
</trkpt>
<trkpt lat="56.060509" lon="26.376125">
<ele>103.026428</ele>
<time>2010-08-29T16:29:37Z</time>
<desc>lat.=56.060509, lon.=26.376125, Alt.=103.026428m. Speed=19.080000m/h.</desc>
<speed>5.300000</speed>
</trkpt>
<trkpt lat="56.060459" lon="26.376131">
<ele>103.176819</ele>
<time>2010-08-29T16:29:38Z</time>
<desc>lat.=56.060459, lon.=26.376131, Alt.=103.176819m. Speed=18.648001m/h.</desc>
<speed>5.180000</speed>
</trkpt>
<trkpt lat="56.060413" lon="26.376141">
<ele>103.147522</ele>
<time>2010-08-29T16:29:39Z</time>
<desc>lat.=56.060413, lon.=26.376141, Alt.=103.147522m. Speed=18.000000m/h.</desc>
<speed>5.000000</speed>
</trkpt>
<trkpt lat="56.060371" lon="26.376148">
<ele>103.237366</ele>
<time>2010-08-29T16:29:40Z</time>
<desc>lat.=56.060371, lon.=26.376148, Alt.=103.237366m. Speed=17.351999m/h.</desc>
<speed>4.820000</speed>
</trkpt>
<trkpt lat="56.060329" lon="26.376154">
<ele>103.307678</ele>
<time>2010-08-29T16:29:41Z</time>
<desc>lat.=56.060329, lon.=26.376154, Alt.=103.307678m. Speed=16.775999m/h.</desc>
<speed>4.660000</speed>
</trkpt>
<trkpt lat="56.060287" lon="26.376165">
<ele>103.370178</ele>
<time>2010-08-29T16:29:42Z</time>
<desc>lat.=56.060287, lon.=26.376165, Alt.=103.370178m. Speed=16.308001m/h.</desc>
<speed>4.530000</speed>
</trkpt>
<trkpt lat="56.060249" lon="26.376171">
<ele>103.249084</ele>
<time>2010-08-29T16:29:43Z</time>
<desc>lat.=56.060249, lon.=26.376171, Alt.=103.249084m. Speed=15.840000m/h.</desc>
<speed>4.400000</speed>
</trkpt>
<trkpt lat="56.060211" lon="26.376175">
<ele>103.163147</ele>
<time>2010-08-29T16:29:44Z</time>
<desc>lat.=56.060211, lon.=26.376175, Alt.=103.163147m. Speed=15.264000m/h.</desc>
<speed>4.240000</speed>
</trkpt>
<trkpt lat="56.060173" lon="26.376177">
<ele>103.098694</ele>
<time>2010-08-29T16:29:45Z</time>
<desc>lat.=56.060173, lon.=26.376177, Alt.=103.098694m. Speed=15.048000m/h.</desc>
<speed>4.180000</speed>
</trkpt>
<trkpt lat="56.060135" lon="26.376181">
<ele>102.897522</ele>
<time>2010-08-29T16:29:46Z</time>
<desc>lat.=56.060135, lon.=26.376181, Alt.=102.897522m. Speed=16.091999m/h.</desc>
<speed>4.470000</speed>
</trkpt>
<trkpt lat="56.060097" lon="26.376186">
<ele>102.979553</ele>
<time>2010-08-29T16:29:47Z</time>
<desc>lat.=56.060097, lon.=26.376186, Alt.=102.979553m. Speed=16.667999m/h.</desc>
<speed>4.630000</speed>
</trkpt>
<trkpt lat="56.060055" lon="26.376194">
<ele>102.952209</ele>
<time>2010-08-29T16:29:48Z</time>
<desc>lat.=56.060055, lon.=26.376194, Alt.=102.952209m. Speed=17.676001m/h.</desc>
<speed>4.910000</speed>
</trkpt>
<trkpt lat="56.060009" lon="26.376202">
<ele>102.645569</ele>
<time>2010-08-29T16:29:49Z</time>
<desc>lat.=56.060009, lon.=26.376202, Alt.=102.645569m. Speed=18.576000m/h.</desc>
<speed>5.160000</speed>
</trkpt>
<trkpt lat="56.059963" lon="26.376209">
<ele>102.251038</ele>
<time>2010-08-29T16:29:50Z</time>
<desc>lat.=56.059963, lon.=26.376209, Alt.=102.251038m. Speed=19.511999m/h.</desc>
<speed>5.420000</speed>
</trkpt>
<trkpt lat="56.059914" lon="26.376215">
<ele>101.917053</ele>
<time>2010-08-29T16:29:51Z</time>
<desc>lat.=56.059914, lon.=26.376215, Alt.=101.917053m. Speed=20.124001m/h.</desc>
<speed>5.590000</speed>
</trkpt>
<trkpt lat="56.059860" lon="26.376221">
<ele>101.559631</ele>
<time>2010-08-29T16:29:52Z</time>
<desc>lat.=56.059860, lon.=26.376221, Alt.=101.559631m. Speed=20.952000m/h.</desc>
<speed>5.820000</speed>
</trkpt>
<trkpt lat="56.059807" lon="26.376228">
<ele>101.477600</ele>
<time>2010-08-29T16:29:53Z</time>
<desc>lat.=56.059807, lon.=26.376228, Alt.=101.477600m. Speed=21.420000m/h.</desc>
<speed>5.950000</speed>
</trkpt>
<trkpt lat="56.059753" lon="26.376236">
<ele>101.157288</ele>
<time>2010-08-29T16:29:54Z</time>
<desc>lat.=56.059753, lon.=26.376236, Alt.=101.157288m. Speed=22.068001m/h.</desc>
<speed>6.130000</speed>
</trkpt>
<trkpt lat="56.059700" lon="26.376244">
<ele>100.917053</ele>
<time>2010-08-29T16:29:55Z</time>
<desc>lat.=56.059700, lon.=26.376244, Alt.=100.917053m. Speed=22.139999m/h.</desc>
<speed>6.150000</speed>
</trkpt>
<trkpt lat="56.059643" lon="26.376255">
<ele>100.545959</ele>
<time>2010-08-29T16:29:56Z</time>
<desc>lat.=56.059643, lon.=26.376255, Alt.=100.545959m. Speed=22.680000m/h.</desc>
<speed>6.300000</speed>
</trkpt>
<trkpt lat="56.059582" lon="26.376261">
<ele>100.247131</ele>
<time>2010-08-29T16:29:57Z</time>
<desc>lat.=56.059582, lon.=26.376261, Alt.=100.247131m. Speed=23.219999m/h.</desc>
<speed>6.450000</speed>
</trkpt>
<trkpt lat="56.059525" lon="26.376263">
<ele>100.313538</ele>
<time>2010-08-29T16:29:58Z</time>
<desc>lat.=56.059525, lon.=26.376263, Alt.=100.313538m. Speed=23.580000m/h.</desc>
<speed>6.550000</speed>
</trkpt>
<trkpt lat="56.059464" lon="26.376270">
<ele>99.938538</ele>
<time>2010-08-29T16:29:59Z</time>
<desc>lat.=56.059464, lon.=26.376270, Alt.=99.938538m. Speed=23.976000m/h.</desc>
<speed>6.660000</speed>
</trkpt>
<trkpt lat="56.059402" lon="26.376284">
<ele>99.842834</ele>
<time>2010-08-29T16:30:00Z</time>
<desc>lat.=56.059402, lon.=26.376284, Alt.=99.842834m. Speed=24.804001m/h.</desc>
<speed>6.890000</speed>
</trkpt>
<trkpt lat="56.059341" lon="26.376295">
<ele>99.469788</ele>
<time>2010-08-29T16:30:01Z</time>
<desc>lat.=56.059341, lon.=26.376295, Alt.=99.469788m. Speed=24.875999m/h.</desc>
<speed>6.910000</speed>
</trkpt>
<trkpt lat="56.059280" lon="26.376301">
<ele>99.952209</ele>
<time>2010-08-29T16:30:02Z</time>
<desc>lat.=56.059280, lon.=26.376301, Alt.=99.952209m. Speed=25.056000m/h.</desc>
<speed>6.960000</speed>
</trkpt>
<trkpt lat="56.059219" lon="26.376308">
<ele>100.657288</ele>
<time>2010-08-29T16:30:03Z</time>
<desc>lat.=56.059219, lon.=26.376308, Alt.=100.657288m. Speed=24.948000m/h.</desc>
<speed>6.930000</speed>
</trkpt>
<trkpt lat="56.059158" lon="26.376316">
<ele>100.627991</ele>
<time>2010-08-29T16:30:04Z</time>
<desc>lat.=56.059158, lon.=26.376316, Alt.=100.627991m. Speed=24.372000m/h.</desc>
<speed>6.770000</speed>
</trkpt>
<trkpt lat="56.059097" lon="26.376324">
<ele>100.797913</ele>
<time>2010-08-29T16:30:05Z</time>
<desc>lat.=56.059097, lon.=26.376324, Alt.=100.797913m. Speed=23.436001m/h.</desc>
<speed>6.510000</speed>
</trkpt>
<trkpt lat="56.059044" lon="26.376329">
<ele>100.700256</ele>
<time>2010-08-29T16:30:06Z</time>
<desc>lat.=56.059044, lon.=26.376329, Alt.=100.700256m. Speed=22.788000m/h.</desc>
<speed>6.330000</speed>
</trkpt>
<trkpt lat="56.058987" lon="26.376339">
<ele>100.840881</ele>
<time>2010-08-29T16:30:07Z</time>
<desc>lat.=56.058987, lon.=26.376339, Alt.=100.840881m. Speed=22.176001m/h.</desc>
<speed>6.160000</speed>
</trkpt>
<trkpt lat="56.058933" lon="26.376343">
<ele>101.208069</ele>
<time>2010-08-29T16:30:08Z</time>
<desc>lat.=56.058933, lon.=26.376343, Alt.=101.208069m. Speed=21.492001m/h.</desc>
<speed>5.970000</speed>
</trkpt>
<trkpt lat="56.058884" lon="26.376347">
<ele>101.559631</ele>
<time>2010-08-29T16:30:09Z</time>
<desc>lat.=56.058884, lon.=26.376347, Alt.=101.559631m. Speed=21.240000m/h.</desc>
<speed>5.900000</speed>
</trkpt>
<trkpt lat="56.058826" lon="26.376352">
<ele>101.674866</ele>
<time>2010-08-29T16:30:10Z</time>
<desc>lat.=56.058826, lon.=26.376352, Alt.=101.674866m. Speed=21.816000m/h.</desc>
<speed>6.060000</speed>
</trkpt>
<trkpt lat="56.058769" lon="26.376356">
<ele>101.139709</ele>
<time>2010-08-29T16:30:11Z</time>
<desc>lat.=56.058769, lon.=26.376356, Alt.=101.139709m. Speed=22.572001m/h.</desc>
<speed>6.270000</speed>
</trkpt>
<trkpt lat="56.058716" lon="26.376364">
<ele>100.836975</ele>
<time>2010-08-29T16:30:12Z</time>
<desc>lat.=56.058716, lon.=26.376364, Alt.=100.836975m. Speed=22.752001m/h.</desc>
<speed>6.320000</speed>
</trkpt>
<trkpt lat="56.058659" lon="26.376377">
<ele>101.161194</ele>
<time>2010-08-29T16:30:13Z</time>
<desc>lat.=56.058659, lon.=26.376377, Alt.=101.161194m. Speed=23.112000m/h.</desc>
<speed>6.420000</speed>
</trkpt>
<trkpt lat="56.058601" lon="26.376383">
<ele>100.795959</ele>
<time>2010-08-29T16:30:14Z</time>
<desc>lat.=56.058601, lon.=26.376383, Alt.=100.795959m. Speed=23.580000m/h.</desc>
<speed>6.550000</speed>
</trkpt>
<trkpt lat="56.058540" lon="26.376390">
<ele>100.694397</ele>
<time>2010-08-29T16:30:15Z</time>
<desc>lat.=56.058540, lon.=26.376390, Alt.=100.694397m. Speed=23.832001m/h.</desc>
<speed>6.620000</speed>
</trkpt>
<trkpt lat="56.058483" lon="26.376398">
<ele>100.559631</ele>
<time>2010-08-29T16:30:16Z</time>
<desc>lat.=56.058483, lon.=26.376398, Alt.=100.559631m. Speed=24.299999m/h.</desc>
<speed>6.750000</speed>
</trkpt>
<trkpt lat="56.058422" lon="26.376404">
<ele>100.557678</ele>
<time>2010-08-29T16:30:17Z</time>
<desc>lat.=56.058422, lon.=26.376404, Alt.=100.557678m. Speed=24.768000m/h.</desc>
<speed>6.880000</speed>
</trkpt>
<trkpt lat="56.058357" lon="26.376411">
<ele>100.333069</ele>
<time>2010-08-29T16:30:18Z</time>
<desc>lat.=56.058357, lon.=26.376411, Alt.=100.333069m. Speed=24.948000m/h.</desc>
<speed>6.930000</speed>
</trkpt>
<trkpt lat="56.058296" lon="26.376419">
<ele>100.321350</ele>
<time>2010-08-29T16:30:19Z</time>
<desc>lat.=56.058296, lon.=26.376419, Alt.=100.321350m. Speed=25.379999m/h.</desc>
<speed>7.050000</speed>
</trkpt>
<trkpt lat="56.058235" lon="26.376432">
<ele>100.844788</ele>
<time>2010-08-29T16:30:20Z</time>
<desc>lat.=56.058235, lon.=26.376432, Alt.=100.844788m. Speed=24.552000m/h.</desc>
<speed>6.820000</speed>
</trkpt>
<trkpt lat="56.058174" lon="26.376448">
<ele>101.231506</ele>
<time>2010-08-29T16:30:21Z</time>
<desc>lat.=56.058174, lon.=26.376448, Alt.=101.231506m. Speed=23.760000m/h.</desc>
<speed>6.600000</speed>
</trkpt>
<trkpt lat="56.058117" lon="26.376463">
<ele>101.458069</ele>
<time>2010-08-29T16:30:22Z</time>
<desc>lat.=56.058117, lon.=26.376463, Alt.=101.458069m. Speed=23.112000m/h.</desc>
<speed>6.420000</speed>
</trkpt>
<trkpt lat="56.058060" lon="26.376476">
<ele>101.823303</ele>
<time>2010-08-29T16:30:23Z</time>
<desc>lat.=56.058060, lon.=26.376476, Alt.=101.823303m. Speed=22.320000m/h.</desc>
<speed>6.200000</speed>
</trkpt>
<trkpt lat="56.058006" lon="26.376488">
<ele>102.268616</ele>
<time>2010-08-29T16:30:24Z</time>
<desc>lat.=56.058006, lon.=26.376488, Alt.=102.268616m. Speed=21.636000m/h.</desc>
<speed>6.010000</speed>
</trkpt>
<trkpt lat="56.057953" lon="26.376495">
<ele>102.711975</ele>
<time>2010-08-29T16:30:25Z</time>
<desc>lat.=56.057953, lon.=26.376495, Alt.=102.711975m. Speed=20.988001m/h.</desc>
<speed>5.830000</speed>
</trkpt>
<trkpt lat="56.057899" lon="26.376501">
<ele>102.555725</ele>
<time>2010-08-29T16:30:26Z</time>
<desc>lat.=56.057899, lon.=26.376501, Alt.=102.555725m. Speed=20.556000m/h.</desc>
<speed>5.710000</speed>
</trkpt>
<trkpt lat="56.057854" lon="26.376507">
<ele>103.030334</ele>
<time>2010-08-29T16:30:27Z</time>
<desc>lat.=56.057854, lon.=26.376507, Alt.=103.030334m. Speed=19.944000m/h.</desc>
<speed>5.540000</speed>
</trkpt>
<trkpt lat="56.057804" lon="26.376514">
<ele>103.653381</ele>
<time>2010-08-29T16:30:28Z</time>
<desc>lat.=56.057804, lon.=26.376514, Alt.=103.653381m. Speed=19.296000m/h.</desc>
<speed>5.360000</speed>
</trkpt>
<trkpt lat="56.057755" lon="26.376522">
<ele>103.512756</ele>
<time>2010-08-29T16:30:29Z</time>
<desc>lat.=56.057755, lon.=26.376522, Alt.=103.512756m. Speed=19.872000m/h.</desc>
<speed>5.520000</speed>
</trkpt>
<trkpt lat="56.057709" lon="26.376532">
<ele>103.723694</ele>
<time>2010-08-29T16:30:30Z</time>
<desc>lat.=56.057709, lon.=26.376532, Alt.=103.723694m. Speed=20.124001m/h.</desc>
<speed>5.590000</speed>
</trkpt>
<trkpt lat="56.057663" lon="26.376543">
<ele>104.551819</ele>
<time>2010-08-29T16:30:31Z</time>
<desc>lat.=56.057663, lon.=26.376543, Alt.=104.551819m. Speed=21.384001m/h.</desc>
<speed>5.940000</speed>
</trkpt>
<trkpt lat="56.057606" lon="26.376554">
<ele>104.377991</ele>
<time>2010-08-29T16:30:32Z</time>
<desc>lat.=56.057606, lon.=26.376554, Alt.=104.377991m. Speed=22.104000m/h.</desc>
<speed>6.140000</speed>
</trkpt>
<trkpt lat="56.057549" lon="26.376560">
<ele>102.848694</ele>
<time>2010-08-29T16:30:33Z</time>
<desc>lat.=56.057549, lon.=26.376560, Alt.=102.848694m. Speed=22.320000m/h.</desc>
<speed>6.200000</speed>
</trkpt>
<trkpt lat="56.057495" lon="26.376566">
<ele>103.303772</ele>
<time>2010-08-29T16:30:34Z</time>
<desc>lat.=56.057495, lon.=26.376566, Alt.=103.303772m. Speed=22.427999m/h.</desc>
<speed>6.230000</speed>
</trkpt>
<trkpt lat="56.057438" lon="26.376568">
<ele>102.461975</ele>
<time>2010-08-29T16:30:35Z</time>
<desc>lat.=56.057438, lon.=26.376568, Alt.=102.461975m. Speed=22.716000m/h.</desc>
<speed>6.310000</speed>
</trkpt>
<trkpt lat="56.057384" lon="26.376570">
<ele>102.969788</ele>
<time>2010-08-29T16:30:36Z</time>
<desc>lat.=56.057384, lon.=26.376570, Alt.=102.969788m. Speed=23.652000m/h.</desc>
<speed>6.570000</speed>
</trkpt>
<trkpt lat="56.057323" lon="26.376570">
<ele>103.215881</ele>
<time>2010-08-29T16:30:37Z</time>
<desc>lat.=56.057323, lon.=26.376570, Alt.=103.215881m. Speed=24.156000m/h.</desc>
<speed>6.710000</speed>
</trkpt>
<trkpt lat="56.057262" lon="26.376568">
<ele>102.862366</ele>
<time>2010-08-29T16:30:38Z</time>
<desc>lat.=56.057262, lon.=26.376568, Alt.=102.862366m. Speed=24.695999m/h.</desc>
<speed>6.860000</speed>
</trkpt>
<trkpt lat="56.057201" lon="26.376577">
<ele>102.997131</ele>
<time>2010-08-29T16:30:39Z</time>
<desc>lat.=56.057201, lon.=26.376577, Alt.=102.997131m. Speed=24.048000m/h.</desc>
<speed>6.680000</speed>
</trkpt>
<trkpt lat="56.057144" lon="26.376589">
<ele>104.309631</ele>
<time>2010-08-29T16:30:40Z</time>
<desc>lat.=56.057144, lon.=26.376589, Alt.=104.309631m. Speed=23.112000m/h.</desc>
<speed>6.420000</speed>
</trkpt>
<trkpt lat="56.057087" lon="26.376596">
<ele>104.051819</ele>
<time>2010-08-29T16:30:41Z</time>
<desc>lat.=56.057087, lon.=26.376596, Alt.=104.051819m. Speed=22.464001m/h.</desc>
<speed>6.240000</speed>
</trkpt>
<trkpt lat="56.057034" lon="26.376602">
<ele>104.942444</ele>
<time>2010-08-29T16:30:42Z</time>
<desc>lat.=56.057034, lon.=26.376602, Alt.=104.942444m. Speed=21.924000m/h.</desc>
<speed>6.090000</speed>
</trkpt>
<trkpt lat="56.056988" lon="26.376608">
<ele>107.182678</ele>
<time>2010-08-29T16:30:43Z</time>
<desc>lat.=56.056988, lon.=26.376608, Alt.=107.182678m. Speed=21.455999m/h.</desc>
<speed>5.960000</speed>
</trkpt>
<trkpt lat="56.056934" lon="26.376612">
<ele>107.129944</ele>
<time>2010-08-29T16:30:44Z</time>
<desc>lat.=56.056934, lon.=26.376612, Alt.=107.129944m. Speed=20.448000m/h.</desc>
<speed>5.680000</speed>
</trkpt>
<trkpt lat="56.056885" lon="26.376623">
<ele>107.756897</ele>
<time>2010-08-29T16:30:45Z</time>
<desc>lat.=56.056885, lon.=26.376623, Alt.=107.756897m. Speed=20.052000m/h.</desc>
<speed>5.570000</speed>
</trkpt>
<trkpt lat="56.056831" lon="26.376635">
<ele>106.077209</ele>
<time>2010-08-29T16:30:46Z</time>
<desc>lat.=56.056831, lon.=26.376635, Alt.=106.077209m. Speed=19.440001m/h.</desc>
<speed>5.400000</speed>
</trkpt>
<trkpt lat="56.056786" lon="26.376644">
<ele>105.963928</ele>
<time>2010-08-29T16:30:47Z</time>
<desc>lat.=56.056786, lon.=26.376644, Alt.=105.963928m. Speed=19.115999m/h.</desc>
<speed>5.310000</speed>
</trkpt>
<trkpt lat="56.056736" lon="26.376652">
<ele>105.260803</ele>
<time>2010-08-29T16:30:48Z</time>
<desc>lat.=56.056736, lon.=26.376652, Alt.=105.260803m. Speed=18.864000m/h.</desc>
<speed>5.240000</speed>
</trkpt>
<trkpt lat="56.056690" lon="26.376654">
<ele>105.768616</ele>
<time>2010-08-29T16:30:49Z</time>
<desc>lat.=56.056690, lon.=26.376654, Alt.=105.768616m. Speed=19.548000m/h.</desc>
<speed>5.430000</speed>
</trkpt>
<trkpt lat="56.056637" lon="26.376663">
<ele>105.184631</ele>
<time>2010-08-29T16:30:50Z</time>
<desc>lat.=56.056637, lon.=26.376663, Alt.=105.184631m. Speed=20.052000m/h.</desc>
<speed>5.570000</speed>
</trkpt>
<trkpt lat="56.056591" lon="26.376673">
<ele>105.645569</ele>
<time>2010-08-29T16:30:51Z</time>
<desc>lat.=56.056591, lon.=26.376673, Alt.=105.645569m. Speed=19.872000m/h.</desc>
<speed>5.520000</speed>
</trkpt>
<trkpt lat="56.056545" lon="26.376682">
<ele>106.290100</ele>
<time>2010-08-29T16:30:52Z</time>
<desc>lat.=56.056545, lon.=26.376682, Alt.=106.290100m. Speed=20.448000m/h.</desc>
<speed>5.680000</speed>
</trkpt>
<trkpt lat="56.056492" lon="26.376688">
<ele>106.004944</ele>
<time>2010-08-29T16:30:53Z</time>
<desc>lat.=56.056492, lon.=26.376688, Alt.=106.004944m. Speed=20.879999m/h.</desc>
<speed>5.800000</speed>
</trkpt>
<trkpt lat="56.056442" lon="26.376696">
<ele>106.157288</ele>
<time>2010-08-29T16:30:54Z</time>
<desc>lat.=56.056442, lon.=26.376696, Alt.=106.157288m. Speed=20.736000m/h.</desc>
<speed>5.760000</speed>
</trkpt>
<trkpt lat="56.056389" lon="26.376703">
<ele>105.858459</ele>
<time>2010-08-29T16:30:55Z</time>
<desc>lat.=56.056389, lon.=26.376703, Alt.=105.858459m. Speed=21.024000m/h.</desc>
<speed>5.840000</speed>
</trkpt>
<trkpt lat="56.056335" lon="26.376709">
<ele>105.721741</ele>
<time>2010-08-29T16:30:56Z</time>
<desc>lat.=56.056335, lon.=26.376709, Alt.=105.721741m. Speed=21.204000m/h.</desc>
<speed>5.890000</speed>
</trkpt>
<trkpt lat="56.056282" lon="26.376715">
<ele>105.469788</ele>
<time>2010-08-29T16:30:57Z</time>
<desc>lat.=56.056282, lon.=26.376715, Alt.=105.469788m. Speed=21.420000m/h.</desc>
<speed>5.950000</speed>
</trkpt>
<trkpt lat="56.056229" lon="26.376722">
<ele>105.243225</ele>
<time>2010-08-29T16:30:58Z</time>
<desc>lat.=56.056229, lon.=26.376722, Alt.=105.243225m. Speed=21.636000m/h.</desc>
<speed>6.010000</speed>
</trkpt>
<trkpt lat="56.056179" lon="26.376732">
<ele>105.698303</ele>
<time>2010-08-29T16:30:59Z</time>
<desc>lat.=56.056179, lon.=26.376732, Alt.=105.698303m. Speed=21.167999m/h.</desc>
<speed>5.880000</speed>
</trkpt>
<trkpt lat="56.056126" lon="26.376732">
<ele>104.549866</ele>
<time>2010-08-29T16:31:00Z</time>
<desc>lat.=56.056126, lon.=26.376732, Alt.=104.549866m. Speed=20.628000m/h.</desc>
<speed>5.730000</speed>
</trkpt>
<trkpt lat="56.056072" lon="26.376740">
<ele>103.872131</ele>
<time>2010-08-29T16:31:01Z</time>
<desc>lat.=56.056072, lon.=26.376740, Alt.=103.872131m. Speed=20.195999m/h.</desc>
<speed>5.610000</speed>
</trkpt>
<trkpt lat="56.056023" lon="26.376749">
<ele>103.752991</ele>
<time>2010-08-29T16:31:02Z</time>
<desc>lat.=56.056023, lon.=26.376749, Alt.=103.752991m. Speed=19.656000m/h.</desc>
<speed>5.460000</speed>
</trkpt>
<trkpt lat="56.055981" lon="26.376760">
<ele>104.620178</ele>
<time>2010-08-29T16:31:03Z</time>
<desc>lat.=56.055981, lon.=26.376760, Alt.=104.620178m. Speed=19.080000m/h.</desc>
<speed>5.300000</speed>
</trkpt>
<trkpt lat="56.055935" lon="26.376772">
<ele>106.020569</ele>
<time>2010-08-29T16:31:04Z</time>
<desc>lat.=56.055935, lon.=26.376772, Alt.=106.020569m. Speed=18.540001m/h.</desc>
<speed>5.150000</speed>
</trkpt>
<trkpt lat="56.055893" lon="26.376781">
<ele>106.993225</ele>
<time>2010-08-29T16:31:05Z</time>
<desc>lat.=56.055893, lon.=26.376781, Alt.=106.993225m. Speed=18.072001m/h.</desc>
<speed>5.020000</speed>
</trkpt>
<trkpt lat="56.055851" lon="26.376787">
<ele>107.044006</ele>
<time>2010-08-29T16:31:06Z</time>
<desc>lat.=56.055851, lon.=26.376787, Alt.=107.044006m. Speed=17.712000m/h.</desc>
<speed>4.920000</speed>
</trkpt>
<trkpt lat="56.055805" lon="26.376793">
<ele>107.352600</ele>
<time>2010-08-29T16:31:07Z</time>
<desc>lat.=56.055805, lon.=26.376793, Alt.=107.352600m. Speed=16.920000m/h.</desc>
<speed>4.700000</speed>
</trkpt>
<trkpt lat="56.055763" lon="26.376799">
<ele>107.211975</ele>
<time>2010-08-29T16:31:08Z</time>
<desc>lat.=56.055763, lon.=26.376799, Alt.=107.211975m. Speed=16.775999m/h.</desc>
<speed>4.660000</speed>
</trkpt>
<trkpt lat="56.055725" lon="26.376802">
<ele>108.245178</ele>
<time>2010-08-29T16:31:09Z</time>
<desc>lat.=56.055725, lon.=26.376802, Alt.=108.245178m. Speed=16.200001m/h.</desc>
<speed>4.500000</speed>
</trkpt>
<trkpt lat="56.055687" lon="26.376810">
<ele>108.622131</ele>
<time>2010-08-29T16:31:10Z</time>
<desc>lat.=56.055687, lon.=26.376810, Alt.=108.622131m. Speed=15.768000m/h.</desc>
<speed>4.380000</speed>
</trkpt>
<trkpt lat="56.055649" lon="26.376814">
<ele>109.198303</ele>
<time>2010-08-29T16:31:11Z</time>
<desc>lat.=56.055649, lon.=26.376814, Alt.=109.198303m. Speed=15.300000m/h.</desc>
<speed>4.250000</speed>
</trkpt>
<trkpt lat="56.055611" lon="26.376818">
<ele>108.358459</ele>
<time>2010-08-29T16:31:12Z</time>
<desc>lat.=56.055611, lon.=26.376818, Alt.=108.358459m. Speed=14.904000m/h.</desc>
<speed>4.140000</speed>
</trkpt>
<trkpt lat="56.055573" lon="26.376827">
<ele>108.210022</ele>
<time>2010-08-29T16:31:13Z</time>
<desc>lat.=56.055573, lon.=26.376827, Alt.=108.210022m. Speed=14.580000m/h.</desc>
<speed>4.050000</speed>
</trkpt>
<trkpt lat="56.055538" lon="26.376833">
<ele>108.315491</ele>
<time>2010-08-29T16:31:14Z</time>
<desc>lat.=56.055538, lon.=26.376833, Alt.=108.315491m. Speed=14.076000m/h.</desc>
<speed>3.910000</speed>
</trkpt>
<trkpt lat="56.055504" lon="26.376835">
<ele>109.116272</ele>
<time>2010-08-29T16:31:15Z</time>
<desc>lat.=56.055504, lon.=26.376835, Alt.=109.116272m. Speed=13.896000m/h.</desc>
<speed>3.860000</speed>
</trkpt>
<trkpt lat="56.055473" lon="26.376833">
<ele>109.362366</ele>
<time>2010-08-29T16:31:16Z</time>
<desc>lat.=56.055473, lon.=26.376833, Alt.=109.362366m. Speed=13.536000m/h.</desc>
<speed>3.760000</speed>
</trkpt>
<trkpt lat="56.055439" lon="26.376835">
<ele>109.217834</ele>
<time>2010-08-29T16:31:17Z</time>
<desc>lat.=56.055439, lon.=26.376835, Alt.=109.217834m. Speed=13.140000m/h.</desc>
<speed>3.650000</speed>
</trkpt>
<trkpt lat="56.055405" lon="26.376837">
<ele>108.522522</ele>
<time>2010-08-29T16:31:18Z</time>
<desc>lat.=56.055405, lon.=26.376837, Alt.=108.522522m. Speed=12.816000m/h.</desc>
<speed>3.560000</speed>
</trkpt>
<trkpt lat="56.055370" lon="26.376839">
<ele>108.284241</ele>
<time>2010-08-29T16:31:19Z</time>
<desc>lat.=56.055370, lon.=26.376839, Alt.=108.284241m. Speed=12.600000m/h.</desc>
<speed>3.500000</speed>
</trkpt>
<trkpt lat="56.055340" lon="26.376842">
<ele>107.997131</ele>
<time>2010-08-29T16:31:20Z</time>
<desc>lat.=56.055340, lon.=26.376842, Alt.=107.997131m. Speed=12.492000m/h.</desc>
<speed>3.470000</speed>
</trkpt>
<trkpt lat="56.055309" lon="26.376844">
<ele>107.776428</ele>
<time>2010-08-29T16:31:21Z</time>
<desc>lat.=56.055309, lon.=26.376844, Alt.=107.776428m. Speed=12.060000m/h.</desc>
<speed>3.350000</speed>
</trkpt>
<trkpt lat="56.055279" lon="26.376844">
<ele>107.016663</ele>
<time>2010-08-29T16:31:22Z</time>
<desc>lat.=56.055279, lon.=26.376844, Alt.=107.016663m. Speed=11.880000m/h.</desc>
<speed>3.300000</speed>
</trkpt>
<trkpt lat="56.055248" lon="26.376852">
<ele>107.286194</ele>
<time>2010-08-29T16:31:23Z</time>
<desc>lat.=56.055248, lon.=26.376852, Alt.=107.286194m. Speed=11.556000m/h.</desc>
<speed>3.210000</speed>
</trkpt>
<trkpt lat="56.055222" lon="26.376856">
<ele>106.879944</ele>
<time>2010-08-29T16:31:24Z</time>
<desc>lat.=56.055222, lon.=26.376856, Alt.=106.879944m. Speed=11.160000m/h.</desc>
<speed>3.100000</speed>
</trkpt>
<trkpt lat="56.055191" lon="26.376860">
<ele>106.604553</ele>
<time>2010-08-29T16:31:25Z</time>
<desc>lat.=56.055191, lon.=26.376860, Alt.=106.604553m. Speed=10.872000m/h.</desc>
<speed>3.020000</speed>
</trkpt>
<trkpt lat="56.055168" lon="26.376865">
<ele>106.350647</ele>
<time>2010-08-29T16:31:26Z</time>
<desc>lat.=56.055168, lon.=26.376865, Alt.=106.350647m. Speed=10.512000m/h.</desc>
<speed>2.920000</speed>
</trkpt>
<trkpt lat="56.055141" lon="26.376875">
<ele>106.239319</ele>
<time>2010-08-29T16:31:27Z</time>
<desc>lat.=56.055141, lon.=26.376875, Alt.=106.239319m. Speed=10.116000m/h.</desc>
<speed>2.810000</speed>
</trkpt>
<trkpt lat="56.055119" lon="26.376883">
<ele>105.919006</ele>
<time>2010-08-29T16:31:28Z</time>
<desc>lat.=56.055119, lon.=26.376883, Alt.=105.919006m. Speed=9.576000m/h.</desc>
<speed>2.660000</speed>
</trkpt>
<trkpt lat="56.055096" lon="26.376886">
<ele>105.842834</ele>
<time>2010-08-29T16:31:29Z</time>
<desc>lat.=56.055096, lon.=26.376886, Alt.=105.842834m. Speed=9.360000m/h.</desc>
<speed>2.600000</speed>
</trkpt>
<trkpt lat="56.055073" lon="26.376883">
<ele>105.471741</ele>
<time>2010-08-29T16:31:30Z</time>
<desc>lat.=56.055073, lon.=26.376883, Alt.=105.471741m. Speed=9.108000m/h.</desc>
<speed>2.530000</speed>
</trkpt>
<trkpt lat="56.055050" lon="26.376883">
<ele>105.579163</ele>
<time>2010-08-29T16:31:31Z</time>
<desc>lat.=56.055050, lon.=26.376883, Alt.=105.579163m. Speed=8.964000m/h.</desc>
<speed>2.490000</speed>
</trkpt>
<trkpt lat="56.055027" lon="26.376881">
<ele>105.188538</ele>
<time>2010-08-29T16:31:32Z</time>
<desc>lat.=56.055027, lon.=26.376881, Alt.=105.188538m. Speed=8.568000m/h.</desc>
<speed>2.380000</speed>
</trkpt>
<trkpt lat="56.055008" lon="26.376875">
<ele>104.460022</ele>
<time>2010-08-29T16:31:33Z</time>
<desc>lat.=56.055008, lon.=26.376875, Alt.=104.460022m. Speed=7.092000m/h.</desc>
<speed>1.970000</speed>
</trkpt>
<trkpt lat="56.054989" lon="26.376869">
<ele>103.926819</ele>
<time>2010-08-29T16:31:34Z</time>
<desc>lat.=56.054989, lon.=26.376869, Alt.=103.926819m. Speed=7.128000m/h.</desc>
<speed>1.980000</speed>
</trkpt>
<trkpt lat="56.054974" lon="26.376863">
<ele>103.813538</ele>
<time>2010-08-29T16:31:35Z</time>
<desc>lat.=56.054974, lon.=26.376863, Alt.=103.813538m. Speed=6.804000m/h.</desc>
<speed>1.890000</speed>
</trkpt>
<trkpt lat="56.054955" lon="26.376856">
<ele>103.710022</ele>
<time>2010-08-29T16:31:36Z</time>
<desc>lat.=56.054955, lon.=26.376856, Alt.=103.710022m. Speed=6.480000m/h.</desc>
<speed>1.800000</speed>
</trkpt>
<trkpt lat="56.054943" lon="26.376846">
<ele>104.532288</ele>
<time>2010-08-29T16:31:37Z</time>
<desc>lat.=56.054943, lon.=26.376846, Alt.=104.532288m. Speed=6.732000m/h.</desc>
<speed>1.870000</speed>
</trkpt>
<trkpt lat="56.054932" lon="26.376841">
<ele>104.508850</ele>
<time>2010-08-29T16:31:38Z</time>
<desc>lat.=56.054932, lon.=26.376841, Alt.=104.508850m. Speed=2.700000m/h.</desc>
<speed>0.750000</speed>
</trkpt>
<trkpt lat="56.054928" lon="26.376835">
<ele>104.006897</ele>
<time>2010-08-29T16:31:39Z</time>
<desc>lat.=56.054928, lon.=26.376835, Alt.=104.006897m. Speed=1.440000m/h.</desc>
<speed>0.400000</speed>
</trkpt>
<trkpt lat="56.054932" lon="26.376835">
<ele>104.319397</ele>
<time>2010-08-29T16:31:40Z</time>
<desc>lat.=56.054932, lon.=26.376835, Alt.=104.319397m. Speed=0.468000m/h.</desc>
<speed>0.130000</speed>
</trkpt>
<trkpt lat="56.054928" lon="26.376833">
<ele>104.100647</ele>
<time>2010-08-29T16:31:41Z</time>
<desc>lat.=56.054928, lon.=26.376833, Alt.=104.100647m. Speed=0.036000m/h.</desc>
<speed>0.010000</speed>
</trkpt>
<trkpt lat="56.054928" lon="26.376833">
<ele>104.116272</ele>
<time>2010-08-29T16:31:42Z</time>
<desc>lat.=56.054928, lon.=26.376833, Alt.=104.116272m. Speed=0.180000m/h.</desc>
<speed>0.050000</speed>
</trkpt>
<trkpt lat="56.054928" lon="26.376833">
<ele>104.127991</ele>
<time>2010-08-29T16:31:43Z</time>
<desc>lat.=56.054928, lon.=26.376833, Alt.=104.127991m. Speed=0.072000m/h.</desc>
<speed>0.020000</speed>
</trkpt>
<trkpt lat="56.054928" lon="26.376835">
<ele>104.135803</ele>
<time>2010-08-29T16:31:44Z</time>
<desc>lat.=56.054928, lon.=26.376835, Alt.=104.135803m. Speed=0.072000m/h.</desc>
<speed>0.020000</speed>
</trkpt>
<trkpt lat="56.054928" lon="26.376835">
<ele>104.141663</ele>
<time>2010-08-29T16:31:45Z</time>
<desc>lat.=56.054928, lon.=26.376835, Alt.=104.141663m. Speed=0.324000m/h.</desc>
<speed>0.090000</speed>
</trkpt>
<trkpt lat="56.054928" lon="26.376837">
<ele>104.143616</ele>
<time>2010-08-29T16:31:46Z</time>
<desc>lat.=56.054928, lon.=26.376837, Alt.=104.143616m. Speed=0.036000m/h.</desc>
<speed>0.010000</speed>
</trkpt>
<trkpt lat="56.054928" lon="26.376837">
<ele>104.143616</ele>
<time>2010-08-29T16:31:47Z</time>
<desc>lat.=56.054928, lon.=26.376837, Alt.=104.143616m. Speed=0.072000m/h.</desc>
<speed>0.020000</speed>
</trkpt>
<trkpt lat="56.054928" lon="26.376837">
<ele>104.135803</ele>
<time>2010-08-29T16:31:48Z</time>
<desc>lat.=56.054928, lon.=26.376837, Alt.=104.135803m. Speed=0.000000m/h.</desc>
<speed>0.000000</speed>
</trkpt>
<trkpt lat="56.054928" lon="26.376837">
<ele>104.126038</ele>
<time>2010-08-29T16:31:49Z</time>
<desc>lat.=56.054928, lon.=26.376837, Alt.=104.126038m. Speed=0.000000m/h.</desc>
<speed>0.000000</speed>
</trkpt>
<trkpt lat="56.054928" lon="26.376835">
<ele>104.120178</ele>
<time>2010-08-29T16:31:50Z</time>
<desc>lat.=56.054928, lon.=26.376835, Alt.=104.120178m. Speed=0.036000m/h.</desc>
<speed>0.010000</speed>
</trkpt>
<trkpt lat="56.054928" lon="26.376835">
<ele>104.124084</ele>
<time>2010-08-29T16:31:51Z</time>
<desc>lat.=56.054928, lon.=26.376835, Alt.=104.124084m. Speed=0.036000m/h.</desc>
<speed>0.010000</speed>
</trkpt>
<trkpt lat="56.054928" lon="26.376835">
<ele>104.131897</ele>
<time>2010-08-29T16:31:52Z</time>
<desc>lat.=56.054928, lon.=26.376835, Alt.=104.131897m. Speed=0.000000m/h.</desc>
<speed>0.000000</speed>
</trkpt>
<trkpt lat="56.054928" lon="26.376835">
<ele>104.135803</ele>
<time>2010-08-29T16:31:53Z</time>
<desc>lat.=56.054928, lon.=26.376835, Alt.=104.135803m. Speed=0.000000m/h.</desc>
<speed>0.000000</speed>
</trkpt>
<trkpt lat="56.054928" lon="26.376835">
<ele>104.135803</ele>
<time>2010-08-29T16:31:54Z</time>
<desc>lat.=56.054928, lon.=26.376835, Alt.=104.135803m. Speed=0.000000m/h.</desc>
<speed>0.000000</speed>
</trkpt>
<trkpt lat="56.054928" lon="26.376835">
<ele>104.135803</ele>
<time>2010-08-29T16:31:55Z</time>
<desc>lat.=56.054928, lon.=26.376835, Alt.=104.135803m. Speed=0.000000m/h.</desc>
<speed>0.000000</speed>
</trkpt>
<trkpt lat="56.054928" lon="26.376835">
<ele>104.131897</ele>
<time>2010-08-29T16:31:56Z</time>
<desc>lat.=56.054928, lon.=26.376835, Alt.=104.131897m. Speed=0.324000m/h.</desc>
<speed>0.090000</speed>
</trkpt>
<trkpt lat="56.054928" lon="26.376837">
<ele>104.124084</ele>
<time>2010-08-29T16:31:57Z</time>
<desc>lat.=56.054928, lon.=26.376837, Alt.=104.124084m. Speed=0.252000m/h.</desc>
<speed>0.070000</speed>
</trkpt>
<trkpt lat="56.054928" lon="26.376835">
<ele>104.127991</ele>
<time>2010-08-29T16:31:58Z</time>
<desc>lat.=56.054928, lon.=26.376835, Alt.=104.127991m. Speed=0.396000m/h.</desc>
<speed>0.110000</speed>
</trkpt>
<trkpt lat="56.054928" lon="26.376833">
<ele>104.135803</ele>
<time>2010-08-29T16:31:59Z</time>
<desc>lat.=56.054928, lon.=26.376833, Alt.=104.135803m. Speed=0.792000m/h.</desc>
<speed>0.220000</speed>
</trkpt>
<trkpt lat="56.054928" lon="26.376833">
<ele>104.137756</ele>
<time>2010-08-29T16:32:00Z</time>
<desc>lat.=56.054928, lon.=26.376833, Alt.=104.137756m. Speed=0.504000m/h.</desc>
<speed>0.140000</speed>
</trkpt>
<trkpt lat="56.054928" lon="26.376835">
<ele>104.126038</ele>
<time>2010-08-29T16:32:01Z</time>
<desc>lat.=56.054928, lon.=26.376835, Alt.=104.126038m. Speed=0.108000m/h.</desc>
<speed>0.030000</speed>
</trkpt>
<trkpt lat="56.054928" lon="26.376835">
<ele>104.104553</ele>
<time>2010-08-29T16:32:02Z</time>
<desc>lat.=56.054928, lon.=26.376835, Alt.=104.104553m. Speed=0.036000m/h.</desc>
<speed>0.010000</speed>
</trkpt>
<trkpt lat="56.054928" lon="26.376835">
<ele>104.088928</ele>
<time>2010-08-29T16:32:03Z</time>
<desc>lat.=56.054928, lon.=26.376835, Alt.=104.088928m. Speed=0.072000m/h.</desc>
<speed>0.020000</speed>
</trkpt>
<trkpt lat="56.054928" lon="26.376835">
<ele>104.092834</ele>
<time>2010-08-29T16:32:04Z</time>
<desc>lat.=56.054928, lon.=26.376835, Alt.=104.092834m. Speed=0.072000m/h.</desc>
<speed>0.020000</speed>
</trkpt>
<trkpt lat="56.054928" lon="26.376835">
<ele>104.100647</ele>
<time>2010-08-29T16:32:05Z</time>
<desc>lat.=56.054928, lon.=26.376835, Alt.=104.100647m. Speed=0.180000m/h.</desc>
<speed>0.050000</speed>
</trkpt>
<trkpt lat="56.054924" lon="26.376835">
<ele>104.114319</ele>
<time>2010-08-29T16:32:06Z</time>
<desc>lat.=56.054924, lon.=26.376835, Alt.=104.114319m. Speed=0.108000m/h.</desc>
<speed>0.030000</speed>
</trkpt>
<trkpt lat="56.054928" lon="26.376835">
<ele>104.104553</ele>
<time>2010-08-29T16:32:07Z</time>
<desc>lat.=56.054928, lon.=26.376835, Alt.=104.104553m. Speed=0.000000m/h.</desc>
<speed>0.000000</speed>
</trkpt>
<trkpt lat="56.054928" lon="26.376835">
<ele>104.092834</ele>
<time>2010-08-29T16:32:08Z</time>
<desc>lat.=56.054928, lon.=26.376835, Alt.=104.092834m. Speed=0.036000m/h.</desc>
<speed>0.010000</speed>
</trkpt>
<trkpt lat="56.054928" lon="26.376835">
<ele>104.098694</ele>
<time>2010-08-29T16:32:09Z</time>
<desc>lat.=56.054928, lon.=26.376835, Alt.=104.098694m. Speed=0.000000m/h.</desc>
<speed>0.000000</speed>
</trkpt>
<trkpt lat="56.054928" lon="26.376835">
<ele>104.090881</ele>
<time>2010-08-29T16:32:10Z</time>
<desc>lat.=56.054928, lon.=26.376835, Alt.=104.090881m. Speed=0.036000m/h.</desc>
<speed>0.010000</speed>
</trkpt>
<trkpt lat="56.054924" lon="26.376835">
<ele>104.088928</ele>
<time>2010-08-29T16:32:11Z</time>
<desc>lat.=56.054924, lon.=26.376835, Alt.=104.088928m. Speed=0.108000m/h.</desc>
<speed>0.030000</speed>
</trkpt>
<trkpt lat="56.054924" lon="26.376835">
<ele>104.045959</ele>
<time>2010-08-29T16:32:12Z</time>
<desc>lat.=56.054924, lon.=26.376835, Alt.=104.045959m. Speed=0.216000m/h.</desc>
<speed>0.060000</speed>
</trkpt>
<trkpt lat="56.054924" lon="26.376833">
<ele>104.006897</ele>
<time>2010-08-29T16:32:13Z</time>
<desc>lat.=56.054924, lon.=26.376833, Alt.=104.006897m. Speed=0.036000m/h.</desc>
<speed>0.010000</speed>
</trkpt>
<trkpt lat="56.054924" lon="26.376833">
<ele>103.971741</ele>
<time>2010-08-29T16:32:14Z</time>
<desc>lat.=56.054924, lon.=26.376833, Alt.=103.971741m. Speed=0.288000m/h.</desc>
<speed>0.080000</speed>
</trkpt>
<trkpt lat="56.054928" lon="26.376835">
<ele>103.940491</ele>
<time>2010-08-29T16:32:15Z</time>
<desc>lat.=56.054928, lon.=26.376835, Alt.=103.940491m. Speed=0.252000m/h.</desc>
<speed>0.070000</speed>
</trkpt>
<trkpt lat="56.054928" lon="26.376835">
<ele>103.936584</ele>
<time>2010-08-29T16:32:16Z</time>
<desc>lat.=56.054928, lon.=26.376835, Alt.=103.936584m. Speed=0.036000m/h.</desc>
<speed>0.010000</speed>
</trkpt>
<trkpt lat="56.054928" lon="26.376835">
<ele>103.930725</ele>
<time>2010-08-29T16:32:17Z</time>
<desc>lat.=56.054928, lon.=26.376835, Alt.=103.930725m. Speed=0.036000m/h.</desc>
<speed>0.010000</speed>
</trkpt>
<trkpt lat="56.054928" lon="26.376835">
<ele>103.924866</ele>
<time>2010-08-29T16:32:18Z</time>
<desc>lat.=56.054928, lon.=26.376835, Alt.=103.924866m. Speed=0.000000m/h.</desc>
<speed>0.000000</speed>
</trkpt>
<trkpt lat="56.054928" lon="26.376835">
<ele>103.920959</ele>
<time>2010-08-29T16:32:19Z</time>
<desc>lat.=56.054928, lon.=26.376835, Alt.=103.920959m. Speed=0.000000m/h.</desc>
<speed>0.000000</speed>
</trkpt>
<trkpt lat="56.054928" lon="26.376835">
<ele>103.917053</ele>
<time>2010-08-29T16:32:20Z</time>
<desc>lat.=56.054928, lon.=26.376835, Alt.=103.917053m. Speed=0.036000m/h.</desc>
<speed>0.010000</speed>
</trkpt>
<trkpt lat="56.054928" lon="26.376833">
<ele>103.917053</ele>
<time>2010-08-29T16:32:21Z</time>
<desc>lat.=56.054928, lon.=26.376833, Alt.=103.917053m. Speed=0.000000m/h.</desc>
<speed>0.000000</speed>
</trkpt>
<trkpt lat="56.054924" lon="26.376833">
<ele>103.917053</ele>
<time>2010-08-29T16:32:22Z</time>
<desc>lat.=56.054924, lon.=26.376833, Alt.=103.917053m. Speed=0.000000m/h.</desc>
<speed>0.000000</speed>
</trkpt>
<trkpt lat="56.054924" lon="26.376833">
<ele>103.917053</ele>
<time>2010-08-29T16:32:23Z</time>
<desc>lat.=56.054924, lon.=26.376833, Alt.=103.917053m. Speed=0.000000m/h.</desc>
<speed>0.000000</speed>
</trkpt>
<trkpt lat="56.054924" lon="26.376833">
<ele>103.917053</ele>
<time>2010-08-29T16:32:24Z</time>
<desc>lat.=56.054924, lon.=26.376833, Alt.=103.917053m. Speed=0.000000m/h.</desc>
<speed>0.000000</speed>
</trkpt>
<trkpt lat="56.054924" lon="26.376833">
<ele>103.917053</ele>
<time>2010-08-29T16:32:25Z</time>
<desc>lat.=56.054924, lon.=26.376833, Alt.=103.917053m. Speed=0.000000m/h.</desc>
<speed>0.000000</speed>
</trkpt>
<trkpt lat="56.054924" lon="26.376833">
<ele>103.915100</ele>
<time>2010-08-29T16:32:26Z</time>
<desc>lat.=56.054924, lon.=26.376833, Alt.=103.915100m. Speed=0.036000m/h.</desc>
<speed>0.010000</speed>
</trkpt>
<trkpt lat="56.054924" lon="26.376833">
<ele>103.915100</ele>
<time>2010-08-29T16:32:27Z</time>
<desc>lat.=56.054924, lon.=26.376833, Alt.=103.915100m. Speed=0.000000m/h.</desc>
<speed>0.000000</speed>
</trkpt>
<trkpt lat="56.054924" lon="26.376833">
<ele>103.913147</ele>
<time>2010-08-29T16:32:28Z</time>
<desc>lat.=56.054924, lon.=26.376833, Alt.=103.913147m. Speed=0.108000m/h.</desc>
<speed>0.030000</speed>
</trkpt>
<trkpt lat="56.054924" lon="26.376833">
<ele>103.913147</ele>
<time>2010-08-29T16:32:29Z</time>
<desc>lat.=56.054924, lon.=26.376833, Alt.=103.913147m. Speed=0.036000m/h.</desc>
<speed>0.010000</speed>
</trkpt>
<trkpt lat="56.054924" lon="26.376833">
<ele>103.911194</ele>
<time>2010-08-29T16:32:30Z</time>
<desc>lat.=56.054924, lon.=26.376833, Alt.=103.911194m. Speed=0.036000m/h.</desc>
<speed>0.010000</speed>
</trkpt>
<trkpt lat="56.054924" lon="26.376833">
<ele>103.905334</ele>
<time>2010-08-29T16:32:31Z</time>
<desc>lat.=56.054924, lon.=26.376833, Alt.=103.905334m. Speed=0.000000m/h.</desc>
<speed>0.000000</speed>
</trkpt>
<trkpt lat="56.054924" lon="26.376833">
<ele>103.901428</ele>
<time>2010-08-29T16:32:32Z</time>
<desc>lat.=56.054924, lon.=26.376833, Alt.=103.901428m. Speed=0.000000m/h.</desc>
<speed>0.000000</speed>
</trkpt>
<trkpt lat="56.054924" lon="26.376833">
<ele>103.897522</ele>
<time>2010-08-29T16:32:33Z</time>
<desc>lat.=56.054924, lon.=26.376833, Alt.=103.897522m. Speed=0.000000m/h.</desc>
<speed>0.000000</speed>
</trkpt>
<trkpt lat="56.054924" lon="26.376833">
<ele>103.895569</ele>
<time>2010-08-29T16:32:34Z</time>
<desc>lat.=56.054924, lon.=26.376833, Alt.=103.895569m. Speed=0.036000m/h.</desc>
<speed>0.010000</speed>
</trkpt>
<trkpt lat="56.054924" lon="26.376833">
<ele>103.891663</ele>
<time>2010-08-29T16:32:35Z</time>
<desc>lat.=56.054924, lon.=26.376833, Alt.=103.891663m. Speed=0.036000m/h.</desc>
<speed>0.010000</speed>
</trkpt>
<trkpt lat="56.054924" lon="26.376833">
<ele>103.887756</ele>
<time>2010-08-29T16:32:36Z</time>
<desc>lat.=56.054924, lon.=26.376833, Alt.=103.887756m. Speed=0.000000m/h.</desc>
<speed>0.000000</speed>
</trkpt>
<trkpt lat="56.054924" lon="26.376833">
<ele>103.885803</ele>
<time>2010-08-29T16:32:37Z</time>
<desc>lat.=56.054924, lon.=26.376833, Alt.=103.885803m. Speed=0.000000m/h.</desc>
<speed>0.000000</speed>
</trkpt>
<trkpt lat="56.054924" lon="26.376833">
<ele>103.885803</ele>
<time>2010-08-29T16:32:38Z</time>
<desc>lat.=56.054924, lon.=26.376833, Alt.=103.885803m. Speed=0.072000m/h.</desc>
<speed>0.020000</speed>
</trkpt>
<trkpt lat="56.054924" lon="26.376833">
<ele>103.885803</ele>
<time>2010-08-29T16:32:39Z</time>
<desc>lat.=56.054924, lon.=26.376833, Alt.=103.885803m. Speed=0.000000m/h.</desc>
<speed>0.000000</speed>
</trkpt>
<trkpt lat="56.054924" lon="26.376833">
<ele>103.885803</ele>
<time>2010-08-29T16:32:40Z</time>
<desc>lat.=56.054924, lon.=26.376833, Alt.=103.885803m. Speed=0.036000m/h.</desc>
<speed>0.010000</speed>
</trkpt>
<trkpt lat="56.054924" lon="26.376833">
<ele>103.885803</ele>
<time>2010-08-29T16:32:41Z</time>
<desc>lat.=56.054924, lon.=26.376833, Alt.=103.885803m. Speed=0.000000m/h.</desc>
<speed>0.000000</speed>
</trkpt>
<trkpt lat="56.054924" lon="26.376833">
<ele>103.885803</ele>
<time>2010-08-29T16:32:42Z</time>
<desc>lat.=56.054924, lon.=26.376833, Alt.=103.885803m. Speed=0.036000m/h.</desc>
<speed>0.010000</speed>
</trkpt>
<trkpt lat="56.054924" lon="26.376833">
<ele>103.881897</ele>
<time>2010-08-29T16:32:43Z</time>
<desc>lat.=56.054924, lon.=26.376833, Alt.=103.881897m. Speed=0.036000m/h.</desc>
<speed>0.010000</speed>
</trkpt>
<trkpt lat="56.054924" lon="26.376833">
<ele>103.879944</ele>
<time>2010-08-29T16:32:44Z</time>
<desc>lat.=56.054924, lon.=26.376833, Alt.=103.879944m. Speed=0.000000m/h.</desc>
<speed>0.000000</speed>
</trkpt>
<trkpt lat="56.054924" lon="26.376833">
<ele>103.879944</ele>
<time>2010-08-29T16:32:45Z</time>
<desc>lat.=56.054924, lon.=26.376833, Alt.=103.879944m. Speed=0.000000m/h.</desc>
<speed>0.000000</speed>
</trkpt>
<trkpt lat="56.054924" lon="26.376833">
<ele>103.879944</ele>
<time>2010-08-29T16:32:46Z</time>
<desc>lat.=56.054924, lon.=26.376833, Alt.=103.879944m. Speed=0.000000m/h.</desc>
<speed>0.000000</speed>
</trkpt>
<trkpt lat="56.054924" lon="26.376833">
<ele>103.881897</ele>
<time>2010-08-29T16:32:47Z</time>
<desc>lat.=56.054924, lon.=26.376833, Alt.=103.881897m. Speed=0.036000m/h.</desc>
<speed>0.010000</speed>
</trkpt>
<trkpt lat="56.054924" lon="26.376833">
<ele>103.879944</ele>
<time>2010-08-29T16:32:48Z</time>
<desc>lat.=56.054924, lon.=26.376833, Alt.=103.879944m. Speed=0.036000m/h.</desc>
<speed>0.010000</speed>
</trkpt>
<trkpt lat="56.054924" lon="26.376831">
<ele>103.876038</ele>
<time>2010-08-29T16:32:49Z</time>
<desc>lat.=56.054924, lon.=26.376831, Alt.=103.876038m. Speed=0.036000m/h.</desc>
<speed>0.010000</speed>
</trkpt>
<trkpt lat="56.054924" lon="26.376831">
<ele>103.872131</ele>
<time>2010-08-29T16:32:50Z</time>
<desc>lat.=56.054924, lon.=26.376831, Alt.=103.872131m. Speed=0.036000m/h.</desc>
<speed>0.010000</speed>
</trkpt>
<trkpt lat="56.054924" lon="26.376831">
<ele>103.866272</ele>
<time>2010-08-29T16:32:51Z</time>
<desc>lat.=56.054924, lon.=26.376831, Alt.=103.866272m. Speed=0.000000m/h.</desc>
<speed>0.000000</speed>
</trkpt>
<trkpt lat="56.054924" lon="26.376831">
<ele>103.862366</ele>
<time>2010-08-29T16:32:52Z</time>
<desc>lat.=56.054924, lon.=26.376831, Alt.=103.862366m. Speed=0.000000m/h.</desc>
<speed>0.000000</speed>
</trkpt>
<trkpt lat="56.054924" lon="26.376831">
<ele>103.860413</ele>
<time>2010-08-29T16:32:53Z</time>
<desc>lat.=56.054924, lon.=26.376831, Alt.=103.860413m. Speed=0.000000m/h.</desc>
<speed>0.000000</speed>
</trkpt>
<trkpt lat="56.054924" lon="26.376831">
<ele>103.856506</ele>
<time>2010-08-29T16:32:54Z</time>
<desc>lat.=56.054924, lon.=26.376831, Alt.=103.856506m. Speed=0.036000m/h.</desc>
<speed>0.010000</speed>
</trkpt>
<trkpt lat="56.054924" lon="26.376831">
<ele>103.850647</ele>
<time>2010-08-29T16:32:55Z</time>
<desc>lat.=56.054924, lon.=26.376831, Alt.=103.850647m. Speed=0.036000m/h.</desc>
<speed>0.010000</speed>
</trkpt>
<trkpt lat="56.054924" lon="26.376831">
<ele>103.844788</ele>
<time>2010-08-29T16:32:56Z</time>
<desc>lat.=56.054924, lon.=26.376831, Alt.=103.844788m. Speed=0.252000m/h.</desc>
<speed>0.070000</speed>
</trkpt>
<trkpt lat="56.054924" lon="26.376831">
<ele>103.842834</ele>
<time>2010-08-29T16:32:57Z</time>
<desc>lat.=56.054924, lon.=26.376831, Alt.=103.842834m. Speed=0.072000m/h.</desc>
<speed>0.020000</speed>
</trkpt>
<trkpt lat="56.054924" lon="26.376831">
<ele>103.840881</ele>
<time>2010-08-29T16:32:58Z</time>
<desc>lat.=56.054924, lon.=26.376831, Alt.=103.840881m. Speed=0.144000m/h.</desc>
<speed>0.040000</speed>
</trkpt>
<trkpt lat="56.054924" lon="26.376833">
<ele>103.836975</ele>
<time>2010-08-29T16:32:59Z</time>
<desc>lat.=56.054924, lon.=26.376833, Alt.=103.836975m. Speed=1.620000m/h.</desc>
<speed>0.450000</speed>
</trkpt>
<trkpt lat="56.054924" lon="26.376839">
<ele>103.840881</ele>
<time>2010-08-29T16:33:00Z</time>
<desc>lat.=56.054924, lon.=26.376839, Alt.=103.840881m. Speed=6.984000m/h.</desc>
<speed>1.940000</speed>
</trkpt>
<trkpt lat="56.054905" lon="26.376865">
<ele>103.897522</ele>
<time>2010-08-29T16:33:01Z</time>
<desc>lat.=56.054905, lon.=26.376865, Alt.=103.897522m. Speed=10.224000m/h.</desc>
<speed>2.840000</speed>
</trkpt>
<trkpt lat="56.054878" lon="26.376881">
<ele>103.731506</ele>
<time>2010-08-29T16:33:02Z</time>
<desc>lat.=56.054878, lon.=26.376881, Alt.=103.731506m. Speed=9.540000m/h.</desc>
<speed>2.650000</speed>
</trkpt>
<trkpt lat="56.054848" lon="26.376896">
<ele>103.663147</ele>
<time>2010-08-29T16:33:03Z</time>
<desc>lat.=56.054848, lon.=26.376896, Alt.=103.663147m. Speed=12.132000m/h.</desc>
<speed>3.370000</speed>
</trkpt>
<trkpt lat="56.054813" lon="26.376909">
<ele>103.577209</ele>
<time>2010-08-29T16:33:04Z</time>
<desc>lat.=56.054813, lon.=26.376909, Alt.=103.577209m. Speed=14.256000m/h.</desc>
<speed>3.960000</speed>
</trkpt>
<trkpt lat="56.054775" lon="26.376925">
<ele>103.264709</ele>
<time>2010-08-29T16:33:05Z</time>
<desc>lat.=56.054775, lon.=26.376925, Alt.=103.264709m. Speed=14.724000m/h.</desc>
<speed>4.090000</speed>
</trkpt>
<trkpt lat="56.054733" lon="26.376934">
<ele>103.403381</ele>
<time>2010-08-29T16:33:06Z</time>
<desc>lat.=56.054733, lon.=26.376934, Alt.=103.403381m. Speed=15.192000m/h.</desc>
<speed>4.220000</speed>
</trkpt>
<trkpt lat="56.054691" lon="26.376936">
<ele>103.657288</ele>
<time>2010-08-29T16:33:07Z</time>
<desc>lat.=56.054691, lon.=26.376936, Alt.=103.657288m. Speed=16.452000m/h.</desc>
<speed>4.570000</speed>
</trkpt>
<trkpt lat="56.054646" lon="26.376938">
<ele>103.770569</ele>
<time>2010-08-29T16:33:08Z</time>
<desc>lat.=56.054646, lon.=26.376938, Alt.=103.770569m. Speed=17.316000m/h.</desc>
<speed>4.810000</speed>
</trkpt>
<trkpt lat="56.054604" lon="26.376940">
<ele>104.004944</ele>
<time>2010-08-29T16:33:09Z</time>
<desc>lat.=56.054604, lon.=26.376940, Alt.=104.004944m. Speed=18.000000m/h.</desc>
<speed>5.000000</speed>
</trkpt>
<trkpt lat="56.054550" lon="26.376942">
<ele>103.108459</ele>
<time>2010-08-29T16:33:10Z</time>
<desc>lat.=56.054550, lon.=26.376942, Alt.=103.108459m. Speed=18.504000m/h.</desc>
<speed>5.140000</speed>
</trkpt>
<trkpt lat="56.054501" lon="26.376947">
<ele>103.221741</ele>
<time>2010-08-29T16:33:11Z</time>
<desc>lat.=56.054501, lon.=26.376947, Alt.=103.221741m. Speed=19.080000m/h.</desc>
<speed>5.300000</speed>
</trkpt>
<trkpt lat="56.054451" lon="26.376951">
<ele>103.321350</ele>
<time>2010-08-29T16:33:12Z</time>
<desc>lat.=56.054451, lon.=26.376951, Alt.=103.321350m. Speed=19.511999m/h.</desc>
<speed>5.420000</speed>
</trkpt>
<trkpt lat="56.054401" lon="26.376957">
<ele>103.288147</ele>
<time>2010-08-29T16:33:13Z</time>
<desc>lat.=56.054401, lon.=26.376957, Alt.=103.288147m. Speed=19.908001m/h.</desc>
<speed>5.530000</speed>
</trkpt>
<trkpt lat="56.054348" lon="26.376963">
<ele>103.864319</ele>
<time>2010-08-29T16:33:14Z</time>
<desc>lat.=56.054348, lon.=26.376963, Alt.=103.864319m. Speed=20.412001m/h.</desc>
<speed>5.670000</speed>
</trkpt>
<trkpt lat="56.054295" lon="26.376970">
<ele>103.538147</ele>
<time>2010-08-29T16:33:15Z</time>
<desc>lat.=56.054295, lon.=26.376970, Alt.=103.538147m. Speed=20.412001m/h.</desc>
<speed>5.670000</speed>
</trkpt>
<trkpt lat="56.054245" lon="26.376980">
<ele>103.971741</ele>
<time>2010-08-29T16:33:16Z</time>
<desc>lat.=56.054245, lon.=26.376980, Alt.=103.971741m. Speed=20.736000m/h.</desc>
<speed>5.760000</speed>
</trkpt>
<trkpt lat="56.054192" lon="26.376987">
<ele>104.471741</ele>
<time>2010-08-29T16:33:17Z</time>
<desc>lat.=56.054192, lon.=26.376987, Alt.=104.471741m. Speed=20.124001m/h.</desc>
<speed>5.590000</speed>
</trkpt>
<trkpt lat="56.054142" lon="26.376989">
<ele>105.381897</ele>
<time>2010-08-29T16:33:18Z</time>
<desc>lat.=56.054142, lon.=26.376989, Alt.=105.381897m. Speed=19.620001m/h.</desc>
<speed>5.450000</speed>
</trkpt>
<trkpt lat="56.054096" lon="26.376997">
<ele>105.920959</ele>
<time>2010-08-29T16:33:19Z</time>
<desc>lat.=56.054096, lon.=26.376997, Alt.=105.920959m. Speed=19.007999m/h.</desc>
<speed>5.280000</speed>
</trkpt>
<trkpt lat="56.054047" lon="26.377003">
<ele>105.112366</ele>
<time>2010-08-29T16:33:20Z</time>
<desc>lat.=56.054047, lon.=26.377003, Alt.=105.112366m. Speed=18.719999m/h.</desc>
<speed>5.200000</speed>
</trkpt>
<trkpt lat="56.054001" lon="26.377014">
<ele>104.752991</ele>
<time>2010-08-29T16:33:21Z</time>
<desc>lat.=56.054001, lon.=26.377014, Alt.=104.752991m. Speed=18.216000m/h.</desc>
<speed>5.060000</speed>
</trkpt>
<trkpt lat="56.053955" lon="26.377022">
<ele>105.004944</ele>
<time>2010-08-29T16:33:22Z</time>
<desc>lat.=56.053955, lon.=26.377022, Alt.=105.004944m. Speed=18.180000m/h.</desc>
<speed>5.050000</speed>
</trkpt>
<trkpt lat="56.053909" lon="26.377028">
<ele>105.739319</ele>
<time>2010-08-29T16:33:23Z</time>
<desc>lat.=56.053909, lon.=26.377028, Alt.=105.739319m. Speed=19.224001m/h.</desc>
<speed>5.340000</speed>
</trkpt>
<trkpt lat="56.053860" lon="26.377039">
<ele>105.604553</ele>
<time>2010-08-29T16:33:24Z</time>
<desc>lat.=56.053860, lon.=26.377039, Alt.=105.604553m. Speed=20.052000m/h.</desc>
<speed>5.570000</speed>
</trkpt>
<trkpt lat="56.053806" lon="26.377048">
<ele>105.686584</ele>
<time>2010-08-29T16:33:25Z</time>
<desc>lat.=56.053806, lon.=26.377048, Alt.=105.686584m. Speed=20.628000m/h.</desc>
<speed>5.730000</speed>
</trkpt>
<trkpt lat="56.053753" lon="26.377056">
<ele>105.854553</ele>
<time>2010-08-29T16:33:26Z</time>
<desc>lat.=56.053753, lon.=26.377056, Alt.=105.854553m. Speed=21.059999m/h.</desc>
<speed>5.850000</speed>
</trkpt>
<trkpt lat="56.053699" lon="26.377066">
<ele>105.618225</ele>
<time>2010-08-29T16:33:27Z</time>
<desc>lat.=56.053699, lon.=26.377066, Alt.=105.618225m. Speed=21.275999m/h.</desc>
<speed>5.910000</speed>
</trkpt>
<trkpt lat="56.053642" lon="26.377069">
<ele>105.819397</ele>
<time>2010-08-29T16:33:28Z</time>
<desc>lat.=56.053642, lon.=26.377069, Alt.=105.819397m. Speed=22.104000m/h.</desc>
<speed>6.140000</speed>
</trkpt>
<trkpt lat="56.053585" lon="26.377075">
<ele>106.299866</ele>
<time>2010-08-29T16:33:29Z</time>
<desc>lat.=56.053585, lon.=26.377075, Alt.=106.299866m. Speed=22.427999m/h.</desc>
<speed>6.230000</speed>
</trkpt>
<trkpt lat="56.053528" lon="26.377083">
<ele>106.792053</ele>
<time>2010-08-29T16:33:30Z</time>
<desc>lat.=56.053528, lon.=26.377083, Alt.=106.792053m. Speed=22.968000m/h.</desc>
<speed>6.380000</speed>
</trkpt>
<trkpt lat="56.053471" lon="26.377092">
<ele>106.919006</ele>
<time>2010-08-29T16:33:31Z</time>
<desc>lat.=56.053471, lon.=26.377092, Alt.=106.919006m. Speed=22.931999m/h.</desc>
<speed>6.370000</speed>
</trkpt>
<trkpt lat="56.053413" lon="26.377100">
<ele>107.473694</ele>
<time>2010-08-29T16:33:32Z</time>
<desc>lat.=56.053413, lon.=26.377100, Alt.=107.473694m. Speed=22.212000m/h.</desc>
<speed>6.170000</speed>
</trkpt>
<trkpt lat="56.053360" lon="26.377113">
<ele>107.987366</ele>
<time>2010-08-29T16:33:33Z</time>
<desc>lat.=56.053360, lon.=26.377113, Alt.=107.987366m. Speed=21.167999m/h.</desc>
<speed>5.880000</speed>
</trkpt>
<trkpt lat="56.053307" lon="26.377123">
<ele>108.428772</ele>
<time>2010-08-29T16:33:34Z</time>
<desc>lat.=56.053307, lon.=26.377123, Alt.=108.428772m. Speed=20.591999m/h.</desc>
<speed>5.720000</speed>
</trkpt>
<trkpt lat="56.053253" lon="26.377134">
<ele>108.479553</ele>
<time>2010-08-29T16:33:35Z</time>
<desc>lat.=56.053253, lon.=26.377134, Alt.=108.479553m. Speed=20.268000m/h.</desc>
<speed>5.630000</speed>
</trkpt>
<trkpt lat="56.053204" lon="26.377148">
<ele>107.930725</ele>
<time>2010-08-29T16:33:36Z</time>
<desc>lat.=56.053204, lon.=26.377148, Alt.=107.930725m. Speed=19.944000m/h.</desc>
<speed>5.540000</speed>
</trkpt>
<trkpt lat="56.053158" lon="26.377157">
<ele>107.860413</ele>
<time>2010-08-29T16:33:37Z</time>
<desc>lat.=56.053158, lon.=26.377157, Alt.=107.860413m. Speed=19.728001m/h.</desc>
<speed>5.480000</speed>
</trkpt>
<trkpt lat="56.053104" lon="26.377159">
<ele>106.788147</ele>
<time>2010-08-29T16:33:38Z</time>
<desc>lat.=56.053104, lon.=26.377159, Alt.=106.788147m. Speed=19.403999m/h.</desc>
<speed>5.390000</speed>
</trkpt>
<trkpt lat="56.053055" lon="26.377165">
<ele>105.997131</ele>
<time>2010-08-29T16:33:39Z</time>
<desc>lat.=56.053055, lon.=26.377165, Alt.=105.997131m. Speed=18.756001m/h.</desc>
<speed>5.210000</speed>
</trkpt>
<trkpt lat="56.053009" lon="26.377169">
<ele>104.389709</ele>
<time>2010-08-29T16:33:40Z</time>
<desc>lat.=56.053009, lon.=26.377169, Alt.=104.389709m. Speed=18.143999m/h.</desc>
<speed>5.040000</speed>
</trkpt>
<trkpt lat="56.052963" lon="26.377172">
<ele>104.014709</ele>
<time>2010-08-29T16:33:41Z</time>
<desc>lat.=56.052963, lon.=26.377172, Alt.=104.014709m. Speed=17.892000m/h.</desc>
<speed>4.970000</speed>
</trkpt>
<trkpt lat="56.052917" lon="26.377172">
<ele>104.071350</ele>
<time>2010-08-29T16:33:42Z</time>
<desc>lat.=56.052917, lon.=26.377172, Alt.=104.071350m. Speed=17.604000m/h.</desc>
<speed>4.890000</speed>
</trkpt>
<trkpt lat="56.052872" lon="26.377169">
<ele>103.850647</ele>
<time>2010-08-29T16:33:43Z</time>
<desc>lat.=56.052872, lon.=26.377169, Alt.=103.850647m. Speed=18.143999m/h.</desc>
<speed>5.040000</speed>
</trkpt>
<trkpt lat="56.052826" lon="26.377176">
<ele>103.766663</ele>
<time>2010-08-29T16:33:44Z</time>
<desc>lat.=56.052826, lon.=26.377176, Alt.=103.766663m. Speed=19.007999m/h.</desc>
<speed>5.280000</speed>
</trkpt>
<trkpt lat="56.052776" lon="26.377184">
<ele>103.629944</ele>
<time>2010-08-29T16:33:45Z</time>
<desc>lat.=56.052776, lon.=26.377184, Alt.=103.629944m. Speed=20.195999m/h.</desc>
<speed>5.610000</speed>
</trkpt>
<trkpt lat="56.052727" lon="26.377188">
<ele>103.905334</ele>
<time>2010-08-29T16:33:46Z</time>
<desc>lat.=56.052727, lon.=26.377188, Alt.=103.905334m. Speed=20.844000m/h.</desc>
<speed>5.790000</speed>
</trkpt>
<trkpt lat="56.052677" lon="26.377192">
<ele>104.217834</ele>
<time>2010-08-29T16:33:47Z</time>
<desc>lat.=56.052677, lon.=26.377192, Alt.=104.217834m. Speed=21.384001m/h.</desc>
<speed>5.940000</speed>
</trkpt>
<trkpt lat="56.052624" lon="26.377195">
<ele>104.280334</ele>
<time>2010-08-29T16:33:48Z</time>
<desc>lat.=56.052624, lon.=26.377195, Alt.=104.280334m. Speed=21.600000m/h.</desc>
<speed>6.000000</speed>
</trkpt>
<trkpt lat="56.052567" lon="26.377203">
<ele>103.952209</ele>
<time>2010-08-29T16:33:49Z</time>
<desc>lat.=56.052567, lon.=26.377203, Alt.=103.952209m. Speed=22.392000m/h.</desc>
<speed>6.220000</speed>
</trkpt>
<trkpt lat="56.052509" lon="26.377214">
<ele>103.749084</ele>
<time>2010-08-29T16:33:50Z</time>
<desc>lat.=56.052509, lon.=26.377214, Alt.=103.749084m. Speed=22.931999m/h.</desc>
<speed>6.370000</speed>
</trkpt>
<trkpt lat="56.052452" lon="26.377224">
<ele>103.879944</ele>
<time>2010-08-29T16:33:51Z</time>
<desc>lat.=56.052452, lon.=26.377224, Alt.=103.879944m. Speed=23.652000m/h.</desc>
<speed>6.570000</speed>
</trkpt>
<trkpt lat="56.052395" lon="26.377234">
<ele>103.848694</ele>
<time>2010-08-29T16:33:52Z</time>
<desc>lat.=56.052395, lon.=26.377234, Alt.=103.848694m. Speed=23.832001m/h.</desc>
<speed>6.620000</speed>
</trkpt>
<trkpt lat="56.052338" lon="26.377251">
<ele>104.047913</ele>
<time>2010-08-29T16:33:53Z</time>
<desc>lat.=56.052338, lon.=26.377251, Alt.=104.047913m. Speed=23.004000m/h.</desc>
<speed>6.390000</speed>
</trkpt>
<trkpt lat="56.052280" lon="26.377266">
<ele>104.409241</ele>
<time>2010-08-29T16:33:54Z</time>
<desc>lat.=56.052280, lon.=26.377266, Alt.=104.409241m. Speed=22.643999m/h.</desc>
<speed>6.290000</speed>
</trkpt>
<trkpt lat="56.052223" lon="26.377277">
<ele>104.655334</ele>
<time>2010-08-29T16:33:55Z</time>
<desc>lat.=56.052223, lon.=26.377277, Alt.=104.655334m. Speed=21.888000m/h.</desc>
<speed>6.080000</speed>
</trkpt>
<trkpt lat="56.052170" lon="26.377285">
<ele>104.768616</ele>
<time>2010-08-29T16:33:56Z</time>
<desc>lat.=56.052170, lon.=26.377285, Alt.=104.768616m. Speed=21.959999m/h.</desc>
<speed>6.100000</speed>
</trkpt>
<trkpt lat="56.052113" lon="26.377285">
<ele>104.401428</ele>
<time>2010-08-29T16:33:57Z</time>
<desc>lat.=56.052113, lon.=26.377285, Alt.=104.401428m. Speed=22.680000m/h.</desc>
<speed>6.300000</speed>
</trkpt>
<trkpt lat="56.052052" lon="26.377291">
<ele>104.336975</ele>
<time>2010-08-29T16:33:58Z</time>
<desc>lat.=56.052052, lon.=26.377291, Alt.=104.336975m. Speed=22.788000m/h.</desc>
<speed>6.330000</speed>
</trkpt>
<trkpt lat="56.051994" lon="26.377298">
<ele>104.270569</ele>
<time>2010-08-29T16:33:59Z</time>
<desc>lat.=56.051994, lon.=26.377298, Alt.=104.270569m. Speed=23.544001m/h.</desc>
<speed>6.540000</speed>
</trkpt>
<trkpt lat="56.051933" lon="26.377306">
<ele>104.288147</ele>
<time>2010-08-29T16:34:00Z</time>
<desc>lat.=56.051933, lon.=26.377306, Alt.=104.288147m. Speed=24.444000m/h.</desc>
<speed>6.790000</speed>
</trkpt>
<trkpt lat="56.051868" lon="26.377314">
<ele>104.309631</ele>
<time>2010-08-29T16:34:01Z</time>
<desc>lat.=56.051868, lon.=26.377314, Alt.=104.309631m. Speed=24.660000m/h.</desc>
<speed>6.850000</speed>
</trkpt>
<trkpt lat="56.051807" lon="26.377319">
<ele>104.319397</ele>
<time>2010-08-29T16:34:02Z</time>
<desc>lat.=56.051807, lon.=26.377319, Alt.=104.319397m. Speed=25.236000m/h.</desc>
<speed>7.010000</speed>
</trkpt>
<trkpt lat="56.051743" lon="26.377327">
<ele>104.473694</ele>
<time>2010-08-29T16:34:03Z</time>
<desc>lat.=56.051743, lon.=26.377327, Alt.=104.473694m. Speed=25.596001m/h.</desc>
<speed>7.110000</speed>
</trkpt>
<trkpt lat="56.051682" lon="26.377337">
<ele>104.463928</ele>
<time>2010-08-29T16:34:04Z</time>
<desc>lat.=56.051682, lon.=26.377337, Alt.=104.463928m. Speed=24.804001m/h.</desc>
<speed>6.890000</speed>
</trkpt>
<trkpt lat="56.051620" lon="26.377344">
<ele>104.368225</ele>
<time>2010-08-29T16:34:05Z</time>
<desc>lat.=56.051620, lon.=26.377344, Alt.=104.368225m. Speed=24.084000m/h.</desc>
<speed>6.690000</speed>
</trkpt>
<trkpt lat="56.051563" lon="26.377352">
<ele>104.403381</ele>
<time>2010-08-29T16:34:06Z</time>
<desc>lat.=56.051563, lon.=26.377352, Alt.=104.403381m. Speed=23.327999m/h.</desc>
<speed>6.480000</speed>
</trkpt>
<trkpt lat="56.051502" lon="26.377365">
<ele>104.395569</ele>
<time>2010-08-29T16:34:07Z</time>
<desc>lat.=56.051502, lon.=26.377365, Alt.=104.395569m. Speed=22.788000m/h.</desc>
<speed>6.330000</speed>
</trkpt>
<trkpt lat="56.051445" lon="26.377367">
<ele>104.333069</ele>
<time>2010-08-29T16:34:08Z</time>
<desc>lat.=56.051445, lon.=26.377367, Alt.=104.333069m. Speed=21.924000m/h.</desc>
<speed>6.090000</speed>
</trkpt>
<trkpt lat="56.051392" lon="26.377367">
<ele>104.338928</ele>
<time>2010-08-29T16:34:09Z</time>
<desc>lat.=56.051392, lon.=26.377367, Alt.=104.338928m. Speed=21.743999m/h.</desc>
<speed>6.040000</speed>
</trkpt>
<trkpt lat="56.051338" lon="26.377380">
<ele>104.188538</ele>
<time>2010-08-29T16:34:10Z</time>
<desc>lat.=56.051338, lon.=26.377380, Alt.=104.188538m. Speed=23.184000m/h.</desc>
<speed>6.440000</speed>
</trkpt>
<trkpt lat="56.051281" lon="26.377390">
<ele>103.924866</ele>
<time>2010-08-29T16:34:11Z</time>
<desc>lat.=56.051281, lon.=26.377390, Alt.=103.924866m. Speed=23.544001m/h.</desc>
<speed>6.540000</speed>
</trkpt>
<trkpt lat="56.051220" lon="26.377398">
<ele>103.997131</ele>
<time>2010-08-29T16:34:12Z</time>
<desc>lat.=56.051220, lon.=26.377398, Alt.=103.997131m. Speed=23.760000m/h.</desc>
<speed>6.600000</speed>
</trkpt>
<trkpt lat="56.051159" lon="26.377405">
<ele>103.977600</ele>
<time>2010-08-29T16:34:13Z</time>
<desc>lat.=56.051159, lon.=26.377405, Alt.=103.977600m. Speed=24.264000m/h.</desc>
<speed>6.740000</speed>
</trkpt>
<trkpt lat="56.051098" lon="26.377415">
<ele>103.616272</ele>
<time>2010-08-29T16:34:14Z</time>
<desc>lat.=56.051098, lon.=26.377415, Alt.=103.616272m. Speed=25.020000m/h.</desc>
<speed>6.950000</speed>
</trkpt>
<trkpt lat="56.051033" lon="26.377424">
<ele>103.585022</ele>
<time>2010-08-29T16:34:15Z</time>
<desc>lat.=56.051033, lon.=26.377424, Alt.=103.585022m. Speed=24.660000m/h.</desc>
<speed>6.850000</speed>
</trkpt>
<trkpt lat="56.050972" lon="26.377436">
<ele>103.436584</ele>
<time>2010-08-29T16:34:16Z</time>
<desc>lat.=56.050972, lon.=26.377436, Alt.=103.436584m. Speed=25.091999m/h.</desc>
<speed>6.970000</speed>
</trkpt>
<trkpt lat="56.050907" lon="26.377445">
<ele>102.993225</ele>
<time>2010-08-29T16:34:17Z</time>
<desc>lat.=56.050907, lon.=26.377445, Alt.=102.993225m. Speed=24.840000m/h.</desc>
<speed>6.900000</speed>
</trkpt>
<trkpt lat="56.050846" lon="26.377455">
<ele>102.573303</ele>
<time>2010-08-29T16:34:18Z</time>
<desc>lat.=56.050846, lon.=26.377455, Alt.=102.573303m. Speed=24.299999m/h.</desc>
<speed>6.750000</speed>
</trkpt>
<trkpt lat="56.050785" lon="26.377466">
<ele>102.393616</ele>
<time>2010-08-29T16:34:19Z</time>
<desc>lat.=56.050785, lon.=26.377466, Alt.=102.393616m. Speed=23.544001m/h.</desc>
<speed>6.540000</speed>
</trkpt>
<trkpt lat="56.050724" lon="26.377481">
<ele>102.305725</ele>
<time>2010-08-29T16:34:20Z</time>
<desc>lat.=56.050724, lon.=26.377481, Alt.=102.305725m. Speed=22.968000m/h.</desc>
<speed>6.380000</speed>
</trkpt>
<trkpt lat="56.050671" lon="26.377499">
<ele>102.129944</ele>
<time>2010-08-29T16:34:21Z</time>
<desc>lat.=56.050671, lon.=26.377499, Alt.=102.129944m. Speed=22.427999m/h.</desc>
<speed>6.230000</speed>
</trkpt>
<trkpt lat="56.050613" lon="26.377514">
<ele>102.284241</ele>
<time>2010-08-29T16:34:22Z</time>
<desc>lat.=56.050613, lon.=26.377514, Alt.=102.284241m. Speed=21.636000m/h.</desc>
<speed>6.010000</speed>
</trkpt>
<trkpt lat="56.050560" lon="26.377533">
<ele>102.272522</ele>
<time>2010-08-29T16:34:23Z</time>
<desc>lat.=56.050560, lon.=26.377533, Alt.=102.272522m. Speed=22.572001m/h.</desc>
<speed>6.270000</speed>
</trkpt>
<trkpt lat="56.050503" lon="26.377548">
<ele>102.452209</ele>
<time>2010-08-29T16:34:24Z</time>
<desc>lat.=56.050503, lon.=26.377548, Alt.=102.452209m. Speed=22.896000m/h.</desc>
<speed>6.360000</speed>
</trkpt>
<trkpt lat="56.050442" lon="26.377548">
<ele>102.368225</ele>
<time>2010-08-29T16:34:25Z</time>
<desc>lat.=56.050442, lon.=26.377548, Alt.=102.368225m. Speed=23.292000m/h.</desc>
<speed>6.470000</speed>
</trkpt>
<trkpt lat="56.050385" lon="26.377550">
<ele>102.211975</ele>
<time>2010-08-29T16:34:26Z</time>
<desc>lat.=56.050385, lon.=26.377550, Alt.=102.211975m. Speed=23.903999m/h.</desc>
<speed>6.640000</speed>
</trkpt>
<trkpt lat="56.050320" lon="26.377550">
<ele>101.981506</ele>
<time>2010-08-29T16:34:27Z</time>
<desc>lat.=56.050320, lon.=26.377550, Alt.=101.981506m. Speed=24.660000m/h.</desc>
<speed>6.850000</speed>
</trkpt>
<trkpt lat="56.050259" lon="26.377554">
<ele>101.713928</ele>
<time>2010-08-29T16:34:28Z</time>
<desc>lat.=56.050259, lon.=26.377554, Alt.=101.713928m. Speed=24.983999m/h.</desc>
<speed>6.940000</speed>
</trkpt>
<trkpt lat="56.050198" lon="26.377558">
<ele>101.528381</ele>
<time>2010-08-29T16:34:29Z</time>
<desc>lat.=56.050198, lon.=26.377558, Alt.=101.528381m. Speed=24.587999m/h.</desc>
<speed>6.830000</speed>
</trkpt>
<trkpt lat="56.050137" lon="26.377563">
<ele>101.612366</ele>
<time>2010-08-29T16:34:30Z</time>
<desc>lat.=56.050137, lon.=26.377563, Alt.=101.612366m. Speed=23.903999m/h.</desc>
<speed>6.640000</speed>
</trkpt>
<trkpt lat="56.050079" lon="26.377575">
<ele>101.463928</ele>
<time>2010-08-29T16:34:31Z</time>
<desc>lat.=56.050079, lon.=26.377575, Alt.=101.463928m. Speed=23.184000m/h.</desc>
<speed>6.440000</speed>
</trkpt>
<trkpt lat="56.050018" lon="26.377581">
<ele>101.512756</ele>
<time>2010-08-29T16:34:32Z</time>
<desc>lat.=56.050018, lon.=26.377581, Alt.=101.512756m. Speed=22.643999m/h.</desc>
<speed>6.290000</speed>
</trkpt>
<trkpt lat="56.049965" lon="26.377592">
<ele>101.460022</ele>
<time>2010-08-29T16:34:33Z</time>
<desc>lat.=56.049965, lon.=26.377592, Alt.=101.460022m. Speed=22.139999m/h.</desc>
<speed>6.150000</speed>
</trkpt>
<trkpt lat="56.049915" lon="26.377598">
<ele>101.317444</ele>
<time>2010-08-29T16:34:34Z</time>
<desc>lat.=56.049915, lon.=26.377598, Alt.=101.317444m. Speed=21.851999m/h.</desc>
<speed>6.070000</speed>
</trkpt>
<trkpt lat="56.049858" lon="26.377605">
<ele>101.118225</ele>
<time>2010-08-29T16:34:35Z</time>
<desc>lat.=56.049858, lon.=26.377605, Alt.=101.118225m. Speed=22.139999m/h.</desc>
<speed>6.150000</speed>
</trkpt>
<trkpt lat="56.049805" lon="26.377617">
<ele>100.991272</ele>
<time>2010-08-29T16:34:36Z</time>
<desc>lat.=56.049805, lon.=26.377617, Alt.=100.991272m. Speed=22.931999m/h.</desc>
<speed>6.370000</speed>
</trkpt>
<trkpt lat="56.049744" lon="26.377625">
<ele>100.698303</ele>
<time>2010-08-29T16:34:37Z</time>
<desc>lat.=56.049744, lon.=26.377625, Alt.=100.698303m. Speed=23.256001m/h.</desc>
<speed>6.460000</speed>
</trkpt>
<trkpt lat="56.049686" lon="26.377632">
<ele>100.442444</ele>
<time>2010-08-29T16:34:38Z</time>
<desc>lat.=56.049686, lon.=26.377632, Alt.=100.442444m. Speed=23.832001m/h.</desc>
<speed>6.620000</speed>
</trkpt>
<trkpt lat="56.049625" lon="26.377636">
<ele>100.325256</ele>
<time>2010-08-29T16:34:39Z</time>
<desc>lat.=56.049625, lon.=26.377636, Alt.=100.325256m. Speed=24.264000m/h.</desc>
<speed>6.740000</speed>
</trkpt>
<trkpt lat="56.049564" lon="26.377642">
<ele>100.077209</ele>
<time>2010-08-29T16:34:40Z</time>
<desc>lat.=56.049564, lon.=26.377642, Alt.=100.077209m. Speed=24.516001m/h.</desc>
<speed>6.810000</speed>
</trkpt>
<trkpt lat="56.049503" lon="26.377649">
<ele>100.044006</ele>
<time>2010-08-29T16:34:41Z</time>
<desc>lat.=56.049503, lon.=26.377649, Alt.=100.044006m. Speed=25.091999m/h.</desc>
<speed>6.970000</speed>
</trkpt>
<trkpt lat="56.049438" lon="26.377657">
<ele>99.760803</ele>
<time>2010-08-29T16:34:42Z</time>
<desc>lat.=56.049438, lon.=26.377657, Alt.=99.760803m. Speed=25.200001m/h.</desc>
<speed>7.000000</speed>
</trkpt>
<trkpt lat="56.049370" lon="26.377665">
<ele>99.303772</ele>
<time>2010-08-29T16:34:43Z</time>
<desc>lat.=56.049370, lon.=26.377665, Alt.=99.303772m. Speed=25.920000m/h.</desc>
<speed>7.200000</speed>
</trkpt>
<trkpt lat="56.049305" lon="26.377672">
<ele>99.110413</ele>
<time>2010-08-29T16:34:44Z</time>
<desc>lat.=56.049305, lon.=26.377672, Alt.=99.110413m. Speed=25.704000m/h.</desc>
<speed>7.140000</speed>
</trkpt>
<trkpt lat="56.049240" lon="26.377678">
<ele>99.012756</ele>
<time>2010-08-29T16:34:45Z</time>
<desc>lat.=56.049240, lon.=26.377678, Alt.=99.012756m. Speed=24.875999m/h.</desc>
<speed>6.910000</speed>
</trkpt>
<trkpt lat="56.049179" lon="26.377686">
<ele>99.030334</ele>
<time>2010-08-29T16:34:46Z</time>
<desc>lat.=56.049179, lon.=26.377686, Alt.=99.030334m. Speed=24.408001m/h.</desc>
<speed>6.780000</speed>
</trkpt>
<trkpt lat="56.049118" lon="26.377691">
<ele>99.114319</ele>
<time>2010-08-29T16:34:47Z</time>
<desc>lat.=56.049118, lon.=26.377691, Alt.=99.114319m. Speed=23.868000m/h.</desc>
<speed>6.630000</speed>
</trkpt>
<trkpt lat="56.049061" lon="26.377699">
<ele>99.200256</ele>
<time>2010-08-29T16:34:48Z</time>
<desc>lat.=56.049061, lon.=26.377699, Alt.=99.200256m. Speed=23.436001m/h.</desc>
<speed>6.510000</speed>
</trkpt>
<trkpt lat="56.049000" lon="26.377712">
<ele>99.270569</ele>
<time>2010-08-29T16:34:49Z</time>
<desc>lat.=56.049000, lon.=26.377712, Alt.=99.270569m. Speed=23.832001m/h.</desc>
<speed>6.620000</speed>
</trkpt>
<trkpt lat="56.048939" lon="26.377722">
<ele>99.086975</ele>
<time>2010-08-29T16:34:50Z</time>
<desc>lat.=56.048939, lon.=26.377722, Alt.=99.086975m. Speed=24.516001m/h.</desc>
<speed>6.810000</speed>
</trkpt>
<trkpt lat="56.048878" lon="26.377733">
<ele>99.071350</ele>
<time>2010-08-29T16:34:51Z</time>
<desc>lat.=56.048878, lon.=26.377733, Alt.=99.071350m. Speed=24.695999m/h.</desc>
<speed>6.860000</speed>
</trkpt>
<trkpt lat="56.048817" lon="26.377743">
<ele>99.141663</ele>
<time>2010-08-29T16:34:52Z</time>
<desc>lat.=56.048817, lon.=26.377743, Alt.=99.141663m. Speed=25.056000m/h.</desc>
<speed>6.960000</speed>
</trkpt>
<trkpt lat="56.048756" lon="26.377758">
<ele>98.885803</ele>
<time>2010-08-29T16:34:53Z</time>
<desc>lat.=56.048756, lon.=26.377758, Alt.=98.885803m. Speed=25.452000m/h.</desc>
<speed>7.070000</speed>
</trkpt>
<trkpt lat="56.048691" lon="26.377771">
<ele>98.934631</ele>
<time>2010-08-29T16:34:54Z</time>
<desc>lat.=56.048691, lon.=26.377771, Alt.=98.934631m. Speed=25.848000m/h.</desc>
<speed>7.180000</speed>
</trkpt>
<trkpt lat="56.048626" lon="26.377781">
<ele>98.696350</ele>
<time>2010-08-29T16:34:55Z</time>
<desc>lat.=56.048626, lon.=26.377781, Alt.=98.696350m. Speed=26.063999m/h.</desc>
<speed>7.240000</speed>
</trkpt>
<trkpt lat="56.048561" lon="26.377790">
<ele>98.817444</ele>
<time>2010-08-29T16:34:56Z</time>
<desc>lat.=56.048561, lon.=26.377790, Alt.=98.817444m. Speed=26.063999m/h.</desc>
<speed>7.240000</speed>
</trkpt>
<trkpt lat="56.048496" lon="26.377798">
<ele>98.766663</ele>
<time>2010-08-29T16:34:57Z</time>
<desc>lat.=56.048496, lon.=26.377798, Alt.=98.766663m. Speed=26.712000m/h.</desc>
<speed>7.420000</speed>
</trkpt>
<trkpt lat="56.048431" lon="26.377808">
<ele>98.731506</ele>
<time>2010-08-29T16:34:58Z</time>
<desc>lat.=56.048431, lon.=26.377808, Alt.=98.731506m. Speed=26.028000m/h.</desc>
<speed>7.230000</speed>
</trkpt>
<trkpt lat="56.048370" lon="26.377821">
<ele>98.747131</ele>
<time>2010-08-29T16:34:59Z</time>
<desc>lat.=56.048370, lon.=26.377821, Alt.=98.747131m. Speed=25.271999m/h.</desc>
<speed>7.020000</speed>
</trkpt>
<trkpt lat="56.048309" lon="26.377831">
<ele>98.747131</ele>
<time>2010-08-29T16:35:00Z</time>
<desc>lat.=56.048309, lon.=26.377831, Alt.=98.747131m. Speed=24.587999m/h.</desc>
<speed>6.830000</speed>
</trkpt>
<trkpt lat="56.048248" lon="26.377840">
<ele>98.801819</ele>
<time>2010-08-29T16:35:01Z</time>
<desc>lat.=56.048248, lon.=26.377840, Alt.=98.801819m. Speed=23.868000m/h.</desc>
<speed>6.630000</speed>
</trkpt>
<trkpt lat="56.048191" lon="26.377851">
<ele>98.954163</ele>
<time>2010-08-29T16:35:02Z</time>
<desc>lat.=56.048191, lon.=26.377851, Alt.=98.954163m. Speed=23.292000m/h.</desc>
<speed>6.470000</speed>
</trkpt>
<trkpt lat="56.048138" lon="26.377861">
<ele>99.489319</ele>
<time>2010-08-29T16:35:03Z</time>
<desc>lat.=56.048138, lon.=26.377861, Alt.=99.489319m. Speed=21.780001m/h.</desc>
<speed>6.050000</speed>
</trkpt>
<trkpt lat="56.048080" lon="26.377865">
<ele>99.846741</ele>
<time>2010-08-29T16:35:04Z</time>
<desc>lat.=56.048080, lon.=26.377865, Alt.=99.846741m. Speed=22.068001m/h.</desc>
<speed>6.130000</speed>
</trkpt>
<trkpt lat="56.048023" lon="26.377872">
<ele>100.083069</ele>
<time>2010-08-29T16:35:05Z</time>
<desc>lat.=56.048023, lon.=26.377872, Alt.=100.083069m. Speed=22.823999m/h.</desc>
<speed>6.340000</speed>
</trkpt>
<trkpt lat="56.047966" lon="26.377884">
<ele>100.243225</ele>
<time>2010-08-29T16:35:06Z</time>
<desc>lat.=56.047966, lon.=26.377884, Alt.=100.243225m. Speed=23.219999m/h.</desc>
<speed>6.450000</speed>
</trkpt>
<trkpt lat="56.047905" lon="26.377893">
<ele>100.258850</ele>
<time>2010-08-29T16:35:07Z</time>
<desc>lat.=56.047905, lon.=26.377893, Alt.=100.258850m. Speed=23.615999m/h.</desc>
<speed>6.560000</speed>
</trkpt>
<trkpt lat="56.047848" lon="26.377901">
<ele>100.358459</ele>
<time>2010-08-29T16:35:08Z</time>
<desc>lat.=56.047848, lon.=26.377901, Alt.=100.358459m. Speed=23.760000m/h.</desc>
<speed>6.600000</speed>
</trkpt>
<trkpt lat="56.047791" lon="26.377911">
<ele>100.327209</ele>
<time>2010-08-29T16:35:09Z</time>
<desc>lat.=56.047791, lon.=26.377911, Alt.=100.327209m. Speed=24.660000m/h.</desc>
<speed>6.850000</speed>
</trkpt>
<trkpt lat="56.047729" lon="26.377922">
<ele>100.325256</ele>
<time>2010-08-29T16:35:10Z</time>
<desc>lat.=56.047729, lon.=26.377922, Alt.=100.325256m. Speed=24.732000m/h.</desc>
<speed>6.870000</speed>
</trkpt>
<trkpt lat="56.047665" lon="26.377924">
<ele>100.325256</ele>
<time>2010-08-29T16:35:11Z</time>
<desc>lat.=56.047665, lon.=26.377924, Alt.=100.325256m. Speed=25.308001m/h.</desc>
<speed>7.030000</speed>
</trkpt>
<trkpt lat="56.047604" lon="26.377928">
<ele>100.419006</ele>
<time>2010-08-29T16:35:12Z</time>
<desc>lat.=56.047604, lon.=26.377928, Alt.=100.419006m. Speed=24.768000m/h.</desc>
<speed>6.880000</speed>
</trkpt>
<trkpt lat="56.047543" lon="26.377935">
<ele>100.551819</ele>
<time>2010-08-29T16:35:13Z</time>
<desc>lat.=56.047543, lon.=26.377935, Alt.=100.551819m. Speed=24.120001m/h.</desc>
<speed>6.700000</speed>
</trkpt>
<trkpt lat="56.047485" lon="26.377945">
<ele>100.620178</ele>
<time>2010-08-29T16:35:14Z</time>
<desc>lat.=56.047485, lon.=26.377945, Alt.=100.620178m. Speed=23.400000m/h.</desc>
<speed>6.500000</speed>
</trkpt>
<trkpt lat="56.047428" lon="26.377953">
<ele>100.696350</ele>
<time>2010-08-29T16:35:15Z</time>
<desc>lat.=56.047428, lon.=26.377953, Alt.=100.696350m. Speed=22.968000m/h.</desc>
<speed>6.380000</speed>
</trkpt>
<trkpt lat="56.047371" lon="26.377960">
<ele>100.434631</ele>
<time>2010-08-29T16:35:16Z</time>
<desc>lat.=56.047371, lon.=26.377960, Alt.=100.434631m. Speed=23.472000m/h.</desc>
<speed>6.520000</speed>
</trkpt>
<trkpt lat="56.047310" lon="26.377968">
<ele>100.356506</ele>
<time>2010-08-29T16:35:17Z</time>
<desc>lat.=56.047310, lon.=26.377968, Alt.=100.356506m. Speed=23.615999m/h.</desc>
<speed>6.560000</speed>
</trkpt>
<trkpt lat="56.047253" lon="26.377974">
<ele>100.288147</ele>
<time>2010-08-29T16:35:18Z</time>
<desc>lat.=56.047253, lon.=26.377974, Alt.=100.288147m. Speed=23.976000m/h.</desc>
<speed>6.660000</speed>
</trkpt>
<trkpt lat="56.047195" lon="26.377979">
<ele>100.407288</ele>
<time>2010-08-29T16:35:19Z</time>
<desc>lat.=56.047195, lon.=26.377979, Alt.=100.407288m. Speed=24.120001m/h.</desc>
<speed>6.700000</speed>
</trkpt>
<trkpt lat="56.047134" lon="26.377983">
<ele>100.499084</ele>
<time>2010-08-29T16:35:20Z</time>
<desc>lat.=56.047134, lon.=26.377983, Alt.=100.499084m. Speed=24.336000m/h.</desc>
<speed>6.760000</speed>
</trkpt>
<trkpt lat="56.047073" lon="26.377991">
<ele>100.510803</ele>
<time>2010-08-29T16:35:21Z</time>
<desc>lat.=56.047073, lon.=26.377991, Alt.=100.510803m. Speed=24.228001m/h.</desc>
<speed>6.730000</speed>
</trkpt>
<trkpt lat="56.047012" lon="26.377996">
<ele>100.407288</ele>
<time>2010-08-29T16:35:22Z</time>
<desc>lat.=56.047012, lon.=26.377996, Alt.=100.407288m. Speed=24.372000m/h.</desc>
<speed>6.770000</speed>
</trkpt>
<trkpt lat="56.046951" lon="26.378002">
<ele>100.157288</ele>
<time>2010-08-29T16:35:23Z</time>
<desc>lat.=56.046951, lon.=26.378002, Alt.=100.157288m. Speed=24.228001m/h.</desc>
<speed>6.730000</speed>
</trkpt>
<trkpt lat="56.046890" lon="26.378012">
<ele>100.024475</ele>
<time>2010-08-29T16:35:24Z</time>
<desc>lat.=56.046890, lon.=26.378012, Alt.=100.024475m. Speed=23.796000m/h.</desc>
<speed>6.610000</speed>
</trkpt>
<trkpt lat="56.046829" lon="26.378023">
<ele>100.047913</ele>
<time>2010-08-29T16:35:25Z</time>
<desc>lat.=56.046829, lon.=26.378023, Alt.=100.047913m. Speed=24.587999m/h.</desc>
<speed>6.830000</speed>
</trkpt>
<trkpt lat="56.046764" lon="26.378029">
<ele>99.809631</ele>
<time>2010-08-29T16:35:26Z</time>
<desc>lat.=56.046764, lon.=26.378029, Alt.=99.809631m. Speed=25.164000m/h.</desc>
<speed>6.990000</speed>
</trkpt>
<trkpt lat="56.046700" lon="26.378036">
<ele>99.881897</ele>
<time>2010-08-29T16:35:27Z</time>
<desc>lat.=56.046700, lon.=26.378036, Alt.=99.881897m. Speed=25.740000m/h.</desc>
<speed>7.150000</speed>
</trkpt>
<trkpt lat="56.046635" lon="26.378046">
<ele>99.022522</ele>
<time>2010-08-29T16:35:28Z</time>
<desc>lat.=56.046635, lon.=26.378046, Alt.=99.022522m. Speed=25.920000m/h.</desc>
<speed>7.200000</speed>
</trkpt>
<trkpt lat="56.046574" lon="26.378052">
<ele>98.643616</ele>
<time>2010-08-29T16:35:29Z</time>
<desc>lat.=56.046574, lon.=26.378052, Alt.=98.643616m. Speed=24.299999m/h.</desc>
<speed>6.750000</speed>
</trkpt>
<trkpt lat="56.046516" lon="26.378061">
<ele>98.540100</ele>
<time>2010-08-29T16:35:30Z</time>
<desc>lat.=56.046516, lon.=26.378061, Alt.=98.540100m. Speed=23.219999m/h.</desc>
<speed>6.450000</speed>
</trkpt>
<trkpt lat="56.046455" lon="26.378069">
<ele>98.586975</ele>
<time>2010-08-29T16:35:31Z</time>
<desc>lat.=56.046455, lon.=26.378069, Alt.=98.586975m. Speed=22.643999m/h.</desc>
<speed>6.290000</speed>
</trkpt>
<trkpt lat="56.046402" lon="26.378080">
<ele>98.752991</ele>
<time>2010-08-29T16:35:32Z</time>
<desc>lat.=56.046402, lon.=26.378080, Alt.=98.752991m. Speed=22.752001m/h.</desc>
<speed>6.320000</speed>
</trkpt>
<trkpt lat="56.046345" lon="26.378086">
<ele>98.856506</ele>
<time>2010-08-29T16:35:33Z</time>
<desc>lat.=56.046345, lon.=26.378086, Alt.=98.856506m. Speed=22.860001m/h.</desc>
<speed>6.350000</speed>
</trkpt>
<trkpt lat="56.046288" lon="26.378092">
<ele>98.715881</ele>
<time>2010-08-29T16:35:34Z</time>
<desc>lat.=56.046288, lon.=26.378092, Alt.=98.715881m. Speed=23.507999m/h.</desc>
<speed>6.530000</speed>
</trkpt>
<trkpt lat="56.046227" lon="26.378099">
<ele>98.727600</ele>
<time>2010-08-29T16:35:35Z</time>
<desc>lat.=56.046227, lon.=26.378099, Alt.=98.727600m. Speed=23.327999m/h.</desc>
<speed>6.480000</speed>
</trkpt>
<trkpt lat="56.046169" lon="26.378105">
<ele>98.616272</ele>
<time>2010-08-29T16:35:36Z</time>
<desc>lat.=56.046169, lon.=26.378105, Alt.=98.616272m. Speed=23.327999m/h.</desc>
<speed>6.480000</speed>
</trkpt>
<trkpt lat="56.046112" lon="26.378117">
<ele>98.792053</ele>
<time>2010-08-29T16:35:37Z</time>
<desc>lat.=56.046112, lon.=26.378117, Alt.=98.792053m. Speed=23.400000m/h.</desc>
<speed>6.500000</speed>
</trkpt>
<trkpt lat="56.046055" lon="26.378130">
<ele>98.883850</ele>
<time>2010-08-29T16:35:38Z</time>
<desc>lat.=56.046055, lon.=26.378130, Alt.=98.883850m. Speed=23.292000m/h.</desc>
<speed>6.470000</speed>
</trkpt>
<trkpt lat="56.045998" lon="26.378147">
<ele>98.846741</ele>
<time>2010-08-29T16:35:39Z</time>
<desc>lat.=56.045998, lon.=26.378147, Alt.=98.846741m. Speed=23.327999m/h.</desc>
<speed>6.480000</speed>
</trkpt>
<trkpt lat="56.045940" lon="26.378155">
<ele>98.895569</ele>
<time>2010-08-29T16:35:40Z</time>
<desc>lat.=56.045940, lon.=26.378155, Alt.=98.895569m. Speed=23.688000m/h.</desc>
<speed>6.580000</speed>
</trkpt>
<trkpt lat="56.045883" lon="26.378164">
<ele>99.057678</ele>
<time>2010-08-29T16:35:41Z</time>
<desc>lat.=56.045883, lon.=26.378164, Alt.=99.057678m. Speed=23.040001m/h.</desc>
<speed>6.400000</speed>
</trkpt>
<trkpt lat="56.045826" lon="26.378170">
<ele>99.129944</ele>
<time>2010-08-29T16:35:42Z</time>
<desc>lat.=56.045826, lon.=26.378170, Alt.=99.129944m. Speed=23.652000m/h.</desc>
<speed>6.570000</speed>
</trkpt>
<trkpt lat="56.045765" lon="26.378180">
<ele>99.120178</ele>
<time>2010-08-29T16:35:43Z</time>
<desc>lat.=56.045765, lon.=26.378180, Alt.=99.120178m. Speed=23.868000m/h.</desc>
<speed>6.630000</speed>
</trkpt>
<trkpt lat="56.045704" lon="26.378187">
<ele>99.143616</ele>
<time>2010-08-29T16:35:44Z</time>
<desc>lat.=56.045704, lon.=26.378187, Alt.=99.143616m. Speed=24.120001m/h.</desc>
<speed>6.700000</speed>
</trkpt>
<trkpt lat="56.045647" lon="26.378193">
<ele>99.038147</ele>
<time>2010-08-29T16:35:45Z</time>
<desc>lat.=56.045647, lon.=26.378193, Alt.=99.038147m. Speed=24.084000m/h.</desc>
<speed>6.690000</speed>
</trkpt>
<trkpt lat="56.045586" lon="26.378202">
<ele>99.157288</ele>
<time>2010-08-29T16:35:46Z</time>
<desc>lat.=56.045586, lon.=26.378202, Alt.=99.157288m. Speed=25.091999m/h.</desc>
<speed>6.970000</speed>
</trkpt>
<trkpt lat="56.045521" lon="26.378210">
<ele>99.290100</ele>
<time>2010-08-29T16:35:47Z</time>
<desc>lat.=56.045521, lon.=26.378210, Alt.=99.290100m. Speed=25.344000m/h.</desc>
<speed>7.040000</speed>
</trkpt>
<trkpt lat="56.045460" lon="26.378218">
<ele>99.374084</ele>
<time>2010-08-29T16:35:48Z</time>
<desc>lat.=56.045460, lon.=26.378218, Alt.=99.374084m. Speed=24.875999m/h.</desc>
<speed>6.910000</speed>
</trkpt>
<trkpt lat="56.045395" lon="26.378223">
<ele>99.448303</ele>
<time>2010-08-29T16:35:49Z</time>
<desc>lat.=56.045395, lon.=26.378223, Alt.=99.448303m. Speed=24.156000m/h.</desc>
<speed>6.710000</speed>
</trkpt>
<trkpt lat="56.045338" lon="26.378231">
<ele>99.426819</ele>
<time>2010-08-29T16:35:50Z</time>
<desc>lat.=56.045338, lon.=26.378231, Alt.=99.426819m. Speed=23.364000m/h.</desc>
<speed>6.490000</speed>
</trkpt>
<trkpt lat="56.045280" lon="26.378239">
<ele>99.460022</ele>
<time>2010-08-29T16:35:51Z</time>
<desc>lat.=56.045280, lon.=26.378239, Alt.=99.460022m. Speed=22.716000m/h.</desc>
<speed>6.310000</speed>
</trkpt>
<trkpt lat="56.045223" lon="26.378244">
<ele>99.461975</ele>
<time>2010-08-29T16:35:52Z</time>
<desc>lat.=56.045223, lon.=26.378244, Alt.=99.461975m. Speed=22.356001m/h.</desc>
<speed>6.210000</speed>
</trkpt>
<trkpt lat="56.045170" lon="26.378256">
<ele>99.440491</ele>
<time>2010-08-29T16:35:53Z</time>
<desc>lat.=56.045170, lon.=26.378256, Alt.=99.440491m. Speed=22.247999m/h.</desc>
<speed>6.180000</speed>
</trkpt>
<trkpt lat="56.045113" lon="26.378263">
<ele>99.542053</ele>
<time>2010-08-29T16:35:54Z</time>
<desc>lat.=56.045113, lon.=26.378263, Alt.=99.542053m. Speed=22.608000m/h.</desc>
<speed>6.280000</speed>
</trkpt>
<trkpt lat="56.045055" lon="26.378273">
<ele>99.575256</ele>
<time>2010-08-29T16:35:55Z</time>
<desc>lat.=56.045055, lon.=26.378273, Alt.=99.575256m. Speed=23.184000m/h.</desc>
<speed>6.440000</speed>
</trkpt>
<trkpt lat="56.044998" lon="26.378286">
<ele>99.751038</ele>
<time>2010-08-29T16:35:56Z</time>
<desc>lat.=56.044998, lon.=26.378286, Alt.=99.751038m. Speed=23.184000m/h.</desc>
<speed>6.440000</speed>
</trkpt>
<trkpt lat="56.044941" lon="26.378298">
<ele>99.870178</ele>
<time>2010-08-29T16:35:57Z</time>
<desc>lat.=56.044941, lon.=26.378298, Alt.=99.870178m. Speed=23.256001m/h.</desc>
<speed>6.460000</speed>
</trkpt>
<trkpt lat="56.044884" lon="26.378313">
<ele>100.018616</ele>
<time>2010-08-29T16:35:58Z</time>
<desc>lat.=56.044884, lon.=26.378313, Alt.=100.018616m. Speed=23.652000m/h.</desc>
<speed>6.570000</speed>
</trkpt>
<trkpt lat="56.044823" lon="26.378325">
<ele>99.817444</ele>
<time>2010-08-29T16:35:59Z</time>
<desc>lat.=56.044823, lon.=26.378325, Alt.=99.817444m. Speed=24.336000m/h.</desc>
<speed>6.760000</speed>
</trkpt>
<trkpt lat="56.044762" lon="26.378334">
<ele>99.961975</ele>
<time>2010-08-29T16:36:00Z</time>
<desc>lat.=56.044762, lon.=26.378334, Alt.=99.961975m. Speed=23.760000m/h.</desc>
<speed>6.600000</speed>
</trkpt>
<trkpt lat="56.044701" lon="26.378345">
<ele>100.184631</ele>
<time>2010-08-29T16:36:01Z</time>
<desc>lat.=56.044701, lon.=26.378345, Alt.=100.184631m. Speed=23.544001m/h.</desc>
<speed>6.540000</speed>
</trkpt>
<trkpt lat="56.044643" lon="26.378357">
<ele>100.446350</ele>
<time>2010-08-29T16:36:02Z</time>
<desc>lat.=56.044643, lon.=26.378357, Alt.=100.446350m. Speed=22.860001m/h.</desc>
<speed>6.350000</speed>
</trkpt>
<trkpt lat="56.044590" lon="26.378363">
<ele>100.352600</ele>
<time>2010-08-29T16:36:03Z</time>
<desc>lat.=56.044590, lon.=26.378363, Alt.=100.352600m. Speed=22.356001m/h.</desc>
<speed>6.210000</speed>
</trkpt>
<trkpt lat="56.044537" lon="26.378366">
<ele>100.542053</ele>
<time>2010-08-29T16:36:04Z</time>
<desc>lat.=56.044537, lon.=26.378366, Alt.=100.542053m. Speed=22.535999m/h.</desc>
<speed>6.260000</speed>
</trkpt>
<trkpt lat="56.044479" lon="26.378374">
<ele>100.491272</ele>
<time>2010-08-29T16:36:05Z</time>
<desc>lat.=56.044479, lon.=26.378374, Alt.=100.491272m. Speed=23.219999m/h.</desc>
<speed>6.450000</speed>
</trkpt>
<trkpt lat="56.044422" lon="26.378376">
<ele>100.309631</ele>
<time>2010-08-29T16:36:06Z</time>
<desc>lat.=56.044422, lon.=26.378376, Alt.=100.309631m. Speed=23.688000m/h.</desc>
<speed>6.580000</speed>
</trkpt>
<trkpt lat="56.044365" lon="26.378380">
<ele>99.922913</ele>
<time>2010-08-29T16:36:07Z</time>
<desc>lat.=56.044365, lon.=26.378380, Alt.=99.922913m. Speed=23.148001m/h.</desc>
<speed>6.430000</speed>
</trkpt>
<trkpt lat="56.044308" lon="26.378386">
<ele>99.737366</ele>
<time>2010-08-29T16:36:08Z</time>
<desc>lat.=56.044308, lon.=26.378386, Alt.=99.737366m. Speed=22.320000m/h.</desc>
<speed>6.200000</speed>
</trkpt>
<trkpt lat="56.044254" lon="26.378393">
<ele>99.811584</ele>
<time>2010-08-29T16:36:09Z</time>
<desc>lat.=56.044254, lon.=26.378393, Alt.=99.811584m. Speed=21.600000m/h.</desc>
<speed>6.000000</speed>
</trkpt>
<trkpt lat="56.044205" lon="26.378405">
<ele>99.930725</ele>
<time>2010-08-29T16:36:10Z</time>
<desc>lat.=56.044205, lon.=26.378405, Alt.=99.930725m. Speed=21.024000m/h.</desc>
<speed>5.840000</speed>
</trkpt>
<trkpt lat="56.044151" lon="26.378408">
<ele>99.823303</ele>
<time>2010-08-29T16:36:11Z</time>
<desc>lat.=56.044151, lon.=26.378408, Alt.=99.823303m. Speed=20.268000m/h.</desc>
<speed>5.630000</speed>
</trkpt>
<trkpt lat="56.044102" lon="26.378416">
<ele>99.891663</ele>
<time>2010-08-29T16:36:12Z</time>
<desc>lat.=56.044102, lon.=26.378416, Alt.=99.891663m. Speed=21.059999m/h.</desc>
<speed>5.850000</speed>
</trkpt>
<trkpt lat="56.044048" lon="26.378422">
<ele>100.006897</ele>
<time>2010-08-29T16:36:13Z</time>
<desc>lat.=56.044048, lon.=26.378422, Alt.=100.006897m. Speed=21.708000m/h.</desc>
<speed>6.030000</speed>
</trkpt>
<trkpt lat="56.043995" lon="26.378426">
<ele>99.891663</ele>
<time>2010-08-29T16:36:14Z</time>
<desc>lat.=56.043995, lon.=26.378426, Alt.=99.891663m. Speed=22.320000m/h.</desc>
<speed>6.200000</speed>
</trkpt>
<trkpt lat="56.043938" lon="26.378429">
<ele>99.866272</ele>
<time>2010-08-29T16:36:15Z</time>
<desc>lat.=56.043938, lon.=26.378429, Alt.=99.866272m. Speed=22.788000m/h.</desc>
<speed>6.330000</speed>
</trkpt>
<trkpt lat="56.043880" lon="26.378437">
<ele>100.081116</ele>
<time>2010-08-29T16:36:16Z</time>
<desc>lat.=56.043880, lon.=26.378437, Alt.=100.081116m. Speed=23.436001m/h.</desc>
<speed>6.510000</speed>
</trkpt>
<trkpt lat="56.043819" lon="26.378445">
<ele>100.042053</ele>
<time>2010-08-29T16:36:17Z</time>
<desc>lat.=56.043819, lon.=26.378445, Alt.=100.042053m. Speed=24.191999m/h.</desc>
<speed>6.720000</speed>
</trkpt>
<trkpt lat="56.043755" lon="26.378448">
<ele>99.835022</ele>
<time>2010-08-29T16:36:18Z</time>
<desc>lat.=56.043755, lon.=26.378448, Alt.=99.835022m. Speed=24.660000m/h.</desc>
<speed>6.850000</speed>
</trkpt>
<trkpt lat="56.043694" lon="26.378452">
<ele>99.745178</ele>
<time>2010-08-29T16:36:19Z</time>
<desc>lat.=56.043694, lon.=26.378452, Alt.=99.745178m. Speed=25.452000m/h.</desc>
<speed>7.070000</speed>
</trkpt>
<trkpt lat="56.043629" lon="26.378462">
<ele>100.376038</ele>
<time>2010-08-29T16:36:20Z</time>
<desc>lat.=56.043629, lon.=26.378462, Alt.=100.376038m. Speed=24.299999m/h.</desc>
<speed>6.750000</speed>
</trkpt>
<trkpt lat="56.043571" lon="26.378475">
<ele>100.776428</ele>
<time>2010-08-29T16:36:21Z</time>
<desc>lat.=56.043571, lon.=26.378475, Alt.=100.776428m. Speed=24.156000m/h.</desc>
<speed>6.710000</speed>
</trkpt>
<trkpt lat="56.043510" lon="26.378487">
<ele>100.844788</ele>
<time>2010-08-29T16:36:22Z</time>
<desc>lat.=56.043510, lon.=26.378487, Alt.=100.844788m. Speed=23.544001m/h.</desc>
<speed>6.540000</speed>
</trkpt>
<trkpt lat="56.043449" lon="26.378494">
<ele>101.051819</ele>
<time>2010-08-29T16:36:23Z</time>
<desc>lat.=56.043449, lon.=26.378494, Alt.=101.051819m. Speed=22.752001m/h.</desc>
<speed>6.320000</speed>
</trkpt>
<trkpt lat="56.043396" lon="26.378498">
<ele>101.131897</ele>
<time>2010-08-29T16:36:24Z</time>
<desc>lat.=56.043396, lon.=26.378498, Alt.=101.131897m. Speed=21.959999m/h.</desc>
<speed>6.100000</speed>
</trkpt>
<trkpt lat="56.043339" lon="26.378506">
<ele>101.274475</ele>
<time>2010-08-29T16:36:25Z</time>
<desc>lat.=56.043339, lon.=26.378506, Alt.=101.274475m. Speed=21.384001m/h.</desc>
<speed>5.940000</speed>
</trkpt>
<trkpt lat="56.043289" lon="26.378511">
<ele>101.395569</ele>
<time>2010-08-29T16:36:26Z</time>
<desc>lat.=56.043289, lon.=26.378511, Alt.=101.395569m. Speed=20.483999m/h.</desc>
<speed>5.690000</speed>
</trkpt>
<trkpt lat="56.043240" lon="26.378519">
<ele>101.292053</ele>
<time>2010-08-29T16:36:27Z</time>
<desc>lat.=56.043240, lon.=26.378519, Alt.=101.292053m. Speed=20.268000m/h.</desc>
<speed>5.630000</speed>
</trkpt>
<trkpt lat="56.043190" lon="26.378531">
<ele>101.354553</ele>
<time>2010-08-29T16:36:28Z</time>
<desc>lat.=56.043190, lon.=26.378531, Alt.=101.354553m. Speed=20.448000m/h.</desc>
<speed>5.680000</speed>
</trkpt>
<trkpt lat="56.043137" lon="26.378536">
<ele>101.301819</ele>
<time>2010-08-29T16:36:29Z</time>
<desc>lat.=56.043137, lon.=26.378536, Alt.=101.301819m. Speed=20.808001m/h.</desc>
<speed>5.780000</speed>
</trkpt>
<trkpt lat="56.043083" lon="26.378544">
<ele>101.360413</ele>
<time>2010-08-29T16:36:30Z</time>
<desc>lat.=56.043083, lon.=26.378544, Alt.=101.360413m. Speed=21.275999m/h.</desc>
<speed>5.910000</speed>
</trkpt>
<trkpt lat="56.043030" lon="26.378551">
<ele>101.547913</ele>
<time>2010-08-29T16:36:31Z</time>
<desc>lat.=56.043030, lon.=26.378551, Alt.=101.547913m. Speed=21.563999m/h.</desc>
<speed>5.990000</speed>
</trkpt>
<trkpt lat="56.042973" lon="26.378561">
<ele>100.715881</ele>
<time>2010-08-29T16:36:32Z</time>
<desc>lat.=56.042973, lon.=26.378561, Alt.=100.715881m. Speed=22.716000m/h.</desc>
<speed>6.310000</speed>
</trkpt>
<trkpt lat="56.042919" lon="26.378572">
<ele>100.401428</ele>
<time>2010-08-29T16:36:33Z</time>
<desc>lat.=56.042919, lon.=26.378572, Alt.=100.401428m. Speed=22.247999m/h.</desc>
<speed>6.180000</speed>
</trkpt>
<trkpt lat="56.042866" lon="26.378580">
<ele>100.264709</ele>
<time>2010-08-29T16:36:34Z</time>
<desc>lat.=56.042866, lon.=26.378580, Alt.=100.264709m. Speed=22.500000m/h.</desc>
<speed>6.250000</speed>
</trkpt>
<trkpt lat="56.042809" lon="26.378590">
<ele>100.067444</ele>
<time>2010-08-29T16:36:35Z</time>
<desc>lat.=56.042809, lon.=26.378590, Alt.=100.067444m. Speed=22.427999m/h.</desc>
<speed>6.230000</speed>
</trkpt>
<trkpt lat="56.042755" lon="26.378595">
<ele>99.960022</ele>
<time>2010-08-29T16:36:36Z</time>
<desc>lat.=56.042755, lon.=26.378595, Alt.=99.960022m. Speed=22.500000m/h.</desc>
<speed>6.250000</speed>
</trkpt>
<trkpt lat="56.042698" lon="26.378607">
<ele>100.038147</ele>
<time>2010-08-29T16:36:37Z</time>
<desc>lat.=56.042698, lon.=26.378607, Alt.=100.038147m. Speed=22.608000m/h.</desc>
<speed>6.280000</speed>
</trkpt>
<trkpt lat="56.042645" lon="26.378613">
<ele>99.825256</ele>
<time>2010-08-29T16:36:38Z</time>
<desc>lat.=56.042645, lon.=26.378613, Alt.=99.825256m. Speed=22.464001m/h.</desc>
<speed>6.240000</speed>
</trkpt>
<trkpt lat="56.042591" lon="26.378626">
<ele>99.887756</ele>
<time>2010-08-29T16:36:39Z</time>
<desc>lat.=56.042591, lon.=26.378626, Alt.=99.887756m. Speed=22.643999m/h.</desc>
<speed>6.290000</speed>
</trkpt>
<trkpt lat="56.042534" lon="26.378637">
<ele>100.108459</ele>
<time>2010-08-29T16:36:40Z</time>
<desc>lat.=56.042534, lon.=26.378637, Alt.=100.108459m. Speed=22.643999m/h.</desc>
<speed>6.290000</speed>
</trkpt>
<trkpt lat="56.042477" lon="26.378645">
<ele>100.360413</ele>
<time>2010-08-29T16:36:41Z</time>
<desc>lat.=56.042477, lon.=26.378645, Alt.=100.360413m. Speed=22.643999m/h.</desc>
<speed>6.290000</speed>
</trkpt>
<trkpt lat="56.042419" lon="26.378653">
<ele>100.473694</ele>
<time>2010-08-29T16:36:42Z</time>
<desc>lat.=56.042419, lon.=26.378653, Alt.=100.473694m. Speed=21.959999m/h.</desc>
<speed>6.100000</speed>
</trkpt>
<trkpt lat="56.042366" lon="26.378660">
<ele>100.620178</ele>
<time>2010-08-29T16:36:43Z</time>
<desc>lat.=56.042366, lon.=26.378660, Alt.=100.620178m. Speed=21.348000m/h.</desc>
<speed>5.930000</speed>
</trkpt>
<trkpt lat="56.042313" lon="26.378664">
<ele>100.786194</ele>
<time>2010-08-29T16:36:44Z</time>
<desc>lat.=56.042313, lon.=26.378664, Alt.=100.786194m. Speed=20.412001m/h.</desc>
<speed>5.670000</speed>
</trkpt>
<trkpt lat="56.042263" lon="26.378674">
<ele>101.024475</ele>
<time>2010-08-29T16:36:45Z</time>
<desc>lat.=56.042263, lon.=26.378674, Alt.=101.024475m. Speed=19.728001m/h.</desc>
<speed>5.480000</speed>
</trkpt>
<trkpt lat="56.042217" lon="26.378683">
<ele>100.995178</ele>
<time>2010-08-29T16:36:46Z</time>
<desc>lat.=56.042217, lon.=26.378683, Alt.=100.995178m. Speed=18.827999m/h.</desc>
<speed>5.230000</speed>
</trkpt>
<trkpt lat="56.042171" lon="26.378691">
<ele>100.594788</ele>
<time>2010-08-29T16:36:47Z</time>
<desc>lat.=56.042171, lon.=26.378691, Alt.=100.594788m. Speed=18.504000m/h.</desc>
<speed>5.140000</speed>
</trkpt>
<trkpt lat="56.042126" lon="26.378700">
<ele>100.557678</ele>
<time>2010-08-29T16:36:48Z</time>
<desc>lat.=56.042126, lon.=26.378700, Alt.=100.557678m. Speed=17.496000m/h.</desc>
<speed>4.860000</speed>
</trkpt>
<trkpt lat="56.042084" lon="26.378702">
<ele>100.618225</ele>
<time>2010-08-29T16:36:49Z</time>
<desc>lat.=56.042084, lon.=26.378702, Alt.=100.618225m. Speed=17.459999m/h.</desc>
<speed>4.850000</speed>
</trkpt>
<trkpt lat="56.042038" lon="26.378708">
<ele>100.612366</ele>
<time>2010-08-29T16:36:50Z</time>
<desc>lat.=56.042038, lon.=26.378708, Alt.=100.612366m. Speed=18.035999m/h.</desc>
<speed>5.010000</speed>
</trkpt>
<trkpt lat="56.041996" lon="26.378714">
<ele>100.813538</ele>
<time>2010-08-29T16:36:51Z</time>
<desc>lat.=56.041996, lon.=26.378714, Alt.=100.813538m. Speed=18.035999m/h.</desc>
<speed>5.010000</speed>
</trkpt>
<trkpt lat="56.041950" lon="26.378723">
<ele>100.784241</ele>
<time>2010-08-29T16:36:52Z</time>
<desc>lat.=56.041950, lon.=26.378723, Alt.=100.784241m. Speed=18.827999m/h.</desc>
<speed>5.230000</speed>
</trkpt>
<trkpt lat="56.041901" lon="26.378731">
<ele>101.071350</ele>
<time>2010-08-29T16:36:53Z</time>
<desc>lat.=56.041901, lon.=26.378731, Alt.=101.071350m. Speed=19.080000m/h.</desc>
<speed>5.300000</speed>
</trkpt>
<trkpt lat="56.041855" lon="26.378735">
<ele>101.002991</ele>
<time>2010-08-29T16:36:54Z</time>
<desc>lat.=56.041855, lon.=26.378735, Alt.=101.002991m. Speed=19.224001m/h.</desc>
<speed>5.340000</speed>
</trkpt>
<trkpt lat="56.041809" lon="26.378742">
<ele>101.114319</ele>
<time>2010-08-29T16:36:55Z</time>
<desc>lat.=56.041809, lon.=26.378742, Alt.=101.114319m. Speed=19.799999m/h.</desc>
<speed>5.500000</speed>
</trkpt>
<trkpt lat="56.041759" lon="26.378754">
<ele>101.210022</ele>
<time>2010-08-29T16:36:56Z</time>
<desc>lat.=56.041759, lon.=26.378754, Alt.=101.210022m. Speed=19.908001m/h.</desc>
<speed>5.530000</speed>
</trkpt>
<trkpt lat="56.041710" lon="26.378763">
<ele>101.368225</ele>
<time>2010-08-29T16:36:57Z</time>
<desc>lat.=56.041710, lon.=26.378763, Alt.=101.368225m. Speed=20.195999m/h.</desc>
<speed>5.610000</speed>
</trkpt>
<trkpt lat="56.041660" lon="26.378775">
<ele>101.669006</ele>
<time>2010-08-29T16:36:58Z</time>
<desc>lat.=56.041660, lon.=26.378775, Alt.=101.669006m. Speed=20.375999m/h.</desc>
<speed>5.660000</speed>
</trkpt>
<trkpt lat="56.041607" lon="26.378778">
<ele>101.754944</ele>
<time>2010-08-29T16:36:59Z</time>
<desc>lat.=56.041607, lon.=26.378778, Alt.=101.754944m. Speed=20.808001m/h.</desc>
<speed>5.780000</speed>
</trkpt>
<trkpt lat="56.041553" lon="26.378782">
<ele>101.377991</ele>
<time>2010-08-29T16:37:00Z</time>
<desc>lat.=56.041553, lon.=26.378782, Alt.=101.377991m. Speed=21.492001m/h.</desc>
<speed>5.970000</speed>
</trkpt>
<trkpt lat="56.041500" lon="26.378790">
<ele>101.461975</ele>
<time>2010-08-29T16:37:01Z</time>
<desc>lat.=56.041500, lon.=26.378790, Alt.=101.461975m. Speed=21.600000m/h.</desc>
<speed>6.000000</speed>
</trkpt>
<trkpt lat="56.041447" lon="26.378798">
<ele>101.747131</ele>
<time>2010-08-29T16:37:02Z</time>
<desc>lat.=56.041447, lon.=26.378798, Alt.=101.747131m. Speed=21.851999m/h.</desc>
<speed>6.070000</speed>
</trkpt>
<trkpt lat="56.041393" lon="26.378807">
<ele>101.629944</ele>
<time>2010-08-29T16:37:03Z</time>
<desc>lat.=56.041393, lon.=26.378807, Alt.=101.629944m. Speed=21.996000m/h.</desc>
<speed>6.110000</speed>
</trkpt>
<trkpt lat="56.041336" lon="26.378813">
<ele>101.657288</ele>
<time>2010-08-29T16:37:04Z</time>
<desc>lat.=56.041336, lon.=26.378813, Alt.=101.657288m. Speed=22.320000m/h.</desc>
<speed>6.200000</speed>
</trkpt>
<trkpt lat="56.041279" lon="26.378819">
<ele>101.909241</ele>
<time>2010-08-29T16:37:05Z</time>
<desc>lat.=56.041279, lon.=26.378819, Alt.=101.909241m. Speed=22.643999m/h.</desc>
<speed>6.290000</speed>
</trkpt>
<trkpt lat="56.041222" lon="26.378824">
<ele>101.838928</ele>
<time>2010-08-29T16:37:06Z</time>
<desc>lat.=56.041222, lon.=26.378824, Alt.=101.838928m. Speed=22.643999m/h.</desc>
<speed>6.290000</speed>
</trkpt>
<trkpt lat="56.041164" lon="26.378836">
<ele>101.881897</ele>
<time>2010-08-29T16:37:07Z</time>
<desc>lat.=56.041164, lon.=26.378836, Alt.=101.881897m. Speed=22.788000m/h.</desc>
<speed>6.330000</speed>
</trkpt>
<trkpt lat="56.041107" lon="26.378845">
<ele>102.030334</ele>
<time>2010-08-29T16:37:08Z</time>
<desc>lat.=56.041107, lon.=26.378845, Alt.=102.030334m. Speed=23.040001m/h.</desc>
<speed>6.400000</speed>
</trkpt>
<trkpt lat="56.041050" lon="26.378851">
<ele>102.297913</ele>
<time>2010-08-29T16:37:09Z</time>
<desc>lat.=56.041050, lon.=26.378851, Alt.=102.297913m. Speed=23.256001m/h.</desc>
<speed>6.460000</speed>
</trkpt>
<trkpt lat="56.040989" lon="26.378855">
<ele>102.366272</ele>
<time>2010-08-29T16:37:10Z</time>
<desc>lat.=56.040989, lon.=26.378855, Alt.=102.366272m. Speed=23.256001m/h.</desc>
<speed>6.460000</speed>
</trkpt>
<trkpt lat="56.040932" lon="26.378864">
<ele>102.401428</ele>
<time>2010-08-29T16:37:11Z</time>
<desc>lat.=56.040932, lon.=26.378864, Alt.=102.401428m. Speed=23.148001m/h.</desc>
<speed>6.430000</speed>
</trkpt>
<trkpt lat="56.040871" lon="26.378872">
<ele>102.223694</ele>
<time>2010-08-29T16:37:12Z</time>
<desc>lat.=56.040871, lon.=26.378872, Alt.=102.223694m. Speed=23.688000m/h.</desc>
<speed>6.580000</speed>
</trkpt>
<trkpt lat="56.040813" lon="26.378885">
<ele>102.211975</ele>
<time>2010-08-29T16:37:13Z</time>
<desc>lat.=56.040813, lon.=26.378885, Alt.=102.211975m. Speed=23.652000m/h.</desc>
<speed>6.570000</speed>
</trkpt>
<trkpt lat="56.040756" lon="26.378893">
<ele>102.385803</ele>
<time>2010-08-29T16:37:14Z</time>
<desc>lat.=56.040756, lon.=26.378893, Alt.=102.385803m. Speed=23.688000m/h.</desc>
<speed>6.580000</speed>
</trkpt>
<trkpt lat="56.040695" lon="26.378899">
<ele>102.553772</ele>
<time>2010-08-29T16:37:15Z</time>
<desc>lat.=56.040695, lon.=26.378899, Alt.=102.553772m. Speed=23.940001m/h.</desc>
<speed>6.650000</speed>
</trkpt>
<trkpt lat="56.040634" lon="26.378908">
<ele>102.700256</ele>
<time>2010-08-29T16:37:16Z</time>
<desc>lat.=56.040634, lon.=26.378908, Alt.=102.700256m. Speed=24.516001m/h.</desc>
<speed>6.810000</speed>
</trkpt>
<trkpt lat="56.040577" lon="26.378920">
<ele>103.038147</ele>
<time>2010-08-29T16:37:17Z</time>
<desc>lat.=56.040577, lon.=26.378920, Alt.=103.038147m. Speed=24.587999m/h.</desc>
<speed>6.830000</speed>
</trkpt>
<trkpt lat="56.040516" lon="26.378933">
<ele>103.186584</ele>
<time>2010-08-29T16:37:18Z</time>
<desc>lat.=56.040516, lon.=26.378933, Alt.=103.186584m. Speed=24.660000m/h.</desc>
<speed>6.850000</speed>
</trkpt>
<trkpt lat="56.040455" lon="26.378941">
<ele>103.481506</ele>
<time>2010-08-29T16:37:19Z</time>
<desc>lat.=56.040455, lon.=26.378941, Alt.=103.481506m. Speed=24.120001m/h.</desc>
<speed>6.700000</speed>
</trkpt>
<trkpt lat="56.040394" lon="26.378950">
<ele>103.723694</ele>
<time>2010-08-29T16:37:20Z</time>
<desc>lat.=56.040394, lon.=26.378950, Alt.=103.723694m. Speed=23.219999m/h.</desc>
<speed>6.450000</speed>
</trkpt>
<trkpt lat="56.040337" lon="26.378960">
<ele>103.954163</ele>
<time>2010-08-29T16:37:21Z</time>
<desc>lat.=56.040337, lon.=26.378960, Alt.=103.954163m. Speed=22.320000m/h.</desc>
<speed>6.200000</speed>
</trkpt>
<trkpt lat="56.040283" lon="26.378969">
<ele>103.993225</ele>
<time>2010-08-29T16:37:22Z</time>
<desc>lat.=56.040283, lon.=26.378969, Alt.=103.993225m. Speed=21.528000m/h.</desc>
<speed>5.980000</speed>
</trkpt>
<trkpt lat="56.040234" lon="26.378971">
<ele>103.885803</ele>
<time>2010-08-29T16:37:23Z</time>
<desc>lat.=56.040234, lon.=26.378971, Alt.=103.885803m. Speed=20.520000m/h.</desc>
<speed>5.700000</speed>
</trkpt>
<trkpt lat="56.040180" lon="26.378975">
<ele>103.858459</ele>
<time>2010-08-29T16:37:24Z</time>
<desc>lat.=56.040180, lon.=26.378975, Alt.=103.858459m. Speed=20.232000m/h.</desc>
<speed>5.620000</speed>
</trkpt>
<trkpt lat="56.040131" lon="26.378979">
<ele>103.963928</ele>
<time>2010-08-29T16:37:25Z</time>
<desc>lat.=56.040131, lon.=26.378979, Alt.=103.963928m. Speed=20.412001m/h.</desc>
<speed>5.670000</speed>
</trkpt>
<trkpt lat="56.040081" lon="26.378988">
<ele>104.215881</ele>
<time>2010-08-29T16:37:26Z</time>
<desc>lat.=56.040081, lon.=26.378988, Alt.=104.215881m. Speed=19.511999m/h.</desc>
<speed>5.420000</speed>
</trkpt>
<trkpt lat="56.040035" lon="26.379000">
<ele>104.444397</ele>
<time>2010-08-29T16:37:27Z</time>
<desc>lat.=56.040035, lon.=26.379000, Alt.=104.444397m. Speed=20.304001m/h.</desc>
<speed>5.640000</speed>
</trkpt>
<trkpt lat="56.039986" lon="26.379007">
<ele>104.495178</ele>
<time>2010-08-29T16:37:28Z</time>
<desc>lat.=56.039986, lon.=26.379007, Alt.=104.495178m. Speed=21.024000m/h.</desc>
<speed>5.840000</speed>
</trkpt>
<trkpt lat="56.039932" lon="26.379017">
<ele>104.467834</ele>
<time>2010-08-29T16:37:29Z</time>
<desc>lat.=56.039932, lon.=26.379017, Alt.=104.467834m. Speed=21.492001m/h.</desc>
<speed>5.970000</speed>
</trkpt>
<trkpt lat="56.039879" lon="26.379023">
<ele>104.532288</ele>
<time>2010-08-29T16:37:30Z</time>
<desc>lat.=56.039879, lon.=26.379023, Alt.=104.532288m. Speed=21.959999m/h.</desc>
<speed>6.100000</speed>
</trkpt>
<trkpt lat="56.039822" lon="26.379030">
<ele>104.653381</ele>
<time>2010-08-29T16:37:31Z</time>
<desc>lat.=56.039822, lon.=26.379030, Alt.=104.653381m. Speed=22.356001m/h.</desc>
<speed>6.210000</speed>
</trkpt>
<trkpt lat="56.039764" lon="26.379034">
<ele>104.815491</ele>
<time>2010-08-29T16:37:32Z</time>
<desc>lat.=56.039764, lon.=26.379034, Alt.=104.815491m. Speed=22.608000m/h.</desc>
<speed>6.280000</speed>
</trkpt>
<trkpt lat="56.039707" lon="26.379044">
<ele>104.995178</ele>
<time>2010-08-29T16:37:33Z</time>
<desc>lat.=56.039707, lon.=26.379044, Alt.=104.995178m. Speed=23.004000m/h.</desc>
<speed>6.390000</speed>
</trkpt>
<trkpt lat="56.039650" lon="26.379049">
<ele>104.958069</ele>
<time>2010-08-29T16:37:34Z</time>
<desc>lat.=56.039650, lon.=26.379049, Alt.=104.958069m. Speed=23.184000m/h.</desc>
<speed>6.440000</speed>
</trkpt>
<trkpt lat="56.039593" lon="26.379051">
<ele>104.973694</ele>
<time>2010-08-29T16:37:35Z</time>
<desc>lat.=56.039593, lon.=26.379051, Alt.=104.973694m. Speed=22.535999m/h.</desc>
<speed>6.260000</speed>
</trkpt>
<trkpt lat="56.039536" lon="26.379055">
<ele>105.014709</ele>
<time>2010-08-29T16:37:36Z</time>
<desc>lat.=56.039536, lon.=26.379055, Alt.=105.014709m. Speed=21.743999m/h.</desc>
<speed>6.040000</speed>
</trkpt>
<trkpt lat="56.039486" lon="26.379059">
<ele>105.161194</ele>
<time>2010-08-29T16:37:37Z</time>
<desc>lat.=56.039486, lon.=26.379059, Alt.=105.161194m. Speed=20.879999m/h.</desc>
<speed>5.800000</speed>
</trkpt>
<trkpt lat="56.039433" lon="26.379065">
<ele>105.235413</ele>
<time>2010-08-29T16:37:38Z</time>
<desc>lat.=56.039433, lon.=26.379065, Alt.=105.235413m. Speed=19.908001m/h.</desc>
<speed>5.530000</speed>
</trkpt>
<trkpt lat="56.039387" lon="26.379078">
<ele>105.501038</ele>
<time>2010-08-29T16:37:39Z</time>
<desc>lat.=56.039387, lon.=26.379078, Alt.=105.501038m. Speed=18.900000m/h.</desc>
<speed>5.250000</speed>
</trkpt>
<trkpt lat="56.039341" lon="26.379087">
<ele>105.702209</ele>
<time>2010-08-29T16:37:40Z</time>
<desc>lat.=56.039341, lon.=26.379087, Alt.=105.702209m. Speed=18.108000m/h.</desc>
<speed>5.030000</speed>
</trkpt>
<trkpt lat="56.039295" lon="26.379095">
<ele>105.688538</ele>
<time>2010-08-29T16:37:41Z</time>
<desc>lat.=56.039295, lon.=26.379095, Alt.=105.688538m. Speed=17.280001m/h.</desc>
<speed>4.800000</speed>
</trkpt>
<trkpt lat="56.039257" lon="26.379099">
<ele>105.733459</ele>
<time>2010-08-29T16:37:42Z</time>
<desc>lat.=56.039257, lon.=26.379099, Alt.=105.733459m. Speed=16.559999m/h.</desc>
<speed>4.600000</speed>
</trkpt>
<trkpt lat="56.039215" lon="26.379105">
<ele>105.737366</ele>
<time>2010-08-29T16:37:43Z</time>
<desc>lat.=56.039215, lon.=26.379105, Alt.=105.737366m. Speed=15.660000m/h.</desc>
<speed>4.350000</speed>
</trkpt>
<trkpt lat="56.039181" lon="26.379108">
<ele>105.821350</ele>
<time>2010-08-29T16:37:44Z</time>
<desc>lat.=56.039181, lon.=26.379108, Alt.=105.821350m. Speed=15.300000m/h.</desc>
<speed>4.250000</speed>
</trkpt>
<trkpt lat="56.039139" lon="26.379108">
<ele>106.127991</ele>
<time>2010-08-29T16:37:45Z</time>
<desc>lat.=56.039139, lon.=26.379108, Alt.=106.127991m. Speed=14.616000m/h.</desc>
<speed>4.060000</speed>
</trkpt>
<trkpt lat="56.039101" lon="26.379118">
<ele>106.518616</ele>
<time>2010-08-29T16:37:46Z</time>
<desc>lat.=56.039101, lon.=26.379118, Alt.=106.518616m. Speed=17.892000m/h.</desc>
<speed>4.970000</speed>
</trkpt>
<trkpt lat="56.039059" lon="26.379129">
<ele>106.727600</ele>
<time>2010-08-29T16:37:47Z</time>
<desc>lat.=56.039059, lon.=26.379129, Alt.=106.727600m. Speed=17.351999m/h.</desc>
<speed>4.820000</speed>
</trkpt>
<trkpt lat="56.039017" lon="26.379143">
<ele>106.891663</ele>
<time>2010-08-29T16:37:48Z</time>
<desc>lat.=56.039017, lon.=26.379143, Alt.=106.891663m. Speed=17.243999m/h.</desc>
<speed>4.790000</speed>
</trkpt>
<trkpt lat="56.038971" lon="26.379148">
<ele>106.876038</ele>
<time>2010-08-29T16:37:49Z</time>
<desc>lat.=56.038971, lon.=26.379148, Alt.=106.876038m. Speed=18.504000m/h.</desc>
<speed>5.140000</speed>
</trkpt>
<trkpt lat="56.038925" lon="26.379154">
<ele>107.124084</ele>
<time>2010-08-29T16:37:50Z</time>
<desc>lat.=56.038925, lon.=26.379154, Alt.=107.124084m. Speed=19.152000m/h.</desc>
<speed>5.320000</speed>
</trkpt>
<trkpt lat="56.038876" lon="26.379162">
<ele>107.018616</ele>
<time>2010-08-29T16:37:51Z</time>
<desc>lat.=56.038876, lon.=26.379162, Alt.=107.018616m. Speed=20.375999m/h.</desc>
<speed>5.660000</speed>
</trkpt>
<trkpt lat="56.038830" lon="26.379171">
<ele>107.448303</ele>
<time>2010-08-29T16:37:52Z</time>
<desc>lat.=56.038830, lon.=26.379171, Alt.=107.448303m. Speed=19.584000m/h.</desc>
<speed>5.440000</speed>
</trkpt>
<trkpt lat="56.038780" lon="26.379181">
<ele>107.704163</ele>
<time>2010-08-29T16:37:53Z</time>
<desc>lat.=56.038780, lon.=26.379181, Alt.=107.704163m. Speed=19.944000m/h.</desc>
<speed>5.540000</speed>
</trkpt>
<trkpt lat="56.038734" lon="26.379190">
<ele>108.020569</ele>
<time>2010-08-29T16:37:54Z</time>
<desc>lat.=56.038734, lon.=26.379190, Alt.=108.020569m. Speed=19.260000m/h.</desc>
<speed>5.350000</speed>
</trkpt>
<trkpt lat="56.038685" lon="26.379196">
<ele>108.092834</ele>
<time>2010-08-29T16:37:55Z</time>
<desc>lat.=56.038685, lon.=26.379196, Alt.=108.092834m. Speed=19.691999m/h.</desc>
<speed>5.470000</speed>
</trkpt>
<trkpt lat="56.038635" lon="26.379208">
<ele>108.372131</ele>
<time>2010-08-29T16:37:56Z</time>
<desc>lat.=56.038635, lon.=26.379208, Alt.=108.372131m. Speed=18.576000m/h.</desc>
<speed>5.160000</speed>
</trkpt>
<trkpt lat="56.038589" lon="26.379219">
<ele>108.565491</ele>
<time>2010-08-29T16:37:57Z</time>
<desc>lat.=56.038589, lon.=26.379219, Alt.=108.565491m. Speed=17.784000m/h.</desc>
<speed>4.940000</speed>
</trkpt>
<trkpt lat="56.038540" lon="26.379213">
<ele>107.561584</ele>
<time>2010-08-29T16:37:58Z</time>
<desc>lat.=56.038540, lon.=26.379213, Alt.=107.561584m. Speed=17.316000m/h.</desc>
<speed>4.810000</speed>
</trkpt>
<trkpt lat="56.038498" lon="26.379211">
<ele>107.612366</ele>
<time>2010-08-29T16:37:59Z</time>
<desc>lat.=56.038498, lon.=26.379211, Alt.=107.612366m. Speed=17.856001m/h.</desc>
<speed>4.960000</speed>
</trkpt>
<trkpt lat="56.038452" lon="26.379215">
<ele>107.547913</ele>
<time>2010-08-29T16:38:00Z</time>
<desc>lat.=56.038452, lon.=26.379215, Alt.=107.547913m. Speed=18.792000m/h.</desc>
<speed>5.220000</speed>
</trkpt>
<trkpt lat="56.038406" lon="26.379225">
<ele>108.040100</ele>
<time>2010-08-29T16:38:01Z</time>
<desc>lat.=56.038406, lon.=26.379225, Alt.=108.040100m. Speed=17.820000m/h.</desc>
<speed>4.950000</speed>
</trkpt>
<trkpt lat="56.038361" lon="26.379230">
<ele>108.151428</ele>
<time>2010-08-29T16:38:02Z</time>
<desc>lat.=56.038361, lon.=26.379230, Alt.=108.151428m. Speed=18.288000m/h.</desc>
<speed>5.080000</speed>
</trkpt>
<trkpt lat="56.038315" lon="26.379234">
<ele>107.934631</ele>
<time>2010-08-29T16:38:03Z</time>
<desc>lat.=56.038315, lon.=26.379234, Alt.=107.934631m. Speed=18.936001m/h.</desc>
<speed>5.260000</speed>
</trkpt>
<trkpt lat="56.038265" lon="26.379240">
<ele>107.993225</ele>
<time>2010-08-29T16:38:04Z</time>
<desc>lat.=56.038265, lon.=26.379240, Alt.=107.993225m. Speed=18.936001m/h.</desc>
<speed>5.260000</speed>
</trkpt>
<trkpt lat="56.038219" lon="26.379250">
<ele>108.247131</ele>
<time>2010-08-29T16:38:05Z</time>
<desc>lat.=56.038219, lon.=26.379250, Alt.=108.247131m. Speed=18.900000m/h.</desc>
<speed>5.250000</speed>
</trkpt>
<trkpt lat="56.038174" lon="26.379255">
<ele>108.299866</ele>
<time>2010-08-29T16:38:06Z</time>
<desc>lat.=56.038174, lon.=26.379255, Alt.=108.299866m. Speed=18.936001m/h.</desc>
<speed>5.260000</speed>
</trkpt>
<trkpt lat="56.038128" lon="26.379259">
<ele>108.217834</ele>
<time>2010-08-29T16:38:07Z</time>
<desc>lat.=56.038128, lon.=26.379259, Alt.=108.217834m. Speed=18.756001m/h.</desc>
<speed>5.210000</speed>
</trkpt>
<trkpt lat="56.038078" lon="26.379265">
<ele>108.235413</ele>
<time>2010-08-29T16:38:08Z</time>
<desc>lat.=56.038078, lon.=26.379265, Alt.=108.235413m. Speed=19.044001m/h.</desc>
<speed>5.290000</speed>
</trkpt>
<trkpt lat="56.038029" lon="26.379272">
<ele>108.344788</ele>
<time>2010-08-29T16:38:09Z</time>
<desc>lat.=56.038029, lon.=26.379272, Alt.=108.344788m. Speed=19.224001m/h.</desc>
<speed>5.340000</speed>
</trkpt>
<trkpt lat="56.037979" lon="26.379278">
<ele>108.213928</ele>
<time>2010-08-29T16:38:10Z</time>
<desc>lat.=56.037979, lon.=26.379278, Alt.=108.213928m. Speed=19.260000m/h.</desc>
<speed>5.350000</speed>
</trkpt>
<trkpt lat="56.037933" lon="26.379284">
<ele>108.311584</ele>
<time>2010-08-29T16:38:11Z</time>
<desc>lat.=56.037933, lon.=26.379284, Alt.=108.311584m. Speed=19.548000m/h.</desc>
<speed>5.430000</speed>
</trkpt>
<trkpt lat="56.037884" lon="26.379290">
<ele>108.399475</ele>
<time>2010-08-29T16:38:12Z</time>
<desc>lat.=56.037884, lon.=26.379290, Alt.=108.399475m. Speed=19.691999m/h.</desc>
<speed>5.470000</speed>
</trkpt>
<trkpt lat="56.037838" lon="26.379297">
<ele>108.280334</ele>
<time>2010-08-29T16:38:13Z</time>
<desc>lat.=56.037838, lon.=26.379297, Alt.=108.280334m. Speed=19.799999m/h.</desc>
<speed>5.500000</speed>
</trkpt>
<trkpt lat="56.037785" lon="26.379303">
<ele>108.077209</ele>
<time>2010-08-29T16:38:14Z</time>
<desc>lat.=56.037785, lon.=26.379303, Alt.=108.077209m. Speed=19.836000m/h.</desc>
<speed>5.510000</speed>
</trkpt>
<trkpt lat="56.037735" lon="26.379311">
<ele>107.815491</ele>
<time>2010-08-29T16:38:15Z</time>
<desc>lat.=56.037735, lon.=26.379311, Alt.=107.815491m. Speed=19.260000m/h.</desc>
<speed>5.350000</speed>
</trkpt>
<trkpt lat="56.037685" lon="26.379322">
<ele>107.680725</ele>
<time>2010-08-29T16:38:16Z</time>
<desc>lat.=56.037685, lon.=26.379322, Alt.=107.680725m. Speed=18.648001m/h.</desc>
<speed>5.180000</speed>
</trkpt>
<trkpt lat="56.037640" lon="26.379324">
<ele>107.776428</ele>
<time>2010-08-29T16:38:17Z</time>
<desc>lat.=56.037640, lon.=26.379324, Alt.=107.776428m. Speed=17.316000m/h.</desc>
<speed>4.810000</speed>
</trkpt>
<trkpt lat="56.037601" lon="26.379324">
<ele>107.860413</ele>
<time>2010-08-29T16:38:18Z</time>
<desc>lat.=56.037601, lon.=26.379324, Alt.=107.860413m. Speed=15.048000m/h.</desc>
<speed>4.180000</speed>
</trkpt>
<trkpt lat="56.037563" lon="26.379330">
<ele>107.958069</ele>
<time>2010-08-29T16:38:19Z</time>
<desc>lat.=56.037563, lon.=26.379330, Alt.=107.958069m. Speed=12.852000m/h.</desc>
<speed>3.570000</speed>
</trkpt>
<trkpt lat="56.037537" lon="26.379335">
<ele>108.034241</ele>
<time>2010-08-29T16:38:20Z</time>
<desc>lat.=56.037537, lon.=26.379335, Alt.=108.034241m. Speed=10.080000m/h.</desc>
<speed>2.800000</speed>
</trkpt>
<trkpt lat="56.037514" lon="26.379332">
<ele>107.922913</ele>
<time>2010-08-29T16:38:21Z</time>
<desc>lat.=56.037514, lon.=26.379332, Alt.=107.922913m. Speed=8.280000m/h.</desc>
<speed>2.300000</speed>
</trkpt>
<trkpt lat="56.037498" lon="26.379322">
<ele>107.715881</ele>
<time>2010-08-29T16:38:22Z</time>
<desc>lat.=56.037498, lon.=26.379322, Alt.=107.715881m. Speed=7.524000m/h.</desc>
<speed>2.090000</speed>
</trkpt>
<trkpt lat="56.037483" lon="26.379301">
<ele>107.413147</ele>
<time>2010-08-29T16:38:23Z</time>
<desc>lat.=56.037483, lon.=26.379301, Alt.=107.413147m. Speed=7.812000m/h.</desc>
<speed>2.170000</speed>
</trkpt>
<trkpt lat="56.037472" lon="26.379278">
<ele>107.026428</ele>
<time>2010-08-29T16:38:24Z</time>
<desc>lat.=56.037472, lon.=26.379278, Alt.=107.026428m. Speed=6.876000m/h.</desc>
<speed>1.910000</speed>
</trkpt>
<trkpt lat="56.037460" lon="26.379263">
<ele>106.909241</ele>
<time>2010-08-29T16:38:25Z</time>
<desc>lat.=56.037460, lon.=26.379263, Alt.=106.909241m. Speed=3.600000m/h.</desc>
<speed>1.000000</speed>
</trkpt>
<trkpt lat="56.037460" lon="26.379257">
<ele>106.645569</ele>
<time>2010-08-29T16:38:26Z</time>
<desc>lat.=56.037460, lon.=26.379257, Alt.=106.645569m. Speed=0.504000m/h.</desc>
<speed>0.140000</speed>
</trkpt>
<trkpt lat="56.037460" lon="26.379255">
<ele>106.590881</ele>
<time>2010-08-29T16:38:27Z</time>
<desc>lat.=56.037460, lon.=26.379255, Alt.=106.590881m. Speed=0.216000m/h.</desc>
<speed>0.060000</speed>
</trkpt>
<trkpt lat="56.037464" lon="26.379253">
<ele>106.608459</ele>
<time>2010-08-29T16:38:28Z</time>
<desc>lat.=56.037464, lon.=26.379253, Alt.=106.608459m. Speed=0.108000m/h.</desc>
<speed>0.030000</speed>
</trkpt>
<trkpt lat="56.037464" lon="26.379251">
<ele>106.729553</ele>
<time>2010-08-29T16:38:29Z</time>
<desc>lat.=56.037464, lon.=26.379251, Alt.=106.729553m. Speed=0.108000m/h.</desc>
<speed>0.030000</speed>
</trkpt>
<trkpt lat="56.037464" lon="26.379251">
<ele>106.706116</ele>
<time>2010-08-29T16:38:30Z</time>
<desc>lat.=56.037464, lon.=26.379251, Alt.=106.706116m. Speed=0.072000m/h.</desc>
<speed>0.020000</speed>
</trkpt>
<trkpt lat="56.037464" lon="26.379251">
<ele>106.688538</ele>
<time>2010-08-29T16:38:31Z</time>
<desc>lat.=56.037464, lon.=26.379251, Alt.=106.688538m. Speed=0.036000m/h.</desc>
<speed>0.010000</speed>
</trkpt>
<trkpt lat="56.037464" lon="26.379251">
<ele>106.684631</ele>
<time>2010-08-29T16:38:32Z</time>
<desc>lat.=56.037464, lon.=26.379251, Alt.=106.684631m. Speed=0.324000m/h.</desc>
<speed>0.090000</speed>
</trkpt>
<trkpt lat="56.037464" lon="26.379251">
<ele>106.805725</ele>
<time>2010-08-29T16:38:33Z</time>
<desc>lat.=56.037464, lon.=26.379251, Alt.=106.805725m. Speed=0.000000m/h.</desc>
<speed>0.000000</speed>
</trkpt>
<trkpt lat="56.037464" lon="26.379251">
<ele>106.811584</ele>
<time>2010-08-29T16:38:34Z</time>
<desc>lat.=56.037464, lon.=26.379251, Alt.=106.811584m. Speed=1.548000m/h.</desc>
<speed>0.430000</speed>
</trkpt>
<trkpt lat="56.037460" lon="26.379257">
<ele>106.747131</ele>
<time>2010-08-29T16:38:35Z</time>
<desc>lat.=56.037460, lon.=26.379257, Alt.=106.747131m. Speed=1.764000m/h.</desc>
<speed>0.490000</speed>
</trkpt>
<trkpt lat="56.037457" lon="26.379261">
<ele>106.698303</ele>
<time>2010-08-29T16:38:36Z</time>
<desc>lat.=56.037457, lon.=26.379261, Alt.=106.698303m. Speed=3.240000m/h.</desc>
<speed>0.900000</speed>
</trkpt>
<trkpt lat="56.037453" lon="26.379272">
<ele>106.905334</ele>
<time>2010-08-29T16:38:37Z</time>
<desc>lat.=56.037453, lon.=26.379272, Alt.=106.905334m. Speed=2.196000m/h.</desc>
<speed>0.610000</speed>
</trkpt>
<trkpt lat="56.037449" lon="26.379280">
<ele>107.112366</ele>
<time>2010-08-29T16:38:38Z</time>
<desc>lat.=56.037449, lon.=26.379280, Alt.=107.112366m. Speed=2.484000m/h.</desc>
<speed>0.690000</speed>
</trkpt>
<trkpt lat="56.037445" lon="26.379290">
<ele>107.317444</ele>
<time>2010-08-29T16:38:39Z</time>
<desc>lat.=56.037445, lon.=26.379290, Alt.=107.317444m. Speed=4.104000m/h.</desc>
<speed>1.140000</speed>
</trkpt>
<trkpt lat="56.037441" lon="26.379303">
<ele>107.405334</ele>
<time>2010-08-29T16:38:40Z</time>
<desc>lat.=56.037441, lon.=26.379303, Alt.=107.405334m. Speed=2.196000m/h.</desc>
<speed>0.610000</speed>
</trkpt>
<trkpt lat="56.037441" lon="26.379311">
<ele>107.551819</ele>
<time>2010-08-29T16:38:41Z</time>
<desc>lat.=56.037441, lon.=26.379311, Alt.=107.551819m. Speed=3.564000m/h.</desc>
<speed>0.990000</speed>
</trkpt>
<trkpt lat="56.037434" lon="26.379332">
<ele>107.518616</ele>
<time>2010-08-29T16:38:42Z</time>
<desc>lat.=56.037434, lon.=26.379332, Alt.=107.518616m. Speed=7.164000m/h.</desc>
<speed>1.990000</speed>
</trkpt>
<trkpt lat="56.037415" lon="26.379343">
<ele>107.301819</ele>
<time>2010-08-29T16:38:43Z</time>
<desc>lat.=56.037415, lon.=26.379343, Alt.=107.301819m. Speed=8.208000m/h.</desc>
<speed>2.280000</speed>
</trkpt>
<trkpt lat="56.037392" lon="26.379356">
<ele>107.133850</ele>
<time>2010-08-29T16:38:44Z</time>
<desc>lat.=56.037392, lon.=26.379356, Alt.=107.133850m. Speed=10.656000m/h.</desc>
<speed>2.960000</speed>
</trkpt>
<trkpt lat="56.037361" lon="26.379364">
<ele>107.161194</ele>
<time>2010-08-29T16:38:45Z</time>
<desc>lat.=56.037361, lon.=26.379364, Alt.=107.161194m. Speed=11.736000m/h.</desc>
<speed>3.260000</speed>
</trkpt>
<trkpt lat="56.037331" lon="26.379372">
<ele>107.251038</ele>
<time>2010-08-29T16:38:46Z</time>
<desc>lat.=56.037331, lon.=26.379372, Alt.=107.251038m. Speed=12.096000m/h.</desc>
<speed>3.360000</speed>
</trkpt>
<trkpt lat="56.037304" lon="26.379383">
<ele>107.395569</ele>
<time>2010-08-29T16:38:47Z</time>
<desc>lat.=56.037304, lon.=26.379383, Alt.=107.395569m. Speed=12.276000m/h.</desc>
<speed>3.410000</speed>
</trkpt>
<trkpt lat="56.037273" lon="26.379391">
<ele>107.581116</ele>
<time>2010-08-29T16:38:48Z</time>
<desc>lat.=56.037273, lon.=26.379391, Alt.=107.581116m. Speed=12.780000m/h.</desc>
<speed>3.550000</speed>
</trkpt>
<trkpt lat="56.037239" lon="26.379398">
<ele>107.737366</ele>
<time>2010-08-29T16:38:49Z</time>
<desc>lat.=56.037239, lon.=26.379398, Alt.=107.737366m. Speed=13.428000m/h.</desc>
<speed>3.730000</speed>
</trkpt>
<trkpt lat="56.037205" lon="26.379400">
<ele>107.950256</ele>
<time>2010-08-29T16:38:50Z</time>
<desc>lat.=56.037205, lon.=26.379400, Alt.=107.950256m. Speed=14.724000m/h.</desc>
<speed>4.090000</speed>
</trkpt>
<trkpt lat="56.037170" lon="26.379398">
<ele>107.985413</ele>
<time>2010-08-29T16:38:51Z</time>
<desc>lat.=56.037170, lon.=26.379398, Alt.=107.985413m. Speed=15.552000m/h.</desc>
<speed>4.320000</speed>
</trkpt>
<trkpt lat="56.037128" lon="26.379402">
<ele>108.065491</ele>
<time>2010-08-29T16:38:52Z</time>
<desc>lat.=56.037128, lon.=26.379402, Alt.=108.065491m. Speed=16.020000m/h.</desc>
<speed>4.450000</speed>
</trkpt>
<trkpt lat="56.037086" lon="26.379406">
<ele>108.172913</ele>
<time>2010-08-29T16:38:53Z</time>
<desc>lat.=56.037086, lon.=26.379406, Alt.=108.172913m. Speed=16.884001m/h.</desc>
<speed>4.690000</speed>
</trkpt>
<trkpt lat="56.037041" lon="26.379416">
<ele>108.249084</ele>
<time>2010-08-29T16:38:54Z</time>
<desc>lat.=56.037041, lon.=26.379416, Alt.=108.249084m. Speed=18.035999m/h.</desc>
<speed>5.010000</speed>
</trkpt>
<trkpt lat="56.036995" lon="26.379421">
<ele>108.053772</ele>
<time>2010-08-29T16:38:55Z</time>
<desc>lat.=56.036995, lon.=26.379421, Alt.=108.053772m. Speed=19.080000m/h.</desc>
<speed>5.300000</speed>
</trkpt>
<trkpt lat="56.036945" lon="26.379427">
<ele>108.065491</ele>
<time>2010-08-29T16:38:56Z</time>
<desc>lat.=56.036945, lon.=26.379427, Alt.=108.065491m. Speed=19.368000m/h.</desc>
<speed>5.380000</speed>
</trkpt>
<trkpt lat="56.036892" lon="26.379435">
<ele>107.866272</ele>
<time>2010-08-29T16:38:57Z</time>
<desc>lat.=56.036892, lon.=26.379435, Alt.=107.866272m. Speed=19.799999m/h.</desc>
<speed>5.500000</speed>
</trkpt>
<trkpt lat="56.036839" lon="26.379440">
<ele>107.590881</ele>
<time>2010-08-29T16:38:58Z</time>
<desc>lat.=56.036839, lon.=26.379440, Alt.=107.590881m. Speed=20.520000m/h.</desc>
<speed>5.700000</speed>
</trkpt>
<trkpt lat="56.036789" lon="26.379450">
<ele>107.696350</ele>
<time>2010-08-29T16:38:59Z</time>
<desc>lat.=56.036789, lon.=26.379450, Alt.=107.696350m. Speed=20.844000m/h.</desc>
<speed>5.790000</speed>
</trkpt>
<trkpt lat="56.036736" lon="26.379457">
<ele>107.766663</ele>
<time>2010-08-29T16:39:00Z</time>
<desc>lat.=56.036736, lon.=26.379457, Alt.=107.766663m. Speed=21.455999m/h.</desc>
<speed>5.960000</speed>
</trkpt>
<trkpt lat="56.036682" lon="26.379465">
<ele>107.835022</ele>
<time>2010-08-29T16:39:01Z</time>
<desc>lat.=56.036682, lon.=26.379465, Alt.=107.835022m. Speed=21.743999m/h.</desc>
<speed>6.040000</speed>
</trkpt>
<trkpt lat="56.036625" lon="26.379475">
<ele>107.618225</ele>
<time>2010-08-29T16:39:02Z</time>
<desc>lat.=56.036625, lon.=26.379475, Alt.=107.618225m. Speed=22.068001m/h.</desc>
<speed>6.130000</speed>
</trkpt>
<trkpt lat="56.036568" lon="26.379488">
<ele>107.969788</ele>
<time>2010-08-29T16:39:03Z</time>
<desc>lat.=56.036568, lon.=26.379488, Alt.=107.969788m. Speed=22.572001m/h.</desc>
<speed>6.270000</speed>
</trkpt>
<trkpt lat="56.036510" lon="26.379496">
<ele>108.198303</ele>
<time>2010-08-29T16:39:04Z</time>
<desc>lat.=56.036510, lon.=26.379496, Alt.=108.198303m. Speed=22.680000m/h.</desc>
<speed>6.300000</speed>
</trkpt>
<trkpt lat="56.036453" lon="26.379505">
<ele>108.135803</ele>
<time>2010-08-29T16:39:05Z</time>
<desc>lat.=56.036453, lon.=26.379505, Alt.=108.135803m. Speed=22.968000m/h.</desc>
<speed>6.380000</speed>
</trkpt>
<trkpt lat="56.036396" lon="26.379515">
<ele>108.249084</ele>
<time>2010-08-29T16:39:06Z</time>
<desc>lat.=56.036396, lon.=26.379515, Alt.=108.249084m. Speed=22.212000m/h.</desc>
<speed>6.170000</speed>
</trkpt>
<trkpt lat="56.036343" lon="26.379524">
<ele>108.399475</ele>
<time>2010-08-29T16:39:07Z</time>
<desc>lat.=56.036343, lon.=26.379524, Alt.=108.399475m. Speed=21.275999m/h.</desc>
<speed>5.910000</speed>
</trkpt>
<trkpt lat="56.036289" lon="26.379528">
<ele>108.395569</ele>
<time>2010-08-29T16:39:08Z</time>
<desc>lat.=56.036289, lon.=26.379528, Alt.=108.395569m. Speed=20.916000m/h.</desc>
<speed>5.810000</speed>
</trkpt>
<trkpt lat="56.036236" lon="26.379538">
<ele>108.491272</ele>
<time>2010-08-29T16:39:09Z</time>
<desc>lat.=56.036236, lon.=26.379538, Alt.=108.491272m. Speed=21.851999m/h.</desc>
<speed>6.070000</speed>
</trkpt>
<trkpt lat="56.036179" lon="26.379543">
<ele>108.544006</ele>
<time>2010-08-29T16:39:10Z</time>
<desc>lat.=56.036179, lon.=26.379543, Alt.=108.544006m. Speed=22.500000m/h.</desc>
<speed>6.250000</speed>
</trkpt>
<trkpt lat="56.036121" lon="26.379551">
<ele>108.528381</ele>
<time>2010-08-29T16:39:11Z</time>
<desc>lat.=56.036121, lon.=26.379551, Alt.=108.528381m. Speed=23.256001m/h.</desc>
<speed>6.460000</speed>
</trkpt>
<trkpt lat="56.036068" lon="26.379562">
<ele>108.977600</ele>
<time>2010-08-29T16:39:12Z</time>
<desc>lat.=56.036068, lon.=26.379562, Alt.=108.977600m. Speed=23.256001m/h.</desc>
<speed>6.460000</speed>
</trkpt>
<trkpt lat="56.036011" lon="26.379572">
<ele>109.229553</ele>
<time>2010-08-29T16:39:13Z</time>
<desc>lat.=56.036011, lon.=26.379572, Alt.=109.229553m. Speed=24.048000m/h.</desc>
<speed>6.680000</speed>
</trkpt>
<trkpt lat="56.035946" lon="26.379572">
<ele>109.424866</ele>
<time>2010-08-29T16:39:14Z</time>
<desc>lat.=56.035946, lon.=26.379572, Alt.=109.424866m. Speed=24.875999m/h.</desc>
<speed>6.910000</speed>
</trkpt>
<trkpt lat="56.035885" lon="26.379581">
<ele>109.549866</ele>
<time>2010-08-29T16:39:15Z</time>
<desc>lat.=56.035885, lon.=26.379581, Alt.=109.549866m. Speed=24.552000m/h.</desc>
<speed>6.820000</speed>
</trkpt>
<trkpt lat="56.035824" lon="26.379589">
<ele>109.602600</ele>
<time>2010-08-29T16:39:16Z</time>
<desc>lat.=56.035824, lon.=26.379589, Alt.=109.602600m. Speed=23.868000m/h.</desc>
<speed>6.630000</speed>
</trkpt>
<trkpt lat="56.035767" lon="26.379601">
<ele>109.739319</ele>
<time>2010-08-29T16:39:17Z</time>
<desc>lat.=56.035767, lon.=26.379601, Alt.=109.739319m. Speed=23.040001m/h.</desc>
<speed>6.400000</speed>
</trkpt>
<trkpt lat="56.035709" lon="26.379608">
<ele>109.823303</ele>
<time>2010-08-29T16:39:18Z</time>
<desc>lat.=56.035709, lon.=26.379608, Alt.=109.823303m. Speed=22.535999m/h.</desc>
<speed>6.260000</speed>
</trkpt>
<trkpt lat="56.035652" lon="26.379618">
<ele>109.872131</ele>
<time>2010-08-29T16:39:19Z</time>
<desc>lat.=56.035652, lon.=26.379618, Alt.=109.872131m. Speed=22.860001m/h.</desc>
<speed>6.350000</speed>
</trkpt>
<trkpt lat="56.035595" lon="26.379629">
<ele>110.086975</ele>
<time>2010-08-29T16:39:20Z</time>
<desc>lat.=56.035595, lon.=26.379629, Alt.=110.086975m. Speed=23.580000m/h.</desc>
<speed>6.550000</speed>
</trkpt>
<trkpt lat="56.035538" lon="26.379639">
<ele>110.094788</ele>
<time>2010-08-29T16:39:21Z</time>
<desc>lat.=56.035538, lon.=26.379639, Alt.=110.094788m. Speed=23.868000m/h.</desc>
<speed>6.630000</speed>
</trkpt>
<trkpt lat="56.035477" lon="26.379646">
<ele>110.192444</ele>
<time>2010-08-29T16:39:22Z</time>
<desc>lat.=56.035477, lon.=26.379646, Alt.=110.192444m. Speed=24.156000m/h.</desc>
<speed>6.710000</speed>
</trkpt>
<trkpt lat="56.035416" lon="26.379656">
<ele>110.333069</ele>
<time>2010-08-29T16:39:23Z</time>
<desc>lat.=56.035416, lon.=26.379656, Alt.=110.333069m. Speed=23.688000m/h.</desc>
<speed>6.580000</speed>
</trkpt>
<trkpt lat="56.035358" lon="26.379665">
<ele>110.311584</ele>
<time>2010-08-29T16:39:24Z</time>
<desc>lat.=56.035358, lon.=26.379665, Alt.=110.311584m. Speed=23.004000m/h.</desc>
<speed>6.390000</speed>
</trkpt>
<trkpt lat="56.035297" lon="26.379673">
<ele>110.163147</ele>
<time>2010-08-29T16:39:25Z</time>
<desc>lat.=56.035297, lon.=26.379673, Alt.=110.163147m. Speed=22.356001m/h.</desc>
<speed>6.210000</speed>
</trkpt>
<trkpt lat="56.035244" lon="26.379681">
<ele>110.184631</ele>
<time>2010-08-29T16:39:26Z</time>
<desc>lat.=56.035244, lon.=26.379681, Alt.=110.184631m. Speed=21.672001m/h.</desc>
<speed>6.020000</speed>
</trkpt>
<trkpt lat="56.035194" lon="26.379690">
<ele>110.268616</ele>
<time>2010-08-29T16:39:27Z</time>
<desc>lat.=56.035194, lon.=26.379690, Alt.=110.268616m. Speed=20.988001m/h.</desc>
<speed>5.830000</speed>
</trkpt>
<trkpt lat="56.035145" lon="26.379700">
<ele>110.295959</ele>
<time>2010-08-29T16:39:28Z</time>
<desc>lat.=56.035145, lon.=26.379700, Alt.=110.295959m. Speed=20.340000m/h.</desc>
<speed>5.650000</speed>
</trkpt>
<trkpt lat="56.035091" lon="26.379704">
<ele>109.901428</ele>
<time>2010-08-29T16:39:29Z</time>
<desc>lat.=56.035091, lon.=26.379704, Alt.=109.901428m. Speed=20.195999m/h.</desc>
<speed>5.610000</speed>
</trkpt>
<trkpt lat="56.035042" lon="26.379707">
<ele>109.692444</ele>
<time>2010-08-29T16:39:30Z</time>
<desc>lat.=56.035042, lon.=26.379707, Alt.=109.692444m. Speed=20.916000m/h.</desc>
<speed>5.810000</speed>
</trkpt>
<trkpt lat="56.034988" lon="26.379709">
<ele>109.600647</ele>
<time>2010-08-29T16:39:31Z</time>
<desc>lat.=56.034988, lon.=26.379709, Alt.=109.600647m. Speed=21.096001m/h.</desc>
<speed>5.860000</speed>
</trkpt>
<trkpt lat="56.034939" lon="26.379713">
<ele>109.622131</ele>
<time>2010-08-29T16:39:32Z</time>
<desc>lat.=56.034939, lon.=26.379713, Alt.=109.622131m. Speed=21.420000m/h.</desc>
<speed>5.950000</speed>
</trkpt>
<trkpt lat="56.034885" lon="26.379719">
<ele>109.727600</ele>
<time>2010-08-29T16:39:33Z</time>
<desc>lat.=56.034885, lon.=26.379719, Alt.=109.727600m. Speed=21.743999m/h.</desc>
<speed>6.040000</speed>
</trkpt>
<trkpt lat="56.034832" lon="26.379726">
<ele>109.729553</ele>
<time>2010-08-29T16:39:34Z</time>
<desc>lat.=56.034832, lon.=26.379726, Alt.=109.729553m. Speed=21.528000m/h.</desc>
<speed>5.980000</speed>
</trkpt>
<trkpt lat="56.034779" lon="26.379732">
<ele>109.555725</ele>
<time>2010-08-29T16:39:35Z</time>
<desc>lat.=56.034779, lon.=26.379732, Alt.=109.555725m. Speed=20.808001m/h.</desc>
<speed>5.780000</speed>
</trkpt>
<trkpt lat="56.034725" lon="26.379738">
<ele>109.485413</ele>
<time>2010-08-29T16:39:36Z</time>
<desc>lat.=56.034725, lon.=26.379738, Alt.=109.485413m. Speed=20.160000m/h.</desc>
<speed>5.600000</speed>
</trkpt>
<trkpt lat="56.034679" lon="26.379744">
<ele>109.465881</ele>
<time>2010-08-29T16:39:37Z</time>
<desc>lat.=56.034679, lon.=26.379744, Alt.=109.465881m. Speed=19.764000m/h.</desc>
<speed>5.490000</speed>
</trkpt>
<trkpt lat="56.034630" lon="26.379749">
<ele>109.524475</ele>
<time>2010-08-29T16:39:38Z</time>
<desc>lat.=56.034630, lon.=26.379749, Alt.=109.524475m. Speed=19.260000m/h.</desc>
<speed>5.350000</speed>
</trkpt>
<trkpt lat="56.034580" lon="26.379751">
<ele>109.270569</ele>
<time>2010-08-29T16:39:39Z</time>
<desc>lat.=56.034580, lon.=26.379751, Alt.=109.270569m. Speed=18.540001m/h.</desc>
<speed>5.150000</speed>
</trkpt>
<trkpt lat="56.034538" lon="26.379761">
<ele>109.305725</ele>
<time>2010-08-29T16:39:40Z</time>
<desc>lat.=56.034538, lon.=26.379761, Alt.=109.305725m. Speed=17.820000m/h.</desc>
<speed>4.950000</speed>
</trkpt>
<trkpt lat="56.034496" lon="26.379770">
<ele>109.301819</ele>
<time>2010-08-29T16:39:41Z</time>
<desc>lat.=56.034496, lon.=26.379770, Alt.=109.301819m. Speed=17.532000m/h.</desc>
<speed>4.870000</speed>
</trkpt>
<trkpt lat="56.034451" lon="26.379782">
<ele>109.295959</ele>
<time>2010-08-29T16:39:42Z</time>
<desc>lat.=56.034451, lon.=26.379782, Alt.=109.295959m. Speed=17.532000m/h.</desc>
<speed>4.870000</speed>
</trkpt>
<trkpt lat="56.034409" lon="26.379795">
<ele>109.442444</ele>
<time>2010-08-29T16:39:43Z</time>
<desc>lat.=56.034409, lon.=26.379795, Alt.=109.442444m. Speed=17.351999m/h.</desc>
<speed>4.820000</speed>
</trkpt>
<trkpt lat="56.034363" lon="26.379808">
<ele>109.672913</ele>
<time>2010-08-29T16:39:44Z</time>
<desc>lat.=56.034363, lon.=26.379808, Alt.=109.672913m. Speed=18.180000m/h.</desc>
<speed>5.050000</speed>
</trkpt>
<trkpt lat="56.034317" lon="26.379818">
<ele>109.879944</ele>
<time>2010-08-29T16:39:45Z</time>
<desc>lat.=56.034317, lon.=26.379818, Alt.=109.879944m. Speed=18.827999m/h.</desc>
<speed>5.230000</speed>
</trkpt>
<trkpt lat="56.034271" lon="26.379829">
<ele>109.940491</ele>
<time>2010-08-29T16:39:46Z</time>
<desc>lat.=56.034271, lon.=26.379829, Alt.=109.940491m. Speed=19.440001m/h.</desc>
<speed>5.400000</speed>
</trkpt>
<trkpt lat="56.034222" lon="26.379841">
<ele>109.840881</ele>
<time>2010-08-29T16:39:47Z</time>
<desc>lat.=56.034222, lon.=26.379841, Alt.=109.840881m. Speed=20.232000m/h.</desc>
<speed>5.620000</speed>
</trkpt>
<trkpt lat="56.034172" lon="26.379845">
<ele>109.745178</ele>
<time>2010-08-29T16:39:48Z</time>
<desc>lat.=56.034172, lon.=26.379845, Alt.=109.745178m. Speed=20.412001m/h.</desc>
<speed>5.670000</speed>
</trkpt>
<trkpt lat="56.034119" lon="26.379856">
<ele>109.788147</ele>
<time>2010-08-29T16:39:49Z</time>
<desc>lat.=56.034119, lon.=26.379856, Alt.=109.788147m. Speed=20.628000m/h.</desc>
<speed>5.730000</speed>
</trkpt>
<trkpt lat="56.034069" lon="26.379864">
<ele>109.674866</ele>
<time>2010-08-29T16:39:50Z</time>
<desc>lat.=56.034069, lon.=26.379864, Alt.=109.674866m. Speed=20.916000m/h.</desc>
<speed>5.810000</speed>
</trkpt>
<trkpt lat="56.034016" lon="26.379873">
<ele>109.643616</ele>
<time>2010-08-29T16:39:51Z</time>
<desc>lat.=56.034016, lon.=26.379873, Alt.=109.643616m. Speed=21.132000m/h.</desc>
<speed>5.870000</speed>
</trkpt>
<trkpt lat="56.033962" lon="26.379881">
<ele>109.592834</ele>
<time>2010-08-29T16:39:52Z</time>
<desc>lat.=56.033962, lon.=26.379881, Alt.=109.592834m. Speed=21.455999m/h.</desc>
<speed>5.960000</speed>
</trkpt>
<trkpt lat="56.033913" lon="26.379890">
<ele>109.624084</ele>
<time>2010-08-29T16:39:53Z</time>
<desc>lat.=56.033913, lon.=26.379890, Alt.=109.624084m. Speed=21.816000m/h.</desc>
<speed>6.060000</speed>
</trkpt>
<trkpt lat="56.033859" lon="26.379900">
<ele>109.547913</ele>
<time>2010-08-29T16:39:54Z</time>
<desc>lat.=56.033859, lon.=26.379900, Alt.=109.547913m. Speed=21.924000m/h.</desc>
<speed>6.090000</speed>
</trkpt>
<trkpt lat="56.033806" lon="26.379913">
<ele>109.510803</ele>
<time>2010-08-29T16:39:55Z</time>
<desc>lat.=56.033806, lon.=26.379913, Alt.=109.510803m. Speed=21.959999m/h.</desc>
<speed>6.100000</speed>
</trkpt>
<trkpt lat="56.033749" lon="26.379921">
<ele>109.460022</ele>
<time>2010-08-29T16:39:56Z</time>
<desc>lat.=56.033749, lon.=26.379921, Alt.=109.460022m. Speed=22.068001m/h.</desc>
<speed>6.130000</speed>
</trkpt>
<trkpt lat="56.033691" lon="26.379932">
<ele>109.376038</ele>
<time>2010-08-29T16:39:57Z</time>
<desc>lat.=56.033691, lon.=26.379932, Alt.=109.376038m. Speed=22.104000m/h.</desc>
<speed>6.140000</speed>
</trkpt>
<trkpt lat="56.033634" lon="26.379951">
<ele>109.426819</ele>
<time>2010-08-29T16:39:58Z</time>
<desc>lat.=56.033634, lon.=26.379951, Alt.=109.426819m. Speed=22.284000m/h.</desc>
<speed>6.190000</speed>
</trkpt>
<trkpt lat="56.033581" lon="26.379972">
<ele>109.530334</ele>
<time>2010-08-29T16:39:59Z</time>
<desc>lat.=56.033581, lon.=26.379972, Alt.=109.530334m. Speed=22.500000m/h.</desc>
<speed>6.250000</speed>
</trkpt>
<trkpt lat="56.033520" lon="26.379988">
<ele>109.606506</ele>
<time>2010-08-29T16:40:00Z</time>
<desc>lat.=56.033520, lon.=26.379988, Alt.=109.606506m. Speed=22.896000m/h.</desc>
<speed>6.360000</speed>
</trkpt>
<trkpt lat="56.033463" lon="26.379999">
<ele>109.590881</ele>
<time>2010-08-29T16:40:01Z</time>
<desc>lat.=56.033463, lon.=26.379999, Alt.=109.590881m. Speed=23.184000m/h.</desc>
<speed>6.440000</speed>
</trkpt>
<trkpt lat="56.033405" lon="26.380013">
<ele>109.596741</ele>
<time>2010-08-29T16:40:02Z</time>
<desc>lat.=56.033405, lon.=26.380013, Alt.=109.596741m. Speed=23.112000m/h.</desc>
<speed>6.420000</speed>
</trkpt>
<trkpt lat="56.033352" lon="26.380026">
<ele>109.575256</ele>
<time>2010-08-29T16:40:03Z</time>
<desc>lat.=56.033352, lon.=26.380026, Alt.=109.575256m. Speed=23.544001m/h.</desc>
<speed>6.540000</speed>
</trkpt>
<trkpt lat="56.033295" lon="26.380039">
<ele>109.569397</ele>
<time>2010-08-29T16:40:04Z</time>
<desc>lat.=56.033295, lon.=26.380039, Alt.=109.569397m. Speed=23.688000m/h.</desc>
<speed>6.580000</speed>
</trkpt>
<trkpt lat="56.033234" lon="26.380049">
<ele>109.598694</ele>
<time>2010-08-29T16:40:05Z</time>
<desc>lat.=56.033234, lon.=26.380049, Alt.=109.598694m. Speed=23.760000m/h.</desc>
<speed>6.600000</speed>
</trkpt>
<trkpt lat="56.033176" lon="26.380060">
<ele>109.706116</ele>
<time>2010-08-29T16:40:06Z</time>
<desc>lat.=56.033176, lon.=26.380060, Alt.=109.706116m. Speed=24.120001m/h.</desc>
<speed>6.700000</speed>
</trkpt>
<trkpt lat="56.033115" lon="26.380070">
<ele>109.745178</ele>
<time>2010-08-29T16:40:07Z</time>
<desc>lat.=56.033115, lon.=26.380070, Alt.=109.745178m. Speed=24.120001m/h.</desc>
<speed>6.700000</speed>
</trkpt>
<trkpt lat="56.033058" lon="26.380081">
<ele>109.772522</ele>
<time>2010-08-29T16:40:08Z</time>
<desc>lat.=56.033058, lon.=26.380081, Alt.=109.772522m. Speed=23.868000m/h.</desc>
<speed>6.630000</speed>
</trkpt>
<trkpt lat="56.032997" lon="26.380091">
<ele>109.649475</ele>
<time>2010-08-29T16:40:09Z</time>
<desc>lat.=56.032997, lon.=26.380091, Alt.=109.649475m. Speed=24.156000m/h.</desc>
<speed>6.710000</speed>
</trkpt>
<trkpt lat="56.032940" lon="26.380100">
<ele>109.594788</ele>
<time>2010-08-29T16:40:10Z</time>
<desc>lat.=56.032940, lon.=26.380100, Alt.=109.594788m. Speed=24.372000m/h.</desc>
<speed>6.770000</speed>
</trkpt>
<trkpt lat="56.032879" lon="26.380112">
<ele>109.452209</ele>
<time>2010-08-29T16:40:11Z</time>
<desc>lat.=56.032879, lon.=26.380112, Alt.=109.452209m. Speed=24.587999m/h.</desc>
<speed>6.830000</speed>
</trkpt>
<trkpt lat="56.032818" lon="26.380121">
<ele>109.469788</ele>
<time>2010-08-29T16:40:12Z</time>
<desc>lat.=56.032818, lon.=26.380121, Alt.=109.469788m. Speed=24.552000m/h.</desc>
<speed>6.820000</speed>
</trkpt>
<trkpt lat="56.032757" lon="26.380127">
<ele>109.241272</ele>
<time>2010-08-29T16:40:13Z</time>
<desc>lat.=56.032757, lon.=26.380127, Alt.=109.241272m. Speed=23.940001m/h.</desc>
<speed>6.650000</speed>
</trkpt>
<trkpt lat="56.032700" lon="26.380135">
<ele>109.419006</ele>
<time>2010-08-29T16:40:14Z</time>
<desc>lat.=56.032700, lon.=26.380135, Alt.=109.419006m. Speed=23.436001m/h.</desc>
<speed>6.510000</speed>
</trkpt>
<trkpt lat="56.032642" lon="26.380148">
<ele>109.346741</ele>
<time>2010-08-29T16:40:15Z</time>
<desc>lat.=56.032642, lon.=26.380148, Alt.=109.346741m. Speed=23.076000m/h.</desc>
<speed>6.410000</speed>
</trkpt>
<trkpt lat="56.032581" lon="26.380163">
<ele>109.360413</ele>
<time>2010-08-29T16:40:16Z</time>
<desc>lat.=56.032581, lon.=26.380163, Alt.=109.360413m. Speed=23.580000m/h.</desc>
<speed>6.550000</speed>
</trkpt>
<trkpt lat="56.032524" lon="26.380177">
<ele>109.463928</ele>
<time>2010-08-29T16:40:17Z</time>
<desc>lat.=56.032524, lon.=26.380177, Alt.=109.463928m. Speed=23.724001m/h.</desc>
<speed>6.590000</speed>
</trkpt>
<trkpt lat="56.032463" lon="26.380186">
<ele>109.422913</ele>
<time>2010-08-29T16:40:18Z</time>
<desc>lat.=56.032463, lon.=26.380186, Alt.=109.422913m. Speed=23.832001m/h.</desc>
<speed>6.620000</speed>
</trkpt>
<trkpt lat="56.032398" lon="26.380180">
<ele>107.993225</ele>
<time>2010-08-29T16:40:19Z</time>
<desc>lat.=56.032398, lon.=26.380180, Alt.=107.993225m. Speed=25.992001m/h.</desc>
<speed>7.220000</speed>
</trkpt>
<trkpt lat="56.032337" lon="26.380194">
<ele>107.835022</ele>
<time>2010-08-29T16:40:20Z</time>
<desc>lat.=56.032337, lon.=26.380194, Alt.=107.835022m. Speed=24.480000m/h.</desc>
<speed>6.800000</speed>
</trkpt>
<trkpt lat="56.032280" lon="26.380205">
<ele>107.764709</ele>
<time>2010-08-29T16:40:21Z</time>
<desc>lat.=56.032280, lon.=26.380205, Alt.=107.764709m. Speed=24.408001m/h.</desc>
<speed>6.780000</speed>
</trkpt>
<trkpt lat="56.032219" lon="26.380217">
<ele>107.711975</ele>
<time>2010-08-29T16:40:22Z</time>
<desc>lat.=56.032219, lon.=26.380217, Alt.=107.711975m. Speed=24.011999m/h.</desc>
<speed>6.670000</speed>
</trkpt>
<trkpt lat="56.032158" lon="26.380228">
<ele>107.530334</ele>
<time>2010-08-29T16:40:23Z</time>
<desc>lat.=56.032158, lon.=26.380228, Alt.=107.530334m. Speed=23.076000m/h.</desc>
<speed>6.410000</speed>
</trkpt>
<trkpt lat="56.032101" lon="26.380239">
<ele>107.428772</ele>
<time>2010-08-29T16:40:24Z</time>
<desc>lat.=56.032101, lon.=26.380239, Alt.=107.428772m. Speed=22.500000m/h.</desc>
<speed>6.250000</speed>
</trkpt>
<trkpt lat="56.032043" lon="26.380255">
<ele>107.338928</ele>
<time>2010-08-29T16:40:25Z</time>
<desc>lat.=56.032043, lon.=26.380255, Alt.=107.338928m. Speed=22.500000m/h.</desc>
<speed>6.250000</speed>
</trkpt>
<trkpt lat="56.031990" lon="26.380266">
<ele>107.350647</ele>
<time>2010-08-29T16:40:26Z</time>
<desc>lat.=56.031990, lon.=26.380266, Alt.=107.350647m. Speed=22.716000m/h.</desc>
<speed>6.310000</speed>
</trkpt>
<trkpt lat="56.031933" lon="26.380283">
<ele>107.335022</ele>
<time>2010-08-29T16:40:27Z</time>
<desc>lat.=56.031933, lon.=26.380283, Alt.=107.335022m. Speed=22.716000m/h.</desc>
<speed>6.310000</speed>
</trkpt>
<trkpt lat="56.031879" lon="26.380297">
<ele>107.208069</ele>
<time>2010-08-29T16:40:28Z</time>
<desc>lat.=56.031879, lon.=26.380297, Alt.=107.208069m. Speed=22.968000m/h.</desc>
<speed>6.380000</speed>
</trkpt>
<trkpt lat="56.031822" lon="26.380312">
<ele>107.206116</ele>
<time>2010-08-29T16:40:29Z</time>
<desc>lat.=56.031822, lon.=26.380312, Alt.=107.206116m. Speed=23.400000m/h.</desc>
<speed>6.500000</speed>
</trkpt>
<trkpt lat="56.031765" lon="26.380323">
<ele>107.206116</ele>
<time>2010-08-29T16:40:30Z</time>
<desc>lat.=56.031765, lon.=26.380323, Alt.=107.206116m. Speed=23.688000m/h.</desc>
<speed>6.580000</speed>
</trkpt>
<trkpt lat="56.031704" lon="26.380333">
<ele>107.170959</ele>
<time>2010-08-29T16:40:31Z</time>
<desc>lat.=56.031704, lon.=26.380333, Alt.=107.170959m. Speed=24.120001m/h.</desc>
<speed>6.700000</speed>
</trkpt>
<trkpt lat="56.031643" lon="26.380344">
<ele>107.114319</ele>
<time>2010-08-29T16:40:32Z</time>
<desc>lat.=56.031643, lon.=26.380344, Alt.=107.114319m. Speed=24.336000m/h.</desc>
<speed>6.760000</speed>
</trkpt>
<trkpt lat="56.031582" lon="26.380358">
<ele>107.094788</ele>
<time>2010-08-29T16:40:33Z</time>
<desc>lat.=56.031582, lon.=26.380358, Alt.=107.094788m. Speed=24.191999m/h.</desc>
<speed>6.720000</speed>
</trkpt>
<trkpt lat="56.031525" lon="26.380375">
<ele>107.079163</ele>
<time>2010-08-29T16:40:34Z</time>
<desc>lat.=56.031525, lon.=26.380375, Alt.=107.079163m. Speed=24.480000m/h.</desc>
<speed>6.800000</speed>
</trkpt>
<trkpt lat="56.031464" lon="26.380394">
<ele>107.127991</ele>
<time>2010-08-29T16:40:35Z</time>
<desc>lat.=56.031464, lon.=26.380394, Alt.=107.127991m. Speed=24.948000m/h.</desc>
<speed>6.930000</speed>
</trkpt>
<trkpt lat="56.031403" lon="26.380409">
<ele>107.284241</ele>
<time>2010-08-29T16:40:36Z</time>
<desc>lat.=56.031403, lon.=26.380409, Alt.=107.284241m. Speed=24.948000m/h.</desc>
<speed>6.930000</speed>
</trkpt>
<trkpt lat="56.031342" lon="26.380424">
<ele>107.422913</ele>
<time>2010-08-29T16:40:37Z</time>
<desc>lat.=56.031342, lon.=26.380424, Alt.=107.422913m. Speed=24.444000m/h.</desc>
<speed>6.790000</speed>
</trkpt>
<trkpt lat="56.031281" lon="26.380440">
<ele>107.458069</ele>
<time>2010-08-29T16:40:38Z</time>
<desc>lat.=56.031281, lon.=26.380440, Alt.=107.458069m. Speed=24.156000m/h.</desc>
<speed>6.710000</speed>
</trkpt>
<trkpt lat="56.031223" lon="26.380453">
<ele>107.377991</ele>
<time>2010-08-29T16:40:39Z</time>
<desc>lat.=56.031223, lon.=26.380453, Alt.=107.377991m. Speed=23.652000m/h.</desc>
<speed>6.570000</speed>
</trkpt>
<trkpt lat="56.031166" lon="26.380465">
<ele>107.247131</ele>
<time>2010-08-29T16:40:40Z</time>
<desc>lat.=56.031166, lon.=26.380465, Alt.=107.247131m. Speed=23.292000m/h.</desc>
<speed>6.470000</speed>
</trkpt>
<trkpt lat="56.031109" lon="26.380478">
<ele>107.182678</ele>
<time>2010-08-29T16:40:41Z</time>
<desc>lat.=56.031109, lon.=26.380478, Alt.=107.182678m. Speed=22.860001m/h.</desc>
<speed>6.350000</speed>
</trkpt>
<trkpt lat="56.031052" lon="26.380491">
<ele>107.096741</ele>
<time>2010-08-29T16:40:42Z</time>
<desc>lat.=56.031052, lon.=26.380491, Alt.=107.096741m. Speed=22.427999m/h.</desc>
<speed>6.230000</speed>
</trkpt>
<trkpt lat="56.030998" lon="26.380503">
<ele>106.973694</ele>
<time>2010-08-29T16:40:43Z</time>
<desc>lat.=56.030998, lon.=26.380503, Alt.=106.973694m. Speed=21.851999m/h.</desc>
<speed>6.070000</speed>
</trkpt>
<trkpt lat="56.030949" lon="26.380518">
<ele>107.040100</ele>
<time>2010-08-29T16:40:44Z</time>
<desc>lat.=56.030949, lon.=26.380518, Alt.=107.040100m. Speed=21.492001m/h.</desc>
<speed>5.970000</speed>
</trkpt>
<trkpt lat="56.030895" lon="26.380535">
<ele>107.044006</ele>
<time>2010-08-29T16:40:45Z</time>
<desc>lat.=56.030895, lon.=26.380535, Alt.=107.044006m. Speed=21.384001m/h.</desc>
<speed>5.940000</speed>
</trkpt>
<trkpt lat="56.030842" lon="26.380550">
<ele>107.049866</ele>
<time>2010-08-29T16:40:46Z</time>
<desc>lat.=56.030842, lon.=26.380550, Alt.=107.049866m. Speed=21.672001m/h.</desc>
<speed>6.020000</speed>
</trkpt>
<trkpt lat="56.030788" lon="26.380560">
<ele>107.053772</ele>
<time>2010-08-29T16:40:47Z</time>
<desc>lat.=56.030788, lon.=26.380560, Alt.=107.053772m. Speed=22.032000m/h.</desc>
<speed>6.120000</speed>
</trkpt>
<trkpt lat="56.030735" lon="26.380571">
<ele>106.956116</ele>
<time>2010-08-29T16:40:48Z</time>
<desc>lat.=56.030735, lon.=26.380571, Alt.=106.956116m. Speed=22.392000m/h.</desc>
<speed>6.220000</speed>
</trkpt>
<trkpt lat="56.030682" lon="26.380587">
<ele>106.840881</ele>
<time>2010-08-29T16:40:49Z</time>
<desc>lat.=56.030682, lon.=26.380587, Alt.=106.840881m. Speed=21.708000m/h.</desc>
<speed>6.030000</speed>
</trkpt>
<trkpt lat="56.030624" lon="26.380600">
<ele>106.743225</ele>
<time>2010-08-29T16:40:50Z</time>
<desc>lat.=56.030624, lon.=26.380600, Alt.=106.743225m. Speed=21.888000m/h.</desc>
<speed>6.080000</speed>
</trkpt>
<trkpt lat="56.030571" lon="26.380613">
<ele>106.579163</ele>
<time>2010-08-29T16:40:51Z</time>
<desc>lat.=56.030571, lon.=26.380613, Alt.=106.579163m. Speed=22.320000m/h.</desc>
<speed>6.200000</speed>
</trkpt>
<trkpt lat="56.030518" lon="26.380630">
<ele>106.567444</ele>
<time>2010-08-29T16:40:52Z</time>
<desc>lat.=56.030518, lon.=26.380630, Alt.=106.567444m. Speed=22.572001m/h.</desc>
<speed>6.270000</speed>
</trkpt>
<trkpt lat="56.030460" lon="26.380651">
<ele>106.534241</ele>
<time>2010-08-29T16:40:53Z</time>
<desc>lat.=56.030460, lon.=26.380651, Alt.=106.534241m. Speed=22.643999m/h.</desc>
<speed>6.290000</speed>
</trkpt>
<trkpt lat="56.030407" lon="26.380667">
<ele>106.448303</ele>
<time>2010-08-29T16:40:54Z</time>
<desc>lat.=56.030407, lon.=26.380667, Alt.=106.448303m. Speed=22.752001m/h.</desc>
<speed>6.320000</speed>
</trkpt>
<trkpt lat="56.030346" lon="26.380688">
<ele>106.268616</ele>
<time>2010-08-29T16:40:55Z</time>
<desc>lat.=56.030346, lon.=26.380688, Alt.=106.268616m. Speed=23.040001m/h.</desc>
<speed>6.400000</speed>
</trkpt>
<trkpt lat="56.030289" lon="26.380703">
<ele>106.254944</ele>
<time>2010-08-29T16:40:56Z</time>
<desc>lat.=56.030289, lon.=26.380703, Alt.=106.254944m. Speed=23.327999m/h.</desc>
<speed>6.480000</speed>
</trkpt>
<trkpt lat="56.030231" lon="26.380722">
<ele>106.368225</ele>
<time>2010-08-29T16:40:57Z</time>
<desc>lat.=56.030231, lon.=26.380722, Alt.=106.368225m. Speed=23.436001m/h.</desc>
<speed>6.510000</speed>
</trkpt>
<trkpt lat="56.030174" lon="26.380739">
<ele>106.372131</ele>
<time>2010-08-29T16:40:58Z</time>
<desc>lat.=56.030174, lon.=26.380739, Alt.=106.372131m. Speed=23.940001m/h.</desc>
<speed>6.650000</speed>
</trkpt>
<trkpt lat="56.030113" lon="26.380758">
<ele>106.346741</ele>
<time>2010-08-29T16:40:59Z</time>
<desc>lat.=56.030113, lon.=26.380758, Alt.=106.346741m. Speed=24.156000m/h.</desc>
<speed>6.710000</speed>
</trkpt>
<trkpt lat="56.030052" lon="26.380779">
<ele>106.514709</ele>
<time>2010-08-29T16:41:00Z</time>
<desc>lat.=56.030052, lon.=26.380779, Alt.=106.514709m. Speed=24.228001m/h.</desc>
<speed>6.730000</speed>
</trkpt>
<trkpt lat="56.029995" lon="26.380791">
<ele>106.495178</ele>
<time>2010-08-29T16:41:01Z</time>
<desc>lat.=56.029995, lon.=26.380791, Alt.=106.495178m. Speed=23.868000m/h.</desc>
<speed>6.630000</speed>
</trkpt>
<trkpt lat="56.029934" lon="26.380802">
<ele>106.538147</ele>
<time>2010-08-29T16:41:02Z</time>
<desc>lat.=56.029934, lon.=26.380802, Alt.=106.538147m. Speed=23.472000m/h.</desc>
<speed>6.520000</speed>
</trkpt>
<trkpt lat="56.029881" lon="26.380816">
<ele>106.571350</ele>
<time>2010-08-29T16:41:03Z</time>
<desc>lat.=56.029881, lon.=26.380816, Alt.=106.571350m. Speed=22.931999m/h.</desc>
<speed>6.370000</speed>
</trkpt>
<trkpt lat="56.029823" lon="26.380833">
<ele>106.540100</ele>
<time>2010-08-29T16:41:04Z</time>
<desc>lat.=56.029823, lon.=26.380833, Alt.=106.540100m. Speed=22.535999m/h.</desc>
<speed>6.260000</speed>
</trkpt>
<trkpt lat="56.029770" lon="26.380850">
<ele>106.544006</ele>
<time>2010-08-29T16:41:05Z</time>
<desc>lat.=56.029770, lon.=26.380850, Alt.=106.544006m. Speed=21.851999m/h.</desc>
<speed>6.070000</speed>
</trkpt>
<trkpt lat="56.029716" lon="26.380869">
<ele>106.676819</ele>
<time>2010-08-29T16:41:06Z</time>
<desc>lat.=56.029716, lon.=26.380869, Alt.=106.676819m. Speed=21.455999m/h.</desc>
<speed>5.960000</speed>
</trkpt>
<trkpt lat="56.029663" lon="26.380884">
<ele>106.614319</ele>
<time>2010-08-29T16:41:07Z</time>
<desc>lat.=56.029663, lon.=26.380884, Alt.=106.614319m. Speed=21.096001m/h.</desc>
<speed>5.860000</speed>
</trkpt>
<trkpt lat="56.029613" lon="26.380898">
<ele>106.438538</ele>
<time>2010-08-29T16:41:08Z</time>
<desc>lat.=56.029613, lon.=26.380898, Alt.=106.438538m. Speed=20.879999m/h.</desc>
<speed>5.800000</speed>
</trkpt>
<trkpt lat="56.029564" lon="26.380911">
<ele>106.297913</ele>
<time>2010-08-29T16:41:09Z</time>
<desc>lat.=56.029564, lon.=26.380911, Alt.=106.297913m. Speed=20.628000m/h.</desc>
<speed>5.730000</speed>
</trkpt>
<trkpt lat="56.029514" lon="26.380926">
<ele>106.165100</ele>
<time>2010-08-29T16:41:10Z</time>
<desc>lat.=56.029514, lon.=26.380926, Alt.=106.165100m. Speed=20.448000m/h.</desc>
<speed>5.680000</speed>
</trkpt>
<trkpt lat="56.029465" lon="26.380941">
<ele>106.108459</ele>
<time>2010-08-29T16:41:11Z</time>
<desc>lat.=56.029465, lon.=26.380941, Alt.=106.108459m. Speed=20.771999m/h.</desc>
<speed>5.770000</speed>
</trkpt>
<trkpt lat="56.029411" lon="26.380962">
<ele>105.821350</ele>
<time>2010-08-29T16:41:12Z</time>
<desc>lat.=56.029411, lon.=26.380962, Alt.=105.821350m. Speed=21.132000m/h.</desc>
<speed>5.870000</speed>
</trkpt>
<trkpt lat="56.029358" lon="26.380976">
<ele>105.835022</ele>
<time>2010-08-29T16:41:13Z</time>
<desc>lat.=56.029358, lon.=26.380976, Alt.=105.835022m. Speed=21.455999m/h.</desc>
<speed>5.960000</speed>
</trkpt>
<trkpt lat="56.029305" lon="26.380991">
<ele>105.934631</ele>
<time>2010-08-29T16:41:14Z</time>
<desc>lat.=56.029305, lon.=26.380991, Alt.=105.934631m. Speed=21.563999m/h.</desc>
<speed>5.990000</speed>
</trkpt>
<trkpt lat="56.029251" lon="26.381004">
<ele>105.907288</ele>
<time>2010-08-29T16:41:15Z</time>
<desc>lat.=56.029251, lon.=26.381004, Alt.=105.907288m. Speed=21.851999m/h.</desc>
<speed>6.070000</speed>
</trkpt>
<trkpt lat="56.029198" lon="26.381020">
<ele>105.862366</ele>
<time>2010-08-29T16:41:16Z</time>
<desc>lat.=56.029198, lon.=26.381020, Alt.=105.862366m. Speed=21.636000m/h.</desc>
<speed>6.010000</speed>
</trkpt>
<trkpt lat="56.029144" lon="26.381037">
<ele>105.827209</ele>
<time>2010-08-29T16:41:17Z</time>
<desc>lat.=56.029144, lon.=26.381037, Alt.=105.827209m. Speed=23.364000m/h.</desc>
<speed>6.490000</speed>
</trkpt>
<trkpt lat="56.029087" lon="26.381058">
<ele>105.780334</ele>
<time>2010-08-29T16:41:18Z</time>
<desc>lat.=56.029087, lon.=26.381058, Alt.=105.780334m. Speed=23.292000m/h.</desc>
<speed>6.470000</speed>
</trkpt>
<trkpt lat="56.029030" lon="26.381081">
<ele>105.557678</ele>
<time>2010-08-29T16:41:19Z</time>
<desc>lat.=56.029030, lon.=26.381081, Alt.=105.557678m. Speed=23.256001m/h.</desc>
<speed>6.460000</speed>
</trkpt>
<trkpt lat="56.028973" lon="26.381098">
<ele>105.428772</ele>
<time>2010-08-29T16:41:20Z</time>
<desc>lat.=56.028973, lon.=26.381098, Alt.=105.428772m. Speed=23.400000m/h.</desc>
<speed>6.500000</speed>
</trkpt>
<trkpt lat="56.028915" lon="26.381115">
<ele>105.354553</ele>
<time>2010-08-29T16:41:21Z</time>
<desc>lat.=56.028915, lon.=26.381115, Alt.=105.354553m. Speed=23.544001m/h.</desc>
<speed>6.540000</speed>
</trkpt>
<trkpt lat="56.028854" lon="26.381132">
<ele>105.288147</ele>
<time>2010-08-29T16:41:22Z</time>
<desc>lat.=56.028854, lon.=26.381132, Alt.=105.288147m. Speed=23.796000m/h.</desc>
<speed>6.610000</speed>
</trkpt>
<trkpt lat="56.028797" lon="26.381153">
<ele>105.217834</ele>
<time>2010-08-29T16:41:23Z</time>
<desc>lat.=56.028797, lon.=26.381153, Alt.=105.217834m. Speed=24.120001m/h.</desc>
<speed>6.700000</speed>
</trkpt>
<trkpt lat="56.028740" lon="26.381174">
<ele>105.161194</ele>
<time>2010-08-29T16:41:24Z</time>
<desc>lat.=56.028740, lon.=26.381174, Alt.=105.161194m. Speed=24.552000m/h.</desc>
<speed>6.820000</speed>
</trkpt>
<trkpt lat="56.028675" lon="26.381197">
<ele>104.952209</ele>
<time>2010-08-29T16:41:25Z</time>
<desc>lat.=56.028675, lon.=26.381197, Alt.=104.952209m. Speed=24.336000m/h.</desc>
<speed>6.760000</speed>
</trkpt>
<trkpt lat="56.028614" lon="26.381214">
<ele>104.813538</ele>
<time>2010-08-29T16:41:26Z</time>
<desc>lat.=56.028614, lon.=26.381214, Alt.=104.813538m. Speed=23.796000m/h.</desc>
<speed>6.610000</speed>
</trkpt>
<trkpt lat="56.028557" lon="26.381233">
<ele>104.752991</ele>
<time>2010-08-29T16:41:27Z</time>
<desc>lat.=56.028557, lon.=26.381233, Alt.=104.752991m. Speed=23.472000m/h.</desc>
<speed>6.520000</speed>
</trkpt>
<trkpt lat="56.028500" lon="26.381250">
<ele>104.764709</ele>
<time>2010-08-29T16:41:28Z</time>
<desc>lat.=56.028500, lon.=26.381250, Alt.=104.764709m. Speed=23.436001m/h.</desc>
<speed>6.510000</speed>
</trkpt>
<trkpt lat="56.028442" lon="26.381266">
<ele>104.694397</ele>
<time>2010-08-29T16:41:29Z</time>
<desc>lat.=56.028442, lon.=26.381266, Alt.=104.694397m. Speed=23.076000m/h.</desc>
<speed>6.410000</speed>
</trkpt>
<trkpt lat="56.028389" lon="26.381281">
<ele>104.754944</ele>
<time>2010-08-29T16:41:30Z</time>
<desc>lat.=56.028389, lon.=26.381281, Alt.=104.754944m. Speed=22.716000m/h.</desc>
<speed>6.310000</speed>
</trkpt>
<trkpt lat="56.028332" lon="26.381298">
<ele>104.815491</ele>
<time>2010-08-29T16:41:31Z</time>
<desc>lat.=56.028332, lon.=26.381298, Alt.=104.815491m. Speed=22.464001m/h.</desc>
<speed>6.240000</speed>
</trkpt>
<trkpt lat="56.028278" lon="26.381319">
<ele>104.813538</ele>
<time>2010-08-29T16:41:32Z</time>
<desc>lat.=56.028278, lon.=26.381319, Alt.=104.813538m. Speed=22.320000m/h.</desc>
<speed>6.200000</speed>
</trkpt>
<trkpt lat="56.028225" lon="26.381336">
<ele>104.690491</ele>
<time>2010-08-29T16:41:33Z</time>
<desc>lat.=56.028225, lon.=26.381336, Alt.=104.690491m. Speed=21.996000m/h.</desc>
<speed>6.110000</speed>
</trkpt>
<trkpt lat="56.028172" lon="26.381355">
<ele>104.655334</ele>
<time>2010-08-29T16:41:34Z</time>
<desc>lat.=56.028172, lon.=26.381355, Alt.=104.655334m. Speed=21.708000m/h.</desc>
<speed>6.030000</speed>
</trkpt>
<trkpt lat="56.028118" lon="26.381372">
<ele>104.506897</ele>
<time>2010-08-29T16:41:35Z</time>
<desc>lat.=56.028118, lon.=26.381372, Alt.=104.506897m. Speed=22.464001m/h.</desc>
<speed>6.240000</speed>
</trkpt>
<trkpt lat="56.028065" lon="26.381390">
<ele>104.577209</ele>
<time>2010-08-29T16:41:36Z</time>
<desc>lat.=56.028065, lon.=26.381390, Alt.=104.577209m. Speed=23.076000m/h.</desc>
<speed>6.410000</speed>
</trkpt>
<trkpt lat="56.028008" lon="26.381409">
<ele>104.544006</ele>
<time>2010-08-29T16:41:37Z</time>
<desc>lat.=56.028008, lon.=26.381409, Alt.=104.544006m. Speed=23.832001m/h.</desc>
<speed>6.620000</speed>
</trkpt>
<trkpt lat="56.027946" lon="26.381426">
<ele>104.577209</ele>
<time>2010-08-29T16:41:38Z</time>
<desc>lat.=56.027946, lon.=26.381426, Alt.=104.577209m. Speed=24.444000m/h.</desc>
<speed>6.790000</speed>
</trkpt>
<trkpt lat="56.027885" lon="26.381443">
<ele>104.702209</ele>
<time>2010-08-29T16:41:39Z</time>
<desc>lat.=56.027885, lon.=26.381443, Alt.=104.702209m. Speed=24.660000m/h.</desc>
<speed>6.850000</speed>
</trkpt>
<trkpt lat="56.027828" lon="26.381464">
<ele>104.790100</ele>
<time>2010-08-29T16:41:40Z</time>
<desc>lat.=56.027828, lon.=26.381464, Alt.=104.790100m. Speed=25.091999m/h.</desc>
<speed>6.970000</speed>
</trkpt>
<trkpt lat="56.027763" lon="26.381493">
<ele>104.850647</ele>
<time>2010-08-29T16:41:41Z</time>
<desc>lat.=56.027763, lon.=26.381493, Alt.=104.850647m. Speed=25.488001m/h.</desc>
<speed>7.080000</speed>
</trkpt>
<trkpt lat="56.027702" lon="26.381523">
<ele>104.919006</ele>
<time>2010-08-29T16:41:42Z</time>
<desc>lat.=56.027702, lon.=26.381523, Alt.=104.919006m. Speed=25.596001m/h.</desc>
<speed>7.110000</speed>
</trkpt>
<trkpt lat="56.027637" lon="26.381552">
<ele>104.973694</ele>
<time>2010-08-29T16:41:43Z</time>
<desc>lat.=56.027637, lon.=26.381552, Alt.=104.973694m. Speed=25.091999m/h.</desc>
<speed>6.970000</speed>
</trkpt>
<trkpt lat="56.027580" lon="26.381575">
<ele>104.934631</ele>
<time>2010-08-29T16:41:44Z</time>
<desc>lat.=56.027580, lon.=26.381575, Alt.=104.934631m. Speed=24.983999m/h.</desc>
<speed>6.940000</speed>
</trkpt>
<trkpt lat="56.027519" lon="26.381596">
<ele>104.975647</ele>
<time>2010-08-29T16:41:45Z</time>
<desc>lat.=56.027519, lon.=26.381596, Alt.=104.975647m. Speed=24.768000m/h.</desc>
<speed>6.880000</speed>
</trkpt>
<trkpt lat="56.027458" lon="26.381622">
<ele>104.954163</ele>
<time>2010-08-29T16:41:46Z</time>
<desc>lat.=56.027458, lon.=26.381622, Alt.=104.954163m. Speed=24.516001m/h.</desc>
<speed>6.810000</speed>
</trkpt>
<trkpt lat="56.027401" lon="26.381647">
<ele>104.825256</ele>
<time>2010-08-29T16:41:47Z</time>
<desc>lat.=56.027401, lon.=26.381647, Alt.=104.825256m. Speed=24.191999m/h.</desc>
<speed>6.720000</speed>
</trkpt>
<trkpt lat="56.027344" lon="26.381666">
<ele>104.715881</ele>
<time>2010-08-29T16:41:48Z</time>
<desc>lat.=56.027344, lon.=26.381666, Alt.=104.715881m. Speed=24.120001m/h.</desc>
<speed>6.700000</speed>
</trkpt>
<trkpt lat="56.027283" lon="26.381683">
<ele>104.825256</ele>
<time>2010-08-29T16:41:49Z</time>
<desc>lat.=56.027283, lon.=26.381683, Alt.=104.825256m. Speed=23.940001m/h.</desc>
<speed>6.650000</speed>
</trkpt>
<trkpt lat="56.027225" lon="26.381704">
<ele>104.868225</ele>
<time>2010-08-29T16:41:50Z</time>
<desc>lat.=56.027225, lon.=26.381704, Alt.=104.868225m. Speed=23.868000m/h.</desc>
<speed>6.630000</speed>
</trkpt>
<trkpt lat="56.027168" lon="26.381727">
<ele>104.692444</ele>
<time>2010-08-29T16:41:51Z</time>
<desc>lat.=56.027168, lon.=26.381727, Alt.=104.692444m. Speed=23.796000m/h.</desc>
<speed>6.610000</speed>
</trkpt>
<trkpt lat="56.027111" lon="26.381750">
<ele>104.676819</ele>
<time>2010-08-29T16:41:52Z</time>
<desc>lat.=56.027111, lon.=26.381750, Alt.=104.676819m. Speed=23.256001m/h.</desc>
<speed>6.460000</speed>
</trkpt>
<trkpt lat="56.027054" lon="26.381769">
<ele>104.612366</ele>
<time>2010-08-29T16:41:53Z</time>
<desc>lat.=56.027054, lon.=26.381769, Alt.=104.612366m. Speed=23.112000m/h.</desc>
<speed>6.420000</speed>
</trkpt>
<trkpt lat="56.026997" lon="26.381788">
<ele>104.524475</ele>
<time>2010-08-29T16:41:54Z</time>
<desc>lat.=56.026997, lon.=26.381788, Alt.=104.524475m. Speed=23.219999m/h.</desc>
<speed>6.450000</speed>
</trkpt>
<trkpt lat="56.026943" lon="26.381807">
<ele>104.553772</ele>
<time>2010-08-29T16:41:55Z</time>
<desc>lat.=56.026943, lon.=26.381807, Alt.=104.553772m. Speed=22.860001m/h.</desc>
<speed>6.350000</speed>
</trkpt>
<trkpt lat="56.026886" lon="26.381828">
<ele>104.670959</ele>
<time>2010-08-29T16:41:56Z</time>
<desc>lat.=56.026886, lon.=26.381828, Alt.=104.670959m. Speed=22.752001m/h.</desc>
<speed>6.320000</speed>
</trkpt>
<trkpt lat="56.026833" lon="26.381851">
<ele>104.602600</ele>
<time>2010-08-29T16:41:57Z</time>
<desc>lat.=56.026833, lon.=26.381851, Alt.=104.602600m. Speed=22.427999m/h.</desc>
<speed>6.230000</speed>
</trkpt>
<trkpt lat="56.026775" lon="26.381876">
<ele>104.571350</ele>
<time>2010-08-29T16:41:58Z</time>
<desc>lat.=56.026775, lon.=26.381876, Alt.=104.571350m. Speed=22.212000m/h.</desc>
<speed>6.170000</speed>
</trkpt>
<trkpt lat="56.026726" lon="26.381897">
<ele>104.403381</ele>
<time>2010-08-29T16:41:59Z</time>
<desc>lat.=56.026726, lon.=26.381897, Alt.=104.403381m. Speed=21.851999m/h.</desc>
<speed>6.070000</speed>
</trkpt>
<trkpt lat="56.026669" lon="26.381916">
<ele>104.129944</ele>
<time>2010-08-29T16:42:00Z</time>
<desc>lat.=56.026669, lon.=26.381916, Alt.=104.129944m. Speed=21.924000m/h.</desc>
<speed>6.090000</speed>
</trkpt>
<trkpt lat="56.026619" lon="26.381937">
<ele>104.071350</ele>
<time>2010-08-29T16:42:01Z</time>
<desc>lat.=56.026619, lon.=26.381937, Alt.=104.071350m. Speed=21.563999m/h.</desc>
<speed>5.990000</speed>
</trkpt>
<trkpt lat="56.026566" lon="26.381960">
<ele>104.028381</ele>
<time>2010-08-29T16:42:02Z</time>
<desc>lat.=56.026566, lon.=26.381960, Alt.=104.028381m. Speed=21.204000m/h.</desc>
<speed>5.890000</speed>
</trkpt>
<trkpt lat="56.026512" lon="26.381985">
<ele>103.823303</ele>
<time>2010-08-29T16:42:03Z</time>
<desc>lat.=56.026512, lon.=26.381985, Alt.=103.823303m. Speed=21.096001m/h.</desc>
<speed>5.860000</speed>
</trkpt>
<trkpt lat="56.026463" lon="26.382008">
<ele>103.627991</ele>
<time>2010-08-29T16:42:04Z</time>
<desc>lat.=56.026463, lon.=26.382008, Alt.=103.627991m. Speed=21.024000m/h.</desc>
<speed>5.840000</speed>
</trkpt>
<trkpt lat="56.026409" lon="26.382030">
<ele>103.585022</ele>
<time>2010-08-29T16:42:05Z</time>
<desc>lat.=56.026409, lon.=26.382030, Alt.=103.585022m. Speed=20.879999m/h.</desc>
<speed>5.800000</speed>
</trkpt>
<trkpt lat="56.026360" lon="26.382050">
<ele>103.524475</ele>
<time>2010-08-29T16:42:06Z</time>
<desc>lat.=56.026360, lon.=26.382050, Alt.=103.524475m. Speed=20.700001m/h.</desc>
<speed>5.750000</speed>
</trkpt>
<trkpt lat="56.026310" lon="26.382065">
<ele>103.370178</ele>
<time>2010-08-29T16:42:07Z</time>
<desc>lat.=56.026310, lon.=26.382065, Alt.=103.370178m. Speed=20.628000m/h.</desc>
<speed>5.730000</speed>
</trkpt>
<trkpt lat="56.026257" lon="26.382084">
<ele>103.137756</ele>
<time>2010-08-29T16:42:08Z</time>
<desc>lat.=56.026257, lon.=26.382084, Alt.=103.137756m. Speed=21.348000m/h.</desc>
<speed>5.930000</speed>
</trkpt>
<trkpt lat="56.026199" lon="26.382103">
<ele>103.053772</ele>
<time>2010-08-29T16:42:09Z</time>
<desc>lat.=56.026199, lon.=26.382103, Alt.=103.053772m. Speed=21.672001m/h.</desc>
<speed>6.020000</speed>
</trkpt>
<trkpt lat="56.026146" lon="26.382126">
<ele>102.856506</ele>
<time>2010-08-29T16:42:10Z</time>
<desc>lat.=56.026146, lon.=26.382126, Alt.=102.856506m. Speed=22.212000m/h.</desc>
<speed>6.170000</speed>
</trkpt>
<trkpt lat="56.026093" lon="26.382149">
<ele>102.766663</ele>
<time>2010-08-29T16:42:11Z</time>
<desc>lat.=56.026093, lon.=26.382149, Alt.=102.766663m. Speed=22.572001m/h.</desc>
<speed>6.270000</speed>
</trkpt>
<trkpt lat="56.026031" lon="26.382168">
<ele>102.585022</ele>
<time>2010-08-29T16:42:12Z</time>
<desc>lat.=56.026031, lon.=26.382168, Alt.=102.585022m. Speed=23.112000m/h.</desc>
<speed>6.420000</speed>
</trkpt>
<trkpt lat="56.025974" lon="26.382189">
<ele>102.454163</ele>
<time>2010-08-29T16:42:13Z</time>
<desc>lat.=56.025974, lon.=26.382189, Alt.=102.454163m. Speed=23.544001m/h.</desc>
<speed>6.540000</speed>
</trkpt>
<trkpt lat="56.025917" lon="26.382212">
<ele>102.333069</ele>
<time>2010-08-29T16:42:14Z</time>
<desc>lat.=56.025917, lon.=26.382212, Alt.=102.333069m. Speed=23.832001m/h.</desc>
<speed>6.620000</speed>
</trkpt>
<trkpt lat="56.025856" lon="26.382236">
<ele>102.210022</ele>
<time>2010-08-29T16:42:15Z</time>
<desc>lat.=56.025856, lon.=26.382236, Alt.=102.210022m. Speed=24.120001m/h.</desc>
<speed>6.700000</speed>
</trkpt>
<trkpt lat="56.025799" lon="26.382261">
<ele>102.157288</ele>
<time>2010-08-29T16:42:16Z</time>
<desc>lat.=56.025799, lon.=26.382261, Alt.=102.157288m. Speed=24.695999m/h.</desc>
<speed>6.860000</speed>
</trkpt>
<trkpt lat="56.025738" lon="26.382290">
<ele>102.155334</ele>
<time>2010-08-29T16:42:17Z</time>
<desc>lat.=56.025738, lon.=26.382290, Alt.=102.155334m. Speed=25.200001m/h.</desc>
<speed>7.000000</speed>
</trkpt>
<trkpt lat="56.025677" lon="26.382318">
<ele>102.083069</ele>
<time>2010-08-29T16:42:18Z</time>
<desc>lat.=56.025677, lon.=26.382318, Alt.=102.083069m. Speed=25.524000m/h.</desc>
<speed>7.090000</speed>
</trkpt>
<trkpt lat="56.025616" lon="26.382345">
<ele>102.120178</ele>
<time>2010-08-29T16:42:19Z</time>
<desc>lat.=56.025616, lon.=26.382345, Alt.=102.120178m. Speed=25.236000m/h.</desc>
<speed>7.010000</speed>
</trkpt>
<trkpt lat="56.025551" lon="26.382368">
<ele>102.024475</ele>
<time>2010-08-29T16:42:20Z</time>
<desc>lat.=56.025551, lon.=26.382368, Alt.=102.024475m. Speed=25.020000m/h.</desc>
<speed>6.950000</speed>
</trkpt>
<trkpt lat="56.025490" lon="26.382391">
<ele>101.907288</ele>
<time>2010-08-29T16:42:21Z</time>
<desc>lat.=56.025490, lon.=26.382391, Alt.=101.907288m. Speed=24.804001m/h.</desc>
<speed>6.890000</speed>
</trkpt>
<trkpt lat="56.025429" lon="26.382420">
<ele>101.622131</ele>
<time>2010-08-29T16:42:22Z</time>
<desc>lat.=56.025429, lon.=26.382420, Alt.=101.622131m. Speed=24.624001m/h.</desc>
<speed>6.840000</speed>
</trkpt>
<trkpt lat="56.025368" lon="26.382444">
<ele>101.497131</ele>
<time>2010-08-29T16:42:23Z</time>
<desc>lat.=56.025368, lon.=26.382444, Alt.=101.497131m. Speed=24.444000m/h.</desc>
<speed>6.790000</speed>
</trkpt>
<trkpt lat="56.025307" lon="26.382471">
<ele>101.278381</ele>
<time>2010-08-29T16:42:24Z</time>
<desc>lat.=56.025307, lon.=26.382471, Alt.=101.278381m. Speed=24.336000m/h.</desc>
<speed>6.760000</speed>
</trkpt>
<trkpt lat="56.025249" lon="26.382494">
<ele>101.135803</ele>
<time>2010-08-29T16:42:25Z</time>
<desc>lat.=56.025249, lon.=26.382494, Alt.=101.135803m. Speed=24.264000m/h.</desc>
<speed>6.740000</speed>
</trkpt>
<trkpt lat="56.025192" lon="26.382523">
<ele>101.024475</ele>
<time>2010-08-29T16:42:26Z</time>
<desc>lat.=56.025192, lon.=26.382523, Alt.=101.024475m. Speed=24.156000m/h.</desc>
<speed>6.710000</speed>
</trkpt>
<trkpt lat="56.025135" lon="26.382544">
<ele>100.766663</ele>
<time>2010-08-29T16:42:27Z</time>
<desc>lat.=56.025135, lon.=26.382544, Alt.=100.766663m. Speed=24.084000m/h.</desc>
<speed>6.690000</speed>
</trkpt>
<trkpt lat="56.025074" lon="26.382572">
<ele>100.567444</ele>
<time>2010-08-29T16:42:28Z</time>
<desc>lat.=56.025074, lon.=26.382572, Alt.=100.567444m. Speed=23.940001m/h.</desc>
<speed>6.650000</speed>
</trkpt>
<trkpt lat="56.025017" lon="26.382595">
<ele>100.557678</ele>
<time>2010-08-29T16:42:29Z</time>
<desc>lat.=56.025017, lon.=26.382595, Alt.=100.557678m. Speed=23.796000m/h.</desc>
<speed>6.610000</speed>
</trkpt>
<trkpt lat="56.024960" lon="26.382618">
<ele>100.422913</ele>
<time>2010-08-29T16:42:30Z</time>
<desc>lat.=56.024960, lon.=26.382618, Alt.=100.422913m. Speed=23.688000m/h.</desc>
<speed>6.580000</speed>
</trkpt>
<trkpt lat="56.024902" lon="26.382645">
<ele>100.061584</ele>
<time>2010-08-29T16:42:31Z</time>
<desc>lat.=56.024902, lon.=26.382645, Alt.=100.061584m. Speed=24.299999m/h.</desc>
<speed>6.750000</speed>
</trkpt>
<trkpt lat="56.024841" lon="26.382668">
<ele>99.854553</ele>
<time>2010-08-29T16:42:32Z</time>
<desc>lat.=56.024841, lon.=26.382668, Alt.=99.854553m. Speed=24.732000m/h.</desc>
<speed>6.870000</speed>
</trkpt>
<trkpt lat="56.024784" lon="26.382696">
<ele>99.725647</ele>
<time>2010-08-29T16:42:33Z</time>
<desc>lat.=56.024784, lon.=26.382696, Alt.=99.725647m. Speed=25.128000m/h.</desc>
<speed>6.980000</speed>
</trkpt>
<trkpt lat="56.024723" lon="26.382727">
<ele>99.440491</ele>
<time>2010-08-29T16:42:34Z</time>
<desc>lat.=56.024723, lon.=26.382727, Alt.=99.440491m. Speed=25.379999m/h.</desc>
<speed>7.050000</speed>
</trkpt>
<trkpt lat="56.024662" lon="26.382757">
<ele>99.249084</ele>
<time>2010-08-29T16:42:35Z</time>
<desc>lat.=56.024662, lon.=26.382757, Alt.=99.249084m. Speed=25.740000m/h.</desc>
<speed>7.150000</speed>
</trkpt>
<trkpt lat="56.024597" lon="26.382784">
<ele>99.059631</ele>
<time>2010-08-29T16:42:36Z</time>
<desc>lat.=56.024597, lon.=26.382784, Alt.=99.059631m. Speed=25.452000m/h.</desc>
<speed>7.070000</speed>
</trkpt>
<trkpt lat="56.024536" lon="26.382811">
<ele>98.895569</ele>
<time>2010-08-29T16:42:37Z</time>
<desc>lat.=56.024536, lon.=26.382811, Alt.=98.895569m. Speed=25.524000m/h.</desc>
<speed>7.090000</speed>
</trkpt>
<trkpt lat="56.024475" lon="26.382839">
<ele>98.795959</ele>
<time>2010-08-29T16:42:38Z</time>
<desc>lat.=56.024475, lon.=26.382839, Alt.=98.795959m. Speed=27.072001m/h.</desc>
<speed>7.520000</speed>
</trkpt>
<trkpt lat="56.024406" lon="26.382872">
<ele>98.626038</ele>
<time>2010-08-29T16:42:39Z</time>
<desc>lat.=56.024406, lon.=26.382872, Alt.=98.626038m. Speed=27.864000m/h.</desc>
<speed>7.740000</speed>
</trkpt>
<trkpt lat="56.024338" lon="26.382906">
<ele>98.479553</ele>
<time>2010-08-29T16:42:40Z</time>
<desc>lat.=56.024338, lon.=26.382906, Alt.=98.479553m. Speed=29.232000m/h.</desc>
<speed>8.120000</speed>
</trkpt>
<trkpt lat="56.024269" lon="26.382938">
<ele>98.387756</ele>
<time>2010-08-29T16:42:41Z</time>
<desc>lat.=56.024269, lon.=26.382938, Alt.=98.387756m. Speed=29.844000m/h.</desc>
<speed>8.290000</speed>
</trkpt>
<trkpt lat="56.024197" lon="26.382969">
<ele>98.194397</ele>
<time>2010-08-29T16:42:42Z</time>
<desc>lat.=56.024197, lon.=26.382969, Alt.=98.194397m. Speed=29.375999m/h.</desc>
<speed>8.160000</speed>
</trkpt>
<trkpt lat="56.024124" lon="26.382999">
<ele>98.083069</ele>
<time>2010-08-29T16:42:43Z</time>
<desc>lat.=56.024124, lon.=26.382999, Alt.=98.083069m. Speed=28.980000m/h.</desc>
<speed>8.050000</speed>
</trkpt>
<trkpt lat="56.024052" lon="26.383032">
<ele>97.895569</ele>
<time>2010-08-29T16:42:44Z</time>
<desc>lat.=56.024052, lon.=26.383032, Alt.=97.895569m. Speed=28.764000m/h.</desc>
<speed>7.990000</speed>
</trkpt>
<trkpt lat="56.023983" lon="26.383064">
<ele>97.629944</ele>
<time>2010-08-29T16:42:45Z</time>
<desc>lat.=56.023983, lon.=26.383064, Alt.=97.629944m. Speed=28.620001m/h.</desc>
<speed>7.950000</speed>
</trkpt>
<trkpt lat="56.023914" lon="26.383097">
<ele>97.446350</ele>
<time>2010-08-29T16:42:46Z</time>
<desc>lat.=56.023914, lon.=26.383097, Alt.=97.446350m. Speed=28.332001m/h.</desc>
<speed>7.870000</speed>
</trkpt>
<trkpt lat="56.023849" lon="26.383131">
<ele>97.221741</ele>
<time>2010-08-29T16:42:47Z</time>
<desc>lat.=56.023849, lon.=26.383131, Alt.=97.221741m. Speed=27.936001m/h.</desc>
<speed>7.760000</speed>
</trkpt>
<trkpt lat="56.023781" lon="26.383163">
<ele>96.960022</ele>
<time>2010-08-29T16:42:48Z</time>
<desc>lat.=56.023781, lon.=26.383163, Alt.=96.960022m. Speed=27.827999m/h.</desc>
<speed>7.730000</speed>
</trkpt>
<trkpt lat="56.023712" lon="26.383196">
<ele>96.741272</ele>
<time>2010-08-29T16:42:49Z</time>
<desc>lat.=56.023712, lon.=26.383196, Alt.=96.741272m. Speed=27.684000m/h.</desc>
<speed>7.690000</speed>
</trkpt>
<trkpt lat="56.023647" lon="26.383223">
<ele>96.547913</ele>
<time>2010-08-29T16:42:50Z</time>
<desc>lat.=56.023647, lon.=26.383223, Alt.=96.547913m. Speed=27.360001m/h.</desc>
<speed>7.600000</speed>
</trkpt>
<trkpt lat="56.023582" lon="26.383251">
<ele>96.481506</ele>
<time>2010-08-29T16:42:51Z</time>
<desc>lat.=56.023582, lon.=26.383251, Alt.=96.481506m. Speed=27.108000m/h.</desc>
<speed>7.530000</speed>
</trkpt>
<trkpt lat="56.023518" lon="26.383282">
<ele>96.438538</ele>
<time>2010-08-29T16:42:52Z</time>
<desc>lat.=56.023518, lon.=26.383282, Alt.=96.438538m. Speed=26.820000m/h.</desc>
<speed>7.450000</speed>
</trkpt>
<trkpt lat="56.023453" lon="26.383312">
<ele>96.331116</ele>
<time>2010-08-29T16:42:53Z</time>
<desc>lat.=56.023453, lon.=26.383312, Alt.=96.331116m. Speed=26.639999m/h.</desc>
<speed>7.400000</speed>
</trkpt>
<trkpt lat="56.023388" lon="26.383347">
<ele>96.223694</ele>
<time>2010-08-29T16:42:54Z</time>
<desc>lat.=56.023388, lon.=26.383347, Alt.=96.223694m. Speed=26.568001m/h.</desc>
<speed>7.380000</speed>
</trkpt>
<trkpt lat="56.023327" lon="26.383385">
<ele>96.102600</ele>
<time>2010-08-29T16:42:55Z</time>
<desc>lat.=56.023327, lon.=26.383385, Alt.=96.102600m. Speed=26.280001m/h.</desc>
<speed>7.300000</speed>
</trkpt>
<trkpt lat="56.023262" lon="26.383421">
<ele>95.995178</ele>
<time>2010-08-29T16:42:56Z</time>
<desc>lat.=56.023262, lon.=26.383421, Alt.=95.995178m. Speed=26.136000m/h.</desc>
<speed>7.260000</speed>
</trkpt>
<trkpt lat="56.023197" lon="26.383450">
<ele>95.850647</ele>
<time>2010-08-29T16:42:57Z</time>
<desc>lat.=56.023197, lon.=26.383450, Alt.=95.850647m. Speed=25.848000m/h.</desc>
<speed>7.180000</speed>
</trkpt>
<trkpt lat="56.023136" lon="26.383480">
<ele>95.852600</ele>
<time>2010-08-29T16:42:58Z</time>
<desc>lat.=56.023136, lon.=26.383480, Alt.=95.852600m. Speed=25.524000m/h.</desc>
<speed>7.090000</speed>
</trkpt>
<trkpt lat="56.023075" lon="26.383509">
<ele>95.823303</ele>
<time>2010-08-29T16:42:59Z</time>
<desc>lat.=56.023075, lon.=26.383509, Alt.=95.823303m. Speed=25.344000m/h.</desc>
<speed>7.040000</speed>
</trkpt>
<trkpt lat="56.023014" lon="26.383537">
<ele>95.602600</ele>
<time>2010-08-29T16:43:00Z</time>
<desc>lat.=56.023014, lon.=26.383537, Alt.=95.602600m. Speed=25.056000m/h.</desc>
<speed>6.960000</speed>
</trkpt>
<trkpt lat="56.022957" lon="26.383566">
<ele>95.524475</ele>
<time>2010-08-29T16:43:01Z</time>
<desc>lat.=56.022957, lon.=26.383566, Alt.=95.524475m. Speed=24.768000m/h.</desc>
<speed>6.880000</speed>
</trkpt>
<trkpt lat="56.022896" lon="26.383593">
<ele>95.350647</ele>
<time>2010-08-29T16:43:02Z</time>
<desc>lat.=56.022896, lon.=26.383593, Alt.=95.350647m. Speed=24.695999m/h.</desc>
<speed>6.860000</speed>
</trkpt>
<trkpt lat="56.022835" lon="26.383614">
<ele>95.042053</ele>
<time>2010-08-29T16:43:03Z</time>
<desc>lat.=56.022835, lon.=26.383614, Alt.=95.042053m. Speed=26.136000m/h.</desc>
<speed>7.260000</speed>
</trkpt>
<trkpt lat="56.022770" lon="26.383636">
<ele>94.815491</ele>
<time>2010-08-29T16:43:04Z</time>
<desc>lat.=56.022770, lon.=26.383636, Alt.=94.815491m. Speed=26.100000m/h.</desc>
<speed>7.250000</speed>
</trkpt>
<trkpt lat="56.022709" lon="26.383654">
<ele>94.975647</ele>
<time>2010-08-29T16:43:05Z</time>
<desc>lat.=56.022709, lon.=26.383654, Alt.=94.975647m. Speed=27.288000m/h.</desc>
<speed>7.580000</speed>
</trkpt>
<trkpt lat="56.022644" lon="26.383684">
<ele>94.985413</ele>
<time>2010-08-29T16:43:06Z</time>
<desc>lat.=56.022644, lon.=26.383684, Alt.=94.985413m. Speed=27.000000m/h.</desc>
<speed>7.500000</speed>
</trkpt>
<trkpt lat="56.022579" lon="26.383715">
<ele>94.948303</ele>
<time>2010-08-29T16:43:07Z</time>
<desc>lat.=56.022579, lon.=26.383715, Alt.=94.948303m. Speed=26.676001m/h.</desc>
<speed>7.410000</speed>
</trkpt>
<trkpt lat="56.022514" lon="26.383747">
<ele>94.934631</ele>
<time>2010-08-29T16:43:08Z</time>
<desc>lat.=56.022514, lon.=26.383747, Alt.=94.934631m. Speed=26.280001m/h.</desc>
<speed>7.300000</speed>
</trkpt>
<trkpt lat="56.022453" lon="26.383780">
<ele>94.872131</ele>
<time>2010-08-29T16:43:09Z</time>
<desc>lat.=56.022453, lon.=26.383780, Alt.=94.872131m. Speed=25.920000m/h.</desc>
<speed>7.200000</speed>
</trkpt>
<trkpt lat="56.022396" lon="26.383812">
<ele>94.895569</ele>
<time>2010-08-29T16:43:10Z</time>
<desc>lat.=56.022396, lon.=26.383812, Alt.=94.895569m. Speed=25.596001m/h.</desc>
<speed>7.110000</speed>
</trkpt>
<trkpt lat="56.022335" lon="26.383841">
<ele>94.872131</ele>
<time>2010-08-29T16:43:11Z</time>
<desc>lat.=56.022335, lon.=26.383841, Alt.=94.872131m. Speed=25.271999m/h.</desc>
<speed>7.020000</speed>
</trkpt>
<trkpt lat="56.022274" lon="26.383871">
<ele>94.905334</ele>
<time>2010-08-29T16:43:12Z</time>
<desc>lat.=56.022274, lon.=26.383871, Alt.=94.905334m. Speed=25.164000m/h.</desc>
<speed>6.990000</speed>
</trkpt>
<trkpt lat="56.022213" lon="26.383900">
<ele>94.805725</ele>
<time>2010-08-29T16:43:13Z</time>
<desc>lat.=56.022213, lon.=26.383900, Alt.=94.805725m. Speed=25.452000m/h.</desc>
<speed>7.070000</speed>
</trkpt>
<trkpt lat="56.022152" lon="26.383930">
<ele>94.899475</ele>
<time>2010-08-29T16:43:14Z</time>
<desc>lat.=56.022152, lon.=26.383930, Alt.=94.899475m. Speed=26.459999m/h.</desc>
<speed>7.350000</speed>
</trkpt>
<trkpt lat="56.022087" lon="26.383965">
<ele>94.905334</ele>
<time>2010-08-29T16:43:15Z</time>
<desc>lat.=56.022087, lon.=26.383965, Alt.=94.905334m. Speed=26.927999m/h.</desc>
<speed>7.480000</speed>
</trkpt>
<trkpt lat="56.022026" lon="26.384003">
<ele>95.655334</ele>
<time>2010-08-29T16:43:16Z</time>
<desc>lat.=56.022026, lon.=26.384003, Alt.=95.655334m. Speed=25.236000m/h.</desc>
<speed>7.010000</speed>
</trkpt>
<trkpt lat="56.021965" lon="26.384037">
<ele>96.124084</ele>
<time>2010-08-29T16:43:17Z</time>
<desc>lat.=56.021965, lon.=26.384037, Alt.=96.124084m. Speed=25.667999m/h.</desc>
<speed>7.130000</speed>
</trkpt>
<trkpt lat="56.021904" lon="26.384069">
<ele>96.204163</ele>
<time>2010-08-29T16:43:18Z</time>
<desc>lat.=56.021904, lon.=26.384069, Alt.=96.204163m. Speed=25.271999m/h.</desc>
<speed>7.020000</speed>
</trkpt>
<trkpt lat="56.021843" lon="26.384106">
<ele>96.178772</ele>
<time>2010-08-29T16:43:19Z</time>
<desc>lat.=56.021843, lon.=26.384106, Alt.=96.178772m. Speed=24.804001m/h.</desc>
<speed>6.890000</speed>
</trkpt>
<trkpt lat="56.021782" lon="26.384142">
<ele>96.016663</ele>
<time>2010-08-29T16:43:20Z</time>
<desc>lat.=56.021782, lon.=26.384142, Alt.=96.016663m. Speed=24.587999m/h.</desc>
<speed>6.830000</speed>
</trkpt>
<trkpt lat="56.021721" lon="26.384174">
<ele>95.893616</ele>
<time>2010-08-29T16:43:21Z</time>
<desc>lat.=56.021721, lon.=26.384174, Alt.=95.893616m. Speed=24.695999m/h.</desc>
<speed>6.860000</speed>
</trkpt>
<trkpt lat="56.021664" lon="26.384209">
<ele>95.801819</ele>
<time>2010-08-29T16:43:22Z</time>
<desc>lat.=56.021664, lon.=26.384209, Alt.=95.801819m. Speed=25.704000m/h.</desc>
<speed>7.140000</speed>
</trkpt>
<trkpt lat="56.021599" lon="26.384241">
<ele>95.801819</ele>
<time>2010-08-29T16:43:23Z</time>
<desc>lat.=56.021599, lon.=26.384241, Alt.=95.801819m. Speed=26.280001m/h.</desc>
<speed>7.300000</speed>
</trkpt>
<trkpt lat="56.021538" lon="26.384274">
<ele>95.731506</ele>
<time>2010-08-29T16:43:24Z</time>
<desc>lat.=56.021538, lon.=26.384274, Alt.=95.731506m. Speed=26.676001m/h.</desc>
<speed>7.410000</speed>
</trkpt>
<trkpt lat="56.021473" lon="26.384306">
<ele>95.710022</ele>
<time>2010-08-29T16:43:25Z</time>
<desc>lat.=56.021473, lon.=26.384306, Alt.=95.710022m. Speed=26.351999m/h.</desc>
<speed>7.320000</speed>
</trkpt>
<trkpt lat="56.021412" lon="26.384342">
<ele>95.678772</ele>
<time>2010-08-29T16:43:26Z</time>
<desc>lat.=56.021412, lon.=26.384342, Alt.=95.678772m. Speed=25.955999m/h.</desc>
<speed>7.210000</speed>
</trkpt>
<trkpt lat="56.021351" lon="26.384373">
<ele>95.590881</ele>
<time>2010-08-29T16:43:27Z</time>
<desc>lat.=56.021351, lon.=26.384373, Alt.=95.590881m. Speed=25.559999m/h.</desc>
<speed>7.100000</speed>
</trkpt>
<trkpt lat="56.021294" lon="26.384403">
<ele>95.586975</ele>
<time>2010-08-29T16:43:28Z</time>
<desc>lat.=56.021294, lon.=26.384403, Alt.=95.586975m. Speed=25.091999m/h.</desc>
<speed>6.970000</speed>
</trkpt>
<trkpt lat="56.021233" lon="26.384438">
<ele>94.920959</ele>
<time>2010-08-29T16:43:29Z</time>
<desc>lat.=56.021233, lon.=26.384438, Alt.=94.920959m. Speed=25.452000m/h.</desc>
<speed>7.070000</speed>
</trkpt>
<trkpt lat="56.021172" lon="26.384472">
<ele>94.573303</ele>
<time>2010-08-29T16:43:30Z</time>
<desc>lat.=56.021172, lon.=26.384472, Alt.=94.573303m. Speed=24.011999m/h.</desc>
<speed>6.670000</speed>
</trkpt>
<trkpt lat="56.021118" lon="26.384504">
<ele>94.553772</ele>
<time>2010-08-29T16:43:31Z</time>
<desc>lat.=56.021118, lon.=26.384504, Alt.=94.553772m. Speed=23.507999m/h.</desc>
<speed>6.530000</speed>
</trkpt>
<trkpt lat="56.021065" lon="26.384539">
<ele>94.461975</ele>
<time>2010-08-29T16:43:32Z</time>
<desc>lat.=56.021065, lon.=26.384539, Alt.=94.461975m. Speed=23.219999m/h.</desc>
<speed>6.450000</speed>
</trkpt>
<trkpt lat="56.021011" lon="26.384573">
<ele>94.434631</ele>
<time>2010-08-29T16:43:33Z</time>
<desc>lat.=56.021011, lon.=26.384573, Alt.=94.434631m. Speed=23.004000m/h.</desc>
<speed>6.390000</speed>
</trkpt>
<trkpt lat="56.020958" lon="26.384605">
<ele>94.452209</ele>
<time>2010-08-29T16:43:34Z</time>
<desc>lat.=56.020958, lon.=26.384605, Alt.=94.452209m. Speed=22.788000m/h.</desc>
<speed>6.330000</speed>
</trkpt>
<trkpt lat="56.020901" lon="26.384636">
<ele>94.424866</ele>
<time>2010-08-29T16:43:35Z</time>
<desc>lat.=56.020901, lon.=26.384636, Alt.=94.424866m. Speed=22.427999m/h.</desc>
<speed>6.230000</speed>
</trkpt>
<trkpt lat="56.020847" lon="26.384663">
<ele>94.555725</ele>
<time>2010-08-29T16:43:36Z</time>
<desc>lat.=56.020847, lon.=26.384663, Alt.=94.555725m. Speed=21.924000m/h.</desc>
<speed>6.090000</speed>
</trkpt>
<trkpt lat="56.020798" lon="26.384686">
<ele>94.606506</ele>
<time>2010-08-29T16:43:37Z</time>
<desc>lat.=56.020798, lon.=26.384686, Alt.=94.606506m. Speed=21.492001m/h.</desc>
<speed>5.970000</speed>
</trkpt>
<trkpt lat="56.020744" lon="26.384710">
<ele>94.641663</ele>
<time>2010-08-29T16:43:38Z</time>
<desc>lat.=56.020744, lon.=26.384710, Alt.=94.641663m. Speed=21.240000m/h.</desc>
<speed>5.900000</speed>
</trkpt>
<trkpt lat="56.020699" lon="26.384741">
<ele>94.669006</ele>
<time>2010-08-29T16:43:39Z</time>
<desc>lat.=56.020699, lon.=26.384741, Alt.=94.669006m. Speed=20.952000m/h.</desc>
<speed>5.820000</speed>
</trkpt>
<trkpt lat="56.020649" lon="26.384769">
<ele>94.676819</ele>
<time>2010-08-29T16:43:40Z</time>
<desc>lat.=56.020649, lon.=26.384769, Alt.=94.676819m. Speed=20.520000m/h.</desc>
<speed>5.700000</speed>
</trkpt>
<trkpt lat="56.020603" lon="26.384798">
<ele>94.502991</ele>
<time>2010-08-29T16:43:41Z</time>
<desc>lat.=56.020603, lon.=26.384798, Alt.=94.502991m. Speed=20.268000m/h.</desc>
<speed>5.630000</speed>
</trkpt>
<trkpt lat="56.020557" lon="26.384823">
<ele>95.356506</ele>
<time>2010-08-29T16:43:42Z</time>
<desc>lat.=56.020557, lon.=26.384823, Alt.=95.356506m. Speed=18.504000m/h.</desc>
<speed>5.140000</speed>
</trkpt>
<trkpt lat="56.020515" lon="26.384848">
<ele>95.667053</ele>
<time>2010-08-29T16:43:43Z</time>
<desc>lat.=56.020515, lon.=26.384848, Alt.=95.667053m. Speed=18.827999m/h.</desc>
<speed>5.230000</speed>
</trkpt>
<trkpt lat="56.020470" lon="26.384874">
<ele>95.778381</ele>
<time>2010-08-29T16:43:44Z</time>
<desc>lat.=56.020470, lon.=26.384874, Alt.=95.778381m. Speed=18.504000m/h.</desc>
<speed>5.140000</speed>
</trkpt>
<trkpt lat="56.020424" lon="26.384897">
<ele>95.848694</ele>
<time>2010-08-29T16:43:45Z</time>
<desc>lat.=56.020424, lon.=26.384897, Alt.=95.848694m. Speed=18.143999m/h.</desc>
<speed>5.040000</speed>
</trkpt>
<trkpt lat="56.020382" lon="26.384914">
<ele>95.877991</ele>
<time>2010-08-29T16:43:46Z</time>
<desc>lat.=56.020382, lon.=26.384914, Alt.=95.877991m. Speed=17.676001m/h.</desc>
<speed>4.910000</speed>
</trkpt>
<trkpt lat="56.020340" lon="26.384935">
<ele>95.944397</ele>
<time>2010-08-29T16:43:47Z</time>
<desc>lat.=56.020340, lon.=26.384935, Alt.=95.944397m. Speed=17.424000m/h.</desc>
<speed>4.840000</speed>
</trkpt>
<trkpt lat="56.020302" lon="26.384956">
<ele>95.838928</ele>
<time>2010-08-29T16:43:48Z</time>
<desc>lat.=56.020302, lon.=26.384956, Alt.=95.838928m. Speed=17.063999m/h.</desc>
<speed>4.740000</speed>
</trkpt>
<trkpt lat="56.020260" lon="26.384987">
<ele>95.895569</ele>
<time>2010-08-29T16:43:49Z</time>
<desc>lat.=56.020260, lon.=26.384987, Alt.=95.895569m. Speed=16.848000m/h.</desc>
<speed>4.680000</speed>
</trkpt>
<trkpt lat="56.020222" lon="26.385014">
<ele>95.917053</ele>
<time>2010-08-29T16:43:50Z</time>
<desc>lat.=56.020222, lon.=26.385014, Alt.=95.917053m. Speed=16.596001m/h.</desc>
<speed>4.610000</speed>
</trkpt>
<trkpt lat="56.020184" lon="26.385038">
<ele>95.858459</ele>
<time>2010-08-29T16:43:51Z</time>
<desc>lat.=56.020184, lon.=26.385038, Alt.=95.858459m. Speed=15.912000m/h.</desc>
<speed>4.420000</speed>
</trkpt>
<trkpt lat="56.020145" lon="26.385065">
<ele>95.864319</ele>
<time>2010-08-29T16:43:52Z</time>
<desc>lat.=56.020145, lon.=26.385065, Alt.=95.864319m. Speed=16.488001m/h.</desc>
<speed>4.580000</speed>
</trkpt>
<trkpt lat="56.020103" lon="26.385088">
<ele>95.920959</ele>
<time>2010-08-29T16:43:53Z</time>
<desc>lat.=56.020103, lon.=26.385088, Alt.=95.920959m. Speed=17.351999m/h.</desc>
<speed>4.820000</speed>
</trkpt>
<trkpt lat="56.020061" lon="26.385113">
<ele>96.032288</ele>
<time>2010-08-29T16:43:54Z</time>
<desc>lat.=56.020061, lon.=26.385113, Alt.=96.032288m. Speed=17.856001m/h.</desc>
<speed>4.960000</speed>
</trkpt>
<trkpt lat="56.020016" lon="26.385134">
<ele>94.827209</ele>
<time>2010-08-29T16:43:55Z</time>
<desc>lat.=56.020016, lon.=26.385134, Alt.=94.827209m. Speed=19.872000m/h.</desc>
<speed>5.520000</speed>
</trkpt>
<trkpt lat="56.019974" lon="26.385164">
<ele>94.405334</ele>
<time>2010-08-29T16:43:56Z</time>
<desc>lat.=56.019974, lon.=26.385164, Alt.=94.405334m. Speed=19.188000m/h.</desc>
<speed>5.330000</speed>
</trkpt>
<trkpt lat="56.019924" lon="26.385191">
<ele>94.325256</ele>
<time>2010-08-29T16:43:57Z</time>
<desc>lat.=56.019924, lon.=26.385191, Alt.=94.325256m. Speed=19.764000m/h.</desc>
<speed>5.490000</speed>
</trkpt>
<trkpt lat="56.019875" lon="26.385214">
<ele>94.411194</ele>
<time>2010-08-29T16:43:58Z</time>
<desc>lat.=56.019875, lon.=26.385214, Alt.=94.411194m. Speed=20.160000m/h.</desc>
<speed>5.600000</speed>
</trkpt>
<trkpt lat="56.019825" lon="26.385242">
<ele>94.502991</ele>
<time>2010-08-29T16:43:59Z</time>
<desc>lat.=56.019825, lon.=26.385242, Alt.=94.502991m. Speed=20.700001m/h.</desc>
<speed>5.750000</speed>
</trkpt>
<trkpt lat="56.019775" lon="26.385271">
<ele>94.643616</ele>
<time>2010-08-29T16:44:00Z</time>
<desc>lat.=56.019775, lon.=26.385271, Alt.=94.643616m. Speed=20.988001m/h.</desc>
<speed>5.830000</speed>
</trkpt>
<trkpt lat="56.019726" lon="26.385303">
<ele>94.649475</ele>
<time>2010-08-29T16:44:01Z</time>
<desc>lat.=56.019726, lon.=26.385303, Alt.=94.649475m. Speed=21.384001m/h.</desc>
<speed>5.940000</speed>
</trkpt>
<trkpt lat="56.019676" lon="26.385336">
<ele>94.786194</ele>
<time>2010-08-29T16:44:02Z</time>
<desc>lat.=56.019676, lon.=26.385336, Alt.=94.786194m. Speed=21.204000m/h.</desc>
<speed>5.890000</speed>
</trkpt>
<trkpt lat="56.019627" lon="26.385366">
<ele>94.719788</ele>
<time>2010-08-29T16:44:03Z</time>
<desc>lat.=56.019627, lon.=26.385366, Alt.=94.719788m. Speed=20.628000m/h.</desc>
<speed>5.730000</speed>
</trkpt>
<trkpt lat="56.019577" lon="26.385405">
<ele>94.854553</ele>
<time>2010-08-29T16:44:04Z</time>
<desc>lat.=56.019577, lon.=26.385405, Alt.=94.854553m. Speed=20.195999m/h.</desc>
<speed>5.610000</speed>
</trkpt>
<trkpt lat="56.019531" lon="26.385431">
<ele>94.815491</ele>
<time>2010-08-29T16:44:05Z</time>
<desc>lat.=56.019531, lon.=26.385431, Alt.=94.815491m. Speed=19.620001m/h.</desc>
<speed>5.450000</speed>
</trkpt>
<trkpt lat="56.019485" lon="26.385454">
<ele>94.842834</ele>
<time>2010-08-29T16:44:06Z</time>
<desc>lat.=56.019485, lon.=26.385454, Alt.=94.842834m. Speed=19.368000m/h.</desc>
<speed>5.380000</speed>
</trkpt>
<trkpt lat="56.019440" lon="26.385481">
<ele>94.868225</ele>
<time>2010-08-29T16:44:07Z</time>
<desc>lat.=56.019440, lon.=26.385481, Alt.=94.868225m. Speed=18.827999m/h.</desc>
<speed>5.230000</speed>
</trkpt>
<trkpt lat="56.019398" lon="26.385509">
<ele>94.905334</ele>
<time>2010-08-29T16:44:08Z</time>
<desc>lat.=56.019398, lon.=26.385509, Alt.=94.905334m. Speed=18.360001m/h.</desc>
<speed>5.100000</speed>
</trkpt>
<trkpt lat="56.019356" lon="26.385544">
<ele>94.360413</ele>
<time>2010-08-29T16:44:09Z</time>
<desc>lat.=56.019356, lon.=26.385544, Alt.=94.360413m. Speed=18.612000m/h.</desc>
<speed>5.170000</speed>
</trkpt>
<trkpt lat="56.019314" lon="26.385574">
<ele>94.163147</ele>
<time>2010-08-29T16:44:10Z</time>
<desc>lat.=56.019314, lon.=26.385574, Alt.=94.163147m. Speed=17.676001m/h.</desc>
<speed>4.910000</speed>
</trkpt>
<trkpt lat="56.019272" lon="26.385601">
<ele>94.176819</ele>
<time>2010-08-29T16:44:11Z</time>
<desc>lat.=56.019272, lon.=26.385601, Alt.=94.176819m. Speed=17.100000m/h.</desc>
<speed>4.750000</speed>
</trkpt>
<trkpt lat="56.019230" lon="26.385626">
<ele>94.301819</ele>
<time>2010-08-29T16:44:12Z</time>
<desc>lat.=56.019230, lon.=26.385626, Alt.=94.301819m. Speed=16.704000m/h.</desc>
<speed>4.640000</speed>
</trkpt>
<trkpt lat="56.019192" lon="26.385645">
<ele>94.372131</ele>
<time>2010-08-29T16:44:13Z</time>
<desc>lat.=56.019192, lon.=26.385645, Alt.=94.372131m. Speed=16.091999m/h.</desc>
<speed>4.470000</speed>
</trkpt>
<trkpt lat="56.019154" lon="26.385666">
<ele>94.333069</ele>
<time>2010-08-29T16:44:14Z</time>
<desc>lat.=56.019154, lon.=26.385666, Alt.=94.333069m. Speed=17.063999m/h.</desc>
<speed>4.740000</speed>
</trkpt>
<trkpt lat="56.019115" lon="26.385693">
<ele>94.321350</ele>
<time>2010-08-29T16:44:15Z</time>
<desc>lat.=56.019115, lon.=26.385693, Alt.=94.321350m. Speed=17.712000m/h.</desc>
<speed>4.920000</speed>
</trkpt>
<trkpt lat="56.019073" lon="26.385717">
<ele>94.348694</ele>
<time>2010-08-29T16:44:16Z</time>
<desc>lat.=56.019073, lon.=26.385717, Alt.=94.348694m. Speed=18.288000m/h.</desc>
<speed>5.080000</speed>
</trkpt>
<trkpt lat="56.019028" lon="26.385744">
<ele>94.428772</ele>
<time>2010-08-29T16:44:17Z</time>
<desc>lat.=56.019028, lon.=26.385744, Alt.=94.428772m. Speed=19.188000m/h.</desc>
<speed>5.330000</speed>
</trkpt>
<trkpt lat="56.018982" lon="26.385771">
<ele>94.012756</ele>
<time>2010-08-29T16:44:18Z</time>
<desc>lat.=56.018982, lon.=26.385771, Alt.=94.012756m. Speed=19.440001m/h.</desc>
<speed>5.400000</speed>
</trkpt>
<trkpt lat="56.018940" lon="26.385798">
<ele>93.780334</ele>
<time>2010-08-29T16:44:19Z</time>
<desc>lat.=56.018940, lon.=26.385798, Alt.=93.780334m. Speed=18.396000m/h.</desc>
<speed>5.110000</speed>
</trkpt>
<trkpt lat="56.018898" lon="26.385826">
<ele>93.979553</ele>
<time>2010-08-29T16:44:20Z</time>
<desc>lat.=56.018898, lon.=26.385826, Alt.=93.979553m. Speed=18.216000m/h.</desc>
<speed>5.060000</speed>
</trkpt>
<trkpt lat="56.018856" lon="26.385857">
<ele>94.028381</ele>
<time>2010-08-29T16:44:21Z</time>
<desc>lat.=56.018856, lon.=26.385857, Alt.=94.028381m. Speed=17.639999m/h.</desc>
<speed>4.900000</speed>
</trkpt>
<trkpt lat="56.018814" lon="26.385885">
<ele>94.069397</ele>
<time>2010-08-29T16:44:22Z</time>
<desc>lat.=56.018814, lon.=26.385885, Alt.=94.069397m. Speed=17.351999m/h.</desc>
<speed>4.820000</speed>
</trkpt>
<trkpt lat="56.018776" lon="26.385912">
<ele>94.192444</ele>
<time>2010-08-29T16:44:23Z</time>
<desc>lat.=56.018776, lon.=26.385912, Alt.=94.192444m. Speed=16.667999m/h.</desc>
<speed>4.630000</speed>
</trkpt>
<trkpt lat="56.018734" lon="26.385939">
<ele>94.379944</ele>
<time>2010-08-29T16:44:24Z</time>
<desc>lat.=56.018734, lon.=26.385939, Alt.=94.379944m. Speed=16.920000m/h.</desc>
<speed>4.700000</speed>
</trkpt>
<trkpt lat="56.018696" lon="26.385965">
<ele>94.544006</ele>
<time>2010-08-29T16:44:25Z</time>
<desc>lat.=56.018696, lon.=26.385965, Alt.=94.544006m. Speed=18.504000m/h.</desc>
<speed>5.140000</speed>
</trkpt>
<trkpt lat="56.018654" lon="26.385992">
<ele>94.538147</ele>
<time>2010-08-29T16:44:26Z</time>
<desc>lat.=56.018654, lon.=26.385992, Alt.=94.538147m. Speed=19.296000m/h.</desc>
<speed>5.360000</speed>
</trkpt>
<trkpt lat="56.018604" lon="26.386019">
<ele>94.635803</ele>
<time>2010-08-29T16:44:27Z</time>
<desc>lat.=56.018604, lon.=26.386019, Alt.=94.635803m. Speed=20.160000m/h.</desc>
<speed>5.600000</speed>
</trkpt>
<trkpt lat="56.018559" lon="26.386045">
<ele>94.665100</ele>
<time>2010-08-29T16:44:28Z</time>
<desc>lat.=56.018559, lon.=26.386045, Alt.=94.665100m. Speed=20.916000m/h.</desc>
<speed>5.810000</speed>
</trkpt>
<trkpt lat="56.018509" lon="26.386078">
<ele>94.790100</ele>
<time>2010-08-29T16:44:29Z</time>
<desc>lat.=56.018509, lon.=26.386078, Alt.=94.790100m. Speed=21.420000m/h.</desc>
<speed>5.950000</speed>
</trkpt>
<trkpt lat="56.018456" lon="26.386112">
<ele>94.965881</ele>
<time>2010-08-29T16:44:30Z</time>
<desc>lat.=56.018456, lon.=26.386112, Alt.=94.965881m. Speed=21.996000m/h.</desc>
<speed>6.110000</speed>
</trkpt>
<trkpt lat="56.018406" lon="26.386148">
<ele>95.053772</ele>
<time>2010-08-29T16:44:31Z</time>
<desc>lat.=56.018406, lon.=26.386148, Alt.=95.053772m. Speed=22.572001m/h.</desc>
<speed>6.270000</speed>
</trkpt>
<trkpt lat="56.018353" lon="26.386183">
<ele>95.180725</ele>
<time>2010-08-29T16:44:32Z</time>
<desc>lat.=56.018353, lon.=26.386183, Alt.=95.180725m. Speed=23.076000m/h.</desc>
<speed>6.410000</speed>
</trkpt>
<trkpt lat="56.018295" lon="26.386219">
<ele>95.116272</ele>
<time>2010-08-29T16:44:33Z</time>
<desc>lat.=56.018295, lon.=26.386219, Alt.=95.116272m. Speed=23.652000m/h.</desc>
<speed>6.570000</speed>
</trkpt>
<trkpt lat="56.018242" lon="26.386255">
<ele>95.200256</ele>
<time>2010-08-29T16:44:34Z</time>
<desc>lat.=56.018242, lon.=26.386255, Alt.=95.200256m. Speed=22.860001m/h.</desc>
<speed>6.350000</speed>
</trkpt>
<trkpt lat="56.018188" lon="26.386288">
<ele>95.407288</ele>
<time>2010-08-29T16:44:35Z</time>
<desc>lat.=56.018188, lon.=26.386288, Alt.=95.407288m. Speed=22.356001m/h.</desc>
<speed>6.210000</speed>
</trkpt>
<trkpt lat="56.018139" lon="26.386322">
<ele>95.555725</ele>
<time>2010-08-29T16:44:36Z</time>
<desc>lat.=56.018139, lon.=26.386322, Alt.=95.555725m. Speed=21.816000m/h.</desc>
<speed>6.060000</speed>
</trkpt>
<trkpt lat="56.018085" lon="26.386358">
<ele>95.467834</ele>
<time>2010-08-29T16:44:37Z</time>
<desc>lat.=56.018085, lon.=26.386358, Alt.=95.467834m. Speed=21.384001m/h.</desc>
<speed>5.940000</speed>
</trkpt>
<trkpt lat="56.018036" lon="26.386391">
<ele>95.534241</ele>
<time>2010-08-29T16:44:38Z</time>
<desc>lat.=56.018036, lon.=26.386391, Alt.=95.534241m. Speed=22.139999m/h.</desc>
<speed>6.150000</speed>
</trkpt>
<trkpt lat="56.017975" lon="26.386419">
<ele>93.661194</ele>
<time>2010-08-29T16:44:39Z</time>
<desc>lat.=56.017975, lon.=26.386419, Alt.=93.661194m. Speed=24.372000m/h.</desc>
<speed>6.770000</speed>
</trkpt>
<trkpt lat="56.017921" lon="26.386456">
<ele>93.096741</ele>
<time>2010-08-29T16:44:40Z</time>
<desc>lat.=56.017921, lon.=26.386456, Alt.=93.096741m. Speed=23.940001m/h.</desc>
<speed>6.650000</speed>
</trkpt>
<trkpt lat="56.017864" lon="26.386492">
<ele>92.960022</ele>
<time>2010-08-29T16:44:41Z</time>
<desc>lat.=56.017864, lon.=26.386492, Alt.=92.960022m. Speed=23.868000m/h.</desc>
<speed>6.630000</speed>
</trkpt>
<trkpt lat="56.017811" lon="26.386526">
<ele>92.907288</ele>
<time>2010-08-29T16:44:42Z</time>
<desc>lat.=56.017811, lon.=26.386526, Alt.=92.907288m. Speed=24.552000m/h.</desc>
<speed>6.820000</speed>
</trkpt>
<trkpt lat="56.017754" lon="26.386564">
<ele>92.762756</ele>
<time>2010-08-29T16:44:43Z</time>
<desc>lat.=56.017754, lon.=26.386564, Alt.=92.762756m. Speed=24.768000m/h.</desc>
<speed>6.880000</speed>
</trkpt>
<trkpt lat="56.017696" lon="26.386600">
<ele>92.686584</ele>
<time>2010-08-29T16:44:44Z</time>
<desc>lat.=56.017696, lon.=26.386600, Alt.=92.686584m. Speed=25.128000m/h.</desc>
<speed>6.980000</speed>
</trkpt>
<trkpt lat="56.017635" lon="26.386639">
<ele>92.776428</ele>
<time>2010-08-29T16:44:45Z</time>
<desc>lat.=56.017635, lon.=26.386639, Alt.=92.776428m. Speed=25.200001m/h.</desc>
<speed>7.000000</speed>
</trkpt>
<trkpt lat="56.017578" lon="26.386679">
<ele>92.856506</ele>
<time>2010-08-29T16:44:46Z</time>
<desc>lat.=56.017578, lon.=26.386679, Alt.=92.856506m. Speed=24.768000m/h.</desc>
<speed>6.880000</speed>
</trkpt>
<trkpt lat="56.017521" lon="26.386715">
<ele>92.915100</ele>
<time>2010-08-29T16:44:47Z</time>
<desc>lat.=56.017521, lon.=26.386715, Alt.=92.915100m. Speed=23.940001m/h.</desc>
<speed>6.650000</speed>
</trkpt>
<trkpt lat="56.017464" lon="26.386749">
<ele>92.885803</ele>
<time>2010-08-29T16:44:48Z</time>
<desc>lat.=56.017464, lon.=26.386749, Alt.=92.885803m. Speed=23.040001m/h.</desc>
<speed>6.400000</speed>
</trkpt>
<trkpt lat="56.017414" lon="26.386786">
<ele>93.092834</ele>
<time>2010-08-29T16:44:49Z</time>
<desc>lat.=56.017414, lon.=26.386786, Alt.=93.092834m. Speed=22.752001m/h.</desc>
<speed>6.320000</speed>
</trkpt>
<trkpt lat="56.017361" lon="26.386826">
<ele>93.329163</ele>
<time>2010-08-29T16:44:50Z</time>
<desc>lat.=56.017361, lon.=26.386826, Alt.=93.329163m. Speed=22.284000m/h.</desc>
<speed>6.190000</speed>
</trkpt>
<trkpt lat="56.017307" lon="26.386862">
<ele>93.436584</ele>
<time>2010-08-29T16:44:51Z</time>
<desc>lat.=56.017307, lon.=26.386862, Alt.=93.436584m. Speed=21.708000m/h.</desc>
<speed>6.030000</speed>
</trkpt>
<trkpt lat="56.017258" lon="26.386896">
<ele>93.506897</ele>
<time>2010-08-29T16:44:52Z</time>
<desc>lat.=56.017258, lon.=26.386896, Alt.=93.506897m. Speed=21.672001m/h.</desc>
<speed>6.020000</speed>
</trkpt>
<trkpt lat="56.017208" lon="26.386929">
<ele>93.575256</ele>
<time>2010-08-29T16:44:53Z</time>
<desc>lat.=56.017208, lon.=26.386929, Alt.=93.575256m. Speed=20.844000m/h.</desc>
<speed>5.790000</speed>
</trkpt>
<trkpt lat="56.017159" lon="26.386955">
<ele>93.440491</ele>
<time>2010-08-29T16:44:54Z</time>
<desc>lat.=56.017159, lon.=26.386955, Alt.=93.440491m. Speed=20.304001m/h.</desc>
<speed>5.640000</speed>
</trkpt>
<trkpt lat="56.017109" lon="26.386984">
<ele>93.631897</ele>
<time>2010-08-29T16:44:55Z</time>
<desc>lat.=56.017109, lon.=26.386984, Alt.=93.631897m. Speed=19.476000m/h.</desc>
<speed>5.410000</speed>
</trkpt>
<trkpt lat="56.017063" lon="26.387009">
<ele>94.018616</ele>
<time>2010-08-29T16:44:56Z</time>
<desc>lat.=56.017063, lon.=26.387009, Alt.=94.018616m. Speed=18.972000m/h.</desc>
<speed>5.270000</speed>
</trkpt>
<trkpt lat="56.017021" lon="26.387041">
<ele>94.247131</ele>
<time>2010-08-29T16:44:57Z</time>
<desc>lat.=56.017021, lon.=26.387041, Alt.=94.247131m. Speed=18.468000m/h.</desc>
<speed>5.130000</speed>
</trkpt>
<trkpt lat="56.016979" lon="26.387068">
<ele>94.420959</ele>
<time>2010-08-29T16:44:58Z</time>
<desc>lat.=56.016979, lon.=26.387068, Alt.=94.420959m. Speed=17.892000m/h.</desc>
<speed>4.970000</speed>
</trkpt>
<trkpt lat="56.016937" lon="26.387094">
<ele>94.520569</ele>
<time>2010-08-29T16:44:59Z</time>
<desc>lat.=56.016937, lon.=26.387094, Alt.=94.520569m. Speed=17.459999m/h.</desc>
<speed>4.850000</speed>
</trkpt>
<trkpt lat="56.016899" lon="26.387121">
<ele>94.446350</ele>
<time>2010-08-29T16:45:00Z</time>
<desc>lat.=56.016899, lon.=26.387121, Alt.=94.446350m. Speed=16.812000m/h.</desc>
<speed>4.670000</speed>
</trkpt>
<trkpt lat="56.016857" lon="26.387144">
<ele>94.526428</ele>
<time>2010-08-29T16:45:01Z</time>
<desc>lat.=56.016857, lon.=26.387144, Alt.=94.526428m. Speed=16.308001m/h.</desc>
<speed>4.530000</speed>
</trkpt>
<trkpt lat="56.016823" lon="26.387173">
<ele>94.555725</ele>
<time>2010-08-29T16:45:02Z</time>
<desc>lat.=56.016823, lon.=26.387173, Alt.=94.555725m. Speed=15.984000m/h.</desc>
<speed>4.440000</speed>
</trkpt>
<trkpt lat="56.016788" lon="26.387196">
<ele>94.901428</ele>
<time>2010-08-29T16:45:03Z</time>
<desc>lat.=56.016788, lon.=26.387196, Alt.=94.901428m. Speed=15.156000m/h.</desc>
<speed>4.210000</speed>
</trkpt>
<trkpt lat="56.016754" lon="26.387218">
<ele>94.973694</ele>
<time>2010-08-29T16:45:04Z</time>
<desc>lat.=56.016754, lon.=26.387218, Alt.=94.973694m. Speed=14.904000m/h.</desc>
<speed>4.140000</speed>
</trkpt>
<trkpt lat="56.016720" lon="26.387247">
<ele>94.995178</ele>
<time>2010-08-29T16:45:05Z</time>
<desc>lat.=56.016720, lon.=26.387247, Alt.=94.995178m. Speed=14.328000m/h.</desc>
<speed>3.980000</speed>
</trkpt>
<trkpt lat="56.016689" lon="26.387274">
<ele>95.379944</ele>
<time>2010-08-29T16:45:06Z</time>
<desc>lat.=56.016689, lon.=26.387274, Alt.=95.379944m. Speed=14.076000m/h.</desc>
<speed>3.910000</speed>
</trkpt>
<trkpt lat="56.016659" lon="26.387302">
<ele>95.801819</ele>
<time>2010-08-29T16:45:07Z</time>
<desc>lat.=56.016659, lon.=26.387302, Alt.=95.801819m. Speed=13.716000m/h.</desc>
<speed>3.810000</speed>
</trkpt>
<trkpt lat="56.016628" lon="26.387325">
<ele>96.139709</ele>
<time>2010-08-29T16:45:08Z</time>
<desc>lat.=56.016628, lon.=26.387325, Alt.=96.139709m. Speed=13.320000m/h.</desc>
<speed>3.700000</speed>
</trkpt>
<trkpt lat="56.016594" lon="26.387341">
<ele>95.954163</ele>
<time>2010-08-29T16:45:09Z</time>
<desc>lat.=56.016594, lon.=26.387341, Alt.=95.954163m. Speed=12.888000m/h.</desc>
<speed>3.580000</speed>
</trkpt>
<trkpt lat="56.016560" lon="26.387362">
<ele>95.143616</ele>
<time>2010-08-29T16:45:10Z</time>
<desc>lat.=56.016560, lon.=26.387362, Alt.=95.143616m. Speed=15.120000m/h.</desc>
<speed>4.200000</speed>
</trkpt>
<trkpt lat="56.016521" lon="26.387388">
<ele>94.647522</ele>
<time>2010-08-29T16:45:11Z</time>
<desc>lat.=56.016521, lon.=26.387388, Alt.=94.647522m. Speed=16.704000m/h.</desc>
<speed>4.640000</speed>
</trkpt>
<trkpt lat="56.016479" lon="26.387415">
<ele>94.053772</ele>
<time>2010-08-29T16:45:12Z</time>
<desc>lat.=56.016479, lon.=26.387415, Alt.=94.053772m. Speed=18.468000m/h.</desc>
<speed>5.130000</speed>
</trkpt>
<trkpt lat="56.016434" lon="26.387447">
<ele>93.649475</ele>
<time>2010-08-29T16:45:13Z</time>
<desc>lat.=56.016434, lon.=26.387447, Alt.=93.649475m. Speed=19.403999m/h.</desc>
<speed>5.390000</speed>
</trkpt>
<trkpt lat="56.016388" lon="26.387484">
<ele>93.280334</ele>
<time>2010-08-29T16:45:14Z</time>
<desc>lat.=56.016388, lon.=26.387484, Alt.=93.280334m. Speed=20.412001m/h.</desc>
<speed>5.670000</speed>
</trkpt>
<trkpt lat="56.016342" lon="26.387526">
<ele>93.034241</ele>
<time>2010-08-29T16:45:15Z</time>
<desc>lat.=56.016342, lon.=26.387526, Alt.=93.034241m. Speed=21.312000m/h.</desc>
<speed>5.920000</speed>
</trkpt>
<trkpt lat="56.016293" lon="26.387560">
<ele>94.118225</ele>
<time>2010-08-29T16:45:16Z</time>
<desc>lat.=56.016293, lon.=26.387560, Alt.=94.118225m. Speed=20.087999m/h.</desc>
<speed>5.580000</speed>
</trkpt>
<trkpt lat="56.016247" lon="26.387590">
<ele>94.799866</ele>
<time>2010-08-29T16:45:17Z</time>
<desc>lat.=56.016247, lon.=26.387590, Alt.=94.799866m. Speed=20.412001m/h.</desc>
<speed>5.670000</speed>
</trkpt>
<trkpt lat="56.016197" lon="26.387615">
<ele>95.266663</ele>
<time>2010-08-29T16:45:18Z</time>
<desc>lat.=56.016197, lon.=26.387615, Alt.=95.266663m. Speed=20.124001m/h.</desc>
<speed>5.590000</speed>
</trkpt>
<trkpt lat="56.016148" lon="26.387634">
<ele>95.481506</ele>
<time>2010-08-29T16:45:19Z</time>
<desc>lat.=56.016148, lon.=26.387634, Alt.=95.481506m. Speed=19.620001m/h.</desc>
<speed>5.450000</speed>
</trkpt>
<trkpt lat="56.016102" lon="26.387659">
<ele>95.770569</ele>
<time>2010-08-29T16:45:20Z</time>
<desc>lat.=56.016102, lon.=26.387659, Alt.=95.770569m. Speed=19.584000m/h.</desc>
<speed>5.440000</speed>
</trkpt>
<trkpt lat="56.016056" lon="26.387690">
<ele>95.932678</ele>
<time>2010-08-29T16:45:21Z</time>
<desc>lat.=56.016056, lon.=26.387690, Alt.=95.932678m. Speed=20.195999m/h.</desc>
<speed>5.610000</speed>
</trkpt>
<trkpt lat="56.016010" lon="26.387722">
<ele>95.778381</ele>
<time>2010-08-29T16:45:22Z</time>
<desc>lat.=56.016010, lon.=26.387722, Alt.=95.778381m. Speed=20.520000m/h.</desc>
<speed>5.700000</speed>
</trkpt>
<trkpt lat="56.015957" lon="26.387753">
<ele>95.844788</ele>
<time>2010-08-29T16:45:23Z</time>
<desc>lat.=56.015957, lon.=26.387753, Alt.=95.844788m. Speed=20.952000m/h.</desc>
<speed>5.820000</speed>
</trkpt>
<trkpt lat="56.015907" lon="26.387783">
<ele>95.809631</ele>
<time>2010-08-29T16:45:24Z</time>
<desc>lat.=56.015907, lon.=26.387783, Alt.=95.809631m. Speed=21.420000m/h.</desc>
<speed>5.950000</speed>
</trkpt>
<trkpt lat="56.015858" lon="26.387814">
<ele>95.452209</ele>
<time>2010-08-29T16:45:25Z</time>
<desc>lat.=56.015858, lon.=26.387814, Alt.=95.452209m. Speed=21.636000m/h.</desc>
<speed>6.010000</speed>
</trkpt>
<trkpt lat="56.015808" lon="26.387848">
<ele>95.395569</ele>
<time>2010-08-29T16:45:26Z</time>
<desc>lat.=56.015808, lon.=26.387848, Alt.=95.395569m. Speed=22.032000m/h.</desc>
<speed>6.120000</speed>
</trkpt>
<trkpt lat="56.015755" lon="26.387882">
<ele>95.313538</ele>
<time>2010-08-29T16:45:27Z</time>
<desc>lat.=56.015755, lon.=26.387882, Alt.=95.313538m. Speed=22.320000m/h.</desc>
<speed>6.200000</speed>
</trkpt>
<trkpt lat="56.015705" lon="26.387918">
<ele>95.245178</ele>
<time>2010-08-29T16:45:28Z</time>
<desc>lat.=56.015705, lon.=26.387918, Alt.=95.245178m. Speed=22.247999m/h.</desc>
<speed>6.180000</speed>
</trkpt>
<trkpt lat="56.015652" lon="26.387951">
<ele>95.299866</ele>
<time>2010-08-29T16:45:29Z</time>
<desc>lat.=56.015652, lon.=26.387951, Alt.=95.299866m. Speed=21.636000m/h.</desc>
<speed>6.010000</speed>
</trkpt>
<trkpt lat="56.015602" lon="26.387987">
<ele>95.551819</ele>
<time>2010-08-29T16:45:30Z</time>
<desc>lat.=56.015602, lon.=26.387987, Alt.=95.551819m. Speed=20.988001m/h.</desc>
<speed>5.830000</speed>
</trkpt>
<trkpt lat="56.015553" lon="26.388023">
<ele>95.561584</ele>
<time>2010-08-29T16:45:31Z</time>
<desc>lat.=56.015553, lon.=26.388023, Alt.=95.561584m. Speed=20.268000m/h.</desc>
<speed>5.630000</speed>
</trkpt>
<trkpt lat="56.015507" lon="26.388054">
<ele>95.561584</ele>
<time>2010-08-29T16:45:32Z</time>
<desc>lat.=56.015507, lon.=26.388054, Alt.=95.561584m. Speed=19.476000m/h.</desc>
<speed>5.410000</speed>
</trkpt>
<trkpt lat="56.015465" lon="26.388096">
<ele>95.741272</ele>
<time>2010-08-29T16:45:33Z</time>
<desc>lat.=56.015465, lon.=26.388096, Alt.=95.741272m. Speed=18.792000m/h.</desc>
<speed>5.220000</speed>
</trkpt>
<trkpt lat="56.015427" lon="26.388136">
<ele>95.737366</ele>
<time>2010-08-29T16:45:34Z</time>
<desc>lat.=56.015427, lon.=26.388136, Alt.=95.737366m. Speed=18.108000m/h.</desc>
<speed>5.030000</speed>
</trkpt>
<trkpt lat="56.015385" lon="26.388166">
<ele>95.913147</ele>
<time>2010-08-29T16:45:35Z</time>
<desc>lat.=56.015385, lon.=26.388166, Alt.=95.913147m. Speed=17.496000m/h.</desc>
<speed>4.860000</speed>
</trkpt>
<trkpt lat="56.015343" lon="26.388191">
<ele>96.219788</ele>
<time>2010-08-29T16:45:36Z</time>
<desc>lat.=56.015343, lon.=26.388191, Alt.=96.219788m. Speed=16.884001m/h.</desc>
<speed>4.690000</speed>
</trkpt>
<trkpt lat="56.015301" lon="26.388216">
<ele>96.225647</ele>
<time>2010-08-29T16:45:37Z</time>
<desc>lat.=56.015301, lon.=26.388216, Alt.=96.225647m. Speed=16.379999m/h.</desc>
<speed>4.550000</speed>
</trkpt>
<trkpt lat="56.015266" lon="26.388247">
<ele>96.352600</ele>
<time>2010-08-29T16:45:38Z</time>
<desc>lat.=56.015266, lon.=26.388247, Alt.=96.352600m. Speed=15.912000m/h.</desc>
<speed>4.420000</speed>
</trkpt>
<trkpt lat="56.015228" lon="26.388279">
<ele>96.407288</ele>
<time>2010-08-29T16:45:39Z</time>
<desc>lat.=56.015228, lon.=26.388279, Alt.=96.407288m. Speed=15.984000m/h.</desc>
<speed>4.440000</speed>
</trkpt>
<trkpt lat="56.015190" lon="26.388300">
<ele>96.473694</ele>
<time>2010-08-29T16:45:40Z</time>
<desc>lat.=56.015190, lon.=26.388300, Alt.=96.473694m. Speed=16.379999m/h.</desc>
<speed>4.550000</speed>
</trkpt>
<trkpt lat="56.015152" lon="26.388319">
<ele>96.413147</ele>
<time>2010-08-29T16:45:41Z</time>
<desc>lat.=56.015152, lon.=26.388319, Alt.=96.413147m. Speed=16.955999m/h.</desc>
<speed>4.710000</speed>
</trkpt>
<trkpt lat="56.015110" lon="26.388336">
<ele>96.282288</ele>
<time>2010-08-29T16:45:42Z</time>
<desc>lat.=56.015110, lon.=26.388336, Alt.=96.282288m. Speed=17.639999m/h.</desc>
<speed>4.900000</speed>
</trkpt>
<trkpt lat="56.015068" lon="26.388355">
<ele>95.241272</ele>
<time>2010-08-29T16:45:43Z</time>
<desc>lat.=56.015068, lon.=26.388355, Alt.=95.241272m. Speed=19.007999m/h.</desc>
<speed>5.280000</speed>
</trkpt>
<trkpt lat="56.015022" lon="26.388384">
<ele>94.821350</ele>
<time>2010-08-29T16:45:44Z</time>
<desc>lat.=56.015022, lon.=26.388384, Alt.=94.821350m. Speed=18.792000m/h.</desc>
<speed>5.220000</speed>
</trkpt>
<trkpt lat="56.014977" lon="26.388411">
<ele>94.745178</ele>
<time>2010-08-29T16:45:45Z</time>
<desc>lat.=56.014977, lon.=26.388411, Alt.=94.745178m. Speed=19.511999m/h.</desc>
<speed>5.420000</speed>
</trkpt>
<trkpt lat="56.014931" lon="26.388439">
<ele>94.733459</ele>
<time>2010-08-29T16:45:46Z</time>
<desc>lat.=56.014931, lon.=26.388439, Alt.=94.733459m. Speed=19.764000m/h.</desc>
<speed>5.490000</speed>
</trkpt>
<trkpt lat="56.014885" lon="26.388474">
<ele>94.692444</ele>
<time>2010-08-29T16:45:47Z</time>
<desc>lat.=56.014885, lon.=26.388474, Alt.=94.692444m. Speed=19.980000m/h.</desc>
<speed>5.550000</speed>
</trkpt>
<trkpt lat="56.014839" lon="26.388508">
<ele>94.690491</ele>
<time>2010-08-29T16:45:48Z</time>
<desc>lat.=56.014839, lon.=26.388508, Alt.=94.690491m. Speed=20.375999m/h.</desc>
<speed>5.660000</speed>
</trkpt>
<trkpt lat="56.014793" lon="26.388542">
<ele>94.876038</ele>
<time>2010-08-29T16:45:49Z</time>
<desc>lat.=56.014793, lon.=26.388542, Alt.=94.876038m. Speed=20.700001m/h.</desc>
<speed>5.750000</speed>
</trkpt>
<trkpt lat="56.014748" lon="26.388577">
<ele>95.063538</ele>
<time>2010-08-29T16:45:50Z</time>
<desc>lat.=56.014748, lon.=26.388577, Alt.=95.063538m. Speed=20.016001m/h.</desc>
<speed>5.560000</speed>
</trkpt>
<trkpt lat="56.014702" lon="26.388605">
<ele>95.163147</ele>
<time>2010-08-29T16:45:51Z</time>
<desc>lat.=56.014702, lon.=26.388605, Alt.=95.163147m. Speed=19.260000m/h.</desc>
<speed>5.350000</speed>
</trkpt>
<trkpt lat="56.014652" lon="26.388628">
<ele>95.299866</ele>
<time>2010-08-29T16:45:52Z</time>
<desc>lat.=56.014652, lon.=26.388628, Alt.=95.299866m. Speed=18.431999m/h.</desc>
<speed>5.120000</speed>
</trkpt>
<trkpt lat="56.014610" lon="26.388655">
<ele>95.395569</ele>
<time>2010-08-29T16:45:53Z</time>
<desc>lat.=56.014610, lon.=26.388655, Alt.=95.395569m. Speed=17.856001m/h.</desc>
<speed>4.960000</speed>
</trkpt>
<trkpt lat="56.014565" lon="26.388678">
<ele>95.288147</ele>
<time>2010-08-29T16:45:54Z</time>
<desc>lat.=56.014565, lon.=26.388678, Alt.=95.288147m. Speed=17.100000m/h.</desc>
<speed>4.750000</speed>
</trkpt>
<trkpt lat="56.014523" lon="26.388693">
<ele>95.249084</ele>
<time>2010-08-29T16:45:55Z</time>
<desc>lat.=56.014523, lon.=26.388693, Alt.=95.249084m. Speed=16.740000m/h.</desc>
<speed>4.650000</speed>
</trkpt>
<trkpt lat="56.014484" lon="26.388706">
<ele>95.194397</ele>
<time>2010-08-29T16:45:56Z</time>
<desc>lat.=56.014484, lon.=26.388706, Alt.=95.194397m. Speed=15.984000m/h.</desc>
<speed>4.440000</speed>
</trkpt>
<trkpt lat="56.014446" lon="26.388721">
<ele>95.159241</ele>
<time>2010-08-29T16:45:57Z</time>
<desc>lat.=56.014446, lon.=26.388721, Alt.=95.159241m. Speed=15.516000m/h.</desc>
<speed>4.310000</speed>
</trkpt>
<trkpt lat="56.014408" lon="26.388737">
<ele>95.014709</ele>
<time>2010-08-29T16:45:58Z</time>
<desc>lat.=56.014408, lon.=26.388737, Alt.=95.014709m. Speed=14.904000m/h.</desc>
<speed>4.140000</speed>
</trkpt>
<trkpt lat="56.014374" lon="26.388754">
<ele>94.961975</ele>
<time>2010-08-29T16:45:59Z</time>
<desc>lat.=56.014374, lon.=26.388754, Alt.=94.961975m. Speed=14.292000m/h.</desc>
<speed>3.970000</speed>
</trkpt>
<trkpt lat="56.014339" lon="26.388773">
<ele>95.127991</ele>
<time>2010-08-29T16:46:00Z</time>
<desc>lat.=56.014339, lon.=26.388773, Alt.=95.127991m. Speed=13.608000m/h.</desc>
<speed>3.780000</speed>
</trkpt>
<trkpt lat="56.014309" lon="26.388794">
<ele>95.270569</ele>
<time>2010-08-29T16:46:01Z</time>
<desc>lat.=56.014309, lon.=26.388794, Alt.=95.270569m. Speed=13.104000m/h.</desc>
<speed>3.640000</speed>
</trkpt>
<trkpt lat="56.014282" lon="26.388809">
<ele>95.415100</ele>
<time>2010-08-29T16:46:02Z</time>
<desc>lat.=56.014282, lon.=26.388809, Alt.=95.415100m. Speed=12.420000m/h.</desc>
<speed>3.450000</speed>
</trkpt>
<trkpt lat="56.014252" lon="26.388828">
<ele>95.504944</ele>
<time>2010-08-29T16:46:03Z</time>
<desc>lat.=56.014252, lon.=26.388828, Alt.=95.504944m. Speed=12.204000m/h.</desc>
<speed>3.390000</speed>
</trkpt>
<trkpt lat="56.014221" lon="26.388845">
<ele>95.711975</ele>
<time>2010-08-29T16:46:04Z</time>
<desc>lat.=56.014221, lon.=26.388845, Alt.=95.711975m. Speed=13.032000m/h.</desc>
<speed>3.620000</speed>
</trkpt>
<trkpt lat="56.014191" lon="26.388870">
<ele>95.706116</ele>
<time>2010-08-29T16:46:05Z</time>
<desc>lat.=56.014191, lon.=26.388870, Alt.=95.706116m. Speed=13.932000m/h.</desc>
<speed>3.870000</speed>
</trkpt>
<trkpt lat="56.014160" lon="26.388897">
<ele>95.772522</ele>
<time>2010-08-29T16:46:06Z</time>
<desc>lat.=56.014160, lon.=26.388897, Alt.=95.772522m. Speed=16.236000m/h.</desc>
<speed>4.510000</speed>
</trkpt>
<trkpt lat="56.014126" lon="26.388929">
<ele>95.893616</ele>
<time>2010-08-29T16:46:07Z</time>
<desc>lat.=56.014126, lon.=26.388929, Alt.=95.893616m. Speed=15.984000m/h.</desc>
<speed>4.440000</speed>
</trkpt>
<trkpt lat="56.014088" lon="26.388958">
<ele>95.854553</ele>
<time>2010-08-29T16:46:08Z</time>
<desc>lat.=56.014088, lon.=26.388958, Alt.=95.854553m. Speed=16.632000m/h.</desc>
<speed>4.620000</speed>
</trkpt>
<trkpt lat="56.014053" lon="26.388987">
<ele>95.848694</ele>
<time>2010-08-29T16:46:09Z</time>
<desc>lat.=56.014053, lon.=26.388987, Alt.=95.848694m. Speed=16.884001m/h.</desc>
<speed>4.690000</speed>
</trkpt>
<trkpt lat="56.014011" lon="26.389013">
<ele>95.899475</ele>
<time>2010-08-29T16:46:10Z</time>
<desc>lat.=56.014011, lon.=26.389013, Alt.=95.899475m. Speed=17.172001m/h.</desc>
<speed>4.770000</speed>
</trkpt>
<trkpt lat="56.013973" lon="26.389044">
<ele>96.071350</ele>
<time>2010-08-29T16:46:11Z</time>
<desc>lat.=56.013973, lon.=26.389044, Alt.=96.071350m. Speed=17.280001m/h.</desc>
<speed>4.800000</speed>
</trkpt>
<trkpt lat="56.013935" lon="26.389076">
<ele>96.305725</ele>
<time>2010-08-29T16:46:12Z</time>
<desc>lat.=56.013935, lon.=26.389076, Alt.=96.305725m. Speed=17.388000m/h.</desc>
<speed>4.830000</speed>
</trkpt>
<trkpt lat="56.013893" lon="26.389107">
<ele>96.335022</ele>
<time>2010-08-29T16:46:13Z</time>
<desc>lat.=56.013893, lon.=26.389107, Alt.=96.335022m. Speed=17.424000m/h.</desc>
<speed>4.840000</speed>
</trkpt>
<trkpt lat="56.013851" lon="26.389132">
<ele>96.477600</ele>
<time>2010-08-29T16:46:14Z</time>
<desc>lat.=56.013851, lon.=26.389132, Alt.=96.477600m. Speed=17.639999m/h.</desc>
<speed>4.900000</speed>
</trkpt>
<trkpt lat="56.013809" lon="26.389158">
<ele>96.669006</ele>
<time>2010-08-29T16:46:15Z</time>
<desc>lat.=56.013809, lon.=26.389158, Alt.=96.669006m. Speed=18.072001m/h.</desc>
<speed>5.020000</speed>
</trkpt>
<trkpt lat="56.013767" lon="26.389183">
<ele>96.735413</ele>
<time>2010-08-29T16:46:16Z</time>
<desc>lat.=56.013767, lon.=26.389183, Alt.=96.735413m. Speed=18.216000m/h.</desc>
<speed>5.060000</speed>
</trkpt>
<trkpt lat="56.013725" lon="26.389212">
<ele>96.772522</ele>
<time>2010-08-29T16:46:17Z</time>
<desc>lat.=56.013725, lon.=26.389212, Alt.=96.772522m. Speed=18.540001m/h.</desc>
<speed>5.150000</speed>
</trkpt>
<trkpt lat="56.013683" lon="26.389246">
<ele>96.702209</ele>
<time>2010-08-29T16:46:18Z</time>
<desc>lat.=56.013683, lon.=26.389246, Alt.=96.702209m. Speed=17.856001m/h.</desc>
<speed>4.960000</speed>
</trkpt>
<trkpt lat="56.013641" lon="26.389277">
<ele>96.639709</ele>
<time>2010-08-29T16:46:19Z</time>
<desc>lat.=56.013641, lon.=26.389277, Alt.=96.639709m. Speed=16.884001m/h.</desc>
<speed>4.690000</speed>
</trkpt>
<trkpt lat="56.013603" lon="26.389305">
<ele>96.713928</ele>
<time>2010-08-29T16:46:20Z</time>
<desc>lat.=56.013603, lon.=26.389305, Alt.=96.713928m. Speed=15.984000m/h.</desc>
<speed>4.440000</speed>
</trkpt>
<trkpt lat="56.013569" lon="26.389330">
<ele>96.790100</ele>
<time>2010-08-29T16:46:21Z</time>
<desc>lat.=56.013569, lon.=26.389330, Alt.=96.790100m. Speed=16.271999m/h.</desc>
<speed>4.520000</speed>
</trkpt>
<trkpt lat="56.013531" lon="26.389360">
<ele>96.930725</ele>
<time>2010-08-29T16:46:22Z</time>
<desc>lat.=56.013531, lon.=26.389360, Alt.=96.930725m. Speed=16.559999m/h.</desc>
<speed>4.600000</speed>
</trkpt>
<trkpt lat="56.013496" lon="26.389389">
<ele>96.946350</ele>
<time>2010-08-29T16:46:23Z</time>
<desc>lat.=56.013496, lon.=26.389389, Alt.=96.946350m. Speed=16.848000m/h.</desc>
<speed>4.680000</speed>
</trkpt>
<trkpt lat="56.013458" lon="26.389420">
<ele>96.993225</ele>
<time>2010-08-29T16:46:24Z</time>
<desc>lat.=56.013458, lon.=26.389420, Alt.=96.993225m. Speed=16.775999m/h.</desc>
<speed>4.660000</speed>
</trkpt>
<trkpt lat="56.013416" lon="26.389448">
<ele>97.147522</ele>
<time>2010-08-29T16:46:25Z</time>
<desc>lat.=56.013416, lon.=26.389448, Alt.=97.147522m. Speed=16.667999m/h.</desc>
<speed>4.630000</speed>
</trkpt>
<trkpt lat="56.013378" lon="26.389471">
<ele>97.149475</ele>
<time>2010-08-29T16:46:26Z</time>
<desc>lat.=56.013378, lon.=26.389471, Alt.=97.149475m. Speed=16.812000m/h.</desc>
<speed>4.670000</speed>
</trkpt>
<trkpt lat="56.013336" lon="26.389496">
<ele>97.133850</ele>
<time>2010-08-29T16:46:27Z</time>
<desc>lat.=56.013336, lon.=26.389496, Alt.=97.133850m. Speed=16.992001m/h.</desc>
<speed>4.720000</speed>
</trkpt>
<trkpt lat="56.013294" lon="26.389521">
<ele>97.153381</ele>
<time>2010-08-29T16:46:28Z</time>
<desc>lat.=56.013294, lon.=26.389521, Alt.=97.153381m. Speed=17.208000m/h.</desc>
<speed>4.780000</speed>
</trkpt>
<trkpt lat="56.013256" lon="26.389542">
<ele>97.245178</ele>
<time>2010-08-29T16:46:29Z</time>
<desc>lat.=56.013256, lon.=26.389542, Alt.=97.245178m. Speed=17.351999m/h.</desc>
<speed>4.820000</speed>
</trkpt>
<trkpt lat="56.013214" lon="26.389561">
<ele>97.350647</ele>
<time>2010-08-29T16:46:30Z</time>
<desc>lat.=56.013214, lon.=26.389561, Alt.=97.350647m. Speed=17.676001m/h.</desc>
<speed>4.910000</speed>
</trkpt>
<trkpt lat="56.013172" lon="26.389580">
<ele>97.397522</ele>
<time>2010-08-29T16:46:31Z</time>
<desc>lat.=56.013172, lon.=26.389580, Alt.=97.397522m. Speed=17.964001m/h.</desc>
<speed>4.990000</speed>
</trkpt>
<trkpt lat="56.013130" lon="26.389601">
<ele>97.524475</ele>
<time>2010-08-29T16:46:32Z</time>
<desc>lat.=56.013130, lon.=26.389601, Alt.=97.524475m. Speed=18.468000m/h.</desc>
<speed>5.130000</speed>
</trkpt>
<trkpt lat="56.013084" lon="26.389622">
<ele>97.651428</ele>
<time>2010-08-29T16:46:33Z</time>
<desc>lat.=56.013084, lon.=26.389622, Alt.=97.651428m. Speed=18.468000m/h.</desc>
<speed>5.130000</speed>
</trkpt>
<trkpt lat="56.013039" lon="26.389643">
<ele>97.678772</ele>
<time>2010-08-29T16:46:34Z</time>
<desc>lat.=56.013039, lon.=26.389643, Alt.=97.678772m. Speed=18.936001m/h.</desc>
<speed>5.260000</speed>
</trkpt>
<trkpt lat="56.012993" lon="26.389668">
<ele>97.745178</ele>
<time>2010-08-29T16:46:35Z</time>
<desc>lat.=56.012993, lon.=26.389668, Alt.=97.745178m. Speed=18.827999m/h.</desc>
<speed>5.230000</speed>
</trkpt>
<trkpt lat="56.012951" lon="26.389696">
<ele>97.950256</ele>
<time>2010-08-29T16:46:36Z</time>
<desc>lat.=56.012951, lon.=26.389696, Alt.=97.950256m. Speed=17.784000m/h.</desc>
<speed>4.940000</speed>
</trkpt>
<trkpt lat="56.012909" lon="26.389721">
<ele>98.081116</ele>
<time>2010-08-29T16:46:37Z</time>
<desc>lat.=56.012909, lon.=26.389721, Alt.=98.081116m. Speed=16.848000m/h.</desc>
<speed>4.680000</speed>
</trkpt>
<trkpt lat="56.012871" lon="26.389740">
<ele>98.200256</ele>
<time>2010-08-29T16:46:38Z</time>
<desc>lat.=56.012871, lon.=26.389740, Alt.=98.200256m. Speed=16.020000m/h.</desc>
<speed>4.450000</speed>
</trkpt>
<trkpt lat="56.012833" lon="26.389757">
<ele>98.305725</ele>
<time>2010-08-29T16:46:39Z</time>
<desc>lat.=56.012833, lon.=26.389757, Alt.=98.305725m. Speed=15.120000m/h.</desc>
<speed>4.200000</speed>
</trkpt>
<trkpt lat="56.012794" lon="26.389774">
<ele>98.383850</ele>
<time>2010-08-29T16:46:40Z</time>
<desc>lat.=56.012794, lon.=26.389774, Alt.=98.383850m. Speed=14.472000m/h.</desc>
<speed>4.020000</speed>
</trkpt>
<trkpt lat="56.012760" lon="26.389791">
<ele>98.506897</ele>
<time>2010-08-29T16:46:41Z</time>
<desc>lat.=56.012760, lon.=26.389791, Alt.=98.506897m. Speed=14.652000m/h.</desc>
<speed>4.070000</speed>
</trkpt>
<trkpt lat="56.012726" lon="26.389814">
<ele>98.643616</ele>
<time>2010-08-29T16:46:42Z</time>
<desc>lat.=56.012726, lon.=26.389814, Alt.=98.643616m. Speed=15.156000m/h.</desc>
<speed>4.210000</speed>
</trkpt>
<trkpt lat="56.012688" lon="26.389835">
<ele>98.631897</ele>
<time>2010-08-29T16:46:43Z</time>
<desc>lat.=56.012688, lon.=26.389835, Alt.=98.631897m. Speed=15.696000m/h.</desc>
<speed>4.360000</speed>
</trkpt>
<trkpt lat="56.012650" lon="26.389858">
<ele>98.729553</ele>
<time>2010-08-29T16:46:44Z</time>
<desc>lat.=56.012650, lon.=26.389858, Alt.=98.729553m. Speed=16.128000m/h.</desc>
<speed>4.480000</speed>
</trkpt>
<trkpt lat="56.012611" lon="26.389881">
<ele>98.829163</ele>
<time>2010-08-29T16:46:45Z</time>
<desc>lat.=56.012611, lon.=26.389881, Alt.=98.829163m. Speed=16.596001m/h.</desc>
<speed>4.610000</speed>
</trkpt>
<trkpt lat="56.012573" lon="26.389906">
<ele>98.866272</ele>
<time>2010-08-29T16:46:46Z</time>
<desc>lat.=56.012573, lon.=26.389906, Alt.=98.866272m. Speed=16.812000m/h.</desc>
<speed>4.670000</speed>
</trkpt>
<trkpt lat="56.012535" lon="26.389933">
<ele>99.200256</ele>
<time>2010-08-29T16:46:47Z</time>
<desc>lat.=56.012535, lon.=26.389933, Alt.=99.200256m. Speed=16.920000m/h.</desc>
<speed>4.700000</speed>
</trkpt>
<trkpt lat="56.012497" lon="26.389956">
<ele>99.215881</ele>
<time>2010-08-29T16:46:48Z</time>
<desc>lat.=56.012497, lon.=26.389956, Alt.=99.215881m. Speed=16.020000m/h.</desc>
<speed>4.450000</speed>
</trkpt>
<trkpt lat="56.012459" lon="26.389977">
<ele>99.254944</ele>
<time>2010-08-29T16:46:49Z</time>
<desc>lat.=56.012459, lon.=26.389977, Alt.=99.254944m. Speed=15.300000m/h.</desc>
<speed>4.250000</speed>
</trkpt>
<trkpt lat="56.012424" lon="26.389992">
<ele>99.147522</ele>
<time>2010-08-29T16:46:50Z</time>
<desc>lat.=56.012424, lon.=26.389992, Alt.=99.147522m. Speed=14.220000m/h.</desc>
<speed>3.950000</speed>
</trkpt>
<trkpt lat="56.012390" lon="26.390011">
<ele>99.151428</ele>
<time>2010-08-29T16:46:51Z</time>
<desc>lat.=56.012390, lon.=26.390011, Alt.=99.151428m. Speed=13.356000m/h.</desc>
<speed>3.710000</speed>
</trkpt>
<trkpt lat="56.012356" lon="26.390024">
<ele>99.073303</ele>
<time>2010-08-29T16:46:52Z</time>
<desc>lat.=56.012356, lon.=26.390024, Alt.=99.073303m. Speed=13.644000m/h.</desc>
<speed>3.790000</speed>
</trkpt>
<trkpt lat="56.012321" lon="26.390041">
<ele>98.948303</ele>
<time>2010-08-29T16:46:53Z</time>
<desc>lat.=56.012321, lon.=26.390041, Alt.=98.948303m. Speed=13.932000m/h.</desc>
<speed>3.870000</speed>
</trkpt>
<trkpt lat="56.012287" lon="26.390062">
<ele>98.979553</ele>
<time>2010-08-29T16:46:54Z</time>
<desc>lat.=56.012287, lon.=26.390062, Alt.=98.979553m. Speed=14.508000m/h.</desc>
<speed>4.030000</speed>
</trkpt>
<trkpt lat="56.012253" lon="26.390083">
<ele>99.110413</ele>
<time>2010-08-29T16:46:55Z</time>
<desc>lat.=56.012253, lon.=26.390083, Alt.=99.110413m. Speed=14.904000m/h.</desc>
<speed>4.140000</speed>
</trkpt>
<trkpt lat="56.012218" lon="26.390106">
<ele>99.188538</ele>
<time>2010-08-29T16:46:56Z</time>
<desc>lat.=56.012218, lon.=26.390106, Alt.=99.188538m. Speed=15.192000m/h.</desc>
<speed>4.220000</speed>
</trkpt>
<trkpt lat="56.012184" lon="26.390129">
<ele>99.348694</ele>
<time>2010-08-29T16:46:57Z</time>
<desc>lat.=56.012184, lon.=26.390129, Alt.=99.348694m. Speed=15.408000m/h.</desc>
<speed>4.280000</speed>
</trkpt>
<trkpt lat="56.012146" lon="26.390144">
<ele>99.372131</ele>
<time>2010-08-29T16:46:58Z</time>
<desc>lat.=56.012146, lon.=26.390144, Alt.=99.372131m. Speed=15.732000m/h.</desc>
<speed>4.370000</speed>
</trkpt>
<trkpt lat="56.012108" lon="26.390169">
<ele>99.419006</ele>
<time>2010-08-29T16:46:59Z</time>
<desc>lat.=56.012108, lon.=26.390169, Alt.=99.419006m. Speed=15.912000m/h.</desc>
<speed>4.420000</speed>
</trkpt>
<trkpt lat="56.012070" lon="26.390198">
<ele>99.477600</ele>
<time>2010-08-29T16:47:00Z</time>
<desc>lat.=56.012070, lon.=26.390198, Alt.=99.477600m. Speed=16.128000m/h.</desc>
<speed>4.480000</speed>
</trkpt>
<trkpt lat="56.012035" lon="26.390223">
<ele>99.499084</ele>
<time>2010-08-29T16:47:01Z</time>
<desc>lat.=56.012035, lon.=26.390223, Alt.=99.499084m. Speed=16.200001m/h.</desc>
<speed>4.500000</speed>
</trkpt>
<trkpt lat="56.011993" lon="26.390245">
<ele>99.583069</ele>
<time>2010-08-29T16:47:02Z</time>
<desc>lat.=56.011993, lon.=26.390245, Alt.=99.583069m. Speed=16.488001m/h.</desc>
<speed>4.580000</speed>
</trkpt>
<trkpt lat="56.011955" lon="26.390265">
<ele>99.692444</ele>
<time>2010-08-29T16:47:03Z</time>
<desc>lat.=56.011955, lon.=26.390265, Alt.=99.692444m. Speed=16.632000m/h.</desc>
<speed>4.620000</speed>
</trkpt>
<trkpt lat="56.011913" lon="26.390285">
<ele>99.758850</ele>
<time>2010-08-29T16:47:04Z</time>
<desc>lat.=56.011913, lon.=26.390285, Alt.=99.758850m. Speed=17.351999m/h.</desc>
<speed>4.820000</speed>
</trkpt>
<trkpt lat="56.011868" lon="26.390306">
<ele>99.915100</ele>
<time>2010-08-29T16:47:05Z</time>
<desc>lat.=56.011868, lon.=26.390306, Alt.=99.915100m. Speed=18.576000m/h.</desc>
<speed>5.160000</speed>
</trkpt>
<trkpt lat="56.011826" lon="26.390331">
<ele>100.073303</ele>
<time>2010-08-29T16:47:06Z</time>
<desc>lat.=56.011826, lon.=26.390331, Alt.=100.073303m. Speed=19.260000m/h.</desc>
<speed>5.350000</speed>
</trkpt>
<trkpt lat="56.011780" lon="26.390362">
<ele>100.213928</ele>
<time>2010-08-29T16:47:07Z</time>
<desc>lat.=56.011780, lon.=26.390362, Alt.=100.213928m. Speed=19.656000m/h.</desc>
<speed>5.460000</speed>
</trkpt>
<trkpt lat="56.011730" lon="26.390394">
<ele>100.352600</ele>
<time>2010-08-29T16:47:08Z</time>
<desc>lat.=56.011730, lon.=26.390394, Alt.=100.352600m. Speed=20.591999m/h.</desc>
<speed>5.720000</speed>
</trkpt>
<trkpt lat="56.011681" lon="26.390429">
<ele>100.555725</ele>
<time>2010-08-29T16:47:09Z</time>
<desc>lat.=56.011681, lon.=26.390429, Alt.=100.555725m. Speed=20.628000m/h.</desc>
<speed>5.730000</speed>
</trkpt>
<trkpt lat="56.011635" lon="26.390459">
<ele>100.786194</ele>
<time>2010-08-29T16:47:10Z</time>
<desc>lat.=56.011635, lon.=26.390459, Alt.=100.786194m. Speed=19.980000m/h.</desc>
<speed>5.550000</speed>
</trkpt>
<trkpt lat="56.011585" lon="26.390488">
<ele>100.915100</ele>
<time>2010-08-29T16:47:11Z</time>
<desc>lat.=56.011585, lon.=26.390488, Alt.=100.915100m. Speed=18.936001m/h.</desc>
<speed>5.260000</speed>
</trkpt>
<trkpt lat="56.011543" lon="26.390509">
<ele>100.991272</ele>
<time>2010-08-29T16:47:12Z</time>
<desc>lat.=56.011543, lon.=26.390509, Alt.=100.991272m. Speed=18.180000m/h.</desc>
<speed>5.050000</speed>
</trkpt>
<trkpt lat="56.011497" lon="26.390532">
<ele>101.141663</ele>
<time>2010-08-29T16:47:13Z</time>
<desc>lat.=56.011497, lon.=26.390532, Alt.=101.141663m. Speed=17.532000m/h.</desc>
<speed>4.870000</speed>
</trkpt>
<trkpt lat="56.011456" lon="26.390554">
<ele>101.356506</ele>
<time>2010-08-29T16:47:14Z</time>
<desc>lat.=56.011456, lon.=26.390554, Alt.=101.356506m. Speed=18.143999m/h.</desc>
<speed>5.040000</speed>
</trkpt>
<trkpt lat="56.011414" lon="26.390579">
<ele>101.315491</ele>
<time>2010-08-29T16:47:15Z</time>
<desc>lat.=56.011414, lon.=26.390579, Alt.=101.315491m. Speed=18.827999m/h.</desc>
<speed>5.230000</speed>
</trkpt>
<trkpt lat="56.011368" lon="26.390600">
<ele>101.381897</ele>
<time>2010-08-29T16:47:16Z</time>
<desc>lat.=56.011368, lon.=26.390600, Alt.=101.381897m. Speed=19.691999m/h.</desc>
<speed>5.470000</speed>
</trkpt>
<trkpt lat="56.011318" lon="26.390627">
<ele>101.667053</ele>
<time>2010-08-29T16:47:17Z</time>
<desc>lat.=56.011318, lon.=26.390627, Alt.=101.667053m. Speed=19.620001m/h.</desc>
<speed>5.450000</speed>
</trkpt>
<trkpt lat="56.011272" lon="26.390654">
<ele>101.776428</ele>
<time>2010-08-29T16:47:18Z</time>
<desc>lat.=56.011272, lon.=26.390654, Alt.=101.776428m. Speed=20.483999m/h.</desc>
<speed>5.690000</speed>
</trkpt>
<trkpt lat="56.011223" lon="26.390680">
<ele>101.670959</ele>
<time>2010-08-29T16:47:19Z</time>
<desc>lat.=56.011223, lon.=26.390680, Alt.=101.670959m. Speed=20.916000m/h.</desc>
<speed>5.810000</speed>
</trkpt>
<trkpt lat="56.011169" lon="26.390709">
<ele>101.626038</ele>
<time>2010-08-29T16:47:20Z</time>
<desc>lat.=56.011169, lon.=26.390709, Alt.=101.626038m. Speed=20.628000m/h.</desc>
<speed>5.730000</speed>
</trkpt>
<trkpt lat="56.011120" lon="26.390732">
<ele>101.594788</ele>
<time>2010-08-29T16:47:21Z</time>
<desc>lat.=56.011120, lon.=26.390732, Alt.=101.594788m. Speed=19.368000m/h.</desc>
<speed>5.380000</speed>
</trkpt>
<trkpt lat="56.011074" lon="26.390751">
<ele>101.612366</ele>
<time>2010-08-29T16:47:22Z</time>
<desc>lat.=56.011074, lon.=26.390751, Alt.=101.612366m. Speed=18.684000m/h.</desc>
<speed>5.190000</speed>
</trkpt>
<trkpt lat="56.011028" lon="26.390770">
<ele>101.768616</ele>
<time>2010-08-29T16:47:23Z</time>
<desc>lat.=56.011028, lon.=26.390770, Alt.=101.768616m. Speed=17.568001m/h.</desc>
<speed>4.880000</speed>
</trkpt>
<trkpt lat="56.010986" lon="26.390787">
<ele>101.877991</ele>
<time>2010-08-29T16:47:24Z</time>
<desc>lat.=56.010986, lon.=26.390787, Alt.=101.877991m. Speed=16.667999m/h.</desc>
<speed>4.630000</speed>
</trkpt>
<trkpt lat="56.010948" lon="26.390812">
<ele>101.710022</ele>
<time>2010-08-29T16:47:25Z</time>
<desc>lat.=56.010948, lon.=26.390812, Alt.=101.710022m. Speed=16.812000m/h.</desc>
<speed>4.670000</speed>
</trkpt>
<trkpt lat="56.010910" lon="26.390844">
<ele>101.739319</ele>
<time>2010-08-29T16:47:26Z</time>
<desc>lat.=56.010910, lon.=26.390844, Alt.=101.739319m. Speed=16.704000m/h.</desc>
<speed>4.640000</speed>
</trkpt>
<trkpt lat="56.010876" lon="26.390877">
<ele>101.715881</ele>
<time>2010-08-29T16:47:27Z</time>
<desc>lat.=56.010876, lon.=26.390877, Alt.=101.715881m. Speed=17.208000m/h.</desc>
<speed>4.780000</speed>
</trkpt>
<trkpt lat="56.010834" lon="26.390913">
<ele>101.829163</ele>
<time>2010-08-29T16:47:28Z</time>
<desc>lat.=56.010834, lon.=26.390913, Alt.=101.829163m. Speed=17.639999m/h.</desc>
<speed>4.900000</speed>
</trkpt>
<trkpt lat="56.010792" lon="26.390942">
<ele>101.686584</ele>
<time>2010-08-29T16:47:29Z</time>
<desc>lat.=56.010792, lon.=26.390942, Alt.=101.686584m. Speed=18.216000m/h.</desc>
<speed>5.060000</speed>
</trkpt>
<trkpt lat="56.010750" lon="26.390970">
<ele>101.376038</ele>
<time>2010-08-29T16:47:30Z</time>
<desc>lat.=56.010750, lon.=26.390970, Alt.=101.376038m. Speed=19.080000m/h.</desc>
<speed>5.300000</speed>
</trkpt>
<trkpt lat="56.010704" lon="26.390995">
<ele>101.016663</ele>
<time>2010-08-29T16:47:31Z</time>
<desc>lat.=56.010704, lon.=26.390995, Alt.=101.016663m. Speed=19.764000m/h.</desc>
<speed>5.490000</speed>
</trkpt>
<trkpt lat="56.010654" lon="26.391026">
<ele>101.456116</ele>
<time>2010-08-29T16:47:32Z</time>
<desc>lat.=56.010654, lon.=26.391026, Alt.=101.456116m. Speed=19.691999m/h.</desc>
<speed>5.470000</speed>
</trkpt>
<trkpt lat="56.010609" lon="26.391048">
<ele>101.391663</ele>
<time>2010-08-29T16:47:33Z</time>
<desc>lat.=56.010609, lon.=26.391048, Alt.=101.391663m. Speed=18.756001m/h.</desc>
<speed>5.210000</speed>
</trkpt>
<trkpt lat="56.010563" lon="26.391069">
<ele>101.448303</ele>
<time>2010-08-29T16:47:34Z</time>
<desc>lat.=56.010563, lon.=26.391069, Alt.=101.448303m. Speed=17.927999m/h.</desc>
<speed>4.980000</speed>
</trkpt>
<trkpt lat="56.010521" lon="26.391090">
<ele>101.344788</ele>
<time>2010-08-29T16:47:35Z</time>
<desc>lat.=56.010521, lon.=26.391090, Alt.=101.344788m. Speed=17.459999m/h.</desc>
<speed>4.850000</speed>
</trkpt>
<trkpt lat="56.010483" lon="26.391117">
<ele>101.860413</ele>
<time>2010-08-29T16:47:36Z</time>
<desc>lat.=56.010483, lon.=26.391117, Alt.=101.860413m. Speed=15.588000m/h.</desc>
<speed>4.330000</speed>
</trkpt>
<trkpt lat="56.010445" lon="26.391138">
<ele>101.862366</ele>
<time>2010-08-29T16:47:37Z</time>
<desc>lat.=56.010445, lon.=26.391138, Alt.=101.862366m. Speed=14.976000m/h.</desc>
<speed>4.160000</speed>
</trkpt>
<trkpt lat="56.010410" lon="26.391159">
<ele>101.954163</ele>
<time>2010-08-29T16:47:38Z</time>
<desc>lat.=56.010410, lon.=26.391159, Alt.=101.954163m. Speed=13.860000m/h.</desc>
<speed>3.850000</speed>
</trkpt>
<trkpt lat="56.010380" lon="26.391169">
<ele>102.010803</ele>
<time>2010-08-29T16:47:39Z</time>
<desc>lat.=56.010380, lon.=26.391169, Alt.=102.010803m. Speed=13.140000m/h.</desc>
<speed>3.650000</speed>
</trkpt>
<trkpt lat="56.010345" lon="26.391186">
<ele>101.967834</ele>
<time>2010-08-29T16:47:40Z</time>
<desc>lat.=56.010345, lon.=26.391186, Alt.=101.967834m. Speed=13.068000m/h.</desc>
<speed>3.630000</speed>
</trkpt>
<trkpt lat="56.010315" lon="26.391205">
<ele>101.856506</ele>
<time>2010-08-29T16:47:41Z</time>
<desc>lat.=56.010315, lon.=26.391205, Alt.=101.856506m. Speed=13.716000m/h.</desc>
<speed>3.810000</speed>
</trkpt>
<trkpt lat="56.010281" lon="26.391222">
<ele>101.682678</ele>
<time>2010-08-29T16:47:42Z</time>
<desc>lat.=56.010281, lon.=26.391222, Alt.=101.682678m. Speed=14.328000m/h.</desc>
<speed>3.980000</speed>
</trkpt>
<trkpt lat="56.010242" lon="26.391241">
<ele>101.678772</ele>
<time>2010-08-29T16:47:43Z</time>
<desc>lat.=56.010242, lon.=26.391241, Alt.=101.678772m. Speed=14.832000m/h.</desc>
<speed>4.120000</speed>
</trkpt>
<trkpt lat="56.010208" lon="26.391260">
<ele>101.454163</ele>
<time>2010-08-29T16:47:44Z</time>
<desc>lat.=56.010208, lon.=26.391260, Alt.=101.454163m. Speed=15.336000m/h.</desc>
<speed>4.260000</speed>
</trkpt>
<trkpt lat="56.010174" lon="26.391281">
<ele>101.346741</ele>
<time>2010-08-29T16:47:45Z</time>
<desc>lat.=56.010174, lon.=26.391281, Alt.=101.346741m. Speed=15.840000m/h.</desc>
<speed>4.400000</speed>
</trkpt>
<trkpt lat="56.010136" lon="26.391304">
<ele>101.741272</ele>
<time>2010-08-29T16:47:46Z</time>
<desc>lat.=56.010136, lon.=26.391304, Alt.=101.741272m. Speed=16.020000m/h.</desc>
<speed>4.450000</speed>
</trkpt>
<trkpt lat="56.010098" lon="26.391323">
<ele>102.034241</ele>
<time>2010-08-29T16:47:47Z</time>
<desc>lat.=56.010098, lon.=26.391323, Alt.=102.034241m. Speed=16.236000m/h.</desc>
<speed>4.510000</speed>
</trkpt>
<trkpt lat="56.010056" lon="26.391342">
<ele>102.194397</ele>
<time>2010-08-29T16:47:48Z</time>
<desc>lat.=56.010056, lon.=26.391342, Alt.=102.194397m. Speed=16.344000m/h.</desc>
<speed>4.540000</speed>
</trkpt>
<trkpt lat="56.010014" lon="26.391365">
<ele>101.463928</ele>
<time>2010-08-29T16:47:49Z</time>
<desc>lat.=56.010014, lon.=26.391365, Alt.=101.463928m. Speed=16.992001m/h.</desc>
<speed>4.720000</speed>
</trkpt>
<trkpt lat="56.009975" lon="26.391386">
<ele>101.405334</ele>
<time>2010-08-29T16:47:50Z</time>
<desc>lat.=56.009975, lon.=26.391386, Alt.=101.405334m. Speed=17.136000m/h.</desc>
<speed>4.760000</speed>
</trkpt>
<trkpt lat="56.009933" lon="26.391411">
<ele>101.639709</ele>
<time>2010-08-29T16:47:51Z</time>
<desc>lat.=56.009933, lon.=26.391411, Alt.=101.639709m. Speed=17.784000m/h.</desc>
<speed>4.940000</speed>
</trkpt>
<trkpt lat="56.009888" lon="26.391434">
<ele>101.694397</ele>
<time>2010-08-29T16:47:52Z</time>
<desc>lat.=56.009888, lon.=26.391434, Alt.=101.694397m. Speed=18.108000m/h.</desc>
<speed>5.030000</speed>
</trkpt>
<trkpt lat="56.009846" lon="26.391457">
<ele>101.622131</ele>
<time>2010-08-29T16:47:53Z</time>
<desc>lat.=56.009846, lon.=26.391457, Alt.=101.622131m. Speed=18.540001m/h.</desc>
<speed>5.150000</speed>
</trkpt>
<trkpt lat="56.009800" lon="26.391481">
<ele>101.655334</ele>
<time>2010-08-29T16:47:54Z</time>
<desc>lat.=56.009800, lon.=26.391481, Alt.=101.655334m. Speed=18.719999m/h.</desc>
<speed>5.200000</speed>
</trkpt>
<trkpt lat="56.009750" lon="26.391508">
<ele>102.045959</ele>
<time>2010-08-29T16:47:55Z</time>
<desc>lat.=56.009750, lon.=26.391508, Alt.=102.045959m. Speed=19.188000m/h.</desc>
<speed>5.330000</speed>
</trkpt>
<trkpt lat="56.009705" lon="26.391531">
<ele>102.313538</ele>
<time>2010-08-29T16:47:56Z</time>
<desc>lat.=56.009705, lon.=26.391531, Alt.=102.313538m. Speed=19.260000m/h.</desc>
<speed>5.350000</speed>
</trkpt>
<trkpt lat="56.009659" lon="26.391552">
<ele>102.669006</ele>
<time>2010-08-29T16:47:57Z</time>
<desc>lat.=56.009659, lon.=26.391552, Alt.=102.669006m. Speed=19.691999m/h.</desc>
<speed>5.470000</speed>
</trkpt>
<trkpt lat="56.009613" lon="26.391573">
<ele>102.780334</ele>
<time>2010-08-29T16:47:58Z</time>
<desc>lat.=56.009613, lon.=26.391573, Alt.=102.780334m. Speed=18.396000m/h.</desc>
<speed>5.110000</speed>
</trkpt>
<trkpt lat="56.009567" lon="26.391592">
<ele>102.385803</ele>
<time>2010-08-29T16:47:59Z</time>
<desc>lat.=56.009567, lon.=26.391592, Alt.=102.385803m. Speed=17.532000m/h.</desc>
<speed>4.870000</speed>
</trkpt>
<trkpt lat="56.009529" lon="26.391613">
<ele>102.532288</ele>
<time>2010-08-29T16:48:00Z</time>
<desc>lat.=56.009529, lon.=26.391613, Alt.=102.532288m. Speed=16.308001m/h.</desc>
<speed>4.530000</speed>
</trkpt>
<trkpt lat="56.009495" lon="26.391632">
<ele>103.586975</ele>
<time>2010-08-29T16:48:01Z</time>
<desc>lat.=56.009495, lon.=26.391632, Alt.=103.586975m. Speed=15.084000m/h.</desc>
<speed>4.190000</speed>
</trkpt>
<trkpt lat="56.009460" lon="26.391655">
<ele>103.995178</ele>
<time>2010-08-29T16:48:02Z</time>
<desc>lat.=56.009460, lon.=26.391655, Alt.=103.995178m. Speed=14.616000m/h.</desc>
<speed>4.060000</speed>
</trkpt>
<trkpt lat="56.009426" lon="26.391674">
<ele>104.352600</ele>
<time>2010-08-29T16:48:03Z</time>
<desc>lat.=56.009426, lon.=26.391674, Alt.=104.352600m. Speed=15.264000m/h.</desc>
<speed>4.240000</speed>
</trkpt>
<trkpt lat="56.009388" lon="26.391689">
<ele>104.467834</ele>
<time>2010-08-29T16:48:04Z</time>
<desc>lat.=56.009388, lon.=26.391689, Alt.=104.467834m. Speed=16.379999m/h.</desc>
<speed>4.550000</speed>
</trkpt>
<trkpt lat="56.009350" lon="26.391710">
<ele>104.667053</ele>
<time>2010-08-29T16:48:05Z</time>
<desc>lat.=56.009350, lon.=26.391710, Alt.=104.667053m. Speed=17.568001m/h.</desc>
<speed>4.880000</speed>
</trkpt>
<trkpt lat="56.009312" lon="26.391741">
<ele>107.126038</ele>
<time>2010-08-29T16:48:06Z</time>
<desc>lat.=56.009312, lon.=26.391741, Alt.=107.126038m. Speed=17.784000m/h.</desc>
<speed>4.940000</speed>
</trkpt>
<trkpt lat="56.009274" lon="26.391773">
<ele>108.286194</ele>
<time>2010-08-29T16:48:07Z</time>
<desc>lat.=56.009274, lon.=26.391773, Alt.=108.286194m. Speed=18.936001m/h.</desc>
<speed>5.260000</speed>
</trkpt>
<trkpt lat="56.009228" lon="26.391796">
<ele>107.971741</ele>
<time>2010-08-29T16:48:08Z</time>
<desc>lat.=56.009228, lon.=26.391796, Alt.=107.971741m. Speed=19.620001m/h.</desc>
<speed>5.450000</speed>
</trkpt>
<trkpt lat="56.009178" lon="26.391823">
<ele>107.934631</ele>
<time>2010-08-29T16:48:09Z</time>
<desc>lat.=56.009178, lon.=26.391823, Alt.=107.934631m. Speed=20.340000m/h.</desc>
<speed>5.650000</speed>
</trkpt>
<trkpt lat="56.009132" lon="26.391842">
<ele>108.069397</ele>
<time>2010-08-29T16:48:10Z</time>
<desc>lat.=56.009132, lon.=26.391842, Alt.=108.069397m. Speed=20.483999m/h.</desc>
<speed>5.690000</speed>
</trkpt>
<trkpt lat="56.009079" lon="26.391867">
<ele>108.172913</ele>
<time>2010-08-29T16:48:11Z</time>
<desc>lat.=56.009079, lon.=26.391867, Alt.=108.172913m. Speed=21.275999m/h.</desc>
<speed>5.910000</speed>
</trkpt>
<trkpt lat="56.009026" lon="26.391895">
<ele>108.489319</ele>
<time>2010-08-29T16:48:12Z</time>
<desc>lat.=56.009026, lon.=26.391895, Alt.=108.489319m. Speed=22.139999m/h.</desc>
<speed>6.150000</speed>
</trkpt>
<trkpt lat="56.008980" lon="26.391930">
<ele>109.024475</ele>
<time>2010-08-29T16:48:13Z</time>
<desc>lat.=56.008980, lon.=26.391930, Alt.=109.024475m. Speed=21.888000m/h.</desc>
<speed>6.080000</speed>
</trkpt>
<trkpt lat="56.008926" lon="26.391960">
<ele>109.319397</ele>
<time>2010-08-29T16:48:14Z</time>
<desc>lat.=56.008926, lon.=26.391960, Alt.=109.319397m. Speed=20.916000m/h.</desc>
<speed>5.810000</speed>
</trkpt>
<trkpt lat="56.008877" lon="26.391983">
<ele>109.565491</ele>
<time>2010-08-29T16:48:15Z</time>
<desc>lat.=56.008877, lon.=26.391983, Alt.=109.565491m. Speed=20.160000m/h.</desc>
<speed>5.600000</speed>
</trkpt>
<trkpt lat="56.008831" lon="26.391998">
<ele>109.895569</ele>
<time>2010-08-29T16:48:16Z</time>
<desc>lat.=56.008831, lon.=26.391998, Alt.=109.895569m. Speed=19.080000m/h.</desc>
<speed>5.300000</speed>
</trkpt>
<trkpt lat="56.008785" lon="26.392023">
<ele>110.049866</ele>
<time>2010-08-29T16:48:17Z</time>
<desc>lat.=56.008785, lon.=26.392023, Alt.=110.049866m. Speed=17.856001m/h.</desc>
<speed>4.960000</speed>
</trkpt>
<trkpt lat="56.008747" lon="26.392052">
<ele>110.282288</ele>
<time>2010-08-29T16:48:18Z</time>
<desc>lat.=56.008747, lon.=26.392052, Alt.=110.282288m. Speed=16.704000m/h.</desc>
<speed>4.640000</speed>
</trkpt>
<trkpt lat="56.008709" lon="26.392078">
<ele>110.655334</ele>
<time>2010-08-29T16:48:19Z</time>
<desc>lat.=56.008709, lon.=26.392078, Alt.=110.655334m. Speed=15.516000m/h.</desc>
<speed>4.310000</speed>
</trkpt>
<trkpt lat="56.008675" lon="26.392105">
<ele>110.731506</ele>
<time>2010-08-29T16:48:20Z</time>
<desc>lat.=56.008675, lon.=26.392105, Alt.=110.731506m. Speed=14.652000m/h.</desc>
<speed>4.070000</speed>
</trkpt>
<trkpt lat="56.008640" lon="26.392128">
<ele>110.963928</ele>
<time>2010-08-29T16:48:21Z</time>
<desc>lat.=56.008640, lon.=26.392128, Alt.=110.963928m. Speed=13.392000m/h.</desc>
<speed>3.720000</speed>
</trkpt>
<trkpt lat="56.008610" lon="26.392147">
<ele>111.032288</ele>
<time>2010-08-29T16:48:22Z</time>
<desc>lat.=56.008610, lon.=26.392147, Alt.=111.032288m. Speed=13.500000m/h.</desc>
<speed>3.750000</speed>
</trkpt>
<trkpt lat="56.008575" lon="26.392162">
<ele>111.100647</ele>
<time>2010-08-29T16:48:23Z</time>
<desc>lat.=56.008575, lon.=26.392162, Alt.=111.100647m. Speed=14.076000m/h.</desc>
<speed>3.910000</speed>
</trkpt>
<trkpt lat="56.008541" lon="26.392187">
<ele>111.403381</ele>
<time>2010-08-29T16:48:24Z</time>
<desc>lat.=56.008541, lon.=26.392187, Alt.=111.403381m. Speed=14.832000m/h.</desc>
<speed>4.120000</speed>
</trkpt>
<trkpt lat="56.008503" lon="26.392206">
<ele>111.518616</ele>
<time>2010-08-29T16:48:25Z</time>
<desc>lat.=56.008503, lon.=26.392206, Alt.=111.518616m. Speed=15.768000m/h.</desc>
<speed>4.380000</speed>
</trkpt>
<trkpt lat="56.008465" lon="26.392235">
<ele>111.180725</ele>
<time>2010-08-29T16:48:26Z</time>
<desc>lat.=56.008465, lon.=26.392235, Alt.=111.180725m. Speed=16.091999m/h.</desc>
<speed>4.470000</speed>
</trkpt>
<trkpt lat="56.008423" lon="26.392263">
<ele>110.573303</ele>
<time>2010-08-29T16:48:27Z</time>
<desc>lat.=56.008423, lon.=26.392263, Alt.=110.573303m. Speed=16.524000m/h.</desc>
<speed>4.590000</speed>
</trkpt>
<trkpt lat="56.008385" lon="26.392294">
<ele>110.280334</ele>
<time>2010-08-29T16:48:28Z</time>
<desc>lat.=56.008385, lon.=26.392294, Alt.=110.280334m. Speed=16.955999m/h.</desc>
<speed>4.710000</speed>
</trkpt>
<trkpt lat="56.008343" lon="26.392319">
<ele>110.198303</ele>
<time>2010-08-29T16:48:29Z</time>
<desc>lat.=56.008343, lon.=26.392319, Alt.=110.198303m. Speed=17.280001m/h.</desc>
<speed>4.800000</speed>
</trkpt>
<trkpt lat="56.008301" lon="26.392344">
<ele>109.989319</ele>
<time>2010-08-29T16:48:30Z</time>
<desc>lat.=56.008301, lon.=26.392344, Alt.=109.989319m. Speed=17.208000m/h.</desc>
<speed>4.780000</speed>
</trkpt>
<trkpt lat="56.008259" lon="26.392366">
<ele>109.919006</ele>
<time>2010-08-29T16:48:31Z</time>
<desc>lat.=56.008259, lon.=26.392366, Alt.=109.919006m. Speed=17.280001m/h.</desc>
<speed>4.800000</speed>
</trkpt>
<trkpt lat="56.008217" lon="26.392389">
<ele>109.452209</ele>
<time>2010-08-29T16:48:32Z</time>
<desc>lat.=56.008217, lon.=26.392389, Alt.=109.452209m. Speed=17.208000m/h.</desc>
<speed>4.780000</speed>
</trkpt>
<trkpt lat="56.008175" lon="26.392412">
<ele>109.407288</ele>
<time>2010-08-29T16:48:33Z</time>
<desc>lat.=56.008175, lon.=26.392412, Alt.=109.407288m. Speed=17.351999m/h.</desc>
<speed>4.820000</speed>
</trkpt>
<trkpt lat="56.008133" lon="26.392439">
<ele>109.526428</ele>
<time>2010-08-29T16:48:34Z</time>
<desc>lat.=56.008133, lon.=26.392439, Alt.=109.526428m. Speed=17.100000m/h.</desc>
<speed>4.750000</speed>
</trkpt>
<trkpt lat="56.008095" lon="26.392460">
<ele>109.518616</ele>
<time>2010-08-29T16:48:35Z</time>
<desc>lat.=56.008095, lon.=26.392460, Alt.=109.518616m. Speed=17.316000m/h.</desc>
<speed>4.810000</speed>
</trkpt>
<trkpt lat="56.008053" lon="26.392483">
<ele>109.512756</ele>
<time>2010-08-29T16:48:36Z</time>
<desc>lat.=56.008053, lon.=26.392483, Alt.=109.512756m. Speed=17.243999m/h.</desc>
<speed>4.790000</speed>
</trkpt>
<trkpt lat="56.008011" lon="26.392506">
<ele>109.426819</ele>
<time>2010-08-29T16:48:37Z</time>
<desc>lat.=56.008011, lon.=26.392506, Alt.=109.426819m. Speed=17.243999m/h.</desc>
<speed>4.790000</speed>
</trkpt>
<trkpt lat="56.007969" lon="26.392529">
<ele>109.461975</ele>
<time>2010-08-29T16:48:38Z</time>
<desc>lat.=56.007969, lon.=26.392529, Alt.=109.461975m. Speed=17.351999m/h.</desc>
<speed>4.820000</speed>
</trkpt>
<trkpt lat="56.007927" lon="26.392557">
<ele>109.417053</ele>
<time>2010-08-29T16:48:39Z</time>
<desc>lat.=56.007927, lon.=26.392557, Alt.=109.417053m. Speed=17.316000m/h.</desc>
<speed>4.810000</speed>
</trkpt>
<trkpt lat="56.007889" lon="26.392584">
<ele>109.325256</ele>
<time>2010-08-29T16:48:40Z</time>
<desc>lat.=56.007889, lon.=26.392584, Alt.=109.325256m. Speed=17.351999m/h.</desc>
<speed>4.820000</speed>
</trkpt>
<trkpt lat="56.007847" lon="26.392609">
<ele>109.391663</ele>
<time>2010-08-29T16:48:41Z</time>
<desc>lat.=56.007847, lon.=26.392609, Alt.=109.391663m. Speed=17.459999m/h.</desc>
<speed>4.850000</speed>
</trkpt>
<trkpt lat="56.007805" lon="26.392632">
<ele>109.622131</ele>
<time>2010-08-29T16:48:42Z</time>
<desc>lat.=56.007805, lon.=26.392632, Alt.=109.622131m. Speed=17.496000m/h.</desc>
<speed>4.860000</speed>
</trkpt>
<trkpt lat="56.007763" lon="26.392658">
<ele>109.710022</ele>
<time>2010-08-29T16:48:43Z</time>
<desc>lat.=56.007763, lon.=26.392658, Alt.=109.710022m. Speed=17.784000m/h.</desc>
<speed>4.940000</speed>
</trkpt>
<trkpt lat="56.007721" lon="26.392687">
<ele>109.706116</ele>
<time>2010-08-29T16:48:44Z</time>
<desc>lat.=56.007721, lon.=26.392687, Alt.=109.706116m. Speed=17.820000m/h.</desc>
<speed>4.950000</speed>
</trkpt>
<trkpt lat="56.007679" lon="26.392710">
<ele>109.756897</ele>
<time>2010-08-29T16:48:45Z</time>
<desc>lat.=56.007679, lon.=26.392710, Alt.=109.756897m. Speed=17.892000m/h.</desc>
<speed>4.970000</speed>
</trkpt>
<trkpt lat="56.007637" lon="26.392736">
<ele>109.727600</ele>
<time>2010-08-29T16:48:46Z</time>
<desc>lat.=56.007637, lon.=26.392736, Alt.=109.727600m. Speed=18.360001m/h.</desc>
<speed>5.100000</speed>
</trkpt>
<trkpt lat="56.007595" lon="26.392765">
<ele>109.670959</ele>
<time>2010-08-29T16:48:47Z</time>
<desc>lat.=56.007595, lon.=26.392765, Alt.=109.670959m. Speed=18.431999m/h.</desc>
<speed>5.120000</speed>
</trkpt>
<trkpt lat="56.007553" lon="26.392796">
<ele>109.684631</ele>
<time>2010-08-29T16:48:48Z</time>
<desc>lat.=56.007553, lon.=26.392796, Alt.=109.684631m. Speed=18.216000m/h.</desc>
<speed>5.060000</speed>
</trkpt>
<trkpt lat="56.007507" lon="26.392820">
<ele>109.545959</ele>
<time>2010-08-29T16:48:49Z</time>
<desc>lat.=56.007507, lon.=26.392820, Alt.=109.545959m. Speed=18.323999m/h.</desc>
<speed>5.090000</speed>
</trkpt>
<trkpt lat="56.007462" lon="26.392849">
<ele>109.399475</ele>
<time>2010-08-29T16:48:50Z</time>
<desc>lat.=56.007462, lon.=26.392849, Alt.=109.399475m. Speed=18.684000m/h.</desc>
<speed>5.190000</speed>
</trkpt>
<trkpt lat="56.007416" lon="26.392872">
<ele>109.348694</ele>
<time>2010-08-29T16:48:51Z</time>
<desc>lat.=56.007416, lon.=26.392872, Alt.=109.348694m. Speed=18.792000m/h.</desc>
<speed>5.220000</speed>
</trkpt>
<trkpt lat="56.007370" lon="26.392895">
<ele>109.372131</ele>
<time>2010-08-29T16:48:52Z</time>
<desc>lat.=56.007370, lon.=26.392895, Alt.=109.372131m. Speed=19.044001m/h.</desc>
<speed>5.290000</speed>
</trkpt>
<trkpt lat="56.007328" lon="26.392916">
<ele>109.417053</ele>
<time>2010-08-29T16:48:53Z</time>
<desc>lat.=56.007328, lon.=26.392916, Alt.=109.417053m. Speed=19.188000m/h.</desc>
<speed>5.330000</speed>
</trkpt>
<trkpt lat="56.007278" lon="26.392942">
<ele>109.391663</ele>
<time>2010-08-29T16:48:54Z</time>
<desc>lat.=56.007278, lon.=26.392942, Alt.=109.391663m. Speed=18.900000m/h.</desc>
<speed>5.250000</speed>
</trkpt>
<trkpt lat="56.007236" lon="26.392969">
<ele>109.280334</ele>
<time>2010-08-29T16:48:55Z</time>
<desc>lat.=56.007236, lon.=26.392969, Alt.=109.280334m. Speed=19.080000m/h.</desc>
<speed>5.300000</speed>
</trkpt>
<trkpt lat="56.007191" lon="26.392992">
<ele>109.510803</ele>
<time>2010-08-29T16:48:56Z</time>
<desc>lat.=56.007191, lon.=26.392992, Alt.=109.510803m. Speed=17.927999m/h.</desc>
<speed>4.980000</speed>
</trkpt>
<trkpt lat="56.007149" lon="26.393015">
<ele>109.602600</ele>
<time>2010-08-29T16:48:57Z</time>
<desc>lat.=56.007149, lon.=26.393015, Alt.=109.602600m. Speed=16.848000m/h.</desc>
<speed>4.680000</speed>
</trkpt>
<trkpt lat="56.007107" lon="26.393040">
<ele>109.520569</ele>
<time>2010-08-29T16:48:58Z</time>
<desc>lat.=56.007107, lon.=26.393040, Alt.=109.520569m. Speed=17.351999m/h.</desc>
<speed>4.820000</speed>
</trkpt>
<trkpt lat="56.007065" lon="26.393070">
<ele>109.495178</ele>
<time>2010-08-29T16:48:59Z</time>
<desc>lat.=56.007065, lon.=26.393070, Alt.=109.495178m. Speed=17.639999m/h.</desc>
<speed>4.900000</speed>
</trkpt>
<trkpt lat="56.007027" lon="26.393103">
<ele>109.514709</ele>
<time>2010-08-29T16:49:00Z</time>
<desc>lat.=56.007027, lon.=26.393103, Alt.=109.514709m. Speed=17.964001m/h.</desc>
<speed>4.990000</speed>
</trkpt>
<trkpt lat="56.006985" lon="26.393135">
<ele>109.493225</ele>
<time>2010-08-29T16:49:01Z</time>
<desc>lat.=56.006985, lon.=26.393135, Alt.=109.493225m. Speed=18.288000m/h.</desc>
<speed>5.080000</speed>
</trkpt>
<trkpt lat="56.006943" lon="26.393167">
<ele>109.526428</ele>
<time>2010-08-29T16:49:02Z</time>
<desc>lat.=56.006943, lon.=26.393167, Alt.=109.526428m. Speed=18.900000m/h.</desc>
<speed>5.250000</speed>
</trkpt>
<trkpt lat="56.006897" lon="26.393198">
<ele>109.502991</ele>
<time>2010-08-29T16:49:03Z</time>
<desc>lat.=56.006897, lon.=26.393198, Alt.=109.502991m. Speed=18.864000m/h.</desc>
<speed>5.240000</speed>
</trkpt>
<trkpt lat="56.006851" lon="26.393229">
<ele>109.563538</ele>
<time>2010-08-29T16:49:04Z</time>
<desc>lat.=56.006851, lon.=26.393229, Alt.=109.563538m. Speed=19.007999m/h.</desc>
<speed>5.280000</speed>
</trkpt>
<trkpt lat="56.006805" lon="26.393261">
<ele>109.545959</ele>
<time>2010-08-29T16:49:05Z</time>
<desc>lat.=56.006805, lon.=26.393261, Alt.=109.545959m. Speed=19.368000m/h.</desc>
<speed>5.380000</speed>
</trkpt>
<trkpt lat="56.006760" lon="26.393290">
<ele>109.698303</ele>
<time>2010-08-29T16:49:06Z</time>
<desc>lat.=56.006760, lon.=26.393290, Alt.=109.698303m. Speed=19.368000m/h.</desc>
<speed>5.380000</speed>
</trkpt>
<trkpt lat="56.006718" lon="26.393322">
<ele>109.561584</ele>
<time>2010-08-29T16:49:07Z</time>
<desc>lat.=56.006718, lon.=26.393322, Alt.=109.561584m. Speed=18.864000m/h.</desc>
<speed>5.240000</speed>
</trkpt>
<trkpt lat="56.006672" lon="26.393353">
<ele>109.573303</ele>
<time>2010-08-29T16:49:08Z</time>
<desc>lat.=56.006672, lon.=26.393353, Alt.=109.573303m. Speed=17.964001m/h.</desc>
<speed>4.990000</speed>
</trkpt>
<trkpt lat="56.006634" lon="26.393379">
<ele>109.596741</ele>
<time>2010-08-29T16:49:09Z</time>
<desc>lat.=56.006634, lon.=26.393379, Alt.=109.596741m. Speed=17.100000m/h.</desc>
<speed>4.750000</speed>
</trkpt>
<trkpt lat="56.006592" lon="26.393402">
<ele>109.694397</ele>
<time>2010-08-29T16:49:10Z</time>
<desc>lat.=56.006592, lon.=26.393402, Alt.=109.694397m. Speed=16.056000m/h.</desc>
<speed>4.460000</speed>
</trkpt>
<trkpt lat="56.006557" lon="26.393427">
<ele>109.891663</ele>
<time>2010-08-29T16:49:11Z</time>
<desc>lat.=56.006557, lon.=26.393427, Alt.=109.891663m. Speed=15.084000m/h.</desc>
<speed>4.190000</speed>
</trkpt>
<trkpt lat="56.006523" lon="26.393448">
<ele>109.919006</ele>
<time>2010-08-29T16:49:12Z</time>
<desc>lat.=56.006523, lon.=26.393448, Alt.=109.919006m. Speed=14.256000m/h.</desc>
<speed>3.960000</speed>
</trkpt>
<trkpt lat="56.006493" lon="26.393469">
<ele>110.042053</ele>
<time>2010-08-29T16:49:13Z</time>
<desc>lat.=56.006493, lon.=26.393469, Alt.=110.042053m. Speed=13.392000m/h.</desc>
<speed>3.720000</speed>
</trkpt>
<trkpt lat="56.006462" lon="26.393492">
<ele>109.901428</ele>
<time>2010-08-29T16:49:14Z</time>
<desc>lat.=56.006462, lon.=26.393492, Alt.=109.901428m. Speed=13.392000m/h.</desc>
<speed>3.720000</speed>
</trkpt>
<trkpt lat="56.006428" lon="26.393515">
<ele>109.864319</ele>
<time>2010-08-29T16:49:15Z</time>
<desc>lat.=56.006428, lon.=26.393515, Alt.=109.864319m. Speed=14.688000m/h.</desc>
<speed>4.080000</speed>
</trkpt>
<trkpt lat="56.006393" lon="26.393534">
<ele>109.969788</ele>
<time>2010-08-29T16:49:16Z</time>
<desc>lat.=56.006393, lon.=26.393534, Alt.=109.969788m. Speed=15.516000m/h.</desc>
<speed>4.310000</speed>
</trkpt>
<trkpt lat="56.006355" lon="26.393551">
<ele>110.153381</ele>
<time>2010-08-29T16:49:17Z</time>
<desc>lat.=56.006355, lon.=26.393551, Alt.=110.153381m. Speed=16.200001m/h.</desc>
<speed>4.500000</speed>
</trkpt>
<trkpt lat="56.006313" lon="26.393570">
<ele>110.286194</ele>
<time>2010-08-29T16:49:18Z</time>
<desc>lat.=56.006313, lon.=26.393570, Alt.=110.286194m. Speed=16.884001m/h.</desc>
<speed>4.690000</speed>
</trkpt>
<trkpt lat="56.006275" lon="26.393597">
<ele>110.452209</ele>
<time>2010-08-29T16:49:19Z</time>
<desc>lat.=56.006275, lon.=26.393597, Alt.=110.452209m. Speed=17.639999m/h.</desc>
<speed>4.900000</speed>
</trkpt>
<trkpt lat="56.006233" lon="26.393623">
<ele>110.532288</ele>
<time>2010-08-29T16:49:20Z</time>
<desc>lat.=56.006233, lon.=26.393623, Alt.=110.532288m. Speed=18.252001m/h.</desc>
<speed>5.070000</speed>
</trkpt>
<trkpt lat="56.006191" lon="26.393652">
<ele>110.626038</ele>
<time>2010-08-29T16:49:21Z</time>
<desc>lat.=56.006191, lon.=26.393652, Alt.=110.626038m. Speed=18.612000m/h.</desc>
<speed>5.170000</speed>
</trkpt>
<trkpt lat="56.006149" lon="26.393679">
<ele>110.555725</ele>
<time>2010-08-29T16:49:22Z</time>
<desc>lat.=56.006149, lon.=26.393679, Alt.=110.555725m. Speed=17.424000m/h.</desc>
<speed>4.840000</speed>
</trkpt>
<trkpt lat="56.006107" lon="26.393703">
<ele>110.467834</ele>
<time>2010-08-29T16:49:23Z</time>
<desc>lat.=56.006107, lon.=26.393703, Alt.=110.467834m. Speed=16.596001m/h.</desc>
<speed>4.610000</speed>
</trkpt>
<trkpt lat="56.006069" lon="26.393730">
<ele>110.475647</ele>
<time>2010-08-29T16:49:24Z</time>
<desc>lat.=56.006069, lon.=26.393730, Alt.=110.475647m. Speed=15.696000m/h.</desc>
<speed>4.360000</speed>
</trkpt>
<trkpt lat="56.006035" lon="26.393755">
<ele>110.463928</ele>
<time>2010-08-29T16:49:25Z</time>
<desc>lat.=56.006035, lon.=26.393755, Alt.=110.463928m. Speed=14.760000m/h.</desc>
<speed>4.100000</speed>
</trkpt>
<trkpt lat="56.006001" lon="26.393778">
<ele>110.510803</ele>
<time>2010-08-29T16:49:26Z</time>
<desc>lat.=56.006001, lon.=26.393778, Alt.=110.510803m. Speed=14.076000m/h.</desc>
<speed>3.910000</speed>
</trkpt>
<trkpt lat="56.005966" lon="26.393805">
<ele>110.544006</ele>
<time>2010-08-29T16:49:27Z</time>
<desc>lat.=56.005966, lon.=26.393805, Alt.=110.544006m. Speed=14.904000m/h.</desc>
<speed>4.140000</speed>
</trkpt>
<trkpt lat="56.005928" lon="26.393829">
<ele>110.088928</ele>
<time>2010-08-29T16:49:28Z</time>
<desc>lat.=56.005928, lon.=26.393829, Alt.=110.088928m. Speed=16.128000m/h.</desc>
<speed>4.480000</speed>
</trkpt>
<trkpt lat="56.005894" lon="26.393858">
<ele>109.999084</ele>
<time>2010-08-29T16:49:29Z</time>
<desc>lat.=56.005894, lon.=26.393858, Alt.=109.999084m. Speed=16.559999m/h.</desc>
<speed>4.600000</speed>
</trkpt>
<trkpt lat="56.005856" lon="26.393885">
<ele>109.989319</ele>
<time>2010-08-29T16:49:30Z</time>
<desc>lat.=56.005856, lon.=26.393885, Alt.=109.989319m. Speed=17.100000m/h.</desc>
<speed>4.750000</speed>
</trkpt>
<trkpt lat="56.005814" lon="26.393913">
<ele>110.149475</ele>
<time>2010-08-29T16:49:31Z</time>
<desc>lat.=56.005814, lon.=26.393913, Alt.=110.149475m. Speed=17.784000m/h.</desc>
<speed>4.940000</speed>
</trkpt>
<trkpt lat="56.005772" lon="26.393946">
<ele>110.170959</ele>
<time>2010-08-29T16:49:32Z</time>
<desc>lat.=56.005772, lon.=26.393946, Alt.=110.170959m. Speed=18.576000m/h.</desc>
<speed>5.160000</speed>
</trkpt>
<trkpt lat="56.005730" lon="26.393974">
<ele>110.106506</ele>
<time>2010-08-29T16:49:33Z</time>
<desc>lat.=56.005730, lon.=26.393974, Alt.=110.106506m. Speed=18.936001m/h.</desc>
<speed>5.260000</speed>
</trkpt>
<trkpt lat="56.005684" lon="26.394007">
<ele>110.145569</ele>
<time>2010-08-29T16:49:34Z</time>
<desc>lat.=56.005684, lon.=26.394007, Alt.=110.145569m. Speed=18.468000m/h.</desc>
<speed>5.130000</speed>
</trkpt>
<trkpt lat="56.005642" lon="26.394037">
<ele>110.204163</ele>
<time>2010-08-29T16:49:35Z</time>
<desc>lat.=56.005642, lon.=26.394037, Alt.=110.204163m. Speed=17.532000m/h.</desc>
<speed>4.870000</speed>
</trkpt>
<trkpt lat="56.005604" lon="26.394068">
<ele>110.366272</ele>
<time>2010-08-29T16:49:36Z</time>
<desc>lat.=56.005604, lon.=26.394068, Alt.=110.366272m. Speed=16.524000m/h.</desc>
<speed>4.590000</speed>
</trkpt>
<trkpt lat="56.005566" lon="26.394098">
<ele>110.487366</ele>
<time>2010-08-29T16:49:37Z</time>
<desc>lat.=56.005566, lon.=26.394098, Alt.=110.487366m. Speed=16.848000m/h.</desc>
<speed>4.680000</speed>
</trkpt>
<trkpt lat="56.005524" lon="26.394129">
<ele>110.715881</ele>
<time>2010-08-29T16:49:38Z</time>
<desc>lat.=56.005524, lon.=26.394129, Alt.=110.715881m. Speed=17.820000m/h.</desc>
<speed>4.950000</speed>
</trkpt>
<trkpt lat="56.005482" lon="26.394156">
<ele>110.645569</ele>
<time>2010-08-29T16:49:39Z</time>
<desc>lat.=56.005482, lon.=26.394156, Alt.=110.645569m. Speed=18.684000m/h.</desc>
<speed>5.190000</speed>
</trkpt>
<trkpt lat="56.005440" lon="26.394190">
<ele>111.059631</ele>
<time>2010-08-29T16:49:40Z</time>
<desc>lat.=56.005440, lon.=26.394190, Alt.=111.059631m. Speed=18.900000m/h.</desc>
<speed>5.250000</speed>
</trkpt>
<trkpt lat="56.005398" lon="26.394226">
<ele>111.352600</ele>
<time>2010-08-29T16:49:41Z</time>
<desc>lat.=56.005398, lon.=26.394226, Alt.=111.352600m. Speed=20.016001m/h.</desc>
<speed>5.560000</speed>
</trkpt>
<trkpt lat="56.005352" lon="26.394260">
<ele>111.407288</ele>
<time>2010-08-29T16:49:42Z</time>
<desc>lat.=56.005352, lon.=26.394260, Alt.=111.407288m. Speed=20.879999m/h.</desc>
<speed>5.800000</speed>
</trkpt>
<trkpt lat="56.005306" lon="26.394302">
<ele>111.430725</ele>
<time>2010-08-29T16:49:43Z</time>
<desc>lat.=56.005306, lon.=26.394302, Alt.=111.430725m. Speed=21.455999m/h.</desc>
<speed>5.960000</speed>
</trkpt>
<trkpt lat="56.005260" lon="26.394342">
<ele>111.502991</ele>
<time>2010-08-29T16:49:44Z</time>
<desc>lat.=56.005260, lon.=26.394342, Alt.=111.502991m. Speed=20.808001m/h.</desc>
<speed>5.780000</speed>
</trkpt>
<trkpt lat="56.005211" lon="26.394375">
<ele>111.577209</ele>
<time>2010-08-29T16:49:45Z</time>
<desc>lat.=56.005211, lon.=26.394375, Alt.=111.577209m. Speed=19.764000m/h.</desc>
<speed>5.490000</speed>
</trkpt>
<trkpt lat="56.005165" lon="26.394403">
<ele>111.627991</ele>
<time>2010-08-29T16:49:46Z</time>
<desc>lat.=56.005165, lon.=26.394403, Alt.=111.627991m. Speed=18.684000m/h.</desc>
<speed>5.190000</speed>
</trkpt>
<trkpt lat="56.005123" lon="26.394438">
<ele>111.993225</ele>
<time>2010-08-29T16:49:47Z</time>
<desc>lat.=56.005123, lon.=26.394438, Alt.=111.993225m. Speed=18.540001m/h.</desc>
<speed>5.150000</speed>
</trkpt>
<trkpt lat="56.005081" lon="26.394472">
<ele>111.883850</ele>
<time>2010-08-29T16:49:48Z</time>
<desc>lat.=56.005081, lon.=26.394472, Alt.=111.883850m. Speed=18.972000m/h.</desc>
<speed>5.270000</speed>
</trkpt>
<trkpt lat="56.005039" lon="26.394510">
<ele>112.338928</ele>
<time>2010-08-29T16:49:49Z</time>
<desc>lat.=56.005039, lon.=26.394510, Alt.=112.338928m. Speed=19.764000m/h.</desc>
<speed>5.490000</speed>
</trkpt>
<trkpt lat="56.004993" lon="26.394548">
<ele>112.338928</ele>
<time>2010-08-29T16:49:50Z</time>
<desc>lat.=56.004993, lon.=26.394548, Alt.=112.338928m. Speed=20.448000m/h.</desc>
<speed>5.680000</speed>
</trkpt>
<trkpt lat="56.004948" lon="26.394592">
<ele>112.358459</ele>
<time>2010-08-29T16:49:51Z</time>
<desc>lat.=56.004948, lon.=26.394592, Alt.=112.358459m. Speed=20.879999m/h.</desc>
<speed>5.800000</speed>
</trkpt>
<trkpt lat="56.004898" lon="26.394634">
<ele>112.456116</ele>
<time>2010-08-29T16:49:52Z</time>
<desc>lat.=56.004898, lon.=26.394634, Alt.=112.456116m. Speed=20.844000m/h.</desc>
<speed>5.790000</speed>
</trkpt>
<trkpt lat="56.004852" lon="26.394672">
<ele>112.002991</ele>
<time>2010-08-29T16:49:53Z</time>
<desc>lat.=56.004852, lon.=26.394672, Alt.=112.002991m. Speed=20.304001m/h.</desc>
<speed>5.640000</speed>
</trkpt>
<trkpt lat="56.004807" lon="26.394712">
<ele>111.713928</ele>
<time>2010-08-29T16:49:54Z</time>
<desc>lat.=56.004807, lon.=26.394712, Alt.=111.713928m. Speed=19.332001m/h.</desc>
<speed>5.370000</speed>
</trkpt>
<trkpt lat="56.004768" lon="26.394756">
<ele>112.118225</ele>
<time>2010-08-29T16:49:55Z</time>
<desc>lat.=56.004768, lon.=26.394756, Alt.=112.118225m. Speed=18.180000m/h.</desc>
<speed>5.050000</speed>
</trkpt>
<trkpt lat="56.004730" lon="26.394794">
<ele>111.856506</ele>
<time>2010-08-29T16:49:56Z</time>
<desc>lat.=56.004730, lon.=26.394794, Alt.=111.856506m. Speed=17.604000m/h.</desc>
<speed>4.890000</speed>
</trkpt>
<trkpt lat="56.004692" lon="26.394831">
<ele>111.651428</ele>
<time>2010-08-29T16:49:57Z</time>
<desc>lat.=56.004692, lon.=26.394831, Alt.=111.651428m. Speed=16.955999m/h.</desc>
<speed>4.710000</speed>
</trkpt>
<trkpt lat="56.004658" lon="26.394863">
<ele>111.713928</ele>
<time>2010-08-29T16:49:58Z</time>
<desc>lat.=56.004658, lon.=26.394863, Alt.=111.713928m. Speed=16.056000m/h.</desc>
<speed>4.460000</speed>
</trkpt>
<trkpt lat="56.004620" lon="26.394890">
<ele>111.655334</ele>
<time>2010-08-29T16:49:59Z</time>
<desc>lat.=56.004620, lon.=26.394890, Alt.=111.655334m. Speed=16.200001m/h.</desc>
<speed>4.500000</speed>
</trkpt>
<trkpt lat="56.004578" lon="26.394913">
<ele>111.700256</ele>
<time>2010-08-29T16:50:00Z</time>
<desc>lat.=56.004578, lon.=26.394913, Alt.=111.700256m. Speed=17.028000m/h.</desc>
<speed>4.730000</speed>
</trkpt>
<trkpt lat="56.004536" lon="26.394938">
<ele>111.528381</ele>
<time>2010-08-29T16:50:01Z</time>
<desc>lat.=56.004536, lon.=26.394938, Alt.=111.528381m. Speed=18.072001m/h.</desc>
<speed>5.020000</speed>
</trkpt>
<trkpt lat="56.004498" lon="26.394979">
<ele>112.108459</ele>
<time>2010-08-29T16:50:02Z</time>
<desc>lat.=56.004498, lon.=26.394979, Alt.=112.108459m. Speed=18.719999m/h.</desc>
<speed>5.200000</speed>
</trkpt>
<trkpt lat="56.004452" lon="26.395018">
<ele>112.196350</ele>
<time>2010-08-29T16:50:03Z</time>
<desc>lat.=56.004452, lon.=26.395018, Alt.=112.196350m. Speed=19.224001m/h.</desc>
<speed>5.340000</speed>
</trkpt>
<trkpt lat="56.004410" lon="26.395058">
<ele>112.294006</ele>
<time>2010-08-29T16:50:04Z</time>
<desc>lat.=56.004410, lon.=26.395058, Alt.=112.294006m. Speed=19.511999m/h.</desc>
<speed>5.420000</speed>
</trkpt>
<trkpt lat="56.004364" lon="26.395098">
<ele>112.276428</ele>
<time>2010-08-29T16:50:05Z</time>
<desc>lat.=56.004364, lon.=26.395098, Alt.=112.276428m. Speed=20.087999m/h.</desc>
<speed>5.580000</speed>
</trkpt>
<trkpt lat="56.004318" lon="26.395136">
<ele>112.221741</ele>
<time>2010-08-29T16:50:06Z</time>
<desc>lat.=56.004318, lon.=26.395136, Alt.=112.221741m. Speed=20.988001m/h.</desc>
<speed>5.830000</speed>
</trkpt>
<trkpt lat="56.004269" lon="26.395182">
<ele>112.344788</ele>
<time>2010-08-29T16:50:07Z</time>
<desc>lat.=56.004269, lon.=26.395182, Alt.=112.344788m. Speed=20.916000m/h.</desc>
<speed>5.810000</speed>
</trkpt>
<trkpt lat="56.004223" lon="26.395226">
<ele>112.586975</ele>
<time>2010-08-29T16:50:08Z</time>
<desc>lat.=56.004223, lon.=26.395226, Alt.=112.586975m. Speed=20.448000m/h.</desc>
<speed>5.680000</speed>
</trkpt>
<trkpt lat="56.004177" lon="26.395264">
<ele>112.557678</ele>
<time>2010-08-29T16:50:09Z</time>
<desc>lat.=56.004177, lon.=26.395264, Alt.=112.557678m. Speed=20.664000m/h.</desc>
<speed>5.740000</speed>
</trkpt>
<trkpt lat="56.004131" lon="26.395304">
<ele>112.508850</ele>
<time>2010-08-29T16:50:10Z</time>
<desc>lat.=56.004131, lon.=26.395304, Alt.=112.508850m. Speed=21.780001m/h.</desc>
<speed>6.050000</speed>
</trkpt>
<trkpt lat="56.004082" lon="26.395350">
<ele>112.715881</ele>
<time>2010-08-29T16:50:11Z</time>
<desc>lat.=56.004082, lon.=26.395350, Alt.=112.715881m. Speed=22.392000m/h.</desc>
<speed>6.220000</speed>
</trkpt>
<trkpt lat="56.004032" lon="26.395397">
<ele>112.864319</ele>
<time>2010-08-29T16:50:12Z</time>
<desc>lat.=56.004032, lon.=26.395397, Alt.=112.864319m. Speed=23.256001m/h.</desc>
<speed>6.460000</speed>
</trkpt>
<trkpt lat="56.003979" lon="26.395441">
<ele>112.844788</ele>
<time>2010-08-29T16:50:13Z</time>
<desc>lat.=56.003979, lon.=26.395441, Alt.=112.844788m. Speed=23.327999m/h.</desc>
<speed>6.480000</speed>
</trkpt>
<trkpt lat="56.003929" lon="26.395493">
<ele>112.899475</ele>
<time>2010-08-29T16:50:14Z</time>
<desc>lat.=56.003929, lon.=26.395493, Alt.=112.899475m. Speed=23.760000m/h.</desc>
<speed>6.600000</speed>
</trkpt>
<trkpt lat="56.003876" lon="26.395542">
<ele>112.905334</ele>
<time>2010-08-29T16:50:15Z</time>
<desc>lat.=56.003876, lon.=26.395542, Alt.=112.905334m. Speed=23.219999m/h.</desc>
<speed>6.450000</speed>
</trkpt>
<trkpt lat="56.003822" lon="26.395592">
<ele>113.127991</ele>
<time>2010-08-29T16:50:16Z</time>
<desc>lat.=56.003822, lon.=26.395592, Alt.=113.127991m. Speed=22.356001m/h.</desc>
<speed>6.210000</speed>
</trkpt>
<trkpt lat="56.003773" lon="26.395636">
<ele>113.053772</ele>
<time>2010-08-29T16:50:17Z</time>
<desc>lat.=56.003773, lon.=26.395636, Alt.=113.053772m. Speed=21.672001m/h.</desc>
<speed>6.020000</speed>
</trkpt>
<trkpt lat="56.003727" lon="26.395681">
<ele>113.079163</ele>
<time>2010-08-29T16:50:18Z</time>
<desc>lat.=56.003727, lon.=26.395681, Alt.=113.079163m. Speed=20.808001m/h.</desc>
<speed>5.780000</speed>
</trkpt>
<trkpt lat="56.003685" lon="26.395727">
<ele>113.110413</ele>
<time>2010-08-29T16:50:19Z</time>
<desc>lat.=56.003685, lon.=26.395727, Alt.=113.110413m. Speed=19.944000m/h.</desc>
<speed>5.540000</speed>
</trkpt>
<trkpt lat="56.003643" lon="26.395767">
<ele>113.208069</ele>
<time>2010-08-29T16:50:20Z</time>
<desc>lat.=56.003643, lon.=26.395767, Alt.=113.208069m. Speed=19.224001m/h.</desc>
<speed>5.340000</speed>
</trkpt>
<trkpt lat="56.003605" lon="26.395807">
<ele>113.225647</ele>
<time>2010-08-29T16:50:21Z</time>
<desc>lat.=56.003605, lon.=26.395807, Alt.=113.225647m. Speed=18.756001m/h.</desc>
<speed>5.210000</speed>
</trkpt>
<trkpt lat="56.003563" lon="26.395844">
<ele>113.475647</ele>
<time>2010-08-29T16:50:22Z</time>
<desc>lat.=56.003563, lon.=26.395844, Alt.=113.475647m. Speed=18.000000m/h.</desc>
<speed>5.000000</speed>
</trkpt>
<trkpt lat="56.003525" lon="26.395882">
<ele>113.487366</ele>
<time>2010-08-29T16:50:23Z</time>
<desc>lat.=56.003525, lon.=26.395882, Alt.=113.487366m. Speed=17.208000m/h.</desc>
<speed>4.780000</speed>
</trkpt>
<trkpt lat="56.003490" lon="26.395918">
<ele>113.479553</ele>
<time>2010-08-29T16:50:24Z</time>
<desc>lat.=56.003490, lon.=26.395918, Alt.=113.479553m. Speed=16.559999m/h.</desc>
<speed>4.600000</speed>
</trkpt>
<trkpt lat="56.003452" lon="26.395952">
<ele>113.442444</ele>
<time>2010-08-29T16:50:25Z</time>
<desc>lat.=56.003452, lon.=26.395952, Alt.=113.442444m. Speed=17.100000m/h.</desc>
<speed>4.750000</speed>
</trkpt>
<trkpt lat="56.003414" lon="26.395990">
<ele>113.489319</ele>
<time>2010-08-29T16:50:26Z</time>
<desc>lat.=56.003414, lon.=26.395990, Alt.=113.489319m. Speed=17.856001m/h.</desc>
<speed>4.960000</speed>
</trkpt>
<trkpt lat="56.003372" lon="26.396030">
<ele>113.522522</ele>
<time>2010-08-29T16:50:27Z</time>
<desc>lat.=56.003372, lon.=26.396030, Alt.=113.522522m. Speed=18.431999m/h.</desc>
<speed>5.120000</speed>
</trkpt>
<trkpt lat="56.003334" lon="26.396069">
<ele>113.309631</ele>
<time>2010-08-29T16:50:28Z</time>
<desc>lat.=56.003334, lon.=26.396069, Alt.=113.309631m. Speed=18.180000m/h.</desc>
<speed>5.050000</speed>
</trkpt>
<trkpt lat="56.003296" lon="26.396107">
<ele>113.231506</ele>
<time>2010-08-29T16:50:29Z</time>
<desc>lat.=56.003296, lon.=26.396107, Alt.=113.231506m. Speed=17.568001m/h.</desc>
<speed>4.880000</speed>
</trkpt>
<trkpt lat="56.003258" lon="26.396147">
<ele>113.163147</ele>
<time>2010-08-29T16:50:30Z</time>
<desc>lat.=56.003258, lon.=26.396147, Alt.=113.163147m. Speed=16.920000m/h.</desc>
<speed>4.700000</speed>
</trkpt>
<trkpt lat="56.003223" lon="26.396187">
<ele>113.061584</ele>
<time>2010-08-29T16:50:31Z</time>
<desc>lat.=56.003223, lon.=26.396187, Alt.=113.061584m. Speed=16.452000m/h.</desc>
<speed>4.570000</speed>
</trkpt>
<trkpt lat="56.003189" lon="26.396223">
<ele>113.116272</ele>
<time>2010-08-29T16:50:32Z</time>
<desc>lat.=56.003189, lon.=26.396223, Alt.=113.116272m. Speed=15.804000m/h.</desc>
<speed>4.390000</speed>
</trkpt>
<trkpt lat="56.003155" lon="26.396257">
<ele>113.321350</ele>
<time>2010-08-29T16:50:33Z</time>
<desc>lat.=56.003155, lon.=26.396257, Alt.=113.321350m. Speed=15.408000m/h.</desc>
<speed>4.280000</speed>
</trkpt>
<trkpt lat="56.003120" lon="26.396286">
<ele>113.331116</ele>
<time>2010-08-29T16:50:34Z</time>
<desc>lat.=56.003120, lon.=26.396286, Alt.=113.331116m. Speed=14.472000m/h.</desc>
<speed>4.020000</speed>
</trkpt>
<trkpt lat="56.003086" lon="26.396313">
<ele>113.196350</ele>
<time>2010-08-29T16:50:35Z</time>
<desc>lat.=56.003086, lon.=26.396313, Alt.=113.196350m. Speed=13.896000m/h.</desc>
<speed>3.860000</speed>
</trkpt>
<trkpt lat="56.003059" lon="26.396341">
<ele>113.241272</ele>
<time>2010-08-29T16:50:36Z</time>
<desc>lat.=56.003059, lon.=26.396341, Alt.=113.241272m. Speed=12.996000m/h.</desc>
<speed>3.610000</speed>
</trkpt>
<trkpt lat="56.003033" lon="26.396372">
<ele>113.415100</ele>
<time>2010-08-29T16:50:37Z</time>
<desc>lat.=56.003033, lon.=26.396372, Alt.=113.415100m. Speed=12.384000m/h.</desc>
<speed>3.440000</speed>
</trkpt>
<trkpt lat="56.003006" lon="26.396399">
<ele>113.508850</ele>
<time>2010-08-29T16:50:38Z</time>
<desc>lat.=56.003006, lon.=26.396399, Alt.=113.508850m. Speed=12.528000m/h.</desc>
<speed>3.480000</speed>
</trkpt>
<trkpt lat="56.002975" lon="26.396425">
<ele>113.377991</ele>
<time>2010-08-29T16:50:39Z</time>
<desc>lat.=56.002975, lon.=26.396425, Alt.=113.377991m. Speed=12.960000m/h.</desc>
<speed>3.600000</speed>
</trkpt>
<trkpt lat="56.002949" lon="26.396446">
<ele>113.114319</ele>
<time>2010-08-29T16:50:40Z</time>
<desc>lat.=56.002949, lon.=26.396446, Alt.=113.114319m. Speed=13.284000m/h.</desc>
<speed>3.690000</speed>
</trkpt>
<trkpt lat="56.002918" lon="26.396479">
<ele>113.170959</ele>
<time>2010-08-29T16:50:41Z</time>
<desc>lat.=56.002918, lon.=26.396479, Alt.=113.170959m. Speed=14.364000m/h.</desc>
<speed>3.990000</speed>
</trkpt>
<trkpt lat="56.002888" lon="26.396523">
<ele>113.653381</ele>
<time>2010-08-29T16:50:42Z</time>
<desc>lat.=56.002888, lon.=26.396523, Alt.=113.653381m. Speed=15.084000m/h.</desc>
<speed>4.190000</speed>
</trkpt>
<trkpt lat="56.002853" lon="26.396555">
<ele>113.450256</ele>
<time>2010-08-29T16:50:43Z</time>
<desc>lat.=56.002853, lon.=26.396555, Alt.=113.450256m. Speed=15.696000m/h.</desc>
<speed>4.360000</speed>
</trkpt>
<trkpt lat="56.002819" lon="26.396589">
<ele>113.215881</ele>
<time>2010-08-29T16:50:44Z</time>
<desc>lat.=56.002819, lon.=26.396589, Alt.=113.215881m. Speed=15.048000m/h.</desc>
<speed>4.180000</speed>
</trkpt>
<trkpt lat="56.002789" lon="26.396622">
<ele>113.180725</ele>
<time>2010-08-29T16:50:45Z</time>
<desc>lat.=56.002789, lon.=26.396622, Alt.=113.180725m. Speed=14.364000m/h.</desc>
<speed>3.990000</speed>
</trkpt>
<trkpt lat="56.002758" lon="26.396654">
<ele>113.387756</ele>
<time>2010-08-29T16:50:46Z</time>
<desc>lat.=56.002758, lon.=26.396654, Alt.=113.387756m. Speed=13.752000m/h.</desc>
<speed>3.820000</speed>
</trkpt>
<trkpt lat="56.002728" lon="26.396683">
<ele>113.397522</ele>
<time>2010-08-29T16:50:47Z</time>
<desc>lat.=56.002728, lon.=26.396683, Alt.=113.397522m. Speed=13.068000m/h.</desc>
<speed>3.630000</speed>
</trkpt>
<trkpt lat="56.002701" lon="26.396711">
<ele>113.604553</ele>
<time>2010-08-29T16:50:48Z</time>
<desc>lat.=56.002701, lon.=26.396711, Alt.=113.604553m. Speed=12.492000m/h.</desc>
<speed>3.470000</speed>
</trkpt>
<trkpt lat="56.002674" lon="26.396729">
<ele>113.065491</ele>
<time>2010-08-29T16:50:49Z</time>
<desc>lat.=56.002674, lon.=26.396729, Alt.=113.065491m. Speed=12.564000m/h.</desc>
<speed>3.490000</speed>
</trkpt>
<trkpt lat="56.002644" lon="26.396751">
<ele>112.686584</ele>
<time>2010-08-29T16:50:50Z</time>
<desc>lat.=56.002644, lon.=26.396751, Alt.=112.686584m. Speed=13.968000m/h.</desc>
<speed>3.880000</speed>
</trkpt>
<trkpt lat="56.002613" lon="26.396780">
<ele>112.594788</ele>
<time>2010-08-29T16:50:51Z</time>
<desc>lat.=56.002613, lon.=26.396780, Alt.=112.594788m. Speed=14.832000m/h.</desc>
<speed>4.120000</speed>
</trkpt>
<trkpt lat="56.002583" lon="26.396816">
<ele>112.606506</ele>
<time>2010-08-29T16:50:52Z</time>
<desc>lat.=56.002583, lon.=26.396816, Alt.=112.606506m. Speed=15.912000m/h.</desc>
<speed>4.420000</speed>
</trkpt>
<trkpt lat="56.002548" lon="26.396854">
<ele>112.741272</ele>
<time>2010-08-29T16:50:53Z</time>
<desc>lat.=56.002548, lon.=26.396854, Alt.=112.741272m. Speed=16.992001m/h.</desc>
<speed>4.720000</speed>
</trkpt>
<trkpt lat="56.002510" lon="26.396896">
<ele>112.622131</ele>
<time>2010-08-29T16:50:54Z</time>
<desc>lat.=56.002510, lon.=26.396896, Alt.=112.622131m. Speed=17.892000m/h.</desc>
<speed>4.970000</speed>
</trkpt>
<trkpt lat="56.002472" lon="26.396940">
<ele>112.624084</ele>
<time>2010-08-29T16:50:55Z</time>
<desc>lat.=56.002472, lon.=26.396940, Alt.=112.624084m. Speed=18.756001m/h.</desc>
<speed>5.210000</speed>
</trkpt>
<trkpt lat="56.002430" lon="26.396986">
<ele>112.901428</ele>
<time>2010-08-29T16:50:56Z</time>
<desc>lat.=56.002430, lon.=26.396986, Alt.=112.901428m. Speed=19.188000m/h.</desc>
<speed>5.330000</speed>
</trkpt>
<trkpt lat="56.002388" lon="26.397034">
<ele>113.206116</ele>
<time>2010-08-29T16:50:57Z</time>
<desc>lat.=56.002388, lon.=26.397034, Alt.=113.206116m. Speed=20.195999m/h.</desc>
<speed>5.610000</speed>
</trkpt>
<trkpt lat="56.002346" lon="26.397093">
<ele>113.456116</ele>
<time>2010-08-29T16:50:58Z</time>
<desc>lat.=56.002346, lon.=26.397093, Alt.=113.456116m. Speed=20.124001m/h.</desc>
<speed>5.590000</speed>
</trkpt>
<trkpt lat="56.002304" lon="26.397142">
<ele>113.245178</ele>
<time>2010-08-29T16:50:59Z</time>
<desc>lat.=56.002304, lon.=26.397142, Alt.=113.245178m. Speed=19.440001m/h.</desc>
<speed>5.400000</speed>
</trkpt>
<trkpt lat="56.002262" lon="26.397200">
<ele>113.124084</ele>
<time>2010-08-29T16:51:00Z</time>
<desc>lat.=56.002262, lon.=26.397200, Alt.=113.124084m. Speed=18.792000m/h.</desc>
<speed>5.220000</speed>
</trkpt>
<trkpt lat="56.002224" lon="26.397247">
<ele>113.059631</ele>
<time>2010-08-29T16:51:01Z</time>
<desc>lat.=56.002224, lon.=26.397247, Alt.=113.059631m. Speed=18.360001m/h.</desc>
<speed>5.100000</speed>
</trkpt>
<trkpt lat="56.002186" lon="26.397293">
<ele>113.338928</ele>
<time>2010-08-29T16:51:02Z</time>
<desc>lat.=56.002186, lon.=26.397293, Alt.=113.338928m. Speed=17.964001m/h.</desc>
<speed>4.990000</speed>
</trkpt>
<trkpt lat="56.002144" lon="26.397331">
<ele>113.563538</ele>
<time>2010-08-29T16:51:03Z</time>
<desc>lat.=56.002144, lon.=26.397331, Alt.=113.563538m. Speed=17.532000m/h.</desc>
<speed>4.870000</speed>
</trkpt>
<trkpt lat="56.002106" lon="26.397367">
<ele>113.307678</ele>
<time>2010-08-29T16:51:04Z</time>
<desc>lat.=56.002106, lon.=26.397367, Alt.=113.307678m. Speed=17.136000m/h.</desc>
<speed>4.760000</speed>
</trkpt>
<trkpt lat="56.002071" lon="26.397409">
<ele>113.350647</ele>
<time>2010-08-29T16:51:05Z</time>
<desc>lat.=56.002071, lon.=26.397409, Alt.=113.350647m. Speed=16.740000m/h.</desc>
<speed>4.650000</speed>
</trkpt>
<trkpt lat="56.002029" lon="26.397434">
<ele>113.415100</ele>
<time>2010-08-29T16:51:06Z</time>
<desc>lat.=56.002029, lon.=26.397434, Alt.=113.415100m. Speed=16.308001m/h.</desc>
<speed>4.530000</speed>
</trkpt>
<trkpt lat="56.001995" lon="26.397465">
<ele>113.294006</ele>
<time>2010-08-29T16:51:07Z</time>
<desc>lat.=56.001995, lon.=26.397465, Alt.=113.294006m. Speed=15.552000m/h.</desc>
<speed>4.320000</speed>
</trkpt>
<trkpt lat="56.001965" lon="26.397499">
<ele>113.592834</ele>
<time>2010-08-29T16:51:08Z</time>
<desc>lat.=56.001965, lon.=26.397499, Alt.=113.592834m. Speed=15.084000m/h.</desc>
<speed>4.190000</speed>
</trkpt>
<trkpt lat="56.001934" lon="26.397535">
<ele>113.592834</ele>
<time>2010-08-29T16:51:09Z</time>
<desc>lat.=56.001934, lon.=26.397535, Alt.=113.592834m. Speed=14.616000m/h.</desc>
<speed>4.060000</speed>
</trkpt>
<trkpt lat="56.001904" lon="26.397566">
<ele>113.389709</ele>
<time>2010-08-29T16:51:10Z</time>
<desc>lat.=56.001904, lon.=26.397566, Alt.=113.389709m. Speed=14.112000m/h.</desc>
<speed>3.920000</speed>
</trkpt>
<trkpt lat="56.001873" lon="26.397600">
<ele>113.254944</ele>
<time>2010-08-29T16:51:11Z</time>
<desc>lat.=56.001873, lon.=26.397600, Alt.=113.254944m. Speed=13.716000m/h.</desc>
<speed>3.810000</speed>
</trkpt>
<trkpt lat="56.001842" lon="26.397631">
<ele>113.118225</ele>
<time>2010-08-29T16:51:12Z</time>
<desc>lat.=56.001842, lon.=26.397631, Alt.=113.118225m. Speed=13.392000m/h.</desc>
<speed>3.720000</speed>
</trkpt>
<trkpt lat="56.001820" lon="26.397661">
<ele>113.059631</ele>
<time>2010-08-29T16:51:13Z</time>
<desc>lat.=56.001820, lon.=26.397661, Alt.=113.059631m. Speed=13.032000m/h.</desc>
<speed>3.620000</speed>
</trkpt>
<trkpt lat="56.001789" lon="26.397692">
<ele>112.938538</ele>
<time>2010-08-29T16:51:14Z</time>
<desc>lat.=56.001789, lon.=26.397692, Alt.=112.938538m. Speed=12.636000m/h.</desc>
<speed>3.510000</speed>
</trkpt>
<trkpt lat="56.001766" lon="26.397720">
<ele>112.713928</ele>
<time>2010-08-29T16:51:15Z</time>
<desc>lat.=56.001766, lon.=26.397720, Alt.=112.713928m. Speed=12.204000m/h.</desc>
<speed>3.390000</speed>
</trkpt>
<trkpt lat="56.001740" lon="26.397747">
<ele>112.471741</ele>
<time>2010-08-29T16:51:16Z</time>
<desc>lat.=56.001740, lon.=26.397747, Alt.=112.471741m. Speed=11.700000m/h.</desc>
<speed>3.250000</speed>
</trkpt>
<trkpt lat="56.001713" lon="26.397776">
<ele>112.510803</ele>
<time>2010-08-29T16:51:17Z</time>
<desc>lat.=56.001713, lon.=26.397776, Alt.=112.510803m. Speed=12.240000m/h.</desc>
<speed>3.400000</speed>
</trkpt>
<trkpt lat="56.001686" lon="26.397808">
<ele>112.860413</ele>
<time>2010-08-29T16:51:18Z</time>
<desc>lat.=56.001686, lon.=26.397808, Alt.=112.860413m. Speed=14.328000m/h.</desc>
<speed>3.980000</speed>
</trkpt>
<trkpt lat="56.001663" lon="26.397852">
<ele>112.991272</ele>
<time>2010-08-29T16:51:19Z</time>
<desc>lat.=56.001663, lon.=26.397852, Alt.=112.991272m. Speed=13.860000m/h.</desc>
<speed>3.850000</speed>
</trkpt>
<trkpt lat="56.001640" lon="26.397896">
<ele>112.817444</ele>
<time>2010-08-29T16:51:20Z</time>
<desc>lat.=56.001640, lon.=26.397896, Alt.=112.817444m. Speed=15.228000m/h.</desc>
<speed>4.230000</speed>
</trkpt>
<trkpt lat="56.001614" lon="26.397943">
<ele>112.809631</ele>
<time>2010-08-29T16:51:21Z</time>
<desc>lat.=56.001614, lon.=26.397943, Alt.=112.809631m. Speed=16.200001m/h.</desc>
<speed>4.500000</speed>
</trkpt>
<trkpt lat="56.001583" lon="26.397985">
<ele>112.758850</ele>
<time>2010-08-29T16:51:22Z</time>
<desc>lat.=56.001583, lon.=26.397985, Alt.=112.758850m. Speed=16.379999m/h.</desc>
<speed>4.550000</speed>
</trkpt>
<trkpt lat="56.001549" lon="26.398026">
<ele>112.747131</ele>
<time>2010-08-29T16:51:23Z</time>
<desc>lat.=56.001549, lon.=26.398026, Alt.=112.747131m. Speed=16.524000m/h.</desc>
<speed>4.590000</speed>
</trkpt>
<trkpt lat="56.001518" lon="26.398062">
<ele>112.723694</ele>
<time>2010-08-29T16:51:24Z</time>
<desc>lat.=56.001518, lon.=26.398062, Alt.=112.723694m. Speed=15.264000m/h.</desc>
<speed>4.240000</speed>
</trkpt>
<trkpt lat="56.001484" lon="26.398092">
<ele>112.532288</ele>
<time>2010-08-29T16:51:25Z</time>
<desc>lat.=56.001484, lon.=26.398092, Alt.=112.532288m. Speed=15.408000m/h.</desc>
<speed>4.280000</speed>
</trkpt>
<trkpt lat="56.001450" lon="26.398125">
<ele>112.481506</ele>
<time>2010-08-29T16:51:26Z</time>
<desc>lat.=56.001450, lon.=26.398125, Alt.=112.481506m. Speed=15.084000m/h.</desc>
<speed>4.190000</speed>
</trkpt>
<trkpt lat="56.001419" lon="26.398155">
<ele>112.506897</ele>
<time>2010-08-29T16:51:27Z</time>
<desc>lat.=56.001419, lon.=26.398155, Alt.=112.506897m. Speed=14.940000m/h.</desc>
<speed>4.150000</speed>
</trkpt>
<trkpt lat="56.001385" lon="26.398184">
<ele>112.428772</ele>
<time>2010-08-29T16:51:28Z</time>
<desc>lat.=56.001385, lon.=26.398184, Alt.=112.428772m. Speed=14.508000m/h.</desc>
<speed>4.030000</speed>
</trkpt>
<trkpt lat="56.001350" lon="26.398212">
<ele>112.450256</ele>
<time>2010-08-29T16:51:29Z</time>
<desc>lat.=56.001350, lon.=26.398212, Alt.=112.450256m. Speed=14.328000m/h.</desc>
<speed>3.980000</speed>
</trkpt>
<trkpt lat="56.001320" lon="26.398245">
<ele>112.547913</ele>
<time>2010-08-29T16:51:30Z</time>
<desc>lat.=56.001320, lon.=26.398245, Alt.=112.547913m. Speed=14.004000m/h.</desc>
<speed>3.890000</speed>
</trkpt>
<trkpt lat="56.001297" lon="26.398285">
<ele>112.204163</ele>
<time>2010-08-29T16:51:31Z</time>
<desc>lat.=56.001297, lon.=26.398285, Alt.=112.204163m. Speed=14.112000m/h.</desc>
<speed>3.920000</speed>
</trkpt>
<trkpt lat="56.001266" lon="26.398321">
<ele>111.973694</ele>
<time>2010-08-29T16:51:32Z</time>
<desc>lat.=56.001266, lon.=26.398321, Alt.=111.973694m. Speed=14.364000m/h.</desc>
<speed>3.990000</speed>
</trkpt>
<trkpt lat="56.001236" lon="26.398359">
<ele>111.766663</ele>
<time>2010-08-29T16:51:33Z</time>
<desc>lat.=56.001236, lon.=26.398359, Alt.=111.766663m. Speed=15.264000m/h.</desc>
<speed>4.240000</speed>
</trkpt>
<trkpt lat="56.001205" lon="26.398403">
<ele>111.526428</ele>
<time>2010-08-29T16:51:34Z</time>
<desc>lat.=56.001205, lon.=26.398403, Alt.=111.526428m. Speed=16.236000m/h.</desc>
<speed>4.510000</speed>
</trkpt>
<trkpt lat="56.001171" lon="26.398445">
<ele>111.292053</ele>
<time>2010-08-29T16:51:35Z</time>
<desc>lat.=56.001171, lon.=26.398445, Alt.=111.292053m. Speed=16.559999m/h.</desc>
<speed>4.600000</speed>
</trkpt>
<trkpt lat="56.001137" lon="26.398489">
<ele>111.153381</ele>
<time>2010-08-29T16:51:36Z</time>
<desc>lat.=56.001137, lon.=26.398489, Alt.=111.153381m. Speed=17.100000m/h.</desc>
<speed>4.750000</speed>
</trkpt>
<trkpt lat="56.001102" lon="26.398539">
<ele>111.165100</ele>
<time>2010-08-29T16:51:37Z</time>
<desc>lat.=56.001102, lon.=26.398539, Alt.=111.165100m. Speed=17.820000m/h.</desc>
<speed>4.950000</speed>
</trkpt>
<trkpt lat="56.001064" lon="26.398586">
<ele>111.444397</ele>
<time>2010-08-29T16:51:38Z</time>
<desc>lat.=56.001064, lon.=26.398586, Alt.=111.444397m. Speed=18.540001m/h.</desc>
<speed>5.150000</speed>
</trkpt>
<trkpt lat="56.001026" lon="26.398636">
<ele>111.588928</ele>
<time>2010-08-29T16:51:39Z</time>
<desc>lat.=56.001026, lon.=26.398636, Alt.=111.588928m. Speed=18.684000m/h.</desc>
<speed>5.190000</speed>
</trkpt>
<trkpt lat="56.000988" lon="26.398680">
<ele>111.501038</ele>
<time>2010-08-29T16:51:40Z</time>
<desc>lat.=56.000988, lon.=26.398680, Alt.=111.501038m. Speed=18.180000m/h.</desc>
<speed>5.050000</speed>
</trkpt>
<trkpt lat="56.000950" lon="26.398729">
<ele>111.590881</ele>
<time>2010-08-29T16:51:41Z</time>
<desc>lat.=56.000950, lon.=26.398729, Alt.=111.590881m. Speed=17.856001m/h.</desc>
<speed>4.960000</speed>
</trkpt>
<trkpt lat="56.000916" lon="26.398775">
<ele>111.913147</ele>
<time>2010-08-29T16:51:42Z</time>
<desc>lat.=56.000916, lon.=26.398775, Alt.=111.913147m. Speed=17.712000m/h.</desc>
<speed>4.920000</speed>
</trkpt>
<trkpt lat="56.000877" lon="26.398819">
<ele>111.751038</ele>
<time>2010-08-29T16:51:43Z</time>
<desc>lat.=56.000877, lon.=26.398819, Alt.=111.751038m. Speed=18.035999m/h.</desc>
<speed>5.010000</speed>
</trkpt>
<trkpt lat="56.000839" lon="26.398869">
<ele>111.838928</ele>
<time>2010-08-29T16:51:44Z</time>
<desc>lat.=56.000839, lon.=26.398869, Alt.=111.838928m. Speed=18.756001m/h.</desc>
<speed>5.210000</speed>
</trkpt>
<trkpt lat="56.000801" lon="26.398912">
<ele>111.946350</ele>
<time>2010-08-29T16:51:45Z</time>
<desc>lat.=56.000801, lon.=26.398912, Alt.=111.946350m. Speed=19.548000m/h.</desc>
<speed>5.430000</speed>
</trkpt>
<trkpt lat="56.000759" lon="26.398954">
<ele>112.049866</ele>
<time>2010-08-29T16:51:46Z</time>
<desc>lat.=56.000759, lon.=26.398954, Alt.=112.049866m. Speed=18.684000m/h.</desc>
<speed>5.190000</speed>
</trkpt>
<trkpt lat="56.000721" lon="26.399000">
<ele>112.038147</ele>
<time>2010-08-29T16:51:47Z</time>
<desc>lat.=56.000721, lon.=26.399000, Alt.=112.038147m. Speed=18.684000m/h.</desc>
<speed>5.190000</speed>
</trkpt>
<trkpt lat="56.000679" lon="26.399044">
<ele>111.967834</ele>
<time>2010-08-29T16:51:48Z</time>
<desc>lat.=56.000679, lon.=26.399044, Alt.=111.967834m. Speed=18.540001m/h.</desc>
<speed>5.150000</speed>
</trkpt>
<trkpt lat="56.000637" lon="26.399080">
<ele>112.016663</ele>
<time>2010-08-29T16:51:49Z</time>
<desc>lat.=56.000637, lon.=26.399080, Alt.=112.016663m. Speed=18.360001m/h.</desc>
<speed>5.100000</speed>
</trkpt>
<trkpt lat="56.000595" lon="26.399113">
<ele>111.958069</ele>
<time>2010-08-29T16:51:50Z</time>
<desc>lat.=56.000595, lon.=26.399113, Alt.=111.958069m. Speed=18.252001m/h.</desc>
<speed>5.070000</speed>
</trkpt>
<trkpt lat="56.000557" lon="26.399151">
<ele>112.073303</ele>
<time>2010-08-29T16:51:51Z</time>
<desc>lat.=56.000557, lon.=26.399151, Alt.=112.073303m. Speed=18.576000m/h.</desc>
<speed>5.160000</speed>
</trkpt>
<trkpt lat="56.000519" lon="26.399206">
<ele>112.219788</ele>
<time>2010-08-29T16:51:52Z</time>
<desc>lat.=56.000519, lon.=26.399206, Alt.=112.219788m. Speed=19.511999m/h.</desc>
<speed>5.420000</speed>
</trkpt>
<trkpt lat="56.000484" lon="26.399258">
<ele>111.897522</ele>
<time>2010-08-29T16:51:53Z</time>
<desc>lat.=56.000484, lon.=26.399258, Alt.=111.897522m. Speed=18.648001m/h.</desc>
<speed>5.180000</speed>
</trkpt>
<trkpt lat="56.000450" lon="26.399313">
<ele>111.856506</ele>
<time>2010-08-29T16:51:54Z</time>
<desc>lat.=56.000450, lon.=26.399313, Alt.=111.856506m. Speed=17.927999m/h.</desc>
<speed>4.980000</speed>
</trkpt>
<trkpt lat="56.000420" lon="26.399363">
<ele>111.928772</ele>
<time>2010-08-29T16:51:55Z</time>
<desc>lat.=56.000420, lon.=26.399363, Alt.=111.928772m. Speed=17.063999m/h.</desc>
<speed>4.740000</speed>
</trkpt>
<trkpt lat="56.000385" lon="26.399403">
<ele>112.010803</ele>
<time>2010-08-29T16:51:56Z</time>
<desc>lat.=56.000385, lon.=26.399403, Alt.=112.010803m. Speed=16.524000m/h.</desc>
<speed>4.590000</speed>
</trkpt>
<trkpt lat="56.000351" lon="26.399437">
<ele>112.096741</ele>
<time>2010-08-29T16:51:57Z</time>
<desc>lat.=56.000351, lon.=26.399437, Alt.=112.096741m. Speed=16.128000m/h.</desc>
<speed>4.480000</speed>
</trkpt>
<trkpt lat="56.000317" lon="26.399466">
<ele>113.055725</ele>
<time>2010-08-29T16:51:58Z</time>
<desc>lat.=56.000317, lon.=26.399466, Alt.=113.055725m. Speed=17.100000m/h.</desc>
<speed>4.750000</speed>
</trkpt>
<trkpt lat="56.000278" lon="26.399496">
<ele>113.182678</ele>
<time>2010-08-29T16:51:59Z</time>
<desc>lat.=56.000278, lon.=26.399496, Alt.=113.182678m. Speed=15.120000m/h.</desc>
<speed>4.200000</speed>
</trkpt>
<trkpt lat="56.000244" lon="26.399532">
<ele>113.071350</ele>
<time>2010-08-29T16:52:00Z</time>
<desc>lat.=56.000244, lon.=26.399532, Alt.=113.071350m. Speed=16.091999m/h.</desc>
<speed>4.470000</speed>
</trkpt>
<trkpt lat="56.000206" lon="26.399565">
<ele>112.669006</ele>
<time>2010-08-29T16:52:01Z</time>
<desc>lat.=56.000206, lon.=26.399565, Alt.=112.669006m. Speed=15.948000m/h.</desc>
<speed>4.430000</speed>
</trkpt>
<trkpt lat="56.000175" lon="26.399605">
<ele>112.690491</ele>
<time>2010-08-29T16:52:02Z</time>
<desc>lat.=56.000175, lon.=26.399605, Alt.=112.690491m. Speed=15.732000m/h.</desc>
<speed>4.370000</speed>
</trkpt>
<trkpt lat="56.000141" lon="26.399643">
<ele>112.670959</ele>
<time>2010-08-29T16:52:03Z</time>
<desc>lat.=56.000141, lon.=26.399643, Alt.=112.670959m. Speed=15.408000m/h.</desc>
<speed>4.280000</speed>
</trkpt>
<trkpt lat="56.000111" lon="26.399683">
<ele>112.674866</ele>
<time>2010-08-29T16:52:04Z</time>
<desc>lat.=56.000111, lon.=26.399683, Alt.=112.674866m. Speed=14.940000m/h.</desc>
<speed>4.150000</speed>
</trkpt>
<trkpt lat="56.000080" lon="26.399729">
<ele>112.821350</ele>
<time>2010-08-29T16:52:05Z</time>
<desc>lat.=56.000080, lon.=26.399729, Alt.=112.821350m. Speed=14.760000m/h.</desc>
<speed>4.100000</speed>
</trkpt>
<trkpt lat="56.000050" lon="26.399771">
<ele>112.592834</ele>
<time>2010-08-29T16:52:06Z</time>
<desc>lat.=56.000050, lon.=26.399771, Alt.=112.592834m. Speed=14.616000m/h.</desc>
<speed>4.060000</speed>
</trkpt>
<trkpt lat="56.000023" lon="26.399815">
<ele>112.458069</ele>
<time>2010-08-29T16:52:07Z</time>
<desc>lat.=56.000023, lon.=26.399815, Alt.=112.458069m. Speed=14.364000m/h.</desc>
<speed>3.990000</speed>
</trkpt>
<trkpt lat="55.999996" lon="26.399857">
<ele>112.299866</ele>
<time>2010-08-29T16:52:08Z</time>
<desc>lat.=55.999996, lon.=26.399857, Alt.=112.299866m. Speed=13.896000m/h.</desc>
<speed>3.860000</speed>
</trkpt>
<trkpt lat="55.999969" lon="26.399899">
<ele>112.458069</ele>
<time>2010-08-29T16:52:09Z</time>
<desc>lat.=55.999969, lon.=26.399899, Alt.=112.458069m. Speed=13.392000m/h.</desc>
<speed>3.720000</speed>
</trkpt>
<trkpt lat="55.999939" lon="26.399933">
<ele>112.436584</ele>
<time>2010-08-29T16:52:10Z</time>
<desc>lat.=55.999939, lon.=26.399933, Alt.=112.436584m. Speed=13.212000m/h.</desc>
<speed>3.670000</speed>
</trkpt>
<trkpt lat="55.999912" lon="26.399969">
<ele>112.489319</ele>
<time>2010-08-29T16:52:11Z</time>
<desc>lat.=55.999912, lon.=26.399969, Alt.=112.489319m. Speed=14.220000m/h.</desc>
<speed>3.950000</speed>
</trkpt>
<trkpt lat="55.999886" lon="26.400007">
<ele>112.669006</ele>
<time>2010-08-29T16:52:12Z</time>
<desc>lat.=55.999886, lon.=26.400007, Alt.=112.669006m. Speed=12.708000m/h.</desc>
<speed>3.530000</speed>
</trkpt>
<trkpt lat="55.999863" lon="26.400040">
<ele>112.680725</ele>
<time>2010-08-29T16:52:13Z</time>
<desc>lat.=55.999863, lon.=26.400040, Alt.=112.680725m. Speed=12.204000m/h.</desc>
<speed>3.390000</speed>
</trkpt>
<trkpt lat="55.999836" lon="26.400064">
<ele>112.243225</ele>
<time>2010-08-29T16:52:14Z</time>
<desc>lat.=55.999836, lon.=26.400064, Alt.=112.243225m. Speed=11.304000m/h.</desc>
<speed>3.140000</speed>
</trkpt>
<trkpt lat="55.999813" lon="26.400099">
<ele>111.823303</ele>
<time>2010-08-29T16:52:15Z</time>
<desc>lat.=55.999813, lon.=26.400099, Alt.=111.823303m. Speed=13.032000m/h.</desc>
<speed>3.620000</speed>
</trkpt>
<trkpt lat="55.999790" lon="26.400137">
<ele>111.856506</ele>
<time>2010-08-29T16:52:16Z</time>
<desc>lat.=55.999790, lon.=26.400137, Alt.=111.856506m. Speed=12.492000m/h.</desc>
<speed>3.470000</speed>
</trkpt>
<trkpt lat="55.999767" lon="26.400169">
<ele>111.772522</ele>
<time>2010-08-29T16:52:17Z</time>
<desc>lat.=55.999767, lon.=26.400169, Alt.=111.772522m. Speed=12.168000m/h.</desc>
<speed>3.380000</speed>
</trkpt>
<trkpt lat="55.999741" lon="26.400204">
<ele>111.899475</ele>
<time>2010-08-29T16:52:18Z</time>
<desc>lat.=55.999741, lon.=26.400204, Alt.=111.899475m. Speed=12.168000m/h.</desc>
<speed>3.380000</speed>
</trkpt>
<trkpt lat="55.999718" lon="26.400234">
<ele>111.940491</ele>
<time>2010-08-29T16:52:19Z</time>
<desc>lat.=55.999718, lon.=26.400234, Alt.=111.940491m. Speed=11.988000m/h.</desc>
<speed>3.330000</speed>
</trkpt>
<trkpt lat="55.999695" lon="26.400263">
<ele>111.881897</ele>
<time>2010-08-29T16:52:20Z</time>
<desc>lat.=55.999695, lon.=26.400263, Alt.=111.881897m. Speed=11.628000m/h.</desc>
<speed>3.230000</speed>
</trkpt>
<trkpt lat="55.999668" lon="26.400293">
<ele>111.702209</ele>
<time>2010-08-29T16:52:21Z</time>
<desc>lat.=55.999668, lon.=26.400293, Alt.=111.702209m. Speed=11.520000m/h.</desc>
<speed>3.200000</speed>
</trkpt>
<trkpt lat="55.999645" lon="26.400322">
<ele>111.669006</ele>
<time>2010-08-29T16:52:22Z</time>
<desc>lat.=55.999645, lon.=26.400322, Alt.=111.669006m. Speed=11.376000m/h.</desc>
<speed>3.160000</speed>
</trkpt>
<trkpt lat="55.999626" lon="26.400352">
<ele>111.944397</ele>
<time>2010-08-29T16:52:23Z</time>
<desc>lat.=55.999626, lon.=26.400352, Alt.=111.944397m. Speed=11.196000m/h.</desc>
<speed>3.110000</speed>
</trkpt>
<trkpt lat="55.999603" lon="26.400385">
<ele>111.805725</ele>
<time>2010-08-29T16:52:24Z</time>
<desc>lat.=55.999603, lon.=26.400385, Alt.=111.805725m. Speed=11.088000m/h.</desc>
<speed>3.080000</speed>
</trkpt>
<trkpt lat="55.999580" lon="26.400408">
<ele>111.627991</ele>
<time>2010-08-29T16:52:25Z</time>
<desc>lat.=55.999580, lon.=26.400408, Alt.=111.627991m. Speed=10.836000m/h.</desc>
<speed>3.010000</speed>
</trkpt>
<trkpt lat="55.999557" lon="26.400434">
<ele>111.672913</ele>
<time>2010-08-29T16:52:26Z</time>
<desc>lat.=55.999557, lon.=26.400434, Alt.=111.672913m. Speed=10.584000m/h.</desc>
<speed>2.940000</speed>
</trkpt>
<trkpt lat="55.999538" lon="26.400465">
<ele>111.360413</ele>
<time>2010-08-29T16:52:27Z</time>
<desc>lat.=55.999538, lon.=26.400465, Alt.=111.360413m. Speed=10.404000m/h.</desc>
<speed>2.890000</speed>
</trkpt>
<trkpt lat="55.999516" lon="26.400488">
<ele>111.342834</ele>
<time>2010-08-29T16:52:28Z</time>
<desc>lat.=55.999516, lon.=26.400488, Alt.=111.342834m. Speed=10.476000m/h.</desc>
<speed>2.910000</speed>
</trkpt>
<trkpt lat="55.999493" lon="26.400507">
<ele>111.342834</ele>
<time>2010-08-29T16:52:29Z</time>
<desc>lat.=55.999493, lon.=26.400507, Alt.=111.342834m. Speed=10.476000m/h.</desc>
<speed>2.910000</speed>
</trkpt>
<trkpt lat="55.999474" lon="26.400534">
<ele>111.073303</ele>
<time>2010-08-29T16:52:30Z</time>
<desc>lat.=55.999474, lon.=26.400534, Alt.=111.073303m. Speed=10.440000m/h.</desc>
<speed>2.900000</speed>
</trkpt>
<trkpt lat="55.999451" lon="26.400558">
<ele>111.002991</ele>
<time>2010-08-29T16:52:31Z</time>
<desc>lat.=55.999451, lon.=26.400558, Alt.=111.002991m. Speed=10.368000m/h.</desc>
<speed>2.880000</speed>
</trkpt>
<trkpt lat="55.999428" lon="26.400589">
<ele>110.987366</ele>
<time>2010-08-29T16:52:32Z</time>
<desc>lat.=55.999428, lon.=26.400589, Alt.=110.987366m. Speed=10.584000m/h.</desc>
<speed>2.940000</speed>
</trkpt>
<trkpt lat="55.999413" lon="26.400623">
<ele>110.950256</ele>
<time>2010-08-29T16:52:33Z</time>
<desc>lat.=55.999413, lon.=26.400623, Alt.=110.950256m. Speed=9.972000m/h.</desc>
<speed>2.770000</speed>
</trkpt>
<trkpt lat="55.999397" lon="26.400658">
<ele>111.020569</ele>
<time>2010-08-29T16:52:34Z</time>
<desc>lat.=55.999397, lon.=26.400658, Alt.=111.020569m. Speed=9.504000m/h.</desc>
<speed>2.640000</speed>
</trkpt>
<trkpt lat="55.999378" lon="26.400684">
<ele>111.348694</ele>
<time>2010-08-29T16:52:35Z</time>
<desc>lat.=55.999378, lon.=26.400684, Alt.=111.348694m. Speed=9.288000m/h.</desc>
<speed>2.580000</speed>
</trkpt>
<trkpt lat="55.999359" lon="26.400711">
<ele>111.444397</ele>
<time>2010-08-29T16:52:36Z</time>
<desc>lat.=55.999359, lon.=26.400711, Alt.=111.444397m. Speed=10.332000m/h.</desc>
<speed>2.870000</speed>
</trkpt>
<trkpt lat="55.999340" lon="26.400734">
<ele>111.409241</ele>
<time>2010-08-29T16:52:37Z</time>
<desc>lat.=55.999340, lon.=26.400734, Alt.=111.409241m. Speed=9.468000m/h.</desc>
<speed>2.630000</speed>
</trkpt>
<trkpt lat="55.999321" lon="26.400757">
<ele>111.401428</ele>
<time>2010-08-29T16:52:38Z</time>
<desc>lat.=55.999321, lon.=26.400757, Alt.=111.401428m. Speed=9.684000m/h.</desc>
<speed>2.690000</speed>
</trkpt>
<trkpt lat="55.999306" lon="26.400784">
<ele>111.409241</ele>
<time>2010-08-29T16:52:39Z</time>
<desc>lat.=55.999306, lon.=26.400784, Alt.=111.409241m. Speed=9.576000m/h.</desc>
<speed>2.660000</speed>
</trkpt>
<trkpt lat="55.999290" lon="26.400816">
<ele>111.477600</ele>
<time>2010-08-29T16:52:40Z</time>
<desc>lat.=55.999290, lon.=26.400816, Alt.=111.477600m. Speed=9.468000m/h.</desc>
<speed>2.630000</speed>
</trkpt>
<trkpt lat="55.999275" lon="26.400845">
<ele>111.618225</ele>
<time>2010-08-29T16:52:41Z</time>
<desc>lat.=55.999275, lon.=26.400845, Alt.=111.618225m. Speed=9.396000m/h.</desc>
<speed>2.610000</speed>
</trkpt>
<trkpt lat="55.999256" lon="26.400867">
<ele>111.629944</ele>
<time>2010-08-29T16:52:42Z</time>
<desc>lat.=55.999256, lon.=26.400867, Alt.=111.629944m. Speed=9.396000m/h.</desc>
<speed>2.610000</speed>
</trkpt>
<trkpt lat="55.999233" lon="26.400890">
<ele>111.754944</ele>
<time>2010-08-29T16:52:43Z</time>
<desc>lat.=55.999233, lon.=26.400890, Alt.=111.754944m. Speed=9.504000m/h.</desc>
<speed>2.640000</speed>
</trkpt>
<trkpt lat="55.999210" lon="26.400908">
<ele>111.698303</ele>
<time>2010-08-29T16:52:44Z</time>
<desc>lat.=55.999210, lon.=26.400908, Alt.=111.698303m. Speed=9.468000m/h.</desc>
<speed>2.630000</speed>
</trkpt>
<trkpt lat="55.999191" lon="26.400928">
<ele>111.571350</ele>
<time>2010-08-29T16:52:45Z</time>
<desc>lat.=55.999191, lon.=26.400928, Alt.=111.571350m. Speed=9.324000m/h.</desc>
<speed>2.590000</speed>
</trkpt>
<trkpt lat="55.999172" lon="26.400953">
<ele>111.544006</ele>
<time>2010-08-29T16:52:46Z</time>
<desc>lat.=55.999172, lon.=26.400953, Alt.=111.544006m. Speed=9.504000m/h.</desc>
<speed>2.640000</speed>
</trkpt>
<trkpt lat="55.999153" lon="26.400978">
<ele>111.358459</ele>
<time>2010-08-29T16:52:47Z</time>
<desc>lat.=55.999153, lon.=26.400978, Alt.=111.358459m. Speed=9.468000m/h.</desc>
<speed>2.630000</speed>
</trkpt>
<trkpt lat="55.999134" lon="26.401003">
<ele>111.309631</ele>
<time>2010-08-29T16:52:48Z</time>
<desc>lat.=55.999134, lon.=26.401003, Alt.=111.309631m. Speed=9.396000m/h.</desc>
<speed>2.610000</speed>
</trkpt>
<trkpt lat="55.999115" lon="26.401024">
<ele>111.229553</ele>
<time>2010-08-29T16:52:49Z</time>
<desc>lat.=55.999115, lon.=26.401024, Alt.=111.229553m. Speed=9.396000m/h.</desc>
<speed>2.610000</speed>
</trkpt>
<trkpt lat="55.999096" lon="26.401043">
<ele>111.190491</ele>
<time>2010-08-29T16:52:50Z</time>
<desc>lat.=55.999096, lon.=26.401043, Alt.=111.190491m. Speed=9.468000m/h.</desc>
<speed>2.630000</speed>
</trkpt>
<trkpt lat="55.999077" lon="26.401062">
<ele>111.145569</ele>
<time>2010-08-29T16:52:51Z</time>
<desc>lat.=55.999077, lon.=26.401062, Alt.=111.145569m. Speed=9.468000m/h.</desc>
<speed>2.630000</speed>
</trkpt>
<trkpt lat="55.999058" lon="26.401083">
<ele>111.051819</ele>
<time>2010-08-29T16:52:52Z</time>
<desc>lat.=55.999058, lon.=26.401083, Alt.=111.051819m. Speed=9.540000m/h.</desc>
<speed>2.650000</speed>
</trkpt>
<trkpt lat="55.999035" lon="26.401110">
<ele>110.979553</ele>
<time>2010-08-29T16:52:53Z</time>
<desc>lat.=55.999035, lon.=26.401110, Alt.=110.979553m. Speed=9.468000m/h.</desc>
<speed>2.630000</speed>
</trkpt>
<trkpt lat="55.999020" lon="26.401136">
<ele>110.985413</ele>
<time>2010-08-29T16:52:54Z</time>
<desc>lat.=55.999020, lon.=26.401136, Alt.=110.985413m. Speed=9.396000m/h.</desc>
<speed>2.610000</speed>
</trkpt>
<trkpt lat="55.999001" lon="26.401165">
<ele>110.946350</ele>
<time>2010-08-29T16:52:55Z</time>
<desc>lat.=55.999001, lon.=26.401165, Alt.=110.946350m. Speed=9.468000m/h.</desc>
<speed>2.630000</speed>
</trkpt>
<trkpt lat="55.998985" lon="26.401192">
<ele>110.944397</ele>
<time>2010-08-29T16:52:56Z</time>
<desc>lat.=55.998985, lon.=26.401192, Alt.=110.944397m. Speed=9.324000m/h.</desc>
<speed>2.590000</speed>
</trkpt>
<trkpt lat="55.998966" lon="26.401213">
<ele>110.917053</ele>
<time>2010-08-29T16:52:57Z</time>
<desc>lat.=55.998966, lon.=26.401213, Alt.=110.917053m. Speed=9.216000m/h.</desc>
<speed>2.560000</speed>
</trkpt>
<trkpt lat="55.998947" lon="26.401237">
<ele>110.889709</ele>
<time>2010-08-29T16:52:58Z</time>
<desc>lat.=55.998947, lon.=26.401237, Alt.=110.889709m. Speed=9.036000m/h.</desc>
<speed>2.510000</speed>
</trkpt>
<trkpt lat="55.998928" lon="26.401266">
<ele>110.893616</ele>
<time>2010-08-29T16:52:59Z</time>
<desc>lat.=55.998928, lon.=26.401266, Alt.=110.893616m. Speed=9.000000m/h.</desc>
<speed>2.500000</speed>
</trkpt>
<trkpt lat="55.998913" lon="26.401291">
<ele>110.854553</ele>
<time>2010-08-29T16:53:00Z</time>
<desc>lat.=55.998913, lon.=26.401291, Alt.=110.854553m. Speed=8.784000m/h.</desc>
<speed>2.440000</speed>
</trkpt>
<trkpt lat="55.998894" lon="26.401312">
<ele>110.782288</ele>
<time>2010-08-29T16:53:01Z</time>
<desc>lat.=55.998894, lon.=26.401312, Alt.=110.782288m. Speed=8.748000m/h.</desc>
<speed>2.430000</speed>
</trkpt>
<trkpt lat="55.998875" lon="26.401333">
<ele>110.794006</ele>
<time>2010-08-29T16:53:02Z</time>
<desc>lat.=55.998875, lon.=26.401333, Alt.=110.794006m. Speed=8.892000m/h.</desc>
<speed>2.470000</speed>
</trkpt>
<trkpt lat="55.998856" lon="26.401348">
<ele>110.788147</ele>
<time>2010-08-29T16:53:03Z</time>
<desc>lat.=55.998856, lon.=26.401348, Alt.=110.788147m. Speed=8.928000m/h.</desc>
<speed>2.480000</speed>
</trkpt>
<trkpt lat="55.998837" lon="26.401369">
<ele>110.811584</ele>
<time>2010-08-29T16:53:04Z</time>
<desc>lat.=55.998837, lon.=26.401369, Alt.=110.811584m. Speed=9.108000m/h.</desc>
<speed>2.530000</speed>
</trkpt>
<trkpt lat="55.998814" lon="26.401392">
<ele>110.917053</ele>
<time>2010-08-29T16:53:05Z</time>
<desc>lat.=55.998814, lon.=26.401392, Alt.=110.917053m. Speed=9.036000m/h.</desc>
<speed>2.510000</speed>
</trkpt>
<trkpt lat="55.998795" lon="26.401409">
<ele>110.950256</ele>
<time>2010-08-29T16:53:06Z</time>
<desc>lat.=55.998795, lon.=26.401409, Alt.=110.950256m. Speed=9.000000m/h.</desc>
<speed>2.500000</speed>
</trkpt>
<trkpt lat="55.998772" lon="26.401426">
<ele>110.928772</ele>
<time>2010-08-29T16:53:07Z</time>
<desc>lat.=55.998772, lon.=26.401426, Alt.=110.928772m. Speed=9.216000m/h.</desc>
<speed>2.560000</speed>
</trkpt>
<trkpt lat="55.998756" lon="26.401447">
<ele>110.801819</ele>
<time>2010-08-29T16:53:08Z</time>
<desc>lat.=55.998756, lon.=26.401447, Alt.=110.801819m. Speed=9.216000m/h.</desc>
<speed>2.560000</speed>
</trkpt>
<trkpt lat="55.998741" lon="26.401470">
<ele>110.786194</ele>
<time>2010-08-29T16:53:09Z</time>
<desc>lat.=55.998741, lon.=26.401470, Alt.=110.786194m. Speed=9.360000m/h.</desc>
<speed>2.600000</speed>
</trkpt>
<trkpt lat="55.998718" lon="26.401493">
<ele>110.684631</ele>
<time>2010-08-29T16:53:10Z</time>
<desc>lat.=55.998718, lon.=26.401493, Alt.=110.684631m. Speed=9.216000m/h.</desc>
<speed>2.560000</speed>
</trkpt>
<trkpt lat="55.998703" lon="26.401518">
<ele>110.608459</ele>
<time>2010-08-29T16:53:11Z</time>
<desc>lat.=55.998703, lon.=26.401518, Alt.=110.608459m. Speed=9.108000m/h.</desc>
<speed>2.530000</speed>
</trkpt>
<trkpt lat="55.998684" lon="26.401543">
<ele>110.547913</ele>
<time>2010-08-29T16:53:12Z</time>
<desc>lat.=55.998684, lon.=26.401543, Alt.=110.547913m. Speed=9.036000m/h.</desc>
<speed>2.510000</speed>
</trkpt>
<trkpt lat="55.998665" lon="26.401567">
<ele>110.540100</ele>
<time>2010-08-29T16:53:13Z</time>
<desc>lat.=55.998665, lon.=26.401567, Alt.=110.540100m. Speed=9.036000m/h.</desc>
<speed>2.510000</speed>
</trkpt>
<trkpt lat="55.998646" lon="26.401592">
<ele>110.516663</ele>
<time>2010-08-29T16:53:14Z</time>
<desc>lat.=55.998646, lon.=26.401592, Alt.=110.516663m. Speed=9.216000m/h.</desc>
<speed>2.560000</speed>
</trkpt>
<trkpt lat="55.998627" lon="26.401615">
<ele>110.487366</ele>
<time>2010-08-29T16:53:15Z</time>
<desc>lat.=55.998627, lon.=26.401615, Alt.=110.487366m. Speed=9.288000m/h.</desc>
<speed>2.580000</speed>
</trkpt>
<trkpt lat="55.998608" lon="26.401640">
<ele>110.499084</ele>
<time>2010-08-29T16:53:16Z</time>
<desc>lat.=55.998608, lon.=26.401640, Alt.=110.499084m. Speed=9.324000m/h.</desc>
<speed>2.590000</speed>
</trkpt>
<trkpt lat="55.998589" lon="26.401663">
<ele>110.493225</ele>
<time>2010-08-29T16:53:17Z</time>
<desc>lat.=55.998589, lon.=26.401663, Alt.=110.493225m. Speed=9.360000m/h.</desc>
<speed>2.600000</speed>
</trkpt>
<trkpt lat="55.998569" lon="26.401690">
<ele>110.540100</ele>
<time>2010-08-29T16:53:18Z</time>
<desc>lat.=55.998569, lon.=26.401690, Alt.=110.540100m. Speed=9.324000m/h.</desc>
<speed>2.590000</speed>
</trkpt>
<trkpt lat="55.998550" lon="26.401712">
<ele>110.573303</ele>
<time>2010-08-29T16:53:19Z</time>
<desc>lat.=55.998550, lon.=26.401712, Alt.=110.573303m. Speed=9.252000m/h.</desc>
<speed>2.570000</speed>
</trkpt>
<trkpt lat="55.998528" lon="26.401735">
<ele>110.532288</ele>
<time>2010-08-29T16:53:20Z</time>
<desc>lat.=55.998528, lon.=26.401735, Alt.=110.532288m. Speed=9.180000m/h.</desc>
<speed>2.550000</speed>
</trkpt>
<trkpt lat="55.998512" lon="26.401760">
<ele>110.489319</ele>
<time>2010-08-29T16:53:21Z</time>
<desc>lat.=55.998512, lon.=26.401760, Alt.=110.489319m. Speed=9.288000m/h.</desc>
<speed>2.580000</speed>
</trkpt>
<trkpt lat="55.998493" lon="26.401783">
<ele>110.479553</ele>
<time>2010-08-29T16:53:22Z</time>
<desc>lat.=55.998493, lon.=26.401783, Alt.=110.479553m. Speed=9.396000m/h.</desc>
<speed>2.610000</speed>
</trkpt>
<trkpt lat="55.998474" lon="26.401802">
<ele>110.407288</ele>
<time>2010-08-29T16:53:23Z</time>
<desc>lat.=55.998474, lon.=26.401802, Alt.=110.407288m. Speed=9.468000m/h.</desc>
<speed>2.630000</speed>
</trkpt>
<trkpt lat="55.998455" lon="26.401825">
<ele>110.397522</ele>
<time>2010-08-29T16:53:24Z</time>
<desc>lat.=55.998455, lon.=26.401825, Alt.=110.397522m. Speed=9.540000m/h.</desc>
<speed>2.650000</speed>
</trkpt>
<trkpt lat="55.998436" lon="26.401846">
<ele>110.272522</ele>
<time>2010-08-29T16:53:25Z</time>
<desc>lat.=55.998436, lon.=26.401846, Alt.=110.272522m. Speed=9.684000m/h.</desc>
<speed>2.690000</speed>
</trkpt>
<trkpt lat="55.998417" lon="26.401873">
<ele>110.167053</ele>
<time>2010-08-29T16:53:26Z</time>
<desc>lat.=55.998417, lon.=26.401873, Alt.=110.167053m. Speed=9.684000m/h.</desc>
<speed>2.690000</speed>
</trkpt>
<trkpt lat="55.998398" lon="26.401901">
<ele>110.176819</ele>
<time>2010-08-29T16:53:27Z</time>
<desc>lat.=55.998398, lon.=26.401901, Alt.=110.176819m. Speed=9.720000m/h.</desc>
<speed>2.700000</speed>
</trkpt>
<trkpt lat="55.998379" lon="26.401928">
<ele>110.092834</ele>
<time>2010-08-29T16:53:28Z</time>
<desc>lat.=55.998379, lon.=26.401928, Alt.=110.092834m. Speed=9.792000m/h.</desc>
<speed>2.720000</speed>
</trkpt>
<trkpt lat="55.998356" lon="26.401957">
<ele>110.118225</ele>
<time>2010-08-29T16:53:29Z</time>
<desc>lat.=55.998356, lon.=26.401957, Alt.=110.118225m. Speed=9.900000m/h.</desc>
<speed>2.750000</speed>
</trkpt>
<trkpt lat="55.998337" lon="26.401983">
<ele>110.073303</ele>
<time>2010-08-29T16:53:30Z</time>
<desc>lat.=55.998337, lon.=26.401983, Alt.=110.073303m. Speed=10.008000m/h.</desc>
<speed>2.780000</speed>
</trkpt>
<trkpt lat="55.998318" lon="26.402010">
<ele>109.997131</ele>
<time>2010-08-29T16:53:31Z</time>
<desc>lat.=55.998318, lon.=26.402010, Alt.=109.997131m. Speed=10.080000m/h.</desc>
<speed>2.800000</speed>
</trkpt>
<trkpt lat="55.998299" lon="26.402042">
<ele>110.026428</ele>
<time>2010-08-29T16:53:32Z</time>
<desc>lat.=55.998299, lon.=26.402042, Alt.=110.026428m. Speed=10.152000m/h.</desc>
<speed>2.820000</speed>
</trkpt>
<trkpt lat="55.998280" lon="26.402071">
<ele>110.006897</ele>
<time>2010-08-29T16:53:33Z</time>
<desc>lat.=55.998280, lon.=26.402071, Alt.=110.006897m. Speed=10.188000m/h.</desc>
<speed>2.830000</speed>
</trkpt>
<trkpt lat="55.998257" lon="26.402094">
<ele>110.016663</ele>
<time>2010-08-29T16:53:34Z</time>
<desc>lat.=55.998257, lon.=26.402094, Alt.=110.016663m. Speed=10.188000m/h.</desc>
<speed>2.830000</speed>
</trkpt>
<trkpt lat="55.998234" lon="26.402119">
<ele>110.110413</ele>
<time>2010-08-29T16:53:35Z</time>
<desc>lat.=55.998234, lon.=26.402119, Alt.=110.110413m. Speed=10.296000m/h.</desc>
<speed>2.860000</speed>
</trkpt>
<trkpt lat="55.998215" lon="26.402143">
<ele>110.137756</ele>
<time>2010-08-29T16:53:36Z</time>
<desc>lat.=55.998215, lon.=26.402143, Alt.=110.137756m. Speed=10.368000m/h.</desc>
<speed>2.880000</speed>
</trkpt>
<trkpt lat="55.998192" lon="26.402168">
<ele>110.079163</ele>
<time>2010-08-29T16:53:37Z</time>
<desc>lat.=55.998192, lon.=26.402168, Alt.=110.079163m. Speed=10.404000m/h.</desc>
<speed>2.890000</speed>
</trkpt>
<trkpt lat="55.998169" lon="26.402191">
<ele>110.051819</ele>
<time>2010-08-29T16:53:38Z</time>
<desc>lat.=55.998169, lon.=26.402191, Alt.=110.051819m. Speed=10.620000m/h.</desc>
<speed>2.950000</speed>
</trkpt>
<trkpt lat="55.998146" lon="26.402214">
<ele>110.006897</ele>
<time>2010-08-29T16:53:39Z</time>
<desc>lat.=55.998146, lon.=26.402214, Alt.=110.006897m. Speed=10.800000m/h.</desc>
<speed>3.000000</speed>
</trkpt>
<trkpt lat="55.998123" lon="26.402245">
<ele>109.977600</ele>
<time>2010-08-29T16:53:40Z</time>
<desc>lat.=55.998123, lon.=26.402245, Alt.=109.977600m. Speed=10.908000m/h.</desc>
<speed>3.030000</speed>
</trkpt>
<trkpt lat="55.998104" lon="26.402275">
<ele>109.958069</ele>
<time>2010-08-29T16:53:41Z</time>
<desc>lat.=55.998104, lon.=26.402275, Alt.=109.958069m. Speed=10.980000m/h.</desc>
<speed>3.050000</speed>
</trkpt>
<trkpt lat="55.998081" lon="26.402308">
<ele>109.819397</ele>
<time>2010-08-29T16:53:42Z</time>
<desc>lat.=55.998081, lon.=26.402308, Alt.=109.819397m. Speed=10.944000m/h.</desc>
<speed>3.040000</speed>
</trkpt>
<trkpt lat="55.998058" lon="26.402338">
<ele>109.766663</ele>
<time>2010-08-29T16:53:43Z</time>
<desc>lat.=55.998058, lon.=26.402338, Alt.=109.766663m. Speed=10.944000m/h.</desc>
<speed>3.040000</speed>
</trkpt>
<trkpt lat="55.998039" lon="26.402367">
<ele>109.731506</ele>
<time>2010-08-29T16:53:44Z</time>
<desc>lat.=55.998039, lon.=26.402367, Alt.=109.731506m. Speed=11.016000m/h.</desc>
<speed>3.060000</speed>
</trkpt>
<trkpt lat="55.998016" lon="26.402397">
<ele>109.737366</ele>
<time>2010-08-29T16:53:45Z</time>
<desc>lat.=55.998016, lon.=26.402397, Alt.=109.737366m. Speed=11.052000m/h.</desc>
<speed>3.070000</speed>
</trkpt>
<trkpt lat="55.997997" lon="26.402428">
<ele>109.686584</ele>
<time>2010-08-29T16:53:46Z</time>
<desc>lat.=55.997997, lon.=26.402428, Alt.=109.686584m. Speed=11.124000m/h.</desc>
<speed>3.090000</speed>
</trkpt>
<trkpt lat="55.997974" lon="26.402456">
<ele>109.649475</ele>
<time>2010-08-29T16:53:47Z</time>
<desc>lat.=55.997974, lon.=26.402456, Alt.=109.649475m. Speed=11.124000m/h.</desc>
<speed>3.090000</speed>
</trkpt>
<trkpt lat="55.997952" lon="26.402487">
<ele>109.588928</ele>
<time>2010-08-29T16:53:48Z</time>
<desc>lat.=55.997952, lon.=26.402487, Alt.=109.588928m. Speed=11.232000m/h.</desc>
<speed>3.120000</speed>
</trkpt>
<trkpt lat="55.997925" lon="26.402512">
<ele>109.563538</ele>
<time>2010-08-29T16:53:49Z</time>
<desc>lat.=55.997925, lon.=26.402512, Alt.=109.563538m. Speed=11.412000m/h.</desc>
<speed>3.170000</speed>
</trkpt>
<trkpt lat="55.997902" lon="26.402538">
<ele>109.499084</ele>
<time>2010-08-29T16:53:50Z</time>
<desc>lat.=55.997902, lon.=26.402538, Alt.=109.499084m. Speed=11.484000m/h.</desc>
<speed>3.190000</speed>
</trkpt>
<trkpt lat="55.997879" lon="26.402569">
<ele>109.460022</ele>
<time>2010-08-29T16:53:51Z</time>
<desc>lat.=55.997879, lon.=26.402569, Alt.=109.460022m. Speed=11.592000m/h.</desc>
<speed>3.220000</speed>
</trkpt>
<trkpt lat="55.997856" lon="26.402603">
<ele>109.319397</ele>
<time>2010-08-29T16:53:52Z</time>
<desc>lat.=55.997856, lon.=26.402603, Alt.=109.319397m. Speed=11.700000m/h.</desc>
<speed>3.250000</speed>
</trkpt>
<trkpt lat="55.997833" lon="26.402637">
<ele>109.262756</ele>
<time>2010-08-29T16:53:53Z</time>
<desc>lat.=55.997833, lon.=26.402637, Alt.=109.262756m. Speed=11.664000m/h.</desc>
<speed>3.240000</speed>
</trkpt>
<trkpt lat="55.997810" lon="26.402666">
<ele>109.227600</ele>
<time>2010-08-29T16:53:54Z</time>
<desc>lat.=55.997810, lon.=26.402666, Alt.=109.227600m. Speed=11.736000m/h.</desc>
<speed>3.260000</speed>
</trkpt>
<trkpt lat="55.997784" lon="26.402695">
<ele>109.137756</ele>
<time>2010-08-29T16:53:55Z</time>
<desc>lat.=55.997784, lon.=26.402695, Alt.=109.137756m. Speed=11.916000m/h.</desc>
<speed>3.310000</speed>
</trkpt>
<trkpt lat="55.997761" lon="26.402723">
<ele>109.112366</ele>
<time>2010-08-29T16:53:56Z</time>
<desc>lat.=55.997761, lon.=26.402723, Alt.=109.112366m. Speed=12.096000m/h.</desc>
<speed>3.360000</speed>
</trkpt>
<trkpt lat="55.997734" lon="26.402756">
<ele>109.044006</ele>
<time>2010-08-29T16:53:57Z</time>
<desc>lat.=55.997734, lon.=26.402756, Alt.=109.044006m. Speed=12.240000m/h.</desc>
<speed>3.400000</speed>
</trkpt>
<trkpt lat="55.997711" lon="26.402784">
<ele>108.942444</ele>
<time>2010-08-29T16:53:58Z</time>
<desc>lat.=55.997711, lon.=26.402784, Alt.=108.942444m. Speed=12.384000m/h.</desc>
<speed>3.440000</speed>
</trkpt>
<trkpt lat="55.997684" lon="26.402815">
<ele>108.840881</ele>
<time>2010-08-29T16:53:59Z</time>
<desc>lat.=55.997684, lon.=26.402815, Alt.=108.840881m. Speed=12.492000m/h.</desc>
<speed>3.470000</speed>
</trkpt>
<trkpt lat="55.997658" lon="26.402845">
<ele>108.836975</ele>
<time>2010-08-29T16:54:00Z</time>
<desc>lat.=55.997658, lon.=26.402845, Alt.=108.836975m. Speed=12.636000m/h.</desc>
<speed>3.510000</speed>
</trkpt>
<trkpt lat="55.997631" lon="26.402876">
<ele>108.835022</ele>
<time>2010-08-29T16:54:01Z</time>
<desc>lat.=55.997631, lon.=26.402876, Alt.=108.835022m. Speed=12.708000m/h.</desc>
<speed>3.530000</speed>
</trkpt>
<trkpt lat="55.997604" lon="26.402908">
<ele>108.776428</ele>
<time>2010-08-29T16:54:02Z</time>
<desc>lat.=55.997604, lon.=26.402908, Alt.=108.776428m. Speed=12.780000m/h.</desc>
<speed>3.550000</speed>
</trkpt>
<trkpt lat="55.997581" lon="26.402945">
<ele>108.690491</ele>
<time>2010-08-29T16:54:03Z</time>
<desc>lat.=55.997581, lon.=26.402945, Alt.=108.690491m. Speed=12.816000m/h.</desc>
<speed>3.560000</speed>
</trkpt>
<trkpt lat="55.997559" lon="26.402987">
<ele>108.647522</ele>
<time>2010-08-29T16:54:04Z</time>
<desc>lat.=55.997559, lon.=26.402987, Alt.=108.647522m. Speed=12.996000m/h.</desc>
<speed>3.610000</speed>
</trkpt>
<trkpt lat="55.997532" lon="26.403021">
<ele>108.645569</ele>
<time>2010-08-29T16:54:05Z</time>
<desc>lat.=55.997532, lon.=26.403021, Alt.=108.645569m. Speed=13.104000m/h.</desc>
<speed>3.640000</speed>
</trkpt>
<trkpt lat="55.997501" lon="26.403048">
<ele>108.776428</ele>
<time>2010-08-29T16:54:06Z</time>
<desc>lat.=55.997501, lon.=26.403048, Alt.=108.776428m. Speed=13.176000m/h.</desc>
<speed>3.660000</speed>
</trkpt>
<trkpt lat="55.997471" lon="26.403074">
<ele>108.833069</ele>
<time>2010-08-29T16:54:07Z</time>
<desc>lat.=55.997471, lon.=26.403074, Alt.=108.833069m. Speed=13.428000m/h.</desc>
<speed>3.730000</speed>
</trkpt>
<trkpt lat="55.997444" lon="26.403109">
<ele>108.842834</ele>
<time>2010-08-29T16:54:08Z</time>
<desc>lat.=55.997444, lon.=26.403109, Alt.=108.842834m. Speed=13.500000m/h.</desc>
<speed>3.750000</speed>
</trkpt>
<trkpt lat="55.997421" lon="26.403149">
<ele>108.751038</ele>
<time>2010-08-29T16:54:09Z</time>
<desc>lat.=55.997421, lon.=26.403149, Alt.=108.751038m. Speed=13.500000m/h.</desc>
<speed>3.750000</speed>
</trkpt>
<trkpt lat="55.997398" lon="26.403196">
<ele>108.647522</ele>
<time>2010-08-29T16:54:10Z</time>
<desc>lat.=55.997398, lon.=26.403196, Alt.=108.647522m. Speed=13.392000m/h.</desc>
<speed>3.720000</speed>
</trkpt>
<trkpt lat="55.997375" lon="26.403238">
<ele>108.610413</ele>
<time>2010-08-29T16:54:11Z</time>
<desc>lat.=55.997375, lon.=26.403238, Alt.=108.610413m. Speed=13.392000m/h.</desc>
<speed>3.720000</speed>
</trkpt>
<trkpt lat="55.997349" lon="26.403273">
<ele>108.704163</ele>
<time>2010-08-29T16:54:12Z</time>
<desc>lat.=55.997349, lon.=26.403273, Alt.=108.704163m. Speed=13.500000m/h.</desc>
<speed>3.750000</speed>
</trkpt>
<trkpt lat="55.997318" lon="26.403303">
<ele>108.686584</ele>
<time>2010-08-29T16:54:13Z</time>
<desc>lat.=55.997318, lon.=26.403303, Alt.=108.686584m. Speed=13.752000m/h.</desc>
<speed>3.820000</speed>
</trkpt>
<trkpt lat="55.997288" lon="26.403339">
<ele>108.751038</ele>
<time>2010-08-29T16:54:14Z</time>
<desc>lat.=55.997288, lon.=26.403339, Alt.=108.751038m. Speed=13.860000m/h.</desc>
<speed>3.850000</speed>
</trkpt>
<trkpt lat="55.997261" lon="26.403374">
<ele>108.741272</ele>
<time>2010-08-29T16:54:15Z</time>
<desc>lat.=55.997261, lon.=26.403374, Alt.=108.741272m. Speed=13.788000m/h.</desc>
<speed>3.830000</speed>
</trkpt>
<trkpt lat="55.997234" lon="26.403410">
<ele>108.713928</ele>
<time>2010-08-29T16:54:16Z</time>
<desc>lat.=55.997234, lon.=26.403410, Alt.=108.713928m. Speed=13.932000m/h.</desc>
<speed>3.870000</speed>
</trkpt>
<trkpt lat="55.997204" lon="26.403446">
<ele>108.577209</ele>
<time>2010-08-29T16:54:17Z</time>
<desc>lat.=55.997204, lon.=26.403446, Alt.=108.577209m. Speed=13.968000m/h.</desc>
<speed>3.880000</speed>
</trkpt>
<trkpt lat="55.997177" lon="26.403488">
<ele>108.540100</ele>
<time>2010-08-29T16:54:18Z</time>
<desc>lat.=55.997177, lon.=26.403488, Alt.=108.540100m. Speed=14.040000m/h.</desc>
<speed>3.900000</speed>
</trkpt>
<trkpt lat="55.997147" lon="26.403528">
<ele>108.479553</ele>
<time>2010-08-29T16:54:19Z</time>
<desc>lat.=55.997147, lon.=26.403528, Alt.=108.479553m. Speed=13.968000m/h.</desc>
<speed>3.880000</speed>
</trkpt>
<trkpt lat="55.997120" lon="26.403563">
<ele>108.428772</ele>
<time>2010-08-29T16:54:20Z</time>
<desc>lat.=55.997120, lon.=26.403563, Alt.=108.428772m. Speed=14.076000m/h.</desc>
<speed>3.910000</speed>
</trkpt>
<trkpt lat="55.997093" lon="26.403601">
<ele>108.471741</ele>
<time>2010-08-29T16:54:21Z</time>
<desc>lat.=55.997093, lon.=26.403601, Alt.=108.471741m. Speed=14.184000m/h.</desc>
<speed>3.940000</speed>
</trkpt>
<trkpt lat="55.997066" lon="26.403643">
<ele>108.407288</ele>
<time>2010-08-29T16:54:22Z</time>
<desc>lat.=55.997066, lon.=26.403643, Alt.=108.407288m. Speed=14.184000m/h.</desc>
<speed>3.940000</speed>
</trkpt>
<trkpt lat="55.997040" lon="26.403685">
<ele>108.419006</ele>
<time>2010-08-29T16:54:23Z</time>
<desc>lat.=55.997040, lon.=26.403685, Alt.=108.419006m. Speed=14.364000m/h.</desc>
<speed>3.990000</speed>
</trkpt>
<trkpt lat="55.997013" lon="26.403719">
<ele>108.251038</ele>
<time>2010-08-29T16:54:24Z</time>
<desc>lat.=55.997013, lon.=26.403719, Alt.=108.251038m. Speed=12.096000m/h.</desc>
<speed>3.360000</speed>
</trkpt>
<trkpt lat="55.996979" lon="26.403744">
<ele>108.192444</ele>
<time>2010-08-29T16:54:25Z</time>
<desc>lat.=55.996979, lon.=26.403744, Alt.=108.192444m. Speed=14.544000m/h.</desc>
<speed>4.040000</speed>
</trkpt>
<trkpt lat="55.996944" lon="26.403769">
<ele>108.094788</ele>
<time>2010-08-29T16:54:26Z</time>
<desc>lat.=55.996944, lon.=26.403769, Alt.=108.094788m. Speed=14.832000m/h.</desc>
<speed>4.120000</speed>
</trkpt>
<trkpt lat="55.996910" lon="26.403799">
<ele>108.038147</ele>
<time>2010-08-29T16:54:27Z</time>
<desc>lat.=55.996910, lon.=26.403799, Alt.=108.038147m. Speed=15.012000m/h.</desc>
<speed>4.170000</speed>
</trkpt>
<trkpt lat="55.996880" lon="26.403837">
<ele>107.991272</ele>
<time>2010-08-29T16:54:28Z</time>
<desc>lat.=55.996880, lon.=26.403837, Alt.=107.991272m. Speed=15.192000m/h.</desc>
<speed>4.220000</speed>
</trkpt>
<trkpt lat="55.996853" lon="26.403883">
<ele>107.971741</ele>
<time>2010-08-29T16:54:29Z</time>
<desc>lat.=55.996853, lon.=26.403883, Alt.=107.971741m. Speed=15.192000m/h.</desc>
<speed>4.220000</speed>
</trkpt>
<trkpt lat="55.996822" lon="26.403929">
<ele>107.969788</ele>
<time>2010-08-29T16:54:30Z</time>
<desc>lat.=55.996822, lon.=26.403929, Alt.=107.969788m. Speed=15.156000m/h.</desc>
<speed>4.210000</speed>
</trkpt>
<trkpt lat="55.996796" lon="26.403971">
<ele>107.907288</ele>
<time>2010-08-29T16:54:31Z</time>
<desc>lat.=55.996796, lon.=26.403971, Alt.=107.907288m. Speed=15.228000m/h.</desc>
<speed>4.230000</speed>
</trkpt>
<trkpt lat="55.996761" lon="26.404009">
<ele>107.930725</ele>
<time>2010-08-29T16:54:32Z</time>
<desc>lat.=55.996761, lon.=26.404009, Alt.=107.930725m. Speed=14.904000m/h.</desc>
<speed>4.140000</speed>
</trkpt>
<trkpt lat="55.996727" lon="26.404043">
<ele>107.889709</ele>
<time>2010-08-29T16:54:33Z</time>
<desc>lat.=55.996727, lon.=26.404043, Alt.=107.889709m. Speed=15.588000m/h.</desc>
<speed>4.330000</speed>
</trkpt>
<trkpt lat="55.996693" lon="26.404083">
<ele>107.809631</ele>
<time>2010-08-29T16:54:34Z</time>
<desc>lat.=55.996693, lon.=26.404083, Alt.=107.809631m. Speed=15.696000m/h.</desc>
<speed>4.360000</speed>
</trkpt>
<trkpt lat="55.996662" lon="26.404127">
<ele>107.729553</ele>
<time>2010-08-29T16:54:35Z</time>
<desc>lat.=55.996662, lon.=26.404127, Alt.=107.729553m. Speed=15.876000m/h.</desc>
<speed>4.410000</speed>
</trkpt>
<trkpt lat="55.996632" lon="26.404165">
<ele>107.680725</ele>
<time>2010-08-29T16:54:36Z</time>
<desc>lat.=55.996632, lon.=26.404165, Alt.=107.680725m. Speed=16.164000m/h.</desc>
<speed>4.490000</speed>
</trkpt>
<trkpt lat="55.996593" lon="26.404200">
<ele>107.600647</ele>
<time>2010-08-29T16:54:37Z</time>
<desc>lat.=55.996593, lon.=26.404200, Alt.=107.600647m. Speed=16.416000m/h.</desc>
<speed>4.560000</speed>
</trkpt>
<trkpt lat="55.996559" lon="26.404238">
<ele>107.508850</ele>
<time>2010-08-29T16:54:38Z</time>
<desc>lat.=55.996559, lon.=26.404238, Alt.=107.508850m. Speed=16.452000m/h.</desc>
<speed>4.570000</speed>
</trkpt>
<trkpt lat="55.996525" lon="26.404282">
<ele>107.463928</ele>
<time>2010-08-29T16:54:39Z</time>
<desc>lat.=55.996525, lon.=26.404282, Alt.=107.463928m. Speed=16.596001m/h.</desc>
<speed>4.610000</speed>
</trkpt>
<trkpt lat="55.996494" lon="26.404329">
<ele>107.450256</ele>
<time>2010-08-29T16:54:40Z</time>
<desc>lat.=55.996494, lon.=26.404329, Alt.=107.450256m. Speed=16.524000m/h.</desc>
<speed>4.590000</speed>
</trkpt>
<trkpt lat="55.996464" lon="26.404379">
<ele>107.294006</ele>
<time>2010-08-29T16:54:41Z</time>
<desc>lat.=55.996464, lon.=26.404379, Alt.=107.294006m. Speed=16.667999m/h.</desc>
<speed>4.630000</speed>
</trkpt>
<trkpt lat="55.996433" lon="26.404425">
<ele>107.190491</ele>
<time>2010-08-29T16:54:42Z</time>
<desc>lat.=55.996433, lon.=26.404425, Alt.=107.190491m. Speed=16.524000m/h.</desc>
<speed>4.590000</speed>
</trkpt>
<trkpt lat="55.996399" lon="26.404465">
<ele>107.030334</ele>
<time>2010-08-29T16:54:43Z</time>
<desc>lat.=55.996399, lon.=26.404465, Alt.=107.030334m. Speed=16.524000m/h.</desc>
<speed>4.590000</speed>
</trkpt>
<trkpt lat="55.996365" lon="26.404507">
<ele>106.850647</ele>
<time>2010-08-29T16:54:44Z</time>
<desc>lat.=55.996365, lon.=26.404507, Alt.=106.850647m. Speed=16.704000m/h.</desc>
<speed>4.640000</speed>
</trkpt>
<trkpt lat="55.996330" lon="26.404554">
<ele>106.747131</ele>
<time>2010-08-29T16:54:45Z</time>
<desc>lat.=55.996330, lon.=26.404554, Alt.=106.747131m. Speed=16.740000m/h.</desc>
<speed>4.650000</speed>
</trkpt>
<trkpt lat="55.996296" lon="26.404600">
<ele>106.667053</ele>
<time>2010-08-29T16:54:46Z</time>
<desc>lat.=55.996296, lon.=26.404600, Alt.=106.667053m. Speed=16.775999m/h.</desc>
<speed>4.660000</speed>
</trkpt>
<trkpt lat="55.996262" lon="26.404644">
<ele>106.501038</ele>
<time>2010-08-29T16:54:47Z</time>
<desc>lat.=55.996262, lon.=26.404644, Alt.=106.501038m. Speed=16.955999m/h.</desc>
<speed>4.710000</speed>
</trkpt>
<trkpt lat="55.996227" lon="26.404688">
<ele>106.370178</ele>
<time>2010-08-29T16:54:48Z</time>
<desc>lat.=55.996227, lon.=26.404688, Alt.=106.370178m. Speed=17.208000m/h.</desc>
<speed>4.780000</speed>
</trkpt>
<trkpt lat="55.996189" lon="26.404736">
<ele>106.311584</ele>
<time>2010-08-29T16:54:49Z</time>
<desc>lat.=55.996189, lon.=26.404736, Alt.=106.311584m. Speed=17.424000m/h.</desc>
<speed>4.840000</speed>
</trkpt>
<trkpt lat="55.996151" lon="26.404778">
<ele>106.254944</ele>
<time>2010-08-29T16:54:50Z</time>
<desc>lat.=55.996151, lon.=26.404778, Alt.=106.254944m. Speed=17.712000m/h.</desc>
<speed>4.920000</speed>
</trkpt>
<trkpt lat="55.996113" lon="26.404814">
<ele>106.157288</ele>
<time>2010-08-29T16:54:51Z</time>
<desc>lat.=55.996113, lon.=26.404814, Alt.=106.157288m. Speed=17.927999m/h.</desc>
<speed>4.980000</speed>
</trkpt>
<trkpt lat="55.996071" lon="26.404850">
<ele>106.086975</ele>
<time>2010-08-29T16:54:52Z</time>
<desc>lat.=55.996071, lon.=26.404850, Alt.=106.086975m. Speed=18.035999m/h.</desc>
<speed>5.010000</speed>
</trkpt>
<trkpt lat="55.996033" lon="26.404892">
<ele>105.934631</ele>
<time>2010-08-29T16:54:53Z</time>
<desc>lat.=55.996033, lon.=26.404892, Alt.=105.934631m. Speed=18.360001m/h.</desc>
<speed>5.100000</speed>
</trkpt>
<trkpt lat="55.995998" lon="26.404940">
<ele>105.776428</ele>
<time>2010-08-29T16:54:54Z</time>
<desc>lat.=55.995998, lon.=26.404940, Alt.=105.776428m. Speed=18.323999m/h.</desc>
<speed>5.090000</speed>
</trkpt>
<trkpt lat="55.995960" lon="26.404991">
<ele>105.651428</ele>
<time>2010-08-29T16:54:55Z</time>
<desc>lat.=55.995960, lon.=26.404991, Alt.=105.651428m. Speed=18.035999m/h.</desc>
<speed>5.010000</speed>
</trkpt>
<trkpt lat="55.995922" lon="26.405035">
<ele>105.344788</ele>
<time>2010-08-29T16:54:56Z</time>
<desc>lat.=55.995922, lon.=26.405035, Alt.=105.344788m. Speed=18.612000m/h.</desc>
<speed>5.170000</speed>
</trkpt>
<trkpt lat="55.995884" lon="26.405085">
<ele>105.059631</ele>
<time>2010-08-29T16:54:57Z</time>
<desc>lat.=55.995884, lon.=26.405085, Alt.=105.059631m. Speed=18.180000m/h.</desc>
<speed>5.050000</speed>
</trkpt>
<trkpt lat="55.995846" lon="26.405136">
<ele>105.147522</ele>
<time>2010-08-29T16:54:58Z</time>
<desc>lat.=55.995846, lon.=26.405136, Alt.=105.147522m. Speed=19.548000m/h.</desc>
<speed>5.430000</speed>
</trkpt>
<trkpt lat="55.995804" lon="26.405191">
<ele>105.237366</ele>
<time>2010-08-29T16:54:59Z</time>
<desc>lat.=55.995804, lon.=26.405191, Alt.=105.237366m. Speed=20.520000m/h.</desc>
<speed>5.700000</speed>
</trkpt>
<trkpt lat="55.995766" lon="26.405254">
<ele>105.417053</ele>
<time>2010-08-29T16:55:00Z</time>
<desc>lat.=55.995766, lon.=26.405254, Alt.=105.417053m. Speed=21.420000m/h.</desc>
<speed>5.950000</speed>
</trkpt>
<trkpt lat="55.995728" lon="26.405321">
<ele>105.598694</ele>
<time>2010-08-29T16:55:01Z</time>
<desc>lat.=55.995728, lon.=26.405321, Alt.=105.598694m. Speed=22.139999m/h.</desc>
<speed>6.150000</speed>
</trkpt>
<trkpt lat="55.995686" lon="26.405388">
<ele>105.801819</ele>
<time>2010-08-29T16:55:02Z</time>
<desc>lat.=55.995686, lon.=26.405388, Alt.=105.801819m. Speed=23.076000m/h.</desc>
<speed>6.410000</speed>
</trkpt>
<trkpt lat="55.995636" lon="26.405453">
<ele>106.024475</ele>
<time>2010-08-29T16:55:03Z</time>
<desc>lat.=55.995636, lon.=26.405453, Alt.=106.024475m. Speed=23.760000m/h.</desc>
<speed>6.600000</speed>
</trkpt>
<trkpt lat="55.995586" lon="26.405512">
<ele>105.600647</ele>
<time>2010-08-29T16:55:04Z</time>
<desc>lat.=55.995586, lon.=26.405512, Alt.=105.600647m. Speed=24.011999m/h.</desc>
<speed>6.670000</speed>
</trkpt>
<trkpt lat="55.995537" lon="26.405573">
<ele>105.499084</ele>
<time>2010-08-29T16:55:05Z</time>
<desc>lat.=55.995537, lon.=26.405573, Alt.=105.499084m. Speed=24.120001m/h.</desc>
<speed>6.700000</speed>
</trkpt>
<trkpt lat="55.995487" lon="26.405632">
<ele>105.413147</ele>
<time>2010-08-29T16:55:06Z</time>
<desc>lat.=55.995487, lon.=26.405632, Alt.=105.413147m. Speed=24.120001m/h.</desc>
<speed>6.700000</speed>
</trkpt>
<trkpt lat="55.995438" lon="26.405695">
<ele>105.331116</ele>
<time>2010-08-29T16:55:07Z</time>
<desc>lat.=55.995438, lon.=26.405695, Alt.=105.331116m. Speed=24.191999m/h.</desc>
<speed>6.720000</speed>
</trkpt>
<trkpt lat="55.995388" lon="26.405762">
<ele>105.374084</ele>
<time>2010-08-29T16:55:08Z</time>
<desc>lat.=55.995388, lon.=26.405762, Alt.=105.374084m. Speed=24.191999m/h.</desc>
<speed>6.720000</speed>
</trkpt>
<trkpt lat="55.995338" lon="26.405828">
<ele>105.182678</ele>
<time>2010-08-29T16:55:09Z</time>
<desc>lat.=55.995338, lon.=26.405828, Alt.=105.182678m. Speed=24.264000m/h.</desc>
<speed>6.740000</speed>
</trkpt>
<trkpt lat="55.995296" lon="26.405903">
<ele>107.876038</ele>
<time>2010-08-29T16:55:10Z</time>
<desc>lat.=55.995296, lon.=26.405903, Alt.=107.876038m. Speed=23.760000m/h.</desc>
<speed>6.600000</speed>
</trkpt>
<trkpt lat="55.995247" lon="26.405962">
<ele>107.704163</ele>
<time>2010-08-29T16:55:11Z</time>
<desc>lat.=55.995247, lon.=26.405962, Alt.=107.704163m. Speed=24.336000m/h.</desc>
<speed>6.760000</speed>
</trkpt>
<trkpt lat="55.995197" lon="26.406023">
<ele>107.461975</ele>
<time>2010-08-29T16:55:12Z</time>
<desc>lat.=55.995197, lon.=26.406023, Alt.=107.461975m. Speed=24.480000m/h.</desc>
<speed>6.800000</speed>
</trkpt>
<trkpt lat="55.995148" lon="26.406086">
<ele>107.426819</ele>
<time>2010-08-29T16:55:13Z</time>
<desc>lat.=55.995148, lon.=26.406086, Alt.=107.426819m. Speed=24.516001m/h.</desc>
<speed>6.810000</speed>
</trkpt>
<trkpt lat="55.995102" lon="26.406153">
<ele>107.186584</ele>
<time>2010-08-29T16:55:14Z</time>
<desc>lat.=55.995102, lon.=26.406153, Alt.=107.186584m. Speed=24.480000m/h.</desc>
<speed>6.800000</speed>
</trkpt>
<trkpt lat="55.995052" lon="26.406212">
<ele>106.983459</ele>
<time>2010-08-29T16:55:15Z</time>
<desc>lat.=55.995052, lon.=26.406212, Alt.=106.983459m. Speed=24.444000m/h.</desc>
<speed>6.790000</speed>
</trkpt>
<trkpt lat="55.994999" lon="26.406271">
<ele>106.911194</ele>
<time>2010-08-29T16:55:16Z</time>
<desc>lat.=55.994999, lon.=26.406271, Alt.=106.911194m. Speed=24.156000m/h.</desc>
<speed>6.710000</speed>
</trkpt>
<trkpt lat="55.994953" lon="26.406334">
<ele>106.838928</ele>
<time>2010-08-29T16:55:17Z</time>
<desc>lat.=55.994953, lon.=26.406334, Alt.=106.838928m. Speed=23.976000m/h.</desc>
<speed>6.660000</speed>
</trkpt>
<trkpt lat="55.994904" lon="26.406399">
<ele>106.821350</ele>
<time>2010-08-29T16:55:18Z</time>
<desc>lat.=55.994904, lon.=26.406399, Alt.=106.821350m. Speed=23.940001m/h.</desc>
<speed>6.650000</speed>
</trkpt>
<trkpt lat="55.994854" lon="26.406462">
<ele>106.385803</ele>
<time>2010-08-29T16:55:19Z</time>
<desc>lat.=55.994854, lon.=26.406462, Alt.=106.385803m. Speed=23.868000m/h.</desc>
<speed>6.630000</speed>
</trkpt>
<trkpt lat="55.994804" lon="26.406525">
<ele>106.251038</ele>
<time>2010-08-29T16:55:20Z</time>
<desc>lat.=55.994804, lon.=26.406525, Alt.=106.251038m. Speed=23.903999m/h.</desc>
<speed>6.640000</speed>
</trkpt>
<trkpt lat="55.994755" lon="26.406588">
<ele>106.122131</ele>
<time>2010-08-29T16:55:21Z</time>
<desc>lat.=55.994755, lon.=26.406588, Alt.=106.122131m. Speed=23.832001m/h.</desc>
<speed>6.620000</speed>
</trkpt>
<trkpt lat="55.994705" lon="26.406651">
<ele>106.020569</ele>
<time>2010-08-29T16:55:22Z</time>
<desc>lat.=55.994705, lon.=26.406651, Alt.=106.020569m. Speed=23.868000m/h.</desc>
<speed>6.630000</speed>
</trkpt>
<trkpt lat="55.994656" lon="26.406710">
<ele>104.969788</ele>
<time>2010-08-29T16:55:23Z</time>
<desc>lat.=55.994656, lon.=26.406710, Alt.=104.969788m. Speed=24.156000m/h.</desc>
<speed>6.710000</speed>
</trkpt>
<trkpt lat="55.994606" lon="26.406771">
<ele>104.604553</ele>
<time>2010-08-29T16:55:24Z</time>
<desc>lat.=55.994606, lon.=26.406771, Alt.=104.604553m. Speed=23.903999m/h.</desc>
<speed>6.640000</speed>
</trkpt>
<trkpt lat="55.994560" lon="26.406830">
<ele>104.467834</ele>
<time>2010-08-29T16:55:25Z</time>
<desc>lat.=55.994560, lon.=26.406830, Alt.=104.467834m. Speed=23.868000m/h.</desc>
<speed>6.630000</speed>
</trkpt>
<trkpt lat="55.994511" lon="26.406891">
<ele>104.477600</ele>
<time>2010-08-29T16:55:26Z</time>
<desc>lat.=55.994511, lon.=26.406891, Alt.=104.477600m. Speed=23.903999m/h.</desc>
<speed>6.640000</speed>
</trkpt>
<trkpt lat="55.994461" lon="26.406954">
<ele>104.487366</ele>
<time>2010-08-29T16:55:27Z</time>
<desc>lat.=55.994461, lon.=26.406954, Alt.=104.487366m. Speed=23.796000m/h.</desc>
<speed>6.610000</speed>
</trkpt>
<trkpt lat="55.994411" lon="26.407015">
<ele>104.364319</ele>
<time>2010-08-29T16:55:28Z</time>
<desc>lat.=55.994411, lon.=26.407015, Alt.=104.364319m. Speed=23.940001m/h.</desc>
<speed>6.650000</speed>
</trkpt>
<trkpt lat="55.994366" lon="26.407076">
<ele>104.098694</ele>
<time>2010-08-29T16:55:29Z</time>
<desc>lat.=55.994366, lon.=26.407076, Alt.=104.098694m. Speed=23.796000m/h.</desc>
<speed>6.610000</speed>
</trkpt>
<trkpt lat="55.994316" lon="26.407135">
<ele>103.862366</ele>
<time>2010-08-29T16:55:30Z</time>
<desc>lat.=55.994316, lon.=26.407135, Alt.=103.862366m. Speed=23.652000m/h.</desc>
<speed>6.570000</speed>
</trkpt>
<trkpt lat="55.994267" lon="26.407194">
<ele>103.963928</ele>
<time>2010-08-29T16:55:31Z</time>
<desc>lat.=55.994267, lon.=26.407194, Alt.=103.963928m. Speed=23.652000m/h.</desc>
<speed>6.570000</speed>
</trkpt>
<trkpt lat="55.994221" lon="26.407255">
<ele>103.891663</ele>
<time>2010-08-29T16:55:32Z</time>
<desc>lat.=55.994221, lon.=26.407255, Alt.=103.891663m. Speed=23.364000m/h.</desc>
<speed>6.490000</speed>
</trkpt>
<trkpt lat="55.994171" lon="26.407314">
<ele>103.680725</ele>
<time>2010-08-29T16:55:33Z</time>
<desc>lat.=55.994171, lon.=26.407314, Alt.=103.680725m. Speed=23.472000m/h.</desc>
<speed>6.520000</speed>
</trkpt>
<trkpt lat="55.994125" lon="26.407375">
<ele>103.585022</ele>
<time>2010-08-29T16:55:34Z</time>
<desc>lat.=55.994125, lon.=26.407375, Alt.=103.585022m. Speed=23.327999m/h.</desc>
<speed>6.480000</speed>
</trkpt>
<trkpt lat="55.994080" lon="26.407436">
<ele>103.477600</ele>
<time>2010-08-29T16:55:35Z</time>
<desc>lat.=55.994080, lon.=26.407436, Alt.=103.477600m. Speed=23.256001m/h.</desc>
<speed>6.460000</speed>
</trkpt>
<trkpt lat="55.994034" lon="26.407494">
<ele>103.403381</ele>
<time>2010-08-29T16:55:36Z</time>
<desc>lat.=55.994034, lon.=26.407494, Alt.=103.403381m. Speed=21.492001m/h.</desc>
<speed>5.970000</speed>
</trkpt>
<trkpt lat="55.993984" lon="26.407549">
<ele>103.319397</ele>
<time>2010-08-29T16:55:37Z</time>
<desc>lat.=55.993984, lon.=26.407549, Alt.=103.319397m. Speed=23.148001m/h.</desc>
<speed>6.430000</speed>
</trkpt>
<trkpt lat="55.993938" lon="26.407612">
<ele>103.323303</ele>
<time>2010-08-29T16:55:38Z</time>
<desc>lat.=55.993938, lon.=26.407612, Alt.=103.323303m. Speed=22.931999m/h.</desc>
<speed>6.370000</speed>
</trkpt>
<trkpt lat="55.993893" lon="26.407673">
<ele>103.200256</ele>
<time>2010-08-29T16:55:39Z</time>
<desc>lat.=55.993893, lon.=26.407673, Alt.=103.200256m. Speed=22.643999m/h.</desc>
<speed>6.290000</speed>
</trkpt>
<trkpt lat="55.993843" lon="26.407730">
<ele>103.200256</ele>
<time>2010-08-29T16:55:40Z</time>
<desc>lat.=55.993843, lon.=26.407730, Alt.=103.200256m. Speed=22.752001m/h.</desc>
<speed>6.320000</speed>
</trkpt>
<trkpt lat="55.993797" lon="26.407793">
<ele>103.249084</ele>
<time>2010-08-29T16:55:41Z</time>
<desc>lat.=55.993797, lon.=26.407793, Alt.=103.249084m. Speed=22.572001m/h.</desc>
<speed>6.270000</speed>
</trkpt>
<trkpt lat="55.993752" lon="26.407852">
<ele>103.262756</ele>
<time>2010-08-29T16:55:42Z</time>
<desc>lat.=55.993752, lon.=26.407852, Alt.=103.262756m. Speed=22.427999m/h.</desc>
<speed>6.230000</speed>
</trkpt>
<trkpt lat="55.993702" lon="26.407906">
<ele>103.264709</ele>
<time>2010-08-29T16:55:43Z</time>
<desc>lat.=55.993702, lon.=26.407906, Alt.=103.264709m. Speed=22.176001m/h.</desc>
<speed>6.160000</speed>
</trkpt>
<trkpt lat="55.993660" lon="26.407961">
<ele>102.862366</ele>
<time>2010-08-29T16:55:44Z</time>
<desc>lat.=55.993660, lon.=26.407961, Alt.=102.862366m. Speed=22.139999m/h.</desc>
<speed>6.150000</speed>
</trkpt>
<trkpt lat="55.993614" lon="26.408020">
<ele>102.801819</ele>
<time>2010-08-29T16:55:45Z</time>
<desc>lat.=55.993614, lon.=26.408020, Alt.=102.801819m. Speed=21.888000m/h.</desc>
<speed>6.080000</speed>
</trkpt>
<trkpt lat="55.993568" lon="26.408075">
<ele>102.690491</ele>
<time>2010-08-29T16:55:46Z</time>
<desc>lat.=55.993568, lon.=26.408075, Alt.=102.690491m. Speed=21.888000m/h.</desc>
<speed>6.080000</speed>
</trkpt>
<trkpt lat="55.993526" lon="26.408134">
<ele>102.678772</ele>
<time>2010-08-29T16:55:47Z</time>
<desc>lat.=55.993526, lon.=26.408134, Alt.=102.678772m. Speed=21.420000m/h.</desc>
<speed>5.950000</speed>
</trkpt>
<trkpt lat="55.993481" lon="26.408194">
<ele>102.598694</ele>
<time>2010-08-29T16:55:48Z</time>
<desc>lat.=55.993481, lon.=26.408194, Alt.=102.598694m. Speed=21.959999m/h.</desc>
<speed>6.100000</speed>
</trkpt>
<trkpt lat="55.993439" lon="26.408253">
<ele>102.549866</ele>
<time>2010-08-29T16:55:49Z</time>
<desc>lat.=55.993439, lon.=26.408253, Alt.=102.549866m. Speed=21.851999m/h.</desc>
<speed>6.070000</speed>
</trkpt>
<trkpt lat="55.993397" lon="26.408312">
<ele>102.553772</ele>
<time>2010-08-29T16:55:50Z</time>
<desc>lat.=55.993397, lon.=26.408312, Alt.=102.553772m. Speed=21.455999m/h.</desc>
<speed>5.960000</speed>
</trkpt>
<trkpt lat="55.993351" lon="26.408363">
<ele>102.465881</ele>
<time>2010-08-29T16:55:51Z</time>
<desc>lat.=55.993351, lon.=26.408363, Alt.=102.465881m. Speed=21.384001m/h.</desc>
<speed>5.940000</speed>
</trkpt>
<trkpt lat="55.993309" lon="26.408417">
<ele>102.504944</ele>
<time>2010-08-29T16:55:52Z</time>
<desc>lat.=55.993309, lon.=26.408417, Alt.=102.504944m. Speed=21.708000m/h.</desc>
<speed>6.030000</speed>
</trkpt>
<trkpt lat="55.993263" lon="26.408474">
<ele>102.487366</ele>
<time>2010-08-29T16:55:53Z</time>
<desc>lat.=55.993263, lon.=26.408474, Alt.=102.487366m. Speed=21.348000m/h.</desc>
<speed>5.930000</speed>
</trkpt>
<trkpt lat="55.993221" lon="26.408531">
<ele>102.575256</ele>
<time>2010-08-29T16:55:54Z</time>
<desc>lat.=55.993221, lon.=26.408531, Alt.=102.575256m. Speed=20.844000m/h.</desc>
<speed>5.790000</speed>
</trkpt>
<trkpt lat="55.993179" lon="26.408583">
<ele>102.620178</ele>
<time>2010-08-29T16:55:55Z</time>
<desc>lat.=55.993179, lon.=26.408583, Alt.=102.620178m. Speed=21.024000m/h.</desc>
<speed>5.840000</speed>
</trkpt>
<trkpt lat="55.993134" lon="26.408646">
<ele>102.795959</ele>
<time>2010-08-29T16:55:56Z</time>
<desc>lat.=55.993134, lon.=26.408646, Alt.=102.795959m. Speed=20.483999m/h.</desc>
<speed>5.690000</speed>
</trkpt>
<trkpt lat="55.993092" lon="26.408699">
<ele>102.819397</ele>
<time>2010-08-29T16:55:57Z</time>
<desc>lat.=55.993092, lon.=26.408699, Alt.=102.819397m. Speed=20.556000m/h.</desc>
<speed>5.710000</speed>
</trkpt>
<trkpt lat="55.993053" lon="26.408751">
<ele>103.010803</ele>
<time>2010-08-29T16:55:58Z</time>
<desc>lat.=55.993053, lon.=26.408751, Alt.=103.010803m. Speed=20.556000m/h.</desc>
<speed>5.710000</speed>
</trkpt>
<trkpt lat="55.993011" lon="26.408802">
<ele>102.983459</ele>
<time>2010-08-29T16:55:59Z</time>
<desc>lat.=55.993011, lon.=26.408802, Alt.=102.983459m. Speed=20.375999m/h.</desc>
<speed>5.660000</speed>
</trkpt>
<trkpt lat="55.992970" lon="26.408848">
<ele>103.012756</ele>
<time>2010-08-29T16:56:00Z</time>
<desc>lat.=55.992970, lon.=26.408848, Alt.=103.012756m. Speed=20.160000m/h.</desc>
<speed>5.600000</speed>
</trkpt>
<trkpt lat="55.992935" lon="26.408905">
<ele>104.809631</ele>
<time>2010-08-29T16:56:01Z</time>
<desc>lat.=55.992935, lon.=26.408905, Alt.=104.809631m. Speed=19.007999m/h.</desc>
<speed>5.280000</speed>
</trkpt>
<trkpt lat="55.992893" lon="26.408955">
<ele>105.108459</ele>
<time>2010-08-29T16:56:02Z</time>
<desc>lat.=55.992893, lon.=26.408955, Alt.=105.108459m. Speed=19.044001m/h.</desc>
<speed>5.290000</speed>
</trkpt>
<trkpt lat="55.992855" lon="26.409006">
<ele>105.381897</ele>
<time>2010-08-29T16:56:03Z</time>
<desc>lat.=55.992855, lon.=26.409006, Alt.=105.381897m. Speed=19.944000m/h.</desc>
<speed>5.540000</speed>
</trkpt>
<trkpt lat="55.992813" lon="26.409056">
<ele>105.545959</ele>
<time>2010-08-29T16:56:04Z</time>
<desc>lat.=55.992813, lon.=26.409056, Alt.=105.545959m. Speed=19.728001m/h.</desc>
<speed>5.480000</speed>
</trkpt>
<trkpt lat="55.992771" lon="26.409103">
<ele>105.731506</ele>
<time>2010-08-29T16:56:05Z</time>
<desc>lat.=55.992771, lon.=26.409103, Alt.=105.731506m. Speed=19.548000m/h.</desc>
<speed>5.430000</speed>
</trkpt>
<trkpt lat="55.992733" lon="26.409151">
<ele>105.854553</ele>
<time>2010-08-29T16:56:06Z</time>
<desc>lat.=55.992733, lon.=26.409151, Alt.=105.854553m. Speed=19.332001m/h.</desc>
<speed>5.370000</speed>
</trkpt>
<trkpt lat="55.992695" lon="26.409201">
<ele>106.026428</ele>
<time>2010-08-29T16:56:07Z</time>
<desc>lat.=55.992695, lon.=26.409201, Alt.=106.026428m. Speed=19.224001m/h.</desc>
<speed>5.340000</speed>
</trkpt>
<trkpt lat="55.992657" lon="26.409245">
<ele>106.104553</ele>
<time>2010-08-29T16:56:08Z</time>
<desc>lat.=55.992657, lon.=26.409245, Alt.=106.104553m. Speed=19.044001m/h.</desc>
<speed>5.290000</speed>
</trkpt>
<trkpt lat="55.992611" lon="26.409285">
<ele>105.229553</ele>
<time>2010-08-29T16:56:09Z</time>
<desc>lat.=55.992611, lon.=26.409285, Alt.=105.229553m. Speed=18.827999m/h.</desc>
<speed>5.230000</speed>
</trkpt>
<trkpt lat="55.992573" lon="26.409327">
<ele>104.940491</ele>
<time>2010-08-29T16:56:10Z</time>
<desc>lat.=55.992573, lon.=26.409327, Alt.=104.940491m. Speed=18.684000m/h.</desc>
<speed>5.190000</speed>
</trkpt>
<trkpt lat="55.992535" lon="26.409372">
<ele>105.063538</ele>
<time>2010-08-29T16:56:11Z</time>
<desc>lat.=55.992535, lon.=26.409372, Alt.=105.063538m. Speed=18.288000m/h.</desc>
<speed>5.080000</speed>
</trkpt>
<trkpt lat="55.992496" lon="26.409416">
<ele>104.991272</ele>
<time>2010-08-29T16:56:12Z</time>
<desc>lat.=55.992496, lon.=26.409416, Alt.=104.991272m. Speed=18.072001m/h.</desc>
<speed>5.020000</speed>
</trkpt>
<trkpt lat="55.992458" lon="26.409460">
<ele>104.911194</ele>
<time>2010-08-29T16:56:13Z</time>
<desc>lat.=55.992458, lon.=26.409460, Alt.=104.911194m. Speed=18.000000m/h.</desc>
<speed>5.000000</speed>
</trkpt>
<trkpt lat="55.992424" lon="26.409496">
<ele>104.739319</ele>
<time>2010-08-29T16:56:14Z</time>
<desc>lat.=55.992424, lon.=26.409496, Alt.=104.739319m. Speed=15.228000m/h.</desc>
<speed>4.230000</speed>
</trkpt>
<trkpt lat="55.992390" lon="26.409533">
<ele>104.512756</ele>
<time>2010-08-29T16:56:15Z</time>
<desc>lat.=55.992390, lon.=26.409533, Alt.=104.512756m. Speed=17.532000m/h.</desc>
<speed>4.870000</speed>
</trkpt>
<trkpt lat="55.992348" lon="26.409575">
<ele>104.225647</ele>
<time>2010-08-29T16:56:16Z</time>
<desc>lat.=55.992348, lon.=26.409575, Alt.=104.225647m. Speed=17.459999m/h.</desc>
<speed>4.850000</speed>
</trkpt>
<trkpt lat="55.992317" lon="26.409618">
<ele>104.108459</ele>
<time>2010-08-29T16:56:17Z</time>
<desc>lat.=55.992317, lon.=26.409618, Alt.=104.108459m. Speed=18.108000m/h.</desc>
<speed>5.030000</speed>
</trkpt>
<trkpt lat="55.992279" lon="26.409662">
<ele>104.061584</ele>
<time>2010-08-29T16:56:18Z</time>
<desc>lat.=55.992279, lon.=26.409662, Alt.=104.061584m. Speed=18.431999m/h.</desc>
<speed>5.120000</speed>
</trkpt>
<trkpt lat="55.992241" lon="26.409710">
<ele>104.059631</ele>
<time>2010-08-29T16:56:19Z</time>
<desc>lat.=55.992241, lon.=26.409710, Alt.=104.059631m. Speed=18.900000m/h.</desc>
<speed>5.250000</speed>
</trkpt>
<trkpt lat="55.992203" lon="26.409760">
<ele>104.184631</ele>
<time>2010-08-29T16:56:20Z</time>
<desc>lat.=55.992203, lon.=26.409760, Alt.=104.184631m. Speed=18.792000m/h.</desc>
<speed>5.220000</speed>
</trkpt>
<trkpt lat="55.992168" lon="26.409822">
<ele>104.473694</ele>
<time>2010-08-29T16:56:21Z</time>
<desc>lat.=55.992168, lon.=26.409822, Alt.=104.473694m. Speed=19.260000m/h.</desc>
<speed>5.350000</speed>
</trkpt>
<trkpt lat="55.992134" lon="26.409883">
<ele>104.688538</ele>
<time>2010-08-29T16:56:22Z</time>
<desc>lat.=55.992134, lon.=26.409883, Alt.=104.688538m. Speed=18.972000m/h.</desc>
<speed>5.270000</speed>
</trkpt>
<trkpt lat="55.992096" lon="26.409943">
<ele>104.831116</ele>
<time>2010-08-29T16:56:23Z</time>
<desc>lat.=55.992096, lon.=26.409943, Alt.=104.831116m. Speed=19.476000m/h.</desc>
<speed>5.410000</speed>
</trkpt>
<trkpt lat="55.992058" lon="26.409998">
<ele>104.602600</ele>
<time>2010-08-29T16:56:24Z</time>
<desc>lat.=55.992058, lon.=26.409998, Alt.=104.602600m. Speed=19.944000m/h.</desc>
<speed>5.540000</speed>
</trkpt>
<trkpt lat="55.992020" lon="26.410055">
<ele>104.401428</ele>
<time>2010-08-29T16:56:25Z</time>
<desc>lat.=55.992020, lon.=26.410055, Alt.=104.401428m. Speed=20.304001m/h.</desc>
<speed>5.640000</speed>
</trkpt>
<trkpt lat="55.991978" lon="26.410109">
<ele>104.229553</ele>
<time>2010-08-29T16:56:26Z</time>
<desc>lat.=55.991978, lon.=26.410109, Alt.=104.229553m. Speed=20.700001m/h.</desc>
<speed>5.750000</speed>
</trkpt>
<trkpt lat="55.991932" lon="26.410162">
<ele>98.510803</ele>
<time>2010-08-29T16:56:27Z</time>
<desc>lat.=55.991932, lon.=26.410162, Alt.=98.510803m. Speed=20.808001m/h.</desc>
<speed>5.780000</speed>
</trkpt>
<trkpt lat="55.991886" lon="26.410212">
<ele>98.618225</ele>
<time>2010-08-29T16:56:28Z</time>
<desc>lat.=55.991886, lon.=26.410212, Alt.=98.618225m. Speed=21.780001m/h.</desc>
<speed>6.050000</speed>
</trkpt>
<trkpt lat="55.991840" lon="26.410269">
<ele>98.870178</ele>
<time>2010-08-29T16:56:29Z</time>
<desc>lat.=55.991840, lon.=26.410269, Alt.=98.870178m. Speed=22.284000m/h.</desc>
<speed>6.190000</speed>
</trkpt>
<trkpt lat="55.991795" lon="26.410326">
<ele>99.053772</ele>
<time>2010-08-29T16:56:30Z</time>
<desc>lat.=55.991795, lon.=26.410326, Alt.=99.053772m. Speed=22.896000m/h.</desc>
<speed>6.360000</speed>
</trkpt>
<trkpt lat="55.991749" lon="26.410389">
<ele>99.061584</ele>
<time>2010-08-29T16:56:31Z</time>
<desc>lat.=55.991749, lon.=26.410389, Alt.=99.061584m. Speed=23.364000m/h.</desc>
<speed>6.490000</speed>
</trkpt>
<trkpt lat="55.991699" lon="26.410452">
<ele>98.725647</ele>
<time>2010-08-29T16:56:32Z</time>
<desc>lat.=55.991699, lon.=26.410452, Alt.=98.725647m. Speed=23.796000m/h.</desc>
<speed>6.610000</speed>
</trkpt>
<trkpt lat="55.991646" lon="26.410513">
<ele>98.592834</ele>
<time>2010-08-29T16:56:33Z</time>
<desc>lat.=55.991646, lon.=26.410513, Alt.=98.592834m. Speed=24.084000m/h.</desc>
<speed>6.690000</speed>
</trkpt>
<trkpt lat="55.991596" lon="26.410576">
<ele>98.325256</ele>
<time>2010-08-29T16:56:34Z</time>
<desc>lat.=55.991596, lon.=26.410576, Alt.=98.325256m. Speed=24.191999m/h.</desc>
<speed>6.720000</speed>
</trkpt>
<trkpt lat="55.991547" lon="26.410643">
<ele>98.249084</ele>
<time>2010-08-29T16:56:35Z</time>
<desc>lat.=55.991547, lon.=26.410643, Alt.=98.249084m. Speed=24.624001m/h.</desc>
<speed>6.840000</speed>
</trkpt>
<trkpt lat="55.991497" lon="26.410707">
<ele>98.094788</ele>
<time>2010-08-29T16:56:36Z</time>
<desc>lat.=55.991497, lon.=26.410707, Alt.=98.094788m. Speed=24.804001m/h.</desc>
<speed>6.890000</speed>
</trkpt>
<trkpt lat="55.991444" lon="26.410776">
<ele>98.006897</ele>
<time>2010-08-29T16:56:37Z</time>
<desc>lat.=55.991444, lon.=26.410776, Alt.=98.006897m. Speed=25.128000m/h.</desc>
<speed>6.980000</speed>
</trkpt>
<trkpt lat="55.991394" lon="26.410841">
<ele>97.778381</ele>
<time>2010-08-29T16:56:38Z</time>
<desc>lat.=55.991394, lon.=26.410841, Alt.=97.778381m. Speed=24.552000m/h.</desc>
<speed>6.820000</speed>
</trkpt>
<trkpt lat="55.991344" lon="26.410908">
<ele>98.510803</ele>
<time>2010-08-29T16:56:39Z</time>
<desc>lat.=55.991344, lon.=26.410908, Alt.=98.510803m. Speed=24.156000m/h.</desc>
<speed>6.710000</speed>
</trkpt>
<trkpt lat="55.991291" lon="26.410973">
<ele>86.612366</ele>
<time>2010-08-29T16:56:40Z</time>
<desc>lat.=55.991291, lon.=26.410973, Alt.=86.612366m. Speed=25.128000m/h.</desc>
<speed>6.980000</speed>
</trkpt>
<trkpt lat="55.991245" lon="26.411032">
<ele>89.854553</ele>
<time>2010-08-29T16:56:41Z</time>
<desc>lat.=55.991245, lon.=26.411032, Alt.=89.854553m. Speed=23.580000m/h.</desc>
<speed>6.550000</speed>
</trkpt>
<trkpt lat="55.991196" lon="26.411091">
<ele>88.856506</ele>
<time>2010-08-29T16:56:42Z</time>
<desc>lat.=55.991196, lon.=26.411091, Alt.=88.856506m. Speed=23.184000m/h.</desc>
<speed>6.440000</speed>
</trkpt>
<trkpt lat="55.991150" lon="26.411152">
<ele>88.124084</ele>
<time>2010-08-29T16:56:43Z</time>
<desc>lat.=55.991150, lon.=26.411152, Alt.=88.124084m. Speed=23.004000m/h.</desc>
<speed>6.390000</speed>
</trkpt>
<trkpt lat="55.991100" lon="26.411209">
<ele>87.530334</ele>
<time>2010-08-29T16:56:44Z</time>
<desc>lat.=55.991100, lon.=26.411209, Alt.=87.530334m. Speed=23.652000m/h.</desc>
<speed>6.570000</speed>
</trkpt>
<trkpt lat="55.991055" lon="26.411268">
<ele>86.930725</ele>
<time>2010-08-29T16:56:45Z</time>
<desc>lat.=55.991055, lon.=26.411268, Alt.=86.930725m. Speed=24.191999m/h.</desc>
<speed>6.720000</speed>
</trkpt>
<trkpt lat="55.991005" lon="26.411329">
<ele>86.088928</ele>
<time>2010-08-29T16:56:46Z</time>
<desc>lat.=55.991005, lon.=26.411329, Alt.=86.088928m. Speed=24.875999m/h.</desc>
<speed>6.910000</speed>
</trkpt>
<trkpt lat="55.990955" lon="26.411396">
<ele>85.823303</ele>
<time>2010-08-29T16:56:47Z</time>
<desc>lat.=55.990955, lon.=26.411396, Alt.=85.823303m. Speed=25.164000m/h.</desc>
<speed>6.990000</speed>
</trkpt>
<trkpt lat="55.990902" lon="26.411465">
<ele>86.223694</ele>
<time>2010-08-29T16:56:48Z</time>
<desc>lat.=55.990902, lon.=26.411465, Alt.=86.223694m. Speed=25.164000m/h.</desc>
<speed>6.990000</speed>
</trkpt>
<trkpt lat="55.990852" lon="26.411530">
<ele>86.137756</ele>
<time>2010-08-29T16:56:49Z</time>
<desc>lat.=55.990852, lon.=26.411530, Alt.=86.137756m. Speed=24.695999m/h.</desc>
<speed>6.860000</speed>
</trkpt>
<trkpt lat="55.990799" lon="26.411591">
<ele>87.387756</ele>
<time>2010-08-29T16:56:50Z</time>
<desc>lat.=55.990799, lon.=26.411591, Alt.=87.387756m. Speed=24.336000m/h.</desc>
<speed>6.760000</speed>
</trkpt>
<trkpt lat="55.990749" lon="26.411650">
<ele>89.085022</ele>
<time>2010-08-29T16:56:51Z</time>
<desc>lat.=55.990749, lon.=26.411650, Alt.=89.085022m. Speed=24.011999m/h.</desc>
<speed>6.670000</speed>
</trkpt>
<trkpt lat="55.990700" lon="26.411709">
<ele>89.686584</ele>
<time>2010-08-29T16:56:52Z</time>
<desc>lat.=55.990700, lon.=26.411709, Alt.=89.686584m. Speed=23.724001m/h.</desc>
<speed>6.590000</speed>
</trkpt>
<trkpt lat="55.990650" lon="26.411772">
<ele>90.186584</ele>
<time>2010-08-29T16:56:53Z</time>
<desc>lat.=55.990650, lon.=26.411772, Alt.=90.186584m. Speed=23.868000m/h.</desc>
<speed>6.630000</speed>
</trkpt>
<trkpt lat="55.990601" lon="26.411833">
<ele>90.364319</ele>
<time>2010-08-29T16:56:54Z</time>
<desc>lat.=55.990601, lon.=26.411833, Alt.=90.364319m. Speed=24.011999m/h.</desc>
<speed>6.670000</speed>
</trkpt>
<trkpt lat="55.990551" lon="26.411892">
<ele>90.491272</ele>
<time>2010-08-29T16:56:55Z</time>
<desc>lat.=55.990551, lon.=26.411892, Alt.=90.491272m. Speed=24.372000m/h.</desc>
<speed>6.770000</speed>
</trkpt>
<trkpt lat="55.990501" lon="26.411953">
<ele>90.518616</ele>
<time>2010-08-29T16:56:56Z</time>
<desc>lat.=55.990501, lon.=26.411953, Alt.=90.518616m. Speed=24.299999m/h.</desc>
<speed>6.750000</speed>
</trkpt>
<trkpt lat="55.990452" lon="26.412014">
<ele>90.672913</ele>
<time>2010-08-29T16:56:57Z</time>
<desc>lat.=55.990452, lon.=26.412014, Alt.=90.672913m. Speed=23.796000m/h.</desc>
<speed>6.610000</speed>
</trkpt>
<trkpt lat="55.990406" lon="26.412075">
<ele>90.788147</ele>
<time>2010-08-29T16:56:58Z</time>
<desc>lat.=55.990406, lon.=26.412075, Alt.=90.788147m. Speed=23.507999m/h.</desc>
<speed>6.530000</speed>
</trkpt>
<trkpt lat="55.990356" lon="26.412136">
<ele>90.768616</ele>
<time>2010-08-29T16:56:59Z</time>
<desc>lat.=55.990356, lon.=26.412136, Alt.=90.768616m. Speed=23.184000m/h.</desc>
<speed>6.440000</speed>
</trkpt>
<trkpt lat="55.990311" lon="26.412195">
<ele>91.053772</ele>
<time>2010-08-29T16:57:00Z</time>
<desc>lat.=55.990311, lon.=26.412195, Alt.=91.053772m. Speed=22.896000m/h.</desc>
<speed>6.360000</speed>
</trkpt>
<trkpt lat="55.990265" lon="26.412251">
<ele>91.086975</ele>
<time>2010-08-29T16:57:01Z</time>
<desc>lat.=55.990265, lon.=26.412251, Alt.=91.086975m. Speed=22.320000m/h.</desc>
<speed>6.200000</speed>
</trkpt>
<trkpt lat="55.990223" lon="26.412310">
<ele>91.116272</ele>
<time>2010-08-29T16:57:02Z</time>
<desc>lat.=55.990223, lon.=26.412310, Alt.=91.116272m. Speed=22.068001m/h.</desc>
<speed>6.130000</speed>
</trkpt>
<trkpt lat="55.990181" lon="26.412367">
<ele>91.342834</ele>
<time>2010-08-29T16:57:03Z</time>
<desc>lat.=55.990181, lon.=26.412367, Alt.=91.342834m. Speed=21.743999m/h.</desc>
<speed>6.040000</speed>
</trkpt>
<trkpt lat="55.990135" lon="26.412418">
<ele>91.545959</ele>
<time>2010-08-29T16:57:04Z</time>
<desc>lat.=55.990135, lon.=26.412418, Alt.=91.545959m. Speed=21.492001m/h.</desc>
<speed>5.970000</speed>
</trkpt>
<trkpt lat="55.990093" lon="26.412472">
<ele>91.612366</ele>
<time>2010-08-29T16:57:05Z</time>
<desc>lat.=55.990093, lon.=26.412472, Alt.=91.612366m. Speed=21.348000m/h.</desc>
<speed>5.930000</speed>
</trkpt>
<trkpt lat="55.990047" lon="26.412518">
<ele>91.794006</ele>
<time>2010-08-29T16:57:06Z</time>
<desc>lat.=55.990047, lon.=26.412518, Alt.=91.794006m. Speed=20.628000m/h.</desc>
<speed>5.730000</speed>
</trkpt>
<trkpt lat="55.990002" lon="26.412561">
<ele>91.817444</ele>
<time>2010-08-29T16:57:07Z</time>
<desc>lat.=55.990002, lon.=26.412561, Alt.=91.817444m. Speed=20.591999m/h.</desc>
<speed>5.720000</speed>
</trkpt>
<trkpt lat="55.989960" lon="26.412609">
<ele>92.006897</ele>
<time>2010-08-29T16:57:08Z</time>
<desc>lat.=55.989960, lon.=26.412609, Alt.=92.006897m. Speed=20.412001m/h.</desc>
<speed>5.670000</speed>
</trkpt>
<trkpt lat="55.989914" lon="26.412657">
<ele>92.198303</ele>
<time>2010-08-29T16:57:09Z</time>
<desc>lat.=55.989914, lon.=26.412657, Alt.=92.198303m. Speed=20.195999m/h.</desc>
<speed>5.610000</speed>
</trkpt>
<trkpt lat="55.989872" lon="26.412706">
<ele>92.471741</ele>
<time>2010-08-29T16:57:10Z</time>
<desc>lat.=55.989872, lon.=26.412706, Alt.=92.471741m. Speed=19.944000m/h.</desc>
<speed>5.540000</speed>
</trkpt>
<trkpt lat="55.989834" lon="26.412754">
<ele>92.620178</ele>
<time>2010-08-29T16:57:11Z</time>
<desc>lat.=55.989834, lon.=26.412754, Alt.=92.620178m. Speed=19.656000m/h.</desc>
<speed>5.460000</speed>
</trkpt>
<trkpt lat="55.989792" lon="26.412804">
<ele>92.715881</ele>
<time>2010-08-29T16:57:12Z</time>
<desc>lat.=55.989792, lon.=26.412804, Alt.=92.715881m. Speed=19.440001m/h.</desc>
<speed>5.400000</speed>
</trkpt>
<trkpt lat="55.989754" lon="26.412855">
<ele>93.153381</ele>
<time>2010-08-29T16:57:13Z</time>
<desc>lat.=55.989754, lon.=26.412855, Alt.=93.153381m. Speed=19.296000m/h.</desc>
<speed>5.360000</speed>
</trkpt>
<trkpt lat="55.989716" lon="26.412907">
<ele>93.516663</ele>
<time>2010-08-29T16:57:14Z</time>
<desc>lat.=55.989716, lon.=26.412907, Alt.=93.516663m. Speed=18.900000m/h.</desc>
<speed>5.250000</speed>
</trkpt>
<trkpt lat="55.989681" lon="26.412956">
<ele>93.817444</ele>
<time>2010-08-29T16:57:15Z</time>
<desc>lat.=55.989681, lon.=26.412956, Alt.=93.817444m. Speed=18.719999m/h.</desc>
<speed>5.200000</speed>
</trkpt>
<trkpt lat="55.989643" lon="26.413002">
<ele>94.118225</ele>
<time>2010-08-29T16:57:16Z</time>
<desc>lat.=55.989643, lon.=26.413002, Alt.=94.118225m. Speed=18.431999m/h.</desc>
<speed>5.120000</speed>
</trkpt>
<trkpt lat="55.989605" lon="26.413052">
<ele>94.219788</ele>
<time>2010-08-29T16:57:17Z</time>
<desc>lat.=55.989605, lon.=26.413052, Alt.=94.219788m. Speed=18.216000m/h.</desc>
<speed>5.060000</speed>
</trkpt>
<trkpt lat="55.989567" lon="26.413094">
<ele>94.391663</ele>
<time>2010-08-29T16:57:18Z</time>
<desc>lat.=55.989567, lon.=26.413094, Alt.=94.391663m. Speed=17.639999m/h.</desc>
<speed>4.900000</speed>
</trkpt>
<trkpt lat="55.989529" lon="26.413136">
<ele>94.098694</ele>
<time>2010-08-29T16:57:19Z</time>
<desc>lat.=55.989529, lon.=26.413136, Alt.=94.098694m. Speed=18.143999m/h.</desc>
<speed>5.040000</speed>
</trkpt>
<trkpt lat="55.989491" lon="26.413183">
<ele>94.264709</ele>
<time>2010-08-29T16:57:20Z</time>
<desc>lat.=55.989491, lon.=26.413183, Alt.=94.264709m. Speed=18.540001m/h.</desc>
<speed>5.150000</speed>
</trkpt>
<trkpt lat="55.989452" lon="26.413231">
<ele>94.254944</ele>
<time>2010-08-29T16:57:21Z</time>
<desc>lat.=55.989452, lon.=26.413231, Alt.=94.254944m. Speed=18.936001m/h.</desc>
<speed>5.260000</speed>
</trkpt>
<trkpt lat="55.989414" lon="26.413280">
<ele>94.450256</ele>
<time>2010-08-29T16:57:22Z</time>
<desc>lat.=55.989414, lon.=26.413280, Alt.=94.450256m. Speed=18.540001m/h.</desc>
<speed>5.150000</speed>
</trkpt>
<trkpt lat="55.989380" lon="26.413332">
<ele>95.067444</ele>
<time>2010-08-29T16:57:23Z</time>
<desc>lat.=55.989380, lon.=26.413332, Alt.=95.067444m. Speed=18.216000m/h.</desc>
<speed>5.060000</speed>
</trkpt>
<trkpt lat="55.989346" lon="26.413385">
<ele>95.649475</ele>
<time>2010-08-29T16:57:24Z</time>
<desc>lat.=55.989346, lon.=26.413385, Alt.=95.649475m. Speed=18.035999m/h.</desc>
<speed>5.010000</speed>
</trkpt>
<trkpt lat="55.989311" lon="26.413433">
<ele>95.567444</ele>
<time>2010-08-29T16:57:25Z</time>
<desc>lat.=55.989311, lon.=26.413433, Alt.=95.567444m. Speed=17.568001m/h.</desc>
<speed>4.880000</speed>
</trkpt>
<trkpt lat="55.989277" lon="26.413479">
<ele>95.870178</ele>
<time>2010-08-29T16:57:26Z</time>
<desc>lat.=55.989277, lon.=26.413479, Alt.=95.870178m. Speed=17.424000m/h.</desc>
<speed>4.840000</speed>
</trkpt>
<trkpt lat="55.989243" lon="26.413523">
<ele>96.077209</ele>
<time>2010-08-29T16:57:27Z</time>
<desc>lat.=55.989243, lon.=26.413523, Alt.=96.077209m. Speed=17.208000m/h.</desc>
<speed>4.780000</speed>
</trkpt>
<trkpt lat="55.989208" lon="26.413565">
<ele>96.034241</ele>
<time>2010-08-29T16:57:28Z</time>
<desc>lat.=55.989208, lon.=26.413565, Alt.=96.034241m. Speed=16.992001m/h.</desc>
<speed>4.720000</speed>
</trkpt>
<trkpt lat="55.989174" lon="26.413605">
<ele>95.805725</ele>
<time>2010-08-29T16:57:29Z</time>
<desc>lat.=55.989174, lon.=26.413605, Alt.=95.805725m. Speed=16.632000m/h.</desc>
<speed>4.620000</speed>
</trkpt>
<trkpt lat="55.989140" lon="26.413651">
<ele>96.059631</ele>
<time>2010-08-29T16:57:30Z</time>
<desc>lat.=55.989140, lon.=26.413651, Alt.=96.059631m. Speed=16.559999m/h.</desc>
<speed>4.600000</speed>
</trkpt>
<trkpt lat="55.989105" lon="26.413698">
<ele>96.235413</ele>
<time>2010-08-29T16:57:31Z</time>
<desc>lat.=55.989105, lon.=26.413698, Alt.=96.235413m. Speed=19.260000m/h.</desc>
<speed>5.350000</speed>
</trkpt>
<trkpt lat="55.989067" lon="26.413748">
<ele>96.538147</ele>
<time>2010-08-29T16:57:32Z</time>
<desc>lat.=55.989067, lon.=26.413748, Alt.=96.538147m. Speed=16.559999m/h.</desc>
<speed>4.600000</speed>
</trkpt>
<trkpt lat="55.989033" lon="26.413792">
<ele>96.872131</ele>
<time>2010-08-29T16:57:33Z</time>
<desc>lat.=55.989033, lon.=26.413792, Alt.=96.872131m. Speed=16.379999m/h.</desc>
<speed>4.550000</speed>
</trkpt>
<trkpt lat="55.989002" lon="26.413836">
<ele>98.086975</ele>
<time>2010-08-29T16:57:34Z</time>
<desc>lat.=55.989002, lon.=26.413836, Alt.=98.086975m. Speed=16.020000m/h.</desc>
<speed>4.450000</speed>
</trkpt>
<trkpt lat="55.988968" lon="26.413876">
<ele>98.614319</ele>
<time>2010-08-29T16:57:35Z</time>
<desc>lat.=55.988968, lon.=26.413876, Alt.=98.614319m. Speed=15.984000m/h.</desc>
<speed>4.440000</speed>
</trkpt>
<trkpt lat="55.988934" lon="26.413919">
<ele>98.608459</ele>
<time>2010-08-29T16:57:36Z</time>
<desc>lat.=55.988934, lon.=26.413919, Alt.=98.608459m. Speed=16.884001m/h.</desc>
<speed>4.690000</speed>
</trkpt>
<trkpt lat="55.988899" lon="26.413960">
<ele>98.735413</ele>
<time>2010-08-29T16:57:37Z</time>
<desc>lat.=55.988899, lon.=26.413960, Alt.=98.735413m. Speed=17.136000m/h.</desc>
<speed>4.760000</speed>
</trkpt>
<trkpt lat="55.988865" lon="26.414001">
<ele>98.975647</ele>
<time>2010-08-29T16:57:38Z</time>
<desc>lat.=55.988865, lon.=26.414001, Alt.=98.975647m. Speed=16.920000m/h.</desc>
<speed>4.700000</speed>
</trkpt>
<trkpt lat="55.988831" lon="26.414045">
<ele>99.399475</ele>
<time>2010-08-29T16:57:39Z</time>
<desc>lat.=55.988831, lon.=26.414045, Alt.=99.399475m. Speed=16.955999m/h.</desc>
<speed>4.710000</speed>
</trkpt>
<trkpt lat="55.988796" lon="26.414089">
<ele>99.471741</ele>
<time>2010-08-29T16:57:40Z</time>
<desc>lat.=55.988796, lon.=26.414089, Alt.=99.471741m. Speed=16.740000m/h.</desc>
<speed>4.650000</speed>
</trkpt>
<trkpt lat="55.988762" lon="26.414129">
<ele>98.764709</ele>
<time>2010-08-29T16:57:41Z</time>
<desc>lat.=55.988762, lon.=26.414129, Alt.=98.764709m. Speed=16.488001m/h.</desc>
<speed>4.580000</speed>
</trkpt>
<trkpt lat="55.988728" lon="26.414171">
<ele>99.012756</ele>
<time>2010-08-29T16:57:42Z</time>
<desc>lat.=55.988728, lon.=26.414171, Alt.=99.012756m. Speed=16.164000m/h.</desc>
<speed>4.490000</speed>
</trkpt>
<trkpt lat="55.988697" lon="26.414213">
<ele>99.237366</ele>
<time>2010-08-29T16:57:43Z</time>
<desc>lat.=55.988697, lon.=26.414213, Alt.=99.237366m. Speed=15.804000m/h.</desc>
<speed>4.390000</speed>
</trkpt>
<trkpt lat="55.988663" lon="26.414253">
<ele>99.475647</ele>
<time>2010-08-29T16:57:44Z</time>
<desc>lat.=55.988663, lon.=26.414253, Alt.=99.475647m. Speed=16.200001m/h.</desc>
<speed>4.500000</speed>
</trkpt>
<trkpt lat="55.988632" lon="26.414293">
<ele>99.436584</ele>
<time>2010-08-29T16:57:45Z</time>
<desc>lat.=55.988632, lon.=26.414293, Alt.=99.436584m. Speed=15.228000m/h.</desc>
<speed>4.230000</speed>
</trkpt>
<trkpt lat="55.988602" lon="26.414333">
<ele>99.286194</ele>
<time>2010-08-29T16:57:46Z</time>
<desc>lat.=55.988602, lon.=26.414333, Alt.=99.286194m. Speed=14.976000m/h.</desc>
<speed>4.160000</speed>
</trkpt>
<trkpt lat="55.988571" lon="26.414368">
<ele>99.452209</ele>
<time>2010-08-29T16:57:47Z</time>
<desc>lat.=55.988571, lon.=26.414368, Alt.=99.452209m. Speed=14.724000m/h.</desc>
<speed>4.090000</speed>
</trkpt>
<trkpt lat="55.988541" lon="26.414400">
<ele>99.586975</ele>
<time>2010-08-29T16:57:48Z</time>
<desc>lat.=55.988541, lon.=26.414400, Alt.=99.586975m. Speed=14.256000m/h.</desc>
<speed>3.960000</speed>
</trkpt>
<trkpt lat="55.988514" lon="26.414434">
<ele>99.508850</ele>
<time>2010-08-29T16:57:49Z</time>
<desc>lat.=55.988514, lon.=26.414434, Alt.=99.508850m. Speed=13.536000m/h.</desc>
<speed>3.760000</speed>
</trkpt>
<trkpt lat="55.988483" lon="26.414471">
<ele>99.790100</ele>
<time>2010-08-29T16:57:50Z</time>
<desc>lat.=55.988483, lon.=26.414471, Alt.=99.790100m. Speed=13.464000m/h.</desc>
<speed>3.740000</speed>
</trkpt>
<trkpt lat="55.988461" lon="26.414503">
<ele>99.323303</ele>
<time>2010-08-29T16:57:51Z</time>
<desc>lat.=55.988461, lon.=26.414503, Alt.=99.323303m. Speed=13.572000m/h.</desc>
<speed>3.770000</speed>
</trkpt>
<trkpt lat="55.988434" lon="26.414537">
<ele>99.159241</ele>
<time>2010-08-29T16:57:52Z</time>
<desc>lat.=55.988434, lon.=26.414537, Alt.=99.159241m. Speed=14.400000m/h.</desc>
<speed>4.000000</speed>
</trkpt>
<trkpt lat="55.988403" lon="26.414576">
<ele>98.995178</ele>
<time>2010-08-29T16:57:53Z</time>
<desc>lat.=55.988403, lon.=26.414576, Alt.=98.995178m. Speed=14.904000m/h.</desc>
<speed>4.140000</speed>
</trkpt>
<trkpt lat="55.988373" lon="26.414614">
<ele>99.001038</ele>
<time>2010-08-29T16:57:54Z</time>
<desc>lat.=55.988373, lon.=26.414614, Alt.=99.001038m. Speed=14.688000m/h.</desc>
<speed>4.080000</speed>
</trkpt>
<trkpt lat="55.988346" lon="26.414654">
<ele>98.799866</ele>
<time>2010-08-29T16:57:55Z</time>
<desc>lat.=55.988346, lon.=26.414654, Alt.=98.799866m. Speed=14.472000m/h.</desc>
<speed>4.020000</speed>
</trkpt>
<trkpt lat="55.988316" lon="26.414690">
<ele>98.817444</ele>
<time>2010-08-29T16:57:56Z</time>
<desc>lat.=55.988316, lon.=26.414690, Alt.=98.817444m. Speed=14.400000m/h.</desc>
<speed>4.000000</speed>
</trkpt>
<trkpt lat="55.988285" lon="26.414730">
<ele>98.754944</ele>
<time>2010-08-29T16:57:57Z</time>
<desc>lat.=55.988285, lon.=26.414730, Alt.=98.754944m. Speed=16.020000m/h.</desc>
<speed>4.450000</speed>
</trkpt>
<trkpt lat="55.988258" lon="26.414768">
<ele>98.776428</ele>
<time>2010-08-29T16:57:58Z</time>
<desc>lat.=55.988258, lon.=26.414768, Alt.=98.776428m. Speed=15.192000m/h.</desc>
<speed>4.220000</speed>
</trkpt>
<trkpt lat="55.988228" lon="26.414810">
<ele>98.641663</ele>
<time>2010-08-29T16:57:59Z</time>
<desc>lat.=55.988228, lon.=26.414810, Alt.=98.641663m. Speed=16.416000m/h.</desc>
<speed>4.560000</speed>
</trkpt>
<trkpt lat="55.988194" lon="26.414856">
<ele>98.620178</ele>
<time>2010-08-29T16:58:00Z</time>
<desc>lat.=55.988194, lon.=26.414856, Alt.=98.620178m. Speed=17.136000m/h.</desc>
<speed>4.760000</speed>
</trkpt>
<trkpt lat="55.988159" lon="26.414902">
<ele>98.264709</ele>
<time>2010-08-29T16:58:01Z</time>
<desc>lat.=55.988159, lon.=26.414902, Alt.=98.264709m. Speed=16.884001m/h.</desc>
<speed>4.690000</speed>
</trkpt>
<trkpt lat="55.988125" lon="26.414948">
<ele>97.938538</ele>
<time>2010-08-29T16:58:02Z</time>
<desc>lat.=55.988125, lon.=26.414948, Alt.=97.938538m. Speed=16.704000m/h.</desc>
<speed>4.640000</speed>
</trkpt>
<trkpt lat="55.988091" lon="26.414989">
<ele>97.858459</ele>
<time>2010-08-29T16:58:03Z</time>
<desc>lat.=55.988091, lon.=26.414989, Alt.=97.858459m. Speed=16.488001m/h.</desc>
<speed>4.580000</speed>
</trkpt>
<trkpt lat="55.988056" lon="26.415031">
<ele>97.727600</ele>
<time>2010-08-29T16:58:04Z</time>
<desc>lat.=55.988056, lon.=26.415031, Alt.=97.727600m. Speed=16.236000m/h.</desc>
<speed>4.510000</speed>
</trkpt>
<trkpt lat="55.988022" lon="26.415073">
<ele>97.864319</ele>
<time>2010-08-29T16:58:05Z</time>
<desc>lat.=55.988022, lon.=26.415073, Alt.=97.864319m. Speed=16.020000m/h.</desc>
<speed>4.450000</speed>
</trkpt>
<trkpt lat="55.987991" lon="26.415115">
<ele>97.579163</ele>
<time>2010-08-29T16:58:06Z</time>
<desc>lat.=55.987991, lon.=26.415115, Alt.=97.579163m. Speed=15.768000m/h.</desc>
<speed>4.380000</speed>
</trkpt>
<trkpt lat="55.987961" lon="26.415154">
<ele>97.688538</ele>
<time>2010-08-29T16:58:07Z</time>
<desc>lat.=55.987961, lon.=26.415154, Alt.=97.688538m. Speed=15.624000m/h.</desc>
<speed>4.340000</speed>
</trkpt>
<trkpt lat="55.987930" lon="26.415195">
<ele>97.790100</ele>
<time>2010-08-29T16:58:08Z</time>
<desc>lat.=55.987930, lon.=26.415195, Alt.=97.790100m. Speed=15.444000m/h.</desc>
<speed>4.290000</speed>
</trkpt>
<trkpt lat="55.987900" lon="26.415234">
<ele>97.643616</ele>
<time>2010-08-29T16:58:09Z</time>
<desc>lat.=55.987900, lon.=26.415234, Alt.=97.643616m. Speed=15.264000m/h.</desc>
<speed>4.240000</speed>
</trkpt>
<trkpt lat="55.987869" lon="26.415268">
<ele>97.813538</ele>
<time>2010-08-29T16:58:10Z</time>
<desc>lat.=55.987869, lon.=26.415268, Alt.=97.813538m. Speed=13.212000m/h.</desc>
<speed>3.670000</speed>
</trkpt>
<trkpt lat="55.987839" lon="26.415302">
<ele>97.795959</ele>
<time>2010-08-29T16:58:11Z</time>
<desc>lat.=55.987839, lon.=26.415302, Alt.=97.795959m. Speed=15.516000m/h.</desc>
<speed>4.310000</speed>
</trkpt>
<trkpt lat="55.987804" lon="26.415342">
<ele>97.528381</ele>
<time>2010-08-29T16:58:12Z</time>
<desc>lat.=55.987804, lon.=26.415342, Alt.=97.528381m. Speed=16.128000m/h.</desc>
<speed>4.480000</speed>
</trkpt>
<trkpt lat="55.987770" lon="26.415384">
<ele>97.467834</ele>
<time>2010-08-29T16:58:13Z</time>
<desc>lat.=55.987770, lon.=26.415384, Alt.=97.467834m. Speed=16.416000m/h.</desc>
<speed>4.560000</speed>
</trkpt>
<trkpt lat="55.987740" lon="26.415426">
<ele>97.295959</ele>
<time>2010-08-29T16:58:14Z</time>
<desc>lat.=55.987740, lon.=26.415426, Alt.=97.295959m. Speed=16.344000m/h.</desc>
<speed>4.540000</speed>
</trkpt>
<trkpt lat="55.987705" lon="26.415470">
<ele>97.356506</ele>
<time>2010-08-29T16:58:15Z</time>
<desc>lat.=55.987705, lon.=26.415470, Alt.=97.356506m. Speed=16.128000m/h.</desc>
<speed>4.480000</speed>
</trkpt>
<trkpt lat="55.987675" lon="26.415514">
<ele>97.284241</ele>
<time>2010-08-29T16:58:16Z</time>
<desc>lat.=55.987675, lon.=26.415514, Alt.=97.284241m. Speed=15.804000m/h.</desc>
<speed>4.390000</speed>
</trkpt>
<trkpt lat="55.987640" lon="26.415554">
<ele>97.294006</ele>
<time>2010-08-29T16:58:17Z</time>
<desc>lat.=55.987640, lon.=26.415554, Alt.=97.294006m. Speed=15.696000m/h.</desc>
<speed>4.360000</speed>
</trkpt>
<trkpt lat="55.987610" lon="26.415598">
<ele>97.450256</ele>
<time>2010-08-29T16:58:18Z</time>
<desc>lat.=55.987610, lon.=26.415598, Alt.=97.450256m. Speed=16.344000m/h.</desc>
<speed>4.540000</speed>
</trkpt>
<trkpt lat="55.987576" lon="26.415640">
<ele>97.512756</ele>
<time>2010-08-29T16:58:19Z</time>
<desc>lat.=55.987576, lon.=26.415640, Alt.=97.512756m. Speed=16.488001m/h.</desc>
<speed>4.580000</speed>
</trkpt>
<trkpt lat="55.987545" lon="26.415682">
<ele>97.786194</ele>
<time>2010-08-29T16:58:20Z</time>
<desc>lat.=55.987545, lon.=26.415682, Alt.=97.786194m. Speed=16.920000m/h.</desc>
<speed>4.700000</speed>
</trkpt>
<trkpt lat="55.987511" lon="26.415724">
<ele>97.961975</ele>
<time>2010-08-29T16:58:21Z</time>
<desc>lat.=55.987511, lon.=26.415724, Alt.=97.961975m. Speed=16.740000m/h.</desc>
<speed>4.650000</speed>
</trkpt>
<trkpt lat="55.987476" lon="26.415766">
<ele>98.086975</ele>
<time>2010-08-29T16:58:22Z</time>
<desc>lat.=55.987476, lon.=26.415766, Alt.=98.086975m. Speed=16.452000m/h.</desc>
<speed>4.570000</speed>
</trkpt>
<trkpt lat="55.987442" lon="26.415806">
<ele>98.210022</ele>
<time>2010-08-29T16:58:23Z</time>
<desc>lat.=55.987442, lon.=26.415806, Alt.=98.210022m. Speed=15.696000m/h.</desc>
<speed>4.360000</speed>
</trkpt>
<trkpt lat="55.987408" lon="26.415852">
<ele>98.573303</ele>
<time>2010-08-29T16:58:24Z</time>
<desc>lat.=55.987408, lon.=26.415852, Alt.=98.573303m. Speed=17.424000m/h.</desc>
<speed>4.840000</speed>
</trkpt>
<trkpt lat="55.987370" lon="26.415897">
<ele>98.692444</ele>
<time>2010-08-29T16:58:25Z</time>
<desc>lat.=55.987370, lon.=26.415897, Alt.=98.692444m. Speed=16.884001m/h.</desc>
<speed>4.690000</speed>
</trkpt>
<trkpt lat="55.987335" lon="26.415937">
<ele>98.797913</ele>
<time>2010-08-29T16:58:26Z</time>
<desc>lat.=55.987335, lon.=26.415937, Alt.=98.797913m. Speed=16.632000m/h.</desc>
<speed>4.620000</speed>
</trkpt>
<trkpt lat="55.987297" lon="26.415981">
<ele>98.704163</ele>
<time>2010-08-29T16:58:27Z</time>
<desc>lat.=55.987297, lon.=26.415981, Alt.=98.704163m. Speed=16.308001m/h.</desc>
<speed>4.530000</speed>
</trkpt>
<trkpt lat="55.987267" lon="26.416031">
<ele>98.973694</ele>
<time>2010-08-29T16:58:28Z</time>
<desc>lat.=55.987267, lon.=26.416031, Alt.=98.973694m. Speed=16.091999m/h.</desc>
<speed>4.470000</speed>
</trkpt>
<trkpt lat="55.987236" lon="26.416073">
<ele>98.766663</ele>
<time>2010-08-29T16:58:29Z</time>
<desc>lat.=55.987236, lon.=26.416073, Alt.=98.766663m. Speed=15.768000m/h.</desc>
<speed>4.380000</speed>
</trkpt>
<trkpt lat="55.987202" lon="26.416113">
<ele>98.139709</ele>
<time>2010-08-29T16:58:30Z</time>
<desc>lat.=55.987202, lon.=26.416113, Alt.=98.139709m. Speed=15.336000m/h.</desc>
<speed>4.260000</speed>
</trkpt>
<trkpt lat="55.987171" lon="26.416153">
<ele>98.325256</ele>
<time>2010-08-29T16:58:31Z</time>
<desc>lat.=55.987171, lon.=26.416153, Alt.=98.325256m. Speed=15.264000m/h.</desc>
<speed>4.240000</speed>
</trkpt>
<trkpt lat="55.987137" lon="26.416191">
<ele>98.405334</ele>
<time>2010-08-29T16:58:32Z</time>
<desc>lat.=55.987137, lon.=26.416191, Alt.=98.405334m. Speed=14.796000m/h.</desc>
<speed>4.110000</speed>
</trkpt>
<trkpt lat="55.987106" lon="26.416231">
<ele>98.358459</ele>
<time>2010-08-29T16:58:33Z</time>
<desc>lat.=55.987106, lon.=26.416231, Alt.=98.358459m. Speed=15.552000m/h.</desc>
<speed>4.320000</speed>
</trkpt>
<trkpt lat="55.987072" lon="26.416275">
<ele>98.430725</ele>
<time>2010-08-29T16:58:34Z</time>
<desc>lat.=55.987072, lon.=26.416275, Alt.=98.430725m. Speed=16.524000m/h.</desc>
<speed>4.590000</speed>
</trkpt>
<trkpt lat="55.987034" lon="26.416323">
<ele>98.223694</ele>
<time>2010-08-29T16:58:35Z</time>
<desc>lat.=55.987034, lon.=26.416323, Alt.=98.223694m. Speed=19.332001m/h.</desc>
<speed>5.370000</speed>
</trkpt>
<trkpt lat="55.986996" lon="26.416368">
<ele>98.270569</ele>
<time>2010-08-29T16:58:36Z</time>
<desc>lat.=55.986996, lon.=26.416368, Alt.=98.270569m. Speed=18.612000m/h.</desc>
<speed>5.170000</speed>
</trkpt>
<trkpt lat="55.986958" lon="26.416414">
<ele>98.161194</ele>
<time>2010-08-29T16:58:37Z</time>
<desc>lat.=55.986958, lon.=26.416414, Alt.=98.161194m. Speed=18.900000m/h.</desc>
<speed>5.250000</speed>
</trkpt>
<trkpt lat="55.986919" lon="26.416464">
<ele>98.426819</ele>
<time>2010-08-29T16:58:38Z</time>
<desc>lat.=55.986919, lon.=26.416464, Alt.=98.426819m. Speed=19.691999m/h.</desc>
<speed>5.470000</speed>
</trkpt>
<trkpt lat="55.986881" lon="26.416513">
<ele>98.376038</ele>
<time>2010-08-29T16:58:39Z</time>
<desc>lat.=55.986881, lon.=26.416513, Alt.=98.376038m. Speed=20.448000m/h.</desc>
<speed>5.680000</speed>
</trkpt>
<trkpt lat="55.986835" lon="26.416565">
<ele>97.913147</ele>
<time>2010-08-29T16:58:40Z</time>
<desc>lat.=55.986835, lon.=26.416565, Alt.=97.913147m. Speed=21.059999m/h.</desc>
<speed>5.850000</speed>
</trkpt>
<trkpt lat="55.986794" lon="26.416622">
<ele>97.911194</ele>
<time>2010-08-29T16:58:41Z</time>
<desc>lat.=55.986794, lon.=26.416622, Alt.=97.911194m. Speed=21.708000m/h.</desc>
<speed>6.030000</speed>
</trkpt>
<trkpt lat="55.986748" lon="26.416681">
<ele>98.221741</ele>
<time>2010-08-29T16:58:42Z</time>
<desc>lat.=55.986748, lon.=26.416681, Alt.=98.221741m. Speed=22.284000m/h.</desc>
<speed>6.190000</speed>
</trkpt>
<trkpt lat="55.986702" lon="26.416739">
<ele>98.002991</ele>
<time>2010-08-29T16:58:43Z</time>
<desc>lat.=55.986702, lon.=26.416739, Alt.=98.002991m. Speed=22.572001m/h.</desc>
<speed>6.270000</speed>
</trkpt>
<trkpt lat="55.986656" lon="26.416792">
<ele>97.909241</ele>
<time>2010-08-29T16:58:44Z</time>
<desc>lat.=55.986656, lon.=26.416792, Alt.=97.909241m. Speed=21.996000m/h.</desc>
<speed>6.110000</speed>
</trkpt>
<trkpt lat="55.986610" lon="26.416847">
<ele>97.989319</ele>
<time>2010-08-29T16:58:45Z</time>
<desc>lat.=55.986610, lon.=26.416847, Alt.=97.989319m. Speed=21.851999m/h.</desc>
<speed>6.070000</speed>
</trkpt>
<trkpt lat="55.986565" lon="26.416904">
<ele>98.085022</ele>
<time>2010-08-29T16:58:46Z</time>
<desc>lat.=55.986565, lon.=26.416904, Alt.=98.085022m. Speed=21.420000m/h.</desc>
<speed>5.950000</speed>
</trkpt>
<trkpt lat="55.986523" lon="26.416960">
<ele>98.016663</ele>
<time>2010-08-29T16:58:47Z</time>
<desc>lat.=55.986523, lon.=26.416960, Alt.=98.016663m. Speed=21.024000m/h.</desc>
<speed>5.840000</speed>
</trkpt>
<trkpt lat="55.986477" lon="26.417015">
<ele>93.715881</ele>
<time>2010-08-29T16:58:48Z</time>
<desc>lat.=55.986477, lon.=26.417015, Alt.=93.715881m. Speed=23.364000m/h.</desc>
<speed>6.490000</speed>
</trkpt>
<trkpt lat="55.986431" lon="26.417070">
<ele>93.905334</ele>
<time>2010-08-29T16:58:49Z</time>
<desc>lat.=55.986431, lon.=26.417070, Alt.=93.905334m. Speed=20.160000m/h.</desc>
<speed>5.600000</speed>
</trkpt>
<trkpt lat="55.986389" lon="26.417116">
<ele>94.612366</ele>
<time>2010-08-29T16:58:50Z</time>
<desc>lat.=55.986389, lon.=26.417116, Alt.=94.612366m. Speed=19.764000m/h.</desc>
<speed>5.490000</speed>
</trkpt>
<trkpt lat="55.986351" lon="26.417166">
<ele>94.602600</ele>
<time>2010-08-29T16:58:51Z</time>
<desc>lat.=55.986351, lon.=26.417166, Alt.=94.602600m. Speed=19.908001m/h.</desc>
<speed>5.530000</speed>
</trkpt>
<trkpt lat="55.986313" lon="26.417213">
<ele>94.460022</ele>
<time>2010-08-29T16:58:52Z</time>
<desc>lat.=55.986313, lon.=26.417213, Alt.=94.460022m. Speed=18.900000m/h.</desc>
<speed>5.250000</speed>
</trkpt>
<trkpt lat="55.986275" lon="26.417265">
<ele>94.342834</ele>
<time>2010-08-29T16:58:53Z</time>
<desc>lat.=55.986275, lon.=26.417265, Alt.=94.342834m. Speed=18.827999m/h.</desc>
<speed>5.230000</speed>
</trkpt>
<trkpt lat="55.986237" lon="26.417315">
<ele>95.102600</ele>
<time>2010-08-29T16:58:54Z</time>
<desc>lat.=55.986237, lon.=26.417315, Alt.=95.102600m. Speed=18.900000m/h.</desc>
<speed>5.250000</speed>
</trkpt>
<trkpt lat="55.986202" lon="26.417360">
<ele>95.610413</ele>
<time>2010-08-29T16:58:55Z</time>
<desc>lat.=55.986202, lon.=26.417360, Alt.=95.610413m. Speed=19.799999m/h.</desc>
<speed>5.500000</speed>
</trkpt>
<trkpt lat="55.986160" lon="26.417414">
<ele>96.563538</ele>
<time>2010-08-29T16:58:56Z</time>
<desc>lat.=55.986160, lon.=26.417414, Alt.=96.563538m. Speed=19.548000m/h.</desc>
<speed>5.430000</speed>
</trkpt>
<trkpt lat="55.986126" lon="26.417465">
<ele>97.053772</ele>
<time>2010-08-29T16:58:57Z</time>
<desc>lat.=55.986126, lon.=26.417465, Alt.=97.053772m. Speed=18.936001m/h.</desc>
<speed>5.260000</speed>
</trkpt>
<trkpt lat="55.986088" lon="26.417515">
<ele>97.143616</ele>
<time>2010-08-29T16:58:58Z</time>
<desc>lat.=55.986088, lon.=26.417515, Alt.=97.143616m. Speed=19.944000m/h.</desc>
<speed>5.540000</speed>
</trkpt>
<trkpt lat="55.986046" lon="26.417568">
<ele>97.151428</ele>
<time>2010-08-29T16:58:59Z</time>
<desc>lat.=55.986046, lon.=26.417568, Alt.=97.151428m. Speed=20.879999m/h.</desc>
<speed>5.800000</speed>
</trkpt>
<trkpt lat="55.986004" lon="26.417627">
<ele>97.085022</ele>
<time>2010-08-29T16:59:00Z</time>
<desc>lat.=55.986004, lon.=26.417627, Alt.=97.085022m. Speed=21.240000m/h.</desc>
<speed>5.900000</speed>
</trkpt>
<trkpt lat="55.985962" lon="26.417679">
<ele>97.061584</ele>
<time>2010-08-29T16:59:01Z</time>
<desc>lat.=55.985962, lon.=26.417679, Alt.=97.061584m. Speed=21.528000m/h.</desc>
<speed>5.980000</speed>
</trkpt>
<trkpt lat="55.985916" lon="26.417730">
<ele>96.987366</ele>
<time>2010-08-29T16:59:02Z</time>
<desc>lat.=55.985916, lon.=26.417730, Alt.=96.987366m. Speed=21.959999m/h.</desc>
<speed>6.100000</speed>
</trkpt>
<trkpt lat="55.985870" lon="26.417786">
<ele>96.977600</ele>
<time>2010-08-29T16:59:03Z</time>
<desc>lat.=55.985870, lon.=26.417786, Alt.=96.977600m. Speed=22.464001m/h.</desc>
<speed>6.240000</speed>
</trkpt>
<trkpt lat="55.985821" lon="26.417845">
<ele>96.932678</ele>
<time>2010-08-29T16:59:04Z</time>
<desc>lat.=55.985821, lon.=26.417845, Alt.=96.932678m. Speed=23.400000m/h.</desc>
<speed>6.500000</speed>
</trkpt>
<trkpt lat="55.985771" lon="26.417902">
<ele>96.909241</ele>
<time>2010-08-29T16:59:05Z</time>
<desc>lat.=55.985771, lon.=26.417902, Alt.=96.909241m. Speed=23.903999m/h.</desc>
<speed>6.640000</speed>
</trkpt>
<trkpt lat="55.985722" lon="26.417961">
<ele>96.922913</ele>
<time>2010-08-29T16:59:06Z</time>
<desc>lat.=55.985722, lon.=26.417961, Alt.=96.922913m. Speed=24.480000m/h.</desc>
<speed>6.800000</speed>
</trkpt>
<trkpt lat="55.985672" lon="26.418028">
<ele>96.952209</ele>
<time>2010-08-29T16:59:07Z</time>
<desc>lat.=55.985672, lon.=26.418028, Alt.=96.952209m. Speed=24.840000m/h.</desc>
<speed>6.900000</speed>
</trkpt>
<trkpt lat="55.985622" lon="26.418093">
<ele>96.952209</ele>
<time>2010-08-29T16:59:08Z</time>
<desc>lat.=55.985622, lon.=26.418093, Alt.=96.952209m. Speed=24.983999m/h.</desc>
<speed>6.940000</speed>
</trkpt>
<trkpt lat="55.985573" lon="26.418159">
<ele>96.907288</ele>
<time>2010-08-29T16:59:09Z</time>
<desc>lat.=55.985573, lon.=26.418159, Alt.=96.907288m. Speed=24.372000m/h.</desc>
<speed>6.770000</speed>
</trkpt>
<trkpt lat="55.985523" lon="26.418222">
<ele>96.817444</ele>
<time>2010-08-29T16:59:10Z</time>
<desc>lat.=55.985523, lon.=26.418222, Alt.=96.817444m. Speed=23.868000m/h.</desc>
<speed>6.630000</speed>
</trkpt>
<trkpt lat="55.985474" lon="26.418285">
<ele>96.934631</ele>
<time>2010-08-29T16:59:11Z</time>
<desc>lat.=55.985474, lon.=26.418285, Alt.=96.934631m. Speed=23.544001m/h.</desc>
<speed>6.540000</speed>
</trkpt>
<trkpt lat="55.985428" lon="26.418343">
<ele>96.932678</ele>
<time>2010-08-29T16:59:12Z</time>
<desc>lat.=55.985428, lon.=26.418343, Alt.=96.932678m. Speed=23.184000m/h.</desc>
<speed>6.440000</speed>
</trkpt>
<trkpt lat="55.985378" lon="26.418404">
<ele>97.100647</ele>
<time>2010-08-29T16:59:13Z</time>
<desc>lat.=55.985378, lon.=26.418404, Alt.=97.100647m. Speed=22.931999m/h.</desc>
<speed>6.370000</speed>
</trkpt>
<trkpt lat="55.985329" lon="26.418461">
<ele>97.288147</ele>
<time>2010-08-29T16:59:14Z</time>
<desc>lat.=55.985329, lon.=26.418461, Alt.=97.288147m. Speed=22.500000m/h.</desc>
<speed>6.250000</speed>
</trkpt>
<trkpt lat="55.985283" lon="26.418516">
<ele>97.331116</ele>
<time>2010-08-29T16:59:15Z</time>
<desc>lat.=55.985283, lon.=26.418516, Alt.=97.331116m. Speed=22.139999m/h.</desc>
<speed>6.150000</speed>
</trkpt>
<trkpt lat="55.985241" lon="26.418573">
<ele>97.370178</ele>
<time>2010-08-29T16:59:16Z</time>
<desc>lat.=55.985241, lon.=26.418573, Alt.=97.370178m. Speed=21.780001m/h.</desc>
<speed>6.050000</speed>
</trkpt>
<trkpt lat="55.985195" lon="26.418629">
<ele>97.348694</ele>
<time>2010-08-29T16:59:17Z</time>
<desc>lat.=55.985195, lon.=26.418629, Alt.=97.348694m. Speed=21.672001m/h.</desc>
<speed>6.020000</speed>
</trkpt>
<trkpt lat="55.985153" lon="26.418682">
<ele>97.280334</ele>
<time>2010-08-29T16:59:18Z</time>
<desc>lat.=55.985153, lon.=26.418682, Alt.=97.280334m. Speed=21.275999m/h.</desc>
<speed>5.910000</speed>
</trkpt>
<trkpt lat="55.985111" lon="26.418737">
<ele>97.161194</ele>
<time>2010-08-29T16:59:19Z</time>
<desc>lat.=55.985111, lon.=26.418737, Alt.=97.161194m. Speed=21.348000m/h.</desc>
<speed>5.930000</speed>
</trkpt>
<trkpt lat="55.985069" lon="26.418793">
<ele>97.598694</ele>
<time>2010-08-29T16:59:20Z</time>
<desc>lat.=55.985069, lon.=26.418793, Alt.=97.598694m. Speed=21.384001m/h.</desc>
<speed>5.940000</speed>
</trkpt>
<trkpt lat="55.985023" lon="26.418848">
<ele>97.346741</ele>
<time>2010-08-29T16:59:21Z</time>
<desc>lat.=55.985023, lon.=26.418848, Alt.=97.346741m. Speed=22.068001m/h.</desc>
<speed>6.130000</speed>
</trkpt>
<trkpt lat="55.984974" lon="26.418901">
<ele>97.301819</ele>
<time>2010-08-29T16:59:22Z</time>
<desc>lat.=55.984974, lon.=26.418901, Alt.=97.301819m. Speed=22.643999m/h.</desc>
<speed>6.290000</speed>
</trkpt>
<trkpt lat="55.984928" lon="26.418962">
<ele>97.407288</ele>
<time>2010-08-29T16:59:23Z</time>
<desc>lat.=55.984928, lon.=26.418962, Alt.=97.407288m. Speed=23.076000m/h.</desc>
<speed>6.410000</speed>
</trkpt>
<trkpt lat="55.984886" lon="26.419027">
<ele>97.579163</ele>
<time>2010-08-29T16:59:24Z</time>
<desc>lat.=55.984886, lon.=26.419027, Alt.=97.579163m. Speed=23.400000m/h.</desc>
<speed>6.500000</speed>
</trkpt>
<trkpt lat="55.984840" lon="26.419088">
<ele>97.782288</ele>
<time>2010-08-29T16:59:25Z</time>
<desc>lat.=55.984840, lon.=26.419088, Alt.=97.782288m. Speed=22.896000m/h.</desc>
<speed>6.360000</speed>
</trkpt>
<trkpt lat="55.984791" lon="26.419149">
<ele>97.854553</ele>
<time>2010-08-29T16:59:26Z</time>
<desc>lat.=55.984791, lon.=26.419149, Alt.=97.854553m. Speed=22.823999m/h.</desc>
<speed>6.340000</speed>
</trkpt>
<trkpt lat="55.984749" lon="26.419201">
<ele>98.348694</ele>
<time>2010-08-29T16:59:27Z</time>
<desc>lat.=55.984749, lon.=26.419201, Alt.=98.348694m. Speed=20.448000m/h.</desc>
<speed>5.680000</speed>
</trkpt>
<trkpt lat="55.984703" lon="26.419254">
<ele>99.458069</ele>
<time>2010-08-29T16:59:28Z</time>
<desc>lat.=55.984703, lon.=26.419254, Alt.=99.458069m. Speed=21.780001m/h.</desc>
<speed>6.050000</speed>
</trkpt>
<trkpt lat="55.984657" lon="26.419313">
<ele>99.485413</ele>
<time>2010-08-29T16:59:29Z</time>
<desc>lat.=55.984657, lon.=26.419313, Alt.=99.485413m. Speed=22.247999m/h.</desc>
<speed>6.180000</speed>
</trkpt>
<trkpt lat="55.984612" lon="26.419374">
<ele>99.430725</ele>
<time>2010-08-29T16:59:30Z</time>
<desc>lat.=55.984612, lon.=26.419374, Alt.=99.430725m. Speed=22.788000m/h.</desc>
<speed>6.330000</speed>
</trkpt>
<trkpt lat="55.984566" lon="26.419436">
<ele>99.481506</ele>
<time>2010-08-29T16:59:31Z</time>
<desc>lat.=55.984566, lon.=26.419436, Alt.=99.481506m. Speed=23.256001m/h.</desc>
<speed>6.460000</speed>
</trkpt>
<trkpt lat="55.984520" lon="26.419498">
<ele>99.329163</ele>
<time>2010-08-29T16:59:32Z</time>
<desc>lat.=55.984520, lon.=26.419498, Alt.=99.329163m. Speed=23.652000m/h.</desc>
<speed>6.570000</speed>
</trkpt>
<trkpt lat="55.984470" lon="26.419556">
<ele>99.331116</ele>
<time>2010-08-29T16:59:33Z</time>
<desc>lat.=55.984470, lon.=26.419556, Alt.=99.331116m. Speed=23.940001m/h.</desc>
<speed>6.650000</speed>
</trkpt>
<trkpt lat="55.984421" lon="26.419621">
<ele>99.340881</ele>
<time>2010-08-29T16:59:34Z</time>
<desc>lat.=55.984421, lon.=26.419621, Alt.=99.340881m. Speed=24.191999m/h.</desc>
<speed>6.720000</speed>
</trkpt>
<trkpt lat="55.984375" lon="26.419685">
<ele>99.352600</ele>
<time>2010-08-29T16:59:35Z</time>
<desc>lat.=55.984375, lon.=26.419685, Alt.=99.352600m. Speed=24.372000m/h.</desc>
<speed>6.770000</speed>
</trkpt>
<trkpt lat="55.984325" lon="26.419750">
<ele>99.215881</ele>
<time>2010-08-29T16:59:36Z</time>
<desc>lat.=55.984325, lon.=26.419750, Alt.=99.215881m. Speed=24.732000m/h.</desc>
<speed>6.870000</speed>
</trkpt>
<trkpt lat="55.984272" lon="26.419813">
<ele>99.231506</ele>
<time>2010-08-29T16:59:37Z</time>
<desc>lat.=55.984272, lon.=26.419813, Alt.=99.231506m. Speed=25.056000m/h.</desc>
<speed>6.960000</speed>
</trkpt>
<trkpt lat="55.984222" lon="26.419872">
<ele>100.108459</ele>
<time>2010-08-29T16:59:38Z</time>
<desc>lat.=55.984222, lon.=26.419872, Alt.=100.108459m. Speed=24.587999m/h.</desc>
<speed>6.830000</speed>
</trkpt>
<trkpt lat="55.984173" lon="26.419935">
<ele>101.432678</ele>
<time>2010-08-29T16:59:39Z</time>
<desc>lat.=55.984173, lon.=26.419935, Alt.=101.432678m. Speed=24.983999m/h.</desc>
<speed>6.940000</speed>
</trkpt>
<trkpt lat="55.984123" lon="26.420002">
<ele>101.973694</ele>
<time>2010-08-29T16:59:40Z</time>
<desc>lat.=55.984123, lon.=26.420002, Alt.=101.973694m. Speed=25.667999m/h.</desc>
<speed>7.130000</speed>
</trkpt>
<trkpt lat="55.984070" lon="26.420069">
<ele>102.336975</ele>
<time>2010-08-29T16:59:41Z</time>
<desc>lat.=55.984070, lon.=26.420069, Alt.=102.336975m. Speed=26.028000m/h.</desc>
<speed>7.230000</speed>
</trkpt>
<trkpt lat="55.984020" lon="26.420139">
<ele>102.442444</ele>
<time>2010-08-29T16:59:42Z</time>
<desc>lat.=55.984020, lon.=26.420139, Alt.=102.442444m. Speed=26.568001m/h.</desc>
<speed>7.380000</speed>
</trkpt>
<trkpt lat="55.983967" lon="26.420212">
<ele>102.461975</ele>
<time>2010-08-29T16:59:43Z</time>
<desc>lat.=55.983967, lon.=26.420212, Alt.=102.461975m. Speed=26.784000m/h.</desc>
<speed>7.440000</speed>
</trkpt>
<trkpt lat="55.983913" lon="26.420282">
<ele>102.526428</ele>
<time>2010-08-29T16:59:44Z</time>
<desc>lat.=55.983913, lon.=26.420282, Alt.=102.526428m. Speed=26.676001m/h.</desc>
<speed>7.410000</speed>
</trkpt>
<trkpt lat="55.983856" lon="26.420353">
<ele>102.497131</ele>
<time>2010-08-29T16:59:45Z</time>
<desc>lat.=55.983856, lon.=26.420353, Alt.=102.497131m. Speed=26.063999m/h.</desc>
<speed>7.240000</speed>
</trkpt>
<trkpt lat="55.983803" lon="26.420418">
<ele>102.383850</ele>
<time>2010-08-29T16:59:46Z</time>
<desc>lat.=55.983803, lon.=26.420418, Alt.=102.383850m. Speed=25.379999m/h.</desc>
<speed>7.050000</speed>
</trkpt>
<trkpt lat="55.983749" lon="26.420481">
<ele>102.196350</ele>
<time>2010-08-29T16:59:47Z</time>
<desc>lat.=55.983749, lon.=26.420481, Alt.=102.196350m. Speed=24.840000m/h.</desc>
<speed>6.900000</speed>
</trkpt>
<trkpt lat="55.983700" lon="26.420544">
<ele>102.016663</ele>
<time>2010-08-29T16:59:48Z</time>
<desc>lat.=55.983700, lon.=26.420544, Alt.=102.016663m. Speed=24.372000m/h.</desc>
<speed>6.770000</speed>
</trkpt>
<trkpt lat="55.983650" lon="26.420605">
<ele>101.920959</ele>
<time>2010-08-29T16:59:49Z</time>
<desc>lat.=55.983650, lon.=26.420605, Alt.=101.920959m. Speed=23.868000m/h.</desc>
<speed>6.630000</speed>
</trkpt>
<trkpt lat="55.983601" lon="26.420664">
<ele>101.780334</ele>
<time>2010-08-29T16:59:50Z</time>
<desc>lat.=55.983601, lon.=26.420664, Alt.=101.780334m. Speed=23.472000m/h.</desc>
<speed>6.520000</speed>
</trkpt>
<trkpt lat="55.983551" lon="26.420723">
<ele>101.682678</ele>
<time>2010-08-29T16:59:51Z</time>
<desc>lat.=55.983551, lon.=26.420723, Alt.=101.682678m. Speed=23.184000m/h.</desc>
<speed>6.440000</speed>
</trkpt>
<trkpt lat="55.983505" lon="26.420784">
<ele>100.700256</ele>
<time>2010-08-29T16:59:52Z</time>
<desc>lat.=55.983505, lon.=26.420784, Alt.=100.700256m. Speed=24.228001m/h.</desc>
<speed>6.730000</speed>
</trkpt>
<trkpt lat="55.983459" lon="26.420845">
<ele>100.196350</ele>
<time>2010-08-29T16:59:53Z</time>
<desc>lat.=55.983459, lon.=26.420845, Alt.=100.196350m. Speed=22.643999m/h.</desc>
<speed>6.290000</speed>
</trkpt>
<trkpt lat="55.983414" lon="26.420904">
<ele>100.083069</ele>
<time>2010-08-29T16:59:54Z</time>
<desc>lat.=55.983414, lon.=26.420904, Alt.=100.083069m. Speed=22.680000m/h.</desc>
<speed>6.300000</speed>
</trkpt>
<trkpt lat="55.983368" lon="26.420963">
<ele>99.938538</ele>
<time>2010-08-29T16:59:55Z</time>
<desc>lat.=55.983368, lon.=26.420963, Alt.=99.938538m. Speed=23.256001m/h.</desc>
<speed>6.460000</speed>
</trkpt>
<trkpt lat="55.983322" lon="26.421019">
<ele>100.022522</ele>
<time>2010-08-29T16:59:56Z</time>
<desc>lat.=55.983322, lon.=26.421019, Alt.=100.022522m. Speed=23.796000m/h.</desc>
<speed>6.610000</speed>
</trkpt>
<trkpt lat="55.983273" lon="26.421076">
<ele>100.024475</ele>
<time>2010-08-29T16:59:57Z</time>
<desc>lat.=55.983273, lon.=26.421076, Alt.=100.024475m. Speed=24.372000m/h.</desc>
<speed>6.770000</speed>
</trkpt>
<trkpt lat="55.983219" lon="26.421141">
<ele>99.860413</ele>
<time>2010-08-29T16:59:58Z</time>
<desc>lat.=55.983219, lon.=26.421141, Alt.=99.860413m. Speed=24.840000m/h.</desc>
<speed>6.900000</speed>
</trkpt>
<trkpt lat="55.983170" lon="26.421204">
<ele>99.751038</ele>
<time>2010-08-29T16:59:59Z</time>
<desc>lat.=55.983170, lon.=26.421204, Alt.=99.751038m. Speed=25.236000m/h.</desc>
<speed>7.010000</speed>
</trkpt>
<trkpt lat="55.983120" lon="26.421270">
<ele>99.758850</ele>
<time>2010-08-29T17:00:00Z</time>
<desc>lat.=55.983120, lon.=26.421270, Alt.=99.758850m. Speed=25.488001m/h.</desc>
<speed>7.080000</speed>
</trkpt>
<trkpt lat="55.983067" lon="26.421337">
<ele>99.639709</ele>
<time>2010-08-29T17:00:01Z</time>
<desc>lat.=55.983067, lon.=26.421337, Alt.=99.639709m. Speed=25.955999m/h.</desc>
<speed>7.210000</speed>
</trkpt>
<trkpt lat="55.983013" lon="26.421404">
<ele>99.542053</ele>
<time>2010-08-29T17:00:02Z</time>
<desc>lat.=55.983013, lon.=26.421404, Alt.=99.542053m. Speed=26.243999m/h.</desc>
<speed>7.290000</speed>
</trkpt>
<trkpt lat="55.982960" lon="26.421471">
<ele>99.522522</ele>
<time>2010-08-29T17:00:03Z</time>
<desc>lat.=55.982960, lon.=26.421471, Alt.=99.522522m. Speed=26.424000m/h.</desc>
<speed>7.340000</speed>
</trkpt>
<trkpt lat="55.982903" lon="26.421535">
<ele>99.698303</ele>
<time>2010-08-29T17:00:04Z</time>
<desc>lat.=55.982903, lon.=26.421535, Alt.=99.698303m. Speed=25.955999m/h.</desc>
<speed>7.210000</speed>
</trkpt>
<trkpt lat="55.982849" lon="26.421600">
<ele>99.422913</ele>
<time>2010-08-29T17:00:05Z</time>
<desc>lat.=55.982849, lon.=26.421600, Alt.=99.422913m. Speed=26.100000m/h.</desc>
<speed>7.250000</speed>
</trkpt>
<trkpt lat="55.982796" lon="26.421665">
<ele>99.510803</ele>
<time>2010-08-29T17:00:06Z</time>
<desc>lat.=55.982796, lon.=26.421665, Alt.=99.510803m. Speed=24.660000m/h.</desc>
<speed>6.850000</speed>
</trkpt>
<trkpt lat="55.982746" lon="26.421730">
<ele>99.518616</ele>
<time>2010-08-29T17:00:07Z</time>
<desc>lat.=55.982746, lon.=26.421730, Alt.=99.518616m. Speed=25.020000m/h.</desc>
<speed>6.950000</speed>
</trkpt>
<trkpt lat="55.982693" lon="26.421795">
<ele>99.540100</ele>
<time>2010-08-29T17:00:08Z</time>
<desc>lat.=55.982693, lon.=26.421795, Alt.=99.540100m. Speed=24.228001m/h.</desc>
<speed>6.730000</speed>
</trkpt>
<trkpt lat="55.982643" lon="26.421858">
<ele>99.335022</ele>
<time>2010-08-29T17:00:09Z</time>
<desc>lat.=55.982643, lon.=26.421858, Alt.=99.335022m. Speed=24.840000m/h.</desc>
<speed>6.900000</speed>
</trkpt>
<trkpt lat="55.982590" lon="26.421921">
<ele>98.979553</ele>
<time>2010-08-29T17:00:10Z</time>
<desc>lat.=55.982590, lon.=26.421921, Alt.=98.979553m. Speed=25.308001m/h.</desc>
<speed>7.030000</speed>
</trkpt>
<trkpt lat="55.982536" lon="26.421986">
<ele>99.180725</ele>
<time>2010-08-29T17:00:11Z</time>
<desc>lat.=55.982536, lon.=26.421986, Alt.=99.180725m. Speed=25.920000m/h.</desc>
<speed>7.200000</speed>
</trkpt>
<trkpt lat="55.982483" lon="26.422054">
<ele>99.172913</ele>
<time>2010-08-29T17:00:12Z</time>
<desc>lat.=55.982483, lon.=26.422054, Alt.=99.172913m. Speed=26.496000m/h.</desc>
<speed>7.360000</speed>
</trkpt>
<trkpt lat="55.982430" lon="26.422125">
<ele>99.210022</ele>
<time>2010-08-29T17:00:13Z</time>
<desc>lat.=55.982430, lon.=26.422125, Alt.=99.210022m. Speed=26.712000m/h.</desc>
<speed>7.420000</speed>
</trkpt>
<trkpt lat="55.982376" lon="26.422192">
<ele>98.991272</ele>
<time>2010-08-29T17:00:14Z</time>
<desc>lat.=55.982376, lon.=26.422192, Alt.=98.991272m. Speed=27.035999m/h.</desc>
<speed>7.510000</speed>
</trkpt>
<trkpt lat="55.982319" lon="26.422264">
<ele>98.903381</ele>
<time>2010-08-29T17:00:15Z</time>
<desc>lat.=55.982319, lon.=26.422264, Alt.=98.903381m. Speed=27.323999m/h.</desc>
<speed>7.590000</speed>
</trkpt>
<trkpt lat="55.982262" lon="26.422331">
<ele>98.794006</ele>
<time>2010-08-29T17:00:16Z</time>
<desc>lat.=55.982262, lon.=26.422331, Alt.=98.794006m. Speed=26.604000m/h.</desc>
<speed>7.390000</speed>
</trkpt>
<trkpt lat="55.982208" lon="26.422398">
<ele>98.635803</ele>
<time>2010-08-29T17:00:17Z</time>
<desc>lat.=55.982208, lon.=26.422398, Alt.=98.635803m. Speed=25.992001m/h.</desc>
<speed>7.220000</speed>
</trkpt>
<trkpt lat="55.982159" lon="26.422468">
<ele>98.862366</ele>
<time>2010-08-29T17:00:18Z</time>
<desc>lat.=55.982159, lon.=26.422468, Alt.=98.862366m. Speed=25.524000m/h.</desc>
<speed>7.090000</speed>
</trkpt>
<trkpt lat="55.982109" lon="26.422539">
<ele>98.948303</ele>
<time>2010-08-29T17:00:19Z</time>
<desc>lat.=55.982109, lon.=26.422539, Alt.=98.948303m. Speed=24.804001m/h.</desc>
<speed>6.890000</speed>
</trkpt>
<trkpt lat="55.982059" lon="26.422604">
<ele>98.911194</ele>
<time>2010-08-29T17:00:20Z</time>
<desc>lat.=55.982059, lon.=26.422604, Alt.=98.911194m. Speed=24.444000m/h.</desc>
<speed>6.790000</speed>
</trkpt>
<trkpt lat="55.982006" lon="26.422668">
<ele>98.762756</ele>
<time>2010-08-29T17:00:21Z</time>
<desc>lat.=55.982006, lon.=26.422668, Alt.=98.762756m. Speed=25.128000m/h.</desc>
<speed>6.980000</speed>
</trkpt>
<trkpt lat="55.981953" lon="26.422735">
<ele>98.698303</ele>
<time>2010-08-29T17:00:22Z</time>
<desc>lat.=55.981953, lon.=26.422735, Alt.=98.698303m. Speed=25.488001m/h.</desc>
<speed>7.080000</speed>
</trkpt>
<trkpt lat="55.981903" lon="26.422802">
<ele>98.735413</ele>
<time>2010-08-29T17:00:23Z</time>
<desc>lat.=55.981903, lon.=26.422802, Alt.=98.735413m. Speed=25.667999m/h.</desc>
<speed>7.130000</speed>
</trkpt>
<trkpt lat="55.981850" lon="26.422867">
<ele>98.737366</ele>
<time>2010-08-29T17:00:24Z</time>
<desc>lat.=55.981850, lon.=26.422867, Alt.=98.737366m. Speed=25.200001m/h.</desc>
<speed>7.000000</speed>
</trkpt>
<trkpt lat="55.981800" lon="26.422930">
<ele>98.766663</ele>
<time>2010-08-29T17:00:25Z</time>
<desc>lat.=55.981800, lon.=26.422930, Alt.=98.766663m. Speed=24.804001m/h.</desc>
<speed>6.890000</speed>
</trkpt>
<trkpt lat="55.981747" lon="26.422991">
<ele>98.749084</ele>
<time>2010-08-29T17:00:26Z</time>
<desc>lat.=55.981747, lon.=26.422991, Alt.=98.749084m. Speed=24.336000m/h.</desc>
<speed>6.760000</speed>
</trkpt>
<trkpt lat="55.981697" lon="26.423052">
<ele>98.751038</ele>
<time>2010-08-29T17:00:27Z</time>
<desc>lat.=55.981697, lon.=26.423052, Alt.=98.751038m. Speed=23.976000m/h.</desc>
<speed>6.660000</speed>
</trkpt>
<trkpt lat="55.981647" lon="26.423109">
<ele>98.647522</ele>
<time>2010-08-29T17:00:28Z</time>
<desc>lat.=55.981647, lon.=26.423109, Alt.=98.647522m. Speed=23.472000m/h.</desc>
<speed>6.520000</speed>
</trkpt>
<trkpt lat="55.981606" lon="26.423168">
<ele>98.751038</ele>
<time>2010-08-29T17:00:29Z</time>
<desc>lat.=55.981606, lon.=26.423168, Alt.=98.751038m. Speed=23.615999m/h.</desc>
<speed>6.560000</speed>
</trkpt>
<trkpt lat="55.981560" lon="26.423229">
<ele>99.114319</ele>
<time>2010-08-29T17:00:30Z</time>
<desc>lat.=55.981560, lon.=26.423229, Alt.=99.114319m. Speed=23.976000m/h.</desc>
<speed>6.660000</speed>
</trkpt>
<trkpt lat="55.981506" lon="26.423294">
<ele>97.608459</ele>
<time>2010-08-29T17:00:31Z</time>
<desc>lat.=55.981506, lon.=26.423294, Alt.=97.608459m. Speed=26.639999m/h.</desc>
<speed>7.400000</speed>
</trkpt>
<trkpt lat="55.981457" lon="26.423361">
<ele>97.014709</ele>
<time>2010-08-29T17:00:32Z</time>
<desc>lat.=55.981457, lon.=26.423361, Alt.=97.014709m. Speed=25.848000m/h.</desc>
<speed>7.180000</speed>
</trkpt>
<trkpt lat="55.981403" lon="26.423424">
<ele>96.735413</ele>
<time>2010-08-29T17:00:33Z</time>
<desc>lat.=55.981403, lon.=26.423424, Alt.=96.735413m. Speed=25.775999m/h.</desc>
<speed>7.160000</speed>
</trkpt>
<trkpt lat="55.981350" lon="26.423487">
<ele>97.319397</ele>
<time>2010-08-29T17:00:34Z</time>
<desc>lat.=55.981350, lon.=26.423487, Alt.=97.319397m. Speed=24.840000m/h.</desc>
<speed>6.900000</speed>
</trkpt>
<trkpt lat="55.981300" lon="26.423552">
<ele>97.631897</ele>
<time>2010-08-29T17:00:35Z</time>
<desc>lat.=55.981300, lon.=26.423552, Alt.=97.631897m. Speed=24.695999m/h.</desc>
<speed>6.860000</speed>
</trkpt>
<trkpt lat="55.981251" lon="26.423615">
<ele>98.028381</ele>
<time>2010-08-29T17:00:36Z</time>
<desc>lat.=55.981251, lon.=26.423615, Alt.=98.028381m. Speed=24.299999m/h.</desc>
<speed>6.750000</speed>
</trkpt>
<trkpt lat="55.981201" lon="26.423677">
<ele>98.147522</ele>
<time>2010-08-29T17:00:37Z</time>
<desc>lat.=55.981201, lon.=26.423677, Alt.=98.147522m. Speed=23.724001m/h.</desc>
<speed>6.590000</speed>
</trkpt>
<trkpt lat="55.981155" lon="26.423737">
<ele>98.133850</ele>
<time>2010-08-29T17:00:38Z</time>
<desc>lat.=55.981155, lon.=26.423737, Alt.=98.133850m. Speed=23.400000m/h.</desc>
<speed>6.500000</speed>
</trkpt>
<trkpt lat="55.981106" lon="26.423796">
<ele>98.317444</ele>
<time>2010-08-29T17:00:39Z</time>
<desc>lat.=55.981106, lon.=26.423796, Alt.=98.317444m. Speed=24.048000m/h.</desc>
<speed>6.680000</speed>
</trkpt>
<trkpt lat="55.981056" lon="26.423862">
<ele>98.477600</ele>
<time>2010-08-29T17:00:40Z</time>
<desc>lat.=55.981056, lon.=26.423862, Alt.=98.477600m. Speed=24.516001m/h.</desc>
<speed>6.810000</speed>
</trkpt>
<trkpt lat="55.981007" lon="26.423925">
<ele>98.827209</ele>
<time>2010-08-29T17:00:41Z</time>
<desc>lat.=55.981007, lon.=26.423925, Alt.=98.827209m. Speed=24.840000m/h.</desc>
<speed>6.900000</speed>
</trkpt>
<trkpt lat="55.980957" lon="26.423990">
<ele>99.741272</ele>
<time>2010-08-29T17:00:42Z</time>
<desc>lat.=55.980957, lon.=26.423990, Alt.=99.741272m. Speed=25.128000m/h.</desc>
<speed>6.980000</speed>
</trkpt>
<trkpt lat="55.980907" lon="26.424057">
<ele>99.983459</ele>
<time>2010-08-29T17:00:43Z</time>
<desc>lat.=55.980907, lon.=26.424057, Alt.=99.983459m. Speed=24.587999m/h.</desc>
<speed>6.830000</speed>
</trkpt>
<trkpt lat="55.980858" lon="26.424120">
<ele>99.987366</ele>
<time>2010-08-29T17:00:44Z</time>
<desc>lat.=55.980858, lon.=26.424120, Alt.=99.987366m. Speed=23.615999m/h.</desc>
<speed>6.560000</speed>
</trkpt>
<trkpt lat="55.980812" lon="26.424183">
<ele>100.065491</ele>
<time>2010-08-29T17:00:45Z</time>
<desc>lat.=55.980812, lon.=26.424183, Alt.=100.065491m. Speed=24.084000m/h.</desc>
<speed>6.690000</speed>
</trkpt>
<trkpt lat="55.980762" lon="26.424246">
<ele>99.667053</ele>
<time>2010-08-29T17:00:46Z</time>
<desc>lat.=55.980762, lon.=26.424246, Alt.=99.667053m. Speed=23.292000m/h.</desc>
<speed>6.470000</speed>
</trkpt>
<trkpt lat="55.980717" lon="26.424311">
<ele>99.249084</ele>
<time>2010-08-29T17:00:47Z</time>
<desc>lat.=55.980717, lon.=26.424311, Alt.=99.249084m. Speed=22.752001m/h.</desc>
<speed>6.320000</speed>
</trkpt>
<trkpt lat="55.980671" lon="26.424374">
<ele>98.790100</ele>
<time>2010-08-29T17:00:48Z</time>
<desc>lat.=55.980671, lon.=26.424374, Alt.=98.790100m. Speed=22.068001m/h.</desc>
<speed>6.130000</speed>
</trkpt>
<trkpt lat="55.980629" lon="26.424435">
<ele>98.663147</ele>
<time>2010-08-29T17:00:49Z</time>
<desc>lat.=55.980629, lon.=26.424435, Alt.=98.663147m. Speed=21.743999m/h.</desc>
<speed>6.040000</speed>
</trkpt>
<trkpt lat="55.980583" lon="26.424492">
<ele>98.424866</ele>
<time>2010-08-29T17:00:50Z</time>
<desc>lat.=55.980583, lon.=26.424492, Alt.=98.424866m. Speed=21.492001m/h.</desc>
<speed>5.970000</speed>
</trkpt>
<trkpt lat="55.980537" lon="26.424551">
<ele>98.454163</ele>
<time>2010-08-29T17:00:51Z</time>
<desc>lat.=55.980537, lon.=26.424551, Alt.=98.454163m. Speed=22.247999m/h.</desc>
<speed>6.180000</speed>
</trkpt>
<trkpt lat="55.980492" lon="26.424610">
<ele>98.036194</ele>
<time>2010-08-29T17:00:52Z</time>
<desc>lat.=55.980492, lon.=26.424610, Alt.=98.036194m. Speed=22.139999m/h.</desc>
<speed>6.150000</speed>
</trkpt>
<trkpt lat="55.980453" lon="26.424667">
<ele>98.327209</ele>
<time>2010-08-29T17:00:53Z</time>
<desc>lat.=55.980453, lon.=26.424667, Alt.=98.327209m. Speed=22.104000m/h.</desc>
<speed>6.140000</speed>
</trkpt>
<trkpt lat="55.980408" lon="26.424730">
<ele>98.362366</ele>
<time>2010-08-29T17:00:54Z</time>
<desc>lat.=55.980408, lon.=26.424730, Alt.=98.362366m. Speed=23.400000m/h.</desc>
<speed>6.500000</speed>
</trkpt>
<trkpt lat="55.980358" lon="26.424795">
<ele>97.971741</ele>
<time>2010-08-29T17:00:55Z</time>
<desc>lat.=55.980358, lon.=26.424795, Alt.=97.971741m. Speed=23.868000m/h.</desc>
<speed>6.630000</speed>
</trkpt>
<trkpt lat="55.980309" lon="26.424860">
<ele>97.260803</ele>
<time>2010-08-29T17:00:56Z</time>
<desc>lat.=55.980309, lon.=26.424860, Alt.=97.260803m. Speed=23.903999m/h.</desc>
<speed>6.640000</speed>
</trkpt>
<trkpt lat="55.980255" lon="26.424921">
<ele>97.241272</ele>
<time>2010-08-29T17:00:57Z</time>
<desc>lat.=55.980255, lon.=26.424921, Alt.=97.241272m. Speed=24.084000m/h.</desc>
<speed>6.690000</speed>
</trkpt>
<trkpt lat="55.980206" lon="26.424980">
<ele>97.518616</ele>
<time>2010-08-29T17:00:58Z</time>
<desc>lat.=55.980206, lon.=26.424980, Alt.=97.518616m. Speed=23.903999m/h.</desc>
<speed>6.640000</speed>
</trkpt>
<trkpt lat="55.980152" lon="26.425041">
<ele>97.143616</ele>
<time>2010-08-29T17:00:59Z</time>
<desc>lat.=55.980152, lon.=26.425041, Alt.=97.143616m. Speed=23.832001m/h.</desc>
<speed>6.620000</speed>
</trkpt>
<trkpt lat="55.980103" lon="26.425100">
<ele>97.047913</ele>
<time>2010-08-29T17:01:00Z</time>
<desc>lat.=55.980103, lon.=26.425100, Alt.=97.047913m. Speed=23.400000m/h.</desc>
<speed>6.500000</speed>
</trkpt>
<trkpt lat="55.980053" lon="26.425156">
<ele>97.071350</ele>
<time>2010-08-29T17:01:01Z</time>
<desc>lat.=55.980053, lon.=26.425156, Alt.=97.071350m. Speed=23.040001m/h.</desc>
<speed>6.400000</speed>
</trkpt>
<trkpt lat="55.980011" lon="26.425222">
<ele>97.026428</ele>
<time>2010-08-29T17:01:02Z</time>
<desc>lat.=55.980011, lon.=26.425222, Alt.=97.026428m. Speed=22.716000m/h.</desc>
<speed>6.310000</speed>
</trkpt>
<trkpt lat="55.979965" lon="26.425283">
<ele>96.530334</ele>
<time>2010-08-29T17:01:03Z</time>
<desc>lat.=55.979965, lon.=26.425283, Alt.=96.530334m. Speed=22.247999m/h.</desc>
<speed>6.180000</speed>
</trkpt>
<trkpt lat="55.979919" lon="26.425337">
<ele>96.407288</ele>
<time>2010-08-29T17:01:04Z</time>
<desc>lat.=55.979919, lon.=26.425337, Alt.=96.407288m. Speed=21.996000m/h.</desc>
<speed>6.110000</speed>
</trkpt>
<trkpt lat="55.979874" lon="26.425386">
<ele>96.487366</ele>
<time>2010-08-29T17:01:05Z</time>
<desc>lat.=55.979874, lon.=26.425386, Alt.=96.487366m. Speed=21.636000m/h.</desc>
<speed>6.010000</speed>
</trkpt>
<trkpt lat="55.979828" lon="26.425438">
<ele>96.434631</ele>
<time>2010-08-29T17:01:06Z</time>
<desc>lat.=55.979828, lon.=26.425438, Alt.=96.434631m. Speed=21.275999m/h.</desc>
<speed>5.910000</speed>
</trkpt>
<trkpt lat="55.979786" lon="26.425495">
<ele>96.508850</ele>
<time>2010-08-29T17:01:07Z</time>
<desc>lat.=55.979786, lon.=26.425495, Alt.=96.508850m. Speed=20.952000m/h.</desc>
<speed>5.820000</speed>
</trkpt>
<trkpt lat="55.979744" lon="26.425552">
<ele>97.057678</ele>
<time>2010-08-29T17:01:08Z</time>
<desc>lat.=55.979744, lon.=26.425552, Alt.=97.057678m. Speed=19.908001m/h.</desc>
<speed>5.530000</speed>
</trkpt>
<trkpt lat="55.979706" lon="26.425610">
<ele>97.577209</ele>
<time>2010-08-29T17:01:09Z</time>
<desc>lat.=55.979706, lon.=26.425610, Alt.=97.577209m. Speed=19.691999m/h.</desc>
<speed>5.470000</speed>
</trkpt>
<trkpt lat="55.979668" lon="26.425674">
<ele>97.499084</ele>
<time>2010-08-29T17:01:10Z</time>
<desc>lat.=55.979668, lon.=26.425674, Alt.=97.499084m. Speed=21.059999m/h.</desc>
<speed>5.850000</speed>
</trkpt>
<trkpt lat="55.979622" lon="26.425730">
<ele>97.684631</ele>
<time>2010-08-29T17:01:11Z</time>
<desc>lat.=55.979622, lon.=26.425730, Alt.=97.684631m. Speed=21.636000m/h.</desc>
<speed>6.010000</speed>
</trkpt>
<trkpt lat="55.979576" lon="26.425789">
<ele>97.266663</ele>
<time>2010-08-29T17:01:12Z</time>
<desc>lat.=55.979576, lon.=26.425789, Alt.=97.266663m. Speed=22.464001m/h.</desc>
<speed>6.240000</speed>
</trkpt>
<trkpt lat="55.979530" lon="26.425848">
<ele>97.579163</ele>
<time>2010-08-29T17:01:13Z</time>
<desc>lat.=55.979530, lon.=26.425848, Alt.=97.579163m. Speed=23.004000m/h.</desc>
<speed>6.390000</speed>
</trkpt>
<trkpt lat="55.979481" lon="26.425911">
<ele>97.446350</ele>
<time>2010-08-29T17:01:14Z</time>
<desc>lat.=55.979481, lon.=26.425911, Alt.=97.446350m. Speed=23.507999m/h.</desc>
<speed>6.530000</speed>
</trkpt>
<trkpt lat="55.979435" lon="26.425972">
<ele>97.518616</ele>
<time>2010-08-29T17:01:15Z</time>
<desc>lat.=55.979435, lon.=26.425972, Alt.=97.518616m. Speed=23.615999m/h.</desc>
<speed>6.560000</speed>
</trkpt>
<trkpt lat="55.979385" lon="26.426037">
<ele>97.344788</ele>
<time>2010-08-29T17:01:16Z</time>
<desc>lat.=55.979385, lon.=26.426037, Alt.=97.344788m. Speed=23.327999m/h.</desc>
<speed>6.480000</speed>
</trkpt>
<trkpt lat="55.979343" lon="26.426102">
<ele>97.399475</ele>
<time>2010-08-29T17:01:17Z</time>
<desc>lat.=55.979343, lon.=26.426102, Alt.=97.399475m. Speed=22.680000m/h.</desc>
<speed>6.300000</speed>
</trkpt>
<trkpt lat="55.979298" lon="26.426161">
<ele>97.194397</ele>
<time>2010-08-29T17:01:18Z</time>
<desc>lat.=55.979298, lon.=26.426161, Alt.=97.194397m. Speed=22.608000m/h.</desc>
<speed>6.280000</speed>
</trkpt>
<trkpt lat="55.979252" lon="26.426216">
<ele>97.010803</ele>
<time>2010-08-29T17:01:19Z</time>
<desc>lat.=55.979252, lon.=26.426216, Alt.=97.010803m. Speed=22.212000m/h.</desc>
<speed>6.170000</speed>
</trkpt>
<trkpt lat="55.979206" lon="26.426275">
<ele>96.883850</ele>
<time>2010-08-29T17:01:20Z</time>
<desc>lat.=55.979206, lon.=26.426275, Alt.=96.883850m. Speed=21.888000m/h.</desc>
<speed>6.080000</speed>
</trkpt>
<trkpt lat="55.979160" lon="26.426334">
<ele>96.614319</ele>
<time>2010-08-29T17:01:21Z</time>
<desc>lat.=55.979160, lon.=26.426334, Alt.=96.614319m. Speed=21.600000m/h.</desc>
<speed>6.000000</speed>
</trkpt>
<trkpt lat="55.979115" lon="26.426386">
<ele>96.454163</ele>
<time>2010-08-29T17:01:22Z</time>
<desc>lat.=55.979115, lon.=26.426386, Alt.=96.454163m. Speed=21.204000m/h.</desc>
<speed>5.890000</speed>
</trkpt>
<trkpt lat="55.979069" lon="26.426441">
<ele>96.377991</ele>
<time>2010-08-29T17:01:23Z</time>
<desc>lat.=55.979069, lon.=26.426441, Alt.=96.377991m. Speed=21.996000m/h.</desc>
<speed>6.110000</speed>
</trkpt>
<trkpt lat="55.979027" lon="26.426506">
<ele>96.208069</ele>
<time>2010-08-29T17:01:24Z</time>
<desc>lat.=55.979027, lon.=26.426506, Alt.=96.208069m. Speed=22.464001m/h.</desc>
<speed>6.240000</speed>
</trkpt>
<trkpt lat="55.978981" lon="26.426571">
<ele>96.049866</ele>
<time>2010-08-29T17:01:25Z</time>
<desc>lat.=55.978981, lon.=26.426571, Alt.=96.049866m. Speed=22.860001m/h.</desc>
<speed>6.350000</speed>
</trkpt>
<trkpt lat="55.978931" lon="26.426632">
<ele>95.950256</ele>
<time>2010-08-29T17:01:26Z</time>
<desc>lat.=55.978931, lon.=26.426632, Alt.=95.950256m. Speed=23.580000m/h.</desc>
<speed>6.550000</speed>
</trkpt>
<trkpt lat="55.978886" lon="26.426695">
<ele>96.010803</ele>
<time>2010-08-29T17:01:27Z</time>
<desc>lat.=55.978886, lon.=26.426695, Alt.=96.010803m. Speed=23.760000m/h.</desc>
<speed>6.600000</speed>
</trkpt>
<trkpt lat="55.978840" lon="26.426762">
<ele>95.977600</ele>
<time>2010-08-29T17:01:28Z</time>
<desc>lat.=55.978840, lon.=26.426762, Alt.=95.977600m. Speed=24.408001m/h.</desc>
<speed>6.780000</speed>
</trkpt>
<trkpt lat="55.978790" lon="26.426826">
<ele>95.614319</ele>
<time>2010-08-29T17:01:29Z</time>
<desc>lat.=55.978790, lon.=26.426826, Alt.=95.614319m. Speed=23.976000m/h.</desc>
<speed>6.660000</speed>
</trkpt>
<trkpt lat="55.978741" lon="26.426889">
<ele>95.629944</ele>
<time>2010-08-29T17:01:30Z</time>
<desc>lat.=55.978741, lon.=26.426889, Alt.=95.629944m. Speed=23.615999m/h.</desc>
<speed>6.560000</speed>
</trkpt>
<trkpt lat="55.978691" lon="26.426949">
<ele>95.555725</ele>
<time>2010-08-29T17:01:31Z</time>
<desc>lat.=55.978691, lon.=26.426949, Alt.=95.555725m. Speed=23.364000m/h.</desc>
<speed>6.490000</speed>
</trkpt>
<trkpt lat="55.978645" lon="26.427008">
<ele>95.463928</ele>
<time>2010-08-29T17:01:32Z</time>
<desc>lat.=55.978645, lon.=26.427008, Alt.=95.463928m. Speed=22.968000m/h.</desc>
<speed>6.380000</speed>
</trkpt>
<trkpt lat="55.978600" lon="26.427074">
<ele>95.415100</ele>
<time>2010-08-29T17:01:33Z</time>
<desc>lat.=55.978600, lon.=26.427074, Alt.=95.415100m. Speed=22.680000m/h.</desc>
<speed>6.300000</speed>
</trkpt>
<trkpt lat="55.978554" lon="26.427139">
<ele>95.169006</ele>
<time>2010-08-29T17:01:34Z</time>
<desc>lat.=55.978554, lon.=26.427139, Alt.=95.169006m. Speed=22.464001m/h.</desc>
<speed>6.240000</speed>
</trkpt>
<trkpt lat="55.978516" lon="26.427198">
<ele>97.419006</ele>
<time>2010-08-29T17:01:35Z</time>
<desc>lat.=55.978516, lon.=26.427198, Alt.=97.419006m. Speed=20.700001m/h.</desc>
<speed>5.750000</speed>
</trkpt>
<trkpt lat="55.978474" lon="26.427263">
<ele>99.286194</ele>
<time>2010-08-29T17:01:36Z</time>
<desc>lat.=55.978474, lon.=26.427263, Alt.=99.286194m. Speed=21.600000m/h.</desc>
<speed>6.000000</speed>
</trkpt>
<trkpt lat="55.978432" lon="26.427317">
<ele>99.170959</ele>
<time>2010-08-29T17:01:37Z</time>
<desc>lat.=55.978432, lon.=26.427317, Alt.=99.170959m. Speed=21.528000m/h.</desc>
<speed>5.980000</speed>
</trkpt>
<trkpt lat="55.978390" lon="26.427368">
<ele>99.104553</ele>
<time>2010-08-29T17:01:38Z</time>
<desc>lat.=55.978390, lon.=26.427368, Alt.=99.104553m. Speed=21.312000m/h.</desc>
<speed>5.920000</speed>
</trkpt>
<trkpt lat="55.978348" lon="26.427420">
<ele>98.899475</ele>
<time>2010-08-29T17:01:39Z</time>
<desc>lat.=55.978348, lon.=26.427420, Alt.=98.899475m. Speed=21.096001m/h.</desc>
<speed>5.860000</speed>
</trkpt>
<trkpt lat="55.978310" lon="26.427477">
<ele>98.770569</ele>
<time>2010-08-29T17:01:40Z</time>
<desc>lat.=55.978310, lon.=26.427477, Alt.=98.770569m. Speed=20.916000m/h.</desc>
<speed>5.810000</speed>
</trkpt>
<trkpt lat="55.978268" lon="26.427528">
<ele>98.626038</ele>
<time>2010-08-29T17:01:41Z</time>
<desc>lat.=55.978268, lon.=26.427528, Alt.=98.626038m. Speed=20.556000m/h.</desc>
<speed>5.710000</speed>
</trkpt>
<trkpt lat="55.978226" lon="26.427580">
<ele>98.557678</ele>
<time>2010-08-29T17:01:42Z</time>
<desc>lat.=55.978226, lon.=26.427580, Alt.=98.557678m. Speed=20.375999m/h.</desc>
<speed>5.660000</speed>
</trkpt>
<trkpt lat="55.978188" lon="26.427637">
<ele>98.479553</ele>
<time>2010-08-29T17:01:43Z</time>
<desc>lat.=55.978188, lon.=26.427637, Alt.=98.479553m. Speed=20.375999m/h.</desc>
<speed>5.660000</speed>
</trkpt>
<trkpt lat="55.978146" lon="26.427691">
<ele>98.420959</ele>
<time>2010-08-29T17:01:44Z</time>
<desc>lat.=55.978146, lon.=26.427691, Alt.=98.420959m. Speed=20.195999m/h.</desc>
<speed>5.610000</speed>
</trkpt>
<trkpt lat="55.978107" lon="26.427742">
<ele>98.362366</ele>
<time>2010-08-29T17:01:45Z</time>
<desc>lat.=55.978107, lon.=26.427742, Alt.=98.362366m. Speed=20.952000m/h.</desc>
<speed>5.820000</speed>
</trkpt>
<trkpt lat="55.978062" lon="26.427797">
<ele>98.333069</ele>
<time>2010-08-29T17:01:46Z</time>
<desc>lat.=55.978062, lon.=26.427797, Alt.=98.333069m. Speed=21.455999m/h.</desc>
<speed>5.960000</speed>
</trkpt>
<trkpt lat="55.978020" lon="26.427855">
<ele>97.983459</ele>
<time>2010-08-29T17:01:47Z</time>
<desc>lat.=55.978020, lon.=26.427855, Alt.=97.983459m. Speed=22.356001m/h.</desc>
<speed>6.210000</speed>
</trkpt>
<trkpt lat="55.977974" lon="26.427917">
<ele>97.579163</ele>
<time>2010-08-29T17:01:48Z</time>
<desc>lat.=55.977974, lon.=26.427917, Alt.=97.579163m. Speed=22.931999m/h.</desc>
<speed>6.370000</speed>
</trkpt>
<trkpt lat="55.977924" lon="26.427980">
<ele>97.450256</ele>
<time>2010-08-29T17:01:49Z</time>
<desc>lat.=55.977924, lon.=26.427980, Alt.=97.450256m. Speed=23.327999m/h.</desc>
<speed>6.480000</speed>
</trkpt>
<trkpt lat="55.977879" lon="26.428045">
<ele>97.235413</ele>
<time>2010-08-29T17:01:50Z</time>
<desc>lat.=55.977879, lon.=26.428045, Alt.=97.235413m. Speed=23.796000m/h.</desc>
<speed>6.610000</speed>
</trkpt>
<trkpt lat="55.977833" lon="26.428110">
<ele>97.227600</ele>
<time>2010-08-29T17:01:51Z</time>
<desc>lat.=55.977833, lon.=26.428110, Alt.=97.227600m. Speed=24.372000m/h.</desc>
<speed>6.770000</speed>
</trkpt>
<trkpt lat="55.977787" lon="26.428179">
<ele>97.174866</ele>
<time>2010-08-29T17:01:52Z</time>
<desc>lat.=55.977787, lon.=26.428179, Alt.=97.174866m. Speed=24.120001m/h.</desc>
<speed>6.700000</speed>
</trkpt>
<trkpt lat="55.977741" lon="26.428246">
<ele>97.034241</ele>
<time>2010-08-29T17:01:53Z</time>
<desc>lat.=55.977741, lon.=26.428246, Alt.=97.034241m. Speed=23.796000m/h.</desc>
<speed>6.610000</speed>
</trkpt>
<trkpt lat="55.977692" lon="26.428312">
<ele>96.950256</ele>
<time>2010-08-29T17:01:54Z</time>
<desc>lat.=55.977692, lon.=26.428312, Alt.=96.950256m. Speed=23.507999m/h.</desc>
<speed>6.530000</speed>
</trkpt>
<trkpt lat="55.977646" lon="26.428377">
<ele>96.917053</ele>
<time>2010-08-29T17:01:55Z</time>
<desc>lat.=55.977646, lon.=26.428377, Alt.=96.917053m. Speed=23.112000m/h.</desc>
<speed>6.420000</speed>
</trkpt>
<trkpt lat="55.977600" lon="26.428442">
<ele>96.782288</ele>
<time>2010-08-29T17:01:56Z</time>
<desc>lat.=55.977600, lon.=26.428442, Alt.=96.782288m. Speed=22.860001m/h.</desc>
<speed>6.350000</speed>
</trkpt>
<trkpt lat="55.977554" lon="26.428505">
<ele>96.670959</ele>
<time>2010-08-29T17:01:57Z</time>
<desc>lat.=55.977554, lon.=26.428505, Alt.=96.670959m. Speed=22.464001m/h.</desc>
<speed>6.240000</speed>
</trkpt>
<trkpt lat="55.977509" lon="26.428560">
<ele>96.618225</ele>
<time>2010-08-29T17:01:58Z</time>
<desc>lat.=55.977509, lon.=26.428560, Alt.=96.618225m. Speed=22.032000m/h.</desc>
<speed>6.120000</speed>
</trkpt>
<trkpt lat="55.977467" lon="26.428621">
<ele>96.620178</ele>
<time>2010-08-29T17:01:59Z</time>
<desc>lat.=55.977467, lon.=26.428621, Alt.=96.620178m. Speed=21.672001m/h.</desc>
<speed>6.020000</speed>
</trkpt>
<trkpt lat="55.977425" lon="26.428682">
<ele>96.483459</ele>
<time>2010-08-29T17:02:00Z</time>
<desc>lat.=55.977425, lon.=26.428682, Alt.=96.483459m. Speed=21.312000m/h.</desc>
<speed>5.920000</speed>
</trkpt>
<trkpt lat="55.977383" lon="26.428740">
<ele>96.176819</ele>
<time>2010-08-29T17:02:01Z</time>
<desc>lat.=55.977383, lon.=26.428740, Alt.=96.176819m. Speed=21.024000m/h.</desc>
<speed>5.840000</speed>
</trkpt>
<trkpt lat="55.977341" lon="26.428795">
<ele>96.008850</ele>
<time>2010-08-29T17:02:02Z</time>
<desc>lat.=55.977341, lon.=26.428795, Alt.=96.008850m. Speed=20.556000m/h.</desc>
<speed>5.710000</speed>
</trkpt>
<trkpt lat="55.977303" lon="26.428850">
<ele>95.737366</ele>
<time>2010-08-29T17:02:03Z</time>
<desc>lat.=55.977303, lon.=26.428850, Alt.=95.737366m. Speed=20.304001m/h.</desc>
<speed>5.640000</speed>
</trkpt>
<trkpt lat="55.977264" lon="26.428904">
<ele>95.782288</ele>
<time>2010-08-29T17:02:04Z</time>
<desc>lat.=55.977264, lon.=26.428904, Alt.=95.782288m. Speed=19.836000m/h.</desc>
<speed>5.510000</speed>
</trkpt>
<trkpt lat="55.977222" lon="26.428949">
<ele>95.608459</ele>
<time>2010-08-29T17:02:05Z</time>
<desc>lat.=55.977222, lon.=26.428949, Alt.=95.608459m. Speed=19.511999m/h.</desc>
<speed>5.420000</speed>
</trkpt>
<trkpt lat="55.977188" lon="26.429003">
<ele>95.561584</ele>
<time>2010-08-29T17:02:06Z</time>
<desc>lat.=55.977188, lon.=26.429003, Alt.=95.561584m. Speed=19.115999m/h.</desc>
<speed>5.310000</speed>
</trkpt>
<trkpt lat="55.977150" lon="26.429056">
<ele>95.586975</ele>
<time>2010-08-29T17:02:07Z</time>
<desc>lat.=55.977150, lon.=26.429056, Alt.=95.586975m. Speed=18.827999m/h.</desc>
<speed>5.230000</speed>
</trkpt>
<trkpt lat="55.977112" lon="26.429106">
<ele>95.508850</ele>
<time>2010-08-29T17:02:08Z</time>
<desc>lat.=55.977112, lon.=26.429106, Alt.=95.508850m. Speed=18.719999m/h.</desc>
<speed>5.200000</speed>
</trkpt>
<trkpt lat="55.977077" lon="26.429163">
<ele>95.393616</ele>
<time>2010-08-29T17:02:09Z</time>
<desc>lat.=55.977077, lon.=26.429163, Alt.=95.393616m. Speed=19.080000m/h.</desc>
<speed>5.300000</speed>
</trkpt>
<trkpt lat="55.977039" lon="26.429216">
<ele>95.377991</ele>
<time>2010-08-29T17:02:10Z</time>
<desc>lat.=55.977039, lon.=26.429216, Alt.=95.377991m. Speed=19.691999m/h.</desc>
<speed>5.470000</speed>
</trkpt>
<trkpt lat="55.976997" lon="26.429270">
<ele>95.274475</ele>
<time>2010-08-29T17:02:11Z</time>
<desc>lat.=55.976997, lon.=26.429270, Alt.=95.274475m. Speed=20.087999m/h.</desc>
<speed>5.580000</speed>
</trkpt>
<trkpt lat="55.976959" lon="26.429325">
<ele>95.299866</ele>
<time>2010-08-29T17:02:12Z</time>
<desc>lat.=55.976959, lon.=26.429325, Alt.=95.299866m. Speed=20.664000m/h.</desc>
<speed>5.740000</speed>
</trkpt>
<trkpt lat="55.976917" lon="26.429380">
<ele>95.389709</ele>
<time>2010-08-29T17:02:13Z</time>
<desc>lat.=55.976917, lon.=26.429380, Alt.=95.389709m. Speed=21.240000m/h.</desc>
<speed>5.900000</speed>
</trkpt>
<trkpt lat="55.976875" lon="26.429441">
<ele>94.936584</ele>
<time>2010-08-29T17:02:14Z</time>
<desc>lat.=55.976875, lon.=26.429441, Alt.=94.936584m. Speed=21.708000m/h.</desc>
<speed>6.030000</speed>
</trkpt>
<trkpt lat="55.976833" lon="26.429502">
<ele>94.920959</ele>
<time>2010-08-29T17:02:15Z</time>
<desc>lat.=55.976833, lon.=26.429502, Alt.=94.920959m. Speed=21.816000m/h.</desc>
<speed>6.060000</speed>
</trkpt>
<trkpt lat="55.976788" lon="26.429565">
<ele>94.868225</ele>
<time>2010-08-29T17:02:16Z</time>
<desc>lat.=55.976788, lon.=26.429565, Alt.=94.868225m. Speed=22.320000m/h.</desc>
<speed>6.200000</speed>
</trkpt>
<trkpt lat="55.976746" lon="26.429630">
<ele>94.891663</ele>
<time>2010-08-29T17:02:17Z</time>
<desc>lat.=55.976746, lon.=26.429630, Alt.=94.891663m. Speed=22.535999m/h.</desc>
<speed>6.260000</speed>
</trkpt>
<trkpt lat="55.976704" lon="26.429695">
<ele>94.747131</ele>
<time>2010-08-29T17:02:18Z</time>
<desc>lat.=55.976704, lon.=26.429695, Alt.=94.747131m. Speed=22.752001m/h.</desc>
<speed>6.320000</speed>
</trkpt>
<trkpt lat="55.976658" lon="26.429758">
<ele>94.790100</ele>
<time>2010-08-29T17:02:19Z</time>
<desc>lat.=55.976658, lon.=26.429758, Alt.=94.790100m. Speed=22.176001m/h.</desc>
<speed>6.160000</speed>
</trkpt>
<trkpt lat="55.976616" lon="26.429821">
<ele>94.805725</ele>
<time>2010-08-29T17:02:20Z</time>
<desc>lat.=55.976616, lon.=26.429821, Alt.=94.805725m. Speed=21.780001m/h.</desc>
<speed>6.050000</speed>
</trkpt>
<trkpt lat="55.976574" lon="26.429884">
<ele>94.731506</ele>
<time>2010-08-29T17:02:21Z</time>
<desc>lat.=55.976574, lon.=26.429884, Alt.=94.731506m. Speed=21.420000m/h.</desc>
<speed>5.950000</speed>
</trkpt>
<trkpt lat="55.976532" lon="26.429941">
<ele>94.737366</ele>
<time>2010-08-29T17:02:22Z</time>
<desc>lat.=55.976532, lon.=26.429941, Alt.=94.737366m. Speed=21.024000m/h.</desc>
<speed>5.840000</speed>
</trkpt>
<trkpt lat="55.976494" lon="26.430000">
<ele>94.842834</ele>
<time>2010-08-29T17:02:23Z</time>
<desc>lat.=55.976494, lon.=26.430000, Alt.=94.842834m. Speed=20.844000m/h.</desc>
<speed>5.790000</speed>
</trkpt>
<trkpt lat="55.976452" lon="26.430058">
<ele>94.879944</ele>
<time>2010-08-29T17:02:24Z</time>
<desc>lat.=55.976452, lon.=26.430058, Alt.=94.879944m. Speed=20.412001m/h.</desc>
<speed>5.670000</speed>
</trkpt>
<trkpt lat="55.976414" lon="26.430115">
<ele>94.772522</ele>
<time>2010-08-29T17:02:25Z</time>
<desc>lat.=55.976414, lon.=26.430115, Alt.=94.772522m. Speed=19.836000m/h.</desc>
<speed>5.510000</speed>
</trkpt>
<trkpt lat="55.976379" lon="26.430168">
<ele>94.731506</ele>
<time>2010-08-29T17:02:26Z</time>
<desc>lat.=55.976379, lon.=26.430168, Alt.=94.731506m. Speed=18.936001m/h.</desc>
<speed>5.260000</speed>
</trkpt>
<trkpt lat="55.976337" lon="26.430218">
<ele>94.754944</ele>
<time>2010-08-29T17:02:27Z</time>
<desc>lat.=55.976337, lon.=26.430218, Alt.=94.754944m. Speed=19.115999m/h.</desc>
<speed>5.310000</speed>
</trkpt>
<trkpt lat="55.976299" lon="26.430267">
<ele>94.477600</ele>
<time>2010-08-29T17:02:28Z</time>
<desc>lat.=55.976299, lon.=26.430267, Alt.=94.477600m. Speed=19.980000m/h.</desc>
<speed>5.550000</speed>
</trkpt>
<trkpt lat="55.976261" lon="26.430325">
<ele>94.383850</ele>
<time>2010-08-29T17:02:29Z</time>
<desc>lat.=55.976261, lon.=26.430325, Alt.=94.383850m. Speed=20.232000m/h.</desc>
<speed>5.620000</speed>
</trkpt>
<trkpt lat="55.976219" lon="26.430384">
<ele>94.241272</ele>
<time>2010-08-29T17:02:30Z</time>
<desc>lat.=55.976219, lon.=26.430384, Alt.=94.241272m. Speed=20.952000m/h.</desc>
<speed>5.820000</speed>
</trkpt>
<trkpt lat="55.976181" lon="26.430449">
<ele>94.014709</ele>
<time>2010-08-29T17:02:31Z</time>
<desc>lat.=55.976181, lon.=26.430449, Alt.=94.014709m. Speed=21.275999m/h.</desc>
<speed>5.910000</speed>
</trkpt>
<trkpt lat="55.976139" lon="26.430510">
<ele>94.059631</ele>
<time>2010-08-29T17:02:32Z</time>
<desc>lat.=55.976139, lon.=26.430510, Alt.=94.059631m. Speed=21.492001m/h.</desc>
<speed>5.970000</speed>
</trkpt>
<trkpt lat="55.976101" lon="26.430578">
<ele>94.077209</ele>
<time>2010-08-29T17:02:33Z</time>
<desc>lat.=55.976101, lon.=26.430578, Alt.=94.077209m. Speed=21.780001m/h.</desc>
<speed>6.050000</speed>
</trkpt>
<trkpt lat="55.976055" lon="26.430647">
<ele>94.026428</ele>
<time>2010-08-29T17:02:34Z</time>
<desc>lat.=55.976055, lon.=26.430647, Alt.=94.026428m. Speed=22.320000m/h.</desc>
<speed>6.200000</speed>
</trkpt>
<trkpt lat="55.976013" lon="26.430712">
<ele>93.997131</ele>
<time>2010-08-29T17:02:35Z</time>
<desc>lat.=55.976013, lon.=26.430712, Alt.=93.997131m. Speed=22.680000m/h.</desc>
<speed>6.300000</speed>
</trkpt>
<trkpt lat="55.975971" lon="26.430780">
<ele>94.131897</ele>
<time>2010-08-29T17:02:36Z</time>
<desc>lat.=55.975971, lon.=26.430780, Alt.=94.131897m. Speed=22.968000m/h.</desc>
<speed>6.380000</speed>
</trkpt>
<trkpt lat="55.975922" lon="26.430845">
<ele>94.098694</ele>
<time>2010-08-29T17:02:37Z</time>
<desc>lat.=55.975922, lon.=26.430845, Alt.=94.098694m. Speed=23.364000m/h.</desc>
<speed>6.490000</speed>
</trkpt>
<trkpt lat="55.975880" lon="26.430910">
<ele>94.036194</ele>
<time>2010-08-29T17:02:38Z</time>
<desc>lat.=55.975880, lon.=26.430910, Alt.=94.036194m. Speed=23.832001m/h.</desc>
<speed>6.620000</speed>
</trkpt>
<trkpt lat="55.975834" lon="26.430984">
<ele>93.883850</ele>
<time>2010-08-29T17:02:39Z</time>
<desc>lat.=55.975834, lon.=26.430984, Alt.=93.883850m. Speed=24.587999m/h.</desc>
<speed>6.830000</speed>
</trkpt>
<trkpt lat="55.975788" lon="26.431061">
<ele>93.844788</ele>
<time>2010-08-29T17:02:40Z</time>
<desc>lat.=55.975788, lon.=26.431061, Alt.=93.844788m. Speed=24.804001m/h.</desc>
<speed>6.890000</speed>
</trkpt>
<trkpt lat="55.975742" lon="26.431131">
<ele>93.772522</ele>
<time>2010-08-29T17:02:41Z</time>
<desc>lat.=55.975742, lon.=26.431131, Alt.=93.772522m. Speed=25.236000m/h.</desc>
<speed>7.010000</speed>
</trkpt>
<trkpt lat="55.975693" lon="26.431204">
<ele>93.733459</ele>
<time>2010-08-29T17:02:42Z</time>
<desc>lat.=55.975693, lon.=26.431204, Alt.=93.733459m. Speed=25.488001m/h.</desc>
<speed>7.080000</speed>
</trkpt>
<trkpt lat="55.975643" lon="26.431276">
<ele>93.626038</ele>
<time>2010-08-29T17:02:43Z</time>
<desc>lat.=55.975643, lon.=26.431276, Alt.=93.626038m. Speed=25.884001m/h.</desc>
<speed>7.190000</speed>
</trkpt>
<trkpt lat="55.975594" lon="26.431353">
<ele>93.743225</ele>
<time>2010-08-29T17:02:44Z</time>
<desc>lat.=55.975594, lon.=26.431353, Alt.=93.743225m. Speed=26.280001m/h.</desc>
<speed>7.300000</speed>
</trkpt>
<trkpt lat="55.975544" lon="26.431429">
<ele>93.838928</ele>
<time>2010-08-29T17:02:45Z</time>
<desc>lat.=55.975544, lon.=26.431429, Alt.=93.838928m. Speed=26.063999m/h.</desc>
<speed>7.240000</speed>
</trkpt>
<trkpt lat="55.975494" lon="26.431505">
<ele>93.782288</ele>
<time>2010-08-29T17:02:46Z</time>
<desc>lat.=55.975494, lon.=26.431505, Alt.=93.782288m. Speed=25.632000m/h.</desc>
<speed>7.120000</speed>
</trkpt>
<trkpt lat="55.975441" lon="26.431578">
<ele>93.731506</ele>
<time>2010-08-29T17:02:47Z</time>
<desc>lat.=55.975441, lon.=26.431578, Alt.=93.731506m. Speed=25.091999m/h.</desc>
<speed>6.970000</speed>
</trkpt>
<trkpt lat="55.975395" lon="26.431650">
<ele>93.698303</ele>
<time>2010-08-29T17:02:48Z</time>
<desc>lat.=55.975395, lon.=26.431650, Alt.=93.698303m. Speed=24.660000m/h.</desc>
<speed>6.850000</speed>
</trkpt>
<trkpt lat="55.975349" lon="26.431721">
<ele>93.706116</ele>
<time>2010-08-29T17:02:49Z</time>
<desc>lat.=55.975349, lon.=26.431721, Alt.=93.706116m. Speed=24.191999m/h.</desc>
<speed>6.720000</speed>
</trkpt>
<trkpt lat="55.975304" lon="26.431787">
<ele>93.667053</ele>
<time>2010-08-29T17:02:50Z</time>
<desc>lat.=55.975304, lon.=26.431787, Alt.=93.667053m. Speed=23.652000m/h.</desc>
<speed>6.570000</speed>
</trkpt>
<trkpt lat="55.975258" lon="26.431856">
<ele>93.727600</ele>
<time>2010-08-29T17:02:51Z</time>
<desc>lat.=55.975258, lon.=26.431856, Alt.=93.727600m. Speed=23.148001m/h.</desc>
<speed>6.430000</speed>
</trkpt>
<trkpt lat="55.975216" lon="26.431923">
<ele>93.809631</ele>
<time>2010-08-29T17:02:52Z</time>
<desc>lat.=55.975216, lon.=26.431923, Alt.=93.809631m. Speed=22.680000m/h.</desc>
<speed>6.300000</speed>
</trkpt>
<trkpt lat="55.975170" lon="26.431986">
<ele>93.499084</ele>
<time>2010-08-29T17:02:53Z</time>
<desc>lat.=55.975170, lon.=26.431986, Alt.=93.499084m. Speed=22.427999m/h.</desc>
<speed>6.230000</speed>
</trkpt>
<trkpt lat="55.975128" lon="26.432051">
<ele>93.397522</ele>
<time>2010-08-29T17:02:54Z</time>
<desc>lat.=55.975128, lon.=26.432051, Alt.=93.397522m. Speed=21.743999m/h.</desc>
<speed>6.040000</speed>
</trkpt>
<trkpt lat="55.975086" lon="26.432114">
<ele>93.319397</ele>
<time>2010-08-29T17:02:55Z</time>
<desc>lat.=55.975086, lon.=26.432114, Alt.=93.319397m. Speed=21.204000m/h.</desc>
<speed>5.890000</speed>
</trkpt>
<trkpt lat="55.975048" lon="26.432173">
<ele>93.292053</ele>
<time>2010-08-29T17:02:56Z</time>
<desc>lat.=55.975048, lon.=26.432173, Alt.=93.292053m. Speed=21.240000m/h.</desc>
<speed>5.900000</speed>
</trkpt>
<trkpt lat="55.975010" lon="26.432238">
<ele>93.362366</ele>
<time>2010-08-29T17:02:57Z</time>
<desc>lat.=55.975010, lon.=26.432238, Alt.=93.362366m. Speed=21.743999m/h.</desc>
<speed>6.040000</speed>
</trkpt>
<trkpt lat="55.974972" lon="26.432304">
<ele>93.258850</ele>
<time>2010-08-29T17:02:58Z</time>
<desc>lat.=55.974972, lon.=26.432304, Alt.=93.258850m. Speed=22.139999m/h.</desc>
<speed>6.150000</speed>
</trkpt>
<trkpt lat="55.974934" lon="26.432367">
<ele>93.469788</ele>
<time>2010-08-29T17:02:59Z</time>
<desc>lat.=55.974934, lon.=26.432367, Alt.=93.469788m. Speed=22.535999m/h.</desc>
<speed>6.260000</speed>
</trkpt>
<trkpt lat="55.974892" lon="26.432432">
<ele>93.614319</ele>
<time>2010-08-29T17:03:00Z</time>
<desc>lat.=55.974892, lon.=26.432432, Alt.=93.614319m. Speed=23.112000m/h.</desc>
<speed>6.420000</speed>
</trkpt>
<trkpt lat="55.974846" lon="26.432495">
<ele>93.629944</ele>
<time>2010-08-29T17:03:01Z</time>
<desc>lat.=55.974846, lon.=26.432495, Alt.=93.629944m. Speed=23.544001m/h.</desc>
<speed>6.540000</speed>
</trkpt>
<trkpt lat="55.974800" lon="26.432564">
<ele>93.594788</ele>
<time>2010-08-29T17:03:02Z</time>
<desc>lat.=55.974800, lon.=26.432564, Alt.=93.594788m. Speed=23.903999m/h.</desc>
<speed>6.640000</speed>
</trkpt>
<trkpt lat="55.974754" lon="26.432631">
<ele>93.586975</ele>
<time>2010-08-29T17:03:03Z</time>
<desc>lat.=55.974754, lon.=26.432631, Alt.=93.586975m. Speed=23.940001m/h.</desc>
<speed>6.650000</speed>
</trkpt>
<trkpt lat="55.974709" lon="26.432699">
<ele>93.651428</ele>
<time>2010-08-29T17:03:04Z</time>
<desc>lat.=55.974709, lon.=26.432699, Alt.=93.651428m. Speed=23.400000m/h.</desc>
<speed>6.500000</speed>
</trkpt>
<trkpt lat="55.974667" lon="26.432766">
<ele>95.276428</ele>
<time>2010-08-29T17:03:05Z</time>
<desc>lat.=55.974667, lon.=26.432766, Alt.=95.276428m. Speed=21.959999m/h.</desc>
<speed>6.100000</speed>
</trkpt>
<trkpt lat="55.974625" lon="26.432829">
<ele>96.311584</ele>
<time>2010-08-29T17:03:06Z</time>
<desc>lat.=55.974625, lon.=26.432829, Alt.=96.311584m. Speed=21.959999m/h.</desc>
<speed>6.100000</speed>
</trkpt>
<trkpt lat="55.974583" lon="26.432894">
<ele>96.952209</ele>
<time>2010-08-29T17:03:07Z</time>
<desc>lat.=55.974583, lon.=26.432894, Alt.=96.952209m. Speed=21.240000m/h.</desc>
<speed>5.900000</speed>
</trkpt>
<trkpt lat="55.974545" lon="26.432961">
<ele>97.309631</ele>
<time>2010-08-29T17:03:08Z</time>
<desc>lat.=55.974545, lon.=26.432961, Alt.=97.309631m. Speed=21.492001m/h.</desc>
<speed>5.970000</speed>
</trkpt>
<trkpt lat="55.974503" lon="26.433023">
<ele>97.428772</ele>
<time>2010-08-29T17:03:09Z</time>
<desc>lat.=55.974503, lon.=26.433023, Alt.=97.428772m. Speed=20.591999m/h.</desc>
<speed>5.720000</speed>
</trkpt>
<trkpt lat="55.974461" lon="26.433084">
<ele>97.766663</ele>
<time>2010-08-29T17:03:10Z</time>
<desc>lat.=55.974461, lon.=26.433084, Alt.=97.766663m. Speed=20.448000m/h.</desc>
<speed>5.680000</speed>
</trkpt>
<trkpt lat="55.974419" lon="26.433146">
<ele>97.835022</ele>
<time>2010-08-29T17:03:11Z</time>
<desc>lat.=55.974419, lon.=26.433146, Alt.=97.835022m. Speed=19.944000m/h.</desc>
<speed>5.540000</speed>
</trkpt>
<trkpt lat="55.974380" lon="26.433205">
<ele>97.774475</ele>
<time>2010-08-29T17:03:12Z</time>
<desc>lat.=55.974380, lon.=26.433205, Alt.=97.774475m. Speed=19.944000m/h.</desc>
<speed>5.540000</speed>
</trkpt>
<trkpt lat="55.974342" lon="26.433262">
<ele>97.790100</ele>
<time>2010-08-29T17:03:13Z</time>
<desc>lat.=55.974342, lon.=26.433262, Alt.=97.790100m. Speed=19.584000m/h.</desc>
<speed>5.440000</speed>
</trkpt>
<trkpt lat="55.974308" lon="26.433321">
<ele>97.690491</ele>
<time>2010-08-29T17:03:14Z</time>
<desc>lat.=55.974308, lon.=26.433321, Alt.=97.690491m. Speed=20.232000m/h.</desc>
<speed>5.620000</speed>
</trkpt>
<trkpt lat="55.974270" lon="26.433376">
<ele>97.663147</ele>
<time>2010-08-29T17:03:15Z</time>
<desc>lat.=55.974270, lon.=26.433376, Alt.=97.663147m. Speed=20.628000m/h.</desc>
<speed>5.730000</speed>
</trkpt>
<trkpt lat="55.974228" lon="26.433435">
<ele>97.563538</ele>
<time>2010-08-29T17:03:16Z</time>
<desc>lat.=55.974228, lon.=26.433435, Alt.=97.563538m. Speed=21.024000m/h.</desc>
<speed>5.840000</speed>
</trkpt>
<trkpt lat="55.974190" lon="26.433496">
<ele>97.448303</ele>
<time>2010-08-29T17:03:17Z</time>
<desc>lat.=55.974190, lon.=26.433496, Alt.=97.448303m. Speed=21.348000m/h.</desc>
<speed>5.930000</speed>
</trkpt>
<trkpt lat="55.974148" lon="26.433558">
<ele>97.450256</ele>
<time>2010-08-29T17:03:18Z</time>
<desc>lat.=55.974148, lon.=26.433558, Alt.=97.450256m. Speed=21.528000m/h.</desc>
<speed>5.980000</speed>
</trkpt>
<trkpt lat="55.974106" lon="26.433620">
<ele>97.600647</ele>
<time>2010-08-29T17:03:19Z</time>
<desc>lat.=55.974106, lon.=26.433620, Alt.=97.600647m. Speed=20.916000m/h.</desc>
<speed>5.810000</speed>
</trkpt>
<trkpt lat="55.974072" lon="26.433681">
<ele>97.635803</ele>
<time>2010-08-29T17:03:20Z</time>
<desc>lat.=55.974072, lon.=26.433681, Alt.=97.635803m. Speed=20.556000m/h.</desc>
<speed>5.710000</speed>
</trkpt>
<trkpt lat="55.974033" lon="26.433743">
<ele>97.622131</ele>
<time>2010-08-29T17:03:21Z</time>
<desc>lat.=55.974033, lon.=26.433743, Alt.=97.622131m. Speed=20.268000m/h.</desc>
<speed>5.630000</speed>
</trkpt>
<trkpt lat="55.973995" lon="26.433800">
<ele>97.249084</ele>
<time>2010-08-29T17:03:22Z</time>
<desc>lat.=55.973995, lon.=26.433800, Alt.=97.249084m. Speed=20.736000m/h.</desc>
<speed>5.760000</speed>
</trkpt>
<trkpt lat="55.973953" lon="26.433859">
<ele>96.877991</ele>
<time>2010-08-29T17:03:23Z</time>
<desc>lat.=55.973953, lon.=26.433859, Alt.=96.877991m. Speed=21.167999m/h.</desc>
<speed>5.880000</speed>
</trkpt>
<trkpt lat="55.973915" lon="26.433918">
<ele>96.799866</ele>
<time>2010-08-29T17:03:24Z</time>
<desc>lat.=55.973915, lon.=26.433918, Alt.=96.799866m. Speed=21.672001m/h.</desc>
<speed>6.020000</speed>
</trkpt>
<trkpt lat="55.973873" lon="26.433981">
<ele>96.545959</ele>
<time>2010-08-29T17:03:25Z</time>
<desc>lat.=55.973873, lon.=26.433981, Alt.=96.545959m. Speed=22.176001m/h.</desc>
<speed>6.160000</speed>
</trkpt>
<trkpt lat="55.973831" lon="26.434050">
<ele>96.301819</ele>
<time>2010-08-29T17:03:26Z</time>
<desc>lat.=55.973831, lon.=26.434050, Alt.=96.301819m. Speed=22.608000m/h.</desc>
<speed>6.280000</speed>
</trkpt>
<trkpt lat="55.973785" lon="26.434118">
<ele>96.102600</ele>
<time>2010-08-29T17:03:27Z</time>
<desc>lat.=55.973785, lon.=26.434118, Alt.=96.102600m. Speed=23.076000m/h.</desc>
<speed>6.410000</speed>
</trkpt>
<trkpt lat="55.973743" lon="26.434191">
<ele>95.852600</ele>
<time>2010-08-29T17:03:28Z</time>
<desc>lat.=55.973743, lon.=26.434191, Alt.=95.852600m. Speed=23.507999m/h.</desc>
<speed>6.530000</speed>
</trkpt>
<trkpt lat="55.973701" lon="26.434263">
<ele>95.801819</ele>
<time>2010-08-29T17:03:29Z</time>
<desc>lat.=55.973701, lon.=26.434263, Alt.=95.801819m. Speed=23.903999m/h.</desc>
<speed>6.640000</speed>
</trkpt>
<trkpt lat="55.973656" lon="26.434332">
<ele>95.622131</ele>
<time>2010-08-29T17:03:30Z</time>
<desc>lat.=55.973656, lon.=26.434332, Alt.=95.622131m. Speed=23.436001m/h.</desc>
<speed>6.510000</speed>
</trkpt>
<trkpt lat="55.973610" lon="26.434402">
<ele>95.399475</ele>
<time>2010-08-29T17:03:31Z</time>
<desc>lat.=55.973610, lon.=26.434402, Alt.=95.399475m. Speed=22.823999m/h.</desc>
<speed>6.340000</speed>
</trkpt>
<trkpt lat="55.973568" lon="26.434471">
<ele>95.424866</ele>
<time>2010-08-29T17:03:32Z</time>
<desc>lat.=55.973568, lon.=26.434471, Alt.=95.424866m. Speed=22.788000m/h.</desc>
<speed>6.330000</speed>
</trkpt>
<trkpt lat="55.973526" lon="26.434542">
<ele>95.434631</ele>
<time>2010-08-29T17:03:33Z</time>
<desc>lat.=55.973526, lon.=26.434542, Alt.=95.434631m. Speed=23.256001m/h.</desc>
<speed>6.460000</speed>
</trkpt>
<trkpt lat="55.973480" lon="26.434612">
<ele>95.038147</ele>
<time>2010-08-29T17:03:34Z</time>
<desc>lat.=55.973480, lon.=26.434612, Alt.=95.038147m. Speed=23.580000m/h.</desc>
<speed>6.550000</speed>
</trkpt>
<trkpt lat="55.973438" lon="26.434683">
<ele>95.067444</ele>
<time>2010-08-29T17:03:35Z</time>
<desc>lat.=55.973438, lon.=26.434683, Alt.=95.067444m. Speed=23.976000m/h.</desc>
<speed>6.660000</speed>
</trkpt>
<trkpt lat="55.973392" lon="26.434755">
<ele>95.079163</ele>
<time>2010-08-29T17:03:36Z</time>
<desc>lat.=55.973392, lon.=26.434755, Alt.=95.079163m. Speed=24.228001m/h.</desc>
<speed>6.730000</speed>
</trkpt>
<trkpt lat="55.973351" lon="26.434830">
<ele>94.858459</ele>
<time>2010-08-29T17:03:37Z</time>
<desc>lat.=55.973351, lon.=26.434830, Alt.=94.858459m. Speed=24.480000m/h.</desc>
<speed>6.800000</speed>
</trkpt>
<trkpt lat="55.973305" lon="26.434900">
<ele>94.696350</ele>
<time>2010-08-29T17:03:38Z</time>
<desc>lat.=55.973305, lon.=26.434900, Alt.=94.696350m. Speed=24.804001m/h.</desc>
<speed>6.890000</speed>
</trkpt>
<trkpt lat="55.973259" lon="26.434973">
<ele>94.643616</ele>
<time>2010-08-29T17:03:39Z</time>
<desc>lat.=55.973259, lon.=26.434973, Alt.=94.643616m. Speed=25.200001m/h.</desc>
<speed>7.000000</speed>
</trkpt>
<trkpt lat="55.973213" lon="26.435047">
<ele>94.419006</ele>
<time>2010-08-29T17:03:40Z</time>
<desc>lat.=55.973213, lon.=26.435047, Alt.=94.419006m. Speed=25.164000m/h.</desc>
<speed>6.990000</speed>
</trkpt>
<trkpt lat="55.973164" lon="26.435120">
<ele>94.368225</ele>
<time>2010-08-29T17:03:41Z</time>
<desc>lat.=55.973164, lon.=26.435120, Alt.=94.368225m. Speed=25.775999m/h.</desc>
<speed>7.160000</speed>
</trkpt>
<trkpt lat="55.973118" lon="26.435196">
<ele>94.362366</ele>
<time>2010-08-29T17:03:42Z</time>
<desc>lat.=55.973118, lon.=26.435196, Alt.=94.362366m. Speed=26.280001m/h.</desc>
<speed>7.300000</speed>
</trkpt>
<trkpt lat="55.973068" lon="26.435272">
<ele>94.405334</ele>
<time>2010-08-29T17:03:43Z</time>
<desc>lat.=55.973068, lon.=26.435272, Alt.=94.405334m. Speed=26.424000m/h.</desc>
<speed>7.340000</speed>
</trkpt>
<trkpt lat="55.973019" lon="26.435347">
<ele>94.192444</ele>
<time>2010-08-29T17:03:44Z</time>
<desc>lat.=55.973019, lon.=26.435347, Alt.=94.192444m. Speed=25.884001m/h.</desc>
<speed>7.190000</speed>
</trkpt>
<trkpt lat="55.972969" lon="26.435419">
<ele>93.881897</ele>
<time>2010-08-29T17:03:45Z</time>
<desc>lat.=55.972969, lon.=26.435419, Alt.=93.881897m. Speed=25.056000m/h.</desc>
<speed>6.960000</speed>
</trkpt>
<trkpt lat="55.972919" lon="26.435493">
<ele>94.044006</ele>
<time>2010-08-29T17:03:46Z</time>
<desc>lat.=55.972919, lon.=26.435493, Alt.=94.044006m. Speed=24.480000m/h.</desc>
<speed>6.800000</speed>
</trkpt>
<trkpt lat="55.972874" lon="26.435566">
<ele>94.278381</ele>
<time>2010-08-29T17:03:47Z</time>
<desc>lat.=55.972874, lon.=26.435566, Alt.=94.278381m. Speed=23.903999m/h.</desc>
<speed>6.640000</speed>
</trkpt>
<trkpt lat="55.972828" lon="26.435635">
<ele>94.174866</ele>
<time>2010-08-29T17:03:48Z</time>
<desc>lat.=55.972828, lon.=26.435635, Alt.=94.174866m. Speed=23.184000m/h.</desc>
<speed>6.440000</speed>
</trkpt>
<trkpt lat="55.972790" lon="26.435709">
<ele>94.008850</ele>
<time>2010-08-29T17:03:49Z</time>
<desc>lat.=55.972790, lon.=26.435709, Alt.=94.008850m. Speed=23.219999m/h.</desc>
<speed>6.450000</speed>
</trkpt>
<trkpt lat="55.972752" lon="26.435791">
<ele>93.999084</ele>
<time>2010-08-29T17:03:50Z</time>
<desc>lat.=55.972752, lon.=26.435791, Alt.=93.999084m. Speed=23.760000m/h.</desc>
<speed>6.600000</speed>
</trkpt>
<trkpt lat="55.972713" lon="26.435875">
<ele>93.585022</ele>
<time>2010-08-29T17:03:51Z</time>
<desc>lat.=55.972713, lon.=26.435875, Alt.=93.585022m. Speed=24.120001m/h.</desc>
<speed>6.700000</speed>
</trkpt>
<trkpt lat="55.972672" lon="26.435951">
<ele>93.708069</ele>
<time>2010-08-29T17:03:52Z</time>
<desc>lat.=55.972672, lon.=26.435951, Alt.=93.708069m. Speed=24.480000m/h.</desc>
<speed>6.800000</speed>
</trkpt>
<trkpt lat="55.972626" lon="26.436029">
<ele>93.770569</ele>
<time>2010-08-29T17:03:53Z</time>
<desc>lat.=55.972626, lon.=26.436029, Alt.=93.770569m. Speed=25.020000m/h.</desc>
<speed>6.950000</speed>
</trkpt>
<trkpt lat="55.972576" lon="26.436106">
<ele>93.833069</ele>
<time>2010-08-29T17:03:54Z</time>
<desc>lat.=55.972576, lon.=26.436106, Alt.=93.833069m. Speed=25.596001m/h.</desc>
<speed>7.110000</speed>
</trkpt>
<trkpt lat="55.972527" lon="26.436180">
<ele>93.985413</ele>
<time>2010-08-29T17:03:55Z</time>
<desc>lat.=55.972527, lon.=26.436180, Alt.=93.985413m. Speed=25.704000m/h.</desc>
<speed>7.140000</speed>
</trkpt>
<trkpt lat="55.972477" lon="26.436255">
<ele>94.081116</ele>
<time>2010-08-29T17:03:56Z</time>
<desc>lat.=55.972477, lon.=26.436255, Alt.=94.081116m. Speed=25.164000m/h.</desc>
<speed>6.990000</speed>
</trkpt>
<trkpt lat="55.972431" lon="26.436331">
<ele>93.940491</ele>
<time>2010-08-29T17:03:57Z</time>
<desc>lat.=55.972431, lon.=26.436331, Alt.=93.940491m. Speed=24.587999m/h.</desc>
<speed>6.830000</speed>
</trkpt>
<trkpt lat="55.972385" lon="26.436401">
<ele>93.737366</ele>
<time>2010-08-29T17:03:58Z</time>
<desc>lat.=55.972385, lon.=26.436401, Alt.=93.737366m. Speed=24.120001m/h.</desc>
<speed>6.700000</speed>
</trkpt>
<trkpt lat="55.972340" lon="26.436470">
<ele>93.715881</ele>
<time>2010-08-29T17:03:59Z</time>
<desc>lat.=55.972340, lon.=26.436470, Alt.=93.715881m. Speed=23.652000m/h.</desc>
<speed>6.570000</speed>
</trkpt>
<trkpt lat="55.972298" lon="26.436539">
<ele>93.583069</ele>
<time>2010-08-29T17:04:00Z</time>
<desc>lat.=55.972298, lon.=26.436539, Alt.=93.583069m. Speed=23.219999m/h.</desc>
<speed>6.450000</speed>
</trkpt>
<trkpt lat="55.972256" lon="26.436613">
<ele>93.596741</ele>
<time>2010-08-29T17:04:01Z</time>
<desc>lat.=55.972256, lon.=26.436613, Alt.=93.596741m. Speed=22.608000m/h.</desc>
<speed>6.280000</speed>
</trkpt>
<trkpt lat="55.972221" lon="26.436686">
<ele>93.754944</ele>
<time>2010-08-29T17:04:02Z</time>
<desc>lat.=55.972221, lon.=26.436686, Alt.=93.754944m. Speed=22.392000m/h.</desc>
<speed>6.220000</speed>
</trkpt>
<trkpt lat="55.972179" lon="26.436758">
<ele>92.946350</ele>
<time>2010-08-29T17:04:03Z</time>
<desc>lat.=55.972179, lon.=26.436758, Alt.=92.946350m. Speed=21.636000m/h.</desc>
<speed>6.010000</speed>
</trkpt>
<trkpt lat="55.972141" lon="26.436817">
<ele>92.307678</ele>
<time>2010-08-29T17:04:04Z</time>
<desc>lat.=55.972141, lon.=26.436817, Alt.=92.307678m. Speed=20.700001m/h.</desc>
<speed>5.750000</speed>
</trkpt>
<trkpt lat="55.972095" lon="26.436878">
<ele>92.182678</ele>
<time>2010-08-29T17:04:05Z</time>
<desc>lat.=55.972095, lon.=26.436878, Alt.=92.182678m. Speed=22.572001m/h.</desc>
<speed>6.270000</speed>
</trkpt>
<trkpt lat="55.972054" lon="26.436945">
<ele>92.540100</ele>
<time>2010-08-29T17:04:06Z</time>
<desc>lat.=55.972054, lon.=26.436945, Alt.=92.540100m. Speed=21.455999m/h.</desc>
<speed>5.960000</speed>
</trkpt>
<trkpt lat="55.972015" lon="26.437014">
<ele>92.614319</ele>
<time>2010-08-29T17:04:07Z</time>
<desc>lat.=55.972015, lon.=26.437014, Alt.=92.614319m. Speed=21.167999m/h.</desc>
<speed>5.880000</speed>
</trkpt>
<trkpt lat="55.971977" lon="26.437080">
<ele>92.821350</ele>
<time>2010-08-29T17:04:08Z</time>
<desc>lat.=55.971977, lon.=26.437080, Alt.=92.821350m. Speed=21.420000m/h.</desc>
<speed>5.950000</speed>
</trkpt>
<trkpt lat="55.971939" lon="26.437140">
<ele>92.751038</ele>
<time>2010-08-29T17:04:09Z</time>
<desc>lat.=55.971939, lon.=26.437140, Alt.=92.751038m. Speed=21.204000m/h.</desc>
<speed>5.890000</speed>
</trkpt>
<trkpt lat="55.971897" lon="26.437199">
<ele>92.760803</ele>
<time>2010-08-29T17:04:10Z</time>
<desc>lat.=55.971897, lon.=26.437199, Alt.=92.760803m. Speed=21.959999m/h.</desc>
<speed>6.100000</speed>
</trkpt>
<trkpt lat="55.971859" lon="26.437262">
<ele>92.665100</ele>
<time>2010-08-29T17:04:11Z</time>
<desc>lat.=55.971859, lon.=26.437262, Alt.=92.665100m. Speed=21.816000m/h.</desc>
<speed>6.060000</speed>
</trkpt>
<trkpt lat="55.971817" lon="26.437328">
<ele>93.454163</ele>
<time>2010-08-29T17:04:12Z</time>
<desc>lat.=55.971817, lon.=26.437328, Alt.=93.454163m. Speed=22.104000m/h.</desc>
<speed>6.140000</speed>
</trkpt>
<trkpt lat="55.971775" lon="26.437391">
<ele>93.286194</ele>
<time>2010-08-29T17:04:13Z</time>
<desc>lat.=55.971775, lon.=26.437391, Alt.=93.286194m. Speed=22.176001m/h.</desc>
<speed>6.160000</speed>
</trkpt>
<trkpt lat="55.971733" lon="26.437458">
<ele>93.268616</ele>
<time>2010-08-29T17:04:14Z</time>
<desc>lat.=55.971733, lon.=26.437458, Alt.=93.268616m. Speed=21.959999m/h.</desc>
<speed>6.100000</speed>
</trkpt>
<trkpt lat="55.971695" lon="26.437525">
<ele>93.124084</ele>
<time>2010-08-29T17:04:15Z</time>
<desc>lat.=55.971695, lon.=26.437525, Alt.=93.124084m. Speed=22.176001m/h.</desc>
<speed>6.160000</speed>
</trkpt>
<trkpt lat="55.971653" lon="26.437592">
<ele>93.143616</ele>
<time>2010-08-29T17:04:16Z</time>
<desc>lat.=55.971653, lon.=26.437592, Alt.=93.143616m. Speed=22.139999m/h.</desc>
<speed>6.150000</speed>
</trkpt>
<trkpt lat="55.971611" lon="26.437654">
<ele>93.069397</ele>
<time>2010-08-29T17:04:17Z</time>
<desc>lat.=55.971611, lon.=26.437654, Alt.=93.069397m. Speed=22.356001m/h.</desc>
<speed>6.210000</speed>
</trkpt>
<trkpt lat="55.971569" lon="26.437717">
<ele>93.256897</ele>
<time>2010-08-29T17:04:18Z</time>
<desc>lat.=55.971569, lon.=26.437717, Alt.=93.256897m. Speed=22.139999m/h.</desc>
<speed>6.150000</speed>
</trkpt>
<trkpt lat="55.971527" lon="26.437784">
<ele>93.356506</ele>
<time>2010-08-29T17:04:19Z</time>
<desc>lat.=55.971527, lon.=26.437784, Alt.=93.356506m. Speed=22.212000m/h.</desc>
<speed>6.170000</speed>
</trkpt>
<trkpt lat="55.971489" lon="26.437849">
<ele>93.530334</ele>
<time>2010-08-29T17:04:20Z</time>
<desc>lat.=55.971489, lon.=26.437849, Alt.=93.530334m. Speed=22.212000m/h.</desc>
<speed>6.170000</speed>
</trkpt>
<trkpt lat="55.971447" lon="26.437912">
<ele>93.297913</ele>
<time>2010-08-29T17:04:21Z</time>
<desc>lat.=55.971447, lon.=26.437912, Alt.=93.297913m. Speed=22.284000m/h.</desc>
<speed>6.190000</speed>
</trkpt>
<trkpt lat="55.971405" lon="26.437979">
<ele>93.282288</ele>
<time>2010-08-29T17:04:22Z</time>
<desc>lat.=55.971405, lon.=26.437979, Alt.=93.282288m. Speed=22.176001m/h.</desc>
<speed>6.160000</speed>
</trkpt>
<trkpt lat="55.971363" lon="26.438046">
<ele>93.290100</ele>
<time>2010-08-29T17:04:23Z</time>
<desc>lat.=55.971363, lon.=26.438046, Alt.=93.290100m. Speed=22.427999m/h.</desc>
<speed>6.230000</speed>
</trkpt>
<trkpt lat="55.971317" lon="26.438114">
<ele>93.051819</ele>
<time>2010-08-29T17:04:24Z</time>
<desc>lat.=55.971317, lon.=26.438114, Alt.=93.051819m. Speed=22.427999m/h.</desc>
<speed>6.230000</speed>
</trkpt>
<trkpt lat="55.971275" lon="26.438185">
<ele>92.920959</ele>
<time>2010-08-29T17:04:25Z</time>
<desc>lat.=55.971275, lon.=26.438185, Alt.=92.920959m. Speed=22.535999m/h.</desc>
<speed>6.260000</speed>
</trkpt>
<trkpt lat="55.971233" lon="26.438255">
<ele>92.995178</ele>
<time>2010-08-29T17:04:26Z</time>
<desc>lat.=55.971233, lon.=26.438255, Alt.=92.995178m. Speed=23.040001m/h.</desc>
<speed>6.400000</speed>
</trkpt>
<trkpt lat="55.971191" lon="26.438318">
<ele>92.516663</ele>
<time>2010-08-29T17:04:27Z</time>
<desc>lat.=55.971191, lon.=26.438318, Alt.=92.516663m. Speed=22.968000m/h.</desc>
<speed>6.380000</speed>
</trkpt>
<trkpt lat="55.971146" lon="26.438381">
<ele>92.434631</ele>
<time>2010-08-29T17:04:28Z</time>
<desc>lat.=55.971146, lon.=26.438381, Alt.=92.434631m. Speed=23.076000m/h.</desc>
<speed>6.410000</speed>
</trkpt>
<trkpt lat="55.971104" lon="26.438452">
<ele>92.544006</ele>
<time>2010-08-29T17:04:29Z</time>
<desc>lat.=55.971104, lon.=26.438452, Alt.=92.544006m. Speed=23.184000m/h.</desc>
<speed>6.440000</speed>
</trkpt>
<trkpt lat="55.971062" lon="26.438522">
<ele>92.526428</ele>
<time>2010-08-29T17:04:30Z</time>
<desc>lat.=55.971062, lon.=26.438522, Alt.=92.526428m. Speed=23.112000m/h.</desc>
<speed>6.420000</speed>
</trkpt>
<trkpt lat="55.971020" lon="26.438593">
<ele>92.469788</ele>
<time>2010-08-29T17:04:31Z</time>
<desc>lat.=55.971020, lon.=26.438593, Alt.=92.469788m. Speed=23.724001m/h.</desc>
<speed>6.590000</speed>
</trkpt>
<trkpt lat="55.970974" lon="26.438660">
<ele>92.487366</ele>
<time>2010-08-29T17:04:32Z</time>
<desc>lat.=55.970974, lon.=26.438660, Alt.=92.487366m. Speed=23.652000m/h.</desc>
<speed>6.570000</speed>
</trkpt>
<trkpt lat="55.970928" lon="26.438730">
<ele>92.524475</ele>
<time>2010-08-29T17:04:33Z</time>
<desc>lat.=55.970928, lon.=26.438730, Alt.=92.524475m. Speed=23.040001m/h.</desc>
<speed>6.400000</speed>
</trkpt>
<trkpt lat="55.970882" lon="26.438797">
<ele>92.477600</ele>
<time>2010-08-29T17:04:34Z</time>
<desc>lat.=55.970882, lon.=26.438797, Alt.=92.477600m. Speed=22.643999m/h.</desc>
<speed>6.290000</speed>
</trkpt>
<trkpt lat="55.970840" lon="26.438866">
<ele>92.473694</ele>
<time>2010-08-29T17:04:35Z</time>
<desc>lat.=55.970840, lon.=26.438866, Alt.=92.473694m. Speed=22.032000m/h.</desc>
<speed>6.120000</speed>
</trkpt>
<trkpt lat="55.970798" lon="26.438929">
<ele>92.407288</ele>
<time>2010-08-29T17:04:36Z</time>
<desc>lat.=55.970798, lon.=26.438929, Alt.=92.407288m. Speed=21.240000m/h.</desc>
<speed>5.900000</speed>
</trkpt>
<trkpt lat="55.970757" lon="26.438992">
<ele>92.192444</ele>
<time>2010-08-29T17:04:37Z</time>
<desc>lat.=55.970757, lon.=26.438992, Alt.=92.192444m. Speed=20.988001m/h.</desc>
<speed>5.830000</speed>
</trkpt>
<trkpt lat="55.970718" lon="26.439049">
<ele>92.098694</ele>
<time>2010-08-29T17:04:38Z</time>
<desc>lat.=55.970718, lon.=26.439049, Alt.=92.098694m. Speed=20.520000m/h.</desc>
<speed>5.700000</speed>
</trkpt>
<trkpt lat="55.970680" lon="26.439106">
<ele>93.051819</ele>
<time>2010-08-29T17:04:39Z</time>
<desc>lat.=55.970680, lon.=26.439106, Alt.=93.051819m. Speed=20.195999m/h.</desc>
<speed>5.610000</speed>
</trkpt>
<trkpt lat="55.970642" lon="26.439163">
<ele>92.811584</ele>
<time>2010-08-29T17:04:40Z</time>
<desc>lat.=55.970642, lon.=26.439163, Alt.=92.811584m. Speed=19.656000m/h.</desc>
<speed>5.460000</speed>
</trkpt>
<trkpt lat="55.970608" lon="26.439224">
<ele>92.608459</ele>
<time>2010-08-29T17:04:41Z</time>
<desc>lat.=55.970608, lon.=26.439224, Alt.=92.608459m. Speed=20.520000m/h.</desc>
<speed>5.700000</speed>
</trkpt>
<trkpt lat="55.970573" lon="26.439289">
<ele>92.751038</ele>
<time>2010-08-29T17:04:42Z</time>
<desc>lat.=55.970573, lon.=26.439289, Alt.=92.751038m. Speed=19.944000m/h.</desc>
<speed>5.540000</speed>
</trkpt>
<trkpt lat="55.970535" lon="26.439346">
<ele>92.586975</ele>
<time>2010-08-29T17:04:43Z</time>
<desc>lat.=55.970535, lon.=26.439346, Alt.=92.586975m. Speed=21.059999m/h.</desc>
<speed>5.850000</speed>
</trkpt>
<trkpt lat="55.970493" lon="26.439409">
<ele>92.710022</ele>
<time>2010-08-29T17:04:44Z</time>
<desc>lat.=55.970493, lon.=26.439409, Alt.=92.710022m. Speed=21.167999m/h.</desc>
<speed>5.880000</speed>
</trkpt>
<trkpt lat="55.970455" lon="26.439472">
<ele>92.940491</ele>
<time>2010-08-29T17:04:45Z</time>
<desc>lat.=55.970455, lon.=26.439472, Alt.=92.940491m. Speed=21.420000m/h.</desc>
<speed>5.950000</speed>
</trkpt>
<trkpt lat="55.970417" lon="26.439541">
<ele>93.235413</ele>
<time>2010-08-29T17:04:46Z</time>
<desc>lat.=55.970417, lon.=26.439541, Alt.=93.235413m. Speed=21.672001m/h.</desc>
<speed>6.020000</speed>
</trkpt>
<trkpt lat="55.970379" lon="26.439608">
<ele>93.403381</ele>
<time>2010-08-29T17:04:47Z</time>
<desc>lat.=55.970379, lon.=26.439608, Alt.=93.403381m. Speed=22.392000m/h.</desc>
<speed>6.220000</speed>
</trkpt>
<trkpt lat="55.970337" lon="26.439669">
<ele>93.502991</ele>
<time>2010-08-29T17:04:48Z</time>
<desc>lat.=55.970337, lon.=26.439669, Alt.=93.502991m. Speed=22.284000m/h.</desc>
<speed>6.190000</speed>
</trkpt>
<trkpt lat="55.970295" lon="26.439732">
<ele>93.200256</ele>
<time>2010-08-29T17:04:49Z</time>
<desc>lat.=55.970295, lon.=26.439732, Alt.=93.200256m. Speed=23.472000m/h.</desc>
<speed>6.520000</speed>
</trkpt>
<trkpt lat="55.970253" lon="26.439800">
<ele>92.960022</ele>
<time>2010-08-29T17:04:50Z</time>
<desc>lat.=55.970253, lon.=26.439800, Alt.=92.960022m. Speed=23.652000m/h.</desc>
<speed>6.570000</speed>
</trkpt>
<trkpt lat="55.970207" lon="26.439869">
<ele>92.794006</ele>
<time>2010-08-29T17:04:51Z</time>
<desc>lat.=55.970207, lon.=26.439869, Alt.=92.794006m. Speed=24.299999m/h.</desc>
<speed>6.750000</speed>
</trkpt>
<trkpt lat="55.970158" lon="26.439943">
<ele>92.682678</ele>
<time>2010-08-29T17:04:52Z</time>
<desc>lat.=55.970158, lon.=26.439943, Alt.=92.682678m. Speed=24.912001m/h.</desc>
<speed>6.920000</speed>
</trkpt>
<trkpt lat="55.970112" lon="26.440018">
<ele>92.387756</ele>
<time>2010-08-29T17:04:53Z</time>
<desc>lat.=55.970112, lon.=26.440018, Alt.=92.387756m. Speed=25.379999m/h.</desc>
<speed>7.050000</speed>
</trkpt>
<trkpt lat="55.970062" lon="26.440098">
<ele>92.764709</ele>
<time>2010-08-29T17:04:54Z</time>
<desc>lat.=55.970062, lon.=26.440098, Alt.=92.764709m. Speed=25.740000m/h.</desc>
<speed>7.150000</speed>
</trkpt>
<trkpt lat="55.970016" lon="26.440174">
<ele>92.749084</ele>
<time>2010-08-29T17:04:55Z</time>
<desc>lat.=55.970016, lon.=26.440174, Alt.=92.749084m. Speed=25.812000m/h.</desc>
<speed>7.170000</speed>
</trkpt>
<trkpt lat="55.969971" lon="26.440254">
<ele>93.493225</ele>
<time>2010-08-29T17:04:56Z</time>
<desc>lat.=55.969971, lon.=26.440254, Alt.=93.493225m. Speed=26.496000m/h.</desc>
<speed>7.360000</speed>
</trkpt>
<trkpt lat="55.969925" lon="26.440334">
<ele>93.975647</ele>
<time>2010-08-29T17:04:57Z</time>
<desc>lat.=55.969925, lon.=26.440334, Alt.=93.975647m. Speed=24.804001m/h.</desc>
<speed>6.890000</speed>
</trkpt>
<trkpt lat="55.969879" lon="26.440403">
<ele>94.794006</ele>
<time>2010-08-29T17:04:58Z</time>
<desc>lat.=55.969879, lon.=26.440403, Alt.=94.794006m. Speed=22.968000m/h.</desc>
<speed>6.380000</speed>
</trkpt>
<trkpt lat="55.969833" lon="26.440472">
<ele>95.329163</ele>
<time>2010-08-29T17:04:59Z</time>
<desc>lat.=55.969833, lon.=26.440472, Alt.=95.329163m. Speed=23.688000m/h.</desc>
<speed>6.580000</speed>
</trkpt>
<trkpt lat="55.969795" lon="26.440542">
<ele>95.727600</ele>
<time>2010-08-29T17:05:00Z</time>
<desc>lat.=55.969795, lon.=26.440542, Alt.=95.727600m. Speed=22.896000m/h.</desc>
<speed>6.360000</speed>
</trkpt>
<trkpt lat="55.969753" lon="26.440611">
<ele>96.950256</ele>
<time>2010-08-29T17:05:01Z</time>
<desc>lat.=55.969753, lon.=26.440611, Alt.=96.950256m. Speed=21.528000m/h.</desc>
<speed>5.980000</speed>
</trkpt>
<trkpt lat="55.969715" lon="26.440672">
<ele>97.588928</ele>
<time>2010-08-29T17:05:02Z</time>
<desc>lat.=55.969715, lon.=26.440672, Alt.=97.588928m. Speed=20.628000m/h.</desc>
<speed>5.730000</speed>
</trkpt>
<trkpt lat="55.969677" lon="26.440735">
<ele>98.448303</ele>
<time>2010-08-29T17:05:03Z</time>
<desc>lat.=55.969677, lon.=26.440735, Alt.=98.448303m. Speed=20.448000m/h.</desc>
<speed>5.680000</speed>
</trkpt>
<trkpt lat="55.969643" lon="26.440798">
<ele>99.270569</ele>
<time>2010-08-29T17:05:04Z</time>
<desc>lat.=55.969643, lon.=26.440798, Alt.=99.270569m. Speed=20.483999m/h.</desc>
<speed>5.690000</speed>
</trkpt>
<trkpt lat="55.969604" lon="26.440866">
<ele>99.702209</ele>
<time>2010-08-29T17:05:05Z</time>
<desc>lat.=55.969604, lon.=26.440866, Alt.=99.702209m. Speed=21.204000m/h.</desc>
<speed>5.890000</speed>
</trkpt>
<trkpt lat="55.969566" lon="26.440933">
<ele>99.710022</ele>
<time>2010-08-29T17:05:06Z</time>
<desc>lat.=55.969566, lon.=26.440933, Alt.=99.710022m. Speed=21.851999m/h.</desc>
<speed>6.070000</speed>
</trkpt>
<trkpt lat="55.969521" lon="26.440990">
<ele>98.260803</ele>
<time>2010-08-29T17:05:07Z</time>
<desc>lat.=55.969521, lon.=26.440990, Alt.=98.260803m. Speed=22.212000m/h.</desc>
<speed>6.170000</speed>
</trkpt>
<trkpt lat="55.969479" lon="26.441059">
<ele>98.028381</ele>
<time>2010-08-29T17:05:08Z</time>
<desc>lat.=55.969479, lon.=26.441059, Alt.=98.028381m. Speed=22.608000m/h.</desc>
<speed>6.280000</speed>
</trkpt>
<trkpt lat="55.969433" lon="26.441128">
<ele>97.922913</ele>
<time>2010-08-29T17:05:09Z</time>
<desc>lat.=55.969433, lon.=26.441128, Alt.=97.922913m. Speed=22.716000m/h.</desc>
<speed>6.310000</speed>
</trkpt>
<trkpt lat="55.969391" lon="26.441195">
<ele>97.877991</ele>
<time>2010-08-29T17:05:10Z</time>
<desc>lat.=55.969391, lon.=26.441195, Alt.=97.877991m. Speed=23.472000m/h.</desc>
<speed>6.520000</speed>
</trkpt>
<trkpt lat="55.969345" lon="26.441263">
<ele>97.790100</ele>
<time>2010-08-29T17:05:11Z</time>
<desc>lat.=55.969345, lon.=26.441263, Alt.=97.790100m. Speed=23.148001m/h.</desc>
<speed>6.430000</speed>
</trkpt>
<trkpt lat="55.969299" lon="26.441328">
<ele>97.659241</ele>
<time>2010-08-29T17:05:12Z</time>
<desc>lat.=55.969299, lon.=26.441328, Alt.=97.659241m. Speed=22.680000m/h.</desc>
<speed>6.300000</speed>
</trkpt>
<trkpt lat="55.969254" lon="26.441393">
<ele>97.307678</ele>
<time>2010-08-29T17:05:13Z</time>
<desc>lat.=55.969254, lon.=26.441393, Alt.=97.307678m. Speed=22.427999m/h.</desc>
<speed>6.230000</speed>
</trkpt>
<trkpt lat="55.969212" lon="26.441462">
<ele>96.254944</ele>
<time>2010-08-29T17:05:14Z</time>
<desc>lat.=55.969212, lon.=26.441462, Alt.=96.254944m. Speed=24.875999m/h.</desc>
<speed>6.910000</speed>
</trkpt>
<trkpt lat="55.969173" lon="26.441536">
<ele>96.006897</ele>
<time>2010-08-29T17:05:15Z</time>
<desc>lat.=55.969173, lon.=26.441536, Alt.=96.006897m. Speed=20.916000m/h.</desc>
<speed>5.810000</speed>
</trkpt>
<trkpt lat="55.969131" lon="26.441603">
<ele>96.192444</ele>
<time>2010-08-29T17:05:16Z</time>
<desc>lat.=55.969131, lon.=26.441603, Alt.=96.192444m. Speed=21.312000m/h.</desc>
<speed>5.920000</speed>
</trkpt>
<trkpt lat="55.969093" lon="26.441662">
<ele>96.055725</ele>
<time>2010-08-29T17:05:17Z</time>
<desc>lat.=55.969093, lon.=26.441662, Alt.=96.055725m. Speed=21.528000m/h.</desc>
<speed>5.980000</speed>
</trkpt>
<trkpt lat="55.969051" lon="26.441725">
<ele>95.774475</ele>
<time>2010-08-29T17:05:18Z</time>
<desc>lat.=55.969051, lon.=26.441725, Alt.=95.774475m. Speed=22.104000m/h.</desc>
<speed>6.140000</speed>
</trkpt>
<trkpt lat="55.969013" lon="26.441792">
<ele>95.669006</ele>
<time>2010-08-29T17:05:19Z</time>
<desc>lat.=55.969013, lon.=26.441792, Alt.=95.669006m. Speed=21.743999m/h.</desc>
<speed>6.040000</speed>
</trkpt>
<trkpt lat="55.968971" lon="26.441854">
<ele>95.010803</ele>
<time>2010-08-29T17:05:20Z</time>
<desc>lat.=55.968971, lon.=26.441854, Alt.=95.010803m. Speed=22.931999m/h.</desc>
<speed>6.370000</speed>
</trkpt>
<trkpt lat="55.968929" lon="26.441925">
<ele>95.495178</ele>
<time>2010-08-29T17:05:21Z</time>
<desc>lat.=55.968929, lon.=26.441925, Alt.=95.495178m. Speed=21.132000m/h.</desc>
<speed>5.870000</speed>
</trkpt>
<trkpt lat="55.968891" lon="26.441990">
<ele>95.760803</ele>
<time>2010-08-29T17:05:22Z</time>
<desc>lat.=55.968891, lon.=26.441990, Alt.=95.760803m. Speed=22.139999m/h.</desc>
<speed>6.150000</speed>
</trkpt>
<trkpt lat="55.968849" lon="26.442053">
<ele>96.069397</ele>
<time>2010-08-29T17:05:23Z</time>
<desc>lat.=55.968849, lon.=26.442053, Alt.=96.069397m. Speed=20.556000m/h.</desc>
<speed>5.710000</speed>
</trkpt>
<trkpt lat="55.968811" lon="26.442110">
<ele>96.044006</ele>
<time>2010-08-29T17:05:24Z</time>
<desc>lat.=55.968811, lon.=26.442110, Alt.=96.044006m. Speed=20.268000m/h.</desc>
<speed>5.630000</speed>
</trkpt>
<trkpt lat="55.968777" lon="26.442165">
<ele>95.743225</ele>
<time>2010-08-29T17:05:25Z</time>
<desc>lat.=55.968777, lon.=26.442165, Alt.=95.743225m. Speed=19.799999m/h.</desc>
<speed>5.500000</speed>
</trkpt>
<trkpt lat="55.968750" lon="26.442274">
<ele>100.225647</ele>
<time>2010-08-29T17:05:26Z</time>
<desc>lat.=55.968750, lon.=26.442274, Alt.=100.225647m. Speed=25.775999m/h.</desc>
<speed>7.160000</speed>
</trkpt>
<trkpt lat="55.968716" lon="26.442356">
<ele>101.725647</ele>
<time>2010-08-29T17:05:27Z</time>
<desc>lat.=55.968716, lon.=26.442356, Alt.=101.725647m. Speed=22.968000m/h.</desc>
<speed>6.380000</speed>
</trkpt>
<trkpt lat="55.968681" lon="26.442415">
<ele>101.897522</ele>
<time>2010-08-29T17:05:28Z</time>
<desc>lat.=55.968681, lon.=26.442415, Alt.=101.897522m. Speed=20.591999m/h.</desc>
<speed>5.720000</speed>
</trkpt>
<trkpt lat="55.968647" lon="26.442471">
<ele>102.372131</ele>
<time>2010-08-29T17:05:29Z</time>
<desc>lat.=55.968647, lon.=26.442471, Alt.=102.372131m. Speed=18.504000m/h.</desc>
<speed>5.140000</speed>
</trkpt>
<trkpt lat="55.968616" lon="26.442520">
<ele>102.706116</ele>
<time>2010-08-29T17:05:30Z</time>
<desc>lat.=55.968616, lon.=26.442520, Alt.=102.706116m. Speed=18.864000m/h.</desc>
<speed>5.240000</speed>
</trkpt>
<trkpt lat="55.968586" lon="26.442572">
<ele>102.879944</ele>
<time>2010-08-29T17:05:31Z</time>
<desc>lat.=55.968586, lon.=26.442572, Alt.=102.879944m. Speed=19.980000m/h.</desc>
<speed>5.550000</speed>
</trkpt>
<trkpt lat="55.968548" lon="26.442623">
<ele>102.458069</ele>
<time>2010-08-29T17:05:32Z</time>
<desc>lat.=55.968548, lon.=26.442623, Alt.=102.458069m. Speed=20.664000m/h.</desc>
<speed>5.740000</speed>
</trkpt>
<trkpt lat="55.968510" lon="26.442686">
<ele>102.575256</ele>
<time>2010-08-29T17:05:33Z</time>
<desc>lat.=55.968510, lon.=26.442686, Alt.=102.575256m. Speed=21.420000m/h.</desc>
<speed>5.950000</speed>
</trkpt>
<trkpt lat="55.968468" lon="26.442749">
<ele>102.231506</ele>
<time>2010-08-29T17:05:34Z</time>
<desc>lat.=55.968468, lon.=26.442749, Alt.=102.231506m. Speed=21.851999m/h.</desc>
<speed>6.070000</speed>
</trkpt>
<trkpt lat="55.968426" lon="26.442812">
<ele>101.973694</ele>
<time>2010-08-29T17:05:35Z</time>
<desc>lat.=55.968426, lon.=26.442812, Alt.=101.973694m. Speed=22.104000m/h.</desc>
<speed>6.140000</speed>
</trkpt>
<trkpt lat="55.968384" lon="26.442877">
<ele>101.926819</ele>
<time>2010-08-29T17:05:36Z</time>
<desc>lat.=55.968384, lon.=26.442877, Alt.=101.926819m. Speed=22.356001m/h.</desc>
<speed>6.210000</speed>
</trkpt>
<trkpt lat="55.968342" lon="26.442945">
<ele>102.163147</ele>
<time>2010-08-29T17:05:37Z</time>
<desc>lat.=55.968342, lon.=26.442945, Alt.=102.163147m. Speed=22.464001m/h.</desc>
<speed>6.240000</speed>
</trkpt>
<trkpt lat="55.968300" lon="26.443012">
<ele>102.233459</ele>
<time>2010-08-29T17:05:38Z</time>
<desc>lat.=55.968300, lon.=26.443012, Alt.=102.233459m. Speed=22.788000m/h.</desc>
<speed>6.330000</speed>
</trkpt>
<trkpt lat="55.968258" lon="26.443079">
<ele>102.420959</ele>
<time>2010-08-29T17:05:39Z</time>
<desc>lat.=55.968258, lon.=26.443079, Alt.=102.420959m. Speed=22.931999m/h.</desc>
<speed>6.370000</speed>
</trkpt>
<trkpt lat="55.968212" lon="26.443142">
<ele>102.405334</ele>
<time>2010-08-29T17:05:40Z</time>
<desc>lat.=55.968212, lon.=26.443142, Alt.=102.405334m. Speed=22.427999m/h.</desc>
<speed>6.230000</speed>
</trkpt>
<trkpt lat="55.968166" lon="26.443205">
<ele>102.588928</ele>
<time>2010-08-29T17:05:41Z</time>
<desc>lat.=55.968166, lon.=26.443205, Alt.=102.588928m. Speed=22.247999m/h.</desc>
<speed>6.180000</speed>
</trkpt>
<trkpt lat="55.968121" lon="26.443277">
<ele>102.993225</ele>
<time>2010-08-29T17:05:42Z</time>
<desc>lat.=55.968121, lon.=26.443277, Alt.=102.993225m. Speed=22.247999m/h.</desc>
<speed>6.180000</speed>
</trkpt>
<trkpt lat="55.968079" lon="26.443340">
<ele>103.309631</ele>
<time>2010-08-29T17:05:43Z</time>
<desc>lat.=55.968079, lon.=26.443340, Alt.=103.309631m. Speed=21.167999m/h.</desc>
<speed>5.880000</speed>
</trkpt>
<trkpt lat="55.968044" lon="26.443405">
<ele>103.545959</ele>
<time>2010-08-29T17:05:44Z</time>
<desc>lat.=55.968044, lon.=26.443405, Alt.=103.545959m. Speed=21.312000m/h.</desc>
<speed>5.920000</speed>
</trkpt>
<trkpt lat="55.968002" lon="26.443474">
<ele>102.581116</ele>
<time>2010-08-29T17:05:45Z</time>
<desc>lat.=55.968002, lon.=26.443474, Alt.=102.581116m. Speed=21.096001m/h.</desc>
<speed>5.860000</speed>
</trkpt>
<trkpt lat="55.967964" lon="26.443537">
<ele>102.936584</ele>
<time>2010-08-29T17:05:46Z</time>
<desc>lat.=55.967964, lon.=26.443537, Alt.=102.936584m. Speed=21.672001m/h.</desc>
<speed>6.020000</speed>
</trkpt>
<trkpt lat="55.967922" lon="26.443600">
<ele>103.141663</ele>
<time>2010-08-29T17:05:47Z</time>
<desc>lat.=55.967922, lon.=26.443600, Alt.=103.141663m. Speed=23.040001m/h.</desc>
<speed>6.400000</speed>
</trkpt>
<trkpt lat="55.967873" lon="26.443665">
<ele>102.739319</ele>
<time>2010-08-29T17:05:48Z</time>
<desc>lat.=55.967873, lon.=26.443665, Alt.=102.739319m. Speed=24.264000m/h.</desc>
<speed>6.740000</speed>
</trkpt>
<trkpt lat="55.967827" lon="26.443731">
<ele>102.315491</ele>
<time>2010-08-29T17:05:49Z</time>
<desc>lat.=55.967827, lon.=26.443731, Alt.=102.315491m. Speed=23.436001m/h.</desc>
<speed>6.510000</speed>
</trkpt>
<trkpt lat="55.967785" lon="26.443802">
<ele>102.235413</ele>
<time>2010-08-29T17:05:50Z</time>
<desc>lat.=55.967785, lon.=26.443802, Alt.=102.235413m. Speed=23.364000m/h.</desc>
<speed>6.490000</speed>
</trkpt>
<trkpt lat="55.967739" lon="26.443871">
<ele>102.266663</ele>
<time>2010-08-29T17:05:51Z</time>
<desc>lat.=55.967739, lon.=26.443871, Alt.=102.266663m. Speed=23.903999m/h.</desc>
<speed>6.640000</speed>
</trkpt>
<trkpt lat="55.967693" lon="26.443947">
<ele>102.442444</ele>
<time>2010-08-29T17:05:52Z</time>
<desc>lat.=55.967693, lon.=26.443947, Alt.=102.442444m. Speed=24.156000m/h.</desc>
<speed>6.710000</speed>
</trkpt>
<trkpt lat="55.967644" lon="26.444021">
<ele>102.157288</ele>
<time>2010-08-29T17:05:53Z</time>
<desc>lat.=55.967644, lon.=26.444021, Alt.=102.157288m. Speed=24.444000m/h.</desc>
<speed>6.790000</speed>
</trkpt>
<trkpt lat="55.967598" lon="26.444096">
<ele>101.913147</ele>
<time>2010-08-29T17:05:54Z</time>
<desc>lat.=55.967598, lon.=26.444096, Alt.=101.913147m. Speed=24.732000m/h.</desc>
<speed>6.870000</speed>
</trkpt>
<trkpt lat="55.967552" lon="26.444176">
<ele>101.807678</ele>
<time>2010-08-29T17:05:55Z</time>
<desc>lat.=55.967552, lon.=26.444176, Alt.=101.807678m. Speed=25.416000m/h.</desc>
<speed>7.060000</speed>
</trkpt>
<trkpt lat="55.967503" lon="26.444260">
<ele>101.895569</ele>
<time>2010-08-29T17:05:56Z</time>
<desc>lat.=55.967503, lon.=26.444260, Alt.=101.895569m. Speed=25.920000m/h.</desc>
<speed>7.200000</speed>
</trkpt>
<trkpt lat="55.967457" lon="26.444349">
<ele>102.653381</ele>
<time>2010-08-29T17:05:57Z</time>
<desc>lat.=55.967457, lon.=26.444349, Alt.=102.653381m. Speed=25.848000m/h.</desc>
<speed>7.180000</speed>
</trkpt>
<trkpt lat="55.967411" lon="26.444435">
<ele>102.672913</ele>
<time>2010-08-29T17:05:58Z</time>
<desc>lat.=55.967411, lon.=26.444435, Alt.=102.672913m. Speed=25.920000m/h.</desc>
<speed>7.200000</speed>
</trkpt>
<trkpt lat="55.967361" lon="26.444515">
<ele>102.835022</ele>
<time>2010-08-29T17:05:59Z</time>
<desc>lat.=55.967361, lon.=26.444515, Alt.=102.835022m. Speed=26.316000m/h.</desc>
<speed>7.310000</speed>
</trkpt>
<trkpt lat="55.967316" lon="26.444588">
<ele>102.467834</ele>
<time>2010-08-29T17:06:00Z</time>
<desc>lat.=55.967316, lon.=26.444588, Alt.=102.467834m. Speed=26.424000m/h.</desc>
<speed>7.340000</speed>
</trkpt>
<trkpt lat="55.967266" lon="26.444660">
<ele>102.071350</ele>
<time>2010-08-29T17:06:01Z</time>
<desc>lat.=55.967266, lon.=26.444660, Alt.=102.071350m. Speed=25.128000m/h.</desc>
<speed>6.980000</speed>
</trkpt>
<trkpt lat="55.967220" lon="26.444736">
<ele>102.126038</ele>
<time>2010-08-29T17:06:02Z</time>
<desc>lat.=55.967220, lon.=26.444736, Alt.=102.126038m. Speed=24.660000m/h.</desc>
<speed>6.850000</speed>
</trkpt>
<trkpt lat="55.967171" lon="26.444799">
<ele>101.907288</ele>
<time>2010-08-29T17:06:03Z</time>
<desc>lat.=55.967171, lon.=26.444799, Alt.=101.907288m. Speed=24.624001m/h.</desc>
<speed>6.840000</speed>
</trkpt>
<trkpt lat="55.967121" lon="26.444860">
<ele>101.788147</ele>
<time>2010-08-29T17:06:04Z</time>
<desc>lat.=55.967121, lon.=26.444860, Alt.=101.788147m. Speed=23.400000m/h.</desc>
<speed>6.500000</speed>
</trkpt>
<trkpt lat="55.967075" lon="26.444923">
<ele>100.135803</ele>
<time>2010-08-29T17:06:05Z</time>
<desc>lat.=55.967075, lon.=26.444923, Alt.=100.135803m. Speed=23.256001m/h.</desc>
<speed>6.460000</speed>
</trkpt>
<trkpt lat="55.967026" lon="26.444977">
<ele>99.864319</ele>
<time>2010-08-29T17:06:06Z</time>
<desc>lat.=55.967026, lon.=26.444977, Alt.=99.864319m. Speed=22.643999m/h.</desc>
<speed>6.290000</speed>
</trkpt>
<trkpt lat="55.966980" lon="26.445032">
<ele>98.987366</ele>
<time>2010-08-29T17:06:07Z</time>
<desc>lat.=55.966980, lon.=26.445032, Alt.=98.987366m. Speed=21.600000m/h.</desc>
<speed>6.000000</speed>
</trkpt>
<trkpt lat="55.966938" lon="26.445091">
<ele>98.364319</ele>
<time>2010-08-29T17:06:08Z</time>
<desc>lat.=55.966938, lon.=26.445091, Alt.=98.364319m. Speed=21.563999m/h.</desc>
<speed>5.990000</speed>
</trkpt>
<trkpt lat="55.966900" lon="26.445160">
<ele>98.135803</ele>
<time>2010-08-29T17:06:09Z</time>
<desc>lat.=55.966900, lon.=26.445160, Alt.=98.135803m. Speed=20.628000m/h.</desc>
<speed>5.730000</speed>
</trkpt>
<trkpt lat="55.966862" lon="26.445219">
<ele>97.395569</ele>
<time>2010-08-29T17:06:10Z</time>
<desc>lat.=55.966862, lon.=26.445219, Alt.=97.395569m. Speed=20.879999m/h.</desc>
<speed>5.800000</speed>
</trkpt>
<trkpt lat="55.966827" lon="26.445282">
<ele>97.169006</ele>
<time>2010-08-29T17:06:11Z</time>
<desc>lat.=55.966827, lon.=26.445282, Alt.=97.169006m. Speed=21.636000m/h.</desc>
<speed>6.010000</speed>
</trkpt>
<trkpt lat="55.966785" lon="26.445349">
<ele>96.094788</ele>
<time>2010-08-29T17:06:12Z</time>
<desc>lat.=55.966785, lon.=26.445349, Alt.=96.094788m. Speed=22.752001m/h.</desc>
<speed>6.320000</speed>
</trkpt>
<trkpt lat="55.966743" lon="26.445423">
<ele>96.463928</ele>
<time>2010-08-29T17:06:13Z</time>
<desc>lat.=55.966743, lon.=26.445423, Alt.=96.463928m. Speed=22.176001m/h.</desc>
<speed>6.160000</speed>
</trkpt>
<trkpt lat="55.966702" lon="26.445494">
<ele>96.422913</ele>
<time>2010-08-29T17:06:14Z</time>
<desc>lat.=55.966702, lon.=26.445494, Alt.=96.422913m. Speed=22.247999m/h.</desc>
<speed>6.180000</speed>
</trkpt>
<trkpt lat="55.966660" lon="26.445560">
<ele>96.389709</ele>
<time>2010-08-29T17:06:15Z</time>
<desc>lat.=55.966660, lon.=26.445560, Alt.=96.389709m. Speed=22.752001m/h.</desc>
<speed>6.320000</speed>
</trkpt>
<trkpt lat="55.966618" lon="26.445620">
<ele>96.143616</ele>
<time>2010-08-29T17:06:16Z</time>
<desc>lat.=55.966618, lon.=26.445620, Alt.=96.143616m. Speed=22.104000m/h.</desc>
<speed>6.140000</speed>
</trkpt>
<trkpt lat="55.966572" lon="26.445683">
<ele>96.122131</ele>
<time>2010-08-29T17:06:17Z</time>
<desc>lat.=55.966572, lon.=26.445683, Alt.=96.122131m. Speed=21.600000m/h.</desc>
<speed>6.000000</speed>
</trkpt>
<trkpt lat="55.966530" lon="26.445749">
<ele>96.295959</ele>
<time>2010-08-29T17:06:18Z</time>
<desc>lat.=55.966530, lon.=26.445749, Alt.=96.295959m. Speed=21.204000m/h.</desc>
<speed>5.890000</speed>
</trkpt>
<trkpt lat="55.966488" lon="26.445814">
<ele>96.356506</ele>
<time>2010-08-29T17:06:19Z</time>
<desc>lat.=55.966488, lon.=26.445814, Alt.=96.356506m. Speed=20.520000m/h.</desc>
<speed>5.700000</speed>
</trkpt>
<trkpt lat="55.966450" lon="26.445883">
<ele>96.366272</ele>
<time>2010-08-29T17:06:20Z</time>
<desc>lat.=55.966450, lon.=26.445883, Alt.=96.366272m. Speed=20.195999m/h.</desc>
<speed>5.610000</speed>
</trkpt>
<trkpt lat="55.966412" lon="26.445951">
<ele>95.399475</ele>
<time>2010-08-29T17:06:21Z</time>
<desc>lat.=55.966412, lon.=26.445951, Alt.=95.399475m. Speed=19.691999m/h.</desc>
<speed>5.470000</speed>
</trkpt>
<trkpt lat="55.966373" lon="26.446009">
<ele>95.588928</ele>
<time>2010-08-29T17:06:22Z</time>
<desc>lat.=55.966373, lon.=26.446009, Alt.=95.588928m. Speed=18.360001m/h.</desc>
<speed>5.100000</speed>
</trkpt>
<trkpt lat="55.966339" lon="26.446058">
<ele>95.942444</ele>
<time>2010-08-29T17:06:23Z</time>
<desc>lat.=55.966339, lon.=26.446058, Alt.=95.942444m. Speed=17.964001m/h.</desc>
<speed>4.990000</speed>
</trkpt>
<trkpt lat="55.966312" lon="26.446123">
<ele>96.395569</ele>
<time>2010-08-29T17:06:24Z</time>
<desc>lat.=55.966312, lon.=26.446123, Alt.=96.395569m. Speed=17.351999m/h.</desc>
<speed>4.820000</speed>
</trkpt>
<trkpt lat="55.966278" lon="26.446180">
<ele>95.985413</ele>
<time>2010-08-29T17:06:25Z</time>
<desc>lat.=55.966278, lon.=26.446180, Alt.=95.985413m. Speed=17.820000m/h.</desc>
<speed>4.950000</speed>
</trkpt>
<trkpt lat="55.966244" lon="26.446230">
<ele>95.934631</ele>
<time>2010-08-29T17:06:26Z</time>
<desc>lat.=55.966244, lon.=26.446230, Alt.=95.934631m. Speed=16.848000m/h.</desc>
<speed>4.680000</speed>
</trkpt>
<trkpt lat="55.966209" lon="26.446270">
<ele>96.038147</ele>
<time>2010-08-29T17:06:27Z</time>
<desc>lat.=55.966209, lon.=26.446270, Alt.=96.038147m. Speed=16.704000m/h.</desc>
<speed>4.640000</speed>
</trkpt>
<trkpt lat="55.966187" lon="26.446321">
<ele>95.704163</ele>
<time>2010-08-29T17:06:28Z</time>
<desc>lat.=55.966187, lon.=26.446321, Alt.=95.704163m. Speed=14.724000m/h.</desc>
<speed>4.090000</speed>
</trkpt>
<trkpt lat="55.966160" lon="26.446379">
<ele>95.784241</ele>
<time>2010-08-29T17:06:29Z</time>
<desc>lat.=55.966160, lon.=26.446379, Alt.=95.784241m. Speed=15.768000m/h.</desc>
<speed>4.380000</speed>
</trkpt>
<trkpt lat="55.966133" lon="26.446430">
<ele>95.688538</ele>
<time>2010-08-29T17:06:30Z</time>
<desc>lat.=55.966133, lon.=26.446430, Alt.=95.688538m. Speed=17.136000m/h.</desc>
<speed>4.760000</speed>
</trkpt>
<trkpt lat="55.966095" lon="26.446470">
<ele>95.821350</ele>
<time>2010-08-29T17:06:31Z</time>
<desc>lat.=55.966095, lon.=26.446470, Alt.=95.821350m. Speed=18.431999m/h.</desc>
<speed>5.120000</speed>
</trkpt>
<trkpt lat="55.966053" lon="26.446516">
<ele>93.862366</ele>
<time>2010-08-29T17:06:32Z</time>
<desc>lat.=55.966053, lon.=26.446516, Alt.=93.862366m. Speed=18.576000m/h.</desc>
<speed>5.160000</speed>
</trkpt>
<trkpt lat="55.966015" lon="26.446566">
<ele>91.292053</ele>
<time>2010-08-29T17:06:33Z</time>
<desc>lat.=55.966015, lon.=26.446566, Alt.=91.292053m. Speed=19.224001m/h.</desc>
<speed>5.340000</speed>
</trkpt>
<trkpt lat="55.965973" lon="26.446615">
<ele>90.139709</ele>
<time>2010-08-29T17:06:34Z</time>
<desc>lat.=55.965973, lon.=26.446615, Alt.=90.139709m. Speed=19.944000m/h.</desc>
<speed>5.540000</speed>
</trkpt>
<trkpt lat="55.965935" lon="26.446672">
<ele>89.887756</ele>
<time>2010-08-29T17:06:35Z</time>
<desc>lat.=55.965935, lon.=26.446672, Alt.=89.887756m. Speed=19.836000m/h.</desc>
<speed>5.510000</speed>
</trkpt>
<trkpt lat="55.965893" lon="26.446730">
<ele>89.840881</ele>
<time>2010-08-29T17:06:36Z</time>
<desc>lat.=55.965893, lon.=26.446730, Alt.=89.840881m. Speed=20.375999m/h.</desc>
<speed>5.660000</speed>
</trkpt>
<trkpt lat="55.965855" lon="26.446789">
<ele>90.454163</ele>
<time>2010-08-29T17:06:37Z</time>
<desc>lat.=55.965855, lon.=26.446789, Alt.=90.454163m. Speed=20.412001m/h.</desc>
<speed>5.670000</speed>
</trkpt>
<trkpt lat="55.965816" lon="26.446856">
<ele>91.110413</ele>
<time>2010-08-29T17:06:38Z</time>
<desc>lat.=55.965816, lon.=26.446856, Alt.=91.110413m. Speed=20.916000m/h.</desc>
<speed>5.810000</speed>
</trkpt>
<trkpt lat="55.965778" lon="26.446918">
<ele>91.383850</ele>
<time>2010-08-29T17:06:39Z</time>
<desc>lat.=55.965778, lon.=26.446918, Alt.=91.383850m. Speed=20.556000m/h.</desc>
<speed>5.710000</speed>
</trkpt>
<trkpt lat="55.965740" lon="26.446983">
<ele>91.112366</ele>
<time>2010-08-29T17:06:40Z</time>
<desc>lat.=55.965740, lon.=26.446983, Alt.=91.112366m. Speed=20.879999m/h.</desc>
<speed>5.800000</speed>
</trkpt>
<trkpt lat="55.965702" lon="26.447048">
<ele>90.379944</ele>
<time>2010-08-29T17:06:41Z</time>
<desc>lat.=55.965702, lon.=26.447048, Alt.=90.379944m. Speed=20.771999m/h.</desc>
<speed>5.770000</speed>
</trkpt>
<trkpt lat="55.965660" lon="26.447113">
<ele>90.379944</ele>
<time>2010-08-29T17:06:42Z</time>
<desc>lat.=55.965660, lon.=26.447113, Alt.=90.379944m. Speed=20.664000m/h.</desc>
<speed>5.740000</speed>
</trkpt>
<trkpt lat="55.965622" lon="26.447174">
<ele>90.372131</ele>
<time>2010-08-29T17:06:43Z</time>
<desc>lat.=55.965622, lon.=26.447174, Alt.=90.372131m. Speed=20.483999m/h.</desc>
<speed>5.690000</speed>
</trkpt>
<trkpt lat="55.965580" lon="26.447237">
<ele>90.502991</ele>
<time>2010-08-29T17:06:44Z</time>
<desc>lat.=55.965580, lon.=26.447237, Alt.=90.502991m. Speed=21.167999m/h.</desc>
<speed>5.880000</speed>
</trkpt>
<trkpt lat="55.965538" lon="26.447304">
<ele>90.932678</ele>
<time>2010-08-29T17:06:45Z</time>
<desc>lat.=55.965538, lon.=26.447304, Alt.=90.932678m. Speed=21.132000m/h.</desc>
<speed>5.870000</speed>
</trkpt>
<trkpt lat="55.965500" lon="26.447367">
<ele>91.467834</ele>
<time>2010-08-29T17:06:46Z</time>
<desc>lat.=55.965500, lon.=26.447367, Alt.=91.467834m. Speed=21.132000m/h.</desc>
<speed>5.870000</speed>
</trkpt>
<trkpt lat="55.965458" lon="26.447430">
<ele>91.811584</ele>
<time>2010-08-29T17:06:47Z</time>
<desc>lat.=55.965458, lon.=26.447430, Alt.=91.811584m. Speed=21.240000m/h.</desc>
<speed>5.900000</speed>
</trkpt>
<trkpt lat="55.965420" lon="26.447495">
<ele>91.637756</ele>
<time>2010-08-29T17:06:48Z</time>
<desc>lat.=55.965420, lon.=26.447495, Alt.=91.637756m. Speed=20.952000m/h.</desc>
<speed>5.820000</speed>
</trkpt>
<trkpt lat="55.965370" lon="26.447565">
<ele>91.764709</ele>
<time>2010-08-29T17:06:49Z</time>
<desc>lat.=55.965370, lon.=26.447565, Alt.=91.764709m. Speed=21.888000m/h.</desc>
<speed>6.080000</speed>
</trkpt>
<trkpt lat="55.965328" lon="26.447632">
<ele>91.290100</ele>
<time>2010-08-29T17:06:50Z</time>
<desc>lat.=55.965328, lon.=26.447632, Alt.=91.290100m. Speed=21.636000m/h.</desc>
<speed>6.010000</speed>
</trkpt>
<trkpt lat="55.965286" lon="26.447695">
<ele>91.266663</ele>
<time>2010-08-29T17:06:51Z</time>
<desc>lat.=55.965286, lon.=26.447695, Alt.=91.266663m. Speed=21.312000m/h.</desc>
<speed>5.920000</speed>
</trkpt>
<trkpt lat="55.965248" lon="26.447760">
<ele>91.256897</ele>
<time>2010-08-29T17:06:52Z</time>
<desc>lat.=55.965248, lon.=26.447760, Alt.=91.256897m. Speed=20.771999m/h.</desc>
<speed>5.770000</speed>
</trkpt>
<trkpt lat="55.965210" lon="26.447823">
<ele>91.467834</ele>
<time>2010-08-29T17:06:53Z</time>
<desc>lat.=55.965210, lon.=26.447823, Alt.=91.467834m. Speed=20.160000m/h.</desc>
<speed>5.600000</speed>
</trkpt>
<trkpt lat="55.965176" lon="26.447886">
<ele>91.776428</ele>
<time>2010-08-29T17:06:54Z</time>
<desc>lat.=55.965176, lon.=26.447886, Alt.=91.776428m. Speed=19.511999m/h.</desc>
<speed>5.420000</speed>
</trkpt>
<trkpt lat="55.965141" lon="26.447947">
<ele>92.141663</ele>
<time>2010-08-29T17:06:55Z</time>
<desc>lat.=55.965141, lon.=26.447947, Alt.=92.141663m. Speed=18.936001m/h.</desc>
<speed>5.260000</speed>
</trkpt>
<trkpt lat="55.965103" lon="26.448004">
<ele>92.295959</ele>
<time>2010-08-29T17:06:56Z</time>
<desc>lat.=55.965103, lon.=26.448004, Alt.=92.295959m. Speed=18.648001m/h.</desc>
<speed>5.180000</speed>
</trkpt>
<trkpt lat="55.965069" lon="26.448061">
<ele>92.325256</ele>
<time>2010-08-29T17:06:57Z</time>
<desc>lat.=55.965069, lon.=26.448061, Alt.=92.325256m. Speed=18.000000m/h.</desc>
<speed>5.000000</speed>
</trkpt>
<trkpt lat="55.965034" lon="26.448116">
<ele>91.919006</ele>
<time>2010-08-29T17:06:58Z</time>
<desc>lat.=55.965034, lon.=26.448116, Alt.=91.919006m. Speed=17.568001m/h.</desc>
<speed>4.880000</speed>
</trkpt>
<trkpt lat="55.965000" lon="26.448170">
<ele>91.887756</ele>
<time>2010-08-29T17:06:59Z</time>
<desc>lat.=55.965000, lon.=26.448170, Alt.=91.887756m. Speed=17.208000m/h.</desc>
<speed>4.780000</speed>
</trkpt>
<trkpt lat="55.964970" lon="26.448223">
<ele>92.088928</ele>
<time>2010-08-29T17:07:00Z</time>
<desc>lat.=55.964970, lon.=26.448223, Alt.=92.088928m. Speed=16.596001m/h.</desc>
<speed>4.610000</speed>
</trkpt>
<trkpt lat="55.964943" lon="26.448275">
<ele>92.190491</ele>
<time>2010-08-29T17:07:01Z</time>
<desc>lat.=55.964943, lon.=26.448275, Alt.=92.190491m. Speed=16.128000m/h.</desc>
<speed>4.480000</speed>
</trkpt>
<trkpt lat="55.964916" lon="26.448328">
<ele>92.401428</ele>
<time>2010-08-29T17:07:02Z</time>
<desc>lat.=55.964916, lon.=26.448328, Alt.=92.401428m. Speed=16.164000m/h.</desc>
<speed>4.490000</speed>
</trkpt>
<trkpt lat="55.964886" lon="26.448376">
<ele>92.606506</ele>
<time>2010-08-29T17:07:03Z</time>
<desc>lat.=55.964886, lon.=26.448376, Alt.=92.606506m. Speed=16.091999m/h.</desc>
<speed>4.470000</speed>
</trkpt>
<trkpt lat="55.964855" lon="26.448421">
<ele>92.614319</ele>
<time>2010-08-29T17:07:04Z</time>
<desc>lat.=55.964855, lon.=26.448421, Alt.=92.614319m. Speed=16.236000m/h.</desc>
<speed>4.510000</speed>
</trkpt>
<trkpt lat="55.964825" lon="26.448465">
<ele>92.463928</ele>
<time>2010-08-29T17:07:05Z</time>
<desc>lat.=55.964825, lon.=26.448465, Alt.=92.463928m. Speed=16.559999m/h.</desc>
<speed>4.600000</speed>
</trkpt>
<trkpt lat="55.964798" lon="26.448519">
<ele>92.350647</ele>
<time>2010-08-29T17:07:06Z</time>
<desc>lat.=55.964798, lon.=26.448519, Alt.=92.350647m. Speed=16.308001m/h.</desc>
<speed>4.530000</speed>
</trkpt>
<trkpt lat="55.964767" lon="26.448572">
<ele>92.352600</ele>
<time>2010-08-29T17:07:07Z</time>
<desc>lat.=55.964767, lon.=26.448572, Alt.=92.352600m. Speed=17.136000m/h.</desc>
<speed>4.760000</speed>
</trkpt>
<trkpt lat="55.964733" lon="26.448620">
<ele>91.942444</ele>
<time>2010-08-29T17:07:08Z</time>
<desc>lat.=55.964733, lon.=26.448620, Alt.=91.942444m. Speed=17.496000m/h.</desc>
<speed>4.860000</speed>
</trkpt>
<trkpt lat="55.964699" lon="26.448677">
<ele>91.377991</ele>
<time>2010-08-29T17:07:09Z</time>
<desc>lat.=55.964699, lon.=26.448677, Alt.=91.377991m. Speed=18.108000m/h.</desc>
<speed>5.030000</speed>
</trkpt>
<trkpt lat="55.964668" lon="26.448734">
<ele>91.215881</ele>
<time>2010-08-29T17:07:10Z</time>
<desc>lat.=55.964668, lon.=26.448734, Alt.=91.215881m. Speed=17.927999m/h.</desc>
<speed>4.980000</speed>
</trkpt>
<trkpt lat="55.964634" lon="26.448784">
<ele>90.530334</ele>
<time>2010-08-29T17:07:11Z</time>
<desc>lat.=55.964634, lon.=26.448784, Alt.=90.530334m. Speed=17.856001m/h.</desc>
<speed>4.960000</speed>
</trkpt>
<trkpt lat="55.964600" lon="26.448832">
<ele>90.135803</ele>
<time>2010-08-29T17:07:12Z</time>
<desc>lat.=55.964600, lon.=26.448832, Alt.=90.135803m. Speed=17.100000m/h.</desc>
<speed>4.750000</speed>
</trkpt>
<trkpt lat="55.964565" lon="26.448875">
<ele>90.297913</ele>
<time>2010-08-29T17:07:13Z</time>
<desc>lat.=55.964565, lon.=26.448875, Alt.=90.297913m. Speed=16.524000m/h.</desc>
<speed>4.590000</speed>
</trkpt>
<trkpt lat="55.964527" lon="26.448917">
<ele>90.659241</ele>
<time>2010-08-29T17:07:14Z</time>
<desc>lat.=55.964527, lon.=26.448917, Alt.=90.659241m. Speed=16.308001m/h.</desc>
<speed>4.530000</speed>
</trkpt>
<trkpt lat="55.964497" lon="26.448961">
<ele>90.596741</ele>
<time>2010-08-29T17:07:15Z</time>
<desc>lat.=55.964497, lon.=26.448961, Alt.=90.596741m. Speed=15.768000m/h.</desc>
<speed>4.380000</speed>
</trkpt>
<trkpt lat="55.964470" lon="26.449013">
<ele>90.794006</ele>
<time>2010-08-29T17:07:16Z</time>
<desc>lat.=55.964470, lon.=26.449013, Alt.=90.794006m. Speed=16.056000m/h.</desc>
<speed>4.460000</speed>
</trkpt>
<trkpt lat="55.964443" lon="26.449066">
<ele>90.809631</ele>
<time>2010-08-29T17:07:17Z</time>
<desc>lat.=55.964443, lon.=26.449066, Alt.=90.809631m. Speed=16.344000m/h.</desc>
<speed>4.540000</speed>
</trkpt>
<trkpt lat="55.964417" lon="26.449120">
<ele>91.141663</ele>
<time>2010-08-29T17:07:18Z</time>
<desc>lat.=55.964417, lon.=26.449120, Alt.=91.141663m. Speed=16.812000m/h.</desc>
<speed>4.670000</speed>
</trkpt>
<trkpt lat="55.964382" lon="26.449169">
<ele>91.178772</ele>
<time>2010-08-29T17:07:19Z</time>
<desc>lat.=55.964382, lon.=26.449169, Alt.=91.178772m. Speed=17.351999m/h.</desc>
<speed>4.820000</speed>
</trkpt>
<trkpt lat="55.964352" lon="26.449224">
<ele>91.206116</ele>
<time>2010-08-29T17:07:20Z</time>
<desc>lat.=55.964352, lon.=26.449224, Alt.=91.206116m. Speed=18.000000m/h.</desc>
<speed>5.000000</speed>
</trkpt>
<trkpt lat="55.964321" lon="26.449274">
<ele>91.028381</ele>
<time>2010-08-29T17:07:21Z</time>
<desc>lat.=55.964321, lon.=26.449274, Alt.=91.028381m. Speed=18.323999m/h.</desc>
<speed>5.090000</speed>
</trkpt>
<trkpt lat="55.964283" lon="26.449327">
<ele>91.163147</ele>
<time>2010-08-29T17:07:22Z</time>
<desc>lat.=55.964283, lon.=26.449327, Alt.=91.163147m. Speed=18.684000m/h.</desc>
<speed>5.190000</speed>
</trkpt>
<trkpt lat="55.964245" lon="26.449385">
<ele>91.145569</ele>
<time>2010-08-29T17:07:23Z</time>
<desc>lat.=55.964245, lon.=26.449385, Alt.=91.145569m. Speed=19.044001m/h.</desc>
<speed>5.290000</speed>
</trkpt>
<trkpt lat="55.964207" lon="26.449442">
<ele>91.126038</ele>
<time>2010-08-29T17:07:24Z</time>
<desc>lat.=55.964207, lon.=26.449442, Alt.=91.126038m. Speed=19.620001m/h.</desc>
<speed>5.450000</speed>
</trkpt>
<trkpt lat="55.964172" lon="26.449501">
<ele>91.001038</ele>
<time>2010-08-29T17:07:25Z</time>
<desc>lat.=55.964172, lon.=26.449501, Alt.=91.001038m. Speed=19.620001m/h.</desc>
<speed>5.450000</speed>
</trkpt>
<trkpt lat="55.964138" lon="26.449560">
<ele>90.819397</ele>
<time>2010-08-29T17:07:26Z</time>
<desc>lat.=55.964138, lon.=26.449560, Alt.=90.819397m. Speed=19.728001m/h.</desc>
<speed>5.480000</speed>
</trkpt>
<trkpt lat="55.964104" lon="26.449621">
<ele>90.960022</ele>
<time>2010-08-29T17:07:27Z</time>
<desc>lat.=55.964104, lon.=26.449621, Alt.=90.960022m. Speed=19.980000m/h.</desc>
<speed>5.550000</speed>
</trkpt>
<trkpt lat="55.964069" lon="26.449686">
<ele>91.686584</ele>
<time>2010-08-29T17:07:28Z</time>
<desc>lat.=55.964069, lon.=26.449686, Alt.=91.686584m. Speed=19.944000m/h.</desc>
<speed>5.540000</speed>
</trkpt>
<trkpt lat="55.964035" lon="26.449745">
<ele>91.924866</ele>
<time>2010-08-29T17:07:29Z</time>
<desc>lat.=55.964035, lon.=26.449745, Alt.=91.924866m. Speed=20.628000m/h.</desc>
<speed>5.730000</speed>
</trkpt>
<trkpt lat="55.963997" lon="26.449806">
<ele>92.030334</ele>
<time>2010-08-29T17:07:30Z</time>
<desc>lat.=55.963997, lon.=26.449806, Alt.=92.030334m. Speed=20.700001m/h.</desc>
<speed>5.750000</speed>
</trkpt>
<trkpt lat="55.963955" lon="26.449862">
<ele>92.512756</ele>
<time>2010-08-29T17:07:31Z</time>
<desc>lat.=55.963955, lon.=26.449862, Alt.=92.512756m. Speed=21.204000m/h.</desc>
<speed>5.890000</speed>
</trkpt>
<trkpt lat="55.963917" lon="26.449923">
<ele>92.678772</ele>
<time>2010-08-29T17:07:32Z</time>
<desc>lat.=55.963917, lon.=26.449923, Alt.=92.678772m. Speed=20.988001m/h.</desc>
<speed>5.830000</speed>
</trkpt>
<trkpt lat="55.963875" lon="26.449980">
<ele>92.694397</ele>
<time>2010-08-29T17:07:33Z</time>
<desc>lat.=55.963875, lon.=26.449980, Alt.=92.694397m. Speed=20.988001m/h.</desc>
<speed>5.830000</speed>
</trkpt>
<trkpt lat="55.963833" lon="26.450041">
<ele>92.463928</ele>
<time>2010-08-29T17:07:34Z</time>
<desc>lat.=55.963833, lon.=26.450041, Alt.=92.463928m. Speed=20.628000m/h.</desc>
<speed>5.730000</speed>
</trkpt>
<trkpt lat="55.963795" lon="26.450102">
<ele>92.081116</ele>
<time>2010-08-29T17:07:35Z</time>
<desc>lat.=55.963795, lon.=26.450102, Alt.=92.081116m. Speed=19.980000m/h.</desc>
<speed>5.550000</speed>
</trkpt>
<trkpt lat="55.963760" lon="26.450165">
<ele>91.514709</ele>
<time>2010-08-29T17:07:36Z</time>
<desc>lat.=55.963760, lon.=26.450165, Alt.=91.514709m. Speed=19.440001m/h.</desc>
<speed>5.400000</speed>
</trkpt>
<trkpt lat="55.963722" lon="26.450230">
<ele>91.473694</ele>
<time>2010-08-29T17:07:37Z</time>
<desc>lat.=55.963722, lon.=26.450230, Alt.=91.473694m. Speed=18.719999m/h.</desc>
<speed>5.200000</speed>
</trkpt>
<trkpt lat="55.963684" lon="26.450285">
<ele>91.172913</ele>
<time>2010-08-29T17:07:38Z</time>
<desc>lat.=55.963684, lon.=26.450285, Alt.=91.172913m. Speed=18.719999m/h.</desc>
<speed>5.200000</speed>
</trkpt>
<trkpt lat="55.963654" lon="26.450342">
<ele>90.928772</ele>
<time>2010-08-29T17:07:39Z</time>
<desc>lat.=55.963654, lon.=26.450342, Alt.=90.928772m. Speed=17.964001m/h.</desc>
<speed>4.990000</speed>
</trkpt>
<trkpt lat="55.963619" lon="26.450401">
<ele>90.829163</ele>
<time>2010-08-29T17:07:40Z</time>
<desc>lat.=55.963619, lon.=26.450401, Alt.=90.829163m. Speed=18.396000m/h.</desc>
<speed>5.110000</speed>
</trkpt>
<trkpt lat="55.963585" lon="26.450466">
<ele>90.919006</ele>
<time>2010-08-29T17:07:41Z</time>
<desc>lat.=55.963585, lon.=26.450466, Alt.=90.919006m. Speed=19.440001m/h.</desc>
<speed>5.400000</speed>
</trkpt>
<trkpt lat="55.963551" lon="26.450531">
<ele>91.233459</ele>
<time>2010-08-29T17:07:42Z</time>
<desc>lat.=55.963551, lon.=26.450531, Alt.=91.233459m. Speed=19.908001m/h.</desc>
<speed>5.530000</speed>
</trkpt>
<trkpt lat="55.963512" lon="26.450590">
<ele>91.335022</ele>
<time>2010-08-29T17:07:43Z</time>
<desc>lat.=55.963512, lon.=26.450590, Alt.=91.335022m. Speed=20.520000m/h.</desc>
<speed>5.700000</speed>
</trkpt>
<trkpt lat="55.963474" lon="26.450657">
<ele>91.780334</ele>
<time>2010-08-29T17:07:44Z</time>
<desc>lat.=55.963474, lon.=26.450657, Alt.=91.780334m. Speed=21.455999m/h.</desc>
<speed>5.960000</speed>
</trkpt>
<trkpt lat="55.963428" lon="26.450720">
<ele>92.190491</ele>
<time>2010-08-29T17:07:45Z</time>
<desc>lat.=55.963428, lon.=26.450720, Alt.=92.190491m. Speed=21.959999m/h.</desc>
<speed>6.100000</speed>
</trkpt>
<trkpt lat="55.963383" lon="26.450781">
<ele>92.620178</ele>
<time>2010-08-29T17:07:46Z</time>
<desc>lat.=55.963383, lon.=26.450781, Alt.=92.620178m. Speed=22.139999m/h.</desc>
<speed>6.150000</speed>
</trkpt>
<trkpt lat="55.963333" lon="26.450840">
<ele>92.926819</ele>
<time>2010-08-29T17:07:47Z</time>
<desc>lat.=55.963333, lon.=26.450840, Alt.=92.926819m. Speed=22.427999m/h.</desc>
<speed>6.230000</speed>
</trkpt>
<trkpt lat="55.963287" lon="26.450907">
<ele>93.358459</ele>
<time>2010-08-29T17:07:48Z</time>
<desc>lat.=55.963287, lon.=26.450907, Alt.=93.358459m. Speed=22.356001m/h.</desc>
<speed>6.210000</speed>
</trkpt>
<trkpt lat="55.963245" lon="26.450977">
<ele>93.799866</ele>
<time>2010-08-29T17:07:49Z</time>
<desc>lat.=55.963245, lon.=26.450977, Alt.=93.799866m. Speed=22.680000m/h.</desc>
<speed>6.300000</speed>
</trkpt>
<trkpt lat="55.963203" lon="26.451052">
<ele>94.221741</ele>
<time>2010-08-29T17:07:50Z</time>
<desc>lat.=55.963203, lon.=26.451052, Alt.=94.221741m. Speed=22.680000m/h.</desc>
<speed>6.300000</speed>
</trkpt>
<trkpt lat="55.963169" lon="26.451118">
<ele>93.585022</ele>
<time>2010-08-29T17:07:51Z</time>
<desc>lat.=55.963169, lon.=26.451118, Alt.=93.585022m. Speed=20.736000m/h.</desc>
<speed>5.760000</speed>
</trkpt>
<trkpt lat="55.963127" lon="26.451185">
<ele>93.290100</ele>
<time>2010-08-29T17:07:52Z</time>
<desc>lat.=55.963127, lon.=26.451185, Alt.=93.290100m. Speed=21.959999m/h.</desc>
<speed>6.100000</speed>
</trkpt>
<trkpt lat="55.963078" lon="26.451248">
<ele>93.247131</ele>
<time>2010-08-29T17:07:53Z</time>
<desc>lat.=55.963078, lon.=26.451248, Alt.=93.247131m. Speed=22.680000m/h.</desc>
<speed>6.300000</speed>
</trkpt>
<trkpt lat="55.963032" lon="26.451317">
<ele>92.954163</ele>
<time>2010-08-29T17:07:54Z</time>
<desc>lat.=55.963032, lon.=26.451317, Alt.=92.954163m. Speed=23.040001m/h.</desc>
<speed>6.400000</speed>
</trkpt>
<trkpt lat="55.962994" lon="26.451387">
<ele>92.766663</ele>
<time>2010-08-29T17:07:55Z</time>
<desc>lat.=55.962994, lon.=26.451387, Alt.=92.766663m. Speed=23.219999m/h.</desc>
<speed>6.450000</speed>
</trkpt>
<trkpt lat="55.962948" lon="26.451454">
<ele>92.592834</ele>
<time>2010-08-29T17:07:56Z</time>
<desc>lat.=55.962948, lon.=26.451454, Alt.=92.592834m. Speed=23.400000m/h.</desc>
<speed>6.500000</speed>
</trkpt>
<trkpt lat="55.962902" lon="26.451519">
<ele>92.659241</ele>
<time>2010-08-29T17:07:57Z</time>
<desc>lat.=55.962902, lon.=26.451519, Alt.=92.659241m. Speed=23.724001m/h.</desc>
<speed>6.590000</speed>
</trkpt>
<trkpt lat="55.962856" lon="26.451584">
<ele>92.540100</ele>
<time>2010-08-29T17:07:58Z</time>
<desc>lat.=55.962856, lon.=26.451584, Alt.=92.540100m. Speed=23.940001m/h.</desc>
<speed>6.650000</speed>
</trkpt>
<trkpt lat="55.962814" lon="26.451649">
<ele>91.977600</ele>
<time>2010-08-29T17:07:59Z</time>
<desc>lat.=55.962814, lon.=26.451649, Alt.=91.977600m. Speed=23.219999m/h.</desc>
<speed>6.450000</speed>
</trkpt>
<trkpt lat="55.962772" lon="26.451714">
<ele>91.450256</ele>
<time>2010-08-29T17:08:00Z</time>
<desc>lat.=55.962772, lon.=26.451714, Alt.=91.450256m. Speed=22.716000m/h.</desc>
<speed>6.310000</speed>
</trkpt>
<trkpt lat="55.962738" lon="26.451786">
<ele>91.194397</ele>
<time>2010-08-29T17:08:01Z</time>
<desc>lat.=55.962738, lon.=26.451786, Alt.=91.194397m. Speed=22.788000m/h.</desc>
<speed>6.330000</speed>
</trkpt>
<trkpt lat="55.962696" lon="26.451855">
<ele>91.153381</ele>
<time>2010-08-29T17:08:02Z</time>
<desc>lat.=55.962696, lon.=26.451855, Alt.=91.153381m. Speed=22.392000m/h.</desc>
<speed>6.220000</speed>
</trkpt>
<trkpt lat="55.962654" lon="26.451925">
<ele>91.155334</ele>
<time>2010-08-29T17:08:03Z</time>
<desc>lat.=55.962654, lon.=26.451925, Alt.=91.155334m. Speed=21.888000m/h.</desc>
<speed>6.080000</speed>
</trkpt>
<trkpt lat="55.962616" lon="26.451990">
<ele>91.086975</ele>
<time>2010-08-29T17:08:04Z</time>
<desc>lat.=55.962616, lon.=26.451990, Alt.=91.086975m. Speed=21.240000m/h.</desc>
<speed>5.900000</speed>
</trkpt>
<trkpt lat="55.962578" lon="26.452051">
<ele>91.141663</ele>
<time>2010-08-29T17:08:05Z</time>
<desc>lat.=55.962578, lon.=26.452051, Alt.=91.141663m. Speed=20.844000m/h.</desc>
<speed>5.790000</speed>
</trkpt>
<trkpt lat="55.962536" lon="26.452112">
<ele>91.501038</ele>
<time>2010-08-29T17:08:06Z</time>
<desc>lat.=55.962536, lon.=26.452112, Alt.=91.501038m. Speed=20.628000m/h.</desc>
<speed>5.730000</speed>
</trkpt>
<trkpt lat="55.962502" lon="26.452171">
<ele>91.696350</ele>
<time>2010-08-29T17:08:07Z</time>
<desc>lat.=55.962502, lon.=26.452171, Alt.=91.696350m. Speed=20.052000m/h.</desc>
<speed>5.570000</speed>
</trkpt>
<trkpt lat="55.962460" lon="26.452230">
<ele>92.061584</ele>
<time>2010-08-29T17:08:08Z</time>
<desc>lat.=55.962460, lon.=26.452230, Alt.=92.061584m. Speed=19.368000m/h.</desc>
<speed>5.380000</speed>
</trkpt>
<trkpt lat="55.962421" lon="26.452290">
<ele>92.252991</ele>
<time>2010-08-29T17:08:09Z</time>
<desc>lat.=55.962421, lon.=26.452290, Alt.=92.252991m. Speed=18.900000m/h.</desc>
<speed>5.250000</speed>
</trkpt>
<trkpt lat="55.962387" lon="26.452347">
<ele>92.317444</ele>
<time>2010-08-29T17:08:10Z</time>
<desc>lat.=55.962387, lon.=26.452347, Alt.=92.317444m. Speed=18.540001m/h.</desc>
<speed>5.150000</speed>
</trkpt>
<trkpt lat="55.962357" lon="26.452408">
<ele>92.553772</ele>
<time>2010-08-29T17:08:11Z</time>
<desc>lat.=55.962357, lon.=26.452408, Alt.=92.553772m. Speed=19.403999m/h.</desc>
<speed>5.390000</speed>
</trkpt>
<trkpt lat="55.962322" lon="26.452471">
<ele>92.631897</ele>
<time>2010-08-29T17:08:12Z</time>
<desc>lat.=55.962322, lon.=26.452471, Alt.=92.631897m. Speed=19.584000m/h.</desc>
<speed>5.440000</speed>
</trkpt>
<trkpt lat="55.962284" lon="26.452538">
<ele>93.178772</ele>
<time>2010-08-29T17:08:13Z</time>
<desc>lat.=55.962284, lon.=26.452538, Alt.=93.178772m. Speed=20.736000m/h.</desc>
<speed>5.760000</speed>
</trkpt>
<trkpt lat="55.962242" lon="26.452604">
<ele>93.838928</ele>
<time>2010-08-29T17:08:14Z</time>
<desc>lat.=55.962242, lon.=26.452604, Alt.=93.838928m. Speed=21.312000m/h.</desc>
<speed>5.920000</speed>
</trkpt>
<trkpt lat="55.962200" lon="26.452667">
<ele>94.172913</ele>
<time>2010-08-29T17:08:15Z</time>
<desc>lat.=55.962200, lon.=26.452667, Alt.=94.172913m. Speed=21.528000m/h.</desc>
<speed>5.980000</speed>
</trkpt>
<trkpt lat="55.962158" lon="26.452726">
<ele>94.368225</ele>
<time>2010-08-29T17:08:16Z</time>
<desc>lat.=55.962158, lon.=26.452726, Alt.=94.368225m. Speed=21.636000m/h.</desc>
<speed>6.010000</speed>
</trkpt>
<trkpt lat="55.962120" lon="26.452789">
<ele>94.116272</ele>
<time>2010-08-29T17:08:17Z</time>
<desc>lat.=55.962120, lon.=26.452789, Alt.=94.116272m. Speed=21.096001m/h.</desc>
<speed>5.860000</speed>
</trkpt>
<trkpt lat="55.962078" lon="26.452852">
<ele>94.536194</ele>
<time>2010-08-29T17:08:18Z</time>
<desc>lat.=55.962078, lon.=26.452852, Alt.=94.536194m. Speed=21.636000m/h.</desc>
<speed>6.010000</speed>
</trkpt>
<trkpt lat="55.962036" lon="26.452917">
<ele>94.661194</ele>
<time>2010-08-29T17:08:19Z</time>
<desc>lat.=55.962036, lon.=26.452917, Alt.=94.661194m. Speed=21.743999m/h.</desc>
<speed>6.040000</speed>
</trkpt>
<trkpt lat="55.961998" lon="26.452984">
<ele>94.522522</ele>
<time>2010-08-29T17:08:20Z</time>
<desc>lat.=55.961998, lon.=26.452984, Alt.=94.522522m. Speed=21.888000m/h.</desc>
<speed>6.080000</speed>
</trkpt>
<trkpt lat="55.961956" lon="26.453049">
<ele>94.547913</ele>
<time>2010-08-29T17:08:21Z</time>
<desc>lat.=55.961956, lon.=26.453049, Alt.=94.547913m. Speed=21.743999m/h.</desc>
<speed>6.040000</speed>
</trkpt>
<trkpt lat="55.961910" lon="26.453114">
<ele>95.014709</ele>
<time>2010-08-29T17:08:22Z</time>
<desc>lat.=55.961910, lon.=26.453114, Alt.=95.014709m. Speed=22.068001m/h.</desc>
<speed>6.130000</speed>
</trkpt>
<trkpt lat="55.961868" lon="26.453178">
<ele>94.971741</ele>
<time>2010-08-29T17:08:23Z</time>
<desc>lat.=55.961868, lon.=26.453178, Alt.=94.971741m. Speed=22.068001m/h.</desc>
<speed>6.130000</speed>
</trkpt>
<trkpt lat="55.961826" lon="26.453245">
<ele>95.028381</ele>
<time>2010-08-29T17:08:24Z</time>
<desc>lat.=55.961826, lon.=26.453245, Alt.=95.028381m. Speed=21.959999m/h.</desc>
<speed>6.100000</speed>
</trkpt>
<trkpt lat="55.961788" lon="26.453310">
<ele>94.960022</ele>
<time>2010-08-29T17:08:25Z</time>
<desc>lat.=55.961788, lon.=26.453310, Alt.=94.960022m. Speed=21.312000m/h.</desc>
<speed>5.920000</speed>
</trkpt>
<trkpt lat="55.961746" lon="26.453375">
<ele>94.944397</ele>
<time>2010-08-29T17:08:26Z</time>
<desc>lat.=55.961746, lon.=26.453375, Alt.=94.944397m. Speed=21.024000m/h.</desc>
<speed>5.840000</speed>
</trkpt>
<trkpt lat="55.961704" lon="26.453436">
<ele>94.917053</ele>
<time>2010-08-29T17:08:27Z</time>
<desc>lat.=55.961704, lon.=26.453436, Alt.=94.917053m. Speed=20.304001m/h.</desc>
<speed>5.640000</speed>
</trkpt>
<trkpt lat="55.961666" lon="26.453491">
<ele>95.133850</ele>
<time>2010-08-29T17:08:28Z</time>
<desc>lat.=55.961666, lon.=26.453491, Alt.=95.133850m. Speed=20.304001m/h.</desc>
<speed>5.640000</speed>
</trkpt>
<trkpt lat="55.961624" lon="26.453545">
<ele>95.241272</ele>
<time>2010-08-29T17:08:29Z</time>
<desc>lat.=55.961624, lon.=26.453545, Alt.=95.241272m. Speed=18.576000m/h.</desc>
<speed>5.160000</speed>
</trkpt>
<trkpt lat="55.961586" lon="26.453598">
<ele>95.465881</ele>
<time>2010-08-29T17:08:30Z</time>
<desc>lat.=55.961586, lon.=26.453598, Alt.=95.465881m. Speed=18.612000m/h.</desc>
<speed>5.170000</speed>
</trkpt>
<trkpt lat="55.961552" lon="26.453655">
<ele>95.489319</ele>
<time>2010-08-29T17:08:31Z</time>
<desc>lat.=55.961552, lon.=26.453655, Alt.=95.489319m. Speed=17.892000m/h.</desc>
<speed>4.970000</speed>
</trkpt>
<trkpt lat="55.961521" lon="26.453724">
<ele>95.588928</ele>
<time>2010-08-29T17:08:32Z</time>
<desc>lat.=55.961521, lon.=26.453724, Alt.=95.588928m. Speed=17.424000m/h.</desc>
<speed>4.840000</speed>
</trkpt>
<trkpt lat="55.961491" lon="26.453787">
<ele>95.881897</ele>
<time>2010-08-29T17:08:33Z</time>
<desc>lat.=55.961491, lon.=26.453787, Alt.=95.881897m. Speed=17.459999m/h.</desc>
<speed>4.850000</speed>
</trkpt>
<trkpt lat="55.961456" lon="26.453840">
<ele>96.110413</ele>
<time>2010-08-29T17:08:34Z</time>
<desc>lat.=55.961456, lon.=26.453840, Alt.=96.110413m. Speed=17.028000m/h.</desc>
<speed>4.730000</speed>
</trkpt>
<trkpt lat="55.961422" lon="26.453884">
<ele>96.235413</ele>
<time>2010-08-29T17:08:35Z</time>
<desc>lat.=55.961422, lon.=26.453884, Alt.=96.235413m. Speed=16.775999m/h.</desc>
<speed>4.660000</speed>
</trkpt>
<trkpt lat="55.961388" lon="26.453930">
<ele>96.440491</ele>
<time>2010-08-29T17:08:36Z</time>
<desc>lat.=55.961388, lon.=26.453930, Alt.=96.440491m. Speed=15.912000m/h.</desc>
<speed>4.420000</speed>
</trkpt>
<trkpt lat="55.961361" lon="26.453976">
<ele>96.583069</ele>
<time>2010-08-29T17:08:37Z</time>
<desc>lat.=55.961361, lon.=26.453976, Alt.=96.583069m. Speed=15.300000m/h.</desc>
<speed>4.250000</speed>
</trkpt>
<trkpt lat="55.961327" lon="26.454018">
<ele>97.169006</ele>
<time>2010-08-29T17:08:38Z</time>
<desc>lat.=55.961327, lon.=26.454018, Alt.=97.169006m. Speed=14.580000m/h.</desc>
<speed>4.050000</speed>
</trkpt>
<trkpt lat="55.961300" lon="26.454062">
<ele>97.504944</ele>
<time>2010-08-29T17:08:39Z</time>
<desc>lat.=55.961300, lon.=26.454062, Alt.=97.504944m. Speed=14.184000m/h.</desc>
<speed>3.940000</speed>
</trkpt>
<trkpt lat="55.961273" lon="26.454100">
<ele>97.928772</ele>
<time>2010-08-29T17:08:40Z</time>
<desc>lat.=55.961273, lon.=26.454100, Alt.=97.928772m. Speed=13.716000m/h.</desc>
<speed>3.810000</speed>
</trkpt>
<trkpt lat="55.961250" lon="26.454147">
<ele>98.995178</ele>
<time>2010-08-29T17:08:41Z</time>
<desc>lat.=55.961250, lon.=26.454147, Alt.=98.995178m. Speed=13.572000m/h.</desc>
<speed>3.770000</speed>
</trkpt>
<trkpt lat="55.961227" lon="26.454191">
<ele>99.670959</ele>
<time>2010-08-29T17:08:42Z</time>
<desc>lat.=55.961227, lon.=26.454191, Alt.=99.670959m. Speed=13.140000m/h.</desc>
<speed>3.650000</speed>
</trkpt>
<trkpt lat="55.961197" lon="26.454233">
<ele>99.963928</ele>
<time>2010-08-29T17:08:43Z</time>
<desc>lat.=55.961197, lon.=26.454233, Alt.=99.963928m. Speed=14.652000m/h.</desc>
<speed>4.070000</speed>
</trkpt>
<trkpt lat="55.961166" lon="26.454268">
<ele>99.901428</ele>
<time>2010-08-29T17:08:44Z</time>
<desc>lat.=55.961166, lon.=26.454268, Alt.=99.901428m. Speed=14.904000m/h.</desc>
<speed>4.140000</speed>
</trkpt>
<trkpt lat="55.961140" lon="26.454313">
<ele>99.981506</ele>
<time>2010-08-29T17:08:45Z</time>
<desc>lat.=55.961140, lon.=26.454313, Alt.=99.981506m. Speed=16.559999m/h.</desc>
<speed>4.600000</speed>
</trkpt>
<trkpt lat="55.961105" lon="26.454359">
<ele>99.977600</ele>
<time>2010-08-29T17:08:46Z</time>
<desc>lat.=55.961105, lon.=26.454359, Alt.=99.977600m. Speed=17.747999m/h.</desc>
<speed>4.930000</speed>
</trkpt>
<trkpt lat="55.961071" lon="26.454405">
<ele>100.118225</ele>
<time>2010-08-29T17:08:47Z</time>
<desc>lat.=55.961071, lon.=26.454405, Alt.=100.118225m. Speed=17.676001m/h.</desc>
<speed>4.910000</speed>
</trkpt>
<trkpt lat="55.961037" lon="26.454458">
<ele>100.676819</ele>
<time>2010-08-29T17:08:48Z</time>
<desc>lat.=55.961037, lon.=26.454458, Alt.=100.676819m. Speed=19.403999m/h.</desc>
<speed>5.390000</speed>
</trkpt>
<trkpt lat="55.961002" lon="26.454514">
<ele>100.473694</ele>
<time>2010-08-29T17:08:49Z</time>
<desc>lat.=55.961002, lon.=26.454514, Alt.=100.473694m. Speed=19.584000m/h.</desc>
<speed>5.440000</speed>
</trkpt>
<trkpt lat="55.960960" lon="26.454571">
<ele>100.419006</ele>
<time>2010-08-29T17:08:50Z</time>
<desc>lat.=55.960960, lon.=26.454571, Alt.=100.419006m. Speed=19.584000m/h.</desc>
<speed>5.440000</speed>
</trkpt>
<trkpt lat="55.960926" lon="26.454632">
<ele>100.272522</ele>
<time>2010-08-29T17:08:51Z</time>
<desc>lat.=55.960926, lon.=26.454632, Alt.=100.272522m. Speed=19.656000m/h.</desc>
<speed>5.460000</speed>
</trkpt>
<trkpt lat="55.960884" lon="26.454691">
<ele>100.405334</ele>
<time>2010-08-29T17:08:52Z</time>
<desc>lat.=55.960884, lon.=26.454691, Alt.=100.405334m. Speed=20.375999m/h.</desc>
<speed>5.660000</speed>
</trkpt>
<trkpt lat="55.960842" lon="26.454748">
<ele>100.620178</ele>
<time>2010-08-29T17:08:53Z</time>
<desc>lat.=55.960842, lon.=26.454748, Alt.=100.620178m. Speed=20.375999m/h.</desc>
<speed>5.660000</speed>
</trkpt>
<trkpt lat="55.960800" lon="26.454807">
<ele>100.766663</ele>
<time>2010-08-29T17:08:54Z</time>
<desc>lat.=55.960800, lon.=26.454807, Alt.=100.766663m. Speed=21.600000m/h.</desc>
<speed>6.000000</speed>
</trkpt>
<trkpt lat="55.960758" lon="26.454868">
<ele>101.182678</ele>
<time>2010-08-29T17:08:55Z</time>
<desc>lat.=55.960758, lon.=26.454868, Alt.=101.182678m. Speed=19.944000m/h.</desc>
<speed>5.540000</speed>
</trkpt>
<trkpt lat="55.960724" lon="26.454941">
<ele>101.676819</ele>
<time>2010-08-29T17:08:56Z</time>
<desc>lat.=55.960724, lon.=26.454941, Alt.=101.676819m. Speed=20.664000m/h.</desc>
<speed>5.740000</speed>
</trkpt>
<trkpt lat="55.960686" lon="26.455008">
<ele>101.844788</ele>
<time>2010-08-29T17:08:57Z</time>
<desc>lat.=55.960686, lon.=26.455008, Alt.=101.844788m. Speed=21.204000m/h.</desc>
<speed>5.890000</speed>
</trkpt>
<trkpt lat="55.960651" lon="26.455072">
<ele>102.284241</ele>
<time>2010-08-29T17:08:58Z</time>
<desc>lat.=55.960651, lon.=26.455072, Alt.=102.284241m. Speed=19.944000m/h.</desc>
<speed>5.540000</speed>
</trkpt>
<trkpt lat="55.960613" lon="26.455133">
<ele>101.833069</ele>
<time>2010-08-29T17:08:59Z</time>
<desc>lat.=55.960613, lon.=26.455133, Alt.=101.833069m. Speed=19.656000m/h.</desc>
<speed>5.460000</speed>
</trkpt>
<trkpt lat="55.960579" lon="26.455196">
<ele>101.710022</ele>
<time>2010-08-29T17:09:00Z</time>
<desc>lat.=55.960579, lon.=26.455196, Alt.=101.710022m. Speed=21.167999m/h.</desc>
<speed>5.880000</speed>
</trkpt>
<trkpt lat="55.960541" lon="26.455259">
<ele>101.256897</ele>
<time>2010-08-29T17:09:01Z</time>
<desc>lat.=55.960541, lon.=26.455259, Alt.=101.256897m. Speed=21.167999m/h.</desc>
<speed>5.880000</speed>
</trkpt>
<trkpt lat="55.960506" lon="26.455326">
<ele>100.997131</ele>
<time>2010-08-29T17:09:02Z</time>
<desc>lat.=55.960506, lon.=26.455326, Alt.=100.997131m. Speed=22.068001m/h.</desc>
<speed>6.130000</speed>
</trkpt>
<trkpt lat="55.960464" lon="26.455393">
<ele>100.739319</ele>
<time>2010-08-29T17:09:03Z</time>
<desc>lat.=55.960464, lon.=26.455393, Alt.=100.739319m. Speed=22.572001m/h.</desc>
<speed>6.270000</speed>
</trkpt>
<trkpt lat="55.960426" lon="26.455463">
<ele>100.711975</ele>
<time>2010-08-29T17:09:04Z</time>
<desc>lat.=55.960426, lon.=26.455463, Alt.=100.711975m. Speed=21.816000m/h.</desc>
<speed>6.060000</speed>
</trkpt>
<trkpt lat="55.960388" lon="26.455532">
<ele>99.940491</ele>
<time>2010-08-29T17:09:05Z</time>
<desc>lat.=55.960388, lon.=26.455532, Alt.=99.940491m. Speed=21.312000m/h.</desc>
<speed>5.920000</speed>
</trkpt>
<trkpt lat="55.960342" lon="26.455597">
<ele>98.735413</ele>
<time>2010-08-29T17:09:06Z</time>
<desc>lat.=55.960342, lon.=26.455597, Alt.=98.735413m. Speed=20.736000m/h.</desc>
<speed>5.760000</speed>
</trkpt>
<trkpt lat="55.960304" lon="26.455662">
<ele>98.807678</ele>
<time>2010-08-29T17:09:07Z</time>
<desc>lat.=55.960304, lon.=26.455662, Alt.=98.807678m. Speed=20.808001m/h.</desc>
<speed>5.780000</speed>
</trkpt>
<trkpt lat="55.960262" lon="26.455725">
<ele>98.833069</ele>
<time>2010-08-29T17:09:08Z</time>
<desc>lat.=55.960262, lon.=26.455725, Alt.=98.833069m. Speed=20.483999m/h.</desc>
<speed>5.690000</speed>
</trkpt>
<trkpt lat="55.960220" lon="26.455780">
<ele>98.354553</ele>
<time>2010-08-29T17:09:09Z</time>
<desc>lat.=55.960220, lon.=26.455780, Alt.=98.354553m. Speed=19.511999m/h.</desc>
<speed>5.420000</speed>
</trkpt>
<trkpt lat="55.960186" lon="26.455837">
<ele>98.079163</ele>
<time>2010-08-29T17:09:10Z</time>
<desc>lat.=55.960186, lon.=26.455837, Alt.=98.079163m. Speed=18.900000m/h.</desc>
<speed>5.250000</speed>
</trkpt>
<trkpt lat="55.960148" lon="26.455889">
<ele>96.924866</ele>
<time>2010-08-29T17:09:11Z</time>
<desc>lat.=55.960148, lon.=26.455889, Alt.=96.924866m. Speed=18.252001m/h.</desc>
<speed>5.070000</speed>
</trkpt>
<trkpt lat="55.960114" lon="26.455952">
<ele>96.454163</ele>
<time>2010-08-29T17:09:12Z</time>
<desc>lat.=55.960114, lon.=26.455952, Alt.=96.454163m. Speed=18.827999m/h.</desc>
<speed>5.230000</speed>
</trkpt>
<trkpt lat="55.960079" lon="26.456007">
<ele>96.659241</ele>
<time>2010-08-29T17:09:13Z</time>
<desc>lat.=55.960079, lon.=26.456007, Alt.=96.659241m. Speed=19.296000m/h.</desc>
<speed>5.360000</speed>
</trkpt>
<trkpt lat="55.960045" lon="26.456068">
<ele>96.831116</ele>
<time>2010-08-29T17:09:14Z</time>
<desc>lat.=55.960045, lon.=26.456068, Alt.=96.831116m. Speed=19.332001m/h.</desc>
<speed>5.370000</speed>
</trkpt>
<trkpt lat="55.960018" lon="26.456135">
<ele>97.485413</ele>
<time>2010-08-29T17:09:15Z</time>
<desc>lat.=55.960018, lon.=26.456135, Alt.=97.485413m. Speed=19.044001m/h.</desc>
<speed>5.290000</speed>
</trkpt>
<trkpt lat="55.959976" lon="26.456202">
<ele>97.514709</ele>
<time>2010-08-29T17:09:16Z</time>
<desc>lat.=55.959976, lon.=26.456202, Alt.=97.514709m. Speed=20.700001m/h.</desc>
<speed>5.750000</speed>
</trkpt>
<trkpt lat="55.959938" lon="26.456264">
<ele>98.545959</ele>
<time>2010-08-29T17:09:17Z</time>
<desc>lat.=55.959938, lon.=26.456264, Alt.=98.545959m. Speed=20.448000m/h.</desc>
<speed>5.680000</speed>
</trkpt>
<trkpt lat="55.959900" lon="26.456324">
<ele>99.530334</ele>
<time>2010-08-29T17:09:18Z</time>
<desc>lat.=55.959900, lon.=26.456324, Alt.=99.530334m. Speed=21.059999m/h.</desc>
<speed>5.850000</speed>
</trkpt>
<trkpt lat="55.959866" lon="26.456383">
<ele>100.001038</ele>
<time>2010-08-29T17:09:19Z</time>
<desc>lat.=55.959866, lon.=26.456383, Alt.=100.001038m. Speed=20.771999m/h.</desc>
<speed>5.770000</speed>
</trkpt>
<trkpt lat="55.959827" lon="26.456444">
<ele>100.565491</ele>
<time>2010-08-29T17:09:20Z</time>
<desc>lat.=55.959827, lon.=26.456444, Alt.=100.565491m. Speed=20.412001m/h.</desc>
<speed>5.670000</speed>
</trkpt>
<trkpt lat="55.959782" lon="26.456512">
<ele>100.778381</ele>
<time>2010-08-29T17:09:21Z</time>
<desc>lat.=55.959782, lon.=26.456512, Alt.=100.778381m. Speed=21.384001m/h.</desc>
<speed>5.940000</speed>
</trkpt>
<trkpt lat="55.959736" lon="26.456577">
<ele>101.147522</ele>
<time>2010-08-29T17:09:22Z</time>
<desc>lat.=55.959736, lon.=26.456577, Alt.=101.147522m. Speed=21.167999m/h.</desc>
<speed>5.880000</speed>
</trkpt>
<trkpt lat="55.959698" lon="26.456640">
<ele>101.665100</ele>
<time>2010-08-29T17:09:23Z</time>
<desc>lat.=55.959698, lon.=26.456640, Alt.=101.665100m. Speed=21.743999m/h.</desc>
<speed>6.040000</speed>
</trkpt>
<trkpt lat="55.959656" lon="26.456699">
<ele>102.266663</ele>
<time>2010-08-29T17:09:24Z</time>
<desc>lat.=55.959656, lon.=26.456699, Alt.=102.266663m. Speed=19.908001m/h.</desc>
<speed>5.530000</speed>
</trkpt>
<trkpt lat="55.959618" lon="26.456758">
<ele>102.198303</ele>
<time>2010-08-29T17:09:25Z</time>
<desc>lat.=55.959618, lon.=26.456758, Alt.=102.198303m. Speed=19.296000m/h.</desc>
<speed>5.360000</speed>
</trkpt>
<trkpt lat="55.959572" lon="26.456820">
<ele>102.276428</ele>
<time>2010-08-29T17:09:26Z</time>
<desc>lat.=55.959572, lon.=26.456820, Alt.=102.276428m. Speed=20.808001m/h.</desc>
<speed>5.780000</speed>
</trkpt>
<trkpt lat="55.959530" lon="26.456882">
<ele>101.631897</ele>
<time>2010-08-29T17:09:27Z</time>
<desc>lat.=55.959530, lon.=26.456882, Alt.=101.631897m. Speed=21.096001m/h.</desc>
<speed>5.860000</speed>
</trkpt>
<trkpt lat="55.959488" lon="26.456945">
<ele>101.145569</ele>
<time>2010-08-29T17:09:28Z</time>
<desc>lat.=55.959488, lon.=26.456945, Alt.=101.145569m. Speed=20.736000m/h.</desc>
<speed>5.760000</speed>
</trkpt>
<trkpt lat="55.959442" lon="26.457012">
<ele>100.862366</ele>
<time>2010-08-29T17:09:29Z</time>
<desc>lat.=55.959442, lon.=26.457012, Alt.=100.862366m. Speed=21.312000m/h.</desc>
<speed>5.920000</speed>
</trkpt>
<trkpt lat="55.959396" lon="26.457077">
<ele>100.874084</ele>
<time>2010-08-29T17:09:30Z</time>
<desc>lat.=55.959396, lon.=26.457077, Alt.=100.874084m. Speed=20.628000m/h.</desc>
<speed>5.730000</speed>
</trkpt>
<trkpt lat="55.959354" lon="26.457148">
<ele>101.155334</ele>
<time>2010-08-29T17:09:31Z</time>
<desc>lat.=55.959354, lon.=26.457148, Alt.=101.155334m. Speed=21.024000m/h.</desc>
<speed>5.840000</speed>
</trkpt>
<trkpt lat="55.959312" lon="26.457218">
<ele>101.051819</ele>
<time>2010-08-29T17:09:32Z</time>
<desc>lat.=55.959312, lon.=26.457218, Alt.=101.051819m. Speed=20.412001m/h.</desc>
<speed>5.670000</speed>
</trkpt>
<trkpt lat="55.959274" lon="26.457281">
<ele>101.463928</ele>
<time>2010-08-29T17:09:33Z</time>
<desc>lat.=55.959274, lon.=26.457281, Alt.=101.463928m. Speed=20.988001m/h.</desc>
<speed>5.830000</speed>
</trkpt>
<trkpt lat="55.959229" lon="26.457348">
<ele>101.536194</ele>
<time>2010-08-29T17:09:34Z</time>
<desc>lat.=55.959229, lon.=26.457348, Alt.=101.536194m. Speed=19.799999m/h.</desc>
<speed>5.500000</speed>
</trkpt>
<trkpt lat="55.959190" lon="26.457409">
<ele>102.077209</ele>
<time>2010-08-29T17:09:35Z</time>
<desc>lat.=55.959190, lon.=26.457409, Alt.=102.077209m. Speed=20.988001m/h.</desc>
<speed>5.830000</speed>
</trkpt>
<trkpt lat="55.959148" lon="26.457476">
<ele>101.833069</ele>
<time>2010-08-29T17:09:36Z</time>
<desc>lat.=55.959148, lon.=26.457476, Alt.=101.833069m. Speed=21.851999m/h.</desc>
<speed>6.070000</speed>
</trkpt>
<trkpt lat="55.959106" lon="26.457539">
<ele>101.356506</ele>
<time>2010-08-29T17:09:37Z</time>
<desc>lat.=55.959106, lon.=26.457539, Alt.=101.356506m. Speed=22.284000m/h.</desc>
<speed>6.190000</speed>
</trkpt>
<trkpt lat="55.959064" lon="26.457603">
<ele>101.358459</ele>
<time>2010-08-29T17:09:38Z</time>
<desc>lat.=55.959064, lon.=26.457603, Alt.=101.358459m. Speed=22.427999m/h.</desc>
<speed>6.230000</speed>
</trkpt>
<trkpt lat="55.959023" lon="26.457672">
<ele>101.155334</ele>
<time>2010-08-29T17:09:39Z</time>
<desc>lat.=55.959023, lon.=26.457672, Alt.=101.155334m. Speed=21.672001m/h.</desc>
<speed>6.020000</speed>
</trkpt>
<trkpt lat="55.958984" lon="26.457741">
<ele>101.169006</ele>
<time>2010-08-29T17:09:40Z</time>
<desc>lat.=55.958984, lon.=26.457741, Alt.=101.169006m. Speed=21.600000m/h.</desc>
<speed>6.000000</speed>
</trkpt>
<trkpt lat="55.958946" lon="26.457806">
<ele>101.520569</ele>
<time>2010-08-29T17:09:41Z</time>
<desc>lat.=55.958946, lon.=26.457806, Alt.=101.520569m. Speed=21.132000m/h.</desc>
<speed>5.870000</speed>
</trkpt>
<trkpt lat="55.958912" lon="26.457863">
<ele>102.178772</ele>
<time>2010-08-29T17:09:42Z</time>
<desc>lat.=55.958912, lon.=26.457863, Alt.=102.178772m. Speed=18.180000m/h.</desc>
<speed>5.050000</speed>
</trkpt>
<trkpt lat="55.958881" lon="26.457916">
<ele>102.471741</ele>
<time>2010-08-29T17:09:43Z</time>
<desc>lat.=55.958881, lon.=26.457916, Alt.=102.471741m. Speed=18.540001m/h.</desc>
<speed>5.150000</speed>
</trkpt>
<trkpt lat="55.958839" lon="26.457973">
<ele>102.684631</ele>
<time>2010-08-29T17:09:44Z</time>
<desc>lat.=55.958839, lon.=26.457973, Alt.=102.684631m. Speed=18.792000m/h.</desc>
<speed>5.220000</speed>
</trkpt>
<trkpt lat="55.958801" lon="26.458017">
<ele>103.096741</ele>
<time>2010-08-29T17:09:45Z</time>
<desc>lat.=55.958801, lon.=26.458017, Alt.=103.096741m. Speed=17.639999m/h.</desc>
<speed>4.900000</speed>
</trkpt>
<trkpt lat="55.958767" lon="26.458065">
<ele>103.756897</ele>
<time>2010-08-29T17:09:46Z</time>
<desc>lat.=55.958767, lon.=26.458065, Alt.=103.756897m. Speed=17.316000m/h.</desc>
<speed>4.810000</speed>
</trkpt>
<trkpt lat="55.958736" lon="26.458122">
<ele>104.915100</ele>
<time>2010-08-29T17:09:47Z</time>
<desc>lat.=55.958736, lon.=26.458122, Alt.=104.915100m. Speed=17.316000m/h.</desc>
<speed>4.810000</speed>
</trkpt>
<trkpt lat="55.958698" lon="26.458183">
<ele>104.717834</ele>
<time>2010-08-29T17:09:48Z</time>
<desc>lat.=55.958698, lon.=26.458183, Alt.=104.717834m. Speed=18.396000m/h.</desc>
<speed>5.110000</speed>
</trkpt>
<trkpt lat="55.958664" lon="26.458237">
<ele>105.094788</ele>
<time>2010-08-29T17:09:49Z</time>
<desc>lat.=55.958664, lon.=26.458237, Alt.=105.094788m. Speed=17.892000m/h.</desc>
<speed>4.970000</speed>
</trkpt>
<trkpt lat="55.958626" lon="26.458305">
<ele>104.452209</ele>
<time>2010-08-29T17:09:50Z</time>
<desc>lat.=55.958626, lon.=26.458305, Alt.=104.452209m. Speed=17.208000m/h.</desc>
<speed>4.780000</speed>
</trkpt>
<trkpt lat="55.958595" lon="26.458368">
<ele>104.256897</ele>
<time>2010-08-29T17:09:51Z</time>
<desc>lat.=55.958595, lon.=26.458368, Alt.=104.256897m. Speed=16.416000m/h.</desc>
<speed>4.560000</speed>
</trkpt>
<trkpt lat="55.958565" lon="26.458427">
<ele>103.622131</ele>
<time>2010-08-29T17:09:52Z</time>
<desc>lat.=55.958565, lon.=26.458427, Alt.=103.622131m. Speed=16.056000m/h.</desc>
<speed>4.460000</speed>
</trkpt>
<trkpt lat="55.958534" lon="26.458481">
<ele>102.741272</ele>
<time>2010-08-29T17:09:53Z</time>
<desc>lat.=55.958534, lon.=26.458481, Alt.=102.741272m. Speed=15.372000m/h.</desc>
<speed>4.270000</speed>
</trkpt>
<trkpt lat="55.958500" lon="26.458525">
<ele>101.446350</ele>
<time>2010-08-29T17:09:54Z</time>
<desc>lat.=55.958500, lon.=26.458525, Alt.=101.446350m. Speed=15.120000m/h.</desc>
<speed>4.200000</speed>
</trkpt>
<trkpt lat="55.958469" lon="26.458574">
<ele>101.549866</ele>
<time>2010-08-29T17:09:55Z</time>
<desc>lat.=55.958469, lon.=26.458574, Alt.=101.549866m. Speed=15.228000m/h.</desc>
<speed>4.230000</speed>
</trkpt>
<trkpt lat="55.958439" lon="26.458628">
<ele>101.602600</ele>
<time>2010-08-29T17:09:56Z</time>
<desc>lat.=55.958439, lon.=26.458628, Alt.=101.602600m. Speed=14.832000m/h.</desc>
<speed>4.120000</speed>
</trkpt>
<trkpt lat="55.958401" lon="26.458670">
<ele>101.010803</ele>
<time>2010-08-29T17:09:57Z</time>
<desc>lat.=55.958401, lon.=26.458670, Alt.=101.010803m. Speed=14.580000m/h.</desc>
<speed>4.050000</speed>
</trkpt>
<trkpt lat="55.958374" lon="26.458715">
<ele>101.440491</ele>
<time>2010-08-29T17:09:58Z</time>
<desc>lat.=55.958374, lon.=26.458715, Alt.=101.440491m. Speed=14.364000m/h.</desc>
<speed>3.990000</speed>
</trkpt>
<trkpt lat="55.958332" lon="26.458755">
<ele>100.708069</ele>
<time>2010-08-29T17:09:59Z</time>
<desc>lat.=55.958332, lon.=26.458755, Alt.=100.708069m. Speed=14.976000m/h.</desc>
<speed>4.160000</speed>
</trkpt>
<trkpt lat="55.958305" lon="26.458797">
<ele>100.852600</ele>
<time>2010-08-29T17:10:00Z</time>
<desc>lat.=55.958305, lon.=26.458797, Alt.=100.852600m. Speed=13.356000m/h.</desc>
<speed>3.710000</speed>
</trkpt>
<trkpt lat="55.958279" lon="26.458836">
<ele>100.647522</ele>
<time>2010-08-29T17:10:01Z</time>
<desc>lat.=55.958279, lon.=26.458836, Alt.=100.647522m. Speed=13.788000m/h.</desc>
<speed>3.830000</speed>
</trkpt>
<trkpt lat="55.958248" lon="26.458879">
<ele>100.239319</ele>
<time>2010-08-29T17:10:02Z</time>
<desc>lat.=55.958248, lon.=26.458879, Alt.=100.239319m. Speed=15.012000m/h.</desc>
<speed>4.170000</speed>
</trkpt>
<trkpt lat="55.958221" lon="26.458925">
<ele>100.434631</ele>
<time>2010-08-29T17:10:03Z</time>
<desc>lat.=55.958221, lon.=26.458925, Alt.=100.434631m. Speed=12.960000m/h.</desc>
<speed>3.600000</speed>
</trkpt>
<trkpt lat="55.958191" lon="26.458967">
<ele>100.016663</ele>
<time>2010-08-29T17:10:04Z</time>
<desc>lat.=55.958191, lon.=26.458967, Alt.=100.016663m. Speed=14.508000m/h.</desc>
<speed>4.030000</speed>
</trkpt>
<trkpt lat="55.958168" lon="26.459017">
<ele>100.575256</ele>
<time>2010-08-29T17:10:05Z</time>
<desc>lat.=55.958168, lon.=26.459017, Alt.=100.575256m. Speed=15.552000m/h.</desc>
<speed>4.320000</speed>
</trkpt>
<trkpt lat="55.958138" lon="26.459064">
<ele>100.926819</ele>
<time>2010-08-29T17:10:06Z</time>
<desc>lat.=55.958138, lon.=26.459064, Alt.=100.926819m. Speed=15.804000m/h.</desc>
<speed>4.390000</speed>
</trkpt>
<trkpt lat="55.958103" lon="26.459108">
<ele>101.153381</ele>
<time>2010-08-29T17:10:07Z</time>
<desc>lat.=55.958103, lon.=26.459108, Alt.=101.153381m. Speed=15.912000m/h.</desc>
<speed>4.420000</speed>
</trkpt>
<trkpt lat="55.958073" lon="26.459156">
<ele>101.393616</ele>
<time>2010-08-29T17:10:08Z</time>
<desc>lat.=55.958073, lon.=26.459156, Alt.=101.393616m. Speed=16.775999m/h.</desc>
<speed>4.660000</speed>
</trkpt>
<trkpt lat="55.958038" lon="26.459204">
<ele>101.200256</ele>
<time>2010-08-29T17:10:09Z</time>
<desc>lat.=55.958038, lon.=26.459204, Alt.=101.200256m. Speed=18.180000m/h.</desc>
<speed>5.050000</speed>
</trkpt>
<trkpt lat="55.958004" lon="26.459251">
<ele>101.184631</ele>
<time>2010-08-29T17:10:10Z</time>
<desc>lat.=55.958004, lon.=26.459251, Alt.=101.184631m. Speed=17.639999m/h.</desc>
<speed>4.900000</speed>
</trkpt>
<trkpt lat="55.957973" lon="26.459303">
<ele>101.270569</ele>
<time>2010-08-29T17:10:11Z</time>
<desc>lat.=55.957973, lon.=26.459303, Alt.=101.270569m. Speed=17.172001m/h.</desc>
<speed>4.770000</speed>
</trkpt>
<trkpt lat="55.957939" lon="26.459349">
<ele>101.305725</ele>
<time>2010-08-29T17:10:12Z</time>
<desc>lat.=55.957939, lon.=26.459349, Alt.=101.305725m. Speed=18.072001m/h.</desc>
<speed>5.020000</speed>
</trkpt>
<trkpt lat="55.957901" lon="26.459400">
<ele>101.282288</ele>
<time>2010-08-29T17:10:13Z</time>
<desc>lat.=55.957901, lon.=26.459400, Alt.=101.282288m. Speed=18.000000m/h.</desc>
<speed>5.000000</speed>
</trkpt>
<trkpt lat="55.957855" lon="26.459454">
<ele>100.956116</ele>
<time>2010-08-29T17:10:14Z</time>
<desc>lat.=55.957855, lon.=26.459454, Alt.=100.956116m. Speed=19.115999m/h.</desc>
<speed>5.310000</speed>
</trkpt>
<trkpt lat="55.957817" lon="26.459507">
<ele>100.944397</ele>
<time>2010-08-29T17:10:15Z</time>
<desc>lat.=55.957817, lon.=26.459507, Alt.=100.944397m. Speed=19.260000m/h.</desc>
<speed>5.350000</speed>
</trkpt>
<trkpt lat="55.957779" lon="26.459566">
<ele>101.010803</ele>
<time>2010-08-29T17:10:16Z</time>
<desc>lat.=55.957779, lon.=26.459566, Alt.=101.010803m. Speed=20.195999m/h.</desc>
<speed>5.610000</speed>
</trkpt>
<trkpt lat="55.957741" lon="26.459625">
<ele>100.967834</ele>
<time>2010-08-29T17:10:17Z</time>
<desc>lat.=55.957741, lon.=26.459625, Alt.=100.967834m. Speed=19.332001m/h.</desc>
<speed>5.370000</speed>
</trkpt>
<trkpt lat="55.957703" lon="26.459675">
<ele>100.817444</ele>
<time>2010-08-29T17:10:18Z</time>
<desc>lat.=55.957703, lon.=26.459675, Alt.=100.817444m. Speed=18.216000m/h.</desc>
<speed>5.060000</speed>
</trkpt>
<trkpt lat="55.957664" lon="26.459730">
<ele>100.592834</ele>
<time>2010-08-29T17:10:19Z</time>
<desc>lat.=55.957664, lon.=26.459730, Alt.=100.592834m. Speed=18.252001m/h.</desc>
<speed>5.070000</speed>
</trkpt>
<trkpt lat="55.957634" lon="26.459782">
<ele>100.639709</ele>
<time>2010-08-29T17:10:20Z</time>
<desc>lat.=55.957634, lon.=26.459782, Alt.=100.639709m. Speed=16.667999m/h.</desc>
<speed>4.630000</speed>
</trkpt>
<trkpt lat="55.957607" lon="26.459829">
<ele>100.487366</ele>
<time>2010-08-29T17:10:21Z</time>
<desc>lat.=55.957607, lon.=26.459829, Alt.=100.487366m. Speed=16.884001m/h.</desc>
<speed>4.690000</speed>
</trkpt>
<trkpt lat="55.957577" lon="26.459871">
<ele>100.776428</ele>
<time>2010-08-29T17:10:22Z</time>
<desc>lat.=55.957577, lon.=26.459871, Alt.=100.776428m. Speed=16.308001m/h.</desc>
<speed>4.530000</speed>
</trkpt>
<trkpt lat="55.957546" lon="26.459921">
<ele>100.879944</ele>
<time>2010-08-29T17:10:23Z</time>
<desc>lat.=55.957546, lon.=26.459921, Alt.=100.879944m. Speed=16.740000m/h.</desc>
<speed>4.650000</speed>
</trkpt>
<trkpt lat="55.957512" lon="26.459976">
<ele>100.963928</ele>
<time>2010-08-29T17:10:24Z</time>
<desc>lat.=55.957512, lon.=26.459976, Alt.=100.963928m. Speed=17.676001m/h.</desc>
<speed>4.910000</speed>
</trkpt>
<trkpt lat="55.957470" lon="26.460035">
<ele>100.893616</ele>
<time>2010-08-29T17:10:25Z</time>
<desc>lat.=55.957470, lon.=26.460035, Alt.=100.893616m. Speed=16.812000m/h.</desc>
<speed>4.670000</speed>
</trkpt>
<trkpt lat="55.957436" lon="26.460094">
<ele>101.360413</ele>
<time>2010-08-29T17:10:26Z</time>
<desc>lat.=55.957436, lon.=26.460094, Alt.=101.360413m. Speed=18.323999m/h.</desc>
<speed>5.090000</speed>
</trkpt>
<trkpt lat="55.957397" lon="26.460144">
<ele>101.311584</ele>
<time>2010-08-29T17:10:27Z</time>
<desc>lat.=55.957397, lon.=26.460144, Alt.=101.311584m. Speed=17.747999m/h.</desc>
<speed>4.930000</speed>
</trkpt>
<trkpt lat="55.957367" lon="26.460197">
<ele>101.626038</ele>
<time>2010-08-29T17:10:28Z</time>
<desc>lat.=55.957367, lon.=26.460197, Alt.=101.626038m. Speed=17.351999m/h.</desc>
<speed>4.820000</speed>
</trkpt>
<trkpt lat="55.957329" lon="26.460253">
<ele>101.458069</ele>
<time>2010-08-29T17:10:29Z</time>
<desc>lat.=55.957329, lon.=26.460253, Alt.=101.458069m. Speed=19.872000m/h.</desc>
<speed>5.520000</speed>
</trkpt>
<trkpt lat="55.957302" lon="26.460299">
<ele>102.208069</ele>
<time>2010-08-29T17:10:30Z</time>
<desc>lat.=55.957302, lon.=26.460299, Alt.=102.208069m. Speed=11.376000m/h.</desc>
<speed>3.160000</speed>
</trkpt>
<trkpt lat="55.957272" lon="26.460342">
<ele>102.508850</ele>
<time>2010-08-29T17:10:31Z</time>
<desc>lat.=55.957272, lon.=26.460342, Alt.=102.508850m. Speed=20.052000m/h.</desc>
<speed>5.570000</speed>
</trkpt>
<trkpt lat="55.957233" lon="26.460402">
<ele>102.946350</ele>
<time>2010-08-29T17:10:32Z</time>
<desc>lat.=55.957233, lon.=26.460402, Alt.=102.946350m. Speed=18.756001m/h.</desc>
<speed>5.210000</speed>
</trkpt>
<trkpt lat="55.957195" lon="26.460455">
<ele>103.235413</ele>
<time>2010-08-29T17:10:33Z</time>
<desc>lat.=55.957195, lon.=26.460455, Alt.=103.235413m. Speed=19.115999m/h.</desc>
<speed>5.310000</speed>
</trkpt>
<trkpt lat="55.957150" lon="26.460510">
<ele>102.795959</ele>
<time>2010-08-29T17:10:34Z</time>
<desc>lat.=55.957150, lon.=26.460510, Alt.=102.795959m. Speed=17.712000m/h.</desc>
<speed>4.920000</speed>
</trkpt>
<trkpt lat="55.957104" lon="26.460562">
<ele>102.268616</ele>
<time>2010-08-29T17:10:35Z</time>
<desc>lat.=55.957104, lon.=26.460562, Alt.=102.268616m. Speed=17.208000m/h.</desc>
<speed>4.780000</speed>
</trkpt>
<trkpt lat="55.957073" lon="26.460613">
<ele>102.270569</ele>
<time>2010-08-29T17:10:36Z</time>
<desc>lat.=55.957073, lon.=26.460613, Alt.=102.270569m. Speed=17.243999m/h.</desc>
<speed>4.790000</speed>
</trkpt>
<trkpt lat="55.957039" lon="26.460663">
<ele>102.126038</ele>
<time>2010-08-29T17:10:37Z</time>
<desc>lat.=55.957039, lon.=26.460663, Alt.=102.126038m. Speed=17.028000m/h.</desc>
<speed>4.730000</speed>
</trkpt>
<trkpt lat="55.957005" lon="26.460714">
<ele>102.338928</ele>
<time>2010-08-29T17:10:38Z</time>
<desc>lat.=55.957005, lon.=26.460714, Alt.=102.338928m. Speed=17.784000m/h.</desc>
<speed>4.940000</speed>
</trkpt>
<trkpt lat="55.956970" lon="26.460768">
<ele>102.348694</ele>
<time>2010-08-29T17:10:39Z</time>
<desc>lat.=55.956970, lon.=26.460768, Alt.=102.348694m. Speed=17.856001m/h.</desc>
<speed>4.960000</speed>
</trkpt>
<trkpt lat="55.956932" lon="26.460814">
<ele>101.848694</ele>
<time>2010-08-29T17:10:40Z</time>
<desc>lat.=55.956932, lon.=26.460814, Alt.=101.848694m. Speed=15.012000m/h.</desc>
<speed>4.170000</speed>
</trkpt>
<trkpt lat="55.956902" lon="26.460855">
<ele>101.669006</ele>
<time>2010-08-29T17:10:41Z</time>
<desc>lat.=55.956902, lon.=26.460855, Alt.=101.669006m. Speed=14.904000m/h.</desc>
<speed>4.140000</speed>
</trkpt>
<trkpt lat="55.956860" lon="26.460911">
<ele>101.325256</ele>
<time>2010-08-29T17:10:42Z</time>
<desc>lat.=55.956860, lon.=26.460911, Alt.=101.325256m. Speed=17.063999m/h.</desc>
<speed>4.740000</speed>
</trkpt>
<trkpt lat="55.956814" lon="26.460964">
<ele>101.344788</ele>
<time>2010-08-29T17:10:43Z</time>
<desc>lat.=55.956814, lon.=26.460964, Alt.=101.344788m. Speed=17.892000m/h.</desc>
<speed>4.970000</speed>
</trkpt>
<trkpt lat="55.956772" lon="26.461021">
<ele>101.100647</ele>
<time>2010-08-29T17:10:44Z</time>
<desc>lat.=55.956772, lon.=26.461021, Alt.=101.100647m. Speed=18.719999m/h.</desc>
<speed>5.200000</speed>
</trkpt>
<trkpt lat="55.956734" lon="26.461081">
<ele>101.610413</ele>
<time>2010-08-29T17:10:45Z</time>
<desc>lat.=55.956734, lon.=26.461081, Alt.=101.610413m. Speed=18.035999m/h.</desc>
<speed>5.010000</speed>
</trkpt>
<trkpt lat="55.956696" lon="26.461138">
<ele>102.163147</ele>
<time>2010-08-29T17:10:46Z</time>
<desc>lat.=55.956696, lon.=26.461138, Alt.=102.163147m. Speed=17.856001m/h.</desc>
<speed>4.960000</speed>
</trkpt>
<trkpt lat="55.956661" lon="26.461191">
<ele>102.409241</ele>
<time>2010-08-29T17:10:47Z</time>
<desc>lat.=55.956661, lon.=26.461191, Alt.=102.409241m. Speed=18.719999m/h.</desc>
<speed>5.200000</speed>
</trkpt>
<trkpt lat="55.956619" lon="26.461237">
<ele>102.299866</ele>
<time>2010-08-29T17:10:48Z</time>
<desc>lat.=55.956619, lon.=26.461237, Alt.=102.299866m. Speed=18.576000m/h.</desc>
<speed>5.160000</speed>
</trkpt>
<trkpt lat="55.956573" lon="26.461277">
<ele>101.620178</ele>
<time>2010-08-29T17:10:49Z</time>
<desc>lat.=55.956573, lon.=26.461277, Alt.=101.620178m. Speed=18.180000m/h.</desc>
<speed>5.050000</speed>
</trkpt>
<trkpt lat="55.956528" lon="26.461327">
<ele>101.299866</ele>
<time>2010-08-29T17:10:50Z</time>
<desc>lat.=55.956528, lon.=26.461327, Alt.=101.299866m. Speed=20.700001m/h.</desc>
<speed>5.750000</speed>
</trkpt>
<trkpt lat="55.956486" lon="26.461384">
<ele>101.655334</ele>
<time>2010-08-29T17:10:51Z</time>
<desc>lat.=55.956486, lon.=26.461384, Alt.=101.655334m. Speed=18.864000m/h.</desc>
<speed>5.240000</speed>
</trkpt>
<trkpt lat="55.956451" lon="26.461432">
<ele>101.948303</ele>
<time>2010-08-29T17:10:52Z</time>
<desc>lat.=55.956451, lon.=26.461432, Alt.=101.948303m. Speed=16.379999m/h.</desc>
<speed>4.550000</speed>
</trkpt>
<trkpt lat="55.956421" lon="26.461479">
<ele>101.967834</ele>
<time>2010-08-29T17:10:53Z</time>
<desc>lat.=55.956421, lon.=26.461479, Alt.=101.967834m. Speed=17.496000m/h.</desc>
<speed>4.860000</speed>
</trkpt>
<trkpt lat="55.956387" lon="26.461527">
<ele>102.893616</ele>
<time>2010-08-29T17:10:54Z</time>
<desc>lat.=55.956387, lon.=26.461527, Alt.=102.893616m. Speed=15.588000m/h.</desc>
<speed>4.330000</speed>
</trkpt>
<trkpt lat="55.956360" lon="26.461563">
<ele>103.145569</ele>
<time>2010-08-29T17:10:55Z</time>
<desc>lat.=55.956360, lon.=26.461563, Alt.=103.145569m. Speed=13.860000m/h.</desc>
<speed>3.850000</speed>
</trkpt>
<trkpt lat="55.956333" lon="26.461605">
<ele>103.573303</ele>
<time>2010-08-29T17:10:56Z</time>
<desc>lat.=55.956333, lon.=26.461605, Alt.=103.573303m. Speed=15.192000m/h.</desc>
<speed>4.220000</speed>
</trkpt>
<trkpt lat="55.956306" lon="26.461655">
<ele>104.391663</ele>
<time>2010-08-29T17:10:57Z</time>
<desc>lat.=55.956306, lon.=26.461655, Alt.=104.391663m. Speed=14.940000m/h.</desc>
<speed>4.150000</speed>
</trkpt>
<trkpt lat="55.956284" lon="26.461700">
<ele>105.055725</ele>
<time>2010-08-29T17:10:58Z</time>
<desc>lat.=55.956284, lon.=26.461700, Alt.=105.055725m. Speed=11.484000m/h.</desc>
<speed>3.190000</speed>
</trkpt>
<trkpt lat="55.956249" lon="26.461740">
<ele>104.618225</ele>
<time>2010-08-29T17:10:59Z</time>
<desc>lat.=55.956249, lon.=26.461740, Alt.=104.618225m. Speed=12.276000m/h.</desc>
<speed>3.410000</speed>
</trkpt>
<trkpt lat="55.956215" lon="26.461781">
<ele>103.977600</ele>
<time>2010-08-29T17:11:00Z</time>
<desc>lat.=55.956215, lon.=26.461781, Alt.=103.977600m. Speed=13.176000m/h.</desc>
<speed>3.660000</speed>
</trkpt>
<trkpt lat="55.956184" lon="26.461819">
<ele>103.684631</ele>
<time>2010-08-29T17:11:01Z</time>
<desc>lat.=55.956184, lon.=26.461819, Alt.=103.684631m. Speed=13.176000m/h.</desc>
<speed>3.660000</speed>
</trkpt>
<trkpt lat="55.956135" lon="26.461861">
<ele>101.831116</ele>
<time>2010-08-29T17:11:02Z</time>
<desc>lat.=55.956135, lon.=26.461861, Alt.=101.831116m. Speed=15.120000m/h.</desc>
<speed>4.200000</speed>
</trkpt>
<trkpt lat="55.956097" lon="26.461914">
<ele>102.135803</ele>
<time>2010-08-29T17:11:03Z</time>
<desc>lat.=55.956097, lon.=26.461914, Alt.=102.135803m. Speed=14.940000m/h.</desc>
<speed>4.150000</speed>
</trkpt>
<trkpt lat="55.956062" lon="26.461954">
<ele>102.235413</ele>
<time>2010-08-29T17:11:04Z</time>
<desc>lat.=55.956062, lon.=26.461954, Alt.=102.235413m. Speed=13.140000m/h.</desc>
<speed>3.650000</speed>
</trkpt>
<trkpt lat="55.956028" lon="26.461985">
<ele>102.198303</ele>
<time>2010-08-29T17:11:05Z</time>
<desc>lat.=55.956028, lon.=26.461985, Alt.=102.198303m. Speed=12.312000m/h.</desc>
<speed>3.420000</speed>
</trkpt>
<trkpt lat="55.956001" lon="26.462023">
<ele>102.163147</ele>
<time>2010-08-29T17:11:06Z</time>
<desc>lat.=55.956001, lon.=26.462023, Alt.=102.163147m. Speed=14.328000m/h.</desc>
<speed>3.980000</speed>
</trkpt>
<trkpt lat="55.955963" lon="26.462061">
<ele>101.223694</ele>
<time>2010-08-29T17:11:07Z</time>
<desc>lat.=55.955963, lon.=26.462061, Alt.=101.223694m. Speed=14.940000m/h.</desc>
<speed>4.150000</speed>
</trkpt>
<trkpt lat="55.955925" lon="26.462099">
<ele>100.711975</ele>
<time>2010-08-29T17:11:08Z</time>
<desc>lat.=55.955925, lon.=26.462099, Alt.=100.711975m. Speed=16.452000m/h.</desc>
<speed>4.570000</speed>
</trkpt>
<trkpt lat="55.955894" lon="26.462143">
<ele>101.604553</ele>
<time>2010-08-29T17:11:09Z</time>
<desc>lat.=55.955894, lon.=26.462143, Alt.=101.604553m. Speed=14.868000m/h.</desc>
<speed>4.130000</speed>
</trkpt>
<trkpt lat="55.955860" lon="26.462179">
<ele>101.891663</ele>
<time>2010-08-29T17:11:10Z</time>
<desc>lat.=55.955860, lon.=26.462179, Alt.=101.891663m. Speed=15.156000m/h.</desc>
<speed>4.210000</speed>
</trkpt>
<trkpt lat="55.955826" lon="26.462223">
<ele>102.456116</ele>
<time>2010-08-29T17:11:11Z</time>
<desc>lat.=55.955826, lon.=26.462223, Alt.=102.456116m. Speed=16.056000m/h.</desc>
<speed>4.460000</speed>
</trkpt>
<trkpt lat="55.955788" lon="26.462261">
<ele>102.069397</ele>
<time>2010-08-29T17:11:12Z</time>
<desc>lat.=55.955788, lon.=26.462261, Alt.=102.069397m. Speed=16.704000m/h.</desc>
<speed>4.640000</speed>
</trkpt>
<trkpt lat="55.955750" lon="26.462296">
<ele>101.551819</ele>
<time>2010-08-29T17:11:13Z</time>
<desc>lat.=55.955750, lon.=26.462296, Alt.=101.551819m. Speed=16.308001m/h.</desc>
<speed>4.530000</speed>
</trkpt>
<trkpt lat="55.955711" lon="26.462336">
<ele>101.374084</ele>
<time>2010-08-29T17:11:14Z</time>
<desc>lat.=55.955711, lon.=26.462336, Alt.=101.374084m. Speed=16.775999m/h.</desc>
<speed>4.660000</speed>
</trkpt>
<trkpt lat="55.955677" lon="26.462378">
<ele>101.881897</ele>
<time>2010-08-29T17:11:15Z</time>
<desc>lat.=55.955677, lon.=26.462378, Alt.=101.881897m. Speed=16.271999m/h.</desc>
<speed>4.520000</speed>
</trkpt>
<trkpt lat="55.955635" lon="26.462421">
<ele>102.008850</ele>
<time>2010-08-29T17:11:16Z</time>
<desc>lat.=55.955635, lon.=26.462421, Alt.=102.008850m. Speed=17.856001m/h.</desc>
<speed>4.960000</speed>
</trkpt>
<trkpt lat="55.955597" lon="26.462463">
<ele>101.766663</ele>
<time>2010-08-29T17:11:17Z</time>
<desc>lat.=55.955597, lon.=26.462463, Alt.=101.766663m. Speed=17.820000m/h.</desc>
<speed>4.950000</speed>
</trkpt>
<trkpt lat="55.955547" lon="26.462511">
<ele>100.760803</ele>
<time>2010-08-29T17:11:18Z</time>
<desc>lat.=55.955547, lon.=26.462511, Alt.=100.760803m. Speed=18.684000m/h.</desc>
<speed>5.190000</speed>
</trkpt>
<trkpt lat="55.955494" lon="26.462563">
<ele>100.149475</ele>
<time>2010-08-29T17:11:19Z</time>
<desc>lat.=55.955494, lon.=26.462563, Alt.=100.149475m. Speed=22.392000m/h.</desc>
<speed>6.220000</speed>
</trkpt>
<trkpt lat="55.955452" lon="26.462614">
<ele>100.567444</ele>
<time>2010-08-29T17:11:20Z</time>
<desc>lat.=55.955452, lon.=26.462614, Alt.=100.567444m. Speed=17.927999m/h.</desc>
<speed>4.980000</speed>
</trkpt>
<trkpt lat="55.955418" lon="26.462666">
<ele>101.633850</ele>
<time>2010-08-29T17:11:21Z</time>
<desc>lat.=55.955418, lon.=26.462666, Alt.=101.633850m. Speed=20.412001m/h.</desc>
<speed>5.670000</speed>
</trkpt>
<trkpt lat="55.955379" lon="26.462725">
<ele>102.131897</ele>
<time>2010-08-29T17:11:22Z</time>
<desc>lat.=55.955379, lon.=26.462725, Alt.=102.131897m. Speed=17.532000m/h.</desc>
<speed>4.870000</speed>
</trkpt>
<trkpt lat="55.955345" lon="26.462774">
<ele>102.036194</ele>
<time>2010-08-29T17:11:23Z</time>
<desc>lat.=55.955345, lon.=26.462774, Alt.=102.036194m. Speed=16.091999m/h.</desc>
<speed>4.470000</speed>
</trkpt>
<trkpt lat="55.955311" lon="26.462820">
<ele>102.270569</ele>
<time>2010-08-29T17:11:24Z</time>
<desc>lat.=55.955311, lon.=26.462820, Alt.=102.270569m. Speed=17.639999m/h.</desc>
<speed>4.900000</speed>
</trkpt>
<trkpt lat="55.955269" lon="26.462872">
<ele>102.612366</ele>
<time>2010-08-29T17:11:25Z</time>
<desc>lat.=55.955269, lon.=26.462872, Alt.=102.612366m. Speed=17.712000m/h.</desc>
<speed>4.920000</speed>
</trkpt>
<trkpt lat="55.955223" lon="26.462925">
<ele>102.831116</ele>
<time>2010-08-29T17:11:26Z</time>
<desc>lat.=55.955223, lon.=26.462925, Alt.=102.831116m. Speed=18.827999m/h.</desc>
<speed>5.230000</speed>
</trkpt>
<trkpt lat="55.955185" lon="26.462975">
<ele>103.571350</ele>
<time>2010-08-29T17:11:27Z</time>
<desc>lat.=55.955185, lon.=26.462975, Alt.=103.571350m. Speed=16.344000m/h.</desc>
<speed>4.540000</speed>
</trkpt>
<trkpt lat="55.955147" lon="26.463018">
<ele>103.532288</ele>
<time>2010-08-29T17:11:28Z</time>
<desc>lat.=55.955147, lon.=26.463018, Alt.=103.532288m. Speed=16.416000m/h.</desc>
<speed>4.560000</speed>
</trkpt>
<trkpt lat="55.955105" lon="26.463058">
<ele>102.958069</ele>
<time>2010-08-29T17:11:29Z</time>
<desc>lat.=55.955105, lon.=26.463058, Alt.=102.958069m. Speed=16.884001m/h.</desc>
<speed>4.690000</speed>
</trkpt>
<trkpt lat="55.955067" lon="26.463102">
<ele>102.877991</ele>
<time>2010-08-29T17:11:30Z</time>
<desc>lat.=55.955067, lon.=26.463102, Alt.=102.877991m. Speed=16.164000m/h.</desc>
<speed>4.490000</speed>
</trkpt>
<trkpt lat="55.955032" lon="26.463154">
<ele>102.934631</ele>
<time>2010-08-29T17:11:31Z</time>
<desc>lat.=55.955032, lon.=26.463154, Alt.=102.934631m. Speed=16.992001m/h.</desc>
<speed>4.720000</speed>
</trkpt>
<trkpt lat="55.954998" lon="26.463202">
<ele>103.717834</ele>
<time>2010-08-29T17:11:32Z</time>
<desc>lat.=55.954998, lon.=26.463202, Alt.=103.717834m. Speed=15.012000m/h.</desc>
<speed>4.170000</speed>
</trkpt>
<trkpt lat="55.954960" lon="26.463234">
<ele>103.292053</ele>
<time>2010-08-29T17:11:33Z</time>
<desc>lat.=55.954960, lon.=26.463234, Alt.=103.292053m. Speed=15.696000m/h.</desc>
<speed>4.360000</speed>
</trkpt>
<trkpt lat="55.954926" lon="26.463272">
<ele>103.065491</ele>
<time>2010-08-29T17:11:34Z</time>
<desc>lat.=55.954926, lon.=26.463272, Alt.=103.065491m. Speed=14.724000m/h.</desc>
<speed>4.090000</speed>
</trkpt>
<trkpt lat="55.954884" lon="26.463310">
<ele>102.752991</ele>
<time>2010-08-29T17:11:35Z</time>
<desc>lat.=55.954884, lon.=26.463310, Alt.=102.752991m. Speed=15.084000m/h.</desc>
<speed>4.190000</speed>
</trkpt>
<trkpt lat="55.954853" lon="26.463345">
<ele>103.586975</ele>
<time>2010-08-29T17:11:36Z</time>
<desc>lat.=55.954853, lon.=26.463345, Alt.=103.586975m. Speed=13.500000m/h.</desc>
<speed>3.750000</speed>
</trkpt>
<trkpt lat="55.954823" lon="26.463377">
<ele>103.926819</ele>
<time>2010-08-29T17:11:37Z</time>
<desc>lat.=55.954823, lon.=26.463377, Alt.=103.926819m. Speed=12.672000m/h.</desc>
<speed>3.520000</speed>
</trkpt>
<trkpt lat="55.954792" lon="26.463409">
<ele>104.045959</ele>
<time>2010-08-29T17:11:38Z</time>
<desc>lat.=55.954792, lon.=26.463409, Alt.=104.045959m. Speed=12.816000m/h.</desc>
<speed>3.560000</speed>
</trkpt>
<trkpt lat="55.954746" lon="26.463455">
<ele>103.704163</ele>
<time>2010-08-29T17:11:39Z</time>
<desc>lat.=55.954746, lon.=26.463455, Alt.=103.704163m. Speed=14.868000m/h.</desc>
<speed>4.130000</speed>
</trkpt>
<trkpt lat="55.954712" lon="26.463503">
<ele>103.919006</ele>
<time>2010-08-29T17:11:40Z</time>
<desc>lat.=55.954712, lon.=26.463503, Alt.=103.919006m. Speed=13.176000m/h.</desc>
<speed>3.660000</speed>
</trkpt>
<trkpt lat="55.954678" lon="26.463551">
<ele>104.698303</ele>
<time>2010-08-29T17:11:41Z</time>
<desc>lat.=55.954678, lon.=26.463551, Alt.=104.698303m. Speed=15.336000m/h.</desc>
<speed>4.260000</speed>
</trkpt>
<trkpt lat="55.954636" lon="26.463594">
<ele>104.354553</ele>
<time>2010-08-29T17:11:42Z</time>
<desc>lat.=55.954636, lon.=26.463594, Alt.=104.354553m. Speed=16.884001m/h.</desc>
<speed>4.690000</speed>
</trkpt>
<trkpt lat="55.954594" lon="26.463640">
<ele>103.815491</ele>
<time>2010-08-29T17:11:43Z</time>
<desc>lat.=55.954594, lon.=26.463640, Alt.=103.815491m. Speed=16.236000m/h.</desc>
<speed>4.510000</speed>
</trkpt>
<trkpt lat="55.954559" lon="26.463684">
<ele>103.561584</ele>
<time>2010-08-29T17:11:44Z</time>
<desc>lat.=55.954559, lon.=26.463684, Alt.=103.561584m. Speed=15.948000m/h.</desc>
<speed>4.430000</speed>
</trkpt>
<trkpt lat="55.954502" lon="26.463751">
<ele>103.508850</ele>
<time>2010-08-29T17:11:45Z</time>
<desc>lat.=55.954502, lon.=26.463751, Alt.=103.508850m. Speed=18.323999m/h.</desc>
<speed>5.090000</speed>
</trkpt>
<trkpt lat="55.954449" lon="26.463806">
<ele>103.409241</ele>
<time>2010-08-29T17:11:46Z</time>
<desc>lat.=55.954449, lon.=26.463806, Alt.=103.409241m. Speed=17.568001m/h.</desc>
<speed>4.880000</speed>
</trkpt>
<trkpt lat="55.954407" lon="26.463875">
<ele>104.145569</ele>
<time>2010-08-29T17:11:47Z</time>
<desc>lat.=55.954407, lon.=26.463875, Alt.=104.145569m. Speed=16.164000m/h.</desc>
<speed>4.490000</speed>
</trkpt>
<trkpt lat="55.954369" lon="26.463917">
<ele>103.799866</ele>
<time>2010-08-29T17:11:48Z</time>
<desc>lat.=55.954369, lon.=26.463917, Alt.=103.799866m. Speed=15.876000m/h.</desc>
<speed>4.410000</speed>
</trkpt>
<trkpt lat="55.954323" lon="26.463966">
<ele>103.276428</ele>
<time>2010-08-29T17:11:49Z</time>
<desc>lat.=55.954323, lon.=26.463966, Alt.=103.276428m. Speed=15.444000m/h.</desc>
<speed>4.290000</speed>
</trkpt>
<trkpt lat="55.954288" lon="26.464008">
<ele>103.118225</ele>
<time>2010-08-29T17:11:50Z</time>
<desc>lat.=55.954288, lon.=26.464008, Alt.=103.118225m. Speed=13.104000m/h.</desc>
<speed>3.640000</speed>
</trkpt>
<trkpt lat="55.954254" lon="26.464037">
<ele>103.778381</ele>
<time>2010-08-29T17:11:51Z</time>
<desc>lat.=55.954254, lon.=26.464037, Alt.=103.778381m. Speed=13.068000m/h.</desc>
<speed>3.630000</speed>
</trkpt>
<trkpt lat="55.954201" lon="26.464066">
<ele>103.270569</ele>
<time>2010-08-29T17:11:52Z</time>
<desc>lat.=55.954201, lon.=26.464066, Alt.=103.270569m. Speed=14.220000m/h.</desc>
<speed>3.950000</speed>
</trkpt>
<trkpt lat="55.954163" lon="26.464102">
<ele>103.108459</ele>
<time>2010-08-29T17:11:53Z</time>
<desc>lat.=55.954163, lon.=26.464102, Alt.=103.108459m. Speed=13.752000m/h.</desc>
<speed>3.820000</speed>
</trkpt>
<trkpt lat="55.954128" lon="26.464142">
<ele>103.370178</ele>
<time>2010-08-29T17:11:54Z</time>
<desc>lat.=55.954128, lon.=26.464142, Alt.=103.370178m. Speed=13.644000m/h.</desc>
<speed>3.790000</speed>
</trkpt>
<trkpt lat="55.954094" lon="26.464176">
<ele>103.887756</ele>
<time>2010-08-29T17:11:55Z</time>
<desc>lat.=55.954094, lon.=26.464176, Alt.=103.887756m. Speed=13.536000m/h.</desc>
<speed>3.760000</speed>
</trkpt>
<trkpt lat="55.954044" lon="26.464218">
<ele>103.540100</ele>
<time>2010-08-29T17:11:56Z</time>
<desc>lat.=55.954044, lon.=26.464218, Alt.=103.540100m. Speed=16.704000m/h.</desc>
<speed>4.640000</speed>
</trkpt>
<trkpt lat="55.954006" lon="26.464252">
<ele>103.377991</ele>
<time>2010-08-29T17:11:57Z</time>
<desc>lat.=55.954006, lon.=26.464252, Alt.=103.377991m. Speed=17.856001m/h.</desc>
<speed>4.960000</speed>
</trkpt>
<trkpt lat="55.953953" lon="26.464308">
<ele>102.192444</ele>
<time>2010-08-29T17:11:58Z</time>
<desc>lat.=55.953953, lon.=26.464308, Alt.=102.192444m. Speed=15.480000m/h.</desc>
<speed>4.300000</speed>
</trkpt>
<trkpt lat="55.953911" lon="26.464352">
<ele>102.776428</ele>
<time>2010-08-29T17:11:59Z</time>
<desc>lat.=55.953911, lon.=26.464352, Alt.=102.776428m. Speed=13.392000m/h.</desc>
<speed>3.720000</speed>
</trkpt>
<trkpt lat="55.953873" lon="26.464407">
<ele>104.366272</ele>
<time>2010-08-29T17:12:00Z</time>
<desc>lat.=55.953873, lon.=26.464407, Alt.=104.366272m. Speed=14.184000m/h.</desc>
<speed>3.940000</speed>
</trkpt>
<trkpt lat="55.953819" lon="26.464476">
<ele>105.276428</ele>
<time>2010-08-29T17:12:01Z</time>
<desc>lat.=55.953819, lon.=26.464476, Alt.=105.276428m. Speed=16.559999m/h.</desc>
<speed>4.600000</speed>
</trkpt>
<trkpt lat="55.953766" lon="26.464514">
<ele>104.692444</ele>
<time>2010-08-29T17:12:02Z</time>
<desc>lat.=55.953766, lon.=26.464514, Alt.=104.692444m. Speed=15.876000m/h.</desc>
<speed>4.410000</speed>
</trkpt>
<trkpt lat="55.953732" lon="26.464540">
<ele>104.924866</ele>
<time>2010-08-29T17:12:03Z</time>
<desc>lat.=55.953732, lon.=26.464540, Alt.=104.924866m. Speed=11.700000m/h.</desc>
<speed>3.250000</speed>
</trkpt>
<trkpt lat="55.953686" lon="26.464569">
<ele>103.735413</ele>
<time>2010-08-29T17:12:04Z</time>
<desc>lat.=55.953686, lon.=26.464569, Alt.=103.735413m. Speed=14.976000m/h.</desc>
<speed>4.160000</speed>
</trkpt>
<trkpt lat="55.953655" lon="26.464598">
<ele>103.094788</ele>
<time>2010-08-29T17:12:05Z</time>
<desc>lat.=55.953655, lon.=26.464598, Alt.=103.094788m. Speed=10.152000m/h.</desc>
<speed>2.820000</speed>
</trkpt>
<trkpt lat="55.953617" lon="26.464640">
<ele>102.594788</ele>
<time>2010-08-29T17:12:06Z</time>
<desc>lat.=55.953617, lon.=26.464640, Alt.=102.594788m. Speed=11.448000m/h.</desc>
<speed>3.180000</speed>
</trkpt>
<trkpt lat="55.953590" lon="26.464672">
<ele>103.196350</ele>
<time>2010-08-29T17:12:07Z</time>
<desc>lat.=55.953590, lon.=26.464672, Alt.=103.196350m. Speed=10.404000m/h.</desc>
<speed>2.890000</speed>
</trkpt>
<trkpt lat="55.953556" lon="26.464720">
<ele>103.795959</ele>
<time>2010-08-29T17:12:08Z</time>
<desc>lat.=55.953556, lon.=26.464720, Alt.=103.795959m. Speed=10.512000m/h.</desc>
<speed>2.920000</speed>
</trkpt>
<trkpt lat="55.953529" lon="26.464750">
<ele>103.313538</ele>
<time>2010-08-29T17:12:09Z</time>
<desc>lat.=55.953529, lon.=26.464750, Alt.=103.313538m. Speed=10.296000m/h.</desc>
<speed>2.860000</speed>
</trkpt>
<trkpt lat="55.953503" lon="26.464790">
<ele>102.866272</ele>
<time>2010-08-29T17:12:10Z</time>
<desc>lat.=55.953503, lon.=26.464790, Alt.=102.866272m. Speed=11.016000m/h.</desc>
<speed>3.060000</speed>
</trkpt>
<trkpt lat="55.953465" lon="26.464830">
<ele>102.590881</ele>
<time>2010-08-29T17:12:11Z</time>
<desc>lat.=55.953465, lon.=26.464830, Alt.=102.590881m. Speed=13.716000m/h.</desc>
<speed>3.810000</speed>
</trkpt>
<trkpt lat="55.953430" lon="26.464863">
<ele>102.721741</ele>
<time>2010-08-29T17:12:12Z</time>
<desc>lat.=55.953430, lon.=26.464863, Alt.=102.721741m. Speed=12.096000m/h.</desc>
<speed>3.360000</speed>
</trkpt>
<trkpt lat="55.953392" lon="26.464888">
<ele>102.260803</ele>
<time>2010-08-29T17:12:13Z</time>
<desc>lat.=55.953392, lon.=26.464888, Alt.=102.260803m. Speed=11.916000m/h.</desc>
<speed>3.310000</speed>
</trkpt>
<trkpt lat="55.953350" lon="26.464930">
<ele>102.749084</ele>
<time>2010-08-29T17:12:14Z</time>
<desc>lat.=55.953350, lon.=26.464930, Alt.=102.749084m. Speed=12.852000m/h.</desc>
<speed>3.570000</speed>
</trkpt>
<trkpt lat="55.953320" lon="26.464952">
<ele>102.749084</ele>
<time>2010-08-29T17:12:15Z</time>
<desc>lat.=55.953320, lon.=26.464952, Alt.=102.749084m. Speed=11.160000m/h.</desc>
<speed>3.100000</speed>
</trkpt>
<trkpt lat="55.953289" lon="26.464981">
<ele>102.430725</ele>
<time>2010-08-29T17:12:16Z</time>
<desc>lat.=55.953289, lon.=26.464981, Alt.=102.430725m. Speed=12.024000m/h.</desc>
<speed>3.340000</speed>
</trkpt>
<trkpt lat="55.953255" lon="26.465006">
<ele>102.741272</ele>
<time>2010-08-29T17:12:17Z</time>
<desc>lat.=55.953255, lon.=26.465006, Alt.=102.741272m. Speed=11.592000m/h.</desc>
<speed>3.220000</speed>
</trkpt>
<trkpt lat="55.953220" lon="26.465023">
<ele>104.045959</ele>
<time>2010-08-29T17:12:18Z</time>
<desc>lat.=55.953220, lon.=26.465023, Alt.=104.045959m. Speed=12.312000m/h.</desc>
<speed>3.420000</speed>
</trkpt>
<trkpt lat="55.953182" lon="26.465050">
<ele>104.704163</ele>
<time>2010-08-29T17:12:19Z</time>
<desc>lat.=55.953182, lon.=26.465050, Alt.=104.704163m. Speed=13.608000m/h.</desc>
<speed>3.780000</speed>
</trkpt>
<trkpt lat="55.953136" lon="26.465086">
<ele>105.518616</ele>
<time>2010-08-29T17:12:20Z</time>
<desc>lat.=55.953136, lon.=26.465086, Alt.=105.518616m. Speed=15.300000m/h.</desc>
<speed>4.250000</speed>
</trkpt>
<trkpt lat="55.953098" lon="26.465126">
<ele>106.178772</ele>
<time>2010-08-29T17:12:21Z</time>
<desc>lat.=55.953098, lon.=26.465126, Alt.=106.178772m. Speed=14.112000m/h.</desc>
<speed>3.920000</speed>
</trkpt>
<trkpt lat="55.953068" lon="26.465157">
<ele>106.407288</ele>
<time>2010-08-29T17:12:22Z</time>
<desc>lat.=55.953068, lon.=26.465157, Alt.=106.407288m. Speed=17.856001m/h.</desc>
<speed>4.960000</speed>
</trkpt>
<trkpt lat="55.953007" lon="26.465219">
<ele>105.186584</ele>
<time>2010-08-29T17:12:23Z</time>
<desc>lat.=55.953007, lon.=26.465219, Alt.=105.186584m. Speed=18.252001m/h.</desc>
<speed>5.070000</speed>
</trkpt>
<trkpt lat="55.952957" lon="26.465273">
<ele>104.827209</ele>
<time>2010-08-29T17:12:24Z</time>
<desc>lat.=55.952957, lon.=26.465273, Alt.=104.827209m. Speed=17.604000m/h.</desc>
<speed>4.890000</speed>
</trkpt>
<trkpt lat="55.952919" lon="26.465321">
<ele>104.428772</ele>
<time>2010-08-29T17:12:25Z</time>
<desc>lat.=55.952919, lon.=26.465321, Alt.=104.428772m. Speed=15.804000m/h.</desc>
<speed>4.390000</speed>
</trkpt>
<trkpt lat="55.952881" lon="26.465368">
<ele>105.432678</ele>
<time>2010-08-29T17:12:26Z</time>
<desc>lat.=55.952881, lon.=26.465368, Alt.=105.432678m. Speed=14.760000m/h.</desc>
<speed>4.100000</speed>
</trkpt>
<trkpt lat="55.952839" lon="26.465414">
<ele>105.370178</ele>
<time>2010-08-29T17:12:27Z</time>
<desc>lat.=55.952839, lon.=26.465414, Alt.=105.370178m. Speed=16.812000m/h.</desc>
<speed>4.670000</speed>
</trkpt>
<trkpt lat="55.952789" lon="26.465462">
<ele>104.688538</ele>
<time>2010-08-29T17:12:28Z</time>
<desc>lat.=55.952789, lon.=26.465462, Alt.=104.688538m. Speed=16.704000m/h.</desc>
<speed>4.640000</speed>
</trkpt>
<trkpt lat="55.952747" lon="26.465506">
<ele>104.751038</ele>
<time>2010-08-29T17:12:29Z</time>
<desc>lat.=55.952747, lon.=26.465506, Alt.=104.751038m. Speed=15.552000m/h.</desc>
<speed>4.320000</speed>
</trkpt>
<trkpt lat="55.952702" lon="26.465553">
<ele>105.081116</ele>
<time>2010-08-29T17:12:30Z</time>
<desc>lat.=55.952702, lon.=26.465553, Alt.=105.081116m. Speed=15.984000m/h.</desc>
<speed>4.440000</speed>
</trkpt>
<trkpt lat="55.952652" lon="26.465599">
<ele>104.913147</ele>
<time>2010-08-29T17:12:31Z</time>
<desc>lat.=55.952652, lon.=26.465599, Alt.=104.913147m. Speed=17.568001m/h.</desc>
<speed>4.880000</speed>
</trkpt>
<trkpt lat="55.952595" lon="26.465630">
<ele>103.284241</ele>
<time>2010-08-29T17:12:32Z</time>
<desc>lat.=55.952595, lon.=26.465630, Alt.=103.284241m. Speed=17.424000m/h.</desc>
<speed>4.840000</speed>
</trkpt>
<trkpt lat="55.952545" lon="26.465673">
<ele>102.313538</ele>
<time>2010-08-29T17:12:33Z</time>
<desc>lat.=55.952545, lon.=26.465673, Alt.=102.313538m. Speed=16.308001m/h.</desc>
<speed>4.530000</speed>
</trkpt>
<trkpt lat="55.952499" lon="26.465721">
<ele>101.795959</ele>
<time>2010-08-29T17:12:34Z</time>
<desc>lat.=55.952499, lon.=26.465721, Alt.=101.795959m. Speed=15.372000m/h.</desc>
<speed>4.270000</speed>
</trkpt>
<trkpt lat="55.952454" lon="26.465769">
<ele>100.817444</ele>
<time>2010-08-29T17:12:35Z</time>
<desc>lat.=55.952454, lon.=26.465769, Alt.=100.817444m. Speed=15.840000m/h.</desc>
<speed>4.400000</speed>
</trkpt>
<trkpt lat="55.952404" lon="26.465799">
<ele>100.122131</ele>
<time>2010-08-29T17:12:36Z</time>
<desc>lat.=55.952404, lon.=26.465799, Alt.=100.122131m. Speed=16.920000m/h.</desc>
<speed>4.700000</speed>
</trkpt>
<trkpt lat="55.952362" lon="26.465836">
<ele>99.829163</ele>
<time>2010-08-29T17:12:37Z</time>
<desc>lat.=55.952362, lon.=26.465836, Alt.=99.829163m. Speed=15.840000m/h.</desc>
<speed>4.400000</speed>
</trkpt>
<trkpt lat="55.952316" lon="26.465879">
<ele>99.524475</ele>
<time>2010-08-29T17:12:38Z</time>
<desc>lat.=55.952316, lon.=26.465879, Alt.=99.524475m. Speed=18.504000m/h.</desc>
<speed>5.140000</speed>
</trkpt>
<trkpt lat="55.952267" lon="26.465919">
<ele>99.436584</ele>
<time>2010-08-29T17:12:39Z</time>
<desc>lat.=55.952267, lon.=26.465919, Alt.=99.436584m. Speed=19.476000m/h.</desc>
<speed>5.410000</speed>
</trkpt>
<trkpt lat="55.952206" lon="26.465939">
<ele>99.301819</ele>
<time>2010-08-29T17:12:40Z</time>
<desc>lat.=55.952206, lon.=26.465939, Alt.=99.301819m. Speed=19.980000m/h.</desc>
<speed>5.550000</speed>
</trkpt>
<trkpt lat="55.952156" lon="26.465975">
<ele>98.991272</ele>
<time>2010-08-29T17:12:41Z</time>
<desc>lat.=55.952156, lon.=26.465975, Alt.=98.991272m. Speed=18.972000m/h.</desc>
<speed>5.270000</speed>
</trkpt>
<trkpt lat="55.952099" lon="26.466032">
<ele>99.085022</ele>
<time>2010-08-29T17:12:42Z</time>
<desc>lat.=55.952099, lon.=26.466032, Alt.=99.085022m. Speed=21.167999m/h.</desc>
<speed>5.880000</speed>
</trkpt>
<trkpt lat="55.952042" lon="26.466066">
<ele>98.760803</ele>
<time>2010-08-29T17:12:43Z</time>
<desc>lat.=55.952042, lon.=26.466066, Alt.=98.760803m. Speed=20.628000m/h.</desc>
<speed>5.730000</speed>
</trkpt>
<trkpt lat="55.951992" lon="26.466105">
<ele>98.960022</ele>
<time>2010-08-29T17:12:44Z</time>
<desc>lat.=55.951992, lon.=26.466105, Alt.=98.960022m. Speed=19.584000m/h.</desc>
<speed>5.440000</speed>
</trkpt>
<trkpt lat="55.951935" lon="26.466152">
<ele>99.034241</ele>
<time>2010-08-29T17:12:45Z</time>
<desc>lat.=55.951935, lon.=26.466152, Alt.=99.034241m. Speed=22.068001m/h.</desc>
<speed>6.130000</speed>
</trkpt>
<trkpt lat="55.951881" lon="26.466192">
<ele>99.059631</ele>
<time>2010-08-29T17:12:46Z</time>
<desc>lat.=55.951881, lon.=26.466192, Alt.=99.059631m. Speed=20.195999m/h.</desc>
<speed>5.610000</speed>
</trkpt>
<trkpt lat="55.951839" lon="26.466227">
<ele>99.085022</ele>
<time>2010-08-29T17:12:47Z</time>
<desc>lat.=55.951839, lon.=26.466227, Alt.=99.085022m. Speed=18.468000m/h.</desc>
<speed>5.130000</speed>
</trkpt>
<trkpt lat="55.951794" lon="26.466261">
<ele>99.165100</ele>
<time>2010-08-29T17:12:48Z</time>
<desc>lat.=55.951794, lon.=26.466261, Alt.=99.165100m. Speed=14.868000m/h.</desc>
<speed>4.130000</speed>
</trkpt>
<trkpt lat="55.951756" lon="26.466297">
<ele>98.977600</ele>
<time>2010-08-29T17:12:49Z</time>
<desc>lat.=55.951756, lon.=26.466297, Alt.=98.977600m. Speed=17.208000m/h.</desc>
<speed>4.780000</speed>
</trkpt>
<trkpt lat="55.951710" lon="26.466333">
<ele>98.571350</ele>
<time>2010-08-29T17:12:50Z</time>
<desc>lat.=55.951710, lon.=26.466333, Alt.=98.571350m. Speed=15.732000m/h.</desc>
<speed>4.370000</speed>
</trkpt>
<trkpt lat="55.951672" lon="26.466373">
<ele>98.743225</ele>
<time>2010-08-29T17:12:51Z</time>
<desc>lat.=55.951672, lon.=26.466373, Alt.=98.743225m. Speed=16.056000m/h.</desc>
<speed>4.460000</speed>
</trkpt>
<trkpt lat="55.951626" lon="26.466417">
<ele>99.145569</ele>
<time>2010-08-29T17:12:52Z</time>
<desc>lat.=55.951626, lon.=26.466417, Alt.=99.145569m. Speed=20.232000m/h.</desc>
<speed>5.620000</speed>
</trkpt>
<trkpt lat="55.951576" lon="26.466461">
<ele>99.559631</ele>
<time>2010-08-29T17:12:53Z</time>
<desc>lat.=55.951576, lon.=26.466461, Alt.=99.559631m. Speed=18.431999m/h.</desc>
<speed>5.120000</speed>
</trkpt>
<trkpt lat="55.951530" lon="26.466499">
<ele>100.006897</ele>
<time>2010-08-29T17:12:54Z</time>
<desc>lat.=55.951530, lon.=26.466499, Alt.=100.006897m. Speed=19.224001m/h.</desc>
<speed>5.340000</speed>
</trkpt>
<trkpt lat="55.951477" lon="26.466537">
<ele>100.198303</ele>
<time>2010-08-29T17:12:55Z</time>
<desc>lat.=55.951477, lon.=26.466537, Alt.=100.198303m. Speed=22.284000m/h.</desc>
<speed>6.190000</speed>
</trkpt>
<trkpt lat="55.951420" lon="26.466576">
<ele>100.151428</ele>
<time>2010-08-29T17:12:56Z</time>
<desc>lat.=55.951420, lon.=26.466576, Alt.=100.151428m. Speed=22.716000m/h.</desc>
<speed>6.310000</speed>
</trkpt>
<trkpt lat="55.951366" lon="26.466612">
<ele>98.555725</ele>
<time>2010-08-29T17:12:57Z</time>
<desc>lat.=55.951366, lon.=26.466612, Alt.=98.555725m. Speed=20.628000m/h.</desc>
<speed>5.730000</speed>
</trkpt>
<trkpt lat="55.951317" lon="26.466654">
<ele>98.176819</ele>
<time>2010-08-29T17:12:58Z</time>
<desc>lat.=55.951317, lon.=26.466654, Alt.=98.176819m. Speed=19.691999m/h.</desc>
<speed>5.470000</speed>
</trkpt>
<trkpt lat="55.951260" lon="26.466696">
<ele>97.877991</ele>
<time>2010-08-29T17:12:59Z</time>
<desc>lat.=55.951260, lon.=26.466696, Alt.=97.877991m. Speed=19.260000m/h.</desc>
<speed>5.350000</speed>
</trkpt>
<trkpt lat="55.951210" lon="26.466732">
<ele>96.979553</ele>
<time>2010-08-29T17:13:00Z</time>
<desc>lat.=55.951210, lon.=26.466732, Alt.=96.979553m. Speed=17.856001m/h.</desc>
<speed>4.960000</speed>
</trkpt>
<trkpt lat="55.951168" lon="26.466763">
<ele>96.745178</ele>
<time>2010-08-29T17:13:01Z</time>
<desc>lat.=55.951168, lon.=26.466763, Alt.=96.745178m. Speed=16.704000m/h.</desc>
<speed>4.640000</speed>
</trkpt>
<trkpt lat="55.951126" lon="26.466806">
<ele>96.739319</ele>
<time>2010-08-29T17:13:02Z</time>
<desc>lat.=55.951126, lon.=26.466806, Alt.=96.739319m. Speed=17.927999m/h.</desc>
<speed>4.980000</speed>
</trkpt>
<trkpt lat="55.951080" lon="26.466839">
<ele>97.288147</ele>
<time>2010-08-29T17:13:03Z</time>
<desc>lat.=55.951080, lon.=26.466839, Alt.=97.288147m. Speed=17.604000m/h.</desc>
<speed>4.890000</speed>
</trkpt>
<trkpt lat="55.951023" lon="26.466877">
<ele>97.311584</ele>
<time>2010-08-29T17:13:04Z</time>
<desc>lat.=55.951023, lon.=26.466877, Alt.=97.311584m. Speed=18.719999m/h.</desc>
<speed>5.200000</speed>
</trkpt>
<trkpt lat="55.950970" lon="26.466915">
<ele>96.122131</ele>
<time>2010-08-29T17:13:05Z</time>
<desc>lat.=55.950970, lon.=26.466915, Alt.=96.122131m. Speed=17.496000m/h.</desc>
<speed>4.860000</speed>
</trkpt>
<trkpt lat="55.950932" lon="26.466942">
<ele>95.932678</ele>
<time>2010-08-29T17:13:06Z</time>
<desc>lat.=55.950932, lon.=26.466942, Alt.=95.932678m. Speed=13.500000m/h.</desc>
<speed>3.750000</speed>
</trkpt>
<trkpt lat="55.950901" lon="26.466961">
<ele>95.510803</ele>
<time>2010-08-29T17:13:07Z</time>
<desc>lat.=55.950901, lon.=26.466961, Alt.=95.510803m. Speed=12.132000m/h.</desc>
<speed>3.370000</speed>
</trkpt>
<trkpt lat="55.950859" lon="26.466984">
<ele>96.131897</ele>
<time>2010-08-29T17:13:08Z</time>
<desc>lat.=55.950859, lon.=26.466984, Alt.=96.131897m. Speed=16.632000m/h.</desc>
<speed>4.620000</speed>
</trkpt>
<trkpt lat="55.950813" lon="26.467005">
<ele>96.926819</ele>
<time>2010-08-29T17:13:09Z</time>
<desc>lat.=55.950813, lon.=26.467005, Alt.=96.926819m. Speed=16.271999m/h.</desc>
<speed>4.520000</speed>
</trkpt>
<trkpt lat="55.950768" lon="26.467041">
<ele>97.360413</ele>
<time>2010-08-29T17:13:10Z</time>
<desc>lat.=55.950768, lon.=26.467041, Alt.=97.360413m. Speed=15.624000m/h.</desc>
<speed>4.340000</speed>
</trkpt>
<trkpt lat="55.950714" lon="26.467070">
<ele>96.133850</ele>
<time>2010-08-29T17:13:11Z</time>
<desc>lat.=55.950714, lon.=26.467070, Alt.=96.133850m. Speed=15.516000m/h.</desc>
<speed>4.310000</speed>
</trkpt>
<trkpt lat="55.950676" lon="26.467094">
<ele>96.022522</ele>
<time>2010-08-29T17:13:12Z</time>
<desc>lat.=55.950676, lon.=26.467094, Alt.=96.022522m. Speed=14.652000m/h.</desc>
<speed>4.070000</speed>
</trkpt>
<trkpt lat="55.950630" lon="26.467112">
<ele>94.956116</ele>
<time>2010-08-29T17:13:13Z</time>
<desc>lat.=55.950630, lon.=26.467112, Alt.=94.956116m. Speed=13.788000m/h.</desc>
<speed>3.830000</speed>
</trkpt>
<trkpt lat="55.950588" lon="26.467148">
<ele>94.961975</ele>
<time>2010-08-29T17:13:14Z</time>
<desc>lat.=55.950588, lon.=26.467148, Alt.=94.961975m. Speed=11.736000m/h.</desc>
<speed>3.260000</speed>
</trkpt>
<trkpt lat="55.950550" lon="26.467182">
<ele>94.233459</ele>
<time>2010-08-29T17:13:15Z</time>
<desc>lat.=55.950550, lon.=26.467182, Alt.=94.233459m. Speed=12.528000m/h.</desc>
<speed>3.480000</speed>
</trkpt>
<trkpt lat="55.950512" lon="26.467211">
<ele>93.934631</ele>
<time>2010-08-29T17:13:16Z</time>
<desc>lat.=55.950512, lon.=26.467211, Alt.=93.934631m. Speed=12.240000m/h.</desc>
<speed>3.400000</speed>
</trkpt>
<trkpt lat="55.950485" lon="26.467237">
<ele>94.368225</ele>
<time>2010-08-29T17:13:17Z</time>
<desc>lat.=55.950485, lon.=26.467237, Alt.=94.368225m. Speed=10.728000m/h.</desc>
<speed>2.980000</speed>
</trkpt>
<trkpt lat="55.950451" lon="26.467281">
<ele>94.118225</ele>
<time>2010-08-29T17:13:18Z</time>
<desc>lat.=55.950451, lon.=26.467281, Alt.=94.118225m. Speed=14.544000m/h.</desc>
<speed>4.040000</speed>
</trkpt>
<trkpt lat="55.950409" lon="26.467329">
<ele>94.086975</ele>
<time>2010-08-29T17:13:19Z</time>
<desc>lat.=55.950409, lon.=26.467329, Alt.=94.086975m. Speed=14.436000m/h.</desc>
<speed>4.010000</speed>
</trkpt>
<trkpt lat="55.950359" lon="26.467360">
<ele>94.510803</ele>
<time>2010-08-29T17:13:20Z</time>
<desc>lat.=55.950359, lon.=26.467360, Alt.=94.510803m. Speed=15.048000m/h.</desc>
<speed>4.180000</speed>
</trkpt>
<trkpt lat="55.950317" lon="26.467379">
<ele>94.772522</ele>
<time>2010-08-29T17:13:21Z</time>
<desc>lat.=55.950317, lon.=26.467379, Alt.=94.772522m. Speed=14.436000m/h.</desc>
<speed>4.010000</speed>
</trkpt>
<trkpt lat="55.950268" lon="26.467409">
<ele>95.262756</ele>
<time>2010-08-29T17:13:22Z</time>
<desc>lat.=55.950268, lon.=26.467409, Alt.=95.262756m. Speed=15.624000m/h.</desc>
<speed>4.340000</speed>
</trkpt>
<trkpt lat="55.950222" lon="26.467447">
<ele>95.995178</ele>
<time>2010-08-29T17:13:23Z</time>
<desc>lat.=55.950222, lon.=26.467447, Alt.=95.995178m. Speed=16.559999m/h.</desc>
<speed>4.600000</speed>
</trkpt>
<trkpt lat="55.950153" lon="26.467463">
<ele>94.352600</ele>
<time>2010-08-29T17:13:24Z</time>
<desc>lat.=55.950153, lon.=26.467463, Alt.=94.352600m. Speed=17.063999m/h.</desc>
<speed>4.740000</speed>
</trkpt>
<trkpt lat="55.950092" lon="26.467503">
<ele>94.221741</ele>
<time>2010-08-29T17:13:25Z</time>
<desc>lat.=55.950092, lon.=26.467503, Alt.=94.221741m. Speed=18.180000m/h.</desc>
<speed>5.050000</speed>
</trkpt>
<trkpt lat="55.950024" lon="26.467556">
<ele>95.848694</ele>
<time>2010-08-29T17:13:26Z</time>
<desc>lat.=55.950024, lon.=26.467556, Alt.=95.848694m. Speed=19.799999m/h.</desc>
<speed>5.500000</speed>
</trkpt>
<trkpt lat="55.949970" lon="26.467596">
<ele>96.335022</ele>
<time>2010-08-29T17:13:27Z</time>
<desc>lat.=55.949970, lon.=26.467596, Alt.=96.335022m. Speed=17.028000m/h.</desc>
<speed>4.730000</speed>
</trkpt>
<trkpt lat="55.949921" lon="26.467636">
<ele>96.530334</ele>
<time>2010-08-29T17:13:28Z</time>
<desc>lat.=55.949921, lon.=26.467636, Alt.=96.530334m. Speed=18.936001m/h.</desc>
<speed>5.260000</speed>
</trkpt>
<trkpt lat="55.949875" lon="26.467672">
<ele>97.266663</ele>
<time>2010-08-29T17:13:29Z</time>
<desc>lat.=55.949875, lon.=26.467672, Alt.=97.266663m. Speed=15.804000m/h.</desc>
<speed>4.390000</speed>
</trkpt>
<trkpt lat="55.949833" lon="26.467707">
<ele>97.827209</ele>
<time>2010-08-29T17:13:30Z</time>
<desc>lat.=55.949833, lon.=26.467707, Alt.=97.827209m. Speed=16.667999m/h.</desc>
<speed>4.630000</speed>
</trkpt>
<trkpt lat="55.949791" lon="26.467737">
<ele>96.944397</ele>
<time>2010-08-29T17:13:31Z</time>
<desc>lat.=55.949791, lon.=26.467737, Alt.=96.944397m. Speed=13.572000m/h.</desc>
<speed>3.770000</speed>
</trkpt>
<trkpt lat="55.949757" lon="26.467762">
<ele>96.702209</ele>
<time>2010-08-29T17:13:32Z</time>
<desc>lat.=55.949757, lon.=26.467762, Alt.=96.702209m. Speed=13.536000m/h.</desc>
<speed>3.760000</speed>
</trkpt>
<trkpt lat="55.949711" lon="26.467806">
<ele>96.374084</ele>
<time>2010-08-29T17:13:33Z</time>
<desc>lat.=55.949711, lon.=26.467806, Alt.=96.374084m. Speed=16.056000m/h.</desc>
<speed>4.460000</speed>
</trkpt>
<trkpt lat="55.949654" lon="26.467846">
<ele>96.083069</ele>
<time>2010-08-29T17:13:34Z</time>
<desc>lat.=55.949654, lon.=26.467846, Alt.=96.083069m. Speed=17.712000m/h.</desc>
<speed>4.920000</speed>
</trkpt>
<trkpt lat="55.949596" lon="26.467882">
<ele>94.934631</ele>
<time>2010-08-29T17:13:35Z</time>
<desc>lat.=55.949596, lon.=26.467882, Alt.=94.934631m. Speed=18.936001m/h.</desc>
<speed>5.260000</speed>
</trkpt>
<trkpt lat="55.949539" lon="26.467911">
<ele>94.674866</ele>
<time>2010-08-29T17:13:36Z</time>
<desc>lat.=55.949539, lon.=26.467911, Alt.=94.674866m. Speed=18.827999m/h.</desc>
<speed>5.230000</speed>
</trkpt>
<trkpt lat="55.949486" lon="26.467951">
<ele>94.786194</ele>
<time>2010-08-29T17:13:37Z</time>
<desc>lat.=55.949486, lon.=26.467951, Alt.=94.786194m. Speed=19.548000m/h.</desc>
<speed>5.430000</speed>
</trkpt>
<trkpt lat="55.949432" lon="26.467995">
<ele>95.965881</ele>
<time>2010-08-29T17:13:38Z</time>
<desc>lat.=55.949432, lon.=26.467995, Alt.=95.965881m. Speed=18.648001m/h.</desc>
<speed>5.180000</speed>
</trkpt>
<trkpt lat="55.949390" lon="26.468042">
<ele>96.958069</ele>
<time>2010-08-29T17:13:39Z</time>
<desc>lat.=55.949390, lon.=26.468042, Alt.=96.958069m. Speed=18.180000m/h.</desc>
<speed>5.050000</speed>
</trkpt>
<trkpt lat="55.949337" lon="26.468069">
<ele>97.600647</ele>
<time>2010-08-29T17:13:40Z</time>
<desc>lat.=55.949337, lon.=26.468069, Alt.=97.600647m. Speed=17.892000m/h.</desc>
<speed>4.970000</speed>
</trkpt>
<trkpt lat="55.949295" lon="26.468100">
<ele>97.958069</ele>
<time>2010-08-29T17:13:41Z</time>
<desc>lat.=55.949295, lon.=26.468100, Alt.=97.958069m. Speed=17.172001m/h.</desc>
<speed>4.770000</speed>
</trkpt>
<trkpt lat="55.949249" lon="26.468134">
<ele>98.522522</ele>
<time>2010-08-29T17:13:42Z</time>
<desc>lat.=55.949249, lon.=26.468134, Alt.=98.522522m. Speed=17.712000m/h.</desc>
<speed>4.920000</speed>
</trkpt>
<trkpt lat="55.949203" lon="26.468164">
<ele>98.667053</ele>
<time>2010-08-29T17:13:43Z</time>
<desc>lat.=55.949203, lon.=26.468164, Alt.=98.667053m. Speed=16.632000m/h.</desc>
<speed>4.620000</speed>
</trkpt>
<trkpt lat="55.949158" lon="26.468197">
<ele>99.473694</ele>
<time>2010-08-29T17:13:44Z</time>
<desc>lat.=55.949158, lon.=26.468197, Alt.=99.473694m. Speed=16.056000m/h.</desc>
<speed>4.460000</speed>
</trkpt>
<trkpt lat="55.949104" lon="26.468212">
<ele>100.133850</ele>
<time>2010-08-29T17:13:45Z</time>
<desc>lat.=55.949104, lon.=26.468212, Alt.=100.133850m. Speed=16.920000m/h.</desc>
<speed>4.700000</speed>
</trkpt>
<trkpt lat="55.949055" lon="26.468237">
<ele>101.786194</ele>
<time>2010-08-29T17:13:46Z</time>
<desc>lat.=55.949055, lon.=26.468237, Alt.=101.786194m. Speed=16.775999m/h.</desc>
<speed>4.660000</speed>
</trkpt>
<trkpt lat="55.949009" lon="26.468273">
<ele>101.530334</ele>
<time>2010-08-29T17:13:47Z</time>
<desc>lat.=55.949009, lon.=26.468273, Alt.=101.530334m. Speed=17.243999m/h.</desc>
<speed>4.790000</speed>
</trkpt>
<trkpt lat="55.948963" lon="26.468302">
<ele>100.995178</ele>
<time>2010-08-29T17:13:48Z</time>
<desc>lat.=55.948963, lon.=26.468302, Alt.=100.995178m. Speed=15.192000m/h.</desc>
<speed>4.220000</speed>
</trkpt>
<trkpt lat="55.948925" lon="26.468328">
<ele>101.288147</ele>
<time>2010-08-29T17:13:49Z</time>
<desc>lat.=55.948925, lon.=26.468328, Alt.=101.288147m. Speed=14.904000m/h.</desc>
<speed>4.140000</speed>
</trkpt>
<trkpt lat="55.948879" lon="26.468357">
<ele>100.942444</ele>
<time>2010-08-29T17:13:50Z</time>
<desc>lat.=55.948879, lon.=26.468357, Alt.=100.942444m. Speed=14.436000m/h.</desc>
<speed>4.010000</speed>
</trkpt>
<trkpt lat="55.948837" lon="26.468384">
<ele>100.989319</ele>
<time>2010-08-29T17:13:51Z</time>
<desc>lat.=55.948837, lon.=26.468384, Alt.=100.989319m. Speed=13.248000m/h.</desc>
<speed>3.680000</speed>
</trkpt>
<trkpt lat="55.948795" lon="26.468393">
<ele>101.124084</ele>
<time>2010-08-29T17:13:52Z</time>
<desc>lat.=55.948795, lon.=26.468393, Alt.=101.124084m. Speed=11.124000m/h.</desc>
<speed>3.090000</speed>
</trkpt>
<trkpt lat="55.948742" lon="26.468399">
<ele>99.733459</ele>
<time>2010-08-29T17:13:53Z</time>
<desc>lat.=55.948742, lon.=26.468399, Alt.=99.733459m. Speed=13.392000m/h.</desc>
<speed>3.720000</speed>
</trkpt>
<trkpt lat="55.948704" lon="26.468418">
<ele>99.379944</ele>
<time>2010-08-29T17:13:54Z</time>
<desc>lat.=55.948704, lon.=26.468418, Alt.=99.379944m. Speed=12.888000m/h.</desc>
<speed>3.580000</speed>
</trkpt>
<trkpt lat="55.948666" lon="26.468435">
<ele>99.034241</ele>
<time>2010-08-29T17:13:55Z</time>
<desc>lat.=55.948666, lon.=26.468435, Alt.=99.034241m. Speed=13.752000m/h.</desc>
<speed>3.820000</speed>
</trkpt>
<trkpt lat="55.948627" lon="26.468460">
<ele>99.321350</ele>
<time>2010-08-29T17:13:56Z</time>
<desc>lat.=55.948627, lon.=26.468460, Alt.=99.321350m. Speed=13.140000m/h.</desc>
<speed>3.650000</speed>
</trkpt>
<trkpt lat="55.948589" lon="26.468481">
<ele>99.586975</ele>
<time>2010-08-29T17:13:57Z</time>
<desc>lat.=55.948589, lon.=26.468481, Alt.=99.586975m. Speed=12.168000m/h.</desc>
<speed>3.380000</speed>
</trkpt>
<trkpt lat="55.948559" lon="26.468498">
<ele>100.694397</ele>
<time>2010-08-29T17:13:58Z</time>
<desc>lat.=55.948559, lon.=26.468498, Alt.=100.694397m. Speed=10.764000m/h.</desc>
<speed>2.990000</speed>
</trkpt>
<trkpt lat="55.948521" lon="26.468513">
<ele>100.917053</ele>
<time>2010-08-29T17:13:59Z</time>
<desc>lat.=55.948521, lon.=26.468513, Alt.=100.917053m. Speed=12.384000m/h.</desc>
<speed>3.440000</speed>
</trkpt>
<trkpt lat="55.948483" lon="26.468527">
<ele>100.497131</ele>
<time>2010-08-29T17:14:00Z</time>
<desc>lat.=55.948483, lon.=26.468527, Alt.=100.497131m. Speed=11.232000m/h.</desc>
<speed>3.120000</speed>
</trkpt>
<trkpt lat="55.948444" lon="26.468529">
<ele>98.520569</ele>
<time>2010-08-29T17:14:01Z</time>
<desc>lat.=55.948444, lon.=26.468529, Alt.=98.520569m. Speed=10.080000m/h.</desc>
<speed>2.800000</speed>
</trkpt>
<trkpt lat="55.948418" lon="26.468529">
<ele>98.907288</ele>
<time>2010-08-29T17:14:02Z</time>
<desc>lat.=55.948418, lon.=26.468529, Alt.=98.907288m. Speed=7.056000m/h.</desc>
<speed>1.960000</speed>
</trkpt>
<trkpt lat="55.948395" lon="26.468523">
<ele>98.512756</ele>
<time>2010-08-29T17:14:03Z</time>
<desc>lat.=55.948395, lon.=26.468523, Alt.=98.512756m. Speed=5.436000m/h.</desc>
<speed>1.510000</speed>
</trkpt>
<trkpt lat="55.948383" lon="26.468529">
<ele>98.340881</ele>
<time>2010-08-29T17:14:04Z</time>
<desc>lat.=55.948383, lon.=26.468529, Alt.=98.340881m. Speed=2.232000m/h.</desc>
<speed>0.620000</speed>
</trkpt>
<trkpt lat="55.948380" lon="26.468536">
<ele>98.911194</ele>
<time>2010-08-29T17:14:05Z</time>
<desc>lat.=55.948380, lon.=26.468536, Alt.=98.911194m. Speed=0.612000m/h.</desc>
<speed>0.170000</speed>
</trkpt>
<trkpt lat="55.948380" lon="26.468538">
<ele>99.034241</ele>
<time>2010-08-29T17:14:06Z</time>
<desc>lat.=55.948380, lon.=26.468538, Alt.=99.034241m. Speed=0.288000m/h.</desc>
<speed>0.080000</speed>
</trkpt>
<trkpt lat="55.948372" lon="26.468548">
<ele>99.842834</ele>
<time>2010-08-29T17:14:07Z</time>
<desc>lat.=55.948372, lon.=26.468548, Alt.=99.842834m. Speed=0.216000m/h.</desc>
<speed>0.060000</speed>
</trkpt>
<trkpt lat="55.948372" lon="26.468548">
<ele>99.827209</ele>
<time>2010-08-29T17:14:08Z</time>
<desc>lat.=55.948372, lon.=26.468548, Alt.=99.827209m. Speed=0.252000m/h.</desc>
<speed>0.070000</speed>
</trkpt>
<trkpt lat="55.948372" lon="26.468550">
<ele>99.823303</ele>
<time>2010-08-29T17:14:09Z</time>
<desc>lat.=55.948372, lon.=26.468550, Alt.=99.823303m. Speed=1.008000m/h.</desc>
<speed>0.280000</speed>
</trkpt>
<trkpt lat="55.948372" lon="26.468552">
<ele>99.825256</ele>
<time>2010-08-29T17:14:10Z</time>
<desc>lat.=55.948372, lon.=26.468552, Alt.=99.825256m. Speed=0.108000m/h.</desc>
<speed>0.030000</speed>
</trkpt>
<trkpt lat="55.948372" lon="26.468552">
<ele>99.803772</ele>
<time>2010-08-29T17:14:11Z</time>
<desc>lat.=55.948372, lon.=26.468552, Alt.=99.803772m. Speed=0.360000m/h.</desc>
<speed>0.100000</speed>
</trkpt>
<trkpt lat="55.948372" lon="26.468550">
<ele>99.805725</ele>
<time>2010-08-29T17:14:12Z</time>
<desc>lat.=55.948372, lon.=26.468550, Alt.=99.805725m. Speed=0.360000m/h.</desc>
<speed>0.100000</speed>
</trkpt>
<trkpt lat="55.948372" lon="26.468550">
<ele>99.813538</ele>
<time>2010-08-29T17:14:13Z</time>
<desc>lat.=55.948372, lon.=26.468550, Alt.=99.813538m. Speed=0.432000m/h.</desc>
<speed>0.120000</speed>
</trkpt>
<trkpt lat="55.948372" lon="26.468548">
<ele>99.811584</ele>
<time>2010-08-29T17:14:14Z</time>
<desc>lat.=55.948372, lon.=26.468548, Alt.=99.811584m. Speed=0.360000m/h.</desc>
<speed>0.100000</speed>
</trkpt>
<trkpt lat="55.948372" lon="26.468546">
<ele>99.819397</ele>
<time>2010-08-29T17:14:15Z</time>
<desc>lat.=55.948372, lon.=26.468546, Alt.=99.819397m. Speed=0.180000m/h.</desc>
<speed>0.050000</speed>
</trkpt>
<trkpt lat="55.948372" lon="26.468548">
<ele>99.809631</ele>
<time>2010-08-29T17:14:16Z</time>
<desc>lat.=55.948372, lon.=26.468548, Alt.=99.809631m. Speed=0.144000m/h.</desc>
<speed>0.040000</speed>
</trkpt>
<trkpt lat="55.948372" lon="26.468548">
<ele>99.799866</ele>
<time>2010-08-29T17:14:17Z</time>
<desc>lat.=55.948372, lon.=26.468548, Alt.=99.799866m. Speed=0.072000m/h.</desc>
<speed>0.020000</speed>
</trkpt>
<trkpt lat="55.948372" lon="26.468548">
<ele>99.790100</ele>
<time>2010-08-29T17:14:18Z</time>
<desc>lat.=55.948372, lon.=26.468548, Alt.=99.790100m. Speed=0.036000m/h.</desc>
<speed>0.010000</speed>
</trkpt>
<trkpt lat="55.948372" lon="26.468548">
<ele>99.776428</ele>
<time>2010-08-29T17:14:19Z</time>
<desc>lat.=55.948372, lon.=26.468548, Alt.=99.776428m. Speed=0.108000m/h.</desc>
<speed>0.030000</speed>
</trkpt>
<trkpt lat="55.948372" lon="26.468548">
<ele>99.770569</ele>
<time>2010-08-29T17:14:20Z</time>
<desc>lat.=55.948372, lon.=26.468548, Alt.=99.770569m. Speed=0.108000m/h.</desc>
<speed>0.030000</speed>
</trkpt>
<trkpt lat="55.948372" lon="26.468548">
<ele>99.762756</ele>
<time>2010-08-29T17:14:21Z</time>
<desc>lat.=55.948372, lon.=26.468548, Alt.=99.762756m. Speed=0.108000m/h.</desc>
<speed>0.030000</speed>
</trkpt>
<trkpt lat="55.948372" lon="26.468548">
<ele>99.764709</ele>
<time>2010-08-29T17:14:22Z</time>
<desc>lat.=55.948372, lon.=26.468548, Alt.=99.764709m. Speed=0.072000m/h.</desc>
<speed>0.020000</speed>
</trkpt>
<trkpt lat="55.948372" lon="26.468548">
<ele>99.756897</ele>
<time>2010-08-29T17:14:23Z</time>
<desc>lat.=55.948372, lon.=26.468548, Alt.=99.756897m. Speed=0.036000m/h.</desc>
<speed>0.010000</speed>
</trkpt>
<trkpt lat="55.948372" lon="26.468548">
<ele>99.747131</ele>
<time>2010-08-29T17:14:24Z</time>
<desc>lat.=55.948372, lon.=26.468548, Alt.=99.747131m. Speed=0.252000m/h.</desc>
<speed>0.070000</speed>
</trkpt>
<trkpt lat="55.948372" lon="26.468550">
<ele>99.747131</ele>
<time>2010-08-29T17:14:25Z</time>
<desc>lat.=55.948372, lon.=26.468550, Alt.=99.747131m. Speed=0.036000m/h.</desc>
<speed>0.010000</speed>
</trkpt>
<trkpt lat="55.948372" lon="26.468548">
<ele>99.741272</ele>
<time>2010-08-29T17:14:26Z</time>
<desc>lat.=55.948372, lon.=26.468548, Alt.=99.741272m. Speed=0.324000m/h.</desc>
<speed>0.090000</speed>
</trkpt>
<trkpt lat="55.948372" lon="26.468548">
<ele>99.751038</ele>
<time>2010-08-29T17:14:27Z</time>
<desc>lat.=55.948372, lon.=26.468548, Alt.=99.751038m. Speed=0.180000m/h.</desc>
<speed>0.050000</speed>
</trkpt>
<trkpt lat="55.948372" lon="26.468548">
<ele>99.760803</ele>
<time>2010-08-29T17:14:28Z</time>
<desc>lat.=55.948372, lon.=26.468548, Alt.=99.760803m. Speed=0.216000m/h.</desc>
<speed>0.060000</speed>
</trkpt>
<trkpt lat="55.948372" lon="26.468548">
<ele>99.778381</ele>
<time>2010-08-29T17:14:29Z</time>
<desc>lat.=55.948372, lon.=26.468548, Alt.=99.778381m. Speed=0.108000m/h.</desc>
<speed>0.030000</speed>
</trkpt>
<trkpt lat="55.948372" lon="26.468548">
<ele>99.790100</ele>
<time>2010-08-29T17:14:30Z</time>
<desc>lat.=55.948372, lon.=26.468548, Alt.=99.790100m. Speed=0.072000m/h.</desc>
<speed>0.020000</speed>
</trkpt>
<trkpt lat="55.948372" lon="26.468548">
<ele>99.803772</ele>
<time>2010-08-29T17:14:31Z</time>
<desc>lat.=55.948372, lon.=26.468548, Alt.=99.803772m. Speed=0.036000m/h.</desc>
<speed>0.010000</speed>
</trkpt>
<trkpt lat="55.948372" lon="26.468548">
<ele>99.821350</ele>
<time>2010-08-29T17:14:32Z</time>
<desc>lat.=55.948372, lon.=26.468548, Alt.=99.821350m. Speed=0.180000m/h.</desc>
<speed>0.050000</speed>
</trkpt>
<trkpt lat="55.948372" lon="26.468548">
<ele>99.838928</ele>
<time>2010-08-29T17:14:33Z</time>
<desc>lat.=55.948372, lon.=26.468548, Alt.=99.838928m. Speed=0.144000m/h.</desc>
<speed>0.040000</speed>
</trkpt>
<trkpt lat="55.948372" lon="26.468548">
<ele>99.862366</ele>
<time>2010-08-29T17:14:34Z</time>
<desc>lat.=55.948372, lon.=26.468548, Alt.=99.862366m. Speed=0.036000m/h.</desc>
<speed>0.010000</speed>
</trkpt>
<trkpt lat="55.948372" lon="26.468548">
<ele>99.877991</ele>
<time>2010-08-29T17:14:35Z</time>
<desc>lat.=55.948372, lon.=26.468548, Alt.=99.877991m. Speed=0.252000m/h.</desc>
<speed>0.070000</speed>
</trkpt>
<trkpt lat="55.948372" lon="26.468548">
<ele>99.895569</ele>
<time>2010-08-29T17:14:36Z</time>
<desc>lat.=55.948372, lon.=26.468548, Alt.=99.895569m. Speed=0.108000m/h.</desc>
<speed>0.030000</speed>
</trkpt>
<trkpt lat="55.948372" lon="26.468548">
<ele>99.920959</ele>
<time>2010-08-29T17:14:37Z</time>
<desc>lat.=55.948372, lon.=26.468548, Alt.=99.920959m. Speed=0.432000m/h.</desc>
<speed>0.120000</speed>
</trkpt>
<trkpt lat="55.948372" lon="26.468546">
<ele>99.940491</ele>
<time>2010-08-29T17:14:38Z</time>
<desc>lat.=55.948372, lon.=26.468546, Alt.=99.940491m. Speed=0.000000m/h.</desc>
<speed>0.000000</speed>
</trkpt>
<trkpt lat="55.948372" lon="26.468546">
<ele>99.960022</ele>
<time>2010-08-29T17:14:39Z</time>
<desc>lat.=55.948372, lon.=26.468546, Alt.=99.960022m. Speed=0.036000m/h.</desc>
<speed>0.010000</speed>
</trkpt>
<trkpt lat="55.948372" lon="26.468546">
<ele>99.983459</ele>
<time>2010-08-29T17:14:40Z</time>
<desc>lat.=55.948372, lon.=26.468546, Alt.=99.983459m. Speed=0.000000m/h.</desc>
<speed>0.000000</speed>
</trkpt>
<trkpt lat="55.948372" lon="26.468546">
<ele>99.987366</ele>
<time>2010-08-29T17:14:41Z</time>
<desc>lat.=55.948372, lon.=26.468546, Alt.=99.987366m. Speed=0.072000m/h.</desc>
<speed>0.020000</speed>
</trkpt>
<trkpt lat="55.948372" lon="26.468546">
<ele>99.987366</ele>
<time>2010-08-29T17:14:42Z</time>
<desc>lat.=55.948372, lon.=26.468546, Alt.=99.987366m. Speed=0.072000m/h.</desc>
<speed>0.020000</speed>
</trkpt>
<trkpt lat="55.948372" lon="26.468546">
<ele>99.985413</ele>
<time>2010-08-29T17:14:43Z</time>
<desc>lat.=55.948372, lon.=26.468546, Alt.=99.985413m. Speed=0.072000m/h.</desc>
<speed>0.020000</speed>
</trkpt>
<trkpt lat="55.948372" lon="26.468546">
<ele>99.983459</ele>
<time>2010-08-29T17:14:44Z</time>
<desc>lat.=55.948372, lon.=26.468546, Alt.=99.983459m. Speed=0.108000m/h.</desc>
<speed>0.030000</speed>
</trkpt>
<trkpt lat="55.948372" lon="26.468546">
<ele>99.981506</ele>
<time>2010-08-29T17:14:45Z</time>
<desc>lat.=55.948372, lon.=26.468546, Alt.=99.981506m. Speed=0.144000m/h.</desc>
<speed>0.040000</speed>
</trkpt>
<trkpt lat="55.948372" lon="26.468546">
<ele>99.983459</ele>
<time>2010-08-29T17:14:46Z</time>
<desc>lat.=55.948372, lon.=26.468546, Alt.=99.983459m. Speed=0.072000m/h.</desc>
<speed>0.020000</speed>
</trkpt>
<trkpt lat="55.948372" lon="26.468546">
<ele>99.981506</ele>
<time>2010-08-29T17:14:47Z</time>
<desc>lat.=55.948372, lon.=26.468546, Alt.=99.981506m. Speed=0.072000m/h.</desc>
<speed>0.020000</speed>
</trkpt>
<trkpt lat="55.948372" lon="26.468546">
<ele>99.983459</ele>
<time>2010-08-29T17:14:48Z</time>
<desc>lat.=55.948372, lon.=26.468546, Alt.=99.983459m. Speed=0.144000m/h.</desc>
<speed>0.040000</speed>
</trkpt>
<trkpt lat="55.948372" lon="26.468546">
<ele>99.989319</ele>
<time>2010-08-29T17:14:49Z</time>
<desc>lat.=55.948372, lon.=26.468546, Alt.=99.989319m. Speed=0.036000m/h.</desc>
<speed>0.010000</speed>
</trkpt>
<trkpt lat="55.948372" lon="26.468546">
<ele>99.995178</ele>
<time>2010-08-29T17:14:50Z</time>
<desc>lat.=55.948372, lon.=26.468546, Alt.=99.995178m. Speed=0.180000m/h.</desc>
<speed>0.050000</speed>
</trkpt>
<trkpt lat="55.948372" lon="26.468546">
<ele>99.999084</ele>
<time>2010-08-29T17:14:51Z</time>
<desc>lat.=55.948372, lon.=26.468546, Alt.=99.999084m. Speed=0.108000m/h.</desc>
<speed>0.030000</speed>
</trkpt>
<trkpt lat="55.948372" lon="26.468546">
<ele>99.999084</ele>
<time>2010-08-29T17:14:52Z</time>
<desc>lat.=55.948372, lon.=26.468546, Alt.=99.999084m. Speed=0.144000m/h.</desc>
<speed>0.040000</speed>
</trkpt>
<trkpt lat="55.948372" lon="26.468546">
<ele>99.997131</ele>
<time>2010-08-29T17:14:53Z</time>
<desc>lat.=55.948372, lon.=26.468546, Alt.=99.997131m. Speed=0.180000m/h.</desc>
<speed>0.050000</speed>
</trkpt>
<trkpt lat="55.948372" lon="26.468546">
<ele>99.995178</ele>
<time>2010-08-29T17:14:54Z</time>
<desc>lat.=55.948372, lon.=26.468546, Alt.=99.995178m. Speed=0.072000m/h.</desc>
<speed>0.020000</speed>
</trkpt>
<trkpt lat="55.948372" lon="26.468546">
<ele>100.008850</ele>
<time>2010-08-29T17:14:55Z</time>
<desc>lat.=55.948372, lon.=26.468546, Alt.=100.008850m. Speed=0.108000m/h.</desc>
<speed>0.030000</speed>
</trkpt>
<trkpt lat="55.948372" lon="26.468546">
<ele>100.016663</ele>
<time>2010-08-29T17:14:56Z</time>
<desc>lat.=55.948372, lon.=26.468546, Alt.=100.016663m. Speed=0.036000m/h.</desc>
<speed>0.010000</speed>
</trkpt>
<trkpt lat="55.948372" lon="26.468546">
<ele>100.022522</ele>
<time>2010-08-29T17:14:57Z</time>
<desc>lat.=55.948372, lon.=26.468546, Alt.=100.022522m. Speed=0.144000m/h.</desc>
<speed>0.040000</speed>
</trkpt>
<trkpt lat="55.948372" lon="26.468546">
<ele>100.024475</ele>
<time>2010-08-29T17:14:58Z</time>
<desc>lat.=55.948372, lon.=26.468546, Alt.=100.024475m. Speed=0.000000m/h.</desc>
<speed>0.000000</speed>
</trkpt>
<trkpt lat="55.948372" lon="26.468546">
<ele>100.026428</ele>
<time>2010-08-29T17:14:59Z</time>
<desc>lat.=55.948372, lon.=26.468546, Alt.=100.026428m. Speed=0.144000m/h.</desc>
<speed>0.040000</speed>
</trkpt>
<trkpt lat="55.948372" lon="26.468546">
<ele>100.038147</ele>
<time>2010-08-29T17:15:00Z</time>
<desc>lat.=55.948372, lon.=26.468546, Alt.=100.038147m. Speed=0.036000m/h.</desc>
<speed>0.010000</speed>
</trkpt>
<trkpt lat="55.948372" lon="26.468546">
<ele>100.042053</ele>
<time>2010-08-29T17:15:01Z</time>
<desc>lat.=55.948372, lon.=26.468546, Alt.=100.042053m. Speed=0.000000m/h.</desc>
<speed>0.000000</speed>
</trkpt>
<trkpt lat="55.948372" lon="26.468546">
<ele>100.042053</ele>
<time>2010-08-29T17:15:02Z</time>
<desc>lat.=55.948372, lon.=26.468546, Alt.=100.042053m. Speed=0.288000m/h.</desc>
<speed>0.080000</speed>
</trkpt>
<trkpt lat="55.948372" lon="26.468546">
<ele>100.042053</ele>
<time>2010-08-29T17:15:03Z</time>
<desc>lat.=55.948372, lon.=26.468546, Alt.=100.042053m. Speed=0.036000m/h.</desc>
<speed>0.010000</speed>
</trkpt>
<trkpt lat="55.948372" lon="26.468546">
<ele>100.044006</ele>
<time>2010-08-29T17:15:04Z</time>
<desc>lat.=55.948372, lon.=26.468546, Alt.=100.044006m. Speed=0.180000m/h.</desc>
<speed>0.050000</speed>
</trkpt>
<trkpt lat="55.948372" lon="26.468546">
<ele>100.042053</ele>
<time>2010-08-29T17:15:05Z</time>
<desc>lat.=55.948372, lon.=26.468546, Alt.=100.042053m. Speed=0.072000m/h.</desc>
<speed>0.020000</speed>
</trkpt>
<trkpt lat="55.948372" lon="26.468546">
<ele>100.047913</ele>
<time>2010-08-29T17:15:06Z</time>
<desc>lat.=55.948372, lon.=26.468546, Alt.=100.047913m. Speed=0.252000m/h.</desc>
<speed>0.070000</speed>
</trkpt>
<trkpt lat="55.948372" lon="26.468546">
<ele>100.049866</ele>
<time>2010-08-29T17:15:07Z</time>
<desc>lat.=55.948372, lon.=26.468546, Alt.=100.049866m. Speed=0.144000m/h.</desc>
<speed>0.040000</speed>
</trkpt>
<trkpt lat="55.948372" lon="26.468544">
<ele>100.047913</ele>
<time>2010-08-29T17:15:08Z</time>
<desc>lat.=55.948372, lon.=26.468544, Alt.=100.047913m. Speed=0.036000m/h.</desc>
<speed>0.010000</speed>
</trkpt>
<trkpt lat="55.948372" lon="26.468546">
<ele>100.053772</ele>
<time>2010-08-29T17:15:09Z</time>
<desc>lat.=55.948372, lon.=26.468546, Alt.=100.053772m. Speed=0.144000m/h.</desc>
<speed>0.040000</speed>
</trkpt>
<trkpt lat="55.948372" lon="26.468546">
<ele>100.053772</ele>
<time>2010-08-29T17:15:10Z</time>
<desc>lat.=55.948372, lon.=26.468546, Alt.=100.053772m. Speed=0.000000m/h.</desc>
<speed>0.000000</speed>
</trkpt>
<trkpt lat="55.948372" lon="26.468546">
<ele>100.055725</ele>
<time>2010-08-29T17:15:11Z</time>
<desc>lat.=55.948372, lon.=26.468546, Alt.=100.055725m. Speed=0.036000m/h.</desc>
<speed>0.010000</speed>
</trkpt>
<trkpt lat="55.948372" lon="26.468544">
<ele>100.055725</ele>
<time>2010-08-29T17:15:12Z</time>
<desc>lat.=55.948372, lon.=26.468544, Alt.=100.055725m. Speed=0.072000m/h.</desc>
<speed>0.020000</speed>
</trkpt>
<trkpt lat="55.948372" lon="26.468544">
<ele>100.053772</ele>
<time>2010-08-29T17:15:13Z</time>
<desc>lat.=55.948372, lon.=26.468544, Alt.=100.053772m. Speed=0.072000m/h.</desc>
<speed>0.020000</speed>
</trkpt>
<trkpt lat="55.948372" lon="26.468544">
<ele>100.059631</ele>
<time>2010-08-29T17:15:14Z</time>
<desc>lat.=55.948372, lon.=26.468544, Alt.=100.059631m. Speed=0.036000m/h.</desc>
<speed>0.010000</speed>
</trkpt>
<trkpt lat="55.948372" lon="26.468544">
<ele>100.065491</ele>
<time>2010-08-29T17:15:15Z</time>
<desc>lat.=55.948372, lon.=26.468544, Alt.=100.065491m. Speed=0.036000m/h.</desc>
<speed>0.010000</speed>
</trkpt>
<trkpt lat="55.948372" lon="26.468544">
<ele>100.073303</ele>
<time>2010-08-29T17:15:16Z</time>
<desc>lat.=55.948372, lon.=26.468544, Alt.=100.073303m. Speed=0.036000m/h.</desc>
<speed>0.010000</speed>
</trkpt>
<trkpt lat="55.948372" lon="26.468544">
<ele>100.077209</ele>
<time>2010-08-29T17:15:17Z</time>
<desc>lat.=55.948372, lon.=26.468544, Alt.=100.077209m. Speed=0.072000m/h.</desc>
<speed>0.020000</speed>
</trkpt>
<trkpt lat="55.948372" lon="26.468544">
<ele>100.081116</ele>
<time>2010-08-29T17:15:18Z</time>
<desc>lat.=55.948372, lon.=26.468544, Alt.=100.081116m. Speed=0.000000m/h.</desc>
<speed>0.000000</speed>
</trkpt>
<trkpt lat="55.948372" lon="26.468544">
<ele>100.086975</ele>
<time>2010-08-29T17:15:19Z</time>
<desc>lat.=55.948372, lon.=26.468544, Alt.=100.086975m. Speed=0.036000m/h.</desc>
<speed>0.010000</speed>
</trkpt>
<trkpt lat="55.948372" lon="26.468544">
<ele>100.090881</ele>
<time>2010-08-29T17:15:20Z</time>
<desc>lat.=55.948372, lon.=26.468544, Alt.=100.090881m. Speed=0.000000m/h.</desc>
<speed>0.000000</speed>
</trkpt>
<trkpt lat="55.948372" lon="26.468544">
<ele>100.098694</ele>
<time>2010-08-29T17:15:21Z</time>
<desc>lat.=55.948372, lon.=26.468544, Alt.=100.098694m. Speed=0.036000m/h.</desc>
<speed>0.010000</speed>
</trkpt>
<trkpt lat="55.948372" lon="26.468544">
<ele>100.100647</ele>
<time>2010-08-29T17:15:22Z</time>
<desc>lat.=55.948372, lon.=26.468544, Alt.=100.100647m. Speed=0.036000m/h.</desc>
<speed>0.010000</speed>
</trkpt>
<trkpt lat="55.948372" lon="26.468544">
<ele>100.096741</ele>
<time>2010-08-29T17:15:23Z</time>
<desc>lat.=55.948372, lon.=26.468544, Alt.=100.096741m. Speed=0.108000m/h.</desc>
<speed>0.030000</speed>
</trkpt>
<trkpt lat="55.948372" lon="26.468544">
<ele>100.102600</ele>
<time>2010-08-29T17:15:24Z</time>
<desc>lat.=55.948372, lon.=26.468544, Alt.=100.102600m. Speed=0.144000m/h.</desc>
<speed>0.040000</speed>
</trkpt>
<trkpt lat="55.948372" lon="26.468544">
<ele>100.114319</ele>
<time>2010-08-29T17:15:25Z</time>
<desc>lat.=55.948372, lon.=26.468544, Alt.=100.114319m. Speed=0.036000m/h.</desc>
<speed>0.010000</speed>
</trkpt>
<trkpt lat="55.948372" lon="26.468544">
<ele>100.124084</ele>
<time>2010-08-29T17:15:26Z</time>
<desc>lat.=55.948372, lon.=26.468544, Alt.=100.124084m. Speed=0.072000m/h.</desc>
<speed>0.020000</speed>
</trkpt>
<trkpt lat="55.948372" lon="26.468544">
<ele>100.127991</ele>
<time>2010-08-29T17:15:27Z</time>
<desc>lat.=55.948372, lon.=26.468544, Alt.=100.127991m. Speed=0.036000m/h.</desc>
<speed>0.010000</speed>
</trkpt>
<trkpt lat="55.948372" lon="26.468544">
<ele>100.126038</ele>
<time>2010-08-29T17:15:28Z</time>
<desc>lat.=55.948372, lon.=26.468544, Alt.=100.126038m. Speed=0.000000m/h.</desc>
<speed>0.000000</speed>
</trkpt>
<trkpt lat="55.948372" lon="26.468544">
<ele>100.124084</ele>
<time>2010-08-29T17:15:29Z</time>
<desc>lat.=55.948372, lon.=26.468544, Alt.=100.124084m. Speed=0.036000m/h.</desc>
<speed>0.010000</speed>
</trkpt>
<trkpt lat="55.948372" lon="26.468544">
<ele>100.127991</ele>
<time>2010-08-29T17:15:30Z</time>
<desc>lat.=55.948372, lon.=26.468544, Alt.=100.127991m. Speed=0.000000m/h.</desc>
<speed>0.000000</speed>
</trkpt>
<trkpt lat="55.948372" lon="26.468544">
<ele>100.124084</ele>
<time>2010-08-29T17:15:31Z</time>
<desc>lat.=55.948372, lon.=26.468544, Alt.=100.124084m. Speed=0.036000m/h.</desc>
<speed>0.010000</speed>
</trkpt>
<trkpt lat="55.948372" lon="26.468544">
<ele>100.122131</ele>
<time>2010-08-29T17:15:32Z</time>
<desc>lat.=55.948372, lon.=26.468544, Alt.=100.122131m. Speed=0.072000m/h.</desc>
<speed>0.020000</speed>
</trkpt>
<trkpt lat="55.948372" lon="26.468544">
<ele>100.116272</ele>
<time>2010-08-29T17:15:33Z</time>
<desc>lat.=55.948372, lon.=26.468544, Alt.=100.116272m. Speed=0.000000m/h.</desc>
<speed>0.000000</speed>
</trkpt>
<trkpt lat="55.948372" lon="26.468544">
<ele>100.112366</ele>
<time>2010-08-29T17:15:34Z</time>
<desc>lat.=55.948372, lon.=26.468544, Alt.=100.112366m. Speed=0.000000m/h.</desc>
<speed>0.000000</speed>
</trkpt>
<trkpt lat="55.948372" lon="26.468544">
<ele>100.104553</ele>
<time>2010-08-29T17:15:35Z</time>
<desc>lat.=55.948372, lon.=26.468544, Alt.=100.104553m. Speed=0.000000m/h.</desc>
<speed>0.000000</speed>
</trkpt>
<trkpt lat="55.948372" lon="26.468544">
<ele>100.096741</ele>
<time>2010-08-29T17:15:36Z</time>
<desc>lat.=55.948372, lon.=26.468544, Alt.=100.096741m. Speed=0.036000m/h.</desc>
<speed>0.010000</speed>
</trkpt>
<trkpt lat="55.948372" lon="26.468544">
<ele>100.092834</ele>
<time>2010-08-29T17:15:37Z</time>
<desc>lat.=55.948372, lon.=26.468544, Alt.=100.092834m. Speed=0.036000m/h.</desc>
<speed>0.010000</speed>
</trkpt>
<trkpt lat="55.948372" lon="26.468544">
<ele>100.100647</ele>
<time>2010-08-29T17:15:38Z</time>
<desc>lat.=55.948372, lon.=26.468544, Alt.=100.100647m. Speed=0.036000m/h.</desc>
<speed>0.010000</speed>
</trkpt>
<trkpt lat="55.948372" lon="26.468544">
<ele>100.104553</ele>
<time>2010-08-29T17:15:39Z</time>
<desc>lat.=55.948372, lon.=26.468544, Alt.=100.104553m. Speed=0.036000m/h.</desc>
<speed>0.010000</speed>
</trkpt>
<trkpt lat="55.948372" lon="26.468544">
<ele>100.114319</ele>
<time>2010-08-29T17:15:40Z</time>
<desc>lat.=55.948372, lon.=26.468544, Alt.=100.114319m. Speed=0.108000m/h.</desc>
<speed>0.030000</speed>
</trkpt>
<trkpt lat="55.948372" lon="26.468544">
<ele>100.112366</ele>
<time>2010-08-29T17:15:41Z</time>
<desc>lat.=55.948372, lon.=26.468544, Alt.=100.112366m. Speed=0.072000m/h.</desc>
<speed>0.020000</speed>
</trkpt>
<trkpt lat="55.948372" lon="26.468544">
<ele>100.108459</ele>
<time>2010-08-29T17:15:42Z</time>
<desc>lat.=55.948372, lon.=26.468544, Alt.=100.108459m. Speed=0.072000m/h.</desc>
<speed>0.020000</speed>
</trkpt>
<trkpt lat="55.948372" lon="26.468544">
<ele>100.102600</ele>
<time>2010-08-29T17:15:43Z</time>
<desc>lat.=55.948372, lon.=26.468544, Alt.=100.102600m. Speed=0.108000m/h.</desc>
<speed>0.030000</speed>
</trkpt>
<trkpt lat="55.948372" lon="26.468544">
<ele>100.098694</ele>
<time>2010-08-29T17:15:44Z</time>
<desc>lat.=55.948372, lon.=26.468544, Alt.=100.098694m. Speed=0.000000m/h.</desc>
<speed>0.000000</speed>
</trkpt>
<trkpt lat="55.948372" lon="26.468544">
<ele>100.096741</ele>
<time>2010-08-29T17:15:45Z</time>
<desc>lat.=55.948372, lon.=26.468544, Alt.=100.096741m. Speed=0.036000m/h.</desc>
<speed>0.010000</speed>
</trkpt>
<trkpt lat="55.948372" lon="26.468544">
<ele>100.090881</ele>
<time>2010-08-29T17:15:46Z</time>
<desc>lat.=55.948372, lon.=26.468544, Alt.=100.090881m. Speed=0.000000m/h.</desc>
<speed>0.000000</speed>
</trkpt>
<trkpt lat="55.948372" lon="26.468544">
<ele>100.090881</ele>
<time>2010-08-29T17:15:47Z</time>
<desc>lat.=55.948372, lon.=26.468544, Alt.=100.090881m. Speed=0.108000m/h.</desc>
<speed>0.030000</speed>
</trkpt>
<trkpt lat="55.948372" lon="26.468544">
<ele>100.094788</ele>
<time>2010-08-29T17:15:48Z</time>
<desc>lat.=55.948372, lon.=26.468544, Alt.=100.094788m. Speed=0.036000m/h.</desc>
<speed>0.010000</speed>
</trkpt>
<trkpt lat="55.948372" lon="26.468542">
<ele>100.094788</ele>
<time>2010-08-29T17:15:49Z</time>
<desc>lat.=55.948372, lon.=26.468542, Alt.=100.094788m. Speed=0.072000m/h.</desc>
<speed>0.020000</speed>
</trkpt>
<trkpt lat="55.948372" lon="26.468542">
<ele>100.096741</ele>
<time>2010-08-29T17:15:50Z</time>
<desc>lat.=55.948372, lon.=26.468542, Alt.=100.096741m. Speed=0.000000m/h.</desc>
<speed>0.000000</speed>
</trkpt>
<trkpt lat="55.948372" lon="26.468542">
<ele>100.098694</ele>
<time>2010-08-29T17:15:51Z</time>
<desc>lat.=55.948372, lon.=26.468542, Alt.=100.098694m. Speed=0.036000m/h.</desc>
<speed>0.010000</speed>
</trkpt>
<trkpt lat="55.948372" lon="26.468542">
<ele>100.096741</ele>
<time>2010-08-29T17:15:52Z</time>
<desc>lat.=55.948372, lon.=26.468542, Alt.=100.096741m. Speed=0.000000m/h.</desc>
<speed>0.000000</speed>
</trkpt>
<trkpt lat="55.948372" lon="26.468542">
<ele>100.098694</ele>
<time>2010-08-29T17:15:53Z</time>
<desc>lat.=55.948372, lon.=26.468542, Alt.=100.098694m. Speed=0.036000m/h.</desc>
<speed>0.010000</speed>
</trkpt>
<trkpt lat="55.948372" lon="26.468542">
<ele>100.102600</ele>
<time>2010-08-29T17:15:54Z</time>
<desc>lat.=55.948372, lon.=26.468542, Alt.=100.102600m. Speed=0.036000m/h.</desc>
<speed>0.010000</speed>
</trkpt>
<trkpt lat="55.948372" lon="26.468542">
<ele>100.098694</ele>
<time>2010-08-29T17:15:55Z</time>
<desc>lat.=55.948372, lon.=26.468542, Alt.=100.098694m. Speed=0.072000m/h.</desc>
<speed>0.020000</speed>
</trkpt>
<trkpt lat="55.948372" lon="26.468542">
<ele>100.096741</ele>
<time>2010-08-29T17:15:56Z</time>
<desc>lat.=55.948372, lon.=26.468542, Alt.=100.096741m. Speed=0.216000m/h.</desc>
<speed>0.060000</speed>
</trkpt>
<trkpt lat="55.948372" lon="26.468542">
<ele>100.100647</ele>
<time>2010-08-29T17:15:57Z</time>
<desc>lat.=55.948372, lon.=26.468542, Alt.=100.100647m. Speed=0.180000m/h.</desc>
<speed>0.050000</speed>
</trkpt>
<trkpt lat="55.948372" lon="26.468542">
<ele>100.104553</ele>
<time>2010-08-29T17:15:58Z</time>
<desc>lat.=55.948372, lon.=26.468542, Alt.=100.104553m. Speed=0.108000m/h.</desc>
<speed>0.030000</speed>
</trkpt>
<trkpt lat="55.948372" lon="26.468542">
<ele>100.098694</ele>
<time>2010-08-29T17:15:59Z</time>
<desc>lat.=55.948372, lon.=26.468542, Alt.=100.098694m. Speed=0.288000m/h.</desc>
<speed>0.080000</speed>
</trkpt>
<trkpt lat="55.948372" lon="26.468542">
<ele>100.096741</ele>
<time>2010-08-29T17:16:00Z</time>
<desc>lat.=55.948372, lon.=26.468542, Alt.=100.096741m. Speed=0.072000m/h.</desc>
<speed>0.020000</speed>
</trkpt>
<trkpt lat="55.948372" lon="26.468542">
<ele>100.120178</ele>
<time>2010-08-29T17:16:01Z</time>
<desc>lat.=55.948372, lon.=26.468542, Alt.=100.120178m. Speed=1.332000m/h.</desc>
<speed>0.370000</speed>
</trkpt>
<trkpt lat="55.948372" lon="26.468548">
<ele>100.028381</ele>
<time>2010-08-29T17:16:02Z</time>
<desc>lat.=55.948372, lon.=26.468548, Alt.=100.028381m. Speed=0.468000m/h.</desc>
<speed>0.130000</speed>
</trkpt>
<trkpt lat="55.948372" lon="26.468550">
<ele>99.924866</ele>
<time>2010-08-29T17:16:03Z</time>
<desc>lat.=55.948372, lon.=26.468550, Alt.=99.924866m. Speed=0.720000m/h.</desc>
<speed>0.200000</speed>
</trkpt>
<trkpt lat="55.948372" lon="26.468554">
<ele>99.823303</ele>
<time>2010-08-29T17:16:04Z</time>
<desc>lat.=55.948372, lon.=26.468554, Alt.=99.823303m. Speed=0.108000m/h.</desc>
<speed>0.030000</speed>
</trkpt>
<trkpt lat="55.948372" lon="26.468552">
<ele>99.770569</ele>
<time>2010-08-29T17:16:05Z</time>
<desc>lat.=55.948372, lon.=26.468552, Alt.=99.770569m. Speed=0.360000m/h.</desc>
<speed>0.100000</speed>
</trkpt>
<trkpt lat="55.948372" lon="26.468552">
<ele>99.729553</ele>
<time>2010-08-29T17:16:06Z</time>
<desc>lat.=55.948372, lon.=26.468552, Alt.=99.729553m. Speed=0.180000m/h.</desc>
<speed>0.050000</speed>
</trkpt>
<trkpt lat="55.948372" lon="26.468552">
<ele>99.694397</ele>
<time>2010-08-29T17:16:07Z</time>
<desc>lat.=55.948372, lon.=26.468552, Alt.=99.694397m. Speed=0.108000m/h.</desc>
<speed>0.030000</speed>
</trkpt>
<trkpt lat="55.948372" lon="26.468552">
<ele>99.667053</ele>
<time>2010-08-29T17:16:08Z</time>
<desc>lat.=55.948372, lon.=26.468552, Alt.=99.667053m. Speed=0.648000m/h.</desc>
<speed>0.180000</speed>
</trkpt>
<trkpt lat="55.948372" lon="26.468554">
<ele>99.653381</ele>
<time>2010-08-29T17:16:09Z</time>
<desc>lat.=55.948372, lon.=26.468554, Alt.=99.653381m. Speed=2.664000m/h.</desc>
<speed>0.740000</speed>
</trkpt>
<trkpt lat="55.948364" lon="26.468555">
<ele>99.659241</ele>
<time>2010-08-29T17:16:10Z</time>
<desc>lat.=55.948364, lon.=26.468555, Alt.=99.659241m. Speed=3.420000m/h.</desc>
<speed>0.950000</speed>
</trkpt>
<trkpt lat="55.948357" lon="26.468557">
<ele>99.672913</ele>
<time>2010-08-29T17:16:11Z</time>
<desc>lat.=55.948357, lon.=26.468557, Alt.=99.672913m. Speed=4.680000m/h.</desc>
<speed>1.300000</speed>
</trkpt>
<trkpt lat="55.948338" lon="26.468567">
<ele>99.745178</ele>
<time>2010-08-29T17:16:12Z</time>
<desc>lat.=55.948338, lon.=26.468567, Alt.=99.745178m. Speed=8.280000m/h.</desc>
<speed>2.300000</speed>
</trkpt>
<trkpt lat="55.948315" lon="26.468584">
<ele>99.692444</ele>
<time>2010-08-29T17:16:13Z</time>
<desc>lat.=55.948315, lon.=26.468584, Alt.=99.692444m. Speed=9.612000m/h.</desc>
<speed>2.670000</speed>
</trkpt>
<trkpt lat="55.948288" lon="26.468605">
<ele>99.952209</ele>
<time>2010-08-29T17:16:14Z</time>
<desc>lat.=55.948288, lon.=26.468605, Alt.=99.952209m. Speed=10.044000m/h.</desc>
<speed>2.790000</speed>
</trkpt>
<trkpt lat="55.948261" lon="26.468632">
<ele>100.006897</ele>
<time>2010-08-29T17:16:15Z</time>
<desc>lat.=55.948261, lon.=26.468632, Alt.=100.006897m. Speed=11.628000m/h.</desc>
<speed>3.230000</speed>
</trkpt>
<trkpt lat="55.948223" lon="26.468641">
<ele>99.963928</ele>
<time>2010-08-29T17:16:16Z</time>
<desc>lat.=55.948223, lon.=26.468641, Alt.=99.963928m. Speed=13.716000m/h.</desc>
<speed>3.810000</speed>
</trkpt>
<trkpt lat="55.948189" lon="26.468662">
<ele>100.081116</ele>
<time>2010-08-29T17:16:17Z</time>
<desc>lat.=55.948189, lon.=26.468662, Alt.=100.081116m. Speed=10.332000m/h.</desc>
<speed>2.870000</speed>
</trkpt>
<trkpt lat="55.948158" lon="26.468683">
<ele>101.065491</ele>
<time>2010-08-29T17:16:18Z</time>
<desc>lat.=55.948158, lon.=26.468683, Alt.=101.065491m. Speed=11.628000m/h.</desc>
<speed>3.230000</speed>
</trkpt>
<trkpt lat="55.948124" lon="26.468702">
<ele>101.028381</ele>
<time>2010-08-29T17:16:19Z</time>
<desc>lat.=55.948124, lon.=26.468702, Alt.=101.028381m. Speed=11.340000m/h.</desc>
<speed>3.150000</speed>
</trkpt>
<trkpt lat="55.948097" lon="26.468719">
<ele>101.215881</ele>
<time>2010-08-29T17:16:20Z</time>
<desc>lat.=55.948097, lon.=26.468719, Alt.=101.215881m. Speed=10.332000m/h.</desc>
<speed>2.870000</speed>
</trkpt>
<trkpt lat="55.948067" lon="26.468740">
<ele>101.169006</ele>
<time>2010-08-29T17:16:21Z</time>
<desc>lat.=55.948067, lon.=26.468740, Alt.=101.169006m. Speed=10.476000m/h.</desc>
<speed>2.910000</speed>
</trkpt>
<trkpt lat="55.948040" lon="26.468758">
<ele>101.592834</ele>
<time>2010-08-29T17:16:22Z</time>
<desc>lat.=55.948040, lon.=26.468758, Alt.=101.592834m. Speed=11.376000m/h.</desc>
<speed>3.160000</speed>
</trkpt>
<trkpt lat="55.948009" lon="26.468777">
<ele>100.797913</ele>
<time>2010-08-29T17:16:23Z</time>
<desc>lat.=55.948009, lon.=26.468777, Alt.=100.797913m. Speed=12.996000m/h.</desc>
<speed>3.610000</speed>
</trkpt>
<trkpt lat="55.947971" lon="26.468792">
<ele>100.653381</ele>
<time>2010-08-29T17:16:24Z</time>
<desc>lat.=55.947971, lon.=26.468792, Alt.=100.653381m. Speed=12.672000m/h.</desc>
<speed>3.520000</speed>
</trkpt>
<trkpt lat="55.947937" lon="26.468813">
<ele>100.799866</ele>
<time>2010-08-29T17:16:25Z</time>
<desc>lat.=55.947937, lon.=26.468813, Alt.=100.799866m. Speed=15.372000m/h.</desc>
<speed>4.270000</speed>
</trkpt>
<trkpt lat="55.947891" lon="26.468834">
<ele>100.813538</ele>
<time>2010-08-29T17:16:26Z</time>
<desc>lat.=55.947891, lon.=26.468834, Alt.=100.813538m. Speed=15.444000m/h.</desc>
<speed>4.290000</speed>
</trkpt>
<trkpt lat="55.947853" lon="26.468859">
<ele>100.893616</ele>
<time>2010-08-29T17:16:27Z</time>
<desc>lat.=55.947853, lon.=26.468859, Alt.=100.893616m. Speed=15.768000m/h.</desc>
<speed>4.380000</speed>
</trkpt>
<trkpt lat="55.947819" lon="26.468884">
<ele>100.983459</ele>
<time>2010-08-29T17:16:28Z</time>
<desc>lat.=55.947819, lon.=26.468884, Alt.=100.983459m. Speed=13.176000m/h.</desc>
<speed>3.660000</speed>
</trkpt>
<trkpt lat="55.947788" lon="26.468899">
<ele>101.141663</ele>
<time>2010-08-29T17:16:29Z</time>
<desc>lat.=55.947788, lon.=26.468899, Alt.=101.141663m. Speed=13.032000m/h.</desc>
<speed>3.620000</speed>
</trkpt>
<trkpt lat="55.947754" lon="26.468910">
<ele>101.391663</ele>
<time>2010-08-29T17:16:30Z</time>
<desc>lat.=55.947754, lon.=26.468910, Alt.=101.391663m. Speed=12.996000m/h.</desc>
<speed>3.610000</speed>
</trkpt>
<trkpt lat="55.947723" lon="26.468922">
<ele>102.211975</ele>
<time>2010-08-29T17:16:31Z</time>
<desc>lat.=55.947723, lon.=26.468922, Alt.=102.211975m. Speed=11.808000m/h.</desc>
<speed>3.280000</speed>
</trkpt>
<trkpt lat="55.947689" lon="26.468939">
<ele>102.585022</ele>
<time>2010-08-29T17:16:32Z</time>
<desc>lat.=55.947689, lon.=26.468939, Alt.=102.585022m. Speed=13.248000m/h.</desc>
<speed>3.680000</speed>
</trkpt>
<trkpt lat="55.947651" lon="26.468962">
<ele>102.565491</ele>
<time>2010-08-29T17:16:33Z</time>
<desc>lat.=55.947651, lon.=26.468962, Alt.=102.565491m. Speed=13.068000m/h.</desc>
<speed>3.630000</speed>
</trkpt>
<trkpt lat="55.947620" lon="26.468985">
<ele>102.364319</ele>
<time>2010-08-29T17:16:34Z</time>
<desc>lat.=55.947620, lon.=26.468985, Alt.=102.364319m. Speed=11.448000m/h.</desc>
<speed>3.180000</speed>
</trkpt>
<trkpt lat="55.947590" lon="26.469000">
<ele>102.104553</ele>
<time>2010-08-29T17:16:35Z</time>
<desc>lat.=55.947590, lon.=26.469000, Alt.=102.104553m. Speed=11.124000m/h.</desc>
<speed>3.090000</speed>
</trkpt>
<trkpt lat="55.947563" lon="26.469019">
<ele>102.045959</ele>
<time>2010-08-29T17:16:36Z</time>
<desc>lat.=55.947563, lon.=26.469019, Alt.=102.045959m. Speed=10.944000m/h.</desc>
<speed>3.040000</speed>
</trkpt>
<trkpt lat="55.947529" lon="26.469032">
<ele>101.915100</ele>
<time>2010-08-29T17:16:37Z</time>
<desc>lat.=55.947529, lon.=26.469032, Alt.=101.915100m. Speed=12.312000m/h.</desc>
<speed>3.420000</speed>
</trkpt>
<trkpt lat="55.947491" lon="26.469059">
<ele>102.094788</ele>
<time>2010-08-29T17:16:38Z</time>
<desc>lat.=55.947491, lon.=26.469059, Alt.=102.094788m. Speed=16.020000m/h.</desc>
<speed>4.450000</speed>
</trkpt>
<trkpt lat="55.947433" lon="26.469069">
<ele>100.454163</ele>
<time>2010-08-29T17:16:39Z</time>
<desc>lat.=55.947433, lon.=26.469069, Alt.=100.454163m. Speed=17.459999m/h.</desc>
<speed>4.850000</speed>
</trkpt>
<trkpt lat="55.947388" lon="26.469097">
<ele>100.127991</ele>
<time>2010-08-29T17:16:40Z</time>
<desc>lat.=55.947388, lon.=26.469097, Alt.=100.127991m. Speed=18.576000m/h.</desc>
<speed>5.160000</speed>
</trkpt>
<trkpt lat="55.947327" lon="26.469114">
<ele>98.143616</ele>
<time>2010-08-29T17:16:41Z</time>
<desc>lat.=55.947327, lon.=26.469114, Alt.=98.143616m. Speed=20.195999m/h.</desc>
<speed>5.610000</speed>
</trkpt>
<trkpt lat="55.947269" lon="26.469133">
<ele>97.225647</ele>
<time>2010-08-29T17:16:42Z</time>
<desc>lat.=55.947269, lon.=26.469133, Alt.=97.225647m. Speed=19.007999m/h.</desc>
<speed>5.280000</speed>
</trkpt>
<trkpt lat="55.947220" lon="26.469166">
<ele>96.641663</ele>
<time>2010-08-29T17:16:43Z</time>
<desc>lat.=55.947220, lon.=26.469166, Alt.=96.641663m. Speed=19.799999m/h.</desc>
<speed>5.500000</speed>
</trkpt>
<trkpt lat="55.947170" lon="26.469200">
<ele>96.960022</ele>
<time>2010-08-29T17:16:44Z</time>
<desc>lat.=55.947170, lon.=26.469200, Alt.=96.960022m. Speed=21.024000m/h.</desc>
<speed>5.840000</speed>
</trkpt>
<trkpt lat="55.947121" lon="26.469229">
<ele>96.409241</ele>
<time>2010-08-29T17:16:45Z</time>
<desc>lat.=55.947121, lon.=26.469229, Alt.=96.409241m. Speed=20.664000m/h.</desc>
<speed>5.740000</speed>
</trkpt>
<trkpt lat="55.947056" lon="26.469263">
<ele>97.239319</ele>
<time>2010-08-29T17:16:46Z</time>
<desc>lat.=55.947056, lon.=26.469263, Alt.=97.239319m. Speed=20.952000m/h.</desc>
<speed>5.820000</speed>
</trkpt>
<trkpt lat="55.946999" lon="26.469288">
<ele>97.536194</ele>
<time>2010-08-29T17:16:47Z</time>
<desc>lat.=55.946999, lon.=26.469288, Alt.=97.536194m. Speed=21.851999m/h.</desc>
<speed>6.070000</speed>
</trkpt>
<trkpt lat="55.946934" lon="26.469313">
<ele>97.022522</ele>
<time>2010-08-29T17:16:48Z</time>
<desc>lat.=55.946934, lon.=26.469313, Alt.=97.022522m. Speed=23.256001m/h.</desc>
<speed>6.460000</speed>
</trkpt>
<trkpt lat="55.946873" lon="26.469339">
<ele>97.051819</ele>
<time>2010-08-29T17:16:49Z</time>
<desc>lat.=55.946873, lon.=26.469339, Alt.=97.051819m. Speed=22.535999m/h.</desc>
<speed>6.260000</speed>
</trkpt>
<trkpt lat="55.946815" lon="26.469366">
<ele>96.928772</ele>
<time>2010-08-29T17:16:50Z</time>
<desc>lat.=55.946815, lon.=26.469366, Alt.=96.928772m. Speed=21.888000m/h.</desc>
<speed>6.080000</speed>
</trkpt>
<trkpt lat="55.946758" lon="26.469391">
<ele>96.772522</ele>
<time>2010-08-29T17:16:51Z</time>
<desc>lat.=55.946758, lon.=26.469391, Alt.=96.772522m. Speed=21.492001m/h.</desc>
<speed>5.970000</speed>
</trkpt>
<trkpt lat="55.946709" lon="26.469421">
<ele>96.362366</ele>
<time>2010-08-29T17:16:52Z</time>
<desc>lat.=55.946709, lon.=26.469421, Alt.=96.362366m. Speed=20.844000m/h.</desc>
<speed>5.790000</speed>
</trkpt>
<trkpt lat="55.946655" lon="26.469450">
<ele>96.696350</ele>
<time>2010-08-29T17:16:53Z</time>
<desc>lat.=55.946655, lon.=26.469450, Alt.=96.696350m. Speed=21.275999m/h.</desc>
<speed>5.910000</speed>
</trkpt>
<trkpt lat="55.946606" lon="26.469492">
<ele>97.319397</ele>
<time>2010-08-29T17:16:54Z</time>
<desc>lat.=55.946606, lon.=26.469492, Alt.=97.319397m. Speed=22.500000m/h.</desc>
<speed>6.250000</speed>
</trkpt>
<trkpt lat="55.946552" lon="26.469521">
<ele>97.131897</ele>
<time>2010-08-29T17:16:55Z</time>
<desc>lat.=55.946552, lon.=26.469521, Alt.=97.131897m. Speed=21.528000m/h.</desc>
<speed>5.980000</speed>
</trkpt>
<trkpt lat="55.946495" lon="26.469545">
<ele>96.684631</ele>
<time>2010-08-29T17:16:56Z</time>
<desc>lat.=55.946495, lon.=26.469545, Alt.=96.684631m. Speed=22.356001m/h.</desc>
<speed>6.210000</speed>
</trkpt>
<trkpt lat="55.946434" lon="26.469570">
<ele>96.340881</ele>
<time>2010-08-29T17:16:57Z</time>
<desc>lat.=55.946434, lon.=26.469570, Alt.=96.340881m. Speed=23.832001m/h.</desc>
<speed>6.620000</speed>
</trkpt>
<trkpt lat="55.946381" lon="26.469597">
<ele>96.188538</ele>
<time>2010-08-29T17:16:58Z</time>
<desc>lat.=55.946381, lon.=26.469597, Alt.=96.188538m. Speed=23.004000m/h.</desc>
<speed>6.390000</speed>
</trkpt>
<trkpt lat="55.946323" lon="26.469618">
<ele>96.120178</ele>
<time>2010-08-29T17:16:59Z</time>
<desc>lat.=55.946323, lon.=26.469618, Alt.=96.120178m. Speed=22.860001m/h.</desc>
<speed>6.350000</speed>
</trkpt>
<trkpt lat="55.946266" lon="26.469646">
<ele>96.051819</ele>
<time>2010-08-29T17:17:00Z</time>
<desc>lat.=55.946266, lon.=26.469646, Alt.=96.051819m. Speed=25.200001m/h.</desc>
<speed>7.000000</speed>
</trkpt>
<trkpt lat="55.946201" lon="26.469679">
<ele>95.952209</ele>
<time>2010-08-29T17:17:01Z</time>
<desc>lat.=55.946201, lon.=26.469679, Alt.=95.952209m. Speed=24.768000m/h.</desc>
<speed>6.880000</speed>
</trkpt>
<trkpt lat="55.946144" lon="26.469707">
<ele>95.870178</ele>
<time>2010-08-29T17:17:02Z</time>
<desc>lat.=55.946144, lon.=26.469707, Alt.=95.870178m. Speed=24.120001m/h.</desc>
<speed>6.700000</speed>
</trkpt>
<trkpt lat="55.946083" lon="26.469736">
<ele>95.799866</ele>
<time>2010-08-29T17:17:03Z</time>
<desc>lat.=55.946083, lon.=26.469736, Alt.=95.799866m. Speed=22.896000m/h.</desc>
<speed>6.360000</speed>
</trkpt>
<trkpt lat="55.946030" lon="26.469767">
<ele>96.186584</ele>
<time>2010-08-29T17:17:04Z</time>
<desc>lat.=55.946030, lon.=26.469767, Alt.=96.186584m. Speed=22.139999m/h.</desc>
<speed>6.150000</speed>
</trkpt>
<trkpt lat="55.945976" lon="26.469788">
<ele>96.192444</ele>
<time>2010-08-29T17:17:05Z</time>
<desc>lat.=55.945976, lon.=26.469788, Alt.=96.192444m. Speed=21.600000m/h.</desc>
<speed>6.000000</speed>
</trkpt>
<trkpt lat="55.945919" lon="26.469809">
<ele>96.264709</ele>
<time>2010-08-29T17:17:06Z</time>
<desc>lat.=55.945919, lon.=26.469809, Alt.=96.264709m. Speed=22.788000m/h.</desc>
<speed>6.330000</speed>
</trkpt>
<trkpt lat="55.945862" lon="26.469830">
<ele>96.340881</ele>
<time>2010-08-29T17:17:07Z</time>
<desc>lat.=55.945862, lon.=26.469830, Alt.=96.340881m. Speed=22.284000m/h.</desc>
<speed>6.190000</speed>
</trkpt>
<trkpt lat="55.945808" lon="26.469841">
<ele>96.067444</ele>
<time>2010-08-29T17:17:08Z</time>
<desc>lat.=55.945808, lon.=26.469841, Alt.=96.067444m. Speed=18.684000m/h.</desc>
<speed>5.190000</speed>
</trkpt>
<trkpt lat="55.945751" lon="26.469872">
<ele>95.979553</ele>
<time>2010-08-29T17:17:09Z</time>
<desc>lat.=55.945751, lon.=26.469872, Alt.=95.979553m. Speed=20.916000m/h.</desc>
<speed>5.810000</speed>
</trkpt>
<trkpt lat="55.945698" lon="26.469896">
<ele>96.174866</ele>
<time>2010-08-29T17:17:10Z</time>
<desc>lat.=55.945698, lon.=26.469896, Alt.=96.174866m. Speed=20.412001m/h.</desc>
<speed>5.670000</speed>
</trkpt>
<trkpt lat="55.945644" lon="26.469931">
<ele>96.325256</ele>
<time>2010-08-29T17:17:11Z</time>
<desc>lat.=55.945644, lon.=26.469931, Alt.=96.325256m. Speed=22.535999m/h.</desc>
<speed>6.260000</speed>
</trkpt>
<trkpt lat="55.945587" lon="26.469963">
<ele>96.502991</ele>
<time>2010-08-29T17:17:12Z</time>
<desc>lat.=55.945587, lon.=26.469963, Alt.=96.502991m. Speed=22.356001m/h.</desc>
<speed>6.210000</speed>
</trkpt>
<trkpt lat="55.945534" lon="26.469988">
<ele>96.397522</ele>
<time>2010-08-29T17:17:13Z</time>
<desc>lat.=55.945534, lon.=26.469988, Alt.=96.397522m. Speed=22.176001m/h.</desc>
<speed>6.160000</speed>
</trkpt>
<trkpt lat="55.945480" lon="26.470013">
<ele>96.256897</ele>
<time>2010-08-29T17:17:14Z</time>
<desc>lat.=55.945480, lon.=26.470013, Alt.=96.256897m. Speed=22.896000m/h.</desc>
<speed>6.360000</speed>
</trkpt>
<trkpt lat="55.945419" lon="26.470041">
<ele>95.950256</ele>
<time>2010-08-29T17:17:15Z</time>
<desc>lat.=55.945419, lon.=26.470041, Alt.=95.950256m. Speed=23.724001m/h.</desc>
<speed>6.590000</speed>
</trkpt>
<trkpt lat="55.945358" lon="26.470072">
<ele>95.971741</ele>
<time>2010-08-29T17:17:16Z</time>
<desc>lat.=55.945358, lon.=26.470072, Alt.=95.971741m. Speed=23.184000m/h.</desc>
<speed>6.440000</speed>
</trkpt>
<trkpt lat="55.945305" lon="26.470100">
<ele>95.819397</ele>
<time>2010-08-29T17:17:17Z</time>
<desc>lat.=55.945305, lon.=26.470100, Alt.=95.819397m. Speed=21.384001m/h.</desc>
<speed>5.940000</speed>
</trkpt>
<trkpt lat="55.945255" lon="26.470135">
<ele>95.641663</ele>
<time>2010-08-29T17:17:18Z</time>
<desc>lat.=55.945255, lon.=26.470135, Alt.=95.641663m. Speed=21.059999m/h.</desc>
<speed>5.850000</speed>
</trkpt>
<trkpt lat="55.945206" lon="26.470175">
<ele>95.540100</ele>
<time>2010-08-29T17:17:19Z</time>
<desc>lat.=55.945206, lon.=26.470175, Alt.=95.540100m. Speed=20.844000m/h.</desc>
<speed>5.790000</speed>
</trkpt>
<trkpt lat="55.945164" lon="26.470213">
<ele>95.256897</ele>
<time>2010-08-29T17:17:20Z</time>
<desc>lat.=55.945164, lon.=26.470213, Alt.=95.256897m. Speed=20.304001m/h.</desc>
<speed>5.640000</speed>
</trkpt>
<trkpt lat="55.945118" lon="26.470253">
<ele>95.194397</ele>
<time>2010-08-29T17:17:21Z</time>
<desc>lat.=55.945118, lon.=26.470253, Alt.=95.194397m. Speed=19.944000m/h.</desc>
<speed>5.540000</speed>
</trkpt>
<trkpt lat="55.945076" lon="26.470287">
<ele>94.704163</ele>
<time>2010-08-29T17:17:22Z</time>
<desc>lat.=55.945076, lon.=26.470287, Alt.=94.704163m. Speed=19.980000m/h.</desc>
<speed>5.550000</speed>
</trkpt>
<trkpt lat="55.945030" lon="26.470327">
<ele>94.436584</ele>
<time>2010-08-29T17:17:23Z</time>
<desc>lat.=55.945030, lon.=26.470327, Alt.=94.436584m. Speed=20.483999m/h.</desc>
<speed>5.690000</speed>
</trkpt>
<trkpt lat="55.944988" lon="26.470375">
<ele>94.282288</ele>
<time>2010-08-29T17:17:24Z</time>
<desc>lat.=55.944988, lon.=26.470375, Alt.=94.282288m. Speed=21.420000m/h.</desc>
<speed>5.950000</speed>
</trkpt>
<trkpt lat="55.944946" lon="26.470430">
<ele>94.067444</ele>
<time>2010-08-29T17:17:25Z</time>
<desc>lat.=55.944946, lon.=26.470430, Alt.=94.067444m. Speed=22.068001m/h.</desc>
<speed>6.130000</speed>
</trkpt>
<trkpt lat="55.944904" lon="26.470490">
<ele>93.610413</ele>
<time>2010-08-29T17:17:26Z</time>
<desc>lat.=55.944904, lon.=26.470490, Alt.=93.610413m. Speed=21.384001m/h.</desc>
<speed>5.940000</speed>
</trkpt>
<trkpt lat="55.944866" lon="26.470545">
<ele>92.799866</ele>
<time>2010-08-29T17:17:27Z</time>
<desc>lat.=55.944866, lon.=26.470545, Alt.=92.799866m. Speed=20.700001m/h.</desc>
<speed>5.750000</speed>
</trkpt>
<trkpt lat="55.944832" lon="26.470606">
<ele>92.590881</ele>
<time>2010-08-29T17:17:28Z</time>
<desc>lat.=55.944832, lon.=26.470606, Alt.=92.590881m. Speed=19.620001m/h.</desc>
<speed>5.450000</speed>
</trkpt>
<trkpt lat="55.944794" lon="26.470665">
<ele>92.030334</ele>
<time>2010-08-29T17:17:29Z</time>
<desc>lat.=55.944794, lon.=26.470665, Alt.=92.030334m. Speed=20.556000m/h.</desc>
<speed>5.710000</speed>
</trkpt>
<trkpt lat="55.944763" lon="26.470722">
<ele>91.458069</ele>
<time>2010-08-29T17:17:30Z</time>
<desc>lat.=55.944763, lon.=26.470722, Alt.=91.458069m. Speed=18.035999m/h.</desc>
<speed>5.010000</speed>
</trkpt>
<trkpt lat="55.944736" lon="26.470770">
<ele>90.782288</ele>
<time>2010-08-29T17:17:31Z</time>
<desc>lat.=55.944736, lon.=26.470770, Alt.=90.782288m. Speed=16.164000m/h.</desc>
<speed>4.490000</speed>
</trkpt>
<trkpt lat="55.944702" lon="26.470823">
<ele>90.676819</ele>
<time>2010-08-29T17:17:32Z</time>
<desc>lat.=55.944702, lon.=26.470823, Alt.=90.676819m. Speed=17.459999m/h.</desc>
<speed>4.850000</speed>
</trkpt>
<trkpt lat="55.944672" lon="26.470877">
<ele>90.411194</ele>
<time>2010-08-29T17:17:33Z</time>
<desc>lat.=55.944672, lon.=26.470877, Alt.=90.411194m. Speed=18.072001m/h.</desc>
<speed>5.020000</speed>
</trkpt>
<trkpt lat="55.944637" lon="26.470940">
<ele>90.678772</ele>
<time>2010-08-29T17:17:34Z</time>
<desc>lat.=55.944637, lon.=26.470940, Alt.=90.678772m. Speed=18.972000m/h.</desc>
<speed>5.270000</speed>
</trkpt>
<trkpt lat="55.944603" lon="26.471001">
<ele>90.415100</ele>
<time>2010-08-29T17:17:35Z</time>
<desc>lat.=55.944603, lon.=26.471001, Alt.=90.415100m. Speed=19.368000m/h.</desc>
<speed>5.380000</speed>
</trkpt>
<trkpt lat="55.944569" lon="26.471069">
<ele>90.690491</ele>
<time>2010-08-29T17:17:36Z</time>
<desc>lat.=55.944569, lon.=26.471069, Alt.=90.690491m. Speed=17.964001m/h.</desc>
<speed>4.990000</speed>
</trkpt>
<trkpt lat="55.944534" lon="26.471127">
<ele>90.542053</ele>
<time>2010-08-29T17:17:37Z</time>
<desc>lat.=55.944534, lon.=26.471127, Alt.=90.542053m. Speed=17.496000m/h.</desc>
<speed>4.860000</speed>
</trkpt>
<trkpt lat="55.944508" lon="26.471178">
<ele>90.313538</ele>
<time>2010-08-29T17:17:38Z</time>
<desc>lat.=55.944508, lon.=26.471178, Alt.=90.313538m. Speed=15.228000m/h.</desc>
<speed>4.230000</speed>
</trkpt>
<trkpt lat="55.944485" lon="26.471222">
<ele>90.202209</ele>
<time>2010-08-29T17:17:39Z</time>
<desc>lat.=55.944485, lon.=26.471222, Alt.=90.202209m. Speed=13.500000m/h.</desc>
<speed>3.750000</speed>
</trkpt>
<trkpt lat="55.944454" lon="26.471266">
<ele>89.575256</ele>
<time>2010-08-29T17:17:40Z</time>
<desc>lat.=55.944454, lon.=26.471266, Alt.=89.575256m. Speed=17.028000m/h.</desc>
<speed>4.730000</speed>
</trkpt>
<trkpt lat="55.944408" lon="26.471329">
<ele>89.137756</ele>
<time>2010-08-29T17:17:41Z</time>
<desc>lat.=55.944408, lon.=26.471329, Alt.=89.137756m. Speed=18.468000m/h.</desc>
<speed>5.130000</speed>
</trkpt>
<trkpt lat="55.944363" lon="26.471392">
<ele>88.981506</ele>
<time>2010-08-29T17:17:42Z</time>
<desc>lat.=55.944363, lon.=26.471392, Alt.=88.981506m. Speed=19.836000m/h.</desc>
<speed>5.510000</speed>
</trkpt>
<trkpt lat="55.944321" lon="26.471439">
<ele>88.895569</ele>
<time>2010-08-29T17:17:43Z</time>
<desc>lat.=55.944321, lon.=26.471439, Alt.=88.895569m. Speed=19.260000m/h.</desc>
<speed>5.350000</speed>
</trkpt>
<trkpt lat="55.944275" lon="26.471489">
<ele>88.985413</ele>
<time>2010-08-29T17:17:44Z</time>
<desc>lat.=55.944275, lon.=26.471489, Alt.=88.985413m. Speed=18.540001m/h.</desc>
<speed>5.150000</speed>
</trkpt>
<trkpt lat="55.944229" lon="26.471531">
<ele>88.926819</ele>
<time>2010-08-29T17:17:45Z</time>
<desc>lat.=55.944229, lon.=26.471531, Alt.=88.926819m. Speed=18.719999m/h.</desc>
<speed>5.200000</speed>
</trkpt>
<trkpt lat="55.944183" lon="26.471567">
<ele>88.772522</ele>
<time>2010-08-29T17:17:46Z</time>
<desc>lat.=55.944183, lon.=26.471567, Alt.=88.772522m. Speed=16.524000m/h.</desc>
<speed>4.590000</speed>
</trkpt>
<trkpt lat="55.944138" lon="26.471605">
<ele>88.971741</ele>
<time>2010-08-29T17:17:47Z</time>
<desc>lat.=55.944138, lon.=26.471605, Alt.=88.971741m. Speed=17.964001m/h.</desc>
<speed>4.990000</speed>
</trkpt>
<trkpt lat="55.944088" lon="26.471636">
<ele>88.204163</ele>
<time>2010-08-29T17:17:48Z</time>
<desc>lat.=55.944088, lon.=26.471636, Alt.=88.204163m. Speed=17.424000m/h.</desc>
<speed>4.840000</speed>
</trkpt>
<trkpt lat="55.944046" lon="26.471684">
<ele>88.711975</ele>
<time>2010-08-29T17:17:49Z</time>
<desc>lat.=55.944046, lon.=26.471684, Alt.=88.711975m. Speed=16.920000m/h.</desc>
<speed>4.700000</speed>
</trkpt>
<trkpt lat="55.944004" lon="26.471714">
<ele>88.663147</ele>
<time>2010-08-29T17:17:50Z</time>
<desc>lat.=55.944004, lon.=26.471714, Alt.=88.663147m. Speed=16.271999m/h.</desc>
<speed>4.520000</speed>
</trkpt>
<trkpt lat="55.943962" lon="26.471743">
<ele>88.231506</ele>
<time>2010-08-29T17:17:51Z</time>
<desc>lat.=55.943962, lon.=26.471743, Alt.=88.231506m. Speed=15.912000m/h.</desc>
<speed>4.420000</speed>
</trkpt>
<trkpt lat="55.943920" lon="26.471767">
<ele>87.833069</ele>
<time>2010-08-29T17:17:52Z</time>
<desc>lat.=55.943920, lon.=26.471767, Alt.=87.833069m. Speed=15.084000m/h.</desc>
<speed>4.190000</speed>
</trkpt>
<trkpt lat="55.943882" lon="26.471785">
<ele>87.752991</ele>
<time>2010-08-29T17:17:53Z</time>
<desc>lat.=55.943882, lon.=26.471785, Alt.=87.752991m. Speed=15.444000m/h.</desc>
<speed>4.290000</speed>
</trkpt>
<trkpt lat="55.943829" lon="26.471796">
<ele>89.516663</ele>
<time>2010-08-29T17:17:54Z</time>
<desc>lat.=55.943829, lon.=26.471796, Alt.=89.516663m. Speed=16.379999m/h.</desc>
<speed>4.550000</speed>
</trkpt>
<trkpt lat="55.943783" lon="26.471807">
<ele>90.194397</ele>
<time>2010-08-29T17:17:55Z</time>
<desc>lat.=55.943783, lon.=26.471807, Alt.=90.194397m. Speed=16.920000m/h.</desc>
<speed>4.700000</speed>
</trkpt>
<trkpt lat="55.943741" lon="26.471825">
<ele>90.047913</ele>
<time>2010-08-29T17:17:56Z</time>
<desc>lat.=55.943741, lon.=26.471825, Alt.=90.047913m. Speed=14.292000m/h.</desc>
<speed>3.970000</speed>
</trkpt>
<trkpt lat="55.943703" lon="26.471844">
<ele>90.344788</ele>
<time>2010-08-29T17:17:57Z</time>
<desc>lat.=55.943703, lon.=26.471844, Alt.=90.344788m. Speed=14.256000m/h.</desc>
<speed>3.960000</speed>
</trkpt>
<trkpt lat="55.943668" lon="26.471859">
<ele>91.114319</ele>
<time>2010-08-29T17:17:58Z</time>
<desc>lat.=55.943668, lon.=26.471859, Alt.=91.114319m. Speed=15.048000m/h.</desc>
<speed>4.180000</speed>
</trkpt>
<trkpt lat="55.943623" lon="26.471878">
<ele>91.088928</ele>
<time>2010-08-29T17:17:59Z</time>
<desc>lat.=55.943623, lon.=26.471878, Alt.=91.088928m. Speed=16.236000m/h.</desc>
<speed>4.510000</speed>
</trkpt>
<trkpt lat="55.943569" lon="26.471891">
<ele>91.479553</ele>
<time>2010-08-29T17:18:00Z</time>
<desc>lat.=55.943569, lon.=26.471891, Alt.=91.479553m. Speed=18.468000m/h.</desc>
<speed>5.130000</speed>
</trkpt>
<trkpt lat="55.943523" lon="26.471910">
<ele>91.602600</ele>
<time>2010-08-29T17:18:01Z</time>
<desc>lat.=55.943523, lon.=26.471910, Alt.=91.602600m. Speed=17.136000m/h.</desc>
<speed>4.760000</speed>
</trkpt>
<trkpt lat="55.943478" lon="26.471931">
<ele>91.618225</ele>
<time>2010-08-29T17:18:02Z</time>
<desc>lat.=55.943478, lon.=26.471931, Alt.=91.618225m. Speed=17.496000m/h.</desc>
<speed>4.860000</speed>
</trkpt>
<trkpt lat="55.943432" lon="26.471952">
<ele>91.692444</ele>
<time>2010-08-29T17:18:03Z</time>
<desc>lat.=55.943432, lon.=26.471952, Alt.=91.692444m. Speed=18.864000m/h.</desc>
<speed>5.240000</speed>
</trkpt>
<trkpt lat="55.943386" lon="26.471973">
<ele>91.889709</ele>
<time>2010-08-29T17:18:04Z</time>
<desc>lat.=55.943386, lon.=26.471973, Alt.=91.889709m. Speed=17.892000m/h.</desc>
<speed>4.970000</speed>
</trkpt>
<trkpt lat="55.943340" lon="26.471989">
<ele>92.131897</ele>
<time>2010-08-29T17:18:05Z</time>
<desc>lat.=55.943340, lon.=26.471989, Alt.=92.131897m. Speed=17.496000m/h.</desc>
<speed>4.860000</speed>
</trkpt>
<trkpt lat="55.943302" lon="26.472000">
<ele>92.454163</ele>
<time>2010-08-29T17:18:06Z</time>
<desc>lat.=55.943302, lon.=26.472000, Alt.=92.454163m. Speed=15.732000m/h.</desc>
<speed>4.370000</speed>
</trkpt>
<trkpt lat="55.943264" lon="26.472012">
<ele>92.670959</ele>
<time>2010-08-29T17:18:07Z</time>
<desc>lat.=55.943264, lon.=26.472012, Alt.=92.670959m. Speed=12.312000m/h.</desc>
<speed>3.420000</speed>
</trkpt>
<trkpt lat="55.943233" lon="26.472023">
<ele>92.819397</ele>
<time>2010-08-29T17:18:08Z</time>
<desc>lat.=55.943233, lon.=26.472023, Alt.=92.819397m. Speed=12.060000m/h.</desc>
<speed>3.350000</speed>
</trkpt>
<trkpt lat="55.943203" lon="26.472036">
<ele>93.030334</ele>
<time>2010-08-29T17:18:09Z</time>
<desc>lat.=55.943203, lon.=26.472036, Alt.=93.030334m. Speed=10.836000m/h.</desc>
<speed>3.010000</speed>
</trkpt>
<trkpt lat="55.943172" lon="26.472052">
<ele>93.264709</ele>
<time>2010-08-29T17:18:10Z</time>
<desc>lat.=55.943172, lon.=26.472052, Alt.=93.264709m. Speed=12.744000m/h.</desc>
<speed>3.540000</speed>
</trkpt>
<trkpt lat="55.943138" lon="26.472065">
<ele>93.465881</ele>
<time>2010-08-29T17:18:11Z</time>
<desc>lat.=55.943138, lon.=26.472065, Alt.=93.465881m. Speed=12.348000m/h.</desc>
<speed>3.430000</speed>
</trkpt>
<trkpt lat="55.943100" lon="26.472090">
<ele>93.579163</ele>
<time>2010-08-29T17:18:12Z</time>
<desc>lat.=55.943100, lon.=26.472090, Alt.=93.579163m. Speed=10.620000m/h.</desc>
<speed>2.950000</speed>
</trkpt>
<trkpt lat="55.943073" lon="26.472116">
<ele>93.737366</ele>
<time>2010-08-29T17:18:13Z</time>
<desc>lat.=55.943073, lon.=26.472116, Alt.=93.737366m. Speed=9.828000m/h.</desc>
<speed>2.730000</speed>
</trkpt>
<trkpt lat="55.943043" lon="26.472153">
<ele>94.092834</ele>
<time>2010-08-29T17:18:14Z</time>
<desc>lat.=55.943043, lon.=26.472153, Alt.=94.092834m. Speed=7.920000m/h.</desc>
<speed>2.200000</speed>
</trkpt>
<trkpt lat="55.943016" lon="26.472166">
<ele>94.270569</ele>
<time>2010-08-29T17:18:15Z</time>
<desc>lat.=55.943016, lon.=26.472166, Alt.=94.270569m. Speed=8.568000m/h.</desc>
<speed>2.380000</speed>
</trkpt>
<trkpt lat="55.942993" lon="26.472181">
<ele>94.653381</ele>
<time>2010-08-29T17:18:16Z</time>
<desc>lat.=55.942993, lon.=26.472181, Alt.=94.653381m. Speed=7.596000m/h.</desc>
<speed>2.110000</speed>
</trkpt>
<trkpt lat="55.942966" lon="26.472206">
<ele>94.883850</ele>
<time>2010-08-29T17:18:17Z</time>
<desc>lat.=55.942966, lon.=26.472206, Alt.=94.883850m. Speed=6.588000m/h.</desc>
<speed>1.830000</speed>
</trkpt>
<trkpt lat="55.942944" lon="26.472231">
<ele>95.053772</ele>
<time>2010-08-29T17:18:18Z</time>
<desc>lat.=55.942944, lon.=26.472231, Alt.=95.053772m. Speed=6.696000m/h.</desc>
<speed>1.860000</speed>
</trkpt>
<trkpt lat="55.942917" lon="26.472246">
<ele>95.141663</ele>
<time>2010-08-29T17:18:19Z</time>
<desc>lat.=55.942917, lon.=26.472246, Alt.=95.141663m. Speed=7.992000m/h.</desc>
<speed>2.220000</speed>
</trkpt>
<trkpt lat="55.942894" lon="26.472263">
<ele>95.235413</ele>
<time>2010-08-29T17:18:20Z</time>
<desc>lat.=55.942894, lon.=26.472263, Alt.=95.235413m. Speed=7.416000m/h.</desc>
<speed>2.060000</speed>
</trkpt>
<trkpt lat="55.942863" lon="26.472277">
<ele>95.352600</ele>
<time>2010-08-29T17:18:21Z</time>
<desc>lat.=55.942863, lon.=26.472277, Alt.=95.352600m. Speed=8.388000m/h.</desc>
<speed>2.330000</speed>
</trkpt>
<trkpt lat="55.942829" lon="26.472273">
<ele>95.889709</ele>
<time>2010-08-29T17:18:22Z</time>
<desc>lat.=55.942829, lon.=26.472273, Alt.=95.889709m. Speed=7.992000m/h.</desc>
<speed>2.220000</speed>
</trkpt>
<trkpt lat="55.942783" lon="26.472286">
<ele>96.438538</ele>
<time>2010-08-29T17:18:23Z</time>
<desc>lat.=55.942783, lon.=26.472286, Alt.=96.438538m. Speed=11.052000m/h.</desc>
<speed>3.070000</speed>
</trkpt>
<trkpt lat="55.942749" lon="26.472305">
<ele>96.633850</ele>
<time>2010-08-29T17:18:24Z</time>
<desc>lat.=55.942749, lon.=26.472305, Alt.=96.633850m. Speed=10.044000m/h.</desc>
<speed>2.790000</speed>
</trkpt>
<trkpt lat="55.942711" lon="26.472330">
<ele>96.651428</ele>
<time>2010-08-29T17:18:25Z</time>
<desc>lat.=55.942711, lon.=26.472330, Alt.=96.651428m. Speed=10.440000m/h.</desc>
<speed>2.900000</speed>
</trkpt>
<trkpt lat="55.942680" lon="26.472355">
<ele>96.788147</ele>
<time>2010-08-29T17:18:26Z</time>
<desc>lat.=55.942680, lon.=26.472355, Alt.=96.788147m. Speed=8.676000m/h.</desc>
<speed>2.410000</speed>
</trkpt>
<trkpt lat="55.942650" lon="26.472378">
<ele>96.870178</ele>
<time>2010-08-29T17:18:27Z</time>
<desc>lat.=55.942650, lon.=26.472378, Alt.=96.870178m. Speed=7.380000m/h.</desc>
<speed>2.050000</speed>
</trkpt>
<trkpt lat="55.942612" lon="26.472401">
<ele>96.965881</ele>
<time>2010-08-29T17:18:28Z</time>
<desc>lat.=55.942612, lon.=26.472401, Alt.=96.965881m. Speed=8.388000m/h.</desc>
<speed>2.330000</speed>
</trkpt>
<trkpt lat="55.942566" lon="26.472418">
<ele>97.233459</ele>
<time>2010-08-29T17:18:29Z</time>
<desc>lat.=55.942566, lon.=26.472418, Alt.=97.233459m. Speed=11.484000m/h.</desc>
<speed>3.190000</speed>
</trkpt>
<trkpt lat="55.942520" lon="26.472446">
<ele>97.213928</ele>
<time>2010-08-29T17:18:30Z</time>
<desc>lat.=55.942520, lon.=26.472446, Alt.=97.213928m. Speed=12.312000m/h.</desc>
<speed>3.420000</speed>
</trkpt>
<trkpt lat="55.942478" lon="26.472466">
<ele>97.409241</ele>
<time>2010-08-29T17:18:31Z</time>
<desc>lat.=55.942478, lon.=26.472466, Alt.=97.409241m. Speed=11.232000m/h.</desc>
<speed>3.120000</speed>
</trkpt>
<trkpt lat="55.942432" lon="26.472485">
<ele>97.395569</ele>
<time>2010-08-29T17:18:32Z</time>
<desc>lat.=55.942432, lon.=26.472485, Alt.=97.395569m. Speed=11.448000m/h.</desc>
<speed>3.180000</speed>
</trkpt>
<trkpt lat="55.942390" lon="26.472506">
<ele>97.352600</ele>
<time>2010-08-29T17:18:33Z</time>
<desc>lat.=55.942390, lon.=26.472506, Alt.=97.352600m. Speed=11.124000m/h.</desc>
<speed>3.090000</speed>
</trkpt>
<trkpt lat="55.942345" lon="26.472523">
<ele>97.553772</ele>
<time>2010-08-29T17:18:34Z</time>
<desc>lat.=55.942345, lon.=26.472523, Alt.=97.553772m. Speed=12.096000m/h.</desc>
<speed>3.360000</speed>
</trkpt>
<trkpt lat="55.942299" lon="26.472538">
<ele>97.629944</ele>
<time>2010-08-29T17:18:35Z</time>
<desc>lat.=55.942299, lon.=26.472538, Alt.=97.629944m. Speed=10.620000m/h.</desc>
<speed>2.950000</speed>
</trkpt>
<trkpt lat="55.942253" lon="26.472557">
<ele>97.766663</ele>
<time>2010-08-29T17:18:36Z</time>
<desc>lat.=55.942253, lon.=26.472557, Alt.=97.766663m. Speed=9.900000m/h.</desc>
<speed>2.750000</speed>
</trkpt>
<trkpt lat="55.942211" lon="26.472563">
<ele>98.008850</ele>
<time>2010-08-29T17:18:37Z</time>
<desc>lat.=55.942211, lon.=26.472563, Alt.=98.008850m. Speed=8.784000m/h.</desc>
<speed>2.440000</speed>
</trkpt>
<trkpt lat="55.942165" lon="26.472580">
<ele>98.049866</ele>
<time>2010-08-29T17:18:38Z</time>
<desc>lat.=55.942165, lon.=26.472580, Alt.=98.049866m. Speed=8.820000m/h.</desc>
<speed>2.450000</speed>
</trkpt>
<trkpt lat="55.942123" lon="26.472603">
<ele>98.157288</ele>
<time>2010-08-29T17:18:39Z</time>
<desc>lat.=55.942123, lon.=26.472603, Alt.=98.157288m. Speed=8.496000m/h.</desc>
<speed>2.360000</speed>
</trkpt>
<trkpt lat="55.942089" lon="26.472622">
<ele>98.477600</ele>
<time>2010-08-29T17:18:40Z</time>
<desc>lat.=55.942089, lon.=26.472622, Alt.=98.477600m. Speed=7.488000m/h.</desc>
<speed>2.080000</speed>
</trkpt>
<trkpt lat="55.942039" lon="26.472633">
<ele>98.747131</ele>
<time>2010-08-29T17:18:41Z</time>
<desc>lat.=55.942039, lon.=26.472633, Alt.=98.747131m. Speed=9.000000m/h.</desc>
<speed>2.500000</speed>
</trkpt>
<trkpt lat="55.942005" lon="26.472641">
<ele>99.333069</ele>
<time>2010-08-29T17:18:42Z</time>
<desc>lat.=55.942005, lon.=26.472641, Alt.=99.333069m. Speed=6.588000m/h.</desc>
<speed>1.830000</speed>
</trkpt>
<trkpt lat="55.941975" lon="26.472654">
<ele>99.768616</ele>
<time>2010-08-29T17:18:43Z</time>
<desc>lat.=55.941975, lon.=26.472654, Alt.=99.768616m. Speed=4.032000m/h.</desc>
<speed>1.120000</speed>
</trkpt>
<trkpt lat="55.941948" lon="26.472666">
<ele>100.219788</ele>
<time>2010-08-29T17:18:44Z</time>
<desc>lat.=55.941948, lon.=26.472666, Alt.=100.219788m. Speed=5.652000m/h.</desc>
<speed>1.570000</speed>
</trkpt>
<trkpt lat="55.941910" lon="26.472691">
<ele>100.788147</ele>
<time>2010-08-29T17:18:45Z</time>
<desc>lat.=55.941910, lon.=26.472691, Alt.=100.788147m. Speed=7.056000m/h.</desc>
<speed>1.960000</speed>
</trkpt>
<trkpt lat="55.941860" lon="26.472704">
<ele>101.083069</ele>
<time>2010-08-29T17:18:46Z</time>
<desc>lat.=55.941860, lon.=26.472704, Alt.=101.083069m. Speed=9.108000m/h.</desc>
<speed>2.530000</speed>
</trkpt>
<trkpt lat="55.941811" lon="26.472719">
<ele>101.635803</ele>
<time>2010-08-29T17:18:47Z</time>
<desc>lat.=55.941811, lon.=26.472719, Alt.=101.635803m. Speed=9.648000m/h.</desc>
<speed>2.680000</speed>
</trkpt>
<trkpt lat="55.941753" lon="26.472736">
<ele>101.874084</ele>
<time>2010-08-29T17:18:48Z</time>
<desc>lat.=55.941753, lon.=26.472736, Alt.=101.874084m. Speed=10.008000m/h.</desc>
<speed>2.780000</speed>
</trkpt>
<trkpt lat="55.941715" lon="26.472752">
<ele>102.321350</ele>
<time>2010-08-29T17:18:49Z</time>
<desc>lat.=55.941715, lon.=26.472752, Alt.=102.321350m. Speed=8.892000m/h.</desc>
<speed>2.470000</speed>
</trkpt>
<trkpt lat="55.941685" lon="26.472769">
<ele>102.594788</ele>
<time>2010-08-29T17:18:50Z</time>
<desc>lat.=55.941685, lon.=26.472769, Alt.=102.594788m. Speed=8.820000m/h.</desc>
<speed>2.450000</speed>
</trkpt>
<trkpt lat="55.941654" lon="26.472784">
<ele>102.762756</ele>
<time>2010-08-29T17:18:51Z</time>
<desc>lat.=55.941654, lon.=26.472784, Alt.=102.762756m. Speed=6.804000m/h.</desc>
<speed>1.890000</speed>
</trkpt>
<trkpt lat="55.941616" lon="26.472803">
<ele>102.795959</ele>
<time>2010-08-29T17:18:52Z</time>
<desc>lat.=55.941616, lon.=26.472803, Alt.=102.795959m. Speed=8.316000m/h.</desc>
<speed>2.310000</speed>
</trkpt>
<trkpt lat="55.941578" lon="26.472832">
<ele>102.545959</ele>
<time>2010-08-29T17:18:53Z</time>
<desc>lat.=55.941578, lon.=26.472832, Alt.=102.545959m. Speed=9.756000m/h.</desc>
<speed>2.710000</speed>
</trkpt>
<trkpt lat="55.941540" lon="26.472858">
<ele>102.463928</ele>
<time>2010-08-29T17:18:54Z</time>
<desc>lat.=55.941540, lon.=26.472858, Alt.=102.463928m. Speed=8.748000m/h.</desc>
<speed>2.430000</speed>
</trkpt>
<trkpt lat="55.941505" lon="26.472897">
<ele>102.051819</ele>
<time>2010-08-29T17:18:55Z</time>
<desc>lat.=55.941505, lon.=26.472897, Alt.=102.051819m. Speed=8.424000m/h.</desc>
<speed>2.340000</speed>
</trkpt>
<trkpt lat="55.941467" lon="26.472923">
<ele>102.165100</ele>
<time>2010-08-29T17:18:56Z</time>
<desc>lat.=55.941467, lon.=26.472923, Alt.=102.165100m. Speed=10.728000m/h.</desc>
<speed>2.980000</speed>
</trkpt>
<trkpt lat="55.941429" lon="26.472942">
<ele>102.221741</ele>
<time>2010-08-29T17:18:57Z</time>
<desc>lat.=55.941429, lon.=26.472942, Alt.=102.221741m. Speed=9.432000m/h.</desc>
<speed>2.620000</speed>
</trkpt>
<trkpt lat="55.941391" lon="26.472963">
<ele>102.086975</ele>
<time>2010-08-29T17:18:58Z</time>
<desc>lat.=55.941391, lon.=26.472963, Alt.=102.086975m. Speed=8.820000m/h.</desc>
<speed>2.450000</speed>
</trkpt>
<trkpt lat="55.941360" lon="26.472980">
<ele>102.202209</ele>
<time>2010-08-29T17:18:59Z</time>
<desc>lat.=55.941360, lon.=26.472980, Alt.=102.202209m. Speed=6.300000m/h.</desc>
<speed>1.750000</speed>
</trkpt>
<trkpt lat="55.941319" lon="26.472988">
<ele>102.530334</ele>
<time>2010-08-29T17:19:00Z</time>
<desc>lat.=55.941319, lon.=26.472988, Alt.=102.530334m. Speed=8.388000m/h.</desc>
<speed>2.330000</speed>
</trkpt>
<trkpt lat="55.941273" lon="26.473005">
<ele>102.743225</ele>
<time>2010-08-29T17:19:01Z</time>
<desc>lat.=55.941273, lon.=26.473005, Alt.=102.743225m. Speed=10.368000m/h.</desc>
<speed>2.880000</speed>
</trkpt>
<trkpt lat="55.941231" lon="26.473021">
<ele>103.114319</ele>
<time>2010-08-29T17:19:02Z</time>
<desc>lat.=55.941231, lon.=26.473021, Alt.=103.114319m. Speed=9.504000m/h.</desc>
<speed>2.640000</speed>
</trkpt>
<trkpt lat="55.941193" lon="26.473036">
<ele>103.387756</ele>
<time>2010-08-29T17:19:03Z</time>
<desc>lat.=55.941193, lon.=26.473036, Alt.=103.387756m. Speed=8.136000m/h.</desc>
<speed>2.260000</speed>
</trkpt>
<trkpt lat="55.941147" lon="26.473051">
<ele>103.598694</ele>
<time>2010-08-29T17:19:04Z</time>
<desc>lat.=55.941147, lon.=26.473051, Alt.=103.598694m. Speed=10.188000m/h.</desc>
<speed>2.830000</speed>
</trkpt>
<trkpt lat="55.941105" lon="26.473072">
<ele>103.610413</ele>
<time>2010-08-29T17:19:05Z</time>
<desc>lat.=55.941105, lon.=26.473072, Alt.=103.610413m. Speed=7.308000m/h.</desc>
<speed>2.030000</speed>
</trkpt>
<trkpt lat="55.941059" lon="26.473106">
<ele>103.669006</ele>
<time>2010-08-29T17:19:06Z</time>
<desc>lat.=55.941059, lon.=26.473106, Alt.=103.669006m. Speed=9.684000m/h.</desc>
<speed>2.690000</speed>
</trkpt>
<trkpt lat="55.941013" lon="26.473131">
<ele>103.907288</ele>
<time>2010-08-29T17:19:07Z</time>
<desc>lat.=55.941013, lon.=26.473131, Alt.=103.907288m. Speed=9.648000m/h.</desc>
<speed>2.680000</speed>
</trkpt>
<trkpt lat="55.940971" lon="26.473145">
<ele>104.042053</ele>
<time>2010-08-29T17:19:08Z</time>
<desc>lat.=55.940971, lon.=26.473145, Alt.=104.042053m. Speed=10.620000m/h.</desc>
<speed>2.950000</speed>
</trkpt>
<trkpt lat="55.940926" lon="26.473154">
<ele>104.391663</ele>
<time>2010-08-29T17:19:09Z</time>
<desc>lat.=55.940926, lon.=26.473154, Alt.=104.391663m. Speed=10.476000m/h.</desc>
<speed>2.910000</speed>
</trkpt>
<trkpt lat="55.940887" lon="26.473166">
<ele>104.266663</ele>
<time>2010-08-29T17:19:10Z</time>
<desc>lat.=55.940887, lon.=26.473166, Alt.=104.266663m. Speed=12.456000m/h.</desc>
<speed>3.460000</speed>
</trkpt>
<trkpt lat="55.940834" lon="26.473183">
<ele>104.508850</ele>
<time>2010-08-29T17:19:11Z</time>
<desc>lat.=55.940834, lon.=26.473183, Alt.=104.508850m. Speed=15.624000m/h.</desc>
<speed>4.340000</speed>
</trkpt>
<trkpt lat="55.940781" lon="26.473209">
<ele>104.868225</ele>
<time>2010-08-29T17:19:12Z</time>
<desc>lat.=55.940781, lon.=26.473209, Alt.=104.868225m. Speed=16.379999m/h.</desc>
<speed>4.550000</speed>
</trkpt>
<trkpt lat="55.940731" lon="26.473234">
<ele>104.715881</ele>
<time>2010-08-29T17:19:13Z</time>
<desc>lat.=55.940731, lon.=26.473234, Alt.=104.715881m. Speed=15.444000m/h.</desc>
<speed>4.290000</speed>
</trkpt>
<trkpt lat="55.940681" lon="26.473265">
<ele>104.573303</ele>
<time>2010-08-29T17:19:14Z</time>
<desc>lat.=55.940681, lon.=26.473265, Alt.=104.573303m. Speed=14.112000m/h.</desc>
<speed>3.920000</speed>
</trkpt>
<trkpt lat="55.940628" lon="26.473307">
<ele>104.608459</ele>
<time>2010-08-29T17:19:15Z</time>
<desc>lat.=55.940628, lon.=26.473307, Alt.=104.608459m. Speed=14.976000m/h.</desc>
<speed>4.160000</speed>
</trkpt>
<trkpt lat="55.940578" lon="26.473341">
<ele>104.356506</ele>
<time>2010-08-29T17:19:16Z</time>
<desc>lat.=55.940578, lon.=26.473341, Alt.=104.356506m. Speed=14.760000m/h.</desc>
<speed>4.100000</speed>
</trkpt>
<trkpt lat="55.940517" lon="26.473364">
<ele>104.422913</ele>
<time>2010-08-29T17:19:17Z</time>
<desc>lat.=55.940517, lon.=26.473364, Alt.=104.422913m. Speed=14.112000m/h.</desc>
<speed>3.920000</speed>
</trkpt>
<trkpt lat="55.940464" lon="26.473396">
<ele>104.551819</ele>
<time>2010-08-29T17:19:18Z</time>
<desc>lat.=55.940464, lon.=26.473396, Alt.=104.551819m. Speed=13.716000m/h.</desc>
<speed>3.810000</speed>
</trkpt>
<trkpt lat="55.940407" lon="26.473427">
<ele>104.549866</ele>
<time>2010-08-29T17:19:19Z</time>
<desc>lat.=55.940407, lon.=26.473427, Alt.=104.549866m. Speed=16.452000m/h.</desc>
<speed>4.570000</speed>
</trkpt>
<trkpt lat="55.940365" lon="26.473444">
<ele>104.444397</ele>
<time>2010-08-29T17:19:20Z</time>
<desc>lat.=55.940365, lon.=26.473444, Alt.=104.444397m. Speed=15.012000m/h.</desc>
<speed>4.170000</speed>
</trkpt>
<trkpt lat="55.940315" lon="26.473467">
<ele>104.094788</ele>
<time>2010-08-29T17:19:21Z</time>
<desc>lat.=55.940315, lon.=26.473467, Alt.=104.094788m. Speed=11.988000m/h.</desc>
<speed>3.330000</speed>
</trkpt>
<trkpt lat="55.940285" lon="26.473482">
<ele>103.772522</ele>
<time>2010-08-29T17:19:22Z</time>
<desc>lat.=55.940285, lon.=26.473482, Alt.=103.772522m. Speed=12.528000m/h.</desc>
<speed>3.480000</speed>
</trkpt>
<trkpt lat="55.940231" lon="26.473516">
<ele>103.401428</ele>
<time>2010-08-29T17:19:23Z</time>
<desc>lat.=55.940231, lon.=26.473516, Alt.=103.401428m. Speed=20.268000m/h.</desc>
<speed>5.630000</speed>
</trkpt>
<trkpt lat="55.940159" lon="26.473557">
<ele>102.895569</ele>
<time>2010-08-29T17:19:24Z</time>
<desc>lat.=55.940159, lon.=26.473557, Alt.=102.895569m. Speed=20.736000m/h.</desc>
<speed>5.760000</speed>
</trkpt>
<trkpt lat="55.940094" lon="26.473587">
<ele>103.239319</ele>
<time>2010-08-29T17:19:25Z</time>
<desc>lat.=55.940094, lon.=26.473587, Alt.=103.239319m. Speed=16.632000m/h.</desc>
<speed>4.620000</speed>
</trkpt>
<trkpt lat="55.940037" lon="26.473623">
<ele>103.135803</ele>
<time>2010-08-29T17:19:26Z</time>
<desc>lat.=55.940037, lon.=26.473623, Alt.=103.135803m. Speed=15.516000m/h.</desc>
<speed>4.310000</speed>
</trkpt>
<trkpt lat="55.939980" lon="26.473652">
<ele>103.471741</ele>
<time>2010-08-29T17:19:27Z</time>
<desc>lat.=55.939980, lon.=26.473652, Alt.=103.471741m. Speed=14.364000m/h.</desc>
<speed>3.990000</speed>
</trkpt>
<trkpt lat="55.939926" lon="26.473675">
<ele>103.792053</ele>
<time>2010-08-29T17:19:28Z</time>
<desc>lat.=55.939926, lon.=26.473675, Alt.=103.792053m. Speed=13.860000m/h.</desc>
<speed>3.850000</speed>
</trkpt>
<trkpt lat="55.939888" lon="26.473703">
<ele>103.731506</ele>
<time>2010-08-29T17:19:29Z</time>
<desc>lat.=55.939888, lon.=26.473703, Alt.=103.731506m. Speed=11.988000m/h.</desc>
<speed>3.330000</speed>
</trkpt>
<trkpt lat="55.939842" lon="26.473722">
<ele>103.483459</ele>
<time>2010-08-29T17:19:30Z</time>
<desc>lat.=55.939842, lon.=26.473722, Alt.=103.483459m. Speed=12.204000m/h.</desc>
<speed>3.390000</speed>
</trkpt>
<trkpt lat="55.939796" lon="26.473736">
<ele>103.368225</ele>
<time>2010-08-29T17:19:31Z</time>
<desc>lat.=55.939796, lon.=26.473736, Alt.=103.368225m. Speed=13.176000m/h.</desc>
<speed>3.660000</speed>
</trkpt>
<trkpt lat="55.939739" lon="26.473755">
<ele>103.426819</ele>
<time>2010-08-29T17:19:32Z</time>
<desc>lat.=55.939739, lon.=26.473755, Alt.=103.426819m. Speed=14.472000m/h.</desc>
<speed>4.020000</speed>
</trkpt>
<trkpt lat="55.939682" lon="26.473770">
<ele>103.465881</ele>
<time>2010-08-29T17:19:33Z</time>
<desc>lat.=55.939682, lon.=26.473770, Alt.=103.465881m. Speed=15.444000m/h.</desc>
<speed>4.290000</speed>
</trkpt>
<trkpt lat="55.939625" lon="26.473799">
<ele>103.303772</ele>
<time>2010-08-29T17:19:34Z</time>
<desc>lat.=55.939625, lon.=26.473799, Alt.=103.303772m. Speed=16.775999m/h.</desc>
<speed>4.660000</speed>
</trkpt>
<trkpt lat="55.939583" lon="26.473818">
<ele>103.065491</ele>
<time>2010-08-29T17:19:35Z</time>
<desc>lat.=55.939583, lon.=26.473818, Alt.=103.065491m. Speed=13.320000m/h.</desc>
<speed>3.700000</speed>
</trkpt>
<trkpt lat="55.939526" lon="26.473839">
<ele>102.815491</ele>
<time>2010-08-29T17:19:36Z</time>
<desc>lat.=55.939526, lon.=26.473839, Alt.=102.815491m. Speed=15.084000m/h.</desc>
<speed>4.190000</speed>
</trkpt>
<trkpt lat="55.939457" lon="26.473856">
<ele>102.721741</ele>
<time>2010-08-29T17:19:37Z</time>
<desc>lat.=55.939457, lon.=26.473856, Alt.=102.721741m. Speed=16.416000m/h.</desc>
<speed>4.560000</speed>
</trkpt>
<trkpt lat="55.939404" lon="26.473885">
<ele>102.141663</ele>
<time>2010-08-29T17:19:38Z</time>
<desc>lat.=55.939404, lon.=26.473885, Alt.=102.141663m. Speed=12.960000m/h.</desc>
<speed>3.600000</speed>
</trkpt>
<trkpt lat="55.939350" lon="26.473896">
<ele>101.702209</ele>
<time>2010-08-29T17:19:39Z</time>
<desc>lat.=55.939350, lon.=26.473896, Alt.=101.702209m. Speed=12.384000m/h.</desc>
<speed>3.440000</speed>
</trkpt>
<trkpt lat="55.939308" lon="26.473898">
<ele>101.424866</ele>
<time>2010-08-29T17:19:40Z</time>
<desc>lat.=55.939308, lon.=26.473898, Alt.=101.424866m. Speed=9.864000m/h.</desc>
<speed>2.740000</speed>
</trkpt>
<trkpt lat="55.939259" lon="26.473911">
<ele>101.036194</ele>
<time>2010-08-29T17:19:41Z</time>
<desc>lat.=55.939259, lon.=26.473911, Alt.=101.036194m. Speed=13.212000m/h.</desc>
<speed>3.670000</speed>
</trkpt>
<trkpt lat="55.939228" lon="26.473925">
<ele>100.682678</ele>
<time>2010-08-29T17:19:42Z</time>
<desc>lat.=55.939228, lon.=26.473925, Alt.=100.682678m. Speed=14.508000m/h.</desc>
<speed>4.030000</speed>
</trkpt>
<trkpt lat="55.939159" lon="26.473944">
<ele>100.661194</ele>
<time>2010-08-29T17:19:43Z</time>
<desc>lat.=55.939159, lon.=26.473944, Alt.=100.661194m. Speed=16.632000m/h.</desc>
<speed>4.620000</speed>
</trkpt>
<trkpt lat="55.939110" lon="26.473980">
<ele>100.465881</ele>
<time>2010-08-29T17:19:44Z</time>
<desc>lat.=55.939110, lon.=26.473980, Alt.=100.465881m. Speed=13.824000m/h.</desc>
<speed>3.840000</speed>
</trkpt>
<trkpt lat="55.939056" lon="26.474014">
<ele>101.143616</ele>
<time>2010-08-29T17:19:45Z</time>
<desc>lat.=55.939056, lon.=26.474014, Alt.=101.143616m. Speed=14.400000m/h.</desc>
<speed>4.000000</speed>
</trkpt>
<trkpt lat="55.938999" lon="26.474047">
<ele>101.635803</ele>
<time>2010-08-29T17:19:46Z</time>
<desc>lat.=55.938999, lon.=26.474047, Alt.=101.635803m. Speed=15.156000m/h.</desc>
<speed>4.210000</speed>
</trkpt>
<trkpt lat="55.938961" lon="26.474064">
<ele>101.495178</ele>
<time>2010-08-29T17:19:47Z</time>
<desc>lat.=55.938961, lon.=26.474064, Alt.=101.495178m. Speed=13.896000m/h.</desc>
<speed>3.860000</speed>
</trkpt>
<trkpt lat="55.938908" lon="26.474089">
<ele>101.417053</ele>
<time>2010-08-29T17:19:48Z</time>
<desc>lat.=55.938908, lon.=26.474089, Alt.=101.417053m. Speed=14.148000m/h.</desc>
<speed>3.930000</speed>
</trkpt>
<trkpt lat="55.938858" lon="26.474119">
<ele>100.713928</ele>
<time>2010-08-29T17:19:49Z</time>
<desc>lat.=55.938858, lon.=26.474119, Alt.=100.713928m. Speed=15.336000m/h.</desc>
<speed>4.260000</speed>
</trkpt>
<trkpt lat="55.938805" lon="26.474150">
<ele>100.633850</ele>
<time>2010-08-29T17:19:50Z</time>
<desc>lat.=55.938805, lon.=26.474150, Alt.=100.633850m. Speed=16.271999m/h.</desc>
<speed>4.520000</speed>
</trkpt>
<trkpt lat="55.938747" lon="26.474186">
<ele>100.958069</ele>
<time>2010-08-29T17:19:51Z</time>
<desc>lat.=55.938747, lon.=26.474186, Alt.=100.958069m. Speed=16.524000m/h.</desc>
<speed>4.590000</speed>
</trkpt>
<trkpt lat="55.938694" lon="26.474218">
<ele>101.024475</ele>
<time>2010-08-29T17:19:52Z</time>
<desc>lat.=55.938694, lon.=26.474218, Alt.=101.024475m. Speed=16.091999m/h.</desc>
<speed>4.470000</speed>
</trkpt>
<trkpt lat="55.938641" lon="26.474247">
<ele>100.895569</ele>
<time>2010-08-29T17:19:53Z</time>
<desc>lat.=55.938641, lon.=26.474247, Alt.=100.895569m. Speed=16.632000m/h.</desc>
<speed>4.620000</speed>
</trkpt>
<trkpt lat="55.938580" lon="26.474274">
<ele>100.126038</ele>
<time>2010-08-29T17:19:54Z</time>
<desc>lat.=55.938580, lon.=26.474274, Alt.=100.126038m. Speed=14.940000m/h.</desc>
<speed>4.150000</speed>
</trkpt>
<trkpt lat="55.938522" lon="26.474310">
<ele>99.391663</ele>
<time>2010-08-29T17:19:55Z</time>
<desc>lat.=55.938522, lon.=26.474310, Alt.=99.391663m. Speed=17.243999m/h.</desc>
<speed>4.790000</speed>
</trkpt>
<trkpt lat="55.938457" lon="26.474331">
<ele>99.370178</ele>
<time>2010-08-29T17:19:56Z</time>
<desc>lat.=55.938457, lon.=26.474331, Alt.=99.370178m. Speed=15.516000m/h.</desc>
<speed>4.310000</speed>
</trkpt>
<trkpt lat="55.938419" lon="26.474344">
<ele>99.018616</ele>
<time>2010-08-29T17:19:57Z</time>
<desc>lat.=55.938419, lon.=26.474344, Alt.=99.018616m. Speed=15.228000m/h.</desc>
<speed>4.230000</speed>
</trkpt>
<trkpt lat="55.938370" lon="26.474367">
<ele>98.374084</ele>
<time>2010-08-29T17:19:58Z</time>
<desc>lat.=55.938370, lon.=26.474367, Alt.=98.374084m. Speed=13.608000m/h.</desc>
<speed>3.780000</speed>
</trkpt>
<trkpt lat="55.938324" lon="26.474398">
<ele>98.336975</ele>
<time>2010-08-29T17:19:59Z</time>
<desc>lat.=55.938324, lon.=26.474398, Alt.=98.336975m. Speed=12.852000m/h.</desc>
<speed>3.570000</speed>
</trkpt>
<trkpt lat="55.938271" lon="26.474413">
<ele>98.680725</ele>
<time>2010-08-29T17:20:00Z</time>
<desc>lat.=55.938271, lon.=26.474413, Alt.=98.680725m. Speed=16.596001m/h.</desc>
<speed>4.610000</speed>
</trkpt>
<trkpt lat="55.938217" lon="26.474426">
<ele>98.799866</ele>
<time>2010-08-29T17:20:01Z</time>
<desc>lat.=55.938217, lon.=26.474426, Alt.=98.799866m. Speed=15.768000m/h.</desc>
<speed>4.380000</speed>
</trkpt>
<trkpt lat="55.938164" lon="26.474457">
<ele>98.553772</ele>
<time>2010-08-29T17:20:02Z</time>
<desc>lat.=55.938164, lon.=26.474457, Alt.=98.553772m. Speed=14.112000m/h.</desc>
<speed>3.920000</speed>
</trkpt>
<trkpt lat="55.938110" lon="26.474480">
<ele>98.538147</ele>
<time>2010-08-29T17:20:03Z</time>
<desc>lat.=55.938110, lon.=26.474480, Alt.=98.538147m. Speed=13.788000m/h.</desc>
<speed>3.830000</speed>
</trkpt>
<trkpt lat="55.938076" lon="26.474487">
<ele>98.417053</ele>
<time>2010-08-29T17:20:04Z</time>
<desc>lat.=55.938076, lon.=26.474487, Alt.=98.417053m. Speed=14.652000m/h.</desc>
<speed>4.070000</speed>
</trkpt>
<trkpt lat="55.938023" lon="26.474510">
<ele>98.032288</ele>
<time>2010-08-29T17:20:05Z</time>
<desc>lat.=55.938023, lon.=26.474510, Alt.=98.032288m. Speed=13.932000m/h.</desc>
<speed>3.870000</speed>
</trkpt>
<trkpt lat="55.937973" lon="26.474535">
<ele>97.467834</ele>
<time>2010-08-29T17:20:06Z</time>
<desc>lat.=55.937973, lon.=26.474535, Alt.=97.467834m. Speed=13.716000m/h.</desc>
<speed>3.810000</speed>
</trkpt>
<trkpt lat="55.937923" lon="26.474564">
<ele>97.456116</ele>
<time>2010-08-29T17:20:07Z</time>
<desc>lat.=55.937923, lon.=26.474564, Alt.=97.456116m. Speed=11.988000m/h.</desc>
<speed>3.330000</speed>
</trkpt>
<trkpt lat="55.937881" lon="26.474592">
<ele>96.651428</ele>
<time>2010-08-29T17:20:08Z</time>
<desc>lat.=55.937881, lon.=26.474592, Alt.=96.651428m. Speed=10.008000m/h.</desc>
<speed>2.780000</speed>
</trkpt>
<trkpt lat="55.937836" lon="26.474606">
<ele>96.508850</ele>
<time>2010-08-29T17:20:09Z</time>
<desc>lat.=55.937836, lon.=26.474606, Alt.=96.508850m. Speed=10.944000m/h.</desc>
<speed>3.040000</speed>
</trkpt>
<trkpt lat="55.937786" lon="26.474621">
<ele>95.008850</ele>
<time>2010-08-29T17:20:10Z</time>
<desc>lat.=55.937786, lon.=26.474621, Alt.=95.008850m. Speed=11.664000m/h.</desc>
<speed>3.240000</speed>
</trkpt>
<trkpt lat="55.937744" lon="26.474630">
<ele>94.618225</ele>
<time>2010-08-29T17:20:11Z</time>
<desc>lat.=55.937744, lon.=26.474630, Alt.=94.618225m. Speed=10.800000m/h.</desc>
<speed>3.000000</speed>
</trkpt>
<trkpt lat="55.937698" lon="26.474657">
<ele>93.020569</ele>
<time>2010-08-29T17:20:12Z</time>
<desc>lat.=55.937698, lon.=26.474657, Alt.=93.020569m. Speed=12.492000m/h.</desc>
<speed>3.470000</speed>
</trkpt>
<trkpt lat="55.937668" lon="26.474674">
<ele>93.022522</ele>
<time>2010-08-29T17:20:13Z</time>
<desc>lat.=55.937668, lon.=26.474674, Alt.=93.022522m. Speed=8.532000m/h.</desc>
<speed>2.370000</speed>
</trkpt>
<trkpt lat="55.937626" lon="26.474695">
<ele>91.958069</ele>
<time>2010-08-29T17:20:14Z</time>
<desc>lat.=55.937626, lon.=26.474695, Alt.=91.958069m. Speed=11.916000m/h.</desc>
<speed>3.310000</speed>
</trkpt>
<trkpt lat="55.937584" lon="26.474714">
<ele>91.797913</ele>
<time>2010-08-29T17:20:15Z</time>
<desc>lat.=55.937584, lon.=26.474714, Alt.=91.797913m. Speed=13.824000m/h.</desc>
<speed>3.840000</speed>
</trkpt>
<trkpt lat="55.937534" lon="26.474743">
<ele>90.471741</ele>
<time>2010-08-29T17:20:16Z</time>
<desc>lat.=55.937534, lon.=26.474743, Alt.=90.471741m. Speed=14.688000m/h.</desc>
<speed>4.080000</speed>
</trkpt>
<trkpt lat="55.937477" lon="26.474768">
<ele>89.794006</ele>
<time>2010-08-29T17:20:17Z</time>
<desc>lat.=55.937477, lon.=26.474768, Alt.=89.794006m. Speed=16.740000m/h.</desc>
<speed>4.650000</speed>
</trkpt>
<trkpt lat="55.937431" lon="26.474792">
<ele>90.219788</ele>
<time>2010-08-29T17:20:18Z</time>
<desc>lat.=55.937431, lon.=26.474792, Alt.=90.219788m. Speed=15.768000m/h.</desc>
<speed>4.380000</speed>
</trkpt>
<trkpt lat="55.937378" lon="26.474827">
<ele>89.100647</ele>
<time>2010-08-29T17:20:19Z</time>
<desc>lat.=55.937378, lon.=26.474827, Alt.=89.100647m. Speed=16.559999m/h.</desc>
<speed>4.600000</speed>
</trkpt>
<trkpt lat="55.937340" lon="26.474846">
<ele>88.471741</ele>
<time>2010-08-29T17:20:20Z</time>
<desc>lat.=55.937340, lon.=26.474846, Alt.=88.471741m. Speed=17.208000m/h.</desc>
<speed>4.780000</speed>
</trkpt>
<trkpt lat="55.937275" lon="26.474863">
<ele>89.438538</ele>
<time>2010-08-29T17:20:21Z</time>
<desc>lat.=55.937275, lon.=26.474863, Alt.=89.438538m. Speed=15.948000m/h.</desc>
<speed>4.430000</speed>
</trkpt>
<trkpt lat="55.937214" lon="26.474876">
<ele>90.524475</ele>
<time>2010-08-29T17:20:22Z</time>
<desc>lat.=55.937214, lon.=26.474876, Alt.=90.524475m. Speed=15.012000m/h.</desc>
<speed>4.170000</speed>
</trkpt>
<trkpt lat="55.937164" lon="26.474895">
<ele>90.920959</ele>
<time>2010-08-29T17:20:23Z</time>
<desc>lat.=55.937164, lon.=26.474895, Alt.=90.920959m. Speed=14.040000m/h.</desc>
<speed>3.900000</speed>
</trkpt>
<trkpt lat="55.937130" lon="26.474901">
<ele>90.606506</ele>
<time>2010-08-29T17:20:24Z</time>
<desc>lat.=55.937130, lon.=26.474901, Alt.=90.606506m. Speed=15.336000m/h.</desc>
<speed>4.260000</speed>
</trkpt>
<trkpt lat="55.937077" lon="26.474930">
<ele>90.645569</ele>
<time>2010-08-29T17:20:25Z</time>
<desc>lat.=55.937077, lon.=26.474930, Alt.=90.645569m. Speed=20.628000m/h.</desc>
<speed>5.730000</speed>
</trkpt>
<trkpt lat="55.937027" lon="26.474958">
<ele>90.366272</ele>
<time>2010-08-29T17:20:26Z</time>
<desc>lat.=55.937027, lon.=26.474958, Alt.=90.366272m. Speed=22.608000m/h.</desc>
<speed>6.280000</speed>
</trkpt>
<trkpt lat="55.936966" lon="26.474989">
<ele>90.831116</ele>
<time>2010-08-29T17:20:27Z</time>
<desc>lat.=55.936966, lon.=26.474989, Alt.=90.831116m. Speed=23.832001m/h.</desc>
<speed>6.620000</speed>
</trkpt>
<trkpt lat="55.936905" lon="26.475027">
<ele>91.530334</ele>
<time>2010-08-29T17:20:28Z</time>
<desc>lat.=55.936905, lon.=26.475027, Alt.=91.530334m. Speed=24.120001m/h.</desc>
<speed>6.700000</speed>
</trkpt>
<trkpt lat="55.936798" lon="26.475069">
<ele>93.801819</ele>
<time>2010-08-29T17:20:29Z</time>
<desc>lat.=55.936798, lon.=26.475069, Alt.=93.801819m. Speed=24.732000m/h.</desc>
<speed>6.870000</speed>
</trkpt>
<trkpt lat="55.936737" lon="26.475086">
<ele>94.040100</ele>
<time>2010-08-29T17:20:30Z</time>
<desc>lat.=55.936737, lon.=26.475086, Alt.=94.040100m. Speed=23.076000m/h.</desc>
<speed>6.410000</speed>
</trkpt>
<trkpt lat="55.936680" lon="26.475113">
<ele>94.104553</ele>
<time>2010-08-29T17:20:31Z</time>
<desc>lat.=55.936680, lon.=26.475113, Alt.=94.104553m. Speed=18.756001m/h.</desc>
<speed>5.210000</speed>
</trkpt>
<trkpt lat="55.936623" lon="26.475142">
<ele>93.813538</ele>
<time>2010-08-29T17:20:32Z</time>
<desc>lat.=55.936623, lon.=26.475142, Alt.=93.813538m. Speed=19.260000m/h.</desc>
<speed>5.350000</speed>
</trkpt>
<trkpt lat="55.936569" lon="26.475166">
<ele>94.483459</ele>
<time>2010-08-29T17:20:33Z</time>
<desc>lat.=55.936569, lon.=26.475166, Alt.=94.483459m. Speed=17.172001m/h.</desc>
<speed>4.770000</speed>
</trkpt>
<trkpt lat="55.936508" lon="26.475197">
<ele>94.342834</ele>
<time>2010-08-29T17:20:34Z</time>
<desc>lat.=55.936508, lon.=26.475197, Alt.=94.342834m. Speed=14.832000m/h.</desc>
<speed>4.120000</speed>
</trkpt>
<trkpt lat="55.936474" lon="26.475214">
<ele>94.344788</ele>
<time>2010-08-29T17:20:35Z</time>
<desc>lat.=55.936474, lon.=26.475214, Alt.=94.344788m. Speed=16.992001m/h.</desc>
<speed>4.720000</speed>
</trkpt>
<trkpt lat="55.936405" lon="26.475248">
<ele>94.835022</ele>
<time>2010-08-29T17:20:36Z</time>
<desc>lat.=55.936405, lon.=26.475248, Alt.=94.835022m. Speed=17.568001m/h.</desc>
<speed>4.880000</speed>
</trkpt>
<trkpt lat="55.936363" lon="26.475264">
<ele>94.647522</ele>
<time>2010-08-29T17:20:37Z</time>
<desc>lat.=55.936363, lon.=26.475264, Alt.=94.647522m. Speed=18.396000m/h.</desc>
<speed>5.110000</speed>
</trkpt>
<trkpt lat="55.936317" lon="26.475279">
<ele>94.428772</ele>
<time>2010-08-29T17:20:38Z</time>
<desc>lat.=55.936317, lon.=26.475279, Alt.=94.428772m. Speed=12.060000m/h.</desc>
<speed>3.350000</speed>
</trkpt>
<trkpt lat="55.936260" lon="26.475307">
<ele>94.977600</ele>
<time>2010-08-29T17:20:39Z</time>
<desc>lat.=55.936260, lon.=26.475307, Alt.=94.977600m. Speed=9.504000m/h.</desc>
<speed>2.640000</speed>
</trkpt>
<trkpt lat="55.936218" lon="26.475340">
<ele>95.667053</ele>
<time>2010-08-29T17:20:40Z</time>
<desc>lat.=55.936218, lon.=26.475340, Alt.=95.667053m. Speed=14.040000m/h.</desc>
<speed>3.900000</speed>
</trkpt>
<trkpt lat="55.936184" lon="26.475353">
<ele>95.629944</ele>
<time>2010-08-29T17:20:41Z</time>
<desc>lat.=55.936184, lon.=26.475353, Alt.=95.629944m. Speed=13.500000m/h.</desc>
<speed>3.750000</speed>
</trkpt>
<trkpt lat="55.936127" lon="26.475367">
<ele>95.708069</ele>
<time>2010-08-29T17:20:42Z</time>
<desc>lat.=55.936127, lon.=26.475367, Alt.=95.708069m. Speed=13.932000m/h.</desc>
<speed>3.870000</speed>
</trkpt>
<trkpt lat="55.936092" lon="26.475370">
<ele>95.764709</ele>
<time>2010-08-29T17:20:43Z</time>
<desc>lat.=55.936092, lon.=26.475370, Alt.=95.764709m. Speed=13.860000m/h.</desc>
<speed>3.850000</speed>
</trkpt>
<trkpt lat="55.936043" lon="26.475393">
<ele>97.577209</ele>
<time>2010-08-29T17:20:44Z</time>
<desc>lat.=55.936043, lon.=26.475393, Alt.=97.577209m. Speed=10.404000m/h.</desc>
<speed>2.890000</speed>
</trkpt>
<trkpt lat="55.936001" lon="26.475433">
<ele>99.145569</ele>
<time>2010-08-29T17:20:45Z</time>
<desc>lat.=55.936001, lon.=26.475433, Alt.=99.145569m. Speed=10.116000m/h.</desc>
<speed>2.810000</speed>
</trkpt>
<trkpt lat="55.935959" lon="26.475460">
<ele>99.659241</ele>
<time>2010-08-29T17:20:46Z</time>
<desc>lat.=55.935959, lon.=26.475460, Alt.=99.659241m. Speed=10.620000m/h.</desc>
<speed>2.950000</speed>
</trkpt>
<trkpt lat="55.935932" lon="26.475464">
<ele>99.690491</ele>
<time>2010-08-29T17:20:47Z</time>
<desc>lat.=55.935932, lon.=26.475464, Alt.=99.690491m. Speed=15.876000m/h.</desc>
<speed>4.410000</speed>
</trkpt>
<trkpt lat="55.935883" lon="26.475473">
<ele>99.465881</ele>
<time>2010-08-29T17:20:48Z</time>
<desc>lat.=55.935883, lon.=26.475473, Alt.=99.465881m. Speed=17.172001m/h.</desc>
<speed>4.770000</speed>
</trkpt>
<trkpt lat="55.935837" lon="26.475492">
<ele>99.579163</ele>
<time>2010-08-29T17:20:49Z</time>
<desc>lat.=55.935837, lon.=26.475492, Alt.=99.579163m. Speed=16.271999m/h.</desc>
<speed>4.520000</speed>
</trkpt>
<trkpt lat="55.935795" lon="26.475512">
<ele>99.420959</ele>
<time>2010-08-29T17:20:50Z</time>
<desc>lat.=55.935795, lon.=26.475512, Alt.=99.420959m. Speed=13.608000m/h.</desc>
<speed>3.780000</speed>
</trkpt>
<trkpt lat="55.935760" lon="26.475533">
<ele>100.030334</ele>
<time>2010-08-29T17:20:51Z</time>
<desc>lat.=55.935760, lon.=26.475533, Alt.=100.030334m. Speed=12.528000m/h.</desc>
<speed>3.480000</speed>
</trkpt>
<trkpt lat="55.935719" lon="26.475544">
<ele>100.461975</ele>
<time>2010-08-29T17:20:52Z</time>
<desc>lat.=55.935719, lon.=26.475544, Alt.=100.461975m. Speed=15.012000m/h.</desc>
<speed>4.170000</speed>
</trkpt>
<trkpt lat="55.935520" lon="26.475689">
<ele>104.706116</ele>
<time>2010-08-29T17:20:53Z</time>
<desc>lat.=55.935520, lon.=26.475689, Alt.=104.706116m. Speed=17.316000m/h.</desc>
<speed>4.810000</speed>
</trkpt>
<trkpt lat="55.935478" lon="26.475704">
<ele>104.670959</ele>
<time>2010-08-29T17:20:54Z</time>
<desc>lat.=55.935478, lon.=26.475704, Alt.=104.670959m. Speed=18.180000m/h.</desc>
<speed>5.050000</speed>
</trkpt>
<trkpt lat="55.935406" lon="26.475725">
<ele>103.126038</ele>
<time>2010-08-29T17:20:55Z</time>
<desc>lat.=55.935406, lon.=26.475725, Alt.=103.126038m. Speed=19.188000m/h.</desc>
<speed>5.330000</speed>
</trkpt>
<trkpt lat="55.935314" lon="26.475742">
<ele>102.588928</ele>
<time>2010-08-29T17:20:56Z</time>
<desc>lat.=55.935314, lon.=26.475742, Alt.=102.588928m. Speed=19.115999m/h.</desc>
<speed>5.310000</speed>
</trkpt>
<trkpt lat="55.935268" lon="26.475758">
<ele>102.215881</ele>
<time>2010-08-29T17:20:57Z</time>
<desc>lat.=55.935268, lon.=26.475758, Alt.=102.215881m. Speed=20.052000m/h.</desc>
<speed>5.570000</speed>
</trkpt>
<trkpt lat="55.935207" lon="26.475786">
<ele>102.624084</ele>
<time>2010-08-29T17:20:58Z</time>
<desc>lat.=55.935207, lon.=26.475786, Alt.=102.624084m. Speed=20.483999m/h.</desc>
<speed>5.690000</speed>
</trkpt>
<trkpt lat="55.935146" lon="26.475819">
<ele>102.713928</ele>
<time>2010-08-29T17:20:59Z</time>
<desc>lat.=55.935146, lon.=26.475819, Alt.=102.713928m. Speed=19.944000m/h.</desc>
<speed>5.540000</speed>
</trkpt>
<trkpt lat="55.935101" lon="26.475840">
<ele>102.686584</ele>
<time>2010-08-29T17:21:00Z</time>
<desc>lat.=55.935101, lon.=26.475840, Alt.=102.686584m. Speed=18.719999m/h.</desc>
<speed>5.200000</speed>
</trkpt>
<trkpt lat="55.935032" lon="26.475874">
<ele>103.338928</ele>
<time>2010-08-29T17:21:01Z</time>
<desc>lat.=55.935032, lon.=26.475874, Alt.=103.338928m. Speed=20.556000m/h.</desc>
<speed>5.710000</speed>
</trkpt>
<trkpt lat="55.934971" lon="26.475910">
<ele>103.098694</ele>
<time>2010-08-29T17:21:02Z</time>
<desc>lat.=55.934971, lon.=26.475910, Alt.=103.098694m. Speed=16.271999m/h.</desc>
<speed>4.520000</speed>
</trkpt>
<trkpt lat="55.934933" lon="26.475933">
<ele>102.846741</ele>
<time>2010-08-29T17:21:03Z</time>
<desc>lat.=55.934933, lon.=26.475933, Alt.=102.846741m. Speed=12.456000m/h.</desc>
<speed>3.460000</speed>
</trkpt>
<trkpt lat="55.934887" lon="26.475948">
<ele>103.295959</ele>
<time>2010-08-29T17:21:04Z</time>
<desc>lat.=55.934887, lon.=26.475948, Alt.=103.295959m. Speed=13.356000m/h.</desc>
<speed>3.710000</speed>
</trkpt>
<trkpt lat="55.934849" lon="26.475969">
<ele>103.592834</ele>
<time>2010-08-29T17:21:05Z</time>
<desc>lat.=55.934849, lon.=26.475969, Alt.=103.592834m. Speed=12.132000m/h.</desc>
<speed>3.370000</speed>
</trkpt>
<trkpt lat="55.934811" lon="26.475990">
<ele>103.733459</ele>
<time>2010-08-29T17:21:06Z</time>
<desc>lat.=55.934811, lon.=26.475990, Alt.=103.733459m. Speed=14.580000m/h.</desc>
<speed>4.050000</speed>
</trkpt>
<trkpt lat="55.934769" lon="26.476011">
<ele>103.315491</ele>
<time>2010-08-29T17:21:07Z</time>
<desc>lat.=55.934769, lon.=26.476011, Alt.=103.315491m. Speed=12.384000m/h.</desc>
<speed>3.440000</speed>
</trkpt>
<trkpt lat="55.934734" lon="26.476027">
<ele>103.422913</ele>
<time>2010-08-29T17:21:08Z</time>
<desc>lat.=55.934734, lon.=26.476027, Alt.=103.422913m. Speed=13.428000m/h.</desc>
<speed>3.730000</speed>
</trkpt>
<trkpt lat="55.934700" lon="26.476042">
<ele>103.329163</ele>
<time>2010-08-29T17:21:09Z</time>
<desc>lat.=55.934700, lon.=26.476042, Alt.=103.329163m. Speed=14.940000m/h.</desc>
<speed>4.150000</speed>
</trkpt>
<trkpt lat="55.934647" lon="26.476067">
<ele>102.836975</ele>
<time>2010-08-29T17:21:10Z</time>
<desc>lat.=55.934647, lon.=26.476067, Alt.=102.836975m. Speed=12.600000m/h.</desc>
<speed>3.500000</speed>
</trkpt>
<trkpt lat="55.934593" lon="26.476082">
<ele>103.112366</ele>
<time>2010-08-29T17:21:11Z</time>
<desc>lat.=55.934593, lon.=26.476082, Alt.=103.112366m. Speed=14.616000m/h.</desc>
<speed>4.060000</speed>
</trkpt>
<trkpt lat="55.934551" lon="26.476089">
<ele>102.600647</ele>
<time>2010-08-29T17:21:12Z</time>
<desc>lat.=55.934551, lon.=26.476089, Alt.=102.600647m. Speed=9.468000m/h.</desc>
<speed>2.630000</speed>
</trkpt>
<trkpt lat="55.934505" lon="26.476114">
<ele>102.678772</ele>
<time>2010-08-29T17:21:13Z</time>
<desc>lat.=55.934505, lon.=26.476114, Alt.=102.678772m. Speed=13.860000m/h.</desc>
<speed>3.850000</speed>
</trkpt>
<trkpt lat="55.934456" lon="26.476143">
<ele>102.346741</ele>
<time>2010-08-29T17:21:14Z</time>
<desc>lat.=55.934456, lon.=26.476143, Alt.=102.346741m. Speed=15.912000m/h.</desc>
<speed>4.420000</speed>
</trkpt>
<trkpt lat="55.934402" lon="26.476171">
<ele>102.915100</ele>
<time>2010-08-29T17:21:15Z</time>
<desc>lat.=55.934402, lon.=26.476171, Alt.=102.915100m. Speed=20.520000m/h.</desc>
<speed>5.700000</speed>
</trkpt>
<trkpt lat="55.934330" lon="26.476200">
<ele>103.782288</ele>
<time>2010-08-29T17:21:16Z</time>
<desc>lat.=55.934330, lon.=26.476200, Alt.=103.782288m. Speed=19.691999m/h.</desc>
<speed>5.470000</speed>
</trkpt>
<trkpt lat="55.934273" lon="26.476219">
<ele>103.813538</ele>
<time>2010-08-29T17:21:17Z</time>
<desc>lat.=55.934273, lon.=26.476219, Alt.=103.813538m. Speed=17.280001m/h.</desc>
<speed>4.800000</speed>
</trkpt>
<trkpt lat="55.934223" lon="26.476250">
<ele>104.905334</ele>
<time>2010-08-29T17:21:18Z</time>
<desc>lat.=55.934223, lon.=26.476250, Alt.=104.905334m. Speed=13.104000m/h.</desc>
<speed>3.640000</speed>
</trkpt>
<trkpt lat="55.934158" lon="26.476273">
<ele>103.557678</ele>
<time>2010-08-29T17:21:19Z</time>
<desc>lat.=55.934158, lon.=26.476273, Alt.=103.557678m. Speed=16.920000m/h.</desc>
<speed>4.700000</speed>
</trkpt>
<trkpt lat="55.934113" lon="26.476301">
<ele>104.586975</ele>
<time>2010-08-29T17:21:20Z</time>
<desc>lat.=55.934113, lon.=26.476301, Alt.=104.586975m. Speed=15.768000m/h.</desc>
<speed>4.380000</speed>
</trkpt>
<trkpt lat="55.934067" lon="26.476330">
<ele>105.077209</ele>
<time>2010-08-29T17:21:21Z</time>
<desc>lat.=55.934067, lon.=26.476330, Alt.=105.077209m. Speed=14.724000m/h.</desc>
<speed>4.090000</speed>
</trkpt>
<trkpt lat="55.934017" lon="26.476360">
<ele>106.743225</ele>
<time>2010-08-29T17:21:22Z</time>
<desc>lat.=55.934017, lon.=26.476360, Alt.=106.743225m. Speed=14.400000m/h.</desc>
<speed>4.000000</speed>
</trkpt>
<trkpt lat="55.933964" lon="26.476402">
<ele>107.483459</ele>
<time>2010-08-29T17:21:23Z</time>
<desc>lat.=55.933964, lon.=26.476402, Alt.=107.483459m. Speed=15.336000m/h.</desc>
<speed>4.260000</speed>
</trkpt>
<trkpt lat="55.933910" lon="26.476418">
<ele>105.733459</ele>
<time>2010-08-29T17:21:24Z</time>
<desc>lat.=55.933910, lon.=26.476418, Alt.=105.733459m. Speed=18.792000m/h.</desc>
<speed>5.220000</speed>
</trkpt>
<trkpt lat="55.933861" lon="26.476440">
<ele>105.608459</ele>
<time>2010-08-29T17:21:25Z</time>
<desc>lat.=55.933861, lon.=26.476440, Alt.=105.608459m. Speed=15.876000m/h.</desc>
<speed>4.410000</speed>
</trkpt>
<trkpt lat="55.933823" lon="26.476475">
<ele>104.645569</ele>
<time>2010-08-29T17:21:26Z</time>
<desc>lat.=55.933823, lon.=26.476475, Alt.=104.645569m. Speed=14.940000m/h.</desc>
<speed>4.150000</speed>
</trkpt>
<trkpt lat="55.933777" lon="26.476505">
<ele>104.100647</ele>
<time>2010-08-29T17:21:27Z</time>
<desc>lat.=55.933777, lon.=26.476505, Alt.=104.100647m. Speed=16.308001m/h.</desc>
<speed>4.530000</speed>
</trkpt>
<trkpt lat="55.933723" lon="26.476543">
<ele>105.069397</ele>
<time>2010-08-29T17:21:28Z</time>
<desc>lat.=55.933723, lon.=26.476543, Alt.=105.069397m. Speed=17.676001m/h.</desc>
<speed>4.910000</speed>
</trkpt>
<trkpt lat="55.933681" lon="26.476564">
<ele>105.458069</ele>
<time>2010-08-29T17:21:29Z</time>
<desc>lat.=55.933681, lon.=26.476564, Alt.=105.458069m. Speed=15.156000m/h.</desc>
<speed>4.210000</speed>
</trkpt>
<trkpt lat="55.933640" lon="26.476582">
<ele>105.430725</ele>
<time>2010-08-29T17:21:30Z</time>
<desc>lat.=55.933640, lon.=26.476582, Alt.=105.430725m. Speed=14.220000m/h.</desc>
<speed>3.950000</speed>
</trkpt>
<trkpt lat="55.933590" lon="26.476606">
<ele>104.967834</ele>
<time>2010-08-29T17:21:31Z</time>
<desc>lat.=55.933590, lon.=26.476606, Alt.=104.967834m. Speed=14.760000m/h.</desc>
<speed>4.100000</speed>
</trkpt>
<trkpt lat="55.933537" lon="26.476627">
<ele>105.055725</ele>
<time>2010-08-29T17:21:32Z</time>
<desc>lat.=55.933537, lon.=26.476627, Alt.=105.055725m. Speed=16.848000m/h.</desc>
<speed>4.680000</speed>
</trkpt>
<trkpt lat="55.933472" lon="26.476656">
<ele>105.001038</ele>
<time>2010-08-29T17:21:33Z</time>
<desc>lat.=55.933472, lon.=26.476656, Alt.=105.001038m. Speed=19.007999m/h.</desc>
<speed>5.280000</speed>
</trkpt>
<trkpt lat="55.933411" lon="26.476683">
<ele>106.223694</ele>
<time>2010-08-29T17:21:34Z</time>
<desc>lat.=55.933411, lon.=26.476683, Alt.=106.223694m. Speed=18.323999m/h.</desc>
<speed>5.090000</speed>
</trkpt>
<trkpt lat="55.933350" lon="26.476713">
<ele>106.249084</ele>
<time>2010-08-29T17:21:35Z</time>
<desc>lat.=55.933350, lon.=26.476713, Alt.=106.249084m. Speed=17.388000m/h.</desc>
<speed>4.830000</speed>
</trkpt>
<trkpt lat="55.933281" lon="26.476753">
<ele>106.516663</ele>
<time>2010-08-29T17:21:36Z</time>
<desc>lat.=55.933281, lon.=26.476753, Alt.=106.516663m. Speed=21.851999m/h.</desc>
<speed>6.070000</speed>
</trkpt>
<trkpt lat="55.933228" lon="26.476789">
<ele>106.309631</ele>
<time>2010-08-29T17:21:37Z</time>
<desc>lat.=55.933228, lon.=26.476789, Alt.=106.309631m. Speed=16.200001m/h.</desc>
<speed>4.500000</speed>
</trkpt>
<trkpt lat="55.933178" lon="26.476810">
<ele>107.176819</ele>
<time>2010-08-29T17:21:38Z</time>
<desc>lat.=55.933178, lon.=26.476810, Alt.=107.176819m. Speed=16.091999m/h.</desc>
<speed>4.470000</speed>
</trkpt>
<trkpt lat="55.933136" lon="26.476826">
<ele>108.001038</ele>
<time>2010-08-29T17:21:39Z</time>
<desc>lat.=55.933136, lon.=26.476826, Alt.=108.001038m. Speed=13.284000m/h.</desc>
<speed>3.690000</speed>
</trkpt>
<trkpt lat="55.933098" lon="26.476837">
<ele>108.377991</ele>
<time>2010-08-29T17:21:40Z</time>
<desc>lat.=55.933098, lon.=26.476837, Alt.=108.377991m. Speed=9.216000m/h.</desc>
<speed>2.560000</speed>
</trkpt>
<trkpt lat="55.933067" lon="26.476852">
<ele>109.356506</ele>
<time>2010-08-29T17:21:41Z</time>
<desc>lat.=55.933067, lon.=26.476852, Alt.=109.356506m. Speed=8.136000m/h.</desc>
<speed>2.260000</speed>
</trkpt>
<trkpt lat="55.933033" lon="26.476871">
<ele>111.170959</ele>
<time>2010-08-29T17:21:42Z</time>
<desc>lat.=55.933033, lon.=26.476871, Alt.=111.170959m. Speed=10.116000m/h.</desc>
<speed>2.810000</speed>
</trkpt>
<trkpt lat="55.933002" lon="26.476883">
<ele>111.575256</ele>
<time>2010-08-29T17:21:43Z</time>
<desc>lat.=55.933002, lon.=26.476883, Alt.=111.575256m. Speed=8.532000m/h.</desc>
<speed>2.370000</speed>
</trkpt>
<trkpt lat="55.932972" lon="26.476892">
<ele>111.838928</ele>
<time>2010-08-29T17:21:44Z</time>
<desc>lat.=55.932972, lon.=26.476892, Alt.=111.838928m. Speed=7.740000m/h.</desc>
<speed>2.150000</speed>
</trkpt>
<trkpt lat="55.932930" lon="26.476898">
<ele>110.284241</ele>
<time>2010-08-29T17:21:45Z</time>
<desc>lat.=55.932930, lon.=26.476898, Alt.=110.284241m. Speed=9.684000m/h.</desc>
<speed>2.690000</speed>
</trkpt>
<trkpt lat="55.932892" lon="26.476917">
<ele>109.163147</ele>
<time>2010-08-29T17:21:46Z</time>
<desc>lat.=55.932892, lon.=26.476917, Alt.=109.163147m. Speed=10.908000m/h.</desc>
<speed>3.030000</speed>
</trkpt>
<trkpt lat="55.932854" lon="26.476940">
<ele>108.840881</ele>
<time>2010-08-29T17:21:47Z</time>
<desc>lat.=55.932854, lon.=26.476940, Alt.=108.840881m. Speed=9.720000m/h.</desc>
<speed>2.700000</speed>
</trkpt>
<trkpt lat="55.932812" lon="26.476961">
<ele>108.836975</ele>
<time>2010-08-29T17:21:48Z</time>
<desc>lat.=55.932812, lon.=26.476961, Alt.=108.836975m. Speed=11.628000m/h.</desc>
<speed>3.230000</speed>
</trkpt>
<trkpt lat="55.932781" lon="26.476969">
<ele>108.608459</ele>
<time>2010-08-29T17:21:49Z</time>
<desc>lat.=55.932781, lon.=26.476969, Alt.=108.608459m. Speed=13.140000m/h.</desc>
<speed>3.650000</speed>
</trkpt>
<trkpt lat="55.932739" lon="26.476994">
<ele>106.825256</ele>
<time>2010-08-29T17:21:50Z</time>
<desc>lat.=55.932739, lon.=26.476994, Alt.=106.825256m. Speed=11.844000m/h.</desc>
<speed>3.290000</speed>
</trkpt>
<trkpt lat="55.932705" lon="26.477013">
<ele>106.438538</ele>
<time>2010-08-29T17:21:51Z</time>
<desc>lat.=55.932705, lon.=26.477013, Alt.=106.438538m. Speed=9.360000m/h.</desc>
<speed>2.600000</speed>
</trkpt>
<trkpt lat="55.932671" lon="26.477028">
<ele>105.946350</ele>
<time>2010-08-29T17:21:52Z</time>
<desc>lat.=55.932671, lon.=26.477028, Alt.=105.946350m. Speed=9.288000m/h.</desc>
<speed>2.580000</speed>
</trkpt>
<trkpt lat="55.932632" lon="26.477039">
<ele>106.295959</ele>
<time>2010-08-29T17:21:53Z</time>
<desc>lat.=55.932632, lon.=26.477039, Alt.=106.295959m. Speed=8.244000m/h.</desc>
<speed>2.290000</speed>
</trkpt>
<trkpt lat="55.932587" lon="26.477057">
<ele>106.143616</ele>
<time>2010-08-29T17:21:54Z</time>
<desc>lat.=55.932587, lon.=26.477057, Alt.=106.143616m. Speed=9.216000m/h.</desc>
<speed>2.560000</speed>
</trkpt>
<trkpt lat="55.932564" lon="26.477060">
<ele>105.649475</ele>
<time>2010-08-29T17:21:55Z</time>
<desc>lat.=55.932564, lon.=26.477060, Alt.=105.649475m. Speed=11.448000m/h.</desc>
<speed>3.180000</speed>
</trkpt>
<trkpt lat="55.932537" lon="26.477068">
<ele>105.032288</ele>
<time>2010-08-29T17:21:56Z</time>
<desc>lat.=55.932537, lon.=26.477068, Alt.=105.032288m. Speed=11.592000m/h.</desc>
<speed>3.220000</speed>
</trkpt>
<trkpt lat="55.932499" lon="26.477083">
<ele>104.575256</ele>
<time>2010-08-29T17:21:57Z</time>
<desc>lat.=55.932499, lon.=26.477083, Alt.=104.575256m. Speed=10.008000m/h.</desc>
<speed>2.780000</speed>
</trkpt>
<trkpt lat="55.932442" lon="26.477116">
<ele>103.327209</ele>
<time>2010-08-29T17:21:58Z</time>
<desc>lat.=55.932442, lon.=26.477116, Alt.=103.327209m. Speed=10.044000m/h.</desc>
<speed>2.790000</speed>
</trkpt>
<trkpt lat="55.932407" lon="26.477140">
<ele>103.424866</ele>
<time>2010-08-29T17:21:59Z</time>
<desc>lat.=55.932407, lon.=26.477140, Alt.=103.424866m. Speed=11.484000m/h.</desc>
<speed>3.190000</speed>
</trkpt>
<trkpt lat="55.932377" lon="26.477154">
<ele>102.950256</ele>
<time>2010-08-29T17:22:00Z</time>
<desc>lat.=55.932377, lon.=26.477154, Alt.=102.950256m. Speed=11.664000m/h.</desc>
<speed>3.240000</speed>
</trkpt>
<trkpt lat="55.932335" lon="26.477175">
<ele>102.893616</ele>
<time>2010-08-29T17:22:01Z</time>
<desc>lat.=55.932335, lon.=26.477175, Alt.=102.893616m. Speed=10.548000m/h.</desc>
<speed>2.930000</speed>
</trkpt>
<trkpt lat="55.932308" lon="26.477180">
<ele>102.399475</ele>
<time>2010-08-29T17:22:02Z</time>
<desc>lat.=55.932308, lon.=26.477180, Alt.=102.399475m. Speed=11.772000m/h.</desc>
<speed>3.270000</speed>
</trkpt>
<trkpt lat="55.932270" lon="26.477201">
<ele>102.409241</ele>
<time>2010-08-29T17:22:03Z</time>
<desc>lat.=55.932270, lon.=26.477201, Alt.=102.409241m. Speed=13.140000m/h.</desc>
<speed>3.650000</speed>
</trkpt>
<trkpt lat="55.932228" lon="26.477217">
<ele>103.377991</ele>
<time>2010-08-29T17:22:04Z</time>
<desc>lat.=55.932228, lon.=26.477217, Alt.=103.377991m. Speed=11.808000m/h.</desc>
<speed>3.280000</speed>
</trkpt>
<trkpt lat="55.932182" lon="26.477234">
<ele>104.092834</ele>
<time>2010-08-29T17:22:05Z</time>
<desc>lat.=55.932182, lon.=26.477234, Alt.=104.092834m. Speed=14.904000m/h.</desc>
<speed>4.140000</speed>
</trkpt>
<trkpt lat="55.932140" lon="26.477261">
<ele>104.782288</ele>
<time>2010-08-29T17:22:06Z</time>
<desc>lat.=55.932140, lon.=26.477261, Alt.=104.782288m. Speed=13.932000m/h.</desc>
<speed>3.870000</speed>
</trkpt>
<trkpt lat="55.932098" lon="26.477278">
<ele>105.090881</ele>
<time>2010-08-29T17:22:07Z</time>
<desc>lat.=55.932098, lon.=26.477278, Alt.=105.090881m. Speed=12.564000m/h.</desc>
<speed>3.490000</speed>
</trkpt>
<trkpt lat="55.932068" lon="26.477295">
<ele>105.038147</ele>
<time>2010-08-29T17:22:08Z</time>
<desc>lat.=55.932068, lon.=26.477295, Alt.=105.038147m. Speed=14.508000m/h.</desc>
<speed>4.030000</speed>
</trkpt>
<trkpt lat="55.932022" lon="26.477308">
<ele>105.336975</ele>
<time>2010-08-29T17:22:09Z</time>
<desc>lat.=55.932022, lon.=26.477308, Alt.=105.336975m. Speed=13.320000m/h.</desc>
<speed>3.700000</speed>
</trkpt>
<trkpt lat="55.931980" lon="26.477329">
<ele>105.254944</ele>
<time>2010-08-29T17:22:10Z</time>
<desc>lat.=55.931980, lon.=26.477329, Alt.=105.254944m. Speed=13.896000m/h.</desc>
<speed>3.860000</speed>
</trkpt>
<trkpt lat="55.931946" lon="26.477343">
<ele>105.202209</ele>
<time>2010-08-29T17:22:11Z</time>
<desc>lat.=55.931946, lon.=26.477343, Alt.=105.202209m. Speed=13.212000m/h.</desc>
<speed>3.670000</speed>
</trkpt>
<trkpt lat="55.931904" lon="26.477367">
<ele>105.364319</ele>
<time>2010-08-29T17:22:12Z</time>
<desc>lat.=55.931904, lon.=26.477367, Alt.=105.364319m. Speed=16.848000m/h.</desc>
<speed>4.680000</speed>
</trkpt>
<trkpt lat="55.931862" lon="26.477386">
<ele>105.200256</ele>
<time>2010-08-29T17:22:13Z</time>
<desc>lat.=55.931862, lon.=26.477386, Alt.=105.200256m. Speed=12.204000m/h.</desc>
<speed>3.390000</speed>
</trkpt>
<trkpt lat="55.931820" lon="26.477407">
<ele>105.153381</ele>
<time>2010-08-29T17:22:14Z</time>
<desc>lat.=55.931820, lon.=26.477407, Alt.=105.153381m. Speed=13.896000m/h.</desc>
<speed>3.860000</speed>
</trkpt>
<trkpt lat="55.931763" lon="26.477427">
<ele>105.835022</ele>
<time>2010-08-29T17:22:15Z</time>
<desc>lat.=55.931763, lon.=26.477427, Alt.=105.835022m. Speed=14.940000m/h.</desc>
<speed>4.150000</speed>
</trkpt>
<trkpt lat="55.931717" lon="26.477448">
<ele>106.282288</ele>
<time>2010-08-29T17:22:16Z</time>
<desc>lat.=55.931717, lon.=26.477448, Alt.=106.282288m. Speed=12.384000m/h.</desc>
<speed>3.440000</speed>
</trkpt>
<trkpt lat="55.931675" lon="26.477478">
<ele>106.897522</ele>
<time>2010-08-29T17:22:17Z</time>
<desc>lat.=55.931675, lon.=26.477478, Alt.=106.897522m. Speed=13.068000m/h.</desc>
<speed>3.630000</speed>
</trkpt>
<trkpt lat="55.931629" lon="26.477499">
<ele>107.309631</ele>
<time>2010-08-29T17:22:18Z</time>
<desc>lat.=55.931629, lon.=26.477499, Alt.=107.309631m. Speed=14.508000m/h.</desc>
<speed>4.030000</speed>
</trkpt>
<trkpt lat="55.931538" lon="26.477524">
<ele>107.329163</ele>
<time>2010-08-29T17:22:19Z</time>
<desc>lat.=55.931538, lon.=26.477524, Alt.=107.329163m. Speed=16.200001m/h.</desc>
<speed>4.500000</speed>
</trkpt>
<trkpt lat="55.931496" lon="26.477545">
<ele>107.083069</ele>
<time>2010-08-29T17:22:20Z</time>
<desc>lat.=55.931496, lon.=26.477545, Alt.=107.083069m. Speed=12.744000m/h.</desc>
<speed>3.540000</speed>
</trkpt>
<trkpt lat="55.931442" lon="26.477571">
<ele>106.823303</ele>
<time>2010-08-29T17:22:21Z</time>
<desc>lat.=55.931442, lon.=26.477571, Alt.=106.823303m. Speed=15.048000m/h.</desc>
<speed>4.180000</speed>
</trkpt>
<trkpt lat="55.931408" lon="26.477589">
<ele>106.735413</ele>
<time>2010-08-29T17:22:22Z</time>
<desc>lat.=55.931408, lon.=26.477589, Alt.=106.735413m. Speed=11.664000m/h.</desc>
<speed>3.240000</speed>
</trkpt>
<trkpt lat="55.931355" lon="26.477602">
<ele>108.186584</ele>
<time>2010-08-29T17:22:23Z</time>
<desc>lat.=55.931355, lon.=26.477602, Alt.=108.186584m. Speed=10.296000m/h.</desc>
<speed>2.860000</speed>
</trkpt>
<trkpt lat="55.931309" lon="26.477619">
<ele>108.053772</ele>
<time>2010-08-29T17:22:24Z</time>
<desc>lat.=55.931309, lon.=26.477619, Alt.=108.053772m. Speed=12.708000m/h.</desc>
<speed>3.530000</speed>
</trkpt>
<trkpt lat="55.931248" lon="26.477648">
<ele>108.559631</ele>
<time>2010-08-29T17:22:25Z</time>
<desc>lat.=55.931248, lon.=26.477648, Alt.=108.559631m. Speed=9.468000m/h.</desc>
<speed>2.630000</speed>
</trkpt>
<trkpt lat="55.931210" lon="26.477665">
<ele>108.202209</ele>
<time>2010-08-29T17:22:26Z</time>
<desc>lat.=55.931210, lon.=26.477665, Alt.=108.202209m. Speed=9.900000m/h.</desc>
<speed>2.750000</speed>
</trkpt>
<trkpt lat="55.931175" lon="26.477686">
<ele>107.721741</ele>
<time>2010-08-29T17:22:27Z</time>
<desc>lat.=55.931175, lon.=26.477686, Alt.=107.721741m. Speed=8.064000m/h.</desc>
<speed>2.240000</speed>
</trkpt>
<trkpt lat="55.931114" lon="26.477711">
<ele>107.702209</ele>
<time>2010-08-29T17:22:28Z</time>
<desc>lat.=55.931114, lon.=26.477711, Alt.=107.702209m. Speed=7.920000m/h.</desc>
<speed>2.200000</speed>
</trkpt>
<trkpt lat="55.931065" lon="26.477745">
<ele>107.413147</ele>
<time>2010-08-29T17:22:29Z</time>
<desc>lat.=55.931065, lon.=26.477745, Alt.=107.413147m. Speed=9.360000m/h.</desc>
<speed>2.600000</speed>
</trkpt>
<trkpt lat="55.931015" lon="26.477768">
<ele>107.575256</ele>
<time>2010-08-29T17:22:30Z</time>
<desc>lat.=55.931015, lon.=26.477768, Alt.=107.575256m. Speed=8.928000m/h.</desc>
<speed>2.480000</speed>
</trkpt>
<trkpt lat="55.930981" lon="26.477787">
<ele>108.061584</ele>
<time>2010-08-29T17:22:31Z</time>
<desc>lat.=55.930981, lon.=26.477787, Alt.=108.061584m. Speed=11.520000m/h.</desc>
<speed>3.200000</speed>
</trkpt>
<trkpt lat="55.930943" lon="26.477804">
<ele>107.696350</ele>
<time>2010-08-29T17:22:32Z</time>
<desc>lat.=55.930943, lon.=26.477804, Alt.=107.696350m. Speed=12.024000m/h.</desc>
<speed>3.340000</speed>
</trkpt>
<trkpt lat="55.930908" lon="26.477812">
<ele>108.483459</ele>
<time>2010-08-29T17:22:33Z</time>
<desc>lat.=55.930908, lon.=26.477812, Alt.=108.483459m. Speed=10.008000m/h.</desc>
<speed>2.780000</speed>
</trkpt>
<trkpt lat="55.930878" lon="26.477818">
<ele>108.170959</ele>
<time>2010-08-29T17:22:34Z</time>
<desc>lat.=55.930878, lon.=26.477818, Alt.=108.170959m. Speed=9.468000m/h.</desc>
<speed>2.630000</speed>
</trkpt>
<trkpt lat="55.930847" lon="26.477833">
<ele>107.329163</ele>
<time>2010-08-29T17:22:35Z</time>
<desc>lat.=55.930847, lon.=26.477833, Alt.=107.329163m. Speed=9.576000m/h.</desc>
<speed>2.660000</speed>
</trkpt>
<trkpt lat="55.930809" lon="26.477852">
<ele>107.049866</ele>
<time>2010-08-29T17:22:36Z</time>
<desc>lat.=55.930809, lon.=26.477852, Alt.=107.049866m. Speed=9.432000m/h.</desc>
<speed>2.620000</speed>
</trkpt>
<trkpt lat="55.930786" lon="26.477867">
<ele>107.020569</ele>
<time>2010-08-29T17:22:37Z</time>
<desc>lat.=55.930786, lon.=26.477867, Alt.=107.020569m. Speed=8.460000m/h.</desc>
<speed>2.350000</speed>
</trkpt>
<trkpt lat="55.930744" lon="26.477886">
<ele>107.901428</ele>
<time>2010-08-29T17:22:38Z</time>
<desc>lat.=55.930744, lon.=26.477886, Alt.=107.901428m. Speed=11.016000m/h.</desc>
<speed>3.060000</speed>
</trkpt>
<trkpt lat="55.930691" lon="26.477900">
<ele>108.606506</ele>
<time>2010-08-29T17:22:39Z</time>
<desc>lat.=55.930691, lon.=26.477900, Alt.=108.606506m. Speed=8.820000m/h.</desc>
<speed>2.450000</speed>
</trkpt>
<trkpt lat="55.930653" lon="26.477915">
<ele>108.258850</ele>
<time>2010-08-29T17:22:40Z</time>
<desc>lat.=55.930653, lon.=26.477915, Alt.=108.258850m. Speed=10.620000m/h.</desc>
<speed>2.950000</speed>
</trkpt>
<trkpt lat="55.930576" lon="26.477955">
<ele>105.483459</ele>
<time>2010-08-29T17:22:41Z</time>
<desc>lat.=55.930576, lon.=26.477955, Alt.=105.483459m. Speed=9.756000m/h.</desc>
<speed>2.710000</speed>
</trkpt>
<trkpt lat="55.930447" lon="26.477959">
<ele>104.254944</ele>
<time>2010-08-29T17:22:42Z</time>
<desc>lat.=55.930447, lon.=26.477959, Alt.=104.254944m. Speed=13.680000m/h.</desc>
<speed>3.800000</speed>
</trkpt>
<trkpt lat="55.930397" lon="26.477974">
<ele>104.501038</ele>
<time>2010-08-29T17:22:43Z</time>
<desc>lat.=55.930397, lon.=26.477974, Alt.=104.501038m. Speed=13.068000m/h.</desc>
<speed>3.630000</speed>
</trkpt>
<trkpt lat="55.930340" lon="26.477999">
<ele>105.336975</ele>
<time>2010-08-29T17:22:44Z</time>
<desc>lat.=55.930340, lon.=26.477999, Alt.=105.336975m. Speed=14.040000m/h.</desc>
<speed>3.900000</speed>
</trkpt>
<trkpt lat="55.930305" lon="26.478012">
<ele>105.251038</ele>
<time>2010-08-29T17:22:45Z</time>
<desc>lat.=55.930305, lon.=26.478012, Alt.=105.251038m. Speed=13.104000m/h.</desc>
<speed>3.640000</speed>
</trkpt>
<trkpt lat="55.930275" lon="26.478031">
<ele>105.071350</ele>
<time>2010-08-29T17:22:46Z</time>
<desc>lat.=55.930275, lon.=26.478031, Alt.=105.071350m. Speed=12.096000m/h.</desc>
<speed>3.360000</speed>
</trkpt>
<trkpt lat="55.930248" lon="26.478048">
<ele>104.934631</ele>
<time>2010-08-29T17:22:47Z</time>
<desc>lat.=55.930248, lon.=26.478048, Alt.=104.934631m. Speed=11.340000m/h.</desc>
<speed>3.150000</speed>
</trkpt>
<trkpt lat="55.930195" lon="26.478077">
<ele>106.450256</ele>
<time>2010-08-29T17:22:48Z</time>
<desc>lat.=55.930195, lon.=26.478077, Alt.=106.450256m. Speed=12.384000m/h.</desc>
<speed>3.440000</speed>
</trkpt>
<trkpt lat="55.930134" lon="26.478130">
<ele>106.176819</ele>
<time>2010-08-29T17:22:49Z</time>
<desc>lat.=55.930134, lon.=26.478130, Alt.=106.176819m. Speed=9.540000m/h.</desc>
<speed>2.650000</speed>
</trkpt>
<trkpt lat="55.930088" lon="26.478168">
<ele>108.122131</ele>
<time>2010-08-29T17:22:50Z</time>
<desc>lat.=55.930088, lon.=26.478168, Alt.=108.122131m. Speed=8.172000m/h.</desc>
<speed>2.270000</speed>
</trkpt>
<trkpt lat="55.930019" lon="26.478205">
<ele>107.784241</ele>
<time>2010-08-29T17:22:51Z</time>
<desc>lat.=55.930019, lon.=26.478205, Alt.=107.784241m. Speed=9.612000m/h.</desc>
<speed>2.670000</speed>
</trkpt>
<trkpt lat="55.929966" lon="26.478237">
<ele>107.551819</ele>
<time>2010-08-29T17:22:52Z</time>
<desc>lat.=55.929966, lon.=26.478237, Alt.=107.551819m. Speed=9.180000m/h.</desc>
<speed>2.550000</speed>
</trkpt>
<trkpt lat="55.929913" lon="26.478256">
<ele>107.555725</ele>
<time>2010-08-29T17:22:53Z</time>
<desc>lat.=55.929913, lon.=26.478256, Alt.=107.555725m. Speed=9.432000m/h.</desc>
<speed>2.620000</speed>
</trkpt>
<trkpt lat="55.929863" lon="26.478277">
<ele>108.065491</ele>
<time>2010-08-29T17:22:54Z</time>
<desc>lat.=55.929863, lon.=26.478277, Alt.=108.065491m. Speed=9.720000m/h.</desc>
<speed>2.700000</speed>
</trkpt>
<trkpt lat="55.929817" lon="26.478298">
<ele>108.752991</ele>
<time>2010-08-29T17:22:55Z</time>
<desc>lat.=55.929817, lon.=26.478298, Alt.=108.752991m. Speed=7.632000m/h.</desc>
<speed>2.120000</speed>
</trkpt>
<trkpt lat="55.929779" lon="26.478312">
<ele>108.631897</ele>
<time>2010-08-29T17:22:56Z</time>
<desc>lat.=55.929779, lon.=26.478312, Alt.=108.631897m. Speed=7.236000m/h.</desc>
<speed>2.010000</speed>
</trkpt>
<trkpt lat="55.929729" lon="26.478331">
<ele>108.323303</ele>
<time>2010-08-29T17:22:57Z</time>
<desc>lat.=55.929729, lon.=26.478331, Alt.=108.323303m. Speed=9.144000m/h.</desc>
<speed>2.540000</speed>
</trkpt>
<trkpt lat="55.929695" lon="26.478340">
<ele>108.598694</ele>
<time>2010-08-29T17:22:58Z</time>
<desc>lat.=55.929695, lon.=26.478340, Alt.=108.598694m. Speed=8.532000m/h.</desc>
<speed>2.370000</speed>
</trkpt>
<trkpt lat="55.929661" lon="26.478357">
<ele>106.751038</ele>
<time>2010-08-29T17:22:59Z</time>
<desc>lat.=55.929661, lon.=26.478357, Alt.=106.751038m. Speed=8.712000m/h.</desc>
<speed>2.420000</speed>
</trkpt>
<trkpt lat="55.929623" lon="26.478374">
<ele>106.723694</ele>
<time>2010-08-29T17:23:00Z</time>
<desc>lat.=55.929623, lon.=26.478374, Alt.=106.723694m. Speed=10.080000m/h.</desc>
<speed>2.800000</speed>
</trkpt>
<trkpt lat="55.929588" lon="26.478388">
<ele>106.618225</ele>
<time>2010-08-29T17:23:01Z</time>
<desc>lat.=55.929588, lon.=26.478388, Alt.=106.618225m. Speed=9.468000m/h.</desc>
<speed>2.630000</speed>
</trkpt>
<trkpt lat="55.929550" lon="26.478405">
<ele>106.665100</ele>
<time>2010-08-29T17:23:02Z</time>
<desc>lat.=55.929550, lon.=26.478405, Alt.=106.665100m. Speed=9.324000m/h.</desc>
<speed>2.590000</speed>
</trkpt>
<trkpt lat="55.929493" lon="26.478430">
<ele>106.303772</ele>
<time>2010-08-29T17:23:03Z</time>
<desc>lat.=55.929493, lon.=26.478430, Alt.=106.303772m. Speed=14.544000m/h.</desc>
<speed>4.040000</speed>
</trkpt>
<trkpt lat="55.929443" lon="26.478455">
<ele>105.553772</ele>
<time>2010-08-29T17:23:04Z</time>
<desc>lat.=55.929443, lon.=26.478455, Alt.=105.553772m. Speed=12.888000m/h.</desc>
<speed>3.580000</speed>
</trkpt>
<trkpt lat="55.929405" lon="26.478477">
<ele>106.411194</ele>
<time>2010-08-29T17:23:05Z</time>
<desc>lat.=55.929405, lon.=26.478477, Alt.=106.411194m. Speed=11.016000m/h.</desc>
<speed>3.060000</speed>
</trkpt>
<trkpt lat="55.929379" lon="26.478487">
<ele>106.270569</ele>
<time>2010-08-29T17:23:06Z</time>
<desc>lat.=55.929379, lon.=26.478487, Alt.=106.270569m. Speed=7.452000m/h.</desc>
<speed>2.070000</speed>
</trkpt>
<trkpt lat="55.929337" lon="26.478504">
<ele>105.782288</ele>
<time>2010-08-29T17:23:07Z</time>
<desc>lat.=55.929337, lon.=26.478504, Alt.=105.782288m. Speed=10.080000m/h.</desc>
<speed>2.800000</speed>
</trkpt>
<trkpt lat="55.929295" lon="26.478525">
<ele>106.565491</ele>
<time>2010-08-29T17:23:08Z</time>
<desc>lat.=55.929295, lon.=26.478525, Alt.=106.565491m. Speed=8.388000m/h.</desc>
<speed>2.330000</speed>
</trkpt>
<trkpt lat="55.929260" lon="26.478537">
<ele>105.780334</ele>
<time>2010-08-29T17:23:09Z</time>
<desc>lat.=55.929260, lon.=26.478537, Alt.=105.780334m. Speed=7.524000m/h.</desc>
<speed>2.090000</speed>
</trkpt>
<trkpt lat="55.929234" lon="26.478554">
<ele>106.340881</ele>
<time>2010-08-29T17:23:10Z</time>
<desc>lat.=55.929234, lon.=26.478554, Alt.=106.340881m. Speed=6.300000m/h.</desc>
<speed>1.750000</speed>
</trkpt>
<trkpt lat="55.929207" lon="26.478565">
<ele>106.667053</ele>
<time>2010-08-29T17:23:11Z</time>
<desc>lat.=55.929207, lon.=26.478565, Alt.=106.667053m. Speed=7.632000m/h.</desc>
<speed>2.120000</speed>
</trkpt>
<trkpt lat="55.929176" lon="26.478569">
<ele>106.684631</ele>
<time>2010-08-29T17:23:12Z</time>
<desc>lat.=55.929176, lon.=26.478569, Alt.=106.684631m. Speed=8.928000m/h.</desc>
<speed>2.480000</speed>
</trkpt>
<trkpt lat="55.929146" lon="26.478577">
<ele>106.942444</ele>
<time>2010-08-29T17:23:13Z</time>
<desc>lat.=55.929146, lon.=26.478577, Alt.=106.942444m. Speed=10.836000m/h.</desc>
<speed>3.010000</speed>
</trkpt>
<trkpt lat="55.929111" lon="26.478586">
<ele>107.217834</ele>
<time>2010-08-29T17:23:14Z</time>
<desc>lat.=55.929111, lon.=26.478586, Alt.=107.217834m. Speed=12.636000m/h.</desc>
<speed>3.510000</speed>
</trkpt>
<trkpt lat="55.929070" lon="26.478601">
<ele>107.071350</ele>
<time>2010-08-29T17:23:15Z</time>
<desc>lat.=55.929070, lon.=26.478601, Alt.=107.071350m. Speed=14.004000m/h.</desc>
<speed>3.890000</speed>
</trkpt>
<trkpt lat="55.929031" lon="26.478628">
<ele>107.338928</ele>
<time>2010-08-29T17:23:16Z</time>
<desc>lat.=55.929031, lon.=26.478628, Alt.=107.338928m. Speed=12.852000m/h.</desc>
<speed>3.570000</speed>
</trkpt>
<trkpt lat="55.928993" lon="26.478657">
<ele>107.784241</ele>
<time>2010-08-29T17:23:17Z</time>
<desc>lat.=55.928993, lon.=26.478657, Alt.=107.784241m. Speed=13.536000m/h.</desc>
<speed>3.760000</speed>
</trkpt>
<trkpt lat="55.928940" lon="26.478674">
<ele>108.471741</ele>
<time>2010-08-29T17:23:18Z</time>
<desc>lat.=55.928940, lon.=26.478674, Alt.=108.471741m. Speed=15.804000m/h.</desc>
<speed>4.390000</speed>
</trkpt>
<trkpt lat="55.928886" lon="26.478697">
<ele>108.297913</ele>
<time>2010-08-29T17:23:19Z</time>
<desc>lat.=55.928886, lon.=26.478697, Alt.=108.297913m. Speed=12.204000m/h.</desc>
<speed>3.390000</speed>
</trkpt>
<trkpt lat="55.928856" lon="26.478712">
<ele>108.139709</ele>
<time>2010-08-29T17:23:20Z</time>
<desc>lat.=55.928856, lon.=26.478712, Alt.=108.139709m. Speed=10.440000m/h.</desc>
<speed>2.900000</speed>
</trkpt>
<trkpt lat="55.928822" lon="26.478724">
<ele>108.690491</ele>
<time>2010-08-29T17:23:21Z</time>
<desc>lat.=55.928822, lon.=26.478724, Alt.=108.690491m. Speed=11.736000m/h.</desc>
<speed>3.260000</speed>
</trkpt>
<trkpt lat="55.928776" lon="26.478739">
<ele>108.313538</ele>
<time>2010-08-29T17:23:22Z</time>
<desc>lat.=55.928776, lon.=26.478739, Alt.=108.313538m. Speed=15.552000m/h.</desc>
<speed>4.320000</speed>
</trkpt>
<trkpt lat="55.928726" lon="26.478754">
<ele>108.379944</ele>
<time>2010-08-29T17:23:23Z</time>
<desc>lat.=55.928726, lon.=26.478754, Alt.=108.379944m. Speed=14.472000m/h.</desc>
<speed>4.020000</speed>
</trkpt>
<trkpt lat="55.928673" lon="26.478767">
<ele>108.085022</ele>
<time>2010-08-29T17:23:24Z</time>
<desc>lat.=55.928673, lon.=26.478767, Alt.=108.085022m. Speed=13.896000m/h.</desc>
<speed>3.860000</speed>
</trkpt>
<trkpt lat="55.928631" lon="26.478788">
<ele>107.387756</ele>
<time>2010-08-29T17:23:25Z</time>
<desc>lat.=55.928631, lon.=26.478788, Alt.=107.387756m. Speed=12.600000m/h.</desc>
<speed>3.500000</speed>
</trkpt>
<trkpt lat="55.928596" lon="26.478802">
<ele>107.118225</ele>
<time>2010-08-29T17:23:26Z</time>
<desc>lat.=55.928596, lon.=26.478802, Alt.=107.118225m. Speed=12.492000m/h.</desc>
<speed>3.470000</speed>
</trkpt>
<trkpt lat="55.928566" lon="26.478819">
<ele>107.018616</ele>
<time>2010-08-29T17:23:27Z</time>
<desc>lat.=55.928566, lon.=26.478819, Alt.=107.018616m. Speed=11.412000m/h.</desc>
<speed>3.170000</speed>
</trkpt>
<trkpt lat="55.928524" lon="26.478846">
<ele>107.544006</ele>
<time>2010-08-29T17:23:28Z</time>
<desc>lat.=55.928524, lon.=26.478846, Alt.=107.544006m. Speed=11.196000m/h.</desc>
<speed>3.110000</speed>
</trkpt>
<trkpt lat="55.928490" lon="26.478872">
<ele>107.676819</ele>
<time>2010-08-29T17:23:29Z</time>
<desc>lat.=55.928490, lon.=26.478872, Alt.=107.676819m. Speed=11.844000m/h.</desc>
<speed>3.290000</speed>
</trkpt>
<trkpt lat="55.928463" lon="26.478889">
<ele>108.008850</ele>
<time>2010-08-29T17:23:30Z</time>
<desc>lat.=55.928463, lon.=26.478889, Alt.=108.008850m. Speed=8.352000m/h.</desc>
<speed>2.320000</speed>
</trkpt>
<trkpt lat="55.928440" lon="26.478910">
<ele>107.965881</ele>
<time>2010-08-29T17:23:31Z</time>
<desc>lat.=55.928440, lon.=26.478910, Alt.=107.965881m. Speed=7.236000m/h.</desc>
<speed>2.010000</speed>
</trkpt>
<trkpt lat="55.928410" lon="26.478931">
<ele>108.405334</ele>
<time>2010-08-29T17:23:32Z</time>
<desc>lat.=55.928410, lon.=26.478931, Alt.=108.405334m. Speed=10.692000m/h.</desc>
<speed>2.970000</speed>
</trkpt>
<trkpt lat="55.928383" lon="26.478947">
<ele>108.858459</ele>
<time>2010-08-29T17:23:33Z</time>
<desc>lat.=55.928383, lon.=26.478947, Alt.=108.858459m. Speed=9.900000m/h.</desc>
<speed>2.750000</speed>
</trkpt>
<trkpt lat="55.928349" lon="26.478966">
<ele>109.169006</ele>
<time>2010-08-29T17:23:34Z</time>
<desc>lat.=55.928349, lon.=26.478966, Alt.=109.169006m. Speed=10.296000m/h.</desc>
<speed>2.860000</speed>
</trkpt>
<trkpt lat="55.928314" lon="26.478985">
<ele>109.268616</ele>
<time>2010-08-29T17:23:35Z</time>
<desc>lat.=55.928314, lon.=26.478985, Alt.=109.268616m. Speed=10.800000m/h.</desc>
<speed>3.000000</speed>
</trkpt>
<trkpt lat="55.928253" lon="26.479019">
<ele>108.794006</ele>
<time>2010-08-29T17:23:36Z</time>
<desc>lat.=55.928253, lon.=26.479019, Alt.=108.794006m. Speed=15.084000m/h.</desc>
<speed>4.190000</speed>
</trkpt>
<trkpt lat="55.928200" lon="26.479048">
<ele>108.835022</ele>
<time>2010-08-29T17:23:37Z</time>
<desc>lat.=55.928200, lon.=26.479048, Alt.=108.835022m. Speed=15.984000m/h.</desc>
<speed>4.440000</speed>
</trkpt>
<trkpt lat="55.928154" lon="26.479071">
<ele>109.206116</ele>
<time>2010-08-29T17:23:38Z</time>
<desc>lat.=55.928154, lon.=26.479071, Alt.=109.206116m. Speed=15.408000m/h.</desc>
<speed>4.280000</speed>
</trkpt>
<trkpt lat="55.928112" lon="26.479088">
<ele>109.544006</ele>
<time>2010-08-29T17:23:39Z</time>
<desc>lat.=55.928112, lon.=26.479088, Alt.=109.544006m. Speed=13.284000m/h.</desc>
<speed>3.690000</speed>
</trkpt>
<trkpt lat="55.928078" lon="26.479107">
<ele>109.624084</ele>
<time>2010-08-29T17:23:40Z</time>
<desc>lat.=55.928078, lon.=26.479107, Alt.=109.624084m. Speed=11.124000m/h.</desc>
<speed>3.090000</speed>
</trkpt>
<trkpt lat="55.928043" lon="26.479130">
<ele>110.014709</ele>
<time>2010-08-29T17:23:41Z</time>
<desc>lat.=55.928043, lon.=26.479130, Alt.=110.014709m. Speed=11.052000m/h.</desc>
<speed>3.070000</speed>
</trkpt>
<trkpt lat="55.927994" lon="26.479155">
<ele>110.178772</ele>
<time>2010-08-29T17:23:42Z</time>
<desc>lat.=55.927994, lon.=26.479155, Alt.=110.178772m. Speed=15.480000m/h.</desc>
<speed>4.300000</speed>
</trkpt>
<trkpt lat="55.927944" lon="26.479185">
<ele>110.026428</ele>
<time>2010-08-29T17:23:43Z</time>
<desc>lat.=55.927944, lon.=26.479185, Alt.=110.026428m. Speed=14.652000m/h.</desc>
<speed>4.070000</speed>
</trkpt>
<trkpt lat="55.927895" lon="26.479210">
<ele>110.202209</ele>
<time>2010-08-29T17:23:44Z</time>
<desc>lat.=55.927895, lon.=26.479210, Alt.=110.202209m. Speed=16.920000m/h.</desc>
<speed>4.700000</speed>
</trkpt>
<trkpt lat="55.927849" lon="26.479239">
<ele>110.309631</ele>
<time>2010-08-29T17:23:45Z</time>
<desc>lat.=55.927849, lon.=26.479239, Alt.=110.309631m. Speed=13.752000m/h.</desc>
<speed>3.820000</speed>
</trkpt>
<trkpt lat="55.927799" lon="26.479256">
<ele>111.713928</ele>
<time>2010-08-29T17:23:46Z</time>
<desc>lat.=55.927799, lon.=26.479256, Alt.=111.713928m. Speed=10.224000m/h.</desc>
<speed>2.840000</speed>
</trkpt>
<trkpt lat="55.927750" lon="26.479265">
<ele>112.329163</ele>
<time>2010-08-29T17:23:47Z</time>
<desc>lat.=55.927750, lon.=26.479265, Alt.=112.329163m. Speed=10.116000m/h.</desc>
<speed>2.810000</speed>
</trkpt>
<trkpt lat="55.927711" lon="26.479282">
<ele>112.645569</ele>
<time>2010-08-29T17:23:48Z</time>
<desc>lat.=55.927711, lon.=26.479282, Alt.=112.645569m. Speed=12.024000m/h.</desc>
<speed>3.340000</speed>
</trkpt>
<trkpt lat="55.927662" lon="26.479305">
<ele>112.454163</ele>
<time>2010-08-29T17:23:49Z</time>
<desc>lat.=55.927662, lon.=26.479305, Alt.=112.454163m. Speed=12.600000m/h.</desc>
<speed>3.500000</speed>
</trkpt>
<trkpt lat="55.927628" lon="26.479326">
<ele>112.825256</ele>
<time>2010-08-29T17:23:50Z</time>
<desc>lat.=55.927628, lon.=26.479326, Alt.=112.825256m. Speed=12.168000m/h.</desc>
<speed>3.380000</speed>
</trkpt>
<trkpt lat="55.927582" lon="26.479343">
<ele>112.073303</ele>
<time>2010-08-29T17:23:51Z</time>
<desc>lat.=55.927582, lon.=26.479343, Alt.=112.073303m. Speed=11.376000m/h.</desc>
<speed>3.160000</speed>
</trkpt>
<trkpt lat="55.927547" lon="26.479361">
<ele>111.301819</ele>
<time>2010-08-29T17:23:52Z</time>
<desc>lat.=55.927547, lon.=26.479361, Alt.=111.301819m. Speed=11.484000m/h.</desc>
<speed>3.190000</speed>
</trkpt>
<trkpt lat="55.927509" lon="26.479383">
<ele>111.053772</ele>
<time>2010-08-29T17:23:53Z</time>
<desc>lat.=55.927509, lon.=26.479383, Alt.=111.053772m. Speed=11.412000m/h.</desc>
<speed>3.170000</speed>
</trkpt>
<trkpt lat="55.927460" lon="26.479410">
<ele>110.239319</ele>
<time>2010-08-29T17:23:54Z</time>
<desc>lat.=55.927460, lon.=26.479410, Alt.=110.239319m. Speed=13.392000m/h.</desc>
<speed>3.720000</speed>
</trkpt>
<trkpt lat="55.927418" lon="26.479437">
<ele>109.301819</ele>
<time>2010-08-29T17:23:55Z</time>
<desc>lat.=55.927418, lon.=26.479437, Alt.=109.301819m. Speed=13.788000m/h.</desc>
<speed>3.830000</speed>
</trkpt>
<trkpt lat="55.927368" lon="26.479452">
<ele>109.776428</ele>
<time>2010-08-29T17:23:56Z</time>
<desc>lat.=55.927368, lon.=26.479452, Alt.=109.776428m. Speed=12.852000m/h.</desc>
<speed>3.570000</speed>
</trkpt>
<trkpt lat="55.927330" lon="26.479462">
<ele>109.649475</ele>
<time>2010-08-29T17:23:57Z</time>
<desc>lat.=55.927330, lon.=26.479462, Alt.=109.649475m. Speed=11.196000m/h.</desc>
<speed>3.110000</speed>
</trkpt>
<trkpt lat="55.927292" lon="26.479483">
<ele>109.325256</ele>
<time>2010-08-29T17:23:58Z</time>
<desc>lat.=55.927292, lon.=26.479483, Alt.=109.325256m. Speed=14.112000m/h.</desc>
<speed>3.920000</speed>
</trkpt>
<trkpt lat="55.927242" lon="26.479504">
<ele>108.508850</ele>
<time>2010-08-29T17:23:59Z</time>
<desc>lat.=55.927242, lon.=26.479504, Alt.=108.508850m. Speed=13.788000m/h.</desc>
<speed>3.830000</speed>
</trkpt>
<trkpt lat="55.927193" lon="26.479528">
<ele>107.667053</ele>
<time>2010-08-29T17:24:00Z</time>
<desc>lat.=55.927193, lon.=26.479528, Alt.=107.667053m. Speed=14.364000m/h.</desc>
<speed>3.990000</speed>
</trkpt>
<trkpt lat="55.927147" lon="26.479544">
<ele>107.561584</ele>
<time>2010-08-29T17:24:01Z</time>
<desc>lat.=55.927147, lon.=26.479544, Alt.=107.561584m. Speed=14.184000m/h.</desc>
<speed>3.940000</speed>
</trkpt>
<trkpt lat="55.927094" lon="26.479570">
<ele>107.331116</ele>
<time>2010-08-29T17:24:02Z</time>
<desc>lat.=55.927094, lon.=26.479570, Alt.=107.331116m. Speed=15.696000m/h.</desc>
<speed>4.360000</speed>
</trkpt>
<trkpt lat="55.927055" lon="26.479586">
<ele>107.307678</ele>
<time>2010-08-29T17:24:03Z</time>
<desc>lat.=55.927055, lon.=26.479586, Alt.=107.307678m. Speed=12.564000m/h.</desc>
<speed>3.490000</speed>
</trkpt>
<trkpt lat="55.927025" lon="26.479593">
<ele>106.733459</ele>
<time>2010-08-29T17:24:04Z</time>
<desc>lat.=55.927025, lon.=26.479593, Alt.=106.733459m. Speed=15.912000m/h.</desc>
<speed>4.420000</speed>
</trkpt>
<trkpt lat="55.926968" lon="26.479618">
<ele>106.526428</ele>
<time>2010-08-29T17:24:05Z</time>
<desc>lat.=55.926968, lon.=26.479618, Alt.=106.526428m. Speed=16.379999m/h.</desc>
<speed>4.550000</speed>
</trkpt>
<trkpt lat="55.926922" lon="26.479643">
<ele>106.448303</ele>
<time>2010-08-29T17:24:06Z</time>
<desc>lat.=55.926922, lon.=26.479643, Alt.=106.448303m. Speed=16.344000m/h.</desc>
<speed>4.540000</speed>
</trkpt>
<trkpt lat="55.926865" lon="26.479683">
<ele>106.069397</ele>
<time>2010-08-29T17:24:07Z</time>
<desc>lat.=55.926865, lon.=26.479683, Alt.=106.069397m. Speed=16.056000m/h.</desc>
<speed>4.460000</speed>
</trkpt>
<trkpt lat="55.926811" lon="26.479706">
<ele>106.538147</ele>
<time>2010-08-29T17:24:08Z</time>
<desc>lat.=55.926811, lon.=26.479706, Alt.=106.538147m. Speed=19.584000m/h.</desc>
<speed>5.440000</speed>
</trkpt>
<trkpt lat="55.926754" lon="26.479727">
<ele>107.051819</ele>
<time>2010-08-29T17:24:09Z</time>
<desc>lat.=55.926754, lon.=26.479727, Alt.=107.051819m. Speed=18.612000m/h.</desc>
<speed>5.170000</speed>
</trkpt>
<trkpt lat="55.926689" lon="26.479752">
<ele>106.852600</ele>
<time>2010-08-29T17:24:10Z</time>
<desc>lat.=55.926689, lon.=26.479752, Alt.=106.852600m. Speed=15.948000m/h.</desc>
<speed>4.430000</speed>
</trkpt>
<trkpt lat="55.926640" lon="26.479769">
<ele>106.608459</ele>
<time>2010-08-29T17:24:11Z</time>
<desc>lat.=55.926640, lon.=26.479769, Alt.=106.608459m. Speed=17.459999m/h.</desc>
<speed>4.850000</speed>
</trkpt>
<trkpt lat="55.926590" lon="26.479786">
<ele>106.794006</ele>
<time>2010-08-29T17:24:12Z</time>
<desc>lat.=55.926590, lon.=26.479786, Alt.=106.794006m. Speed=17.532000m/h.</desc>
<speed>4.870000</speed>
</trkpt>
<trkpt lat="55.926544" lon="26.479809">
<ele>107.129944</ele>
<time>2010-08-29T17:24:13Z</time>
<desc>lat.=55.926544, lon.=26.479809, Alt.=107.129944m. Speed=14.904000m/h.</desc>
<speed>4.140000</speed>
</trkpt>
<trkpt lat="55.926506" lon="26.479830">
<ele>107.665100</ele>
<time>2010-08-29T17:24:14Z</time>
<desc>lat.=55.926506, lon.=26.479830, Alt.=107.665100m. Speed=13.644000m/h.</desc>
<speed>3.790000</speed>
</trkpt>
<trkpt lat="55.926464" lon="26.479847">
<ele>107.286194</ele>
<time>2010-08-29T17:24:15Z</time>
<desc>lat.=55.926464, lon.=26.479847, Alt.=107.286194m. Speed=13.212000m/h.</desc>
<speed>3.670000</speed>
</trkpt>
<trkpt lat="55.926422" lon="26.479877">
<ele>107.036194</ele>
<time>2010-08-29T17:24:16Z</time>
<desc>lat.=55.926422, lon.=26.479877, Alt.=107.036194m. Speed=14.796000m/h.</desc>
<speed>4.110000</speed>
</trkpt>
<trkpt lat="55.926380" lon="26.479923">
<ele>108.827209</ele>
<time>2010-08-29T17:24:17Z</time>
<desc>lat.=55.926380, lon.=26.479923, Alt.=108.827209m. Speed=13.896000m/h.</desc>
<speed>3.860000</speed>
</trkpt>
<trkpt lat="55.926334" lon="26.479950">
<ele>109.143616</ele>
<time>2010-08-29T17:24:18Z</time>
<desc>lat.=55.926334, lon.=26.479950, Alt.=109.143616m. Speed=15.768000m/h.</desc>
<speed>4.380000</speed>
</trkpt>
<trkpt lat="55.926289" lon="26.479975">
<ele>109.139709</ele>
<time>2010-08-29T17:24:19Z</time>
<desc>lat.=55.926289, lon.=26.479975, Alt.=109.139709m. Speed=16.452000m/h.</desc>
<speed>4.570000</speed>
</trkpt>
<trkpt lat="55.926239" lon="26.479998">
<ele>108.395569</ele>
<time>2010-08-29T17:24:20Z</time>
<desc>lat.=55.926239, lon.=26.479998, Alt.=108.395569m. Speed=18.108000m/h.</desc>
<speed>5.030000</speed>
</trkpt>
<trkpt lat="55.926189" lon="26.480017">
<ele>107.956116</ele>
<time>2010-08-29T17:24:21Z</time>
<desc>lat.=55.926189, lon.=26.480017, Alt.=107.956116m. Speed=17.351999m/h.</desc>
<speed>4.820000</speed>
</trkpt>
<trkpt lat="55.926136" lon="26.480040">
<ele>107.129944</ele>
<time>2010-08-29T17:24:22Z</time>
<desc>lat.=55.926136, lon.=26.480040, Alt.=107.129944m. Speed=18.396000m/h.</desc>
<speed>5.110000</speed>
</trkpt>
<trkpt lat="55.926086" lon="26.480061">
<ele>106.766663</ele>
<time>2010-08-29T17:24:23Z</time>
<desc>lat.=55.926086, lon.=26.480061, Alt.=106.766663m. Speed=17.208000m/h.</desc>
<speed>4.780000</speed>
</trkpt>
<trkpt lat="55.926044" lon="26.480074">
<ele>106.696350</ele>
<time>2010-08-29T17:24:24Z</time>
<desc>lat.=55.926044, lon.=26.480074, Alt.=106.696350m. Speed=16.848000m/h.</desc>
<speed>4.680000</speed>
</trkpt>
<trkpt lat="55.925999" lon="26.480091">
<ele>106.348694</ele>
<time>2010-08-29T17:24:25Z</time>
<desc>lat.=55.925999, lon.=26.480091, Alt.=106.348694m. Speed=17.459999m/h.</desc>
<speed>4.850000</speed>
</trkpt>
<trkpt lat="55.925961" lon="26.480110">
<ele>105.899475</ele>
<time>2010-08-29T17:24:26Z</time>
<desc>lat.=55.925961, lon.=26.480110, Alt.=105.899475m. Speed=14.076000m/h.</desc>
<speed>3.910000</speed>
</trkpt>
<trkpt lat="55.925900" lon="26.480110">
<ele>104.708069</ele>
<time>2010-08-29T17:24:27Z</time>
<desc>lat.=55.925900, lon.=26.480110, Alt.=104.708069m. Speed=15.768000m/h.</desc>
<speed>4.380000</speed>
</trkpt>
<trkpt lat="55.925850" lon="26.480125">
<ele>104.122131</ele>
<time>2010-08-29T17:24:28Z</time>
<desc>lat.=55.925850, lon.=26.480125, Alt.=104.122131m. Speed=18.035999m/h.</desc>
<speed>5.010000</speed>
</trkpt>
<trkpt lat="55.925797" lon="26.480143">
<ele>103.477600</ele>
<time>2010-08-29T17:24:29Z</time>
<desc>lat.=55.925797, lon.=26.480143, Alt.=103.477600m. Speed=15.840000m/h.</desc>
<speed>4.400000</speed>
</trkpt>
<trkpt lat="55.925747" lon="26.480165">
<ele>103.465881</ele>
<time>2010-08-29T17:24:30Z</time>
<desc>lat.=55.925747, lon.=26.480165, Alt.=103.465881m. Speed=15.696000m/h.</desc>
<speed>4.360000</speed>
</trkpt>
<trkpt lat="55.925705" lon="26.480181">
<ele>102.795959</ele>
<time>2010-08-29T17:24:31Z</time>
<desc>lat.=55.925705, lon.=26.480181, Alt.=102.795959m. Speed=18.072001m/h.</desc>
<speed>5.020000</speed>
</trkpt>
<trkpt lat="55.925655" lon="26.480207">
<ele>102.915100</ele>
<time>2010-08-29T17:24:32Z</time>
<desc>lat.=55.925655, lon.=26.480207, Alt.=102.915100m. Speed=16.452000m/h.</desc>
<speed>4.570000</speed>
</trkpt>
<trkpt lat="55.925610" lon="26.480225">
<ele>102.659241</ele>
<time>2010-08-29T17:24:33Z</time>
<desc>lat.=55.925610, lon.=26.480225, Alt.=102.659241m. Speed=16.704000m/h.</desc>
<speed>4.640000</speed>
</trkpt>
<trkpt lat="55.925560" lon="26.480234">
<ele>102.333069</ele>
<time>2010-08-29T17:24:34Z</time>
<desc>lat.=55.925560, lon.=26.480234, Alt.=102.333069m. Speed=17.028000m/h.</desc>
<speed>4.730000</speed>
</trkpt>
<trkpt lat="55.925514" lon="26.480240">
<ele>101.727600</ele>
<time>2010-08-29T17:24:35Z</time>
<desc>lat.=55.925514, lon.=26.480240, Alt.=101.727600m. Speed=16.416000m/h.</desc>
<speed>4.560000</speed>
</trkpt>
<trkpt lat="55.925468" lon="26.480261">
<ele>101.319397</ele>
<time>2010-08-29T17:24:36Z</time>
<desc>lat.=55.925468, lon.=26.480261, Alt.=101.319397m. Speed=15.336000m/h.</desc>
<speed>4.260000</speed>
</trkpt>
<trkpt lat="55.925434" lon="26.480278">
<ele>101.270569</ele>
<time>2010-08-29T17:24:37Z</time>
<desc>lat.=55.925434, lon.=26.480278, Alt.=101.270569m. Speed=15.228000m/h.</desc>
<speed>4.230000</speed>
</trkpt>
<trkpt lat="55.925388" lon="26.480299">
<ele>101.286194</ele>
<time>2010-08-29T17:24:38Z</time>
<desc>lat.=55.925388, lon.=26.480299, Alt.=101.286194m. Speed=16.488001m/h.</desc>
<speed>4.580000</speed>
</trkpt>
<trkpt lat="55.925339" lon="26.480318">
<ele>101.426819</ele>
<time>2010-08-29T17:24:39Z</time>
<desc>lat.=55.925339, lon.=26.480318, Alt.=101.426819m. Speed=16.524000m/h.</desc>
<speed>4.590000</speed>
</trkpt>
<trkpt lat="55.925293" lon="26.480345">
<ele>101.838928</ele>
<time>2010-08-29T17:24:40Z</time>
<desc>lat.=55.925293, lon.=26.480345, Alt.=101.838928m. Speed=17.568001m/h.</desc>
<speed>4.880000</speed>
</trkpt>
<trkpt lat="55.925247" lon="26.480366">
<ele>101.473694</ele>
<time>2010-08-29T17:24:41Z</time>
<desc>lat.=55.925247, lon.=26.480366, Alt.=101.473694m. Speed=17.351999m/h.</desc>
<speed>4.820000</speed>
</trkpt>
<trkpt lat="55.925205" lon="26.480381">
<ele>101.325256</ele>
<time>2010-08-29T17:24:42Z</time>
<desc>lat.=55.925205, lon.=26.480381, Alt.=101.325256m. Speed=17.496000m/h.</desc>
<speed>4.860000</speed>
</trkpt>
<trkpt lat="55.925159" lon="26.480391">
<ele>101.149475</ele>
<time>2010-08-29T17:24:43Z</time>
<desc>lat.=55.925159, lon.=26.480391, Alt.=101.149475m. Speed=18.180000m/h.</desc>
<speed>5.050000</speed>
</trkpt>
<trkpt lat="55.925114" lon="26.480415">
<ele>101.196350</ele>
<time>2010-08-29T17:24:44Z</time>
<desc>lat.=55.925114, lon.=26.480415, Alt.=101.196350m. Speed=17.532000m/h.</desc>
<speed>4.870000</speed>
</trkpt>
<trkpt lat="55.925068" lon="26.480444">
<ele>101.135803</ele>
<time>2010-08-29T17:24:45Z</time>
<desc>lat.=55.925068, lon.=26.480444, Alt.=101.135803m. Speed=17.820000m/h.</desc>
<speed>4.950000</speed>
</trkpt>
<trkpt lat="55.925022" lon="26.480463">
<ele>100.448303</ele>
<time>2010-08-29T17:24:46Z</time>
<desc>lat.=55.925022, lon.=26.480463, Alt.=100.448303m. Speed=15.480000m/h.</desc>
<speed>4.300000</speed>
</trkpt>
<trkpt lat="55.924980" lon="26.480484">
<ele>101.385803</ele>
<time>2010-08-29T17:24:47Z</time>
<desc>lat.=55.924980, lon.=26.480484, Alt.=101.385803m. Speed=17.459999m/h.</desc>
<speed>4.850000</speed>
</trkpt>
<trkpt lat="55.924934" lon="26.480495">
<ele>101.276428</ele>
<time>2010-08-29T17:24:48Z</time>
<desc>lat.=55.924934, lon.=26.480495, Alt.=101.276428m. Speed=18.323999m/h.</desc>
<speed>5.090000</speed>
</trkpt>
<trkpt lat="55.924892" lon="26.480513">
<ele>102.024475</ele>
<time>2010-08-29T17:24:49Z</time>
<desc>lat.=55.924892, lon.=26.480513, Alt.=102.024475m. Speed=17.424000m/h.</desc>
<speed>4.840000</speed>
</trkpt>
<trkpt lat="55.924850" lon="26.480526">
<ele>101.631897</ele>
<time>2010-08-29T17:24:50Z</time>
<desc>lat.=55.924850, lon.=26.480526, Alt.=101.631897m. Speed=16.091999m/h.</desc>
<speed>4.470000</speed>
</trkpt>
<trkpt lat="55.924812" lon="26.480543">
<ele>101.706116</ele>
<time>2010-08-29T17:24:51Z</time>
<desc>lat.=55.924812, lon.=26.480543, Alt.=101.706116m. Speed=17.243999m/h.</desc>
<speed>4.790000</speed>
</trkpt>
<trkpt lat="55.924770" lon="26.480556">
<ele>101.749084</ele>
<time>2010-08-29T17:24:52Z</time>
<desc>lat.=55.924770, lon.=26.480556, Alt.=101.749084m. Speed=12.420000m/h.</desc>
<speed>3.450000</speed>
</trkpt>
<trkpt lat="55.924747" lon="26.480562">
<ele>101.743225</ele>
<time>2010-08-29T17:24:53Z</time>
<desc>lat.=55.924747, lon.=26.480562, Alt.=101.743225m. Speed=6.480000m/h.</desc>
<speed>1.800000</speed>
</trkpt>
<trkpt lat="55.924736" lon="26.480568">
<ele>102.692444</ele>
<time>2010-08-29T17:24:54Z</time>
<desc>lat.=55.924736, lon.=26.480568, Alt.=102.692444m. Speed=0.828000m/h.</desc>
<speed>0.230000</speed>
</trkpt>
<trkpt lat="55.924736" lon="26.480562">
<ele>102.833069</ele>
<time>2010-08-29T17:24:55Z</time>
<desc>lat.=55.924736, lon.=26.480562, Alt.=102.833069m. Speed=0.900000m/h.</desc>
<speed>0.250000</speed>
</trkpt>
<trkpt lat="55.924728" lon="26.480562">
<ele>102.315491</ele>
<time>2010-08-29T17:24:56Z</time>
<desc>lat.=55.924728, lon.=26.480562, Alt.=102.315491m. Speed=2.016000m/h.</desc>
<speed>0.560000</speed>
</trkpt>
<trkpt lat="55.924725" lon="26.480562">
<ele>101.926819</ele>
<time>2010-08-29T17:24:57Z</time>
<desc>lat.=55.924725, lon.=26.480562, Alt.=101.926819m. Speed=0.360000m/h.</desc>
<speed>0.100000</speed>
</trkpt>
<trkpt lat="55.924725" lon="26.480562">
<ele>101.965881</ele>
<time>2010-08-29T17:24:58Z</time>
<desc>lat.=55.924725, lon.=26.480562, Alt.=101.965881m. Speed=0.072000m/h.</desc>
<speed>0.020000</speed>
</trkpt>
<trkpt lat="55.924725" lon="26.480560">
<ele>101.995178</ele>
<time>2010-08-29T17:24:59Z</time>
<desc>lat.=55.924725, lon.=26.480560, Alt.=101.995178m. Speed=0.000000m/h.</desc>
<speed>0.000000</speed>
</trkpt>
<trkpt lat="55.924725" lon="26.480560">
<ele>101.991272</ele>
<time>2010-08-29T17:25:00Z</time>
<desc>lat.=55.924725, lon.=26.480560, Alt.=101.991272m. Speed=0.036000m/h.</desc>
<speed>0.010000</speed>
</trkpt>
<trkpt lat="55.924725" lon="26.480560">
<ele>102.001038</ele>
<time>2010-08-29T17:25:01Z</time>
<desc>lat.=55.924725, lon.=26.480560, Alt.=102.001038m. Speed=0.684000m/h.</desc>
<speed>0.190000</speed>
</trkpt>
<trkpt lat="55.924725" lon="26.480558">
<ele>102.008850</ele>
<time>2010-08-29T17:25:02Z</time>
<desc>lat.=55.924725, lon.=26.480558, Alt.=102.008850m. Speed=0.576000m/h.</desc>
<speed>0.160000</speed>
</trkpt>
<trkpt lat="55.924728" lon="26.480560">
<ele>102.020569</ele>
<time>2010-08-29T17:25:03Z</time>
<desc>lat.=55.924728, lon.=26.480560, Alt.=102.020569m. Speed=1.584000m/h.</desc>
<speed>0.440000</speed>
</trkpt>
<trkpt lat="55.924728" lon="26.480566">
<ele>102.020569</ele>
<time>2010-08-29T17:25:04Z</time>
<desc>lat.=55.924728, lon.=26.480566, Alt.=102.020569m. Speed=0.504000m/h.</desc>
<speed>0.140000</speed>
</trkpt>
<trkpt lat="55.924728" lon="26.480564">
<ele>102.038147</ele>
<time>2010-08-29T17:25:05Z</time>
<desc>lat.=55.924728, lon.=26.480564, Alt.=102.038147m. Speed=0.072000m/h.</desc>
<speed>0.020000</speed>
</trkpt>
<trkpt lat="55.924728" lon="26.480564">
<ele>102.042053</ele>
<time>2010-08-29T17:25:06Z</time>
<desc>lat.=55.924728, lon.=26.480564, Alt.=102.042053m. Speed=0.144000m/h.</desc>
<speed>0.040000</speed>
</trkpt>
<trkpt lat="55.924728" lon="26.480562">
<ele>102.042053</ele>
<time>2010-08-29T17:25:07Z</time>
<desc>lat.=55.924728, lon.=26.480562, Alt.=102.042053m. Speed=0.216000m/h.</desc>
<speed>0.060000</speed>
</trkpt>
<trkpt lat="55.924728" lon="26.480562">
<ele>102.036194</ele>
<time>2010-08-29T17:25:08Z</time>
<desc>lat.=55.924728, lon.=26.480562, Alt.=102.036194m. Speed=0.108000m/h.</desc>
<speed>0.030000</speed>
</trkpt>
<trkpt lat="55.924728" lon="26.480560">
<ele>102.012756</ele>
<time>2010-08-29T17:25:09Z</time>
<desc>lat.=55.924728, lon.=26.480560, Alt.=102.012756m. Speed=0.036000m/h.</desc>
<speed>0.010000</speed>
</trkpt>
<trkpt lat="55.924728" lon="26.480560">
<ele>101.987366</ele>
<time>2010-08-29T17:25:10Z</time>
<desc>lat.=55.924728, lon.=26.480560, Alt.=101.987366m. Speed=0.108000m/h.</desc>
<speed>0.030000</speed>
</trkpt>
<trkpt lat="55.924728" lon="26.480560">
<ele>101.981506</ele>
<time>2010-08-29T17:25:11Z</time>
<desc>lat.=55.924728, lon.=26.480560, Alt.=101.981506m. Speed=0.072000m/h.</desc>
<speed>0.020000</speed>
</trkpt>
<trkpt lat="55.924728" lon="26.480560">
<ele>101.979553</ele>
<time>2010-08-29T17:25:12Z</time>
<desc>lat.=55.924728, lon.=26.480560, Alt.=101.979553m. Speed=0.000000m/h.</desc>
<speed>0.000000</speed>
</trkpt>
<trkpt lat="55.924728" lon="26.480560">
<ele>101.995178</ele>
<time>2010-08-29T17:25:13Z</time>
<desc>lat.=55.924728, lon.=26.480560, Alt.=101.995178m. Speed=0.036000m/h.</desc>
<speed>0.010000</speed>
</trkpt>
<trkpt lat="55.924728" lon="26.480560">
<ele>102.002991</ele>
<time>2010-08-29T17:25:14Z</time>
<desc>lat.=55.924728, lon.=26.480560, Alt.=102.002991m. Speed=0.036000m/h.</desc>
<speed>0.010000</speed>
</trkpt>
<trkpt lat="55.924728" lon="26.480560">
<ele>101.987366</ele>
<time>2010-08-29T17:25:15Z</time>
<desc>lat.=55.924728, lon.=26.480560, Alt.=101.987366m. Speed=0.036000m/h.</desc>
<speed>0.010000</speed>
</trkpt>
<trkpt lat="55.924728" lon="26.480560">
<ele>101.985413</ele>
<time>2010-08-29T17:25:16Z</time>
<desc>lat.=55.924728, lon.=26.480560, Alt.=101.985413m. Speed=0.036000m/h.</desc>
<speed>0.010000</speed>
</trkpt>
<trkpt lat="55.924728" lon="26.480560">
<ele>101.995178</ele>
<time>2010-08-29T17:25:17Z</time>
<desc>lat.=55.924728, lon.=26.480560, Alt.=101.995178m. Speed=0.540000m/h.</desc>
<speed>0.150000</speed>
</trkpt>
<trkpt lat="55.924728" lon="26.480560">
<ele>102.002991</ele>
<time>2010-08-29T17:25:18Z</time>
<desc>lat.=55.924728, lon.=26.480560, Alt.=102.002991m. Speed=0.972000m/h.</desc>
<speed>0.270000</speed>
</trkpt>
<trkpt lat="55.924728" lon="26.480564">
<ele>102.067444</ele>
<time>2010-08-29T17:25:19Z</time>
<desc>lat.=55.924728, lon.=26.480564, Alt.=102.067444m. Speed=0.036000m/h.</desc>
<speed>0.010000</speed>
</trkpt>
<trkpt lat="55.924728" lon="26.480564">
<ele>102.063538</ele>
<time>2010-08-29T17:25:20Z</time>
<desc>lat.=55.924728, lon.=26.480564, Alt.=102.063538m. Speed=0.036000m/h.</desc>
<speed>0.010000</speed>
</trkpt>
<trkpt lat="55.924728" lon="26.480564">
<ele>102.069397</ele>
<time>2010-08-29T17:25:21Z</time>
<desc>lat.=55.924728, lon.=26.480564, Alt.=102.069397m. Speed=0.036000m/h.</desc>
<speed>0.010000</speed>
</trkpt>
<trkpt lat="55.924728" lon="26.480564">
<ele>102.079163</ele>
<time>2010-08-29T17:25:22Z</time>
<desc>lat.=55.924728, lon.=26.480564, Alt.=102.079163m. Speed=0.000000m/h.</desc>
<speed>0.000000</speed>
</trkpt>
<trkpt lat="55.924728" lon="26.480564">
<ele>102.085022</ele>
<time>2010-08-29T17:25:23Z</time>
<desc>lat.=55.924728, lon.=26.480564, Alt.=102.085022m. Speed=0.000000m/h.</desc>
<speed>0.000000</speed>
</trkpt>
<trkpt lat="55.924728" lon="26.480564">
<ele>102.088928</ele>
<time>2010-08-29T17:25:24Z</time>
<desc>lat.=55.924728, lon.=26.480564, Alt.=102.088928m. Speed=0.036000m/h.</desc>
<speed>0.010000</speed>
</trkpt>
<trkpt lat="55.924728" lon="26.480564">
<ele>102.094788</ele>
<time>2010-08-29T17:25:25Z</time>
<desc>lat.=55.924728, lon.=26.480564, Alt.=102.094788m. Speed=0.000000m/h.</desc>
<speed>0.000000</speed>
</trkpt>
<trkpt lat="55.924728" lon="26.480564">
<ele>102.096741</ele>
<time>2010-08-29T17:25:26Z</time>
<desc>lat.=55.924728, lon.=26.480564, Alt.=102.096741m. Speed=0.036000m/h.</desc>
<speed>0.010000</speed>
</trkpt>
<trkpt lat="55.924728" lon="26.480564">
<ele>102.100647</ele>
<time>2010-08-29T17:25:27Z</time>
<desc>lat.=55.924728, lon.=26.480564, Alt.=102.100647m. Speed=0.144000m/h.</desc>
<speed>0.040000</speed>
</trkpt>
<trkpt lat="55.924728" lon="26.480564">
<ele>102.100647</ele>
<time>2010-08-29T17:25:28Z</time>
<desc>lat.=55.924728, lon.=26.480564, Alt.=102.100647m. Speed=0.648000m/h.</desc>
<speed>0.180000</speed>
</trkpt>
<trkpt lat="55.924728" lon="26.480562">
<ele>102.129944</ele>
<time>2010-08-29T17:25:29Z</time>
<desc>lat.=55.924728, lon.=26.480562, Alt.=102.129944m. Speed=0.288000m/h.</desc>
<speed>0.080000</speed>
</trkpt>
<trkpt lat="55.924728" lon="26.480560">
<ele>102.112366</ele>
<time>2010-08-29T17:25:30Z</time>
<desc>lat.=55.924728, lon.=26.480560, Alt.=102.112366m. Speed=0.108000m/h.</desc>
<speed>0.030000</speed>
</trkpt>
<trkpt lat="55.924728" lon="26.480560">
<ele>102.114319</ele>
<time>2010-08-29T17:25:31Z</time>
<desc>lat.=55.924728, lon.=26.480560, Alt.=102.114319m. Speed=0.072000m/h.</desc>
<speed>0.020000</speed>
</trkpt>
<trkpt lat="55.924728" lon="26.480560">
<ele>102.118225</ele>
<time>2010-08-29T17:25:32Z</time>
<desc>lat.=55.924728, lon.=26.480560, Alt.=102.118225m. Speed=0.036000m/h.</desc>
<speed>0.010000</speed>
</trkpt>
<trkpt lat="55.924728" lon="26.480560">
<ele>102.122131</ele>
<time>2010-08-29T17:25:33Z</time>
<desc>lat.=55.924728, lon.=26.480560, Alt.=102.122131m. Speed=0.036000m/h.</desc>
<speed>0.010000</speed>
</trkpt>
<trkpt lat="55.924728" lon="26.480560">
<ele>102.122131</ele>
<time>2010-08-29T17:25:34Z</time>
<desc>lat.=55.924728, lon.=26.480560, Alt.=102.122131m. Speed=0.108000m/h.</desc>
<speed>0.030000</speed>
</trkpt>
<trkpt lat="55.924728" lon="26.480560">
<ele>102.126038</ele>
<time>2010-08-29T17:25:35Z</time>
<desc>lat.=55.924728, lon.=26.480560, Alt.=102.126038m. Speed=0.108000m/h.</desc>
<speed>0.030000</speed>
</trkpt>
<trkpt lat="55.924728" lon="26.480560">
<ele>102.133850</ele>
<time>2010-08-29T17:25:36Z</time>
<desc>lat.=55.924728, lon.=26.480560, Alt.=102.133850m. Speed=0.000000m/h.</desc>
<speed>0.000000</speed>
</trkpt>
<trkpt lat="55.924728" lon="26.480560">
<ele>102.135803</ele>
<time>2010-08-29T17:25:37Z</time>
<desc>lat.=55.924728, lon.=26.480560, Alt.=102.135803m. Speed=0.036000m/h.</desc>
<speed>0.010000</speed>
</trkpt>
<trkpt lat="55.924728" lon="26.480560">
<ele>102.135803</ele>
<time>2010-08-29T17:25:38Z</time>
<desc>lat.=55.924728, lon.=26.480560, Alt.=102.135803m. Speed=0.180000m/h.</desc>
<speed>0.050000</speed>
</trkpt>
<trkpt lat="55.924728" lon="26.480560">
<ele>102.137756</ele>
<time>2010-08-29T17:25:39Z</time>
<desc>lat.=55.924728, lon.=26.480560, Alt.=102.137756m. Speed=0.108000m/h.</desc>
<speed>0.030000</speed>
</trkpt>
<trkpt lat="55.924728" lon="26.480560">
<ele>102.133850</ele>
<time>2010-08-29T17:25:40Z</time>
<desc>lat.=55.924728, lon.=26.480560, Alt.=102.133850m. Speed=0.972000m/h.</desc>
<speed>0.270000</speed>
</trkpt>
<trkpt lat="55.924728" lon="26.480560">
<ele>102.133850</ele>
<time>2010-08-29T17:25:41Z</time>
<desc>lat.=55.924728, lon.=26.480560, Alt.=102.133850m. Speed=0.324000m/h.</desc>
<speed>0.090000</speed>
</trkpt>
<trkpt lat="55.924725" lon="26.480560">
<ele>102.126038</ele>
<time>2010-08-29T17:25:42Z</time>
<desc>lat.=55.924725, lon.=26.480560, Alt.=102.126038m. Speed=0.468000m/h.</desc>
<speed>0.130000</speed>
</trkpt>
<trkpt lat="55.924725" lon="26.480562">
<ele>102.133850</ele>
<time>2010-08-29T17:25:43Z</time>
<desc>lat.=55.924725, lon.=26.480562, Alt.=102.133850m. Speed=0.936000m/h.</desc>
<speed>0.260000</speed>
</trkpt>
<trkpt lat="55.924725" lon="26.480564">
<ele>102.143616</ele>
<time>2010-08-29T17:25:44Z</time>
<desc>lat.=55.924725, lon.=26.480564, Alt.=102.143616m. Speed=1.548000m/h.</desc>
<speed>0.430000</speed>
</trkpt>
<trkpt lat="55.924721" lon="26.480572">
<ele>102.163147</ele>
<time>2010-08-29T17:25:45Z</time>
<desc>lat.=55.924721, lon.=26.480572, Alt.=102.163147m. Speed=2.304000m/h.</desc>
<speed>0.640000</speed>
</trkpt>
<trkpt lat="55.924717" lon="26.480579">
<ele>102.182678</ele>
<time>2010-08-29T17:25:46Z</time>
<desc>lat.=55.924717, lon.=26.480579, Alt.=102.182678m. Speed=4.968000m/h.</desc>
<speed>1.380000</speed>
</trkpt>
<trkpt lat="55.924690" lon="26.480598">
<ele>102.649475</ele>
<time>2010-08-29T17:25:47Z</time>
<desc>lat.=55.924690, lon.=26.480598, Alt.=102.649475m. Speed=10.620000m/h.</desc>
<speed>2.950000</speed>
</trkpt>
<trkpt lat="55.924656" lon="26.480619">
<ele>102.770569</ele>
<time>2010-08-29T17:25:48Z</time>
<desc>lat.=55.924656, lon.=26.480619, Alt.=102.770569m. Speed=12.960000m/h.</desc>
<speed>3.600000</speed>
</trkpt>
<trkpt lat="55.924618" lon="26.480640">
<ele>102.485413</ele>
<time>2010-08-29T17:25:49Z</time>
<desc>lat.=55.924618, lon.=26.480640, Alt.=102.485413m. Speed=15.408000m/h.</desc>
<speed>4.280000</speed>
</trkpt>
<trkpt lat="55.924576" lon="26.480663">
<ele>102.266663</ele>
<time>2010-08-29T17:25:50Z</time>
<desc>lat.=55.924576, lon.=26.480663, Alt.=102.266663m. Speed=16.884001m/h.</desc>
<speed>4.690000</speed>
</trkpt>
<trkpt lat="55.924534" lon="26.480684">
<ele>102.194397</ele>
<time>2010-08-29T17:25:51Z</time>
<desc>lat.=55.924534, lon.=26.480684, Alt.=102.194397m. Speed=17.568001m/h.</desc>
<speed>4.880000</speed>
</trkpt>
<trkpt lat="55.924488" lon="26.480703">
<ele>102.276428</ele>
<time>2010-08-29T17:25:52Z</time>
<desc>lat.=55.924488, lon.=26.480703, Alt.=102.276428m. Speed=18.252001m/h.</desc>
<speed>5.070000</speed>
</trkpt>
<trkpt lat="55.924442" lon="26.480726">
<ele>102.319397</ele>
<time>2010-08-29T17:25:53Z</time>
<desc>lat.=55.924442, lon.=26.480726, Alt.=102.319397m. Speed=19.080000m/h.</desc>
<speed>5.300000</speed>
</trkpt>
<trkpt lat="55.924393" lon="26.480747">
<ele>102.405334</ele>
<time>2010-08-29T17:25:54Z</time>
<desc>lat.=55.924393, lon.=26.480747, Alt.=102.405334m. Speed=19.728001m/h.</desc>
<speed>5.480000</speed>
</trkpt>
<trkpt lat="55.924343" lon="26.480768">
<ele>102.461975</ele>
<time>2010-08-29T17:25:55Z</time>
<desc>lat.=55.924343, lon.=26.480768, Alt.=102.461975m. Speed=19.296000m/h.</desc>
<speed>5.360000</speed>
</trkpt>
<trkpt lat="55.924297" lon="26.480791">
<ele>102.405334</ele>
<time>2010-08-29T17:25:56Z</time>
<desc>lat.=55.924297, lon.=26.480791, Alt.=102.405334m. Speed=19.476000m/h.</desc>
<speed>5.410000</speed>
</trkpt>
<trkpt lat="55.924244" lon="26.480818">
<ele>102.387756</ele>
<time>2010-08-29T17:25:57Z</time>
<desc>lat.=55.924244, lon.=26.480818, Alt.=102.387756m. Speed=19.368000m/h.</desc>
<speed>5.380000</speed>
</trkpt>
<trkpt lat="55.924198" lon="26.480843">
<ele>102.446350</ele>
<time>2010-08-29T17:25:58Z</time>
<desc>lat.=55.924198, lon.=26.480843, Alt.=102.446350m. Speed=19.332001m/h.</desc>
<speed>5.370000</speed>
</trkpt>
<trkpt lat="55.924149" lon="26.480869">
<ele>102.428772</ele>
<time>2010-08-29T17:25:59Z</time>
<desc>lat.=55.924149, lon.=26.480869, Alt.=102.428772m. Speed=19.368000m/h.</desc>
<speed>5.380000</speed>
</trkpt>
<trkpt lat="55.924099" lon="26.480888">
<ele>102.405334</ele>
<time>2010-08-29T17:26:00Z</time>
<desc>lat.=55.924099, lon.=26.480888, Alt.=102.405334m. Speed=18.972000m/h.</desc>
<speed>5.270000</speed>
</trkpt>
<trkpt lat="55.924049" lon="26.480906">
<ele>102.395569</ele>
<time>2010-08-29T17:26:01Z</time>
<desc>lat.=55.924049, lon.=26.480906, Alt.=102.395569m. Speed=19.260000m/h.</desc>
<speed>5.350000</speed>
</trkpt>
<trkpt lat="55.924000" lon="26.480927">
<ele>102.335022</ele>
<time>2010-08-29T17:26:02Z</time>
<desc>lat.=55.924000, lon.=26.480927, Alt.=102.335022m. Speed=19.511999m/h.</desc>
<speed>5.420000</speed>
</trkpt>
<trkpt lat="55.923954" lon="26.480949">
<ele>102.290100</ele>
<time>2010-08-29T17:26:03Z</time>
<desc>lat.=55.923954, lon.=26.480949, Alt.=102.290100m. Speed=20.412001m/h.</desc>
<speed>5.670000</speed>
</trkpt>
<trkpt lat="55.923901" lon="26.480972">
<ele>102.204163</ele>
<time>2010-08-29T17:26:04Z</time>
<desc>lat.=55.923901, lon.=26.480972, Alt.=102.204163m. Speed=21.059999m/h.</desc>
<speed>5.850000</speed>
</trkpt>
<trkpt lat="55.923847" lon="26.481001">
<ele>102.108459</ele>
<time>2010-08-29T17:26:05Z</time>
<desc>lat.=55.923847, lon.=26.481001, Alt.=102.108459m. Speed=22.068001m/h.</desc>
<speed>6.130000</speed>
</trkpt>
<trkpt lat="55.923794" lon="26.481031">
<ele>101.897522</ele>
<time>2010-08-29T17:26:06Z</time>
<desc>lat.=55.923794, lon.=26.481031, Alt.=101.897522m. Speed=21.132000m/h.</desc>
<speed>5.870000</speed>
</trkpt>
<trkpt lat="55.923737" lon="26.481064">
<ele>101.733459</ele>
<time>2010-08-29T17:26:07Z</time>
<desc>lat.=55.923737, lon.=26.481064, Alt.=101.733459m. Speed=21.636000m/h.</desc>
<speed>6.010000</speed>
</trkpt>
<trkpt lat="55.923687" lon="26.481094">
<ele>101.647522</ele>
<time>2010-08-29T17:26:08Z</time>
<desc>lat.=55.923687, lon.=26.481094, Alt.=101.647522m. Speed=20.988001m/h.</desc>
<speed>5.830000</speed>
</trkpt>
<trkpt lat="55.923634" lon="26.481123">
<ele>101.788147</ele>
<time>2010-08-29T17:26:09Z</time>
<desc>lat.=55.923634, lon.=26.481123, Alt.=101.788147m. Speed=21.312000m/h.</desc>
<speed>5.920000</speed>
</trkpt>
<trkpt lat="55.923584" lon="26.481153">
<ele>101.784241</ele>
<time>2010-08-29T17:26:10Z</time>
<desc>lat.=55.923584, lon.=26.481153, Alt.=101.784241m. Speed=21.132000m/h.</desc>
<speed>5.870000</speed>
</trkpt>
<trkpt lat="55.923531" lon="26.481176">
<ele>101.948303</ele>
<time>2010-08-29T17:26:11Z</time>
<desc>lat.=55.923531, lon.=26.481176, Alt.=101.948303m. Speed=22.284000m/h.</desc>
<speed>6.190000</speed>
</trkpt>
<trkpt lat="55.923477" lon="26.481205">
<ele>102.067444</ele>
<time>2010-08-29T17:26:12Z</time>
<desc>lat.=55.923477, lon.=26.481205, Alt.=102.067444m. Speed=22.608000m/h.</desc>
<speed>6.280000</speed>
</trkpt>
<trkpt lat="55.923416" lon="26.481236">
<ele>102.106506</ele>
<time>2010-08-29T17:26:13Z</time>
<desc>lat.=55.923416, lon.=26.481236, Alt.=102.106506m. Speed=23.544001m/h.</desc>
<speed>6.540000</speed>
</trkpt>
<trkpt lat="55.923359" lon="26.481260">
<ele>101.971741</ele>
<time>2010-08-29T17:26:14Z</time>
<desc>lat.=55.923359, lon.=26.481260, Alt.=101.971741m. Speed=23.796000m/h.</desc>
<speed>6.610000</speed>
</trkpt>
<trkpt lat="55.923302" lon="26.481287">
<ele>101.958069</ele>
<time>2010-08-29T17:26:15Z</time>
<desc>lat.=55.923302, lon.=26.481287, Alt.=101.958069m. Speed=23.400000m/h.</desc>
<speed>6.500000</speed>
</trkpt>
<trkpt lat="55.923244" lon="26.481314">
<ele>101.862366</ele>
<time>2010-08-29T17:26:16Z</time>
<desc>lat.=55.923244, lon.=26.481314, Alt.=101.862366m. Speed=23.112000m/h.</desc>
<speed>6.420000</speed>
</trkpt>
<trkpt lat="55.923187" lon="26.481340">
<ele>101.831116</ele>
<time>2010-08-29T17:26:17Z</time>
<desc>lat.=55.923187, lon.=26.481340, Alt.=101.831116m. Speed=23.292000m/h.</desc>
<speed>6.470000</speed>
</trkpt>
<trkpt lat="55.923134" lon="26.481365">
<ele>101.780334</ele>
<time>2010-08-29T17:26:18Z</time>
<desc>lat.=55.923134, lon.=26.481365, Alt.=101.780334m. Speed=23.256001m/h.</desc>
<speed>6.460000</speed>
</trkpt>
<trkpt lat="55.923077" lon="26.481392">
<ele>101.717834</ele>
<time>2010-08-29T17:26:19Z</time>
<desc>lat.=55.923077, lon.=26.481392, Alt.=101.717834m. Speed=23.004000m/h.</desc>
<speed>6.390000</speed>
</trkpt>
<trkpt lat="55.923019" lon="26.481419">
<ele>101.670959</ele>
<time>2010-08-29T17:26:20Z</time>
<desc>lat.=55.923019, lon.=26.481419, Alt.=101.670959m. Speed=23.004000m/h.</desc>
<speed>6.390000</speed>
</trkpt>
<trkpt lat="55.922966" lon="26.481449">
<ele>101.629944</ele>
<time>2010-08-29T17:26:21Z</time>
<desc>lat.=55.922966, lon.=26.481449, Alt.=101.629944m. Speed=23.004000m/h.</desc>
<speed>6.390000</speed>
</trkpt>
<trkpt lat="55.922909" lon="26.481478">
<ele>101.461975</ele>
<time>2010-08-29T17:26:22Z</time>
<desc>lat.=55.922909, lon.=26.481478, Alt.=101.461975m. Speed=22.860001m/h.</desc>
<speed>6.350000</speed>
</trkpt>
<trkpt lat="55.922855" lon="26.481503">
<ele>101.383850</ele>
<time>2010-08-29T17:26:23Z</time>
<desc>lat.=55.922855, lon.=26.481503, Alt.=101.383850m. Speed=22.968000m/h.</desc>
<speed>6.380000</speed>
</trkpt>
<trkpt lat="55.922802" lon="26.481527">
<ele>101.233459</ele>
<time>2010-08-29T17:26:24Z</time>
<desc>lat.=55.922802, lon.=26.481527, Alt.=101.233459m. Speed=22.896000m/h.</desc>
<speed>6.360000</speed>
</trkpt>
<trkpt lat="55.922745" lon="26.481554">
<ele>101.122131</ele>
<time>2010-08-29T17:26:25Z</time>
<desc>lat.=55.922745, lon.=26.481554, Alt.=101.122131m. Speed=22.680000m/h.</desc>
<speed>6.300000</speed>
</trkpt>
<trkpt lat="55.922691" lon="26.481581">
<ele>101.006897</ele>
<time>2010-08-29T17:26:26Z</time>
<desc>lat.=55.922691, lon.=26.481581, Alt.=101.006897m. Speed=22.535999m/h.</desc>
<speed>6.260000</speed>
</trkpt>
<trkpt lat="55.922638" lon="26.481607">
<ele>100.948303</ele>
<time>2010-08-29T17:26:27Z</time>
<desc>lat.=55.922638, lon.=26.481607, Alt.=100.948303m. Speed=22.500000m/h.</desc>
<speed>6.250000</speed>
</trkpt>
<trkpt lat="55.922585" lon="26.481636">
<ele>100.799866</ele>
<time>2010-08-29T17:26:28Z</time>
<desc>lat.=55.922585, lon.=26.481636, Alt.=100.799866m. Speed=23.004000m/h.</desc>
<speed>6.390000</speed>
</trkpt>
<trkpt lat="55.922531" lon="26.481665">
<ele>100.758850</ele>
<time>2010-08-29T17:26:29Z</time>
<desc>lat.=55.922531, lon.=26.481665, Alt.=100.758850m. Speed=23.724001m/h.</desc>
<speed>6.590000</speed>
</trkpt>
<trkpt lat="55.922474" lon="26.481699">
<ele>100.696350</ele>
<time>2010-08-29T17:26:30Z</time>
<desc>lat.=55.922474, lon.=26.481699, Alt.=100.696350m. Speed=23.796000m/h.</desc>
<speed>6.610000</speed>
</trkpt>
<trkpt lat="55.922417" lon="26.481728">
<ele>100.700256</ele>
<time>2010-08-29T17:26:31Z</time>
<desc>lat.=55.922417, lon.=26.481728, Alt.=100.700256m. Speed=24.336000m/h.</desc>
<speed>6.760000</speed>
</trkpt>
<trkpt lat="55.922356" lon="26.481762">
<ele>100.719788</ele>
<time>2010-08-29T17:26:32Z</time>
<desc>lat.=55.922356, lon.=26.481762, Alt.=100.719788m. Speed=25.488001m/h.</desc>
<speed>7.080000</speed>
</trkpt>
<trkpt lat="55.922298" lon="26.481792">
<ele>100.786194</ele>
<time>2010-08-29T17:26:33Z</time>
<desc>lat.=55.922298, lon.=26.481792, Alt.=100.786194m. Speed=24.624001m/h.</desc>
<speed>6.840000</speed>
</trkpt>
<trkpt lat="55.922237" lon="26.481813">
<ele>100.827209</ele>
<time>2010-08-29T17:26:34Z</time>
<desc>lat.=55.922237, lon.=26.481813, Alt.=100.827209m. Speed=23.615999m/h.</desc>
<speed>6.560000</speed>
</trkpt>
<trkpt lat="55.922180" lon="26.481834">
<ele>100.926819</ele>
<time>2010-08-29T17:26:35Z</time>
<desc>lat.=55.922180, lon.=26.481834, Alt.=100.926819m. Speed=24.408001m/h.</desc>
<speed>6.780000</speed>
</trkpt>
<trkpt lat="55.922115" lon="26.481855">
<ele>101.075256</ele>
<time>2010-08-29T17:26:36Z</time>
<desc>lat.=55.922115, lon.=26.481855, Alt.=101.075256m. Speed=24.011999m/h.</desc>
<speed>6.670000</speed>
</trkpt>
<trkpt lat="55.922058" lon="26.481878">
<ele>101.032288</ele>
<time>2010-08-29T17:26:37Z</time>
<desc>lat.=55.922058, lon.=26.481878, Alt.=101.032288m. Speed=23.004000m/h.</desc>
<speed>6.390000</speed>
</trkpt>
<trkpt lat="55.922001" lon="26.481907">
<ele>100.770569</ele>
<time>2010-08-29T17:26:38Z</time>
<desc>lat.=55.922001, lon.=26.481907, Alt.=100.770569m. Speed=24.191999m/h.</desc>
<speed>6.720000</speed>
</trkpt>
<trkpt lat="55.921940" lon="26.481934">
<ele>100.956116</ele>
<time>2010-08-29T17:26:39Z</time>
<desc>lat.=55.921940, lon.=26.481934, Alt.=100.956116m. Speed=24.912001m/h.</desc>
<speed>6.920000</speed>
</trkpt>
<trkpt lat="55.921883" lon="26.481956">
<ele>100.903381</ele>
<time>2010-08-29T17:26:40Z</time>
<desc>lat.=55.921883, lon.=26.481956, Alt.=100.903381m. Speed=23.615999m/h.</desc>
<speed>6.560000</speed>
</trkpt>
<trkpt lat="55.921825" lon="26.481981">
<ele>100.739319</ele>
<time>2010-08-29T17:26:41Z</time>
<desc>lat.=55.921825, lon.=26.481981, Alt.=100.739319m. Speed=25.056000m/h.</desc>
<speed>6.960000</speed>
</trkpt>
<trkpt lat="55.921761" lon="26.482012">
<ele>100.278381</ele>
<time>2010-08-29T17:26:42Z</time>
<desc>lat.=55.921761, lon.=26.482012, Alt.=100.278381m. Speed=23.832001m/h.</desc>
<speed>6.620000</speed>
</trkpt>
<trkpt lat="55.921700" lon="26.482046">
<ele>100.163147</ele>
<time>2010-08-29T17:26:43Z</time>
<desc>lat.=55.921700, lon.=26.482046, Alt.=100.163147m. Speed=24.912001m/h.</desc>
<speed>6.920000</speed>
</trkpt>
<trkpt lat="55.921638" lon="26.482082">
<ele>100.204163</ele>
<time>2010-08-29T17:26:44Z</time>
<desc>lat.=55.921638, lon.=26.482082, Alt.=100.204163m. Speed=25.775999m/h.</desc>
<speed>7.160000</speed>
</trkpt>
<trkpt lat="55.921581" lon="26.482111">
<ele>100.057678</ele>
<time>2010-08-29T17:26:45Z</time>
<desc>lat.=55.921581, lon.=26.482111, Alt.=100.057678m. Speed=25.812000m/h.</desc>
<speed>7.170000</speed>
</trkpt>
<trkpt lat="55.921516" lon="26.482134">
<ele>99.790100</ele>
<time>2010-08-29T17:26:46Z</time>
<desc>lat.=55.921516, lon.=26.482134, Alt.=99.790100m. Speed=25.775999m/h.</desc>
<speed>7.160000</speed>
</trkpt>
<trkpt lat="55.921455" lon="26.482161">
<ele>99.471741</ele>
<time>2010-08-29T17:26:47Z</time>
<desc>lat.=55.921455, lon.=26.482161, Alt.=99.471741m. Speed=25.020000m/h.</desc>
<speed>6.950000</speed>
</trkpt>
<trkpt lat="55.921394" lon="26.482185">
<ele>99.381897</ele>
<time>2010-08-29T17:26:48Z</time>
<desc>lat.=55.921394, lon.=26.482185, Alt.=99.381897m. Speed=25.416000m/h.</desc>
<speed>7.060000</speed>
</trkpt>
<trkpt lat="55.921333" lon="26.482212">
<ele>99.432678</ele>
<time>2010-08-29T17:26:49Z</time>
<desc>lat.=55.921333, lon.=26.482212, Alt.=99.432678m. Speed=25.271999m/h.</desc>
<speed>7.020000</speed>
</trkpt>
<trkpt lat="55.921276" lon="26.482241">
<ele>99.313538</ele>
<time>2010-08-29T17:26:50Z</time>
<desc>lat.=55.921276, lon.=26.482241, Alt.=99.313538m. Speed=25.236000m/h.</desc>
<speed>7.010000</speed>
</trkpt>
<trkpt lat="55.921215" lon="26.482269">
<ele>99.227600</ele>
<time>2010-08-29T17:26:51Z</time>
<desc>lat.=55.921215, lon.=26.482269, Alt.=99.227600m. Speed=24.804001m/h.</desc>
<speed>6.890000</speed>
</trkpt>
<trkpt lat="55.921154" lon="26.482298">
<ele>99.264709</ele>
<time>2010-08-29T17:26:52Z</time>
<desc>lat.=55.921154, lon.=26.482298, Alt.=99.264709m. Speed=22.284000m/h.</desc>
<speed>6.190000</speed>
</trkpt>
<trkpt lat="55.921093" lon="26.482330">
<ele>99.532288</ele>
<time>2010-08-29T17:26:53Z</time>
<desc>lat.=55.921093, lon.=26.482330, Alt.=99.532288m. Speed=25.416000m/h.</desc>
<speed>7.060000</speed>
</trkpt>
<trkpt lat="55.921028" lon="26.482361">
<ele>99.432678</ele>
<time>2010-08-29T17:26:54Z</time>
<desc>lat.=55.921028, lon.=26.482361, Alt.=99.432678m. Speed=25.559999m/h.</desc>
<speed>7.100000</speed>
</trkpt>
<trkpt lat="55.920963" lon="26.482386">
<ele>99.315491</ele>
<time>2010-08-29T17:26:55Z</time>
<desc>lat.=55.920963, lon.=26.482386, Alt.=99.315491m. Speed=25.236000m/h.</desc>
<speed>7.010000</speed>
</trkpt>
<trkpt lat="55.920902" lon="26.482410">
<ele>99.163147</ele>
<time>2010-08-29T17:26:56Z</time>
<desc>lat.=55.920902, lon.=26.482410, Alt.=99.163147m. Speed=25.308001m/h.</desc>
<speed>7.030000</speed>
</trkpt>
<trkpt lat="55.920841" lon="26.482435">
<ele>98.915100</ele>
<time>2010-08-29T17:26:57Z</time>
<desc>lat.=55.920841, lon.=26.482435, Alt.=98.915100m. Speed=25.020000m/h.</desc>
<speed>6.950000</speed>
</trkpt>
<trkpt lat="55.920784" lon="26.482456">
<ele>98.674866</ele>
<time>2010-08-29T17:26:58Z</time>
<desc>lat.=55.920784, lon.=26.482456, Alt.=98.674866m. Speed=24.768000m/h.</desc>
<speed>6.880000</speed>
</trkpt>
<trkpt lat="55.920727" lon="26.482481">
<ele>98.450256</ele>
<time>2010-08-29T17:26:59Z</time>
<desc>lat.=55.920727, lon.=26.482481, Alt.=98.450256m. Speed=24.336000m/h.</desc>
<speed>6.760000</speed>
</trkpt>
<trkpt lat="55.920666" lon="26.482504">
<ele>98.241272</ele>
<time>2010-08-29T17:27:00Z</time>
<desc>lat.=55.920666, lon.=26.482504, Alt.=98.241272m. Speed=24.264000m/h.</desc>
<speed>6.740000</speed>
</trkpt>
<trkpt lat="55.920609" lon="26.482525">
<ele>98.104553</ele>
<time>2010-08-29T17:27:01Z</time>
<desc>lat.=55.920609, lon.=26.482525, Alt.=98.104553m. Speed=22.464001m/h.</desc>
<speed>6.240000</speed>
</trkpt>
<trkpt lat="55.920555" lon="26.482548">
<ele>98.178772</ele>
<time>2010-08-29T17:27:02Z</time>
<desc>lat.=55.920555, lon.=26.482548, Alt.=98.178772m. Speed=22.680000m/h.</desc>
<speed>6.300000</speed>
</trkpt>
<trkpt lat="55.920502" lon="26.482573">
<ele>97.969788</ele>
<time>2010-08-29T17:27:03Z</time>
<desc>lat.=55.920502, lon.=26.482573, Alt.=97.969788m. Speed=21.024000m/h.</desc>
<speed>5.840000</speed>
</trkpt>
<trkpt lat="55.920448" lon="26.482611">
<ele>98.321350</ele>
<time>2010-08-29T17:27:04Z</time>
<desc>lat.=55.920448, lon.=26.482611, Alt.=98.321350m. Speed=21.455999m/h.</desc>
<speed>5.960000</speed>
</trkpt>
<trkpt lat="55.920399" lon="26.482639">
<ele>98.053772</ele>
<time>2010-08-29T17:27:05Z</time>
<desc>lat.=55.920399, lon.=26.482639, Alt.=98.053772m. Speed=20.016001m/h.</desc>
<speed>5.560000</speed>
</trkpt>
<trkpt lat="55.920345" lon="26.482662">
<ele>97.979553</ele>
<time>2010-08-29T17:27:06Z</time>
<desc>lat.=55.920345, lon.=26.482662, Alt.=97.979553m. Speed=23.292000m/h.</desc>
<speed>6.470000</speed>
</trkpt>
<trkpt lat="55.920284" lon="26.482681">
<ele>97.799866</ele>
<time>2010-08-29T17:27:07Z</time>
<desc>lat.=55.920284, lon.=26.482681, Alt.=97.799866m. Speed=22.788000m/h.</desc>
<speed>6.330000</speed>
</trkpt>
<trkpt lat="55.920227" lon="26.482693">
<ele>97.754944</ele>
<time>2010-08-29T17:27:08Z</time>
<desc>lat.=55.920227, lon.=26.482693, Alt.=97.754944m. Speed=21.455999m/h.</desc>
<speed>5.960000</speed>
</trkpt>
<trkpt lat="55.920177" lon="26.482706">
<ele>97.665100</ele>
<time>2010-08-29T17:27:09Z</time>
<desc>lat.=55.920177, lon.=26.482706, Alt.=97.665100m. Speed=20.124001m/h.</desc>
<speed>5.590000</speed>
</trkpt>
<trkpt lat="55.920128" lon="26.482723">
<ele>97.844788</ele>
<time>2010-08-29T17:27:10Z</time>
<desc>lat.=55.920128, lon.=26.482723, Alt.=97.844788m. Speed=21.167999m/h.</desc>
<speed>5.880000</speed>
</trkpt>
<trkpt lat="55.920067" lon="26.482750">
<ele>97.979553</ele>
<time>2010-08-29T17:27:11Z</time>
<desc>lat.=55.920067, lon.=26.482750, Alt.=97.979553m. Speed=24.624001m/h.</desc>
<speed>6.840000</speed>
</trkpt>
<trkpt lat="55.920017" lon="26.482758">
<ele>97.137756</ele>
<time>2010-08-29T17:27:12Z</time>
<desc>lat.=55.920017, lon.=26.482758, Alt.=97.137756m. Speed=15.804000m/h.</desc>
<speed>4.390000</speed>
</trkpt>
<trkpt lat="55.919979" lon="26.482779">
<ele>96.887756</ele>
<time>2010-08-29T17:27:13Z</time>
<desc>lat.=55.919979, lon.=26.482779, Alt.=96.887756m. Speed=16.848000m/h.</desc>
<speed>4.680000</speed>
</trkpt>
<trkpt lat="55.919933" lon="26.482805">
<ele>97.042053</ele>
<time>2010-08-29T17:27:14Z</time>
<desc>lat.=55.919933, lon.=26.482805, Alt.=97.042053m. Speed=17.856001m/h.</desc>
<speed>4.960000</speed>
</trkpt>
<trkpt lat="55.919884" lon="26.482828">
<ele>97.294006</ele>
<time>2010-08-29T17:27:15Z</time>
<desc>lat.=55.919884, lon.=26.482828, Alt.=97.294006m. Speed=19.620001m/h.</desc>
<speed>5.450000</speed>
</trkpt>
<trkpt lat="55.919819" lon="26.482870">
<ele>97.780334</ele>
<time>2010-08-29T17:27:16Z</time>
<desc>lat.=55.919819, lon.=26.482870, Alt.=97.780334m. Speed=20.591999m/h.</desc>
<speed>5.720000</speed>
</trkpt>
<trkpt lat="55.919765" lon="26.482901">
<ele>97.756897</ele>
<time>2010-08-29T17:27:17Z</time>
<desc>lat.=55.919765, lon.=26.482901, Alt.=97.756897m. Speed=20.087999m/h.</desc>
<speed>5.580000</speed>
</trkpt>
<trkpt lat="55.919708" lon="26.482922">
<ele>98.272522</ele>
<time>2010-08-29T17:27:18Z</time>
<desc>lat.=55.919708, lon.=26.482922, Alt.=98.272522m. Speed=21.167999m/h.</desc>
<speed>5.880000</speed>
</trkpt>
<trkpt lat="55.919655" lon="26.482941">
<ele>98.594788</ele>
<time>2010-08-29T17:27:19Z</time>
<desc>lat.=55.919655, lon.=26.482941, Alt.=98.594788m. Speed=19.007999m/h.</desc>
<speed>5.280000</speed>
</trkpt>
<trkpt lat="55.919601" lon="26.482960">
<ele>98.487366</ele>
<time>2010-08-29T17:27:20Z</time>
<desc>lat.=55.919601, lon.=26.482960, Alt.=98.487366m. Speed=19.908001m/h.</desc>
<speed>5.530000</speed>
</trkpt>
<trkpt lat="55.919537" lon="26.482983">
<ele>98.342834</ele>
<time>2010-08-29T17:27:21Z</time>
<desc>lat.=55.919537, lon.=26.482983, Alt.=98.342834m. Speed=23.507999m/h.</desc>
<speed>6.530000</speed>
</trkpt>
<trkpt lat="55.919460" lon="26.483004">
<ele>97.440491</ele>
<time>2010-08-29T17:27:22Z</time>
<desc>lat.=55.919460, lon.=26.483004, Alt.=97.440491m. Speed=24.011999m/h.</desc>
<speed>6.670000</speed>
</trkpt>
<trkpt lat="55.919388" lon="26.483034">
<ele>96.932678</ele>
<time>2010-08-29T17:27:23Z</time>
<desc>lat.=55.919388, lon.=26.483034, Alt.=96.932678m. Speed=25.020000m/h.</desc>
<speed>6.950000</speed>
</trkpt>
<trkpt lat="55.919312" lon="26.483059">
<ele>97.210022</ele>
<time>2010-08-29T17:27:24Z</time>
<desc>lat.=55.919312, lon.=26.483059, Alt.=97.210022m. Speed=25.452000m/h.</desc>
<speed>7.070000</speed>
</trkpt>
<trkpt lat="55.919239" lon="26.483084">
<ele>97.268616</ele>
<time>2010-08-29T17:27:25Z</time>
<desc>lat.=55.919239, lon.=26.483084, Alt.=97.268616m. Speed=26.136000m/h.</desc>
<speed>7.260000</speed>
</trkpt>
<trkpt lat="55.919163" lon="26.483118">
<ele>97.016663</ele>
<time>2010-08-29T17:27:26Z</time>
<desc>lat.=55.919163, lon.=26.483118, Alt.=97.016663m. Speed=27.719999m/h.</desc>
<speed>7.700000</speed>
</trkpt>
<trkpt lat="55.919102" lon="26.483141">
<ele>97.274475</ele>
<time>2010-08-29T17:27:27Z</time>
<desc>lat.=55.919102, lon.=26.483141, Alt.=97.274475m. Speed=25.020000m/h.</desc>
<speed>6.950000</speed>
</trkpt>
<trkpt lat="55.919037" lon="26.483162">
<ele>97.377991</ele>
<time>2010-08-29T17:27:28Z</time>
<desc>lat.=55.919037, lon.=26.483162, Alt.=97.377991m. Speed=23.976000m/h.</desc>
<speed>6.660000</speed>
</trkpt>
<trkpt lat="55.918976" lon="26.483183">
<ele>97.241272</ele>
<time>2010-08-29T17:27:29Z</time>
<desc>lat.=55.918976, lon.=26.483183, Alt.=97.241272m. Speed=23.112000m/h.</desc>
<speed>6.420000</speed>
</trkpt>
<trkpt lat="55.918919" lon="26.483206">
<ele>97.909241</ele>
<time>2010-08-29T17:27:30Z</time>
<desc>lat.=55.918919, lon.=26.483206, Alt.=97.909241m. Speed=21.455999m/h.</desc>
<speed>5.960000</speed>
</trkpt>
<trkpt lat="55.918865" lon="26.483231">
<ele>98.161194</ele>
<time>2010-08-29T17:27:31Z</time>
<desc>lat.=55.918865, lon.=26.483231, Alt.=98.161194m. Speed=20.448000m/h.</desc>
<speed>5.680000</speed>
</trkpt>
<trkpt lat="55.918816" lon="26.483244">
<ele>98.215881</ele>
<time>2010-08-29T17:27:32Z</time>
<desc>lat.=55.918816, lon.=26.483244, Alt.=98.215881m. Speed=19.115999m/h.</desc>
<speed>5.310000</speed>
</trkpt>
<trkpt lat="55.918766" lon="26.483255">
<ele>98.081116</ele>
<time>2010-08-29T17:27:33Z</time>
<desc>lat.=55.918766, lon.=26.483255, Alt.=98.081116m. Speed=18.719999m/h.</desc>
<speed>5.200000</speed>
</trkpt>
<trkpt lat="55.918720" lon="26.483263">
<ele>98.047913</ele>
<time>2010-08-29T17:27:34Z</time>
<desc>lat.=55.918720, lon.=26.483263, Alt.=98.047913m. Speed=18.035999m/h.</desc>
<speed>5.010000</speed>
</trkpt>
<trkpt lat="55.918671" lon="26.483274">
<ele>97.997131</ele>
<time>2010-08-29T17:27:35Z</time>
<desc>lat.=55.918671, lon.=26.483274, Alt.=97.997131m. Speed=18.468000m/h.</desc>
<speed>5.130000</speed>
</trkpt>
<trkpt lat="55.918625" lon="26.483292">
<ele>98.057678</ele>
<time>2010-08-29T17:27:36Z</time>
<desc>lat.=55.918625, lon.=26.483292, Alt.=98.057678m. Speed=18.180000m/h.</desc>
<speed>5.050000</speed>
</trkpt>
<trkpt lat="55.918579" lon="26.483309">
<ele>98.155334</ele>
<time>2010-08-29T17:27:37Z</time>
<desc>lat.=55.918579, lon.=26.483309, Alt.=98.155334m. Speed=18.143999m/h.</desc>
<speed>5.040000</speed>
</trkpt>
<trkpt lat="55.918533" lon="26.483324">
<ele>98.319397</ele>
<time>2010-08-29T17:27:38Z</time>
<desc>lat.=55.918533, lon.=26.483324, Alt.=98.319397m. Speed=17.820000m/h.</desc>
<speed>4.950000</speed>
</trkpt>
<trkpt lat="55.918491" lon="26.483339">
<ele>98.415100</ele>
<time>2010-08-29T17:27:39Z</time>
<desc>lat.=55.918491, lon.=26.483339, Alt.=98.415100m. Speed=17.568001m/h.</desc>
<speed>4.880000</speed>
</trkpt>
<trkpt lat="55.918446" lon="26.483353">
<ele>98.442444</ele>
<time>2010-08-29T17:27:40Z</time>
<desc>lat.=55.918446, lon.=26.483353, Alt.=98.442444m. Speed=18.072001m/h.</desc>
<speed>5.020000</speed>
</trkpt>
<trkpt lat="55.918404" lon="26.483368">
<ele>98.450256</ele>
<time>2010-08-29T17:27:41Z</time>
<desc>lat.=55.918404, lon.=26.483368, Alt.=98.450256m. Speed=18.396000m/h.</desc>
<speed>5.110000</speed>
</trkpt>
<trkpt lat="55.918354" lon="26.483383">
<ele>98.534241</ele>
<time>2010-08-29T17:27:42Z</time>
<desc>lat.=55.918354, lon.=26.483383, Alt.=98.534241m. Speed=18.396000m/h.</desc>
<speed>5.110000</speed>
</trkpt>
<trkpt lat="55.918308" lon="26.483395">
<ele>98.659241</ele>
<time>2010-08-29T17:27:43Z</time>
<desc>lat.=55.918308, lon.=26.483395, Alt.=98.659241m. Speed=18.684000m/h.</desc>
<speed>5.190000</speed>
</trkpt>
<trkpt lat="55.918262" lon="26.483418">
<ele>99.085022</ele>
<time>2010-08-29T17:27:44Z</time>
<desc>lat.=55.918262, lon.=26.483418, Alt.=99.085022m. Speed=19.476000m/h.</desc>
<speed>5.410000</speed>
</trkpt>
<trkpt lat="55.918213" lon="26.483435">
<ele>99.356506</ele>
<time>2010-08-29T17:27:45Z</time>
<desc>lat.=55.918213, lon.=26.483435, Alt.=99.356506m. Speed=19.764000m/h.</desc>
<speed>5.490000</speed>
</trkpt>
<trkpt lat="55.918163" lon="26.483446">
<ele>99.610413</ele>
<time>2010-08-29T17:27:46Z</time>
<desc>lat.=55.918163, lon.=26.483446, Alt.=99.610413m. Speed=19.691999m/h.</desc>
<speed>5.470000</speed>
</trkpt>
<trkpt lat="55.918114" lon="26.483454">
<ele>99.667053</ele>
<time>2010-08-29T17:27:47Z</time>
<desc>lat.=55.918114, lon.=26.483454, Alt.=99.667053m. Speed=18.792000m/h.</desc>
<speed>5.220000</speed>
</trkpt>
<trkpt lat="55.918064" lon="26.483467">
<ele>99.758850</ele>
<time>2010-08-29T17:27:48Z</time>
<desc>lat.=55.918064, lon.=26.483467, Alt.=99.758850m. Speed=19.691999m/h.</desc>
<speed>5.470000</speed>
</trkpt>
<trkpt lat="55.918015" lon="26.483471">
<ele>99.305725</ele>
<time>2010-08-29T17:27:49Z</time>
<desc>lat.=55.918015, lon.=26.483471, Alt.=99.305725m. Speed=18.360001m/h.</desc>
<speed>5.100000</speed>
</trkpt>
<trkpt lat="55.917969" lon="26.483479">
<ele>99.155334</ele>
<time>2010-08-29T17:27:50Z</time>
<desc>lat.=55.917969, lon.=26.483479, Alt.=99.155334m. Speed=19.296000m/h.</desc>
<speed>5.360000</speed>
</trkpt>
<trkpt lat="55.917915" lon="26.483492">
<ele>99.387756</ele>
<time>2010-08-29T17:27:51Z</time>
<desc>lat.=55.917915, lon.=26.483492, Alt.=99.387756m. Speed=19.332001m/h.</desc>
<speed>5.370000</speed>
</trkpt>
<trkpt lat="55.917870" lon="26.483501">
<ele>99.391663</ele>
<time>2010-08-29T17:27:52Z</time>
<desc>lat.=55.917870, lon.=26.483501, Alt.=99.391663m. Speed=18.827999m/h.</desc>
<speed>5.230000</speed>
</trkpt>
<trkpt lat="55.917824" lon="26.483513">
<ele>99.602600</ele>
<time>2010-08-29T17:27:53Z</time>
<desc>lat.=55.917824, lon.=26.483513, Alt.=99.602600m. Speed=19.007999m/h.</desc>
<speed>5.280000</speed>
</trkpt>
<trkpt lat="55.917778" lon="26.483522">
<ele>99.659241</ele>
<time>2010-08-29T17:27:54Z</time>
<desc>lat.=55.917778, lon.=26.483522, Alt.=99.659241m. Speed=18.143999m/h.</desc>
<speed>5.040000</speed>
</trkpt>
<trkpt lat="55.917736" lon="26.483530">
<ele>99.692444</ele>
<time>2010-08-29T17:27:55Z</time>
<desc>lat.=55.917736, lon.=26.483530, Alt.=99.692444m. Speed=17.459999m/h.</desc>
<speed>4.850000</speed>
</trkpt>
<trkpt lat="55.917690" lon="26.483536">
<ele>99.627991</ele>
<time>2010-08-29T17:27:56Z</time>
<desc>lat.=55.917690, lon.=26.483536, Alt.=99.627991m. Speed=18.035999m/h.</desc>
<speed>5.010000</speed>
</trkpt>
<trkpt lat="55.917645" lon="26.483545">
<ele>99.667053</ele>
<time>2010-08-29T17:27:57Z</time>
<desc>lat.=55.917645, lon.=26.483545, Alt.=99.667053m. Speed=18.540001m/h.</desc>
<speed>5.150000</speed>
</trkpt>
<trkpt lat="55.917595" lon="26.483557">
<ele>99.723694</ele>
<time>2010-08-29T17:27:58Z</time>
<desc>lat.=55.917595, lon.=26.483557, Alt.=99.723694m. Speed=18.431999m/h.</desc>
<speed>5.120000</speed>
</trkpt>
<trkpt lat="55.917549" lon="26.483564">
<ele>99.764709</ele>
<time>2010-08-29T17:27:59Z</time>
<desc>lat.=55.917549, lon.=26.483564, Alt.=99.764709m. Speed=17.712000m/h.</desc>
<speed>4.920000</speed>
</trkpt>
<trkpt lat="55.917507" lon="26.483574">
<ele>99.788147</ele>
<time>2010-08-29T17:28:00Z</time>
<desc>lat.=55.917507, lon.=26.483574, Alt.=99.788147m. Speed=16.812000m/h.</desc>
<speed>4.670000</speed>
</trkpt>
<trkpt lat="55.917465" lon="26.483583">
<ele>99.844788</ele>
<time>2010-08-29T17:28:01Z</time>
<desc>lat.=55.917465, lon.=26.483583, Alt.=99.844788m. Speed=16.056000m/h.</desc>
<speed>4.460000</speed>
</trkpt>
<trkpt lat="55.917431" lon="26.483595">
<ele>99.866272</ele>
<time>2010-08-29T17:28:02Z</time>
<desc>lat.=55.917431, lon.=26.483595, Alt.=99.866272m. Speed=15.408000m/h.</desc>
<speed>4.280000</speed>
</trkpt>
<trkpt lat="55.917393" lon="26.483601">
<ele>99.917053</ele>
<time>2010-08-29T17:28:03Z</time>
<desc>lat.=55.917393, lon.=26.483601, Alt.=99.917053m. Speed=14.868000m/h.</desc>
<speed>4.130000</speed>
</trkpt>
<trkpt lat="55.917355" lon="26.483608">
<ele>100.034241</ele>
<time>2010-08-29T17:28:04Z</time>
<desc>lat.=55.917355, lon.=26.483608, Alt.=100.034241m. Speed=14.148000m/h.</desc>
<speed>3.930000</speed>
</trkpt>
<trkpt lat="55.917320" lon="26.483616">
<ele>100.040100</ele>
<time>2010-08-29T17:28:05Z</time>
<desc>lat.=55.917320, lon.=26.483616, Alt.=100.040100m. Speed=13.500000m/h.</desc>
<speed>3.750000</speed>
</trkpt>
<trkpt lat="55.917290" lon="26.483625">
<ele>99.950256</ele>
<time>2010-08-29T17:28:06Z</time>
<desc>lat.=55.917290, lon.=26.483625, Alt.=99.950256m. Speed=12.852000m/h.</desc>
<speed>3.570000</speed>
</trkpt>
<trkpt lat="55.917259" lon="26.483633">
<ele>99.999084</ele>
<time>2010-08-29T17:28:07Z</time>
<desc>lat.=55.917259, lon.=26.483633, Alt.=99.999084m. Speed=12.168000m/h.</desc>
<speed>3.380000</speed>
</trkpt>
<trkpt lat="55.917225" lon="26.483639">
<ele>100.024475</ele>
<time>2010-08-29T17:28:08Z</time>
<desc>lat.=55.917225, lon.=26.483639, Alt.=100.024475m. Speed=11.736000m/h.</desc>
<speed>3.260000</speed>
</trkpt>
<trkpt lat="55.917198" lon="26.483646">
<ele>99.997131</ele>
<time>2010-08-29T17:28:09Z</time>
<desc>lat.=55.917198, lon.=26.483646, Alt.=99.997131m. Speed=11.232000m/h.</desc>
<speed>3.120000</speed>
</trkpt>
<trkpt lat="55.917171" lon="26.483648">
<ele>100.067444</ele>
<time>2010-08-29T17:28:10Z</time>
<desc>lat.=55.917171, lon.=26.483648, Alt.=100.067444m. Speed=11.232000m/h.</desc>
<speed>3.120000</speed>
</trkpt>
<trkpt lat="55.917145" lon="26.483656">
<ele>100.170959</ele>
<time>2010-08-29T17:28:11Z</time>
<desc>lat.=55.917145, lon.=26.483656, Alt.=100.170959m. Speed=11.124000m/h.</desc>
<speed>3.090000</speed>
</trkpt>
<trkpt lat="55.917118" lon="26.483664">
<ele>100.143616</ele>
<time>2010-08-29T17:28:12Z</time>
<desc>lat.=55.917118, lon.=26.483664, Alt.=100.143616m. Speed=10.692000m/h.</desc>
<speed>2.970000</speed>
</trkpt>
<trkpt lat="55.917088" lon="26.483677">
<ele>100.110413</ele>
<time>2010-08-29T17:28:13Z</time>
<desc>lat.=55.917088, lon.=26.483677, Alt.=100.110413m. Speed=10.080000m/h.</desc>
<speed>2.800000</speed>
</trkpt>
<trkpt lat="55.917065" lon="26.483683">
<ele>100.124084</ele>
<time>2010-08-29T17:28:14Z</time>
<desc>lat.=55.917065, lon.=26.483683, Alt.=100.124084m. Speed=10.080000m/h.</desc>
<speed>2.800000</speed>
</trkpt>
<trkpt lat="55.917042" lon="26.483692">
<ele>100.032288</ele>
<time>2010-08-29T17:28:15Z</time>
<desc>lat.=55.917042, lon.=26.483692, Alt.=100.032288m. Speed=10.224000m/h.</desc>
<speed>2.840000</speed>
</trkpt>
<trkpt lat="55.917015" lon="26.483696">
<ele>99.920959</ele>
<time>2010-08-29T17:28:16Z</time>
<desc>lat.=55.917015, lon.=26.483696, Alt.=99.920959m. Speed=11.772000m/h.</desc>
<speed>3.270000</speed>
</trkpt>
<trkpt lat="55.916985" lon="26.483698">
<ele>99.797913</ele>
<time>2010-08-29T17:28:17Z</time>
<desc>lat.=55.916985, lon.=26.483698, Alt.=99.797913m. Speed=13.140000m/h.</desc>
<speed>3.650000</speed>
</trkpt>
<trkpt lat="55.916950" lon="26.483704">
<ele>99.770569</ele>
<time>2010-08-29T17:28:18Z</time>
<desc>lat.=55.916950, lon.=26.483704, Alt.=99.770569m. Speed=14.112000m/h.</desc>
<speed>3.920000</speed>
</trkpt>
<trkpt lat="55.916916" lon="26.483713">
<ele>99.762756</ele>
<time>2010-08-29T17:28:19Z</time>
<desc>lat.=55.916916, lon.=26.483713, Alt.=99.762756m. Speed=14.076000m/h.</desc>
<speed>3.910000</speed>
</trkpt>
<trkpt lat="55.916882" lon="26.483727">
<ele>99.721741</ele>
<time>2010-08-29T17:28:20Z</time>
<desc>lat.=55.916882, lon.=26.483727, Alt.=99.721741m. Speed=14.544000m/h.</desc>
<speed>4.040000</speed>
</trkpt>
<trkpt lat="55.916843" lon="26.483740">
<ele>99.715881</ele>
<time>2010-08-29T17:28:21Z</time>
<desc>lat.=55.916843, lon.=26.483740, Alt.=99.715881m. Speed=15.372000m/h.</desc>
<speed>4.270000</speed>
</trkpt>
<trkpt lat="55.916805" lon="26.483751">
<ele>99.825256</ele>
<time>2010-08-29T17:28:22Z</time>
<desc>lat.=55.916805, lon.=26.483751, Alt.=99.825256m. Speed=16.740000m/h.</desc>
<speed>4.650000</speed>
</trkpt>
<trkpt lat="55.916763" lon="26.483765">
<ele>99.838928</ele>
<time>2010-08-29T17:28:23Z</time>
<desc>lat.=55.916763, lon.=26.483765, Alt.=99.838928m. Speed=16.452000m/h.</desc>
<speed>4.570000</speed>
</trkpt>
<trkpt lat="55.916725" lon="26.483776">
<ele>99.827209</ele>
<time>2010-08-29T17:28:24Z</time>
<desc>lat.=55.916725, lon.=26.483776, Alt.=99.827209m. Speed=16.236000m/h.</desc>
<speed>4.510000</speed>
</trkpt>
<trkpt lat="55.916683" lon="26.483788">
<ele>99.745178</ele>
<time>2010-08-29T17:28:25Z</time>
<desc>lat.=55.916683, lon.=26.483788, Alt.=99.745178m. Speed=16.020000m/h.</desc>
<speed>4.450000</speed>
</trkpt>
<trkpt lat="55.916645" lon="26.483795">
<ele>99.889709</ele>
<time>2010-08-29T17:28:26Z</time>
<desc>lat.=55.916645, lon.=26.483795, Alt.=99.889709m. Speed=15.732000m/h.</desc>
<speed>4.370000</speed>
</trkpt>
<trkpt lat="55.916603" lon="26.483809">
<ele>99.967834</ele>
<time>2010-08-29T17:28:27Z</time>
<desc>lat.=55.916603, lon.=26.483809, Alt.=99.967834m. Speed=16.200001m/h.</desc>
<speed>4.500000</speed>
</trkpt>
<trkpt lat="55.916565" lon="26.483816">
<ele>99.932678</ele>
<time>2010-08-29T17:28:28Z</time>
<desc>lat.=55.916565, lon.=26.483816, Alt.=99.932678m. Speed=17.136000m/h.</desc>
<speed>4.760000</speed>
</trkpt>
<trkpt lat="55.916519" lon="26.483828">
<ele>99.901428</ele>
<time>2010-08-29T17:28:29Z</time>
<desc>lat.=55.916519, lon.=26.483828, Alt.=99.901428m. Speed=16.812000m/h.</desc>
<speed>4.670000</speed>
</trkpt>
<trkpt lat="55.916477" lon="26.483839">
<ele>99.825256</ele>
<time>2010-08-29T17:28:30Z</time>
<desc>lat.=55.916477, lon.=26.483839, Alt.=99.825256m. Speed=16.271999m/h.</desc>
<speed>4.520000</speed>
</trkpt>
<trkpt lat="55.916439" lon="26.483847">
<ele>99.799866</ele>
<time>2010-08-29T17:28:31Z</time>
<desc>lat.=55.916439, lon.=26.483847, Alt.=99.799866m. Speed=16.091999m/h.</desc>
<speed>4.470000</speed>
</trkpt>
<trkpt lat="55.916401" lon="26.483854">
<ele>99.725647</ele>
<time>2010-08-29T17:28:32Z</time>
<desc>lat.=55.916401, lon.=26.483854, Alt.=99.725647m. Speed=16.056000m/h.</desc>
<speed>4.460000</speed>
</trkpt>
<trkpt lat="55.916359" lon="26.483864">
<ele>99.665100</ele>
<time>2010-08-29T17:28:33Z</time>
<desc>lat.=55.916359, lon.=26.483864, Alt.=99.665100m. Speed=16.056000m/h.</desc>
<speed>4.460000</speed>
</trkpt>
<trkpt lat="55.916321" lon="26.483870">
<ele>99.655334</ele>
<time>2010-08-29T17:28:34Z</time>
<desc>lat.=55.916321, lon.=26.483870, Alt.=99.655334m. Speed=16.056000m/h.</desc>
<speed>4.460000</speed>
</trkpt>
<trkpt lat="55.916283" lon="26.483875">
<ele>99.510803</ele>
<time>2010-08-29T17:28:35Z</time>
<desc>lat.=55.916283, lon.=26.483875, Alt.=99.510803m. Speed=16.164000m/h.</desc>
<speed>4.490000</speed>
</trkpt>
<trkpt lat="55.916241" lon="26.483877">
<ele>99.377991</ele>
<time>2010-08-29T17:28:36Z</time>
<desc>lat.=55.916241, lon.=26.483877, Alt.=99.377991m. Speed=15.480000m/h.</desc>
<speed>4.300000</speed>
</trkpt>
<trkpt lat="55.916203" lon="26.483891">
<ele>99.514709</ele>
<time>2010-08-29T17:28:37Z</time>
<desc>lat.=55.916203, lon.=26.483891, Alt.=99.514709m. Speed=15.480000m/h.</desc>
<speed>4.300000</speed>
</trkpt>
<trkpt lat="55.916164" lon="26.483891">
<ele>99.225647</ele>
<time>2010-08-29T17:28:38Z</time>
<desc>lat.=55.916164, lon.=26.483891, Alt.=99.225647m. Speed=15.084000m/h.</desc>
<speed>4.190000</speed>
</trkpt>
<trkpt lat="55.916130" lon="26.483887">
<ele>99.008850</ele>
<time>2010-08-29T17:28:39Z</time>
<desc>lat.=55.916130, lon.=26.483887, Alt.=99.008850m. Speed=14.688000m/h.</desc>
<speed>4.080000</speed>
</trkpt>
<trkpt lat="55.916092" lon="26.483885">
<ele>99.024475</ele>
<time>2010-08-29T17:28:40Z</time>
<desc>lat.=55.916092, lon.=26.483885, Alt.=99.024475m. Speed=14.976000m/h.</desc>
<speed>4.160000</speed>
</trkpt>
<trkpt lat="55.916054" lon="26.483887">
<ele>99.034241</ele>
<time>2010-08-29T17:28:41Z</time>
<desc>lat.=55.916054, lon.=26.483887, Alt.=99.034241m. Speed=14.760000m/h.</desc>
<speed>4.100000</speed>
</trkpt>
<trkpt lat="55.916016" lon="26.483885">
<ele>99.079163</ele>
<time>2010-08-29T17:28:42Z</time>
<desc>lat.=55.916016, lon.=26.483885, Alt.=99.079163m. Speed=14.724000m/h.</desc>
<speed>4.090000</speed>
</trkpt>
<trkpt lat="55.915981" lon="26.483875">
<ele>99.024475</ele>
<time>2010-08-29T17:28:43Z</time>
<desc>lat.=55.915981, lon.=26.483875, Alt.=99.024475m. Speed=15.696000m/h.</desc>
<speed>4.360000</speed>
</trkpt>
<trkpt lat="55.915943" lon="26.483854">
<ele>98.960022</ele>
<time>2010-08-29T17:28:44Z</time>
<desc>lat.=55.915943, lon.=26.483854, Alt.=98.960022m. Speed=14.832000m/h.</desc>
<speed>4.120000</speed>
</trkpt>
<trkpt lat="55.915905" lon="26.483826">
<ele>98.940491</ele>
<time>2010-08-29T17:28:45Z</time>
<desc>lat.=55.915905, lon.=26.483826, Alt.=98.940491m. Speed=14.616000m/h.</desc>
<speed>4.060000</speed>
</trkpt>
<trkpt lat="55.915863" lon="26.483812">
<ele>99.063538</ele>
<time>2010-08-29T17:28:46Z</time>
<desc>lat.=55.915863, lon.=26.483812, Alt.=99.063538m. Speed=15.732000m/h.</desc>
<speed>4.370000</speed>
</trkpt>
<trkpt lat="55.915821" lon="26.483795">
<ele>99.360413</ele>
<time>2010-08-29T17:28:47Z</time>
<desc>lat.=55.915821, lon.=26.483795, Alt.=99.360413m. Speed=17.927999m/h.</desc>
<speed>4.980000</speed>
</trkpt>
<trkpt lat="55.915779" lon="26.483770">
<ele>99.338928</ele>
<time>2010-08-29T17:28:48Z</time>
<desc>lat.=55.915779, lon.=26.483770, Alt.=99.338928m. Speed=16.452000m/h.</desc>
<speed>4.570000</speed>
</trkpt>
<trkpt lat="55.915745" lon="26.483747">
<ele>99.204163</ele>
<time>2010-08-29T17:28:49Z</time>
<desc>lat.=55.915745, lon.=26.483747, Alt.=99.204163m. Speed=15.732000m/h.</desc>
<speed>4.370000</speed>
</trkpt>
<trkpt lat="55.915707" lon="26.483725">
<ele>99.147522</ele>
<time>2010-08-29T17:28:50Z</time>
<desc>lat.=55.915707, lon.=26.483725, Alt.=99.147522m. Speed=14.076000m/h.</desc>
<speed>3.910000</speed>
</trkpt>
<trkpt lat="55.915676" lon="26.483706">
<ele>99.081116</ele>
<time>2010-08-29T17:28:51Z</time>
<desc>lat.=55.915676, lon.=26.483706, Alt.=99.081116m. Speed=12.384000m/h.</desc>
<speed>3.440000</speed>
</trkpt>
<trkpt lat="55.915649" lon="26.483692">
<ele>99.143616</ele>
<time>2010-08-29T17:28:52Z</time>
<desc>lat.=55.915649, lon.=26.483692, Alt.=99.143616m. Speed=10.512000m/h.</desc>
<speed>2.920000</speed>
</trkpt>
<trkpt lat="55.915627" lon="26.483673">
<ele>99.434631</ele>
<time>2010-08-29T17:28:53Z</time>
<desc>lat.=55.915627, lon.=26.483673, Alt.=99.434631m. Speed=9.612000m/h.</desc>
<speed>2.670000</speed>
</trkpt>
<trkpt lat="55.915607" lon="26.483650">
<ele>99.491272</ele>
<time>2010-08-29T17:28:54Z</time>
<desc>lat.=55.915607, lon.=26.483650, Alt.=99.491272m. Speed=8.784000m/h.</desc>
<speed>2.440000</speed>
</trkpt>
<trkpt lat="55.915588" lon="26.483635">
<ele>99.329163</ele>
<time>2010-08-29T17:28:55Z</time>
<desc>lat.=55.915588, lon.=26.483635, Alt.=99.329163m. Speed=7.884000m/h.</desc>
<speed>2.190000</speed>
</trkpt>
<trkpt lat="55.915569" lon="26.483633">
<ele>99.139709</ele>
<time>2010-08-29T17:28:56Z</time>
<desc>lat.=55.915569, lon.=26.483633, Alt.=99.139709m. Speed=8.748000m/h.</desc>
<speed>2.430000</speed>
</trkpt>
<trkpt lat="55.915550" lon="26.483650">
<ele>99.221741</ele>
<time>2010-08-29T17:28:57Z</time>
<desc>lat.=55.915550, lon.=26.483650, Alt.=99.221741m. Speed=9.612000m/h.</desc>
<speed>2.670000</speed>
</trkpt>
<trkpt lat="55.915535" lon="26.483675">
<ele>99.100647</ele>
<time>2010-08-29T17:28:58Z</time>
<desc>lat.=55.915535, lon.=26.483675, Alt.=99.100647m. Speed=8.820000m/h.</desc>
<speed>2.450000</speed>
</trkpt>
<trkpt lat="55.915520" lon="26.483711">
<ele>99.102600</ele>
<time>2010-08-29T17:28:59Z</time>
<desc>lat.=55.915520, lon.=26.483711, Alt.=99.102600m. Speed=10.260000m/h.</desc>
<speed>2.850000</speed>
</trkpt>
<trkpt lat="55.915508" lon="26.483746">
<ele>99.219788</ele>
<time>2010-08-29T17:29:00Z</time>
<desc>lat.=55.915508, lon.=26.483746, Alt.=99.219788m. Speed=8.640000m/h.</desc>
<speed>2.400000</speed>
</trkpt>
<trkpt lat="55.915504" lon="26.483791">
<ele>99.319397</ele>
<time>2010-08-29T17:29:01Z</time>
<desc>lat.=55.915504, lon.=26.483791, Alt.=99.319397m. Speed=11.052000m/h.</desc>
<speed>3.070000</speed>
</trkpt>
<trkpt lat="55.915504" lon="26.483862">
<ele>100.055725</ele>
<time>2010-08-29T17:29:02Z</time>
<desc>lat.=55.915504, lon.=26.483862, Alt.=100.055725m. Speed=11.772000m/h.</desc>
<speed>3.270000</speed>
</trkpt>
<trkpt lat="55.915501" lon="26.483915">
<ele>100.256897</ele>
<time>2010-08-29T17:29:03Z</time>
<desc>lat.=55.915501, lon.=26.483915, Alt.=100.256897m. Speed=10.656000m/h.</desc>
<speed>2.960000</speed>
</trkpt>
<trkpt lat="55.915497" lon="26.483969">
<ele>100.012756</ele>
<time>2010-08-29T17:29:04Z</time>
<desc>lat.=55.915497, lon.=26.483969, Alt.=100.012756m. Speed=11.556000m/h.</desc>
<speed>3.210000</speed>
</trkpt>
<trkpt lat="55.915497" lon="26.484020">
<ele>100.151428</ele>
<time>2010-08-29T17:29:05Z</time>
<desc>lat.=55.915497, lon.=26.484020, Alt.=100.151428m. Speed=10.188000m/h.</desc>
<speed>2.830000</speed>
</trkpt>
<trkpt lat="55.915497" lon="26.484070">
<ele>100.264709</ele>
<time>2010-08-29T17:29:06Z</time>
<desc>lat.=55.915497, lon.=26.484070, Alt.=100.264709m. Speed=10.116000m/h.</desc>
<speed>2.810000</speed>
</trkpt>
<trkpt lat="55.915493" lon="26.484112">
<ele>100.233459</ele>
<time>2010-08-29T17:29:07Z</time>
<desc>lat.=55.915493, lon.=26.484112, Alt.=100.233459m. Speed=8.964000m/h.</desc>
<speed>2.490000</speed>
</trkpt>
<trkpt lat="55.915489" lon="26.484154">
<ele>99.973694</ele>
<time>2010-08-29T17:29:08Z</time>
<desc>lat.=55.915489, lon.=26.484154, Alt.=99.973694m. Speed=8.640000m/h.</desc>
<speed>2.400000</speed>
</trkpt>
<trkpt lat="55.915489" lon="26.484194">
<ele>99.995178</ele>
<time>2010-08-29T17:29:09Z</time>
<desc>lat.=55.915489, lon.=26.484194, Alt.=99.995178m. Speed=8.316000m/h.</desc>
<speed>2.310000</speed>
</trkpt>
<trkpt lat="55.915485" lon="26.484236">
<ele>100.053772</ele>
<time>2010-08-29T17:29:10Z</time>
<desc>lat.=55.915485, lon.=26.484236, Alt.=100.053772m. Speed=7.344000m/h.</desc>
<speed>2.040000</speed>
</trkpt>
<trkpt lat="55.915485" lon="26.484270">
<ele>100.086975</ele>
<time>2010-08-29T17:29:11Z</time>
<desc>lat.=55.915485, lon.=26.484270, Alt.=100.086975m. Speed=7.236000m/h.</desc>
<speed>2.010000</speed>
</trkpt>
<trkpt lat="55.915482" lon="26.484301">
<ele>100.079163</ele>
<time>2010-08-29T17:29:12Z</time>
<desc>lat.=55.915482, lon.=26.484301, Alt.=100.079163m. Speed=6.516000m/h.</desc>
<speed>1.810000</speed>
</trkpt>
<trkpt lat="55.915485" lon="26.484327">
<ele>100.051819</ele>
<time>2010-08-29T17:29:13Z</time>
<desc>lat.=55.915485, lon.=26.484327, Alt.=100.051819m. Speed=6.552000m/h.</desc>
<speed>1.820000</speed>
</trkpt>
<trkpt lat="55.915482" lon="26.484358">
<ele>99.940491</ele>
<time>2010-08-29T17:29:14Z</time>
<desc>lat.=55.915482, lon.=26.484358, Alt.=99.940491m. Speed=5.688000m/h.</desc>
<speed>1.580000</speed>
</trkpt>
<trkpt lat="55.915482" lon="26.484390">
<ele>99.917053</ele>
<time>2010-08-29T17:29:15Z</time>
<desc>lat.=55.915482, lon.=26.484390, Alt.=99.917053m. Speed=6.696000m/h.</desc>
<speed>1.860000</speed>
</trkpt>
<trkpt lat="55.915485" lon="26.484425">
<ele>99.827209</ele>
<time>2010-08-29T17:29:16Z</time>
<desc>lat.=55.915485, lon.=26.484425, Alt.=99.827209m. Speed=7.308000m/h.</desc>
<speed>2.030000</speed>
</trkpt>
<trkpt lat="55.915489" lon="26.484465">
<ele>99.876038</ele>
<time>2010-08-29T17:29:17Z</time>
<desc>lat.=55.915489, lon.=26.484465, Alt.=99.876038m. Speed=9.036000m/h.</desc>
<speed>2.510000</speed>
</trkpt>
<trkpt lat="55.915497" lon="26.484507">
<ele>100.239319</ele>
<time>2010-08-29T17:29:18Z</time>
<desc>lat.=55.915497, lon.=26.484507, Alt.=100.239319m. Speed=9.360000m/h.</desc>
<speed>2.600000</speed>
</trkpt>
<trkpt lat="55.915501" lon="26.484545">
<ele>100.090881</ele>
<time>2010-08-29T17:29:19Z</time>
<desc>lat.=55.915501, lon.=26.484545, Alt.=100.090881m. Speed=8.640000m/h.</desc>
<speed>2.400000</speed>
</trkpt>
<trkpt lat="55.915501" lon="26.484587">
<ele>99.768616</ele>
<time>2010-08-29T17:29:20Z</time>
<desc>lat.=55.915501, lon.=26.484587, Alt.=99.768616m. Speed=7.848000m/h.</desc>
<speed>2.180000</speed>
</trkpt>
<trkpt lat="55.915504" lon="26.484621">
<ele>99.338928</ele>
<time>2010-08-29T17:29:21Z</time>
<desc>lat.=55.915504, lon.=26.484621, Alt.=99.338928m. Speed=7.668000m/h.</desc>
<speed>2.130000</speed>
</trkpt>
<trkpt lat="55.915508" lon="26.484657">
<ele>99.280334</ele>
<time>2010-08-29T17:29:22Z</time>
<desc>lat.=55.915508, lon.=26.484657, Alt.=99.280334m. Speed=7.848000m/h.</desc>
<speed>2.180000</speed>
</trkpt>
<trkpt lat="55.915512" lon="26.484694">
<ele>99.473694</ele>
<time>2010-08-29T17:29:23Z</time>
<desc>lat.=55.915512, lon.=26.484694, Alt.=99.473694m. Speed=7.776000m/h.</desc>
<speed>2.160000</speed>
</trkpt>
<trkpt lat="55.915516" lon="26.484732">
<ele>99.489319</ele>
<time>2010-08-29T17:29:24Z</time>
<desc>lat.=55.915516, lon.=26.484732, Alt.=99.489319m. Speed=7.668000m/h.</desc>
<speed>2.130000</speed>
</trkpt>
<trkpt lat="55.915520" lon="26.484768">
<ele>99.307678</ele>
<time>2010-08-29T17:29:25Z</time>
<desc>lat.=55.915520, lon.=26.484768, Alt.=99.307678m. Speed=7.776000m/h.</desc>
<speed>2.160000</speed>
</trkpt>
<trkpt lat="55.915520" lon="26.484800">
<ele>99.260803</ele>
<time>2010-08-29T17:29:26Z</time>
<desc>lat.=55.915520, lon.=26.484800, Alt.=99.260803m. Speed=7.236000m/h.</desc>
<speed>2.010000</speed>
</trkpt>
<trkpt lat="55.915516" lon="26.484835">
<ele>99.196350</ele>
<time>2010-08-29T17:29:27Z</time>
<desc>lat.=55.915516, lon.=26.484835, Alt.=99.196350m. Speed=7.848000m/h.</desc>
<speed>2.180000</speed>
</trkpt>
<trkpt lat="55.915516" lon="26.484867">
<ele>99.004944</ele>
<time>2010-08-29T17:29:28Z</time>
<desc>lat.=55.915516, lon.=26.484867, Alt.=99.004944m. Speed=7.236000m/h.</desc>
<speed>2.010000</speed>
</trkpt>
<trkpt lat="55.915520" lon="26.484898">
<ele>98.680725</ele>
<time>2010-08-29T17:29:29Z</time>
<desc>lat.=55.915520, lon.=26.484898, Alt.=98.680725m. Speed=7.380000m/h.</desc>
<speed>2.050000</speed>
</trkpt>
<trkpt lat="55.915524" lon="26.484926">
<ele>98.629944</ele>
<time>2010-08-29T17:29:30Z</time>
<desc>lat.=55.915524, lon.=26.484926, Alt.=98.629944m. Speed=6.912000m/h.</desc>
<speed>1.920000</speed>
</trkpt>
<trkpt lat="55.915524" lon="26.484964">
<ele>98.417053</ele>
<time>2010-08-29T17:29:31Z</time>
<desc>lat.=55.915524, lon.=26.484964, Alt.=98.417053m. Speed=8.172000m/h.</desc>
<speed>2.270000</speed>
</trkpt>
<trkpt lat="55.915531" lon="26.484999">
<ele>98.252991</ele>
<time>2010-08-29T17:29:32Z</time>
<desc>lat.=55.915531, lon.=26.484999, Alt.=98.252991m. Speed=8.064000m/h.</desc>
<speed>2.240000</speed>
</trkpt>
<trkpt lat="55.915535" lon="26.485048">
<ele>97.936584</ele>
<time>2010-08-29T17:29:33Z</time>
<desc>lat.=55.915535, lon.=26.485048, Alt.=97.936584m. Speed=9.828000m/h.</desc>
<speed>2.730000</speed>
</trkpt>
<trkpt lat="55.915543" lon="26.485090">
<ele>98.256897</ele>
<time>2010-08-29T17:29:34Z</time>
<desc>lat.=55.915543, lon.=26.485090, Alt.=98.256897m. Speed=9.504000m/h.</desc>
<speed>2.640000</speed>
</trkpt>
<trkpt lat="55.915546" lon="26.485134">
<ele>98.309631</ele>
<time>2010-08-29T17:29:35Z</time>
<desc>lat.=55.915546, lon.=26.485134, Alt.=98.309631m. Speed=9.756000m/h.</desc>
<speed>2.710000</speed>
</trkpt>
<trkpt lat="55.915550" lon="26.485178">
<ele>98.090881</ele>
<time>2010-08-29T17:29:36Z</time>
<desc>lat.=55.915550, lon.=26.485178, Alt.=98.090881m. Speed=10.188000m/h.</desc>
<speed>2.830000</speed>
</trkpt>
<trkpt lat="55.915562" lon="26.485228">
<ele>98.059631</ele>
<time>2010-08-29T17:29:37Z</time>
<desc>lat.=55.915562, lon.=26.485228, Alt.=98.059631m. Speed=10.620000m/h.</desc>
<speed>2.950000</speed>
</trkpt>
<trkpt lat="55.915562" lon="26.485281">
<ele>97.727600</ele>
<time>2010-08-29T17:29:38Z</time>
<desc>lat.=55.915562, lon.=26.485281, Alt.=97.727600m. Speed=10.908000m/h.</desc>
<speed>3.030000</speed>
</trkpt>
<trkpt lat="55.915565" lon="26.485329">
<ele>97.922913</ele>
<time>2010-08-29T17:29:39Z</time>
<desc>lat.=55.915565, lon.=26.485329, Alt.=97.922913m. Speed=11.484000m/h.</desc>
<speed>3.190000</speed>
</trkpt>
<trkpt lat="55.915573" lon="26.485378">
<ele>97.870178</ele>
<time>2010-08-29T17:29:40Z</time>
<desc>lat.=55.915573, lon.=26.485378, Alt.=97.870178m. Speed=11.052000m/h.</desc>
<speed>3.070000</speed>
</trkpt>
<trkpt lat="55.915581" lon="26.485415">
<ele>98.805725</ele>
<time>2010-08-29T17:29:41Z</time>
<desc>lat.=55.915581, lon.=26.485415, Alt.=98.805725m. Speed=10.188000m/h.</desc>
<speed>2.830000</speed>
</trkpt>
<trkpt lat="55.915585" lon="26.485455">
<ele>99.407288</ele>
<time>2010-08-29T17:29:42Z</time>
<desc>lat.=55.915585, lon.=26.485455, Alt.=99.407288m. Speed=9.468000m/h.</desc>
<speed>2.630000</speed>
</trkpt>
<trkpt lat="55.915585" lon="26.485498">
<ele>99.286194</ele>
<time>2010-08-29T17:29:43Z</time>
<desc>lat.=55.915585, lon.=26.485498, Alt.=99.286194m. Speed=8.964000m/h.</desc>
<speed>2.490000</speed>
</trkpt>
<trkpt lat="55.915588" lon="26.485540">
<ele>99.116272</ele>
<time>2010-08-29T17:29:44Z</time>
<desc>lat.=55.915588, lon.=26.485540, Alt.=99.116272m. Speed=8.604000m/h.</desc>
<speed>2.390000</speed>
</trkpt>
<trkpt lat="55.915592" lon="26.485580">
<ele>99.063538</ele>
<time>2010-08-29T17:29:45Z</time>
<desc>lat.=55.915592, lon.=26.485580, Alt.=99.063538m. Speed=8.136000m/h.</desc>
<speed>2.260000</speed>
</trkpt>
<trkpt lat="55.915592" lon="26.485619">
<ele>99.364319</ele>
<time>2010-08-29T17:29:46Z</time>
<desc>lat.=55.915592, lon.=26.485619, Alt.=99.364319m. Speed=8.136000m/h.</desc>
<speed>2.260000</speed>
</trkpt>
<trkpt lat="55.915588" lon="26.485659">
<ele>99.264709</ele>
<time>2010-08-29T17:29:47Z</time>
<desc>lat.=55.915588, lon.=26.485659, Alt.=99.264709m. Speed=7.632000m/h.</desc>
<speed>2.120000</speed>
</trkpt>
<trkpt lat="55.915592" lon="26.485695">
<ele>99.354553</ele>
<time>2010-08-29T17:29:48Z</time>
<desc>lat.=55.915592, lon.=26.485695, Alt.=99.354553m. Speed=8.892000m/h.</desc>
<speed>2.470000</speed>
</trkpt>
<trkpt lat="55.915596" lon="26.485735">
<ele>99.364319</ele>
<time>2010-08-29T17:29:49Z</time>
<desc>lat.=55.915596, lon.=26.485735, Alt.=99.364319m. Speed=8.676000m/h.</desc>
<speed>2.410000</speed>
</trkpt>
<trkpt lat="55.915596" lon="26.485775">
<ele>99.676819</ele>
<time>2010-08-29T17:29:50Z</time>
<desc>lat.=55.915596, lon.=26.485775, Alt.=99.676819m. Speed=9.540000m/h.</desc>
<speed>2.650000</speed>
</trkpt>
<trkpt lat="55.915592" lon="26.485821">
<ele>99.997131</ele>
<time>2010-08-29T17:29:51Z</time>
<desc>lat.=55.915592, lon.=26.485821, Alt.=99.997131m. Speed=8.964000m/h.</desc>
<speed>2.490000</speed>
</trkpt>
<trkpt lat="55.915596" lon="26.485861">
<ele>100.215881</ele>
<time>2010-08-29T17:29:52Z</time>
<desc>lat.=55.915596, lon.=26.485861, Alt.=100.215881m. Speed=9.324000m/h.</desc>
<speed>2.590000</speed>
</trkpt>
<trkpt lat="55.915596" lon="26.485897">
<ele>100.567444</ele>
<time>2010-08-29T17:29:53Z</time>
<desc>lat.=55.915596, lon.=26.485897, Alt.=100.567444m. Speed=7.848000m/h.</desc>
<speed>2.180000</speed>
</trkpt>
<trkpt lat="55.915596" lon="26.485935">
<ele>100.446350</ele>
<time>2010-08-29T17:29:54Z</time>
<desc>lat.=55.915596, lon.=26.485935, Alt.=100.446350m. Speed=8.892000m/h.</desc>
<speed>2.470000</speed>
</trkpt>
<trkpt lat="55.915596" lon="26.485975">
<ele>100.415100</ele>
<time>2010-08-29T17:29:55Z</time>
<desc>lat.=55.915596, lon.=26.485975, Alt.=100.415100m. Speed=10.008000m/h.</desc>
<speed>2.780000</speed>
</trkpt>
<trkpt lat="55.915596" lon="26.486023">
<ele>100.258850</ele>
<time>2010-08-29T17:29:56Z</time>
<desc>lat.=55.915596, lon.=26.486023, Alt.=100.258850m. Speed=9.684000m/h.</desc>
<speed>2.690000</speed>
</trkpt>
<trkpt lat="55.915600" lon="26.486063">
<ele>100.461975</ele>
<time>2010-08-29T17:29:57Z</time>
<desc>lat.=55.915600, lon.=26.486063, Alt.=100.461975m. Speed=8.712000m/h.</desc>
<speed>2.420000</speed>
</trkpt>
<trkpt lat="55.915596" lon="26.486101">
<ele>100.321350</ele>
<time>2010-08-29T17:29:58Z</time>
<desc>lat.=55.915596, lon.=26.486101, Alt.=100.321350m. Speed=7.776000m/h.</desc>
<speed>2.160000</speed>
</trkpt>
<trkpt lat="55.915600" lon="26.486134">
<ele>100.485413</ele>
<time>2010-08-29T17:29:59Z</time>
<desc>lat.=55.915600, lon.=26.486134, Alt.=100.485413m. Speed=7.128000m/h.</desc>
<speed>1.980000</speed>
</trkpt>
<trkpt lat="55.915600" lon="26.486166">
<ele>100.491272</ele>
<time>2010-08-29T17:30:00Z</time>
<desc>lat.=55.915600, lon.=26.486166, Alt.=100.491272m. Speed=7.056000m/h.</desc>
<speed>1.960000</speed>
</trkpt>
<trkpt lat="55.915600" lon="26.486206">
<ele>100.905334</ele>
<time>2010-08-29T17:30:01Z</time>
<desc>lat.=55.915600, lon.=26.486206, Alt.=100.905334m. Speed=7.272000m/h.</desc>
<speed>2.020000</speed>
</trkpt>
<trkpt lat="55.915607" lon="26.486233">
<ele>101.377991</ele>
<time>2010-08-29T17:30:02Z</time>
<desc>lat.=55.915607, lon.=26.486233, Alt.=101.377991m. Speed=6.084000m/h.</desc>
<speed>1.690000</speed>
</trkpt>
<trkpt lat="55.915607" lon="26.486263">
<ele>101.858459</ele>
<time>2010-08-29T17:30:03Z</time>
<desc>lat.=55.915607, lon.=26.486263, Alt.=101.858459m. Speed=5.580000m/h.</desc>
<speed>1.550000</speed>
</trkpt>
<trkpt lat="55.915596" lon="26.486301">
<ele>101.741272</ele>
<time>2010-08-29T17:30:04Z</time>
<desc>lat.=55.915596, lon.=26.486301, Alt.=101.741272m. Speed=4.788000m/h.</desc>
<speed>1.330000</speed>
</trkpt>
<trkpt lat="55.915596" lon="26.486341">
<ele>101.987366</ele>
<time>2010-08-29T17:30:05Z</time>
<desc>lat.=55.915596, lon.=26.486341, Alt.=101.987366m. Speed=6.912000m/h.</desc>
<speed>1.920000</speed>
</trkpt>
<trkpt lat="55.915588" lon="26.486376">
<ele>101.670959</ele>
<time>2010-08-29T17:30:06Z</time>
<desc>lat.=55.915588, lon.=26.486376, Alt.=101.670959m. Speed=6.912000m/h.</desc>
<speed>1.920000</speed>
</trkpt>
<trkpt lat="55.915588" lon="26.486408">
<ele>101.557678</ele>
<time>2010-08-29T17:30:07Z</time>
<desc>lat.=55.915588, lon.=26.486408, Alt.=101.557678m. Speed=7.740000m/h.</desc>
<speed>2.150000</speed>
</trkpt>
<trkpt lat="55.915588" lon="26.486446">
<ele>101.680725</ele>
<time>2010-08-29T17:30:08Z</time>
<desc>lat.=55.915588, lon.=26.486446, Alt.=101.680725m. Speed=8.136000m/h.</desc>
<speed>2.260000</speed>
</trkpt>
<trkpt lat="55.915585" lon="26.486485">
<ele>101.979553</ele>
<time>2010-08-29T17:30:09Z</time>
<desc>lat.=55.915585, lon.=26.486485, Alt.=101.979553m. Speed=8.064000m/h.</desc>
<speed>2.240000</speed>
</trkpt>
<trkpt lat="55.915585" lon="26.486519">
<ele>102.092834</ele>
<time>2010-08-29T17:30:10Z</time>
<desc>lat.=55.915585, lon.=26.486519, Alt.=102.092834m. Speed=7.056000m/h.</desc>
<speed>1.960000</speed>
</trkpt>
<trkpt lat="55.915581" lon="26.486551">
<ele>102.149475</ele>
<time>2010-08-29T17:30:11Z</time>
<desc>lat.=55.915581, lon.=26.486551, Alt.=102.149475m. Speed=6.444000m/h.</desc>
<speed>1.790000</speed>
</trkpt>
<trkpt lat="55.915577" lon="26.486580">
<ele>101.993225</ele>
<time>2010-08-29T17:30:12Z</time>
<desc>lat.=55.915577, lon.=26.486580, Alt.=101.993225m. Speed=5.724000m/h.</desc>
<speed>1.590000</speed>
</trkpt>
<trkpt lat="55.915573" lon="26.486610">
<ele>102.108459</ele>
<time>2010-08-29T17:30:13Z</time>
<desc>lat.=55.915573, lon.=26.486610, Alt.=102.108459m. Speed=5.868000m/h.</desc>
<speed>1.630000</speed>
</trkpt>
<trkpt lat="55.915565" lon="26.486641">
<ele>102.104553</ele>
<time>2010-08-29T17:30:14Z</time>
<desc>lat.=55.915565, lon.=26.486641, Alt.=102.104553m. Speed=6.444000m/h.</desc>
<speed>1.790000</speed>
</trkpt>
<trkpt lat="55.915562" lon="26.486670">
<ele>102.210022</ele>
<time>2010-08-29T17:30:15Z</time>
<desc>lat.=55.915562, lon.=26.486670, Alt.=102.210022m. Speed=6.444000m/h.</desc>
<speed>1.790000</speed>
</trkpt>
<trkpt lat="55.915562" lon="26.486700">
<ele>102.649475</ele>
<time>2010-08-29T17:30:16Z</time>
<desc>lat.=55.915562, lon.=26.486700, Alt.=102.649475m. Speed=6.300000m/h.</desc>
<speed>1.750000</speed>
</trkpt>
<trkpt lat="55.915554" lon="26.486723">
<ele>102.622131</ele>
<time>2010-08-29T17:30:17Z</time>
<desc>lat.=55.915554, lon.=26.486723, Alt.=102.622131m. Speed=6.516000m/h.</desc>
<speed>1.810000</speed>
</trkpt>
<trkpt lat="55.915546" lon="26.486752">
<ele>102.725647</ele>
<time>2010-08-29T17:30:18Z</time>
<desc>lat.=55.915546, lon.=26.486752, Alt.=102.725647m. Speed=8.568000m/h.</desc>
<speed>2.380000</speed>
</trkpt>
<trkpt lat="55.915535" lon="26.486780">
<ele>102.706116</ele>
<time>2010-08-29T17:30:19Z</time>
<desc>lat.=55.915535, lon.=26.486780, Alt.=102.706116m. Speed=7.200000m/h.</desc>
<speed>2.000000</speed>
</trkpt>
<trkpt lat="55.915527" lon="26.486813">
<ele>103.206116</ele>
<time>2010-08-29T17:30:20Z</time>
<desc>lat.=55.915527, lon.=26.486813, Alt.=103.206116m. Speed=8.172000m/h.</desc>
<speed>2.270000</speed>
</trkpt>
<trkpt lat="55.915512" lon="26.486837">
<ele>102.647522</ele>
<time>2010-08-29T17:30:21Z</time>
<desc>lat.=55.915512, lon.=26.486837, Alt.=102.647522m. Speed=7.848000m/h.</desc>
<speed>2.180000</speed>
</trkpt>
<trkpt lat="55.915504" lon="26.486858">
<ele>102.311584</ele>
<time>2010-08-29T17:30:22Z</time>
<desc>lat.=55.915504, lon.=26.486858, Alt.=102.311584m. Speed=6.120000m/h.</desc>
<speed>1.700000</speed>
</trkpt>
<trkpt lat="55.915497" lon="26.486885">
<ele>102.092834</ele>
<time>2010-08-29T17:30:23Z</time>
<desc>lat.=55.915497, lon.=26.486885, Alt.=102.092834m. Speed=7.992000m/h.</desc>
<speed>2.220000</speed>
</trkpt>
<trkpt lat="55.915489" lon="26.486917">
<ele>101.942444</ele>
<time>2010-08-29T17:30:24Z</time>
<desc>lat.=55.915489, lon.=26.486917, Alt.=101.942444m. Speed=8.316000m/h.</desc>
<speed>2.310000</speed>
</trkpt>
<trkpt lat="55.915474" lon="26.486952">
<ele>101.620178</ele>
<time>2010-08-29T17:30:25Z</time>
<desc>lat.=55.915474, lon.=26.486952, Alt.=101.620178m. Speed=10.116000m/h.</desc>
<speed>2.810000</speed>
</trkpt>
<trkpt lat="55.915459" lon="26.486984">
<ele>101.452209</ele>
<time>2010-08-29T17:30:26Z</time>
<desc>lat.=55.915459, lon.=26.486984, Alt.=101.452209m. Speed=8.568000m/h.</desc>
<speed>2.380000</speed>
</trkpt>
<trkpt lat="55.915443" lon="26.487015">
<ele>100.581116</ele>
<time>2010-08-29T17:30:27Z</time>
<desc>lat.=55.915443, lon.=26.487015, Alt.=100.581116m. Speed=9.036000m/h.</desc>
<speed>2.510000</speed>
</trkpt>
<trkpt lat="55.915424" lon="26.487047">
<ele>100.700256</ele>
<time>2010-08-29T17:30:28Z</time>
<desc>lat.=55.915424, lon.=26.487047, Alt.=100.700256m. Speed=8.928000m/h.</desc>
<speed>2.480000</speed>
</trkpt>
<trkpt lat="55.915413" lon="26.487083">
<ele>100.760803</ele>
<time>2010-08-29T17:30:29Z</time>
<desc>lat.=55.915413, lon.=26.487083, Alt.=100.760803m. Speed=9.180000m/h.</desc>
<speed>2.550000</speed>
</trkpt>
<trkpt lat="55.915398" lon="26.487118">
<ele>100.622131</ele>
<time>2010-08-29T17:30:30Z</time>
<desc>lat.=55.915398, lon.=26.487118, Alt.=100.622131m. Speed=8.892000m/h.</desc>
<speed>2.470000</speed>
</trkpt>
<trkpt lat="55.915382" lon="26.487156">
<ele>100.518616</ele>
<time>2010-08-29T17:30:31Z</time>
<desc>lat.=55.915382, lon.=26.487156, Alt.=100.518616m. Speed=9.036000m/h.</desc>
<speed>2.510000</speed>
</trkpt>
<trkpt lat="55.915367" lon="26.487188">
<ele>100.733459</ele>
<time>2010-08-29T17:30:32Z</time>
<desc>lat.=55.915367, lon.=26.487188, Alt.=100.733459m. Speed=8.820000m/h.</desc>
<speed>2.450000</speed>
</trkpt>
<trkpt lat="55.915348" lon="26.487221">
<ele>100.858459</ele>
<time>2010-08-29T17:30:33Z</time>
<desc>lat.=55.915348, lon.=26.487221, Alt.=100.858459m. Speed=10.080000m/h.</desc>
<speed>2.800000</speed>
</trkpt>
<trkpt lat="55.915333" lon="26.487257">
<ele>101.002991</ele>
<time>2010-08-29T17:30:34Z</time>
<desc>lat.=55.915333, lon.=26.487257, Alt.=101.002991m. Speed=10.332000m/h.</desc>
<speed>2.870000</speed>
</trkpt>
<trkpt lat="55.915314" lon="26.487299">
<ele>101.065491</ele>
<time>2010-08-29T17:30:35Z</time>
<desc>lat.=55.915314, lon.=26.487299, Alt.=101.065491m. Speed=10.656000m/h.</desc>
<speed>2.960000</speed>
</trkpt>
<trkpt lat="55.915295" lon="26.487331">
<ele>101.176819</ele>
<time>2010-08-29T17:30:36Z</time>
<desc>lat.=55.915295, lon.=26.487331, Alt.=101.176819m. Speed=10.656000m/h.</desc>
<speed>2.960000</speed>
</trkpt>
<trkpt lat="55.915272" lon="26.487360">
<ele>100.983459</ele>
<time>2010-08-29T17:30:37Z</time>
<desc>lat.=55.915272, lon.=26.487360, Alt.=100.983459m. Speed=10.728000m/h.</desc>
<speed>2.980000</speed>
</trkpt>
<trkpt lat="55.915249" lon="26.487385">
<ele>102.264709</ele>
<time>2010-08-29T17:30:38Z</time>
<desc>lat.=55.915249, lon.=26.487385, Alt.=102.264709m. Speed=10.620000m/h.</desc>
<speed>2.950000</speed>
</trkpt>
<trkpt lat="55.915230" lon="26.487415">
<ele>102.920959</ele>
<time>2010-08-29T17:30:39Z</time>
<desc>lat.=55.915230, lon.=26.487415, Alt.=102.920959m. Speed=10.584000m/h.</desc>
<speed>2.940000</speed>
</trkpt>
<trkpt lat="55.915211" lon="26.487453">
<ele>103.512756</ele>
<time>2010-08-29T17:30:40Z</time>
<desc>lat.=55.915211, lon.=26.487453, Alt.=103.512756m. Speed=10.692000m/h.</desc>
<speed>2.970000</speed>
</trkpt>
<trkpt lat="55.915192" lon="26.487497">
<ele>104.090881</ele>
<time>2010-08-29T17:30:41Z</time>
<desc>lat.=55.915192, lon.=26.487497, Alt.=104.090881m. Speed=11.124000m/h.</desc>
<speed>3.090000</speed>
</trkpt>
<trkpt lat="55.915169" lon="26.487551">
<ele>104.020569</ele>
<time>2010-08-29T17:30:42Z</time>
<desc>lat.=55.915169, lon.=26.487551, Alt.=104.020569m. Speed=13.608000m/h.</desc>
<speed>3.780000</speed>
</trkpt>
<trkpt lat="55.915142" lon="26.487593">
<ele>103.971741</ele>
<time>2010-08-29T17:30:43Z</time>
<desc>lat.=55.915142, lon.=26.487593, Alt.=103.971741m. Speed=13.788000m/h.</desc>
<speed>3.830000</speed>
</trkpt>
<trkpt lat="55.915119" lon="26.487625">
<ele>104.092834</ele>
<time>2010-08-29T17:30:44Z</time>
<desc>lat.=55.915119, lon.=26.487625, Alt.=104.092834m. Speed=10.116000m/h.</desc>
<speed>2.810000</speed>
</trkpt>
<trkpt lat="55.915096" lon="26.487656">
<ele>104.069397</ele>
<time>2010-08-29T17:30:45Z</time>
<desc>lat.=55.915096, lon.=26.487656, Alt.=104.069397m. Speed=11.592000m/h.</desc>
<speed>3.220000</speed>
</trkpt>
<trkpt lat="55.915070" lon="26.487688">
<ele>103.961975</ele>
<time>2010-08-29T17:30:46Z</time>
<desc>lat.=55.915070, lon.=26.487688, Alt.=103.961975m. Speed=11.880000m/h.</desc>
<speed>3.300000</speed>
</trkpt>
<trkpt lat="55.915043" lon="26.487728">
<ele>103.100647</ele>
<time>2010-08-29T17:30:47Z</time>
<desc>lat.=55.915043, lon.=26.487728, Alt.=103.100647m. Speed=12.168000m/h.</desc>
<speed>3.380000</speed>
</trkpt>
<trkpt lat="55.915020" lon="26.487759">
<ele>102.913147</ele>
<time>2010-08-29T17:30:48Z</time>
<desc>lat.=55.915020, lon.=26.487759, Alt.=102.913147m. Speed=10.476000m/h.</desc>
<speed>2.910000</speed>
</trkpt>
<trkpt lat="55.914993" lon="26.487782">
<ele>102.504944</ele>
<time>2010-08-29T17:30:49Z</time>
<desc>lat.=55.914993, lon.=26.487782, Alt.=102.504944m. Speed=11.016000m/h.</desc>
<speed>3.060000</speed>
</trkpt>
<trkpt lat="55.914951" lon="26.487810">
<ele>102.452209</ele>
<time>2010-08-29T17:30:50Z</time>
<desc>lat.=55.914951, lon.=26.487810, Alt.=102.452209m. Speed=16.091999m/h.</desc>
<speed>4.470000</speed>
</trkpt>
<trkpt lat="55.914913" lon="26.487864">
<ele>102.792053</ele>
<time>2010-08-29T17:30:51Z</time>
<desc>lat.=55.914913, lon.=26.487864, Alt.=102.792053m. Speed=17.316000m/h.</desc>
<speed>4.810000</speed>
</trkpt>
<trkpt lat="55.914875" lon="26.487915">
<ele>103.122131</ele>
<time>2010-08-29T17:30:52Z</time>
<desc>lat.=55.914875, lon.=26.487915, Alt.=103.122131m. Speed=17.927999m/h.</desc>
<speed>4.980000</speed>
</trkpt>
<trkpt lat="55.914833" lon="26.487959">
<ele>102.901428</ele>
<time>2010-08-29T17:30:53Z</time>
<desc>lat.=55.914833, lon.=26.487959, Alt.=102.901428m. Speed=18.431999m/h.</desc>
<speed>5.120000</speed>
</trkpt>
<trkpt lat="55.914787" lon="26.488001">
<ele>103.202209</ele>
<time>2010-08-29T17:30:54Z</time>
<desc>lat.=55.914787, lon.=26.488001, Alt.=103.202209m. Speed=19.224001m/h.</desc>
<speed>5.340000</speed>
</trkpt>
<trkpt lat="55.914742" lon="26.488049">
<ele>103.403381</ele>
<time>2010-08-29T17:30:55Z</time>
<desc>lat.=55.914742, lon.=26.488049, Alt.=103.403381m. Speed=19.836000m/h.</desc>
<speed>5.510000</speed>
</trkpt>
<trkpt lat="55.914700" lon="26.488098">
<ele>103.397522</ele>
<time>2010-08-29T17:30:56Z</time>
<desc>lat.=55.914700, lon.=26.488098, Alt.=103.397522m. Speed=20.844000m/h.</desc>
<speed>5.790000</speed>
</trkpt>
<trkpt lat="55.914661" lon="26.488159">
<ele>102.958069</ele>
<time>2010-08-29T17:30:57Z</time>
<desc>lat.=55.914661, lon.=26.488159, Alt.=102.958069m. Speed=17.856001m/h.</desc>
<speed>4.960000</speed>
</trkpt>
<trkpt lat="55.914627" lon="26.488226">
<ele>102.071350</ele>
<time>2010-08-29T17:30:58Z</time>
<desc>lat.=55.914627, lon.=26.488226, Alt.=102.071350m. Speed=17.280001m/h.</desc>
<speed>4.800000</speed>
</trkpt>
<trkpt lat="55.914597" lon="26.488283">
<ele>101.327209</ele>
<time>2010-08-29T17:30:59Z</time>
<desc>lat.=55.914597, lon.=26.488283, Alt.=101.327209m. Speed=14.832000m/h.</desc>
<speed>4.120000</speed>
</trkpt>
<trkpt lat="55.914574" lon="26.488350">
<ele>101.151428</ele>
<time>2010-08-29T17:31:00Z</time>
<desc>lat.=55.914574, lon.=26.488350, Alt.=101.151428m. Speed=15.660000m/h.</desc>
<speed>4.350000</speed>
</trkpt>
<trkpt lat="55.914543" lon="26.488411">
<ele>101.143616</ele>
<time>2010-08-29T17:31:01Z</time>
<desc>lat.=55.914543, lon.=26.488411, Alt.=101.143616m. Speed=16.128000m/h.</desc>
<speed>4.480000</speed>
</trkpt>
<trkpt lat="55.914516" lon="26.488472">
<ele>101.104553</ele>
<time>2010-08-29T17:31:02Z</time>
<desc>lat.=55.914516, lon.=26.488472, Alt.=101.104553m. Speed=16.955999m/h.</desc>
<speed>4.710000</speed>
</trkpt>
<trkpt lat="55.914490" lon="26.488537">
<ele>101.251038</ele>
<time>2010-08-29T17:31:03Z</time>
<desc>lat.=55.914490, lon.=26.488537, Alt.=101.251038m. Speed=17.496000m/h.</desc>
<speed>4.860000</speed>
</trkpt>
<trkpt lat="55.914455" lon="26.488604">
<ele>100.100647</ele>
<time>2010-08-29T17:31:04Z</time>
<desc>lat.=55.914455, lon.=26.488604, Alt.=100.100647m. Speed=18.756001m/h.</desc>
<speed>5.210000</speed>
</trkpt>
<trkpt lat="55.914429" lon="26.488674">
<ele>99.221741</ele>
<time>2010-08-29T17:31:05Z</time>
<desc>lat.=55.914429, lon.=26.488674, Alt.=99.221741m. Speed=18.216000m/h.</desc>
<speed>5.060000</speed>
</trkpt>
<trkpt lat="55.914398" lon="26.488741">
<ele>98.551819</ele>
<time>2010-08-29T17:31:06Z</time>
<desc>lat.=55.914398, lon.=26.488741, Alt.=98.551819m. Speed=16.884001m/h.</desc>
<speed>4.690000</speed>
</trkpt>
<trkpt lat="55.914371" lon="26.488802">
<ele>98.006897</ele>
<time>2010-08-29T17:31:07Z</time>
<desc>lat.=55.914371, lon.=26.488802, Alt.=98.006897m. Speed=17.892000m/h.</desc>
<speed>4.970000</speed>
</trkpt>
<trkpt lat="55.914341" lon="26.488863">
<ele>97.542053</ele>
<time>2010-08-29T17:31:08Z</time>
<desc>lat.=55.914341, lon.=26.488863, Alt.=97.542053m. Speed=17.892000m/h.</desc>
<speed>4.970000</speed>
</trkpt>
<trkpt lat="55.914314" lon="26.488928">
<ele>97.221741</ele>
<time>2010-08-29T17:31:09Z</time>
<desc>lat.=55.914314, lon.=26.488928, Alt.=97.221741m. Speed=18.504000m/h.</desc>
<speed>5.140000</speed>
</trkpt>
<trkpt lat="55.914291" lon="26.489019">
<ele>97.342834</ele>
<time>2010-08-29T17:31:10Z</time>
<desc>lat.=55.914291, lon.=26.489019, Alt.=97.342834m. Speed=19.332001m/h.</desc>
<speed>5.370000</speed>
</trkpt>
<trkpt lat="55.914265" lon="26.489090">
<ele>97.075256</ele>
<time>2010-08-29T17:31:11Z</time>
<desc>lat.=55.914265, lon.=26.489090, Alt.=97.075256m. Speed=18.900000m/h.</desc>
<speed>5.250000</speed>
</trkpt>
<trkpt lat="55.914242" lon="26.489159">
<ele>96.895569</ele>
<time>2010-08-29T17:31:12Z</time>
<desc>lat.=55.914242, lon.=26.489159, Alt.=96.895569m. Speed=19.476000m/h.</desc>
<speed>5.410000</speed>
</trkpt>
<trkpt lat="55.914215" lon="26.489229">
<ele>96.573303</ele>
<time>2010-08-29T17:31:13Z</time>
<desc>lat.=55.914215, lon.=26.489229, Alt.=96.573303m. Speed=19.152000m/h.</desc>
<speed>5.320000</speed>
</trkpt>
<trkpt lat="55.914188" lon="26.489302">
<ele>96.278381</ele>
<time>2010-08-29T17:31:14Z</time>
<desc>lat.=55.914188, lon.=26.489302, Alt.=96.278381m. Speed=19.620001m/h.</desc>
<speed>5.450000</speed>
</trkpt>
<trkpt lat="55.914165" lon="26.489372">
<ele>96.098694</ele>
<time>2010-08-29T17:31:15Z</time>
<desc>lat.=55.914165, lon.=26.489372, Alt.=96.098694m. Speed=18.540001m/h.</desc>
<speed>5.150000</speed>
</trkpt>
<trkpt lat="55.914135" lon="26.489441">
<ele>96.182678</ele>
<time>2010-08-29T17:31:16Z</time>
<desc>lat.=55.914135, lon.=26.489441, Alt.=96.182678m. Speed=19.656000m/h.</desc>
<speed>5.460000</speed>
</trkpt>
<trkpt lat="55.914108" lon="26.489521">
<ele>96.600647</ele>
<time>2010-08-29T17:31:17Z</time>
<desc>lat.=55.914108, lon.=26.489521, Alt.=96.600647m. Speed=19.691999m/h.</desc>
<speed>5.470000</speed>
</trkpt>
<trkpt lat="55.914085" lon="26.489599">
<ele>96.737366</ele>
<time>2010-08-29T17:31:18Z</time>
<desc>lat.=55.914085, lon.=26.489599, Alt.=96.737366m. Speed=19.944000m/h.</desc>
<speed>5.540000</speed>
</trkpt>
<trkpt lat="55.914059" lon="26.489674">
<ele>96.868225</ele>
<time>2010-08-29T17:31:19Z</time>
<desc>lat.=55.914059, lon.=26.489674, Alt.=96.868225m. Speed=18.900000m/h.</desc>
<speed>5.250000</speed>
</trkpt>
<trkpt lat="55.914036" lon="26.489744">
<ele>97.260803</ele>
<time>2010-08-29T17:31:20Z</time>
<desc>lat.=55.914036, lon.=26.489744, Alt.=97.260803m. Speed=17.280001m/h.</desc>
<speed>4.800000</speed>
</trkpt>
<trkpt lat="55.914013" lon="26.489811">
<ele>97.766663</ele>
<time>2010-08-29T17:31:21Z</time>
<desc>lat.=55.914013, lon.=26.489811, Alt.=97.766663m. Speed=16.632000m/h.</desc>
<speed>4.620000</speed>
</trkpt>
<trkpt lat="55.913998" lon="26.489880">
<ele>97.879944</ele>
<time>2010-08-29T17:31:22Z</time>
<desc>lat.=55.913998, lon.=26.489880, Alt.=97.879944m. Speed=17.784000m/h.</desc>
<speed>4.940000</speed>
</trkpt>
<trkpt lat="55.913979" lon="26.489952">
<ele>97.811584</ele>
<time>2010-08-29T17:31:23Z</time>
<desc>lat.=55.913979, lon.=26.489952, Alt.=97.811584m. Speed=18.719999m/h.</desc>
<speed>5.200000</speed>
</trkpt>
<trkpt lat="55.913952" lon="26.490030">
<ele>98.016663</ele>
<time>2010-08-29T17:31:24Z</time>
<desc>lat.=55.913952, lon.=26.490030, Alt.=98.016663m. Speed=17.172001m/h.</desc>
<speed>4.770000</speed>
</trkpt>
<trkpt lat="55.913933" lon="26.490103">
<ele>98.157288</ele>
<time>2010-08-29T17:31:25Z</time>
<desc>lat.=55.913933, lon.=26.490103, Alt.=98.157288m. Speed=17.784000m/h.</desc>
<speed>4.940000</speed>
</trkpt>
<trkpt lat="55.913910" lon="26.490171">
<ele>98.274475</ele>
<time>2010-08-29T17:31:26Z</time>
<desc>lat.=55.913910, lon.=26.490171, Alt.=98.274475m. Speed=18.288000m/h.</desc>
<speed>5.080000</speed>
</trkpt>
<trkpt lat="55.913883" lon="26.490244">
<ele>98.387756</ele>
<time>2010-08-29T17:31:27Z</time>
<desc>lat.=55.913883, lon.=26.490244, Alt.=98.387756m. Speed=21.455999m/h.</desc>
<speed>5.960000</speed>
</trkpt>
<trkpt lat="55.913857" lon="26.490320">
<ele>98.424866</ele>
<time>2010-08-29T17:31:28Z</time>
<desc>lat.=55.913857, lon.=26.490320, Alt.=98.424866m. Speed=19.152000m/h.</desc>
<speed>5.320000</speed>
</trkpt>
<trkpt lat="55.913834" lon="26.490387">
<ele>98.188538</ele>
<time>2010-08-29T17:31:29Z</time>
<desc>lat.=55.913834, lon.=26.490387, Alt.=98.188538m. Speed=19.007999m/h.</desc>
<speed>5.280000</speed>
</trkpt>
<trkpt lat="55.913815" lon="26.490469">
<ele>98.563538</ele>
<time>2010-08-29T17:31:30Z</time>
<desc>lat.=55.913815, lon.=26.490469, Alt.=98.563538m. Speed=19.188000m/h.</desc>
<speed>5.330000</speed>
</trkpt>
<trkpt lat="55.913795" lon="26.490545">
<ele>98.848694</ele>
<time>2010-08-29T17:31:31Z</time>
<desc>lat.=55.913795, lon.=26.490545, Alt.=98.848694m. Speed=19.691999m/h.</desc>
<speed>5.470000</speed>
</trkpt>
<trkpt lat="55.913773" lon="26.490622">
<ele>99.333069</ele>
<time>2010-08-29T17:31:32Z</time>
<desc>lat.=55.913773, lon.=26.490622, Alt.=99.333069m. Speed=19.440001m/h.</desc>
<speed>5.400000</speed>
</trkpt>
<trkpt lat="55.913746" lon="26.490692">
<ele>98.559631</ele>
<time>2010-08-29T17:31:33Z</time>
<desc>lat.=55.913746, lon.=26.490692, Alt.=98.559631m. Speed=19.440001m/h.</desc>
<speed>5.400000</speed>
</trkpt>
<trkpt lat="55.913727" lon="26.490767">
<ele>98.559631</ele>
<time>2010-08-29T17:31:34Z</time>
<desc>lat.=55.913727, lon.=26.490767, Alt.=98.559631m. Speed=19.656000m/h.</desc>
<speed>5.460000</speed>
</trkpt>
<trkpt lat="55.913700" lon="26.490843">
<ele>98.534241</ele>
<time>2010-08-29T17:31:35Z</time>
<desc>lat.=55.913700, lon.=26.490843, Alt.=98.534241m. Speed=19.728001m/h.</desc>
<speed>5.480000</speed>
</trkpt>
<trkpt lat="55.913677" lon="26.490919">
<ele>98.430725</ele>
<time>2010-08-29T17:31:36Z</time>
<desc>lat.=55.913677, lon.=26.490919, Alt.=98.430725m. Speed=20.483999m/h.</desc>
<speed>5.690000</speed>
</trkpt>
<trkpt lat="55.913654" lon="26.491005">
<ele>98.690491</ele>
<time>2010-08-29T17:31:37Z</time>
<desc>lat.=55.913654, lon.=26.491005, Alt.=98.690491m. Speed=19.944000m/h.</desc>
<speed>5.540000</speed>
</trkpt>
<trkpt lat="55.913631" lon="26.491085">
<ele>98.696350</ele>
<time>2010-08-29T17:31:38Z</time>
<desc>lat.=55.913631, lon.=26.491085, Alt.=98.696350m. Speed=19.872000m/h.</desc>
<speed>5.520000</speed>
</trkpt>
<trkpt lat="55.913609" lon="26.491167">
<ele>98.608459</ele>
<time>2010-08-29T17:31:39Z</time>
<desc>lat.=55.913609, lon.=26.491167, Alt.=98.608459m. Speed=20.268000m/h.</desc>
<speed>5.630000</speed>
</trkpt>
<trkpt lat="55.913582" lon="26.491251">
<ele>98.606506</ele>
<time>2010-08-29T17:31:40Z</time>
<desc>lat.=55.913582, lon.=26.491251, Alt.=98.606506m. Speed=20.052000m/h.</desc>
<speed>5.570000</speed>
</trkpt>
<trkpt lat="55.913563" lon="26.491331">
<ele>99.604553</ele>
<time>2010-08-29T17:31:41Z</time>
<desc>lat.=55.913563, lon.=26.491331, Alt.=99.604553m. Speed=20.124001m/h.</desc>
<speed>5.590000</speed>
</trkpt>
<trkpt lat="55.913540" lon="26.491411">
<ele>100.147522</ele>
<time>2010-08-29T17:31:42Z</time>
<desc>lat.=55.913540, lon.=26.491411, Alt.=100.147522m. Speed=19.872000m/h.</desc>
<speed>5.520000</speed>
</trkpt>
<trkpt lat="55.913513" lon="26.491488">
<ele>100.626038</ele>
<time>2010-08-29T17:31:43Z</time>
<desc>lat.=55.913513, lon.=26.491488, Alt.=100.626038m. Speed=19.764000m/h.</desc>
<speed>5.490000</speed>
</trkpt>
<trkpt lat="55.913490" lon="26.491566">
<ele>101.713928</ele>
<time>2010-08-29T17:31:44Z</time>
<desc>lat.=55.913490, lon.=26.491566, Alt.=101.713928m. Speed=20.087999m/h.</desc>
<speed>5.580000</speed>
</trkpt>
<trkpt lat="55.913467" lon="26.491644">
<ele>101.555725</ele>
<time>2010-08-29T17:31:45Z</time>
<desc>lat.=55.913467, lon.=26.491644, Alt.=101.555725m. Speed=20.087999m/h.</desc>
<speed>5.580000</speed>
</trkpt>
<trkpt lat="55.913441" lon="26.491722">
<ele>101.434631</ele>
<time>2010-08-29T17:31:46Z</time>
<desc>lat.=55.913441, lon.=26.491722, Alt.=101.434631m. Speed=19.368000m/h.</desc>
<speed>5.380000</speed>
</trkpt>
<trkpt lat="55.913418" lon="26.491796">
<ele>101.333069</ele>
<time>2010-08-29T17:31:47Z</time>
<desc>lat.=55.913418, lon.=26.491796, Alt.=101.333069m. Speed=18.648001m/h.</desc>
<speed>5.180000</speed>
</trkpt>
<trkpt lat="55.913399" lon="26.491869">
<ele>101.379944</ele>
<time>2010-08-29T17:31:48Z</time>
<desc>lat.=55.913399, lon.=26.491869, Alt.=101.379944m. Speed=17.964001m/h.</desc>
<speed>4.990000</speed>
</trkpt>
<trkpt lat="55.913376" lon="26.491941">
<ele>101.475647</ele>
<time>2010-08-29T17:31:49Z</time>
<desc>lat.=55.913376, lon.=26.491941, Alt.=101.475647m. Speed=17.964001m/h.</desc>
<speed>4.990000</speed>
</trkpt>
<trkpt lat="55.913353" lon="26.492014">
<ele>101.622131</ele>
<time>2010-08-29T17:31:50Z</time>
<desc>lat.=55.913353, lon.=26.492014, Alt.=101.622131m. Speed=18.216000m/h.</desc>
<speed>5.060000</speed>
</trkpt>
<trkpt lat="55.913330" lon="26.492085">
<ele>101.622131</ele>
<time>2010-08-29T17:31:51Z</time>
<desc>lat.=55.913330, lon.=26.492085, Alt.=101.622131m. Speed=18.719999m/h.</desc>
<speed>5.200000</speed>
</trkpt>
<trkpt lat="55.913307" lon="26.492153">
<ele>101.254944</ele>
<time>2010-08-29T17:31:52Z</time>
<desc>lat.=55.913307, lon.=26.492153, Alt.=101.254944m. Speed=18.792000m/h.</desc>
<speed>5.220000</speed>
</trkpt>
<trkpt lat="55.913288" lon="26.492220">
<ele>100.575256</ele>
<time>2010-08-29T17:31:53Z</time>
<desc>lat.=55.913288, lon.=26.492220, Alt.=100.575256m. Speed=19.224001m/h.</desc>
<speed>5.340000</speed>
</trkpt>
<trkpt lat="55.913265" lon="26.492298">
<ele>100.868225</ele>
<time>2010-08-29T17:31:54Z</time>
<desc>lat.=55.913265, lon.=26.492298, Alt.=100.868225m. Speed=19.440001m/h.</desc>
<speed>5.400000</speed>
</trkpt>
<trkpt lat="55.913246" lon="26.492374">
<ele>100.907288</ele>
<time>2010-08-29T17:31:55Z</time>
<desc>lat.=55.913246, lon.=26.492374, Alt.=100.907288m. Speed=19.403999m/h.</desc>
<speed>5.390000</speed>
</trkpt>
<trkpt lat="55.913223" lon="26.492445">
<ele>100.600647</ele>
<time>2010-08-29T17:31:56Z</time>
<desc>lat.=55.913223, lon.=26.492445, Alt.=100.600647m. Speed=18.252001m/h.</desc>
<speed>5.070000</speed>
</trkpt>
<trkpt lat="55.913208" lon="26.492517">
<ele>100.758850</ele>
<time>2010-08-29T17:31:57Z</time>
<desc>lat.=55.913208, lon.=26.492517, Alt.=100.758850m. Speed=17.639999m/h.</desc>
<speed>4.900000</speed>
</trkpt>
<trkpt lat="55.913193" lon="26.492586">
<ele>100.799866</ele>
<time>2010-08-29T17:31:58Z</time>
<desc>lat.=55.913193, lon.=26.492586, Alt.=100.799866m. Speed=16.884001m/h.</desc>
<speed>4.690000</speed>
</trkpt>
<trkpt lat="55.913177" lon="26.492657">
<ele>100.872131</ele>
<time>2010-08-29T17:31:59Z</time>
<desc>lat.=55.913177, lon.=26.492657, Alt.=100.872131m. Speed=17.747999m/h.</desc>
<speed>4.930000</speed>
</trkpt>
<trkpt lat="55.913162" lon="26.492729">
<ele>100.885803</ele>
<time>2010-08-29T17:32:00Z</time>
<desc>lat.=55.913162, lon.=26.492729, Alt.=100.885803m. Speed=18.000000m/h.</desc>
<speed>5.000000</speed>
</trkpt>
<trkpt lat="55.913147" lon="26.492805">
<ele>100.975647</ele>
<time>2010-08-29T17:32:01Z</time>
<desc>lat.=55.913147, lon.=26.492805, Alt.=100.975647m. Speed=18.035999m/h.</desc>
<speed>5.010000</speed>
</trkpt>
<trkpt lat="55.913132" lon="26.492887">
<ele>101.155334</ele>
<time>2010-08-29T17:32:02Z</time>
<desc>lat.=55.913132, lon.=26.492887, Alt.=101.155334m. Speed=18.684000m/h.</desc>
<speed>5.190000</speed>
</trkpt>
<trkpt lat="55.913116" lon="26.492966">
<ele>101.245178</ele>
<time>2010-08-29T17:32:03Z</time>
<desc>lat.=55.913116, lon.=26.492966, Alt.=101.245178m. Speed=18.504000m/h.</desc>
<speed>5.140000</speed>
</trkpt>
<trkpt lat="55.913097" lon="26.493042">
<ele>100.612366</ele>
<time>2010-08-29T17:32:04Z</time>
<desc>lat.=55.913097, lon.=26.493042, Alt.=100.612366m. Speed=18.252001m/h.</desc>
<speed>5.070000</speed>
</trkpt>
<trkpt lat="55.913078" lon="26.493116">
<ele>100.510803</ele>
<time>2010-08-29T17:32:05Z</time>
<desc>lat.=55.913078, lon.=26.493116, Alt.=100.510803m. Speed=18.252001m/h.</desc>
<speed>5.070000</speed>
</trkpt>
<trkpt lat="55.913063" lon="26.493193">
<ele>100.725647</ele>
<time>2010-08-29T17:32:06Z</time>
<desc>lat.=55.913063, lon.=26.493193, Alt.=100.725647m. Speed=18.143999m/h.</desc>
<speed>5.040000</speed>
</trkpt>
<trkpt lat="55.913048" lon="26.493267">
<ele>100.629944</ele>
<time>2010-08-29T17:32:07Z</time>
<desc>lat.=55.913048, lon.=26.493267, Alt.=100.629944m. Speed=18.468000m/h.</desc>
<speed>5.130000</speed>
</trkpt>
<trkpt lat="55.913029" lon="26.493349">
<ele>100.860413</ele>
<time>2010-08-29T17:32:08Z</time>
<desc>lat.=55.913029, lon.=26.493349, Alt.=100.860413m. Speed=18.180000m/h.</desc>
<speed>5.050000</speed>
</trkpt>
<trkpt lat="55.913010" lon="26.493425">
<ele>100.833069</ele>
<time>2010-08-29T17:32:09Z</time>
<desc>lat.=55.913010, lon.=26.493425, Alt.=100.833069m. Speed=18.827999m/h.</desc>
<speed>5.230000</speed>
</trkpt>
<trkpt lat="55.912987" lon="26.493498">
<ele>101.237366</ele>
<time>2010-08-29T17:32:10Z</time>
<desc>lat.=55.912987, lon.=26.493498, Alt.=101.237366m. Speed=19.403999m/h.</desc>
<speed>5.390000</speed>
</trkpt>
<trkpt lat="55.912971" lon="26.493582">
<ele>101.993225</ele>
<time>2010-08-29T17:32:11Z</time>
<desc>lat.=55.912971, lon.=26.493582, Alt.=101.993225m. Speed=18.216000m/h.</desc>
<speed>5.060000</speed>
</trkpt>
<trkpt lat="55.912956" lon="26.493656">
<ele>102.254944</ele>
<time>2010-08-29T17:32:12Z</time>
<desc>lat.=55.912956, lon.=26.493656, Alt.=102.254944m. Speed=17.604000m/h.</desc>
<speed>4.890000</speed>
</trkpt>
<trkpt lat="55.912945" lon="26.493727">
<ele>102.278381</ele>
<time>2010-08-29T17:32:13Z</time>
<desc>lat.=55.912945, lon.=26.493727, Alt.=102.278381m. Speed=16.740000m/h.</desc>
<speed>4.650000</speed>
</trkpt>
<trkpt lat="55.912930" lon="26.493797">
<ele>101.934631</ele>
<time>2010-08-29T17:32:14Z</time>
<desc>lat.=55.912930, lon.=26.493797, Alt.=101.934631m. Speed=17.351999m/h.</desc>
<speed>4.820000</speed>
</trkpt>
<trkpt lat="55.912914" lon="26.493870">
<ele>101.967834</ele>
<time>2010-08-29T17:32:15Z</time>
<desc>lat.=55.912914, lon.=26.493870, Alt.=101.967834m. Speed=17.172001m/h.</desc>
<speed>4.770000</speed>
</trkpt>
<trkpt lat="55.912891" lon="26.493940">
<ele>101.665100</ele>
<time>2010-08-29T17:32:16Z</time>
<desc>lat.=55.912891, lon.=26.493940, Alt.=101.665100m. Speed=18.180000m/h.</desc>
<speed>5.050000</speed>
</trkpt>
<trkpt lat="55.912872" lon="26.494017">
<ele>101.708069</ele>
<time>2010-08-29T17:32:17Z</time>
<desc>lat.=55.912872, lon.=26.494017, Alt.=101.708069m. Speed=18.180000m/h.</desc>
<speed>5.050000</speed>
</trkpt>
<trkpt lat="55.912853" lon="26.494101">
<ele>101.903381</ele>
<time>2010-08-29T17:32:18Z</time>
<desc>lat.=55.912853, lon.=26.494101, Alt.=101.903381m. Speed=20.988001m/h.</desc>
<speed>5.830000</speed>
</trkpt>
<trkpt lat="55.912830" lon="26.494188">
<ele>102.135803</ele>
<time>2010-08-29T17:32:19Z</time>
<desc>lat.=55.912830, lon.=26.494188, Alt.=102.135803m. Speed=19.368000m/h.</desc>
<speed>5.380000</speed>
</trkpt>
<trkpt lat="55.912807" lon="26.494274">
<ele>102.258850</ele>
<time>2010-08-29T17:32:20Z</time>
<desc>lat.=55.912807, lon.=26.494274, Alt.=102.258850m. Speed=19.980000m/h.</desc>
<speed>5.550000</speed>
</trkpt>
<trkpt lat="55.912785" lon="26.494352">
<ele>102.276428</ele>
<time>2010-08-29T17:32:21Z</time>
<desc>lat.=55.912785, lon.=26.494352, Alt.=102.276428m. Speed=18.612000m/h.</desc>
<speed>5.170000</speed>
</trkpt>
<trkpt lat="55.912762" lon="26.494427">
<ele>102.258850</ele>
<time>2010-08-29T17:32:22Z</time>
<desc>lat.=55.912762, lon.=26.494427, Alt.=102.258850m. Speed=18.972000m/h.</desc>
<speed>5.270000</speed>
</trkpt>
<trkpt lat="55.912739" lon="26.494499">
<ele>102.210022</ele>
<time>2010-08-29T17:32:23Z</time>
<desc>lat.=55.912739, lon.=26.494499, Alt.=102.210022m. Speed=18.143999m/h.</desc>
<speed>5.040000</speed>
</trkpt>
<trkpt lat="55.912712" lon="26.494570">
<ele>101.836975</ele>
<time>2010-08-29T17:32:24Z</time>
<desc>lat.=55.912712, lon.=26.494570, Alt.=101.836975m. Speed=18.288000m/h.</desc>
<speed>5.080000</speed>
</trkpt>
<trkpt lat="55.912689" lon="26.494638">
<ele>101.651428</ele>
<time>2010-08-29T17:32:25Z</time>
<desc>lat.=55.912689, lon.=26.494638, Alt.=101.651428m. Speed=18.180000m/h.</desc>
<speed>5.050000</speed>
</trkpt>
<trkpt lat="55.912674" lon="26.494719">
<ele>102.042053</ele>
<time>2010-08-29T17:32:26Z</time>
<desc>lat.=55.912674, lon.=26.494719, Alt.=102.042053m. Speed=17.532000m/h.</desc>
<speed>4.870000</speed>
</trkpt>
<trkpt lat="55.912655" lon="26.494789">
<ele>102.032288</ele>
<time>2010-08-29T17:32:27Z</time>
<desc>lat.=55.912655, lon.=26.494789, Alt.=102.032288m. Speed=18.396000m/h.</desc>
<speed>5.110000</speed>
</trkpt>
<trkpt lat="55.912628" lon="26.494860">
<ele>102.061584</ele>
<time>2010-08-29T17:32:28Z</time>
<desc>lat.=55.912628, lon.=26.494860, Alt.=102.061584m. Speed=18.864000m/h.</desc>
<speed>5.240000</speed>
</trkpt>
<trkpt lat="55.912601" lon="26.494928">
<ele>101.969788</ele>
<time>2010-08-29T17:32:29Z</time>
<desc>lat.=55.912601, lon.=26.494928, Alt.=101.969788m. Speed=19.332001m/h.</desc>
<speed>5.370000</speed>
</trkpt>
<trkpt lat="55.912575" lon="26.495008">
<ele>102.208069</ele>
<time>2010-08-29T17:32:30Z</time>
<desc>lat.=55.912575, lon.=26.495008, Alt.=102.208069m. Speed=20.052000m/h.</desc>
<speed>5.570000</speed>
</trkpt>
<trkpt lat="55.912544" lon="26.495096">
<ele>102.391663</ele>
<time>2010-08-29T17:32:31Z</time>
<desc>lat.=55.912544, lon.=26.495096, Alt.=102.391663m. Speed=22.068001m/h.</desc>
<speed>6.130000</speed>
</trkpt>
<trkpt lat="55.912518" lon="26.495180">
<ele>102.155334</ele>
<time>2010-08-29T17:32:32Z</time>
<desc>lat.=55.912518, lon.=26.495180, Alt.=102.155334m. Speed=21.563999m/h.</desc>
<speed>5.990000</speed>
</trkpt>
<trkpt lat="55.912487" lon="26.495272">
<ele>102.151428</ele>
<time>2010-08-29T17:32:33Z</time>
<desc>lat.=55.912487, lon.=26.495272, Alt.=102.151428m. Speed=22.608000m/h.</desc>
<speed>6.280000</speed>
</trkpt>
<trkpt lat="55.912460" lon="26.495371">
<ele>102.165100</ele>
<time>2010-08-29T17:32:34Z</time>
<desc>lat.=55.912460, lon.=26.495371, Alt.=102.165100m. Speed=24.408001m/h.</desc>
<speed>6.780000</speed>
</trkpt>
<trkpt lat="55.912434" lon="26.495472">
<ele>102.049866</ele>
<time>2010-08-29T17:32:35Z</time>
<desc>lat.=55.912434, lon.=26.495472, Alt.=102.049866m. Speed=24.624001m/h.</desc>
<speed>6.840000</speed>
</trkpt>
<trkpt lat="55.912411" lon="26.495573">
<ele>101.827209</ele>
<time>2010-08-29T17:32:36Z</time>
<desc>lat.=55.912411, lon.=26.495573, Alt.=101.827209m. Speed=26.351999m/h.</desc>
<speed>7.320000</speed>
</trkpt>
<trkpt lat="55.912380" lon="26.495684">
<ele>99.200256</ele>
<time>2010-08-29T17:32:37Z</time>
<desc>lat.=55.912380, lon.=26.495684, Alt.=99.200256m. Speed=28.296000m/h.</desc>
<speed>7.860000</speed>
</trkpt>
<trkpt lat="55.912350" lon="26.495802">
<ele>98.510803</ele>
<time>2010-08-29T17:32:38Z</time>
<desc>lat.=55.912350, lon.=26.495802, Alt.=98.510803m. Speed=29.591999m/h.</desc>
<speed>8.220000</speed>
</trkpt>
<trkpt lat="55.912315" lon="26.495928">
<ele>98.085022</ele>
<time>2010-08-29T17:32:39Z</time>
<desc>lat.=55.912315, lon.=26.495928, Alt.=98.085022m. Speed=30.743999m/h.</desc>
<speed>8.540000</speed>
</trkpt>
<trkpt lat="55.912289" lon="26.496058">
<ele>97.885803</ele>
<time>2010-08-29T17:32:40Z</time>
<desc>lat.=55.912289, lon.=26.496058, Alt.=97.885803m. Speed=31.931999m/h.</desc>
<speed>8.870000</speed>
</trkpt>
<trkpt lat="55.912262" lon="26.496189">
<ele>97.399475</ele>
<time>2010-08-29T17:32:41Z</time>
<desc>lat.=55.912262, lon.=26.496189, Alt.=97.399475m. Speed=32.363998m/h.</desc>
<speed>8.990000</speed>
</trkpt>
<trkpt lat="55.912231" lon="26.496326">
<ele>97.114319</ele>
<time>2010-08-29T17:32:42Z</time>
<desc>lat.=55.912231, lon.=26.496326, Alt.=97.114319m. Speed=32.688000m/h.</desc>
<speed>9.080000</speed>
</trkpt>
<trkpt lat="55.912201" lon="26.496468">
<ele>96.713928</ele>
<time>2010-08-29T17:32:43Z</time>
<desc>lat.=55.912201, lon.=26.496468, Alt.=96.713928m. Speed=32.652000m/h.</desc>
<speed>9.070000</speed>
</trkpt>
<trkpt lat="55.912170" lon="26.496601">
<ele>96.542053</ele>
<time>2010-08-29T17:32:44Z</time>
<desc>lat.=55.912170, lon.=26.496601, Alt.=96.542053m. Speed=32.004002m/h.</desc>
<speed>8.890000</speed>
</trkpt>
<trkpt lat="55.912144" lon="26.496733">
<ele>96.563538</ele>
<time>2010-08-29T17:32:45Z</time>
<desc>lat.=55.912144, lon.=26.496733, Alt.=96.563538m. Speed=31.968000m/h.</desc>
<speed>8.880000</speed>
</trkpt>
<trkpt lat="55.912117" lon="26.496868">
<ele>95.876038</ele>
<time>2010-08-29T17:32:46Z</time>
<desc>lat.=55.912117, lon.=26.496868, Alt.=95.876038m. Speed=32.147999m/h.</desc>
<speed>8.930000</speed>
</trkpt>
<trkpt lat="55.912090" lon="26.497004">
<ele>95.626038</ele>
<time>2010-08-29T17:32:47Z</time>
<desc>lat.=55.912090, lon.=26.497004, Alt.=95.626038m. Speed=31.572001m/h.</desc>
<speed>8.770000</speed>
</trkpt>
<trkpt lat="55.912071" lon="26.497131">
<ele>95.485413</ele>
<time>2010-08-29T17:32:48Z</time>
<desc>lat.=55.912071, lon.=26.497131, Alt.=95.485413m. Speed=31.392000m/h.</desc>
<speed>8.720000</speed>
</trkpt>
<trkpt lat="55.912045" lon="26.497261">
<ele>95.383850</ele>
<time>2010-08-29T17:32:49Z</time>
<desc>lat.=55.912045, lon.=26.497261, Alt.=95.383850m. Speed=30.528000m/h.</desc>
<speed>8.480000</speed>
</trkpt>
<trkpt lat="55.912022" lon="26.497387">
<ele>95.325256</ele>
<time>2010-08-29T17:32:50Z</time>
<desc>lat.=55.912022, lon.=26.497387, Alt.=95.325256m. Speed=28.944000m/h.</desc>
<speed>8.040000</speed>
</trkpt>
<trkpt lat="55.912003" lon="26.497513">
<ele>95.319397</ele>
<time>2010-08-29T17:32:51Z</time>
<desc>lat.=55.912003, lon.=26.497513, Alt.=95.319397m. Speed=29.628000m/h.</desc>
<speed>8.230000</speed>
</trkpt>
<trkpt lat="55.911983" lon="26.497643">
<ele>95.452209</ele>
<time>2010-08-29T17:32:52Z</time>
<desc>lat.=55.911983, lon.=26.497643, Alt.=95.452209m. Speed=27.864000m/h.</desc>
<speed>7.740000</speed>
</trkpt>
<trkpt lat="55.911964" lon="26.497759">
<ele>95.190491</ele>
<time>2010-08-29T17:32:53Z</time>
<desc>lat.=55.911964, lon.=26.497759, Alt.=95.190491m. Speed=27.827999m/h.</desc>
<speed>7.730000</speed>
</trkpt>
<trkpt lat="55.911945" lon="26.497877">
<ele>95.108459</ele>
<time>2010-08-29T17:32:54Z</time>
<desc>lat.=55.911945, lon.=26.497877, Alt.=95.108459m. Speed=27.035999m/h.</desc>
<speed>7.510000</speed>
</trkpt>
<trkpt lat="55.911926" lon="26.498003">
<ele>95.094788</ele>
<time>2010-08-29T17:32:55Z</time>
<desc>lat.=55.911926, lon.=26.498003, Alt.=95.094788m. Speed=27.936001m/h.</desc>
<speed>7.760000</speed>
</trkpt>
<trkpt lat="55.911907" lon="26.498121">
<ele>94.936584</ele>
<time>2010-08-29T17:32:56Z</time>
<desc>lat.=55.911907, lon.=26.498121, Alt.=94.936584m. Speed=26.747999m/h.</desc>
<speed>7.430000</speed>
</trkpt>
<trkpt lat="55.911892" lon="26.498234">
<ele>94.690491</ele>
<time>2010-08-29T17:32:57Z</time>
<desc>lat.=55.911892, lon.=26.498234, Alt.=94.690491m. Speed=26.136000m/h.</desc>
<speed>7.260000</speed>
</trkpt>
<trkpt lat="55.911877" lon="26.498346">
<ele>94.311584</ele>
<time>2010-08-29T17:32:58Z</time>
<desc>lat.=55.911877, lon.=26.498346, Alt.=94.311584m. Speed=25.488001m/h.</desc>
<speed>7.080000</speed>
</trkpt>
<trkpt lat="55.911865" lon="26.498453">
<ele>93.686584</ele>
<time>2010-08-29T17:32:59Z</time>
<desc>lat.=55.911865, lon.=26.498453, Alt.=93.686584m. Speed=24.372000m/h.</desc>
<speed>6.770000</speed>
</trkpt>
<trkpt lat="55.911850" lon="26.498564">
<ele>93.383850</ele>
<time>2010-08-29T17:33:00Z</time>
<desc>lat.=55.911850, lon.=26.498564, Alt.=93.383850m. Speed=24.299999m/h.</desc>
<speed>6.750000</speed>
</trkpt>
<trkpt lat="55.911831" lon="26.498657">
<ele>93.110413</ele>
<time>2010-08-29T17:33:01Z</time>
<desc>lat.=55.911831, lon.=26.498657, Alt.=93.110413m. Speed=21.672001m/h.</desc>
<speed>6.020000</speed>
</trkpt>
<trkpt lat="55.911816" lon="26.498753">
<ele>93.118225</ele>
<time>2010-08-29T17:33:02Z</time>
<desc>lat.=55.911816, lon.=26.498753, Alt.=93.118225m. Speed=21.924000m/h.</desc>
<speed>6.090000</speed>
</trkpt>
<trkpt lat="55.911804" lon="26.498848">
<ele>92.846741</ele>
<time>2010-08-29T17:33:03Z</time>
<desc>lat.=55.911804, lon.=26.498848, Alt.=92.846741m. Speed=20.340000m/h.</desc>
<speed>5.650000</speed>
</trkpt>
<trkpt lat="55.911793" lon="26.498945">
<ele>92.919006</ele>
<time>2010-08-29T17:33:04Z</time>
<desc>lat.=55.911793, lon.=26.498945, Alt.=92.919006m. Speed=20.771999m/h.</desc>
<speed>5.770000</speed>
</trkpt>
<trkpt lat="55.911781" lon="26.499041">
<ele>93.393616</ele>
<time>2010-08-29T17:33:05Z</time>
<desc>lat.=55.911781, lon.=26.499041, Alt.=93.393616m. Speed=19.656000m/h.</desc>
<speed>5.460000</speed>
</trkpt>
<trkpt lat="55.911774" lon="26.499126">
<ele>93.903381</ele>
<time>2010-08-29T17:33:06Z</time>
<desc>lat.=55.911774, lon.=26.499126, Alt.=93.903381m. Speed=19.620001m/h.</desc>
<speed>5.450000</speed>
</trkpt>
<trkpt lat="55.911762" lon="26.499216">
<ele>94.002991</ele>
<time>2010-08-29T17:33:07Z</time>
<desc>lat.=55.911762, lon.=26.499216, Alt.=94.002991m. Speed=19.007999m/h.</desc>
<speed>5.280000</speed>
</trkpt>
<trkpt lat="55.911755" lon="26.499294">
<ele>94.577209</ele>
<time>2010-08-29T17:33:08Z</time>
<desc>lat.=55.911755, lon.=26.499294, Alt.=94.577209m. Speed=17.063999m/h.</desc>
<speed>4.740000</speed>
</trkpt>
<trkpt lat="55.911743" lon="26.499369">
<ele>94.504944</ele>
<time>2010-08-29T17:33:09Z</time>
<desc>lat.=55.911743, lon.=26.499369, Alt.=94.504944m. Speed=16.775999m/h.</desc>
<speed>4.660000</speed>
</trkpt>
<trkpt lat="55.911739" lon="26.499441">
<ele>94.700256</ele>
<time>2010-08-29T17:33:10Z</time>
<desc>lat.=55.911739, lon.=26.499441, Alt.=94.700256m. Speed=15.624000m/h.</desc>
<speed>4.340000</speed>
</trkpt>
<trkpt lat="55.911736" lon="26.499506">
<ele>94.813538</ele>
<time>2010-08-29T17:33:11Z</time>
<desc>lat.=55.911736, lon.=26.499506, Alt.=94.813538m. Speed=15.984000m/h.</desc>
<speed>4.440000</speed>
</trkpt>
<trkpt lat="55.911728" lon="26.499578">
<ele>94.983459</ele>
<time>2010-08-29T17:33:12Z</time>
<desc>lat.=55.911728, lon.=26.499578, Alt.=94.983459m. Speed=14.796000m/h.</desc>
<speed>4.110000</speed>
</trkpt>
<trkpt lat="55.911720" lon="26.499647">
<ele>95.501038</ele>
<time>2010-08-29T17:33:13Z</time>
<desc>lat.=55.911720, lon.=26.499647, Alt.=95.501038m. Speed=14.112000m/h.</desc>
<speed>3.920000</speed>
</trkpt>
<trkpt lat="55.911724" lon="26.499706">
<ele>96.557678</ele>
<time>2010-08-29T17:33:14Z</time>
<desc>lat.=55.911724, lon.=26.499706, Alt.=96.557678m. Speed=13.068000m/h.</desc>
<speed>3.630000</speed>
</trkpt>
<trkpt lat="55.911728" lon="26.499771">
<ele>96.483459</ele>
<time>2010-08-29T17:33:15Z</time>
<desc>lat.=55.911728, lon.=26.499771, Alt.=96.483459m. Speed=12.600000m/h.</desc>
<speed>3.500000</speed>
</trkpt>
<trkpt lat="55.911732" lon="26.499825">
<ele>96.469788</ele>
<time>2010-08-29T17:33:16Z</time>
<desc>lat.=55.911732, lon.=26.499825, Alt.=96.469788m. Speed=10.908000m/h.</desc>
<speed>3.030000</speed>
</trkpt>
<trkpt lat="55.911736" lon="26.499876">
<ele>96.057678</ele>
<time>2010-08-29T17:33:17Z</time>
<desc>lat.=55.911736, lon.=26.499876, Alt.=96.057678m. Speed=9.900000m/h.</desc>
<speed>2.750000</speed>
</trkpt>
<trkpt lat="55.911736" lon="26.499929">
<ele>95.680725</ele>
<time>2010-08-29T17:33:18Z</time>
<desc>lat.=55.911736, lon.=26.499929, Alt.=95.680725m. Speed=8.316000m/h.</desc>
<speed>2.310000</speed>
</trkpt>
<trkpt lat="55.911743" lon="26.499971">
<ele>95.532288</ele>
<time>2010-08-29T17:33:19Z</time>
<desc>lat.=55.911743, lon.=26.499971, Alt.=95.532288m. Speed=8.712000m/h.</desc>
<speed>2.420000</speed>
</trkpt>
<trkpt lat="55.911758" lon="26.500013">
<ele>95.387756</ele>
<time>2010-08-29T17:33:20Z</time>
<desc>lat.=55.911758, lon.=26.500013, Alt.=95.387756m. Speed=8.100000m/h.</desc>
<speed>2.250000</speed>
</trkpt>
<trkpt lat="55.911777" lon="26.500038">
<ele>95.788147</ele>
<time>2010-08-29T17:33:21Z</time>
<desc>lat.=55.911777, lon.=26.500038, Alt.=95.788147m. Speed=8.136000m/h.</desc>
<speed>2.260000</speed>
</trkpt>
<trkpt lat="55.911800" lon="26.500057">
<ele>96.417053</ele>
<time>2010-08-29T17:33:22Z</time>
<desc>lat.=55.911800, lon.=26.500057, Alt.=96.417053m. Speed=10.080000m/h.</desc>
<speed>2.800000</speed>
</trkpt>
<trkpt lat="55.911831" lon="26.500088">
<ele>95.840881</ele>
<time>2010-08-29T17:33:23Z</time>
<desc>lat.=55.911831, lon.=26.500088, Alt.=95.840881m. Speed=13.860000m/h.</desc>
<speed>3.850000</speed>
</trkpt>
<trkpt lat="55.911861" lon="26.500113">
<ele>95.260803</ele>
<time>2010-08-29T17:33:24Z</time>
<desc>lat.=55.911861, lon.=26.500113, Alt.=95.260803m. Speed=12.492000m/h.</desc>
<speed>3.470000</speed>
</trkpt>
<trkpt lat="55.911903" lon="26.500135">
<ele>95.784241</ele>
<time>2010-08-29T17:33:25Z</time>
<desc>lat.=55.911903, lon.=26.500135, Alt.=95.784241m. Speed=12.672000m/h.</desc>
<speed>3.520000</speed>
</trkpt>
<trkpt lat="55.911938" lon="26.500151">
<ele>95.295959</ele>
<time>2010-08-29T17:33:26Z</time>
<desc>lat.=55.911938, lon.=26.500151, Alt.=95.295959m. Speed=13.572000m/h.</desc>
<speed>3.770000</speed>
</trkpt>
<trkpt lat="55.911976" lon="26.500170">
<ele>95.460022</ele>
<time>2010-08-29T17:33:27Z</time>
<desc>lat.=55.911976, lon.=26.500170, Alt.=95.460022m. Speed=13.104000m/h.</desc>
<speed>3.640000</speed>
</trkpt>
<trkpt lat="55.912006" lon="26.500187">
<ele>94.924866</ele>
<time>2010-08-29T17:33:28Z</time>
<desc>lat.=55.912006, lon.=26.500187, Alt.=94.924866m. Speed=14.184000m/h.</desc>
<speed>3.940000</speed>
</trkpt>
<trkpt lat="55.912041" lon="26.500200">
<ele>94.491272</ele>
<time>2010-08-29T17:33:29Z</time>
<desc>lat.=55.912041, lon.=26.500200, Alt.=94.491272m. Speed=12.996000m/h.</desc>
<speed>3.610000</speed>
</trkpt>
<trkpt lat="55.912079" lon="26.500210">
<ele>94.358459</ele>
<time>2010-08-29T17:33:30Z</time>
<desc>lat.=55.912079, lon.=26.500210, Alt.=94.358459m. Speed=12.816000m/h.</desc>
<speed>3.560000</speed>
</trkpt>
<trkpt lat="55.912113" lon="26.500217">
<ele>94.618225</ele>
<time>2010-08-29T17:33:31Z</time>
<desc>lat.=55.912113, lon.=26.500217, Alt.=94.618225m. Speed=10.332000m/h.</desc>
<speed>2.870000</speed>
</trkpt>
<trkpt lat="55.912140" lon="26.500221">
<ele>94.801819</ele>
<time>2010-08-29T17:33:32Z</time>
<desc>lat.=55.912140, lon.=26.500221, Alt.=94.801819m. Speed=12.816000m/h.</desc>
<speed>3.560000</speed>
</trkpt>
<trkpt lat="55.912174" lon="26.500223">
<ele>95.631897</ele>
<time>2010-08-29T17:33:33Z</time>
<desc>lat.=55.912174, lon.=26.500223, Alt.=95.631897m. Speed=12.672000m/h.</desc>
<speed>3.520000</speed>
</trkpt>
<trkpt lat="55.912205" lon="26.500227">
<ele>95.721741</ele>
<time>2010-08-29T17:33:34Z</time>
<desc>lat.=55.912205, lon.=26.500227, Alt.=95.721741m. Speed=11.916000m/h.</desc>
<speed>3.310000</speed>
</trkpt>
<trkpt lat="55.912235" lon="26.500225">
<ele>96.010803</ele>
<time>2010-08-29T17:33:35Z</time>
<desc>lat.=55.912235, lon.=26.500225, Alt.=96.010803m. Speed=11.412000m/h.</desc>
<speed>3.170000</speed>
</trkpt>
<trkpt lat="55.912258" lon="26.500242">
<ele>95.917053</ele>
<time>2010-08-29T17:33:36Z</time>
<desc>lat.=55.912258, lon.=26.500242, Alt.=95.917053m. Speed=11.052000m/h.</desc>
<speed>3.070000</speed>
</trkpt>
<trkpt lat="55.912289" lon="26.500259">
<ele>95.460022</ele>
<time>2010-08-29T17:33:37Z</time>
<desc>lat.=55.912289, lon.=26.500259, Alt.=95.460022m. Speed=12.456000m/h.</desc>
<speed>3.460000</speed>
</trkpt>
<trkpt lat="55.912319" lon="26.500277">
<ele>95.145569</ele>
<time>2010-08-29T17:33:38Z</time>
<desc>lat.=55.912319, lon.=26.500277, Alt.=95.145569m. Speed=12.528000m/h.</desc>
<speed>3.480000</speed>
</trkpt>
<trkpt lat="55.912342" lon="26.500301">
<ele>95.092834</ele>
<time>2010-08-29T17:33:39Z</time>
<desc>lat.=55.912342, lon.=26.500301, Alt.=95.092834m. Speed=9.540000m/h.</desc>
<speed>2.650000</speed>
</trkpt>
<trkpt lat="55.912361" lon="26.500340">
<ele>94.774475</ele>
<time>2010-08-29T17:33:40Z</time>
<desc>lat.=55.912361, lon.=26.500340, Alt.=94.774475m. Speed=12.024000m/h.</desc>
<speed>3.340000</speed>
</trkpt>
<trkpt lat="55.912380" lon="26.500387">
<ele>94.596741</ele>
<time>2010-08-29T17:33:41Z</time>
<desc>lat.=55.912380, lon.=26.500387, Alt.=94.596741m. Speed=11.700000m/h.</desc>
<speed>3.250000</speed>
</trkpt>
<trkpt lat="55.912395" lon="26.500446">
<ele>94.573303</ele>
<time>2010-08-29T17:33:42Z</time>
<desc>lat.=55.912395, lon.=26.500446, Alt.=94.573303m. Speed=13.068000m/h.</desc>
<speed>3.630000</speed>
</trkpt>
<trkpt lat="55.912399" lon="26.500505">
<ele>94.778381</ele>
<time>2010-08-29T17:33:43Z</time>
<desc>lat.=55.912399, lon.=26.500505, Alt.=94.778381m. Speed=12.240000m/h.</desc>
<speed>3.400000</speed>
</trkpt>
<trkpt lat="55.912399" lon="26.500561">
<ele>95.012756</ele>
<time>2010-08-29T17:33:44Z</time>
<desc>lat.=55.912399, lon.=26.500561, Alt.=95.012756m. Speed=11.304000m/h.</desc>
<speed>3.140000</speed>
</trkpt>
<trkpt lat="55.912388" lon="26.500612">
<ele>95.237366</ele>
<time>2010-08-29T17:33:45Z</time>
<desc>lat.=55.912388, lon.=26.500612, Alt.=95.237366m. Speed=10.692000m/h.</desc>
<speed>2.970000</speed>
</trkpt>
<trkpt lat="55.912384" lon="26.500664">
<ele>95.473694</ele>
<time>2010-08-29T17:33:46Z</time>
<desc>lat.=55.912384, lon.=26.500664, Alt.=95.473694m. Speed=12.672000m/h.</desc>
<speed>3.520000</speed>
</trkpt>
<trkpt lat="55.912384" lon="26.500725">
<ele>95.643616</ele>
<time>2010-08-29T17:33:47Z</time>
<desc>lat.=55.912384, lon.=26.500725, Alt.=95.643616m. Speed=13.176000m/h.</desc>
<speed>3.660000</speed>
</trkpt>
<trkpt lat="55.912384" lon="26.500771">
<ele>96.395569</ele>
<time>2010-08-29T17:33:48Z</time>
<desc>lat.=55.912384, lon.=26.500771, Alt.=96.395569m. Speed=9.576000m/h.</desc>
<speed>2.660000</speed>
</trkpt>
<trkpt lat="55.912384" lon="26.500809">
<ele>97.210022</ele>
<time>2010-08-29T17:33:49Z</time>
<desc>lat.=55.912384, lon.=26.500809, Alt.=97.210022m. Speed=8.136000m/h.</desc>
<speed>2.260000</speed>
</trkpt>
<trkpt lat="55.912384" lon="26.500860">
<ele>97.614319</ele>
<time>2010-08-29T17:33:50Z</time>
<desc>lat.=55.912384, lon.=26.500860, Alt.=97.614319m. Speed=9.648000m/h.</desc>
<speed>2.680000</speed>
</trkpt>
<trkpt lat="55.912376" lon="26.500929">
<ele>96.827209</ele>
<time>2010-08-29T17:33:51Z</time>
<desc>lat.=55.912376, lon.=26.500929, Alt.=96.827209m. Speed=12.492000m/h.</desc>
<speed>3.470000</speed>
</trkpt>
<trkpt lat="55.912376" lon="26.500986">
<ele>97.210022</ele>
<time>2010-08-29T17:33:52Z</time>
<desc>lat.=55.912376, lon.=26.500986, Alt.=97.210022m. Speed=10.008000m/h.</desc>
<speed>2.780000</speed>
</trkpt>
<trkpt lat="55.912376" lon="26.501030">
<ele>98.098694</ele>
<time>2010-08-29T17:33:53Z</time>
<desc>lat.=55.912376, lon.=26.501030, Alt.=98.098694m. Speed=8.496000m/h.</desc>
<speed>2.360000</speed>
</trkpt>
<trkpt lat="55.912373" lon="26.501070">
<ele>98.518616</ele>
<time>2010-08-29T17:33:54Z</time>
<desc>lat.=55.912373, lon.=26.501070, Alt.=98.518616m. Speed=7.920000m/h.</desc>
<speed>2.200000</speed>
</trkpt>
<trkpt lat="55.912365" lon="26.501104">
<ele>98.260803</ele>
<time>2010-08-29T17:33:55Z</time>
<desc>lat.=55.912365, lon.=26.501104, Alt.=98.260803m. Speed=6.300000m/h.</desc>
<speed>1.750000</speed>
</trkpt>
<trkpt lat="55.912357" lon="26.501133">
<ele>98.342834</ele>
<time>2010-08-29T17:33:56Z</time>
<desc>lat.=55.912357, lon.=26.501133, Alt.=98.342834m. Speed=3.924000m/h.</desc>
<speed>1.090000</speed>
</trkpt>
<trkpt lat="55.912354" lon="26.501163">
<ele>97.831116</ele>
<time>2010-08-29T17:33:57Z</time>
<desc>lat.=55.912354, lon.=26.501163, Alt.=97.831116m. Speed=7.056000m/h.</desc>
<speed>1.960000</speed>
</trkpt>
<trkpt lat="55.912342" lon="26.501196">
<ele>97.766663</ele>
<time>2010-08-29T17:33:58Z</time>
<desc>lat.=55.912342, lon.=26.501196, Alt.=97.766663m. Speed=5.112000m/h.</desc>
<speed>1.420000</speed>
</trkpt>
<trkpt lat="55.912338" lon="26.501228">
<ele>98.551819</ele>
<time>2010-08-29T17:33:59Z</time>
<desc>lat.=55.912338, lon.=26.501228, Alt.=98.551819m. Speed=3.780000m/h.</desc>
<speed>1.050000</speed>
</trkpt>
<trkpt lat="55.912331" lon="26.501240">
<ele>98.588928</ele>
<time>2010-08-29T17:34:00Z</time>
<desc>lat.=55.912331, lon.=26.501240, Alt.=98.588928m. Speed=2.628000m/h.</desc>
<speed>0.730000</speed>
</trkpt>
<trkpt lat="55.912331" lon="26.501251">
<ele>98.247131</ele>
<time>2010-08-29T17:34:01Z</time>
<desc>lat.=55.912331, lon.=26.501251, Alt.=98.247131m. Speed=1.980000m/h.</desc>
<speed>0.550000</speed>
</trkpt>
<trkpt lat="55.912319" lon="26.501272">
<ele>97.440491</ele>
<time>2010-08-29T17:34:02Z</time>
<desc>lat.=55.912319, lon.=26.501272, Alt.=97.440491m. Speed=1.404000m/h.</desc>
<speed>0.390000</speed>
</trkpt>
<trkpt lat="55.912319" lon="26.501284">
<ele>97.262756</ele>
<time>2010-08-29T17:34:03Z</time>
<desc>lat.=55.912319, lon.=26.501284, Alt.=97.262756m. Speed=1.836000m/h.</desc>
<speed>0.510000</speed>
</trkpt>
<trkpt lat="55.912315" lon="26.501287">
<ele>97.073303</ele>
<time>2010-08-29T17:34:04Z</time>
<desc>lat.=55.912315, lon.=26.501287, Alt.=97.073303m. Speed=1.620000m/h.</desc>
<speed>0.450000</speed>
</trkpt>
<trkpt lat="55.912312" lon="26.501291">
<ele>96.883850</ele>
<time>2010-08-29T17:34:05Z</time>
<desc>lat.=55.912312, lon.=26.501291, Alt.=96.883850m. Speed=1.620000m/h.</desc>
<speed>0.450000</speed>
</trkpt>
<trkpt lat="55.912308" lon="26.501293">
<ele>96.696350</ele>
<time>2010-08-29T17:34:06Z</time>
<desc>lat.=55.912308, lon.=26.501293, Alt.=96.696350m. Speed=3.780000m/h.</desc>
<speed>1.050000</speed>
</trkpt>
<trkpt lat="55.912292" lon="26.501299">
<ele>96.213928</ele>
<time>2010-08-29T17:34:07Z</time>
<desc>lat.=55.912292, lon.=26.501299, Alt.=96.213928m. Speed=4.608000m/h.</desc>
<speed>1.280000</speed>
</trkpt>
<trkpt lat="55.912277" lon="26.501301">
<ele>95.860413</ele>
<time>2010-08-29T17:34:08Z</time>
<desc>lat.=55.912277, lon.=26.501301, Alt.=95.860413m. Speed=4.356000m/h.</desc>
<speed>1.210000</speed>
</trkpt>
<trkpt lat="55.912262" lon="26.501295">
<ele>95.526428</ele>
<time>2010-08-29T17:34:09Z</time>
<desc>lat.=55.912262, lon.=26.501295, Alt.=95.526428m. Speed=4.500000m/h.</desc>
<speed>1.250000</speed>
</trkpt>
<trkpt lat="55.912251" lon="26.501299">
<ele>95.254944</ele>
<time>2010-08-29T17:34:10Z</time>
<desc>lat.=55.912251, lon.=26.501299, Alt.=95.254944m. Speed=4.284000m/h.</desc>
<speed>1.190000</speed>
</trkpt>
<trkpt lat="55.912243" lon="26.501295">
<ele>94.973694</ele>
<time>2010-08-29T17:34:11Z</time>
<desc>lat.=55.912243, lon.=26.501295, Alt.=94.973694m. Speed=0.900000m/h.</desc>
<speed>0.250000</speed>
</trkpt>
<trkpt lat="55.912239" lon="26.501289">
<ele>95.243225</ele>
<time>2010-08-29T17:34:12Z</time>
<desc>lat.=55.912239, lon.=26.501289, Alt.=95.243225m. Speed=0.900000m/h.</desc>
<speed>0.250000</speed>
</trkpt>
<trkpt lat="55.912239" lon="26.501289">
<ele>95.399475</ele>
<time>2010-08-29T17:34:13Z</time>
<desc>lat.=55.912239, lon.=26.501289, Alt.=95.399475m. Speed=0.648000m/h.</desc>
<speed>0.180000</speed>
</trkpt>
<trkpt lat="55.912235" lon="26.501286">
<ele>95.540100</ele>
<time>2010-08-29T17:34:14Z</time>
<desc>lat.=55.912235, lon.=26.501286, Alt.=95.540100m. Speed=0.108000m/h.</desc>
<speed>0.030000</speed>
</trkpt>
<trkpt lat="55.912235" lon="26.501286">
<ele>95.536194</ele>
<time>2010-08-29T17:34:15Z</time>
<desc>lat.=55.912235, lon.=26.501286, Alt.=95.536194m. Speed=0.684000m/h.</desc>
<speed>0.190000</speed>
</trkpt>
<trkpt lat="55.912235" lon="26.501289">
<ele>95.518616</ele>
<time>2010-08-29T17:34:16Z</time>
<desc>lat.=55.912235, lon.=26.501289, Alt.=95.518616m. Speed=0.792000m/h.</desc>
<speed>0.220000</speed>
</trkpt>
<trkpt lat="55.912239" lon="26.501287">
<ele>95.508850</ele>
<time>2010-08-29T17:34:17Z</time>
<desc>lat.=55.912239, lon.=26.501287, Alt.=95.508850m. Speed=0.108000m/h.</desc>
<speed>0.030000</speed>
</trkpt>
<trkpt lat="55.912239" lon="26.501287">
<ele>95.495178</ele>
<time>2010-08-29T17:34:18Z</time>
<desc>lat.=55.912239, lon.=26.501287, Alt.=95.495178m. Speed=1.620000m/h.</desc>
<speed>0.450000</speed>
</trkpt>
<trkpt lat="55.912235" lon="26.501282">
<ele>95.911194</ele>
<time>2010-08-29T17:34:19Z</time>
<desc>lat.=55.912235, lon.=26.501282, Alt.=95.911194m. Speed=0.036000m/h.</desc>
<speed>0.010000</speed>
</trkpt>
<trkpt lat="55.912231" lon="26.501282">
<ele>95.821350</ele>
<time>2010-08-29T17:34:20Z</time>
<desc>lat.=55.912231, lon.=26.501282, Alt.=95.821350m. Speed=0.684000m/h.</desc>
<speed>0.190000</speed>
</trkpt>
<trkpt lat="55.912231" lon="26.501282">
<ele>95.856506</ele>
<time>2010-08-29T17:34:21Z</time>
<desc>lat.=55.912231, lon.=26.501282, Alt.=95.856506m. Speed=0.252000m/h.</desc>
<speed>0.070000</speed>
</trkpt>
<trkpt lat="55.912228" lon="26.501278">
<ele>95.788147</ele>
<time>2010-08-29T17:34:22Z</time>
<desc>lat.=55.912228, lon.=26.501278, Alt.=95.788147m. Speed=0.180000m/h.</desc>
<speed>0.050000</speed>
</trkpt>
<trkpt lat="55.912228" lon="26.501276">
<ele>95.782288</ele>
<time>2010-08-29T17:34:23Z</time>
<desc>lat.=55.912228, lon.=26.501276, Alt.=95.782288m. Speed=0.288000m/h.</desc>
<speed>0.080000</speed>
</trkpt>
<trkpt lat="55.912228" lon="26.501276">
<ele>95.770569</ele>
<time>2010-08-29T17:34:24Z</time>
<desc>lat.=55.912228, lon.=26.501276, Alt.=95.770569m. Speed=0.288000m/h.</desc>
<speed>0.080000</speed>
</trkpt>
<trkpt lat="55.912228" lon="26.501274">
<ele>95.762756</ele>
<time>2010-08-29T17:34:25Z</time>
<desc>lat.=55.912228, lon.=26.501274, Alt.=95.762756m. Speed=0.288000m/h.</desc>
<speed>0.080000</speed>
</trkpt>
<trkpt lat="55.912228" lon="26.501276">
<ele>95.758850</ele>
<time>2010-08-29T17:34:26Z</time>
<desc>lat.=55.912228, lon.=26.501276, Alt.=95.758850m. Speed=0.180000m/h.</desc>
<speed>0.050000</speed>
</trkpt>
<trkpt lat="55.912228" lon="26.501276">
<ele>95.754944</ele>
<time>2010-08-29T17:34:27Z</time>
<desc>lat.=55.912228, lon.=26.501276, Alt.=95.754944m. Speed=0.324000m/h.</desc>
<speed>0.090000</speed>
</trkpt>
<trkpt lat="55.912228" lon="26.501276">
<ele>95.752991</ele>
<time>2010-08-29T17:34:28Z</time>
<desc>lat.=55.912228, lon.=26.501276, Alt.=95.752991m. Speed=0.108000m/h.</desc>
<speed>0.030000</speed>
</trkpt>
<trkpt lat="55.912228" lon="26.501276">
<ele>95.752991</ele>
<time>2010-08-29T17:34:29Z</time>
<desc>lat.=55.912228, lon.=26.501276, Alt.=95.752991m. Speed=0.036000m/h.</desc>
<speed>0.010000</speed>
</trkpt>
<trkpt lat="55.912228" lon="26.501276">
<ele>95.752991</ele>
<time>2010-08-29T17:34:30Z</time>
<desc>lat.=55.912228, lon.=26.501276, Alt.=95.752991m. Speed=0.000000m/h.</desc>
<speed>0.000000</speed>
</trkpt>
<trkpt lat="55.912228" lon="26.501276">
<ele>95.752991</ele>
<time>2010-08-29T17:34:31Z</time>
<desc>lat.=55.912228, lon.=26.501276, Alt.=95.752991m. Speed=0.000000m/h.</desc>
<speed>0.000000</speed>
</trkpt>
<trkpt lat="55.912228" lon="26.501276">
<ele>95.749084</ele>
<time>2010-08-29T17:34:32Z</time>
<desc>lat.=55.912228, lon.=26.501276, Alt.=95.749084m. Speed=0.000000m/h.</desc>
<speed>0.000000</speed>
</trkpt>
<trkpt lat="55.912228" lon="26.501276">
<ele>95.749084</ele>
<time>2010-08-29T17:34:33Z</time>
<desc>lat.=55.912228, lon.=26.501276, Alt.=95.749084m. Speed=0.072000m/h.</desc>
<speed>0.020000</speed>
</trkpt>
<trkpt lat="55.912228" lon="26.501276">
<ele>95.751038</ele>
<time>2010-08-29T17:34:34Z</time>
<desc>lat.=55.912228, lon.=26.501276, Alt.=95.751038m. Speed=0.360000m/h.</desc>
<speed>0.100000</speed>
</trkpt>
<trkpt lat="55.912228" lon="26.501276">
<ele>95.752991</ele>
<time>2010-08-29T17:34:35Z</time>
<desc>lat.=55.912228, lon.=26.501276, Alt.=95.752991m. Speed=0.072000m/h.</desc>
<speed>0.020000</speed>
</trkpt>
<trkpt lat="55.912228" lon="26.501276">
<ele>95.752991</ele>
<time>2010-08-29T17:34:36Z</time>
<desc>lat.=55.912228, lon.=26.501276, Alt.=95.752991m. Speed=0.612000m/h.</desc>
<speed>0.170000</speed>
</trkpt>
<trkpt lat="55.912228" lon="26.501274">
<ele>95.733459</ele>
<time>2010-08-29T17:34:37Z</time>
<desc>lat.=55.912228, lon.=26.501274, Alt.=95.733459m. Speed=0.576000m/h.</desc>
<speed>0.160000</speed>
</trkpt>
<trkpt lat="55.912228" lon="26.501272">
<ele>95.710022</ele>
<time>2010-08-29T17:34:38Z</time>
<desc>lat.=55.912228, lon.=26.501272, Alt.=95.710022m. Speed=0.612000m/h.</desc>
<speed>0.170000</speed>
</trkpt>
<trkpt lat="55.912231" lon="26.501270">
<ele>95.667053</ele>
<time>2010-08-29T17:34:39Z</time>
<desc>lat.=55.912231, lon.=26.501270, Alt.=95.667053m. Speed=0.288000m/h.</desc>
<speed>0.080000</speed>
</trkpt>
<trkpt lat="55.912231" lon="26.501270">
<ele>95.635803</ele>
<time>2010-08-29T17:34:40Z</time>
<desc>lat.=55.912231, lon.=26.501270, Alt.=95.635803m. Speed=0.468000m/h.</desc>
<speed>0.130000</speed>
</trkpt>
<trkpt lat="55.912231" lon="26.501268">
<ele>95.608459</ele>
<time>2010-08-29T17:34:41Z</time>
<desc>lat.=55.912231, lon.=26.501268, Alt.=95.608459m. Speed=0.324000m/h.</desc>
<speed>0.090000</speed>
</trkpt>
<trkpt lat="55.912231" lon="26.501266">
<ele>95.594788</ele>
<time>2010-08-29T17:34:42Z</time>
<desc>lat.=55.912231, lon.=26.501266, Alt.=95.594788m. Speed=0.144000m/h.</desc>
<speed>0.040000</speed>
</trkpt>
<trkpt lat="55.912231" lon="26.501268">
<ele>95.581116</ele>
<time>2010-08-29T17:34:43Z</time>
<desc>lat.=55.912231, lon.=26.501268, Alt.=95.581116m. Speed=0.180000m/h.</desc>
<speed>0.050000</speed>
</trkpt>
<trkpt lat="55.912231" lon="26.501268">
<ele>95.573303</ele>
<time>2010-08-29T17:34:44Z</time>
<desc>lat.=55.912231, lon.=26.501268, Alt.=95.573303m. Speed=0.180000m/h.</desc>
<speed>0.050000</speed>
</trkpt>
<trkpt lat="55.912231" lon="26.501268">
<ele>95.563538</ele>
<time>2010-08-29T17:34:45Z</time>
<desc>lat.=55.912231, lon.=26.501268, Alt.=95.563538m. Speed=0.972000m/h.</desc>
<speed>0.270000</speed>
</trkpt>
<trkpt lat="55.912235" lon="26.501270">
<ele>95.549866</ele>
<time>2010-08-29T17:34:46Z</time>
<desc>lat.=55.912235, lon.=26.501270, Alt.=95.549866m. Speed=0.828000m/h.</desc>
<speed>0.230000</speed>
</trkpt>
<trkpt lat="55.912235" lon="26.501272">
<ele>95.536194</ele>
<time>2010-08-29T17:34:47Z</time>
<desc>lat.=55.912235, lon.=26.501272, Alt.=95.536194m. Speed=1.224000m/h.</desc>
<speed>0.340000</speed>
</trkpt>
<trkpt lat="55.912239" lon="26.501272">
<ele>95.528381</ele>
<time>2010-08-29T17:34:48Z</time>
<desc>lat.=55.912239, lon.=26.501272, Alt.=95.528381m. Speed=0.648000m/h.</desc>
<speed>0.180000</speed>
</trkpt>
<trkpt lat="55.912239" lon="26.501268">
<ele>95.532288</ele>
<time>2010-08-29T17:34:49Z</time>
<desc>lat.=55.912239, lon.=26.501268, Alt.=95.532288m. Speed=0.612000m/h.</desc>
<speed>0.170000</speed>
</trkpt>
<trkpt lat="55.912239" lon="26.501276">
<ele>95.713928</ele>
<time>2010-08-29T17:34:50Z</time>
<desc>lat.=55.912239, lon.=26.501276, Alt.=95.713928m. Speed=0.792000m/h.</desc>
<speed>0.220000</speed>
</trkpt>
<trkpt lat="55.912235" lon="26.501282">
<ele>95.764709</ele>
<time>2010-08-29T17:34:51Z</time>
<desc>lat.=55.912235, lon.=26.501282, Alt.=95.764709m. Speed=0.612000m/h.</desc>
<speed>0.170000</speed>
</trkpt>
<trkpt lat="55.912235" lon="26.501284">
<ele>95.784241</ele>
<time>2010-08-29T17:34:52Z</time>
<desc>lat.=55.912235, lon.=26.501284, Alt.=95.784241m. Speed=0.468000m/h.</desc>
<speed>0.130000</speed>
</trkpt>
<trkpt lat="55.912235" lon="26.501286">
<ele>95.799866</ele>
<time>2010-08-29T17:34:53Z</time>
<desc>lat.=55.912235, lon.=26.501286, Alt.=95.799866m. Speed=0.180000m/h.</desc>
<speed>0.050000</speed>
</trkpt>
<trkpt lat="55.912235" lon="26.501286">
<ele>95.811584</ele>
<time>2010-08-29T17:34:54Z</time>
<desc>lat.=55.912235, lon.=26.501286, Alt.=95.811584m. Speed=0.144000m/h.</desc>
<speed>0.040000</speed>
</trkpt>
<trkpt lat="55.912231" lon="26.501286">
<ele>95.821350</ele>
<time>2010-08-29T17:34:55Z</time>
<desc>lat.=55.912231, lon.=26.501286, Alt.=95.821350m. Speed=0.180000m/h.</desc>
<speed>0.050000</speed>
</trkpt>
<trkpt lat="55.912235" lon="26.501286">
<ele>95.842834</ele>
<time>2010-08-29T17:34:56Z</time>
<desc>lat.=55.912235, lon.=26.501286, Alt.=95.842834m. Speed=0.144000m/h.</desc>
<speed>0.040000</speed>
</trkpt>
<trkpt lat="55.912231" lon="26.501287">
<ele>95.858459</ele>
<time>2010-08-29T17:34:57Z</time>
<desc>lat.=55.912231, lon.=26.501287, Alt.=95.858459m. Speed=0.288000m/h.</desc>
<speed>0.080000</speed>
</trkpt>
<trkpt lat="55.912231" lon="26.501287">
<ele>95.870178</ele>
<time>2010-08-29T17:34:58Z</time>
<desc>lat.=55.912231, lon.=26.501287, Alt.=95.870178m. Speed=0.036000m/h.</desc>
<speed>0.010000</speed>
</trkpt>
<trkpt lat="55.912231" lon="26.501287">
<ele>95.885803</ele>
<time>2010-08-29T17:34:59Z</time>
<desc>lat.=55.912231, lon.=26.501287, Alt.=95.885803m. Speed=1.692000m/h.</desc>
<speed>0.470000</speed>
</trkpt>
<trkpt lat="55.912235" lon="26.501280">
<ele>95.778381</ele>
<time>2010-08-29T17:35:00Z</time>
<desc>lat.=55.912235, lon.=26.501280, Alt.=95.778381m. Speed=0.468000m/h.</desc>
<speed>0.130000</speed>
</trkpt>
<trkpt lat="55.912235" lon="26.501284">
<ele>95.737366</ele>
<time>2010-08-29T17:35:01Z</time>
<desc>lat.=55.912235, lon.=26.501284, Alt.=95.737366m. Speed=0.180000m/h.</desc>
<speed>0.050000</speed>
</trkpt>
<trkpt lat="55.912235" lon="26.501276">
<ele>95.620178</ele>
<time>2010-08-29T17:35:02Z</time>
<desc>lat.=55.912235, lon.=26.501276, Alt.=95.620178m. Speed=0.180000m/h.</desc>
<speed>0.050000</speed>
</trkpt>
<trkpt lat="55.912239" lon="26.501268">
<ele>95.545959</ele>
<time>2010-08-29T17:35:03Z</time>
<desc>lat.=55.912239, lon.=26.501268, Alt.=95.545959m. Speed=0.108000m/h.</desc>
<speed>0.030000</speed>
</trkpt>
<trkpt lat="55.912239" lon="26.501268">
<ele>95.555725</ele>
<time>2010-08-29T17:35:04Z</time>
<desc>lat.=55.912239, lon.=26.501268, Alt.=95.555725m. Speed=0.216000m/h.</desc>
<speed>0.060000</speed>
</trkpt>
<trkpt lat="55.912239" lon="26.501266">
<ele>95.577209</ele>
<time>2010-08-29T17:35:05Z</time>
<desc>lat.=55.912239, lon.=26.501266, Alt.=95.577209m. Speed=0.180000m/h.</desc>
<speed>0.050000</speed>
</trkpt>
<trkpt lat="55.912239" lon="26.501268">
<ele>95.577209</ele>
<time>2010-08-29T17:35:06Z</time>
<desc>lat.=55.912239, lon.=26.501268, Alt.=95.577209m. Speed=0.000000m/h.</desc>
<speed>0.000000</speed>
</trkpt>
<trkpt lat="55.912239" lon="26.501268">
<ele>95.592834</ele>
<time>2010-08-29T17:35:07Z</time>
<desc>lat.=55.912239, lon.=26.501268, Alt.=95.592834m. Speed=0.432000m/h.</desc>
<speed>0.120000</speed>
</trkpt>
<trkpt lat="55.912239" lon="26.501268">
<ele>95.583069</ele>
<time>2010-08-29T17:35:08Z</time>
<desc>lat.=55.912239, lon.=26.501268, Alt.=95.583069m. Speed=0.072000m/h.</desc>
<speed>0.020000</speed>
</trkpt>
<trkpt lat="55.912239" lon="26.501268">
<ele>95.581116</ele>
<time>2010-08-29T17:35:09Z</time>
<desc>lat.=55.912239, lon.=26.501268, Alt.=95.581116m. Speed=0.144000m/h.</desc>
<speed>0.040000</speed>
</trkpt>
<trkpt lat="55.912239" lon="26.501268">
<ele>95.581116</ele>
<time>2010-08-29T17:35:10Z</time>
<desc>lat.=55.912239, lon.=26.501268, Alt.=95.581116m. Speed=0.000000m/h.</desc>
<speed>0.000000</speed>
</trkpt>
<trkpt lat="55.912239" lon="26.501268">
<ele>95.579163</ele>
<time>2010-08-29T17:35:11Z</time>
<desc>lat.=55.912239, lon.=26.501268, Alt.=95.579163m. Speed=0.036000m/h.</desc>
<speed>0.010000</speed>
</trkpt>
<trkpt lat="55.912239" lon="26.501268">
<ele>95.579163</ele>
<time>2010-08-29T17:35:12Z</time>
<desc>lat.=55.912239, lon.=26.501268, Alt.=95.579163m. Speed=0.144000m/h.</desc>
<speed>0.040000</speed>
</trkpt>
<trkpt lat="55.912239" lon="26.501268">
<ele>95.577209</ele>
<time>2010-08-29T17:35:13Z</time>
<desc>lat.=55.912239, lon.=26.501268, Alt.=95.577209m. Speed=0.036000m/h.</desc>
<speed>0.010000</speed>
</trkpt>
<trkpt lat="55.912239" lon="26.501268">
<ele>95.577209</ele>
<time>2010-08-29T17:35:14Z</time>
<desc>lat.=55.912239, lon.=26.501268, Alt.=95.577209m. Speed=0.036000m/h.</desc>
<speed>0.010000</speed>
</trkpt>
<trkpt lat="55.912239" lon="26.501268">
<ele>95.575256</ele>
<time>2010-08-29T17:35:15Z</time>
<desc>lat.=55.912239, lon.=26.501268, Alt.=95.575256m. Speed=0.036000m/h.</desc>
<speed>0.010000</speed>
</trkpt>
<trkpt lat="55.912239" lon="26.501268">
<ele>95.575256</ele>
<time>2010-08-29T17:35:16Z</time>
<desc>lat.=55.912239, lon.=26.501268, Alt.=95.575256m. Speed=0.108000m/h.</desc>
<speed>0.030000</speed>
</trkpt>
<trkpt lat="55.912239" lon="26.501268">
<ele>95.575256</ele>
<time>2010-08-29T17:35:17Z</time>
<desc>lat.=55.912239, lon.=26.501268, Alt.=95.575256m. Speed=0.072000m/h.</desc>
<speed>0.020000</speed>
</trkpt>
<trkpt lat="55.912239" lon="26.501268">
<ele>95.577209</ele>
<time>2010-08-29T17:35:18Z</time>
<desc>lat.=55.912239, lon.=26.501268, Alt.=95.577209m. Speed=0.180000m/h.</desc>
<speed>0.050000</speed>
</trkpt>
<trkpt lat="55.912239" lon="26.501268">
<ele>95.583069</ele>
<time>2010-08-29T17:35:19Z</time>
<desc>lat.=55.912239, lon.=26.501268, Alt.=95.583069m. Speed=0.432000m/h.</desc>
<speed>0.120000</speed>
</trkpt>
<trkpt lat="55.912243" lon="26.501268">
<ele>95.588928</ele>
<time>2010-08-29T17:35:20Z</time>
<desc>lat.=55.912243, lon.=26.501268, Alt.=95.588928m. Speed=0.072000m/h.</desc>
<speed>0.020000</speed>
</trkpt>
<trkpt lat="55.912239" lon="26.501268">
<ele>95.588928</ele>
<time>2010-08-29T17:35:21Z</time>
<desc>lat.=55.912239, lon.=26.501268, Alt.=95.588928m. Speed=0.072000m/h.</desc>
<speed>0.020000</speed>
</trkpt>
<trkpt lat="55.912239" lon="26.501268">
<ele>95.586975</ele>
<time>2010-08-29T17:35:22Z</time>
<desc>lat.=55.912239, lon.=26.501268, Alt.=95.586975m. Speed=0.180000m/h.</desc>
<speed>0.050000</speed>
</trkpt>
<trkpt lat="55.912239" lon="26.501268">
<ele>95.590881</ele>
<time>2010-08-29T17:35:23Z</time>
<desc>lat.=55.912239, lon.=26.501268, Alt.=95.590881m. Speed=0.108000m/h.</desc>
<speed>0.030000</speed>
</trkpt>
<trkpt lat="55.912239" lon="26.501268">
<ele>95.590881</ele>
<time>2010-08-29T17:35:24Z</time>
<desc>lat.=55.912239, lon.=26.501268, Alt.=95.590881m. Speed=0.108000m/h.</desc>
<speed>0.030000</speed>
</trkpt>
<trkpt lat="55.912239" lon="26.501268">
<ele>95.590881</ele>
<time>2010-08-29T17:35:25Z</time>
<desc>lat.=55.912239, lon.=26.501268, Alt.=95.590881m. Speed=0.108000m/h.</desc>
<speed>0.030000</speed>
</trkpt>
<trkpt lat="55.912239" lon="26.501268">
<ele>95.592834</ele>
<time>2010-08-29T17:35:26Z</time>
<desc>lat.=55.912239, lon.=26.501268, Alt.=95.592834m. Speed=0.000000m/h.</desc>
<speed>0.000000</speed>
</trkpt>
<trkpt lat="55.912239" lon="26.501268">
<ele>95.592834</ele>
<time>2010-08-29T17:35:27Z</time>
<desc>lat.=55.912239, lon.=26.501268, Alt.=95.592834m. Speed=0.000000m/h.</desc>
<speed>0.000000</speed>
</trkpt>
<trkpt lat="55.912239" lon="26.501268">
<ele>95.594788</ele>
<time>2010-08-29T17:35:28Z</time>
<desc>lat.=55.912239, lon.=26.501268, Alt.=95.594788m. Speed=0.000000m/h.</desc>
<speed>0.000000</speed>
</trkpt>
<trkpt lat="55.912239" lon="26.501268">
<ele>95.596741</ele>
<time>2010-08-29T17:35:29Z</time>
<desc>lat.=55.912239, lon.=26.501268, Alt.=95.596741m. Speed=0.036000m/h.</desc>
<speed>0.010000</speed>
</trkpt>
<trkpt lat="55.912239" lon="26.501268">
<ele>95.596741</ele>
<time>2010-08-29T17:35:30Z</time>
<desc>lat.=55.912239, lon.=26.501268, Alt.=95.596741m. Speed=0.036000m/h.</desc>
<speed>0.010000</speed>
</trkpt>
<trkpt lat="55.912239" lon="26.501268">
<ele>95.596741</ele>
<time>2010-08-29T17:35:31Z</time>
<desc>lat.=55.912239, lon.=26.501268, Alt.=95.596741m. Speed=0.072000m/h.</desc>
<speed>0.020000</speed>
</trkpt>
<trkpt lat="55.912239" lon="26.501268">
<ele>95.592834</ele>
<time>2010-08-29T17:35:32Z</time>
<desc>lat.=55.912239, lon.=26.501268, Alt.=95.592834m. Speed=0.144000m/h.</desc>
<speed>0.040000</speed>
</trkpt>
<trkpt lat="55.912239" lon="26.501268">
<ele>95.594788</ele>
<time>2010-08-29T17:35:33Z</time>
<desc>lat.=55.912239, lon.=26.501268, Alt.=95.594788m. Speed=0.072000m/h.</desc>
<speed>0.020000</speed>
</trkpt>
<trkpt lat="55.912239" lon="26.501268">
<ele>95.594788</ele>
<time>2010-08-29T17:35:34Z</time>
<desc>lat.=55.912239, lon.=26.501268, Alt.=95.594788m. Speed=0.792000m/h.</desc>
<speed>0.220000</speed>
</trkpt>
<trkpt lat="55.912239" lon="26.501270">
<ele>95.600647</ele>
<time>2010-08-29T17:35:35Z</time>
<desc>lat.=55.912239, lon.=26.501270, Alt.=95.600647m. Speed=2.952000m/h.</desc>
<speed>0.820000</speed>
</trkpt>
<trkpt lat="55.912231" lon="26.501251">
<ele>95.461975</ele>
<time>2010-08-29T17:35:36Z</time>
<desc>lat.=55.912231, lon.=26.501251, Alt.=95.461975m. Speed=4.716000m/h.</desc>
<speed>1.310000</speed>
</trkpt>
<trkpt lat="55.912224" lon="26.501238">
<ele>95.352600</ele>
<time>2010-08-29T17:35:37Z</time>
<desc>lat.=55.912224, lon.=26.501238, Alt.=95.352600m. Speed=4.428000m/h.</desc>
<speed>1.230000</speed>
</trkpt>
<trkpt lat="55.912212" lon="26.501242">
<ele>95.096741</ele>
<time>2010-08-29T17:35:38Z</time>
<desc>lat.=55.912212, lon.=26.501242, Alt.=95.096741m. Speed=2.772000m/h.</desc>
<speed>0.770000</speed>
</trkpt>
<trkpt lat="55.912209" lon="26.501232">
<ele>95.542053</ele>
<time>2010-08-29T17:35:39Z</time>
<desc>lat.=55.912209, lon.=26.501232, Alt.=95.542053m. Speed=1.152000m/h.</desc>
<speed>0.320000</speed>
</trkpt>
<trkpt lat="55.912205" lon="26.501232">
<ele>95.624084</ele>
<time>2010-08-29T17:35:40Z</time>
<desc>lat.=55.912205, lon.=26.501232, Alt.=95.624084m. Speed=0.828000m/h.</desc>
<speed>0.230000</speed>
</trkpt>
<trkpt lat="55.912201" lon="26.501238">
<ele>95.782288</ele>
<time>2010-08-29T17:35:41Z</time>
<desc>lat.=55.912201, lon.=26.501238, Alt.=95.782288m. Speed=0.288000m/h.</desc>
<speed>0.080000</speed>
</trkpt>
<trkpt lat="55.912197" lon="26.501238">
<ele>95.946350</ele>
<time>2010-08-29T17:35:42Z</time>
<desc>lat.=55.912197, lon.=26.501238, Alt.=95.946350m. Speed=0.108000m/h.</desc>
<speed>0.030000</speed>
</trkpt>
<trkpt lat="55.912193" lon="26.501240">
<ele>96.151428</ele>
<time>2010-08-29T17:35:43Z</time>
<desc>lat.=55.912193, lon.=26.501240, Alt.=96.151428m. Speed=0.072000m/h.</desc>
<speed>0.020000</speed>
</trkpt>
<trkpt lat="55.912193" lon="26.501242">
<ele>96.227600</ele>
<time>2010-08-29T17:35:44Z</time>
<desc>lat.=55.912193, lon.=26.501242, Alt.=96.227600m. Speed=0.828000m/h.</desc>
<speed>0.230000</speed>
</trkpt>
<trkpt lat="55.912189" lon="26.501242">
<ele>96.294006</ele>
<time>2010-08-29T17:35:45Z</time>
<desc>lat.=55.912189, lon.=26.501242, Alt.=96.294006m. Speed=1.944000m/h.</desc>
<speed>0.540000</speed>
</trkpt>
<trkpt lat="55.912186" lon="26.501242">
<ele>96.555725</ele>
<time>2010-08-29T17:35:46Z</time>
<desc>lat.=55.912186, lon.=26.501242, Alt.=96.555725m. Speed=0.936000m/h.</desc>
<speed>0.260000</speed>
</trkpt>
<trkpt lat="55.912186" lon="26.501240">
<ele>96.833069</ele>
<time>2010-08-29T17:35:47Z</time>
<desc>lat.=55.912186, lon.=26.501240, Alt.=96.833069m. Speed=0.684000m/h.</desc>
<speed>0.190000</speed>
</trkpt>
<trkpt lat="55.912186" lon="26.501242">
<ele>96.961975</ele>
<time>2010-08-29T17:35:48Z</time>
<desc>lat.=55.912186, lon.=26.501242, Alt.=96.961975m. Speed=0.684000m/h.</desc>
<speed>0.190000</speed>
</trkpt>
<trkpt lat="55.912186" lon="26.501240">
<ele>96.987366</ele>
<time>2010-08-29T17:35:49Z</time>
<desc>lat.=55.912186, lon.=26.501240, Alt.=96.987366m. Speed=0.288000m/h.</desc>
<speed>0.080000</speed>
</trkpt>
<trkpt lat="55.912182" lon="26.501242">
<ele>97.149475</ele>
<time>2010-08-29T17:35:50Z</time>
<desc>lat.=55.912182, lon.=26.501242, Alt.=97.149475m. Speed=0.324000m/h.</desc>
<speed>0.090000</speed>
</trkpt>
<trkpt lat="55.912182" lon="26.501242">
<ele>97.276428</ele>
<time>2010-08-29T17:35:51Z</time>
<desc>lat.=55.912182, lon.=26.501242, Alt.=97.276428m. Speed=0.288000m/h.</desc>
<speed>0.080000</speed>
</trkpt>
<trkpt lat="55.912182" lon="26.501242">
<ele>97.376038</ele>
<time>2010-08-29T17:35:52Z</time>
<desc>lat.=55.912182, lon.=26.501242, Alt.=97.376038m. Speed=0.216000m/h.</desc>
<speed>0.060000</speed>
</trkpt>
<trkpt lat="55.912182" lon="26.501242">
<ele>97.452209</ele>
<time>2010-08-29T17:35:53Z</time>
<desc>lat.=55.912182, lon.=26.501242, Alt.=97.452209m. Speed=0.288000m/h.</desc>
<speed>0.080000</speed>
</trkpt>
<trkpt lat="55.912182" lon="26.501240">
<ele>97.518616</ele>
<time>2010-08-29T17:35:54Z</time>
<desc>lat.=55.912182, lon.=26.501240, Alt.=97.518616m. Speed=0.108000m/h.</desc>
<speed>0.030000</speed>
</trkpt>
<trkpt lat="55.912182" lon="26.501240">
<ele>97.569397</ele>
<time>2010-08-29T17:35:55Z</time>
<desc>lat.=55.912182, lon.=26.501240, Alt.=97.569397m. Speed=0.072000m/h.</desc>
<speed>0.020000</speed>
</trkpt>
<trkpt lat="55.912182" lon="26.501238">
<ele>97.610413</ele>
<time>2010-08-29T17:35:56Z</time>
<desc>lat.=55.912182, lon.=26.501238, Alt.=97.610413m. Speed=0.144000m/h.</desc>
<speed>0.040000</speed>
</trkpt>
<trkpt lat="55.912182" lon="26.501238">
<ele>97.647522</ele>
<time>2010-08-29T17:35:57Z</time>
<desc>lat.=55.912182, lon.=26.501238, Alt.=97.647522m. Speed=0.288000m/h.</desc>
<speed>0.080000</speed>
</trkpt>
<trkpt lat="55.912182" lon="26.501236">
<ele>97.674866</ele>
<time>2010-08-29T17:35:58Z</time>
<desc>lat.=55.912182, lon.=26.501236, Alt.=97.674866m. Speed=0.324000m/h.</desc>
<speed>0.090000</speed>
</trkpt>
<trkpt lat="55.912182" lon="26.501236">
<ele>97.696350</ele>
<time>2010-08-29T17:35:59Z</time>
<desc>lat.=55.912182, lon.=26.501236, Alt.=97.696350m. Speed=0.108000m/h.</desc>
<speed>0.030000</speed>
</trkpt>
<trkpt lat="55.912182" lon="26.501236">
<ele>97.719788</ele>
<time>2010-08-29T17:36:00Z</time>
<desc>lat.=55.912182, lon.=26.501236, Alt.=97.719788m. Speed=0.180000m/h.</desc>
<speed>0.050000</speed>
</trkpt>
<trkpt lat="55.912182" lon="26.501236">
<ele>97.741272</ele>
<time>2010-08-29T17:36:01Z</time>
<desc>lat.=55.912182, lon.=26.501236, Alt.=97.741272m. Speed=0.288000m/h.</desc>
<speed>0.080000</speed>
</trkpt>
<trkpt lat="55.912182" lon="26.501236">
<ele>97.752991</ele>
<time>2010-08-29T17:36:02Z</time>
<desc>lat.=55.912182, lon.=26.501236, Alt.=97.752991m. Speed=0.036000m/h.</desc>
<speed>0.010000</speed>
</trkpt>
<trkpt lat="55.912182" lon="26.501234">
<ele>97.766663</ele>
<time>2010-08-29T17:36:03Z</time>
<desc>lat.=55.912182, lon.=26.501234, Alt.=97.766663m. Speed=0.036000m/h.</desc>
<speed>0.010000</speed>
</trkpt>
<trkpt lat="55.912182" lon="26.501234">
<ele>97.776428</ele>
<time>2010-08-29T17:36:04Z</time>
<desc>lat.=55.912182, lon.=26.501234, Alt.=97.776428m. Speed=0.072000m/h.</desc>
<speed>0.020000</speed>
</trkpt>
<trkpt lat="55.912182" lon="26.501234">
<ele>97.788147</ele>
<time>2010-08-29T17:36:05Z</time>
<desc>lat.=55.912182, lon.=26.501234, Alt.=97.788147m. Speed=0.036000m/h.</desc>
<speed>0.010000</speed>
</trkpt>
<trkpt lat="55.912182" lon="26.501234">
<ele>97.795959</ele>
<time>2010-08-29T17:36:06Z</time>
<desc>lat.=55.912182, lon.=26.501234, Alt.=97.795959m. Speed=0.036000m/h.</desc>
<speed>0.010000</speed>
</trkpt>
<trkpt lat="55.912182" lon="26.501234">
<ele>97.795959</ele>
<time>2010-08-29T17:36:07Z</time>
<desc>lat.=55.912182, lon.=26.501234, Alt.=97.795959m. Speed=0.036000m/h.</desc>
<speed>0.010000</speed>
</trkpt>
<trkpt lat="55.912182" lon="26.501234">
<ele>97.795959</ele>
<time>2010-08-29T17:36:08Z</time>
<desc>lat.=55.912182, lon.=26.501234, Alt.=97.795959m. Speed=0.000000m/h.</desc>
<speed>0.000000</speed>
</trkpt>
<trkpt lat="55.912182" lon="26.501234">
<ele>97.795959</ele>
<time>2010-08-29T17:36:09Z</time>
<desc>lat.=55.912182, lon.=26.501234, Alt.=97.795959m. Speed=0.000000m/h.</desc>
<speed>0.000000</speed>
</trkpt>
<trkpt lat="55.912182" lon="26.501234">
<ele>97.795959</ele>
<time>2010-08-29T17:36:10Z</time>
<desc>lat.=55.912182, lon.=26.501234, Alt.=97.795959m. Speed=0.000000m/h.</desc>
<speed>0.000000</speed>
</trkpt>
<trkpt lat="55.912182" lon="26.501234">
<ele>97.795959</ele>
<time>2010-08-29T17:36:11Z</time>
<desc>lat.=55.912182, lon.=26.501234, Alt.=97.795959m. Speed=0.000000m/h.</desc>
<speed>0.000000</speed>
</trkpt>
<trkpt lat="55.912182" lon="26.501234">
<ele>97.797913</ele>
<time>2010-08-29T17:36:12Z</time>
<desc>lat.=55.912182, lon.=26.501234, Alt.=97.797913m. Speed=0.000000m/h.</desc>
<speed>0.000000</speed>
</trkpt>
<trkpt lat="55.912182" lon="26.501234">
<ele>97.797913</ele>
<time>2010-08-29T17:36:13Z</time>
<desc>lat.=55.912182, lon.=26.501234, Alt.=97.797913m. Speed=0.180000m/h.</desc>
<speed>0.050000</speed>
</trkpt>
<trkpt lat="55.912182" lon="26.501234">
<ele>97.799866</ele>
<time>2010-08-29T17:36:14Z</time>
<desc>lat.=55.912182, lon.=26.501234, Alt.=97.799866m. Speed=0.000000m/h.</desc>
<speed>0.000000</speed>
</trkpt>
<trkpt lat="55.912182" lon="26.501234">
<ele>97.799866</ele>
<time>2010-08-29T17:36:15Z</time>
<desc>lat.=55.912182, lon.=26.501234, Alt.=97.799866m. Speed=0.036000m/h.</desc>
<speed>0.010000</speed>
</trkpt>
<trkpt lat="55.912182" lon="26.501234">
<ele>97.803772</ele>
<time>2010-08-29T17:36:16Z</time>
<desc>lat.=55.912182, lon.=26.501234, Alt.=97.803772m. Speed=0.000000m/h.</desc>
<speed>0.000000</speed>
</trkpt>
<trkpt lat="55.912182" lon="26.501234">
<ele>97.805725</ele>
<time>2010-08-29T17:36:17Z</time>
<desc>lat.=55.912182, lon.=26.501234, Alt.=97.805725m. Speed=0.036000m/h.</desc>
<speed>0.010000</speed>
</trkpt>
<trkpt lat="55.912182" lon="26.501234">
<ele>97.805725</ele>
<time>2010-08-29T17:36:18Z</time>
<desc>lat.=55.912182, lon.=26.501234, Alt.=97.805725m. Speed=0.036000m/h.</desc>
<speed>0.010000</speed>
</trkpt>
<trkpt lat="55.912182" lon="26.501234">
<ele>97.807678</ele>
<time>2010-08-29T17:36:19Z</time>
<desc>lat.=55.912182, lon.=26.501234, Alt.=97.807678m. Speed=0.072000m/h.</desc>
<speed>0.020000</speed>
</trkpt>
<trkpt lat="55.912182" lon="26.501234">
<ele>97.809631</ele>
<time>2010-08-29T17:36:20Z</time>
<desc>lat.=55.912182, lon.=26.501234, Alt.=97.809631m. Speed=0.036000m/h.</desc>
<speed>0.010000</speed>
</trkpt>
<trkpt lat="55.912182" lon="26.501234">
<ele>97.811584</ele>
<time>2010-08-29T17:36:21Z</time>
<desc>lat.=55.912182, lon.=26.501234, Alt.=97.811584m. Speed=0.036000m/h.</desc>
<speed>0.010000</speed>
</trkpt>
<trkpt lat="55.912182" lon="26.501234">
<ele>97.813538</ele>
<time>2010-08-29T17:36:22Z</time>
<desc>lat.=55.912182, lon.=26.501234, Alt.=97.813538m. Speed=0.000000m/h.</desc>
<speed>0.000000</speed>
</trkpt>
<trkpt lat="55.912182" lon="26.501234">
<ele>97.815491</ele>
<time>2010-08-29T17:36:23Z</time>
<desc>lat.=55.912182, lon.=26.501234, Alt.=97.815491m. Speed=0.036000m/h.</desc>
<speed>0.010000</speed>
</trkpt>
<trkpt lat="55.912182" lon="26.501234">
<ele>97.817444</ele>
<time>2010-08-29T17:36:24Z</time>
<desc>lat.=55.912182, lon.=26.501234, Alt.=97.817444m. Speed=0.036000m/h.</desc>
<speed>0.010000</speed>
</trkpt>
<trkpt lat="55.912182" lon="26.501234">
<ele>97.819397</ele>
<time>2010-08-29T17:36:25Z</time>
<desc>lat.=55.912182, lon.=26.501234, Alt.=97.819397m. Speed=0.036000m/h.</desc>
<speed>0.010000</speed>
</trkpt>
<trkpt lat="55.912182" lon="26.501234">
<ele>97.821350</ele>
<time>2010-08-29T17:36:26Z</time>
<desc>lat.=55.912182, lon.=26.501234, Alt.=97.821350m. Speed=0.072000m/h.</desc>
<speed>0.020000</speed>
</trkpt>
<trkpt lat="55.912182" lon="26.501234">
<ele>97.823303</ele>
<time>2010-08-29T17:36:27Z</time>
<desc>lat.=55.912182, lon.=26.501234, Alt.=97.823303m. Speed=0.036000m/h.</desc>
<speed>0.010000</speed>
</trkpt>
<trkpt lat="55.912182" lon="26.501234">
<ele>97.827209</ele>
<time>2010-08-29T17:36:28Z</time>
<desc>lat.=55.912182, lon.=26.501234, Alt.=97.827209m. Speed=0.036000m/h.</desc>
<speed>0.010000</speed>
</trkpt>
<trkpt lat="55.912182" lon="26.501234">
<ele>97.815491</ele>
<time>2010-08-29T17:36:29Z</time>
<desc>lat.=55.912182, lon.=26.501234, Alt.=97.815491m. Speed=0.288000m/h.</desc>
<speed>0.080000</speed>
</trkpt>
<trkpt lat="55.912182" lon="26.501234">
<ele>97.815491</ele>
<time>2010-08-29T17:36:30Z</time>
<desc>lat.=55.912182, lon.=26.501234, Alt.=97.815491m. Speed=0.036000m/h.</desc>
<speed>0.010000</speed>
</trkpt>
<trkpt lat="55.912182" lon="26.501234">
<ele>97.807678</ele>
<time>2010-08-29T17:36:31Z</time>
<desc>lat.=55.912182, lon.=26.501234, Alt.=97.807678m. Speed=0.036000m/h.</desc>
<speed>0.010000</speed>
</trkpt>
<trkpt lat="55.912182" lon="26.501234">
<ele>97.799866</ele>
<time>2010-08-29T17:36:32Z</time>
<desc>lat.=55.912182, lon.=26.501234, Alt.=97.799866m. Speed=0.072000m/h.</desc>
<speed>0.020000</speed>
</trkpt>
<trkpt lat="55.912182" lon="26.501232">
<ele>97.797913</ele>
<time>2010-08-29T17:36:33Z</time>
<desc>lat.=55.912182, lon.=26.501232, Alt.=97.797913m. Speed=0.000000m/h.</desc>
<speed>0.000000</speed>
</trkpt>
<trkpt lat="55.912182" lon="26.501232">
<ele>97.795959</ele>
<time>2010-08-29T17:36:34Z</time>
<desc>lat.=55.912182, lon.=26.501232, Alt.=97.795959m. Speed=0.036000m/h.</desc>
<speed>0.010000</speed>
</trkpt>
<trkpt lat="55.912182" lon="26.501232">
<ele>97.794006</ele>
<time>2010-08-29T17:36:35Z</time>
<desc>lat.=55.912182, lon.=26.501232, Alt.=97.794006m. Speed=0.036000m/h.</desc>
<speed>0.010000</speed>
</trkpt>
<trkpt lat="55.912182" lon="26.501232">
<ele>97.794006</ele>
<time>2010-08-29T17:36:36Z</time>
<desc>lat.=55.912182, lon.=26.501232, Alt.=97.794006m. Speed=0.000000m/h.</desc>
<speed>0.000000</speed>
</trkpt>
<trkpt lat="55.912182" lon="26.501232">
<ele>97.794006</ele>
<time>2010-08-29T17:36:37Z</time>
<desc>lat.=55.912182, lon.=26.501232, Alt.=97.794006m. Speed=0.000000m/h.</desc>
<speed>0.000000</speed>
</trkpt>
<trkpt lat="55.912182" lon="26.501232">
<ele>97.795959</ele>
<time>2010-08-29T17:36:38Z</time>
<desc>lat.=55.912182, lon.=26.501232, Alt.=97.795959m. Speed=0.036000m/h.</desc>
<speed>0.010000</speed>
</trkpt>
<trkpt lat="55.912182" lon="26.501232">
<ele>97.795959</ele>
<time>2010-08-29T17:36:39Z</time>
<desc>lat.=55.912182, lon.=26.501232, Alt.=97.795959m. Speed=0.000000m/h.</desc>
<speed>0.000000</speed>
</trkpt>
<trkpt lat="55.912182" lon="26.501232">
<ele>97.797913</ele>
<time>2010-08-29T17:36:40Z</time>
<desc>lat.=55.912182, lon.=26.501232, Alt.=97.797913m. Speed=0.072000m/h.</desc>
<speed>0.020000</speed>
</trkpt>
<trkpt lat="55.912182" lon="26.501232">
<ele>97.795959</ele>
<time>2010-08-29T17:36:41Z</time>
<desc>lat.=55.912182, lon.=26.501232, Alt.=97.795959m. Speed=0.072000m/h.</desc>
<speed>0.020000</speed>
</trkpt>
<trkpt lat="55.912182" lon="26.501232">
<ele>97.799866</ele>
<time>2010-08-29T17:36:42Z</time>
<desc>lat.=55.912182, lon.=26.501232, Alt.=97.799866m. Speed=0.000000m/h.</desc>
<speed>0.000000</speed>
</trkpt>
<trkpt lat="55.912182" lon="26.501232">
<ele>97.794006</ele>
<time>2010-08-29T17:36:43Z</time>
<desc>lat.=55.912182, lon.=26.501232, Alt.=97.794006m. Speed=0.000000m/h.</desc>
<speed>0.000000</speed>
</trkpt>
<trkpt lat="55.912182" lon="26.501232">
<ele>97.794006</ele>
<time>2010-08-29T17:36:44Z</time>
<desc>lat.=55.912182, lon.=26.501232, Alt.=97.794006m. Speed=0.072000m/h.</desc>
<speed>0.020000</speed>
</trkpt>
<trkpt lat="55.912182" lon="26.501232">
<ele>97.792053</ele>
<time>2010-08-29T17:36:45Z</time>
<desc>lat.=55.912182, lon.=26.501232, Alt.=97.792053m. Speed=0.036000m/h.</desc>
<speed>0.010000</speed>
</trkpt>
<trkpt lat="55.912182" lon="26.501232">
<ele>97.788147</ele>
<time>2010-08-29T17:36:46Z</time>
<desc>lat.=55.912182, lon.=26.501232, Alt.=97.788147m. Speed=0.036000m/h.</desc>
<speed>0.010000</speed>
</trkpt>
<trkpt lat="55.912182" lon="26.501232">
<ele>97.780334</ele>
<time>2010-08-29T17:36:47Z</time>
<desc>lat.=55.912182, lon.=26.501232, Alt.=97.780334m. Speed=0.000000m/h.</desc>
<speed>0.000000</speed>
</trkpt>
<trkpt lat="55.912182" lon="26.501232">
<ele>97.778381</ele>
<time>2010-08-29T17:36:48Z</time>
<desc>lat.=55.912182, lon.=26.501232, Alt.=97.778381m. Speed=0.036000m/h.</desc>
<speed>0.010000</speed>
</trkpt>
<trkpt lat="55.912182" lon="26.501232">
<ele>97.778381</ele>
<time>2010-08-29T17:36:49Z</time>
<desc>lat.=55.912182, lon.=26.501232, Alt.=97.778381m. Speed=0.036000m/h.</desc>
<speed>0.010000</speed>
</trkpt>
<trkpt lat="55.912182" lon="26.501232">
<ele>97.776428</ele>
<time>2010-08-29T17:36:50Z</time>
<desc>lat.=55.912182, lon.=26.501232, Alt.=97.776428m. Speed=0.000000m/h.</desc>
<speed>0.000000</speed>
</trkpt>
<trkpt lat="55.912182" lon="26.501232">
<ele>97.776428</ele>
<time>2010-08-29T17:36:51Z</time>
<desc>lat.=55.912182, lon.=26.501232, Alt.=97.776428m. Speed=0.036000m/h.</desc>
<speed>0.010000</speed>
</trkpt>
<trkpt lat="55.912182" lon="26.501232">
<ele>97.772522</ele>
<time>2010-08-29T17:36:52Z</time>
<desc>lat.=55.912182, lon.=26.501232, Alt.=97.772522m. Speed=0.000000m/h.</desc>
<speed>0.000000</speed>
</trkpt>
<trkpt lat="55.912182" lon="26.501232">
<ele>97.774475</ele>
<time>2010-08-29T17:36:53Z</time>
<desc>lat.=55.912182, lon.=26.501232, Alt.=97.774475m. Speed=0.000000m/h.</desc>
<speed>0.000000</speed>
</trkpt>
<trkpt lat="55.912182" lon="26.501232">
<ele>97.774475</ele>
<time>2010-08-29T17:36:54Z</time>
<desc>lat.=55.912182, lon.=26.501232, Alt.=97.774475m. Speed=0.036000m/h.</desc>
<speed>0.010000</speed>
</trkpt>
<trkpt lat="55.912182" lon="26.501232">
<ele>97.770569</ele>
<time>2010-08-29T17:36:55Z</time>
<desc>lat.=55.912182, lon.=26.501232, Alt.=97.770569m. Speed=0.000000m/h.</desc>
<speed>0.000000</speed>
</trkpt>
<trkpt lat="55.912182" lon="26.501232">
<ele>97.768616</ele>
<time>2010-08-29T17:36:56Z</time>
<desc>lat.=55.912182, lon.=26.501232, Alt.=97.768616m. Speed=0.000000m/h.</desc>
<speed>0.000000</speed>
</trkpt>
<trkpt lat="55.912182" lon="26.501232">
<ele>97.768616</ele>
<time>2010-08-29T17:36:57Z</time>
<desc>lat.=55.912182, lon.=26.501232, Alt.=97.768616m. Speed=0.000000m/h.</desc>
<speed>0.000000</speed>
</trkpt>
<trkpt lat="55.912182" lon="26.501232">
<ele>97.768616</ele>
<time>2010-08-29T17:36:58Z</time>
<desc>lat.=55.912182, lon.=26.501232, Alt.=97.768616m. Speed=0.036000m/h.</desc>
<speed>0.010000</speed>
</trkpt>
<trkpt lat="55.912182" lon="26.501232">
<ele>97.768616</ele>
<time>2010-08-29T17:36:59Z</time>
<desc>lat.=55.912182, lon.=26.501232, Alt.=97.768616m. Speed=0.000000m/h.</desc>
<speed>0.000000</speed>
</trkpt>
<trkpt lat="55.912182" lon="26.501232">
<ele>97.772522</ele>
<time>2010-08-29T17:37:00Z</time>
<desc>lat.=55.912182, lon.=26.501232, Alt.=97.772522m. Speed=0.072000m/h.</desc>
<speed>0.020000</speed>
</trkpt>
<trkpt lat="55.912182" lon="26.501232">
<ele>97.774475</ele>
<time>2010-08-29T17:37:01Z</time>
<desc>lat.=55.912182, lon.=26.501232, Alt.=97.774475m. Speed=0.000000m/h.</desc>
<speed>0.000000</speed>
</trkpt>
<trkpt lat="55.912182" lon="26.501230">
<ele>97.778381</ele>
<time>2010-08-29T17:37:02Z</time>
<desc>lat.=55.912182, lon.=26.501230, Alt.=97.778381m. Speed=0.072000m/h.</desc>
<speed>0.020000</speed>
</trkpt>
<trkpt lat="55.912182" lon="26.501230">
<ele>97.784241</ele>
<time>2010-08-29T17:37:03Z</time>
<desc>lat.=55.912182, lon.=26.501230, Alt.=97.784241m. Speed=0.000000m/h.</desc>
<speed>0.000000</speed>
</trkpt>
<trkpt lat="55.912182" lon="26.501230">
<ele>97.790100</ele>
<time>2010-08-29T17:37:04Z</time>
<desc>lat.=55.912182, lon.=26.501230, Alt.=97.790100m. Speed=0.000000m/h.</desc>
<speed>0.000000</speed>
</trkpt>
<trkpt lat="55.912182" lon="26.501230">
<ele>97.794006</ele>
<time>2010-08-29T17:37:05Z</time>
<desc>lat.=55.912182, lon.=26.501230, Alt.=97.794006m. Speed=0.036000m/h.</desc>
<speed>0.010000</speed>
</trkpt>
<trkpt lat="55.912182" lon="26.501230">
<ele>97.797913</ele>
<time>2010-08-29T17:37:06Z</time>
<desc>lat.=55.912182, lon.=26.501230, Alt.=97.797913m. Speed=0.000000m/h.</desc>
<speed>0.000000</speed>
</trkpt>
<trkpt lat="55.912182" lon="26.501230">
<ele>97.805725</ele>
<time>2010-08-29T17:37:07Z</time>
<desc>lat.=55.912182, lon.=26.501230, Alt.=97.805725m. Speed=0.036000m/h.</desc>
<speed>0.010000</speed>
</trkpt>
<trkpt lat="55.912182" lon="26.501230">
<ele>97.811584</ele>
<time>2010-08-29T17:37:08Z</time>
<desc>lat.=55.912182, lon.=26.501230, Alt.=97.811584m. Speed=0.000000m/h.</desc>
<speed>0.000000</speed>
</trkpt>
<trkpt lat="55.912182" lon="26.501230">
<ele>97.815491</ele>
<time>2010-08-29T17:37:09Z</time>
<desc>lat.=55.912182, lon.=26.501230, Alt.=97.815491m. Speed=0.000000m/h.</desc>
<speed>0.000000</speed>
</trkpt>
<trkpt lat="55.912182" lon="26.501230">
<ele>97.817444</ele>
<time>2010-08-29T17:37:10Z</time>
<desc>lat.=55.912182, lon.=26.501230, Alt.=97.817444m. Speed=0.036000m/h.</desc>
<speed>0.010000</speed>
</trkpt>
<trkpt lat="55.912182" lon="26.501230">
<ele>97.817444</ele>
<time>2010-08-29T17:37:11Z</time>
<desc>lat.=55.912182, lon.=26.501230, Alt.=97.817444m. Speed=0.072000m/h.</desc>
<speed>0.020000</speed>
</trkpt>
<trkpt lat="55.912182" lon="26.501230">
<ele>97.809631</ele>
<time>2010-08-29T17:37:12Z</time>
<desc>lat.=55.912182, lon.=26.501230, Alt.=97.809631m. Speed=0.000000m/h.</desc>
<speed>0.000000</speed>
</trkpt>
<trkpt lat="55.912182" lon="26.501228">
<ele>97.805725</ele>
<time>2010-08-29T17:37:13Z</time>
<desc>lat.=55.912182, lon.=26.501228, Alt.=97.805725m. Speed=0.036000m/h.</desc>
<speed>0.010000</speed>
</trkpt>
<trkpt lat="55.912182" lon="26.501228">
<ele>97.803772</ele>
<time>2010-08-29T17:37:14Z</time>
<desc>lat.=55.912182, lon.=26.501228, Alt.=97.803772m. Speed=0.036000m/h.</desc>
<speed>0.010000</speed>
</trkpt>
<trkpt lat="55.912182" lon="26.501228">
<ele>97.794006</ele>
<time>2010-08-29T17:37:15Z</time>
<desc>lat.=55.912182, lon.=26.501228, Alt.=97.794006m. Speed=0.036000m/h.</desc>
<speed>0.010000</speed>
</trkpt>
<trkpt lat="55.912182" lon="26.501228">
<ele>97.790100</ele>
<time>2010-08-29T17:37:16Z</time>
<desc>lat.=55.912182, lon.=26.501228, Alt.=97.790100m. Speed=0.072000m/h.</desc>
<speed>0.020000</speed>
</trkpt>
<trkpt lat="55.912182" lon="26.501228">
<ele>97.786194</ele>
<time>2010-08-29T17:37:17Z</time>
<desc>lat.=55.912182, lon.=26.501228, Alt.=97.786194m. Speed=0.036000m/h.</desc>
<speed>0.010000</speed>
</trkpt>
<trkpt lat="55.912182" lon="26.501228">
<ele>97.782288</ele>
<time>2010-08-29T17:37:18Z</time>
<desc>lat.=55.912182, lon.=26.501228, Alt.=97.782288m. Speed=0.000000m/h.</desc>
<speed>0.000000</speed>
</trkpt>
<trkpt lat="55.912182" lon="26.501228">
<ele>97.780334</ele>
<time>2010-08-29T17:37:19Z</time>
<desc>lat.=55.912182, lon.=26.501228, Alt.=97.780334m. Speed=0.072000m/h.</desc>
<speed>0.020000</speed>
</trkpt>
<trkpt lat="55.912182" lon="26.501228">
<ele>97.780334</ele>
<time>2010-08-29T17:37:20Z</time>
<desc>lat.=55.912182, lon.=26.501228, Alt.=97.780334m. Speed=0.036000m/h.</desc>
<speed>0.010000</speed>
</trkpt>
<trkpt lat="55.912182" lon="26.501228">
<ele>97.776428</ele>
<time>2010-08-29T17:37:21Z</time>
<desc>lat.=55.912182, lon.=26.501228, Alt.=97.776428m. Speed=0.036000m/h.</desc>
<speed>0.010000</speed>
</trkpt>
<trkpt lat="55.912182" lon="26.501228">
<ele>97.774475</ele>
<time>2010-08-29T17:37:22Z</time>
<desc>lat.=55.912182, lon.=26.501228, Alt.=97.774475m. Speed=0.036000m/h.</desc>
<speed>0.010000</speed>
</trkpt>
<trkpt lat="55.912182" lon="26.501228">
<ele>97.766663</ele>
<time>2010-08-29T17:37:23Z</time>
<desc>lat.=55.912182, lon.=26.501228, Alt.=97.766663m. Speed=0.000000m/h.</desc>
<speed>0.000000</speed>
</trkpt>
<trkpt lat="55.912182" lon="26.501228">
<ele>97.768616</ele>
<time>2010-08-29T17:37:24Z</time>
<desc>lat.=55.912182, lon.=26.501228, Alt.=97.768616m. Speed=0.108000m/h.</desc>
<speed>0.030000</speed>
</trkpt>
<trkpt lat="55.912182" lon="26.501228">
<ele>97.772522</ele>
<time>2010-08-29T17:37:25Z</time>
<desc>lat.=55.912182, lon.=26.501228, Alt.=97.772522m. Speed=0.144000m/h.</desc>
<speed>0.040000</speed>
</trkpt>
<trkpt lat="55.912182" lon="26.501228">
<ele>97.770569</ele>
<time>2010-08-29T17:37:26Z</time>
<desc>lat.=55.912182, lon.=26.501228, Alt.=97.770569m. Speed=0.000000m/h.</desc>
<speed>0.000000</speed>
</trkpt>
<trkpt lat="55.912182" lon="26.501226">
<ele>97.770569</ele>
<time>2010-08-29T17:37:27Z</time>
<desc>lat.=55.912182, lon.=26.501226, Alt.=97.770569m. Speed=0.036000m/h.</desc>
<speed>0.010000</speed>
</trkpt>
<trkpt lat="55.912182" lon="26.501226">
<ele>97.772522</ele>
<time>2010-08-29T17:37:28Z</time>
<desc>lat.=55.912182, lon.=26.501226, Alt.=97.772522m. Speed=0.036000m/h.</desc>
<speed>0.010000</speed>
</trkpt>
<trkpt lat="55.912182" lon="26.501226">
<ele>97.768616</ele>
<time>2010-08-29T17:37:29Z</time>
<desc>lat.=55.912182, lon.=26.501226, Alt.=97.768616m. Speed=0.036000m/h.</desc>
<speed>0.010000</speed>
</trkpt>
<trkpt lat="55.912182" lon="26.501226">
<ele>97.764709</ele>
<time>2010-08-29T17:37:30Z</time>
<desc>lat.=55.912182, lon.=26.501226, Alt.=97.764709m. Speed=0.036000m/h.</desc>
<speed>0.010000</speed>
</trkpt>
<trkpt lat="55.912182" lon="26.501226">
<ele>97.760803</ele>
<time>2010-08-29T17:37:31Z</time>
<desc>lat.=55.912182, lon.=26.501226, Alt.=97.760803m. Speed=0.000000m/h.</desc>
<speed>0.000000</speed>
</trkpt>
<trkpt lat="55.912182" lon="26.501226">
<ele>97.756897</ele>
<time>2010-08-29T17:37:32Z</time>
<desc>lat.=55.912182, lon.=26.501226, Alt.=97.756897m. Speed=0.036000m/h.</desc>
<speed>0.010000</speed>
</trkpt>
<trkpt lat="55.912182" lon="26.501226">
<ele>97.752991</ele>
<time>2010-08-29T17:37:33Z</time>
<desc>lat.=55.912182, lon.=26.501226, Alt.=97.752991m. Speed=0.000000m/h.</desc>
<speed>0.000000</speed>
</trkpt>
<trkpt lat="55.912182" lon="26.501226">
<ele>97.751038</ele>
<time>2010-08-29T17:37:34Z</time>
<desc>lat.=55.912182, lon.=26.501226, Alt.=97.751038m. Speed=0.036000m/h.</desc>
<speed>0.010000</speed>
</trkpt>
<trkpt lat="55.912182" lon="26.501225">
<ele>97.747131</ele>
<time>2010-08-29T17:37:35Z</time>
<desc>lat.=55.912182, lon.=26.501225, Alt.=97.747131m. Speed=0.000000m/h.</desc>
<speed>0.000000</speed>
</trkpt>
<trkpt lat="55.912182" lon="26.501225">
<ele>97.747131</ele>
<time>2010-08-29T17:37:36Z</time>
<desc>lat.=55.912182, lon.=26.501225, Alt.=97.747131m. Speed=0.036000m/h.</desc>
<speed>0.010000</speed>
</trkpt>
<trkpt lat="55.912182" lon="26.501225">
<ele>97.749084</ele>
<time>2010-08-29T17:37:37Z</time>
<desc>lat.=55.912182, lon.=26.501225, Alt.=97.749084m. Speed=0.036000m/h.</desc>
<speed>0.010000</speed>
</trkpt>
<trkpt lat="55.912182" lon="26.501225">
<ele>97.749084</ele>
<time>2010-08-29T17:37:38Z</time>
<desc>lat.=55.912182, lon.=26.501225, Alt.=97.749084m. Speed=0.000000m/h.</desc>
<speed>0.000000</speed>
</trkpt>
<trkpt lat="55.912182" lon="26.501225">
<ele>97.747131</ele>
<time>2010-08-29T17:37:39Z</time>
<desc>lat.=55.912182, lon.=26.501225, Alt.=97.747131m. Speed=0.036000m/h.</desc>
<speed>0.010000</speed>
</trkpt>
<trkpt lat="55.912178" lon="26.501225">
<ele>97.747131</ele>
<time>2010-08-29T17:37:40Z</time>
<desc>lat.=55.912178, lon.=26.501225, Alt.=97.747131m. Speed=0.072000m/h.</desc>
<speed>0.020000</speed>
</trkpt>
<trkpt lat="55.912178" lon="26.501225">
<ele>97.747131</ele>
<time>2010-08-29T17:37:41Z</time>
<desc>lat.=55.912178, lon.=26.501225, Alt.=97.747131m. Speed=0.000000m/h.</desc>
<speed>0.000000</speed>
</trkpt>
<trkpt lat="55.912178" lon="26.501225">
<ele>97.743225</ele>
<time>2010-08-29T17:37:42Z</time>
<desc>lat.=55.912178, lon.=26.501225, Alt.=97.743225m. Speed=0.036000m/h.</desc>
<speed>0.010000</speed>
</trkpt>
<trkpt lat="55.912178" lon="26.501225">
<ele>97.739319</ele>
<time>2010-08-29T17:37:43Z</time>
<desc>lat.=55.912178, lon.=26.501225, Alt.=97.739319m. Speed=0.000000m/h.</desc>
<speed>0.000000</speed>
</trkpt>
<trkpt lat="55.912178" lon="26.501225">
<ele>97.737366</ele>
<time>2010-08-29T17:37:44Z</time>
<desc>lat.=55.912178, lon.=26.501225, Alt.=97.737366m. Speed=0.036000m/h.</desc>
<speed>0.010000</speed>
</trkpt>
<trkpt lat="55.912178" lon="26.501223">
<ele>97.735413</ele>
<time>2010-08-29T17:37:45Z</time>
<desc>lat.=55.912178, lon.=26.501223, Alt.=97.735413m. Speed=0.036000m/h.</desc>
<speed>0.010000</speed>
</trkpt>
<trkpt lat="55.912178" lon="26.501223">
<ele>97.729553</ele>
<time>2010-08-29T17:37:46Z</time>
<desc>lat.=55.912178, lon.=26.501223, Alt.=97.729553m. Speed=0.036000m/h.</desc>
<speed>0.010000</speed>
</trkpt>
<trkpt lat="55.912178" lon="26.501223">
<ele>97.727600</ele>
<time>2010-08-29T17:37:47Z</time>
<desc>lat.=55.912178, lon.=26.501223, Alt.=97.727600m. Speed=0.036000m/h.</desc>
<speed>0.010000</speed>
</trkpt>
<trkpt lat="55.912178" lon="26.501223">
<ele>97.727600</ele>
<time>2010-08-29T17:37:48Z</time>
<desc>lat.=55.912178, lon.=26.501223, Alt.=97.727600m. Speed=0.072000m/h.</desc>
<speed>0.020000</speed>
</trkpt>
<trkpt lat="55.912178" lon="26.501223">
<ele>97.725647</ele>
<time>2010-08-29T17:37:49Z</time>
<desc>lat.=55.912178, lon.=26.501223, Alt.=97.725647m. Speed=0.036000m/h.</desc>
<speed>0.010000</speed>
</trkpt>
<trkpt lat="55.912178" lon="26.501223">
<ele>97.723694</ele>
<time>2010-08-29T17:37:50Z</time>
<desc>lat.=55.912178, lon.=26.501223, Alt.=97.723694m. Speed=0.108000m/h.</desc>
<speed>0.030000</speed>
</trkpt>
<trkpt lat="55.912178" lon="26.501223">
<ele>97.723694</ele>
<time>2010-08-29T17:37:51Z</time>
<desc>lat.=55.912178, lon.=26.501223, Alt.=97.723694m. Speed=0.036000m/h.</desc>
<speed>0.010000</speed>
</trkpt>
<trkpt lat="55.912178" lon="26.501223">
<ele>97.721741</ele>
<time>2010-08-29T17:37:52Z</time>
<desc>lat.=55.912178, lon.=26.501223, Alt.=97.721741m. Speed=0.000000m/h.</desc>
<speed>0.000000</speed>
</trkpt>
<trkpt lat="55.912178" lon="26.501223">
<ele>97.717834</ele>
<time>2010-08-29T17:37:53Z</time>
<desc>lat.=55.912178, lon.=26.501223, Alt.=97.717834m. Speed=0.000000m/h.</desc>
<speed>0.000000</speed>
</trkpt>
<trkpt lat="55.912178" lon="26.501223">
<ele>97.708069</ele>
<time>2010-08-29T17:37:54Z</time>
<desc>lat.=55.912178, lon.=26.501223, Alt.=97.708069m. Speed=0.000000m/h.</desc>
<speed>0.000000</speed>
</trkpt>
<trkpt lat="55.912178" lon="26.501223">
<ele>97.708069</ele>
<time>2010-08-29T17:37:55Z</time>
<desc>lat.=55.912178, lon.=26.501223, Alt.=97.708069m. Speed=0.000000m/h.</desc>
<speed>0.000000</speed>
</trkpt>
<trkpt lat="55.912178" lon="26.501223">
<ele>97.710022</ele>
<time>2010-08-29T17:37:56Z</time>
<desc>lat.=55.912178, lon.=26.501223, Alt.=97.710022m. Speed=0.000000m/h.</desc>
<speed>0.000000</speed>
</trkpt>
<trkpt lat="55.912178" lon="26.501223">
<ele>97.706116</ele>
<time>2010-08-29T17:37:57Z</time>
<desc>lat.=55.912178, lon.=26.501223, Alt.=97.706116m. Speed=0.036000m/h.</desc>
<speed>0.010000</speed>
</trkpt>
<trkpt lat="55.912178" lon="26.501223">
<ele>97.708069</ele>
<time>2010-08-29T17:37:58Z</time>
<desc>lat.=55.912178, lon.=26.501223, Alt.=97.708069m. Speed=0.036000m/h.</desc>
<speed>0.010000</speed>
</trkpt>
<trkpt lat="55.912178" lon="26.501223">
<ele>97.711975</ele>
<time>2010-08-29T17:37:59Z</time>
<desc>lat.=55.912178, lon.=26.501223, Alt.=97.711975m. Speed=0.036000m/h.</desc>
<speed>0.010000</speed>
</trkpt>
<trkpt lat="55.912178" lon="26.501223">
<ele>97.713928</ele>
<time>2010-08-29T17:38:00Z</time>
<desc>lat.=55.912178, lon.=26.501223, Alt.=97.713928m. Speed=0.072000m/h.</desc>
<speed>0.020000</speed>
</trkpt>
<trkpt lat="55.912178" lon="26.501223">
<ele>97.710022</ele>
<time>2010-08-29T17:38:01Z</time>
<desc>lat.=55.912178, lon.=26.501223, Alt.=97.710022m. Speed=0.000000m/h.</desc>
<speed>0.000000</speed>
</trkpt>
<trkpt lat="55.912178" lon="26.501221">
<ele>97.710022</ele>
<time>2010-08-29T17:38:02Z</time>
<desc>lat.=55.912178, lon.=26.501221, Alt.=97.710022m. Speed=0.000000m/h.</desc>
<speed>0.000000</speed>
</trkpt>
<trkpt lat="55.912178" lon="26.501221">
<ele>97.713928</ele>
<time>2010-08-29T17:38:03Z</time>
<desc>lat.=55.912178, lon.=26.501221, Alt.=97.713928m. Speed=0.036000m/h.</desc>
<speed>0.010000</speed>
</trkpt>
<trkpt lat="55.912178" lon="26.501221">
<ele>97.711975</ele>
<time>2010-08-29T17:38:04Z</time>
<desc>lat.=55.912178, lon.=26.501221, Alt.=97.711975m. Speed=0.000000m/h.</desc>
<speed>0.000000</speed>
</trkpt>
<trkpt lat="55.912178" lon="26.501221">
<ele>97.713928</ele>
<time>2010-08-29T17:38:05Z</time>
<desc>lat.=55.912178, lon.=26.501221, Alt.=97.713928m. Speed=0.000000m/h.</desc>
<speed>0.000000</speed>
</trkpt>
<trkpt lat="55.912178" lon="26.501221">
<ele>97.713928</ele>
<time>2010-08-29T17:38:06Z</time>
<desc>lat.=55.912178, lon.=26.501221, Alt.=97.713928m. Speed=0.000000m/h.</desc>
<speed>0.000000</speed>
</trkpt>
<trkpt lat="55.912178" lon="26.501221">
<ele>97.711975</ele>
<time>2010-08-29T17:38:07Z</time>
<desc>lat.=55.912178, lon.=26.501221, Alt.=97.711975m. Speed=0.000000m/h.</desc>
<speed>0.000000</speed>
</trkpt>
<trkpt lat="55.912178" lon="26.501221">
<ele>97.708069</ele>
<time>2010-08-29T17:38:08Z</time>
<desc>lat.=55.912178, lon.=26.501221, Alt.=97.708069m. Speed=0.000000m/h.</desc>
<speed>0.000000</speed>
</trkpt>
<trkpt lat="55.912178" lon="26.501221">
<ele>97.706116</ele>
<time>2010-08-29T17:38:09Z</time>
<desc>lat.=55.912178, lon.=26.501221, Alt.=97.706116m. Speed=0.000000m/h.</desc>
<speed>0.000000</speed>
</trkpt>
<trkpt lat="55.912178" lon="26.501221">
<ele>97.704163</ele>
<time>2010-08-29T17:38:10Z</time>
<desc>lat.=55.912178, lon.=26.501221, Alt.=97.704163m. Speed=0.036000m/h.</desc>
<speed>0.010000</speed>
</trkpt>
<trkpt lat="55.912178" lon="26.501221">
<ele>97.704163</ele>
<time>2010-08-29T17:38:11Z</time>
<desc>lat.=55.912178, lon.=26.501221, Alt.=97.704163m. Speed=0.000000m/h.</desc>
<speed>0.000000</speed>
</trkpt>
<trkpt lat="55.912178" lon="26.501221">
<ele>97.700256</ele>
<time>2010-08-29T17:38:12Z</time>
<desc>lat.=55.912178, lon.=26.501221, Alt.=97.700256m. Speed=0.000000m/h.</desc>
<speed>0.000000</speed>
</trkpt>
<trkpt lat="55.912178" lon="26.501221">
<ele>97.696350</ele>
<time>2010-08-29T17:38:13Z</time>
<desc>lat.=55.912178, lon.=26.501221, Alt.=97.696350m. Speed=0.000000m/h.</desc>
<speed>0.000000</speed>
</trkpt>
<trkpt lat="55.912178" lon="26.501221">
<ele>97.692444</ele>
<time>2010-08-29T17:38:14Z</time>
<desc>lat.=55.912178, lon.=26.501221, Alt.=97.692444m. Speed=0.000000m/h.</desc>
<speed>0.000000</speed>
</trkpt>
<trkpt lat="55.912178" lon="26.501221">
<ele>97.692444</ele>
<time>2010-08-29T17:38:15Z</time>
<desc>lat.=55.912178, lon.=26.501221, Alt.=97.692444m. Speed=0.144000m/h.</desc>
<speed>0.040000</speed>
</trkpt>
<trkpt lat="55.912178" lon="26.501221">
<ele>97.690491</ele>
<time>2010-08-29T17:38:16Z</time>
<desc>lat.=55.912178, lon.=26.501221, Alt.=97.690491m. Speed=0.036000m/h.</desc>
<speed>0.010000</speed>
</trkpt>
<trkpt lat="55.912178" lon="26.501221">
<ele>97.684631</ele>
<time>2010-08-29T17:38:17Z</time>
<desc>lat.=55.912178, lon.=26.501221, Alt.=97.684631m. Speed=0.000000m/h.</desc>
<speed>0.000000</speed>
</trkpt>
<trkpt lat="55.912178" lon="26.501219">
<ele>97.680725</ele>
<time>2010-08-29T17:38:18Z</time>
<desc>lat.=55.912178, lon.=26.501219, Alt.=97.680725m. Speed=0.036000m/h.</desc>
<speed>0.010000</speed>
</trkpt>
<trkpt lat="55.912178" lon="26.501219">
<ele>97.676819</ele>
<time>2010-08-29T17:38:19Z</time>
<desc>lat.=55.912178, lon.=26.501219, Alt.=97.676819m. Speed=0.000000m/h.</desc>
<speed>0.000000</speed>
</trkpt>
<trkpt lat="55.912178" lon="26.501219">
<ele>97.670959</ele>
<time>2010-08-29T17:38:20Z</time>
<desc>lat.=55.912178, lon.=26.501219, Alt.=97.670959m. Speed=0.000000m/h.</desc>
<speed>0.000000</speed>
</trkpt>
<trkpt lat="55.912178" lon="26.501219">
<ele>97.667053</ele>
<time>2010-08-29T17:38:21Z</time>
<desc>lat.=55.912178, lon.=26.501219, Alt.=97.667053m. Speed=0.036000m/h.</desc>
<speed>0.010000</speed>
</trkpt>
<trkpt lat="55.912178" lon="26.501219">
<ele>97.665100</ele>
<time>2010-08-29T17:38:22Z</time>
<desc>lat.=55.912178, lon.=26.501219, Alt.=97.665100m. Speed=0.036000m/h.</desc>
<speed>0.010000</speed>
</trkpt>
<trkpt lat="55.912178" lon="26.501219">
<ele>97.663147</ele>
<time>2010-08-29T17:38:23Z</time>
<desc>lat.=55.912178, lon.=26.501219, Alt.=97.663147m. Speed=0.036000m/h.</desc>
<speed>0.010000</speed>
</trkpt>
<trkpt lat="55.912178" lon="26.501219">
<ele>97.663147</ele>
<time>2010-08-29T17:38:24Z</time>
<desc>lat.=55.912178, lon.=26.501219, Alt.=97.663147m. Speed=0.036000m/h.</desc>
<speed>0.010000</speed>
</trkpt>
<trkpt lat="55.912178" lon="26.501219">
<ele>97.661194</ele>
<time>2010-08-29T17:38:25Z</time>
<desc>lat.=55.912178, lon.=26.501219, Alt.=97.661194m. Speed=0.000000m/h.</desc>
<speed>0.000000</speed>
</trkpt>
<trkpt lat="55.912178" lon="26.501219">
<ele>97.657288</ele>
<time>2010-08-29T17:38:26Z</time>
<desc>lat.=55.912178, lon.=26.501219, Alt.=97.657288m. Speed=0.000000m/h.</desc>
<speed>0.000000</speed>
</trkpt>
<trkpt lat="55.912178" lon="26.501219">
<ele>97.655334</ele>
<time>2010-08-29T17:38:27Z</time>
<desc>lat.=55.912178, lon.=26.501219, Alt.=97.655334m. Speed=0.000000m/h.</desc>
<speed>0.000000</speed>
</trkpt>
<trkpt lat="55.912178" lon="26.501219">
<ele>97.653381</ele>
<time>2010-08-29T17:38:28Z</time>
<desc>lat.=55.912178, lon.=26.501219, Alt.=97.653381m. Speed=0.000000m/h.</desc>
<speed>0.000000</speed>
</trkpt>
<trkpt lat="55.912178" lon="26.501219">
<ele>97.651428</ele>
<time>2010-08-29T17:38:29Z</time>
<desc>lat.=55.912178, lon.=26.501219, Alt.=97.651428m. Speed=0.036000m/h.</desc>
<speed>0.010000</speed>
</trkpt>
<trkpt lat="55.912178" lon="26.501219">
<ele>97.647522</ele>
<time>2010-08-29T17:38:30Z</time>
<desc>lat.=55.912178, lon.=26.501219, Alt.=97.647522m. Speed=0.036000m/h.</desc>
<speed>0.010000</speed>
</trkpt>
<trkpt lat="55.912178" lon="26.501219">
<ele>97.643616</ele>
<time>2010-08-29T17:38:31Z</time>
<desc>lat.=55.912178, lon.=26.501219, Alt.=97.643616m. Speed=0.000000m/h.</desc>
<speed>0.000000</speed>
</trkpt>
<trkpt lat="55.912178" lon="26.501219">
<ele>97.641663</ele>
<time>2010-08-29T17:38:32Z</time>
<desc>lat.=55.912178, lon.=26.501219, Alt.=97.641663m. Speed=0.000000m/h.</desc>
<speed>0.000000</speed>
</trkpt>
<trkpt lat="55.912178" lon="26.501219">
<ele>97.641663</ele>
<time>2010-08-29T17:38:33Z</time>
<desc>lat.=55.912178, lon.=26.501219, Alt.=97.641663m. Speed=0.036000m/h.</desc>
<speed>0.010000</speed>
</trkpt>
<trkpt lat="55.912178" lon="26.501219">
<ele>97.631897</ele>
<time>2010-08-29T17:38:34Z</time>
<desc>lat.=55.912178, lon.=26.501219, Alt.=97.631897m. Speed=0.360000m/h.</desc>
<speed>0.100000</speed>
</trkpt>
<trkpt lat="55.912178" lon="26.501219">
<ele>97.616272</ele>
<time>2010-08-29T17:38:35Z</time>
<desc>lat.=55.912178, lon.=26.501219, Alt.=97.616272m. Speed=0.864000m/h.</desc>
<speed>0.240000</speed>
</trkpt>
<trkpt lat="55.912178" lon="26.501223">
<ele>97.590881</ele>
<time>2010-08-29T17:38:36Z</time>
<desc>lat.=55.912178, lon.=26.501223, Alt.=97.590881m. Speed=0.432000m/h.</desc>
<speed>0.120000</speed>
</trkpt>
<trkpt lat="55.912182" lon="26.501225">
<ele>97.561584</ele>
<time>2010-08-29T17:38:37Z</time>
<desc>lat.=55.912182, lon.=26.501225, Alt.=97.561584m. Speed=0.432000m/h.</desc>
<speed>0.120000</speed>
</trkpt>
<trkpt lat="55.912182" lon="26.501226">
<ele>97.526428</ele>
<time>2010-08-29T17:38:38Z</time>
<desc>lat.=55.912182, lon.=26.501226, Alt.=97.526428m. Speed=0.504000m/h.</desc>
<speed>0.140000</speed>
</trkpt>
<trkpt lat="55.912182" lon="26.501228">
<ele>97.495178</ele>
<time>2010-08-29T17:38:39Z</time>
<desc>lat.=55.912182, lon.=26.501228, Alt.=97.495178m. Speed=0.468000m/h.</desc>
<speed>0.130000</speed>
</trkpt>
<trkpt lat="55.912182" lon="26.501232">
<ele>97.463928</ele>
<time>2010-08-29T17:38:40Z</time>
<desc>lat.=55.912182, lon.=26.501232, Alt.=97.463928m. Speed=0.360000m/h.</desc>
<speed>0.100000</speed>
</trkpt>
<trkpt lat="55.912182" lon="26.501232">
<ele>97.430725</ele>
<time>2010-08-29T17:38:41Z</time>
<desc>lat.=55.912182, lon.=26.501232, Alt.=97.430725m. Speed=0.360000m/h.</desc>
<speed>0.100000</speed>
</trkpt>
<trkpt lat="55.912182" lon="26.501234">
<ele>97.399475</ele>
<time>2010-08-29T17:38:42Z</time>
<desc>lat.=55.912182, lon.=26.501234, Alt.=97.399475m. Speed=0.144000m/h.</desc>
<speed>0.040000</speed>
</trkpt>
<trkpt lat="55.912182" lon="26.501234">
<ele>97.372131</ele>
<time>2010-08-29T17:38:43Z</time>
<desc>lat.=55.912182, lon.=26.501234, Alt.=97.372131m. Speed=0.036000m/h.</desc>
<speed>0.010000</speed>
</trkpt>
<trkpt lat="55.912182" lon="26.501236">
<ele>97.340881</ele>
<time>2010-08-29T17:38:44Z</time>
<desc>lat.=55.912182, lon.=26.501236, Alt.=97.340881m. Speed=0.216000m/h.</desc>
<speed>0.060000</speed>
</trkpt>
<trkpt lat="55.912182" lon="26.501236">
<ele>97.315491</ele>
<time>2010-08-29T17:38:45Z</time>
<desc>lat.=55.912182, lon.=26.501236, Alt.=97.315491m. Speed=0.648000m/h.</desc>
<speed>0.180000</speed>
</trkpt>
<trkpt lat="55.912182" lon="26.501240">
<ele>97.294006</ele>
<time>2010-08-29T17:38:46Z</time>
<desc>lat.=55.912182, lon.=26.501240, Alt.=97.294006m. Speed=0.324000m/h.</desc>
<speed>0.090000</speed>
</trkpt>
<trkpt lat="55.912182" lon="26.501238">
<ele>97.270569</ele>
<time>2010-08-29T17:38:47Z</time>
<desc>lat.=55.912182, lon.=26.501238, Alt.=97.270569m. Speed=2.808000m/h.</desc>
<speed>0.780000</speed>
</trkpt>
<trkpt lat="55.912178" lon="26.501249">
<ele>97.294006</ele>
<time>2010-08-29T17:38:48Z</time>
<desc>lat.=55.912178, lon.=26.501249, Alt.=97.294006m. Speed=4.140000m/h.</desc>
<speed>1.150000</speed>
</trkpt>
<trkpt lat="55.912174" lon="26.501255">
<ele>97.151428</ele>
<time>2010-08-29T17:38:49Z</time>
<desc>lat.=55.912174, lon.=26.501255, Alt.=97.151428m. Speed=0.072000m/h.</desc>
<speed>0.020000</speed>
</trkpt>
<trkpt lat="55.912174" lon="26.501251">
<ele>97.196350</ele>
<time>2010-08-29T17:38:50Z</time>
<desc>lat.=55.912174, lon.=26.501251, Alt.=97.196350m. Speed=0.468000m/h.</desc>
<speed>0.130000</speed>
</trkpt>
<trkpt lat="55.912174" lon="26.501249">
<ele>97.165100</ele>
<time>2010-08-29T17:38:51Z</time>
<desc>lat.=55.912174, lon.=26.501249, Alt.=97.165100m. Speed=0.360000m/h.</desc>
<speed>0.100000</speed>
</trkpt>
<trkpt lat="55.912174" lon="26.501244">
<ele>97.065491</ele>
<time>2010-08-29T17:38:52Z</time>
<desc>lat.=55.912174, lon.=26.501244, Alt.=97.065491m. Speed=0.468000m/h.</desc>
<speed>0.130000</speed>
</trkpt>
<trkpt lat="55.912174" lon="26.501242">
<ele>97.059631</ele>
<time>2010-08-29T17:38:53Z</time>
<desc>lat.=55.912174, lon.=26.501242, Alt.=97.059631m. Speed=1.152000m/h.</desc>
<speed>0.320000</speed>
</trkpt>
<trkpt lat="55.912174" lon="26.501234">
<ele>97.135803</ele>
<time>2010-08-29T17:38:54Z</time>
<desc>lat.=55.912174, lon.=26.501234, Alt.=97.135803m. Speed=3.276000m/h.</desc>
<speed>0.910000</speed>
</trkpt>
<trkpt lat="55.912178" lon="26.501245">
<ele>97.059631</ele>
<time>2010-08-29T17:38:55Z</time>
<desc>lat.=55.912178, lon.=26.501245, Alt.=97.059631m. Speed=1.404000m/h.</desc>
<speed>0.390000</speed>
</trkpt>
<trkpt lat="55.912186" lon="26.501253">
<ele>96.667053</ele>
<time>2010-08-29T17:38:56Z</time>
<desc>lat.=55.912186, lon.=26.501253, Alt.=96.667053m. Speed=3.420000m/h.</desc>
<speed>0.950000</speed>
</trkpt>
<trkpt lat="55.912193" lon="26.501253">
<ele>96.725647</ele>
<time>2010-08-29T17:38:57Z</time>
<desc>lat.=55.912193, lon.=26.501253, Alt.=96.725647m. Speed=1.656000m/h.</desc>
<speed>0.460000</speed>
</trkpt>
<trkpt lat="55.912201" lon="26.501257">
<ele>96.743225</ele>
<time>2010-08-29T17:38:58Z</time>
<desc>lat.=55.912201, lon.=26.501257, Alt.=96.743225m. Speed=2.556000m/h.</desc>
<speed>0.710000</speed>
</trkpt>
<trkpt lat="55.912209" lon="26.501259">
<ele>96.944397</ele>
<time>2010-08-29T17:38:59Z</time>
<desc>lat.=55.912209, lon.=26.501259, Alt.=96.944397m. Speed=3.492000m/h.</desc>
<speed>0.970000</speed>
</trkpt>
<trkpt lat="55.912212" lon="26.501263">
<ele>97.350647</ele>
<time>2010-08-29T17:39:00Z</time>
<desc>lat.=55.912212, lon.=26.501263, Alt.=97.350647m. Speed=2.196000m/h.</desc>
<speed>0.610000</speed>
</trkpt>
<trkpt lat="55.912212" lon="26.501268">
<ele>97.510803</ele>
<time>2010-08-29T17:39:01Z</time>
<desc>lat.=55.912212, lon.=26.501268, Alt.=97.510803m. Speed=1.404000m/h.</desc>
<speed>0.390000</speed>
</trkpt>
<trkpt lat="55.912209" lon="26.501270">
<ele>97.626038</ele>
<time>2010-08-29T17:39:02Z</time>
<desc>lat.=55.912209, lon.=26.501270, Alt.=97.626038m. Speed=0.756000m/h.</desc>
<speed>0.210000</speed>
</trkpt>
<trkpt lat="55.912209" lon="26.501274">
<ele>97.792053</ele>
<time>2010-08-29T17:39:03Z</time>
<desc>lat.=55.912209, lon.=26.501274, Alt.=97.792053m. Speed=0.504000m/h.</desc>
<speed>0.140000</speed>
</trkpt>
<trkpt lat="55.912209" lon="26.501274">
<ele>97.930725</ele>
<time>2010-08-29T17:39:04Z</time>
<desc>lat.=55.912209, lon.=26.501274, Alt.=97.930725m. Speed=0.324000m/h.</desc>
<speed>0.090000</speed>
</trkpt>
<trkpt lat="55.912205" lon="26.501274">
<ele>98.002991</ele>
<time>2010-08-29T17:39:05Z</time>
<desc>lat.=55.912205, lon.=26.501274, Alt.=98.002991m. Speed=0.180000m/h.</desc>
<speed>0.050000</speed>
</trkpt>
<trkpt lat="55.912205" lon="26.501276">
<ele>98.135803</ele>
<time>2010-08-29T17:39:06Z</time>
<desc>lat.=55.912205, lon.=26.501276, Alt.=98.135803m. Speed=0.072000m/h.</desc>
<speed>0.020000</speed>
</trkpt>
<trkpt lat="55.912205" lon="26.501276">
<ele>98.266663</ele>
<time>2010-08-29T17:39:07Z</time>
<desc>lat.=55.912205, lon.=26.501276, Alt.=98.266663m. Speed=0.036000m/h.</desc>
<speed>0.010000</speed>
</trkpt>
<trkpt lat="55.912205" lon="26.501276">
<ele>98.397522</ele>
<time>2010-08-29T17:39:08Z</time>
<desc>lat.=55.912205, lon.=26.501276, Alt.=98.397522m. Speed=0.036000m/h.</desc>
<speed>0.010000</speed>
</trkpt>
<trkpt lat="55.912205" lon="26.501276">
<ele>98.530334</ele>
<time>2010-08-29T17:39:09Z</time>
<desc>lat.=55.912205, lon.=26.501276, Alt.=98.530334m. Speed=0.072000m/h.</desc>
<speed>0.020000</speed>
</trkpt>
<trkpt lat="55.912205" lon="26.501276">
<ele>98.661194</ele>
<time>2010-08-29T17:39:10Z</time>
<desc>lat.=55.912205, lon.=26.501276, Alt.=98.661194m. Speed=0.072000m/h.</desc>
<speed>0.020000</speed>
</trkpt>
<trkpt lat="55.912205" lon="26.501276">
<ele>98.790100</ele>
<time>2010-08-29T17:39:11Z</time>
<desc>lat.=55.912205, lon.=26.501276, Alt.=98.790100m. Speed=0.036000m/h.</desc>
<speed>0.010000</speed>
</trkpt>
<trkpt lat="55.912205" lon="26.501276">
<ele>98.917053</ele>
<time>2010-08-29T17:39:12Z</time>
<desc>lat.=55.912205, lon.=26.501276, Alt.=98.917053m. Speed=0.036000m/h.</desc>
<speed>0.010000</speed>
</trkpt>
<trkpt lat="55.912205" lon="26.501276">
<ele>99.044006</ele>
<time>2010-08-29T17:39:13Z</time>
<desc>lat.=55.912205, lon.=26.501276, Alt.=99.044006m. Speed=0.108000m/h.</desc>
<speed>0.030000</speed>
</trkpt>
<trkpt lat="55.912205" lon="26.501278">
<ele>99.167053</ele>
<time>2010-08-29T17:39:14Z</time>
<desc>lat.=55.912205, lon.=26.501278, Alt.=99.167053m. Speed=0.036000m/h.</desc>
<speed>0.010000</speed>
</trkpt>
<trkpt lat="55.912205" lon="26.501278">
<ele>99.286194</ele>
<time>2010-08-29T17:39:15Z</time>
<desc>lat.=55.912205, lon.=26.501278, Alt.=99.286194m. Speed=0.036000m/h.</desc>
<speed>0.010000</speed>
</trkpt>
<trkpt lat="55.912205" lon="26.501278">
<ele>99.401428</ele>
<time>2010-08-29T17:39:16Z</time>
<desc>lat.=55.912205, lon.=26.501278, Alt.=99.401428m. Speed=0.108000m/h.</desc>
<speed>0.030000</speed>
</trkpt>
<trkpt lat="55.912205" lon="26.501278">
<ele>99.516663</ele>
<time>2010-08-29T17:39:17Z</time>
<desc>lat.=55.912205, lon.=26.501278, Alt.=99.516663m. Speed=0.144000m/h.</desc>
<speed>0.040000</speed>
</trkpt>
<trkpt lat="55.912205" lon="26.501280">
<ele>99.629944</ele>
<time>2010-08-29T17:39:18Z</time>
<desc>lat.=55.912205, lon.=26.501280, Alt.=99.629944m. Speed=0.108000m/h.</desc>
<speed>0.030000</speed>
</trkpt>
<trkpt lat="55.912205" lon="26.501280">
<ele>99.741272</ele>
<time>2010-08-29T17:39:19Z</time>
<desc>lat.=55.912205, lon.=26.501280, Alt.=99.741272m. Speed=0.072000m/h.</desc>
<speed>0.020000</speed>
</trkpt>
<trkpt lat="55.912205" lon="26.501280">
<ele>99.850647</ele>
<time>2010-08-29T17:39:20Z</time>
<desc>lat.=55.912205, lon.=26.501280, Alt.=99.850647m. Speed=0.072000m/h.</desc>
<speed>0.020000</speed>
</trkpt>
<trkpt lat="55.912205" lon="26.501280">
<ele>99.960022</ele>
<time>2010-08-29T17:39:21Z</time>
<desc>lat.=55.912205, lon.=26.501280, Alt.=99.960022m. Speed=0.108000m/h.</desc>
<speed>0.030000</speed>
</trkpt>
<trkpt lat="55.912205" lon="26.501282">
<ele>100.067444</ele>
<time>2010-08-29T17:39:22Z</time>
<desc>lat.=55.912205, lon.=26.501282, Alt.=100.067444m. Speed=0.144000m/h.</desc>
<speed>0.040000</speed>
</trkpt>
<trkpt lat="55.912205" lon="26.501282">
<ele>100.172913</ele>
<time>2010-08-29T17:39:23Z</time>
<desc>lat.=55.912205, lon.=26.501282, Alt.=100.172913m. Speed=0.180000m/h.</desc>
<speed>0.050000</speed>
</trkpt>
<trkpt lat="55.912205" lon="26.501282">
<ele>100.282288</ele>
<time>2010-08-29T17:39:24Z</time>
<desc>lat.=55.912205, lon.=26.501282, Alt.=100.282288m. Speed=0.252000m/h.</desc>
<speed>0.070000</speed>
</trkpt>
<trkpt lat="55.912205" lon="26.501284">
<ele>100.393616</ele>
<time>2010-08-29T17:39:25Z</time>
<desc>lat.=55.912205, lon.=26.501284, Alt.=100.393616m. Speed=0.288000m/h.</desc>
<speed>0.080000</speed>
</trkpt>
<trkpt lat="55.912205" lon="26.501286">
<ele>100.502991</ele>
<time>2010-08-29T17:39:26Z</time>
<desc>lat.=55.912205, lon.=26.501286, Alt.=100.502991m. Speed=0.288000m/h.</desc>
<speed>0.080000</speed>
</trkpt>
<trkpt lat="55.912201" lon="26.501286">
<ele>100.606506</ele>
<time>2010-08-29T17:39:27Z</time>
<desc>lat.=55.912201, lon.=26.501286, Alt.=100.606506m. Speed=0.324000m/h.</desc>
<speed>0.090000</speed>
</trkpt>
<trkpt lat="55.912201" lon="26.501287">
<ele>100.710022</ele>
<time>2010-08-29T17:39:28Z</time>
<desc>lat.=55.912201, lon.=26.501287, Alt.=100.710022m. Speed=0.360000m/h.</desc>
<speed>0.100000</speed>
</trkpt>
<trkpt lat="55.912201" lon="26.501289">
<ele>100.811584</ele>
<time>2010-08-29T17:39:29Z</time>
<desc>lat.=55.912201, lon.=26.501289, Alt.=100.811584m. Speed=0.324000m/h.</desc>
<speed>0.090000</speed>
</trkpt>
<trkpt lat="55.912201" lon="26.501291">
<ele>100.913147</ele>
<time>2010-08-29T17:39:30Z</time>
<desc>lat.=55.912201, lon.=26.501291, Alt.=100.913147m. Speed=0.288000m/h.</desc>
<speed>0.080000</speed>
</trkpt>
<trkpt lat="55.912201" lon="26.501293">
<ele>101.008850</ele>
<time>2010-08-29T17:39:31Z</time>
<desc>lat.=55.912201, lon.=26.501293, Alt.=101.008850m. Speed=0.324000m/h.</desc>
<speed>0.090000</speed>
</trkpt>
<trkpt lat="55.912201" lon="26.501293">
<ele>101.106506</ele>
<time>2010-08-29T17:39:32Z</time>
<desc>lat.=55.912201, lon.=26.501293, Alt.=101.106506m. Speed=0.324000m/h.</desc>
<speed>0.090000</speed>
</trkpt>
<trkpt lat="55.912201" lon="26.501295">
<ele>101.204163</ele>
<time>2010-08-29T17:39:33Z</time>
<desc>lat.=55.912201, lon.=26.501295, Alt.=101.204163m. Speed=0.360000m/h.</desc>
<speed>0.100000</speed>
</trkpt>
<trkpt lat="55.912201" lon="26.501297">
<ele>101.305725</ele>
<time>2010-08-29T17:39:34Z</time>
<desc>lat.=55.912201, lon.=26.501297, Alt.=101.305725m. Speed=0.288000m/h.</desc>
<speed>0.080000</speed>
</trkpt>
<trkpt lat="55.912201" lon="26.501299">
<ele>101.411194</ele>
<time>2010-08-29T17:39:35Z</time>
<desc>lat.=55.912201, lon.=26.501299, Alt.=101.411194m. Speed=0.324000m/h.</desc>
<speed>0.090000</speed>
</trkpt>
<trkpt lat="55.912201" lon="26.501301">
<ele>101.518616</ele>
<time>2010-08-29T17:39:36Z</time>
<desc>lat.=55.912201, lon.=26.501301, Alt.=101.518616m. Speed=0.252000m/h.</desc>
<speed>0.070000</speed>
</trkpt>
<trkpt lat="55.912201" lon="26.501301">
<ele>101.627991</ele>
<time>2010-08-29T17:39:37Z</time>
<desc>lat.=55.912201, lon.=26.501301, Alt.=101.627991m. Speed=0.252000m/h.</desc>
<speed>0.070000</speed>
</trkpt>
<trkpt lat="55.912201" lon="26.501303">
<ele>101.741272</ele>
<time>2010-08-29T17:39:38Z</time>
<desc>lat.=55.912201, lon.=26.501303, Alt.=101.741272m. Speed=0.216000m/h.</desc>
<speed>0.060000</speed>
</trkpt>
<trkpt lat="55.912201" lon="26.501303">
<ele>101.852600</ele>
<time>2010-08-29T17:39:39Z</time>
<desc>lat.=55.912201, lon.=26.501303, Alt.=101.852600m. Speed=0.252000m/h.</desc>
<speed>0.070000</speed>
</trkpt>
<trkpt lat="55.912201" lon="26.501305">
<ele>101.961975</ele>
<time>2010-08-29T17:39:40Z</time>
<desc>lat.=55.912201, lon.=26.501305, Alt.=101.961975m. Speed=0.288000m/h.</desc>
<speed>0.080000</speed>
</trkpt>
<trkpt lat="55.912201" lon="26.501307">
<ele>102.069397</ele>
<time>2010-08-29T17:39:41Z</time>
<desc>lat.=55.912201, lon.=26.501307, Alt.=102.069397m. Speed=0.396000m/h.</desc>
<speed>0.110000</speed>
</trkpt>
<trkpt lat="55.912201" lon="26.501308">
<ele>102.180725</ele>
<time>2010-08-29T17:39:42Z</time>
<desc>lat.=55.912201, lon.=26.501308, Alt.=102.180725m. Speed=0.504000m/h.</desc>
<speed>0.140000</speed>
</trkpt>
<trkpt lat="55.912197" lon="26.501310">
<ele>102.303772</ele>
<time>2010-08-29T17:39:43Z</time>
<desc>lat.=55.912197, lon.=26.501310, Alt.=102.303772m. Speed=0.504000m/h.</desc>
<speed>0.140000</speed>
</trkpt>
<trkpt lat="55.912197" lon="26.501312">
<ele>102.430725</ele>
<time>2010-08-29T17:39:44Z</time>
<desc>lat.=55.912197, lon.=26.501312, Alt.=102.430725m. Speed=0.432000m/h.</desc>
<speed>0.120000</speed>
</trkpt>
<trkpt lat="55.912197" lon="26.501314">
<ele>102.553772</ele>
<time>2010-08-29T17:39:45Z</time>
<desc>lat.=55.912197, lon.=26.501314, Alt.=102.553772m. Speed=0.432000m/h.</desc>
<speed>0.120000</speed>
</trkpt>
<trkpt lat="55.912197" lon="26.501316">
<ele>102.676819</ele>
<time>2010-08-29T17:39:46Z</time>
<desc>lat.=55.912197, lon.=26.501316, Alt.=102.676819m. Speed=0.504000m/h.</desc>
<speed>0.140000</speed>
</trkpt>
<trkpt lat="55.912197" lon="26.501318">
<ele>102.801819</ele>
<time>2010-08-29T17:39:47Z</time>
<desc>lat.=55.912197, lon.=26.501318, Alt.=102.801819m. Speed=0.468000m/h.</desc>
<speed>0.130000</speed>
</trkpt>
<trkpt lat="55.912197" lon="26.501320">
<ele>102.924866</ele>
<time>2010-08-29T17:39:48Z</time>
<desc>lat.=55.912197, lon.=26.501320, Alt.=102.924866m. Speed=0.468000m/h.</desc>
<speed>0.130000</speed>
</trkpt>
<trkpt lat="55.912197" lon="26.501324">
<ele>103.045959</ele>
<time>2010-08-29T17:39:49Z</time>
<desc>lat.=55.912197, lon.=26.501324, Alt.=103.045959m. Speed=0.540000m/h.</desc>
<speed>0.150000</speed>
</trkpt>
<trkpt lat="55.912197" lon="26.501326">
<ele>103.165100</ele>
<time>2010-08-29T17:39:50Z</time>
<desc>lat.=55.912197, lon.=26.501326, Alt.=103.165100m. Speed=0.576000m/h.</desc>
<speed>0.160000</speed>
</trkpt>
<trkpt lat="55.912197" lon="26.501328">
<ele>103.284241</ele>
<time>2010-08-29T17:39:51Z</time>
<desc>lat.=55.912197, lon.=26.501328, Alt.=103.284241m. Speed=0.576000m/h.</desc>
<speed>0.160000</speed>
</trkpt>
<trkpt lat="55.912197" lon="26.501331">
<ele>103.403381</ele>
<time>2010-08-29T17:39:52Z</time>
<desc>lat.=55.912197, lon.=26.501331, Alt.=103.403381m. Speed=0.540000m/h.</desc>
<speed>0.150000</speed>
</trkpt>
<trkpt lat="55.912197" lon="26.501333">
<ele>103.524475</ele>
<time>2010-08-29T17:39:53Z</time>
<desc>lat.=55.912197, lon.=26.501333, Alt.=103.524475m. Speed=0.504000m/h.</desc>
<speed>0.140000</speed>
</trkpt>
<trkpt lat="55.912193" lon="26.501335">
<ele>103.647522</ele>
<time>2010-08-29T17:39:54Z</time>
<desc>lat.=55.912193, lon.=26.501335, Alt.=103.647522m. Speed=0.468000m/h.</desc>
<speed>0.130000</speed>
</trkpt>
<trkpt lat="55.912193" lon="26.501337">
<ele>103.768616</ele>
<time>2010-08-29T17:39:55Z</time>
<desc>lat.=55.912193, lon.=26.501337, Alt.=103.768616m. Speed=0.432000m/h.</desc>
<speed>0.120000</speed>
</trkpt>
<trkpt lat="55.912193" lon="26.501339">
<ele>103.883850</ele>
<time>2010-08-29T17:39:56Z</time>
<desc>lat.=55.912193, lon.=26.501339, Alt.=103.883850m. Speed=0.396000m/h.</desc>
<speed>0.110000</speed>
</trkpt>
<trkpt lat="55.912193" lon="26.501341">
<ele>103.997131</ele>
<time>2010-08-29T17:39:57Z</time>
<desc>lat.=55.912193, lon.=26.501341, Alt.=103.997131m. Speed=0.360000m/h.</desc>
<speed>0.100000</speed>
</trkpt>
<trkpt lat="55.912193" lon="26.501343">
<ele>104.108459</ele>
<time>2010-08-29T17:39:58Z</time>
<desc>lat.=55.912193, lon.=26.501343, Alt.=104.108459m. Speed=0.288000m/h.</desc>
<speed>0.080000</speed>
</trkpt>
<trkpt lat="55.912193" lon="26.501343">
<ele>104.219788</ele>
<time>2010-08-29T17:39:59Z</time>
<desc>lat.=55.912193, lon.=26.501343, Alt.=104.219788m. Speed=0.252000m/h.</desc>
<speed>0.070000</speed>
</trkpt>
<trkpt lat="55.912193" lon="26.501345">
<ele>104.333069</ele>
<time>2010-08-29T17:40:00Z</time>
<desc>lat.=55.912193, lon.=26.501345, Alt.=104.333069m. Speed=0.216000m/h.</desc>
<speed>0.060000</speed>
</trkpt>
<trkpt lat="55.912193" lon="26.501345">
<ele>104.438538</ele>
<time>2010-08-29T17:40:01Z</time>
<desc>lat.=55.912193, lon.=26.501345, Alt.=104.438538m. Speed=0.144000m/h.</desc>
<speed>0.040000</speed>
</trkpt>
<trkpt lat="55.912193" lon="26.501347">
<ele>104.544006</ele>
<time>2010-08-29T17:40:02Z</time>
<desc>lat.=55.912193, lon.=26.501347, Alt.=104.544006m. Speed=0.108000m/h.</desc>
<speed>0.030000</speed>
</trkpt>
<trkpt lat="55.912193" lon="26.501347">
<ele>104.647522</ele>
<time>2010-08-29T17:40:03Z</time>
<desc>lat.=55.912193, lon.=26.501347, Alt.=104.647522m. Speed=0.072000m/h.</desc>
<speed>0.020000</speed>
</trkpt>
<trkpt lat="55.912193" lon="26.501347">
<ele>104.749084</ele>
<time>2010-08-29T17:40:04Z</time>
<desc>lat.=55.912193, lon.=26.501347, Alt.=104.749084m. Speed=0.036000m/h.</desc>
<speed>0.010000</speed>
</trkpt>
<trkpt lat="55.912193" lon="26.501347">
<ele>104.850647</ele>
<time>2010-08-29T17:40:05Z</time>
<desc>lat.=55.912193, lon.=26.501347, Alt.=104.850647m. Speed=0.036000m/h.</desc>
<speed>0.010000</speed>
</trkpt>
<trkpt lat="55.912193" lon="26.501347">
<ele>104.950256</ele>
<time>2010-08-29T17:40:06Z</time>
<desc>lat.=55.912193, lon.=26.501347, Alt.=104.950256m. Speed=0.036000m/h.</desc>
<speed>0.010000</speed>
</trkpt>
<trkpt lat="55.912193" lon="26.501347">
<ele>105.044006</ele>
<time>2010-08-29T17:40:07Z</time>
<desc>lat.=55.912193, lon.=26.501347, Alt.=105.044006m. Speed=0.036000m/h.</desc>
<speed>0.010000</speed>
</trkpt>
<trkpt lat="55.912193" lon="26.501347">
<ele>105.137756</ele>
<time>2010-08-29T17:40:08Z</time>
<desc>lat.=55.912193, lon.=26.501347, Alt.=105.137756m. Speed=0.036000m/h.</desc>
<speed>0.010000</speed>
</trkpt>
<trkpt lat="55.912193" lon="26.501347">
<ele>105.233459</ele>
<time>2010-08-29T17:40:09Z</time>
<desc>lat.=55.912193, lon.=26.501347, Alt.=105.233459m. Speed=0.108000m/h.</desc>
<speed>0.030000</speed>
</trkpt>
<trkpt lat="55.912193" lon="26.501345">
<ele>105.327209</ele>
<time>2010-08-29T17:40:10Z</time>
<desc>lat.=55.912193, lon.=26.501345, Alt.=105.327209m. Speed=0.144000m/h.</desc>
<speed>0.040000</speed>
</trkpt>
<trkpt lat="55.912193" lon="26.501345">
<ele>105.415100</ele>
<time>2010-08-29T17:40:11Z</time>
<desc>lat.=55.912193, lon.=26.501345, Alt.=105.415100m. Speed=0.108000m/h.</desc>
<speed>0.030000</speed>
</trkpt>
<trkpt lat="55.912193" lon="26.501345">
<ele>105.502991</ele>
<time>2010-08-29T17:40:12Z</time>
<desc>lat.=55.912193, lon.=26.501345, Alt.=105.502991m. Speed=0.072000m/h.</desc>
<speed>0.020000</speed>
</trkpt>
<trkpt lat="55.912193" lon="26.501345">
<ele>105.594788</ele>
<time>2010-08-29T17:40:13Z</time>
<desc>lat.=55.912193, lon.=26.501345, Alt.=105.594788m. Speed=0.108000m/h.</desc>
<speed>0.030000</speed>
</trkpt>
<trkpt lat="55.912193" lon="26.501343">
<ele>105.686584</ele>
<time>2010-08-29T17:40:14Z</time>
<desc>lat.=55.912193, lon.=26.501343, Alt.=105.686584m. Speed=0.072000m/h.</desc>
<speed>0.020000</speed>
</trkpt>
<trkpt lat="55.912193" lon="26.501343">
<ele>105.778381</ele>
<time>2010-08-29T17:40:15Z</time>
<desc>lat.=55.912193, lon.=26.501343, Alt.=105.778381m. Speed=0.000000m/h.</desc>
<speed>0.000000</speed>
</trkpt>
<trkpt lat="55.912193" lon="26.501343">
<ele>105.872131</ele>
<time>2010-08-29T17:40:16Z</time>
<desc>lat.=55.912193, lon.=26.501343, Alt.=105.872131m. Speed=0.000000m/h.</desc>
<speed>0.000000</speed>
</trkpt>
<trkpt lat="55.912193" lon="26.501343">
<ele>105.963928</ele>
<time>2010-08-29T17:40:17Z</time>
<desc>lat.=55.912193, lon.=26.501343, Alt.=105.963928m. Speed=0.036000m/h.</desc>
<speed>0.010000</speed>
</trkpt>
<trkpt lat="55.912193" lon="26.501343">
<ele>106.049866</ele>
<time>2010-08-29T17:40:18Z</time>
<desc>lat.=55.912193, lon.=26.501343, Alt.=106.049866m. Speed=0.000000m/h.</desc>
<speed>0.000000</speed>
</trkpt>
<trkpt lat="55.912193" lon="26.501343">
<ele>106.127991</ele>
<time>2010-08-29T17:40:19Z</time>
<desc>lat.=55.912193, lon.=26.501343, Alt.=106.127991m. Speed=0.036000m/h.</desc>
<speed>0.010000</speed>
</trkpt>
<trkpt lat="55.912193" lon="26.501343">
<ele>106.206116</ele>
<time>2010-08-29T17:40:20Z</time>
<desc>lat.=55.912193, lon.=26.501343, Alt.=106.206116m. Speed=0.072000m/h.</desc>
<speed>0.020000</speed>
</trkpt>
<trkpt lat="55.912193" lon="26.501343">
<ele>106.282288</ele>
<time>2010-08-29T17:40:21Z</time>
<desc>lat.=55.912193, lon.=26.501343, Alt.=106.282288m. Speed=0.036000m/h.</desc>
<speed>0.010000</speed>
</trkpt>
<trkpt lat="55.912193" lon="26.501343">
<ele>106.360413</ele>
<time>2010-08-29T17:40:22Z</time>
<desc>lat.=55.912193, lon.=26.501343, Alt.=106.360413m. Speed=0.036000m/h.</desc>
<speed>0.010000</speed>
</trkpt>
<trkpt lat="55.912193" lon="26.501343">
<ele>106.444397</ele>
<time>2010-08-29T17:40:23Z</time>
<desc>lat.=55.912193, lon.=26.501343, Alt.=106.444397m. Speed=0.000000m/h.</desc>
<speed>0.000000</speed>
</trkpt>
<trkpt lat="55.912193" lon="26.501343">
<ele>106.526428</ele>
<time>2010-08-29T17:40:24Z</time>
<desc>lat.=55.912193, lon.=26.501343, Alt.=106.526428m. Speed=0.000000m/h.</desc>
<speed>0.000000</speed>
</trkpt>
<trkpt lat="55.912193" lon="26.501343">
<ele>106.604553</ele>
<time>2010-08-29T17:40:25Z</time>
<desc>lat.=55.912193, lon.=26.501343, Alt.=106.604553m. Speed=0.036000m/h.</desc>
<speed>0.010000</speed>
</trkpt>
<trkpt lat="55.912193" lon="26.501343">
<ele>106.676819</ele>
<time>2010-08-29T17:40:26Z</time>
<desc>lat.=55.912193, lon.=26.501343, Alt.=106.676819m. Speed=0.000000m/h.</desc>
<speed>0.000000</speed>
</trkpt>
<trkpt lat="55.912193" lon="26.501343">
<ele>106.743225</ele>
<time>2010-08-29T17:40:27Z</time>
<desc>lat.=55.912193, lon.=26.501343, Alt.=106.743225m. Speed=0.072000m/h.</desc>
<speed>0.020000</speed>
</trkpt>
<trkpt lat="55.912189" lon="26.501343">
<ele>106.739319</ele>
<time>2010-08-29T17:40:28Z</time>
<desc>lat.=55.912189, lon.=26.501343, Alt.=106.739319m. Speed=0.036000m/h.</desc>
<speed>0.010000</speed>
</trkpt>
<trkpt lat="55.912189" lon="26.501343">
<ele>106.733459</ele>
<time>2010-08-29T17:40:29Z</time>
<desc>lat.=55.912189, lon.=26.501343, Alt.=106.733459m. Speed=0.036000m/h.</desc>
<speed>0.010000</speed>
</trkpt>
<trkpt lat="55.912189" lon="26.501343">
<ele>106.729553</ele>
<time>2010-08-29T17:40:30Z</time>
<desc>lat.=55.912189, lon.=26.501343, Alt.=106.729553m. Speed=0.036000m/h.</desc>
<speed>0.010000</speed>
</trkpt>
<trkpt lat="55.912189" lon="26.501343">
<ele>106.721741</ele>
<time>2010-08-29T17:40:31Z</time>
<desc>lat.=55.912189, lon.=26.501343, Alt.=106.721741m. Speed=0.036000m/h.</desc>
<speed>0.010000</speed>
</trkpt>
<trkpt lat="55.912189" lon="26.501343">
<ele>106.717834</ele>
<time>2010-08-29T17:40:32Z</time>
<desc>lat.=55.912189, lon.=26.501343, Alt.=106.717834m. Speed=0.000000m/h.</desc>
<speed>0.000000</speed>
</trkpt>
<trkpt lat="55.912189" lon="26.501343">
<ele>106.715881</ele>
<time>2010-08-29T17:40:33Z</time>
<desc>lat.=55.912189, lon.=26.501343, Alt.=106.715881m. Speed=0.072000m/h.</desc>
<speed>0.020000</speed>
</trkpt>
<trkpt lat="55.912189" lon="26.501343">
<ele>106.713928</ele>
<time>2010-08-29T17:40:34Z</time>
<desc>lat.=55.912189, lon.=26.501343, Alt.=106.713928m. Speed=0.108000m/h.</desc>
<speed>0.030000</speed>
</trkpt>
<trkpt lat="55.912189" lon="26.501343">
<ele>106.715881</ele>
<time>2010-08-29T17:40:35Z</time>
<desc>lat.=55.912189, lon.=26.501343, Alt.=106.715881m. Speed=0.000000m/h.</desc>
<speed>0.000000</speed>
</trkpt>
<trkpt lat="55.912189" lon="26.501343">
<ele>106.717834</ele>
<time>2010-08-29T17:40:36Z</time>
<desc>lat.=55.912189, lon.=26.501343, Alt.=106.717834m. Speed=0.000000m/h.</desc>
<speed>0.000000</speed>
</trkpt>
<trkpt lat="55.912189" lon="26.501343">
<ele>106.713928</ele>
<time>2010-08-29T17:40:37Z</time>
<desc>lat.=55.912189, lon.=26.501343, Alt.=106.713928m. Speed=0.000000m/h.</desc>
<speed>0.000000</speed>
</trkpt>
<trkpt lat="55.912189" lon="26.501343">
<ele>106.710022</ele>
<time>2010-08-29T17:40:38Z</time>
<desc>lat.=55.912189, lon.=26.501343, Alt.=106.710022m. Speed=0.108000m/h.</desc>
<speed>0.030000</speed>
</trkpt>
<trkpt lat="55.912189" lon="26.501343">
<ele>106.706116</ele>
<time>2010-08-29T17:40:39Z</time>
<desc>lat.=55.912189, lon.=26.501343, Alt.=106.706116m. Speed=0.180000m/h.</desc>
<speed>0.050000</speed>
</trkpt>
<trkpt lat="55.912189" lon="26.501343">
<ele>106.698303</ele>
<time>2010-08-29T17:40:40Z</time>
<desc>lat.=55.912189, lon.=26.501343, Alt.=106.698303m. Speed=0.072000m/h.</desc>
<speed>0.020000</speed>
</trkpt>
<trkpt lat="55.912189" lon="26.501345">
<ele>106.694397</ele>
<time>2010-08-29T17:40:41Z</time>
<desc>lat.=55.912189, lon.=26.501345, Alt.=106.694397m. Speed=0.036000m/h.</desc>
<speed>0.010000</speed>
</trkpt>
<trkpt lat="55.912189" lon="26.501345">
<ele>106.692444</ele>
<time>2010-08-29T17:40:42Z</time>
<desc>lat.=55.912189, lon.=26.501345, Alt.=106.692444m. Speed=0.036000m/h.</desc>
<speed>0.010000</speed>
</trkpt>
<trkpt lat="55.912189" lon="26.501345">
<ele>106.692444</ele>
<time>2010-08-29T17:40:43Z</time>
<desc>lat.=55.912189, lon.=26.501345, Alt.=106.692444m. Speed=0.036000m/h.</desc>
<speed>0.010000</speed>
</trkpt>
<trkpt lat="55.912189" lon="26.501345">
<ele>106.688538</ele>
<time>2010-08-29T17:40:44Z</time>
<desc>lat.=55.912189, lon.=26.501345, Alt.=106.688538m. Speed=0.072000m/h.</desc>
<speed>0.020000</speed>
</trkpt>
<trkpt lat="55.912189" lon="26.501345">
<ele>106.682678</ele>
<time>2010-08-29T17:40:45Z</time>
<desc>lat.=55.912189, lon.=26.501345, Alt.=106.682678m. Speed=0.072000m/h.</desc>
<speed>0.020000</speed>
</trkpt>
<trkpt lat="55.912189" lon="26.501345">
<ele>106.672913</ele>
<time>2010-08-29T17:40:46Z</time>
<desc>lat.=55.912189, lon.=26.501345, Alt.=106.672913m. Speed=0.036000m/h.</desc>
<speed>0.010000</speed>
</trkpt>
<trkpt lat="55.912189" lon="26.501345">
<ele>106.669006</ele>
<time>2010-08-29T17:40:47Z</time>
<desc>lat.=55.912189, lon.=26.501345, Alt.=106.669006m. Speed=0.000000m/h.</desc>
<speed>0.000000</speed>
</trkpt>
<trkpt lat="55.912189" lon="26.501345">
<ele>106.665100</ele>
<time>2010-08-29T17:40:48Z</time>
<desc>lat.=55.912189, lon.=26.501345, Alt.=106.665100m. Speed=0.036000m/h.</desc>
<speed>0.010000</speed>
</trkpt>
<trkpt lat="55.912189" lon="26.501345">
<ele>106.665100</ele>
<time>2010-08-29T17:40:49Z</time>
<desc>lat.=55.912189, lon.=26.501345, Alt.=106.665100m. Speed=0.000000m/h.</desc>
<speed>0.000000</speed>
</trkpt>
<trkpt lat="55.912189" lon="26.501345">
<ele>106.663147</ele>
<time>2010-08-29T17:40:50Z</time>
<desc>lat.=55.912189, lon.=26.501345, Alt.=106.663147m. Speed=0.072000m/h.</desc>
<speed>0.020000</speed>
</trkpt>
<trkpt lat="55.912189" lon="26.501345">
<ele>106.665100</ele>
<time>2010-08-29T17:40:51Z</time>
<desc>lat.=55.912189, lon.=26.501345, Alt.=106.665100m. Speed=0.072000m/h.</desc>
<speed>0.020000</speed>
</trkpt>
<trkpt lat="55.912189" lon="26.501345">
<ele>106.661194</ele>
<time>2010-08-29T17:40:52Z</time>
<desc>lat.=55.912189, lon.=26.501345, Alt.=106.661194m. Speed=0.072000m/h.</desc>
<speed>0.020000</speed>
</trkpt>
<trkpt lat="55.912189" lon="26.501345">
<ele>106.655334</ele>
<time>2010-08-29T17:40:53Z</time>
<desc>lat.=55.912189, lon.=26.501345, Alt.=106.655334m. Speed=0.036000m/h.</desc>
<speed>0.010000</speed>
</trkpt>
<trkpt lat="55.912189" lon="26.501345">
<ele>106.655334</ele>
<time>2010-08-29T17:40:54Z</time>
<desc>lat.=55.912189, lon.=26.501345, Alt.=106.655334m. Speed=0.036000m/h.</desc>
<speed>0.010000</speed>
</trkpt>
<trkpt lat="55.912189" lon="26.501345">
<ele>106.655334</ele>
<time>2010-08-29T17:40:55Z</time>
<desc>lat.=55.912189, lon.=26.501345, Alt.=106.655334m. Speed=0.036000m/h.</desc>
<speed>0.010000</speed>
</trkpt>
<trkpt lat="55.912189" lon="26.501345">
<ele>106.659241</ele>
<time>2010-08-29T17:40:56Z</time>
<desc>lat.=55.912189, lon.=26.501345, Alt.=106.659241m. Speed=0.072000m/h.</desc>
<speed>0.020000</speed>
</trkpt>
<trkpt lat="55.912189" lon="26.501345">
<ele>106.663147</ele>
<time>2010-08-29T17:40:57Z</time>
<desc>lat.=55.912189, lon.=26.501345, Alt.=106.663147m. Speed=0.072000m/h.</desc>
<speed>0.020000</speed>
</trkpt>
<trkpt lat="55.912189" lon="26.501345">
<ele>106.665100</ele>
<time>2010-08-29T17:40:58Z</time>
<desc>lat.=55.912189, lon.=26.501345, Alt.=106.665100m. Speed=0.000000m/h.</desc>
<speed>0.000000</speed>
</trkpt>
<trkpt lat="55.912189" lon="26.501345">
<ele>106.659241</ele>
<time>2010-08-29T17:40:59Z</time>
<desc>lat.=55.912189, lon.=26.501345, Alt.=106.659241m. Speed=0.000000m/h.</desc>
<speed>0.000000</speed>
</trkpt>
<trkpt lat="55.912189" lon="26.501345">
<ele>106.655334</ele>
<time>2010-08-29T17:41:00Z</time>
<desc>lat.=55.912189, lon.=26.501345, Alt.=106.655334m. Speed=0.000000m/h.</desc>
<speed>0.000000</speed>
</trkpt>
<trkpt lat="55.912189" lon="26.501345">
<ele>106.651428</ele>
<time>2010-08-29T17:41:01Z</time>
<desc>lat.=55.912189, lon.=26.501345, Alt.=106.651428m. Speed=0.000000m/h.</desc>
<speed>0.000000</speed>
</trkpt>
<trkpt lat="55.912189" lon="26.501345">
<ele>106.651428</ele>
<time>2010-08-29T17:41:02Z</time>
<desc>lat.=55.912189, lon.=26.501345, Alt.=106.651428m. Speed=0.000000m/h.</desc>
<speed>0.000000</speed>
</trkpt>
<trkpt lat="55.912189" lon="26.501345">
<ele>106.647522</ele>
<time>2010-08-29T17:41:03Z</time>
<desc>lat.=55.912189, lon.=26.501345, Alt.=106.647522m. Speed=0.000000m/h.</desc>
<speed>0.000000</speed>
</trkpt>
<trkpt lat="55.912189" lon="26.501345">
<ele>106.645569</ele>
<time>2010-08-29T17:41:04Z</time>
<desc>lat.=55.912189, lon.=26.501345, Alt.=106.645569m. Speed=0.000000m/h.</desc>
<speed>0.000000</speed>
</trkpt>
<trkpt lat="55.912189" lon="26.501345">
<ele>106.645569</ele>
<time>2010-08-29T17:41:05Z</time>
<desc>lat.=55.912189, lon.=26.501345, Alt.=106.645569m. Speed=0.036000m/h.</desc>
<speed>0.010000</speed>
</trkpt>
<trkpt lat="55.912189" lon="26.501345">
<ele>106.647522</ele>
<time>2010-08-29T17:41:06Z</time>
<desc>lat.=55.912189, lon.=26.501345, Alt.=106.647522m. Speed=0.000000m/h.</desc>
<speed>0.000000</speed>
</trkpt>
<trkpt lat="55.912189" lon="26.501345">
<ele>106.649475</ele>
<time>2010-08-29T17:41:07Z</time>
<desc>lat.=55.912189, lon.=26.501345, Alt.=106.649475m. Speed=0.000000m/h.</desc>
<speed>0.000000</speed>
</trkpt>
<trkpt lat="55.912189" lon="26.501345">
<ele>106.647522</ele>
<time>2010-08-29T17:41:08Z</time>
<desc>lat.=55.912189, lon.=26.501345, Alt.=106.647522m. Speed=0.000000m/h.</desc>
<speed>0.000000</speed>
</trkpt>
<trkpt lat="55.912189" lon="26.501345">
<ele>106.639709</ele>
<time>2010-08-29T17:41:09Z</time>
<desc>lat.=55.912189, lon.=26.501345, Alt.=106.639709m. Speed=0.000000m/h.</desc>
<speed>0.000000</speed>
</trkpt>
<trkpt lat="55.912189" lon="26.501345">
<ele>106.637756</ele>
<time>2010-08-29T17:41:10Z</time>
<desc>lat.=55.912189, lon.=26.501345, Alt.=106.637756m. Speed=0.000000m/h.</desc>
<speed>0.000000</speed>
</trkpt>
<trkpt lat="55.912189" lon="26.501345">
<ele>106.631897</ele>
<time>2010-08-29T17:41:11Z</time>
<desc>lat.=55.912189, lon.=26.501345, Alt.=106.631897m. Speed=0.036000m/h.</desc>
<speed>0.010000</speed>
</trkpt>
<trkpt lat="55.912189" lon="26.501345">
<ele>106.624084</ele>
<time>2010-08-29T17:41:12Z</time>
<desc>lat.=55.912189, lon.=26.501345, Alt.=106.624084m. Speed=0.036000m/h.</desc>
<speed>0.010000</speed>
</trkpt>
<trkpt lat="55.912189" lon="26.501345">
<ele>106.618225</ele>
<time>2010-08-29T17:41:13Z</time>
<desc>lat.=55.912189, lon.=26.501345, Alt.=106.618225m. Speed=0.000000m/h.</desc>
<speed>0.000000</speed>
</trkpt>
<trkpt lat="55.912189" lon="26.501345">
<ele>106.614319</ele>
<time>2010-08-29T17:41:14Z</time>
<desc>lat.=55.912189, lon.=26.501345, Alt.=106.614319m. Speed=0.000000m/h.</desc>
<speed>0.000000</speed>
</trkpt>
<trkpt lat="55.912189" lon="26.501345">
<ele>106.612366</ele>
<time>2010-08-29T17:41:15Z</time>
<desc>lat.=55.912189, lon.=26.501345, Alt.=106.612366m. Speed=0.036000m/h.</desc>
<speed>0.010000</speed>
</trkpt>
<trkpt lat="55.912189" lon="26.501345">
<ele>106.608459</ele>
<time>2010-08-29T17:41:16Z</time>
<desc>lat.=55.912189, lon.=26.501345, Alt.=106.608459m. Speed=0.072000m/h.</desc>
<speed>0.020000</speed>
</trkpt>
<trkpt lat="55.912189" lon="26.501345">
<ele>106.604553</ele>
<time>2010-08-29T17:41:17Z</time>
<desc>lat.=55.912189, lon.=26.501345, Alt.=106.604553m. Speed=0.000000m/h.</desc>
<speed>0.000000</speed>
</trkpt>
<trkpt lat="55.912189" lon="26.501345">
<ele>106.602600</ele>
<time>2010-08-29T17:41:18Z</time>
<desc>lat.=55.912189, lon.=26.501345, Alt.=106.602600m. Speed=0.000000m/h.</desc>
<speed>0.000000</speed>
</trkpt>
<trkpt lat="55.912189" lon="26.501345">
<ele>106.604553</ele>
<time>2010-08-29T17:41:19Z</time>
<desc>lat.=55.912189, lon.=26.501345, Alt.=106.604553m. Speed=0.072000m/h.</desc>
<speed>0.020000</speed>
</trkpt>
<trkpt lat="55.912189" lon="26.501345">
<ele>106.602600</ele>
<time>2010-08-29T17:41:20Z</time>
<desc>lat.=55.912189, lon.=26.501345, Alt.=106.602600m. Speed=0.000000m/h.</desc>
<speed>0.000000</speed>
</trkpt>
<trkpt lat="55.912189" lon="26.501345">
<ele>106.598694</ele>
<time>2010-08-29T17:41:21Z</time>
<desc>lat.=55.912189, lon.=26.501345, Alt.=106.598694m. Speed=0.000000m/h.</desc>
<speed>0.000000</speed>
</trkpt>
<trkpt lat="55.912189" lon="26.501345">
<ele>106.598694</ele>
<time>2010-08-29T17:41:22Z</time>
<desc>lat.=55.912189, lon.=26.501345, Alt.=106.598694m. Speed=0.000000m/h.</desc>
<speed>0.000000</speed>
</trkpt>
<trkpt lat="55.912189" lon="26.501345">
<ele>106.594788</ele>
<time>2010-08-29T17:41:23Z</time>
<desc>lat.=55.912189, lon.=26.501345, Alt.=106.594788m. Speed=0.000000m/h.</desc>
<speed>0.000000</speed>
</trkpt>
<trkpt lat="55.912189" lon="26.501345">
<ele>106.592834</ele>
<time>2010-08-29T17:41:24Z</time>
<desc>lat.=55.912189, lon.=26.501345, Alt.=106.592834m. Speed=0.000000m/h.</desc>
<speed>0.000000</speed>
</trkpt>
<trkpt lat="55.912189" lon="26.501345">
<ele>106.590881</ele>
<time>2010-08-29T17:41:25Z</time>
<desc>lat.=55.912189, lon.=26.501345, Alt.=106.590881m. Speed=0.000000m/h.</desc>
<speed>0.000000</speed>
</trkpt>
<trkpt lat="55.912189" lon="26.501345">
<ele>106.586975</ele>
<time>2010-08-29T17:41:26Z</time>
<desc>lat.=55.912189, lon.=26.501345, Alt.=106.586975m. Speed=0.000000m/h.</desc>
<speed>0.000000</speed>
</trkpt>
<trkpt lat="55.912189" lon="26.501345">
<ele>106.585022</ele>
<time>2010-08-29T17:41:27Z</time>
<desc>lat.=55.912189, lon.=26.501345, Alt.=106.585022m. Speed=0.000000m/h.</desc>
<speed>0.000000</speed>
</trkpt>
<trkpt lat="55.912189" lon="26.501345">
<ele>106.583069</ele>
<time>2010-08-29T17:41:28Z</time>
<desc>lat.=55.912189, lon.=26.501345, Alt.=106.583069m. Speed=0.072000m/h.</desc>
<speed>0.020000</speed>
</trkpt>
<trkpt lat="55.912189" lon="26.501345">
<ele>106.579163</ele>
<time>2010-08-29T17:41:29Z</time>
<desc>lat.=55.912189, lon.=26.501345, Alt.=106.579163m. Speed=0.000000m/h.</desc>
<speed>0.000000</speed>
</trkpt>
<trkpt lat="55.912189" lon="26.501343">
<ele>106.579163</ele>
<time>2010-08-29T17:41:30Z</time>
<desc>lat.=55.912189, lon.=26.501343, Alt.=106.579163m. Speed=0.000000m/h.</desc>
<speed>0.000000</speed>
</trkpt>
<trkpt lat="55.912189" lon="26.501343">
<ele>106.577209</ele>
<time>2010-08-29T17:41:31Z</time>
<desc>lat.=55.912189, lon.=26.501343, Alt.=106.577209m. Speed=0.000000m/h.</desc>
<speed>0.000000</speed>
</trkpt>
<trkpt lat="55.912189" lon="26.501343">
<ele>106.573303</ele>
<time>2010-08-29T17:41:32Z</time>
<desc>lat.=55.912189, lon.=26.501343, Alt.=106.573303m. Speed=0.036000m/h.</desc>
<speed>0.010000</speed>
</trkpt>
<trkpt lat="55.912189" lon="26.501343">
<ele>106.571350</ele>
<time>2010-08-29T17:41:33Z</time>
<desc>lat.=55.912189, lon.=26.501343, Alt.=106.571350m. Speed=0.036000m/h.</desc>
<speed>0.010000</speed>
</trkpt>
<trkpt lat="55.912189" lon="26.501343">
<ele>106.567444</ele>
<time>2010-08-29T17:41:34Z</time>
<desc>lat.=55.912189, lon.=26.501343, Alt.=106.567444m. Speed=0.000000m/h.</desc>
<speed>0.000000</speed>
</trkpt>
<trkpt lat="55.912189" lon="26.501343">
<ele>106.565491</ele>
<time>2010-08-29T17:41:35Z</time>
<desc>lat.=55.912189, lon.=26.501343, Alt.=106.565491m. Speed=0.036000m/h.</desc>
<speed>0.010000</speed>
</trkpt>
<trkpt lat="55.912189" lon="26.501343">
<ele>106.559631</ele>
<time>2010-08-29T17:41:36Z</time>
<desc>lat.=55.912189, lon.=26.501343, Alt.=106.559631m. Speed=0.000000m/h.</desc>
<speed>0.000000</speed>
</trkpt>
<trkpt lat="55.912189" lon="26.501343">
<ele>106.553772</ele>
<time>2010-08-29T17:41:37Z</time>
<desc>lat.=55.912189, lon.=26.501343, Alt.=106.553772m. Speed=0.000000m/h.</desc>
<speed>0.000000</speed>
</trkpt>
<trkpt lat="55.912189" lon="26.501343">
<ele>106.547913</ele>
<time>2010-08-29T17:41:38Z</time>
<desc>lat.=55.912189, lon.=26.501343, Alt.=106.547913m. Speed=0.000000m/h.</desc>
<speed>0.000000</speed>
</trkpt>
<trkpt lat="55.912189" lon="26.501343">
<ele>106.542053</ele>
<time>2010-08-29T17:41:39Z</time>
<desc>lat.=55.912189, lon.=26.501343, Alt.=106.542053m. Speed=0.036000m/h.</desc>
<speed>0.010000</speed>
</trkpt>
<trkpt lat="55.912189" lon="26.501343">
<ele>106.534241</ele>
<time>2010-08-29T17:41:40Z</time>
<desc>lat.=55.912189, lon.=26.501343, Alt.=106.534241m. Speed=0.072000m/h.</desc>
<speed>0.020000</speed>
</trkpt>
<trkpt lat="55.912189" lon="26.501343">
<ele>106.528381</ele>
<time>2010-08-29T17:41:41Z</time>
<desc>lat.=55.912189, lon.=26.501343, Alt.=106.528381m. Speed=0.000000m/h.</desc>
<speed>0.000000</speed>
</trkpt>
<trkpt lat="55.912189" lon="26.501343">
<ele>106.522522</ele>
<time>2010-08-29T17:41:42Z</time>
<desc>lat.=55.912189, lon.=26.501343, Alt.=106.522522m. Speed=0.000000m/h.</desc>
<speed>0.000000</speed>
</trkpt>
<trkpt lat="55.912189" lon="26.501343">
<ele>106.514709</ele>
<time>2010-08-29T17:41:43Z</time>
<desc>lat.=55.912189, lon.=26.501343, Alt.=106.514709m. Speed=0.036000m/h.</desc>
<speed>0.010000</speed>
</trkpt>
<trkpt lat="55.912189" lon="26.501343">
<ele>106.506897</ele>
<time>2010-08-29T17:41:44Z</time>
<desc>lat.=55.912189, lon.=26.501343, Alt.=106.506897m. Speed=0.000000m/h.</desc>
<speed>0.000000</speed>
</trkpt>
<trkpt lat="55.912189" lon="26.501343">
<ele>106.501038</ele>
<time>2010-08-29T17:41:45Z</time>
<desc>lat.=55.912189, lon.=26.501343, Alt.=106.501038m. Speed=0.072000m/h.</desc>
<speed>0.020000</speed>
</trkpt>
<trkpt lat="55.912189" lon="26.501343">
<ele>106.499084</ele>
<time>2010-08-29T17:41:46Z</time>
<desc>lat.=55.912189, lon.=26.501343, Alt.=106.499084m. Speed=0.036000m/h.</desc>
<speed>0.010000</speed>
</trkpt>
<trkpt lat="55.912189" lon="26.501343">
<ele>106.499084</ele>
<time>2010-08-29T17:41:47Z</time>
<desc>lat.=55.912189, lon.=26.501343, Alt.=106.499084m. Speed=0.072000m/h.</desc>
<speed>0.020000</speed>
</trkpt>
<trkpt lat="55.912189" lon="26.501343">
<ele>106.495178</ele>
<time>2010-08-29T17:41:48Z</time>
<desc>lat.=55.912189, lon.=26.501343, Alt.=106.495178m. Speed=0.000000m/h.</desc>
<speed>0.000000</speed>
</trkpt>
<trkpt lat="55.912189" lon="26.501343">
<ele>106.487366</ele>
<time>2010-08-29T17:41:49Z</time>
<desc>lat.=55.912189, lon.=26.501343, Alt.=106.487366m. Speed=0.000000m/h.</desc>
<speed>0.000000</speed>
</trkpt>
<trkpt lat="55.912189" lon="26.501343">
<ele>106.481506</ele>
<time>2010-08-29T17:41:50Z</time>
<desc>lat.=55.912189, lon.=26.501343, Alt.=106.481506m. Speed=0.036000m/h.</desc>
<speed>0.010000</speed>
</trkpt>
<trkpt lat="55.912189" lon="26.501343">
<ele>106.473694</ele>
<time>2010-08-29T17:41:51Z</time>
<desc>lat.=55.912189, lon.=26.501343, Alt.=106.473694m. Speed=0.000000m/h.</desc>
<speed>0.000000</speed>
</trkpt>
<trkpt lat="55.912189" lon="26.501343">
<ele>106.471741</ele>
<time>2010-08-29T17:41:52Z</time>
<desc>lat.=55.912189, lon.=26.501343, Alt.=106.471741m. Speed=0.036000m/h.</desc>
<speed>0.010000</speed>
</trkpt>
<trkpt lat="55.912189" lon="26.501343">
<ele>106.465881</ele>
<time>2010-08-29T17:41:53Z</time>
<desc>lat.=55.912189, lon.=26.501343, Alt.=106.465881m. Speed=0.036000m/h.</desc>
<speed>0.010000</speed>
</trkpt>
<trkpt lat="55.912189" lon="26.501343">
<ele>106.460022</ele>
<time>2010-08-29T17:41:54Z</time>
<desc>lat.=55.912189, lon.=26.501343, Alt.=106.460022m. Speed=0.000000m/h.</desc>
<speed>0.000000</speed>
</trkpt>
<trkpt lat="55.912189" lon="26.501343">
<ele>106.446350</ele>
<time>2010-08-29T17:41:55Z</time>
<desc>lat.=55.912189, lon.=26.501343, Alt.=106.446350m. Speed=0.072000m/h.</desc>
<speed>0.020000</speed>
</trkpt>
<trkpt lat="55.912189" lon="26.501343">
<ele>106.440491</ele>
<time>2010-08-29T17:41:56Z</time>
<desc>lat.=55.912189, lon.=26.501343, Alt.=106.440491m. Speed=0.000000m/h.</desc>
<speed>0.000000</speed>
</trkpt>
<trkpt lat="55.912189" lon="26.501343">
<ele>106.436584</ele>
<time>2010-08-29T17:41:57Z</time>
<desc>lat.=55.912189, lon.=26.501343, Alt.=106.436584m. Speed=0.000000m/h.</desc>
<speed>0.000000</speed>
</trkpt>
<trkpt lat="55.912189" lon="26.501343">
<ele>106.434631</ele>
<time>2010-08-29T17:41:58Z</time>
<desc>lat.=55.912189, lon.=26.501343, Alt.=106.434631m. Speed=0.036000m/h.</desc>
<speed>0.010000</speed>
</trkpt>
<trkpt lat="55.912189" lon="26.501343">
<ele>106.430725</ele>
<time>2010-08-29T17:41:59Z</time>
<desc>lat.=55.912189, lon.=26.501343, Alt.=106.430725m. Speed=0.036000m/h.</desc>
<speed>0.010000</speed>
</trkpt>
<trkpt lat="55.912189" lon="26.501343">
<ele>106.424866</ele>
<time>2010-08-29T17:42:00Z</time>
<desc>lat.=55.912189, lon.=26.501343, Alt.=106.424866m. Speed=0.036000m/h.</desc>
<speed>0.010000</speed>
</trkpt>
<trkpt lat="55.912189" lon="26.501343">
<ele>106.415100</ele>
<time>2010-08-29T17:42:01Z</time>
<desc>lat.=55.912189, lon.=26.501343, Alt.=106.415100m. Speed=0.036000m/h.</desc>
<speed>0.010000</speed>
</trkpt>
<trkpt lat="55.912189" lon="26.501343">
<ele>106.405334</ele>
<time>2010-08-29T17:42:02Z</time>
<desc>lat.=55.912189, lon.=26.501343, Alt.=106.405334m. Speed=0.072000m/h.</desc>
<speed>0.020000</speed>
</trkpt>
<trkpt lat="55.912189" lon="26.501343">
<ele>106.399475</ele>
<time>2010-08-29T17:42:03Z</time>
<desc>lat.=55.912189, lon.=26.501343, Alt.=106.399475m. Speed=0.000000m/h.</desc>
<speed>0.000000</speed>
</trkpt>
<trkpt lat="55.912189" lon="26.501343">
<ele>106.397522</ele>
<time>2010-08-29T17:42:04Z</time>
<desc>lat.=55.912189, lon.=26.501343, Alt.=106.397522m. Speed=0.072000m/h.</desc>
<speed>0.020000</speed>
</trkpt>
<trkpt lat="55.912189" lon="26.501343">
<ele>106.393616</ele>
<time>2010-08-29T17:42:05Z</time>
<desc>lat.=55.912189, lon.=26.501343, Alt.=106.393616m. Speed=0.000000m/h.</desc>
<speed>0.000000</speed>
</trkpt>
<trkpt lat="55.912189" lon="26.501343">
<ele>106.389709</ele>
<time>2010-08-29T17:42:06Z</time>
<desc>lat.=55.912189, lon.=26.501343, Alt.=106.389709m. Speed=0.000000m/h.</desc>
<speed>0.000000</speed>
</trkpt>
<trkpt lat="55.912189" lon="26.501343">
<ele>106.383850</ele>
<time>2010-08-29T17:42:07Z</time>
<desc>lat.=55.912189, lon.=26.501343, Alt.=106.383850m. Speed=0.036000m/h.</desc>
<speed>0.010000</speed>
</trkpt>
<trkpt lat="55.912189" lon="26.501343">
<ele>106.377991</ele>
<time>2010-08-29T17:42:08Z</time>
<desc>lat.=55.912189, lon.=26.501343, Alt.=106.377991m. Speed=0.144000m/h.</desc>
<speed>0.040000</speed>
</trkpt>
<trkpt lat="55.912189" lon="26.501343">
<ele>106.376038</ele>
<time>2010-08-29T17:42:09Z</time>
<desc>lat.=55.912189, lon.=26.501343, Alt.=106.376038m. Speed=0.036000m/h.</desc>
<speed>0.010000</speed>
</trkpt>
<trkpt lat="55.912189" lon="26.501343">
<ele>106.372131</ele>
<time>2010-08-29T17:42:10Z</time>
<desc>lat.=55.912189, lon.=26.501343, Alt.=106.372131m. Speed=0.036000m/h.</desc>
<speed>0.010000</speed>
</trkpt>
<trkpt lat="55.912189" lon="26.501343">
<ele>106.368225</ele>
<time>2010-08-29T17:42:11Z</time>
<desc>lat.=55.912189, lon.=26.501343, Alt.=106.368225m. Speed=0.036000m/h.</desc>
<speed>0.010000</speed>
</trkpt>
<trkpt lat="55.912189" lon="26.501343">
<ele>106.358459</ele>
<time>2010-08-29T17:42:12Z</time>
<desc>lat.=55.912189, lon.=26.501343, Alt.=106.358459m. Speed=0.000000m/h.</desc>
<speed>0.000000</speed>
</trkpt>
<trkpt lat="55.912189" lon="26.501343">
<ele>106.354553</ele>
<time>2010-08-29T17:42:13Z</time>
<desc>lat.=55.912189, lon.=26.501343, Alt.=106.354553m. Speed=0.036000m/h.</desc>
<speed>0.010000</speed>
</trkpt>
<trkpt lat="55.912189" lon="26.501343">
<ele>106.348694</ele>
<time>2010-08-29T17:42:14Z</time>
<desc>lat.=55.912189, lon.=26.501343, Alt.=106.348694m. Speed=0.000000m/h.</desc>
<speed>0.000000</speed>
</trkpt>
<trkpt lat="55.912189" lon="26.501343">
<ele>106.342834</ele>
<time>2010-08-29T17:42:15Z</time>
<desc>lat.=55.912189, lon.=26.501343, Alt.=106.342834m. Speed=0.036000m/h.</desc>
<speed>0.010000</speed>
</trkpt>
<trkpt lat="55.912189" lon="26.501343">
<ele>106.336975</ele>
<time>2010-08-29T17:42:16Z</time>
<desc>lat.=55.912189, lon.=26.501343, Alt.=106.336975m. Speed=0.036000m/h.</desc>
<speed>0.010000</speed>
</trkpt>
<trkpt lat="55.912189" lon="26.501343">
<ele>106.331116</ele>
<time>2010-08-29T17:42:17Z</time>
<desc>lat.=55.912189, lon.=26.501343, Alt.=106.331116m. Speed=0.036000m/h.</desc>
<speed>0.010000</speed>
</trkpt>
<trkpt lat="55.912189" lon="26.501343">
<ele>106.327209</ele>
<time>2010-08-29T17:42:18Z</time>
<desc>lat.=55.912189, lon.=26.501343, Alt.=106.327209m. Speed=0.000000m/h.</desc>
<speed>0.000000</speed>
</trkpt>
<trkpt lat="55.912189" lon="26.501343">
<ele>106.319397</ele>
<time>2010-08-29T17:42:19Z</time>
<desc>lat.=55.912189, lon.=26.501343, Alt.=106.319397m. Speed=0.000000m/h.</desc>
<speed>0.000000</speed>
</trkpt>
<trkpt lat="55.912189" lon="26.501343">
<ele>106.315491</ele>
<time>2010-08-29T17:42:20Z</time>
<desc>lat.=55.912189, lon.=26.501343, Alt.=106.315491m. Speed=0.036000m/h.</desc>
<speed>0.010000</speed>
</trkpt>
<trkpt lat="55.912189" lon="26.501343">
<ele>106.309631</ele>
<time>2010-08-29T17:42:21Z</time>
<desc>lat.=55.912189, lon.=26.501343, Alt.=106.309631m. Speed=0.072000m/h.</desc>
<speed>0.020000</speed>
</trkpt>
<trkpt lat="55.912189" lon="26.501343">
<ele>106.303772</ele>
<time>2010-08-29T17:42:22Z</time>
<desc>lat.=55.912189, lon.=26.501343, Alt.=106.303772m. Speed=0.000000m/h.</desc>
<speed>0.000000</speed>
</trkpt>
<trkpt lat="55.912189" lon="26.501343">
<ele>106.297913</ele>
<time>2010-08-29T17:42:23Z</time>
<desc>lat.=55.912189, lon.=26.501343, Alt.=106.297913m. Speed=0.000000m/h.</desc>
<speed>0.000000</speed>
</trkpt>
<trkpt lat="55.912189" lon="26.501343">
<ele>106.292053</ele>
<time>2010-08-29T17:42:24Z</time>
<desc>lat.=55.912189, lon.=26.501343, Alt.=106.292053m. Speed=0.000000m/h.</desc>
<speed>0.000000</speed>
</trkpt>
<trkpt lat="55.912189" lon="26.501343">
<ele>106.286194</ele>
<time>2010-08-29T17:42:25Z</time>
<desc>lat.=55.912189, lon.=26.501343, Alt.=106.286194m. Speed=0.036000m/h.</desc>
<speed>0.010000</speed>
</trkpt>
<trkpt lat="55.912189" lon="26.501343">
<ele>106.278381</ele>
<time>2010-08-29T17:42:26Z</time>
<desc>lat.=55.912189, lon.=26.501343, Alt.=106.278381m. Speed=0.000000m/h.</desc>
<speed>0.000000</speed>
</trkpt>
<trkpt lat="55.912189" lon="26.501343">
<ele>106.272522</ele>
<time>2010-08-29T17:42:27Z</time>
<desc>lat.=55.912189, lon.=26.501343, Alt.=106.272522m. Speed=0.000000m/h.</desc>
<speed>0.000000</speed>
</trkpt>
<trkpt lat="55.912189" lon="26.501343">
<ele>106.264709</ele>
<time>2010-08-29T17:42:28Z</time>
<desc>lat.=55.912189, lon.=26.501343, Alt.=106.264709m. Speed=0.036000m/h.</desc>
<speed>0.010000</speed>
</trkpt>
<trkpt lat="55.912189" lon="26.501343">
<ele>106.262756</ele>
<time>2010-08-29T17:42:29Z</time>
<desc>lat.=55.912189, lon.=26.501343, Alt.=106.262756m. Speed=0.000000m/h.</desc>
<speed>0.000000</speed>
</trkpt>
<trkpt lat="55.912189" lon="26.501343">
<ele>106.258850</ele>
<time>2010-08-29T17:42:30Z</time>
<desc>lat.=55.912189, lon.=26.501343, Alt.=106.258850m. Speed=0.036000m/h.</desc>
<speed>0.010000</speed>
</trkpt>
<trkpt lat="55.912189" lon="26.501343">
<ele>106.254944</ele>
<time>2010-08-29T17:42:31Z</time>
<desc>lat.=55.912189, lon.=26.501343, Alt.=106.254944m. Speed=0.036000m/h.</desc>
<speed>0.010000</speed>
</trkpt>
<trkpt lat="55.912189" lon="26.501343">
<ele>106.251038</ele>
<time>2010-08-29T17:42:32Z</time>
<desc>lat.=55.912189, lon.=26.501343, Alt.=106.251038m. Speed=0.036000m/h.</desc>
<speed>0.010000</speed>
</trkpt>
<trkpt lat="55.912189" lon="26.501343">
<ele>106.245178</ele>
<time>2010-08-29T17:42:33Z</time>
<desc>lat.=55.912189, lon.=26.501343, Alt.=106.245178m. Speed=0.000000m/h.</desc>
<speed>0.000000</speed>
</trkpt>
<trkpt lat="55.912189" lon="26.501343">
<ele>106.237366</ele>
<time>2010-08-29T17:42:34Z</time>
<desc>lat.=55.912189, lon.=26.501343, Alt.=106.237366m. Speed=0.036000m/h.</desc>
<speed>0.010000</speed>
</trkpt>
<trkpt lat="55.912189" lon="26.501343">
<ele>106.233459</ele>
<time>2010-08-29T17:42:35Z</time>
<desc>lat.=55.912189, lon.=26.501343, Alt.=106.233459m. Speed=0.036000m/h.</desc>
<speed>0.010000</speed>
</trkpt>
<trkpt lat="55.912189" lon="26.501343">
<ele>106.227600</ele>
<time>2010-08-29T17:42:36Z</time>
<desc>lat.=55.912189, lon.=26.501343, Alt.=106.227600m. Speed=0.000000m/h.</desc>
<speed>0.000000</speed>
</trkpt>
<trkpt lat="55.912189" lon="26.501343">
<ele>106.223694</ele>
<time>2010-08-29T17:42:37Z</time>
<desc>lat.=55.912189, lon.=26.501343, Alt.=106.223694m. Speed=0.000000m/h.</desc>
<speed>0.000000</speed>
</trkpt>
<trkpt lat="55.912189" lon="26.501343">
<ele>106.221741</ele>
<time>2010-08-29T17:42:38Z</time>
<desc>lat.=55.912189, lon.=26.501343, Alt.=106.221741m. Speed=0.036000m/h.</desc>
<speed>0.010000</speed>
</trkpt>
<trkpt lat="55.912189" lon="26.501343">
<ele>106.215881</ele>
<time>2010-08-29T17:42:39Z</time>
<desc>lat.=55.912189, lon.=26.501343, Alt.=106.215881m. Speed=0.036000m/h.</desc>
<speed>0.010000</speed>
</trkpt>
<trkpt lat="55.912189" lon="26.501343">
<ele>106.210022</ele>
<time>2010-08-29T17:42:40Z</time>
<desc>lat.=55.912189, lon.=26.501343, Alt.=106.210022m. Speed=0.036000m/h.</desc>
<speed>0.010000</speed>
</trkpt>
<trkpt lat="55.912189" lon="26.501343">
<ele>106.210022</ele>
<time>2010-08-29T17:42:41Z</time>
<desc>lat.=55.912189, lon.=26.501343, Alt.=106.210022m. Speed=0.072000m/h.</desc>
<speed>0.020000</speed>
</trkpt>
<trkpt lat="55.912189" lon="26.501343">
<ele>106.206116</ele>
<time>2010-08-29T17:42:42Z</time>
<desc>lat.=55.912189, lon.=26.501343, Alt.=106.206116m. Speed=0.000000m/h.</desc>
<speed>0.000000</speed>
</trkpt>
<trkpt lat="55.912189" lon="26.501343">
<ele>106.202209</ele>
<time>2010-08-29T17:42:43Z</time>
<desc>lat.=55.912189, lon.=26.501343, Alt.=106.202209m. Speed=0.000000m/h.</desc>
<speed>0.000000</speed>
</trkpt>
<trkpt lat="55.912189" lon="26.501343">
<ele>106.204163</ele>
<time>2010-08-29T17:42:44Z</time>
<desc>lat.=55.912189, lon.=26.501343, Alt.=106.204163m. Speed=0.036000m/h.</desc>
<speed>0.010000</speed>
</trkpt>
<trkpt lat="55.912189" lon="26.501343">
<ele>106.202209</ele>
<time>2010-08-29T17:42:45Z</time>
<desc>lat.=55.912189, lon.=26.501343, Alt.=106.202209m. Speed=0.036000m/h.</desc>
<speed>0.010000</speed>
</trkpt>
<trkpt lat="55.912189" lon="26.501343">
<ele>106.198303</ele>
<time>2010-08-29T17:42:46Z</time>
<desc>lat.=55.912189, lon.=26.501343, Alt.=106.198303m. Speed=0.036000m/h.</desc>
<speed>0.010000</speed>
</trkpt>
<trkpt lat="55.912189" lon="26.501343">
<ele>106.194397</ele>
<time>2010-08-29T17:42:47Z</time>
<desc>lat.=55.912189, lon.=26.501343, Alt.=106.194397m. Speed=0.000000m/h.</desc>
<speed>0.000000</speed>
</trkpt>
<trkpt lat="55.912189" lon="26.501343">
<ele>106.192444</ele>
<time>2010-08-29T17:42:48Z</time>
<desc>lat.=55.912189, lon.=26.501343, Alt.=106.192444m. Speed=0.000000m/h.</desc>
<speed>0.000000</speed>
</trkpt>
<trkpt lat="55.912189" lon="26.501343">
<ele>106.190491</ele>
<time>2010-08-29T17:42:49Z</time>
<desc>lat.=55.912189, lon.=26.501343, Alt.=106.190491m. Speed=0.000000m/h.</desc>
<speed>0.000000</speed>
</trkpt>
<trkpt lat="55.912189" lon="26.501343">
<ele>106.184631</ele>
<time>2010-08-29T17:42:50Z</time>
<desc>lat.=55.912189, lon.=26.501343, Alt.=106.184631m. Speed=0.000000m/h.</desc>
<speed>0.000000</speed>
</trkpt>
<trkpt lat="55.912189" lon="26.501343">
<ele>106.180725</ele>
<time>2010-08-29T17:42:51Z</time>
<desc>lat.=55.912189, lon.=26.501343, Alt.=106.180725m. Speed=0.036000m/h.</desc>
<speed>0.010000</speed>
</trkpt>
<trkpt lat="55.912189" lon="26.501343">
<ele>106.176819</ele>
<time>2010-08-29T17:42:52Z</time>
<desc>lat.=55.912189, lon.=26.501343, Alt.=106.176819m. Speed=0.000000m/h.</desc>
<speed>0.000000</speed>
</trkpt>
<trkpt lat="55.912189" lon="26.501343">
<ele>106.174866</ele>
<time>2010-08-29T17:42:53Z</time>
<desc>lat.=55.912189, lon.=26.501343, Alt.=106.174866m. Speed=0.036000m/h.</desc>
<speed>0.010000</speed>
</trkpt>
<trkpt lat="55.912189" lon="26.501343">
<ele>106.172913</ele>
<time>2010-08-29T17:42:54Z</time>
<desc>lat.=55.912189, lon.=26.501343, Alt.=106.172913m. Speed=0.036000m/h.</desc>
<speed>0.010000</speed>
</trkpt>
<trkpt lat="55.912189" lon="26.501343">
<ele>106.167053</ele>
<time>2010-08-29T17:42:55Z</time>
<desc>lat.=55.912189, lon.=26.501343, Alt.=106.167053m. Speed=0.072000m/h.</desc>
<speed>0.020000</speed>
</trkpt>
<trkpt lat="55.912189" lon="26.501343">
<ele>106.165100</ele>
<time>2010-08-29T17:42:56Z</time>
<desc>lat.=55.912189, lon.=26.501343, Alt.=106.165100m. Speed=0.000000m/h.</desc>
<speed>0.000000</speed>
</trkpt>
<trkpt lat="55.912189" lon="26.501343">
<ele>106.163147</ele>
<time>2010-08-29T17:42:57Z</time>
<desc>lat.=55.912189, lon.=26.501343, Alt.=106.163147m. Speed=0.072000m/h.</desc>
<speed>0.020000</speed>
</trkpt>
<trkpt lat="55.912189" lon="26.501343">
<ele>106.161194</ele>
<time>2010-08-29T17:42:58Z</time>
<desc>lat.=55.912189, lon.=26.501343, Alt.=106.161194m. Speed=0.000000m/h.</desc>
<speed>0.000000</speed>
</trkpt>
<trkpt lat="55.912189" lon="26.501343">
<ele>106.161194</ele>
<time>2010-08-29T17:42:59Z</time>
<desc>lat.=55.912189, lon.=26.501343, Alt.=106.161194m. Speed=0.000000m/h.</desc>
<speed>0.000000</speed>
</trkpt>
<trkpt lat="55.912189" lon="26.501343">
<ele>106.159241</ele>
<time>2010-08-29T17:43:00Z</time>
<desc>lat.=55.912189, lon.=26.501343, Alt.=106.159241m. Speed=0.000000m/h.</desc>
<speed>0.000000</speed>
</trkpt>
<trkpt lat="55.912189" lon="26.501343">
<ele>106.157288</ele>
<time>2010-08-29T17:43:01Z</time>
<desc>lat.=55.912189, lon.=26.501343, Alt.=106.157288m. Speed=0.000000m/h.</desc>
<speed>0.000000</speed>
</trkpt>
<trkpt lat="55.912189" lon="26.501343">
<ele>106.155334</ele>
<time>2010-08-29T17:43:02Z</time>
<desc>lat.=55.912189, lon.=26.501343, Alt.=106.155334m. Speed=0.036000m/h.</desc>
<speed>0.010000</speed>
</trkpt>
<trkpt lat="55.912189" lon="26.501343">
<ele>106.149475</ele>
<time>2010-08-29T17:43:03Z</time>
<desc>lat.=55.912189, lon.=26.501343, Alt.=106.149475m. Speed=0.000000m/h.</desc>
<speed>0.000000</speed>
</trkpt>
<trkpt lat="55.912189" lon="26.501343">
<ele>106.143616</ele>
<time>2010-08-29T17:43:04Z</time>
<desc>lat.=55.912189, lon.=26.501343, Alt.=106.143616m. Speed=0.072000m/h.</desc>
<speed>0.020000</speed>
</trkpt>
<trkpt lat="55.912189" lon="26.501343">
<ele>106.141663</ele>
<time>2010-08-29T17:43:05Z</time>
<desc>lat.=55.912189, lon.=26.501343, Alt.=106.141663m. Speed=0.000000m/h.</desc>
<speed>0.000000</speed>
</trkpt>
<trkpt lat="55.912189" lon="26.501343">
<ele>106.139709</ele>
<time>2010-08-29T17:43:06Z</time>
<desc>lat.=55.912189, lon.=26.501343, Alt.=106.139709m. Speed=0.036000m/h.</desc>
<speed>0.010000</speed>
</trkpt>
<trkpt lat="55.912189" lon="26.501343">
<ele>106.137756</ele>
<time>2010-08-29T17:43:07Z</time>
<desc>lat.=55.912189, lon.=26.501343, Alt.=106.137756m. Speed=0.000000m/h.</desc>
<speed>0.000000</speed>
</trkpt>
<trkpt lat="55.912189" lon="26.501341">
<ele>106.133850</ele>
<time>2010-08-29T17:43:08Z</time>
<desc>lat.=55.912189, lon.=26.501341, Alt.=106.133850m. Speed=0.000000m/h.</desc>
<speed>0.000000</speed>
</trkpt>
<trkpt lat="55.912189" lon="26.501341">
<ele>106.129944</ele>
<time>2010-08-29T17:43:09Z</time>
<desc>lat.=55.912189, lon.=26.501341, Alt.=106.129944m. Speed=0.000000m/h.</desc>
<speed>0.000000</speed>
</trkpt>
<trkpt lat="55.912189" lon="26.501341">
<ele>106.126038</ele>
<time>2010-08-29T17:43:10Z</time>
<desc>lat.=55.912189, lon.=26.501341, Alt.=106.126038m. Speed=0.000000m/h.</desc>
<speed>0.000000</speed>
</trkpt>
<trkpt lat="55.912189" lon="26.501341">
<ele>106.124084</ele>
<time>2010-08-29T17:43:11Z</time>
<desc>lat.=55.912189, lon.=26.501341, Alt.=106.124084m. Speed=0.000000m/h.</desc>
<speed>0.000000</speed>
</trkpt>
<trkpt lat="55.912189" lon="26.501341">
<ele>106.120178</ele>
<time>2010-08-29T17:43:12Z</time>
<desc>lat.=55.912189, lon.=26.501341, Alt.=106.120178m. Speed=0.036000m/h.</desc>
<speed>0.010000</speed>
</trkpt>
<trkpt lat="55.912189" lon="26.501341">
<ele>106.116272</ele>
<time>2010-08-29T17:43:13Z</time>
<desc>lat.=55.912189, lon.=26.501341, Alt.=106.116272m. Speed=0.036000m/h.</desc>
<speed>0.010000</speed>
</trkpt>
<trkpt lat="55.912189" lon="26.501341">
<ele>106.110413</ele>
<time>2010-08-29T17:43:14Z</time>
<desc>lat.=55.912189, lon.=26.501341, Alt.=106.110413m. Speed=0.036000m/h.</desc>
<speed>0.010000</speed>
</trkpt>
<trkpt lat="55.912189" lon="26.501341">
<ele>106.108459</ele>
<time>2010-08-29T17:43:15Z</time>
<desc>lat.=55.912189, lon.=26.501341, Alt.=106.108459m. Speed=0.000000m/h.</desc>
<speed>0.000000</speed>
</trkpt>
<trkpt lat="55.912189" lon="26.501341">
<ele>106.106506</ele>
<time>2010-08-29T17:43:16Z</time>
<desc>lat.=55.912189, lon.=26.501341, Alt.=106.106506m. Speed=0.072000m/h.</desc>
<speed>0.020000</speed>
</trkpt>
<trkpt lat="55.912189" lon="26.501341">
<ele>106.102600</ele>
<time>2010-08-29T17:43:17Z</time>
<desc>lat.=55.912189, lon.=26.501341, Alt.=106.102600m. Speed=0.036000m/h.</desc>
<speed>0.010000</speed>
</trkpt>
<trkpt lat="55.912189" lon="26.501341">
<ele>106.102600</ele>
<time>2010-08-29T17:43:18Z</time>
<desc>lat.=55.912189, lon.=26.501341, Alt.=106.102600m. Speed=0.000000m/h.</desc>
<speed>0.000000</speed>
</trkpt>
<trkpt lat="55.912189" lon="26.501341">
<ele>106.100647</ele>
<time>2010-08-29T17:43:19Z</time>
<desc>lat.=55.912189, lon.=26.501341, Alt.=106.100647m. Speed=0.000000m/h.</desc>
<speed>0.000000</speed>
</trkpt>
<trkpt lat="55.912189" lon="26.501341">
<ele>106.096741</ele>
<time>2010-08-29T17:43:20Z</time>
<desc>lat.=55.912189, lon.=26.501341, Alt.=106.096741m. Speed=0.000000m/h.</desc>
<speed>0.000000</speed>
</trkpt>
<trkpt lat="55.912189" lon="26.501341">
<ele>106.096741</ele>
<time>2010-08-29T17:43:21Z</time>
<desc>lat.=55.912189, lon.=26.501341, Alt.=106.096741m. Speed=0.036000m/h.</desc>
<speed>0.010000</speed>
</trkpt>
<trkpt lat="55.912189" lon="26.501341">
<ele>106.094788</ele>
<time>2010-08-29T17:43:22Z</time>
<desc>lat.=55.912189, lon.=26.501341, Alt.=106.094788m. Speed=0.000000m/h.</desc>
<speed>0.000000</speed>
</trkpt>
<trkpt lat="55.912189" lon="26.501341">
<ele>106.094788</ele>
<time>2010-08-29T17:43:23Z</time>
<desc>lat.=55.912189, lon.=26.501341, Alt.=106.094788m. Speed=0.000000m/h.</desc>
<speed>0.000000</speed>
</trkpt>
<trkpt lat="55.912189" lon="26.501341">
<ele>106.094788</ele>
<time>2010-08-29T17:43:24Z</time>
<desc>lat.=55.912189, lon.=26.501341, Alt.=106.094788m. Speed=0.036000m/h.</desc>
<speed>0.010000</speed>
</trkpt>
<trkpt lat="55.912189" lon="26.501341">
<ele>106.092834</ele>
<time>2010-08-29T17:43:25Z</time>
<desc>lat.=55.912189, lon.=26.501341, Alt.=106.092834m. Speed=0.000000m/h.</desc>
<speed>0.000000</speed>
</trkpt>
<trkpt lat="55.912189" lon="26.501341">
<ele>106.090881</ele>
<time>2010-08-29T17:43:26Z</time>
<desc>lat.=55.912189, lon.=26.501341, Alt.=106.090881m. Speed=0.036000m/h.</desc>
<speed>0.010000</speed>
</trkpt>
<trkpt lat="55.912189" lon="26.501341">
<ele>106.085022</ele>
<time>2010-08-29T17:43:27Z</time>
<desc>lat.=55.912189, lon.=26.501341, Alt.=106.085022m. Speed=0.036000m/h.</desc>
<speed>0.010000</speed>
</trkpt>
<trkpt lat="55.912189" lon="26.501341">
<ele>106.083069</ele>
<time>2010-08-29T17:43:28Z</time>
<desc>lat.=55.912189, lon.=26.501341, Alt.=106.083069m. Speed=0.000000m/h.</desc>
<speed>0.000000</speed>
</trkpt>
<trkpt lat="55.912189" lon="26.501341">
<ele>106.085022</ele>
<time>2010-08-29T17:43:29Z</time>
<desc>lat.=55.912189, lon.=26.501341, Alt.=106.085022m. Speed=0.036000m/h.</desc>
<speed>0.010000</speed>
</trkpt>
<trkpt lat="55.912189" lon="26.501341">
<ele>106.088928</ele>
<time>2010-08-29T17:43:30Z</time>
<desc>lat.=55.912189, lon.=26.501341, Alt.=106.088928m. Speed=0.000000m/h.</desc>
<speed>0.000000</speed>
</trkpt>
<trkpt lat="55.912189" lon="26.501341">
<ele>106.085022</ele>
<time>2010-08-29T17:43:31Z</time>
<desc>lat.=55.912189, lon.=26.501341, Alt.=106.085022m. Speed=0.036000m/h.</desc>
<speed>0.010000</speed>
</trkpt>
<trkpt lat="55.912189" lon="26.501341">
<ele>106.083069</ele>
<time>2010-08-29T17:43:32Z</time>
<desc>lat.=55.912189, lon.=26.501341, Alt.=106.083069m. Speed=0.072000m/h.</desc>
<speed>0.020000</speed>
</trkpt>
<trkpt lat="55.912189" lon="26.501341">
<ele>106.079163</ele>
<time>2010-08-29T17:43:33Z</time>
<desc>lat.=55.912189, lon.=26.501341, Alt.=106.079163m. Speed=0.000000m/h.</desc>
<speed>0.000000</speed>
</trkpt>
<trkpt lat="55.912189" lon="26.501341">
<ele>106.079163</ele>
<time>2010-08-29T17:43:34Z</time>
<desc>lat.=55.912189, lon.=26.501341, Alt.=106.079163m. Speed=0.216000m/h.</desc>
<speed>0.060000</speed>
</trkpt>
<trkpt lat="55.912189" lon="26.501341">
<ele>106.077209</ele>
<time>2010-08-29T17:43:35Z</time>
<desc>lat.=55.912189, lon.=26.501341, Alt.=106.077209m. Speed=0.036000m/h.</desc>
<speed>0.010000</speed>
</trkpt>
<trkpt lat="55.912189" lon="26.501341">
<ele>106.075256</ele>
<time>2010-08-29T17:43:36Z</time>
<desc>lat.=55.912189, lon.=26.501341, Alt.=106.075256m. Speed=0.072000m/h.</desc>
<speed>0.020000</speed>
</trkpt>
<trkpt lat="55.912189" lon="26.501341">
<ele>106.073303</ele>
<time>2010-08-29T17:43:37Z</time>
<desc>lat.=55.912189, lon.=26.501341, Alt.=106.073303m. Speed=0.036000m/h.</desc>
<speed>0.010000</speed>
</trkpt>
<trkpt lat="55.912189" lon="26.501341">
<ele>106.071350</ele>
<time>2010-08-29T17:43:38Z</time>
<desc>lat.=55.912189, lon.=26.501341, Alt.=106.071350m. Speed=0.036000m/h.</desc>
<speed>0.010000</speed>
</trkpt>
<trkpt lat="55.912189" lon="26.501341">
<ele>106.073303</ele>
<time>2010-08-29T17:43:39Z</time>
<desc>lat.=55.912189, lon.=26.501341, Alt.=106.073303m. Speed=0.000000m/h.</desc>
<speed>0.000000</speed>
</trkpt>
<trkpt lat="55.912189" lon="26.501341">
<ele>106.067444</ele>
<time>2010-08-29T17:43:40Z</time>
<desc>lat.=55.912189, lon.=26.501341, Alt.=106.067444m. Speed=0.072000m/h.</desc>
<speed>0.020000</speed>
</trkpt>
<trkpt lat="55.912189" lon="26.501341">
<ele>106.063538</ele>
<time>2010-08-29T17:43:41Z</time>
<desc>lat.=55.912189, lon.=26.501341, Alt.=106.063538m. Speed=0.036000m/h.</desc>
<speed>0.010000</speed>
</trkpt>
<trkpt lat="55.912189" lon="26.501341">
<ele>106.055725</ele>
<time>2010-08-29T17:43:42Z</time>
<desc>lat.=55.912189, lon.=26.501341, Alt.=106.055725m. Speed=0.036000m/h.</desc>
<speed>0.010000</speed>
</trkpt>
<trkpt lat="55.912189" lon="26.501341">
<ele>106.047913</ele>
<time>2010-08-29T17:43:43Z</time>
<desc>lat.=55.912189, lon.=26.501341, Alt.=106.047913m. Speed=0.072000m/h.</desc>
<speed>0.020000</speed>
</trkpt>
<trkpt lat="55.912189" lon="26.501341">
<ele>106.045959</ele>
<time>2010-08-29T17:43:44Z</time>
<desc>lat.=55.912189, lon.=26.501341, Alt.=106.045959m. Speed=0.036000m/h.</desc>
<speed>0.010000</speed>
</trkpt>
<trkpt lat="55.912189" lon="26.501341">
<ele>106.036194</ele>
<time>2010-08-29T17:43:45Z</time>
<desc>lat.=55.912189, lon.=26.501341, Alt.=106.036194m. Speed=0.000000m/h.</desc>
<speed>0.000000</speed>
</trkpt>
<trkpt lat="55.912189" lon="26.501341">
<ele>106.030334</ele>
<time>2010-08-29T17:43:46Z</time>
<desc>lat.=55.912189, lon.=26.501341, Alt.=106.030334m. Speed=0.036000m/h.</desc>
<speed>0.010000</speed>
</trkpt>
<trkpt lat="55.912189" lon="26.501341">
<ele>106.028381</ele>
<time>2010-08-29T17:43:47Z</time>
<desc>lat.=55.912189, lon.=26.501341, Alt.=106.028381m. Speed=0.072000m/h.</desc>
<speed>0.020000</speed>
</trkpt>
<trkpt lat="55.912189" lon="26.501341">
<ele>106.026428</ele>
<time>2010-08-29T17:43:48Z</time>
<desc>lat.=55.912189, lon.=26.501341, Alt.=106.026428m. Speed=0.036000m/h.</desc>
<speed>0.010000</speed>
</trkpt>
<trkpt lat="55.912189" lon="26.501341">
<ele>106.030334</ele>
<time>2010-08-29T17:43:49Z</time>
<desc>lat.=55.912189, lon.=26.501341, Alt.=106.030334m. Speed=0.000000m/h.</desc>
<speed>0.000000</speed>
</trkpt>
<trkpt lat="55.912189" lon="26.501341">
<ele>106.026428</ele>
<time>2010-08-29T17:43:50Z</time>
<desc>lat.=55.912189, lon.=26.501341, Alt.=106.026428m. Speed=0.036000m/h.</desc>
<speed>0.010000</speed>
</trkpt>
<trkpt lat="55.912189" lon="26.501341">
<ele>106.020569</ele>
<time>2010-08-29T17:43:51Z</time>
<desc>lat.=55.912189, lon.=26.501341, Alt.=106.020569m. Speed=0.000000m/h.</desc>
<speed>0.000000</speed>
</trkpt>
<trkpt lat="55.912189" lon="26.501341">
<ele>106.016663</ele>
<time>2010-08-29T17:43:52Z</time>
<desc>lat.=55.912189, lon.=26.501341, Alt.=106.016663m. Speed=0.036000m/h.</desc>
<speed>0.010000</speed>
</trkpt>
<trkpt lat="55.912189" lon="26.501341">
<ele>106.016663</ele>
<time>2010-08-29T17:43:53Z</time>
<desc>lat.=55.912189, lon.=26.501341, Alt.=106.016663m. Speed=0.000000m/h.</desc>
<speed>0.000000</speed>
</trkpt>
<trkpt lat="55.912189" lon="26.501341">
<ele>106.014709</ele>
<time>2010-08-29T17:43:54Z</time>
<desc>lat.=55.912189, lon.=26.501341, Alt.=106.014709m. Speed=0.072000m/h.</desc>
<speed>0.020000</speed>
</trkpt>
<trkpt lat="55.912189" lon="26.501341">
<ele>106.010803</ele>
<time>2010-08-29T17:43:55Z</time>
<desc>lat.=55.912189, lon.=26.501341, Alt.=106.010803m. Speed=0.036000m/h.</desc>
<speed>0.010000</speed>
</trkpt>
<trkpt lat="55.912189" lon="26.501341">
<ele>105.999084</ele>
<time>2010-08-29T17:43:56Z</time>
<desc>lat.=55.912189, lon.=26.501341, Alt.=105.999084m. Speed=0.036000m/h.</desc>
<speed>0.010000</speed>
</trkpt>
<trkpt lat="55.912189" lon="26.501341">
<ele>105.993225</ele>
<time>2010-08-29T17:43:57Z</time>
<desc>lat.=55.912189, lon.=26.501341, Alt.=105.993225m. Speed=0.000000m/h.</desc>
<speed>0.000000</speed>
</trkpt>
<trkpt lat="55.912189" lon="26.501341">
<ele>105.987366</ele>
<time>2010-08-29T17:43:58Z</time>
<desc>lat.=55.912189, lon.=26.501341, Alt.=105.987366m. Speed=0.072000m/h.</desc>
<speed>0.020000</speed>
</trkpt>
<trkpt lat="55.912189" lon="26.501341">
<ele>105.985413</ele>
<time>2010-08-29T17:43:59Z</time>
<desc>lat.=55.912189, lon.=26.501341, Alt.=105.985413m. Speed=0.072000m/h.</desc>
<speed>0.020000</speed>
</trkpt>
<trkpt lat="55.912189" lon="26.501341">
<ele>105.979553</ele>
<time>2010-08-29T17:44:00Z</time>
<desc>lat.=55.912189, lon.=26.501341, Alt.=105.979553m. Speed=0.036000m/h.</desc>
<speed>0.010000</speed>
</trkpt>
<trkpt lat="55.912189" lon="26.501341">
<ele>105.981506</ele>
<time>2010-08-29T17:44:01Z</time>
<desc>lat.=55.912189, lon.=26.501341, Alt.=105.981506m. Speed=0.036000m/h.</desc>
<speed>0.010000</speed>
</trkpt>
<trkpt lat="55.912189" lon="26.501341">
<ele>105.979553</ele>
<time>2010-08-29T17:44:02Z</time>
<desc>lat.=55.912189, lon.=26.501341, Alt.=105.979553m. Speed=0.072000m/h.</desc>
<speed>0.020000</speed>
</trkpt>
<trkpt lat="55.912189" lon="26.501341">
<ele>105.967834</ele>
<time>2010-08-29T17:44:03Z</time>
<desc>lat.=55.912189, lon.=26.501341, Alt.=105.967834m. Speed=0.000000m/h.</desc>
<speed>0.000000</speed>
</trkpt>
<trkpt lat="55.912189" lon="26.501341">
<ele>105.961975</ele>
<time>2010-08-29T17:44:04Z</time>
<desc>lat.=55.912189, lon.=26.501341, Alt.=105.961975m. Speed=0.000000m/h.</desc>
<speed>0.000000</speed>
</trkpt>
<trkpt lat="55.912189" lon="26.501341">
<ele>105.946350</ele>
<time>2010-08-29T17:44:05Z</time>
<desc>lat.=55.912189, lon.=26.501341, Alt.=105.946350m. Speed=0.036000m/h.</desc>
<speed>0.010000</speed>
</trkpt>
<trkpt lat="55.912189" lon="26.501341">
<ele>105.948303</ele>
<time>2010-08-29T17:44:06Z</time>
<desc>lat.=55.912189, lon.=26.501341, Alt.=105.948303m. Speed=0.000000m/h.</desc>
<speed>0.000000</speed>
</trkpt>
<trkpt lat="55.912189" lon="26.501341">
<ele>105.942444</ele>
<time>2010-08-29T17:44:07Z</time>
<desc>lat.=55.912189, lon.=26.501341, Alt.=105.942444m. Speed=0.036000m/h.</desc>
<speed>0.010000</speed>
</trkpt>
<trkpt lat="55.912189" lon="26.501341">
<ele>105.934631</ele>
<time>2010-08-29T17:44:08Z</time>
<desc>lat.=55.912189, lon.=26.501341, Alt.=105.934631m. Speed=0.144000m/h.</desc>
<speed>0.040000</speed>
</trkpt>
<trkpt lat="55.912189" lon="26.501341">
<ele>105.930725</ele>
<time>2010-08-29T17:44:09Z</time>
<desc>lat.=55.912189, lon.=26.501341, Alt.=105.930725m. Speed=0.036000m/h.</desc>
<speed>0.010000</speed>
</trkpt>
<trkpt lat="55.912189" lon="26.501341">
<ele>105.924866</ele>
<time>2010-08-29T17:44:10Z</time>
<desc>lat.=55.912189, lon.=26.501341, Alt.=105.924866m. Speed=0.072000m/h.</desc>
<speed>0.020000</speed>
</trkpt>
<trkpt lat="55.912189" lon="26.501341">
<ele>105.922913</ele>
<time>2010-08-29T17:44:11Z</time>
<desc>lat.=55.912189, lon.=26.501341, Alt.=105.922913m. Speed=0.036000m/h.</desc>
<speed>0.010000</speed>
</trkpt>
<trkpt lat="55.912189" lon="26.501341">
<ele>105.905334</ele>
<time>2010-08-29T17:44:12Z</time>
<desc>lat.=55.912189, lon.=26.501341, Alt.=105.905334m. Speed=0.036000m/h.</desc>
<speed>0.010000</speed>
</trkpt>
<trkpt lat="55.912189" lon="26.501341">
<ele>105.899475</ele>
<time>2010-08-29T17:44:13Z</time>
<desc>lat.=55.912189, lon.=26.501341, Alt.=105.899475m. Speed=0.036000m/h.</desc>
<speed>0.010000</speed>
</trkpt>
<trkpt lat="55.912189" lon="26.501341">
<ele>105.893616</ele>
<time>2010-08-29T17:44:14Z</time>
<desc>lat.=55.912189, lon.=26.501341, Alt.=105.893616m. Speed=0.000000m/h.</desc>
<speed>0.000000</speed>
</trkpt>
<trkpt lat="55.912189" lon="26.501341">
<ele>105.883850</ele>
<time>2010-08-29T17:44:15Z</time>
<desc>lat.=55.912189, lon.=26.501341, Alt.=105.883850m. Speed=0.000000m/h.</desc>
<speed>0.000000</speed>
</trkpt>
<trkpt lat="55.912189" lon="26.501341">
<ele>105.877991</ele>
<time>2010-08-29T17:44:16Z</time>
<desc>lat.=55.912189, lon.=26.501341, Alt.=105.877991m. Speed=0.036000m/h.</desc>
<speed>0.010000</speed>
</trkpt>
<trkpt lat="55.912189" lon="26.501341">
<ele>105.858459</ele>
<time>2010-08-29T17:44:17Z</time>
<desc>lat.=55.912189, lon.=26.501341, Alt.=105.858459m. Speed=0.036000m/h.</desc>
<speed>0.010000</speed>
</trkpt>
<trkpt lat="55.912189" lon="26.501341">
<ele>105.856506</ele>
<time>2010-08-29T17:44:18Z</time>
<desc>lat.=55.912189, lon.=26.501341, Alt.=105.856506m. Speed=0.036000m/h.</desc>
<speed>0.010000</speed>
</trkpt>
<trkpt lat="55.912189" lon="26.501341">
<ele>105.850647</ele>
<time>2010-08-29T17:44:19Z</time>
<desc>lat.=55.912189, lon.=26.501341, Alt.=105.850647m. Speed=0.000000m/h.</desc>
<speed>0.000000</speed>
</trkpt>
<trkpt lat="55.912189" lon="26.501341">
<ele>105.836975</ele>
<time>2010-08-29T17:44:20Z</time>
<desc>lat.=55.912189, lon.=26.501341, Alt.=105.836975m. Speed=0.072000m/h.</desc>
<speed>0.020000</speed>
</trkpt>
<trkpt lat="55.912189" lon="26.501341">
<ele>105.836975</ele>
<time>2010-08-29T17:44:21Z</time>
<desc>lat.=55.912189, lon.=26.501341, Alt.=105.836975m. Speed=0.072000m/h.</desc>
<speed>0.020000</speed>
</trkpt>
<trkpt lat="55.912189" lon="26.501341">
<ele>105.829163</ele>
<time>2010-08-29T17:44:22Z</time>
<desc>lat.=55.912189, lon.=26.501341, Alt.=105.829163m. Speed=0.072000m/h.</desc>
<speed>0.020000</speed>
</trkpt>
<trkpt lat="55.912189" lon="26.501341">
<ele>105.817444</ele>
<time>2010-08-29T17:44:23Z</time>
<desc>lat.=55.912189, lon.=26.501341, Alt.=105.817444m. Speed=0.000000m/h.</desc>
<speed>0.000000</speed>
</trkpt>
<trkpt lat="55.912189" lon="26.501341">
<ele>105.813538</ele>
<time>2010-08-29T17:44:24Z</time>
<desc>lat.=55.912189, lon.=26.501341, Alt.=105.813538m. Speed=0.036000m/h.</desc>
<speed>0.010000</speed>
</trkpt>
<trkpt lat="55.912189" lon="26.501341">
<ele>105.803772</ele>
<time>2010-08-29T17:44:25Z</time>
<desc>lat.=55.912189, lon.=26.501341, Alt.=105.803772m. Speed=0.036000m/h.</desc>
<speed>0.010000</speed>
</trkpt>
<trkpt lat="55.912189" lon="26.501341">
<ele>105.792053</ele>
<time>2010-08-29T17:44:26Z</time>
<desc>lat.=55.912189, lon.=26.501341, Alt.=105.792053m. Speed=0.072000m/h.</desc>
<speed>0.020000</speed>
</trkpt>
<trkpt lat="55.912189" lon="26.501341">
<ele>105.790100</ele>
<time>2010-08-29T17:44:27Z</time>
<desc>lat.=55.912189, lon.=26.501341, Alt.=105.790100m. Speed=0.036000m/h.</desc>
<speed>0.010000</speed>
</trkpt>
<trkpt lat="55.912189" lon="26.501341">
<ele>105.774475</ele>
<time>2010-08-29T17:44:28Z</time>
<desc>lat.=55.912189, lon.=26.501341, Alt.=105.774475m. Speed=0.108000m/h.</desc>
<speed>0.030000</speed>
</trkpt>
<trkpt lat="55.912189" lon="26.501341">
<ele>105.766663</ele>
<time>2010-08-29T17:44:29Z</time>
<desc>lat.=55.912189, lon.=26.501341, Alt.=105.766663m. Speed=0.036000m/h.</desc>
<speed>0.010000</speed>
</trkpt>
<trkpt lat="55.912189" lon="26.501341">
<ele>105.760803</ele>
<time>2010-08-29T17:44:30Z</time>
<desc>lat.=55.912189, lon.=26.501341, Alt.=105.760803m. Speed=0.072000m/h.</desc>
<speed>0.020000</speed>
</trkpt>
<trkpt lat="55.912189" lon="26.501341">
<ele>105.754944</ele>
<time>2010-08-29T17:44:31Z</time>
<desc>lat.=55.912189, lon.=26.501341, Alt.=105.754944m. Speed=0.108000m/h.</desc>
<speed>0.030000</speed>
</trkpt>
<trkpt lat="55.912189" lon="26.501341">
<ele>105.747131</ele>
<time>2010-08-29T17:44:32Z</time>
<desc>lat.=55.912189, lon.=26.501341, Alt.=105.747131m. Speed=0.072000m/h.</desc>
<speed>0.020000</speed>
</trkpt>
<trkpt lat="55.912189" lon="26.501341">
<ele>105.747131</ele>
<time>2010-08-29T17:44:33Z</time>
<desc>lat.=55.912189, lon.=26.501341, Alt.=105.747131m. Speed=0.072000m/h.</desc>
<speed>0.020000</speed>
</trkpt>
<trkpt lat="55.912189" lon="26.501341">
<ele>105.747131</ele>
<time>2010-08-29T17:44:34Z</time>
<desc>lat.=55.912189, lon.=26.501341, Alt.=105.747131m. Speed=0.036000m/h.</desc>
<speed>0.010000</speed>
</trkpt>
<trkpt lat="55.912189" lon="26.501341">
<ele>105.743225</ele>
<time>2010-08-29T17:44:35Z</time>
<desc>lat.=55.912189, lon.=26.501341, Alt.=105.743225m. Speed=0.036000m/h.</desc>
<speed>0.010000</speed>
</trkpt>
<trkpt lat="55.912189" lon="26.501341">
<ele>105.735413</ele>
<time>2010-08-29T17:44:36Z</time>
<desc>lat.=55.912189, lon.=26.501341, Alt.=105.735413m. Speed=0.036000m/h.</desc>
<speed>0.010000</speed>
</trkpt>
<trkpt lat="55.912189" lon="26.501341">
<ele>105.731506</ele>
<time>2010-08-29T17:44:37Z</time>
<desc>lat.=55.912189, lon.=26.501341, Alt.=105.731506m. Speed=0.000000m/h.</desc>
<speed>0.000000</speed>
</trkpt>
<trkpt lat="55.912189" lon="26.501341">
<ele>105.723694</ele>
<time>2010-08-29T17:44:38Z</time>
<desc>lat.=55.912189, lon.=26.501341, Alt.=105.723694m. Speed=0.036000m/h.</desc>
<speed>0.010000</speed>
</trkpt>
<trkpt lat="55.912189" lon="26.501341">
<ele>105.713928</ele>
<time>2010-08-29T17:44:39Z</time>
<desc>lat.=55.912189, lon.=26.501341, Alt.=105.713928m. Speed=0.036000m/h.</desc>
<speed>0.010000</speed>
</trkpt>
<trkpt lat="55.912189" lon="26.501341">
<ele>105.711975</ele>
<time>2010-08-29T17:44:40Z</time>
<desc>lat.=55.912189, lon.=26.501341, Alt.=105.711975m. Speed=0.072000m/h.</desc>
<speed>0.020000</speed>
</trkpt>
<trkpt lat="55.912189" lon="26.501341">
<ele>105.704163</ele>
<time>2010-08-29T17:44:41Z</time>
<desc>lat.=55.912189, lon.=26.501341, Alt.=105.704163m. Speed=0.036000m/h.</desc>
<speed>0.010000</speed>
</trkpt>
<trkpt lat="55.912189" lon="26.501341">
<ele>105.698303</ele>
<time>2010-08-29T17:44:42Z</time>
<desc>lat.=55.912189, lon.=26.501341, Alt.=105.698303m. Speed=0.036000m/h.</desc>
<speed>0.010000</speed>
</trkpt>
<trkpt lat="55.912189" lon="26.501341">
<ele>105.688538</ele>
<time>2010-08-29T17:44:43Z</time>
<desc>lat.=55.912189, lon.=26.501341, Alt.=105.688538m. Speed=0.000000m/h.</desc>
<speed>0.000000</speed>
</trkpt>
<trkpt lat="55.912189" lon="26.501341">
<ele>105.680725</ele>
<time>2010-08-29T17:44:44Z</time>
<desc>lat.=55.912189, lon.=26.501341, Alt.=105.680725m. Speed=0.000000m/h.</desc>
<speed>0.000000</speed>
</trkpt>
<trkpt lat="55.912189" lon="26.501341">
<ele>105.667053</ele>
<time>2010-08-29T17:44:45Z</time>
<desc>lat.=55.912189, lon.=26.501341, Alt.=105.667053m. Speed=0.036000m/h.</desc>
<speed>0.010000</speed>
</trkpt>
<trkpt lat="55.912189" lon="26.501341">
<ele>105.661194</ele>
<time>2010-08-29T17:44:46Z</time>
<desc>lat.=55.912189, lon.=26.501341, Alt.=105.661194m. Speed=0.000000m/h.</desc>
<speed>0.000000</speed>
</trkpt>
<trkpt lat="55.912189" lon="26.501341">
<ele>105.649475</ele>
<time>2010-08-29T17:44:47Z</time>
<desc>lat.=55.912189, lon.=26.501341, Alt.=105.649475m. Speed=0.000000m/h.</desc>
<speed>0.000000</speed>
</trkpt>
<trkpt lat="55.912189" lon="26.501341">
<ele>105.639709</ele>
<time>2010-08-29T17:44:48Z</time>
<desc>lat.=55.912189, lon.=26.501341, Alt.=105.639709m. Speed=0.000000m/h.</desc>
<speed>0.000000</speed>
</trkpt>
<trkpt lat="55.912189" lon="26.501341">
<ele>105.631897</ele>
<time>2010-08-29T17:44:49Z</time>
<desc>lat.=55.912189, lon.=26.501341, Alt.=105.631897m. Speed=0.000000m/h.</desc>
<speed>0.000000</speed>
</trkpt>
<trkpt lat="55.912189" lon="26.501341">
<ele>105.627991</ele>
<time>2010-08-29T17:44:50Z</time>
<desc>lat.=55.912189, lon.=26.501341, Alt.=105.627991m. Speed=0.036000m/h.</desc>
<speed>0.010000</speed>
</trkpt>
<trkpt lat="55.912189" lon="26.501341">
<ele>105.618225</ele>
<time>2010-08-29T17:44:51Z</time>
<desc>lat.=55.912189, lon.=26.501341, Alt.=105.618225m. Speed=0.000000m/h.</desc>
<speed>0.000000</speed>
</trkpt>
<trkpt lat="55.912189" lon="26.501341">
<ele>105.616272</ele>
<time>2010-08-29T17:44:52Z</time>
<desc>lat.=55.912189, lon.=26.501341, Alt.=105.616272m. Speed=0.072000m/h.</desc>
<speed>0.020000</speed>
</trkpt>
<trkpt lat="55.912189" lon="26.501341">
<ele>105.610413</ele>
<time>2010-08-29T17:44:53Z</time>
<desc>lat.=55.912189, lon.=26.501341, Alt.=105.610413m. Speed=0.036000m/h.</desc>
<speed>0.010000</speed>
</trkpt>
<trkpt lat="55.912189" lon="26.501341">
<ele>105.608459</ele>
<time>2010-08-29T17:44:54Z</time>
<desc>lat.=55.912189, lon.=26.501341, Alt.=105.608459m. Speed=0.036000m/h.</desc>
<speed>0.010000</speed>
</trkpt>
<trkpt lat="55.912189" lon="26.501341">
<ele>105.616272</ele>
<time>2010-08-29T17:44:55Z</time>
<desc>lat.=55.912189, lon.=26.501341, Alt.=105.616272m. Speed=0.036000m/h.</desc>
<speed>0.010000</speed>
</trkpt>
<trkpt lat="55.912189" lon="26.501341">
<ele>105.616272</ele>
<time>2010-08-29T17:44:56Z</time>
<desc>lat.=55.912189, lon.=26.501341, Alt.=105.616272m. Speed=0.000000m/h.</desc>
<speed>0.000000</speed>
</trkpt>
<trkpt lat="55.912189" lon="26.501341">
<ele>105.614319</ele>
<time>2010-08-29T17:44:57Z</time>
<desc>lat.=55.912189, lon.=26.501341, Alt.=105.614319m. Speed=0.036000m/h.</desc>
<speed>0.010000</speed>
</trkpt>
<trkpt lat="55.912189" lon="26.501341">
<ele>105.616272</ele>
<time>2010-08-29T17:44:58Z</time>
<desc>lat.=55.912189, lon.=26.501341, Alt.=105.616272m. Speed=0.036000m/h.</desc>
<speed>0.010000</speed>
</trkpt>
<trkpt lat="55.912189" lon="26.501341">
<ele>105.618225</ele>
<time>2010-08-29T17:44:59Z</time>
<desc>lat.=55.912189, lon.=26.501341, Alt.=105.618225m. Speed=0.000000m/h.</desc>
<speed>0.000000</speed>
</trkpt>
<trkpt lat="55.912189" lon="26.501341">
<ele>105.614319</ele>
<time>2010-08-29T17:45:00Z</time>
<desc>lat.=55.912189, lon.=26.501341, Alt.=105.614319m. Speed=0.036000m/h.</desc>
<speed>0.010000</speed>
</trkpt>
<trkpt lat="55.912189" lon="26.501341">
<ele>105.614319</ele>
<time>2010-08-29T17:45:01Z</time>
<desc>lat.=55.912189, lon.=26.501341, Alt.=105.614319m. Speed=0.072000m/h.</desc>
<speed>0.020000</speed>
</trkpt>
<trkpt lat="55.912189" lon="26.501341">
<ele>105.610413</ele>
<time>2010-08-29T17:45:02Z</time>
<desc>lat.=55.912189, lon.=26.501341, Alt.=105.610413m. Speed=0.072000m/h.</desc>
<speed>0.020000</speed>
</trkpt>
<trkpt lat="55.912189" lon="26.501341">
<ele>105.606506</ele>
<time>2010-08-29T17:45:03Z</time>
<desc>lat.=55.912189, lon.=26.501341, Alt.=105.606506m. Speed=0.036000m/h.</desc>
<speed>0.010000</speed>
</trkpt>
<trkpt lat="55.912189" lon="26.501341">
<ele>105.602600</ele>
<time>2010-08-29T17:45:04Z</time>
<desc>lat.=55.912189, lon.=26.501341, Alt.=105.602600m. Speed=0.036000m/h.</desc>
<speed>0.010000</speed>
</trkpt>
<trkpt lat="55.912189" lon="26.501341">
<ele>105.600647</ele>
<time>2010-08-29T17:45:05Z</time>
<desc>lat.=55.912189, lon.=26.501341, Alt.=105.600647m. Speed=0.000000m/h.</desc>
<speed>0.000000</speed>
</trkpt>
<trkpt lat="55.912189" lon="26.501341">
<ele>105.590881</ele>
<time>2010-08-29T17:45:06Z</time>
<desc>lat.=55.912189, lon.=26.501341, Alt.=105.590881m. Speed=0.000000m/h.</desc>
<speed>0.000000</speed>
</trkpt>
<trkpt lat="55.912189" lon="26.501341">
<ele>105.586975</ele>
<time>2010-08-29T17:45:07Z</time>
<desc>lat.=55.912189, lon.=26.501341, Alt.=105.586975m. Speed=0.108000m/h.</desc>
<speed>0.030000</speed>
</trkpt>
<trkpt lat="55.912189" lon="26.501341">
<ele>105.581116</ele>
<time>2010-08-29T17:45:08Z</time>
<desc>lat.=55.912189, lon.=26.501341, Alt.=105.581116m. Speed=0.072000m/h.</desc>
<speed>0.020000</speed>
</trkpt>
<trkpt lat="55.912189" lon="26.501341">
<ele>105.577209</ele>
<time>2010-08-29T17:45:09Z</time>
<desc>lat.=55.912189, lon.=26.501341, Alt.=105.577209m. Speed=0.072000m/h.</desc>
<speed>0.020000</speed>
</trkpt>
<trkpt lat="55.912189" lon="26.501341">
<ele>105.573303</ele>
<time>2010-08-29T17:45:10Z</time>
<desc>lat.=55.912189, lon.=26.501341, Alt.=105.573303m. Speed=0.036000m/h.</desc>
<speed>0.010000</speed>
</trkpt>
<trkpt lat="55.912189" lon="26.501341">
<ele>105.571350</ele>
<time>2010-08-29T17:45:11Z</time>
<desc>lat.=55.912189, lon.=26.501341, Alt.=105.571350m. Speed=0.072000m/h.</desc>
<speed>0.020000</speed>
</trkpt>
<trkpt lat="55.912189" lon="26.501341">
<ele>105.565491</ele>
<time>2010-08-29T17:45:12Z</time>
<desc>lat.=55.912189, lon.=26.501341, Alt.=105.565491m. Speed=0.072000m/h.</desc>
<speed>0.020000</speed>
</trkpt>
<trkpt lat="55.912189" lon="26.501341">
<ele>105.563538</ele>
<time>2010-08-29T17:45:13Z</time>
<desc>lat.=55.912189, lon.=26.501341, Alt.=105.563538m. Speed=0.000000m/h.</desc>
<speed>0.000000</speed>
</trkpt>
<trkpt lat="55.912189" lon="26.501341">
<ele>105.559631</ele>
<time>2010-08-29T17:45:14Z</time>
<desc>lat.=55.912189, lon.=26.501341, Alt.=105.559631m. Speed=0.108000m/h.</desc>
<speed>0.030000</speed>
</trkpt>
<trkpt lat="55.912189" lon="26.501341">
<ele>105.553772</ele>
<time>2010-08-29T17:45:15Z</time>
<desc>lat.=55.912189, lon.=26.501341, Alt.=105.553772m. Speed=0.036000m/h.</desc>
<speed>0.010000</speed>
</trkpt>
<trkpt lat="55.912189" lon="26.501341">
<ele>105.557678</ele>
<time>2010-08-29T17:45:16Z</time>
<desc>lat.=55.912189, lon.=26.501341, Alt.=105.557678m. Speed=0.036000m/h.</desc>
<speed>0.010000</speed>
</trkpt>
<trkpt lat="55.912189" lon="26.501341">
<ele>105.555725</ele>
<time>2010-08-29T17:45:17Z</time>
<desc>lat.=55.912189, lon.=26.501341, Alt.=105.555725m. Speed=0.000000m/h.</desc>
<speed>0.000000</speed>
</trkpt>
<trkpt lat="55.912189" lon="26.501341">
<ele>105.551819</ele>
<time>2010-08-29T17:45:18Z</time>
<desc>lat.=55.912189, lon.=26.501341, Alt.=105.551819m. Speed=0.000000m/h.</desc>
<speed>0.000000</speed>
</trkpt>
<trkpt lat="55.912189" lon="26.501341">
<ele>105.545959</ele>
<time>2010-08-29T17:45:19Z</time>
<desc>lat.=55.912189, lon.=26.501341, Alt.=105.545959m. Speed=0.108000m/h.</desc>
<speed>0.030000</speed>
</trkpt>
<trkpt lat="55.912189" lon="26.501341">
<ele>105.542053</ele>
<time>2010-08-29T17:45:20Z</time>
<desc>lat.=55.912189, lon.=26.501341, Alt.=105.542053m. Speed=0.036000m/h.</desc>
<speed>0.010000</speed>
</trkpt>
<trkpt lat="55.912189" lon="26.501341">
<ele>105.536194</ele>
<time>2010-08-29T17:45:21Z</time>
<desc>lat.=55.912189, lon.=26.501341, Alt.=105.536194m. Speed=0.000000m/h.</desc>
<speed>0.000000</speed>
</trkpt>
<trkpt lat="55.912189" lon="26.501341">
<ele>105.538147</ele>
<time>2010-08-29T17:45:22Z</time>
<desc>lat.=55.912189, lon.=26.501341, Alt.=105.538147m. Speed=0.036000m/h.</desc>
<speed>0.010000</speed>
</trkpt>
<trkpt lat="55.912189" lon="26.501341">
<ele>105.536194</ele>
<time>2010-08-29T17:45:23Z</time>
<desc>lat.=55.912189, lon.=26.501341, Alt.=105.536194m. Speed=0.036000m/h.</desc>
<speed>0.010000</speed>
</trkpt>
<trkpt lat="55.912189" lon="26.501341">
<ele>105.538147</ele>
<time>2010-08-29T17:45:24Z</time>
<desc>lat.=55.912189, lon.=26.501341, Alt.=105.538147m. Speed=0.072000m/h.</desc>
<speed>0.020000</speed>
</trkpt>
<trkpt lat="55.912189" lon="26.501339">
<ele>105.538147</ele>
<time>2010-08-29T17:45:25Z</time>
<desc>lat.=55.912189, lon.=26.501339, Alt.=105.538147m. Speed=0.036000m/h.</desc>
<speed>0.010000</speed>
</trkpt>
<trkpt lat="55.912189" lon="26.501339">
<ele>105.528381</ele>
<time>2010-08-29T17:45:26Z</time>
<desc>lat.=55.912189, lon.=26.501339, Alt.=105.528381m. Speed=0.036000m/h.</desc>
<speed>0.010000</speed>
</trkpt>
<trkpt lat="55.912189" lon="26.501339">
<ele>105.528381</ele>
<time>2010-08-29T17:45:27Z</time>
<desc>lat.=55.912189, lon.=26.501339, Alt.=105.528381m. Speed=0.036000m/h.</desc>
<speed>0.010000</speed>
</trkpt>
<trkpt lat="55.912189" lon="26.501339">
<ele>105.524475</ele>
<time>2010-08-29T17:45:28Z</time>
<desc>lat.=55.912189, lon.=26.501339, Alt.=105.524475m. Speed=0.000000m/h.</desc>
<speed>0.000000</speed>
</trkpt>
<trkpt lat="55.912189" lon="26.501339">
<ele>105.524475</ele>
<time>2010-08-29T17:45:29Z</time>
<desc>lat.=55.912189, lon.=26.501339, Alt.=105.524475m. Speed=0.000000m/h.</desc>
<speed>0.000000</speed>
</trkpt>
<trkpt lat="55.912189" lon="26.501339">
<ele>105.518616</ele>
<time>2010-08-29T17:45:30Z</time>
<desc>lat.=55.912189, lon.=26.501339, Alt.=105.518616m. Speed=0.036000m/h.</desc>
<speed>0.010000</speed>
</trkpt>
<trkpt lat="55.912189" lon="26.501339">
<ele>105.510803</ele>
<time>2010-08-29T17:45:31Z</time>
<desc>lat.=55.912189, lon.=26.501339, Alt.=105.510803m. Speed=0.000000m/h.</desc>
<speed>0.000000</speed>
</trkpt>
<trkpt lat="55.912189" lon="26.501339">
<ele>105.502991</ele>
<time>2010-08-29T17:45:32Z</time>
<desc>lat.=55.912189, lon.=26.501339, Alt.=105.502991m. Speed=0.000000m/h.</desc>
<speed>0.000000</speed>
</trkpt>
<trkpt lat="55.912189" lon="26.501339">
<ele>105.491272</ele>
<time>2010-08-29T17:45:33Z</time>
<desc>lat.=55.912189, lon.=26.501339, Alt.=105.491272m. Speed=0.000000m/h.</desc>
<speed>0.000000</speed>
</trkpt>
<trkpt lat="55.912189" lon="26.501339">
<ele>105.489319</ele>
<time>2010-08-29T17:45:34Z</time>
<desc>lat.=55.912189, lon.=26.501339, Alt.=105.489319m. Speed=0.036000m/h.</desc>
<speed>0.010000</speed>
</trkpt>
<trkpt lat="55.912189" lon="26.501339">
<ele>105.479553</ele>
<time>2010-08-29T17:45:35Z</time>
<desc>lat.=55.912189, lon.=26.501339, Alt.=105.479553m. Speed=0.000000m/h.</desc>
<speed>0.000000</speed>
</trkpt>
<trkpt lat="55.912189" lon="26.501339">
<ele>105.475647</ele>
<time>2010-08-29T17:45:36Z</time>
<desc>lat.=55.912189, lon.=26.501339, Alt.=105.475647m. Speed=0.000000m/h.</desc>
<speed>0.000000</speed>
</trkpt>
<trkpt lat="55.912189" lon="26.501339">
<ele>105.473694</ele>
<time>2010-08-29T17:45:37Z</time>
<desc>lat.=55.912189, lon.=26.501339, Alt.=105.473694m. Speed=0.036000m/h.</desc>
<speed>0.010000</speed>
</trkpt>
<trkpt lat="55.912189" lon="26.501339">
<ele>105.469788</ele>
<time>2010-08-29T17:45:38Z</time>
<desc>lat.=55.912189, lon.=26.501339, Alt.=105.469788m. Speed=0.000000m/h.</desc>
<speed>0.000000</speed>
</trkpt>
<trkpt lat="55.912189" lon="26.501339">
<ele>105.467834</ele>
<time>2010-08-29T17:45:39Z</time>
<desc>lat.=55.912189, lon.=26.501339, Alt.=105.467834m. Speed=0.036000m/h.</desc>
<speed>0.010000</speed>
</trkpt>
<trkpt lat="55.912189" lon="26.501339">
<ele>105.461975</ele>
<time>2010-08-29T17:45:40Z</time>
<desc>lat.=55.912189, lon.=26.501339, Alt.=105.461975m. Speed=0.000000m/h.</desc>
<speed>0.000000</speed>
</trkpt>
<trkpt lat="55.912189" lon="26.501339">
<ele>105.456116</ele>
<time>2010-08-29T17:45:41Z</time>
<desc>lat.=55.912189, lon.=26.501339, Alt.=105.456116m. Speed=0.072000m/h.</desc>
<speed>0.020000</speed>
</trkpt>
<trkpt lat="55.912189" lon="26.501339">
<ele>105.446350</ele>
<time>2010-08-29T17:45:42Z</time>
<desc>lat.=55.912189, lon.=26.501339, Alt.=105.446350m. Speed=0.000000m/h.</desc>
<speed>0.000000</speed>
</trkpt>
<trkpt lat="55.912189" lon="26.501339">
<ele>105.432678</ele>
<time>2010-08-29T17:45:43Z</time>
<desc>lat.=55.912189, lon.=26.501339, Alt.=105.432678m. Speed=0.036000m/h.</desc>
<speed>0.010000</speed>
</trkpt>
<trkpt lat="55.912189" lon="26.501339">
<ele>105.428772</ele>
<time>2010-08-29T17:45:44Z</time>
<desc>lat.=55.912189, lon.=26.501339, Alt.=105.428772m. Speed=0.036000m/h.</desc>
<speed>0.010000</speed>
</trkpt>
<trkpt lat="55.912189" lon="26.501339">
<ele>105.424866</ele>
<time>2010-08-29T17:45:45Z</time>
<desc>lat.=55.912189, lon.=26.501339, Alt.=105.424866m. Speed=0.000000m/h.</desc>
<speed>0.000000</speed>
</trkpt>
<trkpt lat="55.912189" lon="26.501339">
<ele>105.422913</ele>
<time>2010-08-29T17:45:46Z</time>
<desc>lat.=55.912189, lon.=26.501339, Alt.=105.422913m. Speed=0.036000m/h.</desc>
<speed>0.010000</speed>
</trkpt>
<trkpt lat="55.912189" lon="26.501339">
<ele>105.422913</ele>
<time>2010-08-29T17:45:47Z</time>
<desc>lat.=55.912189, lon.=26.501339, Alt.=105.422913m. Speed=0.072000m/h.</desc>
<speed>0.020000</speed>
</trkpt>
<trkpt lat="55.912189" lon="26.501339">
<ele>105.419006</ele>
<time>2010-08-29T17:45:48Z</time>
<desc>lat.=55.912189, lon.=26.501339, Alt.=105.419006m. Speed=0.036000m/h.</desc>
<speed>0.010000</speed>
</trkpt>
<trkpt lat="55.912189" lon="26.501339">
<ele>105.419006</ele>
<time>2010-08-29T17:45:49Z</time>
<desc>lat.=55.912189, lon.=26.501339, Alt.=105.419006m. Speed=0.000000m/h.</desc>
<speed>0.000000</speed>
</trkpt>
<trkpt lat="55.912189" lon="26.501339">
<ele>105.409241</ele>
<time>2010-08-29T17:45:50Z</time>
<desc>lat.=55.912189, lon.=26.501339, Alt.=105.409241m. Speed=0.036000m/h.</desc>
<speed>0.010000</speed>
</trkpt>
<trkpt lat="55.912189" lon="26.501339">
<ele>105.401428</ele>
<time>2010-08-29T17:45:51Z</time>
<desc>lat.=55.912189, lon.=26.501339, Alt.=105.401428m. Speed=0.036000m/h.</desc>
<speed>0.010000</speed>
</trkpt>
<trkpt lat="55.912189" lon="26.501339">
<ele>105.403381</ele>
<time>2010-08-29T17:45:52Z</time>
<desc>lat.=55.912189, lon.=26.501339, Alt.=105.403381m. Speed=0.000000m/h.</desc>
<speed>0.000000</speed>
</trkpt>
<trkpt lat="55.912189" lon="26.501339">
<ele>105.395569</ele>
<time>2010-08-29T17:45:53Z</time>
<desc>lat.=55.912189, lon.=26.501339, Alt.=105.395569m. Speed=0.072000m/h.</desc>
<speed>0.020000</speed>
</trkpt>
<trkpt lat="55.912189" lon="26.501339">
<ele>105.397522</ele>
<time>2010-08-29T17:45:54Z</time>
<desc>lat.=55.912189, lon.=26.501339, Alt.=105.397522m. Speed=0.000000m/h.</desc>
<speed>0.000000</speed>
</trkpt>
<trkpt lat="55.912189" lon="26.501339">
<ele>105.395569</ele>
<time>2010-08-29T17:45:55Z</time>
<desc>lat.=55.912189, lon.=26.501339, Alt.=105.395569m. Speed=0.036000m/h.</desc>
<speed>0.010000</speed>
</trkpt>
<trkpt lat="55.912189" lon="26.501339">
<ele>105.383850</ele>
<time>2010-08-29T17:45:56Z</time>
<desc>lat.=55.912189, lon.=26.501339, Alt.=105.383850m. Speed=0.000000m/h.</desc>
<speed>0.000000</speed>
</trkpt>
<trkpt lat="55.912189" lon="26.501341">
<ele>105.377991</ele>
<time>2010-08-29T17:45:57Z</time>
<desc>lat.=55.912189, lon.=26.501341, Alt.=105.377991m. Speed=0.072000m/h.</desc>
<speed>0.020000</speed>
</trkpt>
<trkpt lat="55.912189" lon="26.501341">
<ele>105.376038</ele>
<time>2010-08-29T17:45:58Z</time>
<desc>lat.=55.912189, lon.=26.501341, Alt.=105.376038m. Speed=0.072000m/h.</desc>
<speed>0.020000</speed>
</trkpt>
<trkpt lat="55.912189" lon="26.501341">
<ele>105.370178</ele>
<time>2010-08-29T17:45:59Z</time>
<desc>lat.=55.912189, lon.=26.501341, Alt.=105.370178m. Speed=0.036000m/h.</desc>
<speed>0.010000</speed>
</trkpt>
<trkpt lat="55.912189" lon="26.501341">
<ele>105.370178</ele>
<time>2010-08-29T17:46:00Z</time>
<desc>lat.=55.912189, lon.=26.501341, Alt.=105.370178m. Speed=0.000000m/h.</desc>
<speed>0.000000</speed>
</trkpt>
<trkpt lat="55.912189" lon="26.501341">
<ele>105.364319</ele>
<time>2010-08-29T17:46:01Z</time>
<desc>lat.=55.912189, lon.=26.501341, Alt.=105.364319m. Speed=0.072000m/h.</desc>
<speed>0.020000</speed>
</trkpt>
<trkpt lat="55.912189" lon="26.501341">
<ele>105.364319</ele>
<time>2010-08-29T17:46:02Z</time>
<desc>lat.=55.912189, lon.=26.501341, Alt.=105.364319m. Speed=0.036000m/h.</desc>
<speed>0.010000</speed>
</trkpt>
<trkpt lat="55.912189" lon="26.501341">
<ele>105.366272</ele>
<time>2010-08-29T17:46:03Z</time>
<desc>lat.=55.912189, lon.=26.501341, Alt.=105.366272m. Speed=0.072000m/h.</desc>
<speed>0.020000</speed>
</trkpt>
<trkpt lat="55.912189" lon="26.501341">
<ele>105.360413</ele>
<time>2010-08-29T17:46:04Z</time>
<desc>lat.=55.912189, lon.=26.501341, Alt.=105.360413m. Speed=0.072000m/h.</desc>
<speed>0.020000</speed>
</trkpt>
<trkpt lat="55.912189" lon="26.501339">
<ele>105.364319</ele>
<time>2010-08-29T17:46:05Z</time>
<desc>lat.=55.912189, lon.=26.501339, Alt.=105.364319m. Speed=0.000000m/h.</desc>
<speed>0.000000</speed>
</trkpt>
<trkpt lat="55.912189" lon="26.501339">
<ele>105.362366</ele>
<time>2010-08-29T17:46:06Z</time>
<desc>lat.=55.912189, lon.=26.501339, Alt.=105.362366m. Speed=0.000000m/h.</desc>
<speed>0.000000</speed>
</trkpt>
<trkpt lat="55.912189" lon="26.501339">
<ele>105.354553</ele>
<time>2010-08-29T17:46:07Z</time>
<desc>lat.=55.912189, lon.=26.501339, Alt.=105.354553m. Speed=0.000000m/h.</desc>
<speed>0.000000</speed>
</trkpt>
<trkpt lat="55.912189" lon="26.501339">
<ele>105.354553</ele>
<time>2010-08-29T17:46:08Z</time>
<desc>lat.=55.912189, lon.=26.501339, Alt.=105.354553m. Speed=0.000000m/h.</desc>
<speed>0.000000</speed>
</trkpt>
<trkpt lat="55.912189" lon="26.501339">
<ele>105.356506</ele>
<time>2010-08-29T17:46:09Z</time>
<desc>lat.=55.912189, lon.=26.501339, Alt.=105.356506m. Speed=0.000000m/h.</desc>
<speed>0.000000</speed>
</trkpt>
<trkpt lat="55.912189" lon="26.501339">
<ele>105.352600</ele>
<time>2010-08-29T17:46:10Z</time>
<desc>lat.=55.912189, lon.=26.501339, Alt.=105.352600m. Speed=0.036000m/h.</desc>
<speed>0.010000</speed>
</trkpt>
<trkpt lat="55.912189" lon="26.501339">
<ele>105.352600</ele>
<time>2010-08-29T17:46:11Z</time>
<desc>lat.=55.912189, lon.=26.501339, Alt.=105.352600m. Speed=0.036000m/h.</desc>
<speed>0.010000</speed>
</trkpt>
<trkpt lat="55.912189" lon="26.501339">
<ele>105.346741</ele>
<time>2010-08-29T17:46:12Z</time>
<desc>lat.=55.912189, lon.=26.501339, Alt.=105.346741m. Speed=0.036000m/h.</desc>
<speed>0.010000</speed>
</trkpt>
<trkpt lat="55.912189" lon="26.501339">
<ele>105.338928</ele>
<time>2010-08-29T17:46:13Z</time>
<desc>lat.=55.912189, lon.=26.501339, Alt.=105.338928m. Speed=0.000000m/h.</desc>
<speed>0.000000</speed>
</trkpt>
<trkpt lat="55.912189" lon="26.501339">
<ele>105.336975</ele>
<time>2010-08-29T17:46:14Z</time>
<desc>lat.=55.912189, lon.=26.501339, Alt.=105.336975m. Speed=0.036000m/h.</desc>
<speed>0.010000</speed>
</trkpt>
<trkpt lat="55.912189" lon="26.501339">
<ele>105.333069</ele>
<time>2010-08-29T17:46:15Z</time>
<desc>lat.=55.912189, lon.=26.501339, Alt.=105.333069m. Speed=0.036000m/h.</desc>
<speed>0.010000</speed>
</trkpt>
<trkpt lat="55.912189" lon="26.501339">
<ele>105.325256</ele>
<time>2010-08-29T17:46:16Z</time>
<desc>lat.=55.912189, lon.=26.501339, Alt.=105.325256m. Speed=0.036000m/h.</desc>
<speed>0.010000</speed>
</trkpt>
<trkpt lat="55.912189" lon="26.501339">
<ele>105.315491</ele>
<time>2010-08-29T17:46:17Z</time>
<desc>lat.=55.912189, lon.=26.501339, Alt.=105.315491m. Speed=0.000000m/h.</desc>
<speed>0.000000</speed>
</trkpt>
<trkpt lat="55.912189" lon="26.501339">
<ele>105.307678</ele>
<time>2010-08-29T17:46:18Z</time>
<desc>lat.=55.912189, lon.=26.501339, Alt.=105.307678m. Speed=0.000000m/h.</desc>
<speed>0.000000</speed>
</trkpt>
<trkpt lat="55.912189" lon="26.501339">
<ele>105.301819</ele>
<time>2010-08-29T17:46:19Z</time>
<desc>lat.=55.912189, lon.=26.501339, Alt.=105.301819m. Speed=0.036000m/h.</desc>
<speed>0.010000</speed>
</trkpt>
<trkpt lat="55.912189" lon="26.501339">
<ele>105.301819</ele>
<time>2010-08-29T17:46:20Z</time>
<desc>lat.=55.912189, lon.=26.501339, Alt.=105.301819m. Speed=0.072000m/h.</desc>
<speed>0.020000</speed>
</trkpt>
<trkpt lat="55.912189" lon="26.501339">
<ele>105.297913</ele>
<time>2010-08-29T17:46:21Z</time>
<desc>lat.=55.912189, lon.=26.501339, Alt.=105.297913m. Speed=0.036000m/h.</desc>
<speed>0.010000</speed>
</trkpt>
<trkpt lat="55.912189" lon="26.501339">
<ele>105.290100</ele>
<time>2010-08-29T17:46:22Z</time>
<desc>lat.=55.912189, lon.=26.501339, Alt.=105.290100m. Speed=0.072000m/h.</desc>
<speed>0.020000</speed>
</trkpt>
<trkpt lat="55.912189" lon="26.501339">
<ele>105.294006</ele>
<time>2010-08-29T17:46:23Z</time>
<desc>lat.=55.912189, lon.=26.501339, Alt.=105.294006m. Speed=0.000000m/h.</desc>
<speed>0.000000</speed>
</trkpt>
<trkpt lat="55.912189" lon="26.501339">
<ele>105.290100</ele>
<time>2010-08-29T17:46:24Z</time>
<desc>lat.=55.912189, lon.=26.501339, Alt.=105.290100m. Speed=0.072000m/h.</desc>
<speed>0.020000</speed>
</trkpt>
<trkpt lat="55.912189" lon="26.501339">
<ele>105.286194</ele>
<time>2010-08-29T17:46:25Z</time>
<desc>lat.=55.912189, lon.=26.501339, Alt.=105.286194m. Speed=0.036000m/h.</desc>
<speed>0.010000</speed>
</trkpt>
<trkpt lat="55.912189" lon="26.501339">
<ele>105.284241</ele>
<time>2010-08-29T17:46:26Z</time>
<desc>lat.=55.912189, lon.=26.501339, Alt.=105.284241m. Speed=0.072000m/h.</desc>
<speed>0.020000</speed>
</trkpt>
<trkpt lat="55.912189" lon="26.501339">
<ele>105.280334</ele>
<time>2010-08-29T17:46:27Z</time>
<desc>lat.=55.912189, lon.=26.501339, Alt.=105.280334m. Speed=0.036000m/h.</desc>
<speed>0.010000</speed>
</trkpt>
<trkpt lat="55.912189" lon="26.501339">
<ele>105.274475</ele>
<time>2010-08-29T17:46:28Z</time>
<desc>lat.=55.912189, lon.=26.501339, Alt.=105.274475m. Speed=0.000000m/h.</desc>
<speed>0.000000</speed>
</trkpt>
<trkpt lat="55.912189" lon="26.501339">
<ele>105.272522</ele>
<time>2010-08-29T17:46:29Z</time>
<desc>lat.=55.912189, lon.=26.501339, Alt.=105.272522m. Speed=0.000000m/h.</desc>
<speed>0.000000</speed>
</trkpt>
<trkpt lat="55.912189" lon="26.501339">
<ele>105.268616</ele>
<time>2010-08-29T17:46:30Z</time>
<desc>lat.=55.912189, lon.=26.501339, Alt.=105.268616m. Speed=0.000000m/h.</desc>
<speed>0.000000</speed>
</trkpt>
<trkpt lat="55.912189" lon="26.501339">
<ele>105.260803</ele>
<time>2010-08-29T17:46:31Z</time>
<desc>lat.=55.912189, lon.=26.501339, Alt.=105.260803m. Speed=0.072000m/h.</desc>
<speed>0.020000</speed>
</trkpt>
<trkpt lat="55.912189" lon="26.501339">
<ele>105.258850</ele>
<time>2010-08-29T17:46:32Z</time>
<desc>lat.=55.912189, lon.=26.501339, Alt.=105.258850m. Speed=0.000000m/h.</desc>
<speed>0.000000</speed>
</trkpt>
<trkpt lat="55.912189" lon="26.501339">
<ele>105.252991</ele>
<time>2010-08-29T17:46:33Z</time>
<desc>lat.=55.912189, lon.=26.501339, Alt.=105.252991m. Speed=0.000000m/h.</desc>
<speed>0.000000</speed>
</trkpt>
<trkpt lat="55.912189" lon="26.501339">
<ele>105.249084</ele>
<time>2010-08-29T17:46:34Z</time>
<desc>lat.=55.912189, lon.=26.501339, Alt.=105.249084m. Speed=0.000000m/h.</desc>
<speed>0.000000</speed>
</trkpt>
<trkpt lat="55.912189" lon="26.501337">
<ele>105.239319</ele>
<time>2010-08-29T17:46:35Z</time>
<desc>lat.=55.912189, lon.=26.501337, Alt.=105.239319m. Speed=0.108000m/h.</desc>
<speed>0.030000</speed>
</trkpt>
<trkpt lat="55.912189" lon="26.501337">
<ele>105.239319</ele>
<time>2010-08-29T17:46:36Z</time>
<desc>lat.=55.912189, lon.=26.501337, Alt.=105.239319m. Speed=0.036000m/h.</desc>
<speed>0.010000</speed>
</trkpt>
<trkpt lat="55.912189" lon="26.501337">
<ele>105.231506</ele>
<time>2010-08-29T17:46:37Z</time>
<desc>lat.=55.912189, lon.=26.501337, Alt.=105.231506m. Speed=0.036000m/h.</desc>
<speed>0.010000</speed>
</trkpt>
<trkpt lat="55.912189" lon="26.501337">
<ele>105.225647</ele>
<time>2010-08-29T17:46:38Z</time>
<desc>lat.=55.912189, lon.=26.501337, Alt.=105.225647m. Speed=0.036000m/h.</desc>
<speed>0.010000</speed>
</trkpt>
<trkpt lat="55.912189" lon="26.501337">
<ele>105.221741</ele>
<time>2010-08-29T17:46:39Z</time>
<desc>lat.=55.912189, lon.=26.501337, Alt.=105.221741m. Speed=0.000000m/h.</desc>
<speed>0.000000</speed>
</trkpt>
<trkpt lat="55.912189" lon="26.501337">
<ele>105.219788</ele>
<time>2010-08-29T17:46:40Z</time>
<desc>lat.=55.912189, lon.=26.501337, Alt.=105.219788m. Speed=0.000000m/h.</desc>
<speed>0.000000</speed>
</trkpt>
<trkpt lat="55.912189" lon="26.501337">
<ele>105.215881</ele>
<time>2010-08-29T17:46:41Z</time>
<desc>lat.=55.912189, lon.=26.501337, Alt.=105.215881m. Speed=0.072000m/h.</desc>
<speed>0.020000</speed>
</trkpt>
<trkpt lat="55.912189" lon="26.501337">
<ele>105.213928</ele>
<time>2010-08-29T17:46:42Z</time>
<desc>lat.=55.912189, lon.=26.501337, Alt.=105.213928m. Speed=0.036000m/h.</desc>
<speed>0.010000</speed>
</trkpt>
<trkpt lat="55.912189" lon="26.501337">
<ele>105.213928</ele>
<time>2010-08-29T17:46:43Z</time>
<desc>lat.=55.912189, lon.=26.501337, Alt.=105.213928m. Speed=0.036000m/h.</desc>
<speed>0.010000</speed>
</trkpt>
<trkpt lat="55.912189" lon="26.501337">
<ele>105.210022</ele>
<time>2010-08-29T17:46:44Z</time>
<desc>lat.=55.912189, lon.=26.501337, Alt.=105.210022m. Speed=0.000000m/h.</desc>
<speed>0.000000</speed>
</trkpt>
<trkpt lat="55.912189" lon="26.501337">
<ele>105.206116</ele>
<time>2010-08-29T17:46:45Z</time>
<desc>lat.=55.912189, lon.=26.501337, Alt.=105.206116m. Speed=0.000000m/h.</desc>
<speed>0.000000</speed>
</trkpt>
<trkpt lat="55.912189" lon="26.501337">
<ele>105.202209</ele>
<time>2010-08-29T17:46:46Z</time>
<desc>lat.=55.912189, lon.=26.501337, Alt.=105.202209m. Speed=0.036000m/h.</desc>
<speed>0.010000</speed>
</trkpt>
<trkpt lat="55.912189" lon="26.501337">
<ele>105.206116</ele>
<time>2010-08-29T17:46:47Z</time>
<desc>lat.=55.912189, lon.=26.501337, Alt.=105.206116m. Speed=0.036000m/h.</desc>
<speed>0.010000</speed>
</trkpt>
<trkpt lat="55.912189" lon="26.501337">
<ele>105.200256</ele>
<time>2010-08-29T17:46:48Z</time>
<desc>lat.=55.912189, lon.=26.501337, Alt.=105.200256m. Speed=0.036000m/h.</desc>
<speed>0.010000</speed>
</trkpt>
<trkpt lat="55.912189" lon="26.501337">
<ele>105.184631</ele>
<time>2010-08-29T17:46:49Z</time>
<desc>lat.=55.912189, lon.=26.501337, Alt.=105.184631m. Speed=0.000000m/h.</desc>
<speed>0.000000</speed>
</trkpt>
<trkpt lat="55.912189" lon="26.501337">
<ele>105.180725</ele>
<time>2010-08-29T17:46:50Z</time>
<desc>lat.=55.912189, lon.=26.501337, Alt.=105.180725m. Speed=0.036000m/h.</desc>
<speed>0.010000</speed>
</trkpt>
<trkpt lat="55.912189" lon="26.501337">
<ele>105.176819</ele>
<time>2010-08-29T17:46:51Z</time>
<desc>lat.=55.912189, lon.=26.501337, Alt.=105.176819m. Speed=0.036000m/h.</desc>
<speed>0.010000</speed>
</trkpt>
<trkpt lat="55.912189" lon="26.501337">
<ele>105.169006</ele>
<time>2010-08-29T17:46:52Z</time>
<desc>lat.=55.912189, lon.=26.501337, Alt.=105.169006m. Speed=0.036000m/h.</desc>
<speed>0.010000</speed>
</trkpt>
<trkpt lat="55.912189" lon="26.501337">
<ele>105.159241</ele>
<time>2010-08-29T17:46:53Z</time>
<desc>lat.=55.912189, lon.=26.501337, Alt.=105.159241m. Speed=0.000000m/h.</desc>
<speed>0.000000</speed>
</trkpt>
<trkpt lat="55.912189" lon="26.501337">
<ele>105.159241</ele>
<time>2010-08-29T17:46:54Z</time>
<desc>lat.=55.912189, lon.=26.501337, Alt.=105.159241m. Speed=0.108000m/h.</desc>
<speed>0.030000</speed>
</trkpt>
<trkpt lat="55.912189" lon="26.501337">
<ele>105.163147</ele>
<time>2010-08-29T17:46:55Z</time>
<desc>lat.=55.912189, lon.=26.501337, Alt.=105.163147m. Speed=0.036000m/h.</desc>
<speed>0.010000</speed>
</trkpt>
<trkpt lat="55.912189" lon="26.501337">
<ele>105.157288</ele>
<time>2010-08-29T17:46:56Z</time>
<desc>lat.=55.912189, lon.=26.501337, Alt.=105.157288m. Speed=0.108000m/h.</desc>
<speed>0.030000</speed>
</trkpt>
<trkpt lat="55.912189" lon="26.501337">
<ele>105.149475</ele>
<time>2010-08-29T17:46:57Z</time>
<desc>lat.=55.912189, lon.=26.501337, Alt.=105.149475m. Speed=0.072000m/h.</desc>
<speed>0.020000</speed>
</trkpt>
<trkpt lat="55.912189" lon="26.501335">
<ele>105.145569</ele>
<time>2010-08-29T17:46:58Z</time>
<desc>lat.=55.912189, lon.=26.501335, Alt.=105.145569m. Speed=0.036000m/h.</desc>
<speed>0.010000</speed>
</trkpt>
<trkpt lat="55.912189" lon="26.501335">
<ele>105.145569</ele>
<time>2010-08-29T17:46:59Z</time>
<desc>lat.=55.912189, lon.=26.501335, Alt.=105.145569m. Speed=0.036000m/h.</desc>
<speed>0.010000</speed>
</trkpt>
<trkpt lat="55.912189" lon="26.501335">
<ele>105.139709</ele>
<time>2010-08-29T17:47:00Z</time>
<desc>lat.=55.912189, lon.=26.501335, Alt.=105.139709m. Speed=0.072000m/h.</desc>
<speed>0.020000</speed>
</trkpt>
<trkpt lat="55.912189" lon="26.501335">
<ele>105.135803</ele>
<time>2010-08-29T17:47:01Z</time>
<desc>lat.=55.912189, lon.=26.501335, Alt.=105.135803m. Speed=0.072000m/h.</desc>
<speed>0.020000</speed>
</trkpt>
<trkpt lat="55.912189" lon="26.501335">
<ele>105.135803</ele>
<time>2010-08-29T17:47:02Z</time>
<desc>lat.=55.912189, lon.=26.501335, Alt.=105.135803m. Speed=0.000000m/h.</desc>
<speed>0.000000</speed>
</trkpt>
<trkpt lat="55.912189" lon="26.501335">
<ele>105.137756</ele>
<time>2010-08-29T17:47:03Z</time>
<desc>lat.=55.912189, lon.=26.501335, Alt.=105.137756m. Speed=0.036000m/h.</desc>
<speed>0.010000</speed>
</trkpt>
<trkpt lat="55.912189" lon="26.501335">
<ele>105.131897</ele>
<time>2010-08-29T17:47:04Z</time>
<desc>lat.=55.912189, lon.=26.501335, Alt.=105.131897m. Speed=0.072000m/h.</desc>
<speed>0.020000</speed>
</trkpt>
<trkpt lat="55.912189" lon="26.501335">
<ele>105.127991</ele>
<time>2010-08-29T17:47:05Z</time>
<desc>lat.=55.912189, lon.=26.501335, Alt.=105.127991m. Speed=0.108000m/h.</desc>
<speed>0.030000</speed>
</trkpt>
<trkpt lat="55.912189" lon="26.501335">
<ele>105.127991</ele>
<time>2010-08-29T17:47:06Z</time>
<desc>lat.=55.912189, lon.=26.501335, Alt.=105.127991m. Speed=0.072000m/h.</desc>
<speed>0.020000</speed>
</trkpt>
<trkpt lat="55.912189" lon="26.501333">
<ele>105.124084</ele>
<time>2010-08-29T17:47:07Z</time>
<desc>lat.=55.912189, lon.=26.501333, Alt.=105.124084m. Speed=0.000000m/h.</desc>
<speed>0.000000</speed>
</trkpt>
<trkpt lat="55.912189" lon="26.501333">
<ele>105.124084</ele>
<time>2010-08-29T17:47:08Z</time>
<desc>lat.=55.912189, lon.=26.501333, Alt.=105.124084m. Speed=0.036000m/h.</desc>
<speed>0.010000</speed>
</trkpt>
<trkpt lat="55.912189" lon="26.501333">
<ele>105.120178</ele>
<time>2010-08-29T17:47:09Z</time>
<desc>lat.=55.912189, lon.=26.501333, Alt.=105.120178m. Speed=0.108000m/h.</desc>
<speed>0.030000</speed>
</trkpt>
<trkpt lat="55.912189" lon="26.501333">
<ele>105.120178</ele>
<time>2010-08-29T17:47:10Z</time>
<desc>lat.=55.912189, lon.=26.501333, Alt.=105.120178m. Speed=0.108000m/h.</desc>
<speed>0.030000</speed>
</trkpt>
<trkpt lat="55.912189" lon="26.501333">
<ele>105.122131</ele>
<time>2010-08-29T17:47:11Z</time>
<desc>lat.=55.912189, lon.=26.501333, Alt.=105.122131m. Speed=0.000000m/h.</desc>
<speed>0.000000</speed>
</trkpt>
<trkpt lat="55.912189" lon="26.501333">
<ele>105.120178</ele>
<time>2010-08-29T17:47:12Z</time>
<desc>lat.=55.912189, lon.=26.501333, Alt.=105.120178m. Speed=0.072000m/h.</desc>
<speed>0.020000</speed>
</trkpt>
<trkpt lat="55.912189" lon="26.501333">
<ele>105.112366</ele>
<time>2010-08-29T17:47:13Z</time>
<desc>lat.=55.912189, lon.=26.501333, Alt.=105.112366m. Speed=0.036000m/h.</desc>
<speed>0.010000</speed>
</trkpt>
<trkpt lat="55.912189" lon="26.501333">
<ele>105.106506</ele>
<time>2010-08-29T17:47:14Z</time>
<desc>lat.=55.912189, lon.=26.501333, Alt.=105.106506m. Speed=0.000000m/h.</desc>
<speed>0.000000</speed>
</trkpt>
<trkpt lat="55.912189" lon="26.501333">
<ele>105.104553</ele>
<time>2010-08-29T17:47:15Z</time>
<desc>lat.=55.912189, lon.=26.501333, Alt.=105.104553m. Speed=0.036000m/h.</desc>
<speed>0.010000</speed>
</trkpt>
<trkpt lat="55.912189" lon="26.501333">
<ele>105.102600</ele>
<time>2010-08-29T17:47:16Z</time>
<desc>lat.=55.912189, lon.=26.501333, Alt.=105.102600m. Speed=0.036000m/h.</desc>
<speed>0.010000</speed>
</trkpt>
<trkpt lat="55.912189" lon="26.501333">
<ele>105.090881</ele>
<time>2010-08-29T17:47:17Z</time>
<desc>lat.=55.912189, lon.=26.501333, Alt.=105.090881m. Speed=0.036000m/h.</desc>
<speed>0.010000</speed>
</trkpt>
<trkpt lat="55.912189" lon="26.501333">
<ele>105.081116</ele>
<time>2010-08-29T17:47:18Z</time>
<desc>lat.=55.912189, lon.=26.501333, Alt.=105.081116m. Speed=0.036000m/h.</desc>
<speed>0.010000</speed>
</trkpt>
<trkpt lat="55.912189" lon="26.501333">
<ele>105.077209</ele>
<time>2010-08-29T17:47:19Z</time>
<desc>lat.=55.912189, lon.=26.501333, Alt.=105.077209m. Speed=0.036000m/h.</desc>
<speed>0.010000</speed>
</trkpt>
<trkpt lat="55.912189" lon="26.501333">
<ele>105.075256</ele>
<time>2010-08-29T17:47:20Z</time>
<desc>lat.=55.912189, lon.=26.501333, Alt.=105.075256m. Speed=0.072000m/h.</desc>
<speed>0.020000</speed>
</trkpt>
<trkpt lat="55.912189" lon="26.501333">
<ele>105.071350</ele>
<time>2010-08-29T17:47:21Z</time>
<desc>lat.=55.912189, lon.=26.501333, Alt.=105.071350m. Speed=0.036000m/h.</desc>
<speed>0.010000</speed>
</trkpt>
<trkpt lat="55.912189" lon="26.501333">
<ele>105.065491</ele>
<time>2010-08-29T17:47:22Z</time>
<desc>lat.=55.912189, lon.=26.501333, Alt.=105.065491m. Speed=0.000000m/h.</desc>
<speed>0.000000</speed>
</trkpt>
<trkpt lat="55.912189" lon="26.501333">
<ele>105.049866</ele>
<time>2010-08-29T17:47:23Z</time>
<desc>lat.=55.912189, lon.=26.501333, Alt.=105.049866m. Speed=0.000000m/h.</desc>
<speed>0.000000</speed>
</trkpt>
<trkpt lat="55.912189" lon="26.501331">
<ele>105.042053</ele>
<time>2010-08-29T17:47:24Z</time>
<desc>lat.=55.912189, lon.=26.501331, Alt.=105.042053m. Speed=0.000000m/h.</desc>
<speed>0.000000</speed>
</trkpt>
<trkpt lat="55.912189" lon="26.501331">
<ele>105.034241</ele>
<time>2010-08-29T17:47:25Z</time>
<desc>lat.=55.912189, lon.=26.501331, Alt.=105.034241m. Speed=0.000000m/h.</desc>
<speed>0.000000</speed>
</trkpt>
<trkpt lat="55.912189" lon="26.501331">
<ele>105.024475</ele>
<time>2010-08-29T17:47:26Z</time>
<desc>lat.=55.912189, lon.=26.501331, Alt.=105.024475m. Speed=0.000000m/h.</desc>
<speed>0.000000</speed>
</trkpt>
<trkpt lat="55.912189" lon="26.501331">
<ele>105.012756</ele>
<time>2010-08-29T17:47:27Z</time>
<desc>lat.=55.912189, lon.=26.501331, Alt.=105.012756m. Speed=0.072000m/h.</desc>
<speed>0.020000</speed>
</trkpt>
<trkpt lat="55.912189" lon="26.501331">
<ele>104.999084</ele>
<time>2010-08-29T17:47:28Z</time>
<desc>lat.=55.912189, lon.=26.501331, Alt.=104.999084m. Speed=0.108000m/h.</desc>
<speed>0.030000</speed>
</trkpt>
<trkpt lat="55.912189" lon="26.501331">
<ele>104.991272</ele>
<time>2010-08-29T17:47:29Z</time>
<desc>lat.=55.912189, lon.=26.501331, Alt.=104.991272m. Speed=0.036000m/h.</desc>
<speed>0.010000</speed>
</trkpt>
<trkpt lat="55.912189" lon="26.501331">
<ele>104.983459</ele>
<time>2010-08-29T17:47:30Z</time>
<desc>lat.=55.912189, lon.=26.501331, Alt.=104.983459m. Speed=0.072000m/h.</desc>
<speed>0.020000</speed>
</trkpt>
<trkpt lat="55.912189" lon="26.501331">
<ele>104.975647</ele>
<time>2010-08-29T17:47:31Z</time>
<desc>lat.=55.912189, lon.=26.501331, Alt.=104.975647m. Speed=0.000000m/h.</desc>
<speed>0.000000</speed>
</trkpt>
<trkpt lat="55.912189" lon="26.501331">
<ele>104.961975</ele>
<time>2010-08-29T17:47:32Z</time>
<desc>lat.=55.912189, lon.=26.501331, Alt.=104.961975m. Speed=0.036000m/h.</desc>
<speed>0.010000</speed>
</trkpt>
<trkpt lat="55.912189" lon="26.501331">
<ele>104.948303</ele>
<time>2010-08-29T17:47:33Z</time>
<desc>lat.=55.912189, lon.=26.501331, Alt.=104.948303m. Speed=0.036000m/h.</desc>
<speed>0.010000</speed>
</trkpt>
<trkpt lat="55.912189" lon="26.501331">
<ele>104.946350</ele>
<time>2010-08-29T17:47:34Z</time>
<desc>lat.=55.912189, lon.=26.501331, Alt.=104.946350m. Speed=0.072000m/h.</desc>
<speed>0.020000</speed>
</trkpt>
<trkpt lat="55.912189" lon="26.501331">
<ele>104.948303</ele>
<time>2010-08-29T17:47:35Z</time>
<desc>lat.=55.912189, lon.=26.501331, Alt.=104.948303m. Speed=0.072000m/h.</desc>
<speed>0.020000</speed>
</trkpt>
<trkpt lat="55.912189" lon="26.501331">
<ele>104.946350</ele>
<time>2010-08-29T17:47:36Z</time>
<desc>lat.=55.912189, lon.=26.501331, Alt.=104.946350m. Speed=0.108000m/h.</desc>
<speed>0.030000</speed>
</trkpt>
<trkpt lat="55.912189" lon="26.501331">
<ele>104.934631</ele>
<time>2010-08-29T17:47:37Z</time>
<desc>lat.=55.912189, lon.=26.501331, Alt.=104.934631m. Speed=0.000000m/h.</desc>
<speed>0.000000</speed>
</trkpt>
<trkpt lat="55.912189" lon="26.501331">
<ele>104.920959</ele>
<time>2010-08-29T17:47:38Z</time>
<desc>lat.=55.912189, lon.=26.501331, Alt.=104.920959m. Speed=0.036000m/h.</desc>
<speed>0.010000</speed>
</trkpt>
<trkpt lat="55.912189" lon="26.501331">
<ele>104.907288</ele>
<time>2010-08-29T17:47:39Z</time>
<desc>lat.=55.912189, lon.=26.501331, Alt.=104.907288m. Speed=0.036000m/h.</desc>
<speed>0.010000</speed>
</trkpt>
<trkpt lat="55.912189" lon="26.501331">
<ele>104.901428</ele>
<time>2010-08-29T17:47:40Z</time>
<desc>lat.=55.912189, lon.=26.501331, Alt.=104.901428m. Speed=0.036000m/h.</desc>
<speed>0.010000</speed>
</trkpt>
<trkpt lat="55.912189" lon="26.501331">
<ele>104.899475</ele>
<time>2010-08-29T17:47:41Z</time>
<desc>lat.=55.912189, lon.=26.501331, Alt.=104.899475m. Speed=0.036000m/h.</desc>
<speed>0.010000</speed>
</trkpt>
<trkpt lat="55.912189" lon="26.501331">
<ele>104.893616</ele>
<time>2010-08-29T17:47:42Z</time>
<desc>lat.=55.912189, lon.=26.501331, Alt.=104.893616m. Speed=0.036000m/h.</desc>
<speed>0.010000</speed>
</trkpt>
<trkpt lat="55.912189" lon="26.501331">
<ele>104.881897</ele>
<time>2010-08-29T17:47:43Z</time>
<desc>lat.=55.912189, lon.=26.501331, Alt.=104.881897m. Speed=0.036000m/h.</desc>
<speed>0.010000</speed>
</trkpt>
<trkpt lat="55.912189" lon="26.501331">
<ele>104.874084</ele>
<time>2010-08-29T17:47:44Z</time>
<desc>lat.=55.912189, lon.=26.501331, Alt.=104.874084m. Speed=0.036000m/h.</desc>
<speed>0.010000</speed>
</trkpt>
<trkpt lat="55.912189" lon="26.501331">
<ele>104.862366</ele>
<time>2010-08-29T17:47:45Z</time>
<desc>lat.=55.912189, lon.=26.501331, Alt.=104.862366m. Speed=0.036000m/h.</desc>
<speed>0.010000</speed>
</trkpt>
<trkpt lat="55.912189" lon="26.501331">
<ele>104.860413</ele>
<time>2010-08-29T17:47:46Z</time>
<desc>lat.=55.912189, lon.=26.501331, Alt.=104.860413m. Speed=0.072000m/h.</desc>
<speed>0.020000</speed>
</trkpt>
<trkpt lat="55.912189" lon="26.501331">
<ele>104.856506</ele>
<time>2010-08-29T17:47:47Z</time>
<desc>lat.=55.912189, lon.=26.501331, Alt.=104.856506m. Speed=0.108000m/h.</desc>
<speed>0.030000</speed>
</trkpt>
<trkpt lat="55.912189" lon="26.501331">
<ele>104.852600</ele>
<time>2010-08-29T17:47:48Z</time>
<desc>lat.=55.912189, lon.=26.501331, Alt.=104.852600m. Speed=0.036000m/h.</desc>
<speed>0.010000</speed>
</trkpt>
<trkpt lat="55.912189" lon="26.501331">
<ele>104.842834</ele>
<time>2010-08-29T17:47:49Z</time>
<desc>lat.=55.912189, lon.=26.501331, Alt.=104.842834m. Speed=0.036000m/h.</desc>
<speed>0.010000</speed>
</trkpt>
<trkpt lat="55.912189" lon="26.501331">
<ele>104.831116</ele>
<time>2010-08-29T17:47:50Z</time>
<desc>lat.=55.912189, lon.=26.501331, Alt.=104.831116m. Speed=0.072000m/h.</desc>
<speed>0.020000</speed>
</trkpt>
<trkpt lat="55.912189" lon="26.501331">
<ele>104.819397</ele>
<time>2010-08-29T17:47:51Z</time>
<desc>lat.=55.912189, lon.=26.501331, Alt.=104.819397m. Speed=0.036000m/h.</desc>
<speed>0.010000</speed>
</trkpt>
<trkpt lat="55.912189" lon="26.501331">
<ele>104.813538</ele>
<time>2010-08-29T17:47:52Z</time>
<desc>lat.=55.912189, lon.=26.501331, Alt.=104.813538m. Speed=0.000000m/h.</desc>
<speed>0.000000</speed>
</trkpt>
<trkpt lat="55.912189" lon="26.501331">
<ele>104.813538</ele>
<time>2010-08-29T17:47:53Z</time>
<desc>lat.=55.912189, lon.=26.501331, Alt.=104.813538m. Speed=0.000000m/h.</desc>
<speed>0.000000</speed>
</trkpt>
<trkpt lat="55.912189" lon="26.501331">
<ele>104.809631</ele>
<time>2010-08-29T17:47:54Z</time>
<desc>lat.=55.912189, lon.=26.501331, Alt.=104.809631m. Speed=0.000000m/h.</desc>
<speed>0.000000</speed>
</trkpt>
<trkpt lat="55.912189" lon="26.501331">
<ele>104.799866</ele>
<time>2010-08-29T17:47:55Z</time>
<desc>lat.=55.912189, lon.=26.501331, Alt.=104.799866m. Speed=0.036000m/h.</desc>
<speed>0.010000</speed>
</trkpt>
<trkpt lat="55.912189" lon="26.501329">
<ele>104.786194</ele>
<time>2010-08-29T17:47:56Z</time>
<desc>lat.=55.912189, lon.=26.501329, Alt.=104.786194m. Speed=0.036000m/h.</desc>
<speed>0.010000</speed>
</trkpt>
<trkpt lat="55.912193" lon="26.501329">
<ele>104.764709</ele>
<time>2010-08-29T17:47:57Z</time>
<desc>lat.=55.912193, lon.=26.501329, Alt.=104.764709m. Speed=0.108000m/h.</desc>
<speed>0.030000</speed>
</trkpt>
<trkpt lat="55.912193" lon="26.501329">
<ele>104.747131</ele>
<time>2010-08-29T17:47:58Z</time>
<desc>lat.=55.912193, lon.=26.501329, Alt.=104.747131m. Speed=0.036000m/h.</desc>
<speed>0.010000</speed>
</trkpt>
<trkpt lat="55.912193" lon="26.501329">
<ele>104.743225</ele>
<time>2010-08-29T17:47:59Z</time>
<desc>lat.=55.912193, lon.=26.501329, Alt.=104.743225m. Speed=0.036000m/h.</desc>
<speed>0.010000</speed>
</trkpt>
<trkpt lat="55.912193" lon="26.501329">
<ele>104.741272</ele>
<time>2010-08-29T17:48:00Z</time>
<desc>lat.=55.912193, lon.=26.501329, Alt.=104.741272m. Speed=0.036000m/h.</desc>
<speed>0.010000</speed>
</trkpt>
<trkpt lat="55.912193" lon="26.501329">
<ele>104.745178</ele>
<time>2010-08-29T17:48:01Z</time>
<desc>lat.=55.912193, lon.=26.501329, Alt.=104.745178m. Speed=0.072000m/h.</desc>
<speed>0.020000</speed>
</trkpt>
<trkpt lat="55.912193" lon="26.501329">
<ele>104.741272</ele>
<time>2010-08-29T17:48:02Z</time>
<desc>lat.=55.912193, lon.=26.501329, Alt.=104.741272m. Speed=0.000000m/h.</desc>
<speed>0.000000</speed>
</trkpt>
<trkpt lat="55.912193" lon="26.501329">
<ele>104.733459</ele>
<time>2010-08-29T17:48:03Z</time>
<desc>lat.=55.912193, lon.=26.501329, Alt.=104.733459m. Speed=0.036000m/h.</desc>
<speed>0.010000</speed>
</trkpt>
<trkpt lat="55.912193" lon="26.501329">
<ele>104.723694</ele>
<time>2010-08-29T17:48:04Z</time>
<desc>lat.=55.912193, lon.=26.501329, Alt.=104.723694m. Speed=0.036000m/h.</desc>
<speed>0.010000</speed>
</trkpt>
<trkpt lat="55.912193" lon="26.501329">
<ele>104.715881</ele>
<time>2010-08-29T17:48:05Z</time>
<desc>lat.=55.912193, lon.=26.501329, Alt.=104.715881m. Speed=0.000000m/h.</desc>
<speed>0.000000</speed>
</trkpt>
<trkpt lat="55.912193" lon="26.501329">
<ele>104.708069</ele>
<time>2010-08-29T17:48:06Z</time>
<desc>lat.=55.912193, lon.=26.501329, Alt.=104.708069m. Speed=0.000000m/h.</desc>
<speed>0.000000</speed>
</trkpt>
<trkpt lat="55.912193" lon="26.501329">
<ele>104.702209</ele>
<time>2010-08-29T17:48:07Z</time>
<desc>lat.=55.912193, lon.=26.501329, Alt.=104.702209m. Speed=0.000000m/h.</desc>
<speed>0.000000</speed>
</trkpt>
<trkpt lat="55.912193" lon="26.501329">
<ele>104.700256</ele>
<time>2010-08-29T17:48:08Z</time>
<desc>lat.=55.912193, lon.=26.501329, Alt.=104.700256m. Speed=0.036000m/h.</desc>
<speed>0.010000</speed>
</trkpt>
<trkpt lat="55.912193" lon="26.501329">
<ele>104.694397</ele>
<time>2010-08-29T17:48:09Z</time>
<desc>lat.=55.912193, lon.=26.501329, Alt.=104.694397m. Speed=0.036000m/h.</desc>
<speed>0.010000</speed>
</trkpt>
<trkpt lat="55.912193" lon="26.501329">
<ele>104.686584</ele>
<time>2010-08-29T17:48:10Z</time>
<desc>lat.=55.912193, lon.=26.501329, Alt.=104.686584m. Speed=0.036000m/h.</desc>
<speed>0.010000</speed>
</trkpt>
<trkpt lat="55.912193" lon="26.501329">
<ele>104.680725</ele>
<time>2010-08-29T17:48:11Z</time>
<desc>lat.=55.912193, lon.=26.501329, Alt.=104.680725m. Speed=0.000000m/h.</desc>
<speed>0.000000</speed>
</trkpt>
<trkpt lat="55.912193" lon="26.501329">
<ele>104.669006</ele>
<time>2010-08-29T17:48:12Z</time>
<desc>lat.=55.912193, lon.=26.501329, Alt.=104.669006m. Speed=0.000000m/h.</desc>
<speed>0.000000</speed>
</trkpt>
<trkpt lat="55.912193" lon="26.501329">
<ele>104.659241</ele>
<time>2010-08-29T17:48:13Z</time>
<desc>lat.=55.912193, lon.=26.501329, Alt.=104.659241m. Speed=0.036000m/h.</desc>
<speed>0.010000</speed>
</trkpt>
<trkpt lat="55.912193" lon="26.501329">
<ele>104.643616</ele>
<time>2010-08-29T17:48:14Z</time>
<desc>lat.=55.912193, lon.=26.501329, Alt.=104.643616m. Speed=0.036000m/h.</desc>
<speed>0.010000</speed>
</trkpt>
<trkpt lat="55.912193" lon="26.501329">
<ele>104.633850</ele>
<time>2010-08-29T17:48:15Z</time>
<desc>lat.=55.912193, lon.=26.501329, Alt.=104.633850m. Speed=0.000000m/h.</desc>
<speed>0.000000</speed>
</trkpt>
<trkpt lat="55.912193" lon="26.501329">
<ele>104.626038</ele>
<time>2010-08-29T17:48:16Z</time>
<desc>lat.=55.912193, lon.=26.501329, Alt.=104.626038m. Speed=0.036000m/h.</desc>
<speed>0.010000</speed>
</trkpt>
<trkpt lat="55.912193" lon="26.501329">
<ele>104.618225</ele>
<time>2010-08-29T17:48:17Z</time>
<desc>lat.=55.912193, lon.=26.501329, Alt.=104.618225m. Speed=0.000000m/h.</desc>
<speed>0.000000</speed>
</trkpt>
<trkpt lat="55.912193" lon="26.501329">
<ele>104.612366</ele>
<time>2010-08-29T17:48:18Z</time>
<desc>lat.=55.912193, lon.=26.501329, Alt.=104.612366m. Speed=0.000000m/h.</desc>
<speed>0.000000</speed>
</trkpt>
<trkpt lat="55.912193" lon="26.501329">
<ele>104.606506</ele>
<time>2010-08-29T17:48:19Z</time>
<desc>lat.=55.912193, lon.=26.501329, Alt.=104.606506m. Speed=0.000000m/h.</desc>
<speed>0.000000</speed>
</trkpt>
<trkpt lat="55.912193" lon="26.501329">
<ele>104.596741</ele>
<time>2010-08-29T17:48:20Z</time>
<desc>lat.=55.912193, lon.=26.501329, Alt.=104.596741m. Speed=0.036000m/h.</desc>
<speed>0.010000</speed>
</trkpt>
<trkpt lat="55.912193" lon="26.501329">
<ele>104.577209</ele>
<time>2010-08-29T17:48:21Z</time>
<desc>lat.=55.912193, lon.=26.501329, Alt.=104.577209m. Speed=0.036000m/h.</desc>
<speed>0.010000</speed>
</trkpt>
<trkpt lat="55.912193" lon="26.501329">
<ele>104.545959</ele>
<time>2010-08-29T17:48:22Z</time>
<desc>lat.=55.912193, lon.=26.501329, Alt.=104.545959m. Speed=0.108000m/h.</desc>
<speed>0.030000</speed>
</trkpt>
<trkpt lat="55.912193" lon="26.501329">
<ele>104.506897</ele>
<time>2010-08-29T17:48:23Z</time>
<desc>lat.=55.912193, lon.=26.501329, Alt.=104.506897m. Speed=0.108000m/h.</desc>
<speed>0.030000</speed>
</trkpt>
<trkpt lat="55.912193" lon="26.501331">
<ele>104.458069</ele>
<time>2010-08-29T17:48:24Z</time>
<desc>lat.=55.912193, lon.=26.501331, Alt.=104.458069m. Speed=0.072000m/h.</desc>
<speed>0.020000</speed>
</trkpt>
<trkpt lat="55.912189" lon="26.501331">
<ele>104.407288</ele>
<time>2010-08-29T17:48:25Z</time>
<desc>lat.=55.912189, lon.=26.501331, Alt.=104.407288m. Speed=0.072000m/h.</desc>
<speed>0.020000</speed>
</trkpt>
<trkpt lat="55.912189" lon="26.501331">
<ele>104.354553</ele>
<time>2010-08-29T17:48:26Z</time>
<desc>lat.=55.912189, lon.=26.501331, Alt.=104.354553m. Speed=0.072000m/h.</desc>
<speed>0.020000</speed>
</trkpt>
<trkpt lat="55.912189" lon="26.501331">
<ele>104.311584</ele>
<time>2010-08-29T17:48:27Z</time>
<desc>lat.=55.912189, lon.=26.501331, Alt.=104.311584m. Speed=0.072000m/h.</desc>
<speed>0.020000</speed>
</trkpt>
<trkpt lat="55.912189" lon="26.501331">
<ele>104.266663</ele>
<time>2010-08-29T17:48:28Z</time>
<desc>lat.=55.912189, lon.=26.501331, Alt.=104.266663m. Speed=0.108000m/h.</desc>
<speed>0.030000</speed>
</trkpt>
<trkpt lat="55.912189" lon="26.501331">
<ele>104.223694</ele>
<time>2010-08-29T17:48:29Z</time>
<desc>lat.=55.912189, lon.=26.501331, Alt.=104.223694m. Speed=0.072000m/h.</desc>
<speed>0.020000</speed>
</trkpt>
<trkpt lat="55.912189" lon="26.501333">
<ele>104.180725</ele>
<time>2010-08-29T17:48:30Z</time>
<desc>lat.=55.912189, lon.=26.501333, Alt.=104.180725m. Speed=0.144000m/h.</desc>
<speed>0.040000</speed>
</trkpt>
<trkpt lat="55.912189" lon="26.501333">
<ele>104.133850</ele>
<time>2010-08-29T17:48:31Z</time>
<desc>lat.=55.912189, lon.=26.501333, Alt.=104.133850m. Speed=0.144000m/h.</desc>
<speed>0.040000</speed>
</trkpt>
<trkpt lat="55.912189" lon="26.501333">
<ele>104.077209</ele>
<time>2010-08-29T17:48:32Z</time>
<desc>lat.=55.912189, lon.=26.501333, Alt.=104.077209m. Speed=0.216000m/h.</desc>
<speed>0.060000</speed>
</trkpt>
<trkpt lat="55.912189" lon="26.501335">
<ele>104.018616</ele>
<time>2010-08-29T17:48:33Z</time>
<desc>lat.=55.912189, lon.=26.501335, Alt.=104.018616m. Speed=0.180000m/h.</desc>
<speed>0.050000</speed>
</trkpt>
<trkpt lat="55.912189" lon="26.501335">
<ele>103.946350</ele>
<time>2010-08-29T17:48:34Z</time>
<desc>lat.=55.912189, lon.=26.501335, Alt.=103.946350m. Speed=0.180000m/h.</desc>
<speed>0.050000</speed>
</trkpt>
<trkpt lat="55.912189" lon="26.501337">
<ele>103.862366</ele>
<time>2010-08-29T17:48:35Z</time>
<desc>lat.=55.912189, lon.=26.501337, Alt.=103.862366m. Speed=0.180000m/h.</desc>
<speed>0.050000</speed>
</trkpt>
<trkpt lat="55.912189" lon="26.501337">
<ele>103.772522</ele>
<time>2010-08-29T17:48:36Z</time>
<desc>lat.=55.912189, lon.=26.501337, Alt.=103.772522m. Speed=0.180000m/h.</desc>
<speed>0.050000</speed>
</trkpt>
<trkpt lat="55.912189" lon="26.501339">
<ele>103.674866</ele>
<time>2010-08-29T17:48:37Z</time>
<desc>lat.=55.912189, lon.=26.501339, Alt.=103.674866m. Speed=0.180000m/h.</desc>
<speed>0.050000</speed>
</trkpt>
<trkpt lat="55.912189" lon="26.501339">
<ele>103.569397</ele>
<time>2010-08-29T17:48:38Z</time>
<desc>lat.=55.912189, lon.=26.501339, Alt.=103.569397m. Speed=0.252000m/h.</desc>
<speed>0.070000</speed>
</trkpt>
<trkpt lat="55.912189" lon="26.501341">
<ele>103.454163</ele>
<time>2010-08-29T17:48:39Z</time>
<desc>lat.=55.912189, lon.=26.501341, Alt.=103.454163m. Speed=0.180000m/h.</desc>
<speed>0.050000</speed>
</trkpt>
<trkpt lat="55.912189" lon="26.501341">
<ele>103.340881</ele>
<time>2010-08-29T17:48:40Z</time>
<desc>lat.=55.912189, lon.=26.501341, Alt.=103.340881m. Speed=0.252000m/h.</desc>
<speed>0.070000</speed>
</trkpt>
<trkpt lat="55.912189" lon="26.501343">
<ele>103.229553</ele>
<time>2010-08-29T17:48:41Z</time>
<desc>lat.=55.912189, lon.=26.501343, Alt.=103.229553m. Speed=0.288000m/h.</desc>
<speed>0.080000</speed>
</trkpt>
<trkpt lat="55.912189" lon="26.501343">
<ele>103.122131</ele>
<time>2010-08-29T17:48:42Z</time>
<desc>lat.=55.912189, lon.=26.501343, Alt.=103.122131m. Speed=0.324000m/h.</desc>
<speed>0.090000</speed>
</trkpt>
<trkpt lat="55.912189" lon="26.501345">
<ele>103.014709</ele>
<time>2010-08-29T17:48:43Z</time>
<desc>lat.=55.912189, lon.=26.501345, Alt.=103.014709m. Speed=0.324000m/h.</desc>
<speed>0.090000</speed>
</trkpt>
<trkpt lat="55.912189" lon="26.501347">
<ele>102.909241</ele>
<time>2010-08-29T17:48:44Z</time>
<desc>lat.=55.912189, lon.=26.501347, Alt.=102.909241m. Speed=0.396000m/h.</desc>
<speed>0.110000</speed>
</trkpt>
<trkpt lat="55.912189" lon="26.501348">
<ele>102.807678</ele>
<time>2010-08-29T17:48:45Z</time>
<desc>lat.=55.912189, lon.=26.501348, Alt.=102.807678m. Speed=0.468000m/h.</desc>
<speed>0.130000</speed>
</trkpt>
<trkpt lat="55.912186" lon="26.501350">
<ele>102.719788</ele>
<time>2010-08-29T17:48:46Z</time>
<desc>lat.=55.912186, lon.=26.501350, Alt.=102.719788m. Speed=0.504000m/h.</desc>
<speed>0.140000</speed>
</trkpt>
<trkpt lat="55.912186" lon="26.501352">
<ele>102.629944</ele>
<time>2010-08-29T17:48:47Z</time>
<desc>lat.=55.912186, lon.=26.501352, Alt.=102.629944m. Speed=0.540000m/h.</desc>
<speed>0.150000</speed>
</trkpt>
<trkpt lat="55.912186" lon="26.501354">
<ele>102.540100</ele>
<time>2010-08-29T17:48:48Z</time>
<desc>lat.=55.912186, lon.=26.501354, Alt.=102.540100m. Speed=0.540000m/h.</desc>
<speed>0.150000</speed>
</trkpt>
<trkpt lat="55.912186" lon="26.501358">
<ele>102.450256</ele>
<time>2010-08-29T17:48:49Z</time>
<desc>lat.=55.912186, lon.=26.501358, Alt.=102.450256m. Speed=0.576000m/h.</desc>
<speed>0.160000</speed>
</trkpt>
<trkpt lat="55.912186" lon="26.501360">
<ele>102.366272</ele>
<time>2010-08-29T17:48:50Z</time>
<desc>lat.=55.912186, lon.=26.501360, Alt.=102.366272m. Speed=0.576000m/h.</desc>
<speed>0.160000</speed>
</trkpt>
<trkpt lat="55.912186" lon="26.501362">
<ele>102.274475</ele>
<time>2010-08-29T17:48:51Z</time>
<desc>lat.=55.912186, lon.=26.501362, Alt.=102.274475m. Speed=0.612000m/h.</desc>
<speed>0.170000</speed>
</trkpt>
<trkpt lat="55.912186" lon="26.501366">
<ele>102.186584</ele>
<time>2010-08-29T17:48:52Z</time>
<desc>lat.=55.912186, lon.=26.501366, Alt.=102.186584m. Speed=0.576000m/h.</desc>
<speed>0.160000</speed>
</trkpt>
<trkpt lat="55.912186" lon="26.501368">
<ele>102.088928</ele>
<time>2010-08-29T17:48:53Z</time>
<desc>lat.=55.912186, lon.=26.501368, Alt.=102.088928m. Speed=0.576000m/h.</desc>
<speed>0.160000</speed>
</trkpt>
<trkpt lat="55.912186" lon="26.501369">
<ele>101.989319</ele>
<time>2010-08-29T17:48:54Z</time>
<desc>lat.=55.912186, lon.=26.501369, Alt.=101.989319m. Speed=0.576000m/h.</desc>
<speed>0.160000</speed>
</trkpt>
<trkpt lat="55.912182" lon="26.501373">
<ele>101.879944</ele>
<time>2010-08-29T17:48:55Z</time>
<desc>lat.=55.912182, lon.=26.501373, Alt.=101.879944m. Speed=0.504000m/h.</desc>
<speed>0.140000</speed>
</trkpt>
<trkpt lat="55.912182" lon="26.501375">
<ele>101.762756</ele>
<time>2010-08-29T17:48:56Z</time>
<desc>lat.=55.912182, lon.=26.501375, Alt.=101.762756m. Speed=0.468000m/h.</desc>
<speed>0.130000</speed>
</trkpt>
<trkpt lat="55.912182" lon="26.501377">
<ele>101.637756</ele>
<time>2010-08-29T17:48:57Z</time>
<desc>lat.=55.912182, lon.=26.501377, Alt.=101.637756m. Speed=0.396000m/h.</desc>
<speed>0.110000</speed>
</trkpt>
<trkpt lat="55.912182" lon="26.501379">
<ele>101.508850</ele>
<time>2010-08-29T17:48:58Z</time>
<desc>lat.=55.912182, lon.=26.501379, Alt.=101.508850m. Speed=0.396000m/h.</desc>
<speed>0.110000</speed>
</trkpt>
<trkpt lat="55.912182" lon="26.501381">
<ele>101.374084</ele>
<time>2010-08-29T17:48:59Z</time>
<desc>lat.=55.912182, lon.=26.501381, Alt.=101.374084m. Speed=0.360000m/h.</desc>
<speed>0.100000</speed>
</trkpt>
<trkpt lat="55.912182" lon="26.501381">
<ele>101.237366</ele>
<time>2010-08-29T17:49:00Z</time>
<desc>lat.=55.912182, lon.=26.501381, Alt.=101.237366m. Speed=0.396000m/h.</desc>
<speed>0.110000</speed>
</trkpt>
<trkpt lat="55.912182" lon="26.501383">
<ele>101.092834</ele>
<time>2010-08-29T17:49:01Z</time>
<desc>lat.=55.912182, lon.=26.501383, Alt.=101.092834m. Speed=0.360000m/h.</desc>
<speed>0.100000</speed>
</trkpt>
<trkpt lat="55.912182" lon="26.501385">
<ele>100.936584</ele>
<time>2010-08-29T17:49:02Z</time>
<desc>lat.=55.912182, lon.=26.501385, Alt.=100.936584m. Speed=0.324000m/h.</desc>
<speed>0.090000</speed>
</trkpt>
<trkpt lat="55.912182" lon="26.501387">
<ele>100.776428</ele>
<time>2010-08-29T17:49:03Z</time>
<desc>lat.=55.912182, lon.=26.501387, Alt.=100.776428m. Speed=0.288000m/h.</desc>
<speed>0.080000</speed>
</trkpt>
<trkpt lat="55.912182" lon="26.501389">
<ele>100.610413</ele>
<time>2010-08-29T17:49:04Z</time>
<desc>lat.=55.912182, lon.=26.501389, Alt.=100.610413m. Speed=0.288000m/h.</desc>
<speed>0.080000</speed>
</trkpt>
<trkpt lat="55.912182" lon="26.501389">
<ele>100.432678</ele>
<time>2010-08-29T17:49:05Z</time>
<desc>lat.=55.912182, lon.=26.501389, Alt.=100.432678m. Speed=0.288000m/h.</desc>
<speed>0.080000</speed>
</trkpt>
<trkpt lat="55.912182" lon="26.501390">
<ele>100.243225</ele>
<time>2010-08-29T17:49:06Z</time>
<desc>lat.=55.912182, lon.=26.501390, Alt.=100.243225m. Speed=0.252000m/h.</desc>
<speed>0.070000</speed>
</trkpt>
<trkpt lat="55.912182" lon="26.501390">
<ele>100.047913</ele>
<time>2010-08-29T17:49:07Z</time>
<desc>lat.=55.912182, lon.=26.501390, Alt.=100.047913m. Speed=0.216000m/h.</desc>
<speed>0.060000</speed>
</trkpt>
<trkpt lat="55.912182" lon="26.501392">
<ele>99.848694</ele>
<time>2010-08-29T17:49:08Z</time>
<desc>lat.=55.912182, lon.=26.501392, Alt.=99.848694m. Speed=0.252000m/h.</desc>
<speed>0.070000</speed>
</trkpt>
<trkpt lat="55.912182" lon="26.501394">
<ele>99.641663</ele>
<time>2010-08-29T17:49:09Z</time>
<desc>lat.=55.912182, lon.=26.501394, Alt.=99.641663m. Speed=0.360000m/h.</desc>
<speed>0.100000</speed>
</trkpt>
<trkpt lat="55.912182" lon="26.501394">
<ele>99.428772</ele>
<time>2010-08-29T17:49:10Z</time>
<desc>lat.=55.912182, lon.=26.501394, Alt.=99.428772m. Speed=0.324000m/h.</desc>
<speed>0.090000</speed>
</trkpt>
<trkpt lat="55.912178" lon="26.501396">
<ele>99.206116</ele>
<time>2010-08-29T17:49:11Z</time>
<desc>lat.=55.912178, lon.=26.501396, Alt.=99.206116m. Speed=0.288000m/h.</desc>
<speed>0.080000</speed>
</trkpt>
<trkpt lat="55.912178" lon="26.501398">
<ele>98.979553</ele>
<time>2010-08-29T17:49:12Z</time>
<desc>lat.=55.912178, lon.=26.501398, Alt.=98.979553m. Speed=0.288000m/h.</desc>
<speed>0.080000</speed>
</trkpt>
<trkpt lat="55.912178" lon="26.501398">
<ele>98.749084</ele>
<time>2010-08-29T17:49:13Z</time>
<desc>lat.=55.912178, lon.=26.501398, Alt.=98.749084m. Speed=0.288000m/h.</desc>
<speed>0.080000</speed>
</trkpt>
<trkpt lat="55.912178" lon="26.501400">
<ele>98.516663</ele>
<time>2010-08-29T17:49:14Z</time>
<desc>lat.=55.912178, lon.=26.501400, Alt.=98.516663m. Speed=0.324000m/h.</desc>
<speed>0.090000</speed>
</trkpt>
<trkpt lat="55.912178" lon="26.501402">
<ele>98.272522</ele>
<time>2010-08-29T17:49:15Z</time>
<desc>lat.=55.912178, lon.=26.501402, Alt.=98.272522m. Speed=0.288000m/h.</desc>
<speed>0.080000</speed>
</trkpt>
<trkpt lat="55.912178" lon="26.501402">
<ele>98.028381</ele>
<time>2010-08-29T17:49:16Z</time>
<desc>lat.=55.912178, lon.=26.501402, Alt.=98.028381m. Speed=0.324000m/h.</desc>
<speed>0.090000</speed>
</trkpt>
<trkpt lat="55.912178" lon="26.501404">
<ele>97.774475</ele>
<time>2010-08-29T17:49:17Z</time>
<desc>lat.=55.912178, lon.=26.501404, Alt.=97.774475m. Speed=0.360000m/h.</desc>
<speed>0.100000</speed>
</trkpt>
<trkpt lat="55.912178" lon="26.501406">
<ele>97.520569</ele>
<time>2010-08-29T17:49:18Z</time>
<desc>lat.=55.912178, lon.=26.501406, Alt.=97.520569m. Speed=0.360000m/h.</desc>
<speed>0.100000</speed>
</trkpt>
<trkpt lat="55.912178" lon="26.501408">
<ele>97.264709</ele>
<time>2010-08-29T17:49:19Z</time>
<desc>lat.=55.912178, lon.=26.501408, Alt.=97.264709m. Speed=0.360000m/h.</desc>
<speed>0.100000</speed>
</trkpt>
<trkpt lat="55.912178" lon="26.501410">
<ele>97.006897</ele>
<time>2010-08-29T17:49:20Z</time>
<desc>lat.=55.912178, lon.=26.501410, Alt.=97.006897m. Speed=0.396000m/h.</desc>
<speed>0.110000</speed>
</trkpt>
<trkpt lat="55.912178" lon="26.501410">
<ele>96.758850</ele>
<time>2010-08-29T17:49:21Z</time>
<desc>lat.=55.912178, lon.=26.501410, Alt.=96.758850m. Speed=0.432000m/h.</desc>
<speed>0.120000</speed>
</trkpt>
<trkpt lat="55.912174" lon="26.501411">
<ele>96.506897</ele>
<time>2010-08-29T17:49:22Z</time>
<desc>lat.=55.912174, lon.=26.501411, Alt.=96.506897m. Speed=0.468000m/h.</desc>
<speed>0.130000</speed>
</trkpt>
<trkpt lat="55.912174" lon="26.501413">
<ele>96.249084</ele>
<time>2010-08-29T17:49:23Z</time>
<desc>lat.=55.912174, lon.=26.501413, Alt.=96.249084m. Speed=0.504000m/h.</desc>
<speed>0.140000</speed>
</trkpt>
<trkpt lat="55.912174" lon="26.501417">
<ele>95.991272</ele>
<time>2010-08-29T17:49:24Z</time>
<desc>lat.=55.912174, lon.=26.501417, Alt.=95.991272m. Speed=0.504000m/h.</desc>
<speed>0.140000</speed>
</trkpt>
<trkpt lat="55.912174" lon="26.501419">
<ele>95.731506</ele>
<time>2010-08-29T17:49:25Z</time>
<desc>lat.=55.912174, lon.=26.501419, Alt.=95.731506m. Speed=0.540000m/h.</desc>
<speed>0.150000</speed>
</trkpt>
<trkpt lat="55.912174" lon="26.501421">
<ele>95.469788</ele>
<time>2010-08-29T17:49:26Z</time>
<desc>lat.=55.912174, lon.=26.501421, Alt.=95.469788m. Speed=0.576000m/h.</desc>
<speed>0.160000</speed>
</trkpt>
<trkpt lat="55.912174" lon="26.501423">
<ele>95.200256</ele>
<time>2010-08-29T17:49:27Z</time>
<desc>lat.=55.912174, lon.=26.501423, Alt.=95.200256m. Speed=0.648000m/h.</desc>
<speed>0.180000</speed>
</trkpt>
<trkpt lat="55.912174" lon="26.501427">
<ele>94.944397</ele>
<time>2010-08-29T17:49:28Z</time>
<desc>lat.=55.912174, lon.=26.501427, Alt.=94.944397m. Speed=0.684000m/h.</desc>
<speed>0.190000</speed>
</trkpt>
<trkpt lat="55.912170" lon="26.501429">
<ele>94.696350</ele>
<time>2010-08-29T17:49:29Z</time>
<desc>lat.=55.912170, lon.=26.501429, Alt.=94.696350m. Speed=0.684000m/h.</desc>
<speed>0.190000</speed>
</trkpt>
<trkpt lat="55.912170" lon="26.501432">
<ele>94.450256</ele>
<time>2010-08-29T17:49:30Z</time>
<desc>lat.=55.912170, lon.=26.501432, Alt.=94.450256m. Speed=0.684000m/h.</desc>
<speed>0.190000</speed>
</trkpt>
<trkpt lat="55.912170" lon="26.501434">
<ele>94.217834</ele>
<time>2010-08-29T17:49:31Z</time>
<desc>lat.=55.912170, lon.=26.501434, Alt.=94.217834m. Speed=0.648000m/h.</desc>
<speed>0.180000</speed>
</trkpt>
<trkpt lat="55.912170" lon="26.501438">
<ele>93.993225</ele>
<time>2010-08-29T17:49:32Z</time>
<desc>lat.=55.912170, lon.=26.501438, Alt.=93.993225m. Speed=0.756000m/h.</desc>
<speed>0.210000</speed>
</trkpt>
<trkpt lat="55.912170" lon="26.501440">
<ele>93.772522</ele>
<time>2010-08-29T17:49:33Z</time>
<desc>lat.=55.912170, lon.=26.501440, Alt.=93.772522m. Speed=0.792000m/h.</desc>
<speed>0.220000</speed>
</trkpt>
<trkpt lat="55.912170" lon="26.501444">
<ele>93.573303</ele>
<time>2010-08-29T17:49:34Z</time>
<desc>lat.=55.912170, lon.=26.501444, Alt.=93.573303m. Speed=1.152000m/h.</desc>
<speed>0.320000</speed>
</trkpt>
<trkpt lat="55.912167" lon="26.501448">
<ele>93.700256</ele>
<time>2010-08-29T17:49:35Z</time>
<desc>lat.=55.912167, lon.=26.501448, Alt.=93.700256m. Speed=1.224000m/h.</desc>
<speed>0.340000</speed>
</trkpt>
<trkpt lat="55.912163" lon="26.501448">
<ele>93.569397</ele>
<time>2010-08-29T17:49:36Z</time>
<desc>lat.=55.912163, lon.=26.501448, Alt.=93.569397m. Speed=0.900000m/h.</desc>
<speed>0.250000</speed>
</trkpt>
<trkpt lat="55.912155" lon="26.501448">
<ele>93.079163</ele>
<time>2010-08-29T17:49:37Z</time>
<desc>lat.=55.912155, lon.=26.501448, Alt.=93.079163m. Speed=1.008000m/h.</desc>
<speed>0.280000</speed>
</trkpt>
<trkpt lat="55.912151" lon="26.501450">
<ele>92.448303</ele>
<time>2010-08-29T17:49:38Z</time>
<desc>lat.=55.912151, lon.=26.501450, Alt.=92.448303m. Speed=0.936000m/h.</desc>
<speed>0.260000</speed>
</trkpt>
<trkpt lat="55.912148" lon="26.501450">
<ele>92.333069</ele>
<time>2010-08-29T17:49:39Z</time>
<desc>lat.=55.912148, lon.=26.501450, Alt.=92.333069m. Speed=0.828000m/h.</desc>
<speed>0.230000</speed>
</trkpt>
<trkpt lat="55.912148" lon="26.501451">
<ele>92.190491</ele>
<time>2010-08-29T17:49:40Z</time>
<desc>lat.=55.912148, lon.=26.501451, Alt.=92.190491m. Speed=0.864000m/h.</desc>
<speed>0.240000</speed>
</trkpt>
<trkpt lat="55.912148" lon="26.501455">
<ele>92.055725</ele>
<time>2010-08-29T17:49:41Z</time>
<desc>lat.=55.912148, lon.=26.501455, Alt.=92.055725m. Speed=0.864000m/h.</desc>
<speed>0.240000</speed>
</trkpt>
<trkpt lat="55.912148" lon="26.501459">
<ele>91.926819</ele>
<time>2010-08-29T17:49:42Z</time>
<desc>lat.=55.912148, lon.=26.501459, Alt.=91.926819m. Speed=0.792000m/h.</desc>
<speed>0.220000</speed>
</trkpt>
<trkpt lat="55.912144" lon="26.501463">
<ele>91.805725</ele>
<time>2010-08-29T17:49:43Z</time>
<desc>lat.=55.912144, lon.=26.501463, Alt.=91.805725m. Speed=0.576000m/h.</desc>
<speed>0.160000</speed>
</trkpt>
<trkpt lat="55.912144" lon="26.501465">
<ele>91.688538</ele>
<time>2010-08-29T17:49:44Z</time>
<desc>lat.=55.912144, lon.=26.501465, Alt.=91.688538m. Speed=0.540000m/h.</desc>
<speed>0.150000</speed>
</trkpt>
<trkpt lat="55.912144" lon="26.501467">
<ele>91.575256</ele>
<time>2010-08-29T17:49:45Z</time>
<desc>lat.=55.912144, lon.=26.501467, Alt.=91.575256m. Speed=0.576000m/h.</desc>
<speed>0.160000</speed>
</trkpt>
<trkpt lat="55.912144" lon="26.501469">
<ele>91.465881</ele>
<time>2010-08-29T17:49:46Z</time>
<desc>lat.=55.912144, lon.=26.501469, Alt.=91.465881m. Speed=0.396000m/h.</desc>
<speed>0.110000</speed>
</trkpt>
<trkpt lat="55.912144" lon="26.501469">
<ele>91.364319</ele>
<time>2010-08-29T17:49:47Z</time>
<desc>lat.=55.912144, lon.=26.501469, Alt.=91.364319m. Speed=0.324000m/h.</desc>
<speed>0.090000</speed>
</trkpt>
<trkpt lat="55.912144" lon="26.501471">
<ele>91.274475</ele>
<time>2010-08-29T17:49:48Z</time>
<desc>lat.=55.912144, lon.=26.501471, Alt.=91.274475m. Speed=0.252000m/h.</desc>
<speed>0.070000</speed>
</trkpt>
<trkpt lat="55.912140" lon="26.501471">
<ele>91.176819</ele>
<time>2010-08-29T17:49:49Z</time>
<desc>lat.=55.912140, lon.=26.501471, Alt.=91.176819m. Speed=0.288000m/h.</desc>
<speed>0.080000</speed>
</trkpt>
<trkpt lat="55.912140" lon="26.501471">
<ele>91.086975</ele>
<time>2010-08-29T17:49:50Z</time>
<desc>lat.=55.912140, lon.=26.501471, Alt.=91.086975m. Speed=0.216000m/h.</desc>
<speed>0.060000</speed>
</trkpt>
<trkpt lat="55.912140" lon="26.501471">
<ele>90.995178</ele>
<time>2010-08-29T17:49:51Z</time>
<desc>lat.=55.912140, lon.=26.501471, Alt.=90.995178m. Speed=0.360000m/h.</desc>
<speed>0.100000</speed>
</trkpt>
<trkpt lat="55.912140" lon="26.501472">
<ele>90.905334</ele>
<time>2010-08-29T17:49:52Z</time>
<desc>lat.=55.912140, lon.=26.501472, Alt.=90.905334m. Speed=0.180000m/h.</desc>
<speed>0.050000</speed>
</trkpt>
<trkpt lat="55.912140" lon="26.501472">
<ele>90.811584</ele>
<time>2010-08-29T17:49:53Z</time>
<desc>lat.=55.912140, lon.=26.501472, Alt.=90.811584m. Speed=0.288000m/h.</desc>
<speed>0.080000</speed>
</trkpt>
<trkpt lat="55.912140" lon="26.501474">
<ele>90.725647</ele>
<time>2010-08-29T17:49:54Z</time>
<desc>lat.=55.912140, lon.=26.501474, Alt.=90.725647m. Speed=0.252000m/h.</desc>
<speed>0.070000</speed>
</trkpt>
<trkpt lat="55.912140" lon="26.501476">
<ele>90.641663</ele>
<time>2010-08-29T17:49:55Z</time>
<desc>lat.=55.912140, lon.=26.501476, Alt.=90.641663m. Speed=1.548000m/h.</desc>
<speed>0.430000</speed>
</trkpt>
<trkpt lat="55.912140" lon="26.501484">
<ele>90.815491</ele>
<time>2010-08-29T17:49:56Z</time>
<desc>lat.=55.912140, lon.=26.501484, Alt.=90.815491m. Speed=1.548000m/h.</desc>
<speed>0.430000</speed>
</trkpt>
<trkpt lat="55.912140" lon="26.501490">
<ele>91.690491</ele>
<time>2010-08-29T17:49:57Z</time>
<desc>lat.=55.912140, lon.=26.501490, Alt.=91.690491m. Speed=1.476000m/h.</desc>
<speed>0.410000</speed>
</trkpt>
<trkpt lat="55.912144" lon="26.501492">
<ele>92.323303</ele>
<time>2010-08-29T17:49:58Z</time>
<desc>lat.=55.912144, lon.=26.501492, Alt.=92.323303m. Speed=1.440000m/h.</desc>
<speed>0.400000</speed>
</trkpt>
<trkpt lat="55.912136" lon="26.501492">
<ele>92.790100</ele>
<time>2010-08-29T17:49:59Z</time>
<desc>lat.=55.912136, lon.=26.501492, Alt.=92.790100m. Speed=1.368000m/h.</desc>
<speed>0.380000</speed>
</trkpt>
<trkpt lat="55.912132" lon="26.501488">
<ele>93.256897</ele>
<time>2010-08-29T17:50:00Z</time>
<desc>lat.=55.912132, lon.=26.501488, Alt.=93.256897m. Speed=1.296000m/h.</desc>
<speed>0.360000</speed>
</trkpt>
<trkpt lat="55.912136" lon="26.501467">
<ele>93.053772</ele>
<time>2010-08-29T17:50:01Z</time>
<desc>lat.=55.912136, lon.=26.501467, Alt.=93.053772m. Speed=0.072000m/h.</desc>
<speed>0.020000</speed>
</trkpt>
<trkpt lat="55.912136" lon="26.501467">
<ele>93.313538</ele>
<time>2010-08-29T17:50:02Z</time>
<desc>lat.=55.912136, lon.=26.501467, Alt.=93.313538m. Speed=0.540000m/h.</desc>
<speed>0.150000</speed>
</trkpt>
<trkpt lat="55.912144" lon="26.501451">
<ele>93.891663</ele>
<time>2010-08-29T17:50:03Z</time>
<desc>lat.=55.912144, lon.=26.501451, Alt.=93.891663m. Speed=0.324000m/h.</desc>
<speed>0.090000</speed>
</trkpt>
<trkpt lat="55.912148" lon="26.501442">
<ele>94.368225</ele>
<time>2010-08-29T17:50:04Z</time>
<desc>lat.=55.912148, lon.=26.501442, Alt.=94.368225m. Speed=0.252000m/h.</desc>
<speed>0.070000</speed>
</trkpt>
<trkpt lat="55.912148" lon="26.501444">
<ele>94.385803</ele>
<time>2010-08-29T17:50:05Z</time>
<desc>lat.=55.912148, lon.=26.501444, Alt.=94.385803m. Speed=0.216000m/h.</desc>
<speed>0.060000</speed>
</trkpt>
<trkpt lat="55.912148" lon="26.501444">
<ele>94.411194</ele>
<time>2010-08-29T17:50:06Z</time>
<desc>lat.=55.912148, lon.=26.501444, Alt.=94.411194m. Speed=0.180000m/h.</desc>
<speed>0.050000</speed>
</trkpt>
<trkpt lat="55.912148" lon="26.501446">
<ele>94.434631</ele>
<time>2010-08-29T17:50:07Z</time>
<desc>lat.=55.912148, lon.=26.501446, Alt.=94.434631m. Speed=0.180000m/h.</desc>
<speed>0.050000</speed>
</trkpt>
<trkpt lat="55.912148" lon="26.501446">
<ele>94.460022</ele>
<time>2010-08-29T17:50:08Z</time>
<desc>lat.=55.912148, lon.=26.501446, Alt.=94.460022m. Speed=0.108000m/h.</desc>
<speed>0.030000</speed>
</trkpt>
<trkpt lat="55.912148" lon="26.501446">
<ele>94.485413</ele>
<time>2010-08-29T17:50:09Z</time>
<desc>lat.=55.912148, lon.=26.501446, Alt.=94.485413m. Speed=0.072000m/h.</desc>
<speed>0.020000</speed>
</trkpt>
<trkpt lat="55.912148" lon="26.501448">
<ele>94.514709</ele>
<time>2010-08-29T17:50:10Z</time>
<desc>lat.=55.912148, lon.=26.501448, Alt.=94.514709m. Speed=0.072000m/h.</desc>
<speed>0.020000</speed>
</trkpt>
<trkpt lat="55.912148" lon="26.501448">
<ele>94.542053</ele>
<time>2010-08-29T17:50:11Z</time>
<desc>lat.=55.912148, lon.=26.501448, Alt.=94.542053m. Speed=0.108000m/h.</desc>
<speed>0.030000</speed>
</trkpt>
<trkpt lat="55.912148" lon="26.501448">
<ele>94.569397</ele>
<time>2010-08-29T17:50:12Z</time>
<desc>lat.=55.912148, lon.=26.501448, Alt.=94.569397m. Speed=0.000000m/h.</desc>
<speed>0.000000</speed>
</trkpt>
<trkpt lat="55.912148" lon="26.501448">
<ele>94.596741</ele>
<time>2010-08-29T17:50:13Z</time>
<desc>lat.=55.912148, lon.=26.501448, Alt.=94.596741m. Speed=0.144000m/h.</desc>
<speed>0.040000</speed>
</trkpt>
<trkpt lat="55.912151" lon="26.501448">
<ele>94.622131</ele>
<time>2010-08-29T17:50:14Z</time>
<desc>lat.=55.912151, lon.=26.501448, Alt.=94.622131m. Speed=0.252000m/h.</desc>
<speed>0.070000</speed>
</trkpt>
<trkpt lat="55.912151" lon="26.501446">
<ele>94.645569</ele>
<time>2010-08-29T17:50:15Z</time>
<desc>lat.=55.912151, lon.=26.501446, Alt.=94.645569m. Speed=0.216000m/h.</desc>
<speed>0.060000</speed>
</trkpt>
<trkpt lat="55.912151" lon="26.501444">
<ele>94.670959</ele>
<time>2010-08-29T17:50:16Z</time>
<desc>lat.=55.912151, lon.=26.501444, Alt.=94.670959m. Speed=0.072000m/h.</desc>
<speed>0.020000</speed>
</trkpt>
<trkpt lat="55.912151" lon="26.501444">
<ele>94.692444</ele>
<time>2010-08-29T17:50:17Z</time>
<desc>lat.=55.912151, lon.=26.501444, Alt.=94.692444m. Speed=0.072000m/h.</desc>
<speed>0.020000</speed>
</trkpt>
<trkpt lat="55.912151" lon="26.501444">
<ele>94.690491</ele>
<time>2010-08-29T17:50:18Z</time>
<desc>lat.=55.912151, lon.=26.501444, Alt.=94.690491m. Speed=0.036000m/h.</desc>
<speed>0.010000</speed>
</trkpt>
<trkpt lat="55.912151" lon="26.501444">
<ele>94.694397</ele>
<time>2010-08-29T17:50:19Z</time>
<desc>lat.=55.912151, lon.=26.501444, Alt.=94.694397m. Speed=0.000000m/h.</desc>
<speed>0.000000</speed>
</trkpt>
<trkpt lat="55.912151" lon="26.501444">
<ele>94.694397</ele>
<time>2010-08-29T17:50:20Z</time>
<desc>lat.=55.912151, lon.=26.501444, Alt.=94.694397m. Speed=0.036000m/h.</desc>
<speed>0.010000</speed>
</trkpt>
<trkpt lat="55.912151" lon="26.501444">
<ele>94.698303</ele>
<time>2010-08-29T17:50:21Z</time>
<desc>lat.=55.912151, lon.=26.501444, Alt.=94.698303m. Speed=0.036000m/h.</desc>
<speed>0.010000</speed>
</trkpt>
<trkpt lat="55.912151" lon="26.501444">
<ele>94.704163</ele>
<time>2010-08-29T17:50:22Z</time>
<desc>lat.=55.912151, lon.=26.501444, Alt.=94.704163m. Speed=0.000000m/h.</desc>
<speed>0.000000</speed>
</trkpt>
<trkpt lat="55.912151" lon="26.501444">
<ele>94.710022</ele>
<time>2010-08-29T17:50:23Z</time>
<desc>lat.=55.912151, lon.=26.501444, Alt.=94.710022m. Speed=0.072000m/h.</desc>
<speed>0.020000</speed>
</trkpt>
<trkpt lat="55.912151" lon="26.501442">
<ele>94.719788</ele>
<time>2010-08-29T17:50:24Z</time>
<desc>lat.=55.912151, lon.=26.501442, Alt.=94.719788m. Speed=0.108000m/h.</desc>
<speed>0.030000</speed>
</trkpt>
<trkpt lat="55.912151" lon="26.501442">
<ele>94.717834</ele>
<time>2010-08-29T17:50:25Z</time>
<desc>lat.=55.912151, lon.=26.501442, Alt.=94.717834m. Speed=0.072000m/h.</desc>
<speed>0.020000</speed>
</trkpt>
<trkpt lat="55.912151" lon="26.501442">
<ele>94.713928</ele>
<time>2010-08-29T17:50:26Z</time>
<desc>lat.=55.912151, lon.=26.501442, Alt.=94.713928m. Speed=0.036000m/h.</desc>
<speed>0.010000</speed>
</trkpt>
<trkpt lat="55.912151" lon="26.501442">
<ele>94.710022</ele>
<time>2010-08-29T17:50:27Z</time>
<desc>lat.=55.912151, lon.=26.501442, Alt.=94.710022m. Speed=0.000000m/h.</desc>
<speed>0.000000</speed>
</trkpt>
<trkpt lat="55.912151" lon="26.501442">
<ele>94.706116</ele>
<time>2010-08-29T17:50:28Z</time>
<desc>lat.=55.912151, lon.=26.501442, Alt.=94.706116m. Speed=0.000000m/h.</desc>
<speed>0.000000</speed>
</trkpt>
<trkpt lat="55.912151" lon="26.501442">
<ele>94.706116</ele>
<time>2010-08-29T17:50:29Z</time>
<desc>lat.=55.912151, lon.=26.501442, Alt.=94.706116m. Speed=0.072000m/h.</desc>
<speed>0.020000</speed>
</trkpt>
<trkpt lat="55.912151" lon="26.501440">
<ele>94.700256</ele>
<time>2010-08-29T17:50:30Z</time>
<desc>lat.=55.912151, lon.=26.501440, Alt.=94.700256m. Speed=0.000000m/h.</desc>
<speed>0.000000</speed>
</trkpt>
<trkpt lat="55.912151" lon="26.501440">
<ele>94.696350</ele>
<time>2010-08-29T17:50:31Z</time>
<desc>lat.=55.912151, lon.=26.501440, Alt.=94.696350m. Speed=0.000000m/h.</desc>
<speed>0.000000</speed>
</trkpt>
<trkpt lat="55.912151" lon="26.501440">
<ele>94.696350</ele>
<time>2010-08-29T17:50:32Z</time>
<desc>lat.=55.912151, lon.=26.501440, Alt.=94.696350m. Speed=0.036000m/h.</desc>
<speed>0.010000</speed>
</trkpt>
<trkpt lat="55.912151" lon="26.501440">
<ele>94.694397</ele>
<time>2010-08-29T17:50:33Z</time>
<desc>lat.=55.912151, lon.=26.501440, Alt.=94.694397m. Speed=0.000000m/h.</desc>
<speed>0.000000</speed>
</trkpt>
<trkpt lat="55.912151" lon="26.501440">
<ele>94.694397</ele>
<time>2010-08-29T17:50:34Z</time>
<desc>lat.=55.912151, lon.=26.501440, Alt.=94.694397m. Speed=0.000000m/h.</desc>
<speed>0.000000</speed>
</trkpt>
<trkpt lat="55.912151" lon="26.501440">
<ele>94.688538</ele>
<time>2010-08-29T17:50:35Z</time>
<desc>lat.=55.912151, lon.=26.501440, Alt.=94.688538m. Speed=0.000000m/h.</desc>
<speed>0.000000</speed>
</trkpt>
<trkpt lat="55.912151" lon="26.501440">
<ele>94.680725</ele>
<time>2010-08-29T17:50:36Z</time>
<desc>lat.=55.912151, lon.=26.501440, Alt.=94.680725m. Speed=0.000000m/h.</desc>
<speed>0.000000</speed>
</trkpt>
<trkpt lat="55.912151" lon="26.501440">
<ele>94.670959</ele>
<time>2010-08-29T17:50:37Z</time>
<desc>lat.=55.912151, lon.=26.501440, Alt.=94.670959m. Speed=0.000000m/h.</desc>
<speed>0.000000</speed>
</trkpt>
<trkpt lat="55.912151" lon="26.501440">
<ele>94.667053</ele>
<time>2010-08-29T17:50:38Z</time>
<desc>lat.=55.912151, lon.=26.501440, Alt.=94.667053m. Speed=0.000000m/h.</desc>
<speed>0.000000</speed>
</trkpt>
<trkpt lat="55.912151" lon="26.501440">
<ele>94.663147</ele>
<time>2010-08-29T17:50:39Z</time>
<desc>lat.=55.912151, lon.=26.501440, Alt.=94.663147m. Speed=0.036000m/h.</desc>
<speed>0.010000</speed>
</trkpt>
<trkpt lat="55.912151" lon="26.501438">
<ele>94.657288</ele>
<time>2010-08-29T17:50:40Z</time>
<desc>lat.=55.912151, lon.=26.501438, Alt.=94.657288m. Speed=0.000000m/h.</desc>
<speed>0.000000</speed>
</trkpt>
<trkpt lat="55.912151" lon="26.501438">
<ele>94.651428</ele>
<time>2010-08-29T17:50:41Z</time>
<desc>lat.=55.912151, lon.=26.501438, Alt.=94.651428m. Speed=0.072000m/h.</desc>
<speed>0.020000</speed>
</trkpt>
<trkpt lat="55.912151" lon="26.501438">
<ele>94.643616</ele>
<time>2010-08-29T17:50:42Z</time>
<desc>lat.=55.912151, lon.=26.501438, Alt.=94.643616m. Speed=0.000000m/h.</desc>
<speed>0.000000</speed>
</trkpt>
<trkpt lat="55.912151" lon="26.501438">
<ele>94.639709</ele>
<time>2010-08-29T17:50:43Z</time>
<desc>lat.=55.912151, lon.=26.501438, Alt.=94.639709m. Speed=0.000000m/h.</desc>
<speed>0.000000</speed>
</trkpt>
<trkpt lat="55.912151" lon="26.501438">
<ele>94.631897</ele>
<time>2010-08-29T17:50:44Z</time>
<desc>lat.=55.912151, lon.=26.501438, Alt.=94.631897m. Speed=0.000000m/h.</desc>
<speed>0.000000</speed>
</trkpt>
<trkpt lat="55.912151" lon="26.501438">
<ele>94.627991</ele>
<time>2010-08-29T17:50:45Z</time>
<desc>lat.=55.912151, lon.=26.501438, Alt.=94.627991m. Speed=0.000000m/h.</desc>
<speed>0.000000</speed>
</trkpt>
<trkpt lat="55.912151" lon="26.501438">
<ele>94.624084</ele>
<time>2010-08-29T17:50:46Z</time>
<desc>lat.=55.912151, lon.=26.501438, Alt.=94.624084m. Speed=0.000000m/h.</desc>
<speed>0.000000</speed>
</trkpt>
<trkpt lat="55.912151" lon="26.501438">
<ele>94.622131</ele>
<time>2010-08-29T17:50:47Z</time>
<desc>lat.=55.912151, lon.=26.501438, Alt.=94.622131m. Speed=0.000000m/h.</desc>
<speed>0.000000</speed>
</trkpt>
<trkpt lat="55.912151" lon="26.501438">
<ele>94.620178</ele>
<time>2010-08-29T17:50:48Z</time>
<desc>lat.=55.912151, lon.=26.501438, Alt.=94.620178m. Speed=0.036000m/h.</desc>
<speed>0.010000</speed>
</trkpt>
<trkpt lat="55.912151" lon="26.501438">
<ele>94.618225</ele>
<time>2010-08-29T17:50:49Z</time>
<desc>lat.=55.912151, lon.=26.501438, Alt.=94.618225m. Speed=0.000000m/h.</desc>
<speed>0.000000</speed>
</trkpt>
<trkpt lat="55.912151" lon="26.501438">
<ele>94.612366</ele>
<time>2010-08-29T17:50:50Z</time>
<desc>lat.=55.912151, lon.=26.501438, Alt.=94.612366m. Speed=0.036000m/h.</desc>
<speed>0.010000</speed>
</trkpt>
<trkpt lat="55.912151" lon="26.501438">
<ele>94.608459</ele>
<time>2010-08-29T17:50:51Z</time>
<desc>lat.=55.912151, lon.=26.501438, Alt.=94.608459m. Speed=0.000000m/h.</desc>
<speed>0.000000</speed>
</trkpt>
<trkpt lat="55.912151" lon="26.501438">
<ele>94.608459</ele>
<time>2010-08-29T17:50:52Z</time>
<desc>lat.=55.912151, lon.=26.501438, Alt.=94.608459m. Speed=0.000000m/h.</desc>
<speed>0.000000</speed>
</trkpt>
<trkpt lat="55.912151" lon="26.501438">
<ele>94.608459</ele>
<time>2010-08-29T17:50:53Z</time>
<desc>lat.=55.912151, lon.=26.501438, Alt.=94.608459m. Speed=0.000000m/h.</desc>
<speed>0.000000</speed>
</trkpt>
<trkpt lat="55.912151" lon="26.501438">
<ele>94.608459</ele>
<time>2010-08-29T17:50:54Z</time>
<desc>lat.=55.912151, lon.=26.501438, Alt.=94.608459m. Speed=0.000000m/h.</desc>
<speed>0.000000</speed>
</trkpt>
<trkpt lat="55.912151" lon="26.501438">
<ele>94.602600</ele>
<time>2010-08-29T17:50:55Z</time>
<desc>lat.=55.912151, lon.=26.501438, Alt.=94.602600m. Speed=0.000000m/h.</desc>
<speed>0.000000</speed>
</trkpt>
<trkpt lat="55.912151" lon="26.501438">
<ele>94.598694</ele>
<time>2010-08-29T17:50:56Z</time>
<desc>lat.=55.912151, lon.=26.501438, Alt.=94.598694m. Speed=0.000000m/h.</desc>
<speed>0.000000</speed>
</trkpt>
<trkpt lat="55.912151" lon="26.501436">
<ele>94.598694</ele>
<time>2010-08-29T17:50:57Z</time>
<desc>lat.=55.912151, lon.=26.501436, Alt.=94.598694m. Speed=0.000000m/h.</desc>
<speed>0.000000</speed>
</trkpt>
<trkpt lat="55.912151" lon="26.501436">
<ele>94.596741</ele>
<time>2010-08-29T17:50:58Z</time>
<desc>lat.=55.912151, lon.=26.501436, Alt.=94.596741m. Speed=0.000000m/h.</desc>
<speed>0.000000</speed>
</trkpt>
<trkpt lat="55.912151" lon="26.501436">
<ele>94.596741</ele>
<time>2010-08-29T17:50:59Z</time>
<desc>lat.=55.912151, lon.=26.501436, Alt.=94.596741m. Speed=0.036000m/h.</desc>
<speed>0.010000</speed>
</trkpt>
<trkpt lat="55.912151" lon="26.501436">
<ele>94.596741</ele>
<time>2010-08-29T17:51:00Z</time>
<desc>lat.=55.912151, lon.=26.501436, Alt.=94.596741m. Speed=0.000000m/h.</desc>
<speed>0.000000</speed>
</trkpt>
<trkpt lat="55.912151" lon="26.501436">
<ele>94.594788</ele>
<time>2010-08-29T17:51:01Z</time>
<desc>lat.=55.912151, lon.=26.501436, Alt.=94.594788m. Speed=0.000000m/h.</desc>
<speed>0.000000</speed>
</trkpt>
<trkpt lat="55.912151" lon="26.501436">
<ele>94.594788</ele>
<time>2010-08-29T17:51:02Z</time>
<desc>lat.=55.912151, lon.=26.501436, Alt.=94.594788m. Speed=0.000000m/h.</desc>
<speed>0.000000</speed>
</trkpt>
<trkpt lat="55.912151" lon="26.501436">
<ele>94.598694</ele>
<time>2010-08-29T17:51:03Z</time>
<desc>lat.=55.912151, lon.=26.501436, Alt.=94.598694m. Speed=0.000000m/h.</desc>
<speed>0.000000</speed>
</trkpt>
<trkpt lat="55.912151" lon="26.501436">
<ele>94.598694</ele>
<time>2010-08-29T17:51:04Z</time>
<desc>lat.=55.912151, lon.=26.501436, Alt.=94.598694m. Speed=0.000000m/h.</desc>
<speed>0.000000</speed>
</trkpt>
<trkpt lat="55.912151" lon="26.501436">
<ele>94.600647</ele>
<time>2010-08-29T17:51:05Z</time>
<desc>lat.=55.912151, lon.=26.501436, Alt.=94.600647m. Speed=0.000000m/h.</desc>
<speed>0.000000</speed>
</trkpt>
<trkpt lat="55.912151" lon="26.501436">
<ele>94.602600</ele>
<time>2010-08-29T17:51:06Z</time>
<desc>lat.=55.912151, lon.=26.501436, Alt.=94.602600m. Speed=0.000000m/h.</desc>
<speed>0.000000</speed>
</trkpt>
<trkpt lat="55.912151" lon="26.501436">
<ele>94.602600</ele>
<time>2010-08-29T17:51:07Z</time>
<desc>lat.=55.912151, lon.=26.501436, Alt.=94.602600m. Speed=0.000000m/h.</desc>
<speed>0.000000</speed>
</trkpt>
<trkpt lat="55.912151" lon="26.501436">
<ele>94.604553</ele>
<time>2010-08-29T17:51:08Z</time>
<desc>lat.=55.912151, lon.=26.501436, Alt.=94.604553m. Speed=0.036000m/h.</desc>
<speed>0.010000</speed>
</trkpt>
<trkpt lat="55.912151" lon="26.501436">
<ele>94.602600</ele>
<time>2010-08-29T17:51:09Z</time>
<desc>lat.=55.912151, lon.=26.501436, Alt.=94.602600m. Speed=0.036000m/h.</desc>
<speed>0.010000</speed>
</trkpt>
<trkpt lat="55.912151" lon="26.501436">
<ele>94.602600</ele>
<time>2010-08-29T17:51:10Z</time>
<desc>lat.=55.912151, lon.=26.501436, Alt.=94.602600m. Speed=0.036000m/h.</desc>
<speed>0.010000</speed>
</trkpt>
<trkpt lat="55.912151" lon="26.501436">
<ele>94.604553</ele>
<time>2010-08-29T17:51:11Z</time>
<desc>lat.=55.912151, lon.=26.501436, Alt.=94.604553m. Speed=0.000000m/h.</desc>
<speed>0.000000</speed>
</trkpt>
<trkpt lat="55.912151" lon="26.501436">
<ele>94.606506</ele>
<time>2010-08-29T17:51:12Z</time>
<desc>lat.=55.912151, lon.=26.501436, Alt.=94.606506m. Speed=0.036000m/h.</desc>
<speed>0.010000</speed>
</trkpt>
<trkpt lat="55.912151" lon="26.501436">
<ele>94.608459</ele>
<time>2010-08-29T17:51:13Z</time>
<desc>lat.=55.912151, lon.=26.501436, Alt.=94.608459m. Speed=0.000000m/h.</desc>
<speed>0.000000</speed>
</trkpt>
<trkpt lat="55.912151" lon="26.501436">
<ele>94.610413</ele>
<time>2010-08-29T17:51:14Z</time>
<desc>lat.=55.912151, lon.=26.501436, Alt.=94.610413m. Speed=0.036000m/h.</desc>
<speed>0.010000</speed>
</trkpt>
<trkpt lat="55.912151" lon="26.501436">
<ele>94.612366</ele>
<time>2010-08-29T17:51:15Z</time>
<desc>lat.=55.912151, lon.=26.501436, Alt.=94.612366m. Speed=0.072000m/h.</desc>
<speed>0.020000</speed>
</trkpt>
<trkpt lat="55.912151" lon="26.501434">
<ele>94.614319</ele>
<time>2010-08-29T17:51:16Z</time>
<desc>lat.=55.912151, lon.=26.501434, Alt.=94.614319m. Speed=0.000000m/h.</desc>
<speed>0.000000</speed>
</trkpt>
<trkpt lat="55.912151" lon="26.501434">
<ele>94.616272</ele>
<time>2010-08-29T17:51:17Z</time>
<desc>lat.=55.912151, lon.=26.501434, Alt.=94.616272m. Speed=0.000000m/h.</desc>
<speed>0.000000</speed>
</trkpt>
<trkpt lat="55.912151" lon="26.501434">
<ele>94.618225</ele>
<time>2010-08-29T17:51:18Z</time>
<desc>lat.=55.912151, lon.=26.501434, Alt.=94.618225m. Speed=0.000000m/h.</desc>
<speed>0.000000</speed>
</trkpt>
<trkpt lat="55.912151" lon="26.501434">
<ele>94.620178</ele>
<time>2010-08-29T17:51:19Z</time>
<desc>lat.=55.912151, lon.=26.501434, Alt.=94.620178m. Speed=0.000000m/h.</desc>
<speed>0.000000</speed>
</trkpt>
<trkpt lat="55.912151" lon="26.501434">
<ele>94.622131</ele>
<time>2010-08-29T17:51:20Z</time>
<desc>lat.=55.912151, lon.=26.501434, Alt.=94.622131m. Speed=0.000000m/h.</desc>
<speed>0.000000</speed>
</trkpt>
<trkpt lat="55.912151" lon="26.501434">
<ele>94.624084</ele>
<time>2010-08-29T17:51:21Z</time>
<desc>lat.=55.912151, lon.=26.501434, Alt.=94.624084m. Speed=0.036000m/h.</desc>
<speed>0.010000</speed>
</trkpt>
<trkpt lat="55.912151" lon="26.501434">
<ele>94.624084</ele>
<time>2010-08-29T17:51:22Z</time>
<desc>lat.=55.912151, lon.=26.501434, Alt.=94.624084m. Speed=0.036000m/h.</desc>
<speed>0.010000</speed>
</trkpt>
<trkpt lat="55.912151" lon="26.501434">
<ele>94.626038</ele>
<time>2010-08-29T17:51:23Z</time>
<desc>lat.=55.912151, lon.=26.501434, Alt.=94.626038m. Speed=0.072000m/h.</desc>
<speed>0.020000</speed>
</trkpt>
<trkpt lat="55.912151" lon="26.501434">
<ele>94.627991</ele>
<time>2010-08-29T17:51:24Z</time>
<desc>lat.=55.912151, lon.=26.501434, Alt.=94.627991m. Speed=0.000000m/h.</desc>
<speed>0.000000</speed>
</trkpt>
<trkpt lat="55.912151" lon="26.501434">
<ele>94.627991</ele>
<time>2010-08-29T17:51:25Z</time>
<desc>lat.=55.912151, lon.=26.501434, Alt.=94.627991m. Speed=0.000000m/h.</desc>
<speed>0.000000</speed>
</trkpt>
<trkpt lat="55.912151" lon="26.501434">
<ele>94.627991</ele>
<time>2010-08-29T17:51:26Z</time>
<desc>lat.=55.912151, lon.=26.501434, Alt.=94.627991m. Speed=0.072000m/h.</desc>
<speed>0.020000</speed>
</trkpt>
<trkpt lat="55.912151" lon="26.501434">
<ele>94.627991</ele>
<time>2010-08-29T17:51:27Z</time>
<desc>lat.=55.912151, lon.=26.501434, Alt.=94.627991m. Speed=0.036000m/h.</desc>
<speed>0.010000</speed>
</trkpt>
<trkpt lat="55.912151" lon="26.501434">
<ele>94.627991</ele>
<time>2010-08-29T17:51:28Z</time>
<desc>lat.=55.912151, lon.=26.501434, Alt.=94.627991m. Speed=0.000000m/h.</desc>
<speed>0.000000</speed>
</trkpt>
<trkpt lat="55.912151" lon="26.501434">
<ele>94.624084</ele>
<time>2010-08-29T17:51:29Z</time>
<desc>lat.=55.912151, lon.=26.501434, Alt.=94.624084m. Speed=0.000000m/h.</desc>
<speed>0.000000</speed>
</trkpt>
<trkpt lat="55.912151" lon="26.501434">
<ele>94.622131</ele>
<time>2010-08-29T17:51:30Z</time>
<desc>lat.=55.912151, lon.=26.501434, Alt.=94.622131m. Speed=0.036000m/h.</desc>
<speed>0.010000</speed>
</trkpt>
<trkpt lat="55.912151" lon="26.501434">
<ele>94.616272</ele>
<time>2010-08-29T17:51:31Z</time>
<desc>lat.=55.912151, lon.=26.501434, Alt.=94.616272m. Speed=0.000000m/h.</desc>
<speed>0.000000</speed>
</trkpt>
<trkpt lat="55.912151" lon="26.501434">
<ele>94.612366</ele>
<time>2010-08-29T17:51:32Z</time>
<desc>lat.=55.912151, lon.=26.501434, Alt.=94.612366m. Speed=0.000000m/h.</desc>
<speed>0.000000</speed>
</trkpt>
<trkpt lat="55.912151" lon="26.501434">
<ele>94.606506</ele>
<time>2010-08-29T17:51:33Z</time>
<desc>lat.=55.912151, lon.=26.501434, Alt.=94.606506m. Speed=0.000000m/h.</desc>
<speed>0.000000</speed>
</trkpt>
<trkpt lat="55.912151" lon="26.501434">
<ele>94.606506</ele>
<time>2010-08-29T17:51:34Z</time>
<desc>lat.=55.912151, lon.=26.501434, Alt.=94.606506m. Speed=0.000000m/h.</desc>
<speed>0.000000</speed>
</trkpt>
<trkpt lat="55.912151" lon="26.501434">
<ele>94.600647</ele>
<time>2010-08-29T17:51:35Z</time>
<desc>lat.=55.912151, lon.=26.501434, Alt.=94.600647m. Speed=0.000000m/h.</desc>
<speed>0.000000</speed>
</trkpt>
<trkpt lat="55.912151" lon="26.501434">
<ele>94.596741</ele>
<time>2010-08-29T17:51:36Z</time>
<desc>lat.=55.912151, lon.=26.501434, Alt.=94.596741m. Speed=0.000000m/h.</desc>
<speed>0.000000</speed>
</trkpt>
<trkpt lat="55.912151" lon="26.501434">
<ele>94.592834</ele>
<time>2010-08-29T17:51:37Z</time>
<desc>lat.=55.912151, lon.=26.501434, Alt.=94.592834m. Speed=0.000000m/h.</desc>
<speed>0.000000</speed>
</trkpt>
<trkpt lat="55.912151" lon="26.501434">
<ele>94.585022</ele>
<time>2010-08-29T17:51:38Z</time>
<desc>lat.=55.912151, lon.=26.501434, Alt.=94.585022m. Speed=0.000000m/h.</desc>
<speed>0.000000</speed>
</trkpt>
<trkpt lat="55.912151" lon="26.501434">
<ele>94.581116</ele>
<time>2010-08-29T17:51:39Z</time>
<desc>lat.=55.912151, lon.=26.501434, Alt.=94.581116m. Speed=0.000000m/h.</desc>
<speed>0.000000</speed>
</trkpt>
<trkpt lat="55.912151" lon="26.501434">
<ele>94.573303</ele>
<time>2010-08-29T17:51:40Z</time>
<desc>lat.=55.912151, lon.=26.501434, Alt.=94.573303m. Speed=0.036000m/h.</desc>
<speed>0.010000</speed>
</trkpt>
<trkpt lat="55.912151" lon="26.501434">
<ele>94.569397</ele>
<time>2010-08-29T17:51:41Z</time>
<desc>lat.=55.912151, lon.=26.501434, Alt.=94.569397m. Speed=0.036000m/h.</desc>
<speed>0.010000</speed>
</trkpt>
<trkpt lat="55.912151" lon="26.501434">
<ele>94.561584</ele>
<time>2010-08-29T17:51:42Z</time>
<desc>lat.=55.912151, lon.=26.501434, Alt.=94.561584m. Speed=0.072000m/h.</desc>
<speed>0.020000</speed>
</trkpt>
<trkpt lat="55.912151" lon="26.501434">
<ele>94.555725</ele>
<time>2010-08-29T17:51:43Z</time>
<desc>lat.=55.912151, lon.=26.501434, Alt.=94.555725m. Speed=0.036000m/h.</desc>
<speed>0.010000</speed>
</trkpt>
<trkpt lat="55.912151" lon="26.501432">
<ele>94.555725</ele>
<time>2010-08-29T17:51:44Z</time>
<desc>lat.=55.912151, lon.=26.501432, Alt.=94.555725m. Speed=0.036000m/h.</desc>
<speed>0.010000</speed>
</trkpt>
<trkpt lat="55.912151" lon="26.501432">
<ele>94.551819</ele>
<time>2010-08-29T17:51:45Z</time>
<desc>lat.=55.912151, lon.=26.501432, Alt.=94.551819m. Speed=0.036000m/h.</desc>
<speed>0.010000</speed>
</trkpt>
<trkpt lat="55.912151" lon="26.501432">
<ele>94.542053</ele>
<time>2010-08-29T17:51:46Z</time>
<desc>lat.=55.912151, lon.=26.501432, Alt.=94.542053m. Speed=0.000000m/h.</desc>
<speed>0.000000</speed>
</trkpt>
<trkpt lat="55.912151" lon="26.501432">
<ele>94.534241</ele>
<time>2010-08-29T17:51:47Z</time>
<desc>lat.=55.912151, lon.=26.501432, Alt.=94.534241m. Speed=0.000000m/h.</desc>
<speed>0.000000</speed>
</trkpt>
<trkpt lat="55.912151" lon="26.501432">
<ele>94.528381</ele>
<time>2010-08-29T17:51:48Z</time>
<desc>lat.=55.912151, lon.=26.501432, Alt.=94.528381m. Speed=0.000000m/h.</desc>
<speed>0.000000</speed>
</trkpt>
<trkpt lat="55.912151" lon="26.501432">
<ele>94.522522</ele>
<time>2010-08-29T17:51:49Z</time>
<desc>lat.=55.912151, lon.=26.501432, Alt.=94.522522m. Speed=0.036000m/h.</desc>
<speed>0.010000</speed>
</trkpt>
<trkpt lat="55.912148" lon="26.501432">
<ele>94.516663</ele>
<time>2010-08-29T17:51:50Z</time>
<desc>lat.=55.912148, lon.=26.501432, Alt.=94.516663m. Speed=0.000000m/h.</desc>
<speed>0.000000</speed>
</trkpt>
<trkpt lat="55.912151" lon="26.501432">
<ele>94.510803</ele>
<time>2010-08-29T17:51:51Z</time>
<desc>lat.=55.912151, lon.=26.501432, Alt.=94.510803m. Speed=0.036000m/h.</desc>
<speed>0.010000</speed>
</trkpt>
<trkpt lat="55.912148" lon="26.501432">
<ele>94.504944</ele>
<time>2010-08-29T17:51:52Z</time>
<desc>lat.=55.912148, lon.=26.501432, Alt.=94.504944m. Speed=0.036000m/h.</desc>
<speed>0.010000</speed>
</trkpt>
<trkpt lat="55.912148" lon="26.501432">
<ele>94.497131</ele>
<time>2010-08-29T17:51:53Z</time>
<desc>lat.=55.912148, lon.=26.501432, Alt.=94.497131m. Speed=0.000000m/h.</desc>
<speed>0.000000</speed>
</trkpt>
<trkpt lat="55.912148" lon="26.501432">
<ele>94.495178</ele>
<time>2010-08-29T17:51:54Z</time>
<desc>lat.=55.912148, lon.=26.501432, Alt.=94.495178m. Speed=0.000000m/h.</desc>
<speed>0.000000</speed>
</trkpt>
<trkpt lat="55.912148" lon="26.501432">
<ele>94.491272</ele>
<time>2010-08-29T17:51:55Z</time>
<desc>lat.=55.912148, lon.=26.501432, Alt.=94.491272m. Speed=0.000000m/h.</desc>
<speed>0.000000</speed>
</trkpt>
<trkpt lat="55.912148" lon="26.501432">
<ele>94.485413</ele>
<time>2010-08-29T17:51:56Z</time>
<desc>lat.=55.912148, lon.=26.501432, Alt.=94.485413m. Speed=0.036000m/h.</desc>
<speed>0.010000</speed>
</trkpt>
<trkpt lat="55.912148" lon="26.501432">
<ele>94.481506</ele>
<time>2010-08-29T17:51:57Z</time>
<desc>lat.=55.912148, lon.=26.501432, Alt.=94.481506m. Speed=0.036000m/h.</desc>
<speed>0.010000</speed>
</trkpt>
<trkpt lat="55.912148" lon="26.501432">
<ele>94.477600</ele>
<time>2010-08-29T17:51:58Z</time>
<desc>lat.=55.912148, lon.=26.501432, Alt.=94.477600m. Speed=0.000000m/h.</desc>
<speed>0.000000</speed>
</trkpt>
<trkpt lat="55.912148" lon="26.501432">
<ele>94.471741</ele>
<time>2010-08-29T17:51:59Z</time>
<desc>lat.=55.912148, lon.=26.501432, Alt.=94.471741m. Speed=0.000000m/h.</desc>
<speed>0.000000</speed>
</trkpt>
<trkpt lat="55.912148" lon="26.501432">
<ele>94.467834</ele>
<time>2010-08-29T17:52:00Z</time>
<desc>lat.=55.912148, lon.=26.501432, Alt.=94.467834m. Speed=0.000000m/h.</desc>
<speed>0.000000</speed>
</trkpt>
<trkpt lat="55.912148" lon="26.501432">
<ele>94.469788</ele>
<time>2010-08-29T17:52:01Z</time>
<desc>lat.=55.912148, lon.=26.501432, Alt.=94.469788m. Speed=0.000000m/h.</desc>
<speed>0.000000</speed>
</trkpt>
<trkpt lat="55.912148" lon="26.501432">
<ele>94.471741</ele>
<time>2010-08-29T17:52:02Z</time>
<desc>lat.=55.912148, lon.=26.501432, Alt.=94.471741m. Speed=0.000000m/h.</desc>
<speed>0.000000</speed>
</trkpt>
<trkpt lat="55.912148" lon="26.501432">
<ele>94.473694</ele>
<time>2010-08-29T17:52:03Z</time>
<desc>lat.=55.912148, lon.=26.501432, Alt.=94.473694m. Speed=0.072000m/h.</desc>
<speed>0.020000</speed>
</trkpt>
<trkpt lat="55.912148" lon="26.501432">
<ele>94.475647</ele>
<time>2010-08-29T17:52:04Z</time>
<desc>lat.=55.912148, lon.=26.501432, Alt.=94.475647m. Speed=0.072000m/h.</desc>
<speed>0.020000</speed>
</trkpt>
<trkpt lat="55.912148" lon="26.501432">
<ele>94.479553</ele>
<time>2010-08-29T17:52:05Z</time>
<desc>lat.=55.912148, lon.=26.501432, Alt.=94.479553m. Speed=0.036000m/h.</desc>
<speed>0.010000</speed>
</trkpt>
<trkpt lat="55.912151" lon="26.501432">
<ele>94.481506</ele>
<time>2010-08-29T17:52:06Z</time>
<desc>lat.=55.912151, lon.=26.501432, Alt.=94.481506m. Speed=0.000000m/h.</desc>
<speed>0.000000</speed>
</trkpt>
<trkpt lat="55.912148" lon="26.501432">
<ele>94.483459</ele>
<time>2010-08-29T17:52:07Z</time>
<desc>lat.=55.912148, lon.=26.501432, Alt.=94.483459m. Speed=0.036000m/h.</desc>
<speed>0.010000</speed>
</trkpt>
<trkpt lat="55.912148" lon="26.501432">
<ele>94.485413</ele>
<time>2010-08-29T17:52:08Z</time>
<desc>lat.=55.912148, lon.=26.501432, Alt.=94.485413m. Speed=0.000000m/h.</desc>
<speed>0.000000</speed>
</trkpt>
<trkpt lat="55.912148" lon="26.501432">
<ele>94.485413</ele>
<time>2010-08-29T17:52:09Z</time>
<desc>lat.=55.912148, lon.=26.501432, Alt.=94.485413m. Speed=0.000000m/h.</desc>
<speed>0.000000</speed>
</trkpt>
<trkpt lat="55.912148" lon="26.501432">
<ele>94.485413</ele>
<time>2010-08-29T17:52:10Z</time>
<desc>lat.=55.912148, lon.=26.501432, Alt.=94.485413m. Speed=0.000000m/h.</desc>
<speed>0.000000</speed>
</trkpt>
<trkpt lat="55.912148" lon="26.501432">
<ele>94.485413</ele>
<time>2010-08-29T17:52:11Z</time>
<desc>lat.=55.912148, lon.=26.501432, Alt.=94.485413m. Speed=0.000000m/h.</desc>
<speed>0.000000</speed>
</trkpt>
<trkpt lat="55.912148" lon="26.501432">
<ele>94.487366</ele>
<time>2010-08-29T17:52:12Z</time>
<desc>lat.=55.912148, lon.=26.501432, Alt.=94.487366m. Speed=0.000000m/h.</desc>
<speed>0.000000</speed>
</trkpt>
<trkpt lat="55.912148" lon="26.501432">
<ele>94.489319</ele>
<time>2010-08-29T17:52:13Z</time>
<desc>lat.=55.912148, lon.=26.501432, Alt.=94.489319m. Speed=0.000000m/h.</desc>
<speed>0.000000</speed>
</trkpt>
<trkpt lat="55.912148" lon="26.501432">
<ele>94.491272</ele>
<time>2010-08-29T17:52:14Z</time>
<desc>lat.=55.912148, lon.=26.501432, Alt.=94.491272m. Speed=0.036000m/h.</desc>
<speed>0.010000</speed>
</trkpt>
<trkpt lat="55.912148" lon="26.501432">
<ele>94.495178</ele>
<time>2010-08-29T17:52:15Z</time>
<desc>lat.=55.912148, lon.=26.501432, Alt.=94.495178m. Speed=0.000000m/h.</desc>
<speed>0.000000</speed>
</trkpt>
<trkpt lat="55.912148" lon="26.501432">
<ele>94.499084</ele>
<time>2010-08-29T17:52:16Z</time>
<desc>lat.=55.912148, lon.=26.501432, Alt.=94.499084m. Speed=0.000000m/h.</desc>
<speed>0.000000</speed>
</trkpt>
<trkpt lat="55.912148" lon="26.501432">
<ele>94.502991</ele>
<time>2010-08-29T17:52:17Z</time>
<desc>lat.=55.912148, lon.=26.501432, Alt.=94.502991m. Speed=0.036000m/h.</desc>
<speed>0.010000</speed>
</trkpt>
<trkpt lat="55.912148" lon="26.501432">
<ele>94.508850</ele>
<time>2010-08-29T17:52:18Z</time>
<desc>lat.=55.912148, lon.=26.501432, Alt.=94.508850m. Speed=0.000000m/h.</desc>
<speed>0.000000</speed>
</trkpt>
<trkpt lat="55.912148" lon="26.501432">
<ele>94.514709</ele>
<time>2010-08-29T17:52:19Z</time>
<desc>lat.=55.912148, lon.=26.501432, Alt.=94.514709m. Speed=0.036000m/h.</desc>
<speed>0.010000</speed>
</trkpt>
<trkpt lat="55.912148" lon="26.501432">
<ele>94.520569</ele>
<time>2010-08-29T17:52:20Z</time>
<desc>lat.=55.912148, lon.=26.501432, Alt.=94.520569m. Speed=0.036000m/h.</desc>
<speed>0.010000</speed>
</trkpt>
<trkpt lat="55.912148" lon="26.501432">
<ele>94.526428</ele>
<time>2010-08-29T17:52:21Z</time>
<desc>lat.=55.912148, lon.=26.501432, Alt.=94.526428m. Speed=0.072000m/h.</desc>
<speed>0.020000</speed>
</trkpt>
<trkpt lat="55.912148" lon="26.501431">
<ele>94.532288</ele>
<time>2010-08-29T17:52:22Z</time>
<desc>lat.=55.912148, lon.=26.501431, Alt.=94.532288m. Speed=0.036000m/h.</desc>
<speed>0.010000</speed>
</trkpt>
<trkpt lat="55.912148" lon="26.501431">
<ele>94.540100</ele>
<time>2010-08-29T17:52:23Z</time>
<desc>lat.=55.912148, lon.=26.501431, Alt.=94.540100m. Speed=0.000000m/h.</desc>
<speed>0.000000</speed>
</trkpt>
<trkpt lat="55.912148" lon="26.501431">
<ele>94.547913</ele>
<time>2010-08-29T17:52:24Z</time>
<desc>lat.=55.912148, lon.=26.501431, Alt.=94.547913m. Speed=0.000000m/h.</desc>
<speed>0.000000</speed>
</trkpt>
<trkpt lat="55.912148" lon="26.501431">
<ele>94.557678</ele>
<time>2010-08-29T17:52:25Z</time>
<desc>lat.=55.912148, lon.=26.501431, Alt.=94.557678m. Speed=0.036000m/h.</desc>
<speed>0.010000</speed>
</trkpt>
<trkpt lat="55.912148" lon="26.501431">
<ele>94.567444</ele>
<time>2010-08-29T17:52:26Z</time>
<desc>lat.=55.912148, lon.=26.501431, Alt.=94.567444m. Speed=0.036000m/h.</desc>
<speed>0.010000</speed>
</trkpt>
<trkpt lat="55.912148" lon="26.501431">
<ele>94.579163</ele>
<time>2010-08-29T17:52:27Z</time>
<desc>lat.=55.912148, lon.=26.501431, Alt.=94.579163m. Speed=0.072000m/h.</desc>
<speed>0.020000</speed>
</trkpt>
<trkpt lat="55.912148" lon="26.501431">
<ele>94.588928</ele>
<time>2010-08-29T17:52:28Z</time>
<desc>lat.=55.912148, lon.=26.501431, Alt.=94.588928m. Speed=0.072000m/h.</desc>
<speed>0.020000</speed>
</trkpt>
<trkpt lat="55.912148" lon="26.501429">
<ele>94.602600</ele>
<time>2010-08-29T17:52:29Z</time>
<desc>lat.=55.912148, lon.=26.501429, Alt.=94.602600m. Speed=0.000000m/h.</desc>
<speed>0.000000</speed>
</trkpt>
<trkpt lat="55.912148" lon="26.501429">
<ele>94.620178</ele>
<time>2010-08-29T17:52:30Z</time>
<desc>lat.=55.912148, lon.=26.501429, Alt.=94.620178m. Speed=0.144000m/h.</desc>
<speed>0.040000</speed>
</trkpt>
<trkpt lat="55.912151" lon="26.501429">
<ele>94.639709</ele>
<time>2010-08-29T17:52:31Z</time>
<desc>lat.=55.912151, lon.=26.501429, Alt.=94.639709m. Speed=0.108000m/h.</desc>
<speed>0.030000</speed>
</trkpt>
<trkpt lat="55.912151" lon="26.501429">
<ele>94.663147</ele>
<time>2010-08-29T17:52:32Z</time>
<desc>lat.=55.912151, lon.=26.501429, Alt.=94.663147m. Speed=0.108000m/h.</desc>
<speed>0.030000</speed>
</trkpt>
<trkpt lat="55.912151" lon="26.501427">
<ele>94.690491</ele>
<time>2010-08-29T17:52:33Z</time>
<desc>lat.=55.912151, lon.=26.501427, Alt.=94.690491m. Speed=0.108000m/h.</desc>
<speed>0.030000</speed>
</trkpt>
<trkpt lat="55.912151" lon="26.501427">
<ele>94.721741</ele>
<time>2010-08-29T17:52:34Z</time>
<desc>lat.=55.912151, lon.=26.501427, Alt.=94.721741m. Speed=0.180000m/h.</desc>
<speed>0.050000</speed>
</trkpt>
<trkpt lat="55.912151" lon="26.501425">
<ele>94.756897</ele>
<time>2010-08-29T17:52:35Z</time>
<desc>lat.=55.912151, lon.=26.501425, Alt.=94.756897m. Speed=0.180000m/h.</desc>
<speed>0.050000</speed>
</trkpt>
<trkpt lat="55.912151" lon="26.501425">
<ele>94.797913</ele>
<time>2010-08-29T17:52:36Z</time>
<desc>lat.=55.912151, lon.=26.501425, Alt.=94.797913m. Speed=0.216000m/h.</desc>
<speed>0.060000</speed>
</trkpt>
<trkpt lat="55.912151" lon="26.501423">
<ele>94.840881</ele>
<time>2010-08-29T17:52:37Z</time>
<desc>lat.=55.912151, lon.=26.501423, Alt.=94.840881m. Speed=0.288000m/h.</desc>
<speed>0.080000</speed>
</trkpt>
<trkpt lat="55.912151" lon="26.501423">
<ele>94.885803</ele>
<time>2010-08-29T17:52:38Z</time>
<desc>lat.=55.912151, lon.=26.501423, Alt.=94.885803m. Speed=0.252000m/h.</desc>
<speed>0.070000</speed>
</trkpt>
<trkpt lat="55.912151" lon="26.501421">
<ele>94.932678</ele>
<time>2010-08-29T17:52:39Z</time>
<desc>lat.=55.912151, lon.=26.501421, Alt.=94.932678m. Speed=0.252000m/h.</desc>
<speed>0.070000</speed>
</trkpt>
<trkpt lat="55.912151" lon="26.501419">
<ele>94.977600</ele>
<time>2010-08-29T17:52:40Z</time>
<desc>lat.=55.912151, lon.=26.501419, Alt.=94.977600m. Speed=0.216000m/h.</desc>
<speed>0.060000</speed>
</trkpt>
<trkpt lat="55.912151" lon="26.501419">
<ele>95.026428</ele>
<time>2010-08-29T17:52:41Z</time>
<desc>lat.=55.912151, lon.=26.501419, Alt.=95.026428m. Speed=0.216000m/h.</desc>
<speed>0.060000</speed>
</trkpt>
<trkpt lat="55.912151" lon="26.501417">
<ele>95.077209</ele>
<time>2010-08-29T17:52:42Z</time>
<desc>lat.=55.912151, lon.=26.501417, Alt.=95.077209m. Speed=0.216000m/h.</desc>
<speed>0.060000</speed>
</trkpt>
<trkpt lat="55.912151" lon="26.501417">
<ele>95.127991</ele>
<time>2010-08-29T17:52:43Z</time>
<desc>lat.=55.912151, lon.=26.501417, Alt.=95.127991m. Speed=0.360000m/h.</desc>
<speed>0.100000</speed>
</trkpt>
<trkpt lat="55.912151" lon="26.501415">
<ele>95.180725</ele>
<time>2010-08-29T17:52:44Z</time>
<desc>lat.=55.912151, lon.=26.501415, Alt.=95.180725m. Speed=0.252000m/h.</desc>
<speed>0.070000</speed>
</trkpt>
<trkpt lat="55.912151" lon="26.501413">
<ele>95.235413</ele>
<time>2010-08-29T17:52:45Z</time>
<desc>lat.=55.912151, lon.=26.501413, Alt.=95.235413m. Speed=0.396000m/h.</desc>
<speed>0.110000</speed>
</trkpt>
<trkpt lat="55.912155" lon="26.501413">
<ele>95.290100</ele>
<time>2010-08-29T17:52:46Z</time>
<desc>lat.=55.912155, lon.=26.501413, Alt.=95.290100m. Speed=0.360000m/h.</desc>
<speed>0.100000</speed>
</trkpt>
<trkpt lat="55.912155" lon="26.501411">
<ele>95.346741</ele>
<time>2010-08-29T17:52:47Z</time>
<desc>lat.=55.912155, lon.=26.501411, Alt.=95.346741m. Speed=0.360000m/h.</desc>
<speed>0.100000</speed>
</trkpt>
<trkpt lat="55.912155" lon="26.501410">
<ele>95.405334</ele>
<time>2010-08-29T17:52:48Z</time>
<desc>lat.=55.912155, lon.=26.501410, Alt.=95.405334m. Speed=0.360000m/h.</desc>
<speed>0.100000</speed>
</trkpt>
<trkpt lat="55.912155" lon="26.501408">
<ele>95.465881</ele>
<time>2010-08-29T17:52:49Z</time>
<desc>lat.=55.912155, lon.=26.501408, Alt.=95.465881m. Speed=0.396000m/h.</desc>
<speed>0.110000</speed>
</trkpt>
<trkpt lat="55.912155" lon="26.501406">
<ele>95.534241</ele>
<time>2010-08-29T17:52:50Z</time>
<desc>lat.=55.912155, lon.=26.501406, Alt.=95.534241m. Speed=0.432000m/h.</desc>
<speed>0.120000</speed>
</trkpt>
<trkpt lat="55.912155" lon="26.501404">
<ele>95.606506</ele>
<time>2010-08-29T17:52:51Z</time>
<desc>lat.=55.912155, lon.=26.501404, Alt.=95.606506m. Speed=0.432000m/h.</desc>
<speed>0.120000</speed>
</trkpt>
<trkpt lat="55.912155" lon="26.501402">
<ele>95.682678</ele>
<time>2010-08-29T17:52:52Z</time>
<desc>lat.=55.912155, lon.=26.501402, Alt.=95.682678m. Speed=0.504000m/h.</desc>
<speed>0.140000</speed>
</trkpt>
<trkpt lat="55.912155" lon="26.501400">
<ele>95.758850</ele>
<time>2010-08-29T17:52:53Z</time>
<desc>lat.=55.912155, lon.=26.501400, Alt.=95.758850m. Speed=0.468000m/h.</desc>
<speed>0.130000</speed>
</trkpt>
<trkpt lat="55.912155" lon="26.501398">
<ele>95.827209</ele>
<time>2010-08-29T17:52:54Z</time>
<desc>lat.=55.912155, lon.=26.501398, Alt.=95.827209m. Speed=0.468000m/h.</desc>
<speed>0.130000</speed>
</trkpt>
<trkpt lat="55.912159" lon="26.501396">
<ele>95.895569</ele>
<time>2010-08-29T17:52:55Z</time>
<desc>lat.=55.912159, lon.=26.501396, Alt.=95.895569m. Speed=0.468000m/h.</desc>
<speed>0.130000</speed>
</trkpt>
<trkpt lat="55.912159" lon="26.501394">
<ele>95.963928</ele>
<time>2010-08-29T17:52:56Z</time>
<desc>lat.=55.912159, lon.=26.501394, Alt.=95.963928m. Speed=0.468000m/h.</desc>
<speed>0.130000</speed>
</trkpt>
<trkpt lat="55.912159" lon="26.501390">
<ele>96.036194</ele>
<time>2010-08-29T17:52:57Z</time>
<desc>lat.=55.912159, lon.=26.501390, Alt.=96.036194m. Speed=0.504000m/h.</desc>
<speed>0.140000</speed>
</trkpt>
<trkpt lat="55.912159" lon="26.501389">
<ele>96.102600</ele>
<time>2010-08-29T17:52:58Z</time>
<desc>lat.=55.912159, lon.=26.501389, Alt.=96.102600m. Speed=0.468000m/h.</desc>
<speed>0.130000</speed>
</trkpt>
<trkpt lat="55.912159" lon="26.501387">
<ele>96.169006</ele>
<time>2010-08-29T17:52:59Z</time>
<desc>lat.=55.912159, lon.=26.501387, Alt.=96.169006m. Speed=0.504000m/h.</desc>
<speed>0.140000</speed>
</trkpt>
<trkpt lat="55.912159" lon="26.501385">
<ele>96.237366</ele>
<time>2010-08-29T17:53:00Z</time>
<desc>lat.=55.912159, lon.=26.501385, Alt.=96.237366m. Speed=0.396000m/h.</desc>
<speed>0.110000</speed>
</trkpt>
<trkpt lat="55.912159" lon="26.501383">
<ele>96.282288</ele>
<time>2010-08-29T17:53:01Z</time>
<desc>lat.=55.912159, lon.=26.501383, Alt.=96.282288m. Speed=0.036000m/h.</desc>
<speed>0.010000</speed>
</trkpt>
<trkpt lat="55.912159" lon="26.501383">
<ele>96.309631</ele>
<time>2010-08-29T17:53:02Z</time>
<desc>lat.=55.912159, lon.=26.501383, Alt.=96.309631m. Speed=0.108000m/h.</desc>
<speed>0.030000</speed>
</trkpt>
<trkpt lat="55.912159" lon="26.501383">
<ele>96.335022</ele>
<time>2010-08-29T17:53:03Z</time>
<desc>lat.=55.912159, lon.=26.501383, Alt.=96.335022m. Speed=0.072000m/h.</desc>
<speed>0.020000</speed>
</trkpt>
<trkpt lat="55.912159" lon="26.501383">
<ele>96.358459</ele>
<time>2010-08-29T17:53:04Z</time>
<desc>lat.=55.912159, lon.=26.501383, Alt.=96.358459m. Speed=0.108000m/h.</desc>
<speed>0.030000</speed>
</trkpt>
<trkpt lat="55.912159" lon="26.501385">
<ele>96.374084</ele>
<time>2010-08-29T17:53:05Z</time>
<desc>lat.=55.912159, lon.=26.501385, Alt.=96.374084m. Speed=0.144000m/h.</desc>
<speed>0.040000</speed>
</trkpt>
<trkpt lat="55.912163" lon="26.501385">
<ele>96.387756</ele>
<time>2010-08-29T17:53:06Z</time>
<desc>lat.=55.912163, lon.=26.501385, Alt.=96.387756m. Speed=0.144000m/h.</desc>
<speed>0.040000</speed>
</trkpt>
<trkpt lat="55.912163" lon="26.501385">
<ele>96.403381</ele>
<time>2010-08-29T17:53:07Z</time>
<desc>lat.=55.912163, lon.=26.501385, Alt.=96.403381m. Speed=0.144000m/h.</desc>
<speed>0.040000</speed>
</trkpt>
<trkpt lat="55.912163" lon="26.501385">
<ele>96.417053</ele>
<time>2010-08-29T17:53:08Z</time>
<desc>lat.=55.912163, lon.=26.501385, Alt.=96.417053m. Speed=0.000000m/h.</desc>
<speed>0.000000</speed>
</trkpt>
<trkpt lat="55.912163" lon="26.501385">
<ele>96.426819</ele>
<time>2010-08-29T17:53:09Z</time>
<desc>lat.=55.912163, lon.=26.501385, Alt.=96.426819m. Speed=0.000000m/h.</desc>
<speed>0.000000</speed>
</trkpt>
<trkpt lat="55.912163" lon="26.501385">
<ele>96.432678</ele>
<time>2010-08-29T17:53:10Z</time>
<desc>lat.=55.912163, lon.=26.501385, Alt.=96.432678m. Speed=0.036000m/h.</desc>
<speed>0.010000</speed>
</trkpt>
<trkpt lat="55.912163" lon="26.501385">
<ele>96.448303</ele>
<time>2010-08-29T17:53:11Z</time>
<desc>lat.=55.912163, lon.=26.501385, Alt.=96.448303m. Speed=0.036000m/h.</desc>
<speed>0.010000</speed>
</trkpt>
<trkpt lat="55.912163" lon="26.501385">
<ele>96.465881</ele>
<time>2010-08-29T17:53:12Z</time>
<desc>lat.=55.912163, lon.=26.501385, Alt.=96.465881m. Speed=0.036000m/h.</desc>
<speed>0.010000</speed>
</trkpt>
<trkpt lat="55.912163" lon="26.501385">
<ele>96.477600</ele>
<time>2010-08-29T17:53:13Z</time>
<desc>lat.=55.912163, lon.=26.501385, Alt.=96.477600m. Speed=0.000000m/h.</desc>
<speed>0.000000</speed>
</trkpt>
<trkpt lat="55.912163" lon="26.501385">
<ele>96.491272</ele>
<time>2010-08-29T17:53:14Z</time>
<desc>lat.=55.912163, lon.=26.501385, Alt.=96.491272m. Speed=0.000000m/h.</desc>
<speed>0.000000</speed>
</trkpt>
<trkpt lat="55.912163" lon="26.501385">
<ele>96.502991</ele>
<time>2010-08-29T17:53:15Z</time>
<desc>lat.=55.912163, lon.=26.501385, Alt.=96.502991m. Speed=0.000000m/h.</desc>
<speed>0.000000</speed>
</trkpt>
<trkpt lat="55.912163" lon="26.501385">
<ele>96.514709</ele>
<time>2010-08-29T17:53:16Z</time>
<desc>lat.=55.912163, lon.=26.501385, Alt.=96.514709m. Speed=0.000000m/h.</desc>
<speed>0.000000</speed>
</trkpt>
<trkpt lat="55.912163" lon="26.501385">
<ele>96.522522</ele>
<time>2010-08-29T17:53:17Z</time>
<desc>lat.=55.912163, lon.=26.501385, Alt.=96.522522m. Speed=0.000000m/h.</desc>
<speed>0.000000</speed>
</trkpt>
<trkpt lat="55.912163" lon="26.501385">
<ele>96.524475</ele>
<time>2010-08-29T17:53:18Z</time>
<desc>lat.=55.912163, lon.=26.501385, Alt.=96.524475m. Speed=0.036000m/h.</desc>
<speed>0.010000</speed>
</trkpt>
<trkpt lat="55.912163" lon="26.501385">
<ele>96.526428</ele>
<time>2010-08-29T17:53:19Z</time>
<desc>lat.=55.912163, lon.=26.501385, Alt.=96.526428m. Speed=0.036000m/h.</desc>
<speed>0.010000</speed>
</trkpt>
<trkpt lat="55.912163" lon="26.501385">
<ele>96.528381</ele>
<time>2010-08-29T17:53:20Z</time>
<desc>lat.=55.912163, lon.=26.501385, Alt.=96.528381m. Speed=0.000000m/h.</desc>
<speed>0.000000</speed>
</trkpt>
<trkpt lat="55.912163" lon="26.501385">
<ele>96.522522</ele>
<time>2010-08-29T17:53:21Z</time>
<desc>lat.=55.912163, lon.=26.501385, Alt.=96.522522m. Speed=0.000000m/h.</desc>
<speed>0.000000</speed>
</trkpt>
<trkpt lat="55.912163" lon="26.501385">
<ele>96.516663</ele>
<time>2010-08-29T17:53:22Z</time>
<desc>lat.=55.912163, lon.=26.501385, Alt.=96.516663m. Speed=0.036000m/h.</desc>
<speed>0.010000</speed>
</trkpt>
<trkpt lat="55.912163" lon="26.501385">
<ele>96.516663</ele>
<time>2010-08-29T17:53:23Z</time>
<desc>lat.=55.912163, lon.=26.501385, Alt.=96.516663m. Speed=0.072000m/h.</desc>
<speed>0.020000</speed>
</trkpt>
<trkpt lat="55.912163" lon="26.501385">
<ele>96.518616</ele>
<time>2010-08-29T17:53:24Z</time>
<desc>lat.=55.912163, lon.=26.501385, Alt.=96.518616m. Speed=0.036000m/h.</desc>
<speed>0.010000</speed>
</trkpt>
<trkpt lat="55.912163" lon="26.501385">
<ele>96.518616</ele>
<time>2010-08-29T17:53:25Z</time>
<desc>lat.=55.912163, lon.=26.501385, Alt.=96.518616m. Speed=0.036000m/h.</desc>
<speed>0.010000</speed>
</trkpt>
<trkpt lat="55.912163" lon="26.501383">
<ele>96.518616</ele>
<time>2010-08-29T17:53:26Z</time>
<desc>lat.=55.912163, lon.=26.501383, Alt.=96.518616m. Speed=0.036000m/h.</desc>
<speed>0.010000</speed>
</trkpt>
<trkpt lat="55.912163" lon="26.501383">
<ele>96.520569</ele>
<time>2010-08-29T17:53:27Z</time>
<desc>lat.=55.912163, lon.=26.501383, Alt.=96.520569m. Speed=0.036000m/h.</desc>
<speed>0.010000</speed>
</trkpt>
<trkpt lat="55.912163" lon="26.501383">
<ele>96.522522</ele>
<time>2010-08-29T17:53:28Z</time>
<desc>lat.=55.912163, lon.=26.501383, Alt.=96.522522m. Speed=0.000000m/h.</desc>
<speed>0.000000</speed>
</trkpt>
<trkpt lat="55.912163" lon="26.501383">
<ele>96.526428</ele>
<time>2010-08-29T17:53:29Z</time>
<desc>lat.=55.912163, lon.=26.501383, Alt.=96.526428m. Speed=0.072000m/h.</desc>
<speed>0.020000</speed>
</trkpt>
<trkpt lat="55.912163" lon="26.501383">
<ele>96.526428</ele>
<time>2010-08-29T17:53:30Z</time>
<desc>lat.=55.912163, lon.=26.501383, Alt.=96.526428m. Speed=0.036000m/h.</desc>
<speed>0.010000</speed>
</trkpt>
<trkpt lat="55.912163" lon="26.501383">
<ele>96.530334</ele>
<time>2010-08-29T17:53:31Z</time>
<desc>lat.=55.912163, lon.=26.501383, Alt.=96.530334m. Speed=0.000000m/h.</desc>
<speed>0.000000</speed>
</trkpt>
<trkpt lat="55.912163" lon="26.501383">
<ele>96.534241</ele>
<time>2010-08-29T17:53:32Z</time>
<desc>lat.=55.912163, lon.=26.501383, Alt.=96.534241m. Speed=0.000000m/h.</desc>
<speed>0.000000</speed>
</trkpt>
<trkpt lat="55.912163" lon="26.501383">
<ele>96.536194</ele>
<time>2010-08-29T17:53:33Z</time>
<desc>lat.=55.912163, lon.=26.501383, Alt.=96.536194m. Speed=0.000000m/h.</desc>
<speed>0.000000</speed>
</trkpt>
<trkpt lat="55.912163" lon="26.501383">
<ele>96.536194</ele>
<time>2010-08-29T17:53:34Z</time>
<desc>lat.=55.912163, lon.=26.501383, Alt.=96.536194m. Speed=0.036000m/h.</desc>
<speed>0.010000</speed>
</trkpt>
<trkpt lat="55.912163" lon="26.501383">
<ele>96.534241</ele>
<time>2010-08-29T17:53:35Z</time>
<desc>lat.=55.912163, lon.=26.501383, Alt.=96.534241m. Speed=0.000000m/h.</desc>
<speed>0.000000</speed>
</trkpt>
<trkpt lat="55.912163" lon="26.501383">
<ele>96.526428</ele>
<time>2010-08-29T17:53:36Z</time>
<desc>lat.=55.912163, lon.=26.501383, Alt.=96.526428m. Speed=0.000000m/h.</desc>
<speed>0.000000</speed>
</trkpt>
<trkpt lat="55.912163" lon="26.501383">
<ele>96.524475</ele>
<time>2010-08-29T17:53:37Z</time>
<desc>lat.=55.912163, lon.=26.501383, Alt.=96.524475m. Speed=0.000000m/h.</desc>
<speed>0.000000</speed>
</trkpt>
<trkpt lat="55.912163" lon="26.501383">
<ele>96.524475</ele>
<time>2010-08-29T17:53:38Z</time>
<desc>lat.=55.912163, lon.=26.501383, Alt.=96.524475m. Speed=0.036000m/h.</desc>
<speed>0.010000</speed>
</trkpt>
<trkpt lat="55.912163" lon="26.501383">
<ele>96.532288</ele>
<time>2010-08-29T17:53:39Z</time>
<desc>lat.=55.912163, lon.=26.501383, Alt.=96.532288m. Speed=0.000000m/h.</desc>
<speed>0.000000</speed>
</trkpt>
<trkpt lat="55.912163" lon="26.501383">
<ele>96.538147</ele>
<time>2010-08-29T17:53:40Z</time>
<desc>lat.=55.912163, lon.=26.501383, Alt.=96.538147m. Speed=0.036000m/h.</desc>
<speed>0.010000</speed>
</trkpt>
<trkpt lat="55.912163" lon="26.501383">
<ele>96.544006</ele>
<time>2010-08-29T17:53:41Z</time>
<desc>lat.=55.912163, lon.=26.501383, Alt.=96.544006m. Speed=0.000000m/h.</desc>
<speed>0.000000</speed>
</trkpt>
<trkpt lat="55.912163" lon="26.501383">
<ele>96.545959</ele>
<time>2010-08-29T17:53:42Z</time>
<desc>lat.=55.912163, lon.=26.501383, Alt.=96.545959m. Speed=0.000000m/h.</desc>
<speed>0.000000</speed>
</trkpt>
<trkpt lat="55.912163" lon="26.501383">
<ele>96.547913</ele>
<time>2010-08-29T17:53:43Z</time>
<desc>lat.=55.912163, lon.=26.501383, Alt.=96.547913m. Speed=0.000000m/h.</desc>
<speed>0.000000</speed>
</trkpt>
<trkpt lat="55.912163" lon="26.501383">
<ele>96.547913</ele>
<time>2010-08-29T17:53:44Z</time>
<desc>lat.=55.912163, lon.=26.501383, Alt.=96.547913m. Speed=0.000000m/h.</desc>
<speed>0.000000</speed>
</trkpt>
<trkpt lat="55.912163" lon="26.501383">
<ele>96.551819</ele>
<time>2010-08-29T17:53:45Z</time>
<desc>lat.=55.912163, lon.=26.501383, Alt.=96.551819m. Speed=0.000000m/h.</desc>
<speed>0.000000</speed>
</trkpt>
<trkpt lat="55.912163" lon="26.501383">
<ele>96.551819</ele>
<time>2010-08-29T17:53:46Z</time>
<desc>lat.=55.912163, lon.=26.501383, Alt.=96.551819m. Speed=0.036000m/h.</desc>
<speed>0.010000</speed>
</trkpt>
<trkpt lat="55.912163" lon="26.501383">
<ele>96.549866</ele>
<time>2010-08-29T17:53:47Z</time>
<desc>lat.=55.912163, lon.=26.501383, Alt.=96.549866m. Speed=0.216000m/h.</desc>
<speed>0.060000</speed>
</trkpt>
<trkpt lat="55.912163" lon="26.501381">
<ele>96.530334</ele>
<time>2010-08-29T17:53:48Z</time>
<desc>lat.=55.912163, lon.=26.501381, Alt.=96.530334m. Speed=0.144000m/h.</desc>
<speed>0.040000</speed>
</trkpt>
<trkpt lat="55.912163" lon="26.501381">
<ele>96.502991</ele>
<time>2010-08-29T17:53:49Z</time>
<desc>lat.=55.912163, lon.=26.501381, Alt.=96.502991m. Speed=0.144000m/h.</desc>
<speed>0.040000</speed>
</trkpt>
<trkpt lat="55.912163" lon="26.501379">
<ele>96.477600</ele>
<time>2010-08-29T17:53:50Z</time>
<desc>lat.=55.912163, lon.=26.501379, Alt.=96.477600m. Speed=0.108000m/h.</desc>
<speed>0.030000</speed>
</trkpt>
<trkpt lat="55.912163" lon="26.501379">
<ele>96.461975</ele>
<time>2010-08-29T17:53:51Z</time>
<desc>lat.=55.912163, lon.=26.501379, Alt.=96.461975m. Speed=0.108000m/h.</desc>
<speed>0.030000</speed>
</trkpt>
<trkpt lat="55.912163" lon="26.501379">
<ele>96.448303</ele>
<time>2010-08-29T17:53:52Z</time>
<desc>lat.=55.912163, lon.=26.501379, Alt.=96.448303m. Speed=0.036000m/h.</desc>
<speed>0.010000</speed>
</trkpt>
<trkpt lat="55.912163" lon="26.501379">
<ele>96.434631</ele>
<time>2010-08-29T17:53:53Z</time>
<desc>lat.=55.912163, lon.=26.501379, Alt.=96.434631m. Speed=0.144000m/h.</desc>
<speed>0.040000</speed>
</trkpt>
<trkpt lat="55.912163" lon="26.501377">
<ele>96.420959</ele>
<time>2010-08-29T17:53:54Z</time>
<desc>lat.=55.912163, lon.=26.501377, Alt.=96.420959m. Speed=0.180000m/h.</desc>
<speed>0.050000</speed>
</trkpt>
<trkpt lat="55.912163" lon="26.501377">
<ele>96.409241</ele>
<time>2010-08-29T17:53:55Z</time>
<desc>lat.=55.912163, lon.=26.501377, Alt.=96.409241m. Speed=0.036000m/h.</desc>
<speed>0.010000</speed>
</trkpt>
<trkpt lat="55.912163" lon="26.501377">
<ele>96.397522</ele>
<time>2010-08-29T17:53:56Z</time>
<desc>lat.=55.912163, lon.=26.501377, Alt.=96.397522m. Speed=0.108000m/h.</desc>
<speed>0.030000</speed>
</trkpt>
<trkpt lat="55.912163" lon="26.501375">
<ele>96.381897</ele>
<time>2010-08-29T17:53:57Z</time>
<desc>lat.=55.912163, lon.=26.501375, Alt.=96.381897m. Speed=0.036000m/h.</desc>
<speed>0.010000</speed>
</trkpt>
<trkpt lat="55.912163" lon="26.501375">
<ele>96.360413</ele>
<time>2010-08-29T17:53:58Z</time>
<desc>lat.=55.912163, lon.=26.501375, Alt.=96.360413m. Speed=0.000000m/h.</desc>
<speed>0.000000</speed>
</trkpt>
<trkpt lat="55.912163" lon="26.501375">
<ele>96.356506</ele>
<time>2010-08-29T17:53:59Z</time>
<desc>lat.=55.912163, lon.=26.501375, Alt.=96.356506m. Speed=0.036000m/h.</desc>
<speed>0.010000</speed>
</trkpt>
<trkpt lat="55.912163" lon="26.501375">
<ele>96.356506</ele>
<time>2010-08-29T17:54:00Z</time>
<desc>lat.=55.912163, lon.=26.501375, Alt.=96.356506m. Speed=0.000000m/h.</desc>
<speed>0.000000</speed>
</trkpt>
<trkpt lat="55.912163" lon="26.501375">
<ele>96.358459</ele>
<time>2010-08-29T17:54:01Z</time>
<desc>lat.=55.912163, lon.=26.501375, Alt.=96.358459m. Speed=0.036000m/h.</desc>
<speed>0.010000</speed>
</trkpt>
<trkpt lat="55.912163" lon="26.501375">
<ele>96.358459</ele>
<time>2010-08-29T17:54:02Z</time>
<desc>lat.=55.912163, lon.=26.501375, Alt.=96.358459m. Speed=0.000000m/h.</desc>
<speed>0.000000</speed>
</trkpt>
<trkpt lat="55.912163" lon="26.501375">
<ele>96.356506</ele>
<time>2010-08-29T17:54:03Z</time>
<desc>lat.=55.912163, lon.=26.501375, Alt.=96.356506m. Speed=0.000000m/h.</desc>
<speed>0.000000</speed>
</trkpt>
<trkpt lat="55.912163" lon="26.501375">
<ele>96.350647</ele>
<time>2010-08-29T17:54:04Z</time>
<desc>lat.=55.912163, lon.=26.501375, Alt.=96.350647m. Speed=0.000000m/h.</desc>
<speed>0.000000</speed>
</trkpt>
<trkpt lat="55.912163" lon="26.501375">
<ele>96.348694</ele>
<time>2010-08-29T17:54:05Z</time>
<desc>lat.=55.912163, lon.=26.501375, Alt.=96.348694m. Speed=0.036000m/h.</desc>
<speed>0.010000</speed>
</trkpt>
<trkpt lat="55.912163" lon="26.501375">
<ele>96.344788</ele>
<time>2010-08-29T17:54:06Z</time>
<desc>lat.=55.912163, lon.=26.501375, Alt.=96.344788m. Speed=0.072000m/h.</desc>
<speed>0.020000</speed>
</trkpt>
<trkpt lat="55.912163" lon="26.501375">
<ele>96.336975</ele>
<time>2010-08-29T17:54:07Z</time>
<desc>lat.=55.912163, lon.=26.501375, Alt.=96.336975m. Speed=0.036000m/h.</desc>
<speed>0.010000</speed>
</trkpt>
<trkpt lat="55.912163" lon="26.501375">
<ele>96.335022</ele>
<time>2010-08-29T17:54:08Z</time>
<desc>lat.=55.912163, lon.=26.501375, Alt.=96.335022m. Speed=0.000000m/h.</desc>
<speed>0.000000</speed>
</trkpt>
<trkpt lat="55.912163" lon="26.501375">
<ele>96.331116</ele>
<time>2010-08-29T17:54:09Z</time>
<desc>lat.=55.912163, lon.=26.501375, Alt.=96.331116m. Speed=0.000000m/h.</desc>
<speed>0.000000</speed>
</trkpt>
<trkpt lat="55.912163" lon="26.501375">
<ele>96.329163</ele>
<time>2010-08-29T17:54:10Z</time>
<desc>lat.=55.912163, lon.=26.501375, Alt.=96.329163m. Speed=0.000000m/h.</desc>
<speed>0.000000</speed>
</trkpt>
<trkpt lat="55.912163" lon="26.501375">
<ele>96.323303</ele>
<time>2010-08-29T17:54:11Z</time>
<desc>lat.=55.912163, lon.=26.501375, Alt.=96.323303m. Speed=0.000000m/h.</desc>
<speed>0.000000</speed>
</trkpt>
<trkpt lat="55.912163" lon="26.501375">
<ele>96.317444</ele>
<time>2010-08-29T17:54:12Z</time>
<desc>lat.=55.912163, lon.=26.501375, Alt.=96.317444m. Speed=0.036000m/h.</desc>
<speed>0.010000</speed>
</trkpt>
<trkpt lat="55.912163" lon="26.501375">
<ele>96.313538</ele>
<time>2010-08-29T17:54:13Z</time>
<desc>lat.=55.912163, lon.=26.501375, Alt.=96.313538m. Speed=0.000000m/h.</desc>
<speed>0.000000</speed>
</trkpt>
<trkpt lat="55.912163" lon="26.501375">
<ele>96.309631</ele>
<time>2010-08-29T17:54:14Z</time>
<desc>lat.=55.912163, lon.=26.501375, Alt.=96.309631m. Speed=0.000000m/h.</desc>
<speed>0.000000</speed>
</trkpt>
<trkpt lat="55.912163" lon="26.501375">
<ele>96.305725</ele>
<time>2010-08-29T17:54:15Z</time>
<desc>lat.=55.912163, lon.=26.501375, Alt.=96.305725m. Speed=0.000000m/h.</desc>
<speed>0.000000</speed>
</trkpt>
<trkpt lat="55.912163" lon="26.501375">
<ele>96.303772</ele>
<time>2010-08-29T17:54:16Z</time>
<desc>lat.=55.912163, lon.=26.501375, Alt.=96.303772m. Speed=0.000000m/h.</desc>
<speed>0.000000</speed>
</trkpt>
<trkpt lat="55.912163" lon="26.501375">
<ele>96.299866</ele>
<time>2010-08-29T17:54:17Z</time>
<desc>lat.=55.912163, lon.=26.501375, Alt.=96.299866m. Speed=0.000000m/h.</desc>
<speed>0.000000</speed>
</trkpt>
<trkpt lat="55.912163" lon="26.501375">
<ele>96.297913</ele>
<time>2010-08-29T17:54:18Z</time>
<desc>lat.=55.912163, lon.=26.501375, Alt.=96.297913m. Speed=0.036000m/h.</desc>
<speed>0.010000</speed>
</trkpt>
<trkpt lat="55.912163" lon="26.501375">
<ele>96.295959</ele>
<time>2010-08-29T17:54:19Z</time>
<desc>lat.=55.912163, lon.=26.501375, Alt.=96.295959m. Speed=0.072000m/h.</desc>
<speed>0.020000</speed>
</trkpt>
<trkpt lat="55.912163" lon="26.501375">
<ele>96.294006</ele>
<time>2010-08-29T17:54:20Z</time>
<desc>lat.=55.912163, lon.=26.501375, Alt.=96.294006m. Speed=0.036000m/h.</desc>
<speed>0.010000</speed>
</trkpt>
<trkpt lat="55.912163" lon="26.501375">
<ele>96.292053</ele>
<time>2010-08-29T17:54:21Z</time>
<desc>lat.=55.912163, lon.=26.501375, Alt.=96.292053m. Speed=0.540000m/h.</desc>
<speed>0.150000</speed>
</trkpt>
<trkpt lat="55.912163" lon="26.501375">
<ele>96.295959</ele>
<time>2010-08-29T17:54:22Z</time>
<desc>lat.=55.912163, lon.=26.501375, Alt.=96.295959m. Speed=0.468000m/h.</desc>
<speed>0.130000</speed>
</trkpt>
<trkpt lat="55.912163" lon="26.501373">
<ele>96.256897</ele>
<time>2010-08-29T17:54:23Z</time>
<desc>lat.=55.912163, lon.=26.501373, Alt.=96.256897m. Speed=0.324000m/h.</desc>
<speed>0.090000</speed>
</trkpt>
<trkpt lat="55.912163" lon="26.501373">
<ele>96.254944</ele>
<time>2010-08-29T17:54:24Z</time>
<desc>lat.=55.912163, lon.=26.501373, Alt.=96.254944m. Speed=0.108000m/h.</desc>
<speed>0.030000</speed>
</trkpt>
<trkpt lat="55.912163" lon="26.501375">
<ele>96.251038</ele>
<time>2010-08-29T17:54:25Z</time>
<desc>lat.=55.912163, lon.=26.501375, Alt.=96.251038m. Speed=0.288000m/h.</desc>
<speed>0.080000</speed>
</trkpt>
<trkpt lat="55.912163" lon="26.501375">
<ele>96.219788</ele>
<time>2010-08-29T17:54:26Z</time>
<desc>lat.=55.912163, lon.=26.501375, Alt.=96.219788m. Speed=0.180000m/h.</desc>
<speed>0.050000</speed>
</trkpt>
<trkpt lat="55.912163" lon="26.501375">
<ele>96.202209</ele>
<time>2010-08-29T17:54:27Z</time>
<desc>lat.=55.912163, lon.=26.501375, Alt.=96.202209m. Speed=0.144000m/h.</desc>
<speed>0.040000</speed>
</trkpt>
<trkpt lat="55.912163" lon="26.501373">
<ele>96.186584</ele>
<time>2010-08-29T17:54:28Z</time>
<desc>lat.=55.912163, lon.=26.501373, Alt.=96.186584m. Speed=0.648000m/h.</desc>
<speed>0.180000</speed>
</trkpt>
<trkpt lat="55.912163" lon="26.501373">
<ele>96.262756</ele>
<time>2010-08-29T17:54:29Z</time>
<desc>lat.=55.912163, lon.=26.501373, Alt.=96.262756m. Speed=1.008000m/h.</desc>
<speed>0.280000</speed>
</trkpt>
<trkpt lat="55.912167" lon="26.501369">
<ele>96.336975</ele>
<time>2010-08-29T17:54:30Z</time>
<desc>lat.=55.912167, lon.=26.501369, Alt.=96.336975m. Speed=0.324000m/h.</desc>
<speed>0.090000</speed>
</trkpt>
<trkpt lat="55.912163" lon="26.501371">
<ele>96.417053</ele>
<time>2010-08-29T17:54:31Z</time>
<desc>lat.=55.912163, lon.=26.501371, Alt.=96.417053m. Speed=0.360000m/h.</desc>
<speed>0.100000</speed>
</trkpt>
<trkpt lat="55.912163" lon="26.501371">
<ele>96.481506</ele>
<time>2010-08-29T17:54:32Z</time>
<desc>lat.=55.912163, lon.=26.501371, Alt.=96.481506m. Speed=0.216000m/h.</desc>
<speed>0.060000</speed>
</trkpt>
<trkpt lat="55.912163" lon="26.501373">
<ele>96.524475</ele>
<time>2010-08-29T17:54:33Z</time>
<desc>lat.=55.912163, lon.=26.501373, Alt.=96.524475m. Speed=0.036000m/h.</desc>
<speed>0.010000</speed>
</trkpt>
<trkpt lat="55.912163" lon="26.501373">
<ele>96.530334</ele>
<time>2010-08-29T17:54:34Z</time>
<desc>lat.=55.912163, lon.=26.501373, Alt.=96.530334m. Speed=0.072000m/h.</desc>
<speed>0.020000</speed>
</trkpt>
<trkpt lat="55.912163" lon="26.501373">
<ele>96.528381</ele>
<time>2010-08-29T17:54:35Z</time>
<desc>lat.=55.912163, lon.=26.501373, Alt.=96.528381m. Speed=0.000000m/h.</desc>
<speed>0.000000</speed>
</trkpt>
<trkpt lat="55.912163" lon="26.501373">
<ele>96.512756</ele>
<time>2010-08-29T17:54:36Z</time>
<desc>lat.=55.912163, lon.=26.501373, Alt.=96.512756m. Speed=0.036000m/h.</desc>
<speed>0.010000</speed>
</trkpt>
<trkpt lat="55.912163" lon="26.501373">
<ele>96.506897</ele>
<time>2010-08-29T17:54:37Z</time>
<desc>lat.=55.912163, lon.=26.501373, Alt.=96.506897m. Speed=0.000000m/h.</desc>
<speed>0.000000</speed>
</trkpt>
<trkpt lat="55.912163" lon="26.501373">
<ele>96.502991</ele>
<time>2010-08-29T17:54:38Z</time>
<desc>lat.=55.912163, lon.=26.501373, Alt.=96.502991m. Speed=0.000000m/h.</desc>
<speed>0.000000</speed>
</trkpt>
<trkpt lat="55.912163" lon="26.501373">
<ele>96.497131</ele>
<time>2010-08-29T17:54:39Z</time>
<desc>lat.=55.912163, lon.=26.501373, Alt.=96.497131m. Speed=0.036000m/h.</desc>
<speed>0.010000</speed>
</trkpt>
<trkpt lat="55.912163" lon="26.501371">
<ele>96.497131</ele>
<time>2010-08-29T17:54:40Z</time>
<desc>lat.=55.912163, lon.=26.501371, Alt.=96.497131m. Speed=0.036000m/h.</desc>
<speed>0.010000</speed>
</trkpt>
<trkpt lat="55.912163" lon="26.501371">
<ele>96.495178</ele>
<time>2010-08-29T17:54:41Z</time>
<desc>lat.=55.912163, lon.=26.501371, Alt.=96.495178m. Speed=0.360000m/h.</desc>
<speed>0.100000</speed>
</trkpt>
<trkpt lat="55.912163" lon="26.501371">
<ele>96.487366</ele>
<time>2010-08-29T17:54:42Z</time>
<desc>lat.=55.912163, lon.=26.501371, Alt.=96.487366m. Speed=0.072000m/h.</desc>
<speed>0.020000</speed>
</trkpt>
<trkpt lat="55.912163" lon="26.501371">
<ele>96.489319</ele>
<time>2010-08-29T17:54:43Z</time>
<desc>lat.=55.912163, lon.=26.501371, Alt.=96.489319m. Speed=0.072000m/h.</desc>
<speed>0.020000</speed>
</trkpt>
<trkpt lat="55.912163" lon="26.501371">
<ele>96.489319</ele>
<time>2010-08-29T17:54:44Z</time>
<desc>lat.=55.912163, lon.=26.501371, Alt.=96.489319m. Speed=0.036000m/h.</desc>
<speed>0.010000</speed>
</trkpt>
<trkpt lat="55.912163" lon="26.501371">
<ele>96.491272</ele>
<time>2010-08-29T17:54:45Z</time>
<desc>lat.=55.912163, lon.=26.501371, Alt.=96.491272m. Speed=0.252000m/h.</desc>
<speed>0.070000</speed>
</trkpt>
<trkpt lat="55.912163" lon="26.501371">
<ele>96.489319</ele>
<time>2010-08-29T17:54:46Z</time>
<desc>lat.=55.912163, lon.=26.501371, Alt.=96.489319m. Speed=0.036000m/h.</desc>
<speed>0.010000</speed>
</trkpt>
<trkpt lat="55.912163" lon="26.501371">
<ele>96.487366</ele>
<time>2010-08-29T17:54:47Z</time>
<desc>lat.=55.912163, lon.=26.501371, Alt.=96.487366m. Speed=0.108000m/h.</desc>
<speed>0.030000</speed>
</trkpt>
<trkpt lat="55.912163" lon="26.501373">
<ele>96.487366</ele>
<time>2010-08-29T17:54:48Z</time>
<desc>lat.=55.912163, lon.=26.501373, Alt.=96.487366m. Speed=0.000000m/h.</desc>
<speed>0.000000</speed>
</trkpt>
<trkpt lat="55.912163" lon="26.501371">
<ele>96.487366</ele>
<time>2010-08-29T17:54:49Z</time>
<desc>lat.=55.912163, lon.=26.501371, Alt.=96.487366m. Speed=0.108000m/h.</desc>
<speed>0.030000</speed>
</trkpt>
<trkpt lat="55.912163" lon="26.501371">
<ele>96.485413</ele>
<time>2010-08-29T17:54:50Z</time>
<desc>lat.=55.912163, lon.=26.501371, Alt.=96.485413m. Speed=0.036000m/h.</desc>
<speed>0.010000</speed>
</trkpt>
<trkpt lat="55.912163" lon="26.501371">
<ele>96.487366</ele>
<time>2010-08-29T17:54:51Z</time>
<desc>lat.=55.912163, lon.=26.501371, Alt.=96.487366m. Speed=0.000000m/h.</desc>
<speed>0.000000</speed>
</trkpt>
<trkpt lat="55.912163" lon="26.501371">
<ele>96.487366</ele>
<time>2010-08-29T17:54:52Z</time>
<desc>lat.=55.912163, lon.=26.501371, Alt.=96.487366m. Speed=0.000000m/h.</desc>
<speed>0.000000</speed>
</trkpt>
<trkpt lat="55.912163" lon="26.501371">
<ele>96.489319</ele>
<time>2010-08-29T17:54:53Z</time>
<desc>lat.=55.912163, lon.=26.501371, Alt.=96.489319m. Speed=0.036000m/h.</desc>
<speed>0.010000</speed>
</trkpt>
<trkpt lat="55.912163" lon="26.501371">
<ele>96.487366</ele>
<time>2010-08-29T17:54:54Z</time>
<desc>lat.=55.912163, lon.=26.501371, Alt.=96.487366m. Speed=0.288000m/h.</desc>
<speed>0.080000</speed>
</trkpt>
<trkpt lat="55.912163" lon="26.501373">
<ele>96.485413</ele>
<time>2010-08-29T17:54:55Z</time>
<desc>lat.=55.912163, lon.=26.501373, Alt.=96.485413m. Speed=0.396000m/h.</desc>
<speed>0.110000</speed>
</trkpt>
<trkpt lat="55.912167" lon="26.501373">
<ele>96.479553</ele>
<time>2010-08-29T17:54:56Z</time>
<desc>lat.=55.912167, lon.=26.501373, Alt.=96.479553m. Speed=0.468000m/h.</desc>
<speed>0.130000</speed>
</trkpt>
<trkpt lat="55.912167" lon="26.501373">
<ele>96.477600</ele>
<time>2010-08-29T17:54:57Z</time>
<desc>lat.=55.912167, lon.=26.501373, Alt.=96.477600m. Speed=0.936000m/h.</desc>
<speed>0.260000</speed>
</trkpt>
<trkpt lat="55.912170" lon="26.501375">
<ele>96.473694</ele>
<time>2010-08-29T17:54:58Z</time>
<desc>lat.=55.912170, lon.=26.501375, Alt.=96.473694m. Speed=1.044000m/h.</desc>
<speed>0.290000</speed>
</trkpt>
<trkpt lat="55.912170" lon="26.501375">
<ele>96.467834</ele>
<time>2010-08-29T17:54:59Z</time>
<desc>lat.=55.912170, lon.=26.501375, Alt.=96.467834m. Speed=1.152000m/h.</desc>
<speed>0.320000</speed>
</trkpt>
<trkpt lat="55.912174" lon="26.501377">
<ele>96.393616</ele>
<time>2010-08-29T17:55:00Z</time>
<desc>lat.=55.912174, lon.=26.501377, Alt.=96.393616m. Speed=1.332000m/h.</desc>
<speed>0.370000</speed>
</trkpt>
<trkpt lat="55.912182" lon="26.501369">
<ele>96.434631</ele>
<time>2010-08-29T17:55:01Z</time>
<desc>lat.=55.912182, lon.=26.501369, Alt.=96.434631m. Speed=2.304000m/h.</desc>
<speed>0.640000</speed>
</trkpt>
<trkpt lat="55.912193" lon="26.501369">
<ele>96.354553</ele>
<time>2010-08-29T17:55:02Z</time>
<desc>lat.=55.912193, lon.=26.501369, Alt.=96.354553m. Speed=2.304000m/h.</desc>
<speed>0.640000</speed>
</trkpt>
<trkpt lat="55.912197" lon="26.501368">
<ele>96.559631</ele>
<time>2010-08-29T17:55:03Z</time>
<desc>lat.=55.912197, lon.=26.501368, Alt.=96.559631m. Speed=0.720000m/h.</desc>
<speed>0.200000</speed>
</trkpt>
<trkpt lat="55.912201" lon="26.501366">
<ele>96.700256</ele>
<time>2010-08-29T17:55:04Z</time>
<desc>lat.=55.912201, lon.=26.501366, Alt.=96.700256m. Speed=0.144000m/h.</desc>
<speed>0.040000</speed>
</trkpt>
<trkpt lat="55.912201" lon="26.501360">
<ele>96.854553</ele>
<time>2010-08-29T17:55:05Z</time>
<desc>lat.=55.912201, lon.=26.501360, Alt.=96.854553m. Speed=0.288000m/h.</desc>
<speed>0.080000</speed>
</trkpt>
<trkpt lat="55.912201" lon="26.501356">
<ele>96.995178</ele>
<time>2010-08-29T17:55:06Z</time>
<desc>lat.=55.912201, lon.=26.501356, Alt.=96.995178m. Speed=0.036000m/h.</desc>
<speed>0.010000</speed>
</trkpt>
<trkpt lat="55.912201" lon="26.501354">
<ele>97.108459</ele>
<time>2010-08-29T17:55:07Z</time>
<desc>lat.=55.912201, lon.=26.501354, Alt.=97.108459m. Speed=0.108000m/h.</desc>
<speed>0.030000</speed>
</trkpt>
<trkpt lat="55.912201" lon="26.501354">
<ele>97.157288</ele>
<time>2010-08-29T17:55:08Z</time>
<desc>lat.=55.912201, lon.=26.501354, Alt.=97.157288m. Speed=0.180000m/h.</desc>
<speed>0.050000</speed>
</trkpt>
<trkpt lat="55.912205" lon="26.501354">
<ele>97.194397</ele>
<time>2010-08-29T17:55:09Z</time>
<desc>lat.=55.912205, lon.=26.501354, Alt.=97.194397m. Speed=0.036000m/h.</desc>
<speed>0.010000</speed>
</trkpt>
<trkpt lat="55.912205" lon="26.501354">
<ele>97.225647</ele>
<time>2010-08-29T17:55:10Z</time>
<desc>lat.=55.912205, lon.=26.501354, Alt.=97.225647m. Speed=0.108000m/h.</desc>
<speed>0.030000</speed>
</trkpt>
<trkpt lat="55.912205" lon="26.501352">
<ele>97.256897</ele>
<time>2010-08-29T17:55:11Z</time>
<desc>lat.=55.912205, lon.=26.501352, Alt.=97.256897m. Speed=0.036000m/h.</desc>
<speed>0.010000</speed>
</trkpt>
<trkpt lat="55.912205" lon="26.501352">
<ele>97.290100</ele>
<time>2010-08-29T17:55:12Z</time>
<desc>lat.=55.912205, lon.=26.501352, Alt.=97.290100m. Speed=0.036000m/h.</desc>
<speed>0.010000</speed>
</trkpt>
<trkpt lat="55.912205" lon="26.501352">
<ele>97.323303</ele>
<time>2010-08-29T17:55:13Z</time>
<desc>lat.=55.912205, lon.=26.501352, Alt.=97.323303m. Speed=0.072000m/h.</desc>
<speed>0.020000</speed>
</trkpt>
<trkpt lat="55.912205" lon="26.501354">
<ele>97.354553</ele>
<time>2010-08-29T17:55:14Z</time>
<desc>lat.=55.912205, lon.=26.501354, Alt.=97.354553m. Speed=0.072000m/h.</desc>
<speed>0.020000</speed>
</trkpt>
<trkpt lat="55.912205" lon="26.501354">
<ele>97.387756</ele>
<time>2010-08-29T17:55:15Z</time>
<desc>lat.=55.912205, lon.=26.501354, Alt.=97.387756m. Speed=0.072000m/h.</desc>
<speed>0.020000</speed>
</trkpt>
<trkpt lat="55.912205" lon="26.501354">
<ele>97.422913</ele>
<time>2010-08-29T17:55:16Z</time>
<desc>lat.=55.912205, lon.=26.501354, Alt.=97.422913m. Speed=0.072000m/h.</desc>
<speed>0.020000</speed>
</trkpt>
<trkpt lat="55.912205" lon="26.501354">
<ele>97.458069</ele>
<time>2010-08-29T17:55:17Z</time>
<desc>lat.=55.912205, lon.=26.501354, Alt.=97.458069m. Speed=0.036000m/h.</desc>
<speed>0.010000</speed>
</trkpt>
<trkpt lat="55.912205" lon="26.501354">
<ele>97.491272</ele>
<time>2010-08-29T17:55:18Z</time>
<desc>lat.=55.912205, lon.=26.501354, Alt.=97.491272m. Speed=0.108000m/h.</desc>
<speed>0.030000</speed>
</trkpt>
<trkpt lat="55.912205" lon="26.501354">
<ele>97.522522</ele>
<time>2010-08-29T17:55:19Z</time>
<desc>lat.=55.912205, lon.=26.501354, Alt.=97.522522m. Speed=0.036000m/h.</desc>
<speed>0.010000</speed>
</trkpt>
<trkpt lat="55.912205" lon="26.501354">
<ele>97.555725</ele>
<time>2010-08-29T17:55:20Z</time>
<desc>lat.=55.912205, lon.=26.501354, Alt.=97.555725m. Speed=0.072000m/h.</desc>
<speed>0.020000</speed>
</trkpt>
<trkpt lat="55.912205" lon="26.501354">
<ele>97.588928</ele>
<time>2010-08-29T17:55:21Z</time>
<desc>lat.=55.912205, lon.=26.501354, Alt.=97.588928m. Speed=0.072000m/h.</desc>
<speed>0.020000</speed>
</trkpt>
<trkpt lat="55.912205" lon="26.501354">
<ele>97.620178</ele>
<time>2010-08-29T17:55:22Z</time>
<desc>lat.=55.912205, lon.=26.501354, Alt.=97.620178m. Speed=0.072000m/h.</desc>
<speed>0.020000</speed>
</trkpt>
<trkpt lat="55.912205" lon="26.501354">
<ele>97.651428</ele>
<time>2010-08-29T17:55:23Z</time>
<desc>lat.=55.912205, lon.=26.501354, Alt.=97.651428m. Speed=0.144000m/h.</desc>
<speed>0.040000</speed>
</trkpt>
<trkpt lat="55.912205" lon="26.501354">
<ele>97.670959</ele>
<time>2010-08-29T17:55:24Z</time>
<desc>lat.=55.912205, lon.=26.501354, Alt.=97.670959m. Speed=0.180000m/h.</desc>
<speed>0.050000</speed>
</trkpt>
<trkpt lat="55.912205" lon="26.501356">
<ele>97.672913</ele>
<time>2010-08-29T17:55:25Z</time>
<desc>lat.=55.912205, lon.=26.501356, Alt.=97.672913m. Speed=0.108000m/h.</desc>
<speed>0.030000</speed>
</trkpt>
<trkpt lat="55.912205" lon="26.501356">
<ele>97.672913</ele>
<time>2010-08-29T17:55:26Z</time>
<desc>lat.=55.912205, lon.=26.501356, Alt.=97.672913m. Speed=0.000000m/h.</desc>
<speed>0.000000</speed>
</trkpt>
<trkpt lat="55.912205" lon="26.501356">
<ele>97.667053</ele>
<time>2010-08-29T17:55:27Z</time>
<desc>lat.=55.912205, lon.=26.501356, Alt.=97.667053m. Speed=0.000000m/h.</desc>
<speed>0.000000</speed>
</trkpt>
<trkpt lat="55.912205" lon="26.501356">
<ele>97.659241</ele>
<time>2010-08-29T17:55:28Z</time>
<desc>lat.=55.912205, lon.=26.501356, Alt.=97.659241m. Speed=0.000000m/h.</desc>
<speed>0.000000</speed>
</trkpt>
<trkpt lat="55.912205" lon="26.501356">
<ele>97.653381</ele>
<time>2010-08-29T17:55:29Z</time>
<desc>lat.=55.912205, lon.=26.501356, Alt.=97.653381m. Speed=0.000000m/h.</desc>
<speed>0.000000</speed>
</trkpt>
<trkpt lat="55.912205" lon="26.501356">
<ele>97.647522</ele>
<time>2010-08-29T17:55:30Z</time>
<desc>lat.=55.912205, lon.=26.501356, Alt.=97.647522m. Speed=0.036000m/h.</desc>
<speed>0.010000</speed>
</trkpt>
<trkpt lat="55.912205" lon="26.501356">
<ele>97.637756</ele>
<time>2010-08-29T17:55:31Z</time>
<desc>lat.=55.912205, lon.=26.501356, Alt.=97.637756m. Speed=0.396000m/h.</desc>
<speed>0.110000</speed>
</trkpt>
<trkpt lat="55.912205" lon="26.501354">
<ele>97.600647</ele>
<time>2010-08-29T17:55:32Z</time>
<desc>lat.=55.912205, lon.=26.501354, Alt.=97.600647m. Speed=0.864000m/h.</desc>
<speed>0.240000</speed>
</trkpt>
<trkpt lat="55.912205" lon="26.501350">
<ele>97.514709</ele>
<time>2010-08-29T17:55:33Z</time>
<desc>lat.=55.912205, lon.=26.501350, Alt.=97.514709m. Speed=0.612000m/h.</desc>
<speed>0.170000</speed>
</trkpt>
<trkpt lat="55.912209" lon="26.501350">
<ele>97.409241</ele>
<time>2010-08-29T17:55:34Z</time>
<desc>lat.=55.912209, lon.=26.501350, Alt.=97.409241m. Speed=0.324000m/h.</desc>
<speed>0.090000</speed>
</trkpt>
<trkpt lat="55.912209" lon="26.501348">
<ele>97.385803</ele>
<time>2010-08-29T17:55:35Z</time>
<desc>lat.=55.912209, lon.=26.501348, Alt.=97.385803m. Speed=2.016000m/h.</desc>
<speed>0.560000</speed>
</trkpt>
<trkpt lat="55.912212" lon="26.501345">
<ele>97.350647</ele>
<time>2010-08-29T17:55:36Z</time>
<desc>lat.=55.912212, lon.=26.501345, Alt.=97.350647m. Speed=2.160000m/h.</desc>
<speed>0.600000</speed>
</trkpt>
<trkpt lat="55.912212" lon="26.501341">
<ele>97.235413</ele>
<time>2010-08-29T17:55:37Z</time>
<desc>lat.=55.912212, lon.=26.501341, Alt.=97.235413m. Speed=0.648000m/h.</desc>
<speed>0.180000</speed>
</trkpt>
<trkpt lat="55.912212" lon="26.501339">
<ele>96.825256</ele>
<time>2010-08-29T17:55:38Z</time>
<desc>lat.=55.912212, lon.=26.501339, Alt.=96.825256m. Speed=0.360000m/h.</desc>
<speed>0.100000</speed>
</trkpt>
<trkpt lat="55.912212" lon="26.501341">
<ele>96.815491</ele>
<time>2010-08-29T17:55:39Z</time>
<desc>lat.=55.912212, lon.=26.501341, Alt.=96.815491m. Speed=0.756000m/h.</desc>
<speed>0.210000</speed>
</trkpt>
<trkpt lat="55.912216" lon="26.501339">
<ele>96.794006</ele>
<time>2010-08-29T17:55:40Z</time>
<desc>lat.=55.912216, lon.=26.501339, Alt.=96.794006m. Speed=0.324000m/h.</desc>
<speed>0.090000</speed>
</trkpt>
<trkpt lat="55.912216" lon="26.501339">
<ele>96.776428</ele>
<time>2010-08-29T17:55:41Z</time>
<desc>lat.=55.912216, lon.=26.501339, Alt.=96.776428m. Speed=0.108000m/h.</desc>
<speed>0.030000</speed>
</trkpt>
<trkpt lat="55.912216" lon="26.501337">
<ele>96.752991</ele>
<time>2010-08-29T17:55:42Z</time>
<desc>lat.=55.912216, lon.=26.501337, Alt.=96.752991m. Speed=0.072000m/h.</desc>
<speed>0.020000</speed>
</trkpt>
<trkpt lat="55.912216" lon="26.501337">
<ele>96.731506</ele>
<time>2010-08-29T17:55:43Z</time>
<desc>lat.=55.912216, lon.=26.501337, Alt.=96.731506m. Speed=0.468000m/h.</desc>
<speed>0.130000</speed>
</trkpt>
<trkpt lat="55.912212" lon="26.501335">
<ele>96.710022</ele>
<time>2010-08-29T17:55:44Z</time>
<desc>lat.=55.912212, lon.=26.501335, Alt.=96.710022m. Speed=0.216000m/h.</desc>
<speed>0.060000</speed>
</trkpt>
<trkpt lat="55.912216" lon="26.501335">
<ele>96.694397</ele>
<time>2010-08-29T17:55:45Z</time>
<desc>lat.=55.912216, lon.=26.501335, Alt.=96.694397m. Speed=0.324000m/h.</desc>
<speed>0.090000</speed>
</trkpt>
<trkpt lat="55.912216" lon="26.501333">
<ele>96.682678</ele>
<time>2010-08-29T17:55:46Z</time>
<desc>lat.=55.912216, lon.=26.501333, Alt.=96.682678m. Speed=0.036000m/h.</desc>
<speed>0.010000</speed>
</trkpt>
<trkpt lat="55.912216" lon="26.501333">
<ele>96.672913</ele>
<time>2010-08-29T17:55:47Z</time>
<desc>lat.=55.912216, lon.=26.501333, Alt.=96.672913m. Speed=0.072000m/h.</desc>
<speed>0.020000</speed>
</trkpt>
<trkpt lat="55.912216" lon="26.501333">
<ele>96.669006</ele>
<time>2010-08-29T17:55:48Z</time>
<desc>lat.=55.912216, lon.=26.501333, Alt.=96.669006m. Speed=0.072000m/h.</desc>
<speed>0.020000</speed>
</trkpt>
<trkpt lat="55.912216" lon="26.501333">
<ele>96.655334</ele>
<time>2010-08-29T17:55:49Z</time>
<desc>lat.=55.912216, lon.=26.501333, Alt.=96.655334m. Speed=0.036000m/h.</desc>
<speed>0.010000</speed>
</trkpt>
<trkpt lat="55.912216" lon="26.501333">
<ele>96.643616</ele>
<time>2010-08-29T17:55:50Z</time>
<desc>lat.=55.912216, lon.=26.501333, Alt.=96.643616m. Speed=0.036000m/h.</desc>
<speed>0.010000</speed>
</trkpt>
<trkpt lat="55.912216" lon="26.501333">
<ele>96.649475</ele>
<time>2010-08-29T17:55:51Z</time>
<desc>lat.=55.912216, lon.=26.501333, Alt.=96.649475m. Speed=0.072000m/h.</desc>
<speed>0.020000</speed>
</trkpt>
<trkpt lat="55.912216" lon="26.501333">
<ele>96.637756</ele>
<time>2010-08-29T17:55:52Z</time>
<desc>lat.=55.912216, lon.=26.501333, Alt.=96.637756m. Speed=0.000000m/h.</desc>
<speed>0.000000</speed>
</trkpt>
<trkpt lat="55.912216" lon="26.501333">
<ele>96.624084</ele>
<time>2010-08-29T17:55:53Z</time>
<desc>lat.=55.912216, lon.=26.501333, Alt.=96.624084m. Speed=0.036000m/h.</desc>
<speed>0.010000</speed>
</trkpt>
<trkpt lat="55.912216" lon="26.501333">
<ele>96.612366</ele>
<time>2010-08-29T17:55:54Z</time>
<desc>lat.=55.912216, lon.=26.501333, Alt.=96.612366m. Speed=0.108000m/h.</desc>
<speed>0.030000</speed>
</trkpt>
<trkpt lat="55.912216" lon="26.501333">
<ele>96.610413</ele>
<time>2010-08-29T17:55:55Z</time>
<desc>lat.=55.912216, lon.=26.501333, Alt.=96.610413m. Speed=0.072000m/h.</desc>
<speed>0.020000</speed>
</trkpt>
<trkpt lat="55.912216" lon="26.501335">
<ele>96.614319</ele>
<time>2010-08-29T17:55:56Z</time>
<desc>lat.=55.912216, lon.=26.501335, Alt.=96.614319m. Speed=0.072000m/h.</desc>
<speed>0.020000</speed>
</trkpt>
<trkpt lat="55.912216" lon="26.501333">
<ele>96.614319</ele>
<time>2010-08-29T17:55:57Z</time>
<desc>lat.=55.912216, lon.=26.501333, Alt.=96.614319m. Speed=0.072000m/h.</desc>
<speed>0.020000</speed>
</trkpt>
<trkpt lat="55.912216" lon="26.501335">
<ele>96.616272</ele>
<time>2010-08-29T17:55:58Z</time>
<desc>lat.=55.912216, lon.=26.501335, Alt.=96.616272m. Speed=0.144000m/h.</desc>
<speed>0.040000</speed>
</trkpt>
<trkpt lat="55.912216" lon="26.501335">
<ele>96.618225</ele>
<time>2010-08-29T17:55:59Z</time>
<desc>lat.=55.912216, lon.=26.501335, Alt.=96.618225m. Speed=0.180000m/h.</desc>
<speed>0.050000</speed>
</trkpt>
<trkpt lat="55.912216" lon="26.501335">
<ele>96.620178</ele>
<time>2010-08-29T17:56:00Z</time>
<desc>lat.=55.912216, lon.=26.501335, Alt.=96.620178m. Speed=0.108000m/h.</desc>
<speed>0.030000</speed>
</trkpt>
<trkpt lat="55.912216" lon="26.501335">
<ele>96.620178</ele>
<time>2010-08-29T17:56:01Z</time>
<desc>lat.=55.912216, lon.=26.501335, Alt.=96.620178m. Speed=0.144000m/h.</desc>
<speed>0.040000</speed>
</trkpt>
<trkpt lat="55.912216" lon="26.501335">
<ele>96.620178</ele>
<time>2010-08-29T17:56:02Z</time>
<desc>lat.=55.912216, lon.=26.501335, Alt.=96.620178m. Speed=0.036000m/h.</desc>
<speed>0.010000</speed>
</trkpt>
<trkpt lat="55.912216" lon="26.501335">
<ele>96.616272</ele>
<time>2010-08-29T17:56:03Z</time>
<desc>lat.=55.912216, lon.=26.501335, Alt.=96.616272m. Speed=0.000000m/h.</desc>
<speed>0.000000</speed>
</trkpt>
<trkpt lat="55.912216" lon="26.501335">
<ele>96.608459</ele>
<time>2010-08-29T17:56:04Z</time>
<desc>lat.=55.912216, lon.=26.501335, Alt.=96.608459m. Speed=0.108000m/h.</desc>
<speed>0.030000</speed>
</trkpt>
<trkpt lat="55.912216" lon="26.501335">
<ele>96.602600</ele>
<time>2010-08-29T17:56:05Z</time>
<desc>lat.=55.912216, lon.=26.501335, Alt.=96.602600m. Speed=0.000000m/h.</desc>
<speed>0.000000</speed>
</trkpt>
<trkpt lat="55.912216" lon="26.501335">
<ele>96.592834</ele>
<time>2010-08-29T17:56:06Z</time>
<desc>lat.=55.912216, lon.=26.501335, Alt.=96.592834m. Speed=0.000000m/h.</desc>
<speed>0.000000</speed>
</trkpt>
<trkpt lat="55.912216" lon="26.501335">
<ele>96.606506</ele>
<time>2010-08-29T17:56:07Z</time>
<desc>lat.=55.912216, lon.=26.501335, Alt.=96.606506m. Speed=0.108000m/h.</desc>
<speed>0.030000</speed>
</trkpt>
<trkpt lat="55.912216" lon="26.501335">
<ele>96.626038</ele>
<time>2010-08-29T17:56:08Z</time>
<desc>lat.=55.912216, lon.=26.501335, Alt.=96.626038m. Speed=0.072000m/h.</desc>
<speed>0.020000</speed>
</trkpt>
<trkpt lat="55.912216" lon="26.501335">
<ele>96.612366</ele>
<time>2010-08-29T17:56:09Z</time>
<desc>lat.=55.912216, lon.=26.501335, Alt.=96.612366m. Speed=0.072000m/h.</desc>
<speed>0.020000</speed>
</trkpt>
<trkpt lat="55.912216" lon="26.501335">
<ele>96.626038</ele>
<time>2010-08-29T17:56:10Z</time>
<desc>lat.=55.912216, lon.=26.501335, Alt.=96.626038m. Speed=0.180000m/h.</desc>
<speed>0.050000</speed>
</trkpt>
<trkpt lat="55.912216" lon="26.501337">
<ele>96.626038</ele>
<time>2010-08-29T17:56:11Z</time>
<desc>lat.=55.912216, lon.=26.501337, Alt.=96.626038m. Speed=0.504000m/h.</desc>
<speed>0.140000</speed>
</trkpt>
<trkpt lat="55.912216" lon="26.501339">
<ele>96.598694</ele>
<time>2010-08-29T17:56:12Z</time>
<desc>lat.=55.912216, lon.=26.501339, Alt.=96.598694m. Speed=0.252000m/h.</desc>
<speed>0.070000</speed>
</trkpt>
<trkpt lat="55.912216" lon="26.501339">
<ele>96.577209</ele>
<time>2010-08-29T17:56:13Z</time>
<desc>lat.=55.912216, lon.=26.501339, Alt.=96.577209m. Speed=1.044000m/h.</desc>
<speed>0.290000</speed>
</trkpt>
<trkpt lat="55.912220" lon="26.501337">
<ele>96.606506</ele>
<time>2010-08-29T17:56:14Z</time>
<desc>lat.=55.912220, lon.=26.501337, Alt.=96.606506m. Speed=2.556000m/h.</desc>
<speed>0.710000</speed>
</trkpt>
<trkpt lat="55.912224" lon="26.501333">
<ele>96.286194</ele>
<time>2010-08-29T17:56:15Z</time>
<desc>lat.=55.912224, lon.=26.501333, Alt.=96.286194m. Speed=0.900000m/h.</desc>
<speed>0.250000</speed>
</trkpt>
<trkpt lat="55.912224" lon="26.501329">
<ele>96.118225</ele>
<time>2010-08-29T17:56:16Z</time>
<desc>lat.=55.912224, lon.=26.501329, Alt.=96.118225m. Speed=0.612000m/h.</desc>
<speed>0.170000</speed>
</trkpt>
<trkpt lat="55.912220" lon="26.501329">
<ele>95.739319</ele>
<time>2010-08-29T17:56:17Z</time>
<desc>lat.=55.912220, lon.=26.501329, Alt.=95.739319m. Speed=0.252000m/h.</desc>
<speed>0.070000</speed>
</trkpt>
<trkpt lat="55.912220" lon="26.501331">
<ele>95.756897</ele>
<time>2010-08-29T17:56:18Z</time>
<desc>lat.=55.912220, lon.=26.501331, Alt.=95.756897m. Speed=0.180000m/h.</desc>
<speed>0.050000</speed>
</trkpt>
<trkpt lat="55.912224" lon="26.501331">
<ele>95.805725</ele>
<time>2010-08-29T17:56:19Z</time>
<desc>lat.=55.912224, lon.=26.501331, Alt.=95.805725m. Speed=0.108000m/h.</desc>
<speed>0.030000</speed>
</trkpt>
<trkpt lat="55.912224" lon="26.501331">
<ele>95.836975</ele>
<time>2010-08-29T17:56:20Z</time>
<desc>lat.=55.912224, lon.=26.501331, Alt.=95.836975m. Speed=0.216000m/h.</desc>
<speed>0.060000</speed>
</trkpt>
<trkpt lat="55.912224" lon="26.501333">
<ele>95.870178</ele>
<time>2010-08-29T17:56:21Z</time>
<desc>lat.=55.912224, lon.=26.501333, Alt.=95.870178m. Speed=0.000000m/h.</desc>
<speed>0.000000</speed>
</trkpt>
<trkpt lat="55.912224" lon="26.501333">
<ele>95.899475</ele>
<time>2010-08-29T17:56:22Z</time>
<desc>lat.=55.912224, lon.=26.501333, Alt.=95.899475m. Speed=0.288000m/h.</desc>
<speed>0.080000</speed>
</trkpt>
<trkpt lat="55.912224" lon="26.501331">
<ele>95.920959</ele>
<time>2010-08-29T17:56:23Z</time>
<desc>lat.=55.912224, lon.=26.501331, Alt.=95.920959m. Speed=0.108000m/h.</desc>
<speed>0.030000</speed>
</trkpt>
<trkpt lat="55.912224" lon="26.501331">
<ele>95.917053</ele>
<time>2010-08-29T17:56:24Z</time>
<desc>lat.=55.912224, lon.=26.501331, Alt.=95.917053m. Speed=0.108000m/h.</desc>
<speed>0.030000</speed>
</trkpt>
<trkpt lat="55.912224" lon="26.501331">
<ele>95.913147</ele>
<time>2010-08-29T17:56:25Z</time>
<desc>lat.=55.912224, lon.=26.501331, Alt.=95.913147m. Speed=0.216000m/h.</desc>
<speed>0.060000</speed>
</trkpt>
<trkpt lat="55.912224" lon="26.501331">
<ele>95.901428</ele>
<time>2010-08-29T17:56:26Z</time>
<desc>lat.=55.912224, lon.=26.501331, Alt.=95.901428m. Speed=0.216000m/h.</desc>
<speed>0.060000</speed>
</trkpt>
<trkpt lat="55.912224" lon="26.501331">
<ele>95.899475</ele>
<time>2010-08-29T17:56:27Z</time>
<desc>lat.=55.912224, lon.=26.501331, Alt.=95.899475m. Speed=0.216000m/h.</desc>
<speed>0.060000</speed>
</trkpt>
<trkpt lat="55.912224" lon="26.501331">
<ele>95.915100</ele>
<time>2010-08-29T17:56:28Z</time>
<desc>lat.=55.912224, lon.=26.501331, Alt.=95.915100m. Speed=0.072000m/h.</desc>
<speed>0.020000</speed>
</trkpt>
<trkpt lat="55.912224" lon="26.501331">
<ele>95.930725</ele>
<time>2010-08-29T17:56:29Z</time>
<desc>lat.=55.912224, lon.=26.501331, Alt.=95.930725m. Speed=0.180000m/h.</desc>
<speed>0.050000</speed>
</trkpt>
<trkpt lat="55.912224" lon="26.501331">
<ele>95.948303</ele>
<time>2010-08-29T17:56:30Z</time>
<desc>lat.=55.912224, lon.=26.501331, Alt.=95.948303m. Speed=0.252000m/h.</desc>
<speed>0.070000</speed>
</trkpt>
<trkpt lat="55.912224" lon="26.501331">
<ele>95.965881</ele>
<time>2010-08-29T17:56:31Z</time>
<desc>lat.=55.912224, lon.=26.501331, Alt.=95.965881m. Speed=0.576000m/h.</desc>
<speed>0.160000</speed>
</trkpt>
<trkpt lat="55.912224" lon="26.501331">
<ele>95.985413</ele>
<time>2010-08-29T17:56:32Z</time>
<desc>lat.=55.912224, lon.=26.501331, Alt.=95.985413m. Speed=0.072000m/h.</desc>
<speed>0.020000</speed>
</trkpt>
<trkpt lat="55.912224" lon="26.501331">
<ele>96.010803</ele>
<time>2010-08-29T17:56:33Z</time>
<desc>lat.=55.912224, lon.=26.501331, Alt.=96.010803m. Speed=0.288000m/h.</desc>
<speed>0.080000</speed>
</trkpt>
<trkpt lat="55.912224" lon="26.501331">
<ele>96.034241</ele>
<time>2010-08-29T17:56:34Z</time>
<desc>lat.=55.912224, lon.=26.501331, Alt.=96.034241m. Speed=0.180000m/h.</desc>
<speed>0.050000</speed>
</trkpt>
<trkpt lat="55.912224" lon="26.501329">
<ele>96.057678</ele>
<time>2010-08-29T17:56:35Z</time>
<desc>lat.=55.912224, lon.=26.501329, Alt.=96.057678m. Speed=0.216000m/h.</desc>
<speed>0.060000</speed>
</trkpt>
<trkpt lat="55.912224" lon="26.501329">
<ele>96.081116</ele>
<time>2010-08-29T17:56:36Z</time>
<desc>lat.=55.912224, lon.=26.501329, Alt.=96.081116m. Speed=0.540000m/h.</desc>
<speed>0.150000</speed>
</trkpt>
<trkpt lat="55.912228" lon="26.501331">
<ele>96.104553</ele>
<time>2010-08-29T17:56:37Z</time>
<desc>lat.=55.912228, lon.=26.501331, Alt.=96.104553m. Speed=0.360000m/h.</desc>
<speed>0.100000</speed>
</trkpt>
<trkpt lat="55.912228" lon="26.501331">
<ele>96.122131</ele>
<time>2010-08-29T17:56:38Z</time>
<desc>lat.=55.912228, lon.=26.501331, Alt.=96.122131m. Speed=0.144000m/h.</desc>
<speed>0.040000</speed>
</trkpt>
<trkpt lat="55.912228" lon="26.501331">
<ele>96.143616</ele>
<time>2010-08-29T17:56:39Z</time>
<desc>lat.=55.912228, lon.=26.501331, Alt.=96.143616m. Speed=0.036000m/h.</desc>
<speed>0.010000</speed>
</trkpt>
<trkpt lat="55.912228" lon="26.501331">
<ele>96.157288</ele>
<time>2010-08-29T17:56:40Z</time>
<desc>lat.=55.912228, lon.=26.501331, Alt.=96.157288m. Speed=0.000000m/h.</desc>
<speed>0.000000</speed>
</trkpt>
<trkpt lat="55.912228" lon="26.501331">
<ele>96.163147</ele>
<time>2010-08-29T17:56:41Z</time>
<desc>lat.=55.912228, lon.=26.501331, Alt.=96.163147m. Speed=0.000000m/h.</desc>
<speed>0.000000</speed>
</trkpt>
<trkpt lat="55.912228" lon="26.501331">
<ele>96.165100</ele>
<time>2010-08-29T17:56:42Z</time>
<desc>lat.=55.912228, lon.=26.501331, Alt.=96.165100m. Speed=0.036000m/h.</desc>
<speed>0.010000</speed>
</trkpt>
<trkpt lat="55.912228" lon="26.501331">
<ele>96.172913</ele>
<time>2010-08-29T17:56:43Z</time>
<desc>lat.=55.912228, lon.=26.501331, Alt.=96.172913m. Speed=0.036000m/h.</desc>
<speed>0.010000</speed>
</trkpt>
<trkpt lat="55.912228" lon="26.501331">
<ele>96.182678</ele>
<time>2010-08-29T17:56:44Z</time>
<desc>lat.=55.912228, lon.=26.501331, Alt.=96.182678m. Speed=0.036000m/h.</desc>
<speed>0.010000</speed>
</trkpt>
<trkpt lat="55.912228" lon="26.501331">
<ele>96.180725</ele>
<time>2010-08-29T17:56:45Z</time>
<desc>lat.=55.912228, lon.=26.501331, Alt.=96.180725m. Speed=0.144000m/h.</desc>
<speed>0.040000</speed>
</trkpt>
<trkpt lat="55.912228" lon="26.501331">
<ele>96.194397</ele>
<time>2010-08-29T17:56:46Z</time>
<desc>lat.=55.912228, lon.=26.501331, Alt.=96.194397m. Speed=0.072000m/h.</desc>
<speed>0.020000</speed>
</trkpt>
<trkpt lat="55.912228" lon="26.501331">
<ele>96.215881</ele>
<time>2010-08-29T17:56:47Z</time>
<desc>lat.=55.912228, lon.=26.501331, Alt.=96.215881m. Speed=0.432000m/h.</desc>
<speed>0.120000</speed>
</trkpt>
<trkpt lat="55.912228" lon="26.501331">
<ele>96.229553</ele>
<time>2010-08-29T17:56:48Z</time>
<desc>lat.=55.912228, lon.=26.501331, Alt.=96.229553m. Speed=0.720000m/h.</desc>
<speed>0.200000</speed>
</trkpt>
<trkpt lat="55.912231" lon="26.501335">
<ele>96.266663</ele>
<time>2010-08-29T17:56:49Z</time>
<desc>lat.=55.912231, lon.=26.501335, Alt.=96.266663m. Speed=0.468000m/h.</desc>
<speed>0.130000</speed>
</trkpt>
<trkpt lat="55.912231" lon="26.501333">
<ele>96.288147</ele>
<time>2010-08-29T17:56:50Z</time>
<desc>lat.=55.912231, lon.=26.501333, Alt.=96.288147m. Speed=0.180000m/h.</desc>
<speed>0.050000</speed>
</trkpt>
<trkpt lat="55.912231" lon="26.501333">
<ele>96.307678</ele>
<time>2010-08-29T17:56:51Z</time>
<desc>lat.=55.912231, lon.=26.501333, Alt.=96.307678m. Speed=0.324000m/h.</desc>
<speed>0.090000</speed>
</trkpt>
<trkpt lat="55.912231" lon="26.501331">
<ele>96.327209</ele>
<time>2010-08-29T17:56:52Z</time>
<desc>lat.=55.912231, lon.=26.501331, Alt.=96.327209m. Speed=0.216000m/h.</desc>
<speed>0.060000</speed>
</trkpt>
<trkpt lat="55.912231" lon="26.501331">
<ele>96.335022</ele>
<time>2010-08-29T17:56:53Z</time>
<desc>lat.=55.912231, lon.=26.501331, Alt.=96.335022m. Speed=0.144000m/h.</desc>
<speed>0.040000</speed>
</trkpt>
<trkpt lat="55.912231" lon="26.501333">
<ele>96.317444</ele>
<time>2010-08-29T17:56:54Z</time>
<desc>lat.=55.912231, lon.=26.501333, Alt.=96.317444m. Speed=0.072000m/h.</desc>
<speed>0.020000</speed>
</trkpt>
<trkpt lat="55.912231" lon="26.501333">
<ele>96.297913</ele>
<time>2010-08-29T17:56:55Z</time>
<desc>lat.=55.912231, lon.=26.501333, Alt.=96.297913m. Speed=0.324000m/h.</desc>
<speed>0.090000</speed>
</trkpt>
<trkpt lat="55.912231" lon="26.501333">
<ele>96.280334</ele>
<time>2010-08-29T17:56:56Z</time>
<desc>lat.=55.912231, lon.=26.501333, Alt.=96.280334m. Speed=0.324000m/h.</desc>
<speed>0.090000</speed>
</trkpt>
<trkpt lat="55.912231" lon="26.501335">
<ele>96.268616</ele>
<time>2010-08-29T17:56:57Z</time>
<desc>lat.=55.912231, lon.=26.501335, Alt.=96.268616m. Speed=0.108000m/h.</desc>
<speed>0.030000</speed>
</trkpt>
<trkpt lat="55.912231" lon="26.501335">
<ele>96.258850</ele>
<time>2010-08-29T17:56:58Z</time>
<desc>lat.=55.912231, lon.=26.501335, Alt.=96.258850m. Speed=0.072000m/h.</desc>
<speed>0.020000</speed>
</trkpt>
<trkpt lat="55.912231" lon="26.501335">
<ele>96.249084</ele>
<time>2010-08-29T17:56:59Z</time>
<desc>lat.=55.912231, lon.=26.501335, Alt.=96.249084m. Speed=0.288000m/h.</desc>
<speed>0.080000</speed>
</trkpt>
<trkpt lat="55.912231" lon="26.501335">
<ele>96.241272</ele>
<time>2010-08-29T17:57:00Z</time>
<desc>lat.=55.912231, lon.=26.501335, Alt.=96.241272m. Speed=0.288000m/h.</desc>
<speed>0.080000</speed>
</trkpt>
<trkpt lat="55.912231" lon="26.501335">
<ele>96.235413</ele>
<time>2010-08-29T17:57:01Z</time>
<desc>lat.=55.912231, lon.=26.501335, Alt.=96.235413m. Speed=0.504000m/h.</desc>
<speed>0.140000</speed>
</trkpt>
<trkpt lat="55.912231" lon="26.501335">
<ele>96.229553</ele>
<time>2010-08-29T17:57:02Z</time>
<desc>lat.=55.912231, lon.=26.501335, Alt.=96.229553m. Speed=1.224000m/h.</desc>
<speed>0.340000</speed>
</trkpt>
<trkpt lat="55.912235" lon="26.501337">
<ele>96.153381</ele>
<time>2010-08-29T17:57:03Z</time>
<desc>lat.=55.912235, lon.=26.501337, Alt.=96.153381m. Speed=0.612000m/h.</desc>
<speed>0.170000</speed>
</trkpt>
<trkpt lat="55.912231" lon="26.501335">
<ele>96.090881</ele>
<time>2010-08-29T17:57:04Z</time>
<desc>lat.=55.912231, lon.=26.501335, Alt.=96.090881m. Speed=0.144000m/h.</desc>
<speed>0.040000</speed>
</trkpt>
<trkpt lat="55.912231" lon="26.501333">
<ele>96.083069</ele>
<time>2010-08-29T17:57:05Z</time>
<desc>lat.=55.912231, lon.=26.501333, Alt.=96.083069m. Speed=0.432000m/h.</desc>
<speed>0.120000</speed>
</trkpt>
<trkpt lat="55.912235" lon="26.501341">
<ele>95.831116</ele>
<time>2010-08-29T17:57:06Z</time>
<desc>lat.=55.912235, lon.=26.501341, Alt.=95.831116m. Speed=0.252000m/h.</desc>
<speed>0.070000</speed>
</trkpt>
<trkpt lat="55.912235" lon="26.501341">
<ele>95.754944</ele>
<time>2010-08-29T17:57:07Z</time>
<desc>lat.=55.912235, lon.=26.501341, Alt.=95.754944m. Speed=0.972000m/h.</desc>
<speed>0.270000</speed>
</trkpt>
<trkpt lat="55.912235" lon="26.501341">
<ele>95.778381</ele>
<time>2010-08-29T17:57:08Z</time>
<desc>lat.=55.912235, lon.=26.501341, Alt.=95.778381m. Speed=1.944000m/h.</desc>
<speed>0.540000</speed>
</trkpt>
<trkpt lat="55.912239" lon="26.501337">
<ele>95.688538</ele>
<time>2010-08-29T17:57:09Z</time>
<desc>lat.=55.912239, lon.=26.501337, Alt.=95.688538m. Speed=0.288000m/h.</desc>
<speed>0.080000</speed>
</trkpt>
<trkpt lat="55.912239" lon="26.501333">
<ele>95.721741</ele>
<time>2010-08-29T17:57:10Z</time>
<desc>lat.=55.912239, lon.=26.501333, Alt.=95.721741m. Speed=0.396000m/h.</desc>
<speed>0.110000</speed>
</trkpt>
<trkpt lat="55.912239" lon="26.501326">
<ele>95.651428</ele>
<time>2010-08-29T17:57:11Z</time>
<desc>lat.=55.912239, lon.=26.501326, Alt.=95.651428m. Speed=0.108000m/h.</desc>
<speed>0.030000</speed>
</trkpt>
<trkpt lat="55.912239" lon="26.501320">
<ele>95.745178</ele>
<time>2010-08-29T17:57:12Z</time>
<desc>lat.=55.912239, lon.=26.501320, Alt.=95.745178m. Speed=0.072000m/h.</desc>
<speed>0.020000</speed>
</trkpt>
<trkpt lat="55.912239" lon="26.501320">
<ele>95.739319</ele>
<time>2010-08-29T17:57:13Z</time>
<desc>lat.=55.912239, lon.=26.501320, Alt.=95.739319m. Speed=0.036000m/h.</desc>
<speed>0.010000</speed>
</trkpt>
<trkpt lat="55.912239" lon="26.501320">
<ele>95.754944</ele>
<time>2010-08-29T17:57:14Z</time>
<desc>lat.=55.912239, lon.=26.501320, Alt.=95.754944m. Speed=0.108000m/h.</desc>
<speed>0.030000</speed>
</trkpt>
<trkpt lat="55.912239" lon="26.501320">
<ele>95.778381</ele>
<time>2010-08-29T17:57:15Z</time>
<desc>lat.=55.912239, lon.=26.501320, Alt.=95.778381m. Speed=0.072000m/h.</desc>
<speed>0.020000</speed>
</trkpt>
<trkpt lat="55.912243" lon="26.501320">
<ele>95.805725</ele>
<time>2010-08-29T17:57:16Z</time>
<desc>lat.=55.912243, lon.=26.501320, Alt.=95.805725m. Speed=0.108000m/h.</desc>
<speed>0.030000</speed>
</trkpt>
<trkpt lat="55.912243" lon="26.501320">
<ele>95.829163</ele>
<time>2010-08-29T17:57:17Z</time>
<desc>lat.=55.912243, lon.=26.501320, Alt.=95.829163m. Speed=0.144000m/h.</desc>
<speed>0.040000</speed>
</trkpt>
<trkpt lat="55.912243" lon="26.501320">
<ele>95.852600</ele>
<time>2010-08-29T17:57:18Z</time>
<desc>lat.=55.912243, lon.=26.501320, Alt.=95.852600m. Speed=0.036000m/h.</desc>
<speed>0.010000</speed>
</trkpt>
<trkpt lat="55.912243" lon="26.501320">
<ele>95.874084</ele>
<time>2010-08-29T17:57:19Z</time>
<desc>lat.=55.912243, lon.=26.501320, Alt.=95.874084m. Speed=0.108000m/h.</desc>
<speed>0.030000</speed>
</trkpt>
<trkpt lat="55.912243" lon="26.501320">
<ele>95.889709</ele>
<time>2010-08-29T17:57:20Z</time>
<desc>lat.=55.912243, lon.=26.501320, Alt.=95.889709m. Speed=0.072000m/h.</desc>
<speed>0.020000</speed>
</trkpt>
<trkpt lat="55.912243" lon="26.501320">
<ele>95.899475</ele>
<time>2010-08-29T17:57:21Z</time>
<desc>lat.=55.912243, lon.=26.501320, Alt.=95.899475m. Speed=0.036000m/h.</desc>
<speed>0.010000</speed>
</trkpt>
<trkpt lat="55.912243" lon="26.501320">
<ele>95.909241</ele>
<time>2010-08-29T17:57:22Z</time>
<desc>lat.=55.912243, lon.=26.501320, Alt.=95.909241m. Speed=0.180000m/h.</desc>
<speed>0.050000</speed>
</trkpt>
<trkpt lat="55.912243" lon="26.501320">
<ele>95.930725</ele>
<time>2010-08-29T17:57:23Z</time>
<desc>lat.=55.912243, lon.=26.501320, Alt.=95.930725m. Speed=0.180000m/h.</desc>
<speed>0.050000</speed>
</trkpt>
<trkpt lat="55.912243" lon="26.501320">
<ele>95.960022</ele>
<time>2010-08-29T17:57:24Z</time>
<desc>lat.=55.912243, lon.=26.501320, Alt.=95.960022m. Speed=0.108000m/h.</desc>
<speed>0.030000</speed>
</trkpt>
<trkpt lat="55.912243" lon="26.501320">
<ele>95.987366</ele>
<time>2010-08-29T17:57:25Z</time>
<desc>lat.=55.912243, lon.=26.501320, Alt.=95.987366m. Speed=0.216000m/h.</desc>
<speed>0.060000</speed>
</trkpt>
<trkpt lat="55.912243" lon="26.501318">
<ele>96.010803</ele>
<time>2010-08-29T17:57:26Z</time>
<desc>lat.=55.912243, lon.=26.501318, Alt.=96.010803m. Speed=0.324000m/h.</desc>
<speed>0.090000</speed>
</trkpt>
<trkpt lat="55.912243" lon="26.501318">
<ele>96.028381</ele>
<time>2010-08-29T17:57:27Z</time>
<desc>lat.=55.912243, lon.=26.501318, Alt.=96.028381m. Speed=0.252000m/h.</desc>
<speed>0.070000</speed>
</trkpt>
<trkpt lat="55.912243" lon="26.501316">
<ele>96.044006</ele>
<time>2010-08-29T17:57:28Z</time>
<desc>lat.=55.912243, lon.=26.501316, Alt.=96.044006m. Speed=0.252000m/h.</desc>
<speed>0.070000</speed>
</trkpt>
<trkpt lat="55.912243" lon="26.501316">
<ele>96.063538</ele>
<time>2010-08-29T17:57:29Z</time>
<desc>lat.=55.912243, lon.=26.501316, Alt.=96.063538m. Speed=0.108000m/h.</desc>
<speed>0.030000</speed>
</trkpt>
<trkpt lat="55.912243" lon="26.501316">
<ele>96.079163</ele>
<time>2010-08-29T17:57:30Z</time>
<desc>lat.=55.912243, lon.=26.501316, Alt.=96.079163m. Speed=0.000000m/h.</desc>
<speed>0.000000</speed>
</trkpt>
<trkpt lat="55.912243" lon="26.501316">
<ele>96.086975</ele>
<time>2010-08-29T17:57:31Z</time>
<desc>lat.=55.912243, lon.=26.501316, Alt.=96.086975m. Speed=0.072000m/h.</desc>
<speed>0.020000</speed>
</trkpt>
<trkpt lat="55.912243" lon="26.501316">
<ele>96.102600</ele>
<time>2010-08-29T17:57:32Z</time>
<desc>lat.=55.912243, lon.=26.501316, Alt.=96.102600m. Speed=0.072000m/h.</desc>
<speed>0.020000</speed>
</trkpt>
<trkpt lat="55.912247" lon="26.501316">
<ele>96.118225</ele>
<time>2010-08-29T17:57:33Z</time>
<desc>lat.=55.912247, lon.=26.501316, Alt.=96.118225m. Speed=0.072000m/h.</desc>
<speed>0.020000</speed>
</trkpt>
<trkpt lat="55.912243" lon="26.501316">
<ele>96.124084</ele>
<time>2010-08-29T17:57:34Z</time>
<desc>lat.=55.912243, lon.=26.501316, Alt.=96.124084m. Speed=0.036000m/h.</desc>
<speed>0.010000</speed>
</trkpt>
<trkpt lat="55.912243" lon="26.501316">
<ele>96.116272</ele>
<time>2010-08-29T17:57:35Z</time>
<desc>lat.=55.912243, lon.=26.501316, Alt.=96.116272m. Speed=0.036000m/h.</desc>
<speed>0.010000</speed>
</trkpt>
<trkpt lat="55.912243" lon="26.501316">
<ele>96.118225</ele>
<time>2010-08-29T17:57:36Z</time>
<desc>lat.=55.912243, lon.=26.501316, Alt.=96.118225m. Speed=0.072000m/h.</desc>
<speed>0.020000</speed>
</trkpt>
<trkpt lat="55.912243" lon="26.501316">
<ele>96.108459</ele>
<time>2010-08-29T17:57:37Z</time>
<desc>lat.=55.912243, lon.=26.501316, Alt.=96.108459m. Speed=0.036000m/h.</desc>
<speed>0.010000</speed>
</trkpt>
<trkpt lat="55.912243" lon="26.501316">
<ele>96.112366</ele>
<time>2010-08-29T17:57:38Z</time>
<desc>lat.=55.912243, lon.=26.501316, Alt.=96.112366m. Speed=0.036000m/h.</desc>
<speed>0.010000</speed>
</trkpt>
<trkpt lat="55.912243" lon="26.501316">
<ele>96.104553</ele>
<time>2010-08-29T17:57:39Z</time>
<desc>lat.=55.912243, lon.=26.501316, Alt.=96.104553m. Speed=0.216000m/h.</desc>
<speed>0.060000</speed>
</trkpt>
<trkpt lat="55.912243" lon="26.501314">
<ele>96.092834</ele>
<time>2010-08-29T17:57:40Z</time>
<desc>lat.=55.912243, lon.=26.501314, Alt.=96.092834m. Speed=0.036000m/h.</desc>
<speed>0.010000</speed>
</trkpt>
<trkpt lat="55.912243" lon="26.501314">
<ele>96.094788</ele>
<time>2010-08-29T17:57:41Z</time>
<desc>lat.=55.912243, lon.=26.501314, Alt.=96.094788m. Speed=0.000000m/h.</desc>
<speed>0.000000</speed>
</trkpt>
<trkpt lat="55.912243" lon="26.501314">
<ele>96.094788</ele>
<time>2010-08-29T17:57:42Z</time>
<desc>lat.=55.912243, lon.=26.501314, Alt.=96.094788m. Speed=0.036000m/h.</desc>
<speed>0.010000</speed>
</trkpt>
<trkpt lat="55.912243" lon="26.501314">
<ele>96.096741</ele>
<time>2010-08-29T17:57:43Z</time>
<desc>lat.=55.912243, lon.=26.501314, Alt.=96.096741m. Speed=0.036000m/h.</desc>
<speed>0.010000</speed>
</trkpt>
<trkpt lat="55.912243" lon="26.501314">
<ele>96.094788</ele>
<time>2010-08-29T17:57:44Z</time>
<desc>lat.=55.912243, lon.=26.501314, Alt.=96.094788m. Speed=0.036000m/h.</desc>
<speed>0.010000</speed>
</trkpt>
<trkpt lat="55.912243" lon="26.501314">
<ele>96.088928</ele>
<time>2010-08-29T17:57:45Z</time>
<desc>lat.=55.912243, lon.=26.501314, Alt.=96.088928m. Speed=0.000000m/h.</desc>
<speed>0.000000</speed>
</trkpt>
<trkpt lat="55.912243" lon="26.501314">
<ele>96.085022</ele>
<time>2010-08-29T17:57:46Z</time>
<desc>lat.=55.912243, lon.=26.501314, Alt.=96.085022m. Speed=0.036000m/h.</desc>
<speed>0.010000</speed>
</trkpt>
<trkpt lat="55.912243" lon="26.501314">
<ele>96.077209</ele>
<time>2010-08-29T17:57:47Z</time>
<desc>lat.=55.912243, lon.=26.501314, Alt.=96.077209m. Speed=0.000000m/h.</desc>
<speed>0.000000</speed>
</trkpt>
<trkpt lat="55.912243" lon="26.501314">
<ele>96.073303</ele>
<time>2010-08-29T17:57:48Z</time>
<desc>lat.=55.912243, lon.=26.501314, Alt.=96.073303m. Speed=0.108000m/h.</desc>
<speed>0.030000</speed>
</trkpt>
<trkpt lat="55.912243" lon="26.501314">
<ele>96.069397</ele>
<time>2010-08-29T17:57:49Z</time>
<desc>lat.=55.912243, lon.=26.501314, Alt.=96.069397m. Speed=0.000000m/h.</desc>
<speed>0.000000</speed>
</trkpt>
<trkpt lat="55.912243" lon="26.501314">
<ele>96.065491</ele>
<time>2010-08-29T17:57:50Z</time>
<desc>lat.=55.912243, lon.=26.501314, Alt.=96.065491m. Speed=0.144000m/h.</desc>
<speed>0.040000</speed>
</trkpt>
<trkpt lat="55.912243" lon="26.501314">
<ele>96.065491</ele>
<time>2010-08-29T17:57:51Z</time>
<desc>lat.=55.912243, lon.=26.501314, Alt.=96.065491m. Speed=0.000000m/h.</desc>
<speed>0.000000</speed>
</trkpt>
<trkpt lat="55.912243" lon="26.501314">
<ele>96.065491</ele>
<time>2010-08-29T17:57:52Z</time>
<desc>lat.=55.912243, lon.=26.501314, Alt.=96.065491m. Speed=0.000000m/h.</desc>
<speed>0.000000</speed>
</trkpt>
<trkpt lat="55.912243" lon="26.501314">
<ele>96.065491</ele>
<time>2010-08-29T17:57:53Z</time>
<desc>lat.=55.912243, lon.=26.501314, Alt.=96.065491m. Speed=0.000000m/h.</desc>
<speed>0.000000</speed>
</trkpt>
<trkpt lat="55.912243" lon="26.501314">
<ele>96.067444</ele>
<time>2010-08-29T17:57:54Z</time>
<desc>lat.=55.912243, lon.=26.501314, Alt.=96.067444m. Speed=0.036000m/h.</desc>
<speed>0.010000</speed>
</trkpt>
<trkpt lat="55.912243" lon="26.501314">
<ele>96.069397</ele>
<time>2010-08-29T17:57:55Z</time>
<desc>lat.=55.912243, lon.=26.501314, Alt.=96.069397m. Speed=0.036000m/h.</desc>
<speed>0.010000</speed>
</trkpt>
<trkpt lat="55.912243" lon="26.501316">
<ele>96.071350</ele>
<time>2010-08-29T17:57:56Z</time>
<desc>lat.=55.912243, lon.=26.501316, Alt.=96.071350m. Speed=0.000000m/h.</desc>
<speed>0.000000</speed>
</trkpt>
<trkpt lat="55.912243" lon="26.501316">
<ele>96.069397</ele>
<time>2010-08-29T17:57:57Z</time>
<desc>lat.=55.912243, lon.=26.501316, Alt.=96.069397m. Speed=0.036000m/h.</desc>
<speed>0.010000</speed>
</trkpt>
<trkpt lat="55.912243" lon="26.501316">
<ele>96.069397</ele>
<time>2010-08-29T17:57:58Z</time>
<desc>lat.=55.912243, lon.=26.501316, Alt.=96.069397m. Speed=0.000000m/h.</desc>
<speed>0.000000</speed>
</trkpt>
<trkpt lat="55.912243" lon="26.501316">
<ele>96.073303</ele>
<time>2010-08-29T17:57:59Z</time>
<desc>lat.=55.912243, lon.=26.501316, Alt.=96.073303m. Speed=0.000000m/h.</desc>
<speed>0.000000</speed>
</trkpt>
<trkpt lat="55.912243" lon="26.501314">
<ele>96.079163</ele>
<time>2010-08-29T17:58:00Z</time>
<desc>lat.=55.912243, lon.=26.501314, Alt.=96.079163m. Speed=0.000000m/h.</desc>
<speed>0.000000</speed>
</trkpt>
<trkpt lat="55.912243" lon="26.501314">
<ele>96.081116</ele>
<time>2010-08-29T17:58:01Z</time>
<desc>lat.=55.912243, lon.=26.501314, Alt.=96.081116m. Speed=0.000000m/h.</desc>
<speed>0.000000</speed>
</trkpt>
<trkpt lat="55.912243" lon="26.501314">
<ele>96.085022</ele>
<time>2010-08-29T17:58:02Z</time>
<desc>lat.=55.912243, lon.=26.501314, Alt.=96.085022m. Speed=0.072000m/h.</desc>
<speed>0.020000</speed>
</trkpt>
<trkpt lat="55.912243" lon="26.501314">
<ele>96.090881</ele>
<time>2010-08-29T17:58:03Z</time>
<desc>lat.=55.912243, lon.=26.501314, Alt.=96.090881m. Speed=0.000000m/h.</desc>
<speed>0.000000</speed>
</trkpt>
<trkpt lat="55.912243" lon="26.501314">
<ele>96.094788</ele>
<time>2010-08-29T17:58:04Z</time>
<desc>lat.=55.912243, lon.=26.501314, Alt.=96.094788m. Speed=0.036000m/h.</desc>
<speed>0.010000</speed>
</trkpt>
<trkpt lat="55.912243" lon="26.501314">
<ele>96.100647</ele>
<time>2010-08-29T17:58:05Z</time>
<desc>lat.=55.912243, lon.=26.501314, Alt.=96.100647m. Speed=0.000000m/h.</desc>
<speed>0.000000</speed>
</trkpt>
<trkpt lat="55.912243" lon="26.501314">
<ele>96.106506</ele>
<time>2010-08-29T17:58:06Z</time>
<desc>lat.=55.912243, lon.=26.501314, Alt.=96.106506m. Speed=0.000000m/h.</desc>
<speed>0.000000</speed>
</trkpt>
<trkpt lat="55.912243" lon="26.501314">
<ele>96.112366</ele>
<time>2010-08-29T17:58:07Z</time>
<desc>lat.=55.912243, lon.=26.501314, Alt.=96.112366m. Speed=0.000000m/h.</desc>
<speed>0.000000</speed>
</trkpt>
<trkpt lat="55.912243" lon="26.501314">
<ele>96.116272</ele>
<time>2010-08-29T17:58:08Z</time>
<desc>lat.=55.912243, lon.=26.501314, Alt.=96.116272m. Speed=0.000000m/h.</desc>
<speed>0.000000</speed>
</trkpt>
<trkpt lat="55.912243" lon="26.501314">
<ele>96.129944</ele>
<time>2010-08-29T17:58:09Z</time>
<desc>lat.=55.912243, lon.=26.501314, Alt.=96.129944m. Speed=0.432000m/h.</desc>
<speed>0.120000</speed>
</trkpt>
<trkpt lat="55.912243" lon="26.501314">
<ele>96.133850</ele>
<time>2010-08-29T17:58:10Z</time>
<desc>lat.=55.912243, lon.=26.501314, Alt.=96.133850m. Speed=0.144000m/h.</desc>
<speed>0.040000</speed>
</trkpt>
<trkpt lat="55.912243" lon="26.501316">
<ele>96.170959</ele>
<time>2010-08-29T17:58:11Z</time>
<desc>lat.=55.912243, lon.=26.501316, Alt.=96.170959m. Speed=0.144000m/h.</desc>
<speed>0.040000</speed>
</trkpt>
<trkpt lat="55.912243" lon="26.501316">
<ele>96.176819</ele>
<time>2010-08-29T17:58:12Z</time>
<desc>lat.=55.912243, lon.=26.501316, Alt.=96.176819m. Speed=0.000000m/h.</desc>
<speed>0.000000</speed>
</trkpt>
<trkpt lat="55.912243" lon="26.501316">
<ele>96.178772</ele>
<time>2010-08-29T17:58:13Z</time>
<desc>lat.=55.912243, lon.=26.501316, Alt.=96.178772m. Speed=0.144000m/h.</desc>
<speed>0.040000</speed>
</trkpt>
<trkpt lat="55.912243" lon="26.501316">
<ele>96.178772</ele>
<time>2010-08-29T17:58:14Z</time>
<desc>lat.=55.912243, lon.=26.501316, Alt.=96.178772m. Speed=0.072000m/h.</desc>
<speed>0.020000</speed>
</trkpt>
<trkpt lat="55.912243" lon="26.501316">
<ele>96.178772</ele>
<time>2010-08-29T17:58:15Z</time>
<desc>lat.=55.912243, lon.=26.501316, Alt.=96.178772m. Speed=0.144000m/h.</desc>
<speed>0.040000</speed>
</trkpt>
<trkpt lat="55.912243" lon="26.501316">
<ele>96.178772</ele>
<time>2010-08-29T17:58:16Z</time>
<desc>lat.=55.912243, lon.=26.501316, Alt.=96.178772m. Speed=0.072000m/h.</desc>
<speed>0.020000</speed>
</trkpt>
<trkpt lat="55.912243" lon="26.501316">
<ele>96.176819</ele>
<time>2010-08-29T17:58:17Z</time>
<desc>lat.=55.912243, lon.=26.501316, Alt.=96.176819m. Speed=0.072000m/h.</desc>
<speed>0.020000</speed>
</trkpt>
<trkpt lat="55.912243" lon="26.501316">
<ele>96.178772</ele>
<time>2010-08-29T17:58:18Z</time>
<desc>lat.=55.912243, lon.=26.501316, Alt.=96.178772m. Speed=0.000000m/h.</desc>
<speed>0.000000</speed>
</trkpt>
<trkpt lat="55.912243" lon="26.501316">
<ele>96.178772</ele>
<time>2010-08-29T17:58:19Z</time>
<desc>lat.=55.912243, lon.=26.501316, Alt.=96.178772m. Speed=0.252000m/h.</desc>
<speed>0.070000</speed>
</trkpt>
<trkpt lat="55.912243" lon="26.501316">
<ele>96.178772</ele>
<time>2010-08-29T17:58:20Z</time>
<desc>lat.=55.912243, lon.=26.501316, Alt.=96.178772m. Speed=0.180000m/h.</desc>
<speed>0.050000</speed>
</trkpt>
<trkpt lat="55.912247" lon="26.501316">
<ele>96.182678</ele>
<time>2010-08-29T17:58:21Z</time>
<desc>lat.=55.912247, lon.=26.501316, Alt.=96.182678m. Speed=0.144000m/h.</desc>
<speed>0.040000</speed>
</trkpt>
<trkpt lat="55.912247" lon="26.501316">
<ele>96.186584</ele>
<time>2010-08-29T17:58:22Z</time>
<desc>lat.=55.912247, lon.=26.501316, Alt.=96.186584m. Speed=0.252000m/h.</desc>
<speed>0.070000</speed>
</trkpt>
<trkpt lat="55.912247" lon="26.501316">
<ele>96.190491</ele>
<time>2010-08-29T17:58:23Z</time>
<desc>lat.=55.912247, lon.=26.501316, Alt.=96.190491m. Speed=0.180000m/h.</desc>
<speed>0.050000</speed>
</trkpt>
<trkpt lat="55.912247" lon="26.501316">
<ele>96.192444</ele>
<time>2010-08-29T17:58:24Z</time>
<desc>lat.=55.912247, lon.=26.501316, Alt.=96.192444m. Speed=0.036000m/h.</desc>
<speed>0.010000</speed>
</trkpt>
<trkpt lat="55.912247" lon="26.501316">
<ele>96.194397</ele>
<time>2010-08-29T17:58:25Z</time>
<desc>lat.=55.912247, lon.=26.501316, Alt.=96.194397m. Speed=0.036000m/h.</desc>
<speed>0.010000</speed>
</trkpt>
<trkpt lat="55.912247" lon="26.501316">
<ele>96.202209</ele>
<time>2010-08-29T17:58:26Z</time>
<desc>lat.=55.912247, lon.=26.501316, Alt.=96.202209m. Speed=0.036000m/h.</desc>
<speed>0.010000</speed>
</trkpt>
<trkpt lat="55.912247" lon="26.501316">
<ele>96.213928</ele>
<time>2010-08-29T17:58:27Z</time>
<desc>lat.=55.912247, lon.=26.501316, Alt.=96.213928m. Speed=0.108000m/h.</desc>
<speed>0.030000</speed>
</trkpt>
<trkpt lat="55.912247" lon="26.501314">
<ele>96.225647</ele>
<time>2010-08-29T17:58:28Z</time>
<desc>lat.=55.912247, lon.=26.501314, Alt.=96.225647m. Speed=0.540000m/h.</desc>
<speed>0.150000</speed>
</trkpt>
<trkpt lat="55.912247" lon="26.501314">
<ele>96.229553</ele>
<time>2010-08-29T17:58:29Z</time>
<desc>lat.=55.912247, lon.=26.501314, Alt.=96.229553m. Speed=0.072000m/h.</desc>
<speed>0.020000</speed>
</trkpt>
<trkpt lat="55.912247" lon="26.501314">
<ele>96.231506</ele>
<time>2010-08-29T17:58:30Z</time>
<desc>lat.=55.912247, lon.=26.501314, Alt.=96.231506m. Speed=0.144000m/h.</desc>
<speed>0.040000</speed>
</trkpt>
<trkpt lat="55.912247" lon="26.501316">
<ele>96.233459</ele>
<time>2010-08-29T17:58:31Z</time>
<desc>lat.=55.912247, lon.=26.501316, Alt.=96.233459m. Speed=0.072000m/h.</desc>
<speed>0.020000</speed>
</trkpt>
<trkpt lat="55.912247" lon="26.501316">
<ele>96.229553</ele>
<time>2010-08-29T17:58:32Z</time>
<desc>lat.=55.912247, lon.=26.501316, Alt.=96.229553m. Speed=3.672000m/h.</desc>
<speed>1.020000</speed>
</trkpt>
<trkpt lat="55.912258" lon="26.501328">
<ele>96.356506</ele>
<time>2010-08-29T17:58:33Z</time>
<desc>lat.=55.912258, lon.=26.501328, Alt.=96.356506m. Speed=3.564000m/h.</desc>
<speed>0.990000</speed>
</trkpt>
<trkpt lat="55.912262" lon="26.501339">
<ele>96.276428</ele>
<time>2010-08-29T17:58:34Z</time>
<desc>lat.=55.912262, lon.=26.501339, Alt.=96.276428m. Speed=4.356000m/h.</desc>
<speed>1.210000</speed>
</trkpt>
<trkpt lat="55.912266" lon="26.501350">
<ele>95.924866</ele>
<time>2010-08-29T17:58:35Z</time>
<desc>lat.=55.912266, lon.=26.501350, Alt.=95.924866m. Speed=4.788000m/h.</desc>
<speed>1.330000</speed>
</trkpt>
<trkpt lat="55.912289" lon="26.501366">
<ele>96.637756</ele>
<time>2010-08-29T17:58:36Z</time>
<desc>lat.=55.912289, lon.=26.501366, Alt.=96.637756m. Speed=3.780000m/h.</desc>
<speed>1.050000</speed>
</trkpt>
<trkpt lat="55.912292" lon="26.501379">
<ele>96.669006</ele>
<time>2010-08-29T17:58:37Z</time>
<desc>lat.=55.912292, lon.=26.501379, Alt.=96.669006m. Speed=2.880000m/h.</desc>
<speed>0.800000</speed>
</trkpt>
<trkpt lat="55.912292" lon="26.501394">
<ele>96.590881</ele>
<time>2010-08-29T17:58:38Z</time>
<desc>lat.=55.912292, lon.=26.501394, Alt.=96.590881m. Speed=3.708000m/h.</desc>
<speed>1.030000</speed>
</trkpt>
<trkpt lat="55.912300" lon="26.501417">
<ele>96.932678</ele>
<time>2010-08-29T17:58:39Z</time>
<desc>lat.=55.912300, lon.=26.501417, Alt.=96.932678m. Speed=5.688000m/h.</desc>
<speed>1.580000</speed>
</trkpt>
<trkpt lat="55.912304" lon="26.501442">
<ele>97.085022</ele>
<time>2010-08-29T17:58:40Z</time>
<desc>lat.=55.912304, lon.=26.501442, Alt.=97.085022m. Speed=3.636000m/h.</desc>
<speed>1.010000</speed>
</trkpt>
<trkpt lat="55.912312" lon="26.501465">
<ele>97.583069</ele>
<time>2010-08-29T17:58:41Z</time>
<desc>lat.=55.912312, lon.=26.501465, Alt.=97.583069m. Speed=1.620000m/h.</desc>
<speed>0.450000</speed>
</trkpt>
<trkpt lat="55.912312" lon="26.501474">
<ele>97.512756</ele>
<time>2010-08-29T17:58:42Z</time>
<desc>lat.=55.912312, lon.=26.501474, Alt.=97.512756m. Speed=1.584000m/h.</desc>
<speed>0.440000</speed>
</trkpt>
<trkpt lat="55.912315" lon="26.501492">
<ele>97.282288</ele>
<time>2010-08-29T17:58:43Z</time>
<desc>lat.=55.912315, lon.=26.501492, Alt.=97.282288m. Speed=4.248000m/h.</desc>
<speed>1.180000</speed>
</trkpt>
<trkpt lat="55.912300" lon="26.501516">
<ele>97.038147</ele>
<time>2010-08-29T17:58:44Z</time>
<desc>lat.=55.912300, lon.=26.501516, Alt.=97.038147m. Speed=3.888000m/h.</desc>
<speed>1.080000</speed>
</trkpt>
<trkpt lat="55.912300" lon="26.501534">
<ele>96.928772</ele>
<time>2010-08-29T17:58:45Z</time>
<desc>lat.=55.912300, lon.=26.501534, Alt.=96.928772m. Speed=2.592000m/h.</desc>
<speed>0.720000</speed>
</trkpt>
<trkpt lat="55.912304" lon="26.501543">
<ele>97.247131</ele>
<time>2010-08-29T17:58:46Z</time>
<desc>lat.=55.912304, lon.=26.501543, Alt.=97.247131m. Speed=1.872000m/h.</desc>
<speed>0.520000</speed>
</trkpt>
<trkpt lat="55.912304" lon="26.501556">
<ele>97.053772</ele>
<time>2010-08-29T17:58:47Z</time>
<desc>lat.=55.912304, lon.=26.501556, Alt.=97.053772m. Speed=2.808000m/h.</desc>
<speed>0.780000</speed>
</trkpt>
<trkpt lat="55.912304" lon="26.501577">
<ele>96.963928</ele>
<time>2010-08-29T17:58:48Z</time>
<desc>lat.=55.912304, lon.=26.501577, Alt.=96.963928m. Speed=4.140000m/h.</desc>
<speed>1.150000</speed>
</trkpt>
<trkpt lat="55.912300" lon="26.501591">
<ele>96.917053</ele>
<time>2010-08-29T17:58:49Z</time>
<desc>lat.=55.912300, lon.=26.501591, Alt.=96.917053m. Speed=2.376000m/h.</desc>
<speed>0.660000</speed>
</trkpt>
<trkpt lat="55.912296" lon="26.501591">
<ele>96.676819</ele>
<time>2010-08-29T17:58:50Z</time>
<desc>lat.=55.912296, lon.=26.501591, Alt.=96.676819m. Speed=0.828000m/h.</desc>
<speed>0.230000</speed>
</trkpt>
<trkpt lat="55.912289" lon="26.501593">
<ele>96.479553</ele>
<time>2010-08-29T17:58:51Z</time>
<desc>lat.=55.912289, lon.=26.501593, Alt.=96.479553m. Speed=0.216000m/h.</desc>
<speed>0.060000</speed>
</trkpt>
<trkpt lat="55.912289" lon="26.501591">
<ele>96.440491</ele>
<time>2010-08-29T17:58:52Z</time>
<desc>lat.=55.912289, lon.=26.501591, Alt.=96.440491m. Speed=0.072000m/h.</desc>
<speed>0.020000</speed>
</trkpt>
<trkpt lat="55.912292" lon="26.501589">
<ele>96.456116</ele>
<time>2010-08-29T17:58:53Z</time>
<desc>lat.=55.912292, lon.=26.501589, Alt.=96.456116m. Speed=0.432000m/h.</desc>
<speed>0.120000</speed>
</trkpt>
<trkpt lat="55.912292" lon="26.501591">
<ele>96.448303</ele>
<time>2010-08-29T17:58:54Z</time>
<desc>lat.=55.912292, lon.=26.501591, Alt.=96.448303m. Speed=3.204000m/h.</desc>
<speed>0.890000</speed>
</trkpt>
<trkpt lat="55.912292" lon="26.501600">
<ele>96.491272</ele>
<time>2010-08-29T17:58:55Z</time>
<desc>lat.=55.912292, lon.=26.501600, Alt.=96.491272m. Speed=3.312000m/h.</desc>
<speed>0.920000</speed>
</trkpt>
<trkpt lat="55.912296" lon="26.501616">
<ele>96.405334</ele>
<time>2010-08-29T17:58:56Z</time>
<desc>lat.=55.912296, lon.=26.501616, Alt.=96.405334m. Speed=2.952000m/h.</desc>
<speed>0.820000</speed>
</trkpt>
<trkpt lat="55.912292" lon="26.501640">
<ele>96.274475</ele>
<time>2010-08-29T17:58:57Z</time>
<desc>lat.=55.912292, lon.=26.501640, Alt.=96.274475m. Speed=5.868000m/h.</desc>
<speed>1.630000</speed>
</trkpt>
<trkpt lat="55.912289" lon="26.501678">
<ele>95.920959</ele>
<time>2010-08-29T17:58:58Z</time>
<desc>lat.=55.912289, lon.=26.501678, Alt.=95.920959m. Speed=8.100000m/h.</desc>
<speed>2.250000</speed>
</trkpt>
<trkpt lat="55.912285" lon="26.501726">
<ele>95.762756</ele>
<time>2010-08-29T17:58:59Z</time>
<desc>lat.=55.912285, lon.=26.501726, Alt.=95.762756m. Speed=11.016000m/h.</desc>
<speed>3.060000</speed>
</trkpt>
<trkpt lat="55.912285" lon="26.501780">
<ele>95.520569</ele>
<time>2010-08-29T17:59:00Z</time>
<desc>lat.=55.912285, lon.=26.501780, Alt.=95.520569m. Speed=10.080000m/h.</desc>
<speed>2.800000</speed>
</trkpt>
<trkpt lat="55.912289" lon="26.501822">
<ele>95.231506</ele>
<time>2010-08-29T17:59:01Z</time>
<desc>lat.=55.912289, lon.=26.501822, Alt.=95.231506m. Speed=8.496000m/h.</desc>
<speed>2.360000</speed>
</trkpt>
<trkpt lat="55.912289" lon="26.501860">
<ele>95.090881</ele>
<time>2010-08-29T17:59:02Z</time>
<desc>lat.=55.912289, lon.=26.501860, Alt.=95.090881m. Speed=8.136000m/h.</desc>
<speed>2.260000</speed>
</trkpt>
<trkpt lat="55.912285" lon="26.501902">
<ele>94.909241</ele>
<time>2010-08-29T17:59:03Z</time>
<desc>lat.=55.912285, lon.=26.501902, Alt.=94.909241m. Speed=8.172000m/h.</desc>
<speed>2.270000</speed>
</trkpt>
<trkpt lat="55.912285" lon="26.501944">
<ele>94.612366</ele>
<time>2010-08-29T17:59:04Z</time>
<desc>lat.=55.912285, lon.=26.501944, Alt.=94.612366m. Speed=7.524000m/h.</desc>
<speed>2.090000</speed>
</trkpt>
<trkpt lat="55.912285" lon="26.501974">
<ele>94.483459</ele>
<time>2010-08-29T17:59:05Z</time>
<desc>lat.=55.912285, lon.=26.501974, Alt.=94.483459m. Speed=6.192000m/h.</desc>
<speed>1.720000</speed>
</trkpt>
<trkpt lat="55.912285" lon="26.502001">
<ele>94.268616</ele>
<time>2010-08-29T17:59:06Z</time>
<desc>lat.=55.912285, lon.=26.502001, Alt.=94.268616m. Speed=5.652000m/h.</desc>
<speed>1.570000</speed>
</trkpt>
<trkpt lat="55.912285" lon="26.502028">
<ele>94.493225</ele>
<time>2010-08-29T17:59:07Z</time>
<desc>lat.=55.912285, lon.=26.502028, Alt.=94.493225m. Speed=7.020000m/h.</desc>
<speed>1.950000</speed>
</trkpt>
<trkpt lat="55.912289" lon="26.502058">
<ele>94.733459</ele>
<time>2010-08-29T17:59:08Z</time>
<desc>lat.=55.912289, lon.=26.502058, Alt.=94.733459m. Speed=7.740000m/h.</desc>
<speed>2.150000</speed>
</trkpt>
<trkpt lat="55.912300" lon="26.502090">
<ele>94.840881</ele>
<time>2010-08-29T17:59:09Z</time>
<desc>lat.=55.912300, lon.=26.502090, Alt.=94.840881m. Speed=7.884000m/h.</desc>
<speed>2.190000</speed>
</trkpt>
<trkpt lat="55.912300" lon="26.502129">
<ele>95.024475</ele>
<time>2010-08-29T17:59:10Z</time>
<desc>lat.=55.912300, lon.=26.502129, Alt.=95.024475m. Speed=9.540000m/h.</desc>
<speed>2.650000</speed>
</trkpt>
<trkpt lat="55.912300" lon="26.502172">
<ele>95.280334</ele>
<time>2010-08-29T17:59:11Z</time>
<desc>lat.=55.912300, lon.=26.502172, Alt.=95.280334m. Speed=9.432000m/h.</desc>
<speed>2.620000</speed>
</trkpt>
<trkpt lat="55.912292" lon="26.502226">
<ele>95.598694</ele>
<time>2010-08-29T17:59:12Z</time>
<desc>lat.=55.912292, lon.=26.502226, Alt.=95.598694m. Speed=11.052000m/h.</desc>
<speed>3.070000</speed>
</trkpt>
<trkpt lat="55.912289" lon="26.502275">
<ele>95.831116</ele>
<time>2010-08-29T17:59:13Z</time>
<desc>lat.=55.912289, lon.=26.502275, Alt.=95.831116m. Speed=9.864000m/h.</desc>
<speed>2.740000</speed>
</trkpt>
<trkpt lat="55.912281" lon="26.502323">
<ele>95.872131</ele>
<time>2010-08-29T17:59:14Z</time>
<desc>lat.=55.912281, lon.=26.502323, Alt.=95.872131m. Speed=9.828000m/h.</desc>
<speed>2.730000</speed>
</trkpt>
<trkpt lat="55.912281" lon="26.502367">
<ele>96.018616</ele>
<time>2010-08-29T17:59:15Z</time>
<desc>lat.=55.912281, lon.=26.502367, Alt.=96.018616m. Speed=9.288000m/h.</desc>
<speed>2.580000</speed>
</trkpt>
<trkpt lat="55.912277" lon="26.502407">
<ele>95.971741</ele>
<time>2010-08-29T17:59:16Z</time>
<desc>lat.=55.912277, lon.=26.502407, Alt.=95.971741m. Speed=8.352000m/h.</desc>
<speed>2.320000</speed>
</trkpt>
<trkpt lat="55.912277" lon="26.502449">
<ele>95.219788</ele>
<time>2010-08-29T17:59:17Z</time>
<desc>lat.=55.912277, lon.=26.502449, Alt.=95.219788m. Speed=6.984000m/h.</desc>
<speed>1.940000</speed>
</trkpt>
<trkpt lat="55.912277" lon="26.502483">
<ele>95.993225</ele>
<time>2010-08-29T17:59:18Z</time>
<desc>lat.=55.912277, lon.=26.502483, Alt.=95.993225m. Speed=7.236000m/h.</desc>
<speed>2.010000</speed>
</trkpt>
<trkpt lat="55.912273" lon="26.502516">
<ele>95.598694</ele>
<time>2010-08-29T17:59:19Z</time>
<desc>lat.=55.912273, lon.=26.502516, Alt.=95.598694m. Speed=4.284000m/h.</desc>
<speed>1.190000</speed>
</trkpt>
<trkpt lat="55.912277" lon="26.502542">
<ele>95.366272</ele>
<time>2010-08-29T17:59:20Z</time>
<desc>lat.=55.912277, lon.=26.502542, Alt.=95.366272m. Speed=4.644000m/h.</desc>
<speed>1.290000</speed>
</trkpt>
<trkpt lat="55.912277" lon="26.502567">
<ele>95.024475</ele>
<time>2010-08-29T17:59:21Z</time>
<desc>lat.=55.912277, lon.=26.502567, Alt.=95.024475m. Speed=5.616000m/h.</desc>
<speed>1.560000</speed>
</trkpt>
<trkpt lat="55.912273" lon="26.502600">
<ele>94.583069</ele>
<time>2010-08-29T17:59:22Z</time>
<desc>lat.=55.912273, lon.=26.502600, Alt.=94.583069m. Speed=9.288000m/h.</desc>
<speed>2.580000</speed>
</trkpt>
<trkpt lat="55.912266" lon="26.502630">
<ele>94.665100</ele>
<time>2010-08-29T17:59:23Z</time>
<desc>lat.=55.912266, lon.=26.502630, Alt.=94.665100m. Speed=7.308000m/h.</desc>
<speed>2.030000</speed>
</trkpt>
<trkpt lat="55.912258" lon="26.502668">
<ele>93.286194</ele>
<time>2010-08-29T17:59:24Z</time>
<desc>lat.=55.912258, lon.=26.502668, Alt.=93.286194m. Speed=7.164000m/h.</desc>
<speed>1.990000</speed>
</trkpt>
<trkpt lat="55.912254" lon="26.502705">
<ele>93.241272</ele>
<time>2010-08-29T17:59:25Z</time>
<desc>lat.=55.912254, lon.=26.502705, Alt.=93.241272m. Speed=6.624000m/h.</desc>
<speed>1.840000</speed>
</trkpt>
<trkpt lat="55.912247" lon="26.502737">
<ele>92.637756</ele>
<time>2010-08-29T17:59:26Z</time>
<desc>lat.=55.912247, lon.=26.502737, Alt.=92.637756m. Speed=6.264000m/h.</desc>
<speed>1.740000</speed>
</trkpt>
<trkpt lat="55.912247" lon="26.502769">
<ele>92.831116</ele>
<time>2010-08-29T17:59:27Z</time>
<desc>lat.=55.912247, lon.=26.502769, Alt.=92.831116m. Speed=6.624000m/h.</desc>
<speed>1.840000</speed>
</trkpt>
<trkpt lat="55.912247" lon="26.502802">
<ele>92.088928</ele>
<time>2010-08-29T17:59:28Z</time>
<desc>lat.=55.912247, lon.=26.502802, Alt.=92.088928m. Speed=7.344000m/h.</desc>
<speed>2.040000</speed>
</trkpt>
<trkpt lat="55.912247" lon="26.502842">
<ele>91.663147</ele>
<time>2010-08-29T17:59:29Z</time>
<desc>lat.=55.912247, lon.=26.502842, Alt.=91.663147m. Speed=7.848000m/h.</desc>
<speed>2.180000</speed>
</trkpt>
<trkpt lat="55.912239" lon="26.502880">
<ele>90.733459</ele>
<time>2010-08-29T17:59:30Z</time>
<desc>lat.=55.912239, lon.=26.502880, Alt.=90.733459m. Speed=8.496000m/h.</desc>
<speed>2.360000</speed>
</trkpt>
<trkpt lat="55.912235" lon="26.502918">
<ele>91.622131</ele>
<time>2010-08-29T17:59:31Z</time>
<desc>lat.=55.912235, lon.=26.502918, Alt.=91.622131m. Speed=8.388000m/h.</desc>
<speed>2.330000</speed>
</trkpt>
<trkpt lat="55.912231" lon="26.502962">
<ele>91.516663</ele>
<time>2010-08-29T17:59:32Z</time>
<desc>lat.=55.912231, lon.=26.502962, Alt.=91.516663m. Speed=9.432000m/h.</desc>
<speed>2.620000</speed>
</trkpt>
<trkpt lat="55.912228" lon="26.503004">
<ele>92.114319</ele>
<time>2010-08-29T17:59:33Z</time>
<desc>lat.=55.912228, lon.=26.503004, Alt.=92.114319m. Speed=8.928000m/h.</desc>
<speed>2.480000</speed>
</trkpt>
<trkpt lat="55.912224" lon="26.503042">
<ele>92.815491</ele>
<time>2010-08-29T17:59:34Z</time>
<desc>lat.=55.912224, lon.=26.503042, Alt.=92.815491m. Speed=8.028000m/h.</desc>
<speed>2.230000</speed>
</trkpt>
<trkpt lat="55.912228" lon="26.503078">
<ele>93.188538</ele>
<time>2010-08-29T17:59:35Z</time>
<desc>lat.=55.912228, lon.=26.503078, Alt.=93.188538m. Speed=8.208000m/h.</desc>
<speed>2.280000</speed>
</trkpt>
<trkpt lat="55.912231" lon="26.503117">
<ele>93.153381</ele>
<time>2010-08-29T17:59:36Z</time>
<desc>lat.=55.912231, lon.=26.503117, Alt.=93.153381m. Speed=8.568000m/h.</desc>
<speed>2.380000</speed>
</trkpt>
<trkpt lat="55.912231" lon="26.503151">
<ele>92.979553</ele>
<time>2010-08-29T17:59:37Z</time>
<desc>lat.=55.912231, lon.=26.503151, Alt.=92.979553m. Speed=7.200000m/h.</desc>
<speed>2.000000</speed>
</trkpt>
<trkpt lat="55.912228" lon="26.503183">
<ele>93.227600</ele>
<time>2010-08-29T17:59:38Z</time>
<desc>lat.=55.912228, lon.=26.503183, Alt.=93.227600m. Speed=7.092000m/h.</desc>
<speed>1.970000</speed>
</trkpt>
<trkpt lat="55.912231" lon="26.503222">
<ele>92.958069</ele>
<time>2010-08-29T17:59:39Z</time>
<desc>lat.=55.912231, lon.=26.503222, Alt.=92.958069m. Speed=8.640000m/h.</desc>
<speed>2.400000</speed>
</trkpt>
<trkpt lat="55.912235" lon="26.503262">
<ele>93.372131</ele>
<time>2010-08-29T17:59:40Z</time>
<desc>lat.=55.912235, lon.=26.503262, Alt.=93.372131m. Speed=8.676000m/h.</desc>
<speed>2.410000</speed>
</trkpt>
<trkpt lat="55.912235" lon="26.503304">
<ele>93.928772</ele>
<time>2010-08-29T17:59:41Z</time>
<desc>lat.=55.912235, lon.=26.503304, Alt.=93.928772m. Speed=9.072000m/h.</desc>
<speed>2.520000</speed>
</trkpt>
<trkpt lat="55.912231" lon="26.503351">
<ele>94.077209</ele>
<time>2010-08-29T17:59:42Z</time>
<desc>lat.=55.912231, lon.=26.503351, Alt.=94.077209m. Speed=9.000000m/h.</desc>
<speed>2.500000</speed>
</trkpt>
<trkpt lat="55.912231" lon="26.503393">
<ele>94.266663</ele>
<time>2010-08-29T17:59:43Z</time>
<desc>lat.=55.912231, lon.=26.503393, Alt.=94.266663m. Speed=7.704000m/h.</desc>
<speed>2.140000</speed>
</trkpt>
<trkpt lat="55.912235" lon="26.503435">
<ele>94.698303</ele>
<time>2010-08-29T17:59:44Z</time>
<desc>lat.=55.912235, lon.=26.503435, Alt.=94.698303m. Speed=8.424000m/h.</desc>
<speed>2.340000</speed>
</trkpt>
<trkpt lat="55.912235" lon="26.503468">
<ele>94.721741</ele>
<time>2010-08-29T17:59:45Z</time>
<desc>lat.=55.912235, lon.=26.503468, Alt.=94.721741m. Speed=8.568000m/h.</desc>
<speed>2.380000</speed>
</trkpt>
<trkpt lat="55.912231" lon="26.503496">
<ele>95.008850</ele>
<time>2010-08-29T17:59:46Z</time>
<desc>lat.=55.912231, lon.=26.503496, Alt.=95.008850m. Speed=6.156000m/h.</desc>
<speed>1.710000</speed>
</trkpt>
<trkpt lat="55.912231" lon="26.503529">
<ele>95.782288</ele>
<time>2010-08-29T17:59:47Z</time>
<desc>lat.=55.912231, lon.=26.503529, Alt.=95.782288m. Speed=5.832000m/h.</desc>
<speed>1.620000</speed>
</trkpt>
<trkpt lat="55.912231" lon="26.503561">
<ele>95.905334</ele>
<time>2010-08-29T17:59:48Z</time>
<desc>lat.=55.912231, lon.=26.503561, Alt.=95.905334m. Speed=6.084000m/h.</desc>
<speed>1.690000</speed>
</trkpt>
<trkpt lat="55.912228" lon="26.503584">
<ele>95.858459</ele>
<time>2010-08-29T17:59:49Z</time>
<desc>lat.=55.912228, lon.=26.503584, Alt.=95.858459m. Speed=6.624000m/h.</desc>
<speed>1.840000</speed>
</trkpt>
<trkpt lat="55.912220" lon="26.503605">
<ele>95.774475</ele>
<time>2010-08-29T17:59:50Z</time>
<desc>lat.=55.912220, lon.=26.503605, Alt.=95.774475m. Speed=5.688000m/h.</desc>
<speed>1.580000</speed>
</trkpt>
<trkpt lat="55.912209" lon="26.503633">
<ele>95.428772</ele>
<time>2010-08-29T17:59:51Z</time>
<desc>lat.=55.912209, lon.=26.503633, Alt.=95.428772m. Speed=7.488000m/h.</desc>
<speed>2.080000</speed>
</trkpt>
<trkpt lat="55.912201" lon="26.503660">
<ele>94.788147</ele>
<time>2010-08-29T17:59:52Z</time>
<desc>lat.=55.912201, lon.=26.503660, Alt.=94.788147m. Speed=8.532000m/h.</desc>
<speed>2.370000</speed>
</trkpt>
<trkpt lat="55.912189" lon="26.503685">
<ele>94.233459</ele>
<time>2010-08-29T17:59:53Z</time>
<desc>lat.=55.912189, lon.=26.503685, Alt.=94.233459m. Speed=7.596000m/h.</desc>
<speed>2.110000</speed>
</trkpt>
<trkpt lat="55.912174" lon="26.503698">
<ele>94.217834</ele>
<time>2010-08-29T17:59:54Z</time>
<desc>lat.=55.912174, lon.=26.503698, Alt.=94.217834m. Speed=7.704000m/h.</desc>
<speed>2.140000</speed>
</trkpt>
<trkpt lat="55.912155" lon="26.503700">
<ele>93.739319</ele>
<time>2010-08-29T17:59:55Z</time>
<desc>lat.=55.912155, lon.=26.503700, Alt.=93.739319m. Speed=8.568000m/h.</desc>
<speed>2.380000</speed>
</trkpt>
<trkpt lat="55.912136" lon="26.503702">
<ele>93.856506</ele>
<time>2010-08-29T17:59:56Z</time>
<desc>lat.=55.912136, lon.=26.503702, Alt.=93.856506m. Speed=7.452000m/h.</desc>
<speed>2.070000</speed>
</trkpt>
<trkpt lat="55.912121" lon="26.503695">
<ele>95.954163</ele>
<time>2010-08-29T17:59:57Z</time>
<desc>lat.=55.912121, lon.=26.503695, Alt.=95.954163m. Speed=6.876000m/h.</desc>
<speed>1.910000</speed>
</trkpt>
<trkpt lat="55.912102" lon="26.503689">
<ele>95.461975</ele>
<time>2010-08-29T17:59:58Z</time>
<desc>lat.=55.912102, lon.=26.503689, Alt.=95.461975m. Speed=8.028000m/h.</desc>
<speed>2.230000</speed>
</trkpt>
<trkpt lat="55.912083" lon="26.503687">
<ele>94.715881</ele>
<time>2010-08-29T17:59:59Z</time>
<desc>lat.=55.912083, lon.=26.503687, Alt.=94.715881m. Speed=7.200000m/h.</desc>
<speed>2.000000</speed>
</trkpt>
<trkpt lat="55.912064" lon="26.503670">
<ele>94.475647</ele>
<time>2010-08-29T18:00:00Z</time>
<desc>lat.=55.912064, lon.=26.503670, Alt.=94.475647m. Speed=7.704000m/h.</desc>
<speed>2.140000</speed>
</trkpt>
<trkpt lat="55.912048" lon="26.503654">
<ele>94.461975</ele>
<time>2010-08-29T18:00:01Z</time>
<desc>lat.=55.912048, lon.=26.503654, Alt.=94.461975m. Speed=6.624000m/h.</desc>
<speed>1.840000</speed>
</trkpt>
<trkpt lat="55.912033" lon="26.503647">
<ele>94.573303</ele>
<time>2010-08-29T18:00:02Z</time>
<desc>lat.=55.912033, lon.=26.503647, Alt.=94.573303m. Speed=8.388000m/h.</desc>
<speed>2.330000</speed>
</trkpt>
<trkpt lat="55.912010" lon="26.503641">
<ele>94.333069</ele>
<time>2010-08-29T18:00:03Z</time>
<desc>lat.=55.912010, lon.=26.503641, Alt.=94.333069m. Speed=8.460000m/h.</desc>
<speed>2.350000</speed>
</trkpt>
<trkpt lat="55.911987" lon="26.503641">
<ele>94.440491</ele>
<time>2010-08-29T18:00:04Z</time>
<desc>lat.=55.911987, lon.=26.503641, Alt.=94.440491m. Speed=9.144000m/h.</desc>
<speed>2.540000</speed>
</trkpt>
<trkpt lat="55.911968" lon="26.503632">
<ele>96.893616</ele>
<time>2010-08-29T18:00:05Z</time>
<desc>lat.=55.911968, lon.=26.503632, Alt.=96.893616m. Speed=9.396000m/h.</desc>
<speed>2.610000</speed>
</trkpt>
<trkpt lat="55.911942" lon="26.503622">
<ele>96.989319</ele>
<time>2010-08-29T18:00:06Z</time>
<desc>lat.=55.911942, lon.=26.503622, Alt.=96.989319m. Speed=8.424000m/h.</desc>
<speed>2.340000</speed>
</trkpt>
<trkpt lat="55.911919" lon="26.503609">
<ele>96.909241</ele>
<time>2010-08-29T18:00:07Z</time>
<desc>lat.=55.911919, lon.=26.503609, Alt.=96.909241m. Speed=7.848000m/h.</desc>
<speed>2.180000</speed>
</trkpt>
<trkpt lat="55.911903" lon="26.503597">
<ele>97.684631</ele>
<time>2010-08-29T18:00:08Z</time>
<desc>lat.=55.911903, lon.=26.503597, Alt.=97.684631m. Speed=8.100000m/h.</desc>
<speed>2.250000</speed>
</trkpt>
<trkpt lat="55.911880" lon="26.503593">
<ele>98.190491</ele>
<time>2010-08-29T18:00:09Z</time>
<desc>lat.=55.911880, lon.=26.503593, Alt.=98.190491m. Speed=9.144000m/h.</desc>
<speed>2.540000</speed>
</trkpt>
<trkpt lat="55.911854" lon="26.503592">
<ele>98.508850</ele>
<time>2010-08-29T18:00:10Z</time>
<desc>lat.=55.911854, lon.=26.503592, Alt.=98.508850m. Speed=9.180000m/h.</desc>
<speed>2.550000</speed>
</trkpt>
<trkpt lat="55.911827" lon="26.503586">
<ele>98.102600</ele>
<time>2010-08-29T18:00:11Z</time>
<desc>lat.=55.911827, lon.=26.503586, Alt.=98.102600m. Speed=11.340000m/h.</desc>
<speed>3.150000</speed>
</trkpt>
<trkpt lat="55.911793" lon="26.503572">
<ele>97.877991</ele>
<time>2010-08-29T18:00:12Z</time>
<desc>lat.=55.911793, lon.=26.503572, Alt.=97.877991m. Speed=12.888000m/h.</desc>
<speed>3.580000</speed>
</trkpt>
<trkpt lat="55.911762" lon="26.503559">
<ele>97.262756</ele>
<time>2010-08-29T18:00:13Z</time>
<desc>lat.=55.911762, lon.=26.503559, Alt.=97.262756m. Speed=13.140000m/h.</desc>
<speed>3.650000</speed>
</trkpt>
<trkpt lat="55.911732" lon="26.503550">
<ele>96.870178</ele>
<time>2010-08-29T18:00:14Z</time>
<desc>lat.=55.911732, lon.=26.503550, Alt.=96.870178m. Speed=11.736000m/h.</desc>
<speed>3.260000</speed>
</trkpt>
<trkpt lat="55.911701" lon="26.503546">
<ele>96.752991</ele>
<time>2010-08-29T18:00:15Z</time>
<desc>lat.=55.911701, lon.=26.503546, Alt.=96.752991m. Speed=11.952000m/h.</desc>
<speed>3.320000</speed>
</trkpt>
<trkpt lat="55.911671" lon="26.503542">
<ele>96.120178</ele>
<time>2010-08-29T18:00:16Z</time>
<desc>lat.=55.911671, lon.=26.503542, Alt.=96.120178m. Speed=11.124000m/h.</desc>
<speed>3.090000</speed>
</trkpt>
<trkpt lat="55.911640" lon="26.503536">
<ele>95.967834</ele>
<time>2010-08-29T18:00:17Z</time>
<desc>lat.=55.911640, lon.=26.503536, Alt.=95.967834m. Speed=9.540000m/h.</desc>
<speed>2.650000</speed>
</trkpt>
<trkpt lat="55.911621" lon="26.503531">
<ele>95.739319</ele>
<time>2010-08-29T18:00:18Z</time>
<desc>lat.=55.911621, lon.=26.503531, Alt.=95.739319m. Speed=8.928000m/h.</desc>
<speed>2.480000</speed>
</trkpt>
<trkpt lat="55.911598" lon="26.503531">
<ele>95.444397</ele>
<time>2010-08-29T18:00:19Z</time>
<desc>lat.=55.911598, lon.=26.503531, Alt.=95.444397m. Speed=8.604000m/h.</desc>
<speed>2.390000</speed>
</trkpt>
<trkpt lat="55.911579" lon="26.503534">
<ele>95.163147</ele>
<time>2010-08-29T18:00:20Z</time>
<desc>lat.=55.911579, lon.=26.503534, Alt.=95.163147m. Speed=8.568000m/h.</desc>
<speed>2.380000</speed>
</trkpt>
<trkpt lat="55.911560" lon="26.503536">
<ele>94.881897</ele>
<time>2010-08-29T18:00:21Z</time>
<desc>lat.=55.911560, lon.=26.503536, Alt.=94.881897m. Speed=7.992000m/h.</desc>
<speed>2.220000</speed>
</trkpt>
<trkpt lat="55.911537" lon="26.503538">
<ele>94.669006</ele>
<time>2010-08-29T18:00:22Z</time>
<desc>lat.=55.911537, lon.=26.503538, Alt.=94.669006m. Speed=8.568000m/h.</desc>
<speed>2.380000</speed>
</trkpt>
<trkpt lat="55.911518" lon="26.503548">
<ele>94.637756</ele>
<time>2010-08-29T18:00:23Z</time>
<desc>lat.=55.911518, lon.=26.503548, Alt.=94.637756m. Speed=6.516000m/h.</desc>
<speed>1.810000</speed>
</trkpt>
<trkpt lat="55.911503" lon="26.503563">
<ele>94.557678</ele>
<time>2010-08-29T18:00:24Z</time>
<desc>lat.=55.911503, lon.=26.503563, Alt.=94.557678m. Speed=7.416000m/h.</desc>
<speed>2.060000</speed>
</trkpt>
<trkpt lat="55.911491" lon="26.503592">
<ele>94.600647</ele>
<time>2010-08-29T18:00:25Z</time>
<desc>lat.=55.911491, lon.=26.503592, Alt.=94.600647m. Speed=7.632000m/h.</desc>
<speed>2.120000</speed>
</trkpt>
<trkpt lat="55.911484" lon="26.503632">
<ele>94.901428</ele>
<time>2010-08-29T18:00:26Z</time>
<desc>lat.=55.911484, lon.=26.503632, Alt.=94.901428m. Speed=8.568000m/h.</desc>
<speed>2.380000</speed>
</trkpt>
<trkpt lat="55.911484" lon="26.503670">
<ele>94.782288</ele>
<time>2010-08-29T18:00:27Z</time>
<desc>lat.=55.911484, lon.=26.503670, Alt.=94.782288m. Speed=9.432000m/h.</desc>
<speed>2.620000</speed>
</trkpt>
<trkpt lat="55.911484" lon="26.503706">
<ele>94.575256</ele>
<time>2010-08-29T18:00:28Z</time>
<desc>lat.=55.911484, lon.=26.503706, Alt.=94.575256m. Speed=8.856000m/h.</desc>
<speed>2.460000</speed>
</trkpt>
<trkpt lat="55.911480" lon="26.503748">
<ele>94.512756</ele>
<time>2010-08-29T18:00:29Z</time>
<desc>lat.=55.911480, lon.=26.503748, Alt.=94.512756m. Speed=10.332000m/h.</desc>
<speed>2.870000</speed>
</trkpt>
<trkpt lat="55.911480" lon="26.503796">
<ele>94.643616</ele>
<time>2010-08-29T18:00:30Z</time>
<desc>lat.=55.911480, lon.=26.503796, Alt.=94.643616m. Speed=10.296000m/h.</desc>
<speed>2.860000</speed>
</trkpt>
<trkpt lat="55.911476" lon="26.503841">
<ele>94.665100</ele>
<time>2010-08-29T18:00:31Z</time>
<desc>lat.=55.911476, lon.=26.503841, Alt.=94.665100m. Speed=10.656000m/h.</desc>
<speed>2.960000</speed>
</trkpt>
<trkpt lat="55.911476" lon="26.503887">
<ele>94.669006</ele>
<time>2010-08-29T18:00:32Z</time>
<desc>lat.=55.911476, lon.=26.503887, Alt.=94.669006m. Speed=10.692000m/h.</desc>
<speed>2.970000</speed>
</trkpt>
<trkpt lat="55.911480" lon="26.503933">
<ele>94.698303</ele>
<time>2010-08-29T18:00:33Z</time>
<desc>lat.=55.911480, lon.=26.503933, Alt.=94.698303m. Speed=10.116000m/h.</desc>
<speed>2.810000</speed>
</trkpt>
<trkpt lat="55.911476" lon="26.503971">
<ele>94.534241</ele>
<time>2010-08-29T18:00:34Z</time>
<desc>lat.=55.911476, lon.=26.503971, Alt.=94.534241m. Speed=7.668000m/h.</desc>
<speed>2.130000</speed>
</trkpt>
<trkpt lat="55.911472" lon="26.504005">
<ele>94.790100</ele>
<time>2010-08-29T18:00:35Z</time>
<desc>lat.=55.911472, lon.=26.504005, Alt.=94.790100m. Speed=5.436000m/h.</desc>
<speed>1.510000</speed>
</trkpt>
<trkpt lat="55.911472" lon="26.504038">
<ele>95.174866</ele>
<time>2010-08-29T18:00:36Z</time>
<desc>lat.=55.911472, lon.=26.504038, Alt.=95.174866m. Speed=8.352000m/h.</desc>
<speed>2.320000</speed>
</trkpt>
<trkpt lat="55.911476" lon="26.504082">
<ele>95.403381</ele>
<time>2010-08-29T18:00:37Z</time>
<desc>lat.=55.911476, lon.=26.504082, Alt.=95.403381m. Speed=9.468000m/h.</desc>
<speed>2.630000</speed>
</trkpt>
<trkpt lat="55.911472" lon="26.504122">
<ele>95.491272</ele>
<time>2010-08-29T18:00:38Z</time>
<desc>lat.=55.911472, lon.=26.504122, Alt.=95.491272m. Speed=7.524000m/h.</desc>
<speed>2.090000</speed>
</trkpt>
<trkpt lat="55.911465" lon="26.504164">
<ele>95.940491</ele>
<time>2010-08-29T18:00:39Z</time>
<desc>lat.=55.911465, lon.=26.504164, Alt.=95.940491m. Speed=8.748000m/h.</desc>
<speed>2.430000</speed>
</trkpt>
<trkpt lat="55.911461" lon="26.504210">
<ele>96.254944</ele>
<time>2010-08-29T18:00:40Z</time>
<desc>lat.=55.911461, lon.=26.504210, Alt.=96.254944m. Speed=9.648000m/h.</desc>
<speed>2.680000</speed>
</trkpt>
<trkpt lat="55.911461" lon="26.504255">
<ele>96.383850</ele>
<time>2010-08-29T18:00:41Z</time>
<desc>lat.=55.911461, lon.=26.504255, Alt.=96.383850m. Speed=9.324000m/h.</desc>
<speed>2.590000</speed>
</trkpt>
<trkpt lat="55.911457" lon="26.504305">
<ele>96.655334</ele>
<time>2010-08-29T18:00:42Z</time>
<desc>lat.=55.911457, lon.=26.504305, Alt.=96.655334m. Speed=10.044000m/h.</desc>
<speed>2.790000</speed>
</trkpt>
<trkpt lat="55.911457" lon="26.504383">
<ele>96.577209</ele>
<time>2010-08-29T18:00:43Z</time>
<desc>lat.=55.911457, lon.=26.504383, Alt.=96.577209m. Speed=10.260000m/h.</desc>
<speed>2.850000</speed>
</trkpt>
<trkpt lat="55.911457" lon="26.504452">
<ele>96.698303</ele>
<time>2010-08-29T18:00:44Z</time>
<desc>lat.=55.911457, lon.=26.504452, Alt.=96.698303m. Speed=10.080000m/h.</desc>
<speed>2.800000</speed>
</trkpt>
<trkpt lat="55.911461" lon="26.504505">
<ele>96.821350</ele>
<time>2010-08-29T18:00:45Z</time>
<desc>lat.=55.911461, lon.=26.504505, Alt.=96.821350m. Speed=10.548000m/h.</desc>
<speed>2.930000</speed>
</trkpt>
<trkpt lat="55.911461" lon="26.504559">
<ele>96.905334</ele>
<time>2010-08-29T18:00:46Z</time>
<desc>lat.=55.911461, lon.=26.504559, Alt.=96.905334m. Speed=10.800000m/h.</desc>
<speed>3.000000</speed>
</trkpt>
<trkpt lat="55.911461" lon="26.504616">
<ele>97.059631</ele>
<time>2010-08-29T18:00:47Z</time>
<desc>lat.=55.911461, lon.=26.504616, Alt.=97.059631m. Speed=10.944000m/h.</desc>
<speed>3.040000</speed>
</trkpt>
<trkpt lat="55.911449" lon="26.504683">
<ele>97.120178</ele>
<time>2010-08-29T18:00:48Z</time>
<desc>lat.=55.911449, lon.=26.504683, Alt.=97.120178m. Speed=12.024000m/h.</desc>
<speed>3.340000</speed>
</trkpt>
<trkpt lat="55.911446" lon="26.504738">
<ele>97.094788</ele>
<time>2010-08-29T18:00:49Z</time>
<desc>lat.=55.911446, lon.=26.504738, Alt.=97.094788m. Speed=11.844000m/h.</desc>
<speed>3.290000</speed>
</trkpt>
<trkpt lat="55.911446" lon="26.504803">
<ele>97.266663</ele>
<time>2010-08-29T18:00:50Z</time>
<desc>lat.=55.911446, lon.=26.504803, Alt.=97.266663m. Speed=13.356000m/h.</desc>
<speed>3.710000</speed>
</trkpt>
<trkpt lat="55.911442" lon="26.504877">
<ele>97.542053</ele>
<time>2010-08-29T18:00:51Z</time>
<desc>lat.=55.911442, lon.=26.504877, Alt.=97.542053m. Speed=14.616000m/h.</desc>
<speed>4.060000</speed>
</trkpt>
<trkpt lat="55.911434" lon="26.504974">
<ele>96.784241</ele>
<time>2010-08-29T18:00:52Z</time>
<desc>lat.=55.911434, lon.=26.504974, Alt.=96.784241m. Speed=15.768000m/h.</desc>
<speed>4.380000</speed>
</trkpt>
<trkpt lat="55.911434" lon="26.505054">
<ele>96.567444</ele>
<time>2010-08-29T18:00:53Z</time>
<desc>lat.=55.911434, lon.=26.505054, Alt.=96.567444m. Speed=16.559999m/h.</desc>
<speed>4.600000</speed>
</trkpt>
<trkpt lat="55.911430" lon="26.505148">
<ele>95.780334</ele>
<time>2010-08-29T18:00:54Z</time>
<desc>lat.=55.911430, lon.=26.505148, Alt.=95.780334m. Speed=17.388000m/h.</desc>
<speed>4.830000</speed>
</trkpt>
<trkpt lat="55.911427" lon="26.505238">
<ele>95.288147</ele>
<time>2010-08-29T18:00:55Z</time>
<desc>lat.=55.911427, lon.=26.505238, Alt.=95.288147m. Speed=18.648001m/h.</desc>
<speed>5.180000</speed>
</trkpt>
<trkpt lat="55.911423" lon="26.505325">
<ele>95.264709</ele>
<time>2010-08-29T18:00:56Z</time>
<desc>lat.=55.911423, lon.=26.505325, Alt.=95.264709m. Speed=18.792000m/h.</desc>
<speed>5.220000</speed>
</trkpt>
<trkpt lat="55.911423" lon="26.505411">
<ele>94.713928</ele>
<time>2010-08-29T18:00:57Z</time>
<desc>lat.=55.911423, lon.=26.505411, Alt.=94.713928m. Speed=17.316000m/h.</desc>
<speed>4.810000</speed>
</trkpt>
<trkpt lat="55.911427" lon="26.505491">
<ele>94.489319</ele>
<time>2010-08-29T18:00:58Z</time>
<desc>lat.=55.911427, lon.=26.505491, Alt.=94.489319m. Speed=17.316000m/h.</desc>
<speed>4.810000</speed>
</trkpt>
<trkpt lat="55.911427" lon="26.505552">
<ele>94.221741</ele>
<time>2010-08-29T18:00:59Z</time>
<desc>lat.=55.911427, lon.=26.505552, Alt.=94.221741m. Speed=11.376000m/h.</desc>
<speed>3.160000</speed>
</trkpt>
<trkpt lat="55.911430" lon="26.505625">
<ele>93.836975</ele>
<time>2010-08-29T18:01:00Z</time>
<desc>lat.=55.911430, lon.=26.505625, Alt.=93.836975m. Speed=16.488001m/h.</desc>
<speed>4.580000</speed>
</trkpt>
<trkpt lat="55.911419" lon="26.505711">
<ele>93.461975</ele>
<time>2010-08-29T18:01:01Z</time>
<desc>lat.=55.911419, lon.=26.505711, Alt.=93.461975m. Speed=18.576000m/h.</desc>
<speed>5.160000</speed>
</trkpt>
<trkpt lat="55.911407" lon="26.505793">
<ele>93.481506</ele>
<time>2010-08-29T18:01:02Z</time>
<desc>lat.=55.911407, lon.=26.505793, Alt.=93.481506m. Speed=18.143999m/h.</desc>
<speed>5.040000</speed>
</trkpt>
<trkpt lat="55.911400" lon="26.505859">
<ele>93.586975</ele>
<time>2010-08-29T18:01:03Z</time>
<desc>lat.=55.911400, lon.=26.505859, Alt.=93.586975m. Speed=14.364000m/h.</desc>
<speed>3.990000</speed>
</trkpt>
<trkpt lat="55.911392" lon="26.505938">
<ele>93.477600</ele>
<time>2010-08-29T18:01:04Z</time>
<desc>lat.=55.911392, lon.=26.505938, Alt.=93.477600m. Speed=17.639999m/h.</desc>
<speed>4.900000</speed>
</trkpt>
<trkpt lat="55.911385" lon="26.506119">
<ele>93.024475</ele>
<time>2010-08-29T18:01:05Z</time>
<desc>lat.=55.911385, lon.=26.506119, Alt.=93.024475m. Speed=25.884001m/h.</desc>
<speed>7.190000</speed>
</trkpt>
<trkpt lat="55.911366" lon="26.506268">
<ele>92.711975</ele>
<time>2010-08-29T18:01:06Z</time>
<desc>lat.=55.911366, lon.=26.506268, Alt.=92.711975m. Speed=28.152000m/h.</desc>
<speed>7.820000</speed>
</trkpt>
<trkpt lat="55.911343" lon="26.506384">
<ele>92.760803</ele>
<time>2010-08-29T18:01:07Z</time>
<desc>lat.=55.911343, lon.=26.506384, Alt.=92.760803m. Speed=26.639999m/h.</desc>
<speed>7.400000</speed>
</trkpt>
<trkpt lat="55.911327" lon="26.506510">
<ele>92.588928</ele>
<time>2010-08-29T18:01:08Z</time>
<desc>lat.=55.911327, lon.=26.506510, Alt.=92.588928m. Speed=29.016001m/h.</desc>
<speed>8.060000</speed>
</trkpt>
<trkpt lat="55.911312" lon="26.506636">
<ele>92.473694</ele>
<time>2010-08-29T18:01:09Z</time>
<desc>lat.=55.911312, lon.=26.506636, Alt.=92.473694m. Speed=27.180000m/h.</desc>
<speed>7.550000</speed>
</trkpt>
<trkpt lat="55.911297" lon="26.506752">
<ele>92.393616</ele>
<time>2010-08-29T18:01:10Z</time>
<desc>lat.=55.911297, lon.=26.506752, Alt.=92.393616m. Speed=25.955999m/h.</desc>
<speed>7.210000</speed>
</trkpt>
<trkpt lat="55.911278" lon="26.506870">
<ele>92.299866</ele>
<time>2010-08-29T18:01:11Z</time>
<desc>lat.=55.911278, lon.=26.506870, Alt.=92.299866m. Speed=25.379999m/h.</desc>
<speed>7.050000</speed>
</trkpt>
<trkpt lat="55.911255" lon="26.506981">
<ele>92.352600</ele>
<time>2010-08-29T18:01:12Z</time>
<desc>lat.=55.911255, lon.=26.506981, Alt.=92.352600m. Speed=24.948000m/h.</desc>
<speed>6.930000</speed>
</trkpt>
<trkpt lat="55.911228" lon="26.507114">
<ele>92.467834</ele>
<time>2010-08-29T18:01:13Z</time>
<desc>lat.=55.911228, lon.=26.507114, Alt.=92.467834m. Speed=24.948000m/h.</desc>
<speed>6.930000</speed>
</trkpt>
<trkpt lat="55.911205" lon="26.507217">
<ele>92.608459</ele>
<time>2010-08-29T18:01:14Z</time>
<desc>lat.=55.911205, lon.=26.507217, Alt.=92.608459m. Speed=22.500000m/h.</desc>
<speed>6.250000</speed>
</trkpt>
<trkpt lat="55.911182" lon="26.507311">
<ele>92.731506</ele>
<time>2010-08-29T18:01:15Z</time>
<desc>lat.=55.911182, lon.=26.507311, Alt.=92.731506m. Speed=20.087999m/h.</desc>
<speed>5.580000</speed>
</trkpt>
<trkpt lat="55.911167" lon="26.507391">
<ele>93.079163</ele>
<time>2010-08-29T18:01:16Z</time>
<desc>lat.=55.911167, lon.=26.507391, Alt.=93.079163m. Speed=18.180000m/h.</desc>
<speed>5.050000</speed>
</trkpt>
<trkpt lat="55.911148" lon="26.507467">
<ele>93.465881</ele>
<time>2010-08-29T18:01:17Z</time>
<desc>lat.=55.911148, lon.=26.507467, Alt.=93.465881m. Speed=18.323999m/h.</desc>
<speed>5.090000</speed>
</trkpt>
<trkpt lat="55.911129" lon="26.507540">
<ele>93.715881</ele>
<time>2010-08-29T18:01:18Z</time>
<desc>lat.=55.911129, lon.=26.507540, Alt.=93.715881m. Speed=16.452000m/h.</desc>
<speed>4.570000</speed>
</trkpt>
<trkpt lat="55.911114" lon="26.507608">
<ele>93.713928</ele>
<time>2010-08-29T18:01:19Z</time>
<desc>lat.=55.911114, lon.=26.507608, Alt.=93.713928m. Speed=14.940000m/h.</desc>
<speed>4.150000</speed>
</trkpt>
<trkpt lat="55.911095" lon="26.507677">
<ele>93.922913</ele>
<time>2010-08-29T18:01:20Z</time>
<desc>lat.=55.911095, lon.=26.507677, Alt.=93.922913m. Speed=16.056000m/h.</desc>
<speed>4.460000</speed>
</trkpt>
<trkpt lat="55.911087" lon="26.507763">
<ele>94.838928</ele>
<time>2010-08-29T18:01:21Z</time>
<desc>lat.=55.911087, lon.=26.507763, Alt.=94.838928m. Speed=16.344000m/h.</desc>
<speed>4.540000</speed>
</trkpt>
<trkpt lat="55.911068" lon="26.507841">
<ele>94.758850</ele>
<time>2010-08-29T18:01:22Z</time>
<desc>lat.=55.911068, lon.=26.507841, Alt.=94.758850m. Speed=16.020000m/h.</desc>
<speed>4.450000</speed>
</trkpt>
<trkpt lat="55.911049" lon="26.507902">
<ele>94.938538</ele>
<time>2010-08-29T18:01:23Z</time>
<desc>lat.=55.911049, lon.=26.507902, Alt.=94.938538m. Speed=17.568001m/h.</desc>
<speed>4.880000</speed>
</trkpt>
<trkpt lat="55.911022" lon="26.507969">
<ele>95.176819</ele>
<time>2010-08-29T18:01:24Z</time>
<desc>lat.=55.911022, lon.=26.507969, Alt.=95.176819m. Speed=17.459999m/h.</desc>
<speed>4.850000</speed>
</trkpt>
<trkpt lat="55.910999" lon="26.508047">
<ele>93.932678</ele>
<time>2010-08-29T18:01:25Z</time>
<desc>lat.=55.910999, lon.=26.508047, Alt.=93.932678m. Speed=18.288000m/h.</desc>
<speed>5.080000</speed>
</trkpt>
<trkpt lat="55.910969" lon="26.508114">
<ele>94.434631</ele>
<time>2010-08-29T18:01:26Z</time>
<desc>lat.=55.910969, lon.=26.508114, Alt.=94.434631m. Speed=18.180000m/h.</desc>
<speed>5.050000</speed>
</trkpt>
<trkpt lat="55.910942" lon="26.508177">
<ele>94.299866</ele>
<time>2010-08-29T18:01:27Z</time>
<desc>lat.=55.910942, lon.=26.508177, Alt.=94.299866m. Speed=17.964001m/h.</desc>
<speed>4.990000</speed>
</trkpt>
<trkpt lat="55.910912" lon="26.508234">
<ele>93.751038</ele>
<time>2010-08-29T18:01:28Z</time>
<desc>lat.=55.910912, lon.=26.508234, Alt.=93.751038m. Speed=16.955999m/h.</desc>
<speed>4.710000</speed>
</trkpt>
<trkpt lat="55.910885" lon="26.508293">
<ele>93.618225</ele>
<time>2010-08-29T18:01:29Z</time>
<desc>lat.=55.910885, lon.=26.508293, Alt.=93.618225m. Speed=17.424000m/h.</desc>
<speed>4.840000</speed>
</trkpt>
<trkpt lat="55.910858" lon="26.508347">
<ele>93.092834</ele>
<time>2010-08-29T18:01:30Z</time>
<desc>lat.=55.910858, lon.=26.508347, Alt.=93.092834m. Speed=17.063999m/h.</desc>
<speed>4.740000</speed>
</trkpt>
<trkpt lat="55.910828" lon="26.508398">
<ele>92.776428</ele>
<time>2010-08-29T18:01:31Z</time>
<desc>lat.=55.910828, lon.=26.508398, Alt.=92.776428m. Speed=15.624000m/h.</desc>
<speed>4.340000</speed>
</trkpt>
<trkpt lat="55.910801" lon="26.508442">
<ele>92.657288</ele>
<time>2010-08-29T18:01:32Z</time>
<desc>lat.=55.910801, lon.=26.508442, Alt.=92.657288m. Speed=17.136000m/h.</desc>
<speed>4.760000</speed>
</trkpt>
<trkpt lat="55.910770" lon="26.508488">
<ele>92.575256</ele>
<time>2010-08-29T18:01:33Z</time>
<desc>lat.=55.910770, lon.=26.508488, Alt.=92.575256m. Speed=16.020000m/h.</desc>
<speed>4.450000</speed>
</trkpt>
<trkpt lat="55.910740" lon="26.508530">
<ele>92.479553</ele>
<time>2010-08-29T18:01:34Z</time>
<desc>lat.=55.910740, lon.=26.508530, Alt.=92.479553m. Speed=16.667999m/h.</desc>
<speed>4.630000</speed>
</trkpt>
<trkpt lat="55.910709" lon="26.508572">
<ele>92.374084</ele>
<time>2010-08-29T18:01:35Z</time>
<desc>lat.=55.910709, lon.=26.508572, Alt.=92.374084m. Speed=16.020000m/h.</desc>
<speed>4.450000</speed>
</trkpt>
<trkpt lat="55.910683" lon="26.508619">
<ele>92.530334</ele>
<time>2010-08-29T18:01:36Z</time>
<desc>lat.=55.910683, lon.=26.508619, Alt.=92.530334m. Speed=15.552000m/h.</desc>
<speed>4.320000</speed>
</trkpt>
<trkpt lat="55.910652" lon="26.508678">
<ele>91.350647</ele>
<time>2010-08-29T18:01:37Z</time>
<desc>lat.=55.910652, lon.=26.508678, Alt.=91.350647m. Speed=15.012000m/h.</desc>
<speed>4.170000</speed>
</trkpt>
<trkpt lat="55.910625" lon="26.508732">
<ele>90.883850</ele>
<time>2010-08-29T18:01:38Z</time>
<desc>lat.=55.910625, lon.=26.508732, Alt.=90.883850m. Speed=14.760000m/h.</desc>
<speed>4.100000</speed>
</trkpt>
<trkpt lat="55.910599" lon="26.508781">
<ele>90.227600</ele>
<time>2010-08-29T18:01:39Z</time>
<desc>lat.=55.910599, lon.=26.508781, Alt.=90.227600m. Speed=14.868000m/h.</desc>
<speed>4.130000</speed>
</trkpt>
<trkpt lat="55.910576" lon="26.508829">
<ele>88.940491</ele>
<time>2010-08-29T18:01:40Z</time>
<desc>lat.=55.910576, lon.=26.508829, Alt.=88.940491m. Speed=13.572000m/h.</desc>
<speed>3.770000</speed>
</trkpt>
<trkpt lat="55.910553" lon="26.508871">
<ele>87.502991</ele>
<time>2010-08-29T18:01:41Z</time>
<desc>lat.=55.910553, lon.=26.508871, Alt.=87.502991m. Speed=12.276000m/h.</desc>
<speed>3.410000</speed>
</trkpt>
<trkpt lat="55.910534" lon="26.508915">
<ele>86.284241</ele>
<time>2010-08-29T18:01:42Z</time>
<desc>lat.=55.910534, lon.=26.508915, Alt.=86.284241m. Speed=12.780000m/h.</desc>
<speed>3.550000</speed>
</trkpt>
<trkpt lat="55.910507" lon="26.508957">
<ele>86.237366</ele>
<time>2010-08-29T18:01:43Z</time>
<desc>lat.=55.910507, lon.=26.508957, Alt.=86.237366m. Speed=14.364000m/h.</desc>
<speed>3.990000</speed>
</trkpt>
<trkpt lat="55.910477" lon="26.509005">
<ele>85.893616</ele>
<time>2010-08-29T18:01:44Z</time>
<desc>lat.=55.910477, lon.=26.509005, Alt.=85.893616m. Speed=15.696000m/h.</desc>
<speed>4.360000</speed>
</trkpt>
<trkpt lat="55.910446" lon="26.509054">
<ele>85.907288</ele>
<time>2010-08-29T18:01:45Z</time>
<desc>lat.=55.910446, lon.=26.509054, Alt.=85.907288m. Speed=15.156000m/h.</desc>
<speed>4.210000</speed>
</trkpt>
<trkpt lat="55.910416" lon="26.509098">
<ele>85.819397</ele>
<time>2010-08-29T18:01:46Z</time>
<desc>lat.=55.910416, lon.=26.509098, Alt.=85.819397m. Speed=15.084000m/h.</desc>
<speed>4.190000</speed>
</trkpt>
<trkpt lat="55.910385" lon="26.509144">
<ele>85.836975</ele>
<time>2010-08-29T18:01:47Z</time>
<desc>lat.=55.910385, lon.=26.509144, Alt.=85.836975m. Speed=14.940000m/h.</desc>
<speed>4.150000</speed>
</trkpt>
<trkpt lat="55.910358" lon="26.509186">
<ele>86.180725</ele>
<time>2010-08-29T18:01:48Z</time>
<desc>lat.=55.910358, lon.=26.509186, Alt.=86.180725m. Speed=14.400000m/h.</desc>
<speed>4.000000</speed>
</trkpt>
<trkpt lat="55.910324" lon="26.509258">
<ele>83.657288</ele>
<time>2010-08-29T18:01:49Z</time>
<desc>lat.=55.910324, lon.=26.509258, Alt.=83.657288m. Speed=17.964001m/h.</desc>
<speed>4.990000</speed>
</trkpt>
<trkpt lat="55.910294" lon="26.509310">
<ele>83.465881</ele>
<time>2010-08-29T18:01:50Z</time>
<desc>lat.=55.910294, lon.=26.509310, Alt.=83.465881m. Speed=17.063999m/h.</desc>
<speed>4.740000</speed>
</trkpt>
<trkpt lat="55.910259" lon="26.509367">
<ele>83.827209</ele>
<time>2010-08-29T18:01:51Z</time>
<desc>lat.=55.910259, lon.=26.509367, Alt.=83.827209m. Speed=18.143999m/h.</desc>
<speed>5.040000</speed>
</trkpt>
<trkpt lat="55.910233" lon="26.509409">
<ele>85.461975</ele>
<time>2010-08-29T18:01:52Z</time>
<desc>lat.=55.910233, lon.=26.509409, Alt.=85.461975m. Speed=18.468000m/h.</desc>
<speed>5.130000</speed>
</trkpt>
<trkpt lat="55.910198" lon="26.509464">
<ele>85.706116</ele>
<time>2010-08-29T18:01:53Z</time>
<desc>lat.=55.910198, lon.=26.509464, Alt.=85.706116m. Speed=18.288000m/h.</desc>
<speed>5.080000</speed>
</trkpt>
<trkpt lat="55.910168" lon="26.509521">
<ele>85.549866</ele>
<time>2010-08-29T18:01:54Z</time>
<desc>lat.=55.910168, lon.=26.509521, Alt.=85.549866m. Speed=18.792000m/h.</desc>
<speed>5.220000</speed>
</trkpt>
<trkpt lat="55.910133" lon="26.509579">
<ele>85.436584</ele>
<time>2010-08-29T18:01:55Z</time>
<desc>lat.=55.910133, lon.=26.509579, Alt.=85.436584m. Speed=17.136000m/h.</desc>
<speed>4.760000</speed>
</trkpt>
<trkpt lat="55.910095" lon="26.509621">
<ele>85.612366</ele>
<time>2010-08-29T18:01:56Z</time>
<desc>lat.=55.910095, lon.=26.509621, Alt.=85.612366m. Speed=17.496000m/h.</desc>
<speed>4.860000</speed>
</trkpt>
<trkpt lat="55.910057" lon="26.509670">
<ele>85.610413</ele>
<time>2010-08-29T18:01:57Z</time>
<desc>lat.=55.910057, lon.=26.509670, Alt.=85.610413m. Speed=18.252001m/h.</desc>
<speed>5.070000</speed>
</trkpt>
<trkpt lat="55.910019" lon="26.509729">
<ele>86.202209</ele>
<time>2010-08-29T18:01:58Z</time>
<desc>lat.=55.910019, lon.=26.509729, Alt.=86.202209m. Speed=18.936001m/h.</desc>
<speed>5.260000</speed>
</trkpt>
<trkpt lat="55.909985" lon="26.509785">
<ele>86.210022</ele>
<time>2010-08-29T18:01:59Z</time>
<desc>lat.=55.909985, lon.=26.509785, Alt.=86.210022m. Speed=18.323999m/h.</desc>
<speed>5.090000</speed>
</trkpt>
<trkpt lat="55.909950" lon="26.509844">
<ele>85.577209</ele>
<time>2010-08-29T18:02:00Z</time>
<desc>lat.=55.909950, lon.=26.509844, Alt.=85.577209m. Speed=19.044001m/h.</desc>
<speed>5.290000</speed>
</trkpt>
<trkpt lat="55.909916" lon="26.509905">
<ele>84.647522</ele>
<time>2010-08-29T18:02:01Z</time>
<desc>lat.=55.909916, lon.=26.509905, Alt.=84.647522m. Speed=18.072001m/h.</desc>
<speed>5.020000</speed>
</trkpt>
<trkpt lat="55.909893" lon="26.509951">
<ele>84.338928</ele>
<time>2010-08-29T18:02:02Z</time>
<desc>lat.=55.909893, lon.=26.509951, Alt.=84.338928m. Speed=12.888000m/h.</desc>
<speed>3.580000</speed>
</trkpt>
<trkpt lat="55.909859" lon="26.510002">
<ele>84.153381</ele>
<time>2010-08-29T18:02:03Z</time>
<desc>lat.=55.909859, lon.=26.510002, Alt.=84.153381m. Speed=16.452000m/h.</desc>
<speed>4.570000</speed>
</trkpt>
<trkpt lat="55.909828" lon="26.510048">
<ele>83.942444</ele>
<time>2010-08-29T18:02:04Z</time>
<desc>lat.=55.909828, lon.=26.510048, Alt.=83.942444m. Speed=14.868000m/h.</desc>
<speed>4.130000</speed>
</trkpt>
<trkpt lat="55.909801" lon="26.510098">
<ele>84.260803</ele>
<time>2010-08-29T18:02:05Z</time>
<desc>lat.=55.909801, lon.=26.510098, Alt.=84.260803m. Speed=15.624000m/h.</desc>
<speed>4.340000</speed>
</trkpt>
<trkpt lat="55.909771" lon="26.510149">
<ele>84.110413</ele>
<time>2010-08-29T18:02:06Z</time>
<desc>lat.=55.909771, lon.=26.510149, Alt.=84.110413m. Speed=15.264000m/h.</desc>
<speed>4.240000</speed>
</trkpt>
<trkpt lat="55.909744" lon="26.510201">
<ele>84.186584</ele>
<time>2010-08-29T18:02:07Z</time>
<desc>lat.=55.909744, lon.=26.510201, Alt.=84.186584m. Speed=14.796000m/h.</desc>
<speed>4.110000</speed>
</trkpt>
<trkpt lat="55.909714" lon="26.510258">
<ele>83.838928</ele>
<time>2010-08-29T18:02:08Z</time>
<desc>lat.=55.909714, lon.=26.510258, Alt.=83.838928m. Speed=15.660000m/h.</desc>
<speed>4.350000</speed>
</trkpt>
<trkpt lat="55.909683" lon="26.510307">
<ele>84.108459</ele>
<time>2010-08-29T18:02:09Z</time>
<desc>lat.=55.909683, lon.=26.510307, Alt.=84.108459m. Speed=12.096000m/h.</desc>
<speed>3.360000</speed>
</trkpt>
<trkpt lat="55.909657" lon="26.510347">
<ele>83.860413</ele>
<time>2010-08-29T18:02:10Z</time>
<desc>lat.=55.909657, lon.=26.510347, Alt.=83.860413m. Speed=15.660000m/h.</desc>
<speed>4.350000</speed>
</trkpt>
<trkpt lat="55.909626" lon="26.510397">
<ele>83.915100</ele>
<time>2010-08-29T18:02:11Z</time>
<desc>lat.=55.909626, lon.=26.510397, Alt.=83.915100m. Speed=15.372000m/h.</desc>
<speed>4.270000</speed>
</trkpt>
<trkpt lat="55.909599" lon="26.510447">
<ele>83.499084</ele>
<time>2010-08-29T18:02:12Z</time>
<desc>lat.=55.909599, lon.=26.510447, Alt.=83.499084m. Speed=14.760000m/h.</desc>
<speed>4.100000</speed>
</trkpt>
<trkpt lat="55.909569" lon="26.510506">
<ele>82.446350</ele>
<time>2010-08-29T18:02:13Z</time>
<desc>lat.=55.909569, lon.=26.510506, Alt.=82.446350m. Speed=15.228000m/h.</desc>
<speed>4.230000</speed>
</trkpt>
<trkpt lat="55.909534" lon="26.510555">
<ele>81.754944</ele>
<time>2010-08-29T18:02:14Z</time>
<desc>lat.=55.909534, lon.=26.510555, Alt.=81.754944m. Speed=15.300000m/h.</desc>
<speed>4.250000</speed>
</trkpt>
<trkpt lat="55.909504" lon="26.510605">
<ele>81.346741</ele>
<time>2010-08-29T18:02:15Z</time>
<desc>lat.=55.909504, lon.=26.510605, Alt.=81.346741m. Speed=15.552000m/h.</desc>
<speed>4.320000</speed>
</trkpt>
<trkpt lat="55.909473" lon="26.510651">
<ele>81.186584</ele>
<time>2010-08-29T18:02:16Z</time>
<desc>lat.=55.909473, lon.=26.510651, Alt.=81.186584m. Speed=15.948000m/h.</desc>
<speed>4.430000</speed>
</trkpt>
<trkpt lat="55.909439" lon="26.510702">
<ele>80.669006</ele>
<time>2010-08-29T18:02:17Z</time>
<desc>lat.=55.909439, lon.=26.510702, Alt.=80.669006m. Speed=16.416000m/h.</desc>
<speed>4.560000</speed>
</trkpt>
<trkpt lat="55.909409" lon="26.510756">
<ele>80.461975</ele>
<time>2010-08-29T18:02:18Z</time>
<desc>lat.=55.909409, lon.=26.510756, Alt.=80.461975m. Speed=16.344000m/h.</desc>
<speed>4.540000</speed>
</trkpt>
<trkpt lat="55.909382" lon="26.510811">
<ele>80.331116</ele>
<time>2010-08-29T18:02:19Z</time>
<desc>lat.=55.909382, lon.=26.510811, Alt.=80.331116m. Speed=16.271999m/h.</desc>
<speed>4.520000</speed>
</trkpt>
<trkpt lat="55.909355" lon="26.510860">
<ele>79.842834</ele>
<time>2010-08-29T18:02:20Z</time>
<desc>lat.=55.909355, lon.=26.510860, Alt.=79.842834m. Speed=16.667999m/h.</desc>
<speed>4.630000</speed>
</trkpt>
<trkpt lat="55.909325" lon="26.510931">
<ele>78.348694</ele>
<time>2010-08-29T18:02:21Z</time>
<desc>lat.=55.909325, lon.=26.510931, Alt.=78.348694m. Speed=16.452000m/h.</desc>
<speed>4.570000</speed>
</trkpt>
<trkpt lat="55.909298" lon="26.510986">
<ele>78.368225</ele>
<time>2010-08-29T18:02:22Z</time>
<desc>lat.=55.909298, lon.=26.510986, Alt.=78.368225m. Speed=17.856001m/h.</desc>
<speed>4.960000</speed>
</trkpt>
<trkpt lat="55.909267" lon="26.511045">
<ele>78.196350</ele>
<time>2010-08-29T18:02:23Z</time>
<desc>lat.=55.909267, lon.=26.511045, Alt.=78.196350m. Speed=16.920000m/h.</desc>
<speed>4.700000</speed>
</trkpt>
<trkpt lat="55.909245" lon="26.511105">
<ele>78.204163</ele>
<time>2010-08-29T18:02:24Z</time>
<desc>lat.=55.909245, lon.=26.511105, Alt.=78.204163m. Speed=15.156000m/h.</desc>
<speed>4.210000</speed>
</trkpt>
<trkpt lat="55.909222" lon="26.511160">
<ele>77.751038</ele>
<time>2010-08-29T18:02:25Z</time>
<desc>lat.=55.909222, lon.=26.511160, Alt.=77.751038m. Speed=15.552000m/h.</desc>
<speed>4.320000</speed>
</trkpt>
<trkpt lat="55.909203" lon="26.511209">
<ele>78.520569</ele>
<time>2010-08-29T18:02:26Z</time>
<desc>lat.=55.909203, lon.=26.511209, Alt.=78.520569m. Speed=15.372000m/h.</desc>
<speed>4.270000</speed>
</trkpt>
<trkpt lat="55.909184" lon="26.511276">
<ele>77.516663</ele>
<time>2010-08-29T18:02:27Z</time>
<desc>lat.=55.909184, lon.=26.511276, Alt.=77.516663m. Speed=16.667999m/h.</desc>
<speed>4.630000</speed>
</trkpt>
<trkpt lat="55.909161" lon="26.511343">
<ele>77.467834</ele>
<time>2010-08-29T18:02:28Z</time>
<desc>lat.=55.909161, lon.=26.511343, Alt.=77.467834m. Speed=16.344000m/h.</desc>
<speed>4.540000</speed>
</trkpt>
<trkpt lat="55.909138" lon="26.511395">
<ele>78.126038</ele>
<time>2010-08-29T18:02:29Z</time>
<desc>lat.=55.909138, lon.=26.511395, Alt.=78.126038m. Speed=15.120000m/h.</desc>
<speed>4.200000</speed>
</trkpt>
<trkpt lat="55.909119" lon="26.511452">
<ele>78.670959</ele>
<time>2010-08-29T18:02:30Z</time>
<desc>lat.=55.909119, lon.=26.511452, Alt.=78.670959m. Speed=15.192000m/h.</desc>
<speed>4.220000</speed>
</trkpt>
<trkpt lat="55.909103" lon="26.511511">
<ele>79.356506</ele>
<time>2010-08-29T18:02:31Z</time>
<desc>lat.=55.909103, lon.=26.511511, Alt.=79.356506m. Speed=15.084000m/h.</desc>
<speed>4.190000</speed>
</trkpt>
<trkpt lat="55.909081" lon="26.511559">
<ele>79.897522</ele>
<time>2010-08-29T18:02:32Z</time>
<desc>lat.=55.909081, lon.=26.511559, Alt.=79.897522m. Speed=13.716000m/h.</desc>
<speed>3.810000</speed>
</trkpt>
<trkpt lat="55.909061" lon="26.511600">
<ele>81.167053</ele>
<time>2010-08-29T18:02:33Z</time>
<desc>lat.=55.909061, lon.=26.511600, Alt.=81.167053m. Speed=12.744000m/h.</desc>
<speed>3.540000</speed>
</trkpt>
<trkpt lat="55.909042" lon="26.511652">
<ele>80.979553</ele>
<time>2010-08-29T18:02:34Z</time>
<desc>lat.=55.909042, lon.=26.511652, Alt.=80.979553m. Speed=12.240000m/h.</desc>
<speed>3.400000</speed>
</trkpt>
<trkpt lat="55.909031" lon="26.511688">
<ele>81.409241</ele>
<time>2010-08-29T18:02:35Z</time>
<desc>lat.=55.909031, lon.=26.511688, Alt.=81.409241m. Speed=8.496000m/h.</desc>
<speed>2.360000</speed>
</trkpt>
<trkpt lat="55.909004" lon="26.511721">
<ele>81.497131</ele>
<time>2010-08-29T18:02:36Z</time>
<desc>lat.=55.909004, lon.=26.511721, Alt.=81.497131m. Speed=12.960000m/h.</desc>
<speed>3.600000</speed>
</trkpt>
<trkpt lat="55.908978" lon="26.511765">
<ele>81.764709</ele>
<time>2010-08-29T18:02:37Z</time>
<desc>lat.=55.908978, lon.=26.511765, Alt.=81.764709m. Speed=13.824000m/h.</desc>
<speed>3.840000</speed>
</trkpt>
<trkpt lat="55.908947" lon="26.511795">
<ele>82.180725</ele>
<time>2010-08-29T18:02:38Z</time>
<desc>lat.=55.908947, lon.=26.511795, Alt.=82.180725m. Speed=12.564000m/h.</desc>
<speed>3.490000</speed>
</trkpt>
<trkpt lat="55.908916" lon="26.511824">
<ele>82.340881</ele>
<time>2010-08-29T18:02:39Z</time>
<desc>lat.=55.908916, lon.=26.511824, Alt.=82.340881m. Speed=12.384000m/h.</desc>
<speed>3.440000</speed>
</trkpt>
<trkpt lat="55.908886" lon="26.511843">
<ele>82.512756</ele>
<time>2010-08-29T18:02:40Z</time>
<desc>lat.=55.908886, lon.=26.511843, Alt.=82.512756m. Speed=10.764000m/h.</desc>
<speed>2.990000</speed>
</trkpt>
<trkpt lat="55.908863" lon="26.511843">
<ele>83.956116</ele>
<time>2010-08-29T18:02:41Z</time>
<desc>lat.=55.908863, lon.=26.511843, Alt.=83.956116m. Speed=10.260000m/h.</desc>
<speed>2.850000</speed>
</trkpt>
<trkpt lat="55.908833" lon="26.511835">
<ele>84.354553</ele>
<time>2010-08-29T18:02:42Z</time>
<desc>lat.=55.908833, lon.=26.511835, Alt.=84.354553m. Speed=11.376000m/h.</desc>
<speed>3.160000</speed>
</trkpt>
<trkpt lat="55.908794" lon="26.511835">
<ele>84.381897</ele>
<time>2010-08-29T18:02:43Z</time>
<desc>lat.=55.908794, lon.=26.511835, Alt.=84.381897m. Speed=13.608000m/h.</desc>
<speed>3.780000</speed>
</trkpt>
<trkpt lat="55.908752" lon="26.511835">
<ele>84.797913</ele>
<time>2010-08-29T18:02:44Z</time>
<desc>lat.=55.908752, lon.=26.511835, Alt.=84.797913m. Speed=14.760000m/h.</desc>
<speed>4.100000</speed>
</trkpt>
<trkpt lat="55.908710" lon="26.511835">
<ele>85.491272</ele>
<time>2010-08-29T18:02:45Z</time>
<desc>lat.=55.908710, lon.=26.511835, Alt.=85.491272m. Speed=16.091999m/h.</desc>
<speed>4.470000</speed>
</trkpt>
<trkpt lat="55.908665" lon="26.511837">
<ele>85.116272</ele>
<time>2010-08-29T18:02:46Z</time>
<desc>lat.=55.908665, lon.=26.511837, Alt.=85.116272m. Speed=16.596001m/h.</desc>
<speed>4.610000</speed>
</trkpt>
<trkpt lat="55.908619" lon="26.511835">
<ele>85.501038</ele>
<time>2010-08-29T18:02:47Z</time>
<desc>lat.=55.908619, lon.=26.511835, Alt.=85.501038m. Speed=16.812000m/h.</desc>
<speed>4.670000</speed>
</trkpt>
<trkpt lat="55.908573" lon="26.511833">
<ele>84.715881</ele>
<time>2010-08-29T18:02:48Z</time>
<desc>lat.=55.908573, lon.=26.511833, Alt.=84.715881m. Speed=17.927999m/h.</desc>
<speed>4.980000</speed>
</trkpt>
<trkpt lat="55.908531" lon="26.511839">
<ele>84.852600</ele>
<time>2010-08-29T18:02:49Z</time>
<desc>lat.=55.908531, lon.=26.511839, Alt.=84.852600m. Speed=15.624000m/h.</desc>
<speed>4.340000</speed>
</trkpt>
<trkpt lat="55.908489" lon="26.511837">
<ele>84.366272</ele>
<time>2010-08-29T18:02:50Z</time>
<desc>lat.=55.908489, lon.=26.511837, Alt.=84.366272m. Speed=15.408000m/h.</desc>
<speed>4.280000</speed>
</trkpt>
<trkpt lat="55.908451" lon="26.511833">
<ele>84.544006</ele>
<time>2010-08-29T18:02:51Z</time>
<desc>lat.=55.908451, lon.=26.511833, Alt.=84.544006m. Speed=15.696000m/h.</desc>
<speed>4.360000</speed>
</trkpt>
<trkpt lat="55.908405" lon="26.511835">
<ele>84.147522</ele>
<time>2010-08-29T18:02:52Z</time>
<desc>lat.=55.908405, lon.=26.511835, Alt.=84.147522m. Speed=16.596001m/h.</desc>
<speed>4.610000</speed>
</trkpt>
<trkpt lat="55.908363" lon="26.511841">
<ele>83.942444</ele>
<time>2010-08-29T18:02:53Z</time>
<desc>lat.=55.908363, lon.=26.511841, Alt.=83.942444m. Speed=17.028000m/h.</desc>
<speed>4.730000</speed>
</trkpt>
<trkpt lat="55.908321" lon="26.511843">
<ele>85.159241</ele>
<time>2010-08-29T18:02:54Z</time>
<desc>lat.=55.908321, lon.=26.511843, Alt.=85.159241m. Speed=17.028000m/h.</desc>
<speed>4.730000</speed>
</trkpt>
<trkpt lat="55.908283" lon="26.511847">
<ele>85.860413</ele>
<time>2010-08-29T18:02:55Z</time>
<desc>lat.=55.908283, lon.=26.511847, Alt.=85.860413m. Speed=16.308001m/h.</desc>
<speed>4.530000</speed>
</trkpt>
<trkpt lat="55.908241" lon="26.511852">
<ele>86.481506</ele>
<time>2010-08-29T18:02:56Z</time>
<desc>lat.=55.908241, lon.=26.511852, Alt.=86.481506m. Speed=17.028000m/h.</desc>
<speed>4.730000</speed>
</trkpt>
<trkpt lat="55.908195" lon="26.511860">
<ele>87.760803</ele>
<time>2010-08-29T18:02:57Z</time>
<desc>lat.=55.908195, lon.=26.511860, Alt.=87.760803m. Speed=16.559999m/h.</desc>
<speed>4.600000</speed>
</trkpt>
<trkpt lat="55.908150" lon="26.511868">
<ele>85.196350</ele>
<time>2010-08-29T18:02:58Z</time>
<desc>lat.=55.908150, lon.=26.511868, Alt.=85.196350m. Speed=14.904000m/h.</desc>
<speed>4.140000</speed>
</trkpt>
<trkpt lat="55.908112" lon="26.511869">
<ele>87.071350</ele>
<time>2010-08-29T18:02:59Z</time>
<desc>lat.=55.908112, lon.=26.511869, Alt.=87.071350m. Speed=16.164000m/h.</desc>
<speed>4.490000</speed>
</trkpt>
<trkpt lat="55.908073" lon="26.511869">
<ele>87.893616</ele>
<time>2010-08-29T18:03:00Z</time>
<desc>lat.=55.908073, lon.=26.511869, Alt.=87.893616m. Speed=15.660000m/h.</desc>
<speed>4.350000</speed>
</trkpt>
<trkpt lat="55.908031" lon="26.511866">
<ele>87.002991</ele>
<time>2010-08-29T18:03:01Z</time>
<desc>lat.=55.908031, lon.=26.511866, Alt.=87.002991m. Speed=16.416000m/h.</desc>
<speed>4.560000</speed>
</trkpt>
<trkpt lat="55.907990" lon="26.511866">
<ele>87.495178</ele>
<time>2010-08-29T18:03:02Z</time>
<desc>lat.=55.907990, lon.=26.511866, Alt.=87.495178m. Speed=17.136000m/h.</desc>
<speed>4.760000</speed>
</trkpt>
<trkpt lat="55.907955" lon="26.511862">
<ele>88.047913</ele>
<time>2010-08-29T18:03:03Z</time>
<desc>lat.=55.907955, lon.=26.511862, Alt.=88.047913m. Speed=13.464000m/h.</desc>
<speed>3.740000</speed>
</trkpt>
<trkpt lat="55.907921" lon="26.511852">
<ele>88.237366</ele>
<time>2010-08-29T18:03:04Z</time>
<desc>lat.=55.907921, lon.=26.511852, Alt.=88.237366m. Speed=13.932000m/h.</desc>
<speed>3.870000</speed>
</trkpt>
<trkpt lat="55.907887" lon="26.511850">
<ele>88.864319</ele>
<time>2010-08-29T18:03:05Z</time>
<desc>lat.=55.907887, lon.=26.511850, Alt.=88.864319m. Speed=12.456000m/h.</desc>
<speed>3.460000</speed>
</trkpt>
<trkpt lat="55.907856" lon="26.511841">
<ele>89.938538</ele>
<time>2010-08-29T18:03:06Z</time>
<desc>lat.=55.907856, lon.=26.511841, Alt.=89.938538m. Speed=12.636000m/h.</desc>
<speed>3.510000</speed>
</trkpt>
<trkpt lat="55.907822" lon="26.511837">
<ele>90.426819</ele>
<time>2010-08-29T18:03:07Z</time>
<desc>lat.=55.907822, lon.=26.511837, Alt.=90.426819m. Speed=11.952000m/h.</desc>
<speed>3.320000</speed>
</trkpt>
<trkpt lat="55.907795" lon="26.511833">
<ele>90.833069</ele>
<time>2010-08-29T18:03:08Z</time>
<desc>lat.=55.907795, lon.=26.511833, Alt.=90.833069m. Speed=10.404000m/h.</desc>
<speed>2.890000</speed>
</trkpt>
<trkpt lat="55.907764" lon="26.511833">
<ele>91.188538</ele>
<time>2010-08-29T18:03:09Z</time>
<desc>lat.=55.907764, lon.=26.511833, Alt.=91.188538m. Speed=10.188000m/h.</desc>
<speed>2.830000</speed>
</trkpt>
<trkpt lat="55.907742" lon="26.511835">
<ele>91.143616</ele>
<time>2010-08-29T18:03:10Z</time>
<desc>lat.=55.907742, lon.=26.511835, Alt.=91.143616m. Speed=9.288000m/h.</desc>
<speed>2.580000</speed>
</trkpt>
<trkpt lat="55.907715" lon="26.511835">
<ele>91.200256</ele>
<time>2010-08-29T18:03:11Z</time>
<desc>lat.=55.907715, lon.=26.511835, Alt.=91.200256m. Speed=10.692000m/h.</desc>
<speed>2.970000</speed>
</trkpt>
<trkpt lat="55.907688" lon="26.511826">
<ele>91.020569</ele>
<time>2010-08-29T18:03:12Z</time>
<desc>lat.=55.907688, lon.=26.511826, Alt.=91.020569m. Speed=9.756000m/h.</desc>
<speed>2.710000</speed>
</trkpt>
<trkpt lat="55.907665" lon="26.511820">
<ele>90.961975</ele>
<time>2010-08-29T18:03:13Z</time>
<desc>lat.=55.907665, lon.=26.511820, Alt.=90.961975m. Speed=10.692000m/h.</desc>
<speed>2.970000</speed>
</trkpt>
<trkpt lat="55.907623" lon="26.511824">
<ele>90.961975</ele>
<time>2010-08-29T18:03:14Z</time>
<desc>lat.=55.907623, lon.=26.511824, Alt.=90.961975m. Speed=14.616000m/h.</desc>
<speed>4.060000</speed>
</trkpt>
<trkpt lat="55.907585" lon="26.511826">
<ele>90.786194</ele>
<time>2010-08-29T18:03:15Z</time>
<desc>lat.=55.907585, lon.=26.511826, Alt.=90.786194m. Speed=13.860000m/h.</desc>
<speed>3.850000</speed>
</trkpt>
<trkpt lat="55.907551" lon="26.511829">
<ele>90.835022</ele>
<time>2010-08-29T18:03:16Z</time>
<desc>lat.=55.907551, lon.=26.511829, Alt.=90.835022m. Speed=12.636000m/h.</desc>
<speed>3.510000</speed>
</trkpt>
<trkpt lat="55.907520" lon="26.511812">
<ele>90.590881</ele>
<time>2010-08-29T18:03:17Z</time>
<desc>lat.=55.907520, lon.=26.511812, Alt.=90.590881m. Speed=13.104000m/h.</desc>
<speed>3.640000</speed>
</trkpt>
<trkpt lat="55.907478" lon="26.511803">
<ele>89.831116</ele>
<time>2010-08-29T18:03:18Z</time>
<desc>lat.=55.907478, lon.=26.511803, Alt.=89.831116m. Speed=15.804000m/h.</desc>
<speed>4.390000</speed>
</trkpt>
<trkpt lat="55.907436" lon="26.511812">
<ele>89.186584</ele>
<time>2010-08-29T18:03:19Z</time>
<desc>lat.=55.907436, lon.=26.511812, Alt.=89.186584m. Speed=17.172001m/h.</desc>
<speed>4.770000</speed>
</trkpt>
<trkpt lat="55.907387" lon="26.511812">
<ele>89.002991</ele>
<time>2010-08-29T18:03:20Z</time>
<desc>lat.=55.907387, lon.=26.511812, Alt.=89.002991m. Speed=17.388000m/h.</desc>
<speed>4.830000</speed>
</trkpt>
<trkpt lat="55.907341" lon="26.511816">
<ele>89.008850</ele>
<time>2010-08-29T18:03:21Z</time>
<desc>lat.=55.907341, lon.=26.511816, Alt.=89.008850m. Speed=16.416000m/h.</desc>
<speed>4.560000</speed>
</trkpt>
<trkpt lat="55.907307" lon="26.511822">
<ele>88.460022</ele>
<time>2010-08-29T18:03:22Z</time>
<desc>lat.=55.907307, lon.=26.511822, Alt.=88.460022m. Speed=12.600000m/h.</desc>
<speed>3.500000</speed>
</trkpt>
<trkpt lat="55.907261" lon="26.511837">
<ele>88.516663</ele>
<time>2010-08-29T18:03:23Z</time>
<desc>lat.=55.907261, lon.=26.511837, Alt.=88.516663m. Speed=17.532000m/h.</desc>
<speed>4.870000</speed>
</trkpt>
<trkpt lat="55.907219" lon="26.511848">
<ele>88.954163</ele>
<time>2010-08-29T18:03:24Z</time>
<desc>lat.=55.907219, lon.=26.511848, Alt.=88.954163m. Speed=16.128000m/h.</desc>
<speed>4.480000</speed>
</trkpt>
<trkpt lat="55.907181" lon="26.511862">
<ele>89.549866</ele>
<time>2010-08-29T18:03:25Z</time>
<desc>lat.=55.907181, lon.=26.511862, Alt.=89.549866m. Speed=16.416000m/h.</desc>
<speed>4.560000</speed>
</trkpt>
<trkpt lat="55.907143" lon="26.511883">
<ele>89.706116</ele>
<time>2010-08-29T18:03:26Z</time>
<desc>lat.=55.907143, lon.=26.511883, Alt.=89.706116m. Speed=14.868000m/h.</desc>
<speed>4.130000</speed>
</trkpt>
<trkpt lat="55.907101" lon="26.511896">
<ele>89.913147</ele>
<time>2010-08-29T18:03:27Z</time>
<desc>lat.=55.907101, lon.=26.511896, Alt.=89.913147m. Speed=15.732000m/h.</desc>
<speed>4.370000</speed>
</trkpt>
<trkpt lat="55.907074" lon="26.511913">
<ele>90.071350</ele>
<time>2010-08-29T18:03:28Z</time>
<desc>lat.=55.907074, lon.=26.511913, Alt.=90.071350m. Speed=12.744000m/h.</desc>
<speed>3.540000</speed>
</trkpt>
<trkpt lat="55.907040" lon="26.511915">
<ele>90.491272</ele>
<time>2010-08-29T18:03:29Z</time>
<desc>lat.=55.907040, lon.=26.511915, Alt.=90.491272m. Speed=11.916000m/h.</desc>
<speed>3.310000</speed>
</trkpt>
<trkpt lat="55.906998" lon="26.511911">
<ele>90.169006</ele>
<time>2010-08-29T18:03:30Z</time>
<desc>lat.=55.906998, lon.=26.511911, Alt.=90.169006m. Speed=13.896000m/h.</desc>
<speed>3.860000</speed>
</trkpt>
<trkpt lat="55.906940" lon="26.511944">
<ele>90.704163</ele>
<time>2010-08-29T18:03:31Z</time>
<desc>lat.=55.906940, lon.=26.511944, Alt.=90.704163m. Speed=14.652000m/h.</desc>
<speed>4.070000</speed>
</trkpt>
<trkpt lat="55.906898" lon="26.511965">
<ele>90.196350</ele>
<time>2010-08-29T18:03:32Z</time>
<desc>lat.=55.906898, lon.=26.511965, Alt.=90.196350m. Speed=14.004000m/h.</desc>
<speed>3.890000</speed>
</trkpt>
<trkpt lat="55.906853" lon="26.511988">
<ele>88.448303</ele>
<time>2010-08-29T18:03:33Z</time>
<desc>lat.=55.906853, lon.=26.511988, Alt.=88.448303m. Speed=17.892000m/h.</desc>
<speed>4.970000</speed>
</trkpt>
<trkpt lat="55.906811" lon="26.512009">
<ele>88.471741</ele>
<time>2010-08-29T18:03:34Z</time>
<desc>lat.=55.906811, lon.=26.512009, Alt.=88.471741m. Speed=15.192000m/h.</desc>
<speed>4.220000</speed>
</trkpt>
<trkpt lat="55.906769" lon="26.512022">
<ele>87.708069</ele>
<time>2010-08-29T18:03:35Z</time>
<desc>lat.=55.906769, lon.=26.512022, Alt.=87.708069m. Speed=16.128000m/h.</desc>
<speed>4.480000</speed>
</trkpt>
<trkpt lat="55.906734" lon="26.512033">
<ele>87.547913</ele>
<time>2010-08-29T18:03:36Z</time>
<desc>lat.=55.906734, lon.=26.512033, Alt.=87.547913m. Speed=15.444000m/h.</desc>
<speed>4.290000</speed>
</trkpt>
<trkpt lat="55.906700" lon="26.512049">
<ele>87.850647</ele>
<time>2010-08-29T18:03:37Z</time>
<desc>lat.=55.906700, lon.=26.512049, Alt.=87.850647m. Speed=15.696000m/h.</desc>
<speed>4.360000</speed>
</trkpt>
<trkpt lat="55.906662" lon="26.512072">
<ele>88.020569</ele>
<time>2010-08-29T18:03:38Z</time>
<desc>lat.=55.906662, lon.=26.512072, Alt.=88.020569m. Speed=16.344000m/h.</desc>
<speed>4.540000</speed>
</trkpt>
<trkpt lat="55.906620" lon="26.512089">
<ele>88.241272</ele>
<time>2010-08-29T18:03:39Z</time>
<desc>lat.=55.906620, lon.=26.512089, Alt.=88.241272m. Speed=16.091999m/h.</desc>
<speed>4.470000</speed>
</trkpt>
<trkpt lat="55.906578" lon="26.512102">
<ele>86.983459</ele>
<time>2010-08-29T18:03:40Z</time>
<desc>lat.=55.906578, lon.=26.512102, Alt.=86.983459m. Speed=16.524000m/h.</desc>
<speed>4.590000</speed>
</trkpt>
<trkpt lat="55.906540" lon="26.512119">
<ele>86.977600</ele>
<time>2010-08-29T18:03:41Z</time>
<desc>lat.=55.906540, lon.=26.512119, Alt.=86.977600m. Speed=13.968000m/h.</desc>
<speed>3.880000</speed>
</trkpt>
<trkpt lat="55.906506" lon="26.512133">
<ele>87.256897</ele>
<time>2010-08-29T18:03:42Z</time>
<desc>lat.=55.906506, lon.=26.512133, Alt.=87.256897m. Speed=13.212000m/h.</desc>
<speed>3.670000</speed>
</trkpt>
<trkpt lat="55.906467" lon="26.512148">
<ele>86.635803</ele>
<time>2010-08-29T18:03:43Z</time>
<desc>lat.=55.906467, lon.=26.512148, Alt.=86.635803m. Speed=14.004000m/h.</desc>
<speed>3.890000</speed>
</trkpt>
<trkpt lat="55.906429" lon="26.512175">
<ele>86.161194</ele>
<time>2010-08-29T18:03:44Z</time>
<desc>lat.=55.906429, lon.=26.512175, Alt.=86.161194m. Speed=14.832000m/h.</desc>
<speed>4.120000</speed>
</trkpt>
<trkpt lat="55.906387" lon="26.512203">
<ele>87.622131</ele>
<time>2010-08-29T18:03:45Z</time>
<desc>lat.=55.906387, lon.=26.512203, Alt.=87.622131m. Speed=16.596001m/h.</desc>
<speed>4.610000</speed>
</trkpt>
<trkpt lat="55.906357" lon="26.512222">
<ele>88.645569</ele>
<time>2010-08-29T18:03:46Z</time>
<desc>lat.=55.906357, lon.=26.512222, Alt.=88.645569m. Speed=13.968000m/h.</desc>
<speed>3.880000</speed>
</trkpt>
<trkpt lat="55.906319" lon="26.512245">
<ele>89.909241</ele>
<time>2010-08-29T18:03:47Z</time>
<desc>lat.=55.906319, lon.=26.512245, Alt.=89.909241m. Speed=12.816000m/h.</desc>
<speed>3.560000</speed>
</trkpt>
<trkpt lat="55.906292" lon="26.512270">
<ele>92.422913</ele>
<time>2010-08-29T18:03:48Z</time>
<desc>lat.=55.906292, lon.=26.512270, Alt.=92.422913m. Speed=12.096000m/h.</desc>
<speed>3.360000</speed>
</trkpt>
<trkpt lat="55.906254" lon="26.512300">
<ele>88.590881</ele>
<time>2010-08-29T18:03:49Z</time>
<desc>lat.=55.906254, lon.=26.512300, Alt.=88.590881m. Speed=13.932000m/h.</desc>
<speed>3.870000</speed>
</trkpt>
<trkpt lat="55.906219" lon="26.512312">
<ele>88.604553</ele>
<time>2010-08-29T18:03:50Z</time>
<desc>lat.=55.906219, lon.=26.512312, Alt.=88.604553m. Speed=13.176000m/h.</desc>
<speed>3.660000</speed>
</trkpt>
<trkpt lat="55.906189" lon="26.512323">
<ele>89.034241</ele>
<time>2010-08-29T18:03:51Z</time>
<desc>lat.=55.906189, lon.=26.512323, Alt.=89.034241m. Speed=14.328000m/h.</desc>
<speed>3.980000</speed>
</trkpt>
<trkpt lat="55.906155" lon="26.512335">
<ele>89.239319</ele>
<time>2010-08-29T18:03:52Z</time>
<desc>lat.=55.906155, lon.=26.512335, Alt.=89.239319m. Speed=12.060000m/h.</desc>
<speed>3.350000</speed>
</trkpt>
<trkpt lat="55.906128" lon="26.512346">
<ele>89.676819</ele>
<time>2010-08-29T18:03:53Z</time>
<desc>lat.=55.906128, lon.=26.512346, Alt.=89.676819m. Speed=13.824000m/h.</desc>
<speed>3.840000</speed>
</trkpt>
<trkpt lat="55.906090" lon="26.512365">
<ele>89.208069</ele>
<time>2010-08-29T18:03:54Z</time>
<desc>lat.=55.906090, lon.=26.512365, Alt.=89.208069m. Speed=15.228000m/h.</desc>
<speed>4.230000</speed>
</trkpt>
<trkpt lat="55.906052" lon="26.512390">
<ele>88.014709</ele>
<time>2010-08-29T18:03:55Z</time>
<desc>lat.=55.906052, lon.=26.512390, Alt.=88.014709m. Speed=15.120000m/h.</desc>
<speed>4.200000</speed>
</trkpt>
<trkpt lat="55.906013" lon="26.512411">
<ele>87.411194</ele>
<time>2010-08-29T18:03:56Z</time>
<desc>lat.=55.906013, lon.=26.512411, Alt.=87.411194m. Speed=13.860000m/h.</desc>
<speed>3.850000</speed>
</trkpt>
<trkpt lat="55.905975" lon="26.512423">
<ele>86.979553</ele>
<time>2010-08-29T18:03:57Z</time>
<desc>lat.=55.905975, lon.=26.512423, Alt.=86.979553m. Speed=15.804000m/h.</desc>
<speed>4.390000</speed>
</trkpt>
<trkpt lat="55.905933" lon="26.512445">
<ele>86.727600</ele>
<time>2010-08-29T18:03:58Z</time>
<desc>lat.=55.905933, lon.=26.512445, Alt.=86.727600m. Speed=17.424000m/h.</desc>
<speed>4.840000</speed>
</trkpt>
<trkpt lat="55.905891" lon="26.512470">
<ele>87.092834</ele>
<time>2010-08-29T18:03:59Z</time>
<desc>lat.=55.905891, lon.=26.512470, Alt.=87.092834m. Speed=15.264000m/h.</desc>
<speed>4.240000</speed>
</trkpt>
<trkpt lat="55.905857" lon="26.512489">
<ele>87.563538</ele>
<time>2010-08-29T18:04:00Z</time>
<desc>lat.=55.905857, lon.=26.512489, Alt.=87.563538m. Speed=15.480000m/h.</desc>
<speed>4.300000</speed>
</trkpt>
<trkpt lat="55.905815" lon="26.512516">
<ele>86.885803</ele>
<time>2010-08-29T18:04:01Z</time>
<desc>lat.=55.905815, lon.=26.512516, Alt.=86.885803m. Speed=16.740000m/h.</desc>
<speed>4.650000</speed>
</trkpt>
<trkpt lat="55.905769" lon="26.512533">
<ele>87.501038</ele>
<time>2010-08-29T18:04:02Z</time>
<desc>lat.=55.905769, lon.=26.512533, Alt.=87.501038m. Speed=17.892000m/h.</desc>
<speed>4.970000</speed>
</trkpt>
<trkpt lat="55.905731" lon="26.512556">
<ele>88.622131</ele>
<time>2010-08-29T18:04:03Z</time>
<desc>lat.=55.905731, lon.=26.512556, Alt.=88.622131m. Speed=17.892000m/h.</desc>
<speed>4.970000</speed>
</trkpt>
<trkpt lat="55.905689" lon="26.512579">
<ele>88.842834</ele>
<time>2010-08-29T18:04:04Z</time>
<desc>lat.=55.905689, lon.=26.512579, Alt.=88.842834m. Speed=17.388000m/h.</desc>
<speed>4.830000</speed>
</trkpt>
<trkpt lat="55.905643" lon="26.512596">
<ele>88.426819</ele>
<time>2010-08-29T18:04:05Z</time>
<desc>lat.=55.905643, lon.=26.512596, Alt.=88.426819m. Speed=16.884001m/h.</desc>
<speed>4.690000</speed>
</trkpt>
<trkpt lat="55.905602" lon="26.512613">
<ele>88.590881</ele>
<time>2010-08-29T18:04:06Z</time>
<desc>lat.=55.905602, lon.=26.512613, Alt.=88.590881m. Speed=16.704000m/h.</desc>
<speed>4.640000</speed>
</trkpt>
<trkpt lat="55.905560" lon="26.512632">
<ele>88.538147</ele>
<time>2010-08-29T18:04:07Z</time>
<desc>lat.=55.905560, lon.=26.512632, Alt.=88.538147m. Speed=15.516000m/h.</desc>
<speed>4.310000</speed>
</trkpt>
<trkpt lat="55.905521" lon="26.512648">
<ele>89.249084</ele>
<time>2010-08-29T18:04:08Z</time>
<desc>lat.=55.905521, lon.=26.512648, Alt.=89.249084m. Speed=16.416000m/h.</desc>
<speed>4.560000</speed>
</trkpt>
<trkpt lat="55.905483" lon="26.512671">
<ele>89.438538</ele>
<time>2010-08-29T18:04:09Z</time>
<desc>lat.=55.905483, lon.=26.512671, Alt.=89.438538m. Speed=16.524000m/h.</desc>
<speed>4.590000</speed>
</trkpt>
<trkpt lat="55.905441" lon="26.512693">
<ele>89.372131</ele>
<time>2010-08-29T18:04:10Z</time>
<desc>lat.=55.905441, lon.=26.512693, Alt.=89.372131m. Speed=17.532000m/h.</desc>
<speed>4.870000</speed>
</trkpt>
<trkpt lat="55.905396" lon="26.512716">
<ele>90.036194</ele>
<time>2010-08-29T18:04:11Z</time>
<desc>lat.=55.905396, lon.=26.512716, Alt.=90.036194m. Speed=18.000000m/h.</desc>
<speed>5.000000</speed>
</trkpt>
<trkpt lat="55.905350" lon="26.512741">
<ele>90.461975</ele>
<time>2010-08-29T18:04:12Z</time>
<desc>lat.=55.905350, lon.=26.512741, Alt.=90.461975m. Speed=18.827999m/h.</desc>
<speed>5.230000</speed>
</trkpt>
<trkpt lat="55.905304" lon="26.512768">
<ele>90.239319</ele>
<time>2010-08-29T18:04:13Z</time>
<desc>lat.=55.905304, lon.=26.512768, Alt.=90.239319m. Speed=18.360001m/h.</desc>
<speed>5.100000</speed>
</trkpt>
<trkpt lat="55.905251" lon="26.512785">
<ele>89.510803</ele>
<time>2010-08-29T18:04:14Z</time>
<desc>lat.=55.905251, lon.=26.512785, Alt.=89.510803m. Speed=18.360001m/h.</desc>
<speed>5.100000</speed>
</trkpt>
<trkpt lat="55.905209" lon="26.512808">
<ele>89.354553</ele>
<time>2010-08-29T18:04:15Z</time>
<desc>lat.=55.905209, lon.=26.512808, Alt.=89.354553m. Speed=16.992001m/h.</desc>
<speed>4.720000</speed>
</trkpt>
<trkpt lat="55.905167" lon="26.512829">
<ele>89.901428</ele>
<time>2010-08-29T18:04:16Z</time>
<desc>lat.=55.905167, lon.=26.512829, Alt.=89.901428m. Speed=16.920000m/h.</desc>
<speed>4.700000</speed>
</trkpt>
<trkpt lat="55.905125" lon="26.512854">
<ele>89.952209</ele>
<time>2010-08-29T18:04:17Z</time>
<desc>lat.=55.905125, lon.=26.512854, Alt.=89.952209m. Speed=18.792000m/h.</desc>
<speed>5.220000</speed>
</trkpt>
<trkpt lat="55.905079" lon="26.512878">
<ele>89.735413</ele>
<time>2010-08-29T18:04:18Z</time>
<desc>lat.=55.905079, lon.=26.512878, Alt.=89.735413m. Speed=17.784000m/h.</desc>
<speed>4.940000</speed>
</trkpt>
<trkpt lat="55.905033" lon="26.512903">
<ele>87.311584</ele>
<time>2010-08-29T18:04:19Z</time>
<desc>lat.=55.905033, lon.=26.512903, Alt.=87.311584m. Speed=17.388000m/h.</desc>
<speed>4.830000</speed>
</trkpt>
<trkpt lat="55.904995" lon="26.512918">
<ele>87.335022</ele>
<time>2010-08-29T18:04:20Z</time>
<desc>lat.=55.904995, lon.=26.512918, Alt.=87.335022m. Speed=17.172001m/h.</desc>
<speed>4.770000</speed>
</trkpt>
<trkpt lat="55.904953" lon="26.512928">
<ele>86.364319</ele>
<time>2010-08-29T18:04:21Z</time>
<desc>lat.=55.904953, lon.=26.512928, Alt.=86.364319m. Speed=18.684000m/h.</desc>
<speed>5.190000</speed>
</trkpt>
<trkpt lat="55.904915" lon="26.512943">
<ele>88.930725</ele>
<time>2010-08-29T18:04:22Z</time>
<desc>lat.=55.904915, lon.=26.512943, Alt.=88.930725m. Speed=18.288000m/h.</desc>
<speed>5.080000</speed>
</trkpt>
<trkpt lat="55.904869" lon="26.512960">
<ele>90.444397</ele>
<time>2010-08-29T18:04:23Z</time>
<desc>lat.=55.904869, lon.=26.512960, Alt.=90.444397m. Speed=17.964001m/h.</desc>
<speed>4.990000</speed>
</trkpt>
<trkpt lat="55.904827" lon="26.512987">
<ele>90.956116</ele>
<time>2010-08-29T18:04:24Z</time>
<desc>lat.=55.904827, lon.=26.512987, Alt.=90.956116m. Speed=18.936001m/h.</desc>
<speed>5.260000</speed>
</trkpt>
<trkpt lat="55.904781" lon="26.513016">
<ele>90.657288</ele>
<time>2010-08-29T18:04:25Z</time>
<desc>lat.=55.904781, lon.=26.513016, Alt.=90.657288m. Speed=19.440001m/h.</desc>
<speed>5.400000</speed>
</trkpt>
<trkpt lat="55.904739" lon="26.513041">
<ele>91.210022</ele>
<time>2010-08-29T18:04:26Z</time>
<desc>lat.=55.904739, lon.=26.513041, Alt.=91.210022m. Speed=17.820000m/h.</desc>
<speed>4.950000</speed>
</trkpt>
<trkpt lat="55.904694" lon="26.513063">
<ele>90.327209</ele>
<time>2010-08-29T18:04:27Z</time>
<desc>lat.=55.904694, lon.=26.513063, Alt.=90.327209m. Speed=17.459999m/h.</desc>
<speed>4.850000</speed>
</trkpt>
<trkpt lat="55.904648" lon="26.513092">
<ele>89.897522</ele>
<time>2010-08-29T18:04:28Z</time>
<desc>lat.=55.904648, lon.=26.513092, Alt.=89.897522m. Speed=19.548000m/h.</desc>
<speed>5.430000</speed>
</trkpt>
<trkpt lat="55.904602" lon="26.513105">
<ele>86.354553</ele>
<time>2010-08-29T18:04:29Z</time>
<desc>lat.=55.904602, lon.=26.513105, Alt.=86.354553m. Speed=17.747999m/h.</desc>
<speed>4.930000</speed>
</trkpt>
<trkpt lat="55.904552" lon="26.513134">
<ele>86.227600</ele>
<time>2010-08-29T18:04:30Z</time>
<desc>lat.=55.904552, lon.=26.513134, Alt.=86.227600m. Speed=19.548000m/h.</desc>
<speed>5.430000</speed>
</trkpt>
<trkpt lat="55.904507" lon="26.513163">
<ele>85.926819</ele>
<time>2010-08-29T18:04:31Z</time>
<desc>lat.=55.904507, lon.=26.513163, Alt.=85.926819m. Speed=19.980000m/h.</desc>
<speed>5.550000</speed>
</trkpt>
<trkpt lat="55.904457" lon="26.513191">
<ele>86.118225</ele>
<time>2010-08-29T18:04:32Z</time>
<desc>lat.=55.904457, lon.=26.513191, Alt.=86.118225m. Speed=21.096001m/h.</desc>
<speed>5.860000</speed>
</trkpt>
<trkpt lat="55.904400" lon="26.513218">
<ele>86.348694</ele>
<time>2010-08-29T18:04:33Z</time>
<desc>lat.=55.904400, lon.=26.513218, Alt.=86.348694m. Speed=20.160000m/h.</desc>
<speed>5.600000</speed>
</trkpt>
<trkpt lat="55.904358" lon="26.513231">
<ele>86.036194</ele>
<time>2010-08-29T18:04:34Z</time>
<desc>lat.=55.904358, lon.=26.513231, Alt.=86.036194m. Speed=17.892000m/h.</desc>
<speed>4.970000</speed>
</trkpt>
<trkpt lat="55.904312" lon="26.513237">
<ele>85.952209</ele>
<time>2010-08-29T18:04:35Z</time>
<desc>lat.=55.904312, lon.=26.513237, Alt.=85.952209m. Speed=18.396000m/h.</desc>
<speed>5.110000</speed>
</trkpt>
<trkpt lat="55.904266" lon="26.513258">
<ele>86.405334</ele>
<time>2010-08-29T18:04:36Z</time>
<desc>lat.=55.904266, lon.=26.513258, Alt.=86.405334m. Speed=18.360001m/h.</desc>
<speed>5.100000</speed>
</trkpt>
<trkpt lat="55.904224" lon="26.513290">
<ele>86.575256</ele>
<time>2010-08-29T18:04:37Z</time>
<desc>lat.=55.904224, lon.=26.513290, Alt.=86.575256m. Speed=18.180000m/h.</desc>
<speed>5.050000</speed>
</trkpt>
<trkpt lat="55.904179" lon="26.513308">
<ele>86.682678</ele>
<time>2010-08-29T18:04:38Z</time>
<desc>lat.=55.904179, lon.=26.513308, Alt.=86.682678m. Speed=18.323999m/h.</desc>
<speed>5.090000</speed>
</trkpt>
<trkpt lat="55.904140" lon="26.513330">
<ele>86.743225</ele>
<time>2010-08-29T18:04:39Z</time>
<desc>lat.=55.904140, lon.=26.513330, Alt.=86.743225m. Speed=19.224001m/h.</desc>
<speed>5.340000</speed>
</trkpt>
<trkpt lat="55.904099" lon="26.513361">
<ele>86.821350</ele>
<time>2010-08-29T18:04:40Z</time>
<desc>lat.=55.904099, lon.=26.513361, Alt.=86.821350m. Speed=17.784000m/h.</desc>
<speed>4.940000</speed>
</trkpt>
<trkpt lat="55.904053" lon="26.513386">
<ele>86.854553</ele>
<time>2010-08-29T18:04:41Z</time>
<desc>lat.=55.904053, lon.=26.513386, Alt.=86.854553m. Speed=18.108000m/h.</desc>
<speed>5.030000</speed>
</trkpt>
<trkpt lat="55.904011" lon="26.513407">
<ele>86.608459</ele>
<time>2010-08-29T18:04:42Z</time>
<desc>lat.=55.904011, lon.=26.513407, Alt.=86.608459m. Speed=16.236000m/h.</desc>
<speed>4.510000</speed>
</trkpt>
<trkpt lat="55.903976" lon="26.513424">
<ele>87.698303</ele>
<time>2010-08-29T18:04:43Z</time>
<desc>lat.=55.903976, lon.=26.513424, Alt.=87.698303m. Speed=15.300000m/h.</desc>
<speed>4.250000</speed>
</trkpt>
<trkpt lat="55.903946" lon="26.513435">
<ele>89.090881</ele>
<time>2010-08-29T18:04:44Z</time>
<desc>lat.=55.903946, lon.=26.513435, Alt.=89.090881m. Speed=15.984000m/h.</desc>
<speed>4.440000</speed>
</trkpt>
<trkpt lat="55.903904" lon="26.513451">
<ele>90.504944</ele>
<time>2010-08-29T18:04:45Z</time>
<desc>lat.=55.903904, lon.=26.513451, Alt.=90.504944m. Speed=17.892000m/h.</desc>
<speed>4.970000</speed>
</trkpt>
<trkpt lat="55.903854" lon="26.513477">
<ele>89.659241</ele>
<time>2010-08-29T18:04:46Z</time>
<desc>lat.=55.903854, lon.=26.513477, Alt.=89.659241m. Speed=18.288000m/h.</desc>
<speed>5.080000</speed>
</trkpt>
<trkpt lat="55.903805" lon="26.513502">
<ele>88.762756</ele>
<time>2010-08-29T18:04:47Z</time>
<desc>lat.=55.903805, lon.=26.513502, Alt.=88.762756m. Speed=18.360001m/h.</desc>
<speed>5.100000</speed>
</trkpt>
<trkpt lat="55.903763" lon="26.513514">
<ele>89.083069</ele>
<time>2010-08-29T18:04:48Z</time>
<desc>lat.=55.903763, lon.=26.513514, Alt.=89.083069m. Speed=16.524000m/h.</desc>
<speed>4.590000</speed>
</trkpt>
<trkpt lat="55.903721" lon="26.513529">
<ele>89.567444</ele>
<time>2010-08-29T18:04:49Z</time>
<desc>lat.=55.903721, lon.=26.513529, Alt.=89.567444m. Speed=16.848000m/h.</desc>
<speed>4.680000</speed>
</trkpt>
<trkpt lat="55.903675" lon="26.513533">
<ele>89.934631</ele>
<time>2010-08-29T18:04:50Z</time>
<desc>lat.=55.903675, lon.=26.513533, Alt.=89.934631m. Speed=17.459999m/h.</desc>
<speed>4.850000</speed>
</trkpt>
<trkpt lat="55.903633" lon="26.513540">
<ele>90.116272</ele>
<time>2010-08-29T18:04:51Z</time>
<desc>lat.=55.903633, lon.=26.513540, Alt.=90.116272m. Speed=15.516000m/h.</desc>
<speed>4.310000</speed>
</trkpt>
<trkpt lat="55.903595" lon="26.513546">
<ele>90.516663</ele>
<time>2010-08-29T18:04:52Z</time>
<desc>lat.=55.903595, lon.=26.513546, Alt.=90.516663m. Speed=15.660000m/h.</desc>
<speed>4.350000</speed>
</trkpt>
<trkpt lat="55.903553" lon="26.513557">
<ele>90.768616</ele>
<time>2010-08-29T18:04:53Z</time>
<desc>lat.=55.903553, lon.=26.513557, Alt.=90.768616m. Speed=16.632000m/h.</desc>
<speed>4.620000</speed>
</trkpt>
<trkpt lat="55.903511" lon="26.513569">
<ele>90.325256</ele>
<time>2010-08-29T18:04:54Z</time>
<desc>lat.=55.903511, lon.=26.513569, Alt.=90.325256m. Speed=16.200001m/h.</desc>
<speed>4.500000</speed>
</trkpt>
<trkpt lat="55.903473" lon="26.513580">
<ele>90.614319</ele>
<time>2010-08-29T18:04:55Z</time>
<desc>lat.=55.903473, lon.=26.513580, Alt.=90.614319m. Speed=15.408000m/h.</desc>
<speed>4.280000</speed>
</trkpt>
<trkpt lat="55.903427" lon="26.513594">
<ele>90.237366</ele>
<time>2010-08-29T18:04:56Z</time>
<desc>lat.=55.903427, lon.=26.513594, Alt.=90.237366m. Speed=15.156000m/h.</desc>
<speed>4.210000</speed>
</trkpt>
<trkpt lat="55.903393" lon="26.513607">
<ele>90.085022</ele>
<time>2010-08-29T18:04:57Z</time>
<desc>lat.=55.903393, lon.=26.513607, Alt.=90.085022m. Speed=14.220000m/h.</desc>
<speed>3.950000</speed>
</trkpt>
<trkpt lat="55.903351" lon="26.513620">
<ele>88.133850</ele>
<time>2010-08-29T18:04:58Z</time>
<desc>lat.=55.903351, lon.=26.513620, Alt.=88.133850m. Speed=13.824000m/h.</desc>
<speed>3.840000</speed>
</trkpt>
<trkpt lat="55.903316" lon="26.513624">
<ele>88.333069</ele>
<time>2010-08-29T18:04:59Z</time>
<desc>lat.=55.903316, lon.=26.513624, Alt.=88.333069m. Speed=13.464000m/h.</desc>
<speed>3.740000</speed>
</trkpt>
<trkpt lat="55.903278" lon="26.513628">
<ele>88.497131</ele>
<time>2010-08-29T18:05:00Z</time>
<desc>lat.=55.903278, lon.=26.513628, Alt.=88.497131m. Speed=13.680000m/h.</desc>
<speed>3.800000</speed>
</trkpt>
<trkpt lat="55.903244" lon="26.513632">
<ele>88.954163</ele>
<time>2010-08-29T18:05:01Z</time>
<desc>lat.=55.903244, lon.=26.513632, Alt.=88.954163m. Speed=13.968000m/h.</desc>
<speed>3.880000</speed>
</trkpt>
<trkpt lat="55.903210" lon="26.513643">
<ele>89.077209</ele>
<time>2010-08-29T18:05:02Z</time>
<desc>lat.=55.903210, lon.=26.513643, Alt.=89.077209m. Speed=13.752000m/h.</desc>
<speed>3.820000</speed>
</trkpt>
<trkpt lat="55.903168" lon="26.513659">
<ele>88.555725</ele>
<time>2010-08-29T18:05:03Z</time>
<desc>lat.=55.903168, lon.=26.513659, Alt.=88.555725m. Speed=15.300000m/h.</desc>
<speed>4.250000</speed>
</trkpt>
<trkpt lat="55.903126" lon="26.513676">
<ele>88.667053</ele>
<time>2010-08-29T18:05:04Z</time>
<desc>lat.=55.903126, lon.=26.513676, Alt.=88.667053m. Speed=15.732000m/h.</desc>
<speed>4.370000</speed>
</trkpt>
<trkpt lat="55.903088" lon="26.513691">
<ele>88.877991</ele>
<time>2010-08-29T18:05:05Z</time>
<desc>lat.=55.903088, lon.=26.513691, Alt.=88.877991m. Speed=16.524000m/h.</desc>
<speed>4.590000</speed>
</trkpt>
<trkpt lat="55.903046" lon="26.513706">
<ele>88.622131</ele>
<time>2010-08-29T18:05:06Z</time>
<desc>lat.=55.903046, lon.=26.513706, Alt.=88.622131m. Speed=17.568001m/h.</desc>
<speed>4.880000</speed>
</trkpt>
<trkpt lat="55.902996" lon="26.513716">
<ele>88.016663</ele>
<time>2010-08-29T18:05:07Z</time>
<desc>lat.=55.902996, lon.=26.513716, Alt.=88.016663m. Speed=18.792000m/h.</desc>
<speed>5.220000</speed>
</trkpt>
<trkpt lat="55.902946" lon="26.513725">
<ele>86.926819</ele>
<time>2010-08-29T18:05:08Z</time>
<desc>lat.=55.902946, lon.=26.513725, Alt.=86.926819m. Speed=19.799999m/h.</desc>
<speed>5.500000</speed>
</trkpt>
<trkpt lat="55.902893" lon="26.513733">
<ele>86.811584</ele>
<time>2010-08-29T18:05:09Z</time>
<desc>lat.=55.902893, lon.=26.513733, Alt.=86.811584m. Speed=20.340000m/h.</desc>
<speed>5.650000</speed>
</trkpt>
<trkpt lat="55.902843" lon="26.513737">
<ele>86.836975</ele>
<time>2010-08-29T18:05:10Z</time>
<desc>lat.=55.902843, lon.=26.513737, Alt.=86.836975m. Speed=19.799999m/h.</desc>
<speed>5.500000</speed>
</trkpt>
<trkpt lat="55.902790" lon="26.513750">
<ele>86.788147</ele>
<time>2010-08-29T18:05:11Z</time>
<desc>lat.=55.902790, lon.=26.513750, Alt.=86.788147m. Speed=21.275999m/h.</desc>
<speed>5.910000</speed>
</trkpt>
<trkpt lat="55.902740" lon="26.513758">
<ele>86.794006</ele>
<time>2010-08-29T18:05:12Z</time>
<desc>lat.=55.902740, lon.=26.513758, Alt.=86.794006m. Speed=17.568001m/h.</desc>
<speed>4.880000</speed>
</trkpt>
<trkpt lat="55.902691" lon="26.513750">
<ele>86.141663</ele>
<time>2010-08-29T18:05:13Z</time>
<desc>lat.=55.902691, lon.=26.513750, Alt.=86.141663m. Speed=22.320000m/h.</desc>
<speed>6.200000</speed>
</trkpt>
<trkpt lat="55.902637" lon="26.513760">
<ele>86.186584</ele>
<time>2010-08-29T18:05:14Z</time>
<desc>lat.=55.902637, lon.=26.513760, Alt.=86.186584m. Speed=22.427999m/h.</desc>
<speed>6.230000</speed>
</trkpt>
<trkpt lat="55.902580" lon="26.513777">
<ele>85.711975</ele>
<time>2010-08-29T18:05:15Z</time>
<desc>lat.=55.902580, lon.=26.513777, Alt.=85.711975m. Speed=23.076000m/h.</desc>
<speed>6.410000</speed>
</trkpt>
<trkpt lat="55.902523" lon="26.513796">
<ele>85.598694</ele>
<time>2010-08-29T18:05:16Z</time>
<desc>lat.=55.902523, lon.=26.513796, Alt.=85.598694m. Speed=23.219999m/h.</desc>
<speed>6.450000</speed>
</trkpt>
<trkpt lat="55.902462" lon="26.513809">
<ele>85.223694</ele>
<time>2010-08-29T18:05:17Z</time>
<desc>lat.=55.902462, lon.=26.513809, Alt.=85.223694m. Speed=23.652000m/h.</desc>
<speed>6.570000</speed>
</trkpt>
<trkpt lat="55.902405" lon="26.513824">
<ele>84.710022</ele>
<time>2010-08-29T18:05:18Z</time>
<desc>lat.=55.902405, lon.=26.513824, Alt.=84.710022m. Speed=24.048000m/h.</desc>
<speed>6.680000</speed>
</trkpt>
<trkpt lat="55.902348" lon="26.513847">
<ele>85.032288</ele>
<time>2010-08-29T18:05:19Z</time>
<desc>lat.=55.902348, lon.=26.513847, Alt.=85.032288m. Speed=22.968000m/h.</desc>
<speed>6.380000</speed>
</trkpt>
<trkpt lat="55.902290" lon="26.513887">
<ele>85.303772</ele>
<time>2010-08-29T18:05:20Z</time>
<desc>lat.=55.902290, lon.=26.513887, Alt.=85.303772m. Speed=24.336000m/h.</desc>
<speed>6.760000</speed>
</trkpt>
<trkpt lat="55.902237" lon="26.513941">
<ele>85.651428</ele>
<time>2010-08-29T18:05:21Z</time>
<desc>lat.=55.902237, lon.=26.513941, Alt.=85.651428m. Speed=24.444000m/h.</desc>
<speed>6.790000</speed>
</trkpt>
<trkpt lat="55.902180" lon="26.513990">
<ele>85.920959</ele>
<time>2010-08-29T18:05:22Z</time>
<desc>lat.=55.902180, lon.=26.513990, Alt.=85.920959m. Speed=24.587999m/h.</desc>
<speed>6.830000</speed>
</trkpt>
<trkpt lat="55.902126" lon="26.514050">
<ele>86.600647</ele>
<time>2010-08-29T18:05:23Z</time>
<desc>lat.=55.902126, lon.=26.514050, Alt.=86.600647m. Speed=26.063999m/h.</desc>
<speed>7.240000</speed>
</trkpt>
<trkpt lat="55.902073" lon="26.514118">
<ele>86.608459</ele>
<time>2010-08-29T18:05:24Z</time>
<desc>lat.=55.902073, lon.=26.514118, Alt.=86.608459m. Speed=25.920000m/h.</desc>
<speed>7.200000</speed>
</trkpt>
<trkpt lat="55.902020" lon="26.514187">
<ele>86.391663</ele>
<time>2010-08-29T18:05:25Z</time>
<desc>lat.=55.902020, lon.=26.514187, Alt.=86.391663m. Speed=27.323999m/h.</desc>
<speed>7.590000</speed>
</trkpt>
<trkpt lat="55.901966" lon="26.514261">
<ele>85.885803</ele>
<time>2010-08-29T18:05:26Z</time>
<desc>lat.=55.901966, lon.=26.514261, Alt.=85.885803m. Speed=28.224001m/h.</desc>
<speed>7.840000</speed>
</trkpt>
<trkpt lat="55.901913" lon="26.514343">
<ele>85.614319</ele>
<time>2010-08-29T18:05:27Z</time>
<desc>lat.=55.901913, lon.=26.514343, Alt.=85.614319m. Speed=28.584000m/h.</desc>
<speed>7.940000</speed>
</trkpt>
<trkpt lat="55.901855" lon="26.514431">
<ele>85.663147</ele>
<time>2010-08-29T18:05:28Z</time>
<desc>lat.=55.901855, lon.=26.514431, Alt.=85.663147m. Speed=30.167999m/h.</desc>
<speed>8.380000</speed>
</trkpt>
<trkpt lat="55.901798" lon="26.514523">
<ele>84.571350</ele>
<time>2010-08-29T18:05:29Z</time>
<desc>lat.=55.901798, lon.=26.514523, Alt.=84.571350m. Speed=28.007999m/h.</desc>
<speed>7.780000</speed>
</trkpt>
<trkpt lat="55.901741" lon="26.514606">
<ele>84.018616</ele>
<time>2010-08-29T18:05:30Z</time>
<desc>lat.=55.901741, lon.=26.514606, Alt.=84.018616m. Speed=29.736000m/h.</desc>
<speed>8.260000</speed>
</trkpt>
<trkpt lat="55.901680" lon="26.514688">
<ele>83.264709</ele>
<time>2010-08-29T18:05:31Z</time>
<desc>lat.=55.901680, lon.=26.514688, Alt.=83.264709m. Speed=28.728001m/h.</desc>
<speed>7.980000</speed>
</trkpt>
<trkpt lat="55.901627" lon="26.514757">
<ele>84.534241</ele>
<time>2010-08-29T18:05:32Z</time>
<desc>lat.=55.901627, lon.=26.514757, Alt.=84.534241m. Speed=29.591999m/h.</desc>
<speed>8.220000</speed>
</trkpt>
<trkpt lat="55.901569" lon="26.514837">
<ele>85.008850</ele>
<time>2010-08-29T18:05:33Z</time>
<desc>lat.=55.901569, lon.=26.514837, Alt.=85.008850m. Speed=28.548000m/h.</desc>
<speed>7.930000</speed>
</trkpt>
<trkpt lat="55.901512" lon="26.514912">
<ele>85.219788</ele>
<time>2010-08-29T18:05:34Z</time>
<desc>lat.=55.901512, lon.=26.514912, Alt.=85.219788m. Speed=28.260000m/h.</desc>
<speed>7.850000</speed>
</trkpt>
<trkpt lat="55.901459" lon="26.514975">
<ele>85.774475</ele>
<time>2010-08-29T18:05:35Z</time>
<desc>lat.=55.901459, lon.=26.514975, Alt.=85.774475m. Speed=27.900000m/h.</desc>
<speed>7.750000</speed>
</trkpt>
<trkpt lat="55.901402" lon="26.515051">
<ele>85.614319</ele>
<time>2010-08-29T18:05:36Z</time>
<desc>lat.=55.901402, lon.=26.515051, Alt.=85.614319m. Speed=27.072001m/h.</desc>
<speed>7.520000</speed>
</trkpt>
<trkpt lat="55.901344" lon="26.515129">
<ele>86.272522</ele>
<time>2010-08-29T18:05:37Z</time>
<desc>lat.=55.901344, lon.=26.515129, Alt.=86.272522m. Speed=26.964001m/h.</desc>
<speed>7.490000</speed>
</trkpt>
<trkpt lat="55.901291" lon="26.515203">
<ele>86.985413</ele>
<time>2010-08-29T18:05:38Z</time>
<desc>lat.=55.901291, lon.=26.515203, Alt.=86.985413m. Speed=26.568001m/h.</desc>
<speed>7.380000</speed>
</trkpt>
<trkpt lat="55.901237" lon="26.515278">
<ele>86.317444</ele>
<time>2010-08-29T18:05:39Z</time>
<desc>lat.=55.901237, lon.=26.515278, Alt.=86.317444m. Speed=26.532000m/h.</desc>
<speed>7.370000</speed>
</trkpt>
<trkpt lat="55.901180" lon="26.515345">
<ele>86.669006</ele>
<time>2010-08-29T18:05:40Z</time>
<desc>lat.=55.901180, lon.=26.515345, Alt.=86.669006m. Speed=25.740000m/h.</desc>
<speed>7.150000</speed>
</trkpt>
<trkpt lat="55.901127" lon="26.515411">
<ele>86.290100</ele>
<time>2010-08-29T18:05:41Z</time>
<desc>lat.=55.901127, lon.=26.515411, Alt.=86.290100m. Speed=25.020000m/h.</desc>
<speed>6.950000</speed>
</trkpt>
<trkpt lat="55.901077" lon="26.515476">
<ele>86.270569</ele>
<time>2010-08-29T18:05:42Z</time>
<desc>lat.=55.901077, lon.=26.515476, Alt.=86.270569m. Speed=22.896000m/h.</desc>
<speed>6.360000</speed>
</trkpt>
<trkpt lat="55.901024" lon="26.515537">
<ele>84.520569</ele>
<time>2010-08-29T18:05:43Z</time>
<desc>lat.=55.901024, lon.=26.515537, Alt.=84.520569m. Speed=23.400000m/h.</desc>
<speed>6.500000</speed>
</trkpt>
<trkpt lat="55.900978" lon="26.515594">
<ele>85.028381</ele>
<time>2010-08-29T18:05:44Z</time>
<desc>lat.=55.900978, lon.=26.515594, Alt.=85.028381m. Speed=22.752001m/h.</desc>
<speed>6.320000</speed>
</trkpt>
<trkpt lat="55.900936" lon="26.515648">
<ele>85.358459</ele>
<time>2010-08-29T18:05:45Z</time>
<desc>lat.=55.900936, lon.=26.515648, Alt.=85.358459m. Speed=21.743999m/h.</desc>
<speed>6.040000</speed>
</trkpt>
<trkpt lat="55.900894" lon="26.515701">
<ele>85.389709</ele>
<time>2010-08-29T18:05:46Z</time>
<desc>lat.=55.900894, lon.=26.515701, Alt.=85.389709m. Speed=20.771999m/h.</desc>
<speed>5.770000</speed>
</trkpt>
<trkpt lat="55.900852" lon="26.515759">
<ele>85.417053</ele>
<time>2010-08-29T18:05:47Z</time>
<desc>lat.=55.900852, lon.=26.515759, Alt.=85.417053m. Speed=20.087999m/h.</desc>
<speed>5.580000</speed>
</trkpt>
<trkpt lat="55.900810" lon="26.515812">
<ele>85.458069</ele>
<time>2010-08-29T18:05:48Z</time>
<desc>lat.=55.900810, lon.=26.515812, Alt.=85.458069m. Speed=20.844000m/h.</desc>
<speed>5.790000</speed>
</trkpt>
<trkpt lat="55.900772" lon="26.515860">
<ele>85.745178</ele>
<time>2010-08-29T18:05:49Z</time>
<desc>lat.=55.900772, lon.=26.515860, Alt.=85.745178m. Speed=19.656000m/h.</desc>
<speed>5.460000</speed>
</trkpt>
<trkpt lat="55.900730" lon="26.515911">
<ele>86.401428</ele>
<time>2010-08-29T18:05:50Z</time>
<desc>lat.=55.900730, lon.=26.515911, Alt.=86.401428m. Speed=21.455999m/h.</desc>
<speed>5.960000</speed>
</trkpt>
<trkpt lat="55.900684" lon="26.515957">
<ele>85.991272</ele>
<time>2010-08-29T18:05:51Z</time>
<desc>lat.=55.900684, lon.=26.515957, Alt.=85.991272m. Speed=22.464001m/h.</desc>
<speed>6.240000</speed>
</trkpt>
<trkpt lat="55.900639" lon="26.516018">
<ele>85.823303</ele>
<time>2010-08-29T18:05:52Z</time>
<desc>lat.=55.900639, lon.=26.516018, Alt.=85.823303m. Speed=21.996000m/h.</desc>
<speed>6.110000</speed>
</trkpt>
<trkpt lat="55.900600" lon="26.516071">
<ele>85.977600</ele>
<time>2010-08-29T18:05:53Z</time>
<desc>lat.=55.900600, lon.=26.516071, Alt.=85.977600m. Speed=18.216000m/h.</desc>
<speed>5.060000</speed>
</trkpt>
<trkpt lat="55.900562" lon="26.516111">
<ele>85.710022</ele>
<time>2010-08-29T18:05:54Z</time>
<desc>lat.=55.900562, lon.=26.516111, Alt.=85.710022m. Speed=20.016001m/h.</desc>
<speed>5.560000</speed>
</trkpt>
<trkpt lat="55.900524" lon="26.516159">
<ele>85.651428</ele>
<time>2010-08-29T18:05:55Z</time>
<desc>lat.=55.900524, lon.=26.516159, Alt.=85.651428m. Speed=19.188000m/h.</desc>
<speed>5.330000</speed>
</trkpt>
<trkpt lat="55.900482" lon="26.516205">
<ele>85.909241</ele>
<time>2010-08-29T18:05:56Z</time>
<desc>lat.=55.900482, lon.=26.516205, Alt.=85.909241m. Speed=20.771999m/h.</desc>
<speed>5.770000</speed>
</trkpt>
<trkpt lat="55.900440" lon="26.516251">
<ele>85.829163</ele>
<time>2010-08-29T18:05:57Z</time>
<desc>lat.=55.900440, lon.=26.516251, Alt.=85.829163m. Speed=19.764000m/h.</desc>
<speed>5.490000</speed>
</trkpt>
<trkpt lat="55.900394" lon="26.516304">
<ele>85.495178</ele>
<time>2010-08-29T18:05:58Z</time>
<desc>lat.=55.900394, lon.=26.516304, Alt.=85.495178m. Speed=18.360001m/h.</desc>
<speed>5.100000</speed>
</trkpt>
<trkpt lat="55.900352" lon="26.516363">
<ele>85.086975</ele>
<time>2010-08-29T18:05:59Z</time>
<desc>lat.=55.900352, lon.=26.516363, Alt.=85.086975m. Speed=20.808001m/h.</desc>
<speed>5.780000</speed>
</trkpt>
<trkpt lat="55.900318" lon="26.516417">
<ele>85.454163</ele>
<time>2010-08-29T18:06:00Z</time>
<desc>lat.=55.900318, lon.=26.516417, Alt.=85.454163m. Speed=20.160000m/h.</desc>
<speed>5.600000</speed>
</trkpt>
<trkpt lat="55.900276" lon="26.516472">
<ele>85.848694</ele>
<time>2010-08-29T18:06:01Z</time>
<desc>lat.=55.900276, lon.=26.516472, Alt.=85.848694m. Speed=20.448000m/h.</desc>
<speed>5.680000</speed>
</trkpt>
<trkpt lat="55.900238" lon="26.516527">
<ele>86.706116</ele>
<time>2010-08-29T18:06:02Z</time>
<desc>lat.=55.900238, lon.=26.516527, Alt.=86.706116m. Speed=19.799999m/h.</desc>
<speed>5.500000</speed>
</trkpt>
<trkpt lat="55.900192" lon="26.516579">
<ele>85.973694</ele>
<time>2010-08-29T18:06:03Z</time>
<desc>lat.=55.900192, lon.=26.516579, Alt.=85.973694m. Speed=18.827999m/h.</desc>
<speed>5.230000</speed>
</trkpt>
<trkpt lat="55.900154" lon="26.516634">
<ele>84.700256</ele>
<time>2010-08-29T18:06:04Z</time>
<desc>lat.=55.900154, lon.=26.516634, Alt.=84.700256m. Speed=17.820000m/h.</desc>
<speed>4.950000</speed>
</trkpt>
<trkpt lat="55.900112" lon="26.516687">
<ele>83.706116</ele>
<time>2010-08-29T18:06:05Z</time>
<desc>lat.=55.900112, lon.=26.516687, Alt.=83.706116m. Speed=18.108000m/h.</desc>
<speed>5.030000</speed>
</trkpt>
<trkpt lat="55.900082" lon="26.516735">
<ele>83.674866</ele>
<time>2010-08-29T18:06:06Z</time>
<desc>lat.=55.900082, lon.=26.516735, Alt.=83.674866m. Speed=17.280001m/h.</desc>
<speed>4.800000</speed>
</trkpt>
<trkpt lat="55.900047" lon="26.516779">
<ele>84.159241</ele>
<time>2010-08-29T18:06:07Z</time>
<desc>lat.=55.900047, lon.=26.516779, Alt.=84.159241m. Speed=14.760000m/h.</desc>
<speed>4.100000</speed>
</trkpt>
<trkpt lat="55.900017" lon="26.516811">
<ele>83.510803</ele>
<time>2010-08-29T18:06:08Z</time>
<desc>lat.=55.900017, lon.=26.516811, Alt.=83.510803m. Speed=13.248000m/h.</desc>
<speed>3.680000</speed>
</trkpt>
<trkpt lat="55.899979" lon="26.516851">
<ele>83.534241</ele>
<time>2010-08-29T18:06:09Z</time>
<desc>lat.=55.899979, lon.=26.516851, Alt.=83.534241m. Speed=16.379999m/h.</desc>
<speed>4.550000</speed>
</trkpt>
<trkpt lat="55.899948" lon="26.516888">
<ele>83.510803</ele>
<time>2010-08-29T18:06:10Z</time>
<desc>lat.=55.899948, lon.=26.516888, Alt.=83.510803m. Speed=15.984000m/h.</desc>
<speed>4.440000</speed>
</trkpt>
<trkpt lat="55.899914" lon="26.516933">
<ele>83.852600</ele>
<time>2010-08-29T18:06:11Z</time>
<desc>lat.=55.899914, lon.=26.516933, Alt.=83.852600m. Speed=18.684000m/h.</desc>
<speed>5.190000</speed>
</trkpt>
<trkpt lat="55.899868" lon="26.516985">
<ele>83.333069</ele>
<time>2010-08-29T18:06:12Z</time>
<desc>lat.=55.899868, lon.=26.516985, Alt.=83.333069m. Speed=17.927999m/h.</desc>
<speed>4.980000</speed>
</trkpt>
<trkpt lat="55.899826" lon="26.517031">
<ele>82.717834</ele>
<time>2010-08-29T18:06:13Z</time>
<desc>lat.=55.899826, lon.=26.517031, Alt.=82.717834m. Speed=18.827999m/h.</desc>
<speed>5.230000</speed>
</trkpt>
<trkpt lat="55.899784" lon="26.517069">
<ele>81.393616</ele>
<time>2010-08-29T18:06:14Z</time>
<desc>lat.=55.899784, lon.=26.517069, Alt.=81.393616m. Speed=19.691999m/h.</desc>
<speed>5.470000</speed>
</trkpt>
<trkpt lat="55.899742" lon="26.517117">
<ele>80.596741</ele>
<time>2010-08-29T18:06:15Z</time>
<desc>lat.=55.899742, lon.=26.517117, Alt.=80.596741m. Speed=19.908001m/h.</desc>
<speed>5.530000</speed>
</trkpt>
<trkpt lat="55.899700" lon="26.517162">
<ele>80.772522</ele>
<time>2010-08-29T18:06:16Z</time>
<desc>lat.=55.899700, lon.=26.517162, Alt.=80.772522m. Speed=20.195999m/h.</desc>
<speed>5.610000</speed>
</trkpt>
<trkpt lat="55.899658" lon="26.517214">
<ele>80.676819</ele>
<time>2010-08-29T18:06:17Z</time>
<desc>lat.=55.899658, lon.=26.517214, Alt.=80.676819m. Speed=20.304001m/h.</desc>
<speed>5.640000</speed>
</trkpt>
<trkpt lat="55.899624" lon="26.517267">
<ele>81.071350</ele>
<time>2010-08-29T18:06:18Z</time>
<desc>lat.=55.899624, lon.=26.517267, Alt.=81.071350m. Speed=20.124001m/h.</desc>
<speed>5.590000</speed>
</trkpt>
<trkpt lat="55.899590" lon="26.517321">
<ele>81.594788</ele>
<time>2010-08-29T18:06:19Z</time>
<desc>lat.=55.899590, lon.=26.517321, Alt.=81.594788m. Speed=18.684000m/h.</desc>
<speed>5.190000</speed>
</trkpt>
<trkpt lat="55.899548" lon="26.517363">
<ele>82.710022</ele>
<time>2010-08-29T18:06:20Z</time>
<desc>lat.=55.899548, lon.=26.517363, Alt.=82.710022m. Speed=17.424000m/h.</desc>
<speed>4.840000</speed>
</trkpt>
<trkpt lat="55.899513" lon="26.517403">
<ele>83.827209</ele>
<time>2010-08-29T18:06:21Z</time>
<desc>lat.=55.899513, lon.=26.517403, Alt.=83.827209m. Speed=17.964001m/h.</desc>
<speed>4.990000</speed>
</trkpt>
<trkpt lat="55.899479" lon="26.517443">
<ele>83.602600</ele>
<time>2010-08-29T18:06:22Z</time>
<desc>lat.=55.899479, lon.=26.517443, Alt.=83.602600m. Speed=17.100000m/h.</desc>
<speed>4.750000</speed>
</trkpt>
<trkpt lat="55.899448" lon="26.517483">
<ele>86.395569</ele>
<time>2010-08-29T18:06:23Z</time>
<desc>lat.=55.899448, lon.=26.517483, Alt.=86.395569m. Speed=14.832000m/h.</desc>
<speed>4.120000</speed>
</trkpt>
<trkpt lat="55.899418" lon="26.517513">
<ele>86.137756</ele>
<time>2010-08-29T18:06:24Z</time>
<desc>lat.=55.899418, lon.=26.517513, Alt.=86.137756m. Speed=12.528000m/h.</desc>
<speed>3.480000</speed>
</trkpt>
<trkpt lat="55.899391" lon="26.517546">
<ele>85.629944</ele>
<time>2010-08-29T18:06:25Z</time>
<desc>lat.=55.899391, lon.=26.517546, Alt.=85.629944m. Speed=11.556000m/h.</desc>
<speed>3.210000</speed>
</trkpt>
<trkpt lat="55.899372" lon="26.517570">
<ele>86.073303</ele>
<time>2010-08-29T18:06:26Z</time>
<desc>lat.=55.899372, lon.=26.517570, Alt.=86.073303m. Speed=11.016000m/h.</desc>
<speed>3.060000</speed>
</trkpt>
<trkpt lat="55.899353" lon="26.517590">
<ele>86.376038</ele>
<time>2010-08-29T18:06:27Z</time>
<desc>lat.=55.899353, lon.=26.517590, Alt.=86.376038m. Speed=7.740000m/h.</desc>
<speed>2.150000</speed>
</trkpt>
<trkpt lat="55.899338" lon="26.517611">
<ele>87.731506</ele>
<time>2010-08-29T18:06:28Z</time>
<desc>lat.=55.899338, lon.=26.517611, Alt.=87.731506m. Speed=7.344000m/h.</desc>
<speed>2.040000</speed>
</trkpt>
<trkpt lat="55.899330" lon="26.517637">
<ele>88.690491</ele>
<time>2010-08-29T18:06:29Z</time>
<desc>lat.=55.899330, lon.=26.517637, Alt.=88.690491m. Speed=6.588000m/h.</desc>
<speed>1.830000</speed>
</trkpt>
<trkpt lat="55.899319" lon="26.517643">
<ele>89.360413</ele>
<time>2010-08-29T18:06:30Z</time>
<desc>lat.=55.899319, lon.=26.517643, Alt.=89.360413m. Speed=3.096000m/h.</desc>
<speed>0.860000</speed>
</trkpt>
<trkpt lat="55.899315" lon="26.517641">
<ele>90.563538</ele>
<time>2010-08-29T18:06:31Z</time>
<desc>lat.=55.899315, lon.=26.517641, Alt.=90.563538m. Speed=0.576000m/h.</desc>
<speed>0.160000</speed>
</trkpt>
<trkpt lat="55.899315" lon="26.517637">
<ele>90.928772</ele>
<time>2010-08-29T18:06:32Z</time>
<desc>lat.=55.899315, lon.=26.517637, Alt.=90.928772m. Speed=1.152000m/h.</desc>
<speed>0.320000</speed>
</trkpt>
<trkpt lat="55.899311" lon="26.517641">
<ele>91.239319</ele>
<time>2010-08-29T18:06:33Z</time>
<desc>lat.=55.899311, lon.=26.517641, Alt.=91.239319m. Speed=0.396000m/h.</desc>
<speed>0.110000</speed>
</trkpt>
<trkpt lat="55.899311" lon="26.517643">
<ele>91.395569</ele>
<time>2010-08-29T18:06:34Z</time>
<desc>lat.=55.899311, lon.=26.517643, Alt.=91.395569m. Speed=0.072000m/h.</desc>
<speed>0.020000</speed>
</trkpt>
<trkpt lat="55.899311" lon="26.517643">
<ele>91.485413</ele>
<time>2010-08-29T18:06:35Z</time>
<desc>lat.=55.899311, lon.=26.517643, Alt.=91.485413m. Speed=0.108000m/h.</desc>
<speed>0.030000</speed>
</trkpt>
<trkpt lat="55.899311" lon="26.517641">
<ele>91.526428</ele>
<time>2010-08-29T18:06:36Z</time>
<desc>lat.=55.899311, lon.=26.517641, Alt.=91.526428m. Speed=0.000000m/h.</desc>
<speed>0.000000</speed>
</trkpt>
<trkpt lat="55.899311" lon="26.517641">
<ele>91.542053</ele>
<time>2010-08-29T18:06:37Z</time>
<desc>lat.=55.899311, lon.=26.517641, Alt.=91.542053m. Speed=0.036000m/h.</desc>
<speed>0.010000</speed>
</trkpt>
<trkpt lat="55.899311" lon="26.517641">
<ele>91.512756</ele>
<time>2010-08-29T18:06:38Z</time>
<desc>lat.=55.899311, lon.=26.517641, Alt.=91.512756m. Speed=0.000000m/h.</desc>
<speed>0.000000</speed>
</trkpt>
<trkpt lat="55.899311" lon="26.517641">
<ele>91.514709</ele>
<time>2010-08-29T18:06:39Z</time>
<desc>lat.=55.899311, lon.=26.517641, Alt.=91.514709m. Speed=0.072000m/h.</desc>
<speed>0.020000</speed>
</trkpt>
<trkpt lat="55.899311" lon="26.517641">
<ele>91.514709</ele>
<time>2010-08-29T18:06:40Z</time>
<desc>lat.=55.899311, lon.=26.517641, Alt.=91.514709m. Speed=0.144000m/h.</desc>
<speed>0.040000</speed>
</trkpt>
<trkpt lat="55.899311" lon="26.517641">
<ele>91.518616</ele>
<time>2010-08-29T18:06:41Z</time>
<desc>lat.=55.899311, lon.=26.517641, Alt.=91.518616m. Speed=0.036000m/h.</desc>
<speed>0.010000</speed>
</trkpt>
<trkpt lat="55.899311" lon="26.517641">
<ele>91.563538</ele>
<time>2010-08-29T18:06:42Z</time>
<desc>lat.=55.899311, lon.=26.517641, Alt.=91.563538m. Speed=2.556000m/h.</desc>
<speed>0.710000</speed>
</trkpt>
<trkpt lat="55.899311" lon="26.517653">
<ele>91.620178</ele>
<time>2010-08-29T18:06:43Z</time>
<desc>lat.=55.899311, lon.=26.517653, Alt.=91.620178m. Speed=3.672000m/h.</desc>
<speed>1.020000</speed>
</trkpt>
<trkpt lat="55.899300" lon="26.517691">
<ele>90.413147</ele>
<time>2010-08-29T18:06:44Z</time>
<desc>lat.=55.899300, lon.=26.517691, Alt.=90.413147m. Speed=6.120000m/h.</desc>
<speed>1.700000</speed>
</trkpt>
<trkpt lat="55.899288" lon="26.517727">
<ele>90.504944</ele>
<time>2010-08-29T18:06:45Z</time>
<desc>lat.=55.899288, lon.=26.517727, Alt.=90.504944m. Speed=6.480000m/h.</desc>
<speed>1.800000</speed>
</trkpt>
<trkpt lat="55.899281" lon="26.517759">
<ele>90.583069</ele>
<time>2010-08-29T18:06:46Z</time>
<desc>lat.=55.899281, lon.=26.517759, Alt.=90.583069m. Speed=8.604000m/h.</desc>
<speed>2.390000</speed>
</trkpt>
<trkpt lat="55.899281" lon="26.517805">
<ele>90.522522</ele>
<time>2010-08-29T18:06:47Z</time>
<desc>lat.=55.899281, lon.=26.517805, Alt.=90.522522m. Speed=9.000000m/h.</desc>
<speed>2.500000</speed>
</trkpt>
<trkpt lat="55.899281" lon="26.517851">
<ele>90.661194</ele>
<time>2010-08-29T18:06:48Z</time>
<desc>lat.=55.899281, lon.=26.517851, Alt.=90.661194m. Speed=10.116000m/h.</desc>
<speed>2.810000</speed>
</trkpt>
<trkpt lat="55.899288" lon="26.517893">
<ele>90.934631</ele>
<time>2010-08-29T18:06:49Z</time>
<desc>lat.=55.899288, lon.=26.517893, Alt.=90.934631m. Speed=10.332000m/h.</desc>
<speed>2.870000</speed>
</trkpt>
<trkpt lat="55.899303" lon="26.517935">
<ele>91.016663</ele>
<time>2010-08-29T18:06:50Z</time>
<desc>lat.=55.899303, lon.=26.517935, Alt.=91.016663m. Speed=10.800000m/h.</desc>
<speed>3.000000</speed>
</trkpt>
<trkpt lat="55.899323" lon="26.517977">
<ele>91.231506</ele>
<time>2010-08-29T18:06:51Z</time>
<desc>lat.=55.899323, lon.=26.517977, Alt.=91.231506m. Speed=10.476000m/h.</desc>
<speed>2.910000</speed>
</trkpt>
<trkpt lat="55.899330" lon="26.518023">
<ele>90.094788</ele>
<time>2010-08-29T18:06:52Z</time>
<desc>lat.=55.899330, lon.=26.518023, Alt.=90.094788m. Speed=10.368000m/h.</desc>
<speed>2.880000</speed>
</trkpt>
<trkpt lat="55.899345" lon="26.518066">
<ele>89.602600</ele>
<time>2010-08-29T18:06:53Z</time>
<desc>lat.=55.899345, lon.=26.518066, Alt.=89.602600m. Speed=10.476000m/h.</desc>
<speed>2.910000</speed>
</trkpt>
<trkpt lat="55.899361" lon="26.518110">
<ele>89.362366</ele>
<time>2010-08-29T18:06:54Z</time>
<desc>lat.=55.899361, lon.=26.518110, Alt.=89.362366m. Speed=11.016000m/h.</desc>
<speed>3.060000</speed>
</trkpt>
<trkpt lat="55.899380" lon="26.518156">
<ele>89.817444</ele>
<time>2010-08-29T18:06:55Z</time>
<desc>lat.=55.899380, lon.=26.518156, Alt.=89.817444m. Speed=12.132000m/h.</desc>
<speed>3.370000</speed>
</trkpt>
<trkpt lat="55.899395" lon="26.518204">
<ele>89.405334</ele>
<time>2010-08-29T18:06:56Z</time>
<desc>lat.=55.899395, lon.=26.518204, Alt.=89.405334m. Speed=12.924000m/h.</desc>
<speed>3.590000</speed>
</trkpt>
<trkpt lat="55.899418" lon="26.518255">
<ele>90.377991</ele>
<time>2010-08-29T18:06:57Z</time>
<desc>lat.=55.899418, lon.=26.518255, Alt.=90.377991m. Speed=13.716000m/h.</desc>
<speed>3.810000</speed>
</trkpt>
<trkpt lat="55.899441" lon="26.518312">
<ele>90.782288</ele>
<time>2010-08-29T18:06:58Z</time>
<desc>lat.=55.899441, lon.=26.518312, Alt.=90.782288m. Speed=13.572000m/h.</desc>
<speed>3.770000</speed>
</trkpt>
<trkpt lat="55.899456" lon="26.518366">
<ele>90.901428</ele>
<time>2010-08-29T18:06:59Z</time>
<desc>lat.=55.899456, lon.=26.518366, Alt.=90.901428m. Speed=13.176000m/h.</desc>
<speed>3.660000</speed>
</trkpt>
<trkpt lat="55.899479" lon="26.518414">
<ele>91.198303</ele>
<time>2010-08-29T18:07:00Z</time>
<desc>lat.=55.899479, lon.=26.518414, Alt.=91.198303m. Speed=13.032000m/h.</desc>
<speed>3.620000</speed>
</trkpt>
<trkpt lat="55.899498" lon="26.518465">
<ele>91.305725</ele>
<time>2010-08-29T18:07:01Z</time>
<desc>lat.=55.899498, lon.=26.518465, Alt.=91.305725m. Speed=12.852000m/h.</desc>
<speed>3.570000</speed>
</trkpt>
<trkpt lat="55.899513" lon="26.518522">
<ele>91.491272</ele>
<time>2010-08-29T18:07:02Z</time>
<desc>lat.=55.899513, lon.=26.518522, Alt.=91.491272m. Speed=12.960000m/h.</desc>
<speed>3.600000</speed>
</trkpt>
<trkpt lat="55.899529" lon="26.518578">
<ele>91.458069</ele>
<time>2010-08-29T18:07:03Z</time>
<desc>lat.=55.899529, lon.=26.518578, Alt.=91.458069m. Speed=12.420000m/h.</desc>
<speed>3.450000</speed>
</trkpt>
<trkpt lat="55.899540" lon="26.518627">
<ele>91.325256</ele>
<time>2010-08-29T18:07:04Z</time>
<desc>lat.=55.899540, lon.=26.518627, Alt.=91.325256m. Speed=12.240000m/h.</desc>
<speed>3.400000</speed>
</trkpt>
<trkpt lat="55.899559" lon="26.518669">
<ele>90.985413</ele>
<time>2010-08-29T18:07:05Z</time>
<desc>lat.=55.899559, lon.=26.518669, Alt.=90.985413m. Speed=11.988000m/h.</desc>
<speed>3.330000</speed>
</trkpt>
<trkpt lat="55.899574" lon="26.518713">
<ele>90.815491</ele>
<time>2010-08-29T18:07:06Z</time>
<desc>lat.=55.899574, lon.=26.518713, Alt.=90.815491m. Speed=11.736000m/h.</desc>
<speed>3.260000</speed>
</trkpt>
<trkpt lat="55.899590" lon="26.518757">
<ele>90.743225</ele>
<time>2010-08-29T18:07:07Z</time>
<desc>lat.=55.899590, lon.=26.518757, Alt.=90.743225m. Speed=11.340000m/h.</desc>
<speed>3.150000</speed>
</trkpt>
<trkpt lat="55.899609" lon="26.518803">
<ele>90.420959</ele>
<time>2010-08-29T18:07:08Z</time>
<desc>lat.=55.899609, lon.=26.518803, Alt.=90.420959m. Speed=11.196000m/h.</desc>
<speed>3.110000</speed>
</trkpt>
<trkpt lat="55.899624" lon="26.518843">
<ele>90.643616</ele>
<time>2010-08-29T18:07:09Z</time>
<desc>lat.=55.899624, lon.=26.518843, Alt.=90.643616m. Speed=10.872000m/h.</desc>
<speed>3.020000</speed>
</trkpt>
<trkpt lat="55.899639" lon="26.518888">
<ele>90.731506</ele>
<time>2010-08-29T18:07:10Z</time>
<desc>lat.=55.899639, lon.=26.518888, Alt.=90.731506m. Speed=10.764000m/h.</desc>
<speed>2.990000</speed>
</trkpt>
<trkpt lat="55.899654" lon="26.518929">
<ele>90.674866</ele>
<time>2010-08-29T18:07:11Z</time>
<desc>lat.=55.899654, lon.=26.518929, Alt.=90.674866m. Speed=10.188000m/h.</desc>
<speed>2.830000</speed>
</trkpt>
<trkpt lat="55.899670" lon="26.518961">
<ele>90.592834</ele>
<time>2010-08-29T18:07:12Z</time>
<desc>lat.=55.899670, lon.=26.518961, Alt.=90.592834m. Speed=10.224000m/h.</desc>
<speed>2.840000</speed>
</trkpt>
<trkpt lat="55.899685" lon="26.518993">
<ele>90.458069</ele>
<time>2010-08-29T18:07:13Z</time>
<desc>lat.=55.899685, lon.=26.518993, Alt.=90.458069m. Speed=9.900000m/h.</desc>
<speed>2.750000</speed>
</trkpt>
<trkpt lat="55.899696" lon="26.519028">
<ele>89.922913</ele>
<time>2010-08-29T18:07:14Z</time>
<desc>lat.=55.899696, lon.=26.519028, Alt.=89.922913m. Speed=9.684000m/h.</desc>
<speed>2.690000</speed>
</trkpt>
<trkpt lat="55.899712" lon="26.519062">
<ele>89.758850</ele>
<time>2010-08-29T18:07:15Z</time>
<desc>lat.=55.899712, lon.=26.519062, Alt.=89.758850m. Speed=9.216000m/h.</desc>
<speed>2.560000</speed>
</trkpt>
<trkpt lat="55.899723" lon="26.519102">
<ele>89.655334</ele>
<time>2010-08-29T18:07:16Z</time>
<desc>lat.=55.899723, lon.=26.519102, Alt.=89.655334m. Speed=9.108000m/h.</desc>
<speed>2.530000</speed>
</trkpt>
<trkpt lat="55.899738" lon="26.519133">
<ele>89.917053</ele>
<time>2010-08-29T18:07:17Z</time>
<desc>lat.=55.899738, lon.=26.519133, Alt.=89.917053m. Speed=10.224000m/h.</desc>
<speed>2.840000</speed>
</trkpt>
<trkpt lat="55.899757" lon="26.519167">
<ele>90.040100</ele>
<time>2010-08-29T18:07:18Z</time>
<desc>lat.=55.899757, lon.=26.519167, Alt.=90.040100m. Speed=11.808000m/h.</desc>
<speed>3.280000</speed>
</trkpt>
<trkpt lat="55.899776" lon="26.519209">
<ele>90.223694</ele>
<time>2010-08-29T18:07:19Z</time>
<desc>lat.=55.899776, lon.=26.519209, Alt.=90.223694m. Speed=12.708000m/h.</desc>
<speed>3.530000</speed>
</trkpt>
<trkpt lat="55.899796" lon="26.519255">
<ele>90.356506</ele>
<time>2010-08-29T18:07:20Z</time>
<desc>lat.=55.899796, lon.=26.519255, Alt.=90.356506m. Speed=13.248000m/h.</desc>
<speed>3.680000</speed>
</trkpt>
<trkpt lat="55.899811" lon="26.519304">
<ele>90.022522</ele>
<time>2010-08-29T18:07:21Z</time>
<desc>lat.=55.899811, lon.=26.519304, Alt.=90.022522m. Speed=13.752000m/h.</desc>
<speed>3.820000</speed>
</trkpt>
<trkpt lat="55.899822" lon="26.519361">
<ele>89.467834</ele>
<time>2010-08-29T18:07:22Z</time>
<desc>lat.=55.899822, lon.=26.519361, Alt.=89.467834m. Speed=13.860000m/h.</desc>
<speed>3.850000</speed>
</trkpt>
<trkpt lat="55.899837" lon="26.519415">
<ele>89.686584</ele>
<time>2010-08-29T18:07:23Z</time>
<desc>lat.=55.899837, lon.=26.519415, Alt.=89.686584m. Speed=14.292000m/h.</desc>
<speed>3.970000</speed>
</trkpt>
<trkpt lat="55.899860" lon="26.519468">
<ele>89.838928</ele>
<time>2010-08-29T18:07:24Z</time>
<desc>lat.=55.899860, lon.=26.519468, Alt.=89.838928m. Speed=14.652000m/h.</desc>
<speed>4.070000</speed>
</trkpt>
<trkpt lat="55.899879" lon="26.519526">
<ele>89.981506</ele>
<time>2010-08-29T18:07:25Z</time>
<desc>lat.=55.899879, lon.=26.519526, Alt.=89.981506m. Speed=15.192000m/h.</desc>
<speed>4.220000</speed>
</trkpt>
<trkpt lat="55.899902" lon="26.519583">
<ele>89.930725</ele>
<time>2010-08-29T18:07:26Z</time>
<desc>lat.=55.899902, lon.=26.519583, Alt.=89.930725m. Speed=15.156000m/h.</desc>
<speed>4.210000</speed>
</trkpt>
<trkpt lat="55.899921" lon="26.519640">
<ele>89.864319</ele>
<time>2010-08-29T18:07:27Z</time>
<desc>lat.=55.899921, lon.=26.519640, Alt.=89.864319m. Speed=14.508000m/h.</desc>
<speed>4.030000</speed>
</trkpt>
<trkpt lat="55.899948" lon="26.519682">
<ele>90.241272</ele>
<time>2010-08-29T18:07:28Z</time>
<desc>lat.=55.899948, lon.=26.519682, Alt.=90.241272m. Speed=14.040000m/h.</desc>
<speed>3.900000</speed>
</trkpt>
<trkpt lat="55.899967" lon="26.519733">
<ele>90.260803</ele>
<time>2010-08-29T18:07:29Z</time>
<desc>lat.=55.899967, lon.=26.519733, Alt.=90.260803m. Speed=13.140000m/h.</desc>
<speed>3.650000</speed>
</trkpt>
<trkpt lat="55.899982" lon="26.519787">
<ele>90.294006</ele>
<time>2010-08-29T18:07:30Z</time>
<desc>lat.=55.899982, lon.=26.519787, Alt.=90.294006m. Speed=12.924000m/h.</desc>
<speed>3.590000</speed>
</trkpt>
<trkpt lat="55.899994" lon="26.519836">
<ele>89.422913</ele>
<time>2010-08-29T18:07:31Z</time>
<desc>lat.=55.899994, lon.=26.519836, Alt.=89.422913m. Speed=12.780000m/h.</desc>
<speed>3.550000</speed>
</trkpt>
<trkpt lat="55.900021" lon="26.519880">
<ele>89.294006</ele>
<time>2010-08-29T18:07:32Z</time>
<desc>lat.=55.900021, lon.=26.519880, Alt.=89.294006m. Speed=14.868000m/h.</desc>
<speed>4.130000</speed>
</trkpt>
<trkpt lat="55.900043" lon="26.519939">
<ele>89.836975</ele>
<time>2010-08-29T18:07:33Z</time>
<desc>lat.=55.900043, lon.=26.519939, Alt.=89.836975m. Speed=15.444000m/h.</desc>
<speed>4.290000</speed>
</trkpt>
<trkpt lat="55.900066" lon="26.519999">
<ele>90.083069</ele>
<time>2010-08-29T18:07:34Z</time>
<desc>lat.=55.900066, lon.=26.519999, Alt.=90.083069m. Speed=15.732000m/h.</desc>
<speed>4.370000</speed>
</trkpt>
<trkpt lat="55.900089" lon="26.520052">
<ele>90.145569</ele>
<time>2010-08-29T18:07:35Z</time>
<desc>lat.=55.900089, lon.=26.520052, Alt.=90.145569m. Speed=15.912000m/h.</desc>
<speed>4.420000</speed>
</trkpt>
<trkpt lat="55.900116" lon="26.520107">
<ele>90.719788</ele>
<time>2010-08-29T18:07:36Z</time>
<desc>lat.=55.900116, lon.=26.520107, Alt.=90.719788m. Speed=15.768000m/h.</desc>
<speed>4.380000</speed>
</trkpt>
<trkpt lat="55.900146" lon="26.520168">
<ele>90.907288</ele>
<time>2010-08-29T18:07:37Z</time>
<desc>lat.=55.900146, lon.=26.520168, Alt.=90.907288m. Speed=17.316000m/h.</desc>
<speed>4.810000</speed>
</trkpt>
<trkpt lat="55.900173" lon="26.520231">
<ele>90.583069</ele>
<time>2010-08-29T18:07:38Z</time>
<desc>lat.=55.900173, lon.=26.520231, Alt.=90.583069m. Speed=18.396000m/h.</desc>
<speed>5.110000</speed>
</trkpt>
<trkpt lat="55.900200" lon="26.520298">
<ele>89.930725</ele>
<time>2010-08-29T18:07:39Z</time>
<desc>lat.=55.900200, lon.=26.520298, Alt.=89.930725m. Speed=18.504000m/h.</desc>
<speed>5.140000</speed>
</trkpt>
<trkpt lat="55.900227" lon="26.520363">
<ele>90.073303</ele>
<time>2010-08-29T18:07:40Z</time>
<desc>lat.=55.900227, lon.=26.520363, Alt.=90.073303m. Speed=17.927999m/h.</desc>
<speed>4.980000</speed>
</trkpt>
<trkpt lat="55.900249" lon="26.520424">
<ele>89.801819</ele>
<time>2010-08-29T18:07:41Z</time>
<desc>lat.=55.900249, lon.=26.520424, Alt.=89.801819m. Speed=16.559999m/h.</desc>
<speed>4.600000</speed>
</trkpt>
<trkpt lat="55.900276" lon="26.520483">
<ele>89.624084</ele>
<time>2010-08-29T18:07:42Z</time>
<desc>lat.=55.900276, lon.=26.520483, Alt.=89.624084m. Speed=15.912000m/h.</desc>
<speed>4.420000</speed>
</trkpt>
<trkpt lat="55.900299" lon="26.520550">
<ele>89.893616</ele>
<time>2010-08-29T18:07:43Z</time>
<desc>lat.=55.900299, lon.=26.520550, Alt.=89.893616m. Speed=18.323999m/h.</desc>
<speed>5.090000</speed>
</trkpt>
<trkpt lat="55.900322" lon="26.520617">
<ele>90.034241</ele>
<time>2010-08-29T18:07:44Z</time>
<desc>lat.=55.900322, lon.=26.520617, Alt.=90.034241m. Speed=17.100000m/h.</desc>
<speed>4.750000</speed>
</trkpt>
<trkpt lat="55.900341" lon="26.520678">
<ele>90.139709</ele>
<time>2010-08-29T18:07:45Z</time>
<desc>lat.=55.900341, lon.=26.520678, Alt.=90.139709m. Speed=17.063999m/h.</desc>
<speed>4.740000</speed>
</trkpt>
<trkpt lat="55.900368" lon="26.520739">
<ele>90.333069</ele>
<time>2010-08-29T18:07:46Z</time>
<desc>lat.=55.900368, lon.=26.520739, Alt.=90.333069m. Speed=17.280001m/h.</desc>
<speed>4.800000</speed>
</trkpt>
<trkpt lat="55.900394" lon="26.520803">
<ele>90.733459</ele>
<time>2010-08-29T18:07:47Z</time>
<desc>lat.=55.900394, lon.=26.520803, Alt.=90.733459m. Speed=17.784000m/h.</desc>
<speed>4.940000</speed>
</trkpt>
<trkpt lat="55.900417" lon="26.520861">
<ele>90.614319</ele>
<time>2010-08-29T18:07:48Z</time>
<desc>lat.=55.900417, lon.=26.520861, Alt.=90.614319m. Speed=16.955999m/h.</desc>
<speed>4.710000</speed>
</trkpt>
<trkpt lat="55.900448" lon="26.520916">
<ele>90.545959</ele>
<time>2010-08-29T18:07:49Z</time>
<desc>lat.=55.900448, lon.=26.520916, Alt.=90.545959m. Speed=16.091999m/h.</desc>
<speed>4.470000</speed>
</trkpt>
<trkpt lat="55.900471" lon="26.520969">
<ele>90.516663</ele>
<time>2010-08-29T18:07:50Z</time>
<desc>lat.=55.900471, lon.=26.520969, Alt.=90.516663m. Speed=15.120000m/h.</desc>
<speed>4.200000</speed>
</trkpt>
<trkpt lat="55.900497" lon="26.521019">
<ele>90.618225</ele>
<time>2010-08-29T18:07:51Z</time>
<desc>lat.=55.900497, lon.=26.521019, Alt.=90.618225m. Speed=14.580000m/h.</desc>
<speed>4.050000</speed>
</trkpt>
<trkpt lat="55.900520" lon="26.521069">
<ele>90.794006</ele>
<time>2010-08-29T18:07:52Z</time>
<desc>lat.=55.900520, lon.=26.521069, Alt.=90.794006m. Speed=14.220000m/h.</desc>
<speed>3.950000</speed>
</trkpt>
<trkpt lat="55.900543" lon="26.521118">
<ele>91.053772</ele>
<time>2010-08-29T18:07:53Z</time>
<desc>lat.=55.900543, lon.=26.521118, Alt.=91.053772m. Speed=13.572000m/h.</desc>
<speed>3.770000</speed>
</trkpt>
<trkpt lat="55.900562" lon="26.521170">
<ele>91.225647</ele>
<time>2010-08-29T18:07:54Z</time>
<desc>lat.=55.900562, lon.=26.521170, Alt.=91.225647m. Speed=14.904000m/h.</desc>
<speed>4.140000</speed>
</trkpt>
<trkpt lat="55.900581" lon="26.521225">
<ele>91.348694</ele>
<time>2010-08-29T18:07:55Z</time>
<desc>lat.=55.900581, lon.=26.521225, Alt.=91.348694m. Speed=15.732000m/h.</desc>
<speed>4.370000</speed>
</trkpt>
<trkpt lat="55.900600" lon="26.521282">
<ele>91.909241</ele>
<time>2010-08-29T18:07:56Z</time>
<desc>lat.=55.900600, lon.=26.521282, Alt.=91.909241m. Speed=17.712000m/h.</desc>
<speed>4.920000</speed>
</trkpt>
<trkpt lat="55.900627" lon="26.521341">
<ele>92.114319</ele>
<time>2010-08-29T18:07:57Z</time>
<desc>lat.=55.900627, lon.=26.521341, Alt.=92.114319m. Speed=16.884001m/h.</desc>
<speed>4.690000</speed>
</trkpt>
<trkpt lat="55.900654" lon="26.521400">
<ele>92.174866</ele>
<time>2010-08-29T18:07:58Z</time>
<desc>lat.=55.900654, lon.=26.521400, Alt.=92.174866m. Speed=17.172001m/h.</desc>
<speed>4.770000</speed>
</trkpt>
<trkpt lat="55.900681" lon="26.521461">
<ele>92.340881</ele>
<time>2010-08-29T18:07:59Z</time>
<desc>lat.=55.900681, lon.=26.521461, Alt.=92.340881m. Speed=17.243999m/h.</desc>
<speed>4.790000</speed>
</trkpt>
<trkpt lat="55.900707" lon="26.521523">
<ele>92.461975</ele>
<time>2010-08-29T18:08:00Z</time>
<desc>lat.=55.900707, lon.=26.521523, Alt.=92.461975m. Speed=16.884001m/h.</desc>
<speed>4.690000</speed>
</trkpt>
<trkpt lat="55.900730" lon="26.521580">
<ele>92.764709</ele>
<time>2010-08-29T18:08:01Z</time>
<desc>lat.=55.900730, lon.=26.521580, Alt.=92.764709m. Speed=16.524000m/h.</desc>
<speed>4.590000</speed>
</trkpt>
<trkpt lat="55.900753" lon="26.521637">
<ele>92.889709</ele>
<time>2010-08-29T18:08:02Z</time>
<desc>lat.=55.900753, lon.=26.521637, Alt.=92.889709m. Speed=15.732000m/h.</desc>
<speed>4.370000</speed>
</trkpt>
<trkpt lat="55.900776" lon="26.521690">
<ele>93.266663</ele>
<time>2010-08-29T18:08:03Z</time>
<desc>lat.=55.900776, lon.=26.521690, Alt.=93.266663m. Speed=13.896000m/h.</desc>
<speed>3.860000</speed>
</trkpt>
<trkpt lat="55.900799" lon="26.521734">
<ele>93.465881</ele>
<time>2010-08-29T18:08:04Z</time>
<desc>lat.=55.900799, lon.=26.521734, Alt.=93.465881m. Speed=13.716000m/h.</desc>
<speed>3.810000</speed>
</trkpt>
<trkpt lat="55.900814" lon="26.521782">
<ele>93.751038</ele>
<time>2010-08-29T18:08:05Z</time>
<desc>lat.=55.900814, lon.=26.521782, Alt.=93.751038m. Speed=11.916000m/h.</desc>
<speed>3.310000</speed>
</trkpt>
<trkpt lat="55.900829" lon="26.521824">
<ele>93.891663</ele>
<time>2010-08-29T18:08:06Z</time>
<desc>lat.=55.900829, lon.=26.521824, Alt.=93.891663m. Speed=11.160000m/h.</desc>
<speed>3.100000</speed>
</trkpt>
<trkpt lat="55.900841" lon="26.521868">
<ele>94.071350</ele>
<time>2010-08-29T18:08:07Z</time>
<desc>lat.=55.900841, lon.=26.521868, Alt.=94.071350m. Speed=10.260000m/h.</desc>
<speed>2.850000</speed>
</trkpt>
<trkpt lat="55.900856" lon="26.521904">
<ele>94.340881</ele>
<time>2010-08-29T18:08:08Z</time>
<desc>lat.=55.900856, lon.=26.521904, Alt.=94.340881m. Speed=10.080000m/h.</desc>
<speed>2.800000</speed>
</trkpt>
<trkpt lat="55.900864" lon="26.521942">
<ele>94.288147</ele>
<time>2010-08-29T18:08:09Z</time>
<desc>lat.=55.900864, lon.=26.521942, Alt.=94.288147m. Speed=9.972000m/h.</desc>
<speed>2.770000</speed>
</trkpt>
<trkpt lat="55.900867" lon="26.521982">
<ele>94.301819</ele>
<time>2010-08-29T18:08:10Z</time>
<desc>lat.=55.900867, lon.=26.521982, Alt.=94.301819m. Speed=10.332000m/h.</desc>
<speed>2.870000</speed>
</trkpt>
<trkpt lat="55.900871" lon="26.522026">
<ele>94.485413</ele>
<time>2010-08-29T18:08:11Z</time>
<desc>lat.=55.900871, lon.=26.522026, Alt.=94.485413m. Speed=9.540000m/h.</desc>
<speed>2.650000</speed>
</trkpt>
<trkpt lat="55.900875" lon="26.522062">
<ele>94.547913</ele>
<time>2010-08-29T18:08:12Z</time>
<desc>lat.=55.900875, lon.=26.522062, Alt.=94.547913m. Speed=8.028000m/h.</desc>
<speed>2.230000</speed>
</trkpt>
<trkpt lat="55.900875" lon="26.522100">
<ele>94.879944</ele>
<time>2010-08-29T18:08:13Z</time>
<desc>lat.=55.900875, lon.=26.522100, Alt.=94.879944m. Speed=9.108000m/h.</desc>
<speed>2.530000</speed>
</trkpt>
<trkpt lat="55.900879" lon="26.522144">
<ele>95.096741</ele>
<time>2010-08-29T18:08:14Z</time>
<desc>lat.=55.900879, lon.=26.522144, Alt.=95.096741m. Speed=9.828000m/h.</desc>
<speed>2.730000</speed>
</trkpt>
<trkpt lat="55.900883" lon="26.522184">
<ele>95.553772</ele>
<time>2010-08-29T18:08:15Z</time>
<desc>lat.=55.900883, lon.=26.522184, Alt.=95.553772m. Speed=9.108000m/h.</desc>
<speed>2.530000</speed>
</trkpt>
<trkpt lat="55.900887" lon="26.522228">
<ele>95.432678</ele>
<time>2010-08-29T18:08:16Z</time>
<desc>lat.=55.900887, lon.=26.522228, Alt.=95.432678m. Speed=8.424000m/h.</desc>
<speed>2.340000</speed>
</trkpt>
<trkpt lat="55.900887" lon="26.522266">
<ele>96.002991</ele>
<time>2010-08-29T18:08:17Z</time>
<desc>lat.=55.900887, lon.=26.522266, Alt.=96.002991m. Speed=8.712000m/h.</desc>
<speed>2.420000</speed>
</trkpt>
<trkpt lat="55.900887" lon="26.522306">
<ele>96.376038</ele>
<time>2010-08-29T18:08:18Z</time>
<desc>lat.=55.900887, lon.=26.522306, Alt.=96.376038m. Speed=10.296000m/h.</desc>
<speed>2.860000</speed>
</trkpt>
<trkpt lat="55.900887" lon="26.522350">
<ele>97.053772</ele>
<time>2010-08-29T18:08:19Z</time>
<desc>lat.=55.900887, lon.=26.522350, Alt.=97.053772m. Speed=8.676000m/h.</desc>
<speed>2.410000</speed>
</trkpt>
<trkpt lat="55.900887" lon="26.522392">
<ele>97.737366</ele>
<time>2010-08-29T18:08:20Z</time>
<desc>lat.=55.900887, lon.=26.522392, Alt.=97.737366m. Speed=9.252000m/h.</desc>
<speed>2.570000</speed>
</trkpt>
<trkpt lat="55.900883" lon="26.522432">
<ele>98.284241</ele>
<time>2010-08-29T18:08:21Z</time>
<desc>lat.=55.900883, lon.=26.522432, Alt.=98.284241m. Speed=12.240000m/h.</desc>
<speed>3.400000</speed>
</trkpt>
<trkpt lat="55.900890" lon="26.522476">
<ele>99.124084</ele>
<time>2010-08-29T18:08:22Z</time>
<desc>lat.=55.900890, lon.=26.522476, Alt.=99.124084m. Speed=7.704000m/h.</desc>
<speed>2.140000</speed>
</trkpt>
<trkpt lat="55.900890" lon="26.522512">
<ele>100.440491</ele>
<time>2010-08-29T18:08:23Z</time>
<desc>lat.=55.900890, lon.=26.522512, Alt.=100.440491m. Speed=9.396000m/h.</desc>
<speed>2.610000</speed>
</trkpt>
<trkpt lat="55.900890" lon="26.522551">
<ele>101.167053</ele>
<time>2010-08-29T18:08:24Z</time>
<desc>lat.=55.900890, lon.=26.522551, Alt.=101.167053m. Speed=8.892000m/h.</desc>
<speed>2.470000</speed>
</trkpt>
<trkpt lat="55.900894" lon="26.522585">
<ele>102.813538</ele>
<time>2010-08-29T18:08:25Z</time>
<desc>lat.=55.900894, lon.=26.522585, Alt.=102.813538m. Speed=8.568000m/h.</desc>
<speed>2.380000</speed>
</trkpt>
<trkpt lat="55.900898" lon="26.522623">
<ele>103.473694</ele>
<time>2010-08-29T18:08:26Z</time>
<desc>lat.=55.900898, lon.=26.522623, Alt.=103.473694m. Speed=8.568000m/h.</desc>
<speed>2.380000</speed>
</trkpt>
<trkpt lat="55.900902" lon="26.522650">
<ele>104.977600</ele>
<time>2010-08-29T18:08:27Z</time>
<desc>lat.=55.900902, lon.=26.522650, Alt.=104.977600m. Speed=8.604000m/h.</desc>
<speed>2.390000</speed>
</trkpt>
<trkpt lat="55.900902" lon="26.522694">
<ele>105.633850</ele>
<time>2010-08-29T18:08:28Z</time>
<desc>lat.=55.900902, lon.=26.522694, Alt.=105.633850m. Speed=10.620000m/h.</desc>
<speed>2.950000</speed>
</trkpt>
<trkpt lat="55.900898" lon="26.522736">
<ele>106.405334</ele>
<time>2010-08-29T18:08:29Z</time>
<desc>lat.=55.900898, lon.=26.522736, Alt.=106.405334m. Speed=8.604000m/h.</desc>
<speed>2.390000</speed>
</trkpt>
<trkpt lat="55.900902" lon="26.522778">
<ele>107.075256</ele>
<time>2010-08-29T18:08:30Z</time>
<desc>lat.=55.900902, lon.=26.522778, Alt.=107.075256m. Speed=9.108000m/h.</desc>
<speed>2.530000</speed>
</trkpt>
<trkpt lat="55.900898" lon="26.522814">
<ele>107.383850</ele>
<time>2010-08-29T18:08:31Z</time>
<desc>lat.=55.900898, lon.=26.522814, Alt.=107.383850m. Speed=7.812000m/h.</desc>
<speed>2.170000</speed>
</trkpt>
<trkpt lat="55.900898" lon="26.522860">
<ele>107.004944</ele>
<time>2010-08-29T18:08:32Z</time>
<desc>lat.=55.900898, lon.=26.522860, Alt.=107.004944m. Speed=8.604000m/h.</desc>
<speed>2.390000</speed>
</trkpt>
<trkpt lat="55.900898" lon="26.522909">
<ele>106.307678</ele>
<time>2010-08-29T18:08:33Z</time>
<desc>lat.=55.900898, lon.=26.522909, Alt.=106.307678m. Speed=9.468000m/h.</desc>
<speed>2.630000</speed>
</trkpt>
<trkpt lat="55.900902" lon="26.522949">
<ele>107.239319</ele>
<time>2010-08-29T18:08:34Z</time>
<desc>lat.=55.900902, lon.=26.522949, Alt.=107.239319m. Speed=9.576000m/h.</desc>
<speed>2.660000</speed>
</trkpt>
<trkpt lat="55.900906" lon="26.522989">
<ele>108.200256</ele>
<time>2010-08-29T18:08:35Z</time>
<desc>lat.=55.900906, lon.=26.522989, Alt.=108.200256m. Speed=8.928000m/h.</desc>
<speed>2.480000</speed>
</trkpt>
<trkpt lat="55.900913" lon="26.523014">
<ele>109.876038</ele>
<time>2010-08-29T18:08:36Z</time>
<desc>lat.=55.900913, lon.=26.523014, Alt.=109.876038m. Speed=5.868000m/h.</desc>
<speed>1.630000</speed>
</trkpt>
<trkpt lat="55.900925" lon="26.523035">
<ele>111.129944</ele>
<time>2010-08-29T18:08:37Z</time>
<desc>lat.=55.900925, lon.=26.523035, Alt.=111.129944m. Speed=5.760000m/h.</desc>
<speed>1.600000</speed>
</trkpt>
<trkpt lat="55.900940" lon="26.523045">
<ele>113.434631</ele>
<time>2010-08-29T18:08:38Z</time>
<desc>lat.=55.900940, lon.=26.523045, Alt.=113.434631m. Speed=6.012000m/h.</desc>
<speed>1.670000</speed>
</trkpt>
<trkpt lat="55.900936" lon="26.523071">
<ele>113.669006</ele>
<time>2010-08-29T18:08:39Z</time>
<desc>lat.=55.900936, lon.=26.523071, Alt.=113.669006m. Speed=5.328000m/h.</desc>
<speed>1.480000</speed>
</trkpt>
<trkpt lat="55.900936" lon="26.523094">
<ele>113.928772</ele>
<time>2010-08-29T18:08:40Z</time>
<desc>lat.=55.900936, lon.=26.523094, Alt.=113.928772m. Speed=6.480000m/h.</desc>
<speed>1.800000</speed>
</trkpt>
<trkpt lat="55.900936" lon="26.523134">
<ele>113.762756</ele>
<time>2010-08-29T18:08:41Z</time>
<desc>lat.=55.900936, lon.=26.523134, Alt.=113.762756m. Speed=9.288000m/h.</desc>
<speed>2.580000</speed>
</trkpt>
<trkpt lat="55.900940" lon="26.523190">
<ele>114.223694</ele>
<time>2010-08-29T18:08:42Z</time>
<desc>lat.=55.900940, lon.=26.523190, Alt.=114.223694m. Speed=11.916000m/h.</desc>
<speed>3.310000</speed>
</trkpt>
<trkpt lat="55.900936" lon="26.523249">
<ele>114.491272</ele>
<time>2010-08-29T18:08:43Z</time>
<desc>lat.=55.900936, lon.=26.523249, Alt.=114.491272m. Speed=13.536000m/h.</desc>
<speed>3.760000</speed>
</trkpt>
<trkpt lat="55.900921" lon="26.523346">
<ele>110.012756</ele>
<time>2010-08-29T18:08:44Z</time>
<desc>lat.=55.900921, lon.=26.523346, Alt.=110.012756m. Speed=14.436000m/h.</desc>
<speed>4.010000</speed>
</trkpt>
<trkpt lat="55.900913" lon="26.523420">
<ele>109.428772</ele>
<time>2010-08-29T18:08:45Z</time>
<desc>lat.=55.900913, lon.=26.523420, Alt.=109.428772m. Speed=12.636000m/h.</desc>
<speed>3.510000</speed>
</trkpt>
<trkpt lat="55.900909" lon="26.523470">
<ele>110.563538</ele>
<time>2010-08-29T18:08:46Z</time>
<desc>lat.=55.900909, lon.=26.523470, Alt.=110.563538m. Speed=12.492000m/h.</desc>
<speed>3.470000</speed>
</trkpt>
<trkpt lat="55.900909" lon="26.523531">
<ele>109.811584</ele>
<time>2010-08-29T18:08:47Z</time>
<desc>lat.=55.900909, lon.=26.523531, Alt.=109.811584m. Speed=12.996000m/h.</desc>
<speed>3.610000</speed>
</trkpt>
<trkpt lat="55.900909" lon="26.523586">
<ele>109.319397</ele>
<time>2010-08-29T18:08:48Z</time>
<desc>lat.=55.900909, lon.=26.523586, Alt.=109.319397m. Speed=11.808000m/h.</desc>
<speed>3.280000</speed>
</trkpt>
<trkpt lat="55.900909" lon="26.523632">
<ele>109.305725</ele>
<time>2010-08-29T18:08:49Z</time>
<desc>lat.=55.900909, lon.=26.523632, Alt.=109.305725m. Speed=11.016000m/h.</desc>
<speed>3.060000</speed>
</trkpt>
<trkpt lat="55.900909" lon="26.523693">
<ele>108.239319</ele>
<time>2010-08-29T18:08:50Z</time>
<desc>lat.=55.900909, lon.=26.523693, Alt.=108.239319m. Speed=11.736000m/h.</desc>
<speed>3.260000</speed>
</trkpt>
<trkpt lat="55.900906" lon="26.523731">
<ele>108.612366</ele>
<time>2010-08-29T18:08:51Z</time>
<desc>lat.=55.900906, lon.=26.523731, Alt.=108.612366m. Speed=10.836000m/h.</desc>
<speed>3.010000</speed>
</trkpt>
<trkpt lat="55.900902" lon="26.523781">
<ele>108.315491</ele>
<time>2010-08-29T18:08:52Z</time>
<desc>lat.=55.900902, lon.=26.523781, Alt.=108.315491m. Speed=10.944000m/h.</desc>
<speed>3.040000</speed>
</trkpt>
<trkpt lat="55.900898" lon="26.523830">
<ele>108.292053</ele>
<time>2010-08-29T18:08:53Z</time>
<desc>lat.=55.900898, lon.=26.523830, Alt.=108.292053m. Speed=10.872000m/h.</desc>
<speed>3.020000</speed>
</trkpt>
<trkpt lat="55.900898" lon="26.523874">
<ele>108.411194</ele>
<time>2010-08-29T18:08:54Z</time>
<desc>lat.=55.900898, lon.=26.523874, Alt.=108.411194m. Speed=9.324000m/h.</desc>
<speed>2.590000</speed>
</trkpt>
<trkpt lat="55.900898" lon="26.523924">
<ele>108.290100</ele>
<time>2010-08-29T18:08:55Z</time>
<desc>lat.=55.900898, lon.=26.523924, Alt.=108.290100m. Speed=10.260000m/h.</desc>
<speed>2.850000</speed>
</trkpt>
<trkpt lat="55.900894" lon="26.523970">
<ele>108.161194</ele>
<time>2010-08-29T18:08:56Z</time>
<desc>lat.=55.900894, lon.=26.523970, Alt.=108.161194m. Speed=9.468000m/h.</desc>
<speed>2.630000</speed>
</trkpt>
<trkpt lat="55.900887" lon="26.524035">
<ele>106.704163</ele>
<time>2010-08-29T18:08:57Z</time>
<desc>lat.=55.900887, lon.=26.524035, Alt.=106.704163m. Speed=10.512000m/h.</desc>
<speed>2.920000</speed>
</trkpt>
<trkpt lat="55.900883" lon="26.524101">
<ele>105.251038</ele>
<time>2010-08-29T18:08:58Z</time>
<desc>lat.=55.900883, lon.=26.524101, Alt.=105.251038m. Speed=10.548000m/h.</desc>
<speed>2.930000</speed>
</trkpt>
<trkpt lat="55.900879" lon="26.524151">
<ele>104.745178</ele>
<time>2010-08-29T18:08:59Z</time>
<desc>lat.=55.900879, lon.=26.524151, Alt.=104.745178m. Speed=10.836000m/h.</desc>
<speed>3.010000</speed>
</trkpt>
<trkpt lat="55.900875" lon="26.524197">
<ele>104.485413</ele>
<time>2010-08-29T18:09:00Z</time>
<desc>lat.=55.900875, lon.=26.524197, Alt.=104.485413m. Speed=10.476000m/h.</desc>
<speed>2.910000</speed>
</trkpt>
<trkpt lat="55.900875" lon="26.524246">
<ele>104.661194</ele>
<time>2010-08-29T18:09:01Z</time>
<desc>lat.=55.900875, lon.=26.524246, Alt.=104.661194m. Speed=9.828000m/h.</desc>
<speed>2.730000</speed>
</trkpt>
<trkpt lat="55.900871" lon="26.524309">
<ele>104.426819</ele>
<time>2010-08-29T18:09:02Z</time>
<desc>lat.=55.900871, lon.=26.524309, Alt.=104.426819m. Speed=10.008000m/h.</desc>
<speed>2.780000</speed>
</trkpt>
<trkpt lat="55.900871" lon="26.524351">
<ele>105.547913</ele>
<time>2010-08-29T18:09:03Z</time>
<desc>lat.=55.900871, lon.=26.524351, Alt.=105.547913m. Speed=9.720000m/h.</desc>
<speed>2.700000</speed>
</trkpt>
<trkpt lat="55.900860" lon="26.524401">
<ele>104.194397</ele>
<time>2010-08-29T18:09:04Z</time>
<desc>lat.=55.900860, lon.=26.524401, Alt.=104.194397m. Speed=10.584000m/h.</desc>
<speed>2.940000</speed>
</trkpt>
<trkpt lat="55.900856" lon="26.524448">
<ele>103.512756</ele>
<time>2010-08-29T18:09:05Z</time>
<desc>lat.=55.900856, lon.=26.524448, Alt.=103.512756m. Speed=9.792000m/h.</desc>
<speed>2.720000</speed>
</trkpt>
<trkpt lat="55.900852" lon="26.524490">
<ele>103.057678</ele>
<time>2010-08-29T18:09:06Z</time>
<desc>lat.=55.900852, lon.=26.524490, Alt.=103.057678m. Speed=10.332000m/h.</desc>
<speed>2.870000</speed>
</trkpt>
<trkpt lat="55.900852" lon="26.524534">
<ele>102.694397</ele>
<time>2010-08-29T18:09:07Z</time>
<desc>lat.=55.900852, lon.=26.524534, Alt.=102.694397m. Speed=10.152000m/h.</desc>
<speed>2.820000</speed>
</trkpt>
<trkpt lat="55.900852" lon="26.524578">
<ele>102.327209</ele>
<time>2010-08-29T18:09:08Z</time>
<desc>lat.=55.900852, lon.=26.524578, Alt.=102.327209m. Speed=9.792000m/h.</desc>
<speed>2.720000</speed>
</trkpt>
<trkpt lat="55.900852" lon="26.524618">
<ele>102.286194</ele>
<time>2010-08-29T18:09:09Z</time>
<desc>lat.=55.900852, lon.=26.524618, Alt.=102.286194m. Speed=9.540000m/h.</desc>
<speed>2.650000</speed>
</trkpt>
<trkpt lat="55.900852" lon="26.524662">
<ele>101.309631</ele>
<time>2010-08-29T18:09:10Z</time>
<desc>lat.=55.900852, lon.=26.524662, Alt.=101.309631m. Speed=8.784000m/h.</desc>
<speed>2.440000</speed>
</trkpt>
<trkpt lat="55.900856" lon="26.524698">
<ele>100.920959</ele>
<time>2010-08-29T18:09:11Z</time>
<desc>lat.=55.900856, lon.=26.524698, Alt.=100.920959m. Speed=7.956000m/h.</desc>
<speed>2.210000</speed>
</trkpt>
<trkpt lat="55.900860" lon="26.524738">
<ele>100.583069</ele>
<time>2010-08-29T18:09:12Z</time>
<desc>lat.=55.900860, lon.=26.524738, Alt.=100.583069m. Speed=8.172000m/h.</desc>
<speed>2.270000</speed>
</trkpt>
<trkpt lat="55.900867" lon="26.524771">
<ele>100.682678</ele>
<time>2010-08-29T18:09:13Z</time>
<desc>lat.=55.900867, lon.=26.524771, Alt.=100.682678m. Speed=6.516000m/h.</desc>
<speed>1.810000</speed>
</trkpt>
<trkpt lat="55.900867" lon="26.524805">
<ele>100.946350</ele>
<time>2010-08-29T18:09:14Z</time>
<desc>lat.=55.900867, lon.=26.524805, Alt.=100.946350m. Speed=9.252000m/h.</desc>
<speed>2.570000</speed>
</trkpt>
<trkpt lat="55.900864" lon="26.524855">
<ele>100.803772</ele>
<time>2010-08-29T18:09:15Z</time>
<desc>lat.=55.900864, lon.=26.524855, Alt.=100.803772m. Speed=10.800000m/h.</desc>
<speed>3.000000</speed>
</trkpt>
<trkpt lat="55.900848" lon="26.524921">
<ele>101.086975</ele>
<time>2010-08-29T18:09:16Z</time>
<desc>lat.=55.900848, lon.=26.524921, Alt.=101.086975m. Speed=10.296000m/h.</desc>
<speed>2.860000</speed>
</trkpt>
<trkpt lat="55.900837" lon="26.524973">
<ele>100.938538</ele>
<time>2010-08-29T18:09:17Z</time>
<desc>lat.=55.900837, lon.=26.524973, Alt.=100.938538m. Speed=8.316000m/h.</desc>
<speed>2.310000</speed>
</trkpt>
<trkpt lat="55.900829" lon="26.525017">
<ele>100.141663</ele>
<time>2010-08-29T18:09:18Z</time>
<desc>lat.=55.900829, lon.=26.525017, Alt.=100.141663m. Speed=6.840000m/h.</desc>
<speed>1.900000</speed>
</trkpt>
<trkpt lat="55.900822" lon="26.525057">
<ele>99.491272</ele>
<time>2010-08-29T18:09:19Z</time>
<desc>lat.=55.900822, lon.=26.525057, Alt.=99.491272m. Speed=7.704000m/h.</desc>
<speed>2.140000</speed>
</trkpt>
<trkpt lat="55.900814" lon="26.525078">
<ele>99.504944</ele>
<time>2010-08-29T18:09:20Z</time>
<desc>lat.=55.900814, lon.=26.525078, Alt.=99.504944m. Speed=8.496000m/h.</desc>
<speed>2.360000</speed>
</trkpt>
<trkpt lat="55.900814" lon="26.525120">
<ele>99.645569</ele>
<time>2010-08-29T18:09:21Z</time>
<desc>lat.=55.900814, lon.=26.525120, Alt.=99.645569m. Speed=5.976000m/h.</desc>
<speed>1.660000</speed>
</trkpt>
<trkpt lat="55.900814" lon="26.525169">
<ele>99.598694</ele>
<time>2010-08-29T18:09:22Z</time>
<desc>lat.=55.900814, lon.=26.525169, Alt.=99.598694m. Speed=9.360000m/h.</desc>
<speed>2.600000</speed>
</trkpt>
<trkpt lat="55.900818" lon="26.525215">
<ele>99.549866</ele>
<time>2010-08-29T18:09:23Z</time>
<desc>lat.=55.900818, lon.=26.525215, Alt.=99.549866m. Speed=7.956000m/h.</desc>
<speed>2.210000</speed>
</trkpt>
<trkpt lat="55.900822" lon="26.525263">
<ele>99.756897</ele>
<time>2010-08-29T18:09:24Z</time>
<desc>lat.=55.900822, lon.=26.525263, Alt.=99.756897m. Speed=9.144000m/h.</desc>
<speed>2.540000</speed>
</trkpt>
<trkpt lat="55.900822" lon="26.525309">
<ele>100.116272</ele>
<time>2010-08-29T18:09:25Z</time>
<desc>lat.=55.900822, lon.=26.525309, Alt.=100.116272m. Speed=6.876000m/h.</desc>
<speed>1.910000</speed>
</trkpt>
<trkpt lat="55.900818" lon="26.525383">
<ele>100.866272</ele>
<time>2010-08-29T18:09:26Z</time>
<desc>lat.=55.900818, lon.=26.525383, Alt.=100.866272m. Speed=11.196000m/h.</desc>
<speed>3.110000</speed>
</trkpt>
<trkpt lat="55.900803" lon="26.525469">
<ele>100.463928</ele>
<time>2010-08-29T18:09:27Z</time>
<desc>lat.=55.900803, lon.=26.525469, Alt.=100.463928m. Speed=11.088000m/h.</desc>
<speed>3.080000</speed>
</trkpt>
<trkpt lat="55.900799" lon="26.525532">
<ele>100.784241</ele>
<time>2010-08-29T18:09:28Z</time>
<desc>lat.=55.900799, lon.=26.525532, Alt.=100.784241m. Speed=11.016000m/h.</desc>
<speed>3.060000</speed>
</trkpt>
<trkpt lat="55.900799" lon="26.525589">
<ele>102.096741</ele>
<time>2010-08-29T18:09:29Z</time>
<desc>lat.=55.900799, lon.=26.525589, Alt.=102.096741m. Speed=9.576000m/h.</desc>
<speed>2.660000</speed>
</trkpt>
<trkpt lat="55.900795" lon="26.525644">
<ele>102.885803</ele>
<time>2010-08-29T18:09:30Z</time>
<desc>lat.=55.900795, lon.=26.525644, Alt.=102.885803m. Speed=9.468000m/h.</desc>
<speed>2.630000</speed>
</trkpt>
<trkpt lat="55.900795" lon="26.525692">
<ele>103.245178</ele>
<time>2010-08-29T18:09:31Z</time>
<desc>lat.=55.900795, lon.=26.525692, Alt.=103.245178m. Speed=9.396000m/h.</desc>
<speed>2.610000</speed>
</trkpt>
<trkpt lat="55.900795" lon="26.525747">
<ele>104.295959</ele>
<time>2010-08-29T18:09:32Z</time>
<desc>lat.=55.900795, lon.=26.525747, Alt.=104.295959m. Speed=9.180000m/h.</desc>
<speed>2.550000</speed>
</trkpt>
<trkpt lat="55.900791" lon="26.525795">
<ele>104.040100</ele>
<time>2010-08-29T18:09:33Z</time>
<desc>lat.=55.900791, lon.=26.525795, Alt.=104.040100m. Speed=9.252000m/h.</desc>
<speed>2.570000</speed>
</trkpt>
<trkpt lat="55.900791" lon="26.525837">
<ele>105.165100</ele>
<time>2010-08-29T18:09:34Z</time>
<desc>lat.=55.900791, lon.=26.525837, Alt.=105.165100m. Speed=9.396000m/h.</desc>
<speed>2.610000</speed>
</trkpt>
<trkpt lat="55.900787" lon="26.525890">
<ele>105.424866</ele>
<time>2010-08-29T18:09:35Z</time>
<desc>lat.=55.900787, lon.=26.525890, Alt.=105.424866m. Speed=11.160000m/h.</desc>
<speed>3.100000</speed>
</trkpt>
<trkpt lat="55.900799" lon="26.525949">
<ele>107.512756</ele>
<time>2010-08-29T18:09:36Z</time>
<desc>lat.=55.900799, lon.=26.525949, Alt.=107.512756m. Speed=11.196000m/h.</desc>
<speed>3.110000</speed>
</trkpt>
<trkpt lat="55.900814" lon="26.526007">
<ele>109.649475</ele>
<time>2010-08-29T18:09:37Z</time>
<desc>lat.=55.900814, lon.=26.526007, Alt.=109.649475m. Speed=12.600000m/h.</desc>
<speed>3.500000</speed>
</trkpt>
<trkpt lat="55.900822" lon="26.526064">
<ele>110.635803</ele>
<time>2010-08-29T18:09:38Z</time>
<desc>lat.=55.900822, lon.=26.526064, Alt.=110.635803m. Speed=12.456000m/h.</desc>
<speed>3.460000</speed>
</trkpt>
<trkpt lat="55.900833" lon="26.526112">
<ele>112.085022</ele>
<time>2010-08-29T18:09:39Z</time>
<desc>lat.=55.900833, lon.=26.526112, Alt.=112.085022m. Speed=10.476000m/h.</desc>
<speed>2.910000</speed>
</trkpt>
<trkpt lat="55.900845" lon="26.526148">
<ele>113.047913</ele>
<time>2010-08-29T18:09:40Z</time>
<desc>lat.=55.900845, lon.=26.526148, Alt.=113.047913m. Speed=5.904000m/h.</desc>
<speed>1.640000</speed>
</trkpt>
<trkpt lat="55.900848" lon="26.526173">
<ele>113.870178</ele>
<time>2010-08-29T18:09:41Z</time>
<desc>lat.=55.900848, lon.=26.526173, Alt.=113.870178m. Speed=6.912000m/h.</desc>
<speed>1.920000</speed>
</trkpt>
<trkpt lat="55.900848" lon="26.526201">
<ele>114.528381</ele>
<time>2010-08-29T18:09:42Z</time>
<desc>lat.=55.900848, lon.=26.526201, Alt.=114.528381m. Speed=4.356000m/h.</desc>
<speed>1.210000</speed>
</trkpt>
<trkpt lat="55.900841" lon="26.526228">
<ele>115.004944</ele>
<time>2010-08-29T18:09:43Z</time>
<desc>lat.=55.900841, lon.=26.526228, Alt.=115.004944m. Speed=3.492000m/h.</desc>
<speed>0.970000</speed>
</trkpt>
<trkpt lat="55.900833" lon="26.526249">
<ele>115.377991</ele>
<time>2010-08-29T18:09:44Z</time>
<desc>lat.=55.900833, lon.=26.526249, Alt.=115.377991m. Speed=4.320000m/h.</desc>
<speed>1.200000</speed>
</trkpt>
<trkpt lat="55.900822" lon="26.526276">
<ele>113.983459</ele>
<time>2010-08-29T18:09:45Z</time>
<desc>lat.=55.900822, lon.=26.526276, Alt.=113.983459m. Speed=3.528000m/h.</desc>
<speed>0.980000</speed>
</trkpt>
<trkpt lat="55.900814" lon="26.526300">
<ele>114.143616</ele>
<time>2010-08-29T18:09:46Z</time>
<desc>lat.=55.900814, lon.=26.526300, Alt.=114.143616m. Speed=3.924000m/h.</desc>
<speed>1.090000</speed>
</trkpt>
<trkpt lat="55.900810" lon="26.526321">
<ele>113.655334</ele>
<time>2010-08-29T18:09:47Z</time>
<desc>lat.=55.900810, lon.=26.526321, Alt.=113.655334m. Speed=2.376000m/h.</desc>
<speed>0.660000</speed>
</trkpt>
<trkpt lat="55.900814" lon="26.526327">
<ele>112.559631</ele>
<time>2010-08-29T18:09:48Z</time>
<desc>lat.=55.900814, lon.=26.526327, Alt.=112.559631m. Speed=1.800000m/h.</desc>
<speed>0.500000</speed>
</trkpt>
<trkpt lat="55.900814" lon="26.526329">
<ele>112.460022</ele>
<time>2010-08-29T18:09:49Z</time>
<desc>lat.=55.900814, lon.=26.526329, Alt.=112.460022m. Speed=0.576000m/h.</desc>
<speed>0.160000</speed>
</trkpt>
<trkpt lat="55.900810" lon="26.526333">
<ele>112.221741</ele>
<time>2010-08-29T18:09:50Z</time>
<desc>lat.=55.900810, lon.=26.526333, Alt.=112.221741m. Speed=1.764000m/h.</desc>
<speed>0.490000</speed>
</trkpt>
<trkpt lat="55.900806" lon="26.526335">
<ele>112.383850</ele>
<time>2010-08-29T18:09:51Z</time>
<desc>lat.=55.900806, lon.=26.526335, Alt.=112.383850m. Speed=0.576000m/h.</desc>
<speed>0.160000</speed>
</trkpt>
<trkpt lat="55.900803" lon="26.526337">
<ele>112.544006</ele>
<time>2010-08-29T18:09:52Z</time>
<desc>lat.=55.900803, lon.=26.526337, Alt.=112.544006m. Speed=1.332000m/h.</desc>
<speed>0.370000</speed>
</trkpt>
<trkpt lat="55.900806" lon="26.526340">
<ele>112.639709</ele>
<time>2010-08-29T18:09:53Z</time>
<desc>lat.=55.900806, lon.=26.526340, Alt.=112.639709m. Speed=0.936000m/h.</desc>
<speed>0.260000</speed>
</trkpt>
<trkpt lat="55.900810" lon="26.526342">
<ele>112.571350</ele>
<time>2010-08-29T18:09:54Z</time>
<desc>lat.=55.900810, lon.=26.526342, Alt.=112.571350m. Speed=0.972000m/h.</desc>
<speed>0.270000</speed>
</trkpt>
<trkpt lat="55.900806" lon="26.526340">
<ele>112.526428</ele>
<time>2010-08-29T18:09:55Z</time>
<desc>lat.=55.900806, lon.=26.526340, Alt.=112.526428m. Speed=0.756000m/h.</desc>
<speed>0.210000</speed>
</trkpt>
<trkpt lat="55.900810" lon="26.526340">
<ele>112.499084</ele>
<time>2010-08-29T18:09:56Z</time>
<desc>lat.=55.900810, lon.=26.526340, Alt.=112.499084m. Speed=1.404000m/h.</desc>
<speed>0.390000</speed>
</trkpt>
<trkpt lat="55.900810" lon="26.526335">
<ele>112.506897</ele>
<time>2010-08-29T18:09:57Z</time>
<desc>lat.=55.900810, lon.=26.526335, Alt.=112.506897m. Speed=0.072000m/h.</desc>
<speed>0.020000</speed>
</trkpt>
<trkpt lat="55.900810" lon="26.526335">
<ele>112.540100</ele>
<time>2010-08-29T18:09:58Z</time>
<desc>lat.=55.900810, lon.=26.526335, Alt.=112.540100m. Speed=0.000000m/h.</desc>
<speed>0.000000</speed>
</trkpt>
<trkpt lat="55.900810" lon="26.526335">
<ele>112.538147</ele>
<time>2010-08-29T18:09:59Z</time>
<desc>lat.=55.900810, lon.=26.526335, Alt.=112.538147m. Speed=0.000000m/h.</desc>
<speed>0.000000</speed>
</trkpt>
<trkpt lat="55.900810" lon="26.526335">
<ele>112.518616</ele>
<time>2010-08-29T18:10:00Z</time>
<desc>lat.=55.900810, lon.=26.526335, Alt.=112.518616m. Speed=0.036000m/h.</desc>
<speed>0.010000</speed>
</trkpt>
<trkpt lat="55.900810" lon="26.526335">
<ele>112.508850</ele>
<time>2010-08-29T18:10:01Z</time>
<desc>lat.=55.900810, lon.=26.526335, Alt.=112.508850m. Speed=0.036000m/h.</desc>
<speed>0.010000</speed>
</trkpt>
<trkpt lat="55.900810" lon="26.526335">
<ele>112.506897</ele>
<time>2010-08-29T18:10:02Z</time>
<desc>lat.=55.900810, lon.=26.526335, Alt.=112.506897m. Speed=0.036000m/h.</desc>
<speed>0.010000</speed>
</trkpt>
<trkpt lat="55.900810" lon="26.526335">
<ele>112.510803</ele>
<time>2010-08-29T18:10:03Z</time>
<desc>lat.=55.900810, lon.=26.526335, Alt.=112.510803m. Speed=0.036000m/h.</desc>
<speed>0.010000</speed>
</trkpt>
<trkpt lat="55.900810" lon="26.526335">
<ele>112.508850</ele>
<time>2010-08-29T18:10:04Z</time>
<desc>lat.=55.900810, lon.=26.526335, Alt.=112.508850m. Speed=0.000000m/h.</desc>
<speed>0.000000</speed>
</trkpt>
<trkpt lat="55.900810" lon="26.526335">
<ele>112.497131</ele>
<time>2010-08-29T18:10:05Z</time>
<desc>lat.=55.900810, lon.=26.526335, Alt.=112.497131m. Speed=0.000000m/h.</desc>
<speed>0.000000</speed>
</trkpt>
<trkpt lat="55.900810" lon="26.526335">
<ele>112.471741</ele>
<time>2010-08-29T18:10:06Z</time>
<desc>lat.=55.900810, lon.=26.526335, Alt.=112.471741m. Speed=0.072000m/h.</desc>
<speed>0.020000</speed>
</trkpt>
<trkpt lat="55.900810" lon="26.526335">
<ele>112.417053</ele>
<time>2010-08-29T18:10:07Z</time>
<desc>lat.=55.900810, lon.=26.526335, Alt.=112.417053m. Speed=2.016000m/h.</desc>
<speed>0.560000</speed>
</trkpt>
<trkpt lat="55.900810" lon="26.526342">
<ele>112.397522</ele>
<time>2010-08-29T18:10:08Z</time>
<desc>lat.=55.900810, lon.=26.526342, Alt.=112.397522m. Speed=2.016000m/h.</desc>
<speed>0.560000</speed>
</trkpt>
<trkpt lat="55.900810" lon="26.526352">
<ele>112.377991</ele>
<time>2010-08-29T18:10:09Z</time>
<desc>lat.=55.900810, lon.=26.526352, Alt.=112.377991m. Speed=0.288000m/h.</desc>
<speed>0.080000</speed>
</trkpt>
<trkpt lat="55.900810" lon="26.526354">
<ele>112.335022</ele>
<time>2010-08-29T18:10:10Z</time>
<desc>lat.=55.900810, lon.=26.526354, Alt.=112.335022m. Speed=0.576000m/h.</desc>
<speed>0.160000</speed>
</trkpt>
<trkpt lat="55.900810" lon="26.526352">
<ele>112.348694</ele>
<time>2010-08-29T18:10:11Z</time>
<desc>lat.=55.900810, lon.=26.526352, Alt.=112.348694m. Speed=0.828000m/h.</desc>
<speed>0.230000</speed>
</trkpt>
<trkpt lat="55.900810" lon="26.526356">
<ele>112.245178</ele>
<time>2010-08-29T18:10:12Z</time>
<desc>lat.=55.900810, lon.=26.526356, Alt.=112.245178m. Speed=1.800000m/h.</desc>
<speed>0.500000</speed>
</trkpt>
<trkpt lat="55.900806" lon="26.526356">
<ele>113.133850</ele>
<time>2010-08-29T18:10:13Z</time>
<desc>lat.=55.900806, lon.=26.526356, Alt.=113.133850m. Speed=2.016000m/h.</desc>
<speed>0.560000</speed>
</trkpt>
<trkpt lat="55.900799" lon="26.526358">
<ele>113.917053</ele>
<time>2010-08-29T18:10:14Z</time>
<desc>lat.=55.900799, lon.=26.526358, Alt.=113.917053m. Speed=1.332000m/h.</desc>
<speed>0.370000</speed>
</trkpt>
<trkpt lat="55.900799" lon="26.526361">
<ele>114.588928</ele>
<time>2010-08-29T18:10:15Z</time>
<desc>lat.=55.900799, lon.=26.526361, Alt.=114.588928m. Speed=1.224000m/h.</desc>
<speed>0.340000</speed>
</trkpt>
<trkpt lat="55.900795" lon="26.526365">
<ele>115.053772</ele>
<time>2010-08-29T18:10:16Z</time>
<desc>lat.=55.900795, lon.=26.526365, Alt.=115.053772m. Speed=1.044000m/h.</desc>
<speed>0.290000</speed>
</trkpt>
<trkpt lat="55.900795" lon="26.526367">
<ele>115.516663</ele>
<time>2010-08-29T18:10:17Z</time>
<desc>lat.=55.900795, lon.=26.526367, Alt.=115.516663m. Speed=0.612000m/h.</desc>
<speed>0.170000</speed>
</trkpt>
<trkpt lat="55.900791" lon="26.526371">
<ele>115.866272</ele>
<time>2010-08-29T18:10:18Z</time>
<desc>lat.=55.900791, lon.=26.526371, Alt.=115.866272m. Speed=1.440000m/h.</desc>
<speed>0.400000</speed>
</trkpt>
<trkpt lat="55.900791" lon="26.526377">
<ele>116.161194</ele>
<time>2010-08-29T18:10:19Z</time>
<desc>lat.=55.900791, lon.=26.526377, Alt.=116.161194m. Speed=2.772000m/h.</desc>
<speed>0.770000</speed>
</trkpt>
<trkpt lat="55.900791" lon="26.526390">
<ele>116.467834</ele>
<time>2010-08-29T18:10:20Z</time>
<desc>lat.=55.900791, lon.=26.526390, Alt.=116.467834m. Speed=3.420000m/h.</desc>
<speed>0.950000</speed>
</trkpt>
<trkpt lat="55.900787" lon="26.526403">
<ele>116.745178</ele>
<time>2010-08-29T18:10:21Z</time>
<desc>lat.=55.900787, lon.=26.526403, Alt.=116.745178m. Speed=8.280000m/h.</desc>
<speed>2.300000</speed>
</trkpt>
<trkpt lat="55.900780" lon="26.526436">
<ele>116.919006</ele>
<time>2010-08-29T18:10:22Z</time>
<desc>lat.=55.900780, lon.=26.526436, Alt.=116.919006m. Speed=8.640000m/h.</desc>
<speed>2.400000</speed>
</trkpt>
<trkpt lat="55.900776" lon="26.526472">
<ele>116.919006</ele>
<time>2010-08-29T18:10:23Z</time>
<desc>lat.=55.900776, lon.=26.526472, Alt.=116.919006m. Speed=8.568000m/h.</desc>
<speed>2.380000</speed>
</trkpt>
<trkpt lat="55.900764" lon="26.526533">
<ele>116.592834</ele>
<time>2010-08-29T18:10:24Z</time>
<desc>lat.=55.900764, lon.=26.526533, Alt.=116.592834m. Speed=9.288000m/h.</desc>
<speed>2.580000</speed>
</trkpt>
<trkpt lat="55.900761" lon="26.526571">
<ele>116.614319</ele>
<time>2010-08-29T18:10:25Z</time>
<desc>lat.=55.900761, lon.=26.526571, Alt.=116.614319m. Speed=8.640000m/h.</desc>
<speed>2.400000</speed>
</trkpt>
<trkpt lat="55.900757" lon="26.526611">
<ele>117.155334</ele>
<time>2010-08-29T18:10:26Z</time>
<desc>lat.=55.900757, lon.=26.526611, Alt.=117.155334m. Speed=8.424000m/h.</desc>
<speed>2.340000</speed>
</trkpt>
<trkpt lat="55.900753" lon="26.526648">
<ele>117.444397</ele>
<time>2010-08-29T18:10:27Z</time>
<desc>lat.=55.900753, lon.=26.526648, Alt.=117.444397m. Speed=8.028000m/h.</desc>
<speed>2.230000</speed>
</trkpt>
<trkpt lat="55.900757" lon="26.526686">
<ele>118.028381</ele>
<time>2010-08-29T18:10:28Z</time>
<desc>lat.=55.900757, lon.=26.526686, Alt.=118.028381m. Speed=8.892000m/h.</desc>
<speed>2.470000</speed>
</trkpt>
<trkpt lat="55.900745" lon="26.526726">
<ele>117.674866</ele>
<time>2010-08-29T18:10:29Z</time>
<desc>lat.=55.900745, lon.=26.526726, Alt.=117.674866m. Speed=10.368000m/h.</desc>
<speed>2.880000</speed>
</trkpt>
<trkpt lat="55.900738" lon="26.526770">
<ele>117.682678</ele>
<time>2010-08-29T18:10:30Z</time>
<desc>lat.=55.900738, lon.=26.526770, Alt.=117.682678m. Speed=9.288000m/h.</desc>
<speed>2.580000</speed>
</trkpt>
<trkpt lat="55.900726" lon="26.526812">
<ele>117.674866</ele>
<time>2010-08-29T18:10:31Z</time>
<desc>lat.=55.900726, lon.=26.526812, Alt.=117.674866m. Speed=9.828000m/h.</desc>
<speed>2.730000</speed>
</trkpt>
<trkpt lat="55.900715" lon="26.526857">
<ele>117.862366</ele>
<time>2010-08-29T18:10:32Z</time>
<desc>lat.=55.900715, lon.=26.526857, Alt.=117.862366m. Speed=10.548000m/h.</desc>
<speed>2.930000</speed>
</trkpt>
<trkpt lat="55.900700" lon="26.526907">
<ele>117.776428</ele>
<time>2010-08-29T18:10:33Z</time>
<desc>lat.=55.900700, lon.=26.526907, Alt.=117.776428m. Speed=10.728000m/h.</desc>
<speed>2.980000</speed>
</trkpt>
<trkpt lat="55.900684" lon="26.526957">
<ele>118.266663</ele>
<time>2010-08-29T18:10:34Z</time>
<desc>lat.=55.900684, lon.=26.526957, Alt.=118.266663m. Speed=11.196000m/h.</desc>
<speed>3.110000</speed>
</trkpt>
<trkpt lat="55.900669" lon="26.527006">
<ele>118.440491</ele>
<time>2010-08-29T18:10:35Z</time>
<desc>lat.=55.900669, lon.=26.527006, Alt.=118.440491m. Speed=11.232000m/h.</desc>
<speed>3.120000</speed>
</trkpt>
<trkpt lat="55.900650" lon="26.527046">
<ele>119.020569</ele>
<time>2010-08-29T18:10:36Z</time>
<desc>lat.=55.900650, lon.=26.527046, Alt.=119.020569m. Speed=11.520000m/h.</desc>
<speed>3.200000</speed>
</trkpt>
<trkpt lat="55.900631" lon="26.527111">
<ele>117.313538</ele>
<time>2010-08-29T18:10:37Z</time>
<desc>lat.=55.900631, lon.=26.527111, Alt.=117.313538m. Speed=11.736000m/h.</desc>
<speed>3.260000</speed>
</trkpt>
<trkpt lat="55.900608" lon="26.527189">
<ele>114.577209</ele>
<time>2010-08-29T18:10:38Z</time>
<desc>lat.=55.900608, lon.=26.527189, Alt.=114.577209m. Speed=13.320000m/h.</desc>
<speed>3.700000</speed>
</trkpt>
<trkpt lat="55.900593" lon="26.527224">
<ele>114.481506</ele>
<time>2010-08-29T18:10:39Z</time>
<desc>lat.=55.900593, lon.=26.527224, Alt.=114.481506m. Speed=5.616000m/h.</desc>
<speed>1.560000</speed>
</trkpt>
<trkpt lat="55.900578" lon="26.527262">
<ele>114.649475</ele>
<time>2010-08-29T18:10:40Z</time>
<desc>lat.=55.900578, lon.=26.527262, Alt.=114.649475m. Speed=11.880000m/h.</desc>
<speed>3.300000</speed>
</trkpt>
<trkpt lat="55.900562" lon="26.527308">
<ele>115.651428</ele>
<time>2010-08-29T18:10:41Z</time>
<desc>lat.=55.900562, lon.=26.527308, Alt.=115.651428m. Speed=12.888000m/h.</desc>
<speed>3.580000</speed>
</trkpt>
<trkpt lat="55.900536" lon="26.527359">
<ele>115.487366</ele>
<time>2010-08-29T18:10:42Z</time>
<desc>lat.=55.900536, lon.=26.527359, Alt.=115.487366m. Speed=11.988000m/h.</desc>
<speed>3.330000</speed>
</trkpt>
<trkpt lat="55.900520" lon="26.527399">
<ele>115.545959</ele>
<time>2010-08-29T18:10:43Z</time>
<desc>lat.=55.900520, lon.=26.527399, Alt.=115.545959m. Speed=10.188000m/h.</desc>
<speed>2.830000</speed>
</trkpt>
<trkpt lat="55.900494" lon="26.527475">
<ele>112.428772</ele>
<time>2010-08-29T18:10:44Z</time>
<desc>lat.=55.900494, lon.=26.527475, Alt.=112.428772m. Speed=13.356000m/h.</desc>
<speed>3.710000</speed>
</trkpt>
<trkpt lat="55.900471" lon="26.527540">
<ele>110.374084</ele>
<time>2010-08-29T18:10:45Z</time>
<desc>lat.=55.900471, lon.=26.527540, Alt.=110.374084m. Speed=14.220000m/h.</desc>
<speed>3.950000</speed>
</trkpt>
<trkpt lat="55.900459" lon="26.527605">
<ele>109.569397</ele>
<time>2010-08-29T18:10:46Z</time>
<desc>lat.=55.900459, lon.=26.527605, Alt.=109.569397m. Speed=13.644000m/h.</desc>
<speed>3.790000</speed>
</trkpt>
<trkpt lat="55.900448" lon="26.527664">
<ele>108.975647</ele>
<time>2010-08-29T18:10:47Z</time>
<desc>lat.=55.900448, lon.=26.527664, Alt.=108.975647m. Speed=13.212000m/h.</desc>
<speed>3.670000</speed>
</trkpt>
<trkpt lat="55.900436" lon="26.527723">
<ele>108.077209</ele>
<time>2010-08-29T18:10:48Z</time>
<desc>lat.=55.900436, lon.=26.527723, Alt.=108.077209m. Speed=12.420000m/h.</desc>
<speed>3.450000</speed>
</trkpt>
<trkpt lat="55.900429" lon="26.527777">
<ele>107.442444</ele>
<time>2010-08-29T18:10:49Z</time>
<desc>lat.=55.900429, lon.=26.527777, Alt.=107.442444m. Speed=11.556000m/h.</desc>
<speed>3.210000</speed>
</trkpt>
<trkpt lat="55.900421" lon="26.527828">
<ele>106.866272</ele>
<time>2010-08-29T18:10:50Z</time>
<desc>lat.=55.900421, lon.=26.527828, Alt.=106.866272m. Speed=11.592000m/h.</desc>
<speed>3.220000</speed>
</trkpt>
<trkpt lat="55.900414" lon="26.527876">
<ele>106.372131</ele>
<time>2010-08-29T18:10:51Z</time>
<desc>lat.=55.900414, lon.=26.527876, Alt.=106.372131m. Speed=8.496000m/h.</desc>
<speed>2.360000</speed>
</trkpt>
<trkpt lat="55.900394" lon="26.527885">
<ele>105.784241</ele>
<time>2010-08-29T18:10:52Z</time>
<desc>lat.=55.900394, lon.=26.527885, Alt.=105.784241m. Speed=7.560000m/h.</desc>
<speed>2.100000</speed>
</trkpt>
<trkpt lat="55.900372" lon="26.527920">
<ele>103.797913</ele>
<time>2010-08-29T18:10:53Z</time>
<desc>lat.=55.900372, lon.=26.527920, Alt.=103.797913m. Speed=9.396000m/h.</desc>
<speed>2.610000</speed>
</trkpt>
<trkpt lat="55.900356" lon="26.527960">
<ele>103.708069</ele>
<time>2010-08-29T18:10:54Z</time>
<desc>lat.=55.900356, lon.=26.527960, Alt.=103.708069m. Speed=12.564000m/h.</desc>
<speed>3.490000</speed>
</trkpt>
<trkpt lat="55.900341" lon="26.528008">
<ele>104.854553</ele>
<time>2010-08-29T18:10:55Z</time>
<desc>lat.=55.900341, lon.=26.528008, Alt.=104.854553m. Speed=12.492000m/h.</desc>
<speed>3.470000</speed>
</trkpt>
<trkpt lat="55.900322" lon="26.528059">
<ele>103.126038</ele>
<time>2010-08-29T18:10:56Z</time>
<desc>lat.=55.900322, lon.=26.528059, Alt.=103.126038m. Speed=12.204000m/h.</desc>
<speed>3.390000</speed>
</trkpt>
<trkpt lat="55.900307" lon="26.528101">
<ele>102.575256</ele>
<time>2010-08-29T18:10:57Z</time>
<desc>lat.=55.900307, lon.=26.528101, Alt.=102.575256m. Speed=11.592000m/h.</desc>
<speed>3.220000</speed>
</trkpt>
<trkpt lat="55.900295" lon="26.528145">
<ele>102.182678</ele>
<time>2010-08-29T18:10:58Z</time>
<desc>lat.=55.900295, lon.=26.528145, Alt.=102.182678m. Speed=11.088000m/h.</desc>
<speed>3.080000</speed>
</trkpt>
<trkpt lat="55.900280" lon="26.528185">
<ele>101.161194</ele>
<time>2010-08-29T18:10:59Z</time>
<desc>lat.=55.900280, lon.=26.528185, Alt.=101.161194m. Speed=10.584000m/h.</desc>
<speed>2.940000</speed>
</trkpt>
<trkpt lat="55.900261" lon="26.528229">
<ele>100.825256</ele>
<time>2010-08-29T18:11:00Z</time>
<desc>lat.=55.900261, lon.=26.528229, Alt.=100.825256m. Speed=10.224000m/h.</desc>
<speed>2.840000</speed>
</trkpt>
<trkpt lat="55.900249" lon="26.528269">
<ele>100.100647</ele>
<time>2010-08-29T18:11:01Z</time>
<desc>lat.=55.900249, lon.=26.528269, Alt.=100.100647m. Speed=9.720000m/h.</desc>
<speed>2.700000</speed>
</trkpt>
<trkpt lat="55.900234" lon="26.528305">
<ele>99.547913</ele>
<time>2010-08-29T18:11:02Z</time>
<desc>lat.=55.900234, lon.=26.528305, Alt.=99.547913m. Speed=9.144000m/h.</desc>
<speed>2.540000</speed>
</trkpt>
<trkpt lat="55.900219" lon="26.528339">
<ele>98.958069</ele>
<time>2010-08-29T18:11:03Z</time>
<desc>lat.=55.900219, lon.=26.528339, Alt.=98.958069m. Speed=9.036000m/h.</desc>
<speed>2.510000</speed>
</trkpt>
<trkpt lat="55.900204" lon="26.528376">
<ele>97.743225</ele>
<time>2010-08-29T18:11:04Z</time>
<desc>lat.=55.900204, lon.=26.528376, Alt.=97.743225m. Speed=8.208000m/h.</desc>
<speed>2.280000</speed>
</trkpt>
<trkpt lat="55.900192" lon="26.528404">
<ele>97.165100</ele>
<time>2010-08-29T18:11:05Z</time>
<desc>lat.=55.900192, lon.=26.528404, Alt.=97.165100m. Speed=8.172000m/h.</desc>
<speed>2.270000</speed>
</trkpt>
<trkpt lat="55.900177" lon="26.528431">
<ele>96.874084</ele>
<time>2010-08-29T18:11:06Z</time>
<desc>lat.=55.900177, lon.=26.528431, Alt.=96.874084m. Speed=7.740000m/h.</desc>
<speed>2.150000</speed>
</trkpt>
<trkpt lat="55.900169" lon="26.528473">
<ele>97.489319</ele>
<time>2010-08-29T18:11:07Z</time>
<desc>lat.=55.900169, lon.=26.528473, Alt.=97.489319m. Speed=8.208000m/h.</desc>
<speed>2.280000</speed>
</trkpt>
<trkpt lat="55.900169" lon="26.528507">
<ele>98.272522</ele>
<time>2010-08-29T18:11:08Z</time>
<desc>lat.=55.900169, lon.=26.528507, Alt.=98.272522m. Speed=8.532000m/h.</desc>
<speed>2.370000</speed>
</trkpt>
<trkpt lat="55.900185" lon="26.528530">
<ele>98.444397</ele>
<time>2010-08-29T18:11:09Z</time>
<desc>lat.=55.900185, lon.=26.528530, Alt.=98.444397m. Speed=6.732000m/h.</desc>
<speed>1.870000</speed>
</trkpt>
<trkpt lat="55.900196" lon="26.528540">
<ele>98.460022</ele>
<time>2010-08-29T18:11:10Z</time>
<desc>lat.=55.900196, lon.=26.528540, Alt.=98.460022m. Speed=2.916000m/h.</desc>
<speed>0.810000</speed>
</trkpt>
<trkpt lat="55.900196" lon="26.528549">
<ele>98.424866</ele>
<time>2010-08-29T18:11:11Z</time>
<desc>lat.=55.900196, lon.=26.528549, Alt.=98.424866m. Speed=3.096000m/h.</desc>
<speed>0.860000</speed>
</trkpt>
<trkpt lat="55.900192" lon="26.528561">
<ele>98.483459</ele>
<time>2010-08-29T18:11:12Z</time>
<desc>lat.=55.900192, lon.=26.528561, Alt.=98.483459m. Speed=3.708000m/h.</desc>
<speed>1.030000</speed>
</trkpt>
<trkpt lat="55.900188" lon="26.528578">
<ele>98.442444</ele>
<time>2010-08-29T18:11:13Z</time>
<desc>lat.=55.900188, lon.=26.528578, Alt.=98.442444m. Speed=3.996000m/h.</desc>
<speed>1.110000</speed>
</trkpt>
<trkpt lat="55.900181" lon="26.528585">
<ele>98.727600</ele>
<time>2010-08-29T18:11:14Z</time>
<desc>lat.=55.900181, lon.=26.528585, Alt.=98.727600m. Speed=3.024000m/h.</desc>
<speed>0.840000</speed>
</trkpt>
<trkpt lat="55.900177" lon="26.528593">
<ele>99.002991</ele>
<time>2010-08-29T18:11:15Z</time>
<desc>lat.=55.900177, lon.=26.528593, Alt.=99.002991m. Speed=3.384000m/h.</desc>
<speed>0.940000</speed>
</trkpt>
<trkpt lat="55.900169" lon="26.528605">
<ele>99.129944</ele>
<time>2010-08-29T18:11:16Z</time>
<desc>lat.=55.900169, lon.=26.528605, Alt.=99.129944m. Speed=3.744000m/h.</desc>
<speed>1.040000</speed>
</trkpt>
<trkpt lat="55.900162" lon="26.528614">
<ele>99.290100</ele>
<time>2010-08-29T18:11:17Z</time>
<desc>lat.=55.900162, lon.=26.528614, Alt.=99.290100m. Speed=3.528000m/h.</desc>
<speed>0.980000</speed>
</trkpt>
<trkpt lat="55.900150" lon="26.528620">
<ele>99.495178</ele>
<time>2010-08-29T18:11:18Z</time>
<desc>lat.=55.900150, lon.=26.528620, Alt.=99.495178m. Speed=3.852000m/h.</desc>
<speed>1.070000</speed>
</trkpt>
<trkpt lat="55.900146" lon="26.528643">
<ele>99.405334</ele>
<time>2010-08-29T18:11:19Z</time>
<desc>lat.=55.900146, lon.=26.528643, Alt.=99.405334m. Speed=2.808000m/h.</desc>
<speed>0.780000</speed>
</trkpt>
<trkpt lat="55.900139" lon="26.528666">
<ele>99.626038</ele>
<time>2010-08-29T18:11:20Z</time>
<desc>lat.=55.900139, lon.=26.528666, Alt.=99.626038m. Speed=5.868000m/h.</desc>
<speed>1.630000</speed>
</trkpt>
<trkpt lat="55.900124" lon="26.528683">
<ele>100.149475</ele>
<time>2010-08-29T18:11:21Z</time>
<desc>lat.=55.900124, lon.=26.528683, Alt.=100.149475m. Speed=2.304000m/h.</desc>
<speed>0.640000</speed>
</trkpt>
<trkpt lat="55.900127" lon="26.528675">
<ele>100.471741</ele>
<time>2010-08-29T18:11:22Z</time>
<desc>lat.=55.900127, lon.=26.528675, Alt.=100.471741m. Speed=0.612000m/h.</desc>
<speed>0.170000</speed>
</trkpt>
<trkpt lat="55.900124" lon="26.528671">
<ele>100.809631</ele>
<time>2010-08-29T18:11:23Z</time>
<desc>lat.=55.900124, lon.=26.528671, Alt.=100.809631m. Speed=0.864000m/h.</desc>
<speed>0.240000</speed>
</trkpt>
<trkpt lat="55.900127" lon="26.528669">
<ele>101.120178</ele>
<time>2010-08-29T18:11:24Z</time>
<desc>lat.=55.900127, lon.=26.528669, Alt.=101.120178m. Speed=0.972000m/h.</desc>
<speed>0.270000</speed>
</trkpt>
<trkpt lat="55.900127" lon="26.528667">
<ele>101.088928</ele>
<time>2010-08-29T18:11:25Z</time>
<desc>lat.=55.900127, lon.=26.528667, Alt.=101.088928m. Speed=0.972000m/h.</desc>
<speed>0.270000</speed>
</trkpt>
<trkpt lat="55.900131" lon="26.528664">
<ele>101.063538</ele>
<time>2010-08-29T18:11:26Z</time>
<desc>lat.=55.900131, lon.=26.528664, Alt.=101.063538m. Speed=1.260000m/h.</desc>
<speed>0.350000</speed>
</trkpt>
<trkpt lat="55.900131" lon="26.528658">
<ele>101.032288</ele>
<time>2010-08-29T18:11:27Z</time>
<desc>lat.=55.900131, lon.=26.528658, Alt.=101.032288m. Speed=0.864000m/h.</desc>
<speed>0.240000</speed>
</trkpt>
<trkpt lat="55.900131" lon="26.528656">
<ele>101.014709</ele>
<time>2010-08-29T18:11:28Z</time>
<desc>lat.=55.900131, lon.=26.528656, Alt.=101.014709m. Speed=0.972000m/h.</desc>
<speed>0.270000</speed>
</trkpt>
<trkpt lat="55.900131" lon="26.528650">
<ele>101.034241</ele>
<time>2010-08-29T18:11:29Z</time>
<desc>lat.=55.900131, lon.=26.528650, Alt.=101.034241m. Speed=1.512000m/h.</desc>
<speed>0.420000</speed>
</trkpt>
<trkpt lat="55.900131" lon="26.528645">
<ele>101.063538</ele>
<time>2010-08-29T18:11:30Z</time>
<desc>lat.=55.900131, lon.=26.528645, Alt.=101.063538m. Speed=0.936000m/h.</desc>
<speed>0.260000</speed>
</trkpt>
<trkpt lat="55.900131" lon="26.528643">
<ele>101.088928</ele>
<time>2010-08-29T18:11:31Z</time>
<desc>lat.=55.900131, lon.=26.528643, Alt.=101.088928m. Speed=0.540000m/h.</desc>
<speed>0.150000</speed>
</trkpt>
<trkpt lat="55.900131" lon="26.528641">
<ele>101.114319</ele>
<time>2010-08-29T18:11:32Z</time>
<desc>lat.=55.900131, lon.=26.528641, Alt.=101.114319m. Speed=1.908000m/h.</desc>
<speed>0.530000</speed>
</trkpt>
<trkpt lat="55.900131" lon="26.528648">
<ele>101.161194</ele>
<time>2010-08-29T18:11:33Z</time>
<desc>lat.=55.900131, lon.=26.528648, Alt.=101.161194m. Speed=2.232000m/h.</desc>
<speed>0.620000</speed>
</trkpt>
<trkpt lat="55.900127" lon="26.528641">
<ele>101.260803</ele>
<time>2010-08-29T18:11:34Z</time>
<desc>lat.=55.900127, lon.=26.528641, Alt.=101.260803m. Speed=1.728000m/h.</desc>
<speed>0.480000</speed>
</trkpt>
<trkpt lat="55.900127" lon="26.528633">
<ele>101.426819</ele>
<time>2010-08-29T18:11:35Z</time>
<desc>lat.=55.900127, lon.=26.528633, Alt.=101.426819m. Speed=1.296000m/h.</desc>
<speed>0.360000</speed>
</trkpt>
<trkpt lat="55.900131" lon="26.528635">
<ele>101.590881</ele>
<time>2010-08-29T18:11:36Z</time>
<desc>lat.=55.900131, lon.=26.528635, Alt.=101.590881m. Speed=1.404000m/h.</desc>
<speed>0.390000</speed>
</trkpt>
<trkpt lat="55.900135" lon="26.528635">
<ele>101.751038</ele>
<time>2010-08-29T18:11:37Z</time>
<desc>lat.=55.900135, lon.=26.528635, Alt.=101.751038m. Speed=1.152000m/h.</desc>
<speed>0.320000</speed>
</trkpt>
<trkpt lat="55.900135" lon="26.528635">
<ele>101.909241</ele>
<time>2010-08-29T18:11:38Z</time>
<desc>lat.=55.900135, lon.=26.528635, Alt.=101.909241m. Speed=0.684000m/h.</desc>
<speed>0.190000</speed>
</trkpt>
<trkpt lat="55.900139" lon="26.528635">
<ele>102.059631</ele>
<time>2010-08-29T18:11:39Z</time>
<desc>lat.=55.900139, lon.=26.528635, Alt.=102.059631m. Speed=0.108000m/h.</desc>
<speed>0.030000</speed>
</trkpt>
<trkpt lat="55.900139" lon="26.528635">
<ele>102.196350</ele>
<time>2010-08-29T18:11:40Z</time>
<desc>lat.=55.900139, lon.=26.528635, Alt.=102.196350m. Speed=0.540000m/h.</desc>
<speed>0.150000</speed>
</trkpt>
<trkpt lat="55.900135" lon="26.528635">
<ele>102.286194</ele>
<time>2010-08-29T18:11:41Z</time>
<desc>lat.=55.900135, lon.=26.528635, Alt.=102.286194m. Speed=0.504000m/h.</desc>
<speed>0.140000</speed>
</trkpt>
<trkpt lat="55.900135" lon="26.528635">
<ele>102.352600</ele>
<time>2010-08-29T18:11:42Z</time>
<desc>lat.=55.900135, lon.=26.528635, Alt.=102.352600m. Speed=0.360000m/h.</desc>
<speed>0.100000</speed>
</trkpt>
<trkpt lat="55.900135" lon="26.528635">
<ele>102.403381</ele>
<time>2010-08-29T18:11:43Z</time>
<desc>lat.=55.900135, lon.=26.528635, Alt.=102.403381m. Speed=0.216000m/h.</desc>
<speed>0.060000</speed>
</trkpt>
<trkpt lat="55.900135" lon="26.528633">
<ele>102.444397</ele>
<time>2010-08-29T18:11:44Z</time>
<desc>lat.=55.900135, lon.=26.528633, Alt.=102.444397m. Speed=0.540000m/h.</desc>
<speed>0.150000</speed>
</trkpt>
<trkpt lat="55.900131" lon="26.528631">
<ele>102.477600</ele>
<time>2010-08-29T18:11:45Z</time>
<desc>lat.=55.900131, lon.=26.528631, Alt.=102.477600m. Speed=1.152000m/h.</desc>
<speed>0.320000</speed>
</trkpt>
<trkpt lat="55.900131" lon="26.528625">
<ele>102.504944</ele>
<time>2010-08-29T18:11:46Z</time>
<desc>lat.=55.900131, lon.=26.528625, Alt.=102.504944m. Speed=1.224000m/h.</desc>
<speed>0.340000</speed>
</trkpt>
<trkpt lat="55.900131" lon="26.528620">
<ele>102.534241</ele>
<time>2010-08-29T18:11:47Z</time>
<desc>lat.=55.900131, lon.=26.528620, Alt.=102.534241m. Speed=1.008000m/h.</desc>
<speed>0.280000</speed>
</trkpt>
<trkpt lat="55.900131" lon="26.528616">
<ele>102.563538</ele>
<time>2010-08-29T18:11:48Z</time>
<desc>lat.=55.900131, lon.=26.528616, Alt.=102.563538m. Speed=0.792000m/h.</desc>
<speed>0.220000</speed>
</trkpt>
<trkpt lat="55.900131" lon="26.528612">
<ele>102.590881</ele>
<time>2010-08-29T18:11:49Z</time>
<desc>lat.=55.900131, lon.=26.528612, Alt.=102.590881m. Speed=0.432000m/h.</desc>
<speed>0.120000</speed>
</trkpt>
<trkpt lat="55.900131" lon="26.528610">
<ele>102.612366</ele>
<time>2010-08-29T18:11:50Z</time>
<desc>lat.=55.900131, lon.=26.528610, Alt.=102.612366m. Speed=0.324000m/h.</desc>
<speed>0.090000</speed>
</trkpt>
<trkpt lat="55.900131" lon="26.528610">
<ele>102.631897</ele>
<time>2010-08-29T18:11:51Z</time>
<desc>lat.=55.900131, lon.=26.528610, Alt.=102.631897m. Speed=0.540000m/h.</desc>
<speed>0.150000</speed>
</trkpt>
<trkpt lat="55.900131" lon="26.528610">
<ele>102.645569</ele>
<time>2010-08-29T18:11:52Z</time>
<desc>lat.=55.900131, lon.=26.528610, Alt.=102.645569m. Speed=0.540000m/h.</desc>
<speed>0.150000</speed>
</trkpt>
<trkpt lat="55.900127" lon="26.528612">
<ele>102.655334</ele>
<time>2010-08-29T18:11:53Z</time>
<desc>lat.=55.900127, lon.=26.528612, Alt.=102.655334m. Speed=0.576000m/h.</desc>
<speed>0.160000</speed>
</trkpt>
<trkpt lat="55.900127" lon="26.528616">
<ele>102.663147</ele>
<time>2010-08-29T18:11:54Z</time>
<desc>lat.=55.900127, lon.=26.528616, Alt.=102.663147m. Speed=0.468000m/h.</desc>
<speed>0.130000</speed>
</trkpt>
<trkpt lat="55.900127" lon="26.528618">
<ele>102.669006</ele>
<time>2010-08-29T18:11:55Z</time>
<desc>lat.=55.900127, lon.=26.528618, Alt.=102.669006m. Speed=0.612000m/h.</desc>
<speed>0.170000</speed>
</trkpt>
<trkpt lat="55.900127" lon="26.528620">
<ele>102.674866</ele>
<time>2010-08-29T18:11:56Z</time>
<desc>lat.=55.900127, lon.=26.528620, Alt.=102.674866m. Speed=0.864000m/h.</desc>
<speed>0.240000</speed>
</trkpt>
<trkpt lat="55.900127" lon="26.528624">
<ele>102.680725</ele>
<time>2010-08-29T18:11:57Z</time>
<desc>lat.=55.900127, lon.=26.528624, Alt.=102.680725m. Speed=1.080000m/h.</desc>
<speed>0.300000</speed>
</trkpt>
<trkpt lat="55.900127" lon="26.528629">
<ele>102.684631</ele>
<time>2010-08-29T18:11:58Z</time>
<desc>lat.=55.900127, lon.=26.528629, Alt.=102.684631m. Speed=1.476000m/h.</desc>
<speed>0.410000</speed>
</trkpt>
<trkpt lat="55.900124" lon="26.528635">
<ele>102.690491</ele>
<time>2010-08-29T18:11:59Z</time>
<desc>lat.=55.900124, lon.=26.528635, Alt.=102.690491m. Speed=1.548000m/h.</desc>
<speed>0.430000</speed>
</trkpt>
<trkpt lat="55.900124" lon="26.528641">
<ele>102.694397</ele>
<time>2010-08-29T18:12:00Z</time>
<desc>lat.=55.900124, lon.=26.528641, Alt.=102.694397m. Speed=1.728000m/h.</desc>
<speed>0.480000</speed>
</trkpt>
<trkpt lat="55.900120" lon="26.528648">
<ele>102.700256</ele>
<time>2010-08-29T18:12:01Z</time>
<desc>lat.=55.900120, lon.=26.528648, Alt.=102.700256m. Speed=2.232000m/h.</desc>
<speed>0.620000</speed>
</trkpt>
<trkpt lat="55.900120" lon="26.528660">
<ele>102.706116</ele>
<time>2010-08-29T18:12:02Z</time>
<desc>lat.=55.900120, lon.=26.528660, Alt.=102.706116m. Speed=2.736000m/h.</desc>
<speed>0.760000</speed>
</trkpt>
<trkpt lat="55.900124" lon="26.528673">
<ele>102.713928</ele>
<time>2010-08-29T18:12:03Z</time>
<desc>lat.=55.900124, lon.=26.528673, Alt.=102.713928m. Speed=3.240000m/h.</desc>
<speed>0.900000</speed>
</trkpt>
<trkpt lat="55.900124" lon="26.528688">
<ele>102.723694</ele>
<time>2010-08-29T18:12:04Z</time>
<desc>lat.=55.900124, lon.=26.528688, Alt.=102.723694m. Speed=3.636000m/h.</desc>
<speed>1.010000</speed>
</trkpt>
<trkpt lat="55.900120" lon="26.528749">
<ele>102.786194</ele>
<time>2010-08-29T18:12:05Z</time>
<desc>lat.=55.900120, lon.=26.528749, Alt.=102.786194m. Speed=3.636000m/h.</desc>
<speed>1.010000</speed>
</trkpt>
<trkpt lat="55.900108" lon="26.528824">
<ele>102.852600</ele>
<time>2010-08-29T18:12:06Z</time>
<desc>lat.=55.900108, lon.=26.528824, Alt.=102.852600m. Speed=3.996000m/h.</desc>
<speed>1.110000</speed>
</trkpt>
<trkpt lat="55.900101" lon="26.528864">
<ele>102.909241</ele>
<time>2010-08-29T18:12:07Z</time>
<desc>lat.=55.900101, lon.=26.528864, Alt.=102.909241m. Speed=3.888000m/h.</desc>
<speed>1.080000</speed>
</trkpt>
<trkpt lat="55.900089" lon="26.528923">
<ele>102.952209</ele>
<time>2010-08-29T18:12:08Z</time>
<desc>lat.=55.900089, lon.=26.528923, Alt.=102.952209m. Speed=4.068000m/h.</desc>
<speed>1.130000</speed>
</trkpt>
<trkpt lat="55.900074" lon="26.528969">
<ele>103.008850</ele>
<time>2010-08-29T18:12:09Z</time>
<desc>lat.=55.900074, lon.=26.528969, Alt.=103.008850m. Speed=4.572000m/h.</desc>
<speed>1.270000</speed>
</trkpt>
<trkpt lat="55.900070" lon="26.529001">
<ele>103.001038</ele>
<time>2010-08-29T18:12:10Z</time>
<desc>lat.=55.900070, lon.=26.529001, Alt.=103.001038m. Speed=4.392000m/h.</desc>
<speed>1.220000</speed>
</trkpt>
<trkpt lat="55.900059" lon="26.529045">
<ele>102.995178</ele>
<time>2010-08-29T18:12:11Z</time>
<desc>lat.=55.900059, lon.=26.529045, Alt.=102.995178m. Speed=4.752000m/h.</desc>
<speed>1.320000</speed>
</trkpt>
<trkpt lat="55.900055" lon="26.529079">
<ele>103.002991</ele>
<time>2010-08-29T18:12:12Z</time>
<desc>lat.=55.900055, lon.=26.529079, Alt.=103.002991m. Speed=4.932000m/h.</desc>
<speed>1.370000</speed>
</trkpt>
<trkpt lat="55.900040" lon="26.529131">
<ele>102.999084</ele>
<time>2010-08-29T18:12:13Z</time>
<desc>lat.=55.900040, lon.=26.529131, Alt.=102.999084m. Speed=5.148000m/h.</desc>
<speed>1.430000</speed>
</trkpt>
<trkpt lat="55.900028" lon="26.529171">
<ele>103.040100</ele>
<time>2010-08-29T18:12:14Z</time>
<desc>lat.=55.900028, lon.=26.529171, Alt.=103.040100m. Speed=5.184000m/h.</desc>
<speed>1.440000</speed>
</trkpt>
<trkpt lat="55.900017" lon="26.529234">
<ele>103.057678</ele>
<time>2010-08-29T18:12:15Z</time>
<desc>lat.=55.900017, lon.=26.529234, Alt.=103.057678m. Speed=5.400000m/h.</desc>
<speed>1.500000</speed>
</trkpt>
<trkpt lat="55.900021" lon="26.529404">
<ele>102.690491</ele>
<time>2010-08-29T18:12:16Z</time>
<desc>lat.=55.900021, lon.=26.529404, Alt.=102.690491m. Speed=4.176000m/h.</desc>
<speed>1.160000</speed>
</trkpt>
<trkpt lat="55.900021" lon="26.529488">
<ele>102.530334</ele>
<time>2010-08-29T18:12:17Z</time>
<desc>lat.=55.900021, lon.=26.529488, Alt.=102.530334m. Speed=3.492000m/h.</desc>
<speed>0.970000</speed>
</trkpt>
<trkpt lat="55.900024" lon="26.529522">
<ele>102.432678</ele>
<time>2010-08-29T18:12:18Z</time>
<desc>lat.=55.900024, lon.=26.529522, Alt.=102.432678m. Speed=2.520000m/h.</desc>
<speed>0.700000</speed>
</trkpt>
<trkpt lat="55.900059" lon="26.529524">
<ele>101.754944</ele>
<time>2010-08-29T18:12:19Z</time>
<desc>lat.=55.900059, lon.=26.529524, Alt.=101.754944m. Speed=1.692000m/h.</desc>
<speed>0.470000</speed>
</trkpt>
<trkpt lat="55.900063" lon="26.529526">
<ele>101.756897</ele>
<time>2010-08-29T18:12:20Z</time>
<desc>lat.=55.900063, lon.=26.529526, Alt.=101.756897m. Speed=1.080000m/h.</desc>
<speed>0.300000</speed>
</trkpt>
<trkpt lat="55.900078" lon="26.529491">
<ele>101.733459</ele>
<time>2010-08-29T18:12:21Z</time>
<desc>lat.=55.900078, lon.=26.529491, Alt.=101.733459m. Speed=0.972000m/h.</desc>
<speed>0.270000</speed>
</trkpt>
<trkpt lat="55.900085" lon="26.529482">
<ele>101.717834</ele>
<time>2010-08-29T18:12:22Z</time>
<desc>lat.=55.900085, lon.=26.529482, Alt.=101.717834m. Speed=0.936000m/h.</desc>
<speed>0.260000</speed>
</trkpt>
<trkpt lat="55.900097" lon="26.529472">
<ele>101.829163</ele>
<time>2010-08-29T18:12:23Z</time>
<desc>lat.=55.900097, lon.=26.529472, Alt.=101.829163m. Speed=0.972000m/h.</desc>
<speed>0.270000</speed>
</trkpt>
<trkpt lat="55.900097" lon="26.529455">
<ele>102.028381</ele>
<time>2010-08-29T18:12:24Z</time>
<desc>lat.=55.900097, lon.=26.529455, Alt.=102.028381m. Speed=0.864000m/h.</desc>
<speed>0.240000</speed>
</trkpt>
<trkpt lat="55.900097" lon="26.529453">
<ele>102.034241</ele>
<time>2010-08-29T18:12:25Z</time>
<desc>lat.=55.900097, lon.=26.529453, Alt.=102.034241m. Speed=0.900000m/h.</desc>
<speed>0.250000</speed>
</trkpt>
<trkpt lat="55.900097" lon="26.529449">
<ele>102.034241</ele>
<time>2010-08-29T18:12:26Z</time>
<desc>lat.=55.900097, lon.=26.529449, Alt.=102.034241m. Speed=0.864000m/h.</desc>
<speed>0.240000</speed>
</trkpt>
<trkpt lat="55.900093" lon="26.529446">
<ele>102.036194</ele>
<time>2010-08-29T18:12:27Z</time>
<desc>lat.=55.900093, lon.=26.529446, Alt.=102.036194m. Speed=0.936000m/h.</desc>
<speed>0.260000</speed>
</trkpt>
<trkpt lat="55.900093" lon="26.529442">
<ele>102.036194</ele>
<time>2010-08-29T18:12:28Z</time>
<desc>lat.=55.900093, lon.=26.529442, Alt.=102.036194m. Speed=1.044000m/h.</desc>
<speed>0.290000</speed>
</trkpt>
<trkpt lat="55.900097" lon="26.529436">
<ele>102.036194</ele>
<time>2010-08-29T18:12:29Z</time>
<desc>lat.=55.900097, lon.=26.529436, Alt.=102.036194m. Speed=1.296000m/h.</desc>
<speed>0.360000</speed>
</trkpt>
<trkpt lat="55.900108" lon="26.529427">
<ele>102.040100</ele>
<time>2010-08-29T18:12:30Z</time>
<desc>lat.=55.900108, lon.=26.529427, Alt.=102.040100m. Speed=1.728000m/h.</desc>
<speed>0.480000</speed>
</trkpt>
<trkpt lat="55.900150" lon="26.529398">
<ele>102.040100</ele>
<time>2010-08-29T18:12:31Z</time>
<desc>lat.=55.900150, lon.=26.529398, Alt.=102.040100m. Speed=2.412000m/h.</desc>
<speed>0.670000</speed>
</trkpt>
<trkpt lat="55.900162" lon="26.529402">
<ele>102.006897</ele>
<time>2010-08-29T18:12:32Z</time>
<desc>lat.=55.900162, lon.=26.529402, Alt.=102.006897m. Speed=2.484000m/h.</desc>
<speed>0.690000</speed>
</trkpt>
<trkpt lat="55.900196" lon="26.529358">
<ele>102.024475</ele>
<time>2010-08-29T18:12:33Z</time>
<desc>lat.=55.900196, lon.=26.529358, Alt.=102.024475m. Speed=0.684000m/h.</desc>
<speed>0.190000</speed>
</trkpt>
<trkpt lat="55.900211" lon="26.529348">
<ele>102.110413</ele>
<time>2010-08-29T18:12:34Z</time>
<desc>lat.=55.900211, lon.=26.529348, Alt.=102.110413m. Speed=1.440000m/h.</desc>
<speed>0.400000</speed>
</trkpt>
<trkpt lat="55.900223" lon="26.529337">
<ele>102.153381</ele>
<time>2010-08-29T18:12:35Z</time>
<desc>lat.=55.900223, lon.=26.529337, Alt.=102.153381m. Speed=1.188000m/h.</desc>
<speed>0.330000</speed>
</trkpt>
<trkpt lat="55.900223" lon="26.529331">
<ele>102.196350</ele>
<time>2010-08-29T18:12:36Z</time>
<desc>lat.=55.900223, lon.=26.529331, Alt.=102.196350m. Speed=1.116000m/h.</desc>
<speed>0.310000</speed>
</trkpt>
<trkpt lat="55.900227" lon="26.529325">
<ele>102.223694</ele>
<time>2010-08-29T18:12:37Z</time>
<desc>lat.=55.900227, lon.=26.529325, Alt.=102.223694m. Speed=0.828000m/h.</desc>
<speed>0.230000</speed>
</trkpt>
<trkpt lat="55.900230" lon="26.529318">
<ele>102.245178</ele>
<time>2010-08-29T18:12:38Z</time>
<desc>lat.=55.900230, lon.=26.529318, Alt.=102.245178m. Speed=0.792000m/h.</desc>
<speed>0.220000</speed>
</trkpt>
<trkpt lat="55.900234" lon="26.529306">
<ele>102.264709</ele>
<time>2010-08-29T18:12:39Z</time>
<desc>lat.=55.900234, lon.=26.529306, Alt.=102.264709m. Speed=0.936000m/h.</desc>
<speed>0.260000</speed>
</trkpt>
<trkpt lat="55.900238" lon="26.529297">
<ele>102.260803</ele>
<time>2010-08-29T18:12:40Z</time>
<desc>lat.=55.900238, lon.=26.529297, Alt.=102.260803m. Speed=0.900000m/h.</desc>
<speed>0.250000</speed>
</trkpt>
<trkpt lat="55.900238" lon="26.529291">
<ele>102.262756</ele>
<time>2010-08-29T18:12:41Z</time>
<desc>lat.=55.900238, lon.=26.529291, Alt.=102.262756m. Speed=1.080000m/h.</desc>
<speed>0.300000</speed>
</trkpt>
<trkpt lat="55.900249" lon="26.529280">
<ele>102.258850</ele>
<time>2010-08-29T18:12:42Z</time>
<desc>lat.=55.900249, lon.=26.529280, Alt.=102.258850m. Speed=1.656000m/h.</desc>
<speed>0.460000</speed>
</trkpt>
<trkpt lat="55.900261" lon="26.529259">
<ele>102.256897</ele>
<time>2010-08-29T18:12:43Z</time>
<desc>lat.=55.900261, lon.=26.529259, Alt.=102.256897m. Speed=1.764000m/h.</desc>
<speed>0.490000</speed>
</trkpt>
<trkpt lat="55.900269" lon="26.529249">
<ele>102.239319</ele>
<time>2010-08-29T18:12:44Z</time>
<desc>lat.=55.900269, lon.=26.529249, Alt.=102.239319m. Speed=1.836000m/h.</desc>
<speed>0.510000</speed>
</trkpt>
<trkpt lat="55.900276" lon="26.529245">
<ele>102.237366</ele>
<time>2010-08-29T18:12:45Z</time>
<desc>lat.=55.900276, lon.=26.529245, Alt.=102.237366m. Speed=1.764000m/h.</desc>
<speed>0.490000</speed>
</trkpt>
<trkpt lat="55.900288" lon="26.529245">
<ele>102.192444</ele>
<time>2010-08-29T18:12:46Z</time>
<desc>lat.=55.900288, lon.=26.529245, Alt.=102.192444m. Speed=1.656000m/h.</desc>
<speed>0.460000</speed>
</trkpt>
<trkpt lat="55.900311" lon="26.529224">
<ele>102.194397</ele>
<time>2010-08-29T18:12:47Z</time>
<desc>lat.=55.900311, lon.=26.529224, Alt.=102.194397m. Speed=1.908000m/h.</desc>
<speed>0.530000</speed>
</trkpt>
<trkpt lat="55.900326" lon="26.529163">
<ele>102.372131</ele>
<time>2010-08-29T18:12:48Z</time>
<desc>lat.=55.900326, lon.=26.529163, Alt.=102.372131m. Speed=1.944000m/h.</desc>
<speed>0.540000</speed>
</trkpt>
<trkpt lat="55.900330" lon="26.529144">
<ele>102.389709</ele>
<time>2010-08-29T18:12:49Z</time>
<desc>lat.=55.900330, lon.=26.529144, Alt.=102.389709m. Speed=2.016000m/h.</desc>
<speed>0.560000</speed>
</trkpt>
<trkpt lat="55.900337" lon="26.529121">
<ele>102.479553</ele>
<time>2010-08-29T18:12:50Z</time>
<desc>lat.=55.900337, lon.=26.529121, Alt.=102.479553m. Speed=1.944000m/h.</desc>
<speed>0.540000</speed>
</trkpt>
<trkpt lat="55.900337" lon="26.529106">
<ele>102.551819</ele>
<time>2010-08-29T18:12:51Z</time>
<desc>lat.=55.900337, lon.=26.529106, Alt.=102.551819m. Speed=1.584000m/h.</desc>
<speed>0.440000</speed>
</trkpt>
<trkpt lat="55.900337" lon="26.529102">
<ele>102.627991</ele>
<time>2010-08-29T18:12:52Z</time>
<desc>lat.=55.900337, lon.=26.529102, Alt.=102.627991m. Speed=1.512000m/h.</desc>
<speed>0.420000</speed>
</trkpt>
<trkpt lat="55.900337" lon="26.529100">
<ele>102.702209</ele>
<time>2010-08-29T18:12:53Z</time>
<desc>lat.=55.900337, lon.=26.529100, Alt.=102.702209m. Speed=1.332000m/h.</desc>
<speed>0.370000</speed>
</trkpt>
<trkpt lat="55.900333" lon="26.529099">
<ele>102.762756</ele>
<time>2010-08-29T18:12:54Z</time>
<desc>lat.=55.900333, lon.=26.529099, Alt.=102.762756m. Speed=1.188000m/h.</desc>
<speed>0.330000</speed>
</trkpt>
<trkpt lat="55.900333" lon="26.529091">
<ele>102.836975</ele>
<time>2010-08-29T18:12:55Z</time>
<desc>lat.=55.900333, lon.=26.529091, Alt.=102.836975m. Speed=0.792000m/h.</desc>
<speed>0.220000</speed>
</trkpt>
<trkpt lat="55.900333" lon="26.529091">
<ele>102.874084</ele>
<time>2010-08-29T18:12:56Z</time>
<desc>lat.=55.900333, lon.=26.529091, Alt.=102.874084m. Speed=0.288000m/h.</desc>
<speed>0.080000</speed>
</trkpt>
<trkpt lat="55.900333" lon="26.529089">
<ele>102.911194</ele>
<time>2010-08-29T18:12:57Z</time>
<desc>lat.=55.900333, lon.=26.529089, Alt.=102.911194m. Speed=0.864000m/h.</desc>
<speed>0.240000</speed>
</trkpt>
<trkpt lat="55.900330" lon="26.529085">
<ele>103.004944</ele>
<time>2010-08-29T18:12:58Z</time>
<desc>lat.=55.900330, lon.=26.529085, Alt.=103.004944m. Speed=0.468000m/h.</desc>
<speed>0.130000</speed>
</trkpt>
<trkpt lat="55.900330" lon="26.529083">
<ele>103.012756</ele>
<time>2010-08-29T18:12:59Z</time>
<desc>lat.=55.900330, lon.=26.529083, Alt.=103.012756m. Speed=0.540000m/h.</desc>
<speed>0.150000</speed>
</trkpt>
<trkpt lat="55.900330" lon="26.529085">
<ele>103.020569</ele>
<time>2010-08-29T18:13:00Z</time>
<desc>lat.=55.900330, lon.=26.529085, Alt.=103.020569m. Speed=0.828000m/h.</desc>
<speed>0.230000</speed>
</trkpt>
<trkpt lat="55.900333" lon="26.529085">
<ele>103.034241</ele>
<time>2010-08-29T18:13:01Z</time>
<desc>lat.=55.900333, lon.=26.529085, Alt.=103.034241m. Speed=1.764000m/h.</desc>
<speed>0.490000</speed>
</trkpt>
<trkpt lat="55.900330" lon="26.529058">
<ele>103.133850</ele>
<time>2010-08-29T18:13:02Z</time>
<desc>lat.=55.900330, lon.=26.529058, Alt.=103.133850m. Speed=1.368000m/h.</desc>
<speed>0.380000</speed>
</trkpt>
<trkpt lat="55.900330" lon="26.529060">
<ele>103.122131</ele>
<time>2010-08-29T18:13:03Z</time>
<desc>lat.=55.900330, lon.=26.529060, Alt.=103.122131m. Speed=0.576000m/h.</desc>
<speed>0.160000</speed>
</trkpt>
<trkpt lat="55.900330" lon="26.529072">
<ele>103.077209</ele>
<time>2010-08-29T18:13:04Z</time>
<desc>lat.=55.900330, lon.=26.529072, Alt.=103.077209m. Speed=0.216000m/h.</desc>
<speed>0.060000</speed>
</trkpt>
<trkpt lat="55.900330" lon="26.529058">
<ele>103.124084</ele>
<time>2010-08-29T18:13:05Z</time>
<desc>lat.=55.900330, lon.=26.529058, Alt.=103.124084m. Speed=0.396000m/h.</desc>
<speed>0.110000</speed>
</trkpt>
<trkpt lat="55.900333" lon="26.529062">
<ele>103.094788</ele>
<time>2010-08-29T18:13:06Z</time>
<desc>lat.=55.900333, lon.=26.529062, Alt.=103.094788m. Speed=0.288000m/h.</desc>
<speed>0.080000</speed>
</trkpt>
<trkpt lat="55.900330" lon="26.529062">
<ele>103.094788</ele>
<time>2010-08-29T18:13:07Z</time>
<desc>lat.=55.900330, lon.=26.529062, Alt.=103.094788m. Speed=0.216000m/h.</desc>
<speed>0.060000</speed>
</trkpt>
<trkpt lat="55.900330" lon="26.529062">
<ele>103.092834</ele>
<time>2010-08-29T18:13:08Z</time>
<desc>lat.=55.900330, lon.=26.529062, Alt.=103.092834m. Speed=0.036000m/h.</desc>
<speed>0.010000</speed>
</trkpt>
<trkpt lat="55.900330" lon="26.529062">
<ele>103.088928</ele>
<time>2010-08-29T18:13:09Z</time>
<desc>lat.=55.900330, lon.=26.529062, Alt.=103.088928m. Speed=0.504000m/h.</desc>
<speed>0.140000</speed>
</trkpt>
<trkpt lat="55.900330" lon="26.529060">
<ele>103.085022</ele>
<time>2010-08-29T18:13:10Z</time>
<desc>lat.=55.900330, lon.=26.529060, Alt.=103.085022m. Speed=0.468000m/h.</desc>
<speed>0.130000</speed>
</trkpt>
<trkpt lat="55.900330" lon="26.529058">
<ele>103.081116</ele>
<time>2010-08-29T18:13:11Z</time>
<desc>lat.=55.900330, lon.=26.529058, Alt.=103.081116m. Speed=0.540000m/h.</desc>
<speed>0.150000</speed>
</trkpt>
<trkpt lat="55.900330" lon="26.529055">
<ele>103.077209</ele>
<time>2010-08-29T18:13:12Z</time>
<desc>lat.=55.900330, lon.=26.529055, Alt.=103.077209m. Speed=0.216000m/h.</desc>
<speed>0.060000</speed>
</trkpt>
<trkpt lat="55.900333" lon="26.529055">
<ele>103.073303</ele>
<time>2010-08-29T18:13:13Z</time>
<desc>lat.=55.900333, lon.=26.529055, Alt.=103.073303m. Speed=0.072000m/h.</desc>
<speed>0.020000</speed>
</trkpt>
<trkpt lat="55.900333" lon="26.529055">
<ele>103.069397</ele>
<time>2010-08-29T18:13:14Z</time>
<desc>lat.=55.900333, lon.=26.529055, Alt.=103.069397m. Speed=0.720000m/h.</desc>
<speed>0.200000</speed>
</trkpt>
<trkpt lat="55.900333" lon="26.529051">
<ele>103.061584</ele>
<time>2010-08-29T18:13:15Z</time>
<desc>lat.=55.900333, lon.=26.529051, Alt.=103.061584m. Speed=0.504000m/h.</desc>
<speed>0.140000</speed>
</trkpt>
<trkpt lat="55.900333" lon="26.529049">
<ele>103.055725</ele>
<time>2010-08-29T18:13:16Z</time>
<desc>lat.=55.900333, lon.=26.529049, Alt.=103.055725m. Speed=0.648000m/h.</desc>
<speed>0.180000</speed>
</trkpt>
<trkpt lat="55.900333" lon="26.529045">
<ele>103.049866</ele>
<time>2010-08-29T18:13:17Z</time>
<desc>lat.=55.900333, lon.=26.529045, Alt.=103.049866m. Speed=0.612000m/h.</desc>
<speed>0.170000</speed>
</trkpt>
<trkpt lat="55.900333" lon="26.529043">
<ele>103.044006</ele>
<time>2010-08-29T18:13:18Z</time>
<desc>lat.=55.900333, lon.=26.529043, Alt.=103.044006m. Speed=0.360000m/h.</desc>
<speed>0.100000</speed>
</trkpt>
<trkpt lat="55.900333" lon="26.529041">
<ele>103.038147</ele>
<time>2010-08-29T18:13:19Z</time>
<desc>lat.=55.900333, lon.=26.529041, Alt.=103.038147m. Speed=0.036000m/h.</desc>
<speed>0.010000</speed>
</trkpt>
<trkpt lat="55.900333" lon="26.529041">
<ele>103.030334</ele>
<time>2010-08-29T18:13:20Z</time>
<desc>lat.=55.900333, lon.=26.529041, Alt.=103.030334m. Speed=0.036000m/h.</desc>
<speed>0.010000</speed>
</trkpt>
<trkpt lat="55.900333" lon="26.529041">
<ele>103.024475</ele>
<time>2010-08-29T18:13:21Z</time>
<desc>lat.=55.900333, lon.=26.529041, Alt.=103.024475m. Speed=0.216000m/h.</desc>
<speed>0.060000</speed>
</trkpt>
<trkpt lat="55.900333" lon="26.529041">
<ele>103.018616</ele>
<time>2010-08-29T18:13:22Z</time>
<desc>lat.=55.900333, lon.=26.529041, Alt.=103.018616m. Speed=0.288000m/h.</desc>
<speed>0.080000</speed>
</trkpt>
<trkpt lat="55.900333" lon="26.529039">
<ele>103.010803</ele>
<time>2010-08-29T18:13:23Z</time>
<desc>lat.=55.900333, lon.=26.529039, Alt.=103.010803m. Speed=0.612000m/h.</desc>
<speed>0.170000</speed>
</trkpt>
<trkpt lat="55.900333" lon="26.529037">
<ele>103.004944</ele>
<time>2010-08-29T18:13:24Z</time>
<desc>lat.=55.900333, lon.=26.529037, Alt.=103.004944m. Speed=0.324000m/h.</desc>
<speed>0.090000</speed>
</trkpt>
<trkpt lat="55.900333" lon="26.529036">
<ele>102.999084</ele>
<time>2010-08-29T18:13:25Z</time>
<desc>lat.=55.900333, lon.=26.529036, Alt.=102.999084m. Speed=0.180000m/h.</desc>
<speed>0.050000</speed>
</trkpt>
<trkpt lat="55.900333" lon="26.529036">
<ele>102.995178</ele>
<time>2010-08-29T18:13:26Z</time>
<desc>lat.=55.900333, lon.=26.529036, Alt.=102.995178m. Speed=0.072000m/h.</desc>
<speed>0.020000</speed>
</trkpt>
<trkpt lat="55.900333" lon="26.529036">
<ele>102.989319</ele>
<time>2010-08-29T18:13:27Z</time>
<desc>lat.=55.900333, lon.=26.529036, Alt.=102.989319m. Speed=0.504000m/h.</desc>
<speed>0.140000</speed>
</trkpt>
<trkpt lat="55.900333" lon="26.529034">
<ele>102.979553</ele>
<time>2010-08-29T18:13:28Z</time>
<desc>lat.=55.900333, lon.=26.529034, Alt.=102.979553m. Speed=0.504000m/h.</desc>
<speed>0.140000</speed>
</trkpt>
<trkpt lat="55.900333" lon="26.529032">
<ele>102.975647</ele>
<time>2010-08-29T18:13:29Z</time>
<desc>lat.=55.900333, lon.=26.529032, Alt.=102.975647m. Speed=0.396000m/h.</desc>
<speed>0.110000</speed>
</trkpt>
<trkpt lat="55.900337" lon="26.529032">
<ele>102.969788</ele>
<time>2010-08-29T18:13:30Z</time>
<desc>lat.=55.900337, lon.=26.529032, Alt.=102.969788m. Speed=0.252000m/h.</desc>
<speed>0.070000</speed>
</trkpt>
<trkpt lat="55.900337" lon="26.529030">
<ele>102.963928</ele>
<time>2010-08-29T18:13:31Z</time>
<desc>lat.=55.900337, lon.=26.529030, Alt.=102.963928m. Speed=0.036000m/h.</desc>
<speed>0.010000</speed>
</trkpt>
<trkpt lat="55.900337" lon="26.529030">
<ele>102.960022</ele>
<time>2010-08-29T18:13:32Z</time>
<desc>lat.=55.900337, lon.=26.529030, Alt.=102.960022m. Speed=0.216000m/h.</desc>
<speed>0.060000</speed>
</trkpt>
<trkpt lat="55.900337" lon="26.529030">
<ele>102.954163</ele>
<time>2010-08-29T18:13:33Z</time>
<desc>lat.=55.900337, lon.=26.529030, Alt.=102.954163m. Speed=0.180000m/h.</desc>
<speed>0.050000</speed>
</trkpt>
<trkpt lat="55.900337" lon="26.529030">
<ele>102.948303</ele>
<time>2010-08-29T18:13:34Z</time>
<desc>lat.=55.900337, lon.=26.529030, Alt.=102.948303m. Speed=0.396000m/h.</desc>
<speed>0.110000</speed>
</trkpt>
<trkpt lat="55.900337" lon="26.529030">
<ele>102.942444</ele>
<time>2010-08-29T18:13:35Z</time>
<desc>lat.=55.900337, lon.=26.529030, Alt.=102.942444m. Speed=0.468000m/h.</desc>
<speed>0.130000</speed>
</trkpt>
<trkpt lat="55.900341" lon="26.529030">
<ele>102.936584</ele>
<time>2010-08-29T18:13:36Z</time>
<desc>lat.=55.900341, lon.=26.529030, Alt.=102.936584m. Speed=0.252000m/h.</desc>
<speed>0.070000</speed>
</trkpt>
<trkpt lat="55.900341" lon="26.529028">
<ele>102.930725</ele>
<time>2010-08-29T18:13:37Z</time>
<desc>lat.=55.900341, lon.=26.529028, Alt.=102.930725m. Speed=0.324000m/h.</desc>
<speed>0.090000</speed>
</trkpt>
<trkpt lat="55.900341" lon="26.529028">
<ele>102.924866</ele>
<time>2010-08-29T18:13:38Z</time>
<desc>lat.=55.900341, lon.=26.529028, Alt.=102.924866m. Speed=0.144000m/h.</desc>
<speed>0.040000</speed>
</trkpt>
<trkpt lat="55.900341" lon="26.529028">
<ele>102.917053</ele>
<time>2010-08-29T18:13:39Z</time>
<desc>lat.=55.900341, lon.=26.529028, Alt.=102.917053m. Speed=0.360000m/h.</desc>
<speed>0.100000</speed>
</trkpt>
<trkpt lat="55.900341" lon="26.529028">
<ele>102.907288</ele>
<time>2010-08-29T18:13:40Z</time>
<desc>lat.=55.900341, lon.=26.529028, Alt.=102.907288m. Speed=0.468000m/h.</desc>
<speed>0.130000</speed>
</trkpt>
<trkpt lat="55.900337" lon="26.529030">
<ele>102.895569</ele>
<time>2010-08-29T18:13:41Z</time>
<desc>lat.=55.900337, lon.=26.529030, Alt.=102.895569m. Speed=0.504000m/h.</desc>
<speed>0.140000</speed>
</trkpt>
<trkpt lat="55.900337" lon="26.529032">
<ele>102.887756</ele>
<time>2010-08-29T18:13:42Z</time>
<desc>lat.=55.900337, lon.=26.529032, Alt.=102.887756m. Speed=0.396000m/h.</desc>
<speed>0.110000</speed>
</trkpt>
<trkpt lat="55.900337" lon="26.529032">
<ele>102.877991</ele>
<time>2010-08-29T18:13:43Z</time>
<desc>lat.=55.900337, lon.=26.529032, Alt.=102.877991m. Speed=0.576000m/h.</desc>
<speed>0.160000</speed>
</trkpt>
<trkpt lat="55.900337" lon="26.529032">
<ele>102.868225</ele>
<time>2010-08-29T18:13:44Z</time>
<desc>lat.=55.900337, lon.=26.529032, Alt.=102.868225m. Speed=0.468000m/h.</desc>
<speed>0.130000</speed>
</trkpt>
<trkpt lat="55.900333" lon="26.529032">
<ele>102.858459</ele>
<time>2010-08-29T18:13:45Z</time>
<desc>lat.=55.900333, lon.=26.529032, Alt.=102.858459m. Speed=0.216000m/h.</desc>
<speed>0.060000</speed>
</trkpt>
<trkpt lat="55.900333" lon="26.529032">
<ele>102.846741</ele>
<time>2010-08-29T18:13:46Z</time>
<desc>lat.=55.900333, lon.=26.529032, Alt.=102.846741m. Speed=0.360000m/h.</desc>
<speed>0.100000</speed>
</trkpt>
<trkpt lat="55.900333" lon="26.529032">
<ele>102.836975</ele>
<time>2010-08-29T18:13:47Z</time>
<desc>lat.=55.900333, lon.=26.529032, Alt.=102.836975m. Speed=0.684000m/h.</desc>
<speed>0.190000</speed>
</trkpt>
<trkpt lat="55.900330" lon="26.529034">
<ele>102.827209</ele>
<time>2010-08-29T18:13:48Z</time>
<desc>lat.=55.900330, lon.=26.529034, Alt.=102.827209m. Speed=0.648000m/h.</desc>
<speed>0.180000</speed>
</trkpt>
<trkpt lat="55.900330" lon="26.529034">
<ele>102.817444</ele>
<time>2010-08-29T18:13:49Z</time>
<desc>lat.=55.900330, lon.=26.529034, Alt.=102.817444m. Speed=0.576000m/h.</desc>
<speed>0.160000</speed>
</trkpt>
<trkpt lat="55.900326" lon="26.529034">
<ele>102.805725</ele>
<time>2010-08-29T18:13:50Z</time>
<desc>lat.=55.900326, lon.=26.529034, Alt.=102.805725m. Speed=0.900000m/h.</desc>
<speed>0.250000</speed>
</trkpt>
<trkpt lat="55.900326" lon="26.529036">
<ele>102.794006</ele>
<time>2010-08-29T18:13:51Z</time>
<desc>lat.=55.900326, lon.=26.529036, Alt.=102.794006m. Speed=0.792000m/h.</desc>
<speed>0.220000</speed>
</trkpt>
<trkpt lat="55.900322" lon="26.529037">
<ele>102.784241</ele>
<time>2010-08-29T18:13:52Z</time>
<desc>lat.=55.900322, lon.=26.529037, Alt.=102.784241m. Speed=0.936000m/h.</desc>
<speed>0.260000</speed>
</trkpt>
<trkpt lat="55.900322" lon="26.529039">
<ele>102.772522</ele>
<time>2010-08-29T18:13:53Z</time>
<desc>lat.=55.900322, lon.=26.529039, Alt.=102.772522m. Speed=1.008000m/h.</desc>
<speed>0.280000</speed>
</trkpt>
<trkpt lat="55.900318" lon="26.529037">
<ele>102.760803</ele>
<time>2010-08-29T18:13:54Z</time>
<desc>lat.=55.900318, lon.=26.529037, Alt.=102.760803m. Speed=0.936000m/h.</desc>
<speed>0.260000</speed>
</trkpt>
<trkpt lat="55.900318" lon="26.529036">
<ele>102.747131</ele>
<time>2010-08-29T18:13:55Z</time>
<desc>lat.=55.900318, lon.=26.529036, Alt.=102.747131m. Speed=0.864000m/h.</desc>
<speed>0.240000</speed>
</trkpt>
<trkpt lat="55.900314" lon="26.529036">
<ele>102.733459</ele>
<time>2010-08-29T18:13:56Z</time>
<desc>lat.=55.900314, lon.=26.529036, Alt.=102.733459m. Speed=1.188000m/h.</desc>
<speed>0.330000</speed>
</trkpt>
<trkpt lat="55.900307" lon="26.529030">
<ele>102.540100</ele>
<time>2010-08-29T18:13:57Z</time>
<desc>lat.=55.900307, lon.=26.529030, Alt.=102.540100m. Speed=1.332000m/h.</desc>
<speed>0.370000</speed>
</trkpt>
<trkpt lat="55.900299" lon="26.529034">
<ele>102.344788</ele>
<time>2010-08-29T18:13:58Z</time>
<desc>lat.=55.900299, lon.=26.529034, Alt.=102.344788m. Speed=1.116000m/h.</desc>
<speed>0.310000</speed>
</trkpt>
<trkpt lat="55.900299" lon="26.529041">
<ele>102.194397</ele>
<time>2010-08-29T18:13:59Z</time>
<desc>lat.=55.900299, lon.=26.529041, Alt.=102.194397m. Speed=0.972000m/h.</desc>
<speed>0.270000</speed>
</trkpt>
<trkpt lat="55.900291" lon="26.529032">
<ele>101.985413</ele>
<time>2010-08-29T18:14:00Z</time>
<desc>lat.=55.900291, lon.=26.529032, Alt.=101.985413m. Speed=0.900000m/h.</desc>
<speed>0.250000</speed>
</trkpt>
<trkpt lat="55.900288" lon="26.529030">
<ele>101.768616</ele>
<time>2010-08-29T18:14:01Z</time>
<desc>lat.=55.900288, lon.=26.529030, Alt.=101.768616m. Speed=0.792000m/h.</desc>
<speed>0.220000</speed>
</trkpt>
<trkpt lat="55.900284" lon="26.529011">
<ele>101.624084</ele>
<time>2010-08-29T18:14:02Z</time>
<desc>lat.=55.900284, lon.=26.529011, Alt.=101.624084m. Speed=0.720000m/h.</desc>
<speed>0.200000</speed>
</trkpt>
<trkpt lat="55.900280" lon="26.529011">
<ele>101.608459</ele>
<time>2010-08-29T18:14:03Z</time>
<desc>lat.=55.900280, lon.=26.529011, Alt.=101.608459m. Speed=1.080000m/h.</desc>
<speed>0.300000</speed>
</trkpt>
<trkpt lat="55.900269" lon="26.529016">
<ele>101.182678</ele>
<time>2010-08-29T18:14:04Z</time>
<desc>lat.=55.900269, lon.=26.529016, Alt.=101.182678m. Speed=0.972000m/h.</desc>
<speed>0.270000</speed>
</trkpt>
<trkpt lat="55.900261" lon="26.529020">
<ele>100.858459</ele>
<time>2010-08-29T18:14:05Z</time>
<desc>lat.=55.900261, lon.=26.529020, Alt.=100.858459m. Speed=1.080000m/h.</desc>
<speed>0.300000</speed>
</trkpt>
<trkpt lat="55.900249" lon="26.529009">
<ele>100.565491</ele>
<time>2010-08-29T18:14:06Z</time>
<desc>lat.=55.900249, lon.=26.529009, Alt.=100.565491m. Speed=1.044000m/h.</desc>
<speed>0.290000</speed>
</trkpt>
<trkpt lat="55.900253" lon="26.528994">
<ele>100.848694</ele>
<time>2010-08-29T18:14:07Z</time>
<desc>lat.=55.900253, lon.=26.528994, Alt.=100.848694m. Speed=0.900000m/h.</desc>
<speed>0.250000</speed>
</trkpt>
<trkpt lat="55.900257" lon="26.528975">
<ele>101.090881</ele>
<time>2010-08-29T18:14:08Z</time>
<desc>lat.=55.900257, lon.=26.528975, Alt.=101.090881m. Speed=0.936000m/h.</desc>
<speed>0.260000</speed>
</trkpt>
<trkpt lat="55.900257" lon="26.528955">
<ele>101.002991</ele>
<time>2010-08-29T18:14:09Z</time>
<desc>lat.=55.900257, lon.=26.528955, Alt.=101.002991m. Speed=1.044000m/h.</desc>
<speed>0.290000</speed>
</trkpt>
<trkpt lat="55.900253" lon="26.528954">
<ele>100.987366</ele>
<time>2010-08-29T18:14:10Z</time>
<desc>lat.=55.900253, lon.=26.528954, Alt.=100.987366m. Speed=1.044000m/h.</desc>
<speed>0.290000</speed>
</trkpt>
<trkpt lat="55.900249" lon="26.528950">
<ele>100.971741</ele>
<time>2010-08-29T18:14:11Z</time>
<desc>lat.=55.900249, lon.=26.528950, Alt.=100.971741m. Speed=0.792000m/h.</desc>
<speed>0.220000</speed>
</trkpt>
<trkpt lat="55.900249" lon="26.528948">
<ele>100.958069</ele>
<time>2010-08-29T18:14:12Z</time>
<desc>lat.=55.900249, lon.=26.528948, Alt.=100.958069m. Speed=0.576000m/h.</desc>
<speed>0.160000</speed>
</trkpt>
<trkpt lat="55.900249" lon="26.528946">
<ele>100.948303</ele>
<time>2010-08-29T18:14:13Z</time>
<desc>lat.=55.900249, lon.=26.528946, Alt.=100.948303m. Speed=0.468000m/h.</desc>
<speed>0.130000</speed>
</trkpt>
<trkpt lat="55.900249" lon="26.528944">
<ele>100.938538</ele>
<time>2010-08-29T18:14:14Z</time>
<desc>lat.=55.900249, lon.=26.528944, Alt.=100.938538m. Speed=0.288000m/h.</desc>
<speed>0.080000</speed>
</trkpt>
<trkpt lat="55.900249" lon="26.528942">
<ele>100.922913</ele>
<time>2010-08-29T18:14:15Z</time>
<desc>lat.=55.900249, lon.=26.528942, Alt.=100.922913m. Speed=0.324000m/h.</desc>
<speed>0.090000</speed>
</trkpt>
<trkpt lat="55.900249" lon="26.528940">
<ele>100.915100</ele>
<time>2010-08-29T18:14:16Z</time>
<desc>lat.=55.900249, lon.=26.528940, Alt.=100.915100m. Speed=0.684000m/h.</desc>
<speed>0.190000</speed>
</trkpt>
<trkpt lat="55.900249" lon="26.528938">
<ele>100.911194</ele>
<time>2010-08-29T18:14:17Z</time>
<desc>lat.=55.900249, lon.=26.528938, Alt.=100.911194m. Speed=0.540000m/h.</desc>
<speed>0.150000</speed>
</trkpt>
<trkpt lat="55.900253" lon="26.528936">
<ele>100.905334</ele>
<time>2010-08-29T18:14:18Z</time>
<desc>lat.=55.900253, lon.=26.528936, Alt.=100.905334m. Speed=0.504000m/h.</desc>
<speed>0.140000</speed>
</trkpt>
<trkpt lat="55.900253" lon="26.528934">
<ele>100.899475</ele>
<time>2010-08-29T18:14:19Z</time>
<desc>lat.=55.900253, lon.=26.528934, Alt.=100.899475m. Speed=0.648000m/h.</desc>
<speed>0.180000</speed>
</trkpt>
<trkpt lat="55.900257" lon="26.528934">
<ele>100.897522</ele>
<time>2010-08-29T18:14:20Z</time>
<desc>lat.=55.900257, lon.=26.528934, Alt.=100.897522m. Speed=0.756000m/h.</desc>
<speed>0.210000</speed>
</trkpt>
<trkpt lat="55.900257" lon="26.528934">
<ele>100.893616</ele>
<time>2010-08-29T18:14:21Z</time>
<desc>lat.=55.900257, lon.=26.528934, Alt.=100.893616m. Speed=1.332000m/h.</desc>
<speed>0.370000</speed>
</trkpt>
<trkpt lat="55.900280" lon="26.528929">
<ele>100.946350</ele>
<time>2010-08-29T18:14:22Z</time>
<desc>lat.=55.900280, lon.=26.528929, Alt.=100.946350m. Speed=1.404000m/h.</desc>
<speed>0.390000</speed>
</trkpt>
<trkpt lat="55.900291" lon="26.528933">
<ele>100.903381</ele>
<time>2010-08-29T18:14:23Z</time>
<desc>lat.=55.900291, lon.=26.528933, Alt.=100.903381m. Speed=1.332000m/h.</desc>
<speed>0.370000</speed>
</trkpt>
<trkpt lat="55.900307" lon="26.528940">
<ele>100.829163</ele>
<time>2010-08-29T18:14:24Z</time>
<desc>lat.=55.900307, lon.=26.528940, Alt.=100.829163m. Speed=1.332000m/h.</desc>
<speed>0.370000</speed>
</trkpt>
<trkpt lat="55.900314" lon="26.528948">
<ele>100.844788</ele>
<time>2010-08-29T18:14:25Z</time>
<desc>lat.=55.900314, lon.=26.528948, Alt.=100.844788m. Speed=1.188000m/h.</desc>
<speed>0.330000</speed>
</trkpt>
<trkpt lat="55.900322" lon="26.528959">
<ele>100.842834</ele>
<time>2010-08-29T18:14:26Z</time>
<desc>lat.=55.900322, lon.=26.528959, Alt.=100.842834m. Speed=1.044000m/h.</desc>
<speed>0.290000</speed>
</trkpt>
<trkpt lat="55.900333" lon="26.528965">
<ele>100.999084</ele>
<time>2010-08-29T18:14:27Z</time>
<desc>lat.=55.900333, lon.=26.528965, Alt.=100.999084m. Speed=1.116000m/h.</desc>
<speed>0.310000</speed>
</trkpt>
<trkpt lat="55.900345" lon="26.528969">
<ele>101.184631</ele>
<time>2010-08-29T18:14:28Z</time>
<desc>lat.=55.900345, lon.=26.528969, Alt.=101.184631m. Speed=1.152000m/h.</desc>
<speed>0.320000</speed>
</trkpt>
<trkpt lat="55.900352" lon="26.528975">
<ele>101.245178</ele>
<time>2010-08-29T18:14:29Z</time>
<desc>lat.=55.900352, lon.=26.528975, Alt.=101.245178m. Speed=0.864000m/h.</desc>
<speed>0.240000</speed>
</trkpt>
<trkpt lat="55.900356" lon="26.528988">
<ele>101.460022</ele>
<time>2010-08-29T18:14:30Z</time>
<desc>lat.=55.900356, lon.=26.528988, Alt.=101.460022m. Speed=0.972000m/h.</desc>
<speed>0.270000</speed>
</trkpt>
<trkpt lat="55.900364" lon="26.528986">
<ele>101.501038</ele>
<time>2010-08-29T18:14:31Z</time>
<desc>lat.=55.900364, lon.=26.528986, Alt.=101.501038m. Speed=1.008000m/h.</desc>
<speed>0.280000</speed>
</trkpt>
<trkpt lat="55.900368" lon="26.528992">
<ele>101.448303</ele>
<time>2010-08-29T18:14:32Z</time>
<desc>lat.=55.900368, lon.=26.528992, Alt.=101.448303m. Speed=0.864000m/h.</desc>
<speed>0.240000</speed>
</trkpt>
<trkpt lat="55.900372" lon="26.528992">
<ele>101.463928</ele>
<time>2010-08-29T18:14:33Z</time>
<desc>lat.=55.900372, lon.=26.528992, Alt.=101.463928m. Speed=0.972000m/h.</desc>
<speed>0.270000</speed>
</trkpt>
<trkpt lat="55.900372" lon="26.528992">
<ele>101.477600</ele>
<time>2010-08-29T18:14:34Z</time>
<desc>lat.=55.900372, lon.=26.528992, Alt.=101.477600m. Speed=0.828000m/h.</desc>
<speed>0.230000</speed>
</trkpt>
<trkpt lat="55.900375" lon="26.528994">
<ele>101.487366</ele>
<time>2010-08-29T18:14:35Z</time>
<desc>lat.=55.900375, lon.=26.528994, Alt.=101.487366m. Speed=0.576000m/h.</desc>
<speed>0.160000</speed>
</trkpt>
<trkpt lat="55.900375" lon="26.528996">
<ele>101.495178</ele>
<time>2010-08-29T18:14:36Z</time>
<desc>lat.=55.900375, lon.=26.528996, Alt.=101.495178m. Speed=0.216000m/h.</desc>
<speed>0.060000</speed>
</trkpt>
<trkpt lat="55.900375" lon="26.528996">
<ele>101.501038</ele>
<time>2010-08-29T18:14:37Z</time>
<desc>lat.=55.900375, lon.=26.528996, Alt.=101.501038m. Speed=0.504000m/h.</desc>
<speed>0.140000</speed>
</trkpt>
<trkpt lat="55.900379" lon="26.528997">
<ele>101.508850</ele>
<time>2010-08-29T18:14:38Z</time>
<desc>lat.=55.900379, lon.=26.528997, Alt.=101.508850m. Speed=0.504000m/h.</desc>
<speed>0.140000</speed>
</trkpt>
<trkpt lat="55.900379" lon="26.528997">
<ele>101.518616</ele>
<time>2010-08-29T18:14:39Z</time>
<desc>lat.=55.900379, lon.=26.528997, Alt.=101.518616m. Speed=0.252000m/h.</desc>
<speed>0.070000</speed>
</trkpt>
<trkpt lat="55.900379" lon="26.528999">
<ele>101.528381</ele>
<time>2010-08-29T18:14:40Z</time>
<desc>lat.=55.900379, lon.=26.528999, Alt.=101.528381m. Speed=0.216000m/h.</desc>
<speed>0.060000</speed>
</trkpt>
<trkpt lat="55.900379" lon="26.528999">
<ele>101.538147</ele>
<time>2010-08-29T18:14:41Z</time>
<desc>lat.=55.900379, lon.=26.528999, Alt.=101.538147m. Speed=0.216000m/h.</desc>
<speed>0.060000</speed>
</trkpt>
<trkpt lat="55.900379" lon="26.529001">
<ele>101.545959</ele>
<time>2010-08-29T18:14:42Z</time>
<desc>lat.=55.900379, lon.=26.529001, Alt.=101.545959m. Speed=0.252000m/h.</desc>
<speed>0.070000</speed>
</trkpt>
<trkpt lat="55.900379" lon="26.529003">
<ele>101.559631</ele>
<time>2010-08-29T18:14:43Z</time>
<desc>lat.=55.900379, lon.=26.529003, Alt.=101.559631m. Speed=0.432000m/h.</desc>
<speed>0.120000</speed>
</trkpt>
<trkpt lat="55.900379" lon="26.529005">
<ele>101.569397</ele>
<time>2010-08-29T18:14:44Z</time>
<desc>lat.=55.900379, lon.=26.529005, Alt.=101.569397m. Speed=0.648000m/h.</desc>
<speed>0.180000</speed>
</trkpt>
<trkpt lat="55.900379" lon="26.529007">
<ele>101.581116</ele>
<time>2010-08-29T18:14:45Z</time>
<desc>lat.=55.900379, lon.=26.529007, Alt.=101.581116m. Speed=0.612000m/h.</desc>
<speed>0.170000</speed>
</trkpt>
<trkpt lat="55.900379" lon="26.529011">
<ele>101.592834</ele>
<time>2010-08-29T18:14:46Z</time>
<desc>lat.=55.900379, lon.=26.529011, Alt.=101.592834m. Speed=0.432000m/h.</desc>
<speed>0.120000</speed>
</trkpt>
<trkpt lat="55.900379" lon="26.529013">
<ele>101.606506</ele>
<time>2010-08-29T18:14:47Z</time>
<desc>lat.=55.900379, lon.=26.529013, Alt.=101.606506m. Speed=0.468000m/h.</desc>
<speed>0.130000</speed>
</trkpt>
<trkpt lat="55.900379" lon="26.529015">
<ele>101.614319</ele>
<time>2010-08-29T18:14:48Z</time>
<desc>lat.=55.900379, lon.=26.529015, Alt.=101.614319m. Speed=0.252000m/h.</desc>
<speed>0.070000</speed>
</trkpt>
<trkpt lat="55.900379" lon="26.529016">
<ele>101.624084</ele>
<time>2010-08-29T18:14:49Z</time>
<desc>lat.=55.900379, lon.=26.529016, Alt.=101.624084m. Speed=0.324000m/h.</desc>
<speed>0.090000</speed>
</trkpt>
<trkpt lat="55.900379" lon="26.529016">
<ele>101.629944</ele>
<time>2010-08-29T18:14:50Z</time>
<desc>lat.=55.900379, lon.=26.529016, Alt.=101.629944m. Speed=0.396000m/h.</desc>
<speed>0.110000</speed>
</trkpt>
<trkpt lat="55.900379" lon="26.529018">
<ele>101.635803</ele>
<time>2010-08-29T18:14:51Z</time>
<desc>lat.=55.900379, lon.=26.529018, Alt.=101.635803m. Speed=0.180000m/h.</desc>
<speed>0.050000</speed>
</trkpt>
<trkpt lat="55.900379" lon="26.529020">
<ele>101.635803</ele>
<time>2010-08-29T18:14:52Z</time>
<desc>lat.=55.900379, lon.=26.529020, Alt.=101.635803m. Speed=0.288000m/h.</desc>
<speed>0.080000</speed>
</trkpt>
<trkpt lat="55.900379" lon="26.529020">
<ele>101.633850</ele>
<time>2010-08-29T18:14:53Z</time>
<desc>lat.=55.900379, lon.=26.529020, Alt.=101.633850m. Speed=0.360000m/h.</desc>
<speed>0.100000</speed>
</trkpt>
<trkpt lat="55.900375" lon="26.529020">
<ele>101.633850</ele>
<time>2010-08-29T18:14:54Z</time>
<desc>lat.=55.900375, lon.=26.529020, Alt.=101.633850m. Speed=0.252000m/h.</desc>
<speed>0.070000</speed>
</trkpt>
<trkpt lat="55.900375" lon="26.529022">
<ele>101.629944</ele>
<time>2010-08-29T18:14:55Z</time>
<desc>lat.=55.900375, lon.=26.529022, Alt.=101.629944m. Speed=0.000000m/h.</desc>
<speed>0.000000</speed>
</trkpt>
<trkpt lat="55.900375" lon="26.529022">
<ele>101.626038</ele>
<time>2010-08-29T18:14:56Z</time>
<desc>lat.=55.900375, lon.=26.529022, Alt.=101.626038m. Speed=0.180000m/h.</desc>
<speed>0.050000</speed>
</trkpt>
<trkpt lat="55.900375" lon="26.529020">
<ele>101.620178</ele>
<time>2010-08-29T18:14:57Z</time>
<desc>lat.=55.900375, lon.=26.529020, Alt.=101.620178m. Speed=0.540000m/h.</desc>
<speed>0.150000</speed>
</trkpt>
<trkpt lat="55.900375" lon="26.529018">
<ele>101.616272</ele>
<time>2010-08-29T18:14:58Z</time>
<desc>lat.=55.900375, lon.=26.529018, Alt.=101.616272m. Speed=0.252000m/h.</desc>
<speed>0.070000</speed>
</trkpt>
<trkpt lat="55.900375" lon="26.529018">
<ele>101.616272</ele>
<time>2010-08-29T18:14:59Z</time>
<desc>lat.=55.900375, lon.=26.529018, Alt.=101.616272m. Speed=0.360000m/h.</desc>
<speed>0.100000</speed>
</trkpt>
<trkpt lat="55.900375" lon="26.529016">
<ele>101.620178</ele>
<time>2010-08-29T18:15:00Z</time>
<desc>lat.=55.900375, lon.=26.529016, Alt.=101.620178m. Speed=0.864000m/h.</desc>
<speed>0.240000</speed>
</trkpt>
<trkpt lat="55.900375" lon="26.529013">
<ele>101.624084</ele>
<time>2010-08-29T18:15:01Z</time>
<desc>lat.=55.900375, lon.=26.529013, Alt.=101.624084m. Speed=0.648000m/h.</desc>
<speed>0.180000</speed>
</trkpt>
<trkpt lat="55.900375" lon="26.529009">
<ele>101.631897</ele>
<time>2010-08-29T18:15:02Z</time>
<desc>lat.=55.900375, lon.=26.529009, Alt.=101.631897m. Speed=0.396000m/h.</desc>
<speed>0.110000</speed>
</trkpt>
<trkpt lat="55.900379" lon="26.529007">
<ele>101.643616</ele>
<time>2010-08-29T18:15:03Z</time>
<desc>lat.=55.900379, lon.=26.529007, Alt.=101.643616m. Speed=0.828000m/h.</desc>
<speed>0.230000</speed>
</trkpt>
<trkpt lat="55.900379" lon="26.529005">
<ele>101.653381</ele>
<time>2010-08-29T18:15:04Z</time>
<desc>lat.=55.900379, lon.=26.529005, Alt.=101.653381m. Speed=0.468000m/h.</desc>
<speed>0.130000</speed>
</trkpt>
<trkpt lat="55.900379" lon="26.529003">
<ele>101.663147</ele>
<time>2010-08-29T18:15:05Z</time>
<desc>lat.=55.900379, lon.=26.529003, Alt.=101.663147m. Speed=0.648000m/h.</desc>
<speed>0.180000</speed>
</trkpt>
<trkpt lat="55.900379" lon="26.528999">
<ele>101.667053</ele>
<time>2010-08-29T18:15:06Z</time>
<desc>lat.=55.900379, lon.=26.528999, Alt.=101.667053m. Speed=0.648000m/h.</desc>
<speed>0.180000</speed>
</trkpt>
<trkpt lat="55.900379" lon="26.528996">
<ele>101.672913</ele>
<time>2010-08-29T18:15:07Z</time>
<desc>lat.=55.900379, lon.=26.528996, Alt.=101.672913m. Speed=0.504000m/h.</desc>
<speed>0.140000</speed>
</trkpt>
<trkpt lat="55.900379" lon="26.528994">
<ele>101.676819</ele>
<time>2010-08-29T18:15:08Z</time>
<desc>lat.=55.900379, lon.=26.528994, Alt.=101.676819m. Speed=0.468000m/h.</desc>
<speed>0.130000</speed>
</trkpt>
<trkpt lat="55.900379" lon="26.528992">
<ele>101.686584</ele>
<time>2010-08-29T18:15:09Z</time>
<desc>lat.=55.900379, lon.=26.528992, Alt.=101.686584m. Speed=0.468000m/h.</desc>
<speed>0.130000</speed>
</trkpt>
<trkpt lat="55.900379" lon="26.528990">
<ele>101.690491</ele>
<time>2010-08-29T18:15:10Z</time>
<desc>lat.=55.900379, lon.=26.528990, Alt.=101.690491m. Speed=0.504000m/h.</desc>
<speed>0.140000</speed>
</trkpt>
<trkpt lat="55.900383" lon="26.528990">
<ele>101.696350</ele>
<time>2010-08-29T18:15:11Z</time>
<desc>lat.=55.900383, lon.=26.528990, Alt.=101.696350m. Speed=0.144000m/h.</desc>
<speed>0.040000</speed>
</trkpt>
<trkpt lat="55.900383" lon="26.528990">
<ele>101.696350</ele>
<time>2010-08-29T18:15:12Z</time>
<desc>lat.=55.900383, lon.=26.528990, Alt.=101.696350m. Speed=0.252000m/h.</desc>
<speed>0.070000</speed>
</trkpt>
<trkpt lat="55.900383" lon="26.528988">
<ele>101.698303</ele>
<time>2010-08-29T18:15:13Z</time>
<desc>lat.=55.900383, lon.=26.528988, Alt.=101.698303m. Speed=0.468000m/h.</desc>
<speed>0.130000</speed>
</trkpt>
<trkpt lat="55.900379" lon="26.528986">
<ele>101.698303</ele>
<time>2010-08-29T18:15:14Z</time>
<desc>lat.=55.900379, lon.=26.528986, Alt.=101.698303m. Speed=0.540000m/h.</desc>
<speed>0.150000</speed>
</trkpt>
<trkpt lat="55.900379" lon="26.528984">
<ele>101.700256</ele>
<time>2010-08-29T18:15:15Z</time>
<desc>lat.=55.900379, lon.=26.528984, Alt.=101.700256m. Speed=0.504000m/h.</desc>
<speed>0.140000</speed>
</trkpt>
<trkpt lat="55.900379" lon="26.528982">
<ele>101.698303</ele>
<time>2010-08-29T18:15:16Z</time>
<desc>lat.=55.900379, lon.=26.528982, Alt.=101.698303m. Speed=0.468000m/h.</desc>
<speed>0.130000</speed>
</trkpt>
<trkpt lat="55.900379" lon="26.528978">
<ele>101.698303</ele>
<time>2010-08-29T18:15:17Z</time>
<desc>lat.=55.900379, lon.=26.528978, Alt.=101.698303m. Speed=0.576000m/h.</desc>
<speed>0.160000</speed>
</trkpt>
<trkpt lat="55.900379" lon="26.528976">
<ele>101.698303</ele>
<time>2010-08-29T18:15:18Z</time>
<desc>lat.=55.900379, lon.=26.528976, Alt.=101.698303m. Speed=0.576000m/h.</desc>
<speed>0.160000</speed>
</trkpt>
<trkpt lat="55.900379" lon="26.528973">
<ele>101.692444</ele>
<time>2010-08-29T18:15:19Z</time>
<desc>lat.=55.900379, lon.=26.528973, Alt.=101.692444m. Speed=0.648000m/h.</desc>
<speed>0.180000</speed>
</trkpt>
<trkpt lat="55.900379" lon="26.528971">
<ele>101.690491</ele>
<time>2010-08-29T18:15:20Z</time>
<desc>lat.=55.900379, lon.=26.528971, Alt.=101.690491m. Speed=0.540000m/h.</desc>
<speed>0.150000</speed>
</trkpt>
<trkpt lat="55.900379" lon="26.528967">
<ele>101.690491</ele>
<time>2010-08-29T18:15:21Z</time>
<desc>lat.=55.900379, lon.=26.528967, Alt.=101.690491m. Speed=0.684000m/h.</desc>
<speed>0.190000</speed>
</trkpt>
<trkpt lat="55.900379" lon="26.528965">
<ele>101.690491</ele>
<time>2010-08-29T18:15:22Z</time>
<desc>lat.=55.900379, lon.=26.528965, Alt.=101.690491m. Speed=0.720000m/h.</desc>
<speed>0.200000</speed>
</trkpt>
<trkpt lat="55.900379" lon="26.528961">
<ele>101.686584</ele>
<time>2010-08-29T18:15:23Z</time>
<desc>lat.=55.900379, lon.=26.528961, Alt.=101.686584m. Speed=0.144000m/h.</desc>
<speed>0.040000</speed>
</trkpt>
<trkpt lat="55.900379" lon="26.528961">
<ele>101.684631</ele>
<time>2010-08-29T18:15:24Z</time>
<desc>lat.=55.900379, lon.=26.528961, Alt.=101.684631m. Speed=0.288000m/h.</desc>
<speed>0.080000</speed>
</trkpt>
<trkpt lat="55.900379" lon="26.528959">
<ele>101.686584</ele>
<time>2010-08-29T18:15:25Z</time>
<desc>lat.=55.900379, lon.=26.528959, Alt.=101.686584m. Speed=0.360000m/h.</desc>
<speed>0.100000</speed>
</trkpt>
<trkpt lat="55.900383" lon="26.528957">
<ele>101.682678</ele>
<time>2010-08-29T18:15:26Z</time>
<desc>lat.=55.900383, lon.=26.528957, Alt.=101.682678m. Speed=0.432000m/h.</desc>
<speed>0.120000</speed>
</trkpt>
<trkpt lat="55.900383" lon="26.528955">
<ele>101.682678</ele>
<time>2010-08-29T18:15:27Z</time>
<desc>lat.=55.900383, lon.=26.528955, Alt.=101.682678m. Speed=0.216000m/h.</desc>
<speed>0.060000</speed>
</trkpt>
<trkpt lat="55.900383" lon="26.528955">
<ele>101.678772</ele>
<time>2010-08-29T18:15:28Z</time>
<desc>lat.=55.900383, lon.=26.528955, Alt.=101.678772m. Speed=0.216000m/h.</desc>
<speed>0.060000</speed>
</trkpt>
<trkpt lat="55.900383" lon="26.528955">
<ele>101.680725</ele>
<time>2010-08-29T18:15:29Z</time>
<desc>lat.=55.900383, lon.=26.528955, Alt.=101.680725m. Speed=0.108000m/h.</desc>
<speed>0.030000</speed>
</trkpt>
<trkpt lat="55.900383" lon="26.528955">
<ele>101.684631</ele>
<time>2010-08-29T18:15:30Z</time>
<desc>lat.=55.900383, lon.=26.528955, Alt.=101.684631m. Speed=0.108000m/h.</desc>
<speed>0.030000</speed>
</trkpt>
<trkpt lat="55.900383" lon="26.528955">
<ele>101.682678</ele>
<time>2010-08-29T18:15:31Z</time>
<desc>lat.=55.900383, lon.=26.528955, Alt.=101.682678m. Speed=0.180000m/h.</desc>
<speed>0.050000</speed>
</trkpt>
<trkpt lat="55.900383" lon="26.528955">
<ele>101.678772</ele>
<time>2010-08-29T18:15:32Z</time>
<desc>lat.=55.900383, lon.=26.528955, Alt.=101.678772m. Speed=0.432000m/h.</desc>
<speed>0.120000</speed>
</trkpt>
<trkpt lat="55.900379" lon="26.528955">
<ele>101.674866</ele>
<time>2010-08-29T18:15:33Z</time>
<desc>lat.=55.900379, lon.=26.528955, Alt.=101.674866m. Speed=0.252000m/h.</desc>
<speed>0.070000</speed>
</trkpt>
<trkpt lat="55.900379" lon="26.528955">
<ele>101.670959</ele>
<time>2010-08-29T18:15:34Z</time>
<desc>lat.=55.900379, lon.=26.528955, Alt.=101.670959m. Speed=0.612000m/h.</desc>
<speed>0.170000</speed>
</trkpt>
<trkpt lat="55.900379" lon="26.528955">
<ele>101.665100</ele>
<time>2010-08-29T18:15:35Z</time>
<desc>lat.=55.900379, lon.=26.528955, Alt.=101.665100m. Speed=1.080000m/h.</desc>
<speed>0.300000</speed>
</trkpt>
<trkpt lat="55.900375" lon="26.528967">
<ele>101.604553</ele>
<time>2010-08-29T18:15:36Z</time>
<desc>lat.=55.900375, lon.=26.528967, Alt.=101.604553m. Speed=1.188000m/h.</desc>
<speed>0.330000</speed>
</trkpt>
<trkpt lat="55.900375" lon="26.528963">
<ele>101.467834</ele>
<time>2010-08-29T18:15:37Z</time>
<desc>lat.=55.900375, lon.=26.528963, Alt.=101.467834m. Speed=1.044000m/h.</desc>
<speed>0.290000</speed>
</trkpt>
<trkpt lat="55.900375" lon="26.528965">
<ele>101.254944</ele>
<time>2010-08-29T18:15:38Z</time>
<desc>lat.=55.900375, lon.=26.528965, Alt.=101.254944m. Speed=0.648000m/h.</desc>
<speed>0.180000</speed>
</trkpt>
<trkpt lat="55.900375" lon="26.528965">
<ele>101.116272</ele>
<time>2010-08-29T18:15:39Z</time>
<desc>lat.=55.900375, lon.=26.528965, Alt.=101.116272m. Speed=0.684000m/h.</desc>
<speed>0.190000</speed>
</trkpt>
<trkpt lat="55.900379" lon="26.528961">
<ele>101.065491</ele>
<time>2010-08-29T18:15:40Z</time>
<desc>lat.=55.900379, lon.=26.528961, Alt.=101.065491m. Speed=0.684000m/h.</desc>
<speed>0.190000</speed>
</trkpt>
<trkpt lat="55.900375" lon="26.528961">
<ele>101.053772</ele>
<time>2010-08-29T18:15:41Z</time>
<desc>lat.=55.900375, lon.=26.528961, Alt.=101.053772m. Speed=0.432000m/h.</desc>
<speed>0.120000</speed>
</trkpt>
<trkpt lat="55.900375" lon="26.528961">
<ele>101.040100</ele>
<time>2010-08-29T18:15:42Z</time>
<desc>lat.=55.900375, lon.=26.528961, Alt.=101.040100m. Speed=0.756000m/h.</desc>
<speed>0.210000</speed>
</trkpt>
<trkpt lat="55.900372" lon="26.528959">
<ele>101.032288</ele>
<time>2010-08-29T18:15:43Z</time>
<desc>lat.=55.900372, lon.=26.528959, Alt.=101.032288m. Speed=1.476000m/h.</desc>
<speed>0.410000</speed>
</trkpt>
<trkpt lat="55.900372" lon="26.528969">
<ele>100.913147</ele>
<time>2010-08-29T18:15:44Z</time>
<desc>lat.=55.900372, lon.=26.528969, Alt.=100.913147m. Speed=1.512000m/h.</desc>
<speed>0.420000</speed>
</trkpt>
<trkpt lat="55.900364" lon="26.528975">
<ele>100.710022</ele>
<time>2010-08-29T18:15:45Z</time>
<desc>lat.=55.900364, lon.=26.528975, Alt.=100.710022m. Speed=1.512000m/h.</desc>
<speed>0.420000</speed>
</trkpt>
<trkpt lat="55.900356" lon="26.528975">
<ele>100.805725</ele>
<time>2010-08-29T18:15:46Z</time>
<desc>lat.=55.900356, lon.=26.528975, Alt.=100.805725m. Speed=0.900000m/h.</desc>
<speed>0.250000</speed>
</trkpt>
<trkpt lat="55.900352" lon="26.528976">
<ele>100.799866</ele>
<time>2010-08-29T18:15:47Z</time>
<desc>lat.=55.900352, lon.=26.528976, Alt.=100.799866m. Speed=1.152000m/h.</desc>
<speed>0.320000</speed>
</trkpt>
<trkpt lat="55.900345" lon="26.528978">
<ele>100.743225</ele>
<time>2010-08-29T18:15:48Z</time>
<desc>lat.=55.900345, lon.=26.528978, Alt.=100.743225m. Speed=1.800000m/h.</desc>
<speed>0.500000</speed>
</trkpt>
<trkpt lat="55.900341" lon="26.528986">
<ele>100.721741</ele>
<time>2010-08-29T18:15:49Z</time>
<desc>lat.=55.900341, lon.=26.528986, Alt.=100.721741m. Speed=1.800000m/h.</desc>
<speed>0.500000</speed>
</trkpt>
<trkpt lat="55.900333" lon="26.528999">
<ele>100.674866</ele>
<time>2010-08-29T18:15:50Z</time>
<desc>lat.=55.900333, lon.=26.528999, Alt.=100.674866m. Speed=1.476000m/h.</desc>
<speed>0.410000</speed>
</trkpt>
<trkpt lat="55.900330" lon="26.529018">
<ele>100.592834</ele>
<time>2010-08-29T18:15:51Z</time>
<desc>lat.=55.900330, lon.=26.529018, Alt.=100.592834m. Speed=1.404000m/h.</desc>
<speed>0.390000</speed>
</trkpt>
<trkpt lat="55.900330" lon="26.529032">
<ele>100.670959</ele>
<time>2010-08-29T18:15:52Z</time>
<desc>lat.=55.900330, lon.=26.529032, Alt.=100.670959m. Speed=1.476000m/h.</desc>
<speed>0.410000</speed>
</trkpt>
<trkpt lat="55.900311" lon="26.529034">
<ele>100.735413</ele>
<time>2010-08-29T18:15:53Z</time>
<desc>lat.=55.900311, lon.=26.529034, Alt.=100.735413m. Speed=1.224000m/h.</desc>
<speed>0.340000</speed>
</trkpt>
<trkpt lat="55.900299" lon="26.529032">
<ele>100.711975</ele>
<time>2010-08-29T18:15:54Z</time>
<desc>lat.=55.900299, lon.=26.529032, Alt.=100.711975m. Speed=0.972000m/h.</desc>
<speed>0.270000</speed>
</trkpt>
<trkpt lat="55.900291" lon="26.529036">
<ele>100.825256</ele>
<time>2010-08-29T18:15:55Z</time>
<desc>lat.=55.900291, lon.=26.529036, Alt.=100.825256m. Speed=1.260000m/h.</desc>
<speed>0.350000</speed>
</trkpt>
<trkpt lat="55.900288" lon="26.529032">
<ele>100.889709</ele>
<time>2010-08-29T18:15:56Z</time>
<desc>lat.=55.900288, lon.=26.529032, Alt.=100.889709m. Speed=1.224000m/h.</desc>
<speed>0.340000</speed>
</trkpt>
<trkpt lat="55.900284" lon="26.529032">
<ele>101.038147</ele>
<time>2010-08-29T18:15:57Z</time>
<desc>lat.=55.900284, lon.=26.529032, Alt.=101.038147m. Speed=1.332000m/h.</desc>
<speed>0.370000</speed>
</trkpt>
<trkpt lat="55.900280" lon="26.529037">
<ele>101.323303</ele>
<time>2010-08-29T18:15:58Z</time>
<desc>lat.=55.900280, lon.=26.529037, Alt.=101.323303m. Speed=1.116000m/h.</desc>
<speed>0.310000</speed>
</trkpt>
<trkpt lat="55.900276" lon="26.529041">
<ele>101.682678</ele>
<time>2010-08-29T18:15:59Z</time>
<desc>lat.=55.900276, lon.=26.529041, Alt.=101.682678m. Speed=1.008000m/h.</desc>
<speed>0.280000</speed>
</trkpt>
<trkpt lat="55.900280" lon="26.529041">
<ele>102.151428</ele>
<time>2010-08-29T18:16:00Z</time>
<desc>lat.=55.900280, lon.=26.529041, Alt.=102.151428m. Speed=0.720000m/h.</desc>
<speed>0.200000</speed>
</trkpt>
<trkpt lat="55.900276" lon="26.529043">
<ele>102.758850</ele>
<time>2010-08-29T18:16:01Z</time>
<desc>lat.=55.900276, lon.=26.529043, Alt.=102.758850m. Speed=0.828000m/h.</desc>
<speed>0.230000</speed>
</trkpt>
<trkpt lat="55.900272" lon="26.529037">
<ele>103.135803</ele>
<time>2010-08-29T18:16:02Z</time>
<desc>lat.=55.900272, lon.=26.529037, Alt.=103.135803m. Speed=0.864000m/h.</desc>
<speed>0.240000</speed>
</trkpt>
<trkpt lat="55.900272" lon="26.529036">
<ele>103.116272</ele>
<time>2010-08-29T18:16:03Z</time>
<desc>lat.=55.900272, lon.=26.529036, Alt.=103.116272m. Speed=0.864000m/h.</desc>
<speed>0.240000</speed>
</trkpt>
<trkpt lat="55.900272" lon="26.529032">
<ele>103.094788</ele>
<time>2010-08-29T18:16:04Z</time>
<desc>lat.=55.900272, lon.=26.529032, Alt.=103.094788m. Speed=1.044000m/h.</desc>
<speed>0.290000</speed>
</trkpt>
<trkpt lat="55.900269" lon="26.529030">
<ele>103.077209</ele>
<time>2010-08-29T18:16:05Z</time>
<desc>lat.=55.900269, lon.=26.529030, Alt.=103.077209m. Speed=1.044000m/h.</desc>
<speed>0.290000</speed>
</trkpt>
<trkpt lat="55.900265" lon="26.529026">
<ele>103.063538</ele>
<time>2010-08-29T18:16:06Z</time>
<desc>lat.=55.900265, lon.=26.529026, Alt.=103.063538m. Speed=1.044000m/h.</desc>
<speed>0.290000</speed>
</trkpt>
<trkpt lat="55.900265" lon="26.529022">
<ele>103.045959</ele>
<time>2010-08-29T18:16:07Z</time>
<desc>lat.=55.900265, lon.=26.529022, Alt.=103.045959m. Speed=0.612000m/h.</desc>
<speed>0.170000</speed>
</trkpt>
<trkpt lat="55.900265" lon="26.529020">
<ele>103.030334</ele>
<time>2010-08-29T18:16:08Z</time>
<desc>lat.=55.900265, lon.=26.529020, Alt.=103.030334m. Speed=0.576000m/h.</desc>
<speed>0.160000</speed>
</trkpt>
<trkpt lat="55.900265" lon="26.529018">
<ele>103.016663</ele>
<time>2010-08-29T18:16:09Z</time>
<desc>lat.=55.900265, lon.=26.529018, Alt.=103.016663m. Speed=0.252000m/h.</desc>
<speed>0.070000</speed>
</trkpt>
<trkpt lat="55.900265" lon="26.529016">
<ele>103.006897</ele>
<time>2010-08-29T18:16:10Z</time>
<desc>lat.=55.900265, lon.=26.529016, Alt.=103.006897m. Speed=0.468000m/h.</desc>
<speed>0.130000</speed>
</trkpt>
<trkpt lat="55.900265" lon="26.529015">
<ele>103.004944</ele>
<time>2010-08-29T18:16:11Z</time>
<desc>lat.=55.900265, lon.=26.529015, Alt.=103.004944m. Speed=0.612000m/h.</desc>
<speed>0.170000</speed>
</trkpt>
<trkpt lat="55.900265" lon="26.529013">
<ele>102.987366</ele>
<time>2010-08-29T18:16:12Z</time>
<desc>lat.=55.900265, lon.=26.529013, Alt.=102.987366m. Speed=0.756000m/h.</desc>
<speed>0.210000</speed>
</trkpt>
<trkpt lat="55.900265" lon="26.529009">
<ele>102.965881</ele>
<time>2010-08-29T18:16:13Z</time>
<desc>lat.=55.900265, lon.=26.529009, Alt.=102.965881m. Speed=0.216000m/h.</desc>
<speed>0.060000</speed>
</trkpt>
<trkpt lat="55.900265" lon="26.529009">
<ele>102.954163</ele>
<time>2010-08-29T18:16:14Z</time>
<desc>lat.=55.900265, lon.=26.529009, Alt.=102.954163m. Speed=0.072000m/h.</desc>
<speed>0.020000</speed>
</trkpt>
<trkpt lat="55.900265" lon="26.529009">
<ele>102.942444</ele>
<time>2010-08-29T18:16:15Z</time>
<desc>lat.=55.900265, lon.=26.529009, Alt.=102.942444m. Speed=0.216000m/h.</desc>
<speed>0.060000</speed>
</trkpt>
<trkpt lat="55.900265" lon="26.529009">
<ele>102.936584</ele>
<time>2010-08-29T18:16:16Z</time>
<desc>lat.=55.900265, lon.=26.529009, Alt.=102.936584m. Speed=0.324000m/h.</desc>
<speed>0.090000</speed>
</trkpt>
<trkpt lat="55.900265" lon="26.529011">
<ele>102.934631</ele>
<time>2010-08-29T18:16:17Z</time>
<desc>lat.=55.900265, lon.=26.529011, Alt.=102.934631m. Speed=0.180000m/h.</desc>
<speed>0.050000</speed>
</trkpt>
<trkpt lat="55.900265" lon="26.529011">
<ele>102.932678</ele>
<time>2010-08-29T18:16:18Z</time>
<desc>lat.=55.900265, lon.=26.529011, Alt.=102.932678m. Speed=0.360000m/h.</desc>
<speed>0.100000</speed>
</trkpt>
<trkpt lat="55.900265" lon="26.529013">
<ele>102.932678</ele>
<time>2010-08-29T18:16:19Z</time>
<desc>lat.=55.900265, lon.=26.529013, Alt.=102.932678m. Speed=0.144000m/h.</desc>
<speed>0.040000</speed>
</trkpt>
<trkpt lat="55.900265" lon="26.529015">
<ele>102.936584</ele>
<time>2010-08-29T18:16:20Z</time>
<desc>lat.=55.900265, lon.=26.529015, Alt.=102.936584m. Speed=0.324000m/h.</desc>
<speed>0.090000</speed>
</trkpt>
<trkpt lat="55.900265" lon="26.529015">
<ele>102.942444</ele>
<time>2010-08-29T18:16:21Z</time>
<desc>lat.=55.900265, lon.=26.529015, Alt.=102.942444m. Speed=0.144000m/h.</desc>
<speed>0.040000</speed>
</trkpt>
<trkpt lat="55.900265" lon="26.529016">
<ele>102.950256</ele>
<time>2010-08-29T18:16:22Z</time>
<desc>lat.=55.900265, lon.=26.529016, Alt.=102.950256m. Speed=0.108000m/h.</desc>
<speed>0.030000</speed>
</trkpt>
<trkpt lat="55.900265" lon="26.529016">
<ele>102.954163</ele>
<time>2010-08-29T18:16:23Z</time>
<desc>lat.=55.900265, lon.=26.529016, Alt.=102.954163m. Speed=0.144000m/h.</desc>
<speed>0.040000</speed>
</trkpt>
<trkpt lat="55.900265" lon="26.529016">
<ele>102.952209</ele>
<time>2010-08-29T18:16:24Z</time>
<desc>lat.=55.900265, lon.=26.529016, Alt.=102.952209m. Speed=0.108000m/h.</desc>
<speed>0.030000</speed>
</trkpt>
<trkpt lat="55.900265" lon="26.529016">
<ele>102.950256</ele>
<time>2010-08-29T18:16:25Z</time>
<desc>lat.=55.900265, lon.=26.529016, Alt.=102.950256m. Speed=0.180000m/h.</desc>
<speed>0.050000</speed>
</trkpt>
<trkpt lat="55.900265" lon="26.529015">
<ele>102.932678</ele>
<time>2010-08-29T18:16:26Z</time>
<desc>lat.=55.900265, lon.=26.529015, Alt.=102.932678m. Speed=0.216000m/h.</desc>
<speed>0.060000</speed>
</trkpt>
<trkpt lat="55.900265" lon="26.529015">
<ele>102.920959</ele>
<time>2010-08-29T18:16:27Z</time>
<desc>lat.=55.900265, lon.=26.529015, Alt.=102.920959m. Speed=0.504000m/h.</desc>
<speed>0.140000</speed>
</trkpt>
<trkpt lat="55.900265" lon="26.529013">
<ele>102.915100</ele>
<time>2010-08-29T18:16:28Z</time>
<desc>lat.=55.900265, lon.=26.529013, Alt.=102.915100m. Speed=0.504000m/h.</desc>
<speed>0.140000</speed>
</trkpt>
<trkpt lat="55.900261" lon="26.529011">
<ele>102.903381</ele>
<time>2010-08-29T18:16:29Z</time>
<desc>lat.=55.900261, lon.=26.529011, Alt.=102.903381m. Speed=0.756000m/h.</desc>
<speed>0.210000</speed>
</trkpt>
<trkpt lat="55.900261" lon="26.529011">
<ele>102.895569</ele>
<time>2010-08-29T18:16:30Z</time>
<desc>lat.=55.900261, lon.=26.529011, Alt.=102.895569m. Speed=1.260000m/h.</desc>
<speed>0.350000</speed>
</trkpt>
<trkpt lat="55.900253" lon="26.529016">
<ele>103.083069</ele>
<time>2010-08-29T18:16:31Z</time>
<desc>lat.=55.900253, lon.=26.529016, Alt.=103.083069m. Speed=1.224000m/h.</desc>
<speed>0.340000</speed>
</trkpt>
<trkpt lat="55.900253" lon="26.529016">
<ele>103.176819</ele>
<time>2010-08-29T18:16:32Z</time>
<desc>lat.=55.900253, lon.=26.529016, Alt.=103.176819m. Speed=1.188000m/h.</desc>
<speed>0.330000</speed>
</trkpt>
<trkpt lat="55.900253" lon="26.529016">
<ele>103.251038</ele>
<time>2010-08-29T18:16:33Z</time>
<desc>lat.=55.900253, lon.=26.529016, Alt.=103.251038m. Speed=0.900000m/h.</desc>
<speed>0.250000</speed>
</trkpt>
<trkpt lat="55.900257" lon="26.529015">
<ele>103.295959</ele>
<time>2010-08-29T18:16:34Z</time>
<desc>lat.=55.900257, lon.=26.529015, Alt.=103.295959m. Speed=0.540000m/h.</desc>
<speed>0.150000</speed>
</trkpt>
<trkpt lat="55.900257" lon="26.529016">
<ele>103.309631</ele>
<time>2010-08-29T18:16:35Z</time>
<desc>lat.=55.900257, lon.=26.529016, Alt.=103.309631m. Speed=0.432000m/h.</desc>
<speed>0.120000</speed>
</trkpt>
<trkpt lat="55.900257" lon="26.529018">
<ele>103.325256</ele>
<time>2010-08-29T18:16:36Z</time>
<desc>lat.=55.900257, lon.=26.529018, Alt.=103.325256m. Speed=0.252000m/h.</desc>
<speed>0.070000</speed>
</trkpt>
<trkpt lat="55.900257" lon="26.529020">
<ele>103.311584</ele>
<time>2010-08-29T18:16:37Z</time>
<desc>lat.=55.900257, lon.=26.529020, Alt.=103.311584m. Speed=0.396000m/h.</desc>
<speed>0.110000</speed>
</trkpt>
<trkpt lat="55.900257" lon="26.529018">
<ele>103.303772</ele>
<time>2010-08-29T18:16:38Z</time>
<desc>lat.=55.900257, lon.=26.529018, Alt.=103.303772m. Speed=0.540000m/h.</desc>
<speed>0.150000</speed>
</trkpt>
<trkpt lat="55.900257" lon="26.529018">
<ele>103.297913</ele>
<time>2010-08-29T18:16:39Z</time>
<desc>lat.=55.900257, lon.=26.529018, Alt.=103.297913m. Speed=0.936000m/h.</desc>
<speed>0.260000</speed>
</trkpt>
<trkpt lat="55.900253" lon="26.529016">
<ele>103.290100</ele>
<time>2010-08-29T18:16:40Z</time>
<desc>lat.=55.900253, lon.=26.529016, Alt.=103.290100m. Speed=1.044000m/h.</desc>
<speed>0.290000</speed>
</trkpt>
<trkpt lat="55.900253" lon="26.529013">
<ele>103.282288</ele>
<time>2010-08-29T18:16:41Z</time>
<desc>lat.=55.900253, lon.=26.529013, Alt.=103.282288m. Speed=0.864000m/h.</desc>
<speed>0.240000</speed>
</trkpt>
<trkpt lat="55.900249" lon="26.529009">
<ele>103.274475</ele>
<time>2010-08-29T18:16:42Z</time>
<desc>lat.=55.900249, lon.=26.529009, Alt.=103.274475m. Speed=1.080000m/h.</desc>
<speed>0.300000</speed>
</trkpt>
<trkpt lat="55.900246" lon="26.529013">
<ele>103.335022</ele>
<time>2010-08-29T18:16:43Z</time>
<desc>lat.=55.900246, lon.=26.529013, Alt.=103.335022m. Speed=1.152000m/h.</desc>
<speed>0.320000</speed>
</trkpt>
<trkpt lat="55.900238" lon="26.529011">
<ele>103.399475</ele>
<time>2010-08-29T18:16:44Z</time>
<desc>lat.=55.900238, lon.=26.529011, Alt.=103.399475m. Speed=1.332000m/h.</desc>
<speed>0.370000</speed>
</trkpt>
<trkpt lat="55.900227" lon="26.529022">
<ele>103.504944</ele>
<time>2010-08-29T18:16:45Z</time>
<desc>lat.=55.900227, lon.=26.529022, Alt.=103.504944m. Speed=1.476000m/h.</desc>
<speed>0.410000</speed>
</trkpt>
<trkpt lat="55.900219" lon="26.529024">
<ele>103.600647</ele>
<time>2010-08-29T18:16:46Z</time>
<desc>lat.=55.900219, lon.=26.529024, Alt.=103.600647m. Speed=1.440000m/h.</desc>
<speed>0.400000</speed>
</trkpt>
<trkpt lat="55.900215" lon="26.529036">
<ele>103.706116</ele>
<time>2010-08-29T18:16:47Z</time>
<desc>lat.=55.900215, lon.=26.529036, Alt.=103.706116m. Speed=1.368000m/h.</desc>
<speed>0.380000</speed>
</trkpt>
<trkpt lat="55.900211" lon="26.529041">
<ele>103.667053</ele>
<time>2010-08-29T18:16:48Z</time>
<desc>lat.=55.900211, lon.=26.529041, Alt.=103.667053m. Speed=1.332000m/h.</desc>
<speed>0.370000</speed>
</trkpt>
<trkpt lat="55.900208" lon="26.529047">
<ele>103.626038</ele>
<time>2010-08-29T18:16:49Z</time>
<desc>lat.=55.900208, lon.=26.529047, Alt.=103.626038m. Speed=1.332000m/h.</desc>
<speed>0.370000</speed>
</trkpt>
<trkpt lat="55.900204" lon="26.529057">
<ele>103.749084</ele>
<time>2010-08-29T18:16:50Z</time>
<desc>lat.=55.900204, lon.=26.529057, Alt.=103.749084m. Speed=1.296000m/h.</desc>
<speed>0.360000</speed>
</trkpt>
<trkpt lat="55.900204" lon="26.529058">
<ele>103.963928</ele>
<time>2010-08-29T18:16:51Z</time>
<desc>lat.=55.900204, lon.=26.529058, Alt.=103.963928m. Speed=1.188000m/h.</desc>
<speed>0.330000</speed>
</trkpt>
<trkpt lat="55.900208" lon="26.529060">
<ele>104.129944</ele>
<time>2010-08-29T18:16:52Z</time>
<desc>lat.=55.900208, lon.=26.529060, Alt.=104.129944m. Speed=0.972000m/h.</desc>
<speed>0.270000</speed>
</trkpt>
<trkpt lat="55.900208" lon="26.529058">
<ele>104.237366</ele>
<time>2010-08-29T18:16:53Z</time>
<desc>lat.=55.900208, lon.=26.529058, Alt.=104.237366m. Speed=0.864000m/h.</desc>
<speed>0.240000</speed>
</trkpt>
<trkpt lat="55.900204" lon="26.529068">
<ele>104.383850</ele>
<time>2010-08-29T18:16:54Z</time>
<desc>lat.=55.900204, lon.=26.529068, Alt.=104.383850m. Speed=0.864000m/h.</desc>
<speed>0.240000</speed>
</trkpt>
<trkpt lat="55.900196" lon="26.529070">
<ele>104.659241</ele>
<time>2010-08-29T18:16:55Z</time>
<desc>lat.=55.900196, lon.=26.529070, Alt.=104.659241m. Speed=0.972000m/h.</desc>
<speed>0.270000</speed>
</trkpt>
<trkpt lat="55.900192" lon="26.529070">
<ele>104.651428</ele>
<time>2010-08-29T18:16:56Z</time>
<desc>lat.=55.900192, lon.=26.529070, Alt.=104.651428m. Speed=0.828000m/h.</desc>
<speed>0.230000</speed>
</trkpt>
<trkpt lat="55.900192" lon="26.529070">
<ele>104.645569</ele>
<time>2010-08-29T18:16:57Z</time>
<desc>lat.=55.900192, lon.=26.529070, Alt.=104.645569m. Speed=0.972000m/h.</desc>
<speed>0.270000</speed>
</trkpt>
<trkpt lat="55.900188" lon="26.529072">
<ele>104.641663</ele>
<time>2010-08-29T18:16:58Z</time>
<desc>lat.=55.900188, lon.=26.529072, Alt.=104.641663m. Speed=0.792000m/h.</desc>
<speed>0.220000</speed>
</trkpt>
<trkpt lat="55.900188" lon="26.529072">
<ele>104.637756</ele>
<time>2010-08-29T18:16:59Z</time>
<desc>lat.=55.900188, lon.=26.529072, Alt.=104.637756m. Speed=0.504000m/h.</desc>
<speed>0.140000</speed>
</trkpt>
<trkpt lat="55.900185" lon="26.529074">
<ele>104.633850</ele>
<time>2010-08-29T18:17:00Z</time>
<desc>lat.=55.900185, lon.=26.529074, Alt.=104.633850m. Speed=0.504000m/h.</desc>
<speed>0.140000</speed>
</trkpt>
<trkpt lat="55.900185" lon="26.529076">
<ele>104.631897</ele>
<time>2010-08-29T18:17:01Z</time>
<desc>lat.=55.900185, lon.=26.529076, Alt.=104.631897m. Speed=0.360000m/h.</desc>
<speed>0.100000</speed>
</trkpt>
<trkpt lat="55.900185" lon="26.529076">
<ele>104.626038</ele>
<time>2010-08-29T18:17:02Z</time>
<desc>lat.=55.900185, lon.=26.529076, Alt.=104.626038m. Speed=0.360000m/h.</desc>
<speed>0.100000</speed>
</trkpt>
<trkpt lat="55.900185" lon="26.529078">
<ele>104.622131</ele>
<time>2010-08-29T18:17:03Z</time>
<desc>lat.=55.900185, lon.=26.529078, Alt.=104.622131m. Speed=0.360000m/h.</desc>
<speed>0.100000</speed>
</trkpt>
<trkpt lat="55.900181" lon="26.529078">
<ele>104.618225</ele>
<time>2010-08-29T18:17:04Z</time>
<desc>lat.=55.900181, lon.=26.529078, Alt.=104.618225m. Speed=0.180000m/h.</desc>
<speed>0.050000</speed>
</trkpt>
<trkpt lat="55.900181" lon="26.529078">
<ele>104.612366</ele>
<time>2010-08-29T18:17:05Z</time>
<desc>lat.=55.900181, lon.=26.529078, Alt.=104.612366m. Speed=0.036000m/h.</desc>
<speed>0.010000</speed>
</trkpt>
<trkpt lat="55.900181" lon="26.529078">
<ele>104.608459</ele>
<time>2010-08-29T18:17:06Z</time>
<desc>lat.=55.900181, lon.=26.529078, Alt.=104.608459m. Speed=0.144000m/h.</desc>
<speed>0.040000</speed>
</trkpt>
<trkpt lat="55.900181" lon="26.529078">
<ele>104.604553</ele>
<time>2010-08-29T18:17:07Z</time>
<desc>lat.=55.900181, lon.=26.529078, Alt.=104.604553m. Speed=0.396000m/h.</desc>
<speed>0.110000</speed>
</trkpt>
<trkpt lat="55.900185" lon="26.529076">
<ele>104.598694</ele>
<time>2010-08-29T18:17:08Z</time>
<desc>lat.=55.900185, lon.=26.529076, Alt.=104.598694m. Speed=0.468000m/h.</desc>
<speed>0.130000</speed>
</trkpt>
<trkpt lat="55.900185" lon="26.529074">
<ele>104.592834</ele>
<time>2010-08-29T18:17:09Z</time>
<desc>lat.=55.900185, lon.=26.529074, Alt.=104.592834m. Speed=0.648000m/h.</desc>
<speed>0.180000</speed>
</trkpt>
<trkpt lat="55.900188" lon="26.529074">
<ele>104.590881</ele>
<time>2010-08-29T18:17:10Z</time>
<desc>lat.=55.900188, lon.=26.529074, Alt.=104.590881m. Speed=0.936000m/h.</desc>
<speed>0.260000</speed>
</trkpt>
<trkpt lat="55.900188" lon="26.529074">
<ele>104.592834</ele>
<time>2010-08-29T18:17:11Z</time>
<desc>lat.=55.900188, lon.=26.529074, Alt.=104.592834m. Speed=0.828000m/h.</desc>
<speed>0.230000</speed>
</trkpt>
<trkpt lat="55.900192" lon="26.529074">
<ele>104.588928</ele>
<time>2010-08-29T18:17:12Z</time>
<desc>lat.=55.900192, lon.=26.529074, Alt.=104.588928m. Speed=1.116000m/h.</desc>
<speed>0.310000</speed>
</trkpt>
<trkpt lat="55.900204" lon="26.529066">
<ele>104.680725</ele>
<time>2010-08-29T18:17:13Z</time>
<desc>lat.=55.900204, lon.=26.529066, Alt.=104.680725m. Speed=1.224000m/h.</desc>
<speed>0.340000</speed>
</trkpt>
<trkpt lat="55.900208" lon="26.529062">
<ele>104.807678</ele>
<time>2010-08-29T18:17:14Z</time>
<desc>lat.=55.900208, lon.=26.529062, Alt.=104.807678m. Speed=1.188000m/h.</desc>
<speed>0.330000</speed>
</trkpt>
<trkpt lat="55.900215" lon="26.529055">
<ele>104.913147</ele>
<time>2010-08-29T18:17:15Z</time>
<desc>lat.=55.900215, lon.=26.529055, Alt.=104.913147m. Speed=1.224000m/h.</desc>
<speed>0.340000</speed>
</trkpt>
<trkpt lat="55.900219" lon="26.529057">
<ele>105.030334</ele>
<time>2010-08-29T18:17:16Z</time>
<desc>lat.=55.900219, lon.=26.529057, Alt.=105.030334m. Speed=1.044000m/h.</desc>
<speed>0.290000</speed>
</trkpt>
<trkpt lat="55.900227" lon="26.529055">
<ele>105.085022</ele>
<time>2010-08-29T18:17:17Z</time>
<desc>lat.=55.900227, lon.=26.529055, Alt.=105.085022m. Speed=1.044000m/h.</desc>
<speed>0.290000</speed>
</trkpt>
<trkpt lat="55.900227" lon="26.529053">
<ele>105.149475</ele>
<time>2010-08-29T18:17:18Z</time>
<desc>lat.=55.900227, lon.=26.529053, Alt.=105.149475m. Speed=0.864000m/h.</desc>
<speed>0.240000</speed>
</trkpt>
<trkpt lat="55.900230" lon="26.529051">
<ele>105.227600</ele>
<time>2010-08-29T18:17:19Z</time>
<desc>lat.=55.900230, lon.=26.529051, Alt.=105.227600m. Speed=0.684000m/h.</desc>
<speed>0.190000</speed>
</trkpt>
<trkpt lat="55.900230" lon="26.529049">
<ele>105.229553</ele>
<time>2010-08-29T18:17:20Z</time>
<desc>lat.=55.900230, lon.=26.529049, Alt.=105.229553m. Speed=0.612000m/h.</desc>
<speed>0.170000</speed>
</trkpt>
<trkpt lat="55.900230" lon="26.529049">
<ele>105.233459</ele>
<time>2010-08-29T18:17:21Z</time>
<desc>lat.=55.900230, lon.=26.529049, Alt.=105.233459m. Speed=0.576000m/h.</desc>
<speed>0.160000</speed>
</trkpt>
<trkpt lat="55.900234" lon="26.529047">
<ele>105.235413</ele>
<time>2010-08-29T18:17:22Z</time>
<desc>lat.=55.900234, lon.=26.529047, Alt.=105.235413m. Speed=0.504000m/h.</desc>
<speed>0.140000</speed>
</trkpt>
<trkpt lat="55.900234" lon="26.529045">
<ele>105.237366</ele>
<time>2010-08-29T18:17:23Z</time>
<desc>lat.=55.900234, lon.=26.529045, Alt.=105.237366m. Speed=0.540000m/h.</desc>
<speed>0.150000</speed>
</trkpt>
<trkpt lat="55.900234" lon="26.529043">
<ele>105.239319</ele>
<time>2010-08-29T18:17:24Z</time>
<desc>lat.=55.900234, lon.=26.529043, Alt.=105.239319m. Speed=0.432000m/h.</desc>
<speed>0.120000</speed>
</trkpt>
<trkpt lat="55.900238" lon="26.529043">
<ele>105.241272</ele>
<time>2010-08-29T18:17:25Z</time>
<desc>lat.=55.900238, lon.=26.529043, Alt.=105.241272m. Speed=0.540000m/h.</desc>
<speed>0.150000</speed>
</trkpt>
<trkpt lat="55.900238" lon="26.529043">
<ele>105.241272</ele>
<time>2010-08-29T18:17:26Z</time>
<desc>lat.=55.900238, lon.=26.529043, Alt.=105.241272m. Speed=0.756000m/h.</desc>
<speed>0.210000</speed>
</trkpt>
<trkpt lat="55.900238" lon="26.529041">
<ele>105.241272</ele>
<time>2010-08-29T18:17:27Z</time>
<desc>lat.=55.900238, lon.=26.529041, Alt.=105.241272m. Speed=0.972000m/h.</desc>
<speed>0.270000</speed>
</trkpt>
<trkpt lat="55.900242" lon="26.529039">
<ele>105.241272</ele>
<time>2010-08-29T18:17:28Z</time>
<desc>lat.=55.900242, lon.=26.529039, Alt.=105.241272m. Speed=0.972000m/h.</desc>
<speed>0.270000</speed>
</trkpt>
<trkpt lat="55.900246" lon="26.529037">
<ele>105.243225</ele>
<time>2010-08-29T18:17:29Z</time>
<desc>lat.=55.900246, lon.=26.529037, Alt.=105.243225m. Speed=0.756000m/h.</desc>
<speed>0.210000</speed>
</trkpt>
<trkpt lat="55.900246" lon="26.529037">
<ele>105.249084</ele>
<time>2010-08-29T18:17:30Z</time>
<desc>lat.=55.900246, lon.=26.529037, Alt.=105.249084m. Speed=0.684000m/h.</desc>
<speed>0.190000</speed>
</trkpt>
<trkpt lat="55.900249" lon="26.529036">
<ele>105.258850</ele>
<time>2010-08-29T18:17:31Z</time>
<desc>lat.=55.900249, lon.=26.529036, Alt.=105.258850m. Speed=0.648000m/h.</desc>
<speed>0.180000</speed>
</trkpt>
<trkpt lat="55.900249" lon="26.529036">
<ele>105.268616</ele>
<time>2010-08-29T18:17:32Z</time>
<desc>lat.=55.900249, lon.=26.529036, Alt.=105.268616m. Speed=0.504000m/h.</desc>
<speed>0.140000</speed>
</trkpt>
<trkpt lat="55.900249" lon="26.529036">
<ele>105.280334</ele>
<time>2010-08-29T18:17:33Z</time>
<desc>lat.=55.900249, lon.=26.529036, Alt.=105.280334m. Speed=0.360000m/h.</desc>
<speed>0.100000</speed>
</trkpt>
<trkpt lat="55.900253" lon="26.529036">
<ele>105.301819</ele>
<time>2010-08-29T18:17:34Z</time>
<desc>lat.=55.900253, lon.=26.529036, Alt.=105.301819m. Speed=0.216000m/h.</desc>
<speed>0.060000</speed>
</trkpt>
<trkpt lat="55.900253" lon="26.529036">
<ele>105.327209</ele>
<time>2010-08-29T18:17:35Z</time>
<desc>lat.=55.900253, lon.=26.529036, Alt.=105.327209m. Speed=0.288000m/h.</desc>
<speed>0.080000</speed>
</trkpt>
<trkpt lat="55.900253" lon="26.529037">
<ele>105.354553</ele>
<time>2010-08-29T18:17:36Z</time>
<desc>lat.=55.900253, lon.=26.529037, Alt.=105.354553m. Speed=0.144000m/h.</desc>
<speed>0.040000</speed>
</trkpt>
<trkpt lat="55.900253" lon="26.529037">
<ele>105.379944</ele>
<time>2010-08-29T18:17:37Z</time>
<desc>lat.=55.900253, lon.=26.529037, Alt.=105.379944m. Speed=0.216000m/h.</desc>
<speed>0.060000</speed>
</trkpt>
<trkpt lat="55.900253" lon="26.529037">
<ele>105.413147</ele>
<time>2010-08-29T18:17:38Z</time>
<desc>lat.=55.900253, lon.=26.529037, Alt.=105.413147m. Speed=0.396000m/h.</desc>
<speed>0.110000</speed>
</trkpt>
<trkpt lat="55.900253" lon="26.529037">
<ele>105.454163</ele>
<time>2010-08-29T18:17:39Z</time>
<desc>lat.=55.900253, lon.=26.529037, Alt.=105.454163m. Speed=0.324000m/h.</desc>
<speed>0.090000</speed>
</trkpt>
<trkpt lat="55.900257" lon="26.529037">
<ele>105.491272</ele>
<time>2010-08-29T18:17:40Z</time>
<desc>lat.=55.900257, lon.=26.529037, Alt.=105.491272m. Speed=0.108000m/h.</desc>
<speed>0.030000</speed>
</trkpt>
<trkpt lat="55.900257" lon="26.529037">
<ele>105.542053</ele>
<time>2010-08-29T18:17:41Z</time>
<desc>lat.=55.900257, lon.=26.529037, Alt.=105.542053m. Speed=0.432000m/h.</desc>
<speed>0.120000</speed>
</trkpt>
<trkpt lat="55.900257" lon="26.529039">
<ele>105.602600</ele>
<time>2010-08-29T18:17:42Z</time>
<desc>lat.=55.900257, lon.=26.529039, Alt.=105.602600m. Speed=0.648000m/h.</desc>
<speed>0.180000</speed>
</trkpt>
<trkpt lat="55.900257" lon="26.529043">
<ele>105.674866</ele>
<time>2010-08-29T18:17:43Z</time>
<desc>lat.=55.900257, lon.=26.529043, Alt.=105.674866m. Speed=0.828000m/h.</desc>
<speed>0.230000</speed>
</trkpt>
<trkpt lat="55.900253" lon="26.529045">
<ele>105.735413</ele>
<time>2010-08-29T18:17:44Z</time>
<desc>lat.=55.900253, lon.=26.529045, Alt.=105.735413m. Speed=0.756000m/h.</desc>
<speed>0.210000</speed>
</trkpt>
<trkpt lat="55.900253" lon="26.529049">
<ele>105.797913</ele>
<time>2010-08-29T18:17:45Z</time>
<desc>lat.=55.900253, lon.=26.529049, Alt.=105.797913m. Speed=0.720000m/h.</desc>
<speed>0.200000</speed>
</trkpt>
<trkpt lat="55.900253" lon="26.529053">
<ele>105.854553</ele>
<time>2010-08-29T18:17:46Z</time>
<desc>lat.=55.900253, lon.=26.529053, Alt.=105.854553m. Speed=0.684000m/h.</desc>
<speed>0.190000</speed>
</trkpt>
<trkpt lat="55.900253" lon="26.529057">
<ele>105.907288</ele>
<time>2010-08-29T18:17:47Z</time>
<desc>lat.=55.900253, lon.=26.529057, Alt.=105.907288m. Speed=0.720000m/h.</desc>
<speed>0.200000</speed>
</trkpt>
<trkpt lat="55.900253" lon="26.529058">
<ele>105.960022</ele>
<time>2010-08-29T18:17:48Z</time>
<desc>lat.=55.900253, lon.=26.529058, Alt.=105.960022m. Speed=0.648000m/h.</desc>
<speed>0.180000</speed>
</trkpt>
<trkpt lat="55.900253" lon="26.529062">
<ele>106.020569</ele>
<time>2010-08-29T18:17:49Z</time>
<desc>lat.=55.900253, lon.=26.529062, Alt.=106.020569m. Speed=0.720000m/h.</desc>
<speed>0.200000</speed>
</trkpt>
<trkpt lat="55.900249" lon="26.529064">
<ele>106.083069</ele>
<time>2010-08-29T18:17:50Z</time>
<desc>lat.=55.900249, lon.=26.529064, Alt.=106.083069m. Speed=0.468000m/h.</desc>
<speed>0.130000</speed>
</trkpt>
<trkpt lat="55.900249" lon="26.529066">
<ele>106.145569</ele>
<time>2010-08-29T18:17:51Z</time>
<desc>lat.=55.900249, lon.=26.529066, Alt.=106.145569m. Speed=0.432000m/h.</desc>
<speed>0.120000</speed>
</trkpt>
<trkpt lat="55.900249" lon="26.529068">
<ele>106.215881</ele>
<time>2010-08-29T18:17:52Z</time>
<desc>lat.=55.900249, lon.=26.529068, Alt.=106.215881m. Speed=0.432000m/h.</desc>
<speed>0.120000</speed>
</trkpt>
<trkpt lat="55.900249" lon="26.529070">
<ele>106.280334</ele>
<time>2010-08-29T18:17:53Z</time>
<desc>lat.=55.900249, lon.=26.529070, Alt.=106.280334m. Speed=0.396000m/h.</desc>
<speed>0.110000</speed>
</trkpt>
<trkpt lat="55.900249" lon="26.529072">
<ele>106.346741</ele>
<time>2010-08-29T18:17:54Z</time>
<desc>lat.=55.900249, lon.=26.529072, Alt.=106.346741m. Speed=0.360000m/h.</desc>
<speed>0.100000</speed>
</trkpt>
<trkpt lat="55.900246" lon="26.529072">
<ele>106.417053</ele>
<time>2010-08-29T18:17:55Z</time>
<desc>lat.=55.900246, lon.=26.529072, Alt.=106.417053m. Speed=0.324000m/h.</desc>
<speed>0.090000</speed>
</trkpt>
<trkpt lat="55.900246" lon="26.529074">
<ele>106.489319</ele>
<time>2010-08-29T18:17:56Z</time>
<desc>lat.=55.900246, lon.=26.529074, Alt.=106.489319m. Speed=0.324000m/h.</desc>
<speed>0.090000</speed>
</trkpt>
<trkpt lat="55.900246" lon="26.529074">
<ele>106.563538</ele>
<time>2010-08-29T18:17:57Z</time>
<desc>lat.=55.900246, lon.=26.529074, Alt.=106.563538m. Speed=0.396000m/h.</desc>
<speed>0.110000</speed>
</trkpt>
<trkpt lat="55.900246" lon="26.529076">
<ele>106.633850</ele>
<time>2010-08-29T18:17:58Z</time>
<desc>lat.=55.900246, lon.=26.529076, Alt.=106.633850m. Speed=0.252000m/h.</desc>
<speed>0.070000</speed>
</trkpt>
<trkpt lat="55.900246" lon="26.529076">
<ele>106.700256</ele>
<time>2010-08-29T18:17:59Z</time>
<desc>lat.=55.900246, lon.=26.529076, Alt.=106.700256m. Speed=0.216000m/h.</desc>
<speed>0.060000</speed>
</trkpt>
<trkpt lat="55.900246" lon="26.529076">
<ele>106.764709</ele>
<time>2010-08-29T18:18:00Z</time>
<desc>lat.=55.900246, lon.=26.529076, Alt.=106.764709m. Speed=0.072000m/h.</desc>
<speed>0.020000</speed>
</trkpt>
<trkpt lat="55.900246" lon="26.529076">
<ele>106.831116</ele>
<time>2010-08-29T18:18:01Z</time>
<desc>lat.=55.900246, lon.=26.529076, Alt.=106.831116m. Speed=0.072000m/h.</desc>
<speed>0.020000</speed>
</trkpt>
<trkpt lat="55.900246" lon="26.529076">
<ele>106.895569</ele>
<time>2010-08-29T18:18:02Z</time>
<desc>lat.=55.900246, lon.=26.529076, Alt.=106.895569m. Speed=0.144000m/h.</desc>
<speed>0.040000</speed>
</trkpt>
<trkpt lat="55.900242" lon="26.529076">
<ele>106.960022</ele>
<time>2010-08-29T18:18:03Z</time>
<desc>lat.=55.900242, lon.=26.529076, Alt.=106.960022m. Speed=0.108000m/h.</desc>
<speed>0.030000</speed>
</trkpt>
<trkpt lat="55.900242" lon="26.529076">
<ele>107.024475</ele>
<time>2010-08-29T18:18:04Z</time>
<desc>lat.=55.900242, lon.=26.529076, Alt.=107.024475m. Speed=0.108000m/h.</desc>
<speed>0.030000</speed>
</trkpt>
<trkpt lat="55.900242" lon="26.529076">
<ele>107.092834</ele>
<time>2010-08-29T18:18:05Z</time>
<desc>lat.=55.900242, lon.=26.529076, Alt.=107.092834m. Speed=0.072000m/h.</desc>
<speed>0.020000</speed>
</trkpt>
<trkpt lat="55.900242" lon="26.529076">
<ele>107.161194</ele>
<time>2010-08-29T18:18:06Z</time>
<desc>lat.=55.900242, lon.=26.529076, Alt.=107.161194m. Speed=0.180000m/h.</desc>
<speed>0.050000</speed>
</trkpt>
<trkpt lat="55.900242" lon="26.529074">
<ele>107.221741</ele>
<time>2010-08-29T18:18:07Z</time>
<desc>lat.=55.900242, lon.=26.529074, Alt.=107.221741m. Speed=0.288000m/h.</desc>
<speed>0.080000</speed>
</trkpt>
<trkpt lat="55.900242" lon="26.529074">
<ele>107.280334</ele>
<time>2010-08-29T18:18:08Z</time>
<desc>lat.=55.900242, lon.=26.529074, Alt.=107.280334m. Speed=0.396000m/h.</desc>
<speed>0.110000</speed>
</trkpt>
<trkpt lat="55.900242" lon="26.529072">
<ele>107.336975</ele>
<time>2010-08-29T18:18:09Z</time>
<desc>lat.=55.900242, lon.=26.529072, Alt.=107.336975m. Speed=0.288000m/h.</desc>
<speed>0.080000</speed>
</trkpt>
<trkpt lat="55.900242" lon="26.529070">
<ele>107.395569</ele>
<time>2010-08-29T18:18:10Z</time>
<desc>lat.=55.900242, lon.=26.529070, Alt.=107.395569m. Speed=0.180000m/h.</desc>
<speed>0.050000</speed>
</trkpt>
<trkpt lat="55.900242" lon="26.529070">
<ele>107.456116</ele>
<time>2010-08-29T18:18:11Z</time>
<desc>lat.=55.900242, lon.=26.529070, Alt.=107.456116m. Speed=0.108000m/h.</desc>
<speed>0.030000</speed>
</trkpt>
<trkpt lat="55.900242" lon="26.529068">
<ele>107.463928</ele>
<time>2010-08-29T18:18:12Z</time>
<desc>lat.=55.900242, lon.=26.529068, Alt.=107.463928m. Speed=0.180000m/h.</desc>
<speed>0.050000</speed>
</trkpt>
<trkpt lat="55.900246" lon="26.529068">
<ele>107.473694</ele>
<time>2010-08-29T18:18:13Z</time>
<desc>lat.=55.900246, lon.=26.529068, Alt.=107.473694m. Speed=0.324000m/h.</desc>
<speed>0.090000</speed>
</trkpt>
<trkpt lat="55.900246" lon="26.529068">
<ele>107.481506</ele>
<time>2010-08-29T18:18:14Z</time>
<desc>lat.=55.900246, lon.=26.529068, Alt.=107.481506m. Speed=0.252000m/h.</desc>
<speed>0.070000</speed>
</trkpt>
<trkpt lat="55.900246" lon="26.529068">
<ele>107.485413</ele>
<time>2010-08-29T18:18:15Z</time>
<desc>lat.=55.900246, lon.=26.529068, Alt.=107.485413m. Speed=0.288000m/h.</desc>
<speed>0.080000</speed>
</trkpt>
<trkpt lat="55.900246" lon="26.529068">
<ele>107.483459</ele>
<time>2010-08-29T18:18:16Z</time>
<desc>lat.=55.900246, lon.=26.529068, Alt.=107.483459m. Speed=0.216000m/h.</desc>
<speed>0.060000</speed>
</trkpt>
<trkpt lat="55.900246" lon="26.529068">
<ele>107.481506</ele>
<time>2010-08-29T18:18:17Z</time>
<desc>lat.=55.900246, lon.=26.529068, Alt.=107.481506m. Speed=0.252000m/h.</desc>
<speed>0.070000</speed>
</trkpt>
<trkpt lat="55.900246" lon="26.529066">
<ele>107.479553</ele>
<time>2010-08-29T18:18:18Z</time>
<desc>lat.=55.900246, lon.=26.529066, Alt.=107.479553m. Speed=0.288000m/h.</desc>
<speed>0.080000</speed>
</trkpt>
<trkpt lat="55.900249" lon="26.529066">
<ele>107.467834</ele>
<time>2010-08-29T18:18:19Z</time>
<desc>lat.=55.900249, lon.=26.529066, Alt.=107.467834m. Speed=0.324000m/h.</desc>
<speed>0.090000</speed>
</trkpt>
<trkpt lat="55.900249" lon="26.529064">
<ele>107.454163</ele>
<time>2010-08-29T18:18:20Z</time>
<desc>lat.=55.900249, lon.=26.529064, Alt.=107.454163m. Speed=0.396000m/h.</desc>
<speed>0.110000</speed>
</trkpt>
<trkpt lat="55.900249" lon="26.529064">
<ele>107.430725</ele>
<time>2010-08-29T18:18:21Z</time>
<desc>lat.=55.900249, lon.=26.529064, Alt.=107.430725m. Speed=0.396000m/h.</desc>
<speed>0.110000</speed>
</trkpt>
<trkpt lat="55.900249" lon="26.529062">
<ele>107.397522</ele>
<time>2010-08-29T18:18:22Z</time>
<desc>lat.=55.900249, lon.=26.529062, Alt.=107.397522m. Speed=0.432000m/h.</desc>
<speed>0.120000</speed>
</trkpt>
<trkpt lat="55.900249" lon="26.529060">
<ele>107.364319</ele>
<time>2010-08-29T18:18:23Z</time>
<desc>lat.=55.900249, lon.=26.529060, Alt.=107.364319m. Speed=0.468000m/h.</desc>
<speed>0.130000</speed>
</trkpt>
<trkpt lat="55.900249" lon="26.529058">
<ele>107.333069</ele>
<time>2010-08-29T18:18:24Z</time>
<desc>lat.=55.900249, lon.=26.529058, Alt.=107.333069m. Speed=0.576000m/h.</desc>
<speed>0.160000</speed>
</trkpt>
<trkpt lat="55.900253" lon="26.529057">
<ele>107.294006</ele>
<time>2010-08-29T18:18:25Z</time>
<desc>lat.=55.900253, lon.=26.529057, Alt.=107.294006m. Speed=0.468000m/h.</desc>
<speed>0.130000</speed>
</trkpt>
<trkpt lat="55.900253" lon="26.529053">
<ele>107.258850</ele>
<time>2010-08-29T18:18:26Z</time>
<desc>lat.=55.900253, lon.=26.529053, Alt.=107.258850m. Speed=0.396000m/h.</desc>
<speed>0.110000</speed>
</trkpt>
<trkpt lat="55.900253" lon="26.529053">
<ele>107.225647</ele>
<time>2010-08-29T18:18:27Z</time>
<desc>lat.=55.900253, lon.=26.529053, Alt.=107.225647m. Speed=0.396000m/h.</desc>
<speed>0.110000</speed>
</trkpt>
<trkpt lat="55.900253" lon="26.529051">
<ele>107.192444</ele>
<time>2010-08-29T18:18:28Z</time>
<desc>lat.=55.900253, lon.=26.529051, Alt.=107.192444m. Speed=0.396000m/h.</desc>
<speed>0.110000</speed>
</trkpt>
<trkpt lat="55.900253" lon="26.529049">
<ele>107.157288</ele>
<time>2010-08-29T18:18:29Z</time>
<desc>lat.=55.900253, lon.=26.529049, Alt.=107.157288m. Speed=0.468000m/h.</desc>
<speed>0.130000</speed>
</trkpt>
<trkpt lat="55.900253" lon="26.529047">
<ele>107.127991</ele>
<time>2010-08-29T18:18:30Z</time>
<desc>lat.=55.900253, lon.=26.529047, Alt.=107.127991m. Speed=0.504000m/h.</desc>
<speed>0.140000</speed>
</trkpt>
<trkpt lat="55.900253" lon="26.529043">
<ele>107.094788</ele>
<time>2010-08-29T18:18:31Z</time>
<desc>lat.=55.900253, lon.=26.529043, Alt.=107.094788m. Speed=0.540000m/h.</desc>
<speed>0.150000</speed>
</trkpt>
<trkpt lat="55.900253" lon="26.529041">
<ele>107.059631</ele>
<time>2010-08-29T18:18:32Z</time>
<desc>lat.=55.900253, lon.=26.529041, Alt.=107.059631m. Speed=0.540000m/h.</desc>
<speed>0.150000</speed>
</trkpt>
<trkpt lat="55.900257" lon="26.529039">
<ele>107.022522</ele>
<time>2010-08-29T18:18:33Z</time>
<desc>lat.=55.900257, lon.=26.529039, Alt.=107.022522m. Speed=0.504000m/h.</desc>
<speed>0.140000</speed>
</trkpt>
<trkpt lat="55.900257" lon="26.529037">
<ele>106.985413</ele>
<time>2010-08-29T18:18:34Z</time>
<desc>lat.=55.900257, lon.=26.529037, Alt.=106.985413m. Speed=0.540000m/h.</desc>
<speed>0.150000</speed>
</trkpt>
<trkpt lat="55.900257" lon="26.529036">
<ele>106.948303</ele>
<time>2010-08-29T18:18:35Z</time>
<desc>lat.=55.900257, lon.=26.529036, Alt.=106.948303m. Speed=0.540000m/h.</desc>
<speed>0.150000</speed>
</trkpt>
<trkpt lat="55.900257" lon="26.529032">
<ele>106.907288</ele>
<time>2010-08-29T18:18:36Z</time>
<desc>lat.=55.900257, lon.=26.529032, Alt.=106.907288m. Speed=0.504000m/h.</desc>
<speed>0.140000</speed>
</trkpt>
<trkpt lat="55.900257" lon="26.529030">
<ele>106.866272</ele>
<time>2010-08-29T18:18:37Z</time>
<desc>lat.=55.900257, lon.=26.529030, Alt.=106.866272m. Speed=0.540000m/h.</desc>
<speed>0.150000</speed>
</trkpt>
<trkpt lat="55.900257" lon="26.529028">
<ele>106.823303</ele>
<time>2010-08-29T18:18:38Z</time>
<desc>lat.=55.900257, lon.=26.529028, Alt.=106.823303m. Speed=0.396000m/h.</desc>
<speed>0.110000</speed>
</trkpt>
<trkpt lat="55.900257" lon="26.529026">
<ele>106.784241</ele>
<time>2010-08-29T18:18:39Z</time>
<desc>lat.=55.900257, lon.=26.529026, Alt.=106.784241m. Speed=0.396000m/h.</desc>
<speed>0.110000</speed>
</trkpt>
<trkpt lat="55.900257" lon="26.529024">
<ele>106.743225</ele>
<time>2010-08-29T18:18:40Z</time>
<desc>lat.=55.900257, lon.=26.529024, Alt.=106.743225m. Speed=0.432000m/h.</desc>
<speed>0.120000</speed>
</trkpt>
<trkpt lat="55.900257" lon="26.529022">
<ele>106.700256</ele>
<time>2010-08-29T18:18:41Z</time>
<desc>lat.=55.900257, lon.=26.529022, Alt.=106.700256m. Speed=0.504000m/h.</desc>
<speed>0.140000</speed>
</trkpt>
<trkpt lat="55.900257" lon="26.529020">
<ele>106.655334</ele>
<time>2010-08-29T18:18:42Z</time>
<desc>lat.=55.900257, lon.=26.529020, Alt.=106.655334m. Speed=0.504000m/h.</desc>
<speed>0.140000</speed>
</trkpt>
<trkpt lat="55.900257" lon="26.529018">
<ele>106.606506</ele>
<time>2010-08-29T18:18:43Z</time>
<desc>lat.=55.900257, lon.=26.529018, Alt.=106.606506m. Speed=0.432000m/h.</desc>
<speed>0.120000</speed>
</trkpt>
<trkpt lat="55.900257" lon="26.529016">
<ele>106.559631</ele>
<time>2010-08-29T18:18:44Z</time>
<desc>lat.=55.900257, lon.=26.529016, Alt.=106.559631m. Speed=0.396000m/h.</desc>
<speed>0.110000</speed>
</trkpt>
<trkpt lat="55.900253" lon="26.529015">
<ele>106.510803</ele>
<time>2010-08-29T18:18:45Z</time>
<desc>lat.=55.900253, lon.=26.529015, Alt.=106.510803m. Speed=0.360000m/h.</desc>
<speed>0.100000</speed>
</trkpt>
<trkpt lat="55.900253" lon="26.529013">
<ele>106.463928</ele>
<time>2010-08-29T18:18:46Z</time>
<desc>lat.=55.900253, lon.=26.529013, Alt.=106.463928m. Speed=0.396000m/h.</desc>
<speed>0.110000</speed>
</trkpt>
<trkpt lat="55.900253" lon="26.529011">
<ele>106.413147</ele>
<time>2010-08-29T18:18:47Z</time>
<desc>lat.=55.900253, lon.=26.529011, Alt.=106.413147m. Speed=0.432000m/h.</desc>
<speed>0.120000</speed>
</trkpt>
<trkpt lat="55.900253" lon="26.529009">
<ele>106.362366</ele>
<time>2010-08-29T18:18:48Z</time>
<desc>lat.=55.900253, lon.=26.529009, Alt.=106.362366m. Speed=0.396000m/h.</desc>
<speed>0.110000</speed>
</trkpt>
<trkpt lat="55.900253" lon="26.529007">
<ele>106.313538</ele>
<time>2010-08-29T18:18:49Z</time>
<desc>lat.=55.900253, lon.=26.529007, Alt.=106.313538m. Speed=0.432000m/h.</desc>
<speed>0.120000</speed>
</trkpt>
<trkpt lat="55.900253" lon="26.529007">
<ele>106.264709</ele>
<time>2010-08-29T18:18:50Z</time>
<desc>lat.=55.900253, lon.=26.529007, Alt.=106.264709m. Speed=0.396000m/h.</desc>
<speed>0.110000</speed>
</trkpt>
<trkpt lat="55.900253" lon="26.529005">
<ele>106.211975</ele>
<time>2010-08-29T18:18:51Z</time>
<desc>lat.=55.900253, lon.=26.529005, Alt.=106.211975m. Speed=0.324000m/h.</desc>
<speed>0.090000</speed>
</trkpt>
<trkpt lat="55.900253" lon="26.529003">
<ele>106.155334</ele>
<time>2010-08-29T18:18:52Z</time>
<desc>lat.=55.900253, lon.=26.529003, Alt.=106.155334m. Speed=0.324000m/h.</desc>
<speed>0.090000</speed>
</trkpt>
<trkpt lat="55.900249" lon="26.529003">
<ele>106.094788</ele>
<time>2010-08-29T18:18:53Z</time>
<desc>lat.=55.900249, lon.=26.529003, Alt.=106.094788m. Speed=0.216000m/h.</desc>
<speed>0.060000</speed>
</trkpt>
<trkpt lat="55.900249" lon="26.529003">
<ele>106.034241</ele>
<time>2010-08-29T18:18:54Z</time>
<desc>lat.=55.900249, lon.=26.529003, Alt.=106.034241m. Speed=0.252000m/h.</desc>
<speed>0.070000</speed>
</trkpt>
<trkpt lat="55.900249" lon="26.529001">
<ele>105.965881</ele>
<time>2010-08-29T18:18:55Z</time>
<desc>lat.=55.900249, lon.=26.529001, Alt.=105.965881m. Speed=0.252000m/h.</desc>
<speed>0.070000</speed>
</trkpt>
<trkpt lat="55.900249" lon="26.529001">
<ele>105.899475</ele>
<time>2010-08-29T18:18:56Z</time>
<desc>lat.=55.900249, lon.=26.529001, Alt.=105.899475m. Speed=0.324000m/h.</desc>
<speed>0.090000</speed>
</trkpt>
<trkpt lat="55.900249" lon="26.529001">
<ele>105.827209</ele>
<time>2010-08-29T18:18:57Z</time>
<desc>lat.=55.900249, lon.=26.529001, Alt.=105.827209m. Speed=0.252000m/h.</desc>
<speed>0.070000</speed>
</trkpt>
<trkpt lat="55.900249" lon="26.529001">
<ele>105.752991</ele>
<time>2010-08-29T18:18:58Z</time>
<desc>lat.=55.900249, lon.=26.529001, Alt.=105.752991m. Speed=0.216000m/h.</desc>
<speed>0.060000</speed>
</trkpt>
<trkpt lat="55.900246" lon="26.529001">
<ele>105.680725</ele>
<time>2010-08-29T18:18:59Z</time>
<desc>lat.=55.900246, lon.=26.529001, Alt.=105.680725m. Speed=0.288000m/h.</desc>
<speed>0.080000</speed>
</trkpt>
<trkpt lat="55.900246" lon="26.529001">
<ele>105.608459</ele>
<time>2010-08-29T18:19:00Z</time>
<desc>lat.=55.900246, lon.=26.529001, Alt.=105.608459m. Speed=0.288000m/h.</desc>
<speed>0.080000</speed>
</trkpt>
<trkpt lat="55.900246" lon="26.529001">
<ele>105.542053</ele>
<time>2010-08-29T18:19:01Z</time>
<desc>lat.=55.900246, lon.=26.529001, Alt.=105.542053m. Speed=0.288000m/h.</desc>
<speed>0.080000</speed>
</trkpt>
<trkpt lat="55.900246" lon="26.529001">
<ele>105.477600</ele>
<time>2010-08-29T18:19:02Z</time>
<desc>lat.=55.900246, lon.=26.529001, Alt.=105.477600m. Speed=0.360000m/h.</desc>
<speed>0.100000</speed>
</trkpt>
<trkpt lat="55.900242" lon="26.529001">
<ele>105.413147</ele>
<time>2010-08-29T18:19:03Z</time>
<desc>lat.=55.900242, lon.=26.529001, Alt.=105.413147m. Speed=0.396000m/h.</desc>
<speed>0.110000</speed>
</trkpt>
<trkpt lat="55.900242" lon="26.529001">
<ele>105.350647</ele>
<time>2010-08-29T18:19:04Z</time>
<desc>lat.=55.900242, lon.=26.529001, Alt.=105.350647m. Speed=0.396000m/h.</desc>
<speed>0.110000</speed>
</trkpt>
<trkpt lat="55.900242" lon="26.529001">
<ele>105.286194</ele>
<time>2010-08-29T18:19:05Z</time>
<desc>lat.=55.900242, lon.=26.529001, Alt.=105.286194m. Speed=0.396000m/h.</desc>
<speed>0.110000</speed>
</trkpt>
<trkpt lat="55.900242" lon="26.529001">
<ele>105.221741</ele>
<time>2010-08-29T18:19:06Z</time>
<desc>lat.=55.900242, lon.=26.529001, Alt.=105.221741m. Speed=0.432000m/h.</desc>
<speed>0.120000</speed>
</trkpt>
<trkpt lat="55.900238" lon="26.529001">
<ele>105.157288</ele>
<time>2010-08-29T18:19:07Z</time>
<desc>lat.=55.900238, lon.=26.529001, Alt.=105.157288m. Speed=0.324000m/h.</desc>
<speed>0.090000</speed>
</trkpt>
<trkpt lat="55.900238" lon="26.529001">
<ele>105.098694</ele>
<time>2010-08-29T18:19:08Z</time>
<desc>lat.=55.900238, lon.=26.529001, Alt.=105.098694m. Speed=0.360000m/h.</desc>
<speed>0.100000</speed>
</trkpt>
<trkpt lat="55.900238" lon="26.529001">
<ele>105.032288</ele>
<time>2010-08-29T18:19:09Z</time>
<desc>lat.=55.900238, lon.=26.529001, Alt.=105.032288m. Speed=0.288000m/h.</desc>
<speed>0.080000</speed>
</trkpt>
<trkpt lat="55.900238" lon="26.529001">
<ele>104.969788</ele>
<time>2010-08-29T18:19:10Z</time>
<desc>lat.=55.900238, lon.=26.529001, Alt.=104.969788m. Speed=0.216000m/h.</desc>
<speed>0.060000</speed>
</trkpt>
<trkpt lat="55.900238" lon="26.529001">
<ele>104.907288</ele>
<time>2010-08-29T18:19:11Z</time>
<desc>lat.=55.900238, lon.=26.529001, Alt.=104.907288m. Speed=0.180000m/h.</desc>
<speed>0.050000</speed>
</trkpt>
<trkpt lat="55.900234" lon="26.529001">
<ele>104.848694</ele>
<time>2010-08-29T18:19:12Z</time>
<desc>lat.=55.900234, lon.=26.529001, Alt.=104.848694m. Speed=0.252000m/h.</desc>
<speed>0.070000</speed>
</trkpt>
<trkpt lat="55.900234" lon="26.529001">
<ele>104.790100</ele>
<time>2010-08-29T18:19:13Z</time>
<desc>lat.=55.900234, lon.=26.529001, Alt.=104.790100m. Speed=0.180000m/h.</desc>
<speed>0.050000</speed>
</trkpt>
<trkpt lat="55.900234" lon="26.528999">
<ele>104.725647</ele>
<time>2010-08-29T18:19:14Z</time>
<desc>lat.=55.900234, lon.=26.528999, Alt.=104.725647m. Speed=0.216000m/h.</desc>
<speed>0.060000</speed>
</trkpt>
<trkpt lat="55.900234" lon="26.529001">
<ele>104.661194</ele>
<time>2010-08-29T18:19:15Z</time>
<desc>lat.=55.900234, lon.=26.529001, Alt.=104.661194m. Speed=0.252000m/h.</desc>
<speed>0.070000</speed>
</trkpt>
<trkpt lat="55.900234" lon="26.528999">
<ele>104.590881</ele>
<time>2010-08-29T18:19:16Z</time>
<desc>lat.=55.900234, lon.=26.528999, Alt.=104.590881m. Speed=0.180000m/h.</desc>
<speed>0.050000</speed>
</trkpt>
<trkpt lat="55.900234" lon="26.528999">
<ele>104.524475</ele>
<time>2010-08-29T18:19:17Z</time>
<desc>lat.=55.900234, lon.=26.528999, Alt.=104.524475m. Speed=0.180000m/h.</desc>
<speed>0.050000</speed>
</trkpt>
<trkpt lat="55.900234" lon="26.529001">
<ele>104.461975</ele>
<time>2010-08-29T18:19:18Z</time>
<desc>lat.=55.900234, lon.=26.529001, Alt.=104.461975m. Speed=0.144000m/h.</desc>
<speed>0.040000</speed>
</trkpt>
<trkpt lat="55.900234" lon="26.529001">
<ele>104.387756</ele>
<time>2010-08-29T18:19:19Z</time>
<desc>lat.=55.900234, lon.=26.529001, Alt.=104.387756m. Speed=0.216000m/h.</desc>
<speed>0.060000</speed>
</trkpt>
<trkpt lat="55.900230" lon="26.529001">
<ele>104.309631</ele>
<time>2010-08-29T18:19:20Z</time>
<desc>lat.=55.900230, lon.=26.529001, Alt.=104.309631m. Speed=0.288000m/h.</desc>
<speed>0.080000</speed>
</trkpt>
<trkpt lat="55.900230" lon="26.529001">
<ele>104.231506</ele>
<time>2010-08-29T18:19:21Z</time>
<desc>lat.=55.900230, lon.=26.529001, Alt.=104.231506m. Speed=0.360000m/h.</desc>
<speed>0.100000</speed>
</trkpt>
<trkpt lat="55.900230" lon="26.529003">
<ele>104.153381</ele>
<time>2010-08-29T18:19:22Z</time>
<desc>lat.=55.900230, lon.=26.529003, Alt.=104.153381m. Speed=0.324000m/h.</desc>
<speed>0.090000</speed>
</trkpt>
<trkpt lat="55.900230" lon="26.529003">
<ele>104.075256</ele>
<time>2010-08-29T18:19:23Z</time>
<desc>lat.=55.900230, lon.=26.529003, Alt.=104.075256m. Speed=0.288000m/h.</desc>
<speed>0.080000</speed>
</trkpt>
<trkpt lat="55.900230" lon="26.529005">
<ele>103.995178</ele>
<time>2010-08-29T18:19:24Z</time>
<desc>lat.=55.900230, lon.=26.529005, Alt.=103.995178m. Speed=0.252000m/h.</desc>
<speed>0.070000</speed>
</trkpt>
<trkpt lat="55.900230" lon="26.529005">
<ele>103.915100</ele>
<time>2010-08-29T18:19:25Z</time>
<desc>lat.=55.900230, lon.=26.529005, Alt.=103.915100m. Speed=0.180000m/h.</desc>
<speed>0.050000</speed>
</trkpt>
<trkpt lat="55.900227" lon="26.529005">
<ele>103.829163</ele>
<time>2010-08-29T18:19:26Z</time>
<desc>lat.=55.900227, lon.=26.529005, Alt.=103.829163m. Speed=0.180000m/h.</desc>
<speed>0.050000</speed>
</trkpt>
<trkpt lat="55.900227" lon="26.529007">
<ele>103.739319</ele>
<time>2010-08-29T18:19:27Z</time>
<desc>lat.=55.900227, lon.=26.529007, Alt.=103.739319m. Speed=0.216000m/h.</desc>
<speed>0.060000</speed>
</trkpt>
<trkpt lat="55.900227" lon="26.529007">
<ele>103.647522</ele>
<time>2010-08-29T18:19:28Z</time>
<desc>lat.=55.900227, lon.=26.529007, Alt.=103.647522m. Speed=0.216000m/h.</desc>
<speed>0.060000</speed>
</trkpt>
<trkpt lat="55.900227" lon="26.529009">
<ele>103.559631</ele>
<time>2010-08-29T18:19:29Z</time>
<desc>lat.=55.900227, lon.=26.529009, Alt.=103.559631m. Speed=0.252000m/h.</desc>
<speed>0.070000</speed>
</trkpt>
<trkpt lat="55.900227" lon="26.529009">
<ele>103.471741</ele>
<time>2010-08-29T18:19:30Z</time>
<desc>lat.=55.900227, lon.=26.529009, Alt.=103.471741m. Speed=0.288000m/h.</desc>
<speed>0.080000</speed>
</trkpt>
<trkpt lat="55.900227" lon="26.529011">
<ele>103.385803</ele>
<time>2010-08-29T18:19:31Z</time>
<desc>lat.=55.900227, lon.=26.529011, Alt.=103.385803m. Speed=0.252000m/h.</desc>
<speed>0.070000</speed>
</trkpt>
<trkpt lat="55.900227" lon="26.529011">
<ele>103.305725</ele>
<time>2010-08-29T18:19:32Z</time>
<desc>lat.=55.900227, lon.=26.529011, Alt.=103.305725m. Speed=0.252000m/h.</desc>
<speed>0.070000</speed>
</trkpt>
<trkpt lat="55.900227" lon="26.529011">
<ele>103.221741</ele>
<time>2010-08-29T18:19:33Z</time>
<desc>lat.=55.900227, lon.=26.529011, Alt.=103.221741m. Speed=0.288000m/h.</desc>
<speed>0.080000</speed>
</trkpt>
<trkpt lat="55.900223" lon="26.529013">
<ele>103.135803</ele>
<time>2010-08-29T18:19:34Z</time>
<desc>lat.=55.900223, lon.=26.529013, Alt.=103.135803m. Speed=0.432000m/h.</desc>
<speed>0.120000</speed>
</trkpt>
<trkpt lat="55.900223" lon="26.529013">
<ele>103.049866</ele>
<time>2010-08-29T18:19:35Z</time>
<desc>lat.=55.900223, lon.=26.529013, Alt.=103.049866m. Speed=0.504000m/h.</desc>
<speed>0.140000</speed>
</trkpt>
<trkpt lat="55.900223" lon="26.529013">
<ele>102.963928</ele>
<time>2010-08-29T18:19:36Z</time>
<desc>lat.=55.900223, lon.=26.529013, Alt.=102.963928m. Speed=0.540000m/h.</desc>
<speed>0.150000</speed>
</trkpt>
<trkpt lat="55.900219" lon="26.529013">
<ele>102.876038</ele>
<time>2010-08-29T18:19:37Z</time>
<desc>lat.=55.900219, lon.=26.529013, Alt.=102.876038m. Speed=0.576000m/h.</desc>
<speed>0.160000</speed>
</trkpt>
<trkpt lat="55.900219" lon="26.529015">
<ele>102.790100</ele>
<time>2010-08-29T18:19:38Z</time>
<desc>lat.=55.900219, lon.=26.529015, Alt.=102.790100m. Speed=0.756000m/h.</desc>
<speed>0.210000</speed>
</trkpt>
<trkpt lat="55.900215" lon="26.529015">
<ele>102.704163</ele>
<time>2010-08-29T18:19:39Z</time>
<desc>lat.=55.900215, lon.=26.529015, Alt.=102.704163m. Speed=0.792000m/h.</desc>
<speed>0.220000</speed>
</trkpt>
<trkpt lat="55.900215" lon="26.529015">
<ele>102.618225</ele>
<time>2010-08-29T18:19:40Z</time>
<desc>lat.=55.900215, lon.=26.529015, Alt.=102.618225m. Speed=0.792000m/h.</desc>
<speed>0.220000</speed>
</trkpt>
<trkpt lat="55.900211" lon="26.529016">
<ele>102.536194</ele>
<time>2010-08-29T18:19:41Z</time>
<desc>lat.=55.900211, lon.=26.529016, Alt.=102.536194m. Speed=0.756000m/h.</desc>
<speed>0.210000</speed>
</trkpt>
<trkpt lat="55.900211" lon="26.529016">
<ele>102.450256</ele>
<time>2010-08-29T18:19:42Z</time>
<desc>lat.=55.900211, lon.=26.529016, Alt.=102.450256m. Speed=0.828000m/h.</desc>
<speed>0.230000</speed>
</trkpt>
<trkpt lat="55.900208" lon="26.529016">
<ele>102.364319</ele>
<time>2010-08-29T18:19:43Z</time>
<desc>lat.=55.900208, lon.=26.529016, Alt.=102.364319m. Speed=0.792000m/h.</desc>
<speed>0.220000</speed>
</trkpt>
<trkpt lat="55.900208" lon="26.529018">
<ele>102.282288</ele>
<time>2010-08-29T18:19:44Z</time>
<desc>lat.=55.900208, lon.=26.529018, Alt.=102.282288m. Speed=0.828000m/h.</desc>
<speed>0.230000</speed>
</trkpt>
<trkpt lat="55.900204" lon="26.529018">
<ele>102.198303</ele>
<time>2010-08-29T18:19:45Z</time>
<desc>lat.=55.900204, lon.=26.529018, Alt.=102.198303m. Speed=0.756000m/h.</desc>
<speed>0.210000</speed>
</trkpt>
<trkpt lat="55.900204" lon="26.529018">
<ele>102.116272</ele>
<time>2010-08-29T18:19:46Z</time>
<desc>lat.=55.900204, lon.=26.529018, Alt.=102.116272m. Speed=0.612000m/h.</desc>
<speed>0.170000</speed>
</trkpt>
<trkpt lat="55.900200" lon="26.529018">
<ele>102.045959</ele>
<time>2010-08-29T18:19:47Z</time>
<desc>lat.=55.900200, lon.=26.529018, Alt.=102.045959m. Speed=0.576000m/h.</desc>
<speed>0.160000</speed>
</trkpt>
<trkpt lat="55.900200" lon="26.529018">
<ele>101.973694</ele>
<time>2010-08-29T18:19:48Z</time>
<desc>lat.=55.900200, lon.=26.529018, Alt.=101.973694m. Speed=0.504000m/h.</desc>
<speed>0.140000</speed>
</trkpt>
<trkpt lat="55.900200" lon="26.529018">
<ele>101.903381</ele>
<time>2010-08-29T18:19:49Z</time>
<desc>lat.=55.900200, lon.=26.529018, Alt.=101.903381m. Speed=0.432000m/h.</desc>
<speed>0.120000</speed>
</trkpt>
<trkpt lat="55.900196" lon="26.529018">
<ele>101.827209</ele>
<time>2010-08-29T18:19:50Z</time>
<desc>lat.=55.900196, lon.=26.529018, Alt.=101.827209m. Speed=0.360000m/h.</desc>
<speed>0.100000</speed>
</trkpt>
<trkpt lat="55.900196" lon="26.529016">
<ele>101.752991</ele>
<time>2010-08-29T18:19:51Z</time>
<desc>lat.=55.900196, lon.=26.529016, Alt.=101.752991m. Speed=0.324000m/h.</desc>
<speed>0.090000</speed>
</trkpt>
<trkpt lat="55.900196" lon="26.529016">
<ele>101.680725</ele>
<time>2010-08-29T18:19:52Z</time>
<desc>lat.=55.900196, lon.=26.529016, Alt.=101.680725m. Speed=0.360000m/h.</desc>
<speed>0.100000</speed>
</trkpt>
<trkpt lat="55.900196" lon="26.529016">
<ele>101.606506</ele>
<time>2010-08-29T18:19:53Z</time>
<desc>lat.=55.900196, lon.=26.529016, Alt.=101.606506m. Speed=0.324000m/h.</desc>
<speed>0.090000</speed>
</trkpt>
<trkpt lat="55.900192" lon="26.529016">
<ele>101.526428</ele>
<time>2010-08-29T18:19:54Z</time>
<desc>lat.=55.900192, lon.=26.529016, Alt.=101.526428m. Speed=0.324000m/h.</desc>
<speed>0.090000</speed>
</trkpt>
<trkpt lat="55.900192" lon="26.529015">
<ele>101.450256</ele>
<time>2010-08-29T18:19:55Z</time>
<desc>lat.=55.900192, lon.=26.529015, Alt.=101.450256m. Speed=0.288000m/h.</desc>
<speed>0.080000</speed>
</trkpt>
<trkpt lat="55.900192" lon="26.529015">
<ele>101.376038</ele>
<time>2010-08-29T18:19:56Z</time>
<desc>lat.=55.900192, lon.=26.529015, Alt.=101.376038m. Speed=0.252000m/h.</desc>
<speed>0.070000</speed>
</trkpt>
<trkpt lat="55.900192" lon="26.529013">
<ele>101.299866</ele>
<time>2010-08-29T18:19:57Z</time>
<desc>lat.=55.900192, lon.=26.529013, Alt.=101.299866m. Speed=0.252000m/h.</desc>
<speed>0.070000</speed>
</trkpt>
<trkpt lat="55.900192" lon="26.529013">
<ele>101.229553</ele>
<time>2010-08-29T18:19:58Z</time>
<desc>lat.=55.900192, lon.=26.529013, Alt.=101.229553m. Speed=0.144000m/h.</desc>
<speed>0.040000</speed>
</trkpt>
<trkpt lat="55.900192" lon="26.529013">
<ele>101.161194</ele>
<time>2010-08-29T18:19:59Z</time>
<desc>lat.=55.900192, lon.=26.529013, Alt.=101.161194m. Speed=0.144000m/h.</desc>
<speed>0.040000</speed>
</trkpt>
<trkpt lat="55.900192" lon="26.529011">
<ele>101.090881</ele>
<time>2010-08-29T18:20:00Z</time>
<desc>lat.=55.900192, lon.=26.529011, Alt.=101.090881m. Speed=0.252000m/h.</desc>
<speed>0.070000</speed>
</trkpt>
<trkpt lat="55.900192" lon="26.529011">
<ele>101.028381</ele>
<time>2010-08-29T18:20:01Z</time>
<desc>lat.=55.900192, lon.=26.529011, Alt.=101.028381m. Speed=0.252000m/h.</desc>
<speed>0.070000</speed>
</trkpt>
<trkpt lat="55.900192" lon="26.529009">
<ele>100.956116</ele>
<time>2010-08-29T18:20:02Z</time>
<desc>lat.=55.900192, lon.=26.529009, Alt.=100.956116m. Speed=0.396000m/h.</desc>
<speed>0.110000</speed>
</trkpt>
<trkpt lat="55.900192" lon="26.529007">
<ele>100.887756</ele>
<time>2010-08-29T18:20:03Z</time>
<desc>lat.=55.900192, lon.=26.529007, Alt.=100.887756m. Speed=0.396000m/h.</desc>
<speed>0.110000</speed>
</trkpt>
<trkpt lat="55.900196" lon="26.529007">
<ele>100.817444</ele>
<time>2010-08-29T18:20:04Z</time>
<desc>lat.=55.900196, lon.=26.529007, Alt.=100.817444m. Speed=0.432000m/h.</desc>
<speed>0.120000</speed>
</trkpt>
<trkpt lat="55.900196" lon="26.529005">
<ele>100.743225</ele>
<time>2010-08-29T18:20:05Z</time>
<desc>lat.=55.900196, lon.=26.529005, Alt.=100.743225m. Speed=0.504000m/h.</desc>
<speed>0.140000</speed>
</trkpt>
<trkpt lat="55.900196" lon="26.529003">
<ele>100.670959</ele>
<time>2010-08-29T18:20:06Z</time>
<desc>lat.=55.900196, lon.=26.529003, Alt.=100.670959m. Speed=0.540000m/h.</desc>
<speed>0.150000</speed>
</trkpt>
<trkpt lat="55.900196" lon="26.529003">
<ele>100.594788</ele>
<time>2010-08-29T18:20:07Z</time>
<desc>lat.=55.900196, lon.=26.529003, Alt.=100.594788m. Speed=0.504000m/h.</desc>
<speed>0.140000</speed>
</trkpt>
<trkpt lat="55.900200" lon="26.529001">
<ele>100.516663</ele>
<time>2010-08-29T18:20:08Z</time>
<desc>lat.=55.900200, lon.=26.529001, Alt.=100.516663m. Speed=0.468000m/h.</desc>
<speed>0.130000</speed>
</trkpt>
<trkpt lat="55.900200" lon="26.529001">
<ele>100.432678</ele>
<time>2010-08-29T18:20:09Z</time>
<desc>lat.=55.900200, lon.=26.529001, Alt.=100.432678m. Speed=0.504000m/h.</desc>
<speed>0.140000</speed>
</trkpt>
<trkpt lat="55.900200" lon="26.529001">
<ele>100.338928</ele>
<time>2010-08-29T18:20:10Z</time>
<desc>lat.=55.900200, lon.=26.529001, Alt.=100.338928m. Speed=0.576000m/h.</desc>
<speed>0.160000</speed>
</trkpt>
<trkpt lat="55.900204" lon="26.529001">
<ele>100.245178</ele>
<time>2010-08-29T18:20:11Z</time>
<desc>lat.=55.900204, lon.=26.529001, Alt.=100.245178m. Speed=0.540000m/h.</desc>
<speed>0.150000</speed>
</trkpt>
<trkpt lat="55.900204" lon="26.528999">
<ele>100.143616</ele>
<time>2010-08-29T18:20:12Z</time>
<desc>lat.=55.900204, lon.=26.528999, Alt.=100.143616m. Speed=0.468000m/h.</desc>
<speed>0.130000</speed>
</trkpt>
<trkpt lat="55.900204" lon="26.528999">
<ele>100.038147</ele>
<time>2010-08-29T18:20:13Z</time>
<desc>lat.=55.900204, lon.=26.528999, Alt.=100.038147m. Speed=0.468000m/h.</desc>
<speed>0.130000</speed>
</trkpt>
<trkpt lat="55.900208" lon="26.528999">
<ele>99.932678</ele>
<time>2010-08-29T18:20:14Z</time>
<desc>lat.=55.900208, lon.=26.528999, Alt.=99.932678m. Speed=0.468000m/h.</desc>
<speed>0.130000</speed>
</trkpt>
<trkpt lat="55.900208" lon="26.528999">
<ele>99.813538</ele>
<time>2010-08-29T18:20:15Z</time>
<desc>lat.=55.900208, lon.=26.528999, Alt.=99.813538m. Speed=0.504000m/h.</desc>
<speed>0.140000</speed>
</trkpt>
<trkpt lat="55.900208" lon="26.528999">
<ele>99.692444</ele>
<time>2010-08-29T18:20:16Z</time>
<desc>lat.=55.900208, lon.=26.528999, Alt.=99.692444m. Speed=0.468000m/h.</desc>
<speed>0.130000</speed>
</trkpt>
<trkpt lat="55.900211" lon="26.528997">
<ele>99.567444</ele>
<time>2010-08-29T18:20:17Z</time>
<desc>lat.=55.900211, lon.=26.528997, Alt.=99.567444m. Speed=0.360000m/h.</desc>
<speed>0.100000</speed>
</trkpt>
<trkpt lat="55.900211" lon="26.528997">
<ele>99.428772</ele>
<time>2010-08-29T18:20:18Z</time>
<desc>lat.=55.900211, lon.=26.528997, Alt.=99.428772m. Speed=0.288000m/h.</desc>
<speed>0.080000</speed>
</trkpt>
<trkpt lat="55.900211" lon="26.528997">
<ele>99.276428</ele>
<time>2010-08-29T18:20:19Z</time>
<desc>lat.=55.900211, lon.=26.528997, Alt.=99.276428m. Speed=0.180000m/h.</desc>
<speed>0.050000</speed>
</trkpt>
<trkpt lat="55.900211" lon="26.528997">
<ele>99.133850</ele>
<time>2010-08-29T18:20:20Z</time>
<desc>lat.=55.900211, lon.=26.528997, Alt.=99.133850m. Speed=0.072000m/h.</desc>
<speed>0.020000</speed>
</trkpt>
<trkpt lat="55.900211" lon="26.528997">
<ele>98.981506</ele>
<time>2010-08-29T18:20:21Z</time>
<desc>lat.=55.900211, lon.=26.528997, Alt.=98.981506m. Speed=0.072000m/h.</desc>
<speed>0.020000</speed>
</trkpt>
<trkpt lat="55.900211" lon="26.528997">
<ele>98.827209</ele>
<time>2010-08-29T18:20:22Z</time>
<desc>lat.=55.900211, lon.=26.528997, Alt.=98.827209m. Speed=0.072000m/h.</desc>
<speed>0.020000</speed>
</trkpt>
<trkpt lat="55.900211" lon="26.528997">
<ele>98.672913</ele>
<time>2010-08-29T18:20:23Z</time>
<desc>lat.=55.900211, lon.=26.528997, Alt.=98.672913m. Speed=0.144000m/h.</desc>
<speed>0.040000</speed>
</trkpt>
<trkpt lat="55.900211" lon="26.528997">
<ele>98.512756</ele>
<time>2010-08-29T18:20:24Z</time>
<desc>lat.=55.900211, lon.=26.528997, Alt.=98.512756m. Speed=0.144000m/h.</desc>
<speed>0.040000</speed>
</trkpt>
<trkpt lat="55.900211" lon="26.528999">
<ele>98.352600</ele>
<time>2010-08-29T18:20:25Z</time>
<desc>lat.=55.900211, lon.=26.528999, Alt.=98.352600m. Speed=0.216000m/h.</desc>
<speed>0.060000</speed>
</trkpt>
<trkpt lat="55.900211" lon="26.528999">
<ele>98.198303</ele>
<time>2010-08-29T18:20:26Z</time>
<desc>lat.=55.900211, lon.=26.528999, Alt.=98.198303m. Speed=0.216000m/h.</desc>
<speed>0.060000</speed>
</trkpt>
<trkpt lat="55.900211" lon="26.528999">
<ele>98.038147</ele>
<time>2010-08-29T18:20:27Z</time>
<desc>lat.=55.900211, lon.=26.528999, Alt.=98.038147m. Speed=0.252000m/h.</desc>
<speed>0.070000</speed>
</trkpt>
<trkpt lat="55.900211" lon="26.529001">
<ele>97.879944</ele>
<time>2010-08-29T18:20:28Z</time>
<desc>lat.=55.900211, lon.=26.529001, Alt.=97.879944m. Speed=0.324000m/h.</desc>
<speed>0.090000</speed>
</trkpt>
<trkpt lat="55.900211" lon="26.529003">
<ele>97.708069</ele>
<time>2010-08-29T18:20:29Z</time>
<desc>lat.=55.900211, lon.=26.529003, Alt.=97.708069m. Speed=0.324000m/h.</desc>
<speed>0.090000</speed>
</trkpt>
<trkpt lat="55.900211" lon="26.529005">
<ele>97.538147</ele>
<time>2010-08-29T18:20:30Z</time>
<desc>lat.=55.900211, lon.=26.529005, Alt.=97.538147m. Speed=0.252000m/h.</desc>
<speed>0.070000</speed>
</trkpt>
<trkpt lat="55.900211" lon="26.529005">
<ele>97.344788</ele>
<time>2010-08-29T18:20:31Z</time>
<desc>lat.=55.900211, lon.=26.529005, Alt.=97.344788m. Speed=0.252000m/h.</desc>
<speed>0.070000</speed>
</trkpt>
<trkpt lat="55.900211" lon="26.529007">
<ele>97.157288</ele>
<time>2010-08-29T18:20:32Z</time>
<desc>lat.=55.900211, lon.=26.529007, Alt.=97.157288m. Speed=0.252000m/h.</desc>
<speed>0.070000</speed>
</trkpt>
<trkpt lat="55.900208" lon="26.529009">
<ele>96.963928</ele>
<time>2010-08-29T18:20:33Z</time>
<desc>lat.=55.900208, lon.=26.529009, Alt.=96.963928m. Speed=0.324000m/h.</desc>
<speed>0.090000</speed>
</trkpt>
<trkpt lat="55.900208" lon="26.529009">
<ele>96.774475</ele>
<time>2010-08-29T18:20:34Z</time>
<desc>lat.=55.900208, lon.=26.529009, Alt.=96.774475m. Speed=0.288000m/h.</desc>
<speed>0.080000</speed>
</trkpt>
<trkpt lat="55.900208" lon="26.529011">
<ele>96.577209</ele>
<time>2010-08-29T18:20:35Z</time>
<desc>lat.=55.900208, lon.=26.529011, Alt.=96.577209m. Speed=0.360000m/h.</desc>
<speed>0.100000</speed>
</trkpt>
<trkpt lat="55.900208" lon="26.529013">
<ele>96.405334</ele>
<time>2010-08-29T18:20:36Z</time>
<desc>lat.=55.900208, lon.=26.529013, Alt.=96.405334m. Speed=0.360000m/h.</desc>
<speed>0.100000</speed>
</trkpt>
<trkpt lat="55.900208" lon="26.529015">
<ele>96.233459</ele>
<time>2010-08-29T18:20:37Z</time>
<desc>lat.=55.900208, lon.=26.529015, Alt.=96.233459m. Speed=0.396000m/h.</desc>
<speed>0.110000</speed>
</trkpt>
<trkpt lat="55.900208" lon="26.529016">
<ele>96.045959</ele>
<time>2010-08-29T18:20:38Z</time>
<desc>lat.=55.900208, lon.=26.529016, Alt.=96.045959m. Speed=0.432000m/h.</desc>
<speed>0.120000</speed>
</trkpt>
<trkpt lat="55.900208" lon="26.529016">
<ele>95.862366</ele>
<time>2010-08-29T18:20:39Z</time>
<desc>lat.=55.900208, lon.=26.529016, Alt.=95.862366m. Speed=0.504000m/h.</desc>
<speed>0.140000</speed>
</trkpt>
<trkpt lat="55.900208" lon="26.529020">
<ele>95.676819</ele>
<time>2010-08-29T18:20:40Z</time>
<desc>lat.=55.900208, lon.=26.529020, Alt.=95.676819m. Speed=0.576000m/h.</desc>
<speed>0.160000</speed>
</trkpt>
<trkpt lat="55.900204" lon="26.529022">
<ele>95.495178</ele>
<time>2010-08-29T18:20:41Z</time>
<desc>lat.=55.900204, lon.=26.529022, Alt.=95.495178m. Speed=0.576000m/h.</desc>
<speed>0.160000</speed>
</trkpt>
<trkpt lat="55.900204" lon="26.529024">
<ele>95.325256</ele>
<time>2010-08-29T18:20:42Z</time>
<desc>lat.=55.900204, lon.=26.529024, Alt.=95.325256m. Speed=0.720000m/h.</desc>
<speed>0.200000</speed>
</trkpt>
<trkpt lat="55.900204" lon="26.529026">
<ele>95.151428</ele>
<time>2010-08-29T18:20:43Z</time>
<desc>lat.=55.900204, lon.=26.529026, Alt.=95.151428m. Speed=0.792000m/h.</desc>
<speed>0.220000</speed>
</trkpt>
<trkpt lat="55.900200" lon="26.529028">
<ele>94.977600</ele>
<time>2010-08-29T18:20:44Z</time>
<desc>lat.=55.900200, lon.=26.529028, Alt.=94.977600m. Speed=0.864000m/h.</desc>
<speed>0.240000</speed>
</trkpt>
<trkpt lat="55.900200" lon="26.529030">
<ele>94.809631</ele>
<time>2010-08-29T18:20:45Z</time>
<desc>lat.=55.900200, lon.=26.529030, Alt.=94.809631m. Speed=0.864000m/h.</desc>
<speed>0.240000</speed>
</trkpt>
<trkpt lat="55.900196" lon="26.529032">
<ele>94.639709</ele>
<time>2010-08-29T18:20:46Z</time>
<desc>lat.=55.900196, lon.=26.529032, Alt.=94.639709m. Speed=0.900000m/h.</desc>
<speed>0.250000</speed>
</trkpt>
<trkpt lat="55.900196" lon="26.529036">
<ele>94.471741</ele>
<time>2010-08-29T18:20:47Z</time>
<desc>lat.=55.900196, lon.=26.529036, Alt.=94.471741m. Speed=0.936000m/h.</desc>
<speed>0.260000</speed>
</trkpt>
<trkpt lat="55.900192" lon="26.529037">
<ele>94.305725</ele>
<time>2010-08-29T18:20:48Z</time>
<desc>lat.=55.900192, lon.=26.529037, Alt.=94.305725m. Speed=0.936000m/h.</desc>
<speed>0.260000</speed>
</trkpt>
<trkpt lat="55.900192" lon="26.529039">
<ele>94.139709</ele>
<time>2010-08-29T18:20:49Z</time>
<desc>lat.=55.900192, lon.=26.529039, Alt.=94.139709m. Speed=0.936000m/h.</desc>
<speed>0.260000</speed>
</trkpt>
<trkpt lat="55.900188" lon="26.529041">
<ele>93.975647</ele>
<time>2010-08-29T18:20:50Z</time>
<desc>lat.=55.900188, lon.=26.529041, Alt.=93.975647m. Speed=0.900000m/h.</desc>
<speed>0.250000</speed>
</trkpt>
<trkpt lat="55.900188" lon="26.529043">
<ele>93.813538</ele>
<time>2010-08-29T18:20:51Z</time>
<desc>lat.=55.900188, lon.=26.529043, Alt.=93.813538m. Speed=0.900000m/h.</desc>
<speed>0.250000</speed>
</trkpt>
<trkpt lat="55.900185" lon="26.529045">
<ele>93.653381</ele>
<time>2010-08-29T18:20:52Z</time>
<desc>lat.=55.900185, lon.=26.529045, Alt.=93.653381m. Speed=0.864000m/h.</desc>
<speed>0.240000</speed>
</trkpt>
<trkpt lat="55.900185" lon="26.529045">
<ele>93.491272</ele>
<time>2010-08-29T18:20:53Z</time>
<desc>lat.=55.900185, lon.=26.529045, Alt.=93.491272m. Speed=0.756000m/h.</desc>
<speed>0.210000</speed>
</trkpt>
<trkpt lat="55.900181" lon="26.529047">
<ele>93.331116</ele>
<time>2010-08-29T18:20:54Z</time>
<desc>lat.=55.900181, lon.=26.529047, Alt.=93.331116m. Speed=0.756000m/h.</desc>
<speed>0.210000</speed>
</trkpt>
<trkpt lat="55.900181" lon="26.529049">
<ele>93.170959</ele>
<time>2010-08-29T18:20:55Z</time>
<desc>lat.=55.900181, lon.=26.529049, Alt.=93.170959m. Speed=0.756000m/h.</desc>
<speed>0.210000</speed>
</trkpt>
<trkpt lat="55.900177" lon="26.529049">
<ele>93.010803</ele>
<time>2010-08-29T18:20:56Z</time>
<desc>lat.=55.900177, lon.=26.529049, Alt.=93.010803m. Speed=0.720000m/h.</desc>
<speed>0.200000</speed>
</trkpt>
<trkpt lat="55.900177" lon="26.529051">
<ele>92.852600</ele>
<time>2010-08-29T18:20:57Z</time>
<desc>lat.=55.900177, lon.=26.529051, Alt.=92.852600m. Speed=0.720000m/h.</desc>
<speed>0.200000</speed>
</trkpt>
<trkpt lat="55.900173" lon="26.529051">
<ele>92.696350</ele>
<time>2010-08-29T18:20:58Z</time>
<desc>lat.=55.900173, lon.=26.529051, Alt.=92.696350m. Speed=0.720000m/h.</desc>
<speed>0.200000</speed>
</trkpt>
<trkpt lat="55.900173" lon="26.529053">
<ele>92.544006</ele>
<time>2010-08-29T18:20:59Z</time>
<desc>lat.=55.900173, lon.=26.529053, Alt.=92.544006m. Speed=0.720000m/h.</desc>
<speed>0.200000</speed>
</trkpt>
<trkpt lat="55.900173" lon="26.529055">
<ele>92.391663</ele>
<time>2010-08-29T18:21:00Z</time>
<desc>lat.=55.900173, lon.=26.529055, Alt.=92.391663m. Speed=0.720000m/h.</desc>
<speed>0.200000</speed>
</trkpt>
<trkpt lat="55.900169" lon="26.529055">
<ele>92.241272</ele>
<time>2010-08-29T18:21:01Z</time>
<desc>lat.=55.900169, lon.=26.529055, Alt.=92.241272m. Speed=0.792000m/h.</desc>
<speed>0.220000</speed>
</trkpt>
<trkpt lat="55.900169" lon="26.529057">
<ele>92.092834</ele>
<time>2010-08-29T18:21:02Z</time>
<desc>lat.=55.900169, lon.=26.529057, Alt.=92.092834m. Speed=0.792000m/h.</desc>
<speed>0.220000</speed>
</trkpt>
<trkpt lat="55.900166" lon="26.529058">
<ele>91.942444</ele>
<time>2010-08-29T18:21:03Z</time>
<desc>lat.=55.900166, lon.=26.529058, Alt.=91.942444m. Speed=0.792000m/h.</desc>
<speed>0.220000</speed>
</trkpt>
<trkpt lat="55.900166" lon="26.529060">
<ele>91.794006</ele>
<time>2010-08-29T18:21:04Z</time>
<desc>lat.=55.900166, lon.=26.529060, Alt.=91.794006m. Speed=0.792000m/h.</desc>
<speed>0.220000</speed>
</trkpt>
<trkpt lat="55.900162" lon="26.529060">
<ele>91.645569</ele>
<time>2010-08-29T18:21:05Z</time>
<desc>lat.=55.900162, lon.=26.529060, Alt.=91.645569m. Speed=0.828000m/h.</desc>
<speed>0.230000</speed>
</trkpt>
<trkpt lat="55.900162" lon="26.529062">
<ele>91.501038</ele>
<time>2010-08-29T18:21:06Z</time>
<desc>lat.=55.900162, lon.=26.529062, Alt.=91.501038m. Speed=0.864000m/h.</desc>
<speed>0.240000</speed>
</trkpt>
<trkpt lat="55.900158" lon="26.529064">
<ele>91.360413</ele>
<time>2010-08-29T18:21:07Z</time>
<desc>lat.=55.900158, lon.=26.529064, Alt.=91.360413m. Speed=0.828000m/h.</desc>
<speed>0.230000</speed>
</trkpt>
<trkpt lat="55.900158" lon="26.529064">
<ele>91.221741</ele>
<time>2010-08-29T18:21:08Z</time>
<desc>lat.=55.900158, lon.=26.529064, Alt.=91.221741m. Speed=0.792000m/h.</desc>
<speed>0.220000</speed>
</trkpt>
<trkpt lat="55.900154" lon="26.529066">
<ele>91.085022</ele>
<time>2010-08-29T18:21:09Z</time>
<desc>lat.=55.900154, lon.=26.529066, Alt.=91.085022m. Speed=0.792000m/h.</desc>
<speed>0.220000</speed>
</trkpt>
<trkpt lat="55.900154" lon="26.529068">
<ele>90.952209</ele>
<time>2010-08-29T18:21:10Z</time>
<desc>lat.=55.900154, lon.=26.529068, Alt.=90.952209m. Speed=0.792000m/h.</desc>
<speed>0.220000</speed>
</trkpt>
</trkseg>
</trk>
</gpx>